<?xml version="1.0" encoding="UTF-8" standalone="no" ?>
<gpx xmlns="http://www.topografix.com/GPX/1/1" xmlns:xsi="http://www.w3.org/2001/XMLSchema-instance" xsi:schemaLocation="http://www.topografix.com/GPX/1/1 http://www.topografix.com/GPX/1/1/gpx.xsd" version="1.1" creator="VisuGPX - https://www.visugpx.com">
  <metadata>
    <name>De Cherbourg à Caen par l'Eurovelo4</name>
    <desc><![CDATA[Itinéraire aménagé le long de l'Eurevelo4. 
Il est possible de laisser sa voiture à Caen et de rejoindre Cherbourg en train par une ligne direct. 
Réalisé l'été 2022. La trace contient en plus un aller retour de Port en Bessin - Omaha Beach pour visiter le cimetière américain de Colleville sur mer. ]]></desc>
  </metadata>
  <trk>
    <name><![CDATA[De Cherbourg à Tourlaville]]></name>
    <extensions>
      <line xmlns="http://www.topografix.com/GPX/gpx_style/0/2">
        <color>0000FF</color>
        <width>4</width>
      </line>
    </extensions>
    <trkseg>
      <trkpt lat="49.63399" lon="-1.6229">
        <ele>47.742328</ele>
        <time>2022-07-29T11:58:30.929Z</time>
      </trkpt>
      <trkpt lat="49.634" lon="-1.62262">
        <ele>47.742328</ele>
        <time>2022-07-29T11:59:26.476Z</time>
      </trkpt>
      <trkpt lat="49.63398" lon="-1.62248">
        <ele>47.742328</ele>
        <time>2022-07-29T11:59:29.476Z</time>
      </trkpt>
      <trkpt lat="49.63397" lon="-1.62233">
        <ele>47.742328</ele>
        <time>2022-07-29T11:59:37.473Z</time>
      </trkpt>
      <trkpt lat="49.63399" lon="-1.6222">
        <ele>47.742328</ele>
        <time>2022-07-29T11:59:42.472Z</time>
      </trkpt>
      <trkpt lat="49.63396" lon="-1.62205">
        <ele>47.742328</ele>
        <time>2022-07-29T11:59:47.475Z</time>
      </trkpt>
      <trkpt lat="49.63405" lon="-1.62209">
        <ele>47.742328</ele>
        <time>2022-07-29T12:00:15.468Z</time>
      </trkpt>
      <trkpt lat="49.63408" lon="-1.62195">
        <ele>47.742328</ele>
        <time>2022-07-29T12:00:56.479Z</time>
      </trkpt>
      <trkpt lat="49.63408" lon="-1.62181">
        <ele>47.742328</ele>
        <time>2022-07-29T12:01:00.502Z</time>
      </trkpt>
      <trkpt lat="49.63405" lon="-1.62166">
        <ele>47.828837</ele>
        <time>2022-07-29T12:01:03.629Z</time>
      </trkpt>
      <trkpt lat="49.63403" lon="-1.62149">
        <ele>48.064085</ele>
        <time>2022-07-29T12:01:06.484Z</time>
      </trkpt>
      <trkpt lat="49.63402" lon="-1.62132">
        <ele>48.287329</ele>
        <time>2022-07-29T12:01:09.496Z</time>
      </trkpt>
      <trkpt lat="49.634" lon="-1.62116">
        <ele>48.491536</ele>
        <time>2022-07-29T12:01:12.468Z</time>
      </trkpt>
      <trkpt lat="49.634" lon="-1.62101">
        <ele>48.699587</ele>
        <time>2022-07-29T12:01:15.464Z</time>
      </trkpt>
      <trkpt lat="49.63401" lon="-1.62085">
        <ele>48.901671</ele>
        <time>2022-07-29T12:01:18.478Z</time>
      </trkpt>
      <trkpt lat="49.63401" lon="-1.62069">
        <ele>49.109722</ele>
        <time>2022-07-29T12:01:21.482Z</time>
      </trkpt>
      <trkpt lat="49.63398" lon="-1.62055">
        <ele>49.307616</ele>
        <time>2022-07-29T12:01:24.480Z</time>
      </trkpt>
      <trkpt lat="49.63394" lon="-1.62041">
        <ele>49.51148</ele>
        <time>2022-07-29T12:01:27.482Z</time>
      </trkpt>
      <trkpt lat="49.63392" lon="-1.62027">
        <ele>49.70253</ele>
        <time>2022-07-29T12:01:30.494Z</time>
      </trkpt>
      <trkpt lat="49.63393" lon="-1.62013">
        <ele>49.892933</ele>
        <time>2022-07-29T12:01:34.472Z</time>
      </trkpt>
      <trkpt lat="49.63401" lon="-1.62003">
        <ele>50.091701</ele>
        <time>2022-07-29T12:01:51.497Z</time>
      </trkpt>
      <trkpt lat="49.6341" lon="-1.61999">
        <ele>50.294169</ele>
        <time>2022-07-29T12:01:55.492Z</time>
      </trkpt>
      <trkpt lat="49.63422" lon="-1.61997">
        <ele>50.535773</ele>
        <time>2022-07-29T12:01:59.503Z</time>
      </trkpt>
      <trkpt lat="49.63436" lon="-1.61988">
        <ele>50.849829</ele>
        <time>2022-07-29T12:02:02.502Z</time>
      </trkpt>
      <trkpt lat="49.63445" lon="-1.61985">
        <ele>51.041282</ele>
        <time>2022-07-29T12:02:04.491Z</time>
      </trkpt>
      <trkpt lat="49.63457" lon="-1.61984">
        <ele>51.283877</ele>
        <time>2022-07-29T12:02:07.491Z</time>
      </trkpt>
      <trkpt lat="49.63468" lon="-1.61983">
        <ele>51.425451</ele>
        <time>2022-07-29T12:02:09.498Z</time>
      </trkpt>
      <trkpt lat="49.6348" lon="-1.61982">
        <ele>51.496126</ele>
        <time>2022-07-29T12:02:11.493Z</time>
      </trkpt>
      <trkpt lat="49.6349" lon="-1.6198">
        <ele>51.556412</ele>
        <time>2022-07-29T12:02:13.482Z</time>
      </trkpt>
      <trkpt lat="49.635" lon="-1.61978">
        <ele>51.6136</ele>
        <time>2022-07-29T12:02:15.469Z</time>
      </trkpt>
      <trkpt lat="49.63512" lon="-1.61974">
        <ele>51.68314</ele>
        <time>2022-07-29T12:02:18.466Z</time>
      </trkpt>
      <trkpt lat="49.63522" lon="-1.61972">
        <ele>51.741279</ele>
        <time>2022-07-29T12:02:20.487Z</time>
      </trkpt>
      <trkpt lat="49.63533" lon="-1.61969">
        <ele>51.809262</ele>
        <time>2022-07-29T12:02:22.473Z</time>
      </trkpt>
      <trkpt lat="49.63543" lon="-1.61969">
        <ele>51.865875</ele>
        <time>2022-07-29T12:02:24.490Z</time>
      </trkpt>
      <trkpt lat="49.63552" lon="-1.61965">
        <ele>51.921335</ele>
        <time>2022-07-29T12:02:26.490Z</time>
      </trkpt>
      <trkpt lat="49.63564" lon="-1.61963">
        <ele>51.986285</ele>
        <time>2022-07-29T12:02:28.502Z</time>
      </trkpt>
      <trkpt lat="49.63577" lon="-1.61951">
        <ele>52.07793</ele>
        <time>2022-07-29T12:02:31.519Z</time>
      </trkpt>
      <trkpt lat="49.63587" lon="-1.61948">
        <ele>52.13612</ele>
        <time>2022-07-29T12:02:34.485Z</time>
      </trkpt>
      <trkpt lat="49.63855" lon="-1.61929">
        <ele>53.96473</ele>
        <time>2022-07-29T12:04:07.597Z</time>
      </trkpt>
      <trkpt lat="49.63864" lon="-1.61927">
        <ele>53.816603</ele>
        <time>2022-07-29T12:04:13.463Z</time>
      </trkpt>
      <trkpt lat="49.63862" lon="-1.6191">
        <ele>53.642353</ele>
        <time>2022-07-29T12:04:19.469Z</time>
      </trkpt>
      <trkpt lat="49.6387" lon="-1.61901">
        <ele>53.498895</ele>
        <time>2022-07-29T12:04:25.491Z</time>
      </trkpt>
      <trkpt lat="49.63887" lon="-1.619">
        <ele>53.229741</ele>
        <time>2022-07-29T12:04:55.492Z</time>
      </trkpt>
      <trkpt lat="49.63896" lon="-1.61897">
        <ele>53.083939</ele>
        <time>2022-07-29T12:04:58.486Z</time>
      </trkpt>
      <trkpt lat="49.63906" lon="-1.61894">
        <ele>52.93376</ele>
        <time>2022-07-29T12:05:01.481Z</time>
      </trkpt>
      <trkpt lat="49.63917" lon="-1.61893">
        <ele>52.762161</ele>
        <time>2022-07-29T12:05:04.492Z</time>
      </trkpt>
      <trkpt lat="49.63928" lon="-1.61894">
        <ele>52.589165</ele>
        <time>2022-07-29T12:05:07.486Z</time>
      </trkpt>
      <trkpt lat="49.64211" lon="-1.61732">
        <ele>52.598279</ele>
        <time>2022-07-29T12:06:23.508Z</time>
      </trkpt>
      <trkpt lat="49.64219" lon="-1.61721">
        <ele>52.488883</ele>
        <time>2022-07-29T12:06:24.472Z</time>
      </trkpt>
      <trkpt lat="49.64217" lon="-1.61706">
        <ele>52.375919</ele>
        <time>2022-07-29T12:06:27.483Z</time>
      </trkpt>
      <trkpt lat="49.64222" lon="-1.61689">
        <ele>52.244614</ele>
        <time>2022-07-29T12:06:30.464Z</time>
      </trkpt>
      <trkpt lat="49.64226" lon="-1.61672">
        <ele>52.110517</ele>
        <time>2022-07-29T12:06:33.489Z</time>
      </trkpt>
      <trkpt lat="49.64228" lon="-1.61658">
        <ele>52.007282</ele>
        <time>2022-07-29T12:06:35.524Z</time>
      </trkpt>
      <trkpt lat="49.64229" lon="-1.61638">
        <ele>51.863545</ele>
        <time>2022-07-29T12:06:38.486Z</time>
      </trkpt>
      <trkpt lat="49.64228" lon="-1.6162">
        <ele>51.725676</ele>
        <time>2022-07-29T12:06:41.493Z</time>
      </trkpt>
      <trkpt lat="49.64224" lon="-1.61605">
        <ele>51.608441</ele>
        <time>2022-07-29T12:06:45.474Z</time>
      </trkpt>
      <trkpt lat="49.64328" lon="-1.60491">
        <ele>49.555494</ele>
        <time>2022-07-29T12:13:37.461Z</time>
      </trkpt>
      <trkpt lat="49.64328" lon="-1.60476">
        <ele>49.437263</ele>
        <time>2022-07-29T12:13:41.470Z</time>
      </trkpt>
      <trkpt lat="49.64327" lon="-1.6046">
        <ele>49.313051</ele>
        <time>2022-07-29T12:13:46.469Z</time>
      </trkpt>
      <trkpt lat="49.64329" lon="-1.60445">
        <ele>49.196605</ele>
        <time>2022-07-29T12:13:50.472Z</time>
      </trkpt>
      <trkpt lat="49.6433" lon="-1.60428">
        <ele>49.064481</ele>
        <time>2022-07-29T12:13:54.469Z</time>
      </trkpt>
      <trkpt lat="49.64331" lon="-1.6041">
        <ele>48.929133</ele>
        <time>2022-07-29T12:13:58.471Z</time>
      </trkpt>
      <trkpt lat="49.64338" lon="-1.60376">
        <ele>48.647466</ele>
        <time>2022-07-29T12:14:57.495Z</time>
      </trkpt>
      <trkpt lat="49.6434" lon="-1.60362">
        <ele>48.539161</ele>
        <time>2022-07-29T12:15:00.463Z</time>
      </trkpt>
      <trkpt lat="49.64342" lon="-1.60347">
        <ele>48.422279</ele>
        <time>2022-07-29T12:15:04.479Z</time>
      </trkpt>
      <trkpt lat="49.64345" lon="-1.60333">
        <ele>48.308917</ele>
        <time>2022-07-29T12:15:10.466Z</time>
      </trkpt>
      <trkpt lat="49.64346" lon="-1.60315">
        <ele>48.170782</ele>
        <time>2022-07-29T12:15:40.463Z</time>
      </trkpt>
      <trkpt lat="49.64341" lon="-1.60303">
        <ele>48.061766</ele>
        <time>2022-07-29T12:15:44.478Z</time>
      </trkpt>
      <trkpt lat="49.64342" lon="-1.60289">
        <ele>47.951641</ele>
        <time>2022-07-29T12:15:47.463Z</time>
      </trkpt>
      <trkpt lat="49.64346" lon="-1.60274">
        <ele>47.831611</ele>
        <time>2022-07-29T12:15:50.479Z</time>
      </trkpt>
      <trkpt lat="49.6435" lon="-1.60261">
        <ele>47.71891</ele>
        <time>2022-07-29T12:15:53.473Z</time>
      </trkpt>
      <trkpt lat="49.64355" lon="-1.60246">
        <ele>47.592125</ele>
        <time>2022-07-29T12:15:57.489Z</time>
      </trkpt>
      <trkpt lat="49.64358" lon="-1.60229">
        <ele>47.456586</ele>
        <time>2022-07-29T12:16:01.472Z</time>
      </trkpt>
      <trkpt lat="49.64362" lon="-1.60212">
        <ele>47.315247</ele>
        <time>2022-07-29T12:16:05.474Z</time>
      </trkpt>
      <trkpt lat="49.64366" lon="-1.60196">
        <ele>47.288054</ele>
        <time>2022-07-29T12:16:09.473Z</time>
      </trkpt>
      <trkpt lat="49.64368" lon="-1.60179">
        <ele>47.43759</ele>
        <time>2022-07-29T12:16:13.471Z</time>
      </trkpt>
      <trkpt lat="49.64368" lon="-1.60162">
        <ele>47.599083</ele>
        <time>2022-07-29T12:16:17.474Z</time>
      </trkpt>
      <trkpt lat="49.64373" lon="-1.60145">
        <ele>47.75754</ele>
        <time>2022-07-29T12:16:21.484Z</time>
      </trkpt>
      <trkpt lat="49.64376" lon="-1.60129">
        <ele>47.91417</ele>
        <time>2022-07-29T12:16:25.478Z</time>
      </trkpt>
      <trkpt lat="49.64381" lon="-1.60113">
        <ele>48.072296</ele>
        <time>2022-07-29T12:16:29.487Z</time>
      </trkpt>
      <trkpt lat="49.64385" lon="-1.60097">
        <ele>48.22353</ele>
        <time>2022-07-29T12:16:33.477Z</time>
      </trkpt>
      <trkpt lat="49.64388" lon="-1.60082">
        <ele>48.367171</ele>
        <time>2022-07-29T12:16:37.473Z</time>
      </trkpt>
      <trkpt lat="49.64391" lon="-1.60065">
        <ele>48.523708</ele>
        <time>2022-07-29T12:16:41.489Z</time>
      </trkpt>
      <trkpt lat="49.64396" lon="-1.60049">
        <ele>48.681834</ele>
        <time>2022-07-29T12:16:45.467Z</time>
      </trkpt>
      <trkpt lat="49.64401" lon="-1.60034">
        <ele>48.833606</ele>
        <time>2022-07-29T12:16:49.479Z</time>
      </trkpt>
      <trkpt lat="49.64405" lon="-1.60018">
        <ele>48.988387</ele>
        <time>2022-07-29T12:16:53.475Z</time>
      </trkpt>
      <trkpt lat="49.6441" lon="-1.60003">
        <ele>49.139033</ele>
        <time>2022-07-29T12:16:57.480Z</time>
      </trkpt>
      <trkpt lat="49.64414" lon="-1.59987">
        <ele>49.291944</ele>
        <time>2022-07-29T12:17:01.472Z</time>
      </trkpt>
      <trkpt lat="49.64417" lon="-1.59971">
        <ele>49.446039</ele>
        <time>2022-07-29T12:17:05.470Z</time>
      </trkpt>
      <trkpt lat="49.64421" lon="-1.59956">
        <ele>49.591395</ele>
        <time>2022-07-29T12:17:09.467Z</time>
      </trkpt>
      <trkpt lat="49.64425" lon="-1.5994">
        <ele>49.743631</ele>
        <time>2022-07-29T12:17:13.469Z</time>
      </trkpt>
      <trkpt lat="49.64429" lon="-1.59924">
        <ele>49.918422</ele>
        <time>2022-07-29T12:17:17.484Z</time>
      </trkpt>
      <trkpt lat="49.64434" lon="-1.59908">
        <ele>50.087273</ele>
        <time>2022-07-29T12:17:21.467Z</time>
      </trkpt>
      <trkpt lat="49.64438" lon="-1.59895">
        <ele>50.224589</ele>
        <time>2022-07-29T12:17:24.472Z</time>
      </trkpt>
      <trkpt lat="49.64443" lon="-1.5988">
        <ele>50.391508</ele>
        <time>2022-07-29T12:17:28.471Z</time>
      </trkpt>
      <trkpt lat="49.64448" lon="-1.59866">
        <ele>50.544675</ele>
        <time>2022-07-29T12:17:32.479Z</time>
      </trkpt>
      <trkpt lat="49.64454" lon="-1.59852">
        <ele>50.701743</ele>
        <time>2022-07-29T12:17:36.473Z</time>
      </trkpt>
      <trkpt lat="49.6446" lon="-1.59839">
        <ele>50.859617</ele>
        <time>2022-07-29T12:17:40.476Z</time>
      </trkpt>
      <trkpt lat="49.64466" lon="-1.59825">
        <ele>51.024006</ele>
        <time>2022-07-29T12:17:44.473Z</time>
      </trkpt>
      <trkpt lat="49.64473" lon="-1.59811">
        <ele>51.187652</ele>
        <time>2022-07-29T12:17:48.475Z</time>
      </trkpt>
      <trkpt lat="49.64479" lon="-1.59797">
        <ele>51.348074</ele>
        <time>2022-07-29T12:17:52.471Z</time>
      </trkpt>
      <trkpt lat="49.64485" lon="-1.59783">
        <ele>51.517538</ele>
        <time>2022-07-29T12:17:56.482Z</time>
      </trkpt>
      <trkpt lat="49.64493" lon="-1.59769">
        <ele>51.693014</ele>
        <time>2022-07-29T12:18:00.479Z</time>
      </trkpt>
      <trkpt lat="49.64499" lon="-1.59754">
        <ele>51.863111</ele>
        <time>2022-07-29T12:18:04.494Z</time>
      </trkpt>
      <trkpt lat="49.64505" lon="-1.59739">
        <ele>52.033953</ele>
        <time>2022-07-29T12:18:08.465Z</time>
      </trkpt>
      <trkpt lat="49.64511" lon="-1.59728">
        <ele>52.170299</ele>
        <time>2022-07-29T12:18:11.477Z</time>
      </trkpt>
      <trkpt lat="49.64518" lon="-1.59713">
        <ele>52.348552</ele>
        <time>2022-07-29T12:18:15.479Z</time>
      </trkpt>
      <trkpt lat="49.64525" lon="-1.59698">
        <ele>52.28308</ele>
        <time>2022-07-29T12:18:19.474Z</time>
      </trkpt>
      <trkpt lat="49.64532" lon="-1.59684">
        <ele>52.080879</ele>
        <time>2022-07-29T12:18:23.534Z</time>
      </trkpt>
      <trkpt lat="49.64537" lon="-1.59673">
        <ele>51.926129</ele>
        <time>2022-07-29T12:18:26.470Z</time>
      </trkpt>
      <trkpt lat="49.64543" lon="-1.5966">
        <ele>51.747549</ele>
        <time>2022-07-29T12:18:29.465Z</time>
      </trkpt>
      <trkpt lat="49.6455" lon="-1.59647">
        <ele>51.565372</ele>
        <time>2022-07-29T12:18:32.474Z</time>
      </trkpt>
      <trkpt lat="49.64555" lon="-1.59634">
        <ele>51.391753</ele>
        <time>2022-07-29T12:18:35.477Z</time>
      </trkpt>
      <trkpt lat="49.64561" lon="-1.59621">
        <ele>51.213484</ele>
        <time>2022-07-29T12:18:38.464Z</time>
      </trkpt>
      <trkpt lat="49.64567" lon="-1.59607">
        <ele>51.024921</ele>
        <time>2022-07-29T12:18:41.476Z</time>
      </trkpt>
      <trkpt lat="49.64574" lon="-1.59592">
        <ele>50.830771</ele>
        <time>2022-07-29T12:18:44.478Z</time>
      </trkpt>
      <trkpt lat="49.6458" lon="-1.59578">
        <ele>50.638469</ele>
        <time>2022-07-29T12:18:47.487Z</time>
      </trkpt>
      <trkpt lat="49.64586" lon="-1.59565">
        <ele>50.45335</ele>
        <time>2022-07-29T12:18:50.495Z</time>
      </trkpt>
      <trkpt lat="49.64593" lon="-1.59551">
        <ele>50.264717</ele>
        <time>2022-07-29T12:18:53.470Z</time>
      </trkpt>
      <trkpt lat="49.64599" lon="-1.59539">
        <ele>50.085395</ele>
        <time>2022-07-29T12:18:56.465Z</time>
      </trkpt>
      <trkpt lat="49.64606" lon="-1.59527">
        <ele>49.91822</ele>
        <time>2022-07-29T12:18:59.472Z</time>
      </trkpt>
      <trkpt lat="49.64612" lon="-1.59514">
        <ele>49.732317</ele>
        <time>2022-07-29T12:19:02.474Z</time>
      </trkpt>
      <trkpt lat="49.6462" lon="-1.59502">
        <ele>49.543935</ele>
        <time>2022-07-29T12:19:05.473Z</time>
      </trkpt>
      <trkpt lat="49.64627" lon="-1.59489">
        <ele>49.349922</ele>
        <time>2022-07-29T12:19:08.466Z</time>
      </trkpt>
      <trkpt lat="49.64635" lon="-1.59476">
        <ele>49.292097</ele>
        <time>2022-07-29T12:19:11.491Z</time>
      </trkpt>
      <trkpt lat="49.64642" lon="-1.59463">
        <ele>49.270346</ele>
        <time>2022-07-29T12:19:14.477Z</time>
      </trkpt>
      <trkpt lat="49.64649" lon="-1.5945">
        <ele>49.249509</ele>
        <time>2022-07-29T12:19:17.475Z</time>
      </trkpt>
      <trkpt lat="49.64656" lon="-1.59437">
        <ele>49.228182</ele>
        <time>2022-07-29T12:19:20.475Z</time>
      </trkpt>
      <trkpt lat="49.64662" lon="-1.59425">
        <ele>49.207828</ele>
        <time>2022-07-29T12:19:23.475Z</time>
      </trkpt>
      <trkpt lat="49.64668" lon="-1.59413">
        <ele>49.189143</ele>
        <time>2022-07-29T12:19:26.482Z</time>
      </trkpt>
      <trkpt lat="49.64674" lon="-1.59402">
        <ele>49.17107</ele>
        <time>2022-07-29T12:19:29.478Z</time>
      </trkpt>
      <trkpt lat="49.64681" lon="-1.5939">
        <ele>49.151089</ele>
        <time>2022-07-29T12:19:32.491Z</time>
      </trkpt>
      <trkpt lat="49.64688" lon="-1.59376">
        <ele>49.129882</ele>
        <time>2022-07-29T12:19:35.471Z</time>
      </trkpt>
      <trkpt lat="49.64695" lon="-1.59364">
        <ele>49.109108</ele>
        <time>2022-07-29T12:19:38.478Z</time>
      </trkpt>
      <trkpt lat="49.64702" lon="-1.59352">
        <ele>49.087736</ele>
        <time>2022-07-29T12:19:41.470Z</time>
      </trkpt>
      <trkpt lat="49.64709" lon="-1.59338">
        <ele>49.066606</ele>
        <time>2022-07-29T12:19:44.472Z</time>
      </trkpt>
      <trkpt lat="49.64716" lon="-1.59325">
        <ele>49.045158</ele>
        <time>2022-07-29T12:19:47.468Z</time>
      </trkpt>
      <trkpt lat="49.64723" lon="-1.59311">
        <ele>49.023216</ele>
        <time>2022-07-29T12:19:50.479Z</time>
      </trkpt>
      <trkpt lat="49.6473" lon="-1.59298">
        <ele>49.001177</ele>
        <time>2022-07-29T12:19:53.475Z</time>
      </trkpt>
      <trkpt lat="49.64737" lon="-1.59285">
        <ele>48.979394</ele>
        <time>2022-07-29T12:19:56.492Z</time>
      </trkpt>
      <trkpt lat="49.64745" lon="-1.59271">
        <ele>48.952632</ele>
        <time>2022-07-29T12:19:59.472Z</time>
      </trkpt>
      <trkpt lat="49.64753" lon="-1.59258">
        <ele>48.90813</ele>
        <time>2022-07-29T12:20:02.470Z</time>
      </trkpt>
      <trkpt lat="49.64763" lon="-1.59255">
        <ele>48.871144</ele>
        <time>2022-07-29T12:20:05.473Z</time>
      </trkpt>
      <trkpt lat="49.64769" lon="-1.59243">
        <ele>48.835586</ele>
        <time>2022-07-29T12:20:08.478Z</time>
      </trkpt>
      <trkpt lat="49.64776" lon="-1.5923">
        <ele>48.792887</ele>
        <time>2022-07-29T12:20:12.478Z</time>
      </trkpt>
      <trkpt lat="49.64783" lon="-1.59221">
        <ele>48.758471</ele>
        <time>2022-07-29T12:20:16.482Z</time>
      </trkpt>
      <trkpt lat="49.64792" lon="-1.59226">
        <ele>48.721879</ele>
        <time>2022-07-29T12:21:54.484Z</time>
      </trkpt>
      <trkpt lat="49.64801" lon="-1.5924">
        <ele>48.675104</ele>
        <time>2022-07-29T12:21:57.506Z</time>
      </trkpt>
      <trkpt lat="49.64811" lon="-1.59243">
        <ele>48.635646</ele>
        <time>2022-07-29T12:22:00.480Z</time>
      </trkpt>
      <trkpt lat="49.64822" lon="-1.59241">
        <ele>48.594347</ele>
        <time>2022-07-29T12:22:04.477Z</time>
      </trkpt>
      <trkpt lat="49.64832" lon="-1.59238">
        <ele>48.554948</ele>
        <time>2022-07-29T12:22:07.502Z</time>
      </trkpt>
      <trkpt lat="49.64844" lon="-1.59238">
        <ele>48.510442</ele>
        <time>2022-07-29T12:22:10.480Z</time>
      </trkpt>
      <trkpt lat="49.64853" lon="-1.59236">
        <ele>48.47537</ele>
        <time>2022-07-29T12:22:13.470Z</time>
      </trkpt>
      <trkpt lat="49.64864" lon="-1.59237">
        <ele>48.434852</ele>
        <time>2022-07-29T12:22:17.481Z</time>
      </trkpt>
      <trkpt lat="49.64873" lon="-1.59235">
        <ele>48.399188</ele>
        <time>2022-07-29T12:22:21.474Z</time>
      </trkpt>
      <trkpt lat="49.6488" lon="-1.59221">
        <ele>48.355149</ele>
        <time>2022-07-29T12:22:25.477Z</time>
      </trkpt>
      <trkpt lat="49.64888" lon="-1.59212">
        <ele>48.31843</ele>
        <time>2022-07-29T12:22:30.486Z</time>
      </trkpt>
      <trkpt lat="49.64894" lon="-1.59222">
        <ele>48.284186</ele>
        <time>2022-07-29T12:22:36.507Z</time>
      </trkpt>
      <trkpt lat="49.64913" lon="-1.59243">
        <ele>48.782388</ele>
        <time>2022-07-29T12:23:17.496Z</time>
      </trkpt>
      <trkpt lat="49.64919" lon="-1.59253">
        <ele>48.993362</ele>
        <time>2022-07-29T12:23:20.482Z</time>
      </trkpt>
      <trkpt lat="49.64926" lon="-1.59266">
        <ele>49.229489</ele>
        <time>2022-07-29T12:23:23.488Z</time>
      </trkpt>
      <trkpt lat="49.64933" lon="-1.59275">
        <ele>49.444806</ele>
        <time>2022-07-29T12:23:26.475Z</time>
      </trkpt>
      <trkpt lat="49.64939" lon="-1.5929">
        <ele>49.709697</ele>
        <time>2022-07-29T12:23:29.470Z</time>
      </trkpt>
      <trkpt lat="49.64946" lon="-1.59305">
        <ele>49.978289</ele>
        <time>2022-07-29T12:23:32.496Z</time>
      </trkpt>
      <trkpt lat="49.64954" lon="-1.59317">
        <ele>50.220354</ele>
        <time>2022-07-29T12:23:35.464Z</time>
      </trkpt>
      <trkpt lat="49.64963" lon="-1.59327">
        <ele>50.470672</ele>
        <time>2022-07-29T12:23:38.482Z</time>
      </trkpt>
      <trkpt lat="49.64972" lon="-1.59335">
        <ele>50.721186</ele>
        <time>2022-07-29T12:23:41.465Z</time>
      </trkpt>
      <trkpt lat="49.64983" lon="-1.59341">
        <ele>50.980515</ele>
        <time>2022-07-29T12:23:44.469Z</time>
      </trkpt>
      <trkpt lat="49.64994" lon="-1.59345">
        <ele>51.237699</ele>
        <time>2022-07-29T12:23:47.492Z</time>
      </trkpt>
      <trkpt lat="49.65005" lon="-1.5935">
        <ele>51.50025</ele>
        <time>2022-07-29T12:23:50.476Z</time>
      </trkpt>
      <trkpt lat="49.65017" lon="-1.59354">
        <ele>51.76763</ele>
        <time>2022-07-29T12:23:53.491Z</time>
      </trkpt>
      <trkpt lat="49.65188" lon="-1.58976">
        <ele>52.140522</ele>
        <time>2022-07-29T12:28:40.476Z</time>
      </trkpt>
      <trkpt lat="49.65186" lon="-1.58992">
        <ele>52.091563</ele>
        <time>2022-07-29T12:28:44.481Z</time>
      </trkpt>
      <trkpt lat="49.6518" lon="-1.59006">
        <ele>52.044123</ele>
        <time>2022-07-29T12:28:48.472Z</time>
      </trkpt>
      <trkpt lat="49.65178" lon="-1.59019">
        <ele>52.002551</ele>
        <time>2022-07-29T12:28:52.482Z</time>
      </trkpt>
      <trkpt lat="49.65176" lon="-1.59035">
        <ele>51.95575</ele>
        <time>2022-07-29T12:28:56.492Z</time>
      </trkpt>
      <trkpt lat="49.65174" lon="-1.5905">
        <ele>51.909214</ele>
        <time>2022-07-29T12:28:59.468Z</time>
      </trkpt>
      <trkpt lat="49.65173" lon="-1.59065">
        <ele>51.863418</ele>
        <time>2022-07-29T12:29:02.483Z</time>
      </trkpt>
      <trkpt lat="49.65169" lon="-1.5908">
        <ele>51.817367</ele>
        <time>2022-07-29T12:29:05.469Z</time>
      </trkpt>
      <trkpt lat="49.65157" lon="-1.59083">
        <ele>51.76431</ele>
        <time>2022-07-29T12:29:09.522Z</time>
      </trkpt>
      <trkpt lat="49.65149" lon="-1.59072">
        <ele>51.753849</ele>
        <time>2022-07-29T12:29:12.480Z</time>
      </trkpt>
      <trkpt lat="49.65143" lon="-1.5906">
        <ele>51.778662</ele>
        <time>2022-07-29T12:29:15.485Z</time>
      </trkpt>
      <trkpt lat="49.65137" lon="-1.59048">
        <ele>51.802675</ele>
        <time>2022-07-29T12:29:18.483Z</time>
      </trkpt>
      <trkpt lat="49.65132" lon="-1.59037">
        <ele>51.826052</ele>
        <time>2022-07-29T12:29:21.477Z</time>
      </trkpt>
      <trkpt lat="49.65124" lon="-1.59024">
        <ele>51.854012</ele>
        <time>2022-07-29T12:29:25.485Z</time>
      </trkpt>
      <trkpt lat="49.65117" lon="-1.59014">
        <ele>51.878859</ele>
        <time>2022-07-29T12:29:28.481Z</time>
      </trkpt>
      <trkpt lat="49.6511" lon="-1.59003">
        <ele>51.905371</ele>
        <time>2022-07-29T12:29:31.476Z</time>
      </trkpt>
      <trkpt lat="49.651" lon="-1.58994">
        <ele>51.933807</ele>
        <time>2022-07-29T12:29:34.487Z</time>
      </trkpt>
      <trkpt lat="49.65088" lon="-1.58985">
        <ele>51.966948</ele>
        <time>2022-07-29T12:29:37.472Z</time>
      </trkpt>
      <trkpt lat="49.65079" lon="-1.58977">
        <ele>51.993115</ele>
        <time>2022-07-29T12:29:39.479Z</time>
      </trkpt>
      <trkpt lat="49.65071" lon="-1.58959">
        <ele>52.028899</ele>
        <time>2022-07-29T12:29:42.480Z</time>
      </trkpt>
      <trkpt lat="49.65064" lon="-1.58948">
        <ele>52.053927</ele>
        <time>2022-07-29T12:29:44.476Z</time>
      </trkpt>
      <trkpt lat="49.65058" lon="-1.58937">
        <ele>52.078642</ele>
        <time>2022-07-29T12:29:46.489Z</time>
      </trkpt>
      <trkpt lat="49.65047" lon="-1.58928">
        <ele>52.108199</ele>
        <time>2022-07-29T12:29:48.484Z</time>
      </trkpt>
      <trkpt lat="49.65042" lon="-1.58915">
        <ele>52.1335</ele>
        <time>2022-07-29T12:29:50.481Z</time>
      </trkpt>
      <trkpt lat="49.65035" lon="-1.58904">
        <ele>52.157866</ele>
        <time>2022-07-29T12:29:52.475Z</time>
      </trkpt>
      <trkpt lat="49.65115" lon="-1.58387">
        <ele>55.841739</ele>
        <time>2022-07-29T12:35:57.482Z</time>
      </trkpt>
      <trkpt lat="49.65121" lon="-1.58376">
        <ele>55.906509</ele>
        <time>2022-07-29T12:36:00.463Z</time>
      </trkpt>
      <trkpt lat="49.65127" lon="-1.58362">
        <ele>55.982235</ele>
        <time>2022-07-29T12:36:04.476Z</time>
      </trkpt>
      <trkpt lat="49.65133" lon="-1.58351">
        <ele>56.048554</ele>
        <time>2022-07-29T12:36:07.479Z</time>
      </trkpt>
      <trkpt lat="49.65139" lon="-1.58338">
        <ele>56.032444</ele>
        <time>2022-07-29T12:36:10.474Z</time>
      </trkpt>
      <trkpt lat="49.65145" lon="-1.58326">
        <ele>56.007497</ele>
        <time>2022-07-29T12:36:13.469Z</time>
      </trkpt>
      <trkpt lat="49.65153" lon="-1.58312">
        <ele>55.977856</ele>
        <time>2022-07-29T12:36:17.461Z</time>
      </trkpt>
      <trkpt lat="49.65159" lon="-1.583">
        <ele>55.954646</ele>
        <time>2022-07-29T12:36:20.471Z</time>
      </trkpt>
      <trkpt lat="49.65165" lon="-1.58289">
        <ele>55.930952</ele>
        <time>2022-07-29T12:36:23.476Z</time>
      </trkpt>
      <trkpt lat="49.65171" lon="-1.58279">
        <ele>55.908368</ele>
        <time>2022-07-29T12:36:26.482Z</time>
      </trkpt>
      <trkpt lat="49.65177" lon="-1.58267">
        <ele>55.884883</ele>
        <time>2022-07-29T12:36:29.480Z</time>
      </trkpt>
      <trkpt lat="49.65183" lon="-1.58253">
        <ele>55.857858</ele>
        <time>2022-07-29T12:36:32.483Z</time>
      </trkpt>
      <trkpt lat="49.65188" lon="-1.58238">
        <ele>55.831299</ele>
        <time>2022-07-29T12:36:35.485Z</time>
      </trkpt>
      <trkpt lat="49.65193" lon="-1.58222">
        <ele>55.803019</ele>
        <time>2022-07-29T12:36:39.462Z</time>
      </trkpt>
      <trkpt lat="49.65198" lon="-1.58209">
        <ele>55.778611</ele>
        <time>2022-07-29T12:36:44.464Z</time>
      </trkpt>
      <trkpt lat="49.65202" lon="-1.58194">
        <ele>55.752825</ele>
        <time>2022-07-29T12:36:50.472Z</time>
      </trkpt>
      <trkpt lat="49.65204" lon="-1.58177">
        <ele>55.725762</ele>
        <time>2022-07-29T12:36:55.482Z</time>
      </trkpt>
      <trkpt lat="49.65206" lon="-1.58164">
        <ele>55.703224</ele>
        <time>2022-07-29T12:36:58.469Z</time>
      </trkpt>
      <trkpt lat="49.65209" lon="-1.58149">
        <ele>55.678937</ele>
        <time>2022-07-29T12:37:01.482Z</time>
      </trkpt>
      <trkpt lat="49.65211" lon="-1.58133">
        <ele>55.653015</ele>
        <time>2022-07-29T12:37:04.476Z</time>
      </trkpt>
      <trkpt lat="49.65213" lon="-1.58117">
        <ele>55.626618</ele>
        <time>2022-07-29T12:37:07.482Z</time>
      </trkpt>
      <trkpt lat="49.65215" lon="-1.58099">
        <ele>55.522916</ele>
        <time>2022-07-29T12:37:10.479Z</time>
      </trkpt>
      <trkpt lat="49.65219" lon="-1.58081">
        <ele>55.337742</ele>
        <time>2022-07-29T12:37:13.480Z</time>
      </trkpt>
      <trkpt lat="49.65222" lon="-1.58065">
        <ele>55.169209</ele>
        <time>2022-07-29T12:37:16.475Z</time>
      </trkpt>
      <trkpt lat="49.6523" lon="-1.58053">
        <ele>54.990059</ele>
        <time>2022-07-29T12:37:19.473Z</time>
      </trkpt>
      <trkpt lat="49.65239" lon="-1.58044">
        <ele>54.829724</ele>
        <time>2022-07-29T12:37:22.473Z</time>
      </trkpt>
      <trkpt lat="49.65235" lon="-1.5803">
        <ele>54.669314</ele>
        <time>2022-07-29T12:37:31.459Z</time>
      </trkpt>
      <trkpt lat="49.65228" lon="-1.58015">
        <ele>54.49358</ele>
        <time>2022-07-29T12:37:35.470Z</time>
      </trkpt>
      <trkpt lat="49.65223" lon="-1.57999">
        <ele>54.312116</ele>
        <time>2022-07-29T12:37:38.462Z</time>
      </trkpt>
      <trkpt lat="49.65221" lon="-1.57981">
        <ele>54.135828</ele>
        <time>2022-07-29T12:37:41.475Z</time>
      </trkpt>
      <trkpt lat="49.65223" lon="-1.57967">
        <ele>53.992714</ele>
        <time>2022-07-29T12:37:44.456Z</time>
      </trkpt>
      <trkpt lat="49.65227" lon="-1.5795">
        <ele>53.811486</ele>
        <time>2022-07-29T12:37:47.483Z</time>
      </trkpt>
      <trkpt lat="49.6523" lon="-1.57932">
        <ele>53.628061</ele>
        <time>2022-07-29T12:37:50.487Z</time>
      </trkpt>
      <trkpt lat="49.65233" lon="-1.57915">
        <ele>53.452843</ele>
        <time>2022-07-29T12:37:53.478Z</time>
      </trkpt>
      <trkpt lat="49.65236" lon="-1.57899">
        <ele>53.286731</ele>
        <time>2022-07-29T12:37:56.473Z</time>
      </trkpt>
      <trkpt lat="49.65239" lon="-1.57884">
        <ele>53.126284</ele>
        <time>2022-07-29T12:37:59.476Z</time>
      </trkpt>
      <trkpt lat="49.65242" lon="-1.57867">
        <ele>52.962039</ele>
        <time>2022-07-29T12:38:02.482Z</time>
      </trkpt>
      <trkpt lat="49.65244" lon="-1.5785">
        <ele>52.814566</ele>
        <time>2022-07-29T12:38:05.463Z</time>
      </trkpt>
      <trkpt lat="49.65245" lon="-1.57833">
        <ele>52.719211</ele>
        <time>2022-07-29T12:38:08.463Z</time>
      </trkpt>
      <trkpt lat="49.65248" lon="-1.57813">
        <ele>52.608432</ele>
        <time>2022-07-29T12:38:11.480Z</time>
      </trkpt>
      <trkpt lat="49.6525" lon="-1.57794">
        <ele>52.497491</ele>
        <time>2022-07-29T12:38:14.469Z</time>
      </trkpt>
      <trkpt lat="49.65252" lon="-1.57776">
        <ele>52.396317</ele>
        <time>2022-07-29T12:38:17.468Z</time>
      </trkpt>
      <trkpt lat="49.65255" lon="-1.57756">
        <ele>52.278703</ele>
        <time>2022-07-29T12:38:20.479Z</time>
      </trkpt>
      <trkpt lat="49.65256" lon="-1.57734">
        <ele>52.158898</ele>
        <time>2022-07-29T12:38:23.475Z</time>
      </trkpt>
      <trkpt lat="49.65259" lon="-1.5772">
        <ele>52.074235</ele>
        <time>2022-07-29T12:38:25.473Z</time>
      </trkpt>
      <trkpt lat="49.65259" lon="-1.577">
        <ele>51.964616</ele>
        <time>2022-07-29T12:38:28.463Z</time>
      </trkpt>
      <trkpt lat="49.6526" lon="-1.57682">
        <ele>51.86103</ele>
        <time>2022-07-29T12:38:30.479Z</time>
      </trkpt>
      <trkpt lat="49.65262" lon="-1.57663">
        <ele>51.753537</ele>
        <time>2022-07-29T12:38:33.477Z</time>
      </trkpt>
      <trkpt lat="49.65261" lon="-1.57648">
        <ele>51.673762</ele>
        <time>2022-07-29T12:38:35.467Z</time>
      </trkpt>
      <trkpt lat="49.65264" lon="-1.57632">
        <ele>51.576861</ele>
        <time>2022-07-29T12:38:37.477Z</time>
      </trkpt>
      <trkpt lat="49.65268" lon="-1.57616">
        <ele>51.484278</ele>
        <time>2022-07-29T12:38:39.472Z</time>
      </trkpt>
      <trkpt lat="49.65269" lon="-1.57599">
        <ele>51.386895</ele>
        <time>2022-07-29T12:38:42.480Z</time>
      </trkpt>
      <trkpt lat="49.65268" lon="-1.57583">
        <ele>51.306974</ele>
        <time>2022-07-29T12:38:44.465Z</time>
      </trkpt>
      <trkpt lat="49.65273" lon="-1.57565">
        <ele>51.39469</ele>
        <time>2022-07-29T12:38:46.473Z</time>
      </trkpt>
      <trkpt lat="49.65272" lon="-1.57545">
        <ele>51.481275</ele>
        <time>2022-07-29T12:38:49.473Z</time>
      </trkpt>
      <trkpt lat="49.65272" lon="-1.57531">
        <ele>51.544778</ele>
        <time>2022-07-29T12:38:51.472Z</time>
      </trkpt>
      <trkpt lat="49.65273" lon="-1.57513">
        <ele>51.624795</ele>
        <time>2022-07-29T12:38:53.476Z</time>
      </trkpt>
      <trkpt lat="49.65272" lon="-1.57493">
        <ele>51.71665</ele>
        <time>2022-07-29T12:38:56.478Z</time>
      </trkpt>
      <trkpt lat="49.6527" lon="-1.57475">
        <ele>51.799359</ele>
        <time>2022-07-29T12:38:59.476Z</time>
      </trkpt>
      <trkpt lat="49.65273" lon="-1.57459">
        <ele>51.873034</ele>
        <time>2022-07-29T12:39:01.472Z</time>
      </trkpt>
      <trkpt lat="49.65272" lon="-1.57439">
        <ele>51.961109</ele>
        <time>2022-07-29T12:39:04.473Z</time>
      </trkpt>
      <trkpt lat="49.65275" lon="-1.57424">
        <ele>52.030962</ele>
        <time>2022-07-29T12:39:06.477Z</time>
      </trkpt>
      <trkpt lat="49.65274" lon="-1.57404">
        <ele>52.120289</ele>
        <time>2022-07-29T12:39:09.481Z</time>
      </trkpt>
      <trkpt lat="49.65274" lon="-1.57383">
        <ele>52.21581</ele>
        <time>2022-07-29T12:39:12.475Z</time>
      </trkpt>
      <trkpt lat="49.65275" lon="-1.57366">
        <ele>52.293319</ele>
        <time>2022-07-29T12:39:14.474Z</time>
      </trkpt>
      <trkpt lat="49.65275" lon="-1.57347">
        <ele>52.377661</ele>
        <time>2022-07-29T12:39:16.478Z</time>
      </trkpt>
      <trkpt lat="49.65278" lon="-1.57328">
        <ele>52.463725</ele>
        <time>2022-07-29T12:39:18.483Z</time>
      </trkpt>
      <trkpt lat="49.65282" lon="-1.57309">
        <ele>52.549278</ele>
        <time>2022-07-29T12:39:20.474Z</time>
      </trkpt>
      <trkpt lat="49.65284" lon="-1.57288">
        <ele>52.606761</ele>
        <time>2022-07-29T12:39:23.472Z</time>
      </trkpt>
      <trkpt lat="49.65286" lon="-1.57266">
        <ele>52.667414</ele>
        <time>2022-07-29T12:39:26.473Z</time>
      </trkpt>
      <trkpt lat="49.65288" lon="-1.57251">
        <ele>52.708811</ele>
        <time>2022-07-29T12:39:28.465Z</time>
      </trkpt>
      <trkpt lat="49.65289" lon="-1.5723">
        <ele>52.768061</ele>
        <time>2022-07-29T12:39:31.476Z</time>
      </trkpt>
      <trkpt lat="49.65294" lon="-1.57215">
        <ele>52.8134</ele>
        <time>2022-07-29T12:39:33.469Z</time>
      </trkpt>
      <trkpt lat="49.65294" lon="-1.57199">
        <ele>52.857857</ele>
        <time>2022-07-29T12:39:36.477Z</time>
      </trkpt>
      <trkpt lat="49.65295" lon="-1.57181">
        <ele>52.905629</ele>
        <time>2022-07-29T12:39:39.473Z</time>
      </trkpt>
      <trkpt lat="49.65299" lon="-1.57164">
        <ele>52.95494</ele>
        <time>2022-07-29T12:39:42.464Z</time>
      </trkpt>
      <trkpt lat="49.65302" lon="-1.5715">
        <ele>52.994926</ele>
        <time>2022-07-29T12:39:44.475Z</time>
      </trkpt>
      <trkpt lat="49.65303" lon="-1.57134">
        <ele>53.038225</ele>
        <time>2022-07-29T12:39:46.476Z</time>
      </trkpt>
      <trkpt lat="49.65306" lon="-1.5712">
        <ele>53.078395</ele>
        <time>2022-07-29T12:39:48.469Z</time>
      </trkpt>
      <trkpt lat="49.65308" lon="-1.57103">
        <ele>53.126271</ele>
        <time>2022-07-29T12:39:51.474Z</time>
      </trkpt>
      <trkpt lat="49.65309" lon="-1.57084">
        <ele>53.177664</ele>
        <time>2022-07-29T12:39:54.468Z</time>
      </trkpt>
      <trkpt lat="49.65313" lon="-1.57068">
        <ele>53.224244</ele>
        <time>2022-07-29T12:39:56.481Z</time>
      </trkpt>
      <trkpt lat="49.65316" lon="-1.57052">
        <ele>53.270326</ele>
        <time>2022-07-29T12:39:59.473Z</time>
      </trkpt>
      <trkpt lat="49.6532" lon="-1.57035">
        <ele>53.282162</ele>
        <time>2022-07-29T12:40:01.481Z</time>
      </trkpt>
      <trkpt lat="49.65326" lon="-1.5701">
        <ele>53.209237</ele>
        <time>2022-07-29T12:40:04.474Z</time>
      </trkpt>
      <trkpt lat="49.65327" lon="-1.5699">
        <ele>53.155456</ele>
        <time>2022-07-29T12:40:08.465Z</time>
      </trkpt>
      <trkpt lat="49.6533" lon="-1.56969">
        <ele>53.097319</ele>
        <time>2022-07-29T12:40:11.475Z</time>
      </trkpt>
      <trkpt lat="49.65384" lon="-1.56889">
        <ele>52.788359</ele>
        <time>2022-07-29T12:40:29.470Z</time>
      </trkpt>
      <trkpt lat="49.65366" lon="-1.56881">
        <ele>52.709015</ele>
        <time>2022-07-29T12:40:30.475Z</time>
      </trkpt>
      <trkpt lat="49.65357" lon="-1.56873">
        <ele>52.666538</ele>
        <time>2022-07-29T12:40:33.464Z</time>
      </trkpt>
      <trkpt lat="49.65356" lon="-1.56857">
        <ele>52.624048</ele>
        <time>2022-07-29T12:40:37.474Z</time>
      </trkpt>
      <trkpt lat="49.65358" lon="-1.56841">
        <ele>52.577749</ele>
        <time>2022-07-29T12:40:41.478Z</time>
      </trkpt>
      <trkpt lat="49.65361" lon="-1.56826">
        <ele>52.555829</ele>
        <time>2022-07-29T12:40:44.480Z</time>
      </trkpt>
      <trkpt lat="49.65365" lon="-1.56809">
        <ele>52.555829</ele>
        <time>2022-07-29T12:40:47.476Z</time>
      </trkpt>
      <trkpt lat="49.6537" lon="-1.56794">
        <ele>52.555829</ele>
        <time>2022-07-29T12:40:50.479Z</time>
      </trkpt>
      <trkpt lat="49.65374" lon="-1.56778">
        <ele>52.555829</ele>
        <time>2022-07-29T12:40:53.497Z</time>
      </trkpt>
      <trkpt lat="49.65374" lon="-1.56761">
        <ele>52.555829</ele>
        <time>2022-07-29T12:40:56.478Z</time>
      </trkpt>
      <trkpt lat="49.65375" lon="-1.56745">
        <ele>52.555829</ele>
        <time>2022-07-29T12:40:59.474Z</time>
      </trkpt>
      <trkpt lat="49.65376" lon="-1.56731">
        <ele>52.555829</ele>
        <time>2022-07-29T12:41:02.483Z</time>
      </trkpt>
      <trkpt lat="49.65377" lon="-1.56716">
        <ele>52.555829</ele>
        <time>2022-07-29T12:41:05.498Z</time>
      </trkpt>
      <trkpt lat="49.65378" lon="-1.567">
        <ele>52.555829</ele>
        <time>2022-07-29T12:41:08.488Z</time>
      </trkpt>
      <trkpt lat="49.65381" lon="-1.56683">
        <ele>52.555829</ele>
        <time>2022-07-29T12:41:11.474Z</time>
      </trkpt>
      <trkpt lat="49.65385" lon="-1.56668">
        <ele>52.555829</ele>
        <time>2022-07-29T12:41:14.477Z</time>
      </trkpt>
      <trkpt lat="49.65388" lon="-1.56652">
        <ele>52.555829</ele>
        <time>2022-07-29T12:41:17.472Z</time>
      </trkpt>
      <trkpt lat="49.65391" lon="-1.56639">
        <ele>52.555829</ele>
        <time>2022-07-29T12:41:20.481Z</time>
      </trkpt>
      <trkpt lat="49.65393" lon="-1.56625">
        <ele>52.555829</ele>
        <time>2022-07-29T12:41:24.482Z</time>
      </trkpt>
      <trkpt lat="49.65396" lon="-1.56612">
        <ele>52.555829</ele>
        <time>2022-07-29T12:41:31.466Z</time>
      </trkpt>
      <trkpt lat="49.65405" lon="-1.56616">
        <ele>52.555829</ele>
        <time>2022-07-29T12:41:36.469Z</time>
      </trkpt>
      <trkpt lat="49.65425" lon="-1.56632">
        <ele>52.555829</ele>
        <time>2022-07-29T12:44:07.783Z</time>
      </trkpt>
      <trkpt lat="49.65402" lon="-1.56595">
        <ele>0.726935</ele>
        <time>2022-07-30T09:10:44.000Z</time>
      </trkpt>
      <trkpt lat="49.65402" lon="-1.56592">
        <ele>0.726935</ele>
        <time>2022-07-30T09:10:46.000Z</time>
      </trkpt>
      <trkpt lat="49.65402" lon="-1.56588">
        <ele>0.726935</ele>
        <time>2022-07-30T09:10:47.000Z</time>
      </trkpt>
      <trkpt lat="49.65402" lon="-1.56585">
        <ele>0.726935</ele>
        <time>2022-07-30T09:10:48.000Z</time>
      </trkpt>
      <trkpt lat="49.65402" lon="-1.56582">
        <ele>0.726935</ele>
        <time>2022-07-30T09:10:49.000Z</time>
      </trkpt>
      <trkpt lat="49.65402" lon="-1.56578">
        <ele>0.726935</ele>
        <time>2022-07-30T09:10:50.000Z</time>
      </trkpt>
      <trkpt lat="49.65402" lon="-1.56574">
        <ele>0.726935</ele>
        <time>2022-07-30T09:10:51.000Z</time>
      </trkpt>
      <trkpt lat="49.65402" lon="-1.5657">
        <ele>0.726935</ele>
        <time>2022-07-30T09:10:52.000Z</time>
      </trkpt>
      <trkpt lat="49.65402" lon="-1.56566">
        <ele>0.726935</ele>
        <time>2022-07-30T09:10:53.000Z</time>
      </trkpt>
      <trkpt lat="49.65402" lon="-1.56562">
        <ele>0.726935</ele>
        <time>2022-07-30T09:10:54.000Z</time>
      </trkpt>
      <trkpt lat="49.65402" lon="-1.56558">
        <ele>0.726935</ele>
        <time>2022-07-30T09:10:55.000Z</time>
      </trkpt>
      <trkpt lat="49.65402" lon="-1.56553">
        <ele>0.726935</ele>
        <time>2022-07-30T09:10:56.000Z</time>
      </trkpt>
      <trkpt lat="49.65402" lon="-1.56549">
        <ele>0.726935</ele>
        <time>2022-07-30T09:10:57.000Z</time>
      </trkpt>
      <trkpt lat="49.65402" lon="-1.56544">
        <ele>0.726935</ele>
        <time>2022-07-30T09:10:58.000Z</time>
      </trkpt>
      <trkpt lat="49.65402" lon="-1.5654">
        <ele>0.726935</ele>
        <time>2022-07-30T09:10:59.000Z</time>
      </trkpt>
      <trkpt lat="49.65402" lon="-1.56535">
        <ele>0.726935</ele>
        <time>2022-07-30T09:11:00.000Z</time>
      </trkpt>
      <trkpt lat="49.65402" lon="-1.5653">
        <ele>0.726935</ele>
        <time>2022-07-30T09:11:01.000Z</time>
      </trkpt>
      <trkpt lat="49.65402" lon="-1.56525">
        <ele>0.726935</ele>
        <time>2022-07-30T09:11:02.000Z</time>
      </trkpt>
      <trkpt lat="49.65401" lon="-1.56521">
        <ele>0.726935</ele>
        <time>2022-07-30T09:11:03.000Z</time>
      </trkpt>
      <trkpt lat="49.654" lon="-1.56515">
        <ele>0.726935</ele>
        <time>2022-07-30T09:11:04.000Z</time>
      </trkpt>
      <trkpt lat="49.654" lon="-1.5651">
        <ele>0.726935</ele>
        <time>2022-07-30T09:11:05.000Z</time>
      </trkpt>
      <trkpt lat="49.654" lon="-1.56505">
        <ele>0.726935</ele>
        <time>2022-07-30T09:11:06.000Z</time>
      </trkpt>
      <trkpt lat="49.65399" lon="-1.565">
        <ele>0.726935</ele>
        <time>2022-07-30T09:11:07.000Z</time>
      </trkpt>
      <trkpt lat="49.65399" lon="-1.56495">
        <ele>0.726935</ele>
        <time>2022-07-30T09:11:08.000Z</time>
      </trkpt>
      <trkpt lat="49.65399" lon="-1.5649">
        <ele>0.726935</ele>
        <time>2022-07-30T09:11:09.000Z</time>
      </trkpt>
      <trkpt lat="49.65399" lon="-1.56485">
        <ele>0.726935</ele>
        <time>2022-07-30T09:11:10.000Z</time>
      </trkpt>
      <trkpt lat="49.65398" lon="-1.56481">
        <ele>0.726935</ele>
        <time>2022-07-30T09:11:11.000Z</time>
      </trkpt>
      <trkpt lat="49.65398" lon="-1.56477">
        <ele>0.726935</ele>
        <time>2022-07-30T09:11:12.000Z</time>
      </trkpt>
      <trkpt lat="49.65398" lon="-1.56473">
        <ele>0.726935</ele>
        <time>2022-07-30T09:11:13.000Z</time>
      </trkpt>
      <trkpt lat="49.65398" lon="-1.56469">
        <ele>0.726935</ele>
        <time>2022-07-30T09:11:14.000Z</time>
      </trkpt>
      <trkpt lat="49.65397" lon="-1.56465">
        <ele>0.726935</ele>
        <time>2022-07-30T09:11:15.000Z</time>
      </trkpt>
      <trkpt lat="49.65397" lon="-1.56462">
        <ele>0.726935</ele>
        <time>2022-07-30T09:11:16.000Z</time>
      </trkpt>
      <trkpt lat="49.65398" lon="-1.56457">
        <ele>0.727037</ele>
        <time>2022-07-30T09:11:18.000Z</time>
      </trkpt>
      <trkpt lat="49.65397" lon="-1.56452">
        <ele>0.752523</ele>
        <time>2022-07-30T09:11:20.000Z</time>
      </trkpt>
      <trkpt lat="49.65397" lon="-1.56448">
        <ele>0.76745</ele>
        <time>2022-07-30T09:11:21.000Z</time>
      </trkpt>
      <trkpt lat="49.65397" lon="-1.56445">
        <ele>0.781762</ele>
        <time>2022-07-30T09:11:22.000Z</time>
      </trkpt>
      <trkpt lat="49.65397" lon="-1.56442">
        <ele>0.797459</ele>
        <time>2022-07-30T09:11:23.000Z</time>
      </trkpt>
      <trkpt lat="49.65397" lon="-1.56438">
        <ele>0.814078</ele>
        <time>2022-07-30T09:11:24.000Z</time>
      </trkpt>
      <trkpt lat="49.65397" lon="-1.56435">
        <ele>0.83116</ele>
        <time>2022-07-30T09:11:25.000Z</time>
      </trkpt>
      <trkpt lat="49.65396" lon="-1.56431">
        <ele>0.848956</ele>
        <time>2022-07-30T09:11:26.000Z</time>
      </trkpt>
      <trkpt lat="49.65395" lon="-1.56427">
        <ele>0.867014</ele>
        <time>2022-07-30T09:11:27.000Z</time>
      </trkpt>
      <trkpt lat="49.65395" lon="-1.56423">
        <ele>0.884557</ele>
        <time>2022-07-30T09:11:28.000Z</time>
      </trkpt>
      <trkpt lat="49.65395" lon="-1.5642">
        <ele>0.901772</ele>
        <time>2022-07-30T09:11:29.000Z</time>
      </trkpt>
      <trkpt lat="49.65395" lon="-1.56416">
        <ele>0.919445</ele>
        <time>2022-07-30T09:11:30.000Z</time>
      </trkpt>
      <trkpt lat="49.65394" lon="-1.56412">
        <ele>0.938129</ele>
        <time>2022-07-30T09:11:31.000Z</time>
      </trkpt>
      <trkpt lat="49.65394" lon="-1.56408">
        <ele>0.954886</ele>
        <time>2022-07-30T09:11:32.000Z</time>
      </trkpt>
      <trkpt lat="49.65394" lon="-1.56405">
        <ele>0.971968</ele>
        <time>2022-07-30T09:11:33.000Z</time>
      </trkpt>
      <trkpt lat="49.65393" lon="-1.56401">
        <ele>0.988683</ele>
        <time>2022-07-30T09:11:34.000Z</time>
      </trkpt>
      <trkpt lat="49.65393" lon="-1.56398">
        <ele>1.004841</ele>
        <time>2022-07-30T09:11:35.000Z</time>
      </trkpt>
      <trkpt lat="49.65393" lon="-1.56394">
        <ele>1.020076</ele>
        <time>2022-07-30T09:11:36.000Z</time>
      </trkpt>
      <trkpt lat="49.65393" lon="-1.56391">
        <ele>1.03603</ele>
        <time>2022-07-30T09:11:37.000Z</time>
      </trkpt>
      <trkpt lat="49.65393" lon="-1.56388">
        <ele>1.050341</ele>
        <time>2022-07-30T09:11:38.000Z</time>
      </trkpt>
      <trkpt lat="49.65392" lon="-1.56384">
        <ele>1.066183</ele>
        <time>2022-07-30T09:11:39.000Z</time>
      </trkpt>
      <trkpt lat="49.65392" lon="-1.56381">
        <ele>1.081418</ele>
        <time>2022-07-30T09:11:40.000Z</time>
      </trkpt>
      <trkpt lat="49.65392" lon="-1.56378">
        <ele>1.095432</ele>
        <time>2022-07-30T09:11:41.000Z</time>
      </trkpt>
      <trkpt lat="49.65392" lon="-1.56375">
        <ele>1.108535</ele>
        <time>2022-07-30T09:11:42.000Z</time>
      </trkpt>
      <trkpt lat="49.65392" lon="-1.56372">
        <ele>1.122385</ele>
        <time>2022-07-30T09:11:43.000Z</time>
      </trkpt>
      <trkpt lat="49.65391" lon="-1.56369">
        <ele>1.136673</ele>
        <time>2022-07-30T09:11:44.000Z</time>
      </trkpt>
      <trkpt lat="49.65391" lon="-1.56366">
        <ele>1.150687</ele>
        <time>2022-07-30T09:11:45.000Z</time>
      </trkpt>
      <trkpt lat="49.65391" lon="-1.56363">
        <ele>1.164999</ele>
        <time>2022-07-30T09:11:46.000Z</time>
      </trkpt>
      <trkpt lat="49.6539" lon="-1.5636">
        <ele>1.179926</ele>
        <time>2022-07-30T09:11:47.000Z</time>
      </trkpt>
      <trkpt lat="49.6539" lon="-1.56357">
        <ele>1.194854</ele>
        <time>2022-07-30T09:11:48.000Z</time>
      </trkpt>
      <trkpt lat="49.6539" lon="-1.56354">
        <ele>1.208704</ele>
        <time>2022-07-30T09:11:49.000Z</time>
      </trkpt>
      <trkpt lat="49.6539" lon="-1.56351">
        <ele>1.222718</ele>
        <time>2022-07-30T09:11:50.000Z</time>
      </trkpt>
      <trkpt lat="49.65389" lon="-1.56348">
        <ele>1.23744</ele>
        <time>2022-07-30T09:11:51.000Z</time>
      </trkpt>
      <trkpt lat="49.65389" lon="-1.56345">
        <ele>1.251752</ele>
        <time>2022-07-30T09:11:52.000Z</time>
      </trkpt>
      <trkpt lat="49.65389" lon="-1.56342">
        <ele>1.266679</ele>
        <time>2022-07-30T09:11:53.000Z</time>
      </trkpt>
      <trkpt lat="49.65389" lon="-1.56338">
        <ele>1.282063</ele>
        <time>2022-07-30T09:11:54.000Z</time>
      </trkpt>
      <trkpt lat="49.65388" lon="-1.56335">
        <ele>1.296078</ele>
        <time>2022-07-30T09:11:55.000Z</time>
      </trkpt>
      <trkpt lat="49.65388" lon="-1.56332">
        <ele>1.312031</ele>
        <time>2022-07-30T09:11:56.000Z</time>
      </trkpt>
      <trkpt lat="49.65387" lon="-1.56329">
        <ele>1.326969</ele>
        <time>2022-07-30T09:11:57.000Z</time>
      </trkpt>
      <trkpt lat="49.65387" lon="-1.56326">
        <ele>1.341896</ele>
        <time>2022-07-30T09:11:58.000Z</time>
      </trkpt>
      <trkpt lat="49.65386" lon="-1.56322">
        <ele>1.357928</ele>
        <time>2022-07-30T09:11:59.000Z</time>
      </trkpt>
      <trkpt lat="49.65386" lon="-1.56319">
        <ele>1.371942</ele>
        <time>2022-07-30T09:12:00.000Z</time>
      </trkpt>
      <trkpt lat="49.65385" lon="-1.56316">
        <ele>1.387207</ele>
        <time>2022-07-30T09:12:01.000Z</time>
      </trkpt>
      <trkpt lat="49.65385" lon="-1.56313">
        <ele>1.400896</ele>
        <time>2022-07-30T09:12:02.000Z</time>
      </trkpt>
      <trkpt lat="49.65384" lon="-1.56311">
        <ele>1.414512</ele>
        <time>2022-07-30T09:12:03.000Z</time>
      </trkpt>
      <trkpt lat="49.65383" lon="-1.56308">
        <ele>1.428873</ele>
        <time>2022-07-30T09:12:04.000Z</time>
      </trkpt>
      <trkpt lat="49.65382" lon="-1.56305">
        <ele>1.441616</ele>
        <time>2022-07-30T09:12:05.000Z</time>
      </trkpt>
      <trkpt lat="49.65381" lon="-1.56303">
        <ele>1.456062</ele>
        <time>2022-07-30T09:12:06.000Z</time>
      </trkpt>
      <trkpt lat="49.65379" lon="-1.56299">
        <ele>1.478229</ele>
        <time>2022-07-30T09:12:08.000Z</time>
      </trkpt>
      <trkpt lat="49.65378" lon="-1.56295">
        <ele>1.497664</ele>
        <time>2022-07-30T09:12:10.000Z</time>
      </trkpt>
      <trkpt lat="49.65377" lon="-1.5629">
        <ele>1.523413</ele>
        <time>2022-07-30T09:12:12.000Z</time>
      </trkpt>
      <trkpt lat="49.65377" lon="-1.56287">
        <ele>1.536516</ele>
        <time>2022-07-30T09:12:13.000Z</time>
      </trkpt>
      <trkpt lat="49.65376" lon="-1.56284">
        <ele>1.550877</ele>
        <time>2022-07-30T09:12:14.000Z</time>
      </trkpt>
      <trkpt lat="49.65375" lon="-1.56282">
        <ele>1.56429</ele>
        <time>2022-07-30T09:12:15.000Z</time>
      </trkpt>
      <trkpt lat="49.65373" lon="-1.5628">
        <ele>1.580195</ele>
        <time>2022-07-30T09:12:16.000Z</time>
      </trkpt>
      <trkpt lat="49.65372" lon="-1.56278">
        <ele>1.593609</ele>
        <time>2022-07-30T09:12:17.000Z</time>
      </trkpt>
      <trkpt lat="49.6537" lon="-1.56275">
        <ele>1.609838</ele>
        <time>2022-07-30T09:12:18.000Z</time>
      </trkpt>
      <trkpt lat="49.65369" lon="-1.56272">
        <ele>1.626118</ele>
        <time>2022-07-30T09:12:19.000Z</time>
      </trkpt>
      <trkpt lat="49.65367" lon="-1.56269">
        <ele>1.644785</ele>
        <time>2022-07-30T09:12:20.000Z</time>
      </trkpt>
      <trkpt lat="49.65366" lon="-1.56266">
        <ele>1.662226</ele>
        <time>2022-07-30T09:12:21.000Z</time>
      </trkpt>
      <trkpt lat="49.65365" lon="-1.56263">
        <ele>1.680059</ele>
        <time>2022-07-30T09:12:22.000Z</time>
      </trkpt>
      <trkpt lat="49.65363" lon="-1.56259">
        <ele>1.702226</ele>
        <time>2022-07-30T09:12:23.000Z</time>
      </trkpt>
      <trkpt lat="49.65361" lon="-1.56255">
        <ele>1.722961</ele>
        <time>2022-07-30T09:12:24.000Z</time>
      </trkpt>
      <trkpt lat="49.65359" lon="-1.56253">
        <ele>1.740203</ele>
        <time>2022-07-30T09:12:25.000Z</time>
      </trkpt>
      <trkpt lat="49.65357" lon="-1.5625">
        <ele>1.759452</ele>
        <time>2022-07-30T09:12:26.000Z</time>
      </trkpt>
      <trkpt lat="49.65356" lon="-1.56247">
        <ele>1.777396</ele>
        <time>2022-07-30T09:12:27.000Z</time>
      </trkpt>
      <trkpt lat="49.65354" lon="-1.56244">
        <ele>1.79534</ele>
        <time>2022-07-30T09:12:28.000Z</time>
      </trkpt>
      <trkpt lat="49.65352" lon="-1.56241">
        <ele>1.814388</ele>
        <time>2022-07-30T09:12:29.000Z</time>
      </trkpt>
      <trkpt lat="49.65351" lon="-1.56238">
        <ele>1.832692</ele>
        <time>2022-07-30T09:12:30.000Z</time>
      </trkpt>
      <trkpt lat="49.65349" lon="-1.56234">
        <ele>1.852472</ele>
        <time>2022-07-30T09:12:31.000Z</time>
      </trkpt>
      <trkpt lat="49.65348" lon="-1.56231">
        <ele>1.868579</ele>
        <time>2022-07-30T09:12:32.000Z</time>
      </trkpt>
      <trkpt lat="49.65347" lon="-1.56228">
        <ele>1.88836</ele>
        <time>2022-07-30T09:12:33.000Z</time>
      </trkpt>
      <trkpt lat="49.65345" lon="-1.56224">
        <ele>1.908141</ele>
        <time>2022-07-30T09:12:34.000Z</time>
      </trkpt>
      <trkpt lat="49.65343" lon="-1.56221">
        <ele>1.927921</ele>
        <time>2022-07-30T09:12:35.000Z</time>
      </trkpt>
      <trkpt lat="49.65342" lon="-1.56217">
        <ele>1.945755</ele>
        <time>2022-07-30T09:12:36.000Z</time>
      </trkpt>
      <trkpt lat="49.65341" lon="-1.56214">
        <ele>1.965536</ele>
        <time>2022-07-30T09:12:37.000Z</time>
      </trkpt>
      <trkpt lat="49.65339" lon="-1.5621">
        <ele>1.984165</ele>
        <time>2022-07-30T09:12:38.000Z</time>
      </trkpt>
      <trkpt lat="49.65338" lon="-1.56207">
        <ele>2.00357</ele>
        <time>2022-07-30T09:12:39.000Z</time>
      </trkpt>
      <trkpt lat="49.65337" lon="-1.56204">
        <ele>2.02001</ele>
        <time>2022-07-30T09:12:40.000Z</time>
      </trkpt>
      <trkpt lat="49.65335" lon="-1.562">
        <ele>2.038374</ele>
        <time>2022-07-30T09:12:41.000Z</time>
      </trkpt>
      <trkpt lat="49.65333" lon="-1.56197">
        <ele>2.058193</ele>
        <time>2022-07-30T09:12:42.000Z</time>
      </trkpt>
      <trkpt lat="49.65332" lon="-1.56193">
        <ele>2.077025</ele>
        <time>2022-07-30T09:12:43.000Z</time>
      </trkpt>
      <trkpt lat="49.65331" lon="-1.56189">
        <ele>2.097591</ele>
        <time>2022-07-30T09:12:44.000Z</time>
      </trkpt>
      <trkpt lat="49.65329" lon="-1.56185">
        <ele>2.115952</ele>
        <time>2022-07-30T09:12:45.000Z</time>
      </trkpt>
      <trkpt lat="49.65328" lon="-1.56181">
        <ele>2.134636</ele>
        <time>2022-07-30T09:12:46.000Z</time>
      </trkpt>
      <trkpt lat="49.65327" lon="-1.56178">
        <ele>2.152997</ele>
        <time>2022-07-30T09:12:47.000Z</time>
      </trkpt>
      <trkpt lat="49.65326" lon="-1.56174">
        <ele>2.171286</ele>
        <time>2022-07-30T09:12:48.000Z</time>
      </trkpt>
      <trkpt lat="49.65325" lon="-1.5617">
        <ele>2.190037</ele>
        <time>2022-07-30T09:12:49.000Z</time>
      </trkpt>
      <trkpt lat="49.65324" lon="-1.56166">
        <ele>2.20806</ele>
        <time>2022-07-30T09:12:50.000Z</time>
      </trkpt>
      <trkpt lat="49.65323" lon="-1.56162">
        <ele>2.226744</ele>
        <time>2022-07-30T09:12:51.000Z</time>
      </trkpt>
      <trkpt lat="49.65322" lon="-1.56158">
        <ele>2.245844</ele>
        <time>2022-07-30T09:12:52.000Z</time>
      </trkpt>
      <trkpt lat="49.65321" lon="-1.56154">
        <ele>2.264706</ele>
        <time>2022-07-30T09:12:53.000Z</time>
      </trkpt>
      <trkpt lat="49.65321" lon="-1.56151">
        <ele>2.280873</ele>
        <time>2022-07-30T09:12:54.000Z</time>
      </trkpt>
      <trkpt lat="49.6532" lon="-1.56147">
        <ele>2.298043</ele>
        <time>2022-07-30T09:12:55.000Z</time>
      </trkpt>
      <trkpt lat="49.6532" lon="-1.56143">
        <ele>2.315033</ele>
        <time>2022-07-30T09:12:56.000Z</time>
      </trkpt>
      <trkpt lat="49.65319" lon="-1.5614">
        <ele>2.3312</ele>
        <time>2022-07-30T09:12:57.000Z</time>
      </trkpt>
      <trkpt lat="49.65319" lon="-1.56136">
        <ele>2.349227</ele>
        <time>2022-07-30T09:12:58.000Z</time>
      </trkpt>
      <trkpt lat="49.65318" lon="-1.56132">
        <ele>2.367606</ele>
        <time>2022-07-30T09:12:59.000Z</time>
      </trkpt>
      <trkpt lat="49.65317" lon="-1.56128">
        <ele>2.386705</ele>
        <time>2022-07-30T09:13:00.000Z</time>
      </trkpt>
      <trkpt lat="49.65317" lon="-1.56124">
        <ele>2.404199</ele>
        <time>2022-07-30T09:13:01.000Z</time>
      </trkpt>
      <trkpt lat="49.65317" lon="-1.5612">
        <ele>2.422135</ele>
        <time>2022-07-30T09:13:02.000Z</time>
      </trkpt>
      <trkpt lat="49.65317" lon="-1.56116">
        <ele>2.440071</ele>
        <time>2022-07-30T09:13:03.000Z</time>
      </trkpt>
      <trkpt lat="49.65316" lon="-1.56112">
        <ele>2.458449</ele>
        <time>2022-07-30T09:13:04.000Z</time>
      </trkpt>
      <trkpt lat="49.65316" lon="-1.56108">
        <ele>2.476266</ele>
        <time>2022-07-30T09:13:05.000Z</time>
      </trkpt>
      <trkpt lat="49.65316" lon="-1.56104">
        <ele>2.493436</ele>
        <time>2022-07-30T09:13:06.000Z</time>
      </trkpt>
      <trkpt lat="49.65315" lon="-1.561">
        <ele>2.510488</ele>
        <time>2022-07-30T09:13:07.000Z</time>
      </trkpt>
      <trkpt lat="49.65315" lon="-1.56096">
        <ele>2.527859</ele>
        <time>2022-07-30T09:13:08.000Z</time>
      </trkpt>
      <trkpt lat="49.65315" lon="-1.56093">
        <ele>2.543449</ele>
        <time>2022-07-30T09:13:09.000Z</time>
      </trkpt>
      <trkpt lat="49.65315" lon="-1.5609">
        <ele>2.555921</ele>
        <time>2022-07-30T09:13:10.000Z</time>
      </trkpt>
      <trkpt lat="49.65319" lon="-1.56094">
        <ele>2.586414</ele>
        <time>2022-07-30T09:13:25.000Z</time>
      </trkpt>
      <trkpt lat="49.65319" lon="-1.56098">
        <ele>2.60334</ele>
        <time>2022-07-30T09:13:26.000Z</time>
      </trkpt>
      <trkpt lat="49.65319" lon="-1.56102">
        <ele>2.622658</ele>
        <time>2022-07-30T09:13:27.000Z</time>
      </trkpt>
      <trkpt lat="49.6532" lon="-1.56106">
        <ele>2.641036</ele>
        <time>2022-07-30T09:13:28.000Z</time>
      </trkpt>
      <trkpt lat="49.6532" lon="-1.5611">
        <ele>2.658853</ele>
        <time>2022-07-30T09:13:29.000Z</time>
      </trkpt>
      <trkpt lat="49.6532" lon="-1.56114">
        <ele>2.67667</ele>
        <time>2022-07-30T09:13:30.000Z</time>
      </trkpt>
      <trkpt lat="49.6532" lon="-1.56118">
        <ele>2.69366</ele>
        <time>2022-07-30T09:13:31.000Z</time>
      </trkpt>
      <trkpt lat="49.65321" lon="-1.56121">
        <ele>2.708062</ele>
        <time>2022-07-30T09:13:32.000Z</time>
      </trkpt>
      <trkpt lat="49.65319" lon="-1.56125">
        <ele>2.724921</ele>
        <time>2022-07-30T09:13:34.000Z</time>
      </trkpt>
      <trkpt lat="49.65317" lon="-1.56111">
        <ele>2.785306</ele>
        <time>2022-07-30T09:13:42.000Z</time>
      </trkpt>
      <trkpt lat="49.65317" lon="-1.56104">
        <ele>2.820049</ele>
        <time>2022-07-30T09:13:44.000Z</time>
      </trkpt>
      <trkpt lat="49.65317" lon="-1.561">
        <ele>2.835638</ele>
        <time>2022-07-30T09:13:45.000Z</time>
      </trkpt>
      <trkpt lat="49.65317" lon="-1.56096">
        <ele>2.852564</ele>
        <time>2022-07-30T09:13:46.000Z</time>
      </trkpt>
      <trkpt lat="49.65317" lon="-1.56093">
        <ele>2.868154</ele>
        <time>2022-07-30T09:13:47.000Z</time>
      </trkpt>
      <trkpt lat="49.65317" lon="-1.56089">
        <ele>2.884635</ele>
        <time>2022-07-30T09:13:48.000Z</time>
      </trkpt>
      <trkpt lat="49.65317" lon="-1.56086">
        <ele>2.900225</ele>
        <time>2022-07-30T09:13:49.000Z</time>
      </trkpt>
      <trkpt lat="49.65317" lon="-1.56082">
        <ele>2.915815</ele>
        <time>2022-07-30T09:13:50.000Z</time>
      </trkpt>
      <trkpt lat="49.65317" lon="-1.56079">
        <ele>2.930068</ele>
        <time>2022-07-30T09:13:51.000Z</time>
      </trkpt>
      <trkpt lat="49.65317" lon="-1.56075">
        <ele>2.945658</ele>
        <time>2022-07-30T09:13:52.000Z</time>
      </trkpt>
      <trkpt lat="49.65317" lon="-1.56072">
        <ele>2.959466</ele>
        <time>2022-07-30T09:13:53.000Z</time>
      </trkpt>
      <trkpt lat="49.65317" lon="-1.56069">
        <ele>2.97372</ele>
        <time>2022-07-30T09:13:54.000Z</time>
      </trkpt>
      <trkpt lat="49.65317" lon="-1.56066">
        <ele>2.987973</ele>
        <time>2022-07-30T09:13:55.000Z</time>
      </trkpt>
      <trkpt lat="49.65318" lon="-1.56063">
        <ele>3.002927</ele>
        <time>2022-07-30T09:13:56.000Z</time>
      </trkpt>
      <trkpt lat="49.65318" lon="-1.5606">
        <ele>3.016913</ele>
        <time>2022-07-30T09:13:57.000Z</time>
      </trkpt>
      <trkpt lat="49.65318" lon="-1.56054">
        <ele>3.040521</ele>
        <time>2022-07-30T09:13:59.000Z</time>
      </trkpt>
      <trkpt lat="49.65318" lon="-1.56049">
        <ele>3.06591</ele>
        <time>2022-07-30T09:14:01.000Z</time>
      </trkpt>
      <trkpt lat="49.65318" lon="-1.56046">
        <ele>3.079272</ele>
        <time>2022-07-30T09:14:02.000Z</time>
      </trkpt>
      <trkpt lat="49.65318" lon="-1.56043">
        <ele>3.092635</ele>
        <time>2022-07-30T09:14:03.000Z</time>
      </trkpt>
      <trkpt lat="49.65318" lon="-1.5604">
        <ele>3.105998</ele>
        <time>2022-07-30T09:14:04.000Z</time>
      </trkpt>
      <trkpt lat="49.65318" lon="-1.56037">
        <ele>3.11936</ele>
        <time>2022-07-30T09:14:05.000Z</time>
      </trkpt>
      <trkpt lat="49.65318" lon="-1.56031">
        <ele>3.143859</ele>
        <time>2022-07-30T09:14:07.000Z</time>
      </trkpt>
      <trkpt lat="49.65318" lon="-1.56028">
        <ele>3.157221</ele>
        <time>2022-07-30T09:14:08.000Z</time>
      </trkpt>
      <trkpt lat="49.65319" lon="-1.56025">
        <ele>3.170743</ele>
        <time>2022-07-30T09:14:09.000Z</time>
      </trkpt>
      <trkpt lat="49.65319" lon="-1.56022">
        <ele>3.184996</ele>
        <time>2022-07-30T09:14:10.000Z</time>
      </trkpt>
      <trkpt lat="49.65319" lon="-1.56019">
        <ele>3.199695</ele>
        <time>2022-07-30T09:14:11.000Z</time>
      </trkpt>
      <trkpt lat="49.65319" lon="-1.56015">
        <ele>3.21474</ele>
        <time>2022-07-30T09:14:12.000Z</time>
      </trkpt>
      <trkpt lat="49.6532" lon="-1.56012">
        <ele>3.229583</ele>
        <time>2022-07-30T09:14:13.000Z</time>
      </trkpt>
      <trkpt lat="49.6532" lon="-1.56009">
        <ele>3.242946</ele>
        <time>2022-07-30T09:14:14.000Z</time>
      </trkpt>
      <trkpt lat="49.6532" lon="-1.56004">
        <ele>3.328389</ele>
        <time>2022-07-30T09:14:16.000Z</time>
      </trkpt>
      <trkpt lat="49.6532" lon="-1.56001">
        <ele>3.380572</ele>
        <time>2022-07-30T09:14:17.000Z</time>
      </trkpt>
      <trkpt lat="49.6532" lon="-1.55998">
        <ele>3.432754</ele>
        <time>2022-07-30T09:14:18.000Z</time>
      </trkpt>
      <trkpt lat="49.65321" lon="-1.55993">
        <ele>3.537218</ele>
        <time>2022-07-30T09:14:20.000Z</time>
      </trkpt>
      <trkpt lat="49.65321" lon="-1.5599">
        <ele>3.591265</ele>
        <time>2022-07-30T09:14:21.000Z</time>
      </trkpt>
      <trkpt lat="49.65321" lon="-1.55987">
        <ele>3.647175</ele>
        <time>2022-07-30T09:14:22.000Z</time>
      </trkpt>
      <trkpt lat="49.65321" lon="-1.55984">
        <ele>3.699358</ele>
        <time>2022-07-30T09:14:23.000Z</time>
      </trkpt>
      <trkpt lat="49.65321" lon="-1.55981">
        <ele>3.755268</ele>
        <time>2022-07-30T09:14:24.000Z</time>
      </trkpt>
      <trkpt lat="49.65321" lon="-1.55978">
        <ele>3.816769</ele>
        <time>2022-07-30T09:14:25.000Z</time>
      </trkpt>
      <trkpt lat="49.65321" lon="-1.55974">
        <ele>3.886264</ele>
        <time>2022-07-30T09:14:26.000Z</time>
      </trkpt>
      <trkpt lat="49.65321" lon="-1.5597">
        <ele>3.957083</ele>
        <time>2022-07-30T09:14:27.000Z</time>
      </trkpt>
      <trkpt lat="49.65321" lon="-1.55966">
        <ele>4.03163</ele>
        <time>2022-07-30T09:14:28.000Z</time>
      </trkpt>
      <trkpt lat="49.65321" lon="-1.55962">
        <ele>4.110379</ele>
        <time>2022-07-30T09:14:29.000Z</time>
      </trkpt>
      <trkpt lat="49.6532" lon="-1.55958">
        <ele>4.18401</ele>
        <time>2022-07-30T09:14:30.000Z</time>
      </trkpt>
      <trkpt lat="49.65319" lon="-1.55954">
        <ele>4.262931</ele>
        <time>2022-07-30T09:14:31.000Z</time>
      </trkpt>
      <trkpt lat="49.65318" lon="-1.55951">
        <ele>4.341266</ele>
        <time>2022-07-30T09:14:32.000Z</time>
      </trkpt>
      <trkpt lat="49.65317" lon="-1.55948">
        <ele>4.405481</ele>
        <time>2022-07-30T09:14:33.000Z</time>
      </trkpt>
      <trkpt lat="49.65314" lon="-1.55946">
        <ele>4.48146</ele>
        <time>2022-07-30T09:14:34.000Z</time>
      </trkpt>
      <trkpt lat="49.65312" lon="-1.55945">
        <ele>4.557395</ele>
        <time>2022-07-30T09:14:35.000Z</time>
      </trkpt>
      <trkpt lat="49.6531" lon="-1.55943">
        <ele>4.617994</ele>
        <time>2022-07-30T09:14:36.000Z</time>
      </trkpt>
      <trkpt lat="49.65308" lon="-1.55942">
        <ele>4.686776</ele>
        <time>2022-07-30T09:14:37.000Z</time>
      </trkpt>
      <trkpt lat="49.65305" lon="-1.55942">
        <ele>4.751086</ele>
        <time>2022-07-30T09:14:38.000Z</time>
      </trkpt>
      <trkpt lat="49.65302" lon="-1.5594">
        <ele>4.838549</ele>
        <time>2022-07-30T09:14:40.000Z</time>
      </trkpt>
      <trkpt lat="49.65299" lon="-1.5594">
        <ele>4.939732</ele>
        <time>2022-07-30T09:14:42.000Z</time>
      </trkpt>
      <trkpt lat="49.65297" lon="-1.5594">
        <ele>4.994458</ele>
        <time>2022-07-30T09:14:43.000Z</time>
      </trkpt>
      <trkpt lat="49.65295" lon="-1.5594">
        <ele>5.052152</ele>
        <time>2022-07-30T09:14:44.000Z</time>
      </trkpt>
      <trkpt lat="49.65292" lon="-1.55939">
        <ele>5.153745</ele>
        <time>2022-07-30T09:14:46.000Z</time>
      </trkpt>
      <trkpt lat="49.6529" lon="-1.55939">
        <ele>5.208471</ele>
        <time>2022-07-30T09:14:47.000Z</time>
      </trkpt>
      <trkpt lat="49.65287" lon="-1.55938">
        <ele>5.292471</ele>
        <time>2022-07-30T09:14:49.000Z</time>
      </trkpt>
      <trkpt lat="49.65283" lon="-1.55937">
        <ele>5.395676</ele>
        <time>2022-07-30T09:14:51.000Z</time>
      </trkpt>
      <trkpt lat="49.6528" lon="-1.55936">
        <ele>5.488712</ele>
        <time>2022-07-30T09:14:53.000Z</time>
      </trkpt>
      <trkpt lat="49.65277" lon="-1.55936">
        <ele>5.564387</ele>
        <time>2022-07-30T09:14:55.000Z</time>
      </trkpt>
      <trkpt lat="49.65275" lon="-1.55936">
        <ele>5.645075</ele>
        <time>2022-07-30T09:14:57.000Z</time>
      </trkpt>
      <trkpt lat="49.65272" lon="-1.55936">
        <ele>5.728639</ele>
        <time>2022-07-30T09:14:59.000Z</time>
      </trkpt>
      <trkpt lat="49.65266" lon="-1.55935">
        <ele>5.904484</ele>
        <time>2022-07-30T09:19:47.000Z</time>
      </trkpt>
      <trkpt lat="49.65263" lon="-1.55934">
        <ele>5.989633</ele>
        <time>2022-07-30T09:19:48.000Z</time>
      </trkpt>
      <trkpt lat="49.6526" lon="-1.55934">
        <ele>6.082949</ele>
        <time>2022-07-30T09:19:49.000Z</time>
      </trkpt>
      <trkpt lat="49.65257" lon="-1.55933">
        <ele>6.167751</ele>
        <time>2022-07-30T09:19:50.000Z</time>
      </trkpt>
      <trkpt lat="49.65253" lon="-1.55932">
        <ele>6.262543</ele>
        <time>2022-07-30T09:19:51.000Z</time>
      </trkpt>
      <trkpt lat="49.6525" lon="-1.5593">
        <ele>6.366168</ele>
        <time>2022-07-30T09:19:52.000Z</time>
      </trkpt>
      <trkpt lat="49.65247" lon="-1.55929">
        <ele>6.453631</ele>
        <time>2022-07-30T09:19:53.000Z</time>
      </trkpt>
      <trkpt lat="49.65244" lon="-1.55927">
        <ele>6.558191</ele>
        <time>2022-07-30T09:19:54.000Z</time>
      </trkpt>
      <trkpt lat="49.65241" lon="-1.55926">
        <ele>6.63302</ele>
        <time>2022-07-30T09:19:55.000Z</time>
      </trkpt>
      <trkpt lat="49.65238" lon="-1.55925">
        <ele>6.719444</ele>
        <time>2022-07-30T09:19:56.000Z</time>
      </trkpt>
      <trkpt lat="49.65236" lon="-1.55924">
        <ele>6.798113</ele>
        <time>2022-07-30T09:19:57.000Z</time>
      </trkpt>
      <trkpt lat="49.65232" lon="-1.55922">
        <ele>6.902672</ele>
        <time>2022-07-30T09:19:58.000Z</time>
      </trkpt>
      <trkpt lat="49.65229" lon="-1.55921">
        <ele>6.990709</ele>
        <time>2022-07-30T09:19:59.000Z</time>
      </trkpt>
      <trkpt lat="49.65226" lon="-1.55919">
        <ele>7.089398</ele>
        <time>2022-07-30T09:20:00.000Z</time>
      </trkpt>
      <trkpt lat="49.65223" lon="-1.55917">
        <ele>7.179367</ele>
        <time>2022-07-30T09:20:01.000Z</time>
      </trkpt>
      <trkpt lat="49.6522" lon="-1.55916">
        <ele>7.264679</ele>
        <time>2022-07-30T09:20:02.000Z</time>
      </trkpt>
      <trkpt lat="49.65218" lon="-1.55914">
        <ele>7.343348</ele>
        <time>2022-07-30T09:20:03.000Z</time>
      </trkpt>
      <trkpt lat="49.65214" lon="-1.55913">
        <ele>7.440761</ele>
        <time>2022-07-30T09:20:04.000Z</time>
      </trkpt>
      <trkpt lat="49.65212" lon="-1.55911">
        <ele>7.51943</ele>
        <time>2022-07-30T09:20:05.000Z</time>
      </trkpt>
      <trkpt lat="49.65209" lon="-1.5591">
        <ele>7.596635</ele>
        <time>2022-07-30T09:20:06.000Z</time>
      </trkpt>
      <trkpt lat="49.65207" lon="-1.55908">
        <ele>7.671719</ele>
        <time>2022-07-30T09:20:07.000Z</time>
      </trkpt>
      <trkpt lat="49.65204" lon="-1.55906">
        <ele>7.761321</ele>
        <time>2022-07-30T09:20:08.000Z</time>
      </trkpt>
      <trkpt lat="49.65202" lon="-1.55904">
        <ele>7.83472</ele>
        <time>2022-07-30T09:20:09.000Z</time>
      </trkpt>
      <trkpt lat="49.65199" lon="-1.55902">
        <ele>7.913352</ele>
        <time>2022-07-30T09:20:10.000Z</time>
      </trkpt>
      <trkpt lat="49.65197" lon="-1.55901">
        <ele>7.985966</ele>
        <time>2022-07-30T09:20:11.000Z</time>
      </trkpt>
      <trkpt lat="49.65194" lon="-1.55899">
        <ele>8.075257</ele>
        <time>2022-07-30T09:20:12.000Z</time>
      </trkpt>
      <trkpt lat="49.65192" lon="-1.55898">
        <ele>8.144483</ele>
        <time>2022-07-30T09:20:13.000Z</time>
      </trkpt>
      <trkpt lat="49.65189" lon="-1.55896">
        <ele>8.225758</ele>
        <time>2022-07-30T09:20:14.000Z</time>
      </trkpt>
      <trkpt lat="49.65187" lon="-1.55894">
        <ele>8.294984</ele>
        <time>2022-07-30T09:20:15.000Z</time>
      </trkpt>
      <trkpt lat="49.65185" lon="-1.55893">
        <ele>8.373652</ele>
        <time>2022-07-30T09:20:16.000Z</time>
      </trkpt>
      <trkpt lat="49.65182" lon="-1.55892">
        <ele>8.449331</ele>
        <time>2022-07-30T09:20:17.000Z</time>
      </trkpt>
      <trkpt lat="49.6518" lon="-1.5589">
        <ele>8.51845</ele>
        <time>2022-07-30T09:20:18.000Z</time>
      </trkpt>
      <trkpt lat="49.65178" lon="-1.55888">
        <ele>8.583639</ele>
        <time>2022-07-30T09:20:19.000Z</time>
      </trkpt>
      <trkpt lat="49.65175" lon="-1.55887">
        <ele>8.645804</ele>
        <time>2022-07-30T09:20:20.000Z</time>
      </trkpt>
      <trkpt lat="49.65173" lon="-1.55887">
        <ele>8.717066</ele>
        <time>2022-07-30T09:20:21.000Z</time>
      </trkpt>
      <trkpt lat="49.6517" lon="-1.55885">
        <ele>8.799429</ele>
        <time>2022-07-30T09:20:23.000Z</time>
      </trkpt>
      <trkpt lat="49.65168" lon="-1.55876">
        <ele>8.973931</ele>
        <time>2022-07-30T09:20:55.000Z</time>
      </trkpt>
      <trkpt lat="49.65168" lon="-1.55871">
        <ele>9.067303</ele>
        <time>2022-07-30T09:20:56.000Z</time>
      </trkpt>
      <trkpt lat="49.65169" lon="-1.55865">
        <ele>9.170947</ele>
        <time>2022-07-30T09:20:57.000Z</time>
      </trkpt>
      <trkpt lat="49.6517" lon="-1.55859">
        <ele>9.27403</ele>
        <time>2022-07-30T09:20:58.000Z</time>
      </trkpt>
      <trkpt lat="49.65171" lon="-1.55853">
        <ele>9.389675</ele>
        <time>2022-07-30T09:20:59.000Z</time>
      </trkpt>
      <trkpt lat="49.65171" lon="-1.55846">
        <ele>9.504906</ele>
        <time>2022-07-30T09:21:00.000Z</time>
      </trkpt>
      <trkpt lat="49.6517" lon="-1.5584">
        <ele>9.624302</ele>
        <time>2022-07-30T09:21:01.000Z</time>
      </trkpt>
      <trkpt lat="49.65168" lon="-1.55835">
        <ele>9.726052</ele>
        <time>2022-07-30T09:21:02.000Z</time>
      </trkpt>
      <trkpt lat="49.65166" lon="-1.55832">
        <ele>9.802223</ele>
        <time>2022-07-30T09:21:03.000Z</time>
      </trkpt>
      <trkpt lat="49.65164" lon="-1.5583">
        <ele>9.872117</ele>
        <time>2022-07-30T09:21:04.000Z</time>
      </trkpt>
      <trkpt lat="49.65162" lon="-1.55829">
        <ele>9.928449</ele>
        <time>2022-07-30T09:21:05.000Z</time>
      </trkpt>
      <trkpt lat="49.65159" lon="-1.55828">
        <ele>9.990142</ele>
        <time>2022-07-30T09:21:06.000Z</time>
      </trkpt>
      <trkpt lat="49.65157" lon="-1.55827">
        <ele>10.046145</ele>
        <time>2022-07-30T09:21:07.000Z</time>
      </trkpt>
      <trkpt lat="49.65155" lon="-1.55826">
        <ele>10.123334</ele>
        <time>2022-07-30T09:21:08.000Z</time>
      </trkpt>
      <trkpt lat="49.65153" lon="-1.55826">
        <ele>10.177663</ele>
        <time>2022-07-30T09:21:09.000Z</time>
      </trkpt>
      <trkpt lat="49.65151" lon="-1.55826">
        <ele>10.229287</ele>
        <time>2022-07-30T09:21:10.000Z</time>
      </trkpt>
      <trkpt lat="49.65149" lon="-1.55825">
        <ele>10.289846</ele>
        <time>2022-07-30T09:21:11.000Z</time>
      </trkpt>
      <trkpt lat="49.65147" lon="-1.55824">
        <ele>10.344259</ele>
        <time>2022-07-30T09:21:12.000Z</time>
      </trkpt>
      <trkpt lat="49.65144" lon="-1.55823">
        <ele>10.409029</ele>
        <time>2022-07-30T09:21:13.000Z</time>
      </trkpt>
      <trkpt lat="49.65142" lon="-1.55822">
        <ele>10.468551</ele>
        <time>2022-07-30T09:21:14.000Z</time>
      </trkpt>
      <trkpt lat="49.6514" lon="-1.55819">
        <ele>10.539596</ele>
        <time>2022-07-30T09:21:15.000Z</time>
      </trkpt>
      <trkpt lat="49.65139" lon="-1.55818">
        <ele>10.590333</ele>
        <time>2022-07-30T09:21:16.000Z</time>
      </trkpt>
      <trkpt lat="49.65136" lon="-1.55816">
        <ele>10.65801</ele>
        <time>2022-07-30T09:21:17.000Z</time>
      </trkpt>
      <trkpt lat="49.65134" lon="-1.55814">
        <ele>10.729197</ele>
        <time>2022-07-30T09:21:19.000Z</time>
      </trkpt>
      <trkpt lat="49.65135" lon="-1.55811">
        <ele>10.784303</ele>
        <time>2022-07-30T09:21:21.000Z</time>
      </trkpt>
      <trkpt lat="49.65137" lon="-1.55807">
        <ele>10.855263</ele>
        <time>2022-07-30T09:21:23.000Z</time>
      </trkpt>
      <trkpt lat="49.65138" lon="-1.55804">
        <ele>10.927608</ele>
        <time>2022-07-30T09:21:25.000Z</time>
      </trkpt>
      <trkpt lat="49.65138" lon="-1.55801">
        <ele>10.984355</ele>
        <time>2022-07-30T09:21:27.000Z</time>
      </trkpt>
      <trkpt lat="49.65138" lon="-1.55797">
        <ele>11.051541</ele>
        <time>2022-07-30T09:21:30.000Z</time>
      </trkpt>
      <trkpt lat="49.65138" lon="-1.55792">
        <ele>11.130935</ele>
        <time>2022-07-30T09:21:32.000Z</time>
      </trkpt>
      <trkpt lat="49.65138" lon="-1.55789">
        <ele>11.182477</ele>
        <time>2022-07-30T09:21:33.000Z</time>
      </trkpt>
      <trkpt lat="49.65138" lon="-1.55787">
        <ele>11.232287</ele>
        <time>2022-07-30T09:21:34.000Z</time>
      </trkpt>
      <trkpt lat="49.65138" lon="-1.55784">
        <ele>11.281428</ele>
        <time>2022-07-30T09:21:35.000Z</time>
      </trkpt>
      <trkpt lat="49.65139" lon="-1.55781">
        <ele>11.335747</ele>
        <time>2022-07-30T09:21:36.000Z</time>
      </trkpt>
      <trkpt lat="49.65139" lon="-1.55778">
        <ele>11.384888</ele>
        <time>2022-07-30T09:21:37.000Z</time>
      </trkpt>
      <trkpt lat="49.65139" lon="-1.55775">
        <ele>11.441049</ele>
        <time>2022-07-30T09:21:38.000Z</time>
      </trkpt>
      <trkpt lat="49.6514" lon="-1.55772">
        <ele>11.501206</ele>
        <time>2022-07-30T09:21:39.000Z</time>
      </trkpt>
      <trkpt lat="49.6514" lon="-1.55768">
        <ele>11.559691</ele>
        <time>2022-07-30T09:21:40.000Z</time>
      </trkpt>
      <trkpt lat="49.6514" lon="-1.55765">
        <ele>11.622067</ele>
        <time>2022-07-30T09:21:41.000Z</time>
      </trkpt>
      <trkpt lat="49.65141" lon="-1.55761">
        <ele>11.68561</ele>
        <time>2022-07-30T09:21:42.000Z</time>
      </trkpt>
      <trkpt lat="49.65141" lon="-1.55758">
        <ele>11.747459</ele>
        <time>2022-07-30T09:21:43.000Z</time>
      </trkpt>
      <trkpt lat="49.65141" lon="-1.55755">
        <ele>11.801865</ele>
        <time>2022-07-30T09:21:44.000Z</time>
      </trkpt>
      <trkpt lat="49.65142" lon="-1.55752">
        <ele>11.859064</ele>
        <time>2022-07-30T09:21:45.000Z</time>
      </trkpt>
      <trkpt lat="49.65142" lon="-1.55748">
        <ele>11.917548</ele>
        <time>2022-07-30T09:21:46.000Z</time>
      </trkpt>
      <trkpt lat="49.65142" lon="-1.55745">
        <ele>11.982992</ele>
        <time>2022-07-30T09:21:47.000Z</time>
      </trkpt>
      <trkpt lat="49.65143" lon="-1.55741">
        <ele>12.044955</ele>
        <time>2022-07-30T09:21:48.000Z</time>
      </trkpt>
      <trkpt lat="49.65142" lon="-1.55737">
        <ele>12.113601</ele>
        <time>2022-07-30T09:21:49.000Z</time>
      </trkpt>
      <trkpt lat="49.65142" lon="-1.55733">
        <ele>12.182529</ele>
        <time>2022-07-30T09:21:50.000Z</time>
      </trkpt>
      <trkpt lat="49.65142" lon="-1.5573">
        <ele>12.249221</ele>
        <time>2022-07-30T09:21:51.000Z</time>
      </trkpt>
      <trkpt lat="49.65142" lon="-1.55726">
        <ele>12.316407</ele>
        <time>2022-07-30T09:21:52.000Z</time>
      </trkpt>
      <trkpt lat="49.65142" lon="-1.55722">
        <ele>12.384853</ele>
        <time>2022-07-30T09:21:53.000Z</time>
      </trkpt>
      <trkpt lat="49.65142" lon="-1.55718">
        <ele>12.45681</ele>
        <time>2022-07-30T09:21:54.000Z</time>
      </trkpt>
      <trkpt lat="49.65142" lon="-1.55713">
        <ele>12.534459</ele>
        <time>2022-07-30T09:21:55.000Z</time>
      </trkpt>
      <trkpt lat="49.65143" lon="-1.55709">
        <ele>12.613854</ele>
        <time>2022-07-30T09:21:56.000Z</time>
      </trkpt>
      <trkpt lat="49.65143" lon="-1.55705">
        <ele>12.69167</ele>
        <time>2022-07-30T09:21:57.000Z</time>
      </trkpt>
      <trkpt lat="49.65144" lon="-1.557">
        <ele>12.768869</ele>
        <time>2022-07-30T09:21:58.000Z</time>
      </trkpt>
      <trkpt lat="49.65144" lon="-1.55696">
        <ele>12.851756</ele>
        <time>2022-07-30T09:21:59.000Z</time>
      </trkpt>
      <trkpt lat="49.65144" lon="-1.55691">
        <ele>12.935998</ele>
        <time>2022-07-30T09:22:00.000Z</time>
      </trkpt>
      <trkpt lat="49.65144" lon="-1.55686">
        <ele>13.023751</ele>
        <time>2022-07-30T09:22:01.000Z</time>
      </trkpt>
      <trkpt lat="49.65144" lon="-1.55681">
        <ele>13.111503</ele>
        <time>2022-07-30T09:22:02.000Z</time>
      </trkpt>
      <trkpt lat="49.65145" lon="-1.55676">
        <ele>13.199568</ele>
        <time>2022-07-30T09:22:03.000Z</time>
      </trkpt>
      <trkpt lat="49.65145" lon="-1.55671">
        <ele>13.287321</ele>
        <time>2022-07-30T09:22:04.000Z</time>
      </trkpt>
      <trkpt lat="49.65146" lon="-1.55666">
        <ele>13.339235</ele>
        <time>2022-07-30T09:22:05.000Z</time>
      </trkpt>
      <trkpt lat="49.65146" lon="-1.55661">
        <ele>13.384235</ele>
        <time>2022-07-30T09:22:06.000Z</time>
      </trkpt>
      <trkpt lat="49.65146" lon="-1.55656">
        <ele>13.430378</ele>
        <time>2022-07-30T09:22:07.000Z</time>
      </trkpt>
      <trkpt lat="49.65146" lon="-1.55651">
        <ele>13.477253</ele>
        <time>2022-07-30T09:22:08.000Z</time>
      </trkpt>
      <trkpt lat="49.65146" lon="-1.55646">
        <ele>13.524128</ele>
        <time>2022-07-30T09:22:09.000Z</time>
      </trkpt>
      <trkpt lat="49.65146" lon="-1.55641">
        <ele>13.571941</ele>
        <time>2022-07-30T09:22:10.000Z</time>
      </trkpt>
      <trkpt lat="49.65146" lon="-1.55637">
        <ele>13.616004</ele>
        <time>2022-07-30T09:22:11.000Z</time>
      </trkpt>
      <trkpt lat="49.65146" lon="-1.55632">
        <ele>13.662879</ele>
        <time>2022-07-30T09:22:12.000Z</time>
      </trkpt>
      <trkpt lat="49.65146" lon="-1.55627">
        <ele>13.709955</ele>
        <time>2022-07-30T09:22:13.000Z</time>
      </trkpt>
      <trkpt lat="49.65147" lon="-1.55622">
        <ele>13.755326</ele>
        <time>2022-07-30T09:22:14.000Z</time>
      </trkpt>
      <trkpt lat="49.65147" lon="-1.55617">
        <ele>13.799389</ele>
        <time>2022-07-30T09:22:15.000Z</time>
      </trkpt>
      <trkpt lat="49.65147" lon="-1.55612">
        <ele>13.843665</ele>
        <time>2022-07-30T09:22:16.000Z</time>
      </trkpt>
      <trkpt lat="49.65147" lon="-1.55608">
        <ele>13.888665</ele>
        <time>2022-07-30T09:22:17.000Z</time>
      </trkpt>
      <trkpt lat="49.65148" lon="-1.55603">
        <ele>13.934497</ele>
        <time>2022-07-30T09:22:18.000Z</time>
      </trkpt>
      <trkpt lat="49.65148" lon="-1.55598">
        <ele>13.981573</ele>
        <time>2022-07-30T09:22:19.000Z</time>
      </trkpt>
      <trkpt lat="49.65148" lon="-1.55593">
        <ele>14.025635</ele>
        <time>2022-07-30T09:22:20.000Z</time>
      </trkpt>
      <trkpt lat="49.65148" lon="-1.55588">
        <ele>14.070845</ele>
        <time>2022-07-30T09:22:21.000Z</time>
      </trkpt>
      <trkpt lat="49.65148" lon="-1.55583">
        <ele>14.116782</ele>
        <time>2022-07-30T09:22:22.000Z</time>
      </trkpt>
      <trkpt lat="49.65148" lon="-1.55579">
        <ele>14.159908</ele>
        <time>2022-07-30T09:22:23.000Z</time>
      </trkpt>
      <trkpt lat="49.65148" lon="-1.55574">
        <ele>14.205845</ele>
        <time>2022-07-30T09:22:24.000Z</time>
      </trkpt>
      <trkpt lat="49.65148" lon="-1.55569">
        <ele>14.248971</ele>
        <time>2022-07-30T09:22:25.000Z</time>
      </trkpt>
      <trkpt lat="49.65148" lon="-1.55565">
        <ele>14.293033</ele>
        <time>2022-07-30T09:22:26.000Z</time>
      </trkpt>
      <trkpt lat="49.65147" lon="-1.5556">
        <ele>14.336106</ele>
        <time>2022-07-30T09:22:27.000Z</time>
      </trkpt>
      <trkpt lat="49.65147" lon="-1.55556">
        <ele>14.373606</ele>
        <time>2022-07-30T09:22:28.000Z</time>
      </trkpt>
      <trkpt lat="49.65148" lon="-1.55553">
        <ele>14.405741</ele>
        <time>2022-07-30T09:22:29.000Z</time>
      </trkpt>
      <trkpt lat="49.65148" lon="-1.55548">
        <ele>14.449803</ele>
        <time>2022-07-30T09:22:31.000Z</time>
      </trkpt>
      <trkpt lat="49.65149" lon="-1.55545">
        <ele>14.487632</ele>
        <time>2022-07-30T09:22:33.000Z</time>
      </trkpt>
      <trkpt lat="49.6515" lon="-1.5554">
        <ele>14.538146</ele>
        <time>2022-07-30T09:22:35.000Z</time>
      </trkpt>
      <trkpt lat="49.65151" lon="-1.55536">
        <ele>14.572089</ele>
        <time>2022-07-30T09:22:36.000Z</time>
      </trkpt>
      <trkpt lat="49.65152" lon="-1.55532">
        <ele>14.612288</ele>
        <time>2022-07-30T09:22:37.000Z</time>
      </trkpt>
      <trkpt lat="49.65152" lon="-1.55527">
        <ele>14.657199</ele>
        <time>2022-07-30T09:22:38.000Z</time>
      </trkpt>
      <trkpt lat="49.65153" lon="-1.55523">
        <ele>14.704472</ele>
        <time>2022-07-30T09:22:39.000Z</time>
      </trkpt>
      <trkpt lat="49.65154" lon="-1.55518">
        <ele>14.749681</ele>
        <time>2022-07-30T09:22:40.000Z</time>
      </trkpt>
      <trkpt lat="49.65154" lon="-1.55513">
        <ele>14.796556</ele>
        <time>2022-07-30T09:22:41.000Z</time>
      </trkpt>
      <trkpt lat="49.65154" lon="-1.55508">
        <ele>14.8455</ele>
        <time>2022-07-30T09:22:42.000Z</time>
      </trkpt>
      <trkpt lat="49.65155" lon="-1.55502">
        <ele>14.898049</ele>
        <time>2022-07-30T09:22:43.000Z</time>
      </trkpt>
      <trkpt lat="49.65155" lon="-1.55497">
        <ele>14.947737</ele>
        <time>2022-07-30T09:22:44.000Z</time>
      </trkpt>
      <trkpt lat="49.65156" lon="-1.55491">
        <ele>15.000012</ele>
        <time>2022-07-30T09:22:45.000Z</time>
      </trkpt>
      <trkpt lat="49.65156" lon="-1.55486">
        <ele>15.048022</ele>
        <time>2022-07-30T09:22:46.000Z</time>
      </trkpt>
      <trkpt lat="49.65156" lon="-1.55481">
        <ele>15.098977</ele>
        <time>2022-07-30T09:22:47.000Z</time>
      </trkpt>
      <trkpt lat="49.65157" lon="-1.55476">
        <ele>15.148854</ele>
        <time>2022-07-30T09:22:48.000Z</time>
      </trkpt>
      <trkpt lat="49.65157" lon="-1.5547">
        <ele>15.202038</ele>
        <time>2022-07-30T09:22:49.000Z</time>
      </trkpt>
      <trkpt lat="49.65157" lon="-1.55465">
        <ele>15.251726</ele>
        <time>2022-07-30T09:22:50.000Z</time>
      </trkpt>
      <trkpt lat="49.65157" lon="-1.5546">
        <ele>15.300476</ele>
        <time>2022-07-30T09:22:51.000Z</time>
      </trkpt>
      <trkpt lat="49.65158" lon="-1.55455">
        <ele>15.347708</ele>
        <time>2022-07-30T09:22:52.000Z</time>
      </trkpt>
      <trkpt lat="49.65158" lon="-1.5545">
        <ele>15.394583</ele>
        <time>2022-07-30T09:22:53.000Z</time>
      </trkpt>
      <trkpt lat="49.65158" lon="-1.55445">
        <ele>15.439583</ele>
        <time>2022-07-30T09:22:54.000Z</time>
      </trkpt>
      <trkpt lat="49.65158" lon="-1.5544">
        <ele>15.483859</ele>
        <time>2022-07-30T09:22:55.000Z</time>
      </trkpt>
      <trkpt lat="49.65158" lon="-1.55436">
        <ele>15.52627</ele>
        <time>2022-07-30T09:22:56.000Z</time>
      </trkpt>
      <trkpt lat="49.65159" lon="-1.55431">
        <ele>15.565884</ele>
        <time>2022-07-30T09:22:57.000Z</time>
      </trkpt>
      <trkpt lat="49.65159" lon="-1.55427">
        <ele>15.605635</ele>
        <time>2022-07-30T09:22:58.000Z</time>
      </trkpt>
      <trkpt lat="49.6516" lon="-1.55423">
        <ele>15.645249</ele>
        <time>2022-07-30T09:22:59.000Z</time>
      </trkpt>
      <trkpt lat="49.6516" lon="-1.55419">
        <ele>15.685795</ele>
        <time>2022-07-30T09:23:00.000Z</time>
      </trkpt>
      <trkpt lat="49.6516" lon="-1.55414">
        <ele>15.728206</ele>
        <time>2022-07-30T09:23:01.000Z</time>
      </trkpt>
      <trkpt lat="49.65161" lon="-1.5541">
        <ele>15.769684</ele>
        <time>2022-07-30T09:23:02.000Z</time>
      </trkpt>
      <trkpt lat="49.6516" lon="-1.55405">
        <ele>15.813027</ele>
        <time>2022-07-30T09:23:03.000Z</time>
      </trkpt>
      <trkpt lat="49.65161" lon="-1.554">
        <ele>15.85917</ele>
        <time>2022-07-30T09:23:04.000Z</time>
      </trkpt>
      <trkpt lat="49.65162" lon="-1.55396">
        <ele>15.903773</ele>
        <time>2022-07-30T09:23:05.000Z</time>
      </trkpt>
      <trkpt lat="49.65162" lon="-1.55391">
        <ele>16.063812</ele>
        <time>2022-07-30T09:23:06.000Z</time>
      </trkpt>
      <trkpt lat="49.65162" lon="-1.55387">
        <ele>16.229565</ele>
        <time>2022-07-30T09:23:07.000Z</time>
      </trkpt>
      <trkpt lat="49.65162" lon="-1.55382">
        <ele>16.398844</ele>
        <time>2022-07-30T09:23:08.000Z</time>
      </trkpt>
      <trkpt lat="49.65162" lon="-1.55377">
        <ele>16.5654</ele>
        <time>2022-07-30T09:23:09.000Z</time>
      </trkpt>
      <trkpt lat="49.65163" lon="-1.55372">
        <ele>16.736076</ele>
        <time>2022-07-30T09:23:10.000Z</time>
      </trkpt>
      <trkpt lat="49.65163" lon="-1.55368">
        <ele>16.901829</ele>
        <time>2022-07-30T09:23:11.000Z</time>
      </trkpt>
      <trkpt lat="49.65163" lon="-1.55363">
        <ele>17.074235</ele>
        <time>2022-07-30T09:23:12.000Z</time>
      </trkpt>
      <trkpt lat="49.65163" lon="-1.55358">
        <ele>17.250567</ele>
        <time>2022-07-30T09:23:13.000Z</time>
      </trkpt>
      <trkpt lat="49.65163" lon="-1.55353">
        <ele>17.423373</ele>
        <time>2022-07-30T09:23:14.000Z</time>
      </trkpt>
      <trkpt lat="49.65164" lon="-1.55349">
        <ele>17.568887</ele>
        <time>2022-07-30T09:23:15.000Z</time>
      </trkpt>
      <trkpt lat="49.65164" lon="-1.55344">
        <ele>17.724059</ele>
        <time>2022-07-30T09:23:16.000Z</time>
      </trkpt>
      <trkpt lat="49.65164" lon="-1.5534">
        <ele>17.869573</ele>
        <time>2022-07-30T09:23:17.000Z</time>
      </trkpt>
      <trkpt lat="49.65164" lon="-1.55336">
        <ele>18.029761</ele>
        <time>2022-07-30T09:23:18.000Z</time>
      </trkpt>
      <trkpt lat="49.65165" lon="-1.55331">
        <ele>18.189299</ele>
        <time>2022-07-30T09:23:19.000Z</time>
      </trkpt>
      <trkpt lat="49.65165" lon="-1.55326">
        <ele>18.362876</ele>
        <time>2022-07-30T09:23:20.000Z</time>
      </trkpt>
      <trkpt lat="49.65165" lon="-1.55322">
        <ele>18.518004</ele>
        <time>2022-07-30T09:23:21.000Z</time>
      </trkpt>
      <trkpt lat="49.65166" lon="-1.55318">
        <ele>18.678192</ele>
        <time>2022-07-30T09:23:22.000Z</time>
      </trkpt>
      <trkpt lat="49.65166" lon="-1.55313">
        <ele>18.840222</ele>
        <time>2022-07-30T09:23:23.000Z</time>
      </trkpt>
      <trkpt lat="49.65167" lon="-1.55309">
        <ele>18.992746</ele>
        <time>2022-07-30T09:23:24.000Z</time>
      </trkpt>
      <trkpt lat="49.65167" lon="-1.55305">
        <ele>19.140866</ele>
        <time>2022-07-30T09:23:25.000Z</time>
      </trkpt>
      <trkpt lat="49.65167" lon="-1.55301">
        <ele>19.281932</ele>
        <time>2022-07-30T09:23:26.000Z</time>
      </trkpt>
      <trkpt lat="49.65167" lon="-1.55296">
        <ele>19.43488</ele>
        <time>2022-07-30T09:23:27.000Z</time>
      </trkpt>
      <trkpt lat="49.65168" lon="-1.55292">
        <ele>19.594419</ele>
        <time>2022-07-30T09:23:28.000Z</time>
      </trkpt>
      <trkpt lat="49.65168" lon="-1.55288">
        <ele>19.736428</ele>
        <time>2022-07-30T09:23:29.000Z</time>
      </trkpt>
      <trkpt lat="49.65168" lon="-1.55284">
        <ele>19.864435</ele>
        <time>2022-07-30T09:23:30.000Z</time>
      </trkpt>
      <trkpt lat="49.65169" lon="-1.55281">
        <ele>19.996134</ele>
        <time>2022-07-30T09:23:31.000Z</time>
      </trkpt>
      <trkpt lat="49.65169" lon="-1.55278">
        <ele>20.10546</ele>
        <time>2022-07-30T09:23:32.000Z</time>
      </trkpt>
      <trkpt lat="49.65169" lon="-1.55275">
        <ele>20.217921</ele>
        <time>2022-07-30T09:23:33.000Z</time>
      </trkpt>
      <trkpt lat="49.65168" lon="-1.55272">
        <ele>20.328653</ele>
        <time>2022-07-30T09:23:35.000Z</time>
      </trkpt>
      <trkpt lat="49.65162" lon="-1.55271">
        <ele>20.679829</ele>
        <time>2022-07-30T09:23:48.000Z</time>
      </trkpt>
      <trkpt lat="49.6516" lon="-1.55271">
        <ele>20.786228</ele>
        <time>2022-07-30T09:23:49.000Z</time>
      </trkpt>
      <trkpt lat="49.65158" lon="-1.55272">
        <ele>20.895567</ele>
        <time>2022-07-30T09:23:50.000Z</time>
      </trkpt>
      <trkpt lat="49.65156" lon="-1.55273">
        <ele>21.010076</ele>
        <time>2022-07-30T09:23:51.000Z</time>
      </trkpt>
      <trkpt lat="49.65154" lon="-1.55274">
        <ele>21.119415</ele>
        <time>2022-07-30T09:23:52.000Z</time>
      </trkpt>
      <trkpt lat="49.65151" lon="-1.55276">
        <ele>21.304922</ele>
        <time>2022-07-30T09:23:54.000Z</time>
      </trkpt>
      <trkpt lat="49.65148" lon="-1.55278">
        <ele>21.487081</ele>
        <time>2022-07-30T09:23:56.000Z</time>
      </trkpt>
      <trkpt lat="49.65146" lon="-1.55278">
        <ele>21.594353</ele>
        <time>2022-07-30T09:23:57.000Z</time>
      </trkpt>
      <trkpt lat="49.65144" lon="-1.5528">
        <ele>21.694521</ele>
        <time>2022-07-30T09:23:58.000Z</time>
      </trkpt>
      <trkpt lat="49.65142" lon="-1.55281">
        <ele>21.80386</ele>
        <time>2022-07-30T09:23:59.000Z</time>
      </trkpt>
      <trkpt lat="49.6514" lon="-1.55282">
        <ele>21.913199</ele>
        <time>2022-07-30T09:24:00.000Z</time>
      </trkpt>
      <trkpt lat="49.65137" lon="-1.55284">
        <ele>22.122815</ele>
        <time>2022-07-30T09:24:02.000Z</time>
      </trkpt>
      <trkpt lat="49.65135" lon="-1.55285">
        <ele>22.234628</ele>
        <time>2022-07-30T09:24:03.000Z</time>
      </trkpt>
      <trkpt lat="49.65133" lon="-1.55287">
        <ele>22.35086</ele>
        <time>2022-07-30T09:24:04.000Z</time>
      </trkpt>
      <trkpt lat="49.65131" lon="-1.55288">
        <ele>22.464055</ele>
        <time>2022-07-30T09:24:05.000Z</time>
      </trkpt>
      <trkpt lat="49.65128" lon="-1.55291">
        <ele>22.666153</ele>
        <time>2022-07-30T09:24:07.000Z</time>
      </trkpt>
      <trkpt lat="49.65126" lon="-1.55292">
        <ele>22.782384</ele>
        <time>2022-07-30T09:24:08.000Z</time>
      </trkpt>
      <trkpt lat="49.65124" lon="-1.55294">
        <ele>22.884336</ele>
        <time>2022-07-30T09:24:09.000Z</time>
      </trkpt>
      <trkpt lat="49.65122" lon="-1.55295">
        <ele>23.005443</ele>
        <time>2022-07-30T09:24:10.000Z</time>
      </trkpt>
      <trkpt lat="49.65121" lon="-1.55297">
        <ele>23.109269</ele>
        <time>2022-07-30T09:24:11.000Z</time>
      </trkpt>
      <trkpt lat="49.65119" lon="-1.55299">
        <ele>23.219205</ele>
        <time>2022-07-30T09:24:12.000Z</time>
      </trkpt>
      <trkpt lat="49.65117" lon="-1.553">
        <ele>23.3324</ele>
        <time>2022-07-30T09:24:13.000Z</time>
      </trkpt>
      <trkpt lat="49.65115" lon="-1.55303">
        <ele>23.500613</ele>
        <time>2022-07-30T09:24:15.000Z</time>
      </trkpt>
      <trkpt lat="49.65112" lon="-1.55306">
        <ele>23.657976</ele>
        <time>2022-07-30T09:24:17.000Z</time>
      </trkpt>
      <trkpt lat="49.65111" lon="-1.55308">
        <ele>23.774662</ele>
        <time>2022-07-30T09:24:19.000Z</time>
      </trkpt>
      <trkpt lat="49.65109" lon="-1.5531">
        <ele>23.910621</ele>
        <time>2022-07-30T09:24:21.000Z</time>
      </trkpt>
      <trkpt lat="49.65107" lon="-1.55313">
        <ele>24.065901</ele>
        <time>2022-07-30T09:24:23.000Z</time>
      </trkpt>
      <trkpt lat="49.65105" lon="-1.55315">
        <ele>24.178021</ele>
        <time>2022-07-30T09:24:24.000Z</time>
      </trkpt>
      <trkpt lat="49.65104" lon="-1.55317">
        <ele>24.283065</ele>
        <time>2022-07-30T09:24:25.000Z</time>
      </trkpt>
      <trkpt lat="49.65102" lon="-1.5532">
        <ele>24.407038</ele>
        <time>2022-07-30T09:24:26.000Z</time>
      </trkpt>
      <trkpt lat="49.65101" lon="-1.55322">
        <ele>24.531011</ele>
        <time>2022-07-30T09:24:27.000Z</time>
      </trkpt>
      <trkpt lat="49.65099" lon="-1.55324">
        <ele>24.633478</ele>
        <time>2022-07-30T09:24:28.000Z</time>
      </trkpt>
      <trkpt lat="49.65098" lon="-1.55327">
        <ele>24.743834</ele>
        <time>2022-07-30T09:24:29.000Z</time>
      </trkpt>
      <trkpt lat="49.65096" lon="-1.55329">
        <ele>24.855954</ele>
        <time>2022-07-30T09:24:30.000Z</time>
      </trkpt>
      <trkpt lat="49.65094" lon="-1.55331">
        <ele>24.981199</ele>
        <time>2022-07-30T09:24:31.000Z</time>
      </trkpt>
      <trkpt lat="49.65093" lon="-1.55333">
        <ele>25.093319</ele>
        <time>2022-07-30T09:24:32.000Z</time>
      </trkpt>
      <trkpt lat="49.65091" lon="-1.55335">
        <ele>25.205439</ele>
        <time>2022-07-30T09:24:33.000Z</time>
      </trkpt>
      <trkpt lat="49.6509" lon="-1.55337">
        <ele>25.313115</ele>
        <time>2022-07-30T09:24:34.000Z</time>
      </trkpt>
      <trkpt lat="49.65088" lon="-1.55339">
        <ele>25.429801</ele>
        <time>2022-07-30T09:24:35.000Z</time>
      </trkpt>
      <trkpt lat="49.65087" lon="-1.55342">
        <ele>25.548861</ele>
        <time>2022-07-30T09:24:36.000Z</time>
      </trkpt>
      <trkpt lat="49.65084" lon="-1.55346">
        <ele>25.852475</ele>
        <time>2022-07-30T09:24:38.000Z</time>
      </trkpt>
      <trkpt lat="49.65082" lon="-1.55348">
        <ele>26.109063</ele>
        <time>2022-07-30T09:24:39.000Z</time>
      </trkpt>
      <trkpt lat="49.65081" lon="-1.55349">
        <ele>26.351682</ele>
        <time>2022-07-30T09:24:40.000Z</time>
      </trkpt>
      <trkpt lat="49.65079" lon="-1.55351">
        <ele>26.628282</ele>
        <time>2022-07-30T09:24:41.000Z</time>
      </trkpt>
      <trkpt lat="49.65077" lon="-1.55352">
        <ele>26.897658</ele>
        <time>2022-07-30T09:24:42.000Z</time>
      </trkpt>
      <trkpt lat="49.65075" lon="-1.55353">
        <ele>27.19493</ele>
        <time>2022-07-30T09:24:43.000Z</time>
      </trkpt>
      <trkpt lat="49.65073" lon="-1.55354">
        <ele>27.46743</ele>
        <time>2022-07-30T09:24:44.000Z</time>
      </trkpt>
      <trkpt lat="49.65071" lon="-1.55355">
        <ele>27.733517</ele>
        <time>2022-07-30T09:24:45.000Z</time>
      </trkpt>
      <trkpt lat="49.65069" lon="-1.55356">
        <ele>27.999603</ele>
        <time>2022-07-30T09:24:46.000Z</time>
      </trkpt>
      <trkpt lat="49.65065" lon="-1.55358">
        <ele>28.472753</ele>
        <time>2022-07-30T09:24:48.000Z</time>
      </trkpt>
      <trkpt lat="49.65063" lon="-1.55359">
        <ele>28.725954</ele>
        <time>2022-07-30T09:24:49.000Z</time>
      </trkpt>
      <trkpt lat="49.65061" lon="-1.55359">
        <ele>28.99178</ele>
        <time>2022-07-30T09:24:50.000Z</time>
      </trkpt>
      <trkpt lat="49.6506" lon="-1.5536">
        <ele>29.241621</ele>
        <time>2022-07-30T09:24:51.000Z</time>
      </trkpt>
      <trkpt lat="49.65058" lon="-1.5536">
        <ele>29.487912</ele>
        <time>2022-07-30T09:24:52.000Z</time>
      </trkpt>
      <trkpt lat="49.65054" lon="-1.5536">
        <ele>29.942304</ele>
        <time>2022-07-30T09:24:54.000Z</time>
      </trkpt>
      <trkpt lat="49.65052" lon="-1.5536">
        <ele>30.280274</ele>
        <time>2022-07-30T09:24:55.000Z</time>
      </trkpt>
      <trkpt lat="49.65048" lon="-1.5536">
        <ele>30.697197</ele>
        <time>2022-07-30T09:24:57.000Z</time>
      </trkpt>
      <trkpt lat="49.65046" lon="-1.5536">
        <ele>30.943488</ele>
        <time>2022-07-30T09:24:58.000Z</time>
      </trkpt>
      <trkpt lat="49.65045" lon="-1.5536">
        <ele>31.189779</ele>
        <time>2022-07-30T09:24:59.000Z</time>
      </trkpt>
      <trkpt lat="49.65043" lon="-1.5536">
        <ele>31.43607</ele>
        <time>2022-07-30T09:25:00.000Z</time>
      </trkpt>
      <trkpt lat="49.65041" lon="-1.5536">
        <ele>31.695324</ele>
        <time>2022-07-30T09:25:01.000Z</time>
      </trkpt>
      <trkpt lat="49.65039" lon="-1.5536">
        <ele>31.942187</ele>
        <time>2022-07-30T09:25:02.000Z</time>
      </trkpt>
      <trkpt lat="49.65036" lon="-1.5536">
        <ele>32.35911</ele>
        <time>2022-07-30T09:25:04.000Z</time>
      </trkpt>
      <trkpt lat="49.65034" lon="-1.55359">
        <ele>32.605973</ele>
        <time>2022-07-30T09:25:05.000Z</time>
      </trkpt>
      <trkpt lat="49.65032" lon="-1.55359">
        <ele>32.852264</ele>
        <time>2022-07-30T09:25:06.000Z</time>
      </trkpt>
      <trkpt lat="49.65029" lon="-1.55359">
        <ele>33.270115</ele>
        <time>2022-07-30T09:25:08.000Z</time>
      </trkpt>
      <trkpt lat="49.65025" lon="-1.55358">
        <ele>33.687039</ele>
        <time>2022-07-30T09:25:10.000Z</time>
      </trkpt>
      <trkpt lat="49.65022" lon="-1.55358">
        <ele>34.063331</ele>
        <time>2022-07-30T09:25:12.000Z</time>
      </trkpt>
      <trkpt lat="49.6502" lon="-1.55357">
        <ele>34.443812</ele>
        <time>2022-07-30T09:25:14.000Z</time>
      </trkpt>
      <trkpt lat="49.65016" lon="-1.55357">
        <ele>34.858619</ele>
        <time>2022-07-30T09:25:16.000Z</time>
      </trkpt>
      <trkpt lat="49.65013" lon="-1.55358">
        <ele>35.274781</ele>
        <time>2022-07-30T09:25:18.000Z</time>
      </trkpt>
      <trkpt lat="49.65011" lon="-1.55358">
        <ele>35.522356</ele>
        <time>2022-07-30T09:25:19.000Z</time>
      </trkpt>
      <trkpt lat="49.65009" lon="-1.55358">
        <ele>35.769218</ele>
        <time>2022-07-30T09:25:20.000Z</time>
      </trkpt>
      <trkpt lat="49.65007" lon="-1.55358">
        <ele>36.01551</ele>
        <time>2022-07-30T09:25:21.000Z</time>
      </trkpt>
      <trkpt lat="49.65005" lon="-1.55358">
        <ele>36.274899</ele>
        <time>2022-07-30T09:25:22.000Z</time>
      </trkpt>
      <trkpt lat="49.65003" lon="-1.55357">
        <ele>36.645631</ele>
        <time>2022-07-30T09:25:24.000Z</time>
      </trkpt>
      <trkpt lat="49.65001" lon="-1.55357">
        <ele>36.906105</ele>
        <time>2022-07-30T09:25:25.000Z</time>
      </trkpt>
      <trkpt lat="49.64997" lon="-1.55357">
        <ele>37.320911</ele>
        <time>2022-07-30T09:25:27.000Z</time>
      </trkpt>
      <trkpt lat="49.64995" lon="-1.55356">
        <ele>37.686284</ele>
        <time>2022-07-30T09:25:29.000Z</time>
      </trkpt>
      <trkpt lat="49.64992" lon="-1.55356">
        <ele>38.062202</ele>
        <time>2022-07-30T09:25:31.000Z</time>
      </trkpt>
      <trkpt lat="49.64989" lon="-1.55356">
        <ele>38.363283</ele>
        <time>2022-07-30T09:25:33.000Z</time>
      </trkpt>
      <trkpt lat="49.64986" lon="-1.55355">
        <ele>38.817675</ele>
        <time>2022-07-30T09:25:35.000Z</time>
      </trkpt>
      <trkpt lat="49.64982" lon="-1.55354">
        <ele>39.324078</ele>
        <time>2022-07-30T09:25:37.000Z</time>
      </trkpt>
      <trkpt lat="49.6498" lon="-1.55353">
        <ele>39.575464</ele>
        <time>2022-07-30T09:25:38.000Z</time>
      </trkpt>
      <trkpt lat="49.64977" lon="-1.55352">
        <ele>39.997092</ele>
        <time>2022-07-30T09:25:40.000Z</time>
      </trkpt>
      <trkpt lat="49.64975" lon="-1.55352">
        <ele>40.296295</ele>
        <time>2022-07-30T09:25:41.000Z</time>
      </trkpt>
      <trkpt lat="49.64973" lon="-1.55352">
        <ele>40.543157</ele>
        <time>2022-07-30T09:25:42.000Z</time>
      </trkpt>
      <trkpt lat="49.6497" lon="-1.55351">
        <ele>40.960081</ele>
        <time>2022-07-30T09:25:44.000Z</time>
      </trkpt>
      <trkpt lat="49.64967" lon="-1.55351">
        <ele>41.245383</ele>
        <time>2022-07-30T09:25:45.000Z</time>
      </trkpt>
      <trkpt lat="49.64964" lon="-1.55351">
        <ele>41.750928</ele>
        <time>2022-07-30T09:25:47.000Z</time>
      </trkpt>
      <trkpt lat="49.64961" lon="-1.55351">
        <ele>42.036601</ele>
        <time>2022-07-30T09:25:48.000Z</time>
      </trkpt>
      <trkpt lat="49.64959" lon="-1.55351">
        <ele>42.284176</ele>
        <time>2022-07-30T09:25:49.000Z</time>
      </trkpt>
      <trkpt lat="49.64957" lon="-1.55351">
        <ele>42.58279</ele>
        <time>2022-07-30T09:25:50.000Z</time>
      </trkpt>
      <trkpt lat="49.64955" lon="-1.5535">
        <ele>42.829653</ele>
        <time>2022-07-30T09:25:51.000Z</time>
      </trkpt>
      <trkpt lat="49.64953" lon="-1.5535">
        <ele>43.075944</ele>
        <time>2022-07-30T09:25:52.000Z</time>
      </trkpt>
      <trkpt lat="49.6495" lon="-1.5535">
        <ele>43.492867</ele>
        <time>2022-07-30T09:25:54.000Z</time>
      </trkpt>
      <trkpt lat="49.64948" lon="-1.5535">
        <ele>43.741436</ele>
        <time>2022-07-30T09:25:55.000Z</time>
      </trkpt>
      <trkpt lat="49.64944" lon="-1.5535">
        <ele>44.285934</ele>
        <time>2022-07-30T09:25:57.000Z</time>
      </trkpt>
      <trkpt lat="49.64942" lon="-1.5535">
        <ele>44.533508</ele>
        <time>2022-07-30T09:25:58.000Z</time>
      </trkpt>
      <trkpt lat="49.6494" lon="-1.55352">
        <ele>44.893284</ele>
        <time>2022-07-30T09:26:00.000Z</time>
      </trkpt>
      <trkpt lat="49.64938" lon="-1.55353">
        <ele>45.127635</ele>
        <time>2022-07-30T09:26:01.000Z</time>
      </trkpt>
      <trkpt lat="49.64936" lon="-1.55354">
        <ele>45.418803</ele>
        <time>2022-07-30T09:26:02.000Z</time>
      </trkpt>
      <trkpt lat="49.64933" lon="-1.55356">
        <ele>45.872848</ele>
        <time>2022-07-30T09:26:04.000Z</time>
      </trkpt>
      <trkpt lat="49.6493" lon="-1.55357">
        <ele>46.19648</ele>
        <time>2022-07-30T09:26:06.000Z</time>
      </trkpt>
      <trkpt lat="49.64928" lon="-1.55358">
        <ele>46.496231</ele>
        <time>2022-07-30T09:26:08.000Z</time>
      </trkpt>
      <trkpt lat="49.64925" lon="-1.55359">
        <ele>46.841622</ele>
        <time>2022-07-30T09:26:10.000Z</time>
      </trkpt>
      <trkpt lat="49.64922" lon="-1.55361">
        <ele>47.270538</ele>
        <time>2022-07-30T09:26:12.000Z</time>
      </trkpt>
      <trkpt lat="49.64919" lon="-1.55361">
        <ele>47.638217</ele>
        <time>2022-07-30T09:26:14.000Z</time>
      </trkpt>
      <trkpt lat="49.64916" lon="-1.55362">
        <ele>48.061429</ele>
        <time>2022-07-30T09:26:16.000Z</time>
      </trkpt>
      <trkpt lat="49.64914" lon="-1.55362">
        <ele>48.320683</ele>
        <time>2022-07-30T09:26:17.000Z</time>
      </trkpt>
      <trkpt lat="49.64912" lon="-1.55363">
        <ele>48.568258</ele>
        <time>2022-07-30T09:26:18.000Z</time>
      </trkpt>
      <trkpt lat="49.6491" lon="-1.55363">
        <ele>48.815833</ele>
        <time>2022-07-30T09:26:19.000Z</time>
      </trkpt>
      <trkpt lat="49.64909" lon="-1.55363">
        <ele>49.069632</ele>
        <time>2022-07-30T09:26:20.000Z</time>
      </trkpt>
      <trkpt lat="49.64907" lon="-1.55363">
        <ele>49.33619</ele>
        <time>2022-07-30T09:26:21.000Z</time>
      </trkpt>
      <trkpt lat="49.64905" lon="-1.55363">
        <ele>49.616778</ele>
        <time>2022-07-30T09:26:22.000Z</time>
      </trkpt>
      <trkpt lat="49.64902" lon="-1.55363">
        <ele>49.926626</ele>
        <time>2022-07-30T09:26:23.000Z</time>
      </trkpt>
      <trkpt lat="49.649" lon="-1.55363">
        <ele>50.235807</ele>
        <time>2022-07-30T09:26:24.000Z</time>
      </trkpt>
      <trkpt lat="49.64898" lon="-1.55363">
        <ele>50.518737</ele>
        <time>2022-07-30T09:26:25.000Z</time>
      </trkpt>
      <trkpt lat="49.64896" lon="-1.55364">
        <ele>50.828585</ele>
        <time>2022-07-30T09:26:26.000Z</time>
      </trkpt>
      <trkpt lat="49.64894" lon="-1.55364">
        <ele>51.095762</ele>
        <time>2022-07-30T09:26:27.000Z</time>
      </trkpt>
      <trkpt lat="49.64892" lon="-1.55364">
        <ele>51.418566</ele>
        <time>2022-07-30T09:26:28.000Z</time>
      </trkpt>
      <trkpt lat="49.6489" lon="-1.55364">
        <ele>51.685279</ele>
        <time>2022-07-30T09:26:29.000Z</time>
      </trkpt>
      <trkpt lat="49.64888" lon="-1.55364">
        <ele>51.99446</ele>
        <time>2022-07-30T09:26:30.000Z</time>
      </trkpt>
      <trkpt lat="49.64886" lon="-1.55364">
        <ele>52.261019</ele>
        <time>2022-07-30T09:26:31.000Z</time>
      </trkpt>
      <trkpt lat="49.64884" lon="-1.55363">
        <ele>52.542194</ele>
        <time>2022-07-30T09:26:32.000Z</time>
      </trkpt>
      <trkpt lat="49.64882" lon="-1.55363">
        <ele>52.850841</ele>
        <time>2022-07-30T09:26:33.000Z</time>
      </trkpt>
      <trkpt lat="49.64879" lon="-1.55363">
        <ele>53.159621</ele>
        <time>2022-07-30T09:26:34.000Z</time>
      </trkpt>
      <trkpt lat="49.64877" lon="-1.55363">
        <ele>53.527202</ele>
        <time>2022-07-30T09:26:35.000Z</time>
      </trkpt>
      <trkpt lat="49.64875" lon="-1.55362">
        <ele>53.796226</ele>
        <time>2022-07-30T09:26:36.000Z</time>
      </trkpt>
      <trkpt lat="49.64873" lon="-1.55362">
        <ele>54.120051</ele>
        <time>2022-07-30T09:26:37.000Z</time>
      </trkpt>
      <trkpt lat="49.6487" lon="-1.55362">
        <ele>54.428697</ele>
        <time>2022-07-30T09:26:38.000Z</time>
      </trkpt>
      <trkpt lat="49.64868" lon="-1.55362">
        <ele>54.737344</ele>
        <time>2022-07-30T09:26:39.000Z</time>
      </trkpt>
      <trkpt lat="49.64866" lon="-1.55362">
        <ele>55.018519</ele>
        <time>2022-07-30T09:26:40.000Z</time>
      </trkpt>
      <trkpt lat="49.64864" lon="-1.55362">
        <ele>55.328367</ele>
        <time>2022-07-30T09:26:41.000Z</time>
      </trkpt>
      <trkpt lat="49.64862" lon="-1.55361">
        <ele>55.596315</ele>
        <time>2022-07-30T09:26:42.000Z</time>
      </trkpt>
      <trkpt lat="49.6486" lon="-1.55361">
        <ele>55.866715</ele>
        <time>2022-07-30T09:26:43.000Z</time>
      </trkpt>
      <trkpt lat="49.64858" lon="-1.5536">
        <ele>56.150955</ele>
        <time>2022-07-30T09:26:44.000Z</time>
      </trkpt>
      <trkpt lat="49.64856" lon="-1.5536">
        <ele>56.461733</ele>
        <time>2022-07-30T09:26:45.000Z</time>
      </trkpt>
      <trkpt lat="49.64854" lon="-1.5536">
        <ele>56.77038</ele>
        <time>2022-07-30T09:26:46.000Z</time>
      </trkpt>
      <trkpt lat="49.64852" lon="-1.5536">
        <ele>57.093184</ele>
        <time>2022-07-30T09:26:47.000Z</time>
      </trkpt>
      <trkpt lat="49.64849" lon="-1.55359">
        <ele>57.445796</ele>
        <time>2022-07-30T09:26:48.000Z</time>
      </trkpt>
      <trkpt lat="49.64846" lon="-1.55359">
        <ele>57.813377</ele>
        <time>2022-07-30T09:26:49.000Z</time>
      </trkpt>
      <trkpt lat="49.64845" lon="-1.55358">
        <ele>58.089664</ele>
        <time>2022-07-30T09:26:50.000Z</time>
      </trkpt>
      <trkpt lat="49.64842" lon="-1.55357">
        <ele>58.420421</ele>
        <time>2022-07-30T09:26:51.000Z</time>
      </trkpt>
      <trkpt lat="49.6484" lon="-1.55356">
        <ele>58.702033</ele>
        <time>2022-07-30T09:26:52.000Z</time>
      </trkpt>
      <trkpt lat="49.64837" lon="-1.55354">
        <ele>59.22251</ele>
        <time>2022-07-30T09:26:54.000Z</time>
      </trkpt>
      <trkpt lat="49.64834" lon="-1.55354">
        <ele>59.674747</ele>
        <time>2022-07-30T09:26:56.000Z</time>
      </trkpt>
      <trkpt lat="49.64832" lon="-1.55354">
        <ele>59.941924</ele>
        <time>2022-07-30T09:26:57.000Z</time>
      </trkpt>
      <trkpt lat="49.6483" lon="-1.55353">
        <ele>60.212324</ele>
        <time>2022-07-30T09:26:58.000Z</time>
      </trkpt>
      <trkpt lat="49.64828" lon="-1.55352">
        <ele>60.500027</ele>
        <time>2022-07-30T09:26:59.000Z</time>
      </trkpt>
      <trkpt lat="49.64826" lon="-1.55352">
        <ele>60.7721</ele>
        <time>2022-07-30T09:27:00.000Z</time>
      </trkpt>
      <trkpt lat="49.64824" lon="-1.55351">
        <ele>61.046138</ele>
        <time>2022-07-30T09:27:01.000Z</time>
      </trkpt>
      <trkpt lat="49.64822" lon="-1.5535">
        <ele>61.363224</ele>
        <time>2022-07-30T09:27:02.000Z</time>
      </trkpt>
      <trkpt lat="49.6482" lon="-1.5535">
        <ele>61.650927</ele>
        <time>2022-07-30T09:27:03.000Z</time>
      </trkpt>
      <trkpt lat="49.64817" lon="-1.55349">
        <ele>62.007379</ele>
        <time>2022-07-30T09:27:04.000Z</time>
      </trkpt>
      <trkpt lat="49.64813" lon="-1.55348">
        <ele>62.60833</ele>
        <time>2022-07-30T09:27:06.000Z</time>
      </trkpt>
      <trkpt lat="49.64811" lon="-1.55347">
        <ele>62.882368</ele>
        <time>2022-07-30T09:27:07.000Z</time>
      </trkpt>
      <trkpt lat="49.64809" lon="-1.55346">
        <ele>63.154442</ele>
        <time>2022-07-30T09:27:08.000Z</time>
      </trkpt>
      <trkpt lat="49.64807" lon="-1.55346">
        <ele>63.423465</ele>
        <time>2022-07-30T09:27:09.000Z</time>
      </trkpt>
      <trkpt lat="49.64805" lon="-1.55346">
        <ele>63.74729</ele>
        <time>2022-07-30T09:27:10.000Z</time>
      </trkpt>
      <trkpt lat="49.64803" lon="-1.55345">
        <ele>64.059261</ele>
        <time>2022-07-30T09:27:11.000Z</time>
      </trkpt>
      <trkpt lat="49.64801" lon="-1.55344">
        <ele>64.333299</ele>
        <time>2022-07-30T09:27:12.000Z</time>
      </trkpt>
      <trkpt lat="49.64799" lon="-1.55343">
        <ele>64.668517</ele>
        <time>2022-07-30T09:27:13.000Z</time>
      </trkpt>
      <trkpt lat="49.64797" lon="-1.55342">
        <ele>64.953188</ele>
        <time>2022-07-30T09:27:14.000Z</time>
      </trkpt>
      <trkpt lat="49.64795" lon="-1.55341">
        <ele>65.274925</ele>
        <time>2022-07-30T09:27:15.000Z</time>
      </trkpt>
      <trkpt lat="49.64793" lon="-1.5534">
        <ele>65.575943</ele>
        <time>2022-07-30T09:27:16.000Z</time>
      </trkpt>
      <trkpt lat="49.6479" lon="-1.55339">
        <ele>65.897679</ele>
        <time>2022-07-30T09:27:17.000Z</time>
      </trkpt>
      <trkpt lat="49.64789" lon="-1.55338">
        <ele>66.173966</ele>
        <time>2022-07-30T09:27:18.000Z</time>
      </trkpt>
      <trkpt lat="49.64787" lon="-1.55338">
        <ele>66.444366</ele>
        <time>2022-07-30T09:27:19.000Z</time>
      </trkpt>
      <trkpt lat="49.64783" lon="-1.55336">
        <ele>67.018089</ele>
        <time>2022-07-30T09:27:21.000Z</time>
      </trkpt>
      <trkpt lat="49.64781" lon="-1.55335">
        <ele>67.290162</ele>
        <time>2022-07-30T09:27:22.000Z</time>
      </trkpt>
      <trkpt lat="49.64779" lon="-1.55334">
        <ele>67.568976</ele>
        <time>2022-07-30T09:27:23.000Z</time>
      </trkpt>
      <trkpt lat="49.64777" lon="-1.55333">
        <ele>67.850588</ele>
        <time>2022-07-30T09:27:24.000Z</time>
      </trkpt>
      <trkpt lat="49.64773" lon="-1.55332">
        <ele>68.376143</ele>
        <time>2022-07-30T09:27:26.000Z</time>
      </trkpt>
      <trkpt lat="49.64771" lon="-1.55331">
        <ele>68.691271</ele>
        <time>2022-07-30T09:27:27.000Z</time>
      </trkpt>
      <trkpt lat="49.64769" lon="-1.5533">
        <ele>68.965309</ele>
        <time>2022-07-30T09:27:28.000Z</time>
      </trkpt>
      <trkpt lat="49.64767" lon="-1.5533">
        <ele>69.292556</ele>
        <time>2022-07-30T09:27:29.000Z</time>
      </trkpt>
      <trkpt lat="49.64765" lon="-1.55329">
        <ele>69.607685</ele>
        <time>2022-07-30T09:27:30.000Z</time>
      </trkpt>
      <trkpt lat="49.64763" lon="-1.55328">
        <ele>69.881723</ele>
        <time>2022-07-30T09:27:31.000Z</time>
      </trkpt>
      <trkpt lat="49.64759" lon="-1.55326">
        <ele>70.405283</ele>
        <time>2022-07-30T09:27:33.000Z</time>
      </trkpt>
      <trkpt lat="49.64757" lon="-1.55326">
        <ele>70.695129</ele>
        <time>2022-07-30T09:27:34.000Z</time>
      </trkpt>
      <trkpt lat="49.64755" lon="-1.55325">
        <ele>71.016866</ele>
        <time>2022-07-30T09:27:35.000Z</time>
      </trkpt>
      <trkpt lat="49.64753" lon="-1.55324">
        <ele>71.293153</ele>
        <time>2022-07-30T09:27:36.000Z</time>
      </trkpt>
      <trkpt lat="49.6475" lon="-1.55322">
        <ele>71.813631</ele>
        <time>2022-07-30T09:27:38.000Z</time>
      </trkpt>
      <trkpt lat="49.64746" lon="-1.5532">
        <ele>72.432976</ele>
        <time>2022-07-30T09:27:40.000Z</time>
      </trkpt>
      <trkpt lat="49.64743" lon="-1.55319">
        <ele>72.760306</ele>
        <time>2022-07-30T09:27:41.000Z</time>
      </trkpt>
      <trkpt lat="49.64741" lon="-1.55318">
        <ele>73.050152</ele>
        <time>2022-07-30T09:27:42.000Z</time>
      </trkpt>
      <trkpt lat="49.64739" lon="-1.55317">
        <ele>73.41246</ele>
        <time>2022-07-30T09:27:43.000Z</time>
      </trkpt>
      <trkpt lat="49.64737" lon="-1.55316">
        <ele>73.694071</ele>
        <time>2022-07-30T09:27:44.000Z</time>
      </trkpt>
      <trkpt lat="49.64735" lon="-1.55315">
        <ele>74.034663</ele>
        <time>2022-07-30T09:27:45.000Z</time>
      </trkpt>
      <trkpt lat="49.64731" lon="-1.55312">
        <ele>74.504408</ele>
        <time>2022-07-30T09:27:47.000Z</time>
      </trkpt>
      <trkpt lat="49.64729" lon="-1.55311">
        <ele>74.70866</ele>
        <time>2022-07-30T09:27:48.000Z</time>
      </trkpt>
      <trkpt lat="49.64727" lon="-1.55311">
        <ele>74.915087</ele>
        <time>2022-07-30T09:27:49.000Z</time>
      </trkpt>
      <trkpt lat="49.64725" lon="-1.5531">
        <ele>75.141191</ele>
        <time>2022-07-30T09:27:50.000Z</time>
      </trkpt>
      <trkpt lat="49.64723" lon="-1.55309">
        <ele>75.366071</ele>
        <time>2022-07-30T09:27:51.000Z</time>
      </trkpt>
      <trkpt lat="49.6472" lon="-1.55308">
        <ele>75.663823</ele>
        <time>2022-07-30T09:27:52.000Z</time>
      </trkpt>
      <trkpt lat="49.64717" lon="-1.55308">
        <ele>75.901142</ele>
        <time>2022-07-30T09:27:53.000Z</time>
      </trkpt>
      <trkpt lat="49.64716" lon="-1.55306">
        <ele>76.107772</ele>
        <time>2022-07-30T09:27:54.000Z</time>
      </trkpt>
      <trkpt lat="49.64713" lon="-1.55306">
        <ele>76.335281</ele>
        <time>2022-07-30T09:27:55.000Z</time>
      </trkpt>
      <trkpt lat="49.64711" lon="-1.55305">
        <ele>76.571254</ele>
        <time>2022-07-30T09:27:56.000Z</time>
      </trkpt>
      <trkpt lat="49.64709" lon="-1.55304">
        <ele>76.796134</ele>
        <time>2022-07-30T09:27:57.000Z</time>
      </trkpt>
      <trkpt lat="49.64707" lon="-1.55304">
        <ele>76.990146</ele>
        <time>2022-07-30T09:27:58.000Z</time>
      </trkpt>
      <trkpt lat="49.64705" lon="-1.55303">
        <ele>77.223949</ele>
        <time>2022-07-30T09:27:59.000Z</time>
      </trkpt>
      <trkpt lat="49.64702" lon="-1.55302">
        <ele>77.482347</ele>
        <time>2022-07-30T09:28:00.000Z</time>
      </trkpt>
      <trkpt lat="49.647" lon="-1.55302">
        <ele>77.67756</ele>
        <time>2022-07-30T09:28:01.000Z</time>
      </trkpt>
      <trkpt lat="49.64698" lon="-1.55301">
        <ele>77.913532</ele>
        <time>2022-07-30T09:28:02.000Z</time>
      </trkpt>
      <trkpt lat="49.64696" lon="-1.553">
        <ele>78.110154</ele>
        <time>2022-07-30T09:28:03.000Z</time>
      </trkpt>
      <trkpt lat="49.64694" lon="-1.553">
        <ele>78.337664</ele>
        <time>2022-07-30T09:28:04.000Z</time>
      </trkpt>
      <trkpt lat="49.64692" lon="-1.55299">
        <ele>78.54409</ele>
        <time>2022-07-30T09:28:05.000Z</time>
      </trkpt>
      <trkpt lat="49.6469" lon="-1.55298">
        <ele>78.767929</ele>
        <time>2022-07-30T09:28:06.000Z</time>
      </trkpt>
      <trkpt lat="49.64687" lon="-1.55298">
        <ele>78.99281</ele>
        <time>2022-07-30T09:28:07.000Z</time>
      </trkpt>
      <trkpt lat="49.64685" lon="-1.55297">
        <ele>79.228782</ele>
        <time>2022-07-30T09:28:08.000Z</time>
      </trkpt>
      <trkpt lat="49.64683" lon="-1.55296">
        <ele>79.456292</ele>
        <time>2022-07-30T09:28:09.000Z</time>
      </trkpt>
      <trkpt lat="49.64681" lon="-1.55296">
        <ele>79.692264</ele>
        <time>2022-07-30T09:28:10.000Z</time>
      </trkpt>
      <trkpt lat="49.64678" lon="-1.55295">
        <ele>79.946018</ele>
        <time>2022-07-30T09:28:11.000Z</time>
      </trkpt>
      <trkpt lat="49.64676" lon="-1.55294">
        <ele>80.14264</ele>
        <time>2022-07-30T09:28:12.000Z</time>
      </trkpt>
      <trkpt lat="49.64674" lon="-1.55293">
        <ele>80.383159</ele>
        <time>2022-07-30T09:28:13.000Z</time>
      </trkpt>
      <trkpt lat="49.64672" lon="-1.55293">
        <ele>80.610669</ele>
        <time>2022-07-30T09:28:14.000Z</time>
      </trkpt>
      <trkpt lat="49.64669" lon="-1.55292">
        <ele>80.847988</ele>
        <time>2022-07-30T09:28:15.000Z</time>
      </trkpt>
      <trkpt lat="49.64668" lon="-1.55291">
        <ele>81.048037</ele>
        <time>2022-07-30T09:28:16.000Z</time>
      </trkpt>
      <trkpt lat="49.64665" lon="-1.5529">
        <ele>81.272917</ele>
        <time>2022-07-30T09:28:17.000Z</time>
      </trkpt>
      <trkpt lat="49.64663" lon="-1.5529">
        <ele>81.50889</ele>
        <time>2022-07-30T09:28:18.000Z</time>
      </trkpt>
      <trkpt lat="49.64661" lon="-1.55289">
        <ele>81.734995</ele>
        <time>2022-07-30T09:28:19.000Z</time>
      </trkpt>
      <trkpt lat="49.64657" lon="-1.55288">
        <ele>82.126778</ele>
        <time>2022-07-30T09:28:21.000Z</time>
      </trkpt>
      <trkpt lat="49.64653" lon="-1.55286">
        <ele>82.505718</ele>
        <time>2022-07-30T09:28:23.000Z</time>
      </trkpt>
      <trkpt lat="49.64652" lon="-1.55285">
        <ele>82.70997</ele>
        <time>2022-07-30T09:28:24.000Z</time>
      </trkpt>
      <trkpt lat="49.6465" lon="-1.55284">
        <ele>82.912027</ele>
        <time>2022-07-30T09:28:25.000Z</time>
      </trkpt>
      <trkpt lat="49.64648" lon="-1.55283">
        <ele>83.114084</ele>
        <time>2022-07-30T09:28:26.000Z</time>
      </trkpt>
      <trkpt lat="49.64646" lon="-1.55282">
        <ele>83.31614</ele>
        <time>2022-07-30T09:28:27.000Z</time>
      </trkpt>
      <trkpt lat="49.64644" lon="-1.55281">
        <ele>83.552113</ele>
        <time>2022-07-30T09:28:28.000Z</time>
      </trkpt>
      <trkpt lat="49.64642" lon="-1.55281">
        <ele>83.746125</ele>
        <time>2022-07-30T09:28:29.000Z</time>
      </trkpt>
      <trkpt lat="49.6464" lon="-1.5528">
        <ele>83.944361</ele>
        <time>2022-07-30T09:28:30.000Z</time>
      </trkpt>
      <trkpt lat="49.64638" lon="-1.55279">
        <ele>84.144411</ele>
        <time>2022-07-30T09:28:31.000Z</time>
      </trkpt>
      <trkpt lat="49.64636" lon="-1.55278">
        <ele>84.37921</ele>
        <time>2022-07-30T09:28:32.000Z</time>
      </trkpt>
      <trkpt lat="49.64634" lon="-1.55277">
        <ele>84.579259</ele>
        <time>2022-07-30T09:28:33.000Z</time>
      </trkpt>
      <trkpt lat="49.64632" lon="-1.55277">
        <ele>84.777496</ele>
        <time>2022-07-30T09:28:34.000Z</time>
      </trkpt>
      <trkpt lat="49.64629" lon="-1.55276">
        <ele>85.018015</ele>
        <time>2022-07-30T09:28:35.000Z</time>
      </trkpt>
      <trkpt lat="49.64628" lon="-1.55275">
        <ele>85.220072</ele>
        <time>2022-07-30T09:28:36.000Z</time>
      </trkpt>
      <trkpt lat="49.64626" lon="-1.55273">
        <ele>85.429256</ele>
        <time>2022-07-30T09:28:37.000Z</time>
      </trkpt>
      <trkpt lat="49.64623" lon="-1.55272">
        <ele>85.668773</ele>
        <time>2022-07-30T09:28:38.000Z</time>
      </trkpt>
      <trkpt lat="49.64621" lon="-1.55271">
        <ele>85.88248</ele>
        <time>2022-07-30T09:28:39.000Z</time>
      </trkpt>
      <trkpt lat="49.64619" lon="-1.55269">
        <ele>86.121997</ele>
        <time>2022-07-30T09:28:40.000Z</time>
      </trkpt>
      <trkpt lat="49.64617" lon="-1.55269">
        <ele>86.388859</ele>
        <time>2022-07-30T09:28:41.000Z</time>
      </trkpt>
      <trkpt lat="49.64614" lon="-1.55267">
        <ele>86.623719</ele>
        <time>2022-07-30T09:28:42.000Z</time>
      </trkpt>
      <trkpt lat="49.64612" lon="-1.55266">
        <ele>86.854566</ele>
        <time>2022-07-30T09:28:43.000Z</time>
      </trkpt>
      <trkpt lat="49.64608" lon="-1.55264">
        <ele>87.274792</ele>
        <time>2022-07-30T09:28:45.000Z</time>
      </trkpt>
      <trkpt lat="49.64606" lon="-1.55263">
        <ele>87.476849</ele>
        <time>2022-07-30T09:28:46.000Z</time>
      </trkpt>
      <trkpt lat="49.64604" lon="-1.55262">
        <ele>87.713959</ele>
        <time>2022-07-30T09:28:47.000Z</time>
      </trkpt>
      <trkpt lat="49.64602" lon="-1.55261">
        <ele>87.925569</ele>
        <time>2022-07-30T09:28:48.000Z</time>
      </trkpt>
      <trkpt lat="49.646" lon="-1.55259">
        <ele>88.165086</ele>
        <time>2022-07-30T09:28:49.000Z</time>
      </trkpt>
      <trkpt lat="49.64598" lon="-1.55258">
        <ele>88.369338</ele>
        <time>2022-07-30T09:28:50.000Z</time>
      </trkpt>
      <trkpt lat="49.64596" lon="-1.55257">
        <ele>88.618192</ele>
        <time>2022-07-30T09:28:51.000Z</time>
      </trkpt>
      <trkpt lat="49.64594" lon="-1.55255">
        <ele>88.832988</ele>
        <time>2022-07-30T09:28:52.000Z</time>
      </trkpt>
      <trkpt lat="49.64592" lon="-1.55254">
        <ele>89.077768</ele>
        <time>2022-07-30T09:28:53.000Z</time>
      </trkpt>
      <trkpt lat="49.6459" lon="-1.55252">
        <ele>89.289677</ele>
        <time>2022-07-30T09:28:54.000Z</time>
      </trkpt>
      <trkpt lat="49.64588" lon="-1.55251">
        <ele>89.536215</ele>
        <time>2022-07-30T09:28:55.000Z</time>
      </trkpt>
      <trkpt lat="49.64586" lon="-1.5525">
        <ele>89.751011</ele>
        <time>2022-07-30T09:28:56.000Z</time>
      </trkpt>
      <trkpt lat="49.64583" lon="-1.55248">
        <ele>89.988122</ele>
        <time>2022-07-30T09:28:57.000Z</time>
      </trkpt>
      <trkpt lat="49.64581" lon="-1.55247">
        <ele>90.211928</ele>
        <time>2022-07-30T09:28:58.000Z</time>
      </trkpt>
      <trkpt lat="49.6458" lon="-1.55245">
        <ele>90.432962</ele>
        <time>2022-07-30T09:28:59.000Z</time>
      </trkpt>
      <trkpt lat="49.64578" lon="-1.55243">
        <ele>90.657335</ele>
        <time>2022-07-30T09:29:00.000Z</time>
      </trkpt>
      <trkpt lat="49.64575" lon="-1.55242">
        <ele>90.934505</ele>
        <time>2022-07-30T09:29:01.000Z</time>
      </trkpt>
      <trkpt lat="49.64572" lon="-1.5524">
        <ele>91.312472</ele>
        <time>2022-07-30T09:29:03.000Z</time>
      </trkpt>
      <trkpt lat="49.6457" lon="-1.55238">
        <ele>91.524381</ele>
        <time>2022-07-30T09:29:04.000Z</time>
      </trkpt>
      <trkpt lat="49.64567" lon="-1.55237">
        <ele>91.806112</ele>
        <time>2022-07-30T09:29:05.000Z</time>
      </trkpt>
      <trkpt lat="49.64565" lon="-1.55235">
        <ele>92.048187</ele>
        <time>2022-07-30T09:29:06.000Z</time>
      </trkpt>
      <trkpt lat="49.64563" lon="-1.55234">
        <ele>92.295815</ele>
        <time>2022-07-30T09:29:07.000Z</time>
      </trkpt>
      <trkpt lat="49.6456" lon="-1.55232">
        <ele>92.429256</ele>
        <time>2022-07-30T09:29:08.000Z</time>
      </trkpt>
      <trkpt lat="49.64558" lon="-1.5523">
        <ele>92.512378</ele>
        <time>2022-07-30T09:29:09.000Z</time>
      </trkpt>
      <trkpt lat="49.64557" lon="-1.55228">
        <ele>92.594264</ele>
        <time>2022-07-30T09:29:10.000Z</time>
      </trkpt>
      <trkpt lat="49.64554" lon="-1.55227">
        <ele>92.687368</ele>
        <time>2022-07-30T09:29:11.000Z</time>
      </trkpt>
      <trkpt lat="49.64552" lon="-1.55225">
        <ele>92.766942</ele>
        <time>2022-07-30T09:29:12.000Z</time>
      </trkpt>
      <trkpt lat="49.6455" lon="-1.55224">
        <ele>92.859785</ele>
        <time>2022-07-30T09:29:13.000Z</time>
      </trkpt>
      <trkpt lat="49.64548" lon="-1.55222">
        <ele>92.941671</ele>
        <time>2022-07-30T09:29:14.000Z</time>
      </trkpt>
      <trkpt lat="49.64546" lon="-1.5522">
        <ele>93.035741</ele>
        <time>2022-07-30T09:29:15.000Z</time>
      </trkpt>
      <trkpt lat="49.64544" lon="-1.55218">
        <ele>93.129738</ele>
        <time>2022-07-30T09:29:16.000Z</time>
      </trkpt>
      <trkpt lat="49.64541" lon="-1.55217">
        <ele>93.23411</ele>
        <time>2022-07-30T09:29:17.000Z</time>
      </trkpt>
      <trkpt lat="49.64539" lon="-1.55215">
        <ele>93.313684</ele>
        <time>2022-07-30T09:29:18.000Z</time>
      </trkpt>
      <trkpt lat="49.64537" lon="-1.55214">
        <ele>93.390234</ele>
        <time>2022-07-30T09:29:19.000Z</time>
      </trkpt>
      <trkpt lat="49.64535" lon="-1.55212">
        <ele>93.488665</ele>
        <time>2022-07-30T09:29:20.000Z</time>
      </trkpt>
      <trkpt lat="49.64533" lon="-1.55211">
        <ele>93.56824</ele>
        <time>2022-07-30T09:29:21.000Z</time>
      </trkpt>
      <trkpt lat="49.64531" lon="-1.55209">
        <ele>93.645736</ele>
        <time>2022-07-30T09:29:22.000Z</time>
      </trkpt>
      <trkpt lat="49.64529" lon="-1.55208">
        <ele>93.735416</ele>
        <time>2022-07-30T09:29:23.000Z</time>
      </trkpt>
      <trkpt lat="49.64527" lon="-1.55206">
        <ele>93.827608</ele>
        <time>2022-07-30T09:29:24.000Z</time>
      </trkpt>
      <trkpt lat="49.64525" lon="-1.55205">
        <ele>93.907182</ele>
        <time>2022-07-30T09:29:25.000Z</time>
      </trkpt>
      <trkpt lat="49.64523" lon="-1.55203">
        <ele>93.997865</ele>
        <time>2022-07-30T09:29:26.000Z</time>
      </trkpt>
      <trkpt lat="49.6452" lon="-1.55202">
        <ele>94.092952</ele>
        <time>2022-07-30T09:29:27.000Z</time>
      </trkpt>
      <trkpt lat="49.64518" lon="-1.552">
        <ele>94.188152</ele>
        <time>2022-07-30T09:29:28.000Z</time>
      </trkpt>
      <trkpt lat="49.64516" lon="-1.55198">
        <ele>94.284306</ele>
        <time>2022-07-30T09:29:29.000Z</time>
      </trkpt>
      <trkpt lat="49.64513" lon="-1.55196">
        <ele>94.384323</ele>
        <time>2022-07-30T09:29:30.000Z</time>
      </trkpt>
      <trkpt lat="49.64511" lon="-1.55194">
        <ele>94.492642</ele>
        <time>2022-07-30T09:29:31.000Z</time>
      </trkpt>
      <trkpt lat="49.64508" lon="-1.55192">
        <ele>94.62049</ele>
        <time>2022-07-30T09:29:32.000Z</time>
      </trkpt>
      <trkpt lat="49.64506" lon="-1.55191">
        <ele>94.690289</ele>
        <time>2022-07-30T09:29:33.000Z</time>
      </trkpt>
      <trkpt lat="49.64503" lon="-1.55189">
        <ele>94.804338</ele>
        <time>2022-07-30T09:29:34.000Z</time>
      </trkpt>
      <trkpt lat="49.645" lon="-1.55187">
        <ele>94.922605</ele>
        <time>2022-07-30T09:29:35.000Z</time>
      </trkpt>
      <trkpt lat="49.64498" lon="-1.55186">
        <ele>95.005518</ele>
        <time>2022-07-30T09:29:36.000Z</time>
      </trkpt>
      <trkpt lat="49.64496" lon="-1.55184">
        <ele>95.100718</ele>
        <time>2022-07-30T09:29:37.000Z</time>
      </trkpt>
      <trkpt lat="49.64493" lon="-1.55181">
        <ele>95.244522</ele>
        <time>2022-07-30T09:29:38.000Z</time>
      </trkpt>
      <trkpt lat="49.64489" lon="-1.55179">
        <ele>95.376145</ele>
        <time>2022-07-30T09:29:39.000Z</time>
      </trkpt>
      <trkpt lat="49.64487" lon="-1.55177">
        <ele>95.486702</ele>
        <time>2022-07-30T09:29:40.000Z</time>
      </trkpt>
      <trkpt lat="49.64484" lon="-1.55175">
        <ele>95.615436</ele>
        <time>2022-07-30T09:29:41.000Z</time>
      </trkpt>
      <trkpt lat="49.64482" lon="-1.55173">
        <ele>95.697322</ele>
        <time>2022-07-30T09:29:42.000Z</time>
      </trkpt>
      <trkpt lat="49.64479" lon="-1.55171">
        <ele>95.818894</ele>
        <time>2022-07-30T09:29:43.000Z</time>
      </trkpt>
      <trkpt lat="49.64476" lon="-1.55168">
        <ele>95.956049</ele>
        <time>2022-07-30T09:29:44.000Z</time>
      </trkpt>
      <trkpt lat="49.64473" lon="-1.55165">
        <ele>96.079902</ele>
        <time>2022-07-30T09:29:45.000Z</time>
      </trkpt>
      <trkpt lat="49.6447" lon="-1.55163">
        <ele>96.199322</ele>
        <time>2022-07-30T09:29:46.000Z</time>
      </trkpt>
      <trkpt lat="49.64467" lon="-1.55161">
        <ele>96.318765</ele>
        <time>2022-07-30T09:29:47.000Z</time>
      </trkpt>
      <trkpt lat="49.64464" lon="-1.55159">
        <ele>96.429322</ele>
        <time>2022-07-30T09:29:48.000Z</time>
      </trkpt>
      <trkpt lat="49.64461" lon="-1.55157">
        <ele>96.54776</ele>
        <time>2022-07-30T09:29:49.000Z</time>
      </trkpt>
      <trkpt lat="49.64459" lon="-1.55155">
        <ele>96.637441</ele>
        <time>2022-07-30T09:29:50.000Z</time>
      </trkpt>
      <trkpt lat="49.64456" lon="-1.55153">
        <ele>96.759013</ele>
        <time>2022-07-30T09:29:51.000Z</time>
      </trkpt>
      <trkpt lat="49.64453" lon="-1.55151">
        <ele>96.879502</ele>
        <time>2022-07-30T09:29:52.000Z</time>
      </trkpt>
      <trkpt lat="49.6445" lon="-1.55148">
        <ele>97.038651</ele>
        <time>2022-07-30T09:29:53.000Z</time>
      </trkpt>
      <trkpt lat="49.64447" lon="-1.55145">
        <ele>97.150389</ele>
        <time>2022-07-30T09:29:54.000Z</time>
      </trkpt>
      <trkpt lat="49.64445" lon="-1.55143">
        <ele>97.236136</ele>
        <time>2022-07-30T09:29:55.000Z</time>
      </trkpt>
      <trkpt lat="49.64442" lon="-1.55141">
        <ele>97.382033</ele>
        <time>2022-07-30T09:29:56.000Z</time>
      </trkpt>
      <trkpt lat="49.64439" lon="-1.55138">
        <ele>97.49259</ele>
        <time>2022-07-30T09:29:57.000Z</time>
      </trkpt>
      <trkpt lat="49.64436" lon="-1.55136">
        <ele>97.62225</ele>
        <time>2022-07-30T09:29:58.000Z</time>
      </trkpt>
      <trkpt lat="49.64433" lon="-1.55134">
        <ele>97.742861</ele>
        <time>2022-07-30T09:29:59.000Z</time>
      </trkpt>
      <trkpt lat="49.6443" lon="-1.55131">
        <ele>97.875521</ele>
        <time>2022-07-30T09:30:00.000Z</time>
      </trkpt>
      <trkpt lat="49.64427" lon="-1.55129">
        <ele>98.000569</ele>
        <time>2022-07-30T09:30:01.000Z</time>
      </trkpt>
      <trkpt lat="49.64423" lon="-1.55126">
        <ele>98.148688</ele>
        <time>2022-07-30T09:30:02.000Z</time>
      </trkpt>
      <trkpt lat="49.6442" lon="-1.55123">
        <ele>98.285843</ele>
        <time>2022-07-30T09:30:03.000Z</time>
      </trkpt>
      <trkpt lat="49.64417" lon="-1.5512">
        <ele>98.428009</ele>
        <time>2022-07-30T09:30:04.000Z</time>
      </trkpt>
      <trkpt lat="49.64414" lon="-1.55117">
        <ele>98.562849</ele>
        <time>2022-07-30T09:30:05.000Z</time>
      </trkpt>
      <trkpt lat="49.64411" lon="-1.55115">
        <ele>98.69883</ele>
        <time>2022-07-30T09:30:06.000Z</time>
      </trkpt>
      <trkpt lat="49.64407" lon="-1.55112">
        <ele>98.835986</ele>
        <time>2022-07-30T09:30:07.000Z</time>
      </trkpt>
      <trkpt lat="49.64404" lon="-1.55109">
        <ele>98.997403</ele>
        <time>2022-07-30T09:30:08.000Z</time>
      </trkpt>
      <trkpt lat="49.64401" lon="-1.55107">
        <ele>99.073399</ele>
        <time>2022-07-30T09:30:09.000Z</time>
      </trkpt>
      <trkpt lat="49.64396" lon="-1.55103">
        <ele>99.105218</ele>
        <time>2022-07-30T09:30:10.000Z</time>
      </trkpt>
      <trkpt lat="49.64393" lon="-1.551">
        <ele>99.128845</ele>
        <time>2022-07-30T09:30:11.000Z</time>
      </trkpt>
      <trkpt lat="49.64389" lon="-1.55096">
        <ele>99.157112</ele>
        <time>2022-07-30T09:30:12.000Z</time>
      </trkpt>
      <trkpt lat="49.64385" lon="-1.55093">
        <ele>99.184049</ele>
        <time>2022-07-30T09:30:13.000Z</time>
      </trkpt>
      <trkpt lat="49.64381" lon="-1.5509">
        <ele>99.211734</ele>
        <time>2022-07-30T09:30:14.000Z</time>
      </trkpt>
      <trkpt lat="49.64378" lon="-1.55088">
        <ele>99.234369</ele>
        <time>2022-07-30T09:30:15.000Z</time>
      </trkpt>
      <trkpt lat="49.64373" lon="-1.55084">
        <ele>99.268229</ele>
        <time>2022-07-30T09:30:16.000Z</time>
      </trkpt>
      <trkpt lat="49.6437" lon="-1.55082">
        <ele>99.290864</ele>
        <time>2022-07-30T09:30:17.000Z</time>
      </trkpt>
      <trkpt lat="49.64366" lon="-1.55079">
        <ele>99.317439</ele>
        <time>2022-07-30T09:30:18.000Z</time>
      </trkpt>
      <trkpt lat="49.64362" lon="-1.55075">
        <ele>99.347958</ele>
        <time>2022-07-30T09:30:19.000Z</time>
      </trkpt>
      <trkpt lat="49.64358" lon="-1.55072">
        <ele>99.374894</ele>
        <time>2022-07-30T09:30:20.000Z</time>
      </trkpt>
      <trkpt lat="49.64355" lon="-1.55069">
        <ele>99.398522</ele>
        <time>2022-07-30T09:30:21.000Z</time>
      </trkpt>
      <trkpt lat="49.64352" lon="-1.55066">
        <ele>99.423788</ele>
        <time>2022-07-30T09:30:22.000Z</time>
      </trkpt>
      <trkpt lat="49.64348" lon="-1.55063">
        <ele>99.448481</ele>
        <time>2022-07-30T09:30:23.000Z</time>
      </trkpt>
      <trkpt lat="49.64345" lon="-1.55061">
        <ele>99.469444</ele>
        <time>2022-07-30T09:30:24.000Z</time>
      </trkpt>
      <trkpt lat="49.64342" lon="-1.55058">
        <ele>99.493783</ele>
        <time>2022-07-30T09:30:25.000Z</time>
      </trkpt>
      <trkpt lat="49.64339" lon="-1.55056">
        <ele>99.516061</ele>
        <time>2022-07-30T09:30:26.000Z</time>
      </trkpt>
      <trkpt lat="49.64335" lon="-1.55053">
        <ele>99.539076</ele>
        <time>2022-07-30T09:30:27.000Z</time>
      </trkpt>
      <trkpt lat="49.64332" lon="-1.55051">
        <ele>99.561899</ele>
        <time>2022-07-30T09:30:28.000Z</time>
      </trkpt>
      <trkpt lat="49.64329" lon="-1.55048">
        <ele>99.582861</ele>
        <time>2022-07-30T09:30:29.000Z</time>
      </trkpt>
      <trkpt lat="49.64326" lon="-1.55046">
        <ele>99.603628</ele>
        <time>2022-07-30T09:30:30.000Z</time>
      </trkpt>
      <trkpt lat="49.64324" lon="-1.55044">
        <ele>99.622147</ele>
        <time>2022-07-30T09:30:31.000Z</time>
      </trkpt>
      <trkpt lat="49.64321" lon="-1.55041">
        <ele>99.640727</ele>
        <time>2022-07-30T09:30:32.000Z</time>
      </trkpt>
      <trkpt lat="49.64318" lon="-1.55039">
        <ele>99.661303</ele>
        <time>2022-07-30T09:30:33.000Z</time>
      </trkpt>
      <trkpt lat="49.64316" lon="-1.55037">
        <ele>99.68188</ele>
        <time>2022-07-30T09:30:34.000Z</time>
      </trkpt>
      <trkpt lat="49.64313" lon="-1.55034">
        <ele>99.703253</ele>
        <time>2022-07-30T09:30:35.000Z</time>
      </trkpt>
      <trkpt lat="49.6431" lon="-1.55032">
        <ele>99.722052</ele>
        <time>2022-07-30T09:30:36.000Z</time>
      </trkpt>
      <trkpt lat="49.64308" lon="-1.55029">
        <ele>99.740964</ele>
        <time>2022-07-30T09:30:37.000Z</time>
      </trkpt>
      <trkpt lat="49.64305" lon="-1.55027">
        <ele>99.76101</ele>
        <time>2022-07-30T09:30:38.000Z</time>
      </trkpt>
      <trkpt lat="49.64302" lon="-1.55025">
        <ele>99.780839</ele>
        <time>2022-07-30T09:30:39.000Z</time>
      </trkpt>
      <trkpt lat="49.64299" lon="-1.55023">
        <ele>99.800885</ele>
        <time>2022-07-30T09:30:40.000Z</time>
      </trkpt>
      <trkpt lat="49.64296" lon="-1.55021">
        <ele>99.820931</ele>
        <time>2022-07-30T09:30:41.000Z</time>
      </trkpt>
      <trkpt lat="49.64293" lon="-1.55019">
        <ele>99.843566</ele>
        <time>2022-07-30T09:30:42.000Z</time>
      </trkpt>
      <trkpt lat="49.6429" lon="-1.55016">
        <ele>99.864529</ele>
        <time>2022-07-30T09:30:43.000Z</time>
      </trkpt>
      <trkpt lat="49.64287" lon="-1.55013">
        <ele>99.886115</ele>
        <time>2022-07-30T09:30:44.000Z</time>
      </trkpt>
      <trkpt lat="49.64284" lon="-1.55011">
        <ele>99.90875</ele>
        <time>2022-07-30T09:30:45.000Z</time>
      </trkpt>
      <trkpt lat="49.64281" lon="-1.55008">
        <ele>99.931766</ele>
        <time>2022-07-30T09:30:46.000Z</time>
      </trkpt>
      <trkpt lat="49.64278" lon="-1.55005">
        <ele>99.95282</ele>
        <time>2022-07-30T09:30:47.000Z</time>
      </trkpt>
      <trkpt lat="49.64274" lon="-1.55002">
        <ele>99.978448</ele>
        <time>2022-07-30T09:30:48.000Z</time>
      </trkpt>
      <trkpt lat="49.64271" lon="-1.55">
        <ele>100.00127</ele>
        <time>2022-07-30T09:30:49.000Z</time>
      </trkpt>
      <trkpt lat="49.64268" lon="-1.54997">
        <ele>100.024898</ele>
        <time>2022-07-30T09:30:50.000Z</time>
      </trkpt>
      <trkpt lat="49.64264" lon="-1.54994">
        <ele>100.049238</ele>
        <time>2022-07-30T09:30:51.000Z</time>
      </trkpt>
      <trkpt lat="49.64261" lon="-1.54992">
        <ele>100.072253</ele>
        <time>2022-07-30T09:30:52.000Z</time>
      </trkpt>
      <trkpt lat="49.64258" lon="-1.54989">
        <ele>100.093216</ele>
        <time>2022-07-30T09:30:53.000Z</time>
      </trkpt>
      <trkpt lat="49.64255" lon="-1.54987">
        <ele>100.115851</ele>
        <time>2022-07-30T09:30:54.000Z</time>
      </trkpt>
      <trkpt lat="49.64252" lon="-1.54984">
        <ele>100.136905</ele>
        <time>2022-07-30T09:30:55.000Z</time>
      </trkpt>
      <trkpt lat="49.64249" lon="-1.54981">
        <ele>100.159921</ele>
        <time>2022-07-30T09:30:56.000Z</time>
      </trkpt>
      <trkpt lat="49.64246" lon="-1.54979">
        <ele>100.180883</ele>
        <time>2022-07-30T09:30:57.000Z</time>
      </trkpt>
      <trkpt lat="49.64243" lon="-1.54976">
        <ele>100.210595</ele>
        <time>2022-07-30T09:30:58.000Z</time>
      </trkpt>
      <trkpt lat="49.64239" lon="-1.54974">
        <ele>100.269249</ele>
        <time>2022-07-30T09:30:59.000Z</time>
      </trkpt>
      <trkpt lat="49.64237" lon="-1.54971">
        <ele>100.321129</ele>
        <time>2022-07-30T09:31:00.000Z</time>
      </trkpt>
      <trkpt lat="49.64233" lon="-1.54969">
        <ele>100.37809</ele>
        <time>2022-07-30T09:31:01.000Z</time>
      </trkpt>
      <trkpt lat="49.6423" lon="-1.54966">
        <ele>100.430986</ele>
        <time>2022-07-30T09:31:02.000Z</time>
      </trkpt>
      <trkpt lat="49.64227" lon="-1.54964">
        <ele>100.486121</ele>
        <time>2022-07-30T09:31:03.000Z</time>
      </trkpt>
      <trkpt lat="49.64224" lon="-1.54961">
        <ele>100.54214</ele>
        <time>2022-07-30T09:31:04.000Z</time>
      </trkpt>
      <trkpt lat="49.64221" lon="-1.54958">
        <ele>100.599101</ele>
        <time>2022-07-30T09:31:05.000Z</time>
      </trkpt>
      <trkpt lat="49.64218" lon="-1.54956">
        <ele>100.647486</ele>
        <time>2022-07-30T09:31:06.000Z</time>
      </trkpt>
      <trkpt lat="49.64215" lon="-1.54953">
        <ele>100.703056</ele>
        <time>2022-07-30T09:31:07.000Z</time>
      </trkpt>
      <trkpt lat="49.64212" lon="-1.54951">
        <ele>100.753578</ele>
        <time>2022-07-30T09:31:08.000Z</time>
      </trkpt>
      <trkpt lat="49.64209" lon="-1.54949">
        <ele>100.804503</ele>
        <time>2022-07-30T09:31:09.000Z</time>
      </trkpt>
      <trkpt lat="49.64206" lon="-1.54946">
        <ele>100.854974</ele>
        <time>2022-07-30T09:31:10.000Z</time>
      </trkpt>
      <trkpt lat="49.64204" lon="-1.54945">
        <ele>100.893865</ele>
        <time>2022-07-30T09:31:11.000Z</time>
      </trkpt>
      <trkpt lat="49.64201" lon="-1.54943">
        <ele>100.943477</ele>
        <time>2022-07-30T09:31:12.000Z</time>
      </trkpt>
      <trkpt lat="49.64199" lon="-1.54941">
        <ele>100.984709</ele>
        <time>2022-07-30T09:31:13.000Z</time>
      </trkpt>
      <trkpt lat="49.64197" lon="-1.54938">
        <ele>101.025651</ele>
        <time>2022-07-30T09:31:14.000Z</time>
      </trkpt>
      <trkpt lat="49.64195" lon="-1.54937">
        <ele>101.064542</ele>
        <time>2022-07-30T09:31:15.000Z</time>
      </trkpt>
      <trkpt lat="49.64192" lon="-1.54935">
        <ele>101.114154</ele>
        <time>2022-07-30T09:31:16.000Z</time>
      </trkpt>
      <trkpt lat="49.64189" lon="-1.54933">
        <ele>101.153985</ele>
        <time>2022-07-30T09:31:17.000Z</time>
      </trkpt>
      <trkpt lat="49.64187" lon="-1.54931">
        <ele>101.191551</ele>
        <time>2022-07-30T09:31:18.000Z</time>
      </trkpt>
      <trkpt lat="49.64185" lon="-1.54929">
        <ele>101.231429</ele>
        <time>2022-07-30T09:31:19.000Z</time>
      </trkpt>
      <trkpt lat="49.64183" lon="-1.54927">
        <ele>101.273167</ele>
        <time>2022-07-30T09:31:20.000Z</time>
      </trkpt>
      <trkpt lat="49.64181" lon="-1.54925">
        <ele>101.313045</ele>
        <time>2022-07-30T09:31:21.000Z</time>
      </trkpt>
      <trkpt lat="49.64178" lon="-1.54923">
        <ele>101.362253</ele>
        <time>2022-07-30T09:31:22.000Z</time>
      </trkpt>
      <trkpt lat="49.64175" lon="-1.54922">
        <ele>101.401144</ele>
        <time>2022-07-30T09:31:23.000Z</time>
      </trkpt>
      <trkpt lat="49.64173" lon="-1.5492">
        <ele>101.441422</ele>
        <time>2022-07-30T09:31:24.000Z</time>
      </trkpt>
      <trkpt lat="49.64171" lon="-1.54918">
        <ele>101.480797</ele>
        <time>2022-07-30T09:31:25.000Z</time>
      </trkpt>
      <trkpt lat="49.64168" lon="-1.54916">
        <ele>101.52617</ele>
        <time>2022-07-30T09:31:26.000Z</time>
      </trkpt>
      <trkpt lat="49.64166" lon="-1.54914">
        <ele>101.571627</ele>
        <time>2022-07-30T09:31:27.000Z</time>
      </trkpt>
      <trkpt lat="49.64164" lon="-1.54911">
        <ele>101.616757</ele>
        <time>2022-07-30T09:31:28.000Z</time>
      </trkpt>
      <trkpt lat="49.64161" lon="-1.54908">
        <ele>101.660032</ele>
        <time>2022-07-30T09:31:29.000Z</time>
      </trkpt>
      <trkpt lat="49.64158" lon="-1.54906">
        <ele>101.711427</ele>
        <time>2022-07-30T09:31:30.000Z</time>
      </trkpt>
      <trkpt lat="49.64156" lon="-1.54903">
        <ele>101.763307</ele>
        <time>2022-07-30T09:31:31.000Z</time>
      </trkpt>
      <trkpt lat="49.64153" lon="-1.54901">
        <ele>101.808764</ele>
        <time>2022-07-30T09:31:32.000Z</time>
      </trkpt>
      <trkpt lat="49.6415" lon="-1.54899">
        <ele>101.863899</ele>
        <time>2022-07-30T09:31:33.000Z</time>
      </trkpt>
      <trkpt lat="49.64147" lon="-1.54896">
        <ele>101.911216</ele>
        <time>2022-07-30T09:31:34.000Z</time>
      </trkpt>
      <trkpt lat="49.64145" lon="-1.54894">
        <ele>101.958022</ele>
        <time>2022-07-30T09:31:35.000Z</time>
      </trkpt>
      <trkpt lat="49.64142" lon="-1.54892">
        <ele>102.007562</ele>
        <time>2022-07-30T09:31:36.000Z</time>
      </trkpt>
      <trkpt lat="49.6414" lon="-1.5489">
        <ele>102.049824</ele>
        <time>2022-07-30T09:31:37.000Z</time>
      </trkpt>
      <trkpt lat="49.64137" lon="-1.54888">
        <ele>102.088715</ele>
        <time>2022-07-30T09:31:38.000Z</time>
      </trkpt>
      <trkpt lat="49.64135" lon="-1.54886">
        <ele>102.135026</ele>
        <time>2022-07-30T09:31:39.000Z</time>
      </trkpt>
      <trkpt lat="49.64132" lon="-1.54883">
        <ele>102.180483</ele>
        <time>2022-07-30T09:31:40.000Z</time>
      </trkpt>
      <trkpt lat="49.6413" lon="-1.54881">
        <ele>102.223844</ele>
        <time>2022-07-30T09:31:41.000Z</time>
      </trkpt>
      <trkpt lat="49.64128" lon="-1.54879">
        <ele>102.263722</ele>
        <time>2022-07-30T09:31:42.000Z</time>
      </trkpt>
      <trkpt lat="49.64125" lon="-1.54877">
        <ele>102.304</ele>
        <time>2022-07-30T09:31:43.000Z</time>
      </trkpt>
      <trkpt lat="49.64124" lon="-1.54875">
        <ele>102.338301</ele>
        <time>2022-07-30T09:31:44.000Z</time>
      </trkpt>
      <trkpt lat="49.64122" lon="-1.54874">
        <ele>102.369998</ele>
        <time>2022-07-30T09:31:45.000Z</time>
      </trkpt>
      <trkpt lat="49.64119" lon="-1.54873">
        <ele>102.407167</ele>
        <time>2022-07-30T09:31:46.000Z</time>
      </trkpt>
      <trkpt lat="49.64117" lon="-1.54871">
        <ele>102.442352</ele>
        <time>2022-07-30T09:31:47.000Z</time>
      </trkpt>
      <trkpt lat="49.64115" lon="-1.5487">
        <ele>102.479918</ele>
        <time>2022-07-30T09:31:48.000Z</time>
      </trkpt>
      <trkpt lat="49.64113" lon="-1.54868">
        <ele>102.517484</ele>
        <time>2022-07-30T09:31:49.000Z</time>
      </trkpt>
      <trkpt lat="49.64111" lon="-1.54867">
        <ele>102.552215</ele>
        <time>2022-07-30T09:31:50.000Z</time>
      </trkpt>
      <trkpt lat="49.64109" lon="-1.54865">
        <ele>102.5851</ele>
        <time>2022-07-30T09:31:51.000Z</time>
      </trkpt>
      <trkpt lat="49.64108" lon="-1.54864">
        <ele>102.613342</ele>
        <time>2022-07-30T09:31:52.000Z</time>
      </trkpt>
      <trkpt lat="49.64104" lon="-1.54862">
        <ele>102.676053</ele>
        <time>2022-07-30T09:31:54.000Z</time>
      </trkpt>
      <trkpt lat="49.641" lon="-1.54859">
        <ele>102.744114</ele>
        <time>2022-07-30T09:31:56.000Z</time>
      </trkpt>
      <trkpt lat="49.64098" lon="-1.54858">
        <ele>102.777447</ele>
        <time>2022-07-30T09:31:57.000Z</time>
      </trkpt>
      <trkpt lat="49.64096" lon="-1.54856">
        <ele>102.815013</ele>
        <time>2022-07-30T09:31:58.000Z</time>
      </trkpt>
      <trkpt lat="49.64093" lon="-1.54854">
        <ele>102.854844</ele>
        <time>2022-07-30T09:31:59.000Z</time>
      </trkpt>
      <trkpt lat="49.64092" lon="-1.54853">
        <ele>102.889663</ele>
        <time>2022-07-30T09:32:00.000Z</time>
      </trkpt>
      <trkpt lat="49.64089" lon="-1.54851">
        <ele>102.928091</ele>
        <time>2022-07-30T09:32:01.000Z</time>
      </trkpt>
      <trkpt lat="49.64087" lon="-1.54849">
        <ele>102.967496</ele>
        <time>2022-07-30T09:32:02.000Z</time>
      </trkpt>
      <trkpt lat="49.64085" lon="-1.54848">
        <ele>103.000829</ele>
        <time>2022-07-30T09:32:03.000Z</time>
      </trkpt>
      <trkpt lat="49.64083" lon="-1.54846">
        <ele>103.041424</ele>
        <time>2022-07-30T09:32:04.000Z</time>
      </trkpt>
      <trkpt lat="49.64081" lon="-1.54844">
        <ele>103.069938</ele>
        <time>2022-07-30T09:32:05.000Z</time>
      </trkpt>
      <trkpt lat="49.64079" lon="-1.54843">
        <ele>103.103009</ele>
        <time>2022-07-30T09:32:06.000Z</time>
      </trkpt>
      <trkpt lat="49.64077" lon="-1.54841">
        <ele>103.135249</ele>
        <time>2022-07-30T09:32:07.000Z</time>
      </trkpt>
      <trkpt lat="49.64075" lon="-1.54839">
        <ele>103.178978</ele>
        <time>2022-07-30T09:32:08.000Z</time>
      </trkpt>
      <trkpt lat="49.64073" lon="-1.54836">
        <ele>103.21503</ele>
        <time>2022-07-30T09:32:09.000Z</time>
      </trkpt>
      <trkpt lat="49.64071" lon="-1.54835">
        <ele>103.243016</ele>
        <time>2022-07-30T09:32:10.000Z</time>
      </trkpt>
      <trkpt lat="49.64069" lon="-1.54834">
        <ele>103.273155</ele>
        <time>2022-07-30T09:32:11.000Z</time>
      </trkpt>
      <trkpt lat="49.64068" lon="-1.54832">
        <ele>103.299699</ele>
        <time>2022-07-30T09:32:12.000Z</time>
      </trkpt>
      <trkpt lat="49.64065" lon="-1.54831">
        <ele>103.335818</ele>
        <time>2022-07-30T09:32:13.000Z</time>
      </trkpt>
      <trkpt lat="49.64063" lon="-1.54829">
        <ele>103.368545</ele>
        <time>2022-07-30T09:32:14.000Z</time>
      </trkpt>
      <trkpt lat="49.64061" lon="-1.54827">
        <ele>103.405201</ele>
        <time>2022-07-30T09:32:15.000Z</time>
      </trkpt>
      <trkpt lat="49.64059" lon="-1.54825">
        <ele>103.446111</ele>
        <time>2022-07-30T09:32:16.000Z</time>
      </trkpt>
      <trkpt lat="49.64057" lon="-1.54824">
        <ele>103.477281</ele>
        <time>2022-07-30T09:32:17.000Z</time>
      </trkpt>
      <trkpt lat="49.64055" lon="-1.54822">
        <ele>103.510515</ele>
        <time>2022-07-30T09:32:18.000Z</time>
      </trkpt>
      <trkpt lat="49.64053" lon="-1.54821">
        <ele>103.546219</ele>
        <time>2022-07-30T09:32:19.000Z</time>
      </trkpt>
      <trkpt lat="49.64051" lon="-1.54819">
        <ele>103.577549</ele>
        <time>2022-07-30T09:32:20.000Z</time>
      </trkpt>
      <trkpt lat="49.64049" lon="-1.54817">
        <ele>103.612532</ele>
        <time>2022-07-30T09:32:21.000Z</time>
      </trkpt>
      <trkpt lat="49.64047" lon="-1.54816">
        <ele>103.643862</ele>
        <time>2022-07-30T09:32:22.000Z</time>
      </trkpt>
      <trkpt lat="49.64045" lon="-1.54814">
        <ele>103.676102</ele>
        <time>2022-07-30T09:32:23.000Z</time>
      </trkpt>
      <trkpt lat="49.64041" lon="-1.54811">
        <ele>103.744043</ele>
        <time>2022-07-30T09:32:25.000Z</time>
      </trkpt>
      <trkpt lat="49.64039" lon="-1.54809">
        <ele>103.776283</ele>
        <time>2022-07-30T09:32:26.000Z</time>
      </trkpt>
      <trkpt lat="49.64037" lon="-1.54808">
        <ele>103.80901</ele>
        <time>2022-07-30T09:32:27.000Z</time>
      </trkpt>
      <trkpt lat="49.64035" lon="-1.54806">
        <ele>103.841737</ele>
        <time>2022-07-30T09:32:28.000Z</time>
      </trkpt>
      <trkpt lat="49.64032" lon="-1.54804">
        <ele>103.893165</ele>
        <time>2022-07-30T09:32:30.000Z</time>
      </trkpt>
      <trkpt lat="49.6403" lon="-1.54802">
        <ele>103.923304</ele>
        <time>2022-07-30T09:32:31.000Z</time>
      </trkpt>
      <trkpt lat="49.64028" lon="-1.54801">
        <ele>103.95996</ele>
        <time>2022-07-30T09:32:32.000Z</time>
      </trkpt>
      <trkpt lat="49.64026" lon="-1.54799">
        <ele>103.991734</ele>
        <time>2022-07-30T09:32:33.000Z</time>
      </trkpt>
      <trkpt lat="49.64024" lon="-1.54798">
        <ele>104.019216</ele>
        <time>2022-07-30T09:32:34.000Z</time>
      </trkpt>
      <trkpt lat="49.64022" lon="-1.54796">
        <ele>104.054525</ele>
        <time>2022-07-30T09:32:35.000Z</time>
      </trkpt>
      <trkpt lat="49.6402" lon="-1.54795">
        <ele>104.083039</ele>
        <time>2022-07-30T09:32:36.000Z</time>
      </trkpt>
      <trkpt lat="49.64018" lon="-1.54793">
        <ele>104.120477</ele>
        <time>2022-07-30T09:32:37.000Z</time>
      </trkpt>
      <trkpt lat="49.64016" lon="-1.54791">
        <ele>104.152251</ele>
        <time>2022-07-30T09:32:38.000Z</time>
      </trkpt>
      <trkpt lat="49.64014" lon="-1.54789">
        <ele>104.185485</ele>
        <time>2022-07-30T09:32:39.000Z</time>
      </trkpt>
      <trkpt lat="49.64012" lon="-1.54788">
        <ele>104.216815</ele>
        <time>2022-07-30T09:32:40.000Z</time>
      </trkpt>
      <trkpt lat="49.6401" lon="-1.54786">
        <ele>104.249459</ele>
        <time>2022-07-30T09:32:41.000Z</time>
      </trkpt>
      <trkpt lat="49.64008" lon="-1.54785">
        <ele>104.282186</ele>
        <time>2022-07-30T09:32:42.000Z</time>
      </trkpt>
      <trkpt lat="49.64006" lon="-1.54783">
        <ele>104.317494</ele>
        <time>2022-07-30T09:32:43.000Z</time>
      </trkpt>
      <trkpt lat="49.64004" lon="-1.54781">
        <ele>104.350221</ele>
        <time>2022-07-30T09:32:44.000Z</time>
      </trkpt>
      <trkpt lat="49.64002" lon="-1.54779">
        <ele>104.388976</ele>
        <time>2022-07-30T09:32:45.000Z</time>
      </trkpt>
      <trkpt lat="49.64" lon="-1.54778">
        <ele>104.420306</ele>
        <time>2022-07-30T09:32:46.000Z</time>
      </trkpt>
      <trkpt lat="49.63998" lon="-1.54776">
        <ele>104.455241</ele>
        <time>2022-07-30T09:32:47.000Z</time>
      </trkpt>
      <trkpt lat="49.63996" lon="-1.54775">
        <ele>104.491898</ele>
        <time>2022-07-30T09:32:48.000Z</time>
      </trkpt>
      <trkpt lat="49.63994" lon="-1.54774">
        <ele>104.522409</ele>
        <time>2022-07-30T09:32:49.000Z</time>
      </trkpt>
      <trkpt lat="49.63991" lon="-1.54772">
        <ele>104.562533</ele>
        <time>2022-07-30T09:32:50.000Z</time>
      </trkpt>
      <trkpt lat="49.63989" lon="-1.5477">
        <ele>104.595768</ele>
        <time>2022-07-30T09:32:51.000Z</time>
      </trkpt>
      <trkpt lat="49.63987" lon="-1.54769">
        <ele>104.628495</ele>
        <time>2022-07-30T09:32:52.000Z</time>
      </trkpt>
      <trkpt lat="49.63986" lon="-1.54767">
        <ele>104.655437</ele>
        <time>2022-07-30T09:32:53.000Z</time>
      </trkpt>
      <trkpt lat="49.63983" lon="-1.54764">
        <ele>104.702875</ele>
        <time>2022-07-30T09:32:54.000Z</time>
      </trkpt>
      <trkpt lat="49.63981" lon="-1.54762">
        <ele>104.740357</ele>
        <time>2022-07-30T09:32:55.000Z</time>
      </trkpt>
      <trkpt lat="49.63979" lon="-1.5476">
        <ele>104.77784</ele>
        <time>2022-07-30T09:32:56.000Z</time>
      </trkpt>
      <trkpt lat="49.63976" lon="-1.54758">
        <ele>104.816594</ele>
        <time>2022-07-30T09:32:57.000Z</time>
      </trkpt>
      <trkpt lat="49.63974" lon="-1.54756">
        <ele>104.854567</ele>
        <time>2022-07-30T09:32:58.000Z</time>
      </trkpt>
      <trkpt lat="49.63971" lon="-1.54755">
        <ele>104.90011</ele>
        <time>2022-07-30T09:32:59.000Z</time>
      </trkpt>
      <trkpt lat="49.63969" lon="-1.54753">
        <ele>104.936228</ele>
        <time>2022-07-30T09:33:00.000Z</time>
      </trkpt>
      <trkpt lat="49.63966" lon="-1.54751">
        <ele>104.978062</ele>
        <time>2022-07-30T09:33:01.000Z</time>
      </trkpt>
      <trkpt lat="49.63965" lon="-1.54749">
        <ele>105.010789</ele>
        <time>2022-07-30T09:33:02.000Z</time>
      </trkpt>
      <trkpt lat="49.63962" lon="-1.54748">
        <ele>105.048227</ele>
        <time>2022-07-30T09:33:03.000Z</time>
      </trkpt>
      <trkpt lat="49.63959" lon="-1.54745">
        <ele>105.094352</ele>
        <time>2022-07-30T09:33:04.000Z</time>
      </trkpt>
      <trkpt lat="49.63957" lon="-1.54743">
        <ele>105.133106</ele>
        <time>2022-07-30T09:33:05.000Z</time>
      </trkpt>
      <trkpt lat="49.63955" lon="-1.54741">
        <ele>105.17108</ele>
        <time>2022-07-30T09:33:06.000Z</time>
      </trkpt>
      <trkpt lat="49.63952" lon="-1.54739">
        <ele>105.213727</ele>
        <time>2022-07-30T09:33:07.000Z</time>
      </trkpt>
      <trkpt lat="49.63949" lon="-1.54737">
        <ele>105.259978</ele>
        <time>2022-07-30T09:33:08.000Z</time>
      </trkpt>
      <trkpt lat="49.63947" lon="-1.54735">
        <ele>105.297952</ele>
        <time>2022-07-30T09:33:09.000Z</time>
      </trkpt>
      <trkpt lat="49.63945" lon="-1.54733">
        <ele>105.34148</ele>
        <time>2022-07-30T09:33:10.000Z</time>
      </trkpt>
      <trkpt lat="49.63942" lon="-1.54731">
        <ele>105.384206</ele>
        <time>2022-07-30T09:33:11.000Z</time>
      </trkpt>
      <trkpt lat="49.63939" lon="-1.54728">
        <ele>105.432513</ele>
        <time>2022-07-30T09:33:12.000Z</time>
      </trkpt>
      <trkpt lat="49.63937" lon="-1.54726">
        <ele>105.475592</ele>
        <time>2022-07-30T09:33:13.000Z</time>
      </trkpt>
      <trkpt lat="49.63934" lon="-1.54724">
        <ele>105.514074</ele>
        <time>2022-07-30T09:33:14.000Z</time>
      </trkpt>
      <trkpt lat="49.63932" lon="-1.54722">
        <ele>105.561512</ele>
        <time>2022-07-30T09:33:15.000Z</time>
      </trkpt>
      <trkpt lat="49.63929" lon="-1.54719">
        <ele>105.601616</ele>
        <time>2022-07-30T09:33:16.000Z</time>
      </trkpt>
      <trkpt lat="49.63927" lon="-1.54717">
        <ele>105.640371</ele>
        <time>2022-07-30T09:33:17.000Z</time>
      </trkpt>
      <trkpt lat="49.63925" lon="-1.54716">
        <ele>105.666678</ele>
        <time>2022-07-30T09:33:18.000Z</time>
      </trkpt>
      <trkpt lat="49.63922" lon="-1.54713">
        <ele>105.693748</ele>
        <time>2022-07-30T09:33:19.000Z</time>
      </trkpt>
      <trkpt lat="49.63919" lon="-1.5471">
        <ele>105.715583</ele>
        <time>2022-07-30T09:33:20.000Z</time>
      </trkpt>
      <trkpt lat="49.63917" lon="-1.54708">
        <ele>105.740066</ele>
        <time>2022-07-30T09:33:21.000Z</time>
      </trkpt>
      <trkpt lat="49.63915" lon="-1.54705">
        <ele>105.762212</ele>
        <time>2022-07-30T09:33:22.000Z</time>
      </trkpt>
      <trkpt lat="49.63912" lon="-1.54703">
        <ele>105.788762</ele>
        <time>2022-07-30T09:33:23.000Z</time>
      </trkpt>
      <trkpt lat="49.63909" lon="-1.547">
        <ele>105.8144</ele>
        <time>2022-07-30T09:33:24.000Z</time>
      </trkpt>
      <trkpt lat="49.63907" lon="-1.54697">
        <ele>105.83719</ele>
        <time>2022-07-30T09:33:25.000Z</time>
      </trkpt>
      <trkpt lat="49.63905" lon="-1.54694">
        <ele>105.860602</ele>
        <time>2022-07-30T09:33:26.000Z</time>
      </trkpt>
      <trkpt lat="49.63902" lon="-1.54691">
        <ele>105.889076</ele>
        <time>2022-07-30T09:33:27.000Z</time>
      </trkpt>
      <trkpt lat="49.639" lon="-1.54687">
        <ele>105.914889</ele>
        <time>2022-07-30T09:33:28.000Z</time>
      </trkpt>
      <trkpt lat="49.63897" lon="-1.54684">
        <ele>105.940139</ele>
        <time>2022-07-30T09:33:29.000Z</time>
      </trkpt>
      <trkpt lat="49.63895" lon="-1.5468">
        <ele>105.967712</ele>
        <time>2022-07-30T09:33:30.000Z</time>
      </trkpt>
      <trkpt lat="49.63893" lon="-1.54677">
        <ele>105.994098</ele>
        <time>2022-07-30T09:33:31.000Z</time>
      </trkpt>
      <trkpt lat="49.6389" lon="-1.54673">
        <ele>106.024502</ele>
        <time>2022-07-30T09:33:32.000Z</time>
      </trkpt>
      <trkpt lat="49.63887" lon="-1.54669">
        <ele>106.050505</ele>
        <time>2022-07-30T09:33:33.000Z</time>
      </trkpt>
      <trkpt lat="49.63885" lon="-1.54665">
        <ele>106.080583</ele>
        <time>2022-07-30T09:33:34.000Z</time>
      </trkpt>
      <trkpt lat="49.63883" lon="-1.54661">
        <ele>106.108147</ele>
        <time>2022-07-30T09:33:35.000Z</time>
      </trkpt>
      <trkpt lat="49.6388" lon="-1.54657">
        <ele>106.138225</ele>
        <time>2022-07-30T09:33:36.000Z</time>
      </trkpt>
      <trkpt lat="49.63878" lon="-1.54652">
        <ele>106.166594</ele>
        <time>2022-07-30T09:33:37.000Z</time>
      </trkpt>
      <trkpt lat="49.63876" lon="-1.54648">
        <ele>106.195866</ele>
        <time>2022-07-30T09:33:38.000Z</time>
      </trkpt>
      <trkpt lat="49.63873" lon="-1.54644">
        <ele>106.22343</ele>
        <time>2022-07-30T09:33:39.000Z</time>
      </trkpt>
      <trkpt lat="49.63871" lon="-1.54639">
        <ele>106.252702</ele>
        <time>2022-07-30T09:33:40.000Z</time>
      </trkpt>
      <trkpt lat="49.63869" lon="-1.54635">
        <ele>106.27965</ele>
        <time>2022-07-30T09:33:41.000Z</time>
      </trkpt>
      <trkpt lat="49.63867" lon="-1.54631">
        <ele>106.308838</ele>
        <time>2022-07-30T09:33:42.000Z</time>
      </trkpt>
      <trkpt lat="49.63865" lon="-1.54626">
        <ele>106.336647</ele>
        <time>2022-07-30T09:33:43.000Z</time>
      </trkpt>
      <trkpt lat="49.63863" lon="-1.54622">
        <ele>106.364054</ele>
        <time>2022-07-30T09:33:44.000Z</time>
      </trkpt>
      <trkpt lat="49.63861" lon="-1.54617">
        <ele>106.392736</ele>
        <time>2022-07-30T09:33:45.000Z</time>
      </trkpt>
      <trkpt lat="49.63859" lon="-1.54613">
        <ele>106.419684</ele>
        <time>2022-07-30T09:33:46.000Z</time>
      </trkpt>
      <trkpt lat="49.63858" lon="-1.54608">
        <ele>106.445807</ele>
        <time>2022-07-30T09:33:47.000Z</time>
      </trkpt>
      <trkpt lat="49.63856" lon="-1.54604">
        <ele>106.470588</ele>
        <time>2022-07-30T09:33:48.000Z</time>
      </trkpt>
      <trkpt lat="49.63854" lon="-1.546">
        <ele>106.49711</ele>
        <time>2022-07-30T09:33:49.000Z</time>
      </trkpt>
      <trkpt lat="49.63853" lon="-1.54596">
        <ele>106.519358</ele>
        <time>2022-07-30T09:33:50.000Z</time>
      </trkpt>
      <trkpt lat="49.63851" lon="-1.54592">
        <ele>106.54588</ele>
        <time>2022-07-30T09:33:51.000Z</time>
      </trkpt>
      <trkpt lat="49.63849" lon="-1.54588">
        <ele>106.571553</ele>
        <time>2022-07-30T09:33:52.000Z</time>
      </trkpt>
      <trkpt lat="49.63848" lon="-1.54584">
        <ele>106.595651</ele>
        <time>2022-07-30T09:33:53.000Z</time>
      </trkpt>
      <trkpt lat="49.63847" lon="-1.5458">
        <ele>106.617899</ele>
        <time>2022-07-30T09:33:54.000Z</time>
      </trkpt>
      <trkpt lat="49.63845" lon="-1.54576">
        <ele>106.640077</ele>
        <time>2022-07-30T09:33:55.000Z</time>
      </trkpt>
      <trkpt lat="49.63844" lon="-1.54573">
        <ele>106.660517</ele>
        <time>2022-07-30T09:33:56.000Z</time>
      </trkpt>
      <trkpt lat="49.63843" lon="-1.5457">
        <ele>106.678104</ele>
        <time>2022-07-30T09:33:57.000Z</time>
      </trkpt>
      <trkpt lat="49.63842" lon="-1.54567">
        <ele>106.696498</ele>
        <time>2022-07-30T09:33:58.000Z</time>
      </trkpt>
      <trkpt lat="49.63841" lon="-1.54563">
        <ele>106.715034</ele>
        <time>2022-07-30T09:33:59.000Z</time>
      </trkpt>
      <trkpt lat="49.6384" lon="-1.5456">
        <ele>106.734366</ele>
        <time>2022-07-30T09:34:00.000Z</time>
      </trkpt>
      <trkpt lat="49.63839" lon="-1.54557">
        <ele>106.75062</ele>
        <time>2022-07-30T09:34:01.000Z</time>
      </trkpt>
      <trkpt lat="49.63838" lon="-1.54554">
        <ele>106.769306</ele>
        <time>2022-07-30T09:34:02.000Z</time>
      </trkpt>
      <trkpt lat="49.63837" lon="-1.54551">
        <ele>106.786773</ele>
        <time>2022-07-30T09:34:03.000Z</time>
      </trkpt>
      <trkpt lat="49.63836" lon="-1.54548">
        <ele>106.806769</ele>
        <time>2022-07-30T09:34:04.000Z</time>
      </trkpt>
      <trkpt lat="49.63835" lon="-1.54544">
        <ele>106.824513</ele>
        <time>2022-07-30T09:34:05.000Z</time>
      </trkpt>
      <trkpt lat="49.63835" lon="-1.54541">
        <ele>106.84279</ele>
        <time>2022-07-30T09:34:06.000Z</time>
      </trkpt>
      <trkpt lat="49.63834" lon="-1.54538">
        <ele>106.861184</ele>
        <time>2022-07-30T09:34:07.000Z</time>
      </trkpt>
      <trkpt lat="49.63833" lon="-1.54534">
        <ele>106.87972</ele>
        <time>2022-07-30T09:34:08.000Z</time>
      </trkpt>
      <trkpt lat="49.63832" lon="-1.54531">
        <ele>106.897206</ele>
        <time>2022-07-30T09:34:09.000Z</time>
      </trkpt>
      <trkpt lat="49.63832" lon="-1.54528">
        <ele>106.91495</ele>
        <time>2022-07-30T09:34:10.000Z</time>
      </trkpt>
      <trkpt lat="49.63831" lon="-1.54524">
        <ele>106.932714</ele>
        <time>2022-07-30T09:34:11.000Z</time>
      </trkpt>
      <trkpt lat="49.63831" lon="-1.54521">
        <ele>106.952172</ele>
        <time>2022-07-30T09:34:12.000Z</time>
      </trkpt>
      <trkpt lat="49.63829" lon="-1.54516">
        <ele>106.977209</ele>
        <time>2022-07-30T09:34:13.000Z</time>
      </trkpt>
      <trkpt lat="49.63828" lon="-1.54512">
        <ele>107.000501</ele>
        <time>2022-07-30T09:34:14.000Z</time>
      </trkpt>
      <trkpt lat="49.63827" lon="-1.54508">
        <ele>107.022697</ele>
        <time>2022-07-30T09:34:15.000Z</time>
      </trkpt>
      <trkpt lat="49.63826" lon="-1.54505">
        <ele>107.044455</ele>
        <time>2022-07-30T09:34:16.000Z</time>
      </trkpt>
      <trkpt lat="49.63824" lon="-1.54503">
        <ele>107.059494</ele>
        <time>2022-07-30T09:34:17.000Z</time>
      </trkpt>
      <trkpt lat="49.63822" lon="-1.545">
        <ele>107.079448</ele>
        <time>2022-07-30T09:34:19.000Z</time>
      </trkpt>
      <trkpt lat="49.63823" lon="-1.54489">
        <ele>107.282403</ele>
        <time>2022-07-30T09:35:20.000Z</time>
      </trkpt>
      <trkpt lat="49.63824" lon="-1.54483">
        <ele>107.385956</ele>
        <time>2022-07-30T09:35:21.000Z</time>
      </trkpt>
      <trkpt lat="49.63824" lon="-1.54478">
        <ele>107.496509</ele>
        <time>2022-07-30T09:35:22.000Z</time>
      </trkpt>
      <trkpt lat="49.63824" lon="-1.54472">
        <ele>107.602175</ele>
        <time>2022-07-30T09:35:23.000Z</time>
      </trkpt>
      <trkpt lat="49.63823" lon="-1.54467">
        <ele>107.702356</ele>
        <time>2022-07-30T09:35:24.000Z</time>
      </trkpt>
      <trkpt lat="49.63821" lon="-1.54463">
        <ele>107.805197</ele>
        <time>2022-07-30T09:35:25.000Z</time>
      </trkpt>
      <trkpt lat="49.63819" lon="-1.54459">
        <ele>107.897104</ele>
        <time>2022-07-30T09:35:26.000Z</time>
      </trkpt>
      <trkpt lat="49.63817" lon="-1.54455">
        <ele>107.992071</ele>
        <time>2022-07-30T09:35:27.000Z</time>
      </trkpt>
      <trkpt lat="49.63816" lon="-1.54451">
        <ele>108.072531</ele>
        <time>2022-07-30T09:35:28.000Z</time>
      </trkpt>
      <trkpt lat="49.63814" lon="-1.54448">
        <ele>108.159962</ele>
        <time>2022-07-30T09:35:29.000Z</time>
      </trkpt>
      <trkpt lat="49.63812" lon="-1.54444">
        <ele>108.255421</ele>
        <time>2022-07-30T09:35:30.000Z</time>
      </trkpt>
      <trkpt lat="49.6381" lon="-1.54441">
        <ele>108.339954</ele>
        <time>2022-07-30T09:35:31.000Z</time>
      </trkpt>
      <trkpt lat="49.63807" lon="-1.54438">
        <ele>108.43333</ele>
        <time>2022-07-30T09:35:32.000Z</time>
      </trkpt>
      <trkpt lat="49.63805" lon="-1.54434">
        <ele>108.528789</ele>
        <time>2022-07-30T09:35:33.000Z</time>
      </trkpt>
      <trkpt lat="49.63803" lon="-1.54431">
        <ele>108.613322</ele>
        <time>2022-07-30T09:35:34.000Z</time>
      </trkpt>
      <trkpt lat="49.63801" lon="-1.54427">
        <ele>108.705334</ele>
        <time>2022-07-30T09:35:35.000Z</time>
      </trkpt>
      <trkpt lat="49.63799" lon="-1.54424">
        <ele>108.794694</ele>
        <time>2022-07-30T09:35:36.000Z</time>
      </trkpt>
      <trkpt lat="49.63797" lon="-1.54421">
        <ele>108.879227</ele>
        <time>2022-07-30T09:35:37.000Z</time>
      </trkpt>
      <trkpt lat="49.63795" lon="-1.54417">
        <ele>108.96376</ele>
        <time>2022-07-30T09:35:38.000Z</time>
      </trkpt>
      <trkpt lat="49.63793" lon="-1.54414">
        <ele>109.046872</ele>
        <time>2022-07-30T09:35:39.000Z</time>
      </trkpt>
      <trkpt lat="49.63791" lon="-1.54411">
        <ele>109.129984</ele>
        <time>2022-07-30T09:35:40.000Z</time>
      </trkpt>
      <trkpt lat="49.6379" lon="-1.54408">
        <ele>109.205874</ele>
        <time>2022-07-30T09:35:41.000Z</time>
      </trkpt>
      <trkpt lat="49.63788" lon="-1.54405">
        <ele>109.291011</ele>
        <time>2022-07-30T09:35:42.000Z</time>
      </trkpt>
      <trkpt lat="49.63786" lon="-1.54402">
        <ele>109.37529</ele>
        <time>2022-07-30T09:35:43.000Z</time>
      </trkpt>
      <trkpt lat="49.63784" lon="-1.54399">
        <ele>109.455622</ele>
        <time>2022-07-30T09:35:44.000Z</time>
      </trkpt>
      <trkpt lat="49.63781" lon="-1.54396">
        <ele>109.547141</ele>
        <time>2022-07-30T09:35:45.000Z</time>
      </trkpt>
      <trkpt lat="49.6378" lon="-1.54392">
        <ele>109.624536</ele>
        <time>2022-07-30T09:35:46.000Z</time>
      </trkpt>
      <trkpt lat="49.63778" lon="-1.54389">
        <ele>109.71258</ele>
        <time>2022-07-30T09:35:47.000Z</time>
      </trkpt>
      <trkpt lat="49.63776" lon="-1.54386">
        <ele>109.791554</ele>
        <time>2022-07-30T09:35:48.000Z</time>
      </trkpt>
      <trkpt lat="49.63774" lon="-1.54383">
        <ele>109.871886</ele>
        <time>2022-07-30T09:35:49.000Z</time>
      </trkpt>
      <trkpt lat="49.63772" lon="-1.5438">
        <ele>109.954312</ele>
        <time>2022-07-30T09:35:50.000Z</time>
      </trkpt>
      <trkpt lat="49.6377" lon="-1.54377">
        <ele>110.036023</ele>
        <time>2022-07-30T09:35:51.000Z</time>
      </trkpt>
      <trkpt lat="49.63768" lon="-1.54374">
        <ele>110.114997</ele>
        <time>2022-07-30T09:35:52.000Z</time>
      </trkpt>
      <trkpt lat="49.63766" lon="-1.54372">
        <ele>110.190046</ele>
        <time>2022-07-30T09:35:53.000Z</time>
      </trkpt>
      <trkpt lat="49.63764" lon="-1.54369">
        <ele>110.266377</ele>
        <time>2022-07-30T09:35:54.000Z</time>
      </trkpt>
      <trkpt lat="49.63762" lon="-1.54366">
        <ele>110.348803</ele>
        <time>2022-07-30T09:35:55.000Z</time>
      </trkpt>
      <trkpt lat="49.6376" lon="-1.54363">
        <ele>110.433082</ele>
        <time>2022-07-30T09:35:56.000Z</time>
      </trkpt>
      <trkpt lat="49.63758" lon="-1.54361">
        <ele>110.506874</ele>
        <time>2022-07-30T09:35:57.000Z</time>
      </trkpt>
      <trkpt lat="49.63756" lon="-1.54358">
        <ele>110.583205</ele>
        <time>2022-07-30T09:35:58.000Z</time>
      </trkpt>
      <trkpt lat="49.63754" lon="-1.54355">
        <ele>110.668614</ele>
        <time>2022-07-30T09:35:59.000Z</time>
      </trkpt>
      <trkpt lat="49.63752" lon="-1.54353">
        <ele>110.743662</ele>
        <time>2022-07-30T09:36:00.000Z</time>
      </trkpt>
      <trkpt lat="49.6375" lon="-1.5435">
        <ele>110.82329</ele>
        <time>2022-07-30T09:36:01.000Z</time>
      </trkpt>
      <trkpt lat="49.63748" lon="-1.54348">
        <ele>110.90987</ele>
        <time>2022-07-30T09:36:02.000Z</time>
      </trkpt>
      <trkpt lat="49.63745" lon="-1.54345">
        <ele>110.997918</ele>
        <time>2022-07-30T09:36:03.000Z</time>
      </trkpt>
      <trkpt lat="49.63742" lon="-1.54342">
        <ele>111.093865</ele>
        <time>2022-07-30T09:36:04.000Z</time>
      </trkpt>
      <trkpt lat="49.6374" lon="-1.54339">
        <ele>111.176939</ele>
        <time>2022-07-30T09:36:05.000Z</time>
      </trkpt>
      <trkpt lat="49.63738" lon="-1.54336">
        <ele>111.267188</ele>
        <time>2022-07-30T09:36:06.000Z</time>
      </trkpt>
      <trkpt lat="49.63736" lon="-1.54333">
        <ele>111.356534</ele>
        <time>2022-07-30T09:36:07.000Z</time>
      </trkpt>
      <trkpt lat="49.63734" lon="-1.5433">
        <ele>111.434175</ele>
        <time>2022-07-30T09:36:08.000Z</time>
      </trkpt>
      <trkpt lat="49.63731" lon="-1.54327">
        <ele>111.537363</ele>
        <time>2022-07-30T09:36:09.000Z</time>
      </trkpt>
      <trkpt lat="49.63729" lon="-1.54324">
        <ele>111.626365</ele>
        <time>2022-07-30T09:36:10.000Z</time>
      </trkpt>
      <trkpt lat="49.63726" lon="-1.54321">
        <ele>111.71571</ele>
        <time>2022-07-30T09:36:11.000Z</time>
      </trkpt>
      <trkpt lat="49.63724" lon="-1.54318">
        <ele>111.811657</ele>
        <time>2022-07-30T09:36:12.000Z</time>
      </trkpt>
      <trkpt lat="49.63721" lon="-1.54315">
        <ele>111.912403</ele>
        <time>2022-07-30T09:36:13.000Z</time>
      </trkpt>
      <trkpt lat="49.63718" lon="-1.54312">
        <ele>112.010691</ele>
        <time>2022-07-30T09:36:14.000Z</time>
      </trkpt>
      <trkpt lat="49.63716" lon="-1.54309">
        <ele>112.111798</ele>
        <time>2022-07-30T09:36:15.000Z</time>
      </trkpt>
      <trkpt lat="49.63713" lon="-1.54306">
        <ele>112.201984</ele>
        <time>2022-07-30T09:36:16.000Z</time>
      </trkpt>
      <trkpt lat="49.63711" lon="-1.54303">
        <ele>112.290986</ele>
        <time>2022-07-30T09:36:17.000Z</time>
      </trkpt>
      <trkpt lat="49.63708" lon="-1.543">
        <ele>112.385769</ele>
        <time>2022-07-30T09:36:18.000Z</time>
      </trkpt>
      <trkpt lat="49.63706" lon="-1.54297">
        <ele>112.481278</ele>
        <time>2022-07-30T09:36:19.000Z</time>
      </trkpt>
      <trkpt lat="49.63703" lon="-1.54294">
        <ele>112.582664</ele>
        <time>2022-07-30T09:36:20.000Z</time>
      </trkpt>
      <trkpt lat="49.63701" lon="-1.54291">
        <ele>112.678112</ele>
        <time>2022-07-30T09:36:21.000Z</time>
      </trkpt>
      <trkpt lat="49.63698" lon="-1.54288">
        <ele>112.766608</ele>
        <time>2022-07-30T09:36:22.000Z</time>
      </trkpt>
      <trkpt lat="49.63696" lon="-1.54285">
        <ele>112.85288</ele>
        <time>2022-07-30T09:36:23.000Z</time>
      </trkpt>
      <trkpt lat="49.63694" lon="-1.54281">
        <ele>112.943034</ele>
        <time>2022-07-30T09:36:24.000Z</time>
      </trkpt>
      <trkpt lat="49.63691" lon="-1.54278">
        <ele>113.038436</ele>
        <time>2022-07-30T09:36:25.000Z</time>
      </trkpt>
      <trkpt lat="49.63689" lon="-1.54275">
        <ele>113.124708</ele>
        <time>2022-07-30T09:36:26.000Z</time>
      </trkpt>
      <trkpt lat="49.63687" lon="-1.54272">
        <ele>113.206666</ele>
        <time>2022-07-30T09:36:27.000Z</time>
      </trkpt>
      <trkpt lat="49.63685" lon="-1.5427">
        <ele>113.289268</ele>
        <time>2022-07-30T09:36:28.000Z</time>
      </trkpt>
      <trkpt lat="49.63682" lon="-1.54267">
        <ele>113.379296</ele>
        <time>2022-07-30T09:36:29.000Z</time>
      </trkpt>
      <trkpt lat="49.6368" lon="-1.54264">
        <ele>113.461899</ele>
        <time>2022-07-30T09:36:30.000Z</time>
      </trkpt>
      <trkpt lat="49.63678" lon="-1.54262">
        <ele>113.539099</ele>
        <time>2022-07-30T09:36:31.000Z</time>
      </trkpt>
      <trkpt lat="49.63676" lon="-1.54259">
        <ele>113.627595</ele>
        <time>2022-07-30T09:36:32.000Z</time>
      </trkpt>
      <trkpt lat="49.63673" lon="-1.54256">
        <ele>113.724626</ele>
        <time>2022-07-30T09:36:33.000Z</time>
      </trkpt>
      <trkpt lat="49.63671" lon="-1.54253">
        <ele>113.810715</ele>
        <time>2022-07-30T09:36:34.000Z</time>
      </trkpt>
      <trkpt lat="49.63669" lon="-1.54251">
        <ele>113.891004</ele>
        <time>2022-07-30T09:36:35.000Z</time>
      </trkpt>
      <trkpt lat="49.63666" lon="-1.54248">
        <ele>113.979501</ele>
        <time>2022-07-30T09:36:36.000Z</time>
      </trkpt>
      <trkpt lat="49.63663" lon="-1.54244">
        <ele>114.081892</ele>
        <time>2022-07-30T09:36:37.000Z</time>
      </trkpt>
      <trkpt lat="49.63661" lon="-1.54241">
        <ele>114.170389</ele>
        <time>2022-07-30T09:36:38.000Z</time>
      </trkpt>
      <trkpt lat="49.63659" lon="-1.54238">
        <ele>114.257932</ele>
        <time>2022-07-30T09:36:39.000Z</time>
      </trkpt>
      <trkpt lat="49.63656" lon="-1.54235">
        <ele>114.353335</ele>
        <time>2022-07-30T09:36:40.000Z</time>
      </trkpt>
      <trkpt lat="49.63654" lon="-1.54233">
        <ele>114.435938</ele>
        <time>2022-07-30T09:36:41.000Z</time>
      </trkpt>
      <trkpt lat="49.63651" lon="-1.5423">
        <ele>114.53647</ele>
        <time>2022-07-30T09:36:42.000Z</time>
      </trkpt>
      <trkpt lat="49.63649" lon="-1.54227">
        <ele>114.625308</ele>
        <time>2022-07-30T09:36:43.000Z</time>
      </trkpt>
      <trkpt lat="49.63646" lon="-1.54224">
        <ele>114.720711</ele>
        <time>2022-07-30T09:36:44.000Z</time>
      </trkpt>
      <trkpt lat="49.63644" lon="-1.54221">
        <ele>114.804511</ele>
        <time>2022-07-30T09:36:45.000Z</time>
      </trkpt>
      <trkpt lat="49.63642" lon="-1.54218">
        <ele>114.88647</ele>
        <time>2022-07-30T09:36:46.000Z</time>
      </trkpt>
      <trkpt lat="49.6364" lon="-1.54215">
        <ele>114.979534</ele>
        <time>2022-07-30T09:36:47.000Z</time>
      </trkpt>
      <trkpt lat="49.63637" lon="-1.54212">
        <ele>115.064458</ele>
        <time>2022-07-30T09:36:48.000Z</time>
      </trkpt>
      <trkpt lat="49.63635" lon="-1.54209">
        <ele>115.15073</ele>
        <time>2022-07-30T09:36:49.000Z</time>
      </trkpt>
      <trkpt lat="49.63633" lon="-1.54206">
        <ele>115.234531</ele>
        <time>2022-07-30T09:36:50.000Z</time>
      </trkpt>
      <trkpt lat="49.6363" lon="-1.54203">
        <ele>115.329933</ele>
        <time>2022-07-30T09:36:51.000Z</time>
      </trkpt>
      <trkpt lat="49.63628" lon="-1.542">
        <ele>115.414957</ele>
        <time>2022-07-30T09:36:52.000Z</time>
      </trkpt>
      <trkpt lat="49.63625" lon="-1.54198">
        <ele>115.51549</ele>
        <time>2022-07-30T09:36:53.000Z</time>
      </trkpt>
      <trkpt lat="49.63623" lon="-1.54194">
        <ele>115.607775</ele>
        <time>2022-07-30T09:36:54.000Z</time>
      </trkpt>
      <trkpt lat="49.63621" lon="-1.54191">
        <ele>115.696614</ele>
        <time>2022-07-30T09:36:55.000Z</time>
      </trkpt>
      <trkpt lat="49.63619" lon="-1.54188">
        <ele>115.782886</ele>
        <time>2022-07-30T09:36:56.000Z</time>
      </trkpt>
      <trkpt lat="49.63616" lon="-1.54185">
        <ele>115.873886</ele>
        <time>2022-07-30T09:36:57.000Z</time>
      </trkpt>
      <trkpt lat="49.63613" lon="-1.54182">
        <ele>115.976488</ele>
        <time>2022-07-30T09:36:58.000Z</time>
      </trkpt>
      <trkpt lat="49.63611" lon="-1.54179">
        <ele>116.069553</ele>
        <time>2022-07-30T09:36:59.000Z</time>
      </trkpt>
      <trkpt lat="49.63608" lon="-1.54176">
        <ele>116.166108</ele>
        <time>2022-07-30T09:37:00.000Z</time>
      </trkpt>
      <trkpt lat="49.63606" lon="-1.54173">
        <ele>116.258017</ele>
        <time>2022-07-30T09:37:01.000Z</time>
      </trkpt>
      <trkpt lat="49.63604" lon="-1.5417">
        <ele>116.346514</ele>
        <time>2022-07-30T09:37:02.000Z</time>
      </trkpt>
      <trkpt lat="49.63601" lon="-1.54167">
        <ele>116.436668</ele>
        <time>2022-07-30T09:37:03.000Z</time>
      </trkpt>
      <trkpt lat="49.63599" lon="-1.54163">
        <ele>116.535596</ele>
        <time>2022-07-30T09:37:04.000Z</time>
      </trkpt>
      <trkpt lat="49.63596" lon="-1.5416">
        <ele>116.649771</ele>
        <time>2022-07-30T09:37:05.000Z</time>
      </trkpt>
      <trkpt lat="49.63593" lon="-1.54157">
        <ele>116.739925</ele>
        <time>2022-07-30T09:37:06.000Z</time>
      </trkpt>
      <trkpt lat="49.63591" lon="-1.54153">
        <ele>116.838853</ele>
        <time>2022-07-30T09:37:07.000Z</time>
      </trkpt>
      <trkpt lat="49.63588" lon="-1.5415">
        <ele>116.941455</ele>
        <time>2022-07-30T09:37:08.000Z</time>
      </trkpt>
      <trkpt lat="49.63585" lon="-1.54147">
        <ele>117.046157</ele>
        <time>2022-07-30T09:37:09.000Z</time>
      </trkpt>
      <trkpt lat="49.63582" lon="-1.54143">
        <ele>117.154347</ele>
        <time>2022-07-30T09:37:10.000Z</time>
      </trkpt>
      <trkpt lat="49.6358" lon="-1.5414">
        <ele>117.255734</ele>
        <time>2022-07-30T09:37:11.000Z</time>
      </trkpt>
      <trkpt lat="49.63577" lon="-1.54137">
        <ele>117.345889</ele>
        <time>2022-07-30T09:37:12.000Z</time>
      </trkpt>
      <trkpt lat="49.63575" lon="-1.54133">
        <ele>117.447277</ele>
        <time>2022-07-30T09:37:13.000Z</time>
      </trkpt>
      <trkpt lat="49.63572" lon="-1.5413">
        <ele>117.555388</ele>
        <time>2022-07-30T09:37:14.000Z</time>
      </trkpt>
      <trkpt lat="49.63569" lon="-1.54128">
        <ele>117.634564</ele>
        <time>2022-07-30T09:37:15.000Z</time>
      </trkpt>
      <trkpt lat="49.63567" lon="-1.54125">
        <ele>117.678707</ele>
        <time>2022-07-30T09:37:16.000Z</time>
      </trkpt>
      <trkpt lat="49.63564" lon="-1.54121">
        <ele>117.643634</ele>
        <time>2022-07-30T09:37:17.000Z</time>
      </trkpt>
      <trkpt lat="49.63562" lon="-1.54118">
        <ele>117.607376</ele>
        <time>2022-07-30T09:37:18.000Z</time>
      </trkpt>
      <trkpt lat="49.63559" lon="-1.54114">
        <ele>117.567992</ele>
        <time>2022-07-30T09:37:19.000Z</time>
      </trkpt>
      <trkpt lat="49.63556" lon="-1.5411">
        <ele>117.528608</ele>
        <time>2022-07-30T09:37:20.000Z</time>
      </trkpt>
      <trkpt lat="49.63553" lon="-1.54106">
        <ele>117.493078</ele>
        <time>2022-07-30T09:37:21.000Z</time>
      </trkpt>
      <trkpt lat="49.63551" lon="-1.54102">
        <ele>117.458143</ele>
        <time>2022-07-30T09:37:22.000Z</time>
      </trkpt>
      <trkpt lat="49.63548" lon="-1.54098">
        <ele>117.414745</ele>
        <time>2022-07-30T09:37:23.000Z</time>
      </trkpt>
      <trkpt lat="49.63545" lon="-1.54095">
        <ele>117.381434</ele>
        <time>2022-07-30T09:37:24.000Z</time>
      </trkpt>
      <trkpt lat="49.63542" lon="-1.54091">
        <ele>117.343333</ele>
        <time>2022-07-30T09:37:25.000Z</time>
      </trkpt>
      <trkpt lat="49.63539" lon="-1.54087">
        <ele>117.303233</ele>
        <time>2022-07-30T09:37:26.000Z</time>
      </trkpt>
      <trkpt lat="49.63535" lon="-1.54083">
        <ele>117.259519</ele>
        <time>2022-07-30T09:37:27.000Z</time>
      </trkpt>
      <trkpt lat="49.63532" lon="-1.5408">
        <ele>117.218633</ele>
        <time>2022-07-30T09:37:28.000Z</time>
      </trkpt>
      <trkpt lat="49.63529" lon="-1.54075">
        <ele>117.176096</ele>
        <time>2022-07-30T09:37:29.000Z</time>
      </trkpt>
      <trkpt lat="49.63525" lon="-1.54071">
        <ele>117.128677</ele>
        <time>2022-07-30T09:37:30.000Z</time>
      </trkpt>
      <trkpt lat="49.63521" lon="-1.54068">
        <ele>117.083524</ele>
        <time>2022-07-30T09:37:31.000Z</time>
      </trkpt>
      <trkpt lat="49.63518" lon="-1.54064">
        <ele>117.040563</ele>
        <time>2022-07-30T09:37:32.000Z</time>
      </trkpt>
      <trkpt lat="49.63514" lon="-1.54061">
        <ele>116.995522</ele>
        <time>2022-07-30T09:37:33.000Z</time>
      </trkpt>
      <trkpt lat="49.6351" lon="-1.54058">
        <ele>116.951684</ele>
        <time>2022-07-30T09:37:34.000Z</time>
      </trkpt>
      <trkpt lat="49.63506" lon="-1.54054">
        <ele>116.906954</ele>
        <time>2022-07-30T09:37:35.000Z</time>
      </trkpt>
      <trkpt lat="49.63502" lon="-1.54051">
        <ele>116.862798</ele>
        <time>2022-07-30T09:37:36.000Z</time>
      </trkpt>
      <trkpt lat="49.63499" lon="-1.54048">
        <ele>116.818642</ele>
        <time>2022-07-30T09:37:37.000Z</time>
      </trkpt>
      <trkpt lat="49.63494" lon="-1.54044">
        <ele>116.770612</ele>
        <time>2022-07-30T09:37:38.000Z</time>
      </trkpt>
      <trkpt lat="49.6349" lon="-1.54041">
        <ele>116.72131</ele>
        <time>2022-07-30T09:37:39.000Z</time>
      </trkpt>
      <trkpt lat="49.63486" lon="-1.54037">
        <ele>116.67581</ele>
        <time>2022-07-30T09:37:40.000Z</time>
      </trkpt>
      <trkpt lat="49.63483" lon="-1.54033">
        <ele>116.630996</ele>
        <time>2022-07-30T09:37:41.000Z</time>
      </trkpt>
      <trkpt lat="49.63478" lon="-1.5403">
        <ele>116.583848</ele>
        <time>2022-07-30T09:37:42.000Z</time>
      </trkpt>
      <trkpt lat="49.63474" lon="-1.54027">
        <ele>116.536414</ele>
        <time>2022-07-30T09:37:43.000Z</time>
      </trkpt>
      <trkpt lat="49.6347" lon="-1.54024">
        <ele>116.487155</ele>
        <time>2022-07-30T09:37:44.000Z</time>
      </trkpt>
      <trkpt lat="49.63466" lon="-1.54021">
        <ele>116.442113</ele>
        <time>2022-07-30T09:37:45.000Z</time>
      </trkpt>
      <trkpt lat="49.63462" lon="-1.54017">
        <ele>116.398275</ele>
        <time>2022-07-30T09:37:46.000Z</time>
      </trkpt>
      <trkpt lat="49.63459" lon="-1.54014">
        <ele>116.357408</ele>
        <time>2022-07-30T09:37:47.000Z</time>
      </trkpt>
      <trkpt lat="49.63455" lon="-1.54011">
        <ele>116.313279</ele>
        <time>2022-07-30T09:37:48.000Z</time>
      </trkpt>
      <trkpt lat="49.63452" lon="-1.54008">
        <ele>116.274666</ele>
        <time>2022-07-30T09:37:49.000Z</time>
      </trkpt>
      <trkpt lat="49.63448" lon="-1.54005">
        <ele>116.2323</ele>
        <time>2022-07-30T09:37:50.000Z</time>
      </trkpt>
      <trkpt lat="49.63444" lon="-1.54003">
        <ele>116.189276</ele>
        <time>2022-07-30T09:37:51.000Z</time>
      </trkpt>
      <trkpt lat="49.6344" lon="-1.54">
        <ele>116.14691</ele>
        <time>2022-07-30T09:37:52.000Z</time>
      </trkpt>
      <trkpt lat="49.63436" lon="-1.53997">
        <ele>116.104266</ele>
        <time>2022-07-30T09:37:53.000Z</time>
      </trkpt>
      <trkpt lat="49.63432" lon="-1.53994">
        <ele>116.059536</ele>
        <time>2022-07-30T09:37:54.000Z</time>
      </trkpt>
      <trkpt lat="49.63429" lon="-1.53991">
        <ele>116.016892</ele>
        <time>2022-07-30T09:37:55.000Z</time>
      </trkpt>
      <trkpt lat="49.63425" lon="-1.53988">
        <ele>115.97305</ele>
        <time>2022-07-30T09:37:56.000Z</time>
      </trkpt>
      <trkpt lat="49.63421" lon="-1.53986">
        <ele>115.92816</ele>
        <time>2022-07-30T09:37:57.000Z</time>
      </trkpt>
      <trkpt lat="49.63417" lon="-1.53983">
        <ele>115.886963</ele>
        <time>2022-07-30T09:37:58.000Z</time>
      </trkpt>
      <trkpt lat="49.63413" lon="-1.53979">
        <ele>115.895731</ele>
        <time>2022-07-30T09:37:59.000Z</time>
      </trkpt>
      <trkpt lat="49.63409" lon="-1.53976">
        <ele>115.943875</ele>
        <time>2022-07-30T09:38:00.000Z</time>
      </trkpt>
      <trkpt lat="49.63405" lon="-1.53973">
        <ele>115.98915</ele>
        <time>2022-07-30T09:38:01.000Z</time>
      </trkpt>
      <trkpt lat="49.634" lon="-1.53969">
        <ele>116.038421</ele>
        <time>2022-07-30T09:38:02.000Z</time>
      </trkpt>
      <trkpt lat="49.63396" lon="-1.53965">
        <ele>116.085465</ele>
        <time>2022-07-30T09:38:03.000Z</time>
      </trkpt>
      <trkpt lat="49.63391" lon="-1.53961">
        <ele>116.137595</ele>
        <time>2022-07-30T09:38:04.000Z</time>
      </trkpt>
      <trkpt lat="49.63387" lon="-1.53957">
        <ele>116.184133</ele>
        <time>2022-07-30T09:38:05.000Z</time>
      </trkpt>
      <trkpt lat="49.63382" lon="-1.53953">
        <ele>116.234629</ele>
        <time>2022-07-30T09:38:06.000Z</time>
      </trkpt>
      <trkpt lat="49.63378" lon="-1.53949">
        <ele>116.284809</ele>
        <time>2022-07-30T09:38:07.000Z</time>
      </trkpt>
      <trkpt lat="49.63373" lon="-1.53945">
        <ele>116.338127</ele>
        <time>2022-07-30T09:38:08.000Z</time>
      </trkpt>
      <trkpt lat="49.63369" lon="-1.53941">
        <ele>116.384341</ele>
        <time>2022-07-30T09:38:09.000Z</time>
      </trkpt>
      <trkpt lat="49.63365" lon="-1.53937">
        <ele>116.434521</ele>
        <time>2022-07-30T09:38:10.000Z</time>
      </trkpt>
      <trkpt lat="49.6336" lon="-1.53933">
        <ele>116.482211</ele>
        <time>2022-07-30T09:38:11.000Z</time>
      </trkpt>
      <trkpt lat="49.63356" lon="-1.53929">
        <ele>116.534923</ele>
        <time>2022-07-30T09:38:12.000Z</time>
      </trkpt>
      <trkpt lat="49.63351" lon="-1.53926">
        <ele>116.584194</ele>
        <time>2022-07-30T09:38:13.000Z</time>
      </trkpt>
      <trkpt lat="49.63347" lon="-1.53922">
        <ele>116.630407</ele>
        <time>2022-07-30T09:38:14.000Z</time>
      </trkpt>
      <trkpt lat="49.63343" lon="-1.53918">
        <ele>116.676237</ele>
        <time>2022-07-30T09:38:15.000Z</time>
      </trkpt>
      <trkpt lat="49.63339" lon="-1.53915">
        <ele>116.717482</ele>
        <time>2022-07-30T09:38:16.000Z</time>
      </trkpt>
      <trkpt lat="49.63335" lon="-1.53912">
        <ele>116.763025</ele>
        <time>2022-07-30T09:38:17.000Z</time>
      </trkpt>
      <trkpt lat="49.63331" lon="-1.53909">
        <ele>116.80345</ele>
        <time>2022-07-30T09:38:18.000Z</time>
      </trkpt>
      <trkpt lat="49.63327" lon="-1.53906">
        <ele>116.845841</ele>
        <time>2022-07-30T09:38:19.000Z</time>
      </trkpt>
      <trkpt lat="49.63323" lon="-1.53903">
        <ele>116.890817</ele>
        <time>2022-07-30T09:38:20.000Z</time>
      </trkpt>
      <trkpt lat="49.63319" lon="-1.539">
        <ele>116.93045</ele>
        <time>2022-07-30T09:38:21.000Z</time>
      </trkpt>
      <trkpt lat="49.63317" lon="-1.53896">
        <ele>116.967208</ele>
        <time>2022-07-30T09:38:22.000Z</time>
      </trkpt>
      <trkpt lat="49.63313" lon="-1.53892">
        <ele>117.006607</ele>
        <time>2022-07-30T09:38:23.000Z</time>
      </trkpt>
      <trkpt lat="49.6331" lon="-1.53888">
        <ele>117.042567</ele>
        <time>2022-07-30T09:38:24.000Z</time>
      </trkpt>
      <trkpt lat="49.63308" lon="-1.53884">
        <ele>117.079734</ele>
        <time>2022-07-30T09:38:25.000Z</time>
      </trkpt>
      <trkpt lat="49.63306" lon="-1.5388">
        <ele>117.111289</ele>
        <time>2022-07-30T09:38:26.000Z</time>
      </trkpt>
      <trkpt lat="49.63304" lon="-1.53876">
        <ele>117.143355</ele>
        <time>2022-07-30T09:38:27.000Z</time>
      </trkpt>
      <trkpt lat="49.63302" lon="-1.53872">
        <ele>117.175937</ele>
        <time>2022-07-30T09:38:28.000Z</time>
      </trkpt>
      <trkpt lat="49.63301" lon="-1.53868">
        <ele>117.203946</ele>
        <time>2022-07-30T09:38:29.000Z</time>
      </trkpt>
      <trkpt lat="49.633" lon="-1.53863">
        <ele>117.233082</ele>
        <time>2022-07-30T09:38:30.000Z</time>
      </trkpt>
      <trkpt lat="49.63299" lon="-1.53859">
        <ele>117.259587</ele>
        <time>2022-07-30T09:38:31.000Z</time>
      </trkpt>
      <trkpt lat="49.63297" lon="-1.53855">
        <ele>117.28816</ele>
        <time>2022-07-30T09:38:32.000Z</time>
      </trkpt>
      <trkpt lat="49.63297" lon="-1.53851">
        <ele>117.313364</ele>
        <time>2022-07-30T09:38:33.000Z</time>
      </trkpt>
      <trkpt lat="49.63296" lon="-1.53848">
        <ele>117.338459</ele>
        <time>2022-07-30T09:38:34.000Z</time>
      </trkpt>
      <trkpt lat="49.63295" lon="-1.53844">
        <ele>117.36294</ele>
        <time>2022-07-30T09:38:35.000Z</time>
      </trkpt>
      <trkpt lat="49.63295" lon="-1.5384">
        <ele>117.387655</ele>
        <time>2022-07-30T09:38:36.000Z</time>
      </trkpt>
      <trkpt lat="49.63294" lon="-1.53836">
        <ele>117.411226</ele>
        <time>2022-07-30T09:38:37.000Z</time>
      </trkpt>
      <trkpt lat="49.63293" lon="-1.53833">
        <ele>117.435744</ele>
        <time>2022-07-30T09:38:38.000Z</time>
      </trkpt>
      <trkpt lat="49.63293" lon="-1.53829">
        <ele>117.460327</ele>
        <time>2022-07-30T09:38:39.000Z</time>
      </trkpt>
      <trkpt lat="49.63292" lon="-1.53825">
        <ele>117.484809</ele>
        <time>2022-07-30T09:38:40.000Z</time>
      </trkpt>
      <trkpt lat="49.63292" lon="-1.53821">
        <ele>117.509537</ele>
        <time>2022-07-30T09:38:41.000Z</time>
      </trkpt>
      <trkpt lat="49.63291" lon="-1.53817">
        <ele>117.534627</ele>
        <time>2022-07-30T09:38:42.000Z</time>
      </trkpt>
      <trkpt lat="49.6329" lon="-1.53814">
        <ele>117.559145</ele>
        <time>2022-07-30T09:38:43.000Z</time>
      </trkpt>
      <trkpt lat="49.6329" lon="-1.5381">
        <ele>117.583728</ele>
        <time>2022-07-30T09:38:44.000Z</time>
      </trkpt>
      <trkpt lat="49.63289" lon="-1.53806">
        <ele>117.608897</ele>
        <time>2022-07-30T09:38:45.000Z</time>
      </trkpt>
      <trkpt lat="49.63288" lon="-1.53802">
        <ele>117.625536</ele>
        <time>2022-07-30T09:38:46.000Z</time>
      </trkpt>
      <trkpt lat="49.63287" lon="-1.53798">
        <ele>117.643003</ele>
        <time>2022-07-30T09:38:47.000Z</time>
      </trkpt>
      <trkpt lat="49.63287" lon="-1.53794">
        <ele>117.660629</ele>
        <time>2022-07-30T09:38:48.000Z</time>
      </trkpt>
      <trkpt lat="49.63286" lon="-1.5379">
        <ele>117.678241</ele>
        <time>2022-07-30T09:38:49.000Z</time>
      </trkpt>
      <trkpt lat="49.63286" lon="-1.53787">
        <ele>117.694406</ele>
        <time>2022-07-30T09:38:50.000Z</time>
      </trkpt>
      <trkpt lat="49.63285" lon="-1.53783">
        <ele>117.711213</ele>
        <time>2022-07-30T09:38:51.000Z</time>
      </trkpt>
      <trkpt lat="49.63285" lon="-1.53779">
        <ele>117.728343</ele>
        <time>2022-07-30T09:38:52.000Z</time>
      </trkpt>
      <trkpt lat="49.63284" lon="-1.53775">
        <ele>117.746582</ele>
        <time>2022-07-30T09:38:53.000Z</time>
      </trkpt>
      <trkpt lat="49.63283" lon="-1.53771">
        <ele>117.764049</ele>
        <time>2022-07-30T09:38:54.000Z</time>
      </trkpt>
      <trkpt lat="49.63283" lon="-1.53767">
        <ele>117.782024</ele>
        <time>2022-07-30T09:38:55.000Z</time>
      </trkpt>
      <trkpt lat="49.63282" lon="-1.53762">
        <ele>117.80106</ele>
        <time>2022-07-30T09:38:56.000Z</time>
      </trkpt>
      <trkpt lat="49.63282" lon="-1.53758">
        <ele>117.819458</ele>
        <time>2022-07-30T09:38:57.000Z</time>
      </trkpt>
      <trkpt lat="49.63281" lon="-1.53754">
        <ele>117.837754</ele>
        <time>2022-07-30T09:38:58.000Z</time>
      </trkpt>
      <trkpt lat="49.63281" lon="-1.5375">
        <ele>117.856234</ele>
        <time>2022-07-30T09:38:59.000Z</time>
      </trkpt>
      <trkpt lat="49.6328" lon="-1.53745">
        <ele>117.875458</ele>
        <time>2022-07-30T09:39:00.000Z</time>
      </trkpt>
      <trkpt lat="49.63279" lon="-1.53741">
        <ele>117.894279</ele>
        <time>2022-07-30T09:39:01.000Z</time>
      </trkpt>
      <trkpt lat="49.63278" lon="-1.53737">
        <ele>117.914466</ele>
        <time>2022-07-30T09:39:02.000Z</time>
      </trkpt>
      <trkpt lat="49.63277" lon="-1.53732">
        <ele>117.933902</ele>
        <time>2022-07-30T09:39:03.000Z</time>
      </trkpt>
      <trkpt lat="49.63276" lon="-1.53728">
        <ele>117.953531</ele>
        <time>2022-07-30T09:39:04.000Z</time>
      </trkpt>
      <trkpt lat="49.63275" lon="-1.53723">
        <ele>117.974172</ele>
        <time>2022-07-30T09:39:05.000Z</time>
      </trkpt>
      <trkpt lat="49.63275" lon="-1.53719">
        <ele>117.993416</ele>
        <time>2022-07-30T09:39:06.000Z</time>
      </trkpt>
      <trkpt lat="49.63274" lon="-1.53714">
        <ele>118.013655</ele>
        <time>2022-07-30T09:39:07.000Z</time>
      </trkpt>
      <trkpt lat="49.63274" lon="-1.5371">
        <ele>118.033649</ele>
        <time>2022-07-30T09:39:08.000Z</time>
      </trkpt>
      <trkpt lat="49.63274" lon="-1.53705">
        <ele>118.05374</ele>
        <time>2022-07-30T09:39:09.000Z</time>
      </trkpt>
      <trkpt lat="49.63273" lon="-1.537">
        <ele>118.073407</ele>
        <time>2022-07-30T09:39:10.000Z</time>
      </trkpt>
      <trkpt lat="49.63273" lon="-1.53696">
        <ele>118.093498</ele>
        <time>2022-07-30T09:39:11.000Z</time>
      </trkpt>
      <trkpt lat="49.63272" lon="-1.53691">
        <ele>118.114429</ele>
        <time>2022-07-30T09:39:12.000Z</time>
      </trkpt>
      <trkpt lat="49.63272" lon="-1.53686">
        <ele>118.135366</ele>
        <time>2022-07-30T09:39:13.000Z</time>
      </trkpt>
      <trkpt lat="49.63271" lon="-1.5368">
        <ele>118.159093</ele>
        <time>2022-07-30T09:39:14.000Z</time>
      </trkpt>
      <trkpt lat="49.63271" lon="-1.53675">
        <ele>118.180947</ele>
        <time>2022-07-30T09:39:15.000Z</time>
      </trkpt>
      <trkpt lat="49.63271" lon="-1.5367">
        <ele>118.203156</ele>
        <time>2022-07-30T09:39:16.000Z</time>
      </trkpt>
      <trkpt lat="49.6327" lon="-1.53665">
        <ele>118.224788</ele>
        <time>2022-07-30T09:39:17.000Z</time>
      </trkpt>
      <trkpt lat="49.6327" lon="-1.5366">
        <ele>118.248268</ele>
        <time>2022-07-30T09:39:18.000Z</time>
      </trkpt>
      <trkpt lat="49.63269" lon="-1.53654">
        <ele>118.270967</ele>
        <time>2022-07-30T09:39:19.000Z</time>
      </trkpt>
      <trkpt lat="49.63269" lon="-1.53649">
        <ele>118.293175</ele>
        <time>2022-07-30T09:39:20.000Z</time>
      </trkpt>
      <trkpt lat="49.63269" lon="-1.53644">
        <ele>118.316655</ele>
        <time>2022-07-30T09:39:21.000Z</time>
      </trkpt>
      <trkpt lat="49.63269" lon="-1.53638">
        <ele>118.340052</ele>
        <time>2022-07-30T09:39:22.000Z</time>
      </trkpt>
      <trkpt lat="49.63268" lon="-1.53633">
        <ele>118.363128</ele>
        <time>2022-07-30T09:39:23.000Z</time>
      </trkpt>
      <trkpt lat="49.63268" lon="-1.53628">
        <ele>118.38576</ele>
        <time>2022-07-30T09:39:24.000Z</time>
      </trkpt>
      <trkpt lat="49.63268" lon="-1.53622">
        <ele>118.408307</ele>
        <time>2022-07-30T09:39:25.000Z</time>
      </trkpt>
      <trkpt lat="49.63267" lon="-1.53617">
        <ele>118.430515</ele>
        <time>2022-07-30T09:39:26.000Z</time>
      </trkpt>
      <trkpt lat="49.63267" lon="-1.53612">
        <ele>118.452724</ele>
        <time>2022-07-30T09:39:27.000Z</time>
      </trkpt>
      <trkpt lat="49.63266" lon="-1.53607">
        <ele>118.474985</ele>
        <time>2022-07-30T09:39:28.000Z</time>
      </trkpt>
      <trkpt lat="49.63266" lon="-1.53602">
        <ele>118.495499</ele>
        <time>2022-07-30T09:39:29.000Z</time>
      </trkpt>
      <trkpt lat="49.63265" lon="-1.53597">
        <ele>118.516295</ele>
        <time>2022-07-30T09:39:30.000Z</time>
      </trkpt>
      <trkpt lat="49.63264" lon="-1.53593">
        <ele>118.536811</ele>
        <time>2022-07-30T09:39:31.000Z</time>
      </trkpt>
      <trkpt lat="49.63264" lon="-1.53588">
        <ele>118.55719</ele>
        <time>2022-07-30T09:39:32.000Z</time>
      </trkpt>
      <trkpt lat="49.63263" lon="-1.53583">
        <ele>118.576857</ele>
        <time>2022-07-30T09:39:33.000Z</time>
      </trkpt>
      <trkpt lat="49.63263" lon="-1.53579">
        <ele>118.597023</ele>
        <time>2022-07-30T09:39:34.000Z</time>
      </trkpt>
      <trkpt lat="49.63262" lon="-1.53574">
        <ele>118.616568</ele>
        <time>2022-07-30T09:39:35.000Z</time>
      </trkpt>
      <trkpt lat="49.63262" lon="-1.53569">
        <ele>118.637364</ele>
        <time>2022-07-30T09:39:36.000Z</time>
      </trkpt>
      <trkpt lat="49.63262" lon="-1.53564">
        <ele>118.658209</ele>
        <time>2022-07-30T09:39:37.000Z</time>
      </trkpt>
      <trkpt lat="49.63262" lon="-1.5356">
        <ele>118.678628</ele>
        <time>2022-07-30T09:39:38.000Z</time>
      </trkpt>
      <trkpt lat="49.63262" lon="-1.53554">
        <ele>118.702025</ele>
        <time>2022-07-30T09:39:39.000Z</time>
      </trkpt>
      <trkpt lat="49.63262" lon="-1.53548">
        <ele>118.726273</ele>
        <time>2022-07-30T09:39:40.000Z</time>
      </trkpt>
      <trkpt lat="49.63262" lon="-1.53543">
        <ele>118.74967</ele>
        <time>2022-07-30T09:39:41.000Z</time>
      </trkpt>
      <trkpt lat="49.63261" lon="-1.53537">
        <ele>118.774483</ele>
        <time>2022-07-30T09:39:42.000Z</time>
      </trkpt>
      <trkpt lat="49.63261" lon="-1.53531">
        <ele>118.774599</ele>
        <time>2022-07-30T09:39:43.000Z</time>
      </trkpt>
      <trkpt lat="49.63261" lon="-1.53525">
        <ele>118.74376</ele>
        <time>2022-07-30T09:39:44.000Z</time>
      </trkpt>
      <trkpt lat="49.63261" lon="-1.53519">
        <ele>118.712822</ele>
        <time>2022-07-30T09:39:45.000Z</time>
      </trkpt>
      <trkpt lat="49.63261" lon="-1.53514">
        <ele>118.682415</ele>
        <time>2022-07-30T09:39:46.000Z</time>
      </trkpt>
      <trkpt lat="49.63261" lon="-1.53508">
        <ele>118.651576</ele>
        <time>2022-07-30T09:39:47.000Z</time>
      </trkpt>
      <trkpt lat="49.63261" lon="-1.53502">
        <ele>118.622332</ele>
        <time>2022-07-30T09:39:48.000Z</time>
      </trkpt>
      <trkpt lat="49.63261" lon="-1.53497">
        <ele>118.592025</ele>
        <time>2022-07-30T09:39:49.000Z</time>
      </trkpt>
      <trkpt lat="49.63261" lon="-1.53491">
        <ele>118.561717</ele>
        <time>2022-07-30T09:39:50.000Z</time>
      </trkpt>
      <trkpt lat="49.63262" lon="-1.53485">
        <ele>118.531761</ele>
        <time>2022-07-30T09:39:51.000Z</time>
      </trkpt>
      <trkpt lat="49.63262" lon="-1.53479">
        <ele>118.50039</ele>
        <time>2022-07-30T09:39:52.000Z</time>
      </trkpt>
      <trkpt lat="49.63262" lon="-1.53473">
        <ele>118.468393</ele>
        <time>2022-07-30T09:39:53.000Z</time>
      </trkpt>
      <trkpt lat="49.63262" lon="-1.53468">
        <ele>118.437554</ele>
        <time>2022-07-30T09:39:54.000Z</time>
      </trkpt>
      <trkpt lat="49.63262" lon="-1.53461">
        <ele>118.404588</ele>
        <time>2022-07-30T09:39:55.000Z</time>
      </trkpt>
      <trkpt lat="49.63262" lon="-1.53456">
        <ele>118.373749</ele>
        <time>2022-07-30T09:39:56.000Z</time>
      </trkpt>
      <trkpt lat="49.63262" lon="-1.5345">
        <ele>118.342811</ele>
        <time>2022-07-30T09:39:57.000Z</time>
      </trkpt>
      <trkpt lat="49.63262" lon="-1.53444">
        <ele>118.313567</ele>
        <time>2022-07-30T09:39:58.000Z</time>
      </trkpt>
      <trkpt lat="49.63262" lon="-1.53439">
        <ele>118.28326</ele>
        <time>2022-07-30T09:39:59.000Z</time>
      </trkpt>
      <trkpt lat="49.63262" lon="-1.53433">
        <ele>118.252323</ele>
        <time>2022-07-30T09:40:00.000Z</time>
      </trkpt>
      <trkpt lat="49.63262" lon="-1.53427">
        <ele>118.22042</ele>
        <time>2022-07-30T09:40:01.000Z</time>
      </trkpt>
      <trkpt lat="49.63263" lon="-1.53421">
        <ele>118.188191</ele>
        <time>2022-07-30T09:40:02.000Z</time>
      </trkpt>
      <trkpt lat="49.63264" lon="-1.53415">
        <ele>118.155775</ele>
        <time>2022-07-30T09:40:03.000Z</time>
      </trkpt>
      <trkpt lat="49.63265" lon="-1.53409">
        <ele>118.124645</ele>
        <time>2022-07-30T09:40:04.000Z</time>
      </trkpt>
      <trkpt lat="49.63267" lon="-1.53404">
        <ele>118.091501</ele>
        <time>2022-07-30T09:40:05.000Z</time>
      </trkpt>
      <trkpt lat="49.63269" lon="-1.53399">
        <ele>118.060235</ele>
        <time>2022-07-30T09:40:06.000Z</time>
      </trkpt>
      <trkpt lat="49.63272" lon="-1.53395">
        <ele>118.028172</ele>
        <time>2022-07-30T09:40:07.000Z</time>
      </trkpt>
      <trkpt lat="49.63275" lon="-1.53391">
        <ele>117.994372</ele>
        <time>2022-07-30T09:40:08.000Z</time>
      </trkpt>
      <trkpt lat="49.63279" lon="-1.53387">
        <ele>117.958047</ele>
        <time>2022-07-30T09:40:09.000Z</time>
      </trkpt>
      <trkpt lat="49.63282" lon="-1.53384">
        <ele>117.925927</ele>
        <time>2022-07-30T09:40:10.000Z</time>
      </trkpt>
      <trkpt lat="49.63287" lon="-1.53382">
        <ele>117.886667</ele>
        <time>2022-07-30T09:40:11.000Z</time>
      </trkpt>
      <trkpt lat="49.63291" lon="-1.53379">
        <ele>117.849519</ele>
        <time>2022-07-30T09:40:12.000Z</time>
      </trkpt>
      <trkpt lat="49.63295" lon="-1.53377">
        <ele>117.813523</ele>
        <time>2022-07-30T09:40:13.000Z</time>
      </trkpt>
      <trkpt lat="49.63299" lon="-1.53375">
        <ele>117.779787</ele>
        <time>2022-07-30T09:40:14.000Z</time>
      </trkpt>
      <trkpt lat="49.63303" lon="-1.53373">
        <ele>117.745196</ele>
        <time>2022-07-30T09:40:15.000Z</time>
      </trkpt>
      <trkpt lat="49.63307" lon="-1.53372">
        <ele>117.709807</ele>
        <time>2022-07-30T09:40:16.000Z</time>
      </trkpt>
      <trkpt lat="49.63312" lon="-1.5337">
        <ele>117.672013</ele>
        <time>2022-07-30T09:40:17.000Z</time>
      </trkpt>
      <trkpt lat="49.63317" lon="-1.53369">
        <ele>117.631463</ele>
        <time>2022-07-30T09:40:18.000Z</time>
      </trkpt>
      <trkpt lat="49.63321" lon="-1.53367">
        <ele>117.59388</ele>
        <time>2022-07-30T09:40:19.000Z</time>
      </trkpt>
      <trkpt lat="49.63325" lon="-1.53366">
        <ele>117.556645</ele>
        <time>2022-07-30T09:40:20.000Z</time>
      </trkpt>
      <trkpt lat="49.6333" lon="-1.53364">
        <ele>117.520563</ele>
        <time>2022-07-30T09:40:21.000Z</time>
      </trkpt>
      <trkpt lat="49.63334" lon="-1.53361">
        <ele>117.484153</ele>
        <time>2022-07-30T09:40:22.000Z</time>
      </trkpt>
      <trkpt lat="49.63338" lon="-1.53358">
        <ele>117.449116</ele>
        <time>2022-07-30T09:40:23.000Z</time>
      </trkpt>
      <trkpt lat="49.63341" lon="-1.53355">
        <ele>117.412516</ele>
        <time>2022-07-30T09:40:24.000Z</time>
      </trkpt>
      <trkpt lat="49.63345" lon="-1.5335">
        <ele>117.375142</ele>
        <time>2022-07-30T09:40:25.000Z</time>
      </trkpt>
      <trkpt lat="49.63347" lon="-1.53344">
        <ele>117.338073</ele>
        <time>2022-07-30T09:40:26.000Z</time>
      </trkpt>
      <trkpt lat="49.63349" lon="-1.53337">
        <ele>117.320002</ele>
        <time>2022-07-30T09:40:27.000Z</time>
      </trkpt>
      <trkpt lat="49.63349" lon="-1.53331">
        <ele>117.341537</ele>
        <time>2022-07-30T09:40:28.000Z</time>
      </trkpt>
      <trkpt lat="49.6335" lon="-1.53323">
        <ele>117.364213</ele>
        <time>2022-07-30T09:40:29.000Z</time>
      </trkpt>
      <trkpt lat="49.63349" lon="-1.53316">
        <ele>117.386439</ele>
        <time>2022-07-30T09:40:30.000Z</time>
      </trkpt>
      <trkpt lat="49.63349" lon="-1.5331">
        <ele>117.407974</ele>
        <time>2022-07-30T09:40:31.000Z</time>
      </trkpt>
      <trkpt lat="49.63347" lon="-1.53303">
        <ele>117.430222</ele>
        <time>2022-07-30T09:40:32.000Z</time>
      </trkpt>
      <trkpt lat="49.63346" lon="-1.53296">
        <ele>117.452042</ele>
        <time>2022-07-30T09:40:33.000Z</time>
      </trkpt>
      <trkpt lat="49.63344" lon="-1.5329">
        <ele>117.471895</ele>
        <time>2022-07-30T09:40:34.000Z</time>
      </trkpt>
      <trkpt lat="49.63343" lon="-1.53284">
        <ele>117.491748</ele>
        <time>2022-07-30T09:40:35.000Z</time>
      </trkpt>
      <trkpt lat="49.63341" lon="-1.53278">
        <ele>117.511819</ele>
        <time>2022-07-30T09:40:36.000Z</time>
      </trkpt>
      <trkpt lat="49.6334" lon="-1.53273">
        <ele>117.531601</ele>
        <time>2022-07-30T09:40:37.000Z</time>
      </trkpt>
      <trkpt lat="49.63339" lon="-1.53267">
        <ele>117.549402</ele>
        <time>2022-07-30T09:40:38.000Z</time>
      </trkpt>
      <trkpt lat="49.63337" lon="-1.53262">
        <ele>117.568322</ele>
        <time>2022-07-30T09:40:39.000Z</time>
      </trkpt>
      <trkpt lat="49.63336" lon="-1.53256">
        <ele>117.586248</ele>
        <time>2022-07-30T09:40:40.000Z</time>
      </trkpt>
      <trkpt lat="49.63335" lon="-1.53251">
        <ele>117.605167</ele>
        <time>2022-07-30T09:40:41.000Z</time>
      </trkpt>
      <trkpt lat="49.63333" lon="-1.53245">
        <ele>117.622951</ele>
        <time>2022-07-30T09:40:42.000Z</time>
      </trkpt>
      <trkpt lat="49.63332" lon="-1.5324">
        <ele>117.641016</ele>
        <time>2022-07-30T09:40:43.000Z</time>
      </trkpt>
      <trkpt lat="49.63331" lon="-1.53235">
        <ele>117.657906</ele>
        <time>2022-07-30T09:40:44.000Z</time>
      </trkpt>
      <trkpt lat="49.63329" lon="-1.5323">
        <ele>117.675688</ele>
        <time>2022-07-30T09:40:45.000Z</time>
      </trkpt>
      <trkpt lat="49.63328" lon="-1.53224">
        <ele>117.694322</ele>
        <time>2022-07-30T09:40:46.000Z</time>
      </trkpt>
      <trkpt lat="49.63327" lon="-1.53219">
        <ele>117.711644</ele>
        <time>2022-07-30T09:40:47.000Z</time>
      </trkpt>
      <trkpt lat="49.63325" lon="-1.53214">
        <ele>117.729135</ele>
        <time>2022-07-30T09:40:48.000Z</time>
      </trkpt>
      <trkpt lat="49.63324" lon="-1.53208">
        <ele>117.748055</ele>
        <time>2022-07-30T09:40:49.000Z</time>
      </trkpt>
      <trkpt lat="49.63323" lon="-1.53203">
        <ele>117.765248</ele>
        <time>2022-07-30T09:40:50.000Z</time>
      </trkpt>
      <trkpt lat="49.63321" lon="-1.53197">
        <ele>117.784742</ele>
        <time>2022-07-30T09:40:51.000Z</time>
      </trkpt>
      <trkpt lat="49.6332" lon="-1.53192">
        <ele>117.803114</ele>
        <time>2022-07-30T09:40:52.000Z</time>
      </trkpt>
      <trkpt lat="49.63319" lon="-1.53186">
        <ele>117.822373</ele>
        <time>2022-07-30T09:40:53.000Z</time>
      </trkpt>
      <trkpt lat="49.63317" lon="-1.53181">
        <ele>117.841933</ele>
        <time>2022-07-30T09:40:54.000Z</time>
      </trkpt>
      <trkpt lat="49.63315" lon="-1.53175">
        <ele>117.860282</ele>
        <time>2022-07-30T09:40:55.000Z</time>
      </trkpt>
      <trkpt lat="49.63314" lon="-1.5317">
        <ele>117.878916</ele>
        <time>2022-07-30T09:40:56.000Z</time>
      </trkpt>
      <trkpt lat="49.63312" lon="-1.53164">
        <ele>117.897836</ele>
        <time>2022-07-30T09:40:57.000Z</time>
      </trkpt>
      <trkpt lat="49.63311" lon="-1.53159">
        <ele>117.91562</ele>
        <time>2022-07-30T09:40:58.000Z</time>
      </trkpt>
      <trkpt lat="49.63309" lon="-1.53154">
        <ele>117.934539</ele>
        <time>2022-07-30T09:40:59.000Z</time>
      </trkpt>
      <trkpt lat="49.63307" lon="-1.53148">
        <ele>117.953274</ele>
        <time>2022-07-30T09:41:00.000Z</time>
      </trkpt>
      <trkpt lat="49.63306" lon="-1.53143">
        <ele>117.971056</ele>
        <time>2022-07-30T09:41:01.000Z</time>
      </trkpt>
      <trkpt lat="49.63304" lon="-1.53138">
        <ele>117.989791</ele>
        <time>2022-07-30T09:41:02.000Z</time>
      </trkpt>
      <trkpt lat="49.63302" lon="-1.53133">
        <ele>118.008526</ele>
        <time>2022-07-30T09:41:03.000Z</time>
      </trkpt>
      <trkpt lat="49.633" lon="-1.53128">
        <ele>118.028545</ele>
        <time>2022-07-30T09:41:04.000Z</time>
      </trkpt>
      <trkpt lat="49.63298" lon="-1.53122">
        <ele>118.048662</ele>
        <time>2022-07-30T09:41:05.000Z</time>
      </trkpt>
      <trkpt lat="49.63296" lon="-1.53117">
        <ele>118.06767</ele>
        <time>2022-07-30T09:41:06.000Z</time>
      </trkpt>
      <trkpt lat="49.63293" lon="-1.53111">
        <ele>118.08743</ele>
        <time>2022-07-30T09:41:07.000Z</time>
      </trkpt>
      <trkpt lat="49.63291" lon="-1.53106">
        <ele>118.107183</ele>
        <time>2022-07-30T09:41:08.000Z</time>
      </trkpt>
      <trkpt lat="49.63289" lon="-1.53101">
        <ele>118.126674</ele>
        <time>2022-07-30T09:41:09.000Z</time>
      </trkpt>
      <trkpt lat="49.63287" lon="-1.53095">
        <ele>118.146467</ele>
        <time>2022-07-30T09:41:10.000Z</time>
      </trkpt>
      <trkpt lat="49.63284" lon="-1.5309">
        <ele>118.168419</ele>
        <time>2022-07-30T09:41:11.000Z</time>
      </trkpt>
      <trkpt lat="49.63282" lon="-1.53084">
        <ele>118.171381</ele>
        <time>2022-07-30T09:41:12.000Z</time>
      </trkpt>
      <trkpt lat="49.63279" lon="-1.53078">
        <ele>118.117314</ele>
        <time>2022-07-30T09:41:13.000Z</time>
      </trkpt>
      <trkpt lat="49.63277" lon="-1.53072">
        <ele>118.061855</ele>
        <time>2022-07-30T09:41:14.000Z</time>
      </trkpt>
      <trkpt lat="49.63274" lon="-1.53066">
        <ele>118.003207</ele>
        <time>2022-07-30T09:41:15.000Z</time>
      </trkpt>
      <trkpt lat="49.63272" lon="-1.5306">
        <ele>117.950334</ele>
        <time>2022-07-30T09:41:16.000Z</time>
      </trkpt>
      <trkpt lat="49.63269" lon="-1.53054">
        <ele>117.892923</ele>
        <time>2022-07-30T09:41:17.000Z</time>
      </trkpt>
      <trkpt lat="49.63266" lon="-1.53048">
        <ele>117.835511</ele>
        <time>2022-07-30T09:41:18.000Z</time>
      </trkpt>
      <trkpt lat="49.63264" lon="-1.53042">
        <ele>117.778852</ele>
        <time>2022-07-30T09:41:19.000Z</time>
      </trkpt>
      <trkpt lat="49.63261" lon="-1.53036">
        <ele>117.723492</ele>
        <time>2022-07-30T09:41:20.000Z</time>
      </trkpt>
      <trkpt lat="49.63258" lon="-1.5303">
        <ele>117.667302</ele>
        <time>2022-07-30T09:41:21.000Z</time>
      </trkpt>
      <trkpt lat="49.63256" lon="-1.53024">
        <ele>117.615095</ele>
        <time>2022-07-30T09:41:22.000Z</time>
      </trkpt>
      <trkpt lat="49.63254" lon="-1.53018">
        <ele>117.56355</ele>
        <time>2022-07-30T09:41:23.000Z</time>
      </trkpt>
      <trkpt lat="49.63252" lon="-1.53012">
        <ele>117.508758</ele>
        <time>2022-07-30T09:41:24.000Z</time>
      </trkpt>
      <trkpt lat="49.6325" lon="-1.53006">
        <ele>117.458914</ele>
        <time>2022-07-30T09:41:25.000Z</time>
      </trkpt>
      <trkpt lat="49.63248" lon="-1.53">
        <ele>117.409071</ele>
        <time>2022-07-30T09:41:26.000Z</time>
      </trkpt>
      <trkpt lat="49.63246" lon="-1.52994">
        <ele>117.357854</ele>
        <time>2022-07-30T09:41:27.000Z</time>
      </trkpt>
      <trkpt lat="49.63244" lon="-1.52988">
        <ele>117.305045</ele>
        <time>2022-07-30T09:41:28.000Z</time>
      </trkpt>
      <trkpt lat="49.63241" lon="-1.52982">
        <ele>117.252172</ele>
        <time>2022-07-30T09:41:29.000Z</time>
      </trkpt>
      <trkpt lat="49.63239" lon="-1.52977">
        <ele>117.202328</ele>
        <time>2022-07-30T09:41:30.000Z</time>
      </trkpt>
      <trkpt lat="49.63237" lon="-1.5297">
        <ele>117.146869</ele>
        <time>2022-07-30T09:41:31.000Z</time>
      </trkpt>
      <trkpt lat="49.63234" lon="-1.52964">
        <ele>117.088221</ele>
        <time>2022-07-30T09:41:32.000Z</time>
      </trkpt>
      <trkpt lat="49.63232" lon="-1.52958">
        <ele>117.031561</ele>
        <time>2022-07-30T09:41:33.000Z</time>
      </trkpt>
      <trkpt lat="49.63229" lon="-1.52952">
        <ele>116.970765</ele>
        <time>2022-07-30T09:41:34.000Z</time>
      </trkpt>
      <trkpt lat="49.63226" lon="-1.52945">
        <ele>116.911494</ele>
        <time>2022-07-30T09:41:35.000Z</time>
      </trkpt>
      <trkpt lat="49.63222" lon="-1.52939">
        <ele>116.85189</ele>
        <time>2022-07-30T09:41:36.000Z</time>
      </trkpt>
      <trkpt lat="49.6322" lon="-1.52933">
        <ele>116.795248</ele>
        <time>2022-07-30T09:41:37.000Z</time>
      </trkpt>
      <trkpt lat="49.63216" lon="-1.52927">
        <ele>116.735015</ele>
        <time>2022-07-30T09:41:38.000Z</time>
      </trkpt>
      <trkpt lat="49.63213" lon="-1.52922">
        <ele>116.681809</ele>
        <time>2022-07-30T09:41:39.000Z</time>
      </trkpt>
      <trkpt lat="49.6321" lon="-1.52917">
        <ele>116.626244</ele>
        <time>2022-07-30T09:41:40.000Z</time>
      </trkpt>
      <trkpt lat="49.63207" lon="-1.52911">
        <ele>116.573197</ele>
        <time>2022-07-30T09:41:41.000Z</time>
      </trkpt>
      <trkpt lat="49.63204" lon="-1.52906">
        <ele>116.515927</ele>
        <time>2022-07-30T09:41:42.000Z</time>
      </trkpt>
      <trkpt lat="49.63201" lon="-1.529">
        <ele>116.456499</ele>
        <time>2022-07-30T09:41:43.000Z</time>
      </trkpt>
      <trkpt lat="49.63198" lon="-1.52895">
        <ele>116.404049</ele>
        <time>2022-07-30T09:41:44.000Z</time>
      </trkpt>
      <trkpt lat="49.63195" lon="-1.5289">
        <ele>116.349662</ele>
        <time>2022-07-30T09:41:45.000Z</time>
      </trkpt>
      <trkpt lat="49.63192" lon="-1.52884">
        <ele>116.295274</ele>
        <time>2022-07-30T09:41:46.000Z</time>
      </trkpt>
      <trkpt lat="49.63189" lon="-1.52879">
        <ele>116.244897</ele>
        <time>2022-07-30T09:41:47.000Z</time>
      </trkpt>
      <trkpt lat="49.63186" lon="-1.52873">
        <ele>116.1882</ele>
        <time>2022-07-30T09:41:48.000Z</time>
      </trkpt>
      <trkpt lat="49.63183" lon="-1.52868">
        <ele>116.134553</ele>
        <time>2022-07-30T09:41:49.000Z</time>
      </trkpt>
      <trkpt lat="49.6318" lon="-1.52862">
        <ele>116.077283</ele>
        <time>2022-07-30T09:41:50.000Z</time>
      </trkpt>
      <trkpt lat="49.63178" lon="-1.52856">
        <ele>116.034422</ele>
        <time>2022-07-30T09:41:51.000Z</time>
      </trkpt>
      <trkpt lat="49.63175" lon="-1.5285">
        <ele>115.997549</ele>
        <time>2022-07-30T09:41:52.000Z</time>
      </trkpt>
      <trkpt lat="49.63173" lon="-1.52844">
        <ele>115.963762</ele>
        <time>2022-07-30T09:41:53.000Z</time>
      </trkpt>
      <trkpt lat="49.6317" lon="-1.52837">
        <ele>115.927697</ele>
        <time>2022-07-30T09:41:54.000Z</time>
      </trkpt>
      <trkpt lat="49.63168" lon="-1.5283">
        <ele>115.892235</ele>
        <time>2022-07-30T09:41:55.000Z</time>
      </trkpt>
      <trkpt lat="49.63165" lon="-1.52824">
        <ele>115.856855</ele>
        <time>2022-07-30T09:41:56.000Z</time>
      </trkpt>
      <trkpt lat="49.63164" lon="-1.52817">
        <ele>115.822327</ele>
        <time>2022-07-30T09:41:57.000Z</time>
      </trkpt>
      <trkpt lat="49.63162" lon="-1.52811">
        <ele>115.789501</ele>
        <time>2022-07-30T09:41:58.000Z</time>
      </trkpt>
      <trkpt lat="49.6316" lon="-1.52805">
        <ele>115.75974</ele>
        <time>2022-07-30T09:41:59.000Z</time>
      </trkpt>
      <trkpt lat="49.63159" lon="-1.52799">
        <ele>115.731277</ele>
        <time>2022-07-30T09:42:00.000Z</time>
      </trkpt>
      <trkpt lat="49.63158" lon="-1.52794">
        <ele>115.706779</ele>
        <time>2022-07-30T09:42:01.000Z</time>
      </trkpt>
      <trkpt lat="49.63157" lon="-1.5279">
        <ele>115.684804</ele>
        <time>2022-07-30T09:42:02.000Z</time>
      </trkpt>
      <trkpt lat="49.63156" lon="-1.52786">
        <ele>115.665877</ele>
        <time>2022-07-30T09:42:03.000Z</time>
      </trkpt>
      <trkpt lat="49.63155" lon="-1.52783">
        <ele>115.648974</ele>
        <time>2022-07-30T09:42:04.000Z</time>
      </trkpt>
      <trkpt lat="49.63154" lon="-1.52778">
        <ele>115.623902</ele>
        <time>2022-07-30T09:42:06.000Z</time>
      </trkpt>
      <trkpt lat="49.63153" lon="-1.52773">
        <ele>115.599403</ele>
        <time>2022-07-30T09:42:08.000Z</time>
      </trkpt>
      <trkpt lat="49.63152" lon="-1.52769">
        <ele>115.580753</ele>
        <time>2022-07-30T09:42:10.000Z</time>
      </trkpt>
      <trkpt lat="49.63154" lon="-1.52766">
        <ele>115.562407</ele>
        <time>2022-07-30T09:42:12.000Z</time>
      </trkpt>
      <trkpt lat="49.63156" lon="-1.52763">
        <ele>115.542599</ele>
        <time>2022-07-30T09:42:14.000Z</time>
      </trkpt>
      <trkpt lat="49.63157" lon="-1.52759">
        <ele>115.52014</ele>
        <time>2022-07-30T09:42:16.000Z</time>
      </trkpt>
      <trkpt lat="49.63157" lon="-1.52755">
        <ele>115.501131</ele>
        <time>2022-07-30T09:42:18.000Z</time>
      </trkpt>
      <trkpt lat="49.63162" lon="-1.52773">
        <ele>115.408363</ele>
        <time>2022-07-30T09:43:39.000Z</time>
      </trkpt>
      <trkpt lat="49.63161" lon="-1.52776">
        <ele>115.392326</ele>
        <time>2022-07-30T09:43:41.000Z</time>
      </trkpt>
      <trkpt lat="49.63162" lon="-1.52779">
        <ele>115.375857</ele>
        <time>2022-07-30T09:43:43.000Z</time>
      </trkpt>
      <trkpt lat="49.63164" lon="-1.52782">
        <ele>115.358581</ele>
        <time>2022-07-30T09:43:46.000Z</time>
      </trkpt>
      <trkpt lat="49.63163" lon="-1.5277">
        <ele>115.304366</ele>
        <time>2022-07-30T09:46:28.000Z</time>
      </trkpt>
      <trkpt lat="49.63161" lon="-1.52761">
        <ele>115.258027</ele>
        <time>2022-07-30T09:46:46.000Z</time>
      </trkpt>
      <trkpt lat="49.6316" lon="-1.52757">
        <ele>115.239535</ele>
        <time>2022-07-30T09:46:48.000Z</time>
      </trkpt>
      <trkpt lat="49.63156" lon="-1.52779">
        <ele>115.130172</ele>
        <time>2022-07-30T10:02:31.000Z</time>
      </trkpt>
      <trkpt lat="49.63156" lon="-1.52775">
        <ele>115.110156</ele>
        <time>2022-07-30T10:02:33.000Z</time>
      </trkpt>
      <trkpt lat="49.63158" lon="-1.5277">
        <ele>115.083829</ele>
        <time>2022-07-30T10:02:35.000Z</time>
      </trkpt>
      <trkpt lat="49.63158" lon="-1.52767">
        <ele>115.068102</ele>
        <time>2022-07-30T10:02:36.000Z</time>
      </trkpt>
      <trkpt lat="49.63159" lon="-1.52763">
        <ele>115.050499</ele>
        <time>2022-07-30T10:02:37.000Z</time>
      </trkpt>
      <trkpt lat="49.63159" lon="-1.52759">
        <ele>115.030199</ele>
        <time>2022-07-30T10:02:38.000Z</time>
      </trkpt>
      <trkpt lat="49.63159" lon="-1.52755">
        <ele>115.008956</ele>
        <time>2022-07-30T10:02:39.000Z</time>
      </trkpt>
      <trkpt lat="49.63158" lon="-1.5275">
        <ele>114.985878</ele>
        <time>2022-07-30T10:02:40.000Z</time>
      </trkpt>
      <trkpt lat="49.63158" lon="-1.52745">
        <ele>114.962643</ele>
        <time>2022-07-30T10:02:41.000Z</time>
      </trkpt>
      <trkpt lat="49.63157" lon="-1.5274">
        <ele>114.939737</ele>
        <time>2022-07-30T10:02:42.000Z</time>
      </trkpt>
      <trkpt lat="49.63157" lon="-1.52736">
        <ele>114.917442</ele>
        <time>2022-07-30T10:02:43.000Z</time>
      </trkpt>
      <trkpt lat="49.63156" lon="-1.52731">
        <ele>114.894215</ele>
        <time>2022-07-30T10:02:44.000Z</time>
      </trkpt>
      <trkpt lat="49.63155" lon="-1.52726">
        <ele>114.869717</ele>
        <time>2022-07-30T10:02:45.000Z</time>
      </trkpt>
      <trkpt lat="49.63154" lon="-1.52721">
        <ele>114.845568</ele>
        <time>2022-07-30T10:02:46.000Z</time>
      </trkpt>
      <trkpt lat="49.63154" lon="-1.52716">
        <ele>114.821863</ele>
        <time>2022-07-30T10:02:47.000Z</time>
      </trkpt>
      <trkpt lat="49.63153" lon="-1.52711">
        <ele>114.796865</ele>
        <time>2022-07-30T10:02:48.000Z</time>
      </trkpt>
      <trkpt lat="49.63152" lon="-1.52706">
        <ele>114.773788</ele>
        <time>2022-07-30T10:02:49.000Z</time>
      </trkpt>
      <trkpt lat="49.63151" lon="-1.52701">
        <ele>114.74818</ele>
        <time>2022-07-30T10:02:50.000Z</time>
      </trkpt>
      <trkpt lat="49.6315" lon="-1.52695">
        <ele>114.711231</ele>
        <time>2022-07-30T10:02:51.000Z</time>
      </trkpt>
      <trkpt lat="49.6315" lon="-1.5269">
        <ele>114.67337</ele>
        <time>2022-07-30T10:02:52.000Z</time>
      </trkpt>
      <trkpt lat="49.63149" lon="-1.52685">
        <ele>114.635456</ele>
        <time>2022-07-30T10:02:53.000Z</time>
      </trkpt>
      <trkpt lat="49.63148" lon="-1.5268">
        <ele>114.599459</ele>
        <time>2022-07-30T10:02:54.000Z</time>
      </trkpt>
      <trkpt lat="49.63147" lon="-1.52675">
        <ele>114.56497</ele>
        <time>2022-07-30T10:02:55.000Z</time>
      </trkpt>
      <trkpt lat="49.63147" lon="-1.52671">
        <ele>114.532437</ele>
        <time>2022-07-30T10:02:56.000Z</time>
      </trkpt>
      <trkpt lat="49.63146" lon="-1.52666">
        <ele>114.499079</ele>
        <time>2022-07-30T10:02:57.000Z</time>
      </trkpt>
      <trkpt lat="49.63146" lon="-1.52662">
        <ele>114.468645</ele>
        <time>2022-07-30T10:02:58.000Z</time>
      </trkpt>
      <trkpt lat="49.63146" lon="-1.52658">
        <ele>114.43909</ele>
        <time>2022-07-30T10:02:59.000Z</time>
      </trkpt>
      <trkpt lat="49.63146" lon="-1.52654">
        <ele>114.41564</ele>
        <time>2022-07-30T10:03:00.000Z</time>
      </trkpt>
      <trkpt lat="49.63146" lon="-1.5265">
        <ele>114.388196</ele>
        <time>2022-07-30T10:03:01.000Z</time>
      </trkpt>
      <trkpt lat="49.63146" lon="-1.52646">
        <ele>114.359161</ele>
        <time>2022-07-30T10:03:02.000Z</time>
      </trkpt>
      <trkpt lat="49.63146" lon="-1.52642">
        <ele>114.327328</ele>
        <time>2022-07-30T10:03:03.000Z</time>
      </trkpt>
      <trkpt lat="49.63146" lon="-1.52637">
        <ele>114.292693</ele>
        <time>2022-07-30T10:03:04.000Z</time>
      </trkpt>
      <trkpt lat="49.63145" lon="-1.52632">
        <ele>114.256175</ele>
        <time>2022-07-30T10:03:05.000Z</time>
      </trkpt>
      <trkpt lat="49.63144" lon="-1.52626">
        <ele>114.216731</ele>
        <time>2022-07-30T10:03:06.000Z</time>
      </trkpt>
      <trkpt lat="49.63143" lon="-1.5262">
        <ele>114.17221</ele>
        <time>2022-07-30T10:03:07.000Z</time>
      </trkpt>
      <trkpt lat="49.63142" lon="-1.52614">
        <ele>114.128871</ele>
        <time>2022-07-30T10:03:08.000Z</time>
      </trkpt>
      <trkpt lat="49.63141" lon="-1.52608">
        <ele>114.081</ele>
        <time>2022-07-30T10:03:09.000Z</time>
      </trkpt>
      <trkpt lat="49.6314" lon="-1.52601">
        <ele>114.034101</ele>
        <time>2022-07-30T10:03:10.000Z</time>
      </trkpt>
      <trkpt lat="49.63139" lon="-1.52594">
        <ele>113.982857</ele>
        <time>2022-07-30T10:03:11.000Z</time>
      </trkpt>
      <trkpt lat="49.63137" lon="-1.52587">
        <ele>113.928147</ele>
        <time>2022-07-30T10:03:12.000Z</time>
      </trkpt>
      <trkpt lat="49.63135" lon="-1.5258">
        <ele>113.873018</ele>
        <time>2022-07-30T10:03:13.000Z</time>
      </trkpt>
      <trkpt lat="49.63132" lon="-1.52573">
        <ele>113.818086</ele>
        <time>2022-07-30T10:03:14.000Z</time>
      </trkpt>
      <trkpt lat="49.63128" lon="-1.52569">
        <ele>113.763334</ele>
        <time>2022-07-30T10:03:15.000Z</time>
      </trkpt>
      <trkpt lat="49.63123" lon="-1.52567">
        <ele>113.706165</ele>
        <time>2022-07-30T10:03:16.000Z</time>
      </trkpt>
      <trkpt lat="49.63118" lon="-1.52567">
        <ele>113.653897</ele>
        <time>2022-07-30T10:03:17.000Z</time>
      </trkpt>
      <trkpt lat="49.63113" lon="-1.52567">
        <ele>113.59394</ele>
        <time>2022-07-30T10:03:18.000Z</time>
      </trkpt>
      <trkpt lat="49.63108" lon="-1.52568">
        <ele>113.541318</ele>
        <time>2022-07-30T10:03:19.000Z</time>
      </trkpt>
      <trkpt lat="49.63102" lon="-1.5257">
        <ele>113.481941</ele>
        <time>2022-07-30T10:03:20.000Z</time>
      </trkpt>
      <trkpt lat="49.63097" lon="-1.52572">
        <ele>113.423365</ele>
        <time>2022-07-30T10:03:21.000Z</time>
      </trkpt>
      <trkpt lat="49.63093" lon="-1.52576">
        <ele>113.371173</ele>
        <time>2022-07-30T10:03:22.000Z</time>
      </trkpt>
      <trkpt lat="49.63089" lon="-1.52579">
        <ele>113.32061</ele>
        <time>2022-07-30T10:03:23.000Z</time>
      </trkpt>
      <trkpt lat="49.63085" lon="-1.52582">
        <ele>113.26911</ele>
        <time>2022-07-30T10:03:24.000Z</time>
      </trkpt>
      <trkpt lat="49.6308" lon="-1.52583">
        <ele>113.216281</ele>
        <time>2022-07-30T10:03:25.000Z</time>
      </trkpt>
      <trkpt lat="49.63076" lon="-1.52583">
        <ele>113.170456</ele>
        <time>2022-07-30T10:03:26.000Z</time>
      </trkpt>
      <trkpt lat="49.63071" lon="-1.52584">
        <ele>113.121485</ele>
        <time>2022-07-30T10:03:27.000Z</time>
      </trkpt>
      <trkpt lat="49.63067" lon="-1.52584">
        <ele>113.076918</ele>
        <time>2022-07-30T10:03:28.000Z</time>
      </trkpt>
      <trkpt lat="49.63063" lon="-1.52584">
        <ele>113.031238</ele>
        <time>2022-07-30T10:03:29.000Z</time>
      </trkpt>
      <trkpt lat="49.63059" lon="-1.52584">
        <ele>112.989804</ele>
        <time>2022-07-30T10:03:30.000Z</time>
      </trkpt>
      <trkpt lat="49.63055" lon="-1.52586">
        <ele>112.943398</ele>
        <time>2022-07-30T10:03:31.000Z</time>
      </trkpt>
      <trkpt lat="49.63051" lon="-1.52587">
        <ele>112.900213</ele>
        <time>2022-07-30T10:03:32.000Z</time>
      </trkpt>
      <trkpt lat="49.63047" lon="-1.52589">
        <ele>112.86075</ele>
        <time>2022-07-30T10:03:33.000Z</time>
      </trkpt>
      <trkpt lat="49.63044" lon="-1.5259">
        <ele>112.820737</ele>
        <time>2022-07-30T10:03:34.000Z</time>
      </trkpt>
      <trkpt lat="49.63041" lon="-1.5259">
        <ele>112.790316</ele>
        <time>2022-07-30T10:03:35.000Z</time>
      </trkpt>
      <trkpt lat="49.63038" lon="-1.52589">
        <ele>112.819961</ele>
        <time>2022-07-30T10:03:36.000Z</time>
      </trkpt>
      <trkpt lat="49.63036" lon="-1.52588">
        <ele>112.854136</ele>
        <time>2022-07-30T10:03:37.000Z</time>
      </trkpt>
      <trkpt lat="49.63034" lon="-1.52585">
        <ele>112.886732</ele>
        <time>2022-07-30T10:03:38.000Z</time>
      </trkpt>
      <trkpt lat="49.63033" lon="-1.52581">
        <ele>112.918629</ele>
        <time>2022-07-30T10:03:39.000Z</time>
      </trkpt>
      <trkpt lat="49.63033" lon="-1.52577">
        <ele>112.948368</ele>
        <time>2022-07-30T10:03:40.000Z</time>
      </trkpt>
      <trkpt lat="49.63032" lon="-1.52573">
        <ele>112.977377</ele>
        <time>2022-07-30T10:03:41.000Z</time>
      </trkpt>
      <trkpt lat="49.63032" lon="-1.5257">
        <ele>113.000683</ele>
        <time>2022-07-30T10:03:42.000Z</time>
      </trkpt>
      <trkpt lat="49.63033" lon="-1.52567">
        <ele>113.034068</ele>
        <time>2022-07-30T10:03:44.000Z</time>
      </trkpt>
      <trkpt lat="49.63035" lon="-1.52565">
        <ele>113.058759</ele>
        <time>2022-07-30T10:03:45.000Z</time>
      </trkpt>
      <trkpt lat="49.63037" lon="-1.52562">
        <ele>113.087245</ele>
        <time>2022-07-30T10:03:46.000Z</time>
      </trkpt>
      <trkpt lat="49.63039" lon="-1.5256">
        <ele>113.121441</ele>
        <time>2022-07-30T10:03:47.000Z</time>
      </trkpt>
      <trkpt lat="49.63041" lon="-1.52556">
        <ele>113.153464</ele>
        <time>2022-07-30T10:03:48.000Z</time>
      </trkpt>
      <trkpt lat="49.63042" lon="-1.52552">
        <ele>113.186049</ele>
        <time>2022-07-30T10:03:49.000Z</time>
      </trkpt>
      <trkpt lat="49.63043" lon="-1.52548">
        <ele>113.220816</ele>
        <time>2022-07-30T10:03:50.000Z</time>
      </trkpt>
      <trkpt lat="49.63043" lon="-1.52545">
        <ele>113.248783</ele>
        <time>2022-07-30T10:03:51.000Z</time>
      </trkpt>
      <trkpt lat="49.63043" lon="-1.52541">
        <ele>113.277751</ele>
        <time>2022-07-30T10:03:52.000Z</time>
      </trkpt>
      <trkpt lat="49.63044" lon="-1.52538">
        <ele>113.303639</ele>
        <time>2022-07-30T10:03:53.000Z</time>
      </trkpt>
      <trkpt lat="49.63044" lon="-1.52534">
        <ele>113.332382</ele>
        <time>2022-07-30T10:03:54.000Z</time>
      </trkpt>
      <trkpt lat="49.63043" lon="-1.52531">
        <ele>113.35981</ele>
        <time>2022-07-30T10:03:55.000Z</time>
      </trkpt>
      <trkpt lat="49.63043" lon="-1.52527">
        <ele>113.388553</ele>
        <time>2022-07-30T10:03:56.000Z</time>
      </trkpt>
      <trkpt lat="49.63043" lon="-1.52523">
        <ele>113.41598</ele>
        <time>2022-07-30T10:03:57.000Z</time>
      </trkpt>
      <trkpt lat="49.63043" lon="-1.5252">
        <ele>113.443947</ele>
        <time>2022-07-30T10:03:58.000Z</time>
      </trkpt>
      <trkpt lat="49.63043" lon="-1.52516">
        <ele>113.474245</ele>
        <time>2022-07-30T10:03:59.000Z</time>
      </trkpt>
      <trkpt lat="49.63043" lon="-1.52512">
        <ele>113.501672</ele>
        <time>2022-07-30T10:04:00.000Z</time>
      </trkpt>
      <trkpt lat="49.63042" lon="-1.52509">
        <ele>113.530872</ele>
        <time>2022-07-30T10:04:01.000Z</time>
      </trkpt>
      <trkpt lat="49.63042" lon="-1.52505">
        <ele>113.55984</ele>
        <time>2022-07-30T10:04:02.000Z</time>
      </trkpt>
      <trkpt lat="49.63042" lon="-1.52502">
        <ele>113.58703</ele>
        <time>2022-07-30T10:04:03.000Z</time>
      </trkpt>
      <trkpt lat="49.63041" lon="-1.52498">
        <ele>113.612918</ele>
        <time>2022-07-30T10:04:04.000Z</time>
      </trkpt>
      <trkpt lat="49.63041" lon="-1.52495">
        <ele>113.640108</ele>
        <time>2022-07-30T10:04:05.000Z</time>
      </trkpt>
      <trkpt lat="49.63041" lon="-1.52491">
        <ele>113.669076</ele>
        <time>2022-07-30T10:04:06.000Z</time>
      </trkpt>
      <trkpt lat="49.63041" lon="-1.52488">
        <ele>113.695157</ele>
        <time>2022-07-30T10:04:07.000Z</time>
      </trkpt>
      <trkpt lat="49.63041" lon="-1.52484">
        <ele>113.722767</ele>
        <time>2022-07-30T10:04:08.000Z</time>
      </trkpt>
      <trkpt lat="49.63041" lon="-1.52481">
        <ele>113.751511</ele>
        <time>2022-07-30T10:04:09.000Z</time>
      </trkpt>
      <trkpt lat="49.63041" lon="-1.52477">
        <ele>113.779121</ele>
        <time>2022-07-30T10:04:10.000Z</time>
      </trkpt>
      <trkpt lat="49.6304" lon="-1.52474">
        <ele>113.806548</ele>
        <time>2022-07-30T10:04:11.000Z</time>
      </trkpt>
      <trkpt lat="49.6304" lon="-1.5247">
        <ele>113.832185</ele>
        <time>2022-07-30T10:04:12.000Z</time>
      </trkpt>
      <trkpt lat="49.63041" lon="-1.52467">
        <ele>113.861153</ele>
        <time>2022-07-30T10:04:13.000Z</time>
      </trkpt>
      <trkpt lat="49.63041" lon="-1.52463">
        <ele>113.890674</ele>
        <time>2022-07-30T10:04:14.000Z</time>
      </trkpt>
      <trkpt lat="49.63041" lon="-1.52459">
        <ele>113.920971</ele>
        <time>2022-07-30T10:04:15.000Z</time>
      </trkpt>
      <trkpt lat="49.63041" lon="-1.52455">
        <ele>113.950492</ele>
        <time>2022-07-30T10:04:16.000Z</time>
      </trkpt>
      <trkpt lat="49.63041" lon="-1.52451">
        <ele>113.979633</ele>
        <time>2022-07-30T10:04:17.000Z</time>
      </trkpt>
      <trkpt lat="49.63041" lon="-1.52448">
        <ele>114.0076</ele>
        <time>2022-07-30T10:04:18.000Z</time>
      </trkpt>
      <trkpt lat="49.63041" lon="-1.52444">
        <ele>114.038111</ele>
        <time>2022-07-30T10:04:19.000Z</time>
      </trkpt>
      <trkpt lat="49.63041" lon="-1.5244">
        <ele>114.067631</ele>
        <time>2022-07-30T10:04:20.000Z</time>
      </trkpt>
      <trkpt lat="49.63041" lon="-1.52436">
        <ele>114.096375</ele>
        <time>2022-07-30T10:04:21.000Z</time>
      </trkpt>
      <trkpt lat="49.63041" lon="-1.52433">
        <ele>114.126114</ele>
        <time>2022-07-30T10:04:22.000Z</time>
      </trkpt>
      <trkpt lat="49.63041" lon="-1.52429">
        <ele>114.151432</ele>
        <time>2022-07-30T10:04:23.000Z</time>
      </trkpt>
      <trkpt lat="49.63039" lon="-1.52425">
        <ele>114.189238</ele>
        <time>2022-07-30T10:04:25.000Z</time>
      </trkpt>
      <trkpt lat="49.63039" lon="-1.52422">
        <ele>114.213032</ele>
        <time>2022-07-30T10:04:27.000Z</time>
      </trkpt>
      <trkpt lat="49.6304" lon="-1.52413">
        <ele>114.284223</ele>
        <time>2022-07-30T10:05:33.000Z</time>
      </trkpt>
      <trkpt lat="49.63039" lon="-1.52408">
        <ele>114.320913</ele>
        <time>2022-07-30T10:05:34.000Z</time>
      </trkpt>
      <trkpt lat="49.63039" lon="-1.52403">
        <ele>114.359756</ele>
        <time>2022-07-30T10:05:35.000Z</time>
      </trkpt>
      <trkpt lat="49.63039" lon="-1.52398">
        <ele>114.400436</ele>
        <time>2022-07-30T10:05:36.000Z</time>
      </trkpt>
      <trkpt lat="49.63039" lon="-1.52392">
        <ele>114.443315</ele>
        <time>2022-07-30T10:05:37.000Z</time>
      </trkpt>
      <trkpt lat="49.63038" lon="-1.52387">
        <ele>114.486967</ele>
        <time>2022-07-30T10:05:38.000Z</time>
      </trkpt>
      <trkpt lat="49.63038" lon="-1.52381">
        <ele>114.532802</ele>
        <time>2022-07-30T10:05:39.000Z</time>
      </trkpt>
      <trkpt lat="49.63038" lon="-1.52375">
        <ele>114.580191</ele>
        <time>2022-07-30T10:05:40.000Z</time>
      </trkpt>
      <trkpt lat="49.63037" lon="-1.52369">
        <ele>114.626067</ele>
        <time>2022-07-30T10:05:41.000Z</time>
      </trkpt>
      <trkpt lat="49.63037" lon="-1.52363">
        <ele>114.670348</ele>
        <time>2022-07-30T10:05:42.000Z</time>
      </trkpt>
      <trkpt lat="49.63037" lon="-1.52357">
        <ele>114.717098</ele>
        <time>2022-07-30T10:05:43.000Z</time>
      </trkpt>
      <trkpt lat="49.63037" lon="-1.52351">
        <ele>114.764487</ele>
        <time>2022-07-30T10:05:44.000Z</time>
      </trkpt>
      <trkpt lat="49.63037" lon="-1.52345">
        <ele>114.815111</ele>
        <time>2022-07-30T10:05:45.000Z</time>
      </trkpt>
      <trkpt lat="49.63037" lon="-1.52339">
        <ele>114.863276</ele>
        <time>2022-07-30T10:05:46.000Z</time>
      </trkpt>
      <trkpt lat="49.63037" lon="-1.52332">
        <ele>114.911576</ele>
        <time>2022-07-30T10:05:47.000Z</time>
      </trkpt>
      <trkpt lat="49.63037" lon="-1.52326">
        <ele>114.962221</ele>
        <time>2022-07-30T10:05:48.000Z</time>
      </trkpt>
      <trkpt lat="49.63037" lon="-1.52319">
        <ele>115.013989</ele>
        <time>2022-07-30T10:05:49.000Z</time>
      </trkpt>
      <trkpt lat="49.63037" lon="-1.52313">
        <ele>115.066542</ele>
        <time>2022-07-30T10:05:50.000Z</time>
      </trkpt>
      <trkpt lat="49.63037" lon="-1.52306">
        <ele>115.121568</ele>
        <time>2022-07-30T10:05:51.000Z</time>
      </trkpt>
      <trkpt lat="49.63037" lon="-1.52298">
        <ele>115.178827</ele>
        <time>2022-07-30T10:05:52.000Z</time>
      </trkpt>
      <trkpt lat="49.63037" lon="-1.52291">
        <ele>115.237655</ele>
        <time>2022-07-30T10:05:53.000Z</time>
      </trkpt>
      <trkpt lat="49.63037" lon="-1.52283">
        <ele>115.298051</ele>
        <time>2022-07-30T10:05:54.000Z</time>
      </trkpt>
      <trkpt lat="49.63037" lon="-1.52275">
        <ele>115.360801</ele>
        <time>2022-07-30T10:05:55.000Z</time>
      </trkpt>
      <trkpt lat="49.63037" lon="-1.52267">
        <ele>115.422089</ele>
        <time>2022-07-30T10:05:56.000Z</time>
      </trkpt>
      <trkpt lat="49.63037" lon="-1.5226">
        <ele>115.482486</ele>
        <time>2022-07-30T10:05:57.000Z</time>
      </trkpt>
      <trkpt lat="49.63037" lon="-1.52252">
        <ele>115.542882</ele>
        <time>2022-07-30T10:05:58.000Z</time>
      </trkpt>
      <trkpt lat="49.63036" lon="-1.52245">
        <ele>115.599214</ele>
        <time>2022-07-30T10:05:59.000Z</time>
      </trkpt>
      <trkpt lat="49.63036" lon="-1.52237">
        <ele>115.657257</ele>
        <time>2022-07-30T10:06:00.000Z</time>
      </trkpt>
      <trkpt lat="49.63036" lon="-1.52231">
        <ele>115.710718</ele>
        <time>2022-07-30T10:06:01.000Z</time>
      </trkpt>
      <trkpt lat="49.63035" lon="-1.52224">
        <ele>115.764179</ele>
        <time>2022-07-30T10:06:02.000Z</time>
      </trkpt>
      <trkpt lat="49.63035" lon="-1.52217">
        <ele>115.8183</ele>
        <time>2022-07-30T10:06:03.000Z</time>
      </trkpt>
      <trkpt lat="49.63035" lon="-1.5221">
        <ele>115.869284</ele>
        <time>2022-07-30T10:06:04.000Z</time>
      </trkpt>
      <trkpt lat="49.63035" lon="-1.52204">
        <ele>115.918833</ele>
        <time>2022-07-30T10:06:05.000Z</time>
      </trkpt>
      <trkpt lat="49.63035" lon="-1.52198">
        <ele>115.965895</ele>
        <time>2022-07-30T10:06:06.000Z</time>
      </trkpt>
      <trkpt lat="49.63035" lon="-1.52192">
        <ele>116.010604</ele>
        <time>2022-07-30T10:06:07.000Z</time>
      </trkpt>
      <trkpt lat="49.63035" lon="-1.52187">
        <ele>116.052334</ele>
        <time>2022-07-30T10:06:08.000Z</time>
      </trkpt>
      <trkpt lat="49.63035" lon="-1.52181">
        <ele>116.097043</ele>
        <time>2022-07-30T10:06:09.000Z</time>
      </trkpt>
      <trkpt lat="49.63034" lon="-1.52176">
        <ele>116.141008</ele>
        <time>2022-07-30T10:06:10.000Z</time>
      </trkpt>
      <trkpt lat="49.63034" lon="-1.52171">
        <ele>116.182738</ele>
        <time>2022-07-30T10:06:11.000Z</time>
      </trkpt>
      <trkpt lat="49.63033" lon="-1.52165">
        <ele>116.22494</ele>
        <time>2022-07-30T10:06:12.000Z</time>
      </trkpt>
      <trkpt lat="49.63032" lon="-1.52161">
        <ele>116.263744</ele>
        <time>2022-07-30T10:06:13.000Z</time>
      </trkpt>
      <trkpt lat="49.63031" lon="-1.52156">
        <ele>116.304789</ele>
        <time>2022-07-30T10:06:14.000Z</time>
      </trkpt>
      <trkpt lat="49.63029" lon="-1.52152">
        <ele>116.340339</ele>
        <time>2022-07-30T10:06:15.000Z</time>
      </trkpt>
      <trkpt lat="49.63029" lon="-1.52148">
        <ele>116.372813</ele>
        <time>2022-07-30T10:06:16.000Z</time>
      </trkpt>
      <trkpt lat="49.63027" lon="-1.52144">
        <ele>116.406415</ele>
        <time>2022-07-30T10:06:17.000Z</time>
      </trkpt>
      <trkpt lat="49.63025" lon="-1.52141">
        <ele>116.44284</ele>
        <time>2022-07-30T10:06:18.000Z</time>
      </trkpt>
      <trkpt lat="49.63023" lon="-1.52137">
        <ele>116.477735</ele>
        <time>2022-07-30T10:06:19.000Z</time>
      </trkpt>
      <trkpt lat="49.63022" lon="-1.52133">
        <ele>116.513285</ele>
        <time>2022-07-30T10:06:20.000Z</time>
      </trkpt>
      <trkpt lat="49.63021" lon="-1.52129">
        <ele>116.547689</ele>
        <time>2022-07-30T10:06:21.000Z</time>
      </trkpt>
      <trkpt lat="49.63018" lon="-1.52126">
        <ele>116.589982</ele>
        <time>2022-07-30T10:06:22.000Z</time>
      </trkpt>
      <trkpt lat="49.63016" lon="-1.52123">
        <ele>116.625527</ele>
        <time>2022-07-30T10:06:23.000Z</time>
      </trkpt>
      <trkpt lat="49.63013" lon="-1.5212">
        <ele>116.661989</ele>
        <time>2022-07-30T10:06:24.000Z</time>
      </trkpt>
      <trkpt lat="49.63011" lon="-1.52117">
        <ele>116.70282</ele>
        <time>2022-07-30T10:06:25.000Z</time>
      </trkpt>
      <trkpt lat="49.63008" lon="-1.52114">
        <ele>116.741208</ele>
        <time>2022-07-30T10:06:26.000Z</time>
      </trkpt>
      <trkpt lat="49.63006" lon="-1.52112">
        <ele>116.774288</ele>
        <time>2022-07-30T10:06:27.000Z</time>
      </trkpt>
      <trkpt lat="49.63004" lon="-1.52109">
        <ele>116.804488</ele>
        <time>2022-07-30T10:06:28.000Z</time>
      </trkpt>
      <trkpt lat="49.63002" lon="-1.52107">
        <ele>116.83623</ele>
        <time>2022-07-30T10:06:29.000Z</time>
      </trkpt>
      <trkpt lat="49.62999" lon="-1.52105">
        <ele>116.867147</ele>
        <time>2022-07-30T10:06:30.000Z</time>
      </trkpt>
      <trkpt lat="49.62997" lon="-1.52103">
        <ele>116.901654</ele>
        <time>2022-07-30T10:06:31.000Z</time>
      </trkpt>
      <trkpt lat="49.62994" lon="-1.52102">
        <ele>116.93869</ele>
        <time>2022-07-30T10:06:32.000Z</time>
      </trkpt>
      <trkpt lat="49.62991" lon="-1.521">
        <ele>116.977153</ele>
        <time>2022-07-30T10:06:33.000Z</time>
      </trkpt>
      <trkpt lat="49.62988" lon="-1.52098">
        <ele>117.021586</ele>
        <time>2022-07-30T10:06:34.000Z</time>
      </trkpt>
      <trkpt lat="49.62985" lon="-1.52096">
        <ele>117.05499</ele>
        <time>2022-07-30T10:06:35.000Z</time>
      </trkpt>
      <trkpt lat="49.62982" lon="-1.52094">
        <ele>117.093453</ele>
        <time>2022-07-30T10:06:36.000Z</time>
      </trkpt>
      <trkpt lat="49.6298" lon="-1.52093">
        <ele>117.129989</ele>
        <time>2022-07-30T10:06:37.000Z</time>
      </trkpt>
      <trkpt lat="49.62977" lon="-1.5209">
        <ele>117.187316</ele>
        <time>2022-07-30T10:06:38.000Z</time>
      </trkpt>
      <trkpt lat="49.62975" lon="-1.52088">
        <ele>117.247249</ele>
        <time>2022-07-30T10:06:39.000Z</time>
      </trkpt>
      <trkpt lat="49.62972" lon="-1.52086">
        <ele>117.324448</ele>
        <time>2022-07-30T10:06:40.000Z</time>
      </trkpt>
      <trkpt lat="49.6297" lon="-1.52083">
        <ele>117.384192</ele>
        <time>2022-07-30T10:06:41.000Z</time>
      </trkpt>
      <trkpt lat="49.62967" lon="-1.52081">
        <ele>117.452723</ele>
        <time>2022-07-30T10:06:42.000Z</time>
      </trkpt>
      <trkpt lat="49.62964" lon="-1.52079">
        <ele>117.534346</ele>
        <time>2022-07-30T10:06:43.000Z</time>
      </trkpt>
      <trkpt lat="49.62961" lon="-1.52077">
        <ele>117.5888</ele>
        <time>2022-07-30T10:06:44.000Z</time>
      </trkpt>
      <trkpt lat="49.62958" lon="-1.52074">
        <ele>117.661443</ele>
        <time>2022-07-30T10:06:45.000Z</time>
      </trkpt>
      <trkpt lat="49.62956" lon="-1.52072">
        <ele>117.727696</ele>
        <time>2022-07-30T10:06:46.000Z</time>
      </trkpt>
      <trkpt lat="49.62953" lon="-1.52069">
        <ele>117.792841</ele>
        <time>2022-07-30T10:06:47.000Z</time>
      </trkpt>
      <trkpt lat="49.6295" lon="-1.52067">
        <ele>117.868887</ele>
        <time>2022-07-30T10:06:48.000Z</time>
      </trkpt>
      <trkpt lat="49.62948" lon="-1.52065">
        <ele>117.935878</ele>
        <time>2022-07-30T10:06:49.000Z</time>
      </trkpt>
      <trkpt lat="49.62945" lon="-1.52062">
        <ele>117.994794</ele>
        <time>2022-07-30T10:06:50.000Z</time>
      </trkpt>
      <trkpt lat="49.62942" lon="-1.5206">
        <ele>118.071993</ele>
        <time>2022-07-30T10:06:51.000Z</time>
      </trkpt>
      <trkpt lat="49.62939" lon="-1.52058">
        <ele>118.144636</ele>
        <time>2022-07-30T10:06:52.000Z</time>
      </trkpt>
      <trkpt lat="49.62936" lon="-1.52055">
        <ele>118.225081</ele>
        <time>2022-07-30T10:06:53.000Z</time>
      </trkpt>
      <trkpt lat="49.62933" lon="-1.52052">
        <ele>118.301428</ele>
        <time>2022-07-30T10:06:54.000Z</time>
      </trkpt>
      <trkpt lat="49.6293" lon="-1.52048">
        <ele>118.381069</ele>
        <time>2022-07-30T10:06:55.000Z</time>
      </trkpt>
      <trkpt lat="49.62928" lon="-1.52045">
        <ele>118.45032</ele>
        <time>2022-07-30T10:06:56.000Z</time>
      </trkpt>
      <trkpt lat="49.62925" lon="-1.52043">
        <ele>118.529407</ele>
        <time>2022-07-30T10:06:57.000Z</time>
      </trkpt>
      <trkpt lat="49.62921" lon="-1.5204">
        <ele>118.61056</ele>
        <time>2022-07-30T10:06:58.000Z</time>
      </trkpt>
      <trkpt lat="49.62918" lon="-1.52037">
        <ele>118.693184</ele>
        <time>2022-07-30T10:06:59.000Z</time>
      </trkpt>
      <trkpt lat="49.62915" lon="-1.52034">
        <ele>118.776569</ele>
        <time>2022-07-30T10:07:00.000Z</time>
      </trkpt>
      <trkpt lat="49.62912" lon="-1.52031">
        <ele>118.852916</ele>
        <time>2022-07-30T10:07:01.000Z</time>
      </trkpt>
      <trkpt lat="49.62909" lon="-1.52028">
        <ele>118.932673</ele>
        <time>2022-07-30T10:07:02.000Z</time>
      </trkpt>
      <trkpt lat="49.62906" lon="-1.52025">
        <ele>119.013118</ele>
        <time>2022-07-30T10:07:03.000Z</time>
      </trkpt>
      <trkpt lat="49.62903" lon="-1.52022">
        <ele>119.087184</ele>
        <time>2022-07-30T10:07:04.000Z</time>
      </trkpt>
      <trkpt lat="49.629" lon="-1.5202">
        <ele>119.164383</ele>
        <time>2022-07-30T10:07:05.000Z</time>
      </trkpt>
      <trkpt lat="49.62897" lon="-1.52018">
        <ele>119.232227</ele>
        <time>2022-07-30T10:07:06.000Z</time>
      </trkpt>
      <trkpt lat="49.62894" lon="-1.52017">
        <ele>119.297047</ele>
        <time>2022-07-30T10:07:07.000Z</time>
      </trkpt>
      <trkpt lat="49.6289" lon="-1.52015">
        <ele>119.381214</ele>
        <time>2022-07-30T10:07:08.000Z</time>
      </trkpt>
      <trkpt lat="49.62887" lon="-1.52012">
        <ele>119.459651</ele>
        <time>2022-07-30T10:07:09.000Z</time>
      </trkpt>
      <trkpt lat="49.62884" lon="-1.5201">
        <ele>119.537459</ele>
        <time>2022-07-30T10:07:10.000Z</time>
      </trkpt>
      <trkpt lat="49.62881" lon="-1.52008">
        <ele>119.611946</ele>
        <time>2022-07-30T10:07:11.000Z</time>
      </trkpt>
      <trkpt lat="49.62878" lon="-1.52007">
        <ele>119.668428</ele>
        <time>2022-07-30T10:07:12.000Z</time>
      </trkpt>
      <trkpt lat="49.62875" lon="-1.52006">
        <ele>119.740797</ele>
        <time>2022-07-30T10:07:13.000Z</time>
      </trkpt>
      <trkpt lat="49.62872" lon="-1.52005">
        <ele>119.812818</ele>
        <time>2022-07-30T10:07:14.000Z</time>
      </trkpt>
      <trkpt lat="49.62868" lon="-1.52003">
        <ele>119.89155</ele>
        <time>2022-07-30T10:07:15.000Z</time>
      </trkpt>
      <trkpt lat="49.62865" lon="-1.52002">
        <ele>119.972099</ele>
        <time>2022-07-30T10:07:16.000Z</time>
      </trkpt>
      <trkpt lat="49.62862" lon="-1.52001">
        <ele>120.029357</ele>
        <time>2022-07-30T10:07:17.000Z</time>
      </trkpt>
      <trkpt lat="49.6286" lon="-1.52">
        <ele>120.082925</ele>
        <time>2022-07-30T10:07:18.000Z</time>
      </trkpt>
      <trkpt lat="49.62857" lon="-1.51998">
        <ele>120.146873</ele>
        <time>2022-07-30T10:07:19.000Z</time>
      </trkpt>
      <trkpt lat="49.62854" lon="-1.51997">
        <ele>120.211861</ele>
        <time>2022-07-30T10:07:20.000Z</time>
      </trkpt>
      <trkpt lat="49.62851" lon="-1.51996">
        <ele>120.282999</ele>
        <time>2022-07-30T10:07:21.000Z</time>
      </trkpt>
      <trkpt lat="49.62848" lon="-1.51995">
        <ele>120.34831</ele>
        <time>2022-07-30T10:07:22.000Z</time>
      </trkpt>
      <trkpt lat="49.62845" lon="-1.51994">
        <ele>120.419716</ele>
        <time>2022-07-30T10:07:23.000Z</time>
      </trkpt>
      <trkpt lat="49.62842" lon="-1.51993">
        <ele>120.479066</ele>
        <time>2022-07-30T10:07:24.000Z</time>
      </trkpt>
      <trkpt lat="49.62839" lon="-1.51992">
        <ele>120.558509</ele>
        <time>2022-07-30T10:07:25.000Z</time>
      </trkpt>
      <trkpt lat="49.62836" lon="-1.5199">
        <ele>120.624173</ele>
        <time>2022-07-30T10:07:26.000Z</time>
      </trkpt>
      <trkpt lat="49.62833" lon="-1.51989">
        <ele>120.683361</ele>
        <time>2022-07-30T10:07:27.000Z</time>
      </trkpt>
      <trkpt lat="49.62831" lon="-1.51987">
        <ele>120.73139</ele>
        <time>2022-07-30T10:07:28.000Z</time>
      </trkpt>
      <trkpt lat="49.62829" lon="-1.51985">
        <ele>120.781323</ele>
        <time>2022-07-30T10:07:29.000Z</time>
      </trkpt>
      <trkpt lat="49.62827" lon="-1.51984">
        <ele>120.833922</ele>
        <time>2022-07-30T10:07:30.000Z</time>
      </trkpt>
      <trkpt lat="49.62824" lon="-1.51983">
        <ele>120.899234</ele>
        <time>2022-07-30T10:07:31.000Z</time>
      </trkpt>
      <trkpt lat="49.62821" lon="-1.51982">
        <ele>120.977081</ele>
        <time>2022-07-30T10:07:32.000Z</time>
      </trkpt>
      <trkpt lat="49.62817" lon="-1.5198">
        <ele>121.06441</ele>
        <time>2022-07-30T10:07:33.000Z</time>
      </trkpt>
      <trkpt lat="49.62813" lon="-1.51979">
        <ele>121.10091</ele>
        <time>2022-07-30T10:07:34.000Z</time>
      </trkpt>
      <trkpt lat="49.62809" lon="-1.51976">
        <ele>121.146228</ele>
        <time>2022-07-30T10:07:35.000Z</time>
      </trkpt>
      <trkpt lat="49.62805" lon="-1.51973">
        <ele>121.186165</ele>
        <time>2022-07-30T10:07:36.000Z</time>
      </trkpt>
      <trkpt lat="49.62803" lon="-1.51972">
        <ele>121.215947</ele>
        <time>2022-07-30T10:07:37.000Z</time>
      </trkpt>
      <trkpt lat="49.62798" lon="-1.5197">
        <ele>121.259124</ele>
        <time>2022-07-30T10:07:38.000Z</time>
      </trkpt>
      <trkpt lat="49.62795" lon="-1.5197">
        <ele>121.297662</ele>
        <time>2022-07-30T10:07:39.000Z</time>
      </trkpt>
      <trkpt lat="49.62791" lon="-1.51968">
        <ele>121.334813</ele>
        <time>2022-07-30T10:07:40.000Z</time>
      </trkpt>
      <trkpt lat="49.62789" lon="-1.51967">
        <ele>121.361536</ele>
        <time>2022-07-30T10:07:41.000Z</time>
      </trkpt>
      <trkpt lat="49.62786" lon="-1.51966">
        <ele>121.391544</ele>
        <time>2022-07-30T10:07:42.000Z</time>
      </trkpt>
      <trkpt lat="49.62783" lon="-1.51964">
        <ele>121.422277</ele>
        <time>2022-07-30T10:07:43.000Z</time>
      </trkpt>
      <trkpt lat="49.62779" lon="-1.51962">
        <ele>121.46076</ele>
        <time>2022-07-30T10:07:44.000Z</time>
      </trkpt>
      <trkpt lat="49.62776" lon="-1.5196">
        <ele>121.492676</ele>
        <time>2022-07-30T10:07:45.000Z</time>
      </trkpt>
      <trkpt lat="49.62773" lon="-1.51958">
        <ele>121.524864</ele>
        <time>2022-07-30T10:07:46.000Z</time>
      </trkpt>
      <trkpt lat="49.6277" lon="-1.51955">
        <ele>121.567459</ele>
        <time>2022-07-30T10:07:47.000Z</time>
      </trkpt>
      <trkpt lat="49.62766" lon="-1.51952">
        <ele>121.605079</ele>
        <time>2022-07-30T10:07:48.000Z</time>
      </trkpt>
      <trkpt lat="49.62763" lon="-1.51949">
        <ele>121.647967</ele>
        <time>2022-07-30T10:07:49.000Z</time>
      </trkpt>
      <trkpt lat="49.62759" lon="-1.51945">
        <ele>121.691068</ele>
        <time>2022-07-30T10:07:50.000Z</time>
      </trkpt>
      <trkpt lat="49.62757" lon="-1.51941">
        <ele>121.722831</ele>
        <time>2022-07-30T10:07:51.000Z</time>
      </trkpt>
      <trkpt lat="49.62755" lon="-1.51938">
        <ele>121.756005</ele>
        <time>2022-07-30T10:07:52.000Z</time>
      </trkpt>
      <trkpt lat="49.62753" lon="-1.51934">
        <ele>121.786605</ele>
        <time>2022-07-30T10:07:53.000Z</time>
      </trkpt>
      <trkpt lat="49.62751" lon="-1.5193">
        <ele>121.820457</ele>
        <time>2022-07-30T10:07:54.000Z</time>
      </trkpt>
      <trkpt lat="49.62749" lon="-1.51926">
        <ele>121.85617</ele>
        <time>2022-07-30T10:07:55.000Z</time>
      </trkpt>
      <trkpt lat="49.62746" lon="-1.51922">
        <ele>121.894393</ele>
        <time>2022-07-30T10:07:56.000Z</time>
      </trkpt>
      <trkpt lat="49.62742" lon="-1.51919">
        <ele>121.935604</ele>
        <time>2022-07-30T10:07:57.000Z</time>
      </trkpt>
      <trkpt lat="49.6274" lon="-1.51916">
        <ele>121.967091</ele>
        <time>2022-07-30T10:07:58.000Z</time>
      </trkpt>
      <trkpt lat="49.62737" lon="-1.51914">
        <ele>121.997022</ele>
        <time>2022-07-30T10:07:59.000Z</time>
      </trkpt>
      <trkpt lat="49.62735" lon="-1.5191">
        <ele>122.028135</ele>
        <time>2022-07-30T10:08:00.000Z</time>
      </trkpt>
      <trkpt lat="49.62732" lon="-1.51907">
        <ele>122.067922</ele>
        <time>2022-07-30T10:08:01.000Z</time>
      </trkpt>
      <trkpt lat="49.6273" lon="-1.51903">
        <ele>122.100208</ele>
        <time>2022-07-30T10:08:02.000Z</time>
      </trkpt>
      <trkpt lat="49.62727" lon="-1.51899">
        <ele>122.13387</ele>
        <time>2022-07-30T10:08:03.000Z</time>
      </trkpt>
      <trkpt lat="49.62725" lon="-1.51895">
        <ele>122.16574</ele>
        <time>2022-07-30T10:08:04.000Z</time>
      </trkpt>
      <trkpt lat="49.62723" lon="-1.51891">
        <ele>122.200541</ele>
        <time>2022-07-30T10:08:05.000Z</time>
      </trkpt>
      <trkpt lat="49.62721" lon="-1.51887">
        <ele>122.235844</ele>
        <time>2022-07-30T10:08:06.000Z</time>
      </trkpt>
      <trkpt lat="49.62719" lon="-1.51883">
        <ele>122.268131</ele>
        <time>2022-07-30T10:08:07.000Z</time>
      </trkpt>
      <trkpt lat="49.62717" lon="-1.5188">
        <ele>122.296386</ele>
        <time>2022-07-30T10:08:08.000Z</time>
      </trkpt>
      <trkpt lat="49.62715" lon="-1.51877">
        <ele>122.323696</ele>
        <time>2022-07-30T10:08:09.000Z</time>
      </trkpt>
      <trkpt lat="49.62712" lon="-1.51874">
        <ele>122.35836</ele>
        <time>2022-07-30T10:08:10.000Z</time>
      </trkpt>
      <trkpt lat="49.6271" lon="-1.5187">
        <ele>122.392273</ele>
        <time>2022-07-30T10:08:11.000Z</time>
      </trkpt>
      <trkpt lat="49.62708" lon="-1.51867">
        <ele>122.421216</ele>
        <time>2022-07-30T10:08:12.000Z</time>
      </trkpt>
      <trkpt lat="49.62706" lon="-1.51864">
        <ele>122.448047</ele>
        <time>2022-07-30T10:08:13.000Z</time>
      </trkpt>
      <trkpt lat="49.62704" lon="-1.5186">
        <ele>122.476785</ele>
        <time>2022-07-30T10:08:14.000Z</time>
      </trkpt>
      <trkpt lat="49.62703" lon="-1.51857">
        <ele>122.502484</ele>
        <time>2022-07-30T10:08:15.000Z</time>
      </trkpt>
      <trkpt lat="49.62701" lon="-1.51854">
        <ele>122.531222</ele>
        <time>2022-07-30T10:08:16.000Z</time>
      </trkpt>
      <trkpt lat="49.627" lon="-1.5185">
        <ele>122.560179</ele>
        <time>2022-07-30T10:08:17.000Z</time>
      </trkpt>
      <trkpt lat="49.62698" lon="-1.51846">
        <ele>122.589309</ele>
        <time>2022-07-30T10:08:18.000Z</time>
      </trkpt>
      <trkpt lat="49.62698" lon="-1.51842">
        <ele>122.616669</ele>
        <time>2022-07-30T10:08:19.000Z</time>
      </trkpt>
      <trkpt lat="49.62697" lon="-1.51837">
        <ele>122.646574</ele>
        <time>2022-07-30T10:08:20.000Z</time>
      </trkpt>
      <trkpt lat="49.62696" lon="-1.51833">
        <ele>122.679839</ele>
        <time>2022-07-30T10:08:21.000Z</time>
      </trkpt>
      <trkpt lat="49.62695" lon="-1.51829">
        <ele>122.704756</ele>
        <time>2022-07-30T10:08:22.000Z</time>
      </trkpt>
      <trkpt lat="49.62694" lon="-1.51823">
        <ele>122.743195</ele>
        <time>2022-07-30T10:08:23.000Z</time>
      </trkpt>
      <trkpt lat="49.62694" lon="-1.51819">
        <ele>122.768112</ele>
        <time>2022-07-30T10:08:24.000Z</time>
      </trkpt>
      <trkpt lat="49.62694" lon="-1.51814">
        <ele>122.804039</ele>
        <time>2022-07-30T10:08:25.000Z</time>
      </trkpt>
      <trkpt lat="49.62694" lon="-1.51809">
        <ele>122.834631</ele>
        <time>2022-07-30T10:08:26.000Z</time>
      </trkpt>
      <trkpt lat="49.62694" lon="-1.51804">
        <ele>122.865224</ele>
        <time>2022-07-30T10:08:27.000Z</time>
      </trkpt>
      <trkpt lat="49.62693" lon="-1.518">
        <ele>122.879461</ele>
        <time>2022-07-30T10:08:28.000Z</time>
      </trkpt>
      <trkpt lat="49.62693" lon="-1.51795">
        <ele>122.893521</ele>
        <time>2022-07-30T10:08:29.000Z</time>
      </trkpt>
      <trkpt lat="49.62693" lon="-1.5179">
        <ele>122.908542</ele>
        <time>2022-07-30T10:08:30.000Z</time>
      </trkpt>
      <trkpt lat="49.62693" lon="-1.51785">
        <ele>122.924097</ele>
        <time>2022-07-30T10:08:31.000Z</time>
      </trkpt>
      <trkpt lat="49.62693" lon="-1.5178">
        <ele>122.939416</ele>
        <time>2022-07-30T10:08:32.000Z</time>
      </trkpt>
      <trkpt lat="49.62692" lon="-1.51774">
        <ele>122.955806</ele>
        <time>2022-07-30T10:08:33.000Z</time>
      </trkpt>
      <trkpt lat="49.62692" lon="-1.51769">
        <ele>122.971108</ele>
        <time>2022-07-30T10:08:34.000Z</time>
      </trkpt>
      <trkpt lat="49.62691" lon="-1.51765">
        <ele>122.985534</ele>
        <time>2022-07-30T10:08:35.000Z</time>
      </trkpt>
      <trkpt lat="49.62691" lon="-1.5176">
        <ele>122.999661</ele>
        <time>2022-07-30T10:08:36.000Z</time>
      </trkpt>
      <trkpt lat="49.62691" lon="-1.51755">
        <ele>123.014618</ele>
        <time>2022-07-30T10:08:37.000Z</time>
      </trkpt>
      <trkpt lat="49.62691" lon="-1.5175">
        <ele>123.029575</ele>
        <time>2022-07-30T10:08:38.000Z</time>
      </trkpt>
      <trkpt lat="49.62691" lon="-1.51745">
        <ele>123.044831</ele>
        <time>2022-07-30T10:08:39.000Z</time>
      </trkpt>
      <trkpt lat="49.6269" lon="-1.51739">
        <ele>123.061305</ele>
        <time>2022-07-30T10:08:40.000Z</time>
      </trkpt>
      <trkpt lat="49.6269" lon="-1.51734">
        <ele>123.078114</ele>
        <time>2022-07-30T10:08:41.000Z</time>
      </trkpt>
      <trkpt lat="49.6269" lon="-1.51728">
        <ele>123.094625</ele>
        <time>2022-07-30T10:08:42.000Z</time>
      </trkpt>
      <trkpt lat="49.62689" lon="-1.51723">
        <ele>123.111136</ele>
        <time>2022-07-30T10:08:43.000Z</time>
      </trkpt>
      <trkpt lat="49.62688" lon="-1.51717">
        <ele>123.128225</ele>
        <time>2022-07-30T10:08:44.000Z</time>
      </trkpt>
      <trkpt lat="49.62687" lon="-1.51712">
        <ele>123.144326</ele>
        <time>2022-07-30T10:08:45.000Z</time>
      </trkpt>
      <trkpt lat="49.62686" lon="-1.51707">
        <ele>123.161008</ele>
        <time>2022-07-30T10:08:46.000Z</time>
      </trkpt>
      <trkpt lat="49.62684" lon="-1.51702">
        <ele>123.17783</ele>
        <time>2022-07-30T10:08:47.000Z</time>
      </trkpt>
      <trkpt lat="49.62682" lon="-1.51697">
        <ele>123.195171</ele>
        <time>2022-07-30T10:08:48.000Z</time>
      </trkpt>
      <trkpt lat="49.6268" lon="-1.51692">
        <ele>123.212512</ele>
        <time>2022-07-30T10:08:49.000Z</time>
      </trkpt>
      <trkpt lat="49.62678" lon="-1.51687">
        <ele>123.229852</ele>
        <time>2022-07-30T10:08:50.000Z</time>
      </trkpt>
      <trkpt lat="49.62676" lon="-1.51683">
        <ele>123.247713</ele>
        <time>2022-07-30T10:08:51.000Z</time>
      </trkpt>
      <trkpt lat="49.62674" lon="-1.51677">
        <ele>123.266543</ele>
        <time>2022-07-30T10:08:52.000Z</time>
      </trkpt>
      <trkpt lat="49.62672" lon="-1.51672">
        <ele>123.284403</ele>
        <time>2022-07-30T10:08:53.000Z</time>
      </trkpt>
      <trkpt lat="49.62669" lon="-1.51667">
        <ele>123.303486</ele>
        <time>2022-07-30T10:08:54.000Z</time>
      </trkpt>
      <trkpt lat="49.62668" lon="-1.51662">
        <ele>123.32057</ele>
        <time>2022-07-30T10:08:55.000Z</time>
      </trkpt>
      <trkpt lat="49.62665" lon="-1.51657">
        <ele>123.337435</ele>
        <time>2022-07-30T10:08:56.000Z</time>
      </trkpt>
      <trkpt lat="49.62663" lon="-1.51653">
        <ele>123.353503</ele>
        <time>2022-07-30T10:08:57.000Z</time>
      </trkpt>
      <trkpt lat="49.62661" lon="-1.51648">
        <ele>123.371363</ele>
        <time>2022-07-30T10:08:58.000Z</time>
      </trkpt>
      <trkpt lat="49.62659" lon="-1.51643">
        <ele>123.388191</ele>
        <time>2022-07-30T10:08:59.000Z</time>
      </trkpt>
      <trkpt lat="49.62657" lon="-1.51638">
        <ele>123.405532</ele>
        <time>2022-07-30T10:09:00.000Z</time>
      </trkpt>
      <trkpt lat="49.62655" lon="-1.51633">
        <ele>123.422873</ele>
        <time>2022-07-30T10:09:01.000Z</time>
      </trkpt>
      <trkpt lat="49.62653" lon="-1.51628">
        <ele>123.440963</ele>
        <time>2022-07-30T10:09:02.000Z</time>
      </trkpt>
      <trkpt lat="49.62652" lon="-1.51623">
        <ele>123.45961</ele>
        <time>2022-07-30T10:09:03.000Z</time>
      </trkpt>
      <trkpt lat="49.6265" lon="-1.51617">
        <ele>123.478193</ele>
        <time>2022-07-30T10:09:04.000Z</time>
      </trkpt>
      <trkpt lat="49.62648" lon="-1.51611">
        <ele>123.496839</ele>
        <time>2022-07-30T10:09:05.000Z</time>
      </trkpt>
      <trkpt lat="49.62646" lon="-1.51607">
        <ele>123.514429</ele>
        <time>2022-07-30T10:09:06.000Z</time>
      </trkpt>
      <trkpt lat="49.62644" lon="-1.51602">
        <ele>123.53205</ele>
        <time>2022-07-30T10:09:07.000Z</time>
      </trkpt>
      <trkpt lat="49.62641" lon="-1.51597">
        <ele>123.549639</ele>
        <time>2022-07-30T10:09:08.000Z</time>
      </trkpt>
      <trkpt lat="49.62639" lon="-1.51592">
        <ele>123.56929</ele>
        <time>2022-07-30T10:09:09.000Z</time>
      </trkpt>
      <trkpt lat="49.62637" lon="-1.51587">
        <ele>123.586889</ele>
        <time>2022-07-30T10:09:10.000Z</time>
      </trkpt>
      <trkpt lat="49.62635" lon="-1.51581">
        <ele>123.605972</ele>
        <time>2022-07-30T10:09:11.000Z</time>
      </trkpt>
      <trkpt lat="49.62632" lon="-1.51576">
        <ele>123.625153</ele>
        <time>2022-07-30T10:09:12.000Z</time>
      </trkpt>
      <trkpt lat="49.6263" lon="-1.51571">
        <ele>123.643983</ele>
        <time>2022-07-30T10:09:13.000Z</time>
      </trkpt>
      <trkpt lat="49.62627" lon="-1.51566">
        <ele>123.664737</ele>
        <time>2022-07-30T10:09:14.000Z</time>
      </trkpt>
      <trkpt lat="49.62625" lon="-1.51561">
        <ele>123.683082</ele>
        <time>2022-07-30T10:09:15.000Z</time>
      </trkpt>
      <trkpt lat="49.62622" lon="-1.51556">
        <ele>123.7009</ele>
        <time>2022-07-30T10:09:16.000Z</time>
      </trkpt>
      <trkpt lat="49.62621" lon="-1.51551">
        <ele>123.719748</ele>
        <time>2022-07-30T10:09:17.000Z</time>
      </trkpt>
      <trkpt lat="49.62619" lon="-1.51547">
        <ele>123.736948</ele>
        <time>2022-07-30T10:09:18.000Z</time>
      </trkpt>
      <trkpt lat="49.62617" lon="-1.51542">
        <ele>123.756155</ele>
        <time>2022-07-30T10:09:19.000Z</time>
      </trkpt>
      <trkpt lat="49.62614" lon="-1.51538">
        <ele>123.773483</ele>
        <time>2022-07-30T10:09:20.000Z</time>
      </trkpt>
      <trkpt lat="49.62612" lon="-1.51535">
        <ele>123.790559</ele>
        <time>2022-07-30T10:09:21.000Z</time>
      </trkpt>
      <trkpt lat="49.6261" lon="-1.51531">
        <ele>123.806965</ele>
        <time>2022-07-30T10:09:22.000Z</time>
      </trkpt>
      <trkpt lat="49.62608" lon="-1.51526">
        <ele>123.824963</ele>
        <time>2022-07-30T10:09:23.000Z</time>
      </trkpt>
      <trkpt lat="49.62606" lon="-1.51522">
        <ele>123.842681</ele>
        <time>2022-07-30T10:09:24.000Z</time>
      </trkpt>
      <trkpt lat="49.62605" lon="-1.51518">
        <ele>123.858766</ele>
        <time>2022-07-30T10:09:25.000Z</time>
      </trkpt>
      <trkpt lat="49.62603" lon="-1.51514">
        <ele>123.873952</ele>
        <time>2022-07-30T10:09:26.000Z</time>
      </trkpt>
      <trkpt lat="49.62602" lon="-1.51511">
        <ele>123.88747</ele>
        <time>2022-07-30T10:09:27.000Z</time>
      </trkpt>
      <trkpt lat="49.626" lon="-1.51507">
        <ele>123.901824</ele>
        <time>2022-07-30T10:09:28.000Z</time>
      </trkpt>
      <trkpt lat="49.62598" lon="-1.51503">
        <ele>123.918175</ele>
        <time>2022-07-30T10:09:29.000Z</time>
      </trkpt>
      <trkpt lat="49.62596" lon="-1.51499">
        <ele>123.934794</ele>
        <time>2022-07-30T10:09:30.000Z</time>
      </trkpt>
      <trkpt lat="49.62594" lon="-1.51495">
        <ele>123.95308</ele>
        <time>2022-07-30T10:09:31.000Z</time>
      </trkpt>
      <trkpt lat="49.62592" lon="-1.51491">
        <ele>123.969971</ele>
        <time>2022-07-30T10:09:32.000Z</time>
      </trkpt>
      <trkpt lat="49.6259" lon="-1.51486">
        <ele>123.98797</ele>
        <time>2022-07-30T10:09:33.000Z</time>
      </trkpt>
      <trkpt lat="49.62589" lon="-1.51482">
        <ele>124.005968</ele>
        <time>2022-07-30T10:09:34.000Z</time>
      </trkpt>
      <trkpt lat="49.62587" lon="-1.51478">
        <ele>124.02172</ele>
        <time>2022-07-30T10:09:35.000Z</time>
      </trkpt>
      <trkpt lat="49.62586" lon="-1.51474">
        <ele>124.035824</ele>
        <time>2022-07-30T10:09:36.000Z</time>
      </trkpt>
      <trkpt lat="49.62584" lon="-1.51471">
        <ele>124.050177</ele>
        <time>2022-07-30T10:09:37.000Z</time>
      </trkpt>
      <trkpt lat="49.62582" lon="-1.51467">
        <ele>124.065998</ele>
        <time>2022-07-30T10:09:38.000Z</time>
      </trkpt>
      <trkpt lat="49.62581" lon="-1.51463">
        <ele>124.080351</ele>
        <time>2022-07-30T10:09:39.000Z</time>
      </trkpt>
      <trkpt lat="49.62579" lon="-1.5146">
        <ele>124.095537</ele>
        <time>2022-07-30T10:09:40.000Z</time>
      </trkpt>
      <trkpt lat="49.62577" lon="-1.51455">
        <ele>124.112978</ele>
        <time>2022-07-30T10:09:41.000Z</time>
      </trkpt>
      <trkpt lat="49.62576" lon="-1.5145">
        <ele>124.130512</ele>
        <time>2022-07-30T10:09:42.000Z</time>
      </trkpt>
      <trkpt lat="49.62574" lon="-1.51446">
        <ele>124.146863</ele>
        <time>2022-07-30T10:09:43.000Z</time>
      </trkpt>
      <trkpt lat="49.62573" lon="-1.51442">
        <ele>124.162615</ele>
        <time>2022-07-30T10:09:44.000Z</time>
      </trkpt>
      <trkpt lat="49.62571" lon="-1.51438">
        <ele>124.178367</ele>
        <time>2022-07-30T10:09:45.000Z</time>
      </trkpt>
      <trkpt lat="49.62569" lon="-1.51434">
        <ele>124.194983</ele>
        <time>2022-07-30T10:09:46.000Z</time>
      </trkpt>
      <trkpt lat="49.62568" lon="-1.5143">
        <ele>124.209976</ele>
        <time>2022-07-30T10:09:47.000Z</time>
      </trkpt>
      <trkpt lat="49.62567" lon="-1.51426">
        <ele>124.224971</ele>
        <time>2022-07-30T10:09:48.000Z</time>
      </trkpt>
      <trkpt lat="49.62566" lon="-1.51422">
        <ele>124.239742</ele>
        <time>2022-07-30T10:09:49.000Z</time>
      </trkpt>
      <trkpt lat="49.62564" lon="-1.51418">
        <ele>124.255494</ele>
        <time>2022-07-30T10:09:50.000Z</time>
      </trkpt>
      <trkpt lat="49.62563" lon="-1.51414">
        <ele>124.27068</ele>
        <time>2022-07-30T10:09:51.000Z</time>
      </trkpt>
      <trkpt lat="49.62561" lon="-1.5141">
        <ele>124.285079</ele>
        <time>2022-07-30T10:09:52.000Z</time>
      </trkpt>
      <trkpt lat="49.6256" lon="-1.51406">
        <ele>124.299445</ele>
        <time>2022-07-30T10:09:53.000Z</time>
      </trkpt>
      <trkpt lat="49.62559" lon="-1.51402">
        <ele>124.31444</ele>
        <time>2022-07-30T10:09:54.000Z</time>
      </trkpt>
      <trkpt lat="49.62557" lon="-1.51398">
        <ele>124.332159</ele>
        <time>2022-07-30T10:09:55.000Z</time>
      </trkpt>
      <trkpt lat="49.62555" lon="-1.51394">
        <ele>124.34905</ele>
        <time>2022-07-30T10:09:56.000Z</time>
      </trkpt>
      <trkpt lat="49.62554" lon="-1.51389">
        <ele>124.364991</ele>
        <time>2022-07-30T10:09:57.000Z</time>
      </trkpt>
      <trkpt lat="49.62552" lon="-1.51385">
        <ele>124.383554</ele>
        <time>2022-07-30T10:09:58.000Z</time>
      </trkpt>
      <trkpt lat="49.62551" lon="-1.5138">
        <ele>124.400943</ele>
        <time>2022-07-30T10:09:59.000Z</time>
      </trkpt>
      <trkpt lat="49.6255" lon="-1.51375">
        <ele>124.418995</ele>
        <time>2022-07-30T10:10:00.000Z</time>
      </trkpt>
      <trkpt lat="49.62549" lon="-1.5137">
        <ele>124.437048</ele>
        <time>2022-07-30T10:10:01.000Z</time>
      </trkpt>
      <trkpt lat="49.62548" lon="-1.51365">
        <ele>124.452989</ele>
        <time>2022-07-30T10:10:02.000Z</time>
      </trkpt>
      <trkpt lat="49.62547" lon="-1.51361">
        <ele>124.467759</ele>
        <time>2022-07-30T10:10:03.000Z</time>
      </trkpt>
      <trkpt lat="49.62545" lon="-1.51357">
        <ele>124.482158</ele>
        <time>2022-07-30T10:10:04.000Z</time>
      </trkpt>
      <trkpt lat="49.62544" lon="-1.51353">
        <ele>124.497153</ele>
        <time>2022-07-30T10:10:05.000Z</time>
      </trkpt>
      <trkpt lat="49.62543" lon="-1.51349">
        <ele>124.51275</ele>
        <time>2022-07-30T10:10:06.000Z</time>
      </trkpt>
      <trkpt lat="49.62541" lon="-1.51344">
        <ele>124.530183</ele>
        <time>2022-07-30T10:10:07.000Z</time>
      </trkpt>
      <trkpt lat="49.6254" lon="-1.51339">
        <ele>124.547736</ele>
        <time>2022-07-30T10:10:08.000Z</time>
      </trkpt>
      <trkpt lat="49.62539" lon="-1.51334">
        <ele>124.565788</ele>
        <time>2022-07-30T10:10:09.000Z</time>
      </trkpt>
      <trkpt lat="49.62537" lon="-1.5133">
        <ele>124.582988</ele>
        <time>2022-07-30T10:10:10.000Z</time>
      </trkpt>
      <trkpt lat="49.62536" lon="-1.51325">
        <ele>124.599805</ele>
        <time>2022-07-30T10:10:11.000Z</time>
      </trkpt>
      <trkpt lat="49.62534" lon="-1.51321">
        <ele>124.616131</ele>
        <time>2022-07-30T10:10:12.000Z</time>
      </trkpt>
      <trkpt lat="49.62532" lon="-1.51316">
        <ele>124.606753</ele>
        <time>2022-07-30T10:10:13.000Z</time>
      </trkpt>
      <trkpt lat="49.62531" lon="-1.51312">
        <ele>124.564906</ele>
        <time>2022-07-30T10:10:14.000Z</time>
      </trkpt>
      <trkpt lat="49.62528" lon="-1.51306">
        <ele>124.516095</ele>
        <time>2022-07-30T10:10:15.000Z</time>
      </trkpt>
      <trkpt lat="49.62526" lon="-1.51302">
        <ele>124.472488</ele>
        <time>2022-07-30T10:10:16.000Z</time>
      </trkpt>
      <trkpt lat="49.62525" lon="-1.51297">
        <ele>124.42954</ele>
        <time>2022-07-30T10:10:17.000Z</time>
      </trkpt>
      <trkpt lat="49.62522" lon="-1.51292">
        <ele>124.382002</ele>
        <time>2022-07-30T10:10:18.000Z</time>
      </trkpt>
      <trkpt lat="49.6252" lon="-1.51287">
        <ele>124.334256</ele>
        <time>2022-07-30T10:10:19.000Z</time>
      </trkpt>
      <trkpt lat="49.62517" lon="-1.51282">
        <ele>124.286344</ele>
        <time>2022-07-30T10:10:20.000Z</time>
      </trkpt>
      <trkpt lat="49.62515" lon="-1.51278">
        <ele>124.244052</ele>
        <time>2022-07-30T10:10:21.000Z</time>
      </trkpt>
      <trkpt lat="49.62513" lon="-1.51273">
        <ele>124.200964</ele>
        <time>2022-07-30T10:10:22.000Z</time>
      </trkpt>
      <trkpt lat="49.62511" lon="-1.51269">
        <ele>124.158919</ele>
        <time>2022-07-30T10:10:23.000Z</time>
      </trkpt>
      <trkpt lat="49.62509" lon="-1.51265">
        <ele>124.117926</ele>
        <time>2022-07-30T10:10:24.000Z</time>
      </trkpt>
      <trkpt lat="49.62507" lon="-1.51261">
        <ele>124.075449</ele>
        <time>2022-07-30T10:10:25.000Z</time>
      </trkpt>
      <trkpt lat="49.62504" lon="-1.51257">
        <ele>124.029928</ele>
        <time>2022-07-30T10:10:26.000Z</time>
      </trkpt>
      <trkpt lat="49.62501" lon="-1.51252">
        <ele>123.986098</ele>
        <time>2022-07-30T10:10:27.000Z</time>
      </trkpt>
      <trkpt lat="49.62499" lon="-1.51247">
        <ele>123.934862</ele>
        <time>2022-07-30T10:10:28.000Z</time>
      </trkpt>
      <trkpt lat="49.62496" lon="-1.51242">
        <ele>123.885409</ele>
        <time>2022-07-30T10:10:29.000Z</time>
      </trkpt>
      <trkpt lat="49.62493" lon="-1.51237">
        <ele>123.831627</ele>
        <time>2022-07-30T10:10:30.000Z</time>
      </trkpt>
      <trkpt lat="49.62491" lon="-1.51232">
        <ele>123.783275</ele>
        <time>2022-07-30T10:10:31.000Z</time>
      </trkpt>
      <trkpt lat="49.62488" lon="-1.51226">
        <ele>123.730492</ele>
        <time>2022-07-30T10:10:32.000Z</time>
      </trkpt>
      <trkpt lat="49.62485" lon="-1.51221">
        <ele>123.672604</ele>
        <time>2022-07-30T10:10:33.000Z</time>
      </trkpt>
      <trkpt lat="49.62482" lon="-1.51215">
        <ele>123.608851</ele>
        <time>2022-07-30T10:10:34.000Z</time>
      </trkpt>
      <trkpt lat="49.62479" lon="-1.51208">
        <ele>123.546299</ele>
        <time>2022-07-30T10:10:35.000Z</time>
      </trkpt>
      <trkpt lat="49.62476" lon="-1.51201">
        <ele>123.479882</ele>
        <time>2022-07-30T10:10:36.000Z</time>
      </trkpt>
      <trkpt lat="49.62473" lon="-1.51193">
        <ele>123.412193</ele>
        <time>2022-07-30T10:10:37.000Z</time>
      </trkpt>
      <trkpt lat="49.62469" lon="-1.51186">
        <ele>123.343028</ele>
        <time>2022-07-30T10:10:38.000Z</time>
      </trkpt>
      <trkpt lat="49.62466" lon="-1.51179">
        <ele>123.270108</ele>
        <time>2022-07-30T10:10:39.000Z</time>
      </trkpt>
      <trkpt lat="49.62463" lon="-1.51171">
        <ele>123.201061</ele>
        <time>2022-07-30T10:10:40.000Z</time>
      </trkpt>
      <trkpt lat="49.6246" lon="-1.51164">
        <ele>123.132731</ele>
        <time>2022-07-30T10:10:41.000Z</time>
      </trkpt>
      <trkpt lat="49.62456" lon="-1.51157">
        <ele>123.063112</ele>
        <time>2022-07-30T10:10:42.000Z</time>
      </trkpt>
      <trkpt lat="49.62452" lon="-1.5115">
        <ele>122.990354</ele>
        <time>2022-07-30T10:10:43.000Z</time>
      </trkpt>
      <trkpt lat="49.62449" lon="-1.51143">
        <ele>122.923938</ele>
        <time>2022-07-30T10:10:44.000Z</time>
      </trkpt>
      <trkpt lat="49.62445" lon="-1.51135">
        <ele>122.853533</ele>
        <time>2022-07-30T10:10:45.000Z</time>
      </trkpt>
      <trkpt lat="49.62442" lon="-1.51128">
        <ele>122.782503</ele>
        <time>2022-07-30T10:10:46.000Z</time>
      </trkpt>
      <trkpt lat="49.62438" lon="-1.51121">
        <ele>122.713338</ele>
        <time>2022-07-30T10:10:47.000Z</time>
      </trkpt>
      <trkpt lat="49.62435" lon="-1.51114">
        <ele>122.645648</ele>
        <time>2022-07-30T10:10:48.000Z</time>
      </trkpt>
      <trkpt lat="49.62431" lon="-1.51107">
        <ele>122.577099</ele>
        <time>2022-07-30T10:10:49.000Z</time>
      </trkpt>
      <trkpt lat="49.62428" lon="-1.51099">
        <ele>122.505975</ele>
        <time>2022-07-30T10:10:50.000Z</time>
      </trkpt>
      <trkpt lat="49.62424" lon="-1.51092">
        <ele>122.433651</ele>
        <time>2022-07-30T10:10:51.000Z</time>
      </trkpt>
      <trkpt lat="49.62421" lon="-1.51085">
        <ele>122.360939</ele>
        <time>2022-07-30T10:10:52.000Z</time>
      </trkpt>
      <trkpt lat="49.62417" lon="-1.51077">
        <ele>122.288868</ele>
        <time>2022-07-30T10:10:53.000Z</time>
      </trkpt>
      <trkpt lat="49.62414" lon="-1.5107">
        <ele>122.216967</ele>
        <time>2022-07-30T10:10:54.000Z</time>
      </trkpt>
      <trkpt lat="49.62411" lon="-1.51062">
        <ele>122.146348</ele>
        <time>2022-07-30T10:10:55.000Z</time>
      </trkpt>
      <trkpt lat="49.62408" lon="-1.51054">
        <ele>122.073648</ele>
        <time>2022-07-30T10:10:56.000Z</time>
      </trkpt>
      <trkpt lat="49.62405" lon="-1.51047">
        <ele>122.001077</ele>
        <time>2022-07-30T10:10:57.000Z</time>
      </trkpt>
      <trkpt lat="49.62402" lon="-1.51039">
        <ele>121.9258</ele>
        <time>2022-07-30T10:10:58.000Z</time>
      </trkpt>
      <trkpt lat="49.62398" lon="-1.5103">
        <ele>121.842441</ele>
        <time>2022-07-30T10:10:59.000Z</time>
      </trkpt>
      <trkpt lat="49.62392" lon="-1.51012">
        <ele>121.681216</ele>
        <time>2022-07-30T10:11:01.000Z</time>
      </trkpt>
      <trkpt lat="49.62389" lon="-1.51003">
        <ele>121.600419</ele>
        <time>2022-07-30T10:11:02.000Z</time>
      </trkpt>
      <trkpt lat="49.62385" lon="-1.50994">
        <ele>121.515077</ele>
        <time>2022-07-30T10:11:03.000Z</time>
      </trkpt>
      <trkpt lat="49.62381" lon="-1.50986">
        <ele>121.430754</ele>
        <time>2022-07-30T10:11:04.000Z</time>
      </trkpt>
      <trkpt lat="49.62376" lon="-1.50978">
        <ele>121.342586</ele>
        <time>2022-07-30T10:11:05.000Z</time>
      </trkpt>
      <trkpt lat="49.62372" lon="-1.50972">
        <ele>121.264757</ele>
        <time>2022-07-30T10:11:06.000Z</time>
      </trkpt>
      <trkpt lat="49.62367" lon="-1.50965">
        <ele>121.184777</ele>
        <time>2022-07-30T10:11:07.000Z</time>
      </trkpt>
      <trkpt lat="49.62362" lon="-1.50958">
        <ele>121.108609</ele>
        <time>2022-07-30T10:11:08.000Z</time>
      </trkpt>
      <trkpt lat="49.62358" lon="-1.50953">
        <ele>121.037099</ele>
        <time>2022-07-30T10:11:09.000Z</time>
      </trkpt>
      <trkpt lat="49.62353" lon="-1.50947">
        <ele>120.967626</ele>
        <time>2022-07-30T10:11:10.000Z</time>
      </trkpt>
      <trkpt lat="49.62349" lon="-1.50942">
        <ele>120.896059</ele>
        <time>2022-07-30T10:11:11.000Z</time>
      </trkpt>
      <trkpt lat="49.62344" lon="-1.50938">
        <ele>120.832872</ele>
        <time>2022-07-30T10:11:12.000Z</time>
      </trkpt>
      <trkpt lat="49.6234" lon="-1.50934">
        <ele>120.772927</ele>
        <time>2022-07-30T10:11:13.000Z</time>
      </trkpt>
      <trkpt lat="49.62336" lon="-1.5093">
        <ele>120.71151</ele>
        <time>2022-07-30T10:11:14.000Z</time>
      </trkpt>
      <trkpt lat="49.62332" lon="-1.50926">
        <ele>120.651743</ele>
        <time>2022-07-30T10:11:15.000Z</time>
      </trkpt>
      <trkpt lat="49.62328" lon="-1.50923">
        <ele>120.601055</ele>
        <time>2022-07-30T10:11:16.000Z</time>
      </trkpt>
      <trkpt lat="49.62324" lon="-1.50919">
        <ele>120.539134</ele>
        <time>2022-07-30T10:11:17.000Z</time>
      </trkpt>
      <trkpt lat="49.6232" lon="-1.50916">
        <ele>120.480837</ele>
        <time>2022-07-30T10:11:18.000Z</time>
      </trkpt>
      <trkpt lat="49.62316" lon="-1.50912">
        <ele>120.422223</ele>
        <time>2022-07-30T10:11:19.000Z</time>
      </trkpt>
      <trkpt lat="49.62311" lon="-1.5091">
        <ele>120.362259</ele>
        <time>2022-07-30T10:11:20.000Z</time>
      </trkpt>
      <trkpt lat="49.62308" lon="-1.50906">
        <ele>120.315136</ele>
        <time>2022-07-30T10:11:21.000Z</time>
      </trkpt>
      <trkpt lat="49.62304" lon="-1.50903">
        <ele>120.262385</ele>
        <time>2022-07-30T10:11:22.000Z</time>
      </trkpt>
      <trkpt lat="49.62301" lon="-1.509">
        <ele>120.23583</ele>
        <time>2022-07-30T10:11:23.000Z</time>
      </trkpt>
      <trkpt lat="49.62297" lon="-1.50897">
        <ele>120.217085</ele>
        <time>2022-07-30T10:11:24.000Z</time>
      </trkpt>
      <trkpt lat="49.62294" lon="-1.50895">
        <ele>120.200455</ele>
        <time>2022-07-30T10:11:25.000Z</time>
      </trkpt>
      <trkpt lat="49.62291" lon="-1.50893">
        <ele>120.183046</ele>
        <time>2022-07-30T10:11:26.000Z</time>
      </trkpt>
      <trkpt lat="49.62289" lon="-1.5089">
        <ele>120.16771</ele>
        <time>2022-07-30T10:11:27.000Z</time>
      </trkpt>
      <trkpt lat="49.62286" lon="-1.50888">
        <ele>120.152796</ele>
        <time>2022-07-30T10:11:28.000Z</time>
      </trkpt>
      <trkpt lat="49.62283" lon="-1.50885">
        <ele>120.136166</ele>
        <time>2022-07-30T10:11:29.000Z</time>
      </trkpt>
      <trkpt lat="49.62281" lon="-1.50883">
        <ele>120.12083</ele>
        <time>2022-07-30T10:11:30.000Z</time>
      </trkpt>
      <trkpt lat="49.62278" lon="-1.5088">
        <ele>120.104635</ele>
        <time>2022-07-30T10:11:31.000Z</time>
      </trkpt>
      <trkpt lat="49.62275" lon="-1.50878">
        <ele>120.08735</ele>
        <time>2022-07-30T10:11:32.000Z</time>
      </trkpt>
      <trkpt lat="49.62271" lon="-1.50876">
        <ele>120.066561</ele>
        <time>2022-07-30T10:11:33.000Z</time>
      </trkpt>
      <trkpt lat="49.62267" lon="-1.50873">
        <ele>120.046972</ele>
        <time>2022-07-30T10:11:34.000Z</time>
      </trkpt>
      <trkpt lat="49.62264" lon="-1.5087">
        <ele>120.027336</ele>
        <time>2022-07-30T10:11:35.000Z</time>
      </trkpt>
      <trkpt lat="49.62261" lon="-1.50866">
        <ele>120.005913</ele>
        <time>2022-07-30T10:11:36.000Z</time>
      </trkpt>
      <trkpt lat="49.62257" lon="-1.50862">
        <ele>119.984109</ele>
        <time>2022-07-30T10:11:37.000Z</time>
      </trkpt>
      <trkpt lat="49.62253" lon="-1.50858">
        <ele>119.962274</ele>
        <time>2022-07-30T10:11:38.000Z</time>
      </trkpt>
      <trkpt lat="49.6225" lon="-1.50854">
        <ele>119.941861</ele>
        <time>2022-07-30T10:11:39.000Z</time>
      </trkpt>
      <trkpt lat="49.62246" lon="-1.5085">
        <ele>119.918649</ele>
        <time>2022-07-30T10:11:40.000Z</time>
      </trkpt>
      <trkpt lat="49.62243" lon="-1.50847">
        <ele>119.896494</ele>
        <time>2022-07-30T10:11:41.000Z</time>
      </trkpt>
      <trkpt lat="49.62239" lon="-1.50843">
        <ele>119.873051</ele>
        <time>2022-07-30T10:11:42.000Z</time>
      </trkpt>
      <trkpt lat="49.62235" lon="-1.50839">
        <ele>119.851439</ele>
        <time>2022-07-30T10:11:43.000Z</time>
      </trkpt>
      <trkpt lat="49.62231" lon="-1.50835">
        <ele>119.82785</ele>
        <time>2022-07-30T10:11:44.000Z</time>
      </trkpt>
      <trkpt lat="49.62227" lon="-1.5083">
        <ele>119.801352</ele>
        <time>2022-07-30T10:11:45.000Z</time>
      </trkpt>
      <trkpt lat="49.62223" lon="-1.50826">
        <ele>119.775755</ele>
        <time>2022-07-30T10:11:46.000Z</time>
      </trkpt>
      <trkpt lat="49.62219" lon="-1.50821">
        <ele>119.75033</ele>
        <time>2022-07-30T10:11:47.000Z</time>
      </trkpt>
      <trkpt lat="49.62215" lon="-1.50815">
        <ele>119.724529</ele>
        <time>2022-07-30T10:11:48.000Z</time>
      </trkpt>
      <trkpt lat="49.62211" lon="-1.50811">
        <ele>119.700351</ele>
        <time>2022-07-30T10:11:49.000Z</time>
      </trkpt>
      <trkpt lat="49.62207" lon="-1.50807">
        <ele>119.674352</ele>
        <time>2022-07-30T10:11:50.000Z</time>
      </trkpt>
      <trkpt lat="49.62203" lon="-1.50803">
        <ele>119.650895</ele>
        <time>2022-07-30T10:11:51.000Z</time>
      </trkpt>
      <trkpt lat="49.62198" lon="-1.508">
        <ele>119.626999</ele>
        <time>2022-07-30T10:11:52.000Z</time>
      </trkpt>
      <trkpt lat="49.62195" lon="-1.50797">
        <ele>119.606955</ele>
        <time>2022-07-30T10:11:53.000Z</time>
      </trkpt>
      <trkpt lat="49.62191" lon="-1.50794">
        <ele>119.586911</ele>
        <time>2022-07-30T10:11:54.000Z</time>
      </trkpt>
      <trkpt lat="49.62189" lon="-1.50791">
        <ele>119.571575</ele>
        <time>2022-07-30T10:11:55.000Z</time>
      </trkpt>
      <trkpt lat="49.62187" lon="-1.50789">
        <ele>119.558792</ele>
        <time>2022-07-30T10:11:56.000Z</time>
      </trkpt>
      <trkpt lat="49.62184" lon="-1.50788">
        <ele>119.54376</ele>
        <time>2022-07-30T10:11:57.000Z</time>
      </trkpt>
      <trkpt lat="49.62181" lon="-1.50787">
        <ele>119.531605</ele>
        <time>2022-07-30T10:11:58.000Z</time>
      </trkpt>
      <trkpt lat="49.62179" lon="-1.50785">
        <ele>119.519563</ele>
        <time>2022-07-30T10:11:59.000Z</time>
      </trkpt>
      <trkpt lat="49.62177" lon="-1.50783">
        <ele>119.50678</ele>
        <time>2022-07-30T10:12:00.000Z</time>
      </trkpt>
      <trkpt lat="49.62175" lon="-1.50781">
        <ele>119.494294</ele>
        <time>2022-07-30T10:12:01.000Z</time>
      </trkpt>
      <trkpt lat="49.62173" lon="-1.50778">
        <ele>119.48169</ele>
        <time>2022-07-30T10:12:02.000Z</time>
      </trkpt>
      <trkpt lat="49.62172" lon="-1.50775">
        <ele>119.468082</ele>
        <time>2022-07-30T10:12:03.000Z</time>
      </trkpt>
      <trkpt lat="49.62169" lon="-1.50772">
        <ele>119.453385</ele>
        <time>2022-07-30T10:12:04.000Z</time>
      </trkpt>
      <trkpt lat="49.62166" lon="-1.5077">
        <ele>119.435429</ele>
        <time>2022-07-30T10:12:05.000Z</time>
      </trkpt>
      <trkpt lat="49.62163" lon="-1.50767">
        <ele>119.418303</ele>
        <time>2022-07-30T10:12:06.000Z</time>
      </trkpt>
      <trkpt lat="49.6216" lon="-1.50764">
        <ele>119.398415</ele>
        <time>2022-07-30T10:12:07.000Z</time>
      </trkpt>
      <trkpt lat="49.62156" lon="-1.50761">
        <ele>119.378371</ele>
        <time>2022-07-30T10:12:08.000Z</time>
      </trkpt>
      <trkpt lat="49.62153" lon="-1.50757">
        <ele>119.356895</ele>
        <time>2022-07-30T10:12:09.000Z</time>
      </trkpt>
      <trkpt lat="49.62149" lon="-1.50753">
        <ele>119.233759</ele>
        <time>2022-07-30T10:12:10.000Z</time>
      </trkpt>
      <trkpt lat="49.62146" lon="-1.50748">
        <ele>119.080998</ele>
        <time>2022-07-30T10:12:11.000Z</time>
      </trkpt>
      <trkpt lat="49.62142" lon="-1.50744">
        <ele>118.914726</ele>
        <time>2022-07-30T10:12:12.000Z</time>
      </trkpt>
      <trkpt lat="49.62138" lon="-1.5074">
        <ele>118.736874</ele>
        <time>2022-07-30T10:12:13.000Z</time>
      </trkpt>
      <trkpt lat="49.62134" lon="-1.50735">
        <ele>118.565037</ele>
        <time>2022-07-30T10:12:14.000Z</time>
      </trkpt>
      <trkpt lat="49.6213" lon="-1.5073">
        <ele>118.377863</ele>
        <time>2022-07-30T10:12:15.000Z</time>
      </trkpt>
      <trkpt lat="49.62125" lon="-1.50726">
        <ele>118.182016</ele>
        <time>2022-07-30T10:12:16.000Z</time>
      </trkpt>
      <trkpt lat="49.6212" lon="-1.50722">
        <ele>117.970648</ele>
        <time>2022-07-30T10:12:17.000Z</time>
      </trkpt>
      <trkpt lat="49.62115" lon="-1.50718">
        <ele>117.769799</ele>
        <time>2022-07-30T10:12:18.000Z</time>
      </trkpt>
      <trkpt lat="49.6211" lon="-1.50714">
        <ele>117.576206</ele>
        <time>2022-07-30T10:12:19.000Z</time>
      </trkpt>
      <trkpt lat="49.62104" lon="-1.50709">
        <ele>117.356536</ele>
        <time>2022-07-30T10:12:20.000Z</time>
      </trkpt>
      <trkpt lat="49.62099" lon="-1.50704">
        <ele>117.138289</ele>
        <time>2022-07-30T10:12:21.000Z</time>
      </trkpt>
      <trkpt lat="49.62094" lon="-1.50698">
        <ele>116.927332</ele>
        <time>2022-07-30T10:12:22.000Z</time>
      </trkpt>
      <trkpt lat="49.6209" lon="-1.50693">
        <ele>116.716375</ele>
        <time>2022-07-30T10:12:23.000Z</time>
      </trkpt>
      <trkpt lat="49.62084" lon="-1.50688">
        <ele>116.484136</ele>
        <time>2022-07-30T10:12:24.000Z</time>
      </trkpt>
      <trkpt lat="49.62078" lon="-1.50683">
        <ele>116.252776</ele>
        <time>2022-07-30T10:12:25.000Z</time>
      </trkpt>
      <trkpt lat="49.62072" lon="-1.50678">
        <ele>116.003478</ele>
        <time>2022-07-30T10:12:26.000Z</time>
      </trkpt>
      <trkpt lat="49.62067" lon="-1.50671">
        <ele>115.764609</ele>
        <time>2022-07-30T10:12:27.000Z</time>
      </trkpt>
      <trkpt lat="49.62062" lon="-1.50664">
        <ele>115.520312</ele>
        <time>2022-07-30T10:12:28.000Z</time>
      </trkpt>
      <trkpt lat="49.62057" lon="-1.50655">
        <ele>115.256341</ele>
        <time>2022-07-30T10:12:29.000Z</time>
      </trkpt>
      <trkpt lat="49.62052" lon="-1.50646">
        <ele>114.989829</ele>
        <time>2022-07-30T10:12:30.000Z</time>
      </trkpt>
      <trkpt lat="49.62047" lon="-1.50637">
        <ele>114.704226</ele>
        <time>2022-07-30T10:12:31.000Z</time>
      </trkpt>
      <trkpt lat="49.62042" lon="-1.50627">
        <ele>114.413265</ele>
        <time>2022-07-30T10:12:32.000Z</time>
      </trkpt>
      <trkpt lat="49.62037" lon="-1.50616">
        <ele>114.107724</ele>
        <time>2022-07-30T10:12:33.000Z</time>
      </trkpt>
      <trkpt lat="49.62032" lon="-1.50605">
        <ele>113.810299</ele>
        <time>2022-07-30T10:12:34.000Z</time>
      </trkpt>
      <trkpt lat="49.62027" lon="-1.50594">
        <ele>113.494771</ele>
        <time>2022-07-30T10:12:35.000Z</time>
      </trkpt>
      <trkpt lat="49.62022" lon="-1.50583">
        <ele>113.193455</ele>
        <time>2022-07-30T10:12:36.000Z</time>
      </trkpt>
      <trkpt lat="49.62017" lon="-1.50572">
        <ele>112.872355</ele>
        <time>2022-07-30T10:12:37.000Z</time>
      </trkpt>
      <trkpt lat="49.62012" lon="-1.50561">
        <ele>112.545597</ele>
        <time>2022-07-30T10:12:38.000Z</time>
      </trkpt>
      <trkpt lat="49.62007" lon="-1.5055">
        <ele>112.230155</ele>
        <time>2022-07-30T10:12:39.000Z</time>
      </trkpt>
      <trkpt lat="49.62002" lon="-1.5054">
        <ele>111.919445</ele>
        <time>2022-07-30T10:12:40.000Z</time>
      </trkpt>
      <trkpt lat="49.61997" lon="-1.5053">
        <ele>111.604002</ele>
        <time>2022-07-30T10:12:41.000Z</time>
      </trkpt>
      <trkpt lat="49.61992" lon="-1.50519">
        <ele>111.297243</ele>
        <time>2022-07-30T10:12:42.000Z</time>
      </trkpt>
      <trkpt lat="49.61987" lon="-1.5051">
        <ele>110.998304</ele>
        <time>2022-07-30T10:12:43.000Z</time>
      </trkpt>
      <trkpt lat="49.61982" lon="-1.505">
        <ele>110.710876</ele>
        <time>2022-07-30T10:12:44.000Z</time>
      </trkpt>
      <trkpt lat="49.61977" lon="-1.50491">
        <ele>110.406995</ele>
        <time>2022-07-30T10:12:45.000Z</time>
      </trkpt>
      <trkpt lat="49.61972" lon="-1.50482">
        <ele>110.12708</ele>
        <time>2022-07-30T10:12:46.000Z</time>
      </trkpt>
      <trkpt lat="49.61967" lon="-1.50474">
        <ele>109.836478</ele>
        <time>2022-07-30T10:12:47.000Z</time>
      </trkpt>
      <trkpt lat="49.61961" lon="-1.50466">
        <ele>109.553668</ele>
        <time>2022-07-30T10:12:48.000Z</time>
      </trkpt>
      <trkpt lat="49.61957" lon="-1.50457">
        <ele>109.27896</ele>
        <time>2022-07-30T10:12:49.000Z</time>
      </trkpt>
      <trkpt lat="49.61952" lon="-1.50448">
        <ele>108.995267</ele>
        <time>2022-07-30T10:12:50.000Z</time>
      </trkpt>
      <trkpt lat="49.61948" lon="-1.50439">
        <ele>108.717416</ele>
        <time>2022-07-30T10:12:51.000Z</time>
      </trkpt>
      <trkpt lat="49.61944" lon="-1.5043">
        <ele>108.456018</ele>
        <time>2022-07-30T10:12:52.000Z</time>
      </trkpt>
      <trkpt lat="49.6194" lon="-1.5042">
        <ele>108.176161</ele>
        <time>2022-07-30T10:12:53.000Z</time>
      </trkpt>
      <trkpt lat="49.61935" lon="-1.5041">
        <ele>107.873869</ele>
        <time>2022-07-30T10:12:54.000Z</time>
      </trkpt>
      <trkpt lat="49.6193" lon="-1.504">
        <ele>107.571031</ele>
        <time>2022-07-30T10:12:55.000Z</time>
      </trkpt>
      <trkpt lat="49.61925" lon="-1.5039">
        <ele>107.26427</ele>
        <time>2022-07-30T10:12:56.000Z</time>
      </trkpt>
      <trkpt lat="49.61921" lon="-1.5038">
        <ele>106.970113</ele>
        <time>2022-07-30T10:12:57.000Z</time>
      </trkpt>
      <trkpt lat="49.61917" lon="-1.50369">
        <ele>106.663607</ele>
        <time>2022-07-30T10:12:58.000Z</time>
      </trkpt>
      <trkpt lat="49.61914" lon="-1.50356">
        <ele>106.332253</ele>
        <time>2022-07-30T10:12:59.000Z</time>
      </trkpt>
      <trkpt lat="49.6191" lon="-1.50344">
        <ele>106.169083</ele>
        <time>2022-07-30T10:13:00.000Z</time>
      </trkpt>
      <trkpt lat="49.61907" lon="-1.50331">
        <ele>106.048294</ele>
        <time>2022-07-30T10:13:01.000Z</time>
      </trkpt>
      <trkpt lat="49.61904" lon="-1.50318">
        <ele>105.932773</ele>
        <time>2022-07-30T10:13:02.000Z</time>
      </trkpt>
      <trkpt lat="49.61901" lon="-1.50304">
        <ele>105.814187</ele>
        <time>2022-07-30T10:13:03.000Z</time>
      </trkpt>
      <trkpt lat="49.61899" lon="-1.5029">
        <ele>105.695155</ele>
        <time>2022-07-30T10:13:04.000Z</time>
      </trkpt>
      <trkpt lat="49.61896" lon="-1.50277">
        <ele>105.578161</ele>
        <time>2022-07-30T10:13:05.000Z</time>
      </trkpt>
      <trkpt lat="49.61893" lon="-1.50263">
        <ele>105.461168</ele>
        <time>2022-07-30T10:13:06.000Z</time>
      </trkpt>
      <trkpt lat="49.61891" lon="-1.5025">
        <ele>105.346928</ele>
        <time>2022-07-30T10:13:07.000Z</time>
      </trkpt>
      <trkpt lat="49.61888" lon="-1.50238">
        <ele>105.23528</ele>
        <time>2022-07-30T10:13:08.000Z</time>
      </trkpt>
      <trkpt lat="49.61884" lon="-1.50226">
        <ele>105.128228</ele>
        <time>2022-07-30T10:13:09.000Z</time>
      </trkpt>
      <trkpt lat="49.61881" lon="-1.50216">
        <ele>105.036805</ele>
        <time>2022-07-30T10:13:10.000Z</time>
      </trkpt>
      <trkpt lat="49.61876" lon="-1.50209">
        <ele>104.947623</ele>
        <time>2022-07-30T10:13:11.000Z</time>
      </trkpt>
      <trkpt lat="49.61871" lon="-1.50202">
        <ele>104.861223</ele>
        <time>2022-07-30T10:13:12.000Z</time>
      </trkpt>
      <trkpt lat="49.61866" lon="-1.50196">
        <ele>104.782547</ele>
        <time>2022-07-30T10:13:13.000Z</time>
      </trkpt>
      <trkpt lat="49.61862" lon="-1.5019">
        <ele>104.715183</ele>
        <time>2022-07-30T10:13:14.000Z</time>
      </trkpt>
      <trkpt lat="49.61859" lon="-1.50184">
        <ele>104.650626</ele>
        <time>2022-07-30T10:13:15.000Z</time>
      </trkpt>
      <trkpt lat="49.61856" lon="-1.50179">
        <ele>104.591049</ele>
        <time>2022-07-30T10:13:16.000Z</time>
      </trkpt>
      <trkpt lat="49.61853" lon="-1.50175">
        <ele>104.539488</ele>
        <time>2022-07-30T10:13:17.000Z</time>
      </trkpt>
      <trkpt lat="49.6185" lon="-1.5017">
        <ele>104.481105</ele>
        <time>2022-07-30T10:13:18.000Z</time>
      </trkpt>
      <trkpt lat="49.61847" lon="-1.50165">
        <ele>104.429766</ele>
        <time>2022-07-30T10:13:19.000Z</time>
      </trkpt>
      <trkpt lat="49.61844" lon="-1.50161">
        <ele>104.374261</ele>
        <time>2022-07-30T10:13:20.000Z</time>
      </trkpt>
      <trkpt lat="49.6184" lon="-1.50156">
        <ele>104.317417</ele>
        <time>2022-07-30T10:13:21.000Z</time>
      </trkpt>
      <trkpt lat="49.61838" lon="-1.50153">
        <ele>104.27524</ele>
        <time>2022-07-30T10:13:22.000Z</time>
      </trkpt>
      <trkpt lat="49.61836" lon="-1.5015">
        <ele>104.235537</ele>
        <time>2022-07-30T10:13:23.000Z</time>
      </trkpt>
      <trkpt lat="49.61833" lon="-1.50147">
        <ele>104.193359</ele>
        <time>2022-07-30T10:13:24.000Z</time>
      </trkpt>
      <trkpt lat="49.6183" lon="-1.50143">
        <ele>104.143492</ele>
        <time>2022-07-30T10:13:25.000Z</time>
      </trkpt>
      <trkpt lat="49.61828" lon="-1.50138">
        <ele>104.095236</ele>
        <time>2022-07-30T10:13:26.000Z</time>
      </trkpt>
      <trkpt lat="49.61825" lon="-1.50135">
        <ele>104.054727</ele>
        <time>2022-07-30T10:13:27.000Z</time>
      </trkpt>
      <trkpt lat="49.61822" lon="-1.50132">
        <ele>104.009964</ele>
        <time>2022-07-30T10:13:28.000Z</time>
      </trkpt>
      <trkpt lat="49.6182" lon="-1.50128">
        <ele>103.969455</ele>
        <time>2022-07-30T10:13:29.000Z</time>
      </trkpt>
      <trkpt lat="49.61818" lon="-1.50125">
        <ele>103.947388</ele>
        <time>2022-07-30T10:13:30.000Z</time>
      </trkpt>
      <trkpt lat="49.61815" lon="-1.50121">
        <ele>103.961559</ele>
        <time>2022-07-30T10:13:31.000Z</time>
      </trkpt>
      <trkpt lat="49.61812" lon="-1.50117">
        <ele>103.976499</ele>
        <time>2022-07-30T10:13:32.000Z</time>
      </trkpt>
      <trkpt lat="49.61809" lon="-1.50114">
        <ele>103.990784</ele>
        <time>2022-07-30T10:13:33.000Z</time>
      </trkpt>
      <trkpt lat="49.61806" lon="-1.50111">
        <ele>104.005535</ele>
        <time>2022-07-30T10:13:34.000Z</time>
      </trkpt>
      <trkpt lat="49.61804" lon="-1.50107">
        <ele>104.017649</ele>
        <time>2022-07-30T10:13:35.000Z</time>
      </trkpt>
      <trkpt lat="49.61802" lon="-1.50103">
        <ele>104.031728</ele>
        <time>2022-07-30T10:13:36.000Z</time>
      </trkpt>
      <trkpt lat="49.618" lon="-1.50099">
        <ele>104.046364</ele>
        <time>2022-07-30T10:13:37.000Z</time>
      </trkpt>
      <trkpt lat="49.61797" lon="-1.50095">
        <ele>104.060055</ele>
        <time>2022-07-30T10:13:38.000Z</time>
      </trkpt>
      <trkpt lat="49.61795" lon="-1.50092">
        <ele>104.074172</ele>
        <time>2022-07-30T10:13:39.000Z</time>
      </trkpt>
      <trkpt lat="49.61793" lon="-1.50088">
        <ele>104.085716</ele>
        <time>2022-07-30T10:13:40.000Z</time>
      </trkpt>
      <trkpt lat="49.61791" lon="-1.50086">
        <ele>104.094431</ele>
        <time>2022-07-30T10:13:41.000Z</time>
      </trkpt>
      <trkpt lat="49.61789" lon="-1.50082">
        <ele>104.105974</ele>
        <time>2022-07-30T10:13:42.000Z</time>
      </trkpt>
      <trkpt lat="49.61787" lon="-1.50078">
        <ele>104.120403</ele>
        <time>2022-07-30T10:13:43.000Z</time>
      </trkpt>
      <trkpt lat="49.61785" lon="-1.50074">
        <ele>104.135284</ele>
        <time>2022-07-30T10:13:44.000Z</time>
      </trkpt>
      <trkpt lat="49.61783" lon="-1.5007">
        <ele>104.147745</ele>
        <time>2022-07-30T10:13:45.000Z</time>
      </trkpt>
      <trkpt lat="49.6178" lon="-1.5007">
        <ele>104.159392</ele>
        <time>2022-07-30T10:13:46.000Z</time>
      </trkpt>
      <trkpt lat="49.61776" lon="-1.50065">
        <ele>104.178905</ele>
        <time>2022-07-30T10:13:47.000Z</time>
      </trkpt>
      <trkpt lat="49.61772" lon="-1.50062">
        <ele>104.195778</ele>
        <time>2022-07-30T10:13:48.000Z</time>
      </trkpt>
      <trkpt lat="49.6177" lon="-1.50058">
        <ele>104.209732</ele>
        <time>2022-07-30T10:13:49.000Z</time>
      </trkpt>
      <trkpt lat="49.61769" lon="-1.50055">
        <ele>104.219042</ele>
        <time>2022-07-30T10:13:50.000Z</time>
      </trkpt>
      <trkpt lat="49.61767" lon="-1.50054">
        <ele>104.226543</ele>
        <time>2022-07-30T10:13:51.000Z</time>
      </trkpt>
      <trkpt lat="49.61767" lon="-1.5005">
        <ele>104.236739</ele>
        <time>2022-07-30T10:13:54.000Z</time>
      </trkpt>
      <trkpt lat="49.61759" lon="-1.50043">
        <ele>104.27295</ele>
        <time>2022-07-30T10:14:45.000Z</time>
      </trkpt>
      <trkpt lat="49.61757" lon="-1.50039">
        <ele>104.285243</ele>
        <time>2022-07-30T10:14:46.000Z</time>
      </trkpt>
      <trkpt lat="49.61756" lon="-1.50036">
        <ele>104.295492</ele>
        <time>2022-07-30T10:14:47.000Z</time>
      </trkpt>
      <trkpt lat="49.61754" lon="-1.50032">
        <ele>104.307258</ele>
        <time>2022-07-30T10:14:48.000Z</time>
      </trkpt>
      <trkpt lat="49.61751" lon="-1.50029">
        <ele>104.321543</ele>
        <time>2022-07-30T10:14:49.000Z</time>
      </trkpt>
      <trkpt lat="49.61749" lon="-1.50025">
        <ele>104.335165</ele>
        <time>2022-07-30T10:14:50.000Z</time>
      </trkpt>
      <trkpt lat="49.61747" lon="-1.5002">
        <ele>104.349109</ele>
        <time>2022-07-30T10:14:51.000Z</time>
      </trkpt>
      <trkpt lat="49.61745" lon="-1.50016">
        <ele>104.364194</ele>
        <time>2022-07-30T10:14:52.000Z</time>
      </trkpt>
      <trkpt lat="49.61743" lon="-1.50012">
        <ele>104.377493</ele>
        <time>2022-07-30T10:14:53.000Z</time>
      </trkpt>
      <trkpt lat="49.61741" lon="-1.50008">
        <ele>104.389955</ele>
        <time>2022-07-30T10:14:54.000Z</time>
      </trkpt>
      <trkpt lat="49.61739" lon="-1.50004">
        <ele>104.401939</ele>
        <time>2022-07-30T10:14:55.000Z</time>
      </trkpt>
      <trkpt lat="49.61738" lon="-1.5">
        <ele>104.413705</ele>
        <time>2022-07-30T10:14:56.000Z</time>
      </trkpt>
      <trkpt lat="49.61735" lon="-1.49996">
        <ele>104.428415</ele>
        <time>2022-07-30T10:14:57.000Z</time>
      </trkpt>
      <trkpt lat="49.61734" lon="-1.49992">
        <ele>104.440332</ele>
        <time>2022-07-30T10:14:58.000Z</time>
      </trkpt>
      <trkpt lat="49.61733" lon="-1.49988">
        <ele>104.451488</ele>
        <time>2022-07-30T10:14:59.000Z</time>
      </trkpt>
      <trkpt lat="49.61731" lon="-1.49984">
        <ele>104.463037</ele>
        <time>2022-07-30T10:15:00.000Z</time>
      </trkpt>
      <trkpt lat="49.6173" lon="-1.49981">
        <ele>104.472496</ele>
        <time>2022-07-30T10:15:01.000Z</time>
      </trkpt>
      <trkpt lat="49.61729" lon="-1.49977">
        <ele>104.483652</ele>
        <time>2022-07-30T10:15:02.000Z</time>
      </trkpt>
      <trkpt lat="49.61726" lon="-1.49973">
        <ele>104.497077</ele>
        <time>2022-07-30T10:15:03.000Z</time>
      </trkpt>
      <trkpt lat="49.61725" lon="-1.49969">
        <ele>104.509954</ele>
        <time>2022-07-30T10:15:04.000Z</time>
      </trkpt>
      <trkpt lat="49.61723" lon="-1.49965">
        <ele>104.52283</ele>
        <time>2022-07-30T10:15:05.000Z</time>
      </trkpt>
      <trkpt lat="49.6172" lon="-1.49961">
        <ele>104.536715</ele>
        <time>2022-07-30T10:15:06.000Z</time>
      </trkpt>
      <trkpt lat="49.61718" lon="-1.49957">
        <ele>104.550228</ele>
        <time>2022-07-30T10:15:07.000Z</time>
      </trkpt>
      <trkpt lat="49.61716" lon="-1.49952">
        <ele>104.567009</ele>
        <time>2022-07-30T10:15:08.000Z</time>
      </trkpt>
      <trkpt lat="49.61714" lon="-1.49946">
        <ele>104.582708</ele>
        <time>2022-07-30T10:15:09.000Z</time>
      </trkpt>
      <trkpt lat="49.61711" lon="-1.49942">
        <ele>104.598906</ele>
        <time>2022-07-30T10:15:10.000Z</time>
      </trkpt>
      <trkpt lat="49.61709" lon="-1.49937">
        <ele>104.613992</ele>
        <time>2022-07-30T10:15:11.000Z</time>
      </trkpt>
      <trkpt lat="49.61707" lon="-1.49933">
        <ele>104.627936</ele>
        <time>2022-07-30T10:15:12.000Z</time>
      </trkpt>
      <trkpt lat="49.61705" lon="-1.49928">
        <ele>104.642572</ele>
        <time>2022-07-30T10:15:13.000Z</time>
      </trkpt>
      <trkpt lat="49.61703" lon="-1.49924">
        <ele>104.657864</ele>
        <time>2022-07-30T10:15:14.000Z</time>
      </trkpt>
      <trkpt lat="49.61701" lon="-1.49919">
        <ele>104.5982</ele>
        <time>2022-07-30T10:15:15.000Z</time>
      </trkpt>
      <trkpt lat="49.61698" lon="-1.49914">
        <ele>104.498775</ele>
        <time>2022-07-30T10:15:16.000Z</time>
      </trkpt>
      <trkpt lat="49.61695" lon="-1.49909">
        <ele>104.393187</ele>
        <time>2022-07-30T10:15:17.000Z</time>
      </trkpt>
      <trkpt lat="49.61693" lon="-1.49904">
        <ele>104.292847</ele>
        <time>2022-07-30T10:15:18.000Z</time>
      </trkpt>
      <trkpt lat="49.6169" lon="-1.499">
        <ele>104.1968</ele>
        <time>2022-07-30T10:15:19.000Z</time>
      </trkpt>
      <trkpt lat="49.61687" lon="-1.49895">
        <ele>104.090477</ele>
        <time>2022-07-30T10:15:20.000Z</time>
      </trkpt>
      <trkpt lat="49.61685" lon="-1.49889">
        <ele>103.983526</ele>
        <time>2022-07-30T10:15:21.000Z</time>
      </trkpt>
      <trkpt lat="49.61682" lon="-1.49884">
        <ele>103.880382</ele>
        <time>2022-07-30T10:15:22.000Z</time>
      </trkpt>
      <trkpt lat="49.61679" lon="-1.49879">
        <ele>103.767314</ele>
        <time>2022-07-30T10:15:23.000Z</time>
      </trkpt>
      <trkpt lat="49.61677" lon="-1.49874">
        <ele>103.665706</ele>
        <time>2022-07-30T10:15:24.000Z</time>
      </trkpt>
      <trkpt lat="49.61674" lon="-1.49869">
        <ele>103.557742</ele>
        <time>2022-07-30T10:15:25.000Z</time>
      </trkpt>
      <trkpt lat="49.61671" lon="-1.49864">
        <ele>103.449504</ele>
        <time>2022-07-30T10:15:26.000Z</time>
      </trkpt>
      <trkpt lat="49.61669" lon="-1.49859">
        <ele>103.346617</ele>
        <time>2022-07-30T10:15:27.000Z</time>
      </trkpt>
      <trkpt lat="49.61666" lon="-1.49853">
        <ele>103.233777</ele>
        <time>2022-07-30T10:15:28.000Z</time>
      </trkpt>
      <trkpt lat="49.61663" lon="-1.49848">
        <ele>103.126826</ele>
        <time>2022-07-30T10:15:29.000Z</time>
      </trkpt>
      <trkpt lat="49.61661" lon="-1.49842">
        <ele>103.016088</ele>
        <time>2022-07-30T10:15:30.000Z</time>
      </trkpt>
      <trkpt lat="49.61658" lon="-1.49837">
        <ele>102.906687</ele>
        <time>2022-07-30T10:15:31.000Z</time>
      </trkpt>
      <trkpt lat="49.61656" lon="-1.49831">
        <ele>102.795949</ele>
        <time>2022-07-30T10:15:32.000Z</time>
      </trkpt>
      <trkpt lat="49.61653" lon="-1.49826">
        <ele>102.693322</ele>
        <time>2022-07-30T10:15:33.000Z</time>
      </trkpt>
      <trkpt lat="49.61652" lon="-1.4982">
        <ele>102.595873</ele>
        <time>2022-07-30T10:15:34.000Z</time>
      </trkpt>
      <trkpt lat="49.6165" lon="-1.49814">
        <ele>102.489875</ele>
        <time>2022-07-30T10:15:35.000Z</time>
      </trkpt>
      <trkpt lat="49.61648" lon="-1.49809">
        <ele>102.385314</ele>
        <time>2022-07-30T10:15:36.000Z</time>
      </trkpt>
      <trkpt lat="49.61645" lon="-1.49803">
        <ele>102.277282</ele>
        <time>2022-07-30T10:15:37.000Z</time>
      </trkpt>
      <trkpt lat="49.61644" lon="-1.49797">
        <ele>102.172896</ele>
        <time>2022-07-30T10:15:38.000Z</time>
      </trkpt>
      <trkpt lat="49.61642" lon="-1.4979">
        <ele>102.056705</ele>
        <time>2022-07-30T10:15:39.000Z</time>
      </trkpt>
      <trkpt lat="49.6164" lon="-1.49783">
        <ele>101.937285</ele>
        <time>2022-07-30T10:15:40.000Z</time>
      </trkpt>
      <trkpt lat="49.61638" lon="-1.49776">
        <ele>101.809226</ele>
        <time>2022-07-30T10:15:41.000Z</time>
      </trkpt>
      <trkpt lat="49.61637" lon="-1.49768">
        <ele>101.67299</ele>
        <time>2022-07-30T10:15:42.000Z</time>
      </trkpt>
      <trkpt lat="49.61635" lon="-1.4976">
        <ele>101.532884</ele>
        <time>2022-07-30T10:15:43.000Z</time>
      </trkpt>
      <trkpt lat="49.61633" lon="-1.49751">
        <ele>101.393567</ele>
        <time>2022-07-30T10:15:44.000Z</time>
      </trkpt>
      <trkpt lat="49.61631" lon="-1.49742">
        <ele>101.24281</ele>
        <time>2022-07-30T10:15:45.000Z</time>
      </trkpt>
      <trkpt lat="49.61629" lon="-1.49734">
        <ele>101.093128</ele>
        <time>2022-07-30T10:15:46.000Z</time>
      </trkpt>
      <trkpt lat="49.61627" lon="-1.49724">
        <ele>100.932335</ele>
        <time>2022-07-30T10:15:47.000Z</time>
      </trkpt>
      <trkpt lat="49.61625" lon="-1.49714">
        <ele>100.760099</ele>
        <time>2022-07-30T10:15:48.000Z</time>
      </trkpt>
      <trkpt lat="49.61622" lon="-1.49704">
        <ele>100.580128</ele>
        <time>2022-07-30T10:15:49.000Z</time>
      </trkpt>
      <trkpt lat="49.61621" lon="-1.49693">
        <ele>100.395612</ele>
        <time>2022-07-30T10:15:50.000Z</time>
      </trkpt>
      <trkpt lat="49.61618" lon="-1.49681">
        <ele>100.200073</ele>
        <time>2022-07-30T10:15:51.000Z</time>
      </trkpt>
      <trkpt lat="49.61616" lon="-1.49669">
        <ele>99.783232</ele>
        <time>2022-07-30T10:15:52.000Z</time>
      </trkpt>
      <trkpt lat="49.61614" lon="-1.49657">
        <ele>99.332242</ele>
        <time>2022-07-30T10:15:53.000Z</time>
      </trkpt>
      <trkpt lat="49.61612" lon="-1.49643">
        <ele>98.860907</ele>
        <time>2022-07-30T10:15:54.000Z</time>
      </trkpt>
      <trkpt lat="49.61611" lon="-1.4963">
        <ele>98.392172</ele>
        <time>2022-07-30T10:15:55.000Z</time>
      </trkpt>
      <trkpt lat="49.6161" lon="-1.49616">
        <ele>97.933625</ele>
        <time>2022-07-30T10:15:56.000Z</time>
      </trkpt>
      <trkpt lat="49.61609" lon="-1.49603">
        <ele>97.475746</ele>
        <time>2022-07-30T10:15:57.000Z</time>
      </trkpt>
      <trkpt lat="49.61609" lon="-1.4959">
        <ele>97.021911</ele>
        <time>2022-07-30T10:15:58.000Z</time>
      </trkpt>
      <trkpt lat="49.61609" lon="-1.49577">
        <ele>96.564646</ele>
        <time>2022-07-30T10:15:59.000Z</time>
      </trkpt>
      <trkpt lat="49.6161" lon="-1.49564">
        <ele>96.117044</ele>
        <time>2022-07-30T10:16:00.000Z</time>
      </trkpt>
      <trkpt lat="49.61611" lon="-1.4955">
        <ele>95.655102</ele>
        <time>2022-07-30T10:16:01.000Z</time>
      </trkpt>
      <trkpt lat="49.61613" lon="-1.49536">
        <ele>95.15367</ele>
        <time>2022-07-30T10:16:02.000Z</time>
      </trkpt>
      <trkpt lat="49.61616" lon="-1.49522">
        <ele>94.642334</ele>
        <time>2022-07-30T10:16:03.000Z</time>
      </trkpt>
      <trkpt lat="49.6162" lon="-1.49507">
        <ele>94.101246</ele>
        <time>2022-07-30T10:16:04.000Z</time>
      </trkpt>
      <trkpt lat="49.61622" lon="-1.49492">
        <ele>93.567972</ele>
        <time>2022-07-30T10:16:05.000Z</time>
      </trkpt>
      <trkpt lat="49.61625" lon="-1.49477">
        <ele>93.013893</ele>
        <time>2022-07-30T10:16:06.000Z</time>
      </trkpt>
      <trkpt lat="49.61628" lon="-1.49461">
        <ele>92.45865</ele>
        <time>2022-07-30T10:16:07.000Z</time>
      </trkpt>
      <trkpt lat="49.6163" lon="-1.49446">
        <ele>91.934197</ele>
        <time>2022-07-30T10:16:08.000Z</time>
      </trkpt>
      <trkpt lat="49.61633" lon="-1.49432">
        <ele>91.420803</ele>
        <time>2022-07-30T10:16:09.000Z</time>
      </trkpt>
      <trkpt lat="49.61635" lon="-1.49418">
        <ele>90.932724</ele>
        <time>2022-07-30T10:16:10.000Z</time>
      </trkpt>
      <trkpt lat="49.61637" lon="-1.49404">
        <ele>90.439718</ele>
        <time>2022-07-30T10:16:11.000Z</time>
      </trkpt>
      <trkpt lat="49.6164" lon="-1.4939">
        <ele>89.950182</ele>
        <time>2022-07-30T10:16:12.000Z</time>
      </trkpt>
      <trkpt lat="49.61644" lon="-1.49376">
        <ele>89.458916</ele>
        <time>2022-07-30T10:16:13.000Z</time>
      </trkpt>
      <trkpt lat="49.61647" lon="-1.49362">
        <ele>88.962343</ele>
        <time>2022-07-30T10:16:14.000Z</time>
      </trkpt>
      <trkpt lat="49.6165" lon="-1.49348">
        <ele>88.471079</ele>
        <time>2022-07-30T10:16:15.000Z</time>
      </trkpt>
      <trkpt lat="49.61653" lon="-1.49335">
        <ele>88.02086</ele>
        <time>2022-07-30T10:16:16.000Z</time>
      </trkpt>
      <trkpt lat="49.61655" lon="-1.49321">
        <ele>87.548459</ele>
        <time>2022-07-30T10:16:17.000Z</time>
      </trkpt>
      <trkpt lat="49.61658" lon="-1.49308">
        <ele>87.079393</ele>
        <time>2022-07-30T10:16:18.000Z</time>
      </trkpt>
      <trkpt lat="49.61661" lon="-1.49294">
        <ele>86.607865</ele>
        <time>2022-07-30T10:16:19.000Z</time>
      </trkpt>
      <trkpt lat="49.61663" lon="-1.4928">
        <ele>86.124635</ele>
        <time>2022-07-30T10:16:20.000Z</time>
      </trkpt>
      <trkpt lat="49.61666" lon="-1.49266">
        <ele>85.660778</ele>
        <time>2022-07-30T10:16:21.000Z</time>
      </trkpt>
      <trkpt lat="49.61669" lon="-1.49252">
        <ele>85.177548</ele>
        <time>2022-07-30T10:16:22.000Z</time>
      </trkpt>
      <trkpt lat="49.61671" lon="-1.49239">
        <ele>84.703373</ele>
        <time>2022-07-30T10:16:23.000Z</time>
      </trkpt>
      <trkpt lat="49.61673" lon="-1.49224">
        <ele>84.219015</ele>
        <time>2022-07-30T10:16:24.000Z</time>
      </trkpt>
      <trkpt lat="49.61675" lon="-1.4921">
        <ele>83.719743</ele>
        <time>2022-07-30T10:16:25.000Z</time>
      </trkpt>
      <trkpt lat="49.61676" lon="-1.49194">
        <ele>83.210877</ele>
        <time>2022-07-30T10:16:26.000Z</time>
      </trkpt>
      <trkpt lat="49.61676" lon="-1.49178">
        <ele>82.680211</ele>
        <time>2022-07-30T10:16:27.000Z</time>
      </trkpt>
      <trkpt lat="49.61673" lon="-1.49163">
        <ele>82.155132</ele>
        <time>2022-07-30T10:16:28.000Z</time>
      </trkpt>
      <trkpt lat="49.61669" lon="-1.49148">
        <ele>81.623356</ele>
        <time>2022-07-30T10:16:29.000Z</time>
      </trkpt>
      <trkpt lat="49.61666" lon="-1.49133">
        <ele>81.147617</ele>
        <time>2022-07-30T10:16:30.000Z</time>
      </trkpt>
      <trkpt lat="49.61662" lon="-1.49118">
        <ele>80.687237</ele>
        <time>2022-07-30T10:16:31.000Z</time>
      </trkpt>
      <trkpt lat="49.61659" lon="-1.49103">
        <ele>80.25131</ele>
        <time>2022-07-30T10:16:32.000Z</time>
      </trkpt>
      <trkpt lat="49.61657" lon="-1.4909">
        <ele>79.84732</ele>
        <time>2022-07-30T10:16:33.000Z</time>
      </trkpt>
      <trkpt lat="49.61655" lon="-1.49076">
        <ele>79.451729</ele>
        <time>2022-07-30T10:16:34.000Z</time>
      </trkpt>
      <trkpt lat="49.61653" lon="-1.49064">
        <ele>79.079634</ele>
        <time>2022-07-30T10:16:35.000Z</time>
      </trkpt>
      <trkpt lat="49.61651" lon="-1.49052">
        <ele>78.74042</ele>
        <time>2022-07-30T10:16:36.000Z</time>
      </trkpt>
      <trkpt lat="49.61647" lon="-1.49043">
        <ele>78.417827</ele>
        <time>2022-07-30T10:16:37.000Z</time>
      </trkpt>
      <trkpt lat="49.61643" lon="-1.49034">
        <ele>78.107447</ele>
        <time>2022-07-30T10:16:38.000Z</time>
      </trkpt>
      <trkpt lat="49.61638" lon="-1.49026">
        <ele>77.786066</ele>
        <time>2022-07-30T10:16:39.000Z</time>
      </trkpt>
      <trkpt lat="49.61633" lon="-1.49019">
        <ele>77.494201</ele>
        <time>2022-07-30T10:16:40.000Z</time>
      </trkpt>
      <trkpt lat="49.61627" lon="-1.49013">
        <ele>77.176037</ele>
        <time>2022-07-30T10:16:41.000Z</time>
      </trkpt>
      <trkpt lat="49.61621" lon="-1.49008">
        <ele>76.878136</ele>
        <time>2022-07-30T10:16:42.000Z</time>
      </trkpt>
      <trkpt lat="49.61616" lon="-1.49002">
        <ele>76.59683</ele>
        <time>2022-07-30T10:16:43.000Z</time>
      </trkpt>
      <trkpt lat="49.6161" lon="-1.48997">
        <ele>76.301806</ele>
        <time>2022-07-30T10:16:44.000Z</time>
      </trkpt>
      <trkpt lat="49.61604" lon="-1.48992">
        <ele>76.013443</ele>
        <time>2022-07-30T10:16:45.000Z</time>
      </trkpt>
      <trkpt lat="49.61599" lon="-1.48987">
        <ele>75.742668</ele>
        <time>2022-07-30T10:16:46.000Z</time>
      </trkpt>
      <trkpt lat="49.61594" lon="-1.48983">
        <ele>75.467254</ele>
        <time>2022-07-30T10:16:47.000Z</time>
      </trkpt>
      <trkpt lat="49.61589" lon="-1.48978">
        <ele>75.211313</ele>
        <time>2022-07-30T10:16:48.000Z</time>
      </trkpt>
      <trkpt lat="49.61584" lon="-1.48973">
        <ele>74.944279</ele>
        <time>2022-07-30T10:16:49.000Z</time>
      </trkpt>
      <trkpt lat="49.61579" lon="-1.48968">
        <ele>74.696064</ele>
        <time>2022-07-30T10:16:50.000Z</time>
      </trkpt>
      <trkpt lat="49.61574" lon="-1.48963">
        <ele>74.433535</ele>
        <time>2022-07-30T10:16:51.000Z</time>
      </trkpt>
      <trkpt lat="49.61569" lon="-1.48959">
        <ele>74.18532</ele>
        <time>2022-07-30T10:16:52.000Z</time>
      </trkpt>
      <trkpt lat="49.61564" lon="-1.48955">
        <ele>73.927244</ele>
        <time>2022-07-30T10:16:53.000Z</time>
      </trkpt>
      <trkpt lat="49.61559" lon="-1.48951">
        <ele>73.70299</ele>
        <time>2022-07-30T10:16:54.000Z</time>
      </trkpt>
      <trkpt lat="49.61555" lon="-1.48947">
        <ele>73.529836</ele>
        <time>2022-07-30T10:16:55.000Z</time>
      </trkpt>
      <trkpt lat="49.6155" lon="-1.48943">
        <ele>73.542378</ele>
        <time>2022-07-30T10:16:56.000Z</time>
      </trkpt>
      <trkpt lat="49.61546" lon="-1.48939">
        <ele>73.553774</ele>
        <time>2022-07-30T10:16:57.000Z</time>
      </trkpt>
      <trkpt lat="49.61542" lon="-1.48935">
        <ele>73.564796</ele>
        <time>2022-07-30T10:16:58.000Z</time>
      </trkpt>
      <trkpt lat="49.61539" lon="-1.48931">
        <ele>73.575905</ele>
        <time>2022-07-30T10:16:59.000Z</time>
      </trkpt>
      <trkpt lat="49.61535" lon="-1.48927">
        <ele>73.586439</ele>
        <time>2022-07-30T10:17:00.000Z</time>
      </trkpt>
      <trkpt lat="49.61532" lon="-1.48923">
        <ele>73.596957</ele>
        <time>2022-07-30T10:17:01.000Z</time>
      </trkpt>
      <trkpt lat="49.61528" lon="-1.48919">
        <ele>73.607762</ele>
        <time>2022-07-30T10:17:02.000Z</time>
      </trkpt>
      <trkpt lat="49.61525" lon="-1.48914">
        <ele>73.617432</ele>
        <time>2022-07-30T10:17:03.000Z</time>
      </trkpt>
      <trkpt lat="49.61524" lon="-1.48909">
        <ele>73.626503</ele>
        <time>2022-07-30T10:17:04.000Z</time>
      </trkpt>
      <trkpt lat="49.61522" lon="-1.48904">
        <ele>73.635574</ele>
        <time>2022-07-30T10:17:05.000Z</time>
      </trkpt>
      <trkpt lat="49.61521" lon="-1.48899">
        <ele>73.644513</ele>
        <time>2022-07-30T10:17:06.000Z</time>
      </trkpt>
      <trkpt lat="49.61521" lon="-1.48893">
        <ele>73.65312</ele>
        <time>2022-07-30T10:17:07.000Z</time>
      </trkpt>
      <trkpt lat="49.61521" lon="-1.48888">
        <ele>73.661413</ele>
        <time>2022-07-30T10:17:08.000Z</time>
      </trkpt>
      <trkpt lat="49.61521" lon="-1.48882">
        <ele>73.6708</ele>
        <time>2022-07-30T10:17:09.000Z</time>
      </trkpt>
      <trkpt lat="49.61522" lon="-1.48876">
        <ele>73.679593</ele>
        <time>2022-07-30T10:17:10.000Z</time>
      </trkpt>
      <trkpt lat="49.61523" lon="-1.48871">
        <ele>73.688833</ele>
        <time>2022-07-30T10:17:11.000Z</time>
      </trkpt>
      <trkpt lat="49.61523" lon="-1.48865">
        <ele>73.697561</ele>
        <time>2022-07-30T10:17:12.000Z</time>
      </trkpt>
      <trkpt lat="49.61524" lon="-1.4886">
        <ele>73.706289</ele>
        <time>2022-07-30T10:17:13.000Z</time>
      </trkpt>
      <trkpt lat="49.61525" lon="-1.48855">
        <ele>73.713988</ele>
        <time>2022-07-30T10:17:14.000Z</time>
      </trkpt>
      <trkpt lat="49.61525" lon="-1.4885">
        <ele>73.721358</ele>
        <time>2022-07-30T10:17:15.000Z</time>
      </trkpt>
      <trkpt lat="49.61526" lon="-1.48846">
        <ele>73.728655</ele>
        <time>2022-07-30T10:17:16.000Z</time>
      </trkpt>
      <trkpt lat="49.61528" lon="-1.48842">
        <ele>73.73608</ele>
        <time>2022-07-30T10:17:17.000Z</time>
      </trkpt>
      <trkpt lat="49.61528" lon="-1.48837">
        <ele>73.743269</ele>
        <time>2022-07-30T10:17:18.000Z</time>
      </trkpt>
      <trkpt lat="49.61529" lon="-1.48833">
        <ele>73.750419</ele>
        <time>2022-07-30T10:17:19.000Z</time>
      </trkpt>
      <trkpt lat="49.6153" lon="-1.48828">
        <ele>73.757809</ele>
        <time>2022-07-30T10:17:20.000Z</time>
      </trkpt>
      <trkpt lat="49.6153" lon="-1.48823">
        <ele>73.765355</ele>
        <time>2022-07-30T10:17:21.000Z</time>
      </trkpt>
      <trkpt lat="49.61531" lon="-1.48819">
        <ele>73.772902</ele>
        <time>2022-07-30T10:17:22.000Z</time>
      </trkpt>
      <trkpt lat="49.61532" lon="-1.48814">
        <ele>73.780571</ele>
        <time>2022-07-30T10:17:23.000Z</time>
      </trkpt>
      <trkpt lat="49.61532" lon="-1.48809">
        <ele>73.788576</ele>
        <time>2022-07-30T10:17:24.000Z</time>
      </trkpt>
      <trkpt lat="49.61533" lon="-1.48804">
        <ele>73.796696</ele>
        <time>2022-07-30T10:17:25.000Z</time>
      </trkpt>
      <trkpt lat="49.61533" lon="-1.48799">
        <ele>73.80471</ele>
        <time>2022-07-30T10:17:26.000Z</time>
      </trkpt>
      <trkpt lat="49.61534" lon="-1.48794">
        <ele>73.812904</ele>
        <time>2022-07-30T10:17:27.000Z</time>
      </trkpt>
      <trkpt lat="49.61534" lon="-1.48789">
        <ele>73.820862</ele>
        <time>2022-07-30T10:17:28.000Z</time>
      </trkpt>
      <trkpt lat="49.61535" lon="-1.48784">
        <ele>73.828752</ele>
        <time>2022-07-30T10:17:29.000Z</time>
      </trkpt>
      <trkpt lat="49.61536" lon="-1.48779">
        <ele>73.836709</ele>
        <time>2022-07-30T10:17:30.000Z</time>
      </trkpt>
      <trkpt lat="49.61537" lon="-1.48774">
        <ele>73.844974</ele>
        <time>2022-07-30T10:17:31.000Z</time>
      </trkpt>
      <trkpt lat="49.61538" lon="-1.48769">
        <ele>73.852864</ele>
        <time>2022-07-30T10:17:32.000Z</time>
      </trkpt>
      <trkpt lat="49.61538" lon="-1.48764">
        <ele>73.860822</ele>
        <time>2022-07-30T10:17:33.000Z</time>
      </trkpt>
      <trkpt lat="49.61539" lon="-1.48759">
        <ele>73.86931</ele>
        <time>2022-07-30T10:17:34.000Z</time>
      </trkpt>
      <trkpt lat="49.6154" lon="-1.48754">
        <ele>73.876077</ele>
        <time>2022-07-30T10:17:35.000Z</time>
      </trkpt>
      <trkpt lat="49.61541" lon="-1.4875">
        <ele>73.883819</ele>
        <time>2022-07-30T10:17:36.000Z</time>
      </trkpt>
      <trkpt lat="49.61541" lon="-1.48745">
        <ele>73.891488</ele>
        <time>2022-07-30T10:17:37.000Z</time>
      </trkpt>
      <trkpt lat="49.61542" lon="-1.4874">
        <ele>73.899081</ele>
        <time>2022-07-30T10:17:38.000Z</time>
      </trkpt>
      <trkpt lat="49.61544" lon="-1.48736">
        <ele>73.907077</ele>
        <time>2022-07-30T10:17:39.000Z</time>
      </trkpt>
      <trkpt lat="49.61545" lon="-1.48731">
        <ele>73.915198</ele>
        <time>2022-07-30T10:17:40.000Z</time>
      </trkpt>
      <trkpt lat="49.61546" lon="-1.48725">
        <ele>73.92392</ele>
        <time>2022-07-30T10:17:41.000Z</time>
      </trkpt>
      <trkpt lat="49.61547" lon="-1.4872">
        <ele>73.932496</ele>
        <time>2022-07-30T10:17:42.000Z</time>
      </trkpt>
      <trkpt lat="49.61549" lon="-1.48715">
        <ele>73.941218</ele>
        <time>2022-07-30T10:17:43.000Z</time>
      </trkpt>
      <trkpt lat="49.6155" lon="-1.4871">
        <ele>73.949359</ele>
        <time>2022-07-30T10:17:44.000Z</time>
      </trkpt>
      <trkpt lat="49.61551" lon="-1.48705">
        <ele>73.957556</ele>
        <time>2022-07-30T10:17:45.000Z</time>
      </trkpt>
      <trkpt lat="49.61552" lon="-1.48701">
        <ele>73.974196</ele>
        <time>2022-07-30T10:17:46.000Z</time>
      </trkpt>
      <trkpt lat="49.61553" lon="-1.48696">
        <ele>73.997422</ele>
        <time>2022-07-30T10:17:47.000Z</time>
      </trkpt>
      <trkpt lat="49.61554" lon="-1.48691">
        <ele>74.019302</ele>
        <time>2022-07-30T10:17:48.000Z</time>
      </trkpt>
      <trkpt lat="49.61555" lon="-1.48686">
        <ele>74.042663</ele>
        <time>2022-07-30T10:17:49.000Z</time>
      </trkpt>
      <trkpt lat="49.61556" lon="-1.48681">
        <ele>74.066879</ele>
        <time>2022-07-30T10:17:50.000Z</time>
      </trkpt>
      <trkpt lat="49.61557" lon="-1.48676">
        <ele>74.090683</ele>
        <time>2022-07-30T10:17:51.000Z</time>
      </trkpt>
      <trkpt lat="49.61558" lon="-1.48671">
        <ele>74.113957</ele>
        <time>2022-07-30T10:17:52.000Z</time>
      </trkpt>
      <trkpt lat="49.61559" lon="-1.48665">
        <ele>74.139675</ele>
        <time>2022-07-30T10:17:53.000Z</time>
      </trkpt>
      <trkpt lat="49.6156" lon="-1.4866">
        <ele>74.163427</ele>
        <time>2022-07-30T10:17:54.000Z</time>
      </trkpt>
      <trkpt lat="49.61561" lon="-1.48655">
        <ele>74.188727</ele>
        <time>2022-07-30T10:17:55.000Z</time>
      </trkpt>
      <trkpt lat="49.61561" lon="-1.48649">
        <ele>74.212923</ele>
        <time>2022-07-30T10:17:56.000Z</time>
      </trkpt>
      <trkpt lat="49.61562" lon="-1.48644">
        <ele>74.236091</ele>
        <time>2022-07-30T10:17:57.000Z</time>
      </trkpt>
      <trkpt lat="49.61563" lon="-1.48639">
        <ele>74.260239</ele>
        <time>2022-07-30T10:17:58.000Z</time>
      </trkpt>
      <trkpt lat="49.61563" lon="-1.48634">
        <ele>74.28399</ele>
        <time>2022-07-30T10:17:59.000Z</time>
      </trkpt>
      <trkpt lat="49.61563" lon="-1.48628">
        <ele>74.308544</ele>
        <time>2022-07-30T10:18:00.000Z</time>
      </trkpt>
      <trkpt lat="49.61564" lon="-1.48623">
        <ele>74.332741</ele>
        <time>2022-07-30T10:18:01.000Z</time>
      </trkpt>
      <trkpt lat="49.61564" lon="-1.48618">
        <ele>74.355603</ele>
        <time>2022-07-30T10:18:02.000Z</time>
      </trkpt>
      <trkpt lat="49.61565" lon="-1.48613">
        <ele>74.379313</ele>
        <time>2022-07-30T10:18:03.000Z</time>
      </trkpt>
      <trkpt lat="49.61565" lon="-1.48607">
        <ele>74.402528</ele>
        <time>2022-07-30T10:18:04.000Z</time>
      </trkpt>
      <trkpt lat="49.61565" lon="-1.48602">
        <ele>74.426548</ele>
        <time>2022-07-30T10:18:05.000Z</time>
      </trkpt>
      <trkpt lat="49.61565" lon="-1.48597">
        <ele>74.449763</ele>
        <time>2022-07-30T10:18:06.000Z</time>
      </trkpt>
      <trkpt lat="49.61565" lon="-1.48592">
        <ele>74.472465</ele>
        <time>2022-07-30T10:18:07.000Z</time>
      </trkpt>
      <trkpt lat="49.61565" lon="-1.48587">
        <ele>74.495233</ele>
        <time>2022-07-30T10:18:08.000Z</time>
      </trkpt>
      <trkpt lat="49.61564" lon="-1.48582">
        <ele>74.517651</ele>
        <time>2022-07-30T10:18:09.000Z</time>
      </trkpt>
      <trkpt lat="49.61564" lon="-1.48577">
        <ele>74.541361</ele>
        <time>2022-07-30T10:18:10.000Z</time>
      </trkpt>
      <trkpt lat="49.61563" lon="-1.48572">
        <ele>74.563779</ele>
        <time>2022-07-30T10:18:11.000Z</time>
      </trkpt>
      <trkpt lat="49.61563" lon="-1.48566">
        <ele>74.587086</ele>
        <time>2022-07-30T10:18:12.000Z</time>
      </trkpt>
      <trkpt lat="49.61563" lon="-1.48561">
        <ele>74.609854</ele>
        <time>2022-07-30T10:18:13.000Z</time>
      </trkpt>
      <trkpt lat="49.61562" lon="-1.48557">
        <ele>74.631939</ele>
        <time>2022-07-30T10:18:14.000Z</time>
      </trkpt>
      <trkpt lat="49.61562" lon="-1.48552">
        <ele>74.653024</ele>
        <time>2022-07-30T10:18:15.000Z</time>
      </trkpt>
      <trkpt lat="49.61561" lon="-1.48547">
        <ele>74.673972</ele>
        <time>2022-07-30T10:18:16.000Z</time>
      </trkpt>
      <trkpt lat="49.6156" lon="-1.48543">
        <ele>74.695561</ele>
        <time>2022-07-30T10:18:17.000Z</time>
      </trkpt>
      <trkpt lat="49.61559" lon="-1.48539">
        <ele>74.71449</ele>
        <time>2022-07-30T10:18:18.000Z</time>
      </trkpt>
      <trkpt lat="49.61558" lon="-1.48535">
        <ele>74.733394</ele>
        <time>2022-07-30T10:18:19.000Z</time>
      </trkpt>
      <trkpt lat="49.61558" lon="-1.48531">
        <ele>74.752258</ele>
        <time>2022-07-30T10:18:20.000Z</time>
      </trkpt>
      <trkpt lat="49.61557" lon="-1.48526">
        <ele>74.772919</ele>
        <time>2022-07-30T10:18:21.000Z</time>
      </trkpt>
      <trkpt lat="49.61556" lon="-1.48522">
        <ele>74.793944</ele>
        <time>2022-07-30T10:18:22.000Z</time>
      </trkpt>
      <trkpt lat="49.61556" lon="-1.48517">
        <ele>74.815474</ele>
        <time>2022-07-30T10:18:23.000Z</time>
      </trkpt>
      <trkpt lat="49.61555" lon="-1.48512">
        <ele>74.838642</ele>
        <time>2022-07-30T10:18:24.000Z</time>
      </trkpt>
      <trkpt lat="49.61554" lon="-1.48507">
        <ele>74.861133</ele>
        <time>2022-07-30T10:18:25.000Z</time>
      </trkpt>
      <trkpt lat="49.61554" lon="-1.48502">
        <ele>74.883835</ele>
        <time>2022-07-30T10:18:26.000Z</time>
      </trkpt>
      <trkpt lat="49.61553" lon="-1.48497">
        <ele>74.906537</ele>
        <time>2022-07-30T10:18:27.000Z</time>
      </trkpt>
      <trkpt lat="49.61552" lon="-1.48492">
        <ele>74.928941</ele>
        <time>2022-07-30T10:18:28.000Z</time>
      </trkpt>
      <trkpt lat="49.61551" lon="-1.48487">
        <ele>74.952248</ele>
        <time>2022-07-30T10:18:29.000Z</time>
      </trkpt>
      <trkpt lat="49.6155" lon="-1.48482">
        <ele>74.976893</ele>
        <time>2022-07-30T10:18:30.000Z</time>
      </trkpt>
      <trkpt lat="49.6155" lon="-1.48477">
        <ele>75.000473</ele>
        <time>2022-07-30T10:18:31.000Z</time>
      </trkpt>
      <trkpt lat="49.61549" lon="-1.48471">
        <ele>75.025181</ele>
        <time>2022-07-30T10:18:32.000Z</time>
      </trkpt>
      <trkpt lat="49.61549" lon="-1.48466">
        <ele>75.049822</ele>
        <time>2022-07-30T10:18:33.000Z</time>
      </trkpt>
      <trkpt lat="49.61549" lon="-1.4846">
        <ele>75.075603</ele>
        <time>2022-07-30T10:18:34.000Z</time>
      </trkpt>
      <trkpt lat="49.61548" lon="-1.48454">
        <ele>75.101942</ele>
        <time>2022-07-30T10:18:35.000Z</time>
      </trkpt>
      <trkpt lat="49.61548" lon="-1.48448">
        <ele>75.127918</ele>
        <time>2022-07-30T10:18:36.000Z</time>
      </trkpt>
      <trkpt lat="49.61547" lon="-1.48442">
        <ele>75.154339</ele>
        <time>2022-07-30T10:18:37.000Z</time>
      </trkpt>
      <trkpt lat="49.61546" lon="-1.48437">
        <ele>75.181134</ele>
        <time>2022-07-30T10:18:38.000Z</time>
      </trkpt>
      <trkpt lat="49.61546" lon="-1.48431">
        <ele>75.177221</ele>
        <time>2022-07-30T10:18:39.000Z</time>
      </trkpt>
      <trkpt lat="49.61546" lon="-1.48425">
        <ele>75.102904</ele>
        <time>2022-07-30T10:18:40.000Z</time>
      </trkpt>
      <trkpt lat="49.61545" lon="-1.48419">
        <ele>75.030423</ele>
        <time>2022-07-30T10:18:41.000Z</time>
      </trkpt>
      <trkpt lat="49.61545" lon="-1.48414">
        <ele>74.960131</ele>
        <time>2022-07-30T10:18:42.000Z</time>
      </trkpt>
      <trkpt lat="49.61544" lon="-1.48409">
        <ele>74.890993</ele>
        <time>2022-07-30T10:18:43.000Z</time>
      </trkpt>
      <trkpt lat="49.61544" lon="-1.48404">
        <ele>74.823149</ele>
        <time>2022-07-30T10:18:44.000Z</time>
      </trkpt>
      <trkpt lat="49.61544" lon="-1.48398">
        <ele>74.754274</ele>
        <time>2022-07-30T10:18:45.000Z</time>
      </trkpt>
      <trkpt lat="49.61544" lon="-1.48393">
        <ele>74.68643</ele>
        <time>2022-07-30T10:18:46.000Z</time>
      </trkpt>
      <trkpt lat="49.61543" lon="-1.48388">
        <ele>74.618587</ele>
        <time>2022-07-30T10:18:47.000Z</time>
      </trkpt>
      <trkpt lat="49.61542" lon="-1.48382">
        <ele>74.544351</ele>
        <time>2022-07-30T10:18:48.000Z</time>
      </trkpt>
      <trkpt lat="49.61542" lon="-1.48377">
        <ele>74.471329</ele>
        <time>2022-07-30T10:18:49.000Z</time>
      </trkpt>
      <trkpt lat="49.61542" lon="-1.48371">
        <ele>74.39442</ele>
        <time>2022-07-30T10:18:50.000Z</time>
      </trkpt>
      <trkpt lat="49.61541" lon="-1.48365">
        <ele>74.312157</ele>
        <time>2022-07-30T10:18:51.000Z</time>
      </trkpt>
      <trkpt lat="49.61541" lon="-1.48358">
        <ele>74.231585</ele>
        <time>2022-07-30T10:18:52.000Z</time>
      </trkpt>
      <trkpt lat="49.61541" lon="-1.48352">
        <ele>74.146901</ele>
        <time>2022-07-30T10:18:53.000Z</time>
      </trkpt>
      <trkpt lat="49.61541" lon="-1.48345">
        <ele>74.062431</ele>
        <time>2022-07-30T10:18:54.000Z</time>
      </trkpt>
      <trkpt lat="49.61541" lon="-1.48339">
        <ele>73.976661</ele>
        <time>2022-07-30T10:18:55.000Z</time>
      </trkpt>
      <trkpt lat="49.61541" lon="-1.48332">
        <ele>73.885693</ele>
        <time>2022-07-30T10:18:56.000Z</time>
      </trkpt>
      <trkpt lat="49.61541" lon="-1.48324">
        <ele>73.789527</ele>
        <time>2022-07-30T10:18:57.000Z</time>
      </trkpt>
      <trkpt lat="49.61541" lon="-1.48317">
        <ele>73.69447</ele>
        <time>2022-07-30T10:18:58.000Z</time>
      </trkpt>
      <trkpt lat="49.61542" lon="-1.4831">
        <ele>73.59857</ele>
        <time>2022-07-30T10:18:59.000Z</time>
      </trkpt>
      <trkpt lat="49.61543" lon="-1.48303">
        <ele>73.503278</ele>
        <time>2022-07-30T10:19:00.000Z</time>
      </trkpt>
      <trkpt lat="49.61544" lon="-1.48295">
        <ele>73.407378</ele>
        <time>2022-07-30T10:19:01.000Z</time>
      </trkpt>
      <trkpt lat="49.61545" lon="-1.48288">
        <ele>73.31214</ele>
        <time>2022-07-30T10:19:02.000Z</time>
      </trkpt>
      <trkpt lat="49.61548" lon="-1.48282">
        <ele>73.213367</ele>
        <time>2022-07-30T10:19:03.000Z</time>
      </trkpt>
      <trkpt lat="49.6155" lon="-1.48275">
        <ele>73.119394</ele>
        <time>2022-07-30T10:19:04.000Z</time>
      </trkpt>
      <trkpt lat="49.61553" lon="-1.4827">
        <ele>73.019211</ele>
        <time>2022-07-30T10:19:05.000Z</time>
      </trkpt>
      <trkpt lat="49.61557" lon="-1.48265">
        <ele>72.919893</ele>
        <time>2022-07-30T10:19:06.000Z</time>
      </trkpt>
      <trkpt lat="49.61562" lon="-1.48262">
        <ele>72.816972</ele>
        <time>2022-07-30T10:19:07.000Z</time>
      </trkpt>
      <trkpt lat="49.61567" lon="-1.48261">
        <ele>72.713294</ele>
        <time>2022-07-30T10:19:08.000Z</time>
      </trkpt>
      <trkpt lat="49.61572" lon="-1.48261">
        <ele>72.617019</ele>
        <time>2022-07-30T10:19:09.000Z</time>
      </trkpt>
      <trkpt lat="49.61576" lon="-1.48261">
        <ele>72.526425</ele>
        <time>2022-07-30T10:19:10.000Z</time>
      </trkpt>
      <trkpt lat="49.6158" lon="-1.48262">
        <ele>72.455638</ele>
        <time>2022-07-30T10:19:11.000Z</time>
      </trkpt>
      <trkpt lat="49.61583" lon="-1.48262">
        <ele>72.383326</ele>
        <time>2022-07-30T10:19:12.000Z</time>
      </trkpt>
      <trkpt lat="49.61586" lon="-1.48262">
        <ele>72.333183</ele>
        <time>2022-07-30T10:19:13.000Z</time>
      </trkpt>
      <trkpt lat="49.61588" lon="-1.48263">
        <ele>72.286978</ele>
        <time>2022-07-30T10:19:14.000Z</time>
      </trkpt>
      <trkpt lat="49.61591" lon="-1.48262">
        <ele>72.236684</ele>
        <time>2022-07-30T10:19:15.000Z</time>
      </trkpt>
      <trkpt lat="49.61593" lon="-1.48262">
        <ele>72.184276</ele>
        <time>2022-07-30T10:19:16.000Z</time>
      </trkpt>
      <trkpt lat="49.61596" lon="-1.48262">
        <ele>72.126096</ele>
        <time>2022-07-30T10:19:17.000Z</time>
      </trkpt>
      <trkpt lat="49.616" lon="-1.4826">
        <ele>72.053576</ele>
        <time>2022-07-30T10:19:18.000Z</time>
      </trkpt>
      <trkpt lat="49.61603" lon="-1.48258">
        <ele>71.978719</ele>
        <time>2022-07-30T10:19:19.000Z</time>
      </trkpt>
      <trkpt lat="49.61607" lon="-1.48256">
        <ele>71.900811</ele>
        <time>2022-07-30T10:19:20.000Z</time>
      </trkpt>
      <trkpt lat="49.6161" lon="-1.48253">
        <ele>71.829308</ele>
        <time>2022-07-30T10:19:21.000Z</time>
      </trkpt>
      <trkpt lat="49.61612" lon="-1.48249">
        <ele>71.757488</ele>
        <time>2022-07-30T10:19:22.000Z</time>
      </trkpt>
      <trkpt lat="49.61615" lon="-1.48245">
        <ele>71.679175</ele>
        <time>2022-07-30T10:19:23.000Z</time>
      </trkpt>
      <trkpt lat="49.61617" lon="-1.4824">
        <ele>71.602634</ele>
        <time>2022-07-30T10:19:24.000Z</time>
      </trkpt>
      <trkpt lat="49.61619" lon="-1.48235">
        <ele>71.72225</ele>
        <time>2022-07-30T10:19:25.000Z</time>
      </trkpt>
      <trkpt lat="49.61621" lon="-1.4823">
        <ele>71.871646</ele>
        <time>2022-07-30T10:19:26.000Z</time>
      </trkpt>
      <trkpt lat="49.61622" lon="-1.48225">
        <ele>72.016961</ele>
        <time>2022-07-30T10:19:27.000Z</time>
      </trkpt>
      <trkpt lat="49.61623" lon="-1.4822">
        <ele>72.16232</ele>
        <time>2022-07-30T10:19:28.000Z</time>
      </trkpt>
      <trkpt lat="49.61624" lon="-1.48215">
        <ele>72.302507</ele>
        <time>2022-07-30T10:19:29.000Z</time>
      </trkpt>
      <trkpt lat="49.61625" lon="-1.4821">
        <ele>72.440135</ele>
        <time>2022-07-30T10:19:30.000Z</time>
      </trkpt>
      <trkpt lat="49.61625" lon="-1.48205">
        <ele>72.569324</ele>
        <time>2022-07-30T10:19:31.000Z</time>
      </trkpt>
      <trkpt lat="49.61625" lon="-1.482">
        <ele>72.695236</ele>
        <time>2022-07-30T10:19:32.000Z</time>
      </trkpt>
      <trkpt lat="49.61625" lon="-1.48196">
        <ele>72.811099</ele>
        <time>2022-07-30T10:19:33.000Z</time>
      </trkpt>
      <trkpt lat="49.61625" lon="-1.48192">
        <ele>72.919527</ele>
        <time>2022-07-30T10:19:34.000Z</time>
      </trkpt>
      <trkpt lat="49.61624" lon="-1.48189">
        <ele>73.020407</ele>
        <time>2022-07-30T10:19:35.000Z</time>
      </trkpt>
      <trkpt lat="49.61623" lon="-1.48185">
        <ele>73.115586</ele>
        <time>2022-07-30T10:19:36.000Z</time>
      </trkpt>
      <trkpt lat="49.61621" lon="-1.48183">
        <ele>73.215604</ele>
        <time>2022-07-30T10:19:37.000Z</time>
      </trkpt>
      <trkpt lat="49.6162" lon="-1.4818">
        <ele>73.305723</ele>
        <time>2022-07-30T10:19:38.000Z</time>
      </trkpt>
      <trkpt lat="49.61619" lon="-1.48177">
        <ele>73.389458</ele>
        <time>2022-07-30T10:19:39.000Z</time>
      </trkpt>
      <trkpt lat="49.61618" lon="-1.48174">
        <ele>73.479577</ele>
        <time>2022-07-30T10:19:40.000Z</time>
      </trkpt>
      <trkpt lat="49.61617" lon="-1.48172">
        <ele>73.56058</ele>
        <time>2022-07-30T10:19:41.000Z</time>
      </trkpt>
      <trkpt lat="49.61615" lon="-1.48169">
        <ele>73.662622</ele>
        <time>2022-07-30T10:19:42.000Z</time>
      </trkpt>
      <trkpt lat="49.61614" lon="-1.48166">
        <ele>73.741594</ele>
        <time>2022-07-30T10:19:43.000Z</time>
      </trkpt>
      <trkpt lat="49.61613" lon="-1.48164">
        <ele>73.820305</ele>
        <time>2022-07-30T10:19:44.000Z</time>
      </trkpt>
      <trkpt lat="49.61612" lon="-1.48161">
        <ele>73.906183</ele>
        <time>2022-07-30T10:19:45.000Z</time>
      </trkpt>
      <trkpt lat="49.6161" lon="-1.48157">
        <ele>74.057207</ele>
        <time>2022-07-30T10:19:47.000Z</time>
      </trkpt>
      <trkpt lat="49.61607" lon="-1.48153">
        <ele>74.209</ele>
        <time>2022-07-30T10:19:49.000Z</time>
      </trkpt>
      <trkpt lat="49.61606" lon="-1.48151">
        <ele>74.286043</ele>
        <time>2022-07-30T10:19:50.000Z</time>
      </trkpt>
      <trkpt lat="49.61604" lon="-1.48148">
        <ele>74.384068</ele>
        <time>2022-07-30T10:19:51.000Z</time>
      </trkpt>
      <trkpt lat="49.61603" lon="-1.48145">
        <ele>74.469721</ele>
        <time>2022-07-30T10:19:52.000Z</time>
      </trkpt>
      <trkpt lat="49.61602" lon="-1.48142">
        <ele>74.56641</ele>
        <time>2022-07-30T10:19:53.000Z</time>
      </trkpt>
      <trkpt lat="49.61601" lon="-1.48139">
        <ele>74.669877</ele>
        <time>2022-07-30T10:19:54.000Z</time>
      </trkpt>
      <trkpt lat="49.61599" lon="-1.48135">
        <ele>74.792204</ele>
        <time>2022-07-30T10:19:55.000Z</time>
      </trkpt>
      <trkpt lat="49.61597" lon="-1.48132">
        <ele>74.911377</ele>
        <time>2022-07-30T10:19:56.000Z</time>
      </trkpt>
      <trkpt lat="49.61596" lon="-1.48128">
        <ele>75.021797</ele>
        <time>2022-07-30T10:19:57.000Z</time>
      </trkpt>
      <trkpt lat="49.61594" lon="-1.48125">
        <ele>75.134374</ele>
        <time>2022-07-30T10:19:58.000Z</time>
      </trkpt>
      <trkpt lat="49.61593" lon="-1.48122">
        <ele>75.237841</ele>
        <time>2022-07-30T10:19:59.000Z</time>
      </trkpt>
      <trkpt lat="49.61591" lon="-1.48118">
        <ele>75.360168</ele>
        <time>2022-07-30T10:20:00.000Z</time>
      </trkpt>
      <trkpt lat="49.61589" lon="-1.48114">
        <ele>75.479341</ele>
        <time>2022-07-30T10:20:01.000Z</time>
      </trkpt>
      <trkpt lat="49.61588" lon="-1.48111">
        <ele>75.589762</ele>
        <time>2022-07-30T10:20:02.000Z</time>
      </trkpt>
      <trkpt lat="49.61586" lon="-1.48108">
        <ele>75.686451</ele>
        <time>2022-07-30T10:20:03.000Z</time>
      </trkpt>
      <trkpt lat="49.61585" lon="-1.48106">
        <ele>75.769804</ele>
        <time>2022-07-30T10:20:04.000Z</time>
      </trkpt>
      <trkpt lat="49.61583" lon="-1.48103">
        <ele>75.881454</ele>
        <time>2022-07-30T10:20:05.000Z</time>
      </trkpt>
      <trkpt lat="49.61581" lon="-1.481">
        <ele>75.979479</ele>
        <time>2022-07-30T10:20:06.000Z</time>
      </trkpt>
      <trkpt lat="49.6158" lon="-1.48097">
        <ele>76.077504</ele>
        <time>2022-07-30T10:20:07.000Z</time>
      </trkpt>
      <trkpt lat="49.61578" lon="-1.48094">
        <ele>76.183684</ele>
        <time>2022-07-30T10:20:08.000Z</time>
      </trkpt>
      <trkpt lat="49.61577" lon="-1.48091">
        <ele>76.277141</ele>
        <time>2022-07-30T10:20:09.000Z</time>
      </trkpt>
      <trkpt lat="49.61576" lon="-1.48088">
        <ele>76.385429</ele>
        <time>2022-07-30T10:20:10.000Z</time>
      </trkpt>
      <trkpt lat="49.61574" lon="-1.48085">
        <ele>76.482118</ele>
        <time>2022-07-30T10:20:11.000Z</time>
      </trkpt>
      <trkpt lat="49.61573" lon="-1.48082">
        <ele>76.574892</ele>
        <time>2022-07-30T10:20:12.000Z</time>
      </trkpt>
      <trkpt lat="49.61572" lon="-1.48079">
        <ele>76.685381</ele>
        <time>2022-07-30T10:20:13.000Z</time>
      </trkpt>
      <trkpt lat="49.6157" lon="-1.48076">
        <ele>76.789479</ele>
        <time>2022-07-30T10:20:14.000Z</time>
      </trkpt>
      <trkpt lat="49.61569" lon="-1.48073">
        <ele>76.878047</ele>
        <time>2022-07-30T10:20:15.000Z</time>
      </trkpt>
      <trkpt lat="49.61567" lon="-1.4807">
        <ele>76.995248</ele>
        <time>2022-07-30T10:20:16.000Z</time>
      </trkpt>
      <trkpt lat="49.61565" lon="-1.48066">
        <ele>77.107825</ele>
        <time>2022-07-30T10:20:17.000Z</time>
      </trkpt>
      <trkpt lat="49.61564" lon="-1.48063">
        <ele>77.218246</ele>
        <time>2022-07-30T10:20:18.000Z</time>
      </trkpt>
      <trkpt lat="49.61562" lon="-1.4806">
        <ele>77.328667</ele>
        <time>2022-07-30T10:20:19.000Z</time>
      </trkpt>
      <trkpt lat="49.61561" lon="-1.48056">
        <ele>77.434752</ele>
        <time>2022-07-30T10:20:20.000Z</time>
      </trkpt>
      <trkpt lat="49.61559" lon="-1.48053">
        <ele>77.54733</ele>
        <time>2022-07-30T10:20:21.000Z</time>
      </trkpt>
      <trkpt lat="49.61558" lon="-1.4805">
        <ele>77.647348</ele>
        <time>2022-07-30T10:20:22.000Z</time>
      </trkpt>
      <trkpt lat="49.61557" lon="-1.48048">
        <ele>77.727118</ele>
        <time>2022-07-30T10:20:23.000Z</time>
      </trkpt>
      <trkpt lat="49.61555" lon="-1.48044">
        <ele>77.847005</ele>
        <time>2022-07-30T10:20:25.000Z</time>
      </trkpt>
      <trkpt lat="49.61553" lon="-1.48041">
        <ele>77.950242</ele>
        <time>2022-07-30T10:20:27.000Z</time>
      </trkpt>
      <trkpt lat="49.61552" lon="-1.48039">
        <ele>78.028053</ele>
        <time>2022-07-30T10:20:29.000Z</time>
      </trkpt>
      <trkpt lat="49.61552" lon="-1.48035">
        <ele>78.141254</ele>
        <time>2022-07-30T10:20:32.000Z</time>
      </trkpt>
      <trkpt lat="49.61554" lon="-1.48032">
        <ele>78.25916</ele>
        <time>2022-07-30T10:20:34.000Z</time>
      </trkpt>
      <trkpt lat="49.61557" lon="-1.48034">
        <ele>78.373931</ele>
        <time>2022-07-30T10:20:36.000Z</time>
      </trkpt>
      <trkpt lat="49.61556" lon="-1.48038">
        <ele>78.497789</ele>
        <time>2022-07-30T10:20:38.000Z</time>
      </trkpt>
      <trkpt lat="49.61554" lon="-1.4804">
        <ele>78.588594</ele>
        <time>2022-07-30T10:20:39.000Z</time>
      </trkpt>
      <trkpt lat="49.61552" lon="-1.48037">
        <ele>78.691831</ele>
        <time>2022-07-30T10:20:41.000Z</time>
      </trkpt>
      <trkpt lat="49.6155" lon="-1.48035">
        <ele>78.795068</ele>
        <time>2022-07-30T10:20:42.000Z</time>
      </trkpt>
      <trkpt lat="49.61549" lon="-1.48032">
        <ele>78.891757</ele>
        <time>2022-07-30T10:20:43.000Z</time>
      </trkpt>
      <trkpt lat="49.61548" lon="-1.48029">
        <ele>78.988447</ele>
        <time>2022-07-30T10:20:44.000Z</time>
      </trkpt>
      <trkpt lat="49.61546" lon="-1.48025">
        <ele>79.154051</ele>
        <time>2022-07-30T10:20:45.000Z</time>
      </trkpt>
      <trkpt lat="49.61545" lon="-1.48023">
        <ele>79.328345</ele>
        <time>2022-07-30T10:20:46.000Z</time>
      </trkpt>
      <trkpt lat="49.61543" lon="-1.4802">
        <ele>79.502639</ele>
        <time>2022-07-30T10:20:47.000Z</time>
      </trkpt>
      <trkpt lat="49.61541" lon="-1.48017">
        <ele>79.684041</ele>
        <time>2022-07-30T10:20:48.000Z</time>
      </trkpt>
      <trkpt lat="49.6154" lon="-1.48014">
        <ele>79.872745</ele>
        <time>2022-07-30T10:20:49.000Z</time>
      </trkpt>
      <trkpt lat="49.61538" lon="-1.48011">
        <ele>80.047039</ele>
        <time>2022-07-30T10:20:50.000Z</time>
      </trkpt>
      <trkpt lat="49.61537" lon="-1.48008">
        <ele>80.235744</ele>
        <time>2022-07-30T10:20:51.000Z</time>
      </trkpt>
      <trkpt lat="49.61535" lon="-1.48004">
        <ele>80.41241</ele>
        <time>2022-07-30T10:20:52.000Z</time>
      </trkpt>
      <trkpt lat="49.61534" lon="-1.48001">
        <ele>80.588741</ele>
        <time>2022-07-30T10:20:53.000Z</time>
      </trkpt>
      <trkpt lat="49.61533" lon="-1.47998">
        <ele>80.781162</ele>
        <time>2022-07-30T10:20:54.000Z</time>
      </trkpt>
      <trkpt lat="49.61532" lon="-1.47994">
        <ele>80.955481</ele>
        <time>2022-07-30T10:20:55.000Z</time>
      </trkpt>
      <trkpt lat="49.6153" lon="-1.47991">
        <ele>81.140511</ele>
        <time>2022-07-30T10:20:56.000Z</time>
      </trkpt>
      <trkpt lat="49.61528" lon="-1.47988">
        <ele>81.321914</ele>
        <time>2022-07-30T10:20:57.000Z</time>
      </trkpt>
      <trkpt lat="49.61527" lon="-1.47985">
        <ele>81.499736</ele>
        <time>2022-07-30T10:20:58.000Z</time>
      </trkpt>
      <trkpt lat="49.61525" lon="-1.47983">
        <ele>81.660552</ele>
        <time>2022-07-30T10:20:59.000Z</time>
      </trkpt>
      <trkpt lat="49.61524" lon="-1.4798">
        <ele>81.841954</ele>
        <time>2022-07-30T10:21:00.000Z</time>
      </trkpt>
      <trkpt lat="49.61523" lon="-1.47976">
        <ele>82.018621</ele>
        <time>2022-07-30T10:21:01.000Z</time>
      </trkpt>
      <trkpt lat="49.61521" lon="-1.47973">
        <ele>82.202929</ele>
        <time>2022-07-30T10:21:02.000Z</time>
      </trkpt>
      <trkpt lat="49.6152" lon="-1.4797">
        <ele>82.383232</ele>
        <time>2022-07-30T10:21:03.000Z</time>
      </trkpt>
      <trkpt lat="49.61518" lon="-1.47967">
        <ele>82.557527</ele>
        <time>2022-07-30T10:21:04.000Z</time>
      </trkpt>
      <trkpt lat="49.61517" lon="-1.47964">
        <ele>82.73893</ele>
        <time>2022-07-30T10:21:05.000Z</time>
      </trkpt>
      <trkpt lat="49.61516" lon="-1.47961">
        <ele>82.904792</ele>
        <time>2022-07-30T10:21:06.000Z</time>
      </trkpt>
      <trkpt lat="49.61514" lon="-1.47957">
        <ele>83.093496</ele>
        <time>2022-07-30T10:21:07.000Z</time>
      </trkpt>
      <trkpt lat="49.61513" lon="-1.47954">
        <ele>83.247837</ele>
        <time>2022-07-30T10:21:08.000Z</time>
      </trkpt>
      <trkpt lat="49.61512" lon="-1.47951">
        <ele>83.440259</ele>
        <time>2022-07-30T10:21:09.000Z</time>
      </trkpt>
      <trkpt lat="49.6151" lon="-1.47948">
        <ele>83.61659</ele>
        <time>2022-07-30T10:21:10.000Z</time>
      </trkpt>
      <trkpt lat="49.61509" lon="-1.47945">
        <ele>83.78667</ele>
        <time>2022-07-30T10:21:11.000Z</time>
      </trkpt>
      <trkpt lat="49.61509" lon="-1.47942">
        <ele>83.941011</ele>
        <time>2022-07-30T10:21:12.000Z</time>
      </trkpt>
      <trkpt lat="49.61508" lon="-1.47938">
        <ele>84.106873</ele>
        <time>2022-07-30T10:21:13.000Z</time>
      </trkpt>
      <trkpt lat="49.61506" lon="-1.47936">
        <ele>84.274279</ele>
        <time>2022-07-30T10:21:14.000Z</time>
      </trkpt>
      <trkpt lat="49.61505" lon="-1.47933">
        <ele>84.45061</ele>
        <time>2022-07-30T10:21:15.000Z</time>
      </trkpt>
      <trkpt lat="49.61504" lon="-1.4793">
        <ele>84.604952</ele>
        <time>2022-07-30T10:21:16.000Z</time>
      </trkpt>
      <trkpt lat="49.61502" lon="-1.47926">
        <ele>84.807587</ele>
        <time>2022-07-30T10:21:17.000Z</time>
      </trkpt>
      <trkpt lat="49.61501" lon="-1.47923">
        <ele>84.976081</ele>
        <time>2022-07-30T10:21:18.000Z</time>
      </trkpt>
      <trkpt lat="49.61499" lon="-1.47921">
        <ele>85.143487</ele>
        <time>2022-07-30T10:21:19.000Z</time>
      </trkpt>
      <trkpt lat="49.61498" lon="-1.47918">
        <ele>85.311981</ele>
        <time>2022-07-30T10:21:20.000Z</time>
      </trkpt>
      <trkpt lat="49.61496" lon="-1.47915">
        <ele>85.480474</ele>
        <time>2022-07-30T10:21:21.000Z</time>
      </trkpt>
      <trkpt lat="49.61495" lon="-1.47912">
        <ele>85.661877</ele>
        <time>2022-07-30T10:21:22.000Z</time>
      </trkpt>
      <trkpt lat="49.61494" lon="-1.47909">
        <ele>85.811995</ele>
        <time>2022-07-30T10:21:23.000Z</time>
      </trkpt>
      <trkpt lat="49.61492" lon="-1.47906">
        <ele>85.98629</ele>
        <time>2022-07-30T10:21:24.000Z</time>
      </trkpt>
      <trkpt lat="49.61492" lon="-1.47903">
        <ele>86.135152</ele>
        <time>2022-07-30T10:21:25.000Z</time>
      </trkpt>
      <trkpt lat="49.6149" lon="-1.479">
        <ele>86.305974</ele>
        <time>2022-07-30T10:21:26.000Z</time>
      </trkpt>
      <trkpt lat="49.61489" lon="-1.47898">
        <ele>86.459297</ele>
        <time>2022-07-30T10:21:27.000Z</time>
      </trkpt>
      <trkpt lat="49.61487" lon="-1.47895">
        <ele>86.636206</ele>
        <time>2022-07-30T10:21:28.000Z</time>
      </trkpt>
      <trkpt lat="49.61486" lon="-1.47893">
        <ele>86.773826</ele>
        <time>2022-07-30T10:21:29.000Z</time>
      </trkpt>
      <trkpt lat="49.61484" lon="-1.4789">
        <ele>86.944648</ele>
        <time>2022-07-30T10:21:30.000Z</time>
      </trkpt>
      <trkpt lat="49.61483" lon="-1.47887">
        <ele>87.101693</ele>
        <time>2022-07-30T10:21:31.000Z</time>
      </trkpt>
      <trkpt lat="49.61482" lon="-1.47884">
        <ele>87.263364</ele>
        <time>2022-07-30T10:21:32.000Z</time>
      </trkpt>
      <trkpt lat="49.61481" lon="-1.47881">
        <ele>87.439695</ele>
        <time>2022-07-30T10:21:33.000Z</time>
      </trkpt>
      <trkpt lat="49.6148" lon="-1.47878">
        <ele>87.602558</ele>
        <time>2022-07-30T10:21:34.000Z</time>
      </trkpt>
      <trkpt lat="49.61478" lon="-1.47875">
        <ele>87.771052</ele>
        <time>2022-07-30T10:21:35.000Z</time>
      </trkpt>
      <trkpt lat="49.61477" lon="-1.47873">
        <ele>87.939439</ele>
        <time>2022-07-30T10:21:36.000Z</time>
      </trkpt>
      <trkpt lat="49.61476" lon="-1.4787">
        <ele>88.076604</ele>
        <time>2022-07-30T10:21:37.000Z</time>
      </trkpt>
      <trkpt lat="49.61474" lon="-1.47868">
        <ele>88.226259</ele>
        <time>2022-07-30T10:21:38.000Z</time>
      </trkpt>
      <trkpt lat="49.61473" lon="-1.47864">
        <ele>88.411126</ele>
        <time>2022-07-30T10:21:39.000Z</time>
      </trkpt>
      <trkpt lat="49.61472" lon="-1.47861">
        <ele>88.587458</ele>
        <time>2022-07-30T10:21:40.000Z</time>
      </trkpt>
      <trkpt lat="49.6147" lon="-1.47857">
        <ele>88.807869</ele>
        <time>2022-07-30T10:21:41.000Z</time>
      </trkpt>
      <trkpt lat="49.61468" lon="-1.47854">
        <ele>89.011678</ele>
        <time>2022-07-30T10:21:42.000Z</time>
      </trkpt>
      <trkpt lat="49.61466" lon="-1.4785">
        <ele>89.247561</ele>
        <time>2022-07-30T10:21:43.000Z</time>
      </trkpt>
      <trkpt lat="49.61465" lon="-1.47846">
        <ele>89.447538</ele>
        <time>2022-07-30T10:21:44.000Z</time>
      </trkpt>
      <trkpt lat="49.61462" lon="-1.47842">
        <ele>89.692491</ele>
        <time>2022-07-30T10:21:45.000Z</time>
      </trkpt>
      <trkpt lat="49.61461" lon="-1.47839">
        <ele>89.912901</ele>
        <time>2022-07-30T10:21:46.000Z</time>
      </trkpt>
      <trkpt lat="49.61459" lon="-1.47834">
        <ele>90.155889</ele>
        <time>2022-07-30T10:21:47.000Z</time>
      </trkpt>
      <trkpt lat="49.61457" lon="-1.4783">
        <ele>90.406815</ele>
        <time>2022-07-30T10:21:48.000Z</time>
      </trkpt>
      <trkpt lat="49.61455" lon="-1.47826">
        <ele>90.638366</ele>
        <time>2022-07-30T10:21:49.000Z</time>
      </trkpt>
      <trkpt lat="49.61453" lon="-1.47822">
        <ele>90.869918</ele>
        <time>2022-07-30T10:21:50.000Z</time>
      </trkpt>
      <trkpt lat="49.61451" lon="-1.47817">
        <ele>91.120675</ele>
        <time>2022-07-30T10:21:51.000Z</time>
      </trkpt>
      <trkpt lat="49.61449" lon="-1.47812">
        <ele>91.406952</ele>
        <time>2022-07-30T10:21:52.000Z</time>
      </trkpt>
      <trkpt lat="49.61446" lon="-1.47808">
        <ele>91.681445</ele>
        <time>2022-07-30T10:21:53.000Z</time>
      </trkpt>
      <trkpt lat="49.61445" lon="-1.47802">
        <ele>91.960154</ele>
        <time>2022-07-30T10:21:54.000Z</time>
      </trkpt>
      <trkpt lat="49.61442" lon="-1.47798">
        <ele>92.171818</ele>
        <time>2022-07-30T10:21:55.000Z</time>
      </trkpt>
      <trkpt lat="49.6144" lon="-1.47793">
        <ele>92.364193</ele>
        <time>2022-07-30T10:21:56.000Z</time>
      </trkpt>
      <trkpt lat="49.61438" lon="-1.47789">
        <ele>92.556568</ele>
        <time>2022-07-30T10:21:57.000Z</time>
      </trkpt>
      <trkpt lat="49.61435" lon="-1.47784">
        <ele>92.770071</ele>
        <time>2022-07-30T10:21:58.000Z</time>
      </trkpt>
      <trkpt lat="49.61433" lon="-1.47779">
        <ele>92.964942</ele>
        <time>2022-07-30T10:21:59.000Z</time>
      </trkpt>
      <trkpt lat="49.61431" lon="-1.47774">
        <ele>93.17699</ele>
        <time>2022-07-30T10:22:00.000Z</time>
      </trkpt>
      <trkpt lat="49.61429" lon="-1.47769">
        <ele>93.380428</ele>
        <time>2022-07-30T10:22:01.000Z</time>
      </trkpt>
      <trkpt lat="49.61426" lon="-1.47764">
        <ele>93.593931</ele>
        <time>2022-07-30T10:22:02.000Z</time>
      </trkpt>
      <trkpt lat="49.61424" lon="-1.47759">
        <ele>93.794574</ele>
        <time>2022-07-30T10:22:03.000Z</time>
      </trkpt>
      <trkpt lat="49.61422" lon="-1.47754">
        <ele>93.989446</ele>
        <time>2022-07-30T10:22:04.000Z</time>
      </trkpt>
      <trkpt lat="49.61419" lon="-1.47749">
        <ele>94.221004</ele>
        <time>2022-07-30T10:22:05.000Z</time>
      </trkpt>
      <trkpt lat="49.61417" lon="-1.47744">
        <ele>94.424443</ele>
        <time>2022-07-30T10:22:06.000Z</time>
      </trkpt>
      <trkpt lat="49.61415" lon="-1.47739">
        <ele>94.633699</ele>
        <time>2022-07-30T10:22:07.000Z</time>
      </trkpt>
      <trkpt lat="49.61413" lon="-1.47735">
        <ele>94.834342</ele>
        <time>2022-07-30T10:22:08.000Z</time>
      </trkpt>
      <trkpt lat="49.6141" lon="-1.4773">
        <ele>95.038072</ele>
        <time>2022-07-30T10:22:09.000Z</time>
      </trkpt>
      <trkpt lat="49.61408" lon="-1.47725">
        <ele>95.241511</ele>
        <time>2022-07-30T10:22:10.000Z</time>
      </trkpt>
      <trkpt lat="49.61405" lon="-1.4772">
        <ele>95.449824</ele>
        <time>2022-07-30T10:22:11.000Z</time>
      </trkpt>
      <trkpt lat="49.61403" lon="-1.47716">
        <ele>95.647691</ele>
        <time>2022-07-30T10:22:12.000Z</time>
      </trkpt>
      <trkpt lat="49.61401" lon="-1.47711">
        <ele>95.848334</ele>
        <time>2022-07-30T10:22:13.000Z</time>
      </trkpt>
      <trkpt lat="49.61399" lon="-1.47706">
        <ele>96.054818</ele>
        <time>2022-07-30T10:22:14.000Z</time>
      </trkpt>
      <trkpt lat="49.61397" lon="-1.47701">
        <ele>96.249929</ele>
        <time>2022-07-30T10:22:15.000Z</time>
      </trkpt>
      <trkpt lat="49.61394" lon="-1.47697">
        <ele>96.450926</ele>
        <time>2022-07-30T10:22:16.000Z</time>
      </trkpt>
      <trkpt lat="49.61392" lon="-1.47692">
        <ele>96.66109</ele>
        <time>2022-07-30T10:22:17.000Z</time>
      </trkpt>
      <trkpt lat="49.61389" lon="-1.47687">
        <ele>96.862087</ele>
        <time>2022-07-30T10:22:18.000Z</time>
      </trkpt>
      <trkpt lat="49.61388" lon="-1.47682">
        <ele>97.059896</ele>
        <time>2022-07-30T10:22:19.000Z</time>
      </trkpt>
      <trkpt lat="49.61385" lon="-1.47677">
        <ele>97.26054</ele>
        <time>2022-07-30T10:22:20.000Z</time>
      </trkpt>
      <trkpt lat="49.61383" lon="-1.47673">
        <ele>97.466294</ele>
        <time>2022-07-30T10:22:21.000Z</time>
      </trkpt>
      <trkpt lat="49.61381" lon="-1.47668">
        <ele>97.664162</ele>
        <time>2022-07-30T10:22:22.000Z</time>
      </trkpt>
      <trkpt lat="49.61378" lon="-1.47663">
        <ele>97.87342</ele>
        <time>2022-07-30T10:22:23.000Z</time>
      </trkpt>
      <trkpt lat="49.61376" lon="-1.47658">
        <ele>98.094389</ele>
        <time>2022-07-30T10:22:24.000Z</time>
      </trkpt>
      <trkpt lat="49.61373" lon="-1.47653">
        <ele>98.303647</ele>
        <time>2022-07-30T10:22:25.000Z</time>
      </trkpt>
      <trkpt lat="49.61371" lon="-1.47648">
        <ele>98.513812</ele>
        <time>2022-07-30T10:22:26.000Z</time>
      </trkpt>
      <trkpt lat="49.61369" lon="-1.47643">
        <ele>98.728672</ele>
        <time>2022-07-30T10:22:27.000Z</time>
      </trkpt>
      <trkpt lat="49.61367" lon="-1.47638">
        <ele>98.926482</ele>
        <time>2022-07-30T10:22:28.000Z</time>
      </trkpt>
      <trkpt lat="49.61364" lon="-1.47633">
        <ele>99.155488</ele>
        <time>2022-07-30T10:22:29.000Z</time>
      </trkpt>
      <trkpt lat="49.61362" lon="-1.47628">
        <ele>99.364574</ele>
        <time>2022-07-30T10:22:30.000Z</time>
      </trkpt>
      <trkpt lat="49.61359" lon="-1.47623">
        <ele>99.576509</ele>
        <time>2022-07-30T10:22:31.000Z</time>
      </trkpt>
      <trkpt lat="49.61357" lon="-1.47618">
        <ele>99.785767</ele>
        <time>2022-07-30T10:22:32.000Z</time>
      </trkpt>
      <trkpt lat="49.61355" lon="-1.47613">
        <ele>100.001295</ele>
        <time>2022-07-30T10:22:33.000Z</time>
      </trkpt>
      <trkpt lat="49.61352" lon="-1.47608">
        <ele>100.230301</ele>
        <time>2022-07-30T10:22:34.000Z</time>
      </trkpt>
      <trkpt lat="49.61349" lon="-1.47603">
        <ele>100.434033</ele>
        <time>2022-07-30T10:22:35.000Z</time>
      </trkpt>
      <trkpt lat="49.61347" lon="-1.47598">
        <ele>100.640287</ele>
        <time>2022-07-30T10:22:36.000Z</time>
      </trkpt>
      <trkpt lat="49.61345" lon="-1.47593">
        <ele>100.838097</ele>
        <time>2022-07-30T10:22:37.000Z</time>
      </trkpt>
      <trkpt lat="49.61343" lon="-1.47588">
        <ele>101.035908</ele>
        <time>2022-07-30T10:22:38.000Z</time>
      </trkpt>
      <trkpt lat="49.61341" lon="-1.47582">
        <ele>101.248171</ele>
        <time>2022-07-30T10:22:39.000Z</time>
      </trkpt>
      <trkpt lat="49.61339" lon="-1.47577">
        <ele>101.474583</ele>
        <time>2022-07-30T10:22:40.000Z</time>
      </trkpt>
      <trkpt lat="49.61337" lon="-1.47571">
        <ele>101.66702</ele>
        <time>2022-07-30T10:22:41.000Z</time>
      </trkpt>
      <trkpt lat="49.61333" lon="-1.47565">
        <ele>101.879059</ele>
        <time>2022-07-30T10:22:42.000Z</time>
      </trkpt>
      <trkpt lat="49.6133" lon="-1.47559">
        <ele>102.087463</ele>
        <time>2022-07-30T10:22:43.000Z</time>
      </trkpt>
      <trkpt lat="49.61327" lon="-1.47554">
        <ele>102.276742</ele>
        <time>2022-07-30T10:22:44.000Z</time>
      </trkpt>
      <trkpt lat="49.61324" lon="-1.47549">
        <ele>102.461224</ele>
        <time>2022-07-30T10:22:45.000Z</time>
      </trkpt>
      <trkpt lat="49.61322" lon="-1.47544">
        <ele>102.631931</ele>
        <time>2022-07-30T10:22:46.000Z</time>
      </trkpt>
      <trkpt lat="49.61319" lon="-1.4754">
        <ele>102.77509</ele>
        <time>2022-07-30T10:22:47.000Z</time>
      </trkpt>
      <trkpt lat="49.61317" lon="-1.47536">
        <ele>102.921011</ele>
        <time>2022-07-30T10:22:48.000Z</time>
      </trkpt>
      <trkpt lat="49.61315" lon="-1.47532">
        <ele>103.074825</ele>
        <time>2022-07-30T10:22:49.000Z</time>
      </trkpt>
      <trkpt lat="49.61313" lon="-1.47527">
        <ele>103.242137</ele>
        <time>2022-07-30T10:22:50.000Z</time>
      </trkpt>
      <trkpt lat="49.6131" lon="-1.47521">
        <ele>103.418812</ele>
        <time>2022-07-30T10:22:51.000Z</time>
      </trkpt>
      <trkpt lat="49.61308" lon="-1.47516">
        <ele>103.588357</ele>
        <time>2022-07-30T10:22:52.000Z</time>
      </trkpt>
      <trkpt lat="49.61305" lon="-1.47511">
        <ele>103.765033</ele>
        <time>2022-07-30T10:22:53.000Z</time>
      </trkpt>
      <trkpt lat="49.61303" lon="-1.47506">
        <ele>103.94425</ele>
        <time>2022-07-30T10:22:54.000Z</time>
      </trkpt>
      <trkpt lat="49.613" lon="-1.47501">
        <ele>104.118742</ele>
        <time>2022-07-30T10:22:55.000Z</time>
      </trkpt>
      <trkpt lat="49.61298" lon="-1.47495">
        <ele>104.295067</ele>
        <time>2022-07-30T10:22:56.000Z</time>
      </trkpt>
      <trkpt lat="49.61295" lon="-1.4749">
        <ele>104.467391</ele>
        <time>2022-07-30T10:22:57.000Z</time>
      </trkpt>
      <trkpt lat="49.61293" lon="-1.47486">
        <ele>104.633948</ele>
        <time>2022-07-30T10:22:58.000Z</time>
      </trkpt>
      <trkpt lat="49.6129" lon="-1.47481">
        <ele>104.807124</ele>
        <time>2022-07-30T10:22:59.000Z</time>
      </trkpt>
      <trkpt lat="49.61287" lon="-1.47477">
        <ele>104.962739</ele>
        <time>2022-07-30T10:23:00.000Z</time>
      </trkpt>
      <trkpt lat="49.61284" lon="-1.47473">
        <ele>105.136149</ele>
        <time>2022-07-30T10:23:01.000Z</time>
      </trkpt>
      <trkpt lat="49.61282" lon="-1.47469">
        <ele>105.285078</ele>
        <time>2022-07-30T10:23:02.000Z</time>
      </trkpt>
      <trkpt lat="49.61278" lon="-1.47466">
        <ele>105.44418</ele>
        <time>2022-07-30T10:23:03.000Z</time>
      </trkpt>
      <trkpt lat="49.61276" lon="-1.47463">
        <ele>105.597542</ele>
        <time>2022-07-30T10:23:04.000Z</time>
      </trkpt>
      <trkpt lat="49.61273" lon="-1.4746">
        <ele>105.736073</ele>
        <time>2022-07-30T10:23:05.000Z</time>
      </trkpt>
      <trkpt lat="49.6127" lon="-1.47456">
        <ele>105.887801</ele>
        <time>2022-07-30T10:23:06.000Z</time>
      </trkpt>
      <trkpt lat="49.61267" lon="-1.47454">
        <ele>106.052575</ele>
        <time>2022-07-30T10:23:07.000Z</time>
      </trkpt>
      <trkpt lat="49.61264" lon="-1.47451">
        <ele>106.192456</ele>
        <time>2022-07-30T10:23:08.000Z</time>
      </trkpt>
      <trkpt lat="49.61261" lon="-1.47448">
        <ele>106.346034</ele>
        <time>2022-07-30T10:23:09.000Z</time>
      </trkpt>
      <trkpt lat="49.61257" lon="-1.47446">
        <ele>106.50094</ele>
        <time>2022-07-30T10:23:10.000Z</time>
      </trkpt>
      <trkpt lat="49.61254" lon="-1.47443">
        <ele>106.658608</ele>
        <time>2022-07-30T10:23:11.000Z</time>
      </trkpt>
      <trkpt lat="49.61251" lon="-1.4744">
        <ele>106.82462</ele>
        <time>2022-07-30T10:23:12.000Z</time>
      </trkpt>
      <trkpt lat="49.61247" lon="-1.47437">
        <ele>106.974444</ele>
        <time>2022-07-30T10:23:13.000Z</time>
      </trkpt>
      <trkpt lat="49.61244" lon="-1.47435">
        <ele>107.153343</ele>
        <time>2022-07-30T10:23:14.000Z</time>
      </trkpt>
      <trkpt lat="49.61239" lon="-1.47432">
        <ele>107.338985</ele>
        <time>2022-07-30T10:23:15.000Z</time>
      </trkpt>
      <trkpt lat="49.61235" lon="-1.4743">
        <ele>107.554123</ele>
        <time>2022-07-30T10:23:16.000Z</time>
      </trkpt>
      <trkpt lat="49.6123" lon="-1.47427">
        <ele>107.745719</ele>
        <time>2022-07-30T10:23:17.000Z</time>
      </trkpt>
      <trkpt lat="49.61226" lon="-1.47424">
        <ele>107.961807</ele>
        <time>2022-07-30T10:23:18.000Z</time>
      </trkpt>
      <trkpt lat="49.61221" lon="-1.47421">
        <ele>108.191643</ele>
        <time>2022-07-30T10:23:19.000Z</time>
      </trkpt>
      <trkpt lat="49.61216" lon="-1.47418">
        <ele>108.407731</ele>
        <time>2022-07-30T10:23:20.000Z</time>
      </trkpt>
      <trkpt lat="49.6121" lon="-1.47415">
        <ele>108.652484</ele>
        <time>2022-07-30T10:23:21.000Z</time>
      </trkpt>
      <trkpt lat="49.61205" lon="-1.47413">
        <ele>108.865816</ele>
        <time>2022-07-30T10:23:22.000Z</time>
      </trkpt>
      <trkpt lat="49.612" lon="-1.4741">
        <ele>109.056333</ele>
        <time>2022-07-30T10:23:23.000Z</time>
      </trkpt>
      <trkpt lat="49.61196" lon="-1.47408">
        <ele>109.128825</ele>
        <time>2022-07-30T10:23:24.000Z</time>
      </trkpt>
      <trkpt lat="49.6119" lon="-1.47405">
        <ele>109.206926</ele>
        <time>2022-07-30T10:23:25.000Z</time>
      </trkpt>
      <trkpt lat="49.61186" lon="-1.47401">
        <ele>109.28212</ele>
        <time>2022-07-30T10:23:26.000Z</time>
      </trkpt>
      <trkpt lat="49.61181" lon="-1.47398">
        <ele>109.361617</ele>
        <time>2022-07-30T10:23:27.000Z</time>
      </trkpt>
      <trkpt lat="49.61176" lon="-1.47394">
        <ele>109.433726</ele>
        <time>2022-07-30T10:23:28.000Z</time>
      </trkpt>
      <trkpt lat="49.61171" lon="-1.47391">
        <ele>109.510094</ele>
        <time>2022-07-30T10:23:29.000Z</time>
      </trkpt>
      <trkpt lat="49.61167" lon="-1.47387">
        <ele>109.580234</ele>
        <time>2022-07-30T10:23:30.000Z</time>
      </trkpt>
      <trkpt lat="49.61163" lon="-1.47383">
        <ele>109.651498</ele>
        <time>2022-07-30T10:23:31.000Z</time>
      </trkpt>
      <trkpt lat="49.61158" lon="-1.47379">
        <ele>109.72535</ele>
        <time>2022-07-30T10:23:32.000Z</time>
      </trkpt>
      <trkpt lat="49.61153" lon="-1.47375">
        <ele>109.807214</ele>
        <time>2022-07-30T10:23:33.000Z</time>
      </trkpt>
      <trkpt lat="49.61149" lon="-1.47371">
        <ele>109.879337</ele>
        <time>2022-07-30T10:23:34.000Z</time>
      </trkpt>
      <trkpt lat="49.61144" lon="-1.47367">
        <ele>109.955074</ele>
        <time>2022-07-30T10:23:35.000Z</time>
      </trkpt>
      <trkpt lat="49.6114" lon="-1.47363">
        <ele>110.034033</ele>
        <time>2022-07-30T10:23:36.000Z</time>
      </trkpt>
      <trkpt lat="49.61135" lon="-1.47358">
        <ele>110.107117</ele>
        <time>2022-07-30T10:23:37.000Z</time>
      </trkpt>
      <trkpt lat="49.61131" lon="-1.47354">
        <ele>110.17924</ele>
        <time>2022-07-30T10:23:38.000Z</time>
      </trkpt>
      <trkpt lat="49.61127" lon="-1.47349">
        <ele>110.253478</ele>
        <time>2022-07-30T10:23:39.000Z</time>
      </trkpt>
      <trkpt lat="49.61123" lon="-1.47344">
        <ele>110.326013</ele>
        <time>2022-07-30T10:23:40.000Z</time>
      </trkpt>
      <trkpt lat="49.61119" lon="-1.4734">
        <ele>110.399178</ele>
        <time>2022-07-30T10:23:41.000Z</time>
      </trkpt>
      <trkpt lat="49.61115" lon="-1.47336">
        <ele>110.468588</ele>
        <time>2022-07-30T10:23:42.000Z</time>
      </trkpt>
      <trkpt lat="49.61111" lon="-1.47332">
        <ele>110.53664</ele>
        <time>2022-07-30T10:23:43.000Z</time>
      </trkpt>
      <trkpt lat="49.61107" lon="-1.47327">
        <ele>110.607575</ele>
        <time>2022-07-30T10:23:44.000Z</time>
      </trkpt>
      <trkpt lat="49.61102" lon="-1.47323">
        <ele>110.685635</ele>
        <time>2022-07-30T10:23:45.000Z</time>
      </trkpt>
      <trkpt lat="49.61097" lon="-1.4732">
        <ele>110.757745</ele>
        <time>2022-07-30T10:23:46.000Z</time>
      </trkpt>
      <trkpt lat="49.61093" lon="-1.47316">
        <ele>110.826948</ele>
        <time>2022-07-30T10:23:47.000Z</time>
      </trkpt>
      <trkpt lat="49.61089" lon="-1.47313">
        <ele>110.899057</ele>
        <time>2022-07-30T10:23:48.000Z</time>
      </trkpt>
      <trkpt lat="49.61084" lon="-1.47309">
        <ele>110.975024</ele>
        <time>2022-07-30T10:23:49.000Z</time>
      </trkpt>
      <trkpt lat="49.61079" lon="-1.47306">
        <ele>111.04313</ele>
        <time>2022-07-30T10:23:50.000Z</time>
      </trkpt>
      <trkpt lat="49.61075" lon="-1.47304">
        <ele>111.116236</ele>
        <time>2022-07-30T10:23:51.000Z</time>
      </trkpt>
      <trkpt lat="49.61069" lon="-1.47301">
        <ele>111.198826</ele>
        <time>2022-07-30T10:23:52.000Z</time>
      </trkpt>
      <trkpt lat="49.61064" lon="-1.47298">
        <ele>111.279771</ele>
        <time>2022-07-30T10:23:53.000Z</time>
      </trkpt>
      <trkpt lat="49.61059" lon="-1.47295">
        <ele>111.354593</ele>
        <time>2022-07-30T10:23:54.000Z</time>
      </trkpt>
      <trkpt lat="49.61053" lon="-1.47292">
        <ele>111.438703</ele>
        <time>2022-07-30T10:23:55.000Z</time>
      </trkpt>
      <trkpt lat="49.61048" lon="-1.47289">
        <ele>111.52083</ele>
        <time>2022-07-30T10:23:56.000Z</time>
      </trkpt>
      <trkpt lat="49.61043" lon="-1.47286">
        <ele>111.597688</ele>
        <time>2022-07-30T10:23:57.000Z</time>
      </trkpt>
      <trkpt lat="49.61037" lon="-1.47284">
        <ele>111.532288</ele>
        <time>2022-07-30T10:23:58.000Z</time>
      </trkpt>
      <trkpt lat="49.61031" lon="-1.47283">
        <ele>111.445807</ele>
        <time>2022-07-30T10:23:59.000Z</time>
      </trkpt>
      <trkpt lat="49.61026" lon="-1.47281">
        <ele>111.365122</ele>
        <time>2022-07-30T10:24:00.000Z</time>
      </trkpt>
      <trkpt lat="49.6102" lon="-1.47279">
        <ele>111.284077</ele>
        <time>2022-07-30T10:24:01.000Z</time>
      </trkpt>
      <trkpt lat="49.61015" lon="-1.47278">
        <ele>111.211864</ele>
        <time>2022-07-30T10:24:02.000Z</time>
      </trkpt>
      <trkpt lat="49.6101" lon="-1.47276">
        <ele>111.133282</ele>
        <time>2022-07-30T10:24:03.000Z</time>
      </trkpt>
      <trkpt lat="49.61006" lon="-1.47274">
        <ele>111.066806</ele>
        <time>2022-07-30T10:24:04.000Z</time>
      </trkpt>
      <trkpt lat="49.61001" lon="-1.47273">
        <ele>110.999105</ele>
        <time>2022-07-30T10:24:05.000Z</time>
      </trkpt>
      <trkpt lat="49.60997" lon="-1.47272">
        <ele>110.936293</ele>
        <time>2022-07-30T10:24:06.000Z</time>
      </trkpt>
      <trkpt lat="49.60992" lon="-1.4727">
        <ele>110.864787</ele>
        <time>2022-07-30T10:24:07.000Z</time>
      </trkpt>
      <trkpt lat="49.60988" lon="-1.47269">
        <ele>110.797463</ele>
        <time>2022-07-30T10:24:08.000Z</time>
      </trkpt>
      <trkpt lat="49.60983" lon="-1.47267">
        <ele>110.72435</ele>
        <time>2022-07-30T10:24:09.000Z</time>
      </trkpt>
      <trkpt lat="49.60978" lon="-1.47265">
        <ele>110.650717</ele>
        <time>2022-07-30T10:24:10.000Z</time>
      </trkpt>
      <trkpt lat="49.60973" lon="-1.47263">
        <ele>110.576806</ele>
        <time>2022-07-30T10:24:11.000Z</time>
      </trkpt>
      <trkpt lat="49.60969" lon="-1.4726">
        <ele>110.511979</ele>
        <time>2022-07-30T10:24:12.000Z</time>
      </trkpt>
      <trkpt lat="49.60965" lon="-1.47258">
        <ele>110.450582</ele>
        <time>2022-07-30T10:24:13.000Z</time>
      </trkpt>
      <trkpt lat="49.60961" lon="-1.47255">
        <ele>110.376384</ele>
        <time>2022-07-30T10:24:14.000Z</time>
      </trkpt>
      <trkpt lat="49.60956" lon="-1.47253">
        <ele>110.308932</ele>
        <time>2022-07-30T10:24:15.000Z</time>
      </trkpt>
      <trkpt lat="49.60952" lon="-1.47252">
        <ele>110.249589</ele>
        <time>2022-07-30T10:24:16.000Z</time>
      </trkpt>
      <trkpt lat="49.60948" lon="-1.47252">
        <ele>110.189267</ele>
        <time>2022-07-30T10:24:17.000Z</time>
      </trkpt>
      <trkpt lat="49.60944" lon="-1.47253">
        <ele>110.12241</ele>
        <time>2022-07-30T10:24:18.000Z</time>
      </trkpt>
      <trkpt lat="49.6094" lon="-1.47256">
        <ele>110.063535</ele>
        <time>2022-07-30T10:24:19.000Z</time>
      </trkpt>
      <trkpt lat="49.60936" lon="-1.4726">
        <ele>109.99305</ele>
        <time>2022-07-30T10:24:20.000Z</time>
      </trkpt>
      <trkpt lat="49.60933" lon="-1.47265">
        <ele>109.921606</ele>
        <time>2022-07-30T10:24:21.000Z</time>
      </trkpt>
      <trkpt lat="49.60929" lon="-1.47271">
        <ele>109.84301</ele>
        <time>2022-07-30T10:24:22.000Z</time>
      </trkpt>
      <trkpt lat="49.60925" lon="-1.47277">
        <ele>109.76509</ele>
        <time>2022-07-30T10:24:23.000Z</time>
      </trkpt>
      <trkpt lat="49.60922" lon="-1.47283">
        <ele>109.685822</ele>
        <time>2022-07-30T10:24:24.000Z</time>
      </trkpt>
      <trkpt lat="49.60918" lon="-1.47288">
        <ele>109.620198</ele>
        <time>2022-07-30T10:24:25.000Z</time>
      </trkpt>
      <trkpt lat="49.60914" lon="-1.47294">
        <ele>109.529559</ele>
        <time>2022-07-30T10:24:26.000Z</time>
      </trkpt>
      <trkpt lat="49.60911" lon="-1.47299">
        <ele>109.465616</ele>
        <time>2022-07-30T10:24:27.000Z</time>
      </trkpt>
      <trkpt lat="49.60909" lon="-1.47304">
        <ele>109.409133</ele>
        <time>2022-07-30T10:24:28.000Z</time>
      </trkpt>
      <trkpt lat="49.60908" lon="-1.47309">
        <ele>109.359269</ele>
        <time>2022-07-30T10:24:29.000Z</time>
      </trkpt>
      <trkpt lat="49.60908" lon="-1.47314">
        <ele>109.311624</ele>
        <time>2022-07-30T10:24:30.000Z</time>
      </trkpt>
      <trkpt lat="49.60909" lon="-1.47319">
        <ele>109.259937</ele>
        <time>2022-07-30T10:24:31.000Z</time>
      </trkpt>
      <trkpt lat="49.60909" lon="-1.47324">
        <ele>109.208668</ele>
        <time>2022-07-30T10:24:32.000Z</time>
      </trkpt>
      <trkpt lat="49.60909" lon="-1.47328">
        <ele>109.167692</ele>
        <time>2022-07-30T10:24:33.000Z</time>
      </trkpt>
      <trkpt lat="49.60909" lon="-1.47332">
        <ele>109.13216</ele>
        <time>2022-07-30T10:24:34.000Z</time>
      </trkpt>
      <trkpt lat="49.60908" lon="-1.47335">
        <ele>109.101694</ele>
        <time>2022-07-30T10:24:35.000Z</time>
      </trkpt>
      <trkpt lat="49.60907" lon="-1.47337">
        <ele>109.074442</ele>
        <time>2022-07-30T10:24:36.000Z</time>
      </trkpt>
      <trkpt lat="49.60906" lon="-1.4734">
        <ele>109.044635</ele>
        <time>2022-07-30T10:24:37.000Z</time>
      </trkpt>
      <trkpt lat="49.60906" lon="-1.47343">
        <ele>109.015094</ele>
        <time>2022-07-30T10:24:38.000Z</time>
      </trkpt>
      <trkpt lat="49.60905" lon="-1.47345">
        <ele>108.987099</ele>
        <time>2022-07-30T10:24:39.000Z</time>
      </trkpt>
      <trkpt lat="49.60903" lon="-1.47349">
        <ele>108.997592</ele>
        <time>2022-07-30T10:24:41.000Z</time>
      </trkpt>
      <trkpt lat="49.60904" lon="-1.47354">
        <ele>109.066599</ele>
        <time>2022-07-30T10:26:06.000Z</time>
      </trkpt>
      <trkpt lat="49.60903" lon="-1.47352">
        <ele>109.107082</ele>
        <time>2022-07-30T10:26:08.000Z</time>
      </trkpt>
      <trkpt lat="49.60906" lon="-1.47312">
        <ele>109.640321</ele>
        <time>2022-07-30T11:26:27.000Z</time>
      </trkpt>
      <trkpt lat="49.60907" lon="-1.47309">
        <ele>109.681572</ele>
        <time>2022-07-30T11:26:28.000Z</time>
      </trkpt>
      <trkpt lat="49.60907" lon="-1.47306">
        <ele>109.721836</ele>
        <time>2022-07-30T11:26:29.000Z</time>
      </trkpt>
      <trkpt lat="49.60908" lon="-1.47303">
        <ele>109.766454</ele>
        <time>2022-07-30T11:26:30.000Z</time>
      </trkpt>
      <trkpt lat="49.60909" lon="-1.47301">
        <ele>109.804389</ele>
        <time>2022-07-30T11:26:31.000Z</time>
      </trkpt>
      <trkpt lat="49.60911" lon="-1.47298">
        <ele>109.850997</ele>
        <time>2022-07-30T11:26:32.000Z</time>
      </trkpt>
      <trkpt lat="49.60912" lon="-1.47296">
        <ele>109.895757</ele>
        <time>2022-07-30T11:26:33.000Z</time>
      </trkpt>
      <trkpt lat="49.60914" lon="-1.47294">
        <ele>109.942365</ele>
        <time>2022-07-30T11:26:34.000Z</time>
      </trkpt>
      <trkpt lat="49.60916" lon="-1.47291">
        <ele>109.991796</ele>
        <time>2022-07-30T11:26:35.000Z</time>
      </trkpt>
      <trkpt lat="49.60917" lon="-1.47289">
        <ele>110.038404</ele>
        <time>2022-07-30T11:26:36.000Z</time>
      </trkpt>
      <trkpt lat="49.60919" lon="-1.47286">
        <ele>110.080922</ele>
        <time>2022-07-30T11:26:37.000Z</time>
      </trkpt>
      <trkpt lat="49.6092" lon="-1.47284">
        <ele>110.122414</ele>
        <time>2022-07-30T11:26:38.000Z</time>
      </trkpt>
      <trkpt lat="49.60922" lon="-1.47282">
        <ele>110.165409</ele>
        <time>2022-07-30T11:26:39.000Z</time>
      </trkpt>
      <trkpt lat="49.60923" lon="-1.47279">
        <ele>110.2069</ele>
        <time>2022-07-30T11:26:40.000Z</time>
      </trkpt>
      <trkpt lat="49.60925" lon="-1.47277">
        <ele>110.25166</ele>
        <time>2022-07-30T11:26:41.000Z</time>
      </trkpt>
      <trkpt lat="49.60926" lon="-1.47275">
        <ele>110.296419</ele>
        <time>2022-07-30T11:26:42.000Z</time>
      </trkpt>
      <trkpt lat="49.60927" lon="-1.47272">
        <ele>110.338937</ele>
        <time>2022-07-30T11:26:43.000Z</time>
      </trkpt>
      <trkpt lat="49.60929" lon="-1.4727">
        <ele>110.377081</ele>
        <time>2022-07-30T11:26:44.000Z</time>
      </trkpt>
      <trkpt lat="49.6093" lon="-1.47268">
        <ele>110.419229</ele>
        <time>2022-07-30T11:26:45.000Z</time>
      </trkpt>
      <trkpt lat="49.60932" lon="-1.47266">
        <ele>110.461377</ele>
        <time>2022-07-30T11:26:46.000Z</time>
      </trkpt>
      <trkpt lat="49.60933" lon="-1.47264">
        <ele>110.501907</ele>
        <time>2022-07-30T11:26:47.000Z</time>
      </trkpt>
      <trkpt lat="49.60935" lon="-1.47262">
        <ele>110.539483</ele>
        <time>2022-07-30T11:26:48.000Z</time>
      </trkpt>
      <trkpt lat="49.60937" lon="-1.4726">
        <ele>110.586561</ele>
        <time>2022-07-30T11:26:49.000Z</time>
      </trkpt>
      <trkpt lat="49.60938" lon="-1.47258">
        <ele>110.628709</ele>
        <time>2022-07-30T11:26:50.000Z</time>
      </trkpt>
      <trkpt lat="49.6094" lon="-1.47256">
        <ele>110.677493</ele>
        <time>2022-07-30T11:26:51.000Z</time>
      </trkpt>
      <trkpt lat="49.60942" lon="-1.47254">
        <ele>110.721359</ele>
        <time>2022-07-30T11:26:52.000Z</time>
      </trkpt>
      <trkpt lat="49.60943" lon="-1.47252">
        <ele>110.765225</ele>
        <time>2022-07-30T11:26:53.000Z</time>
      </trkpt>
      <trkpt lat="49.60946" lon="-1.4725">
        <ele>110.815009</ele>
        <time>2022-07-30T11:26:54.000Z</time>
      </trkpt>
      <trkpt lat="49.60948" lon="-1.47249">
        <ele>110.857032</ele>
        <time>2022-07-30T11:26:55.000Z</time>
      </trkpt>
      <trkpt lat="49.6095" lon="-1.47249">
        <ele>110.904578</ele>
        <time>2022-07-30T11:26:56.000Z</time>
      </trkpt>
      <trkpt lat="49.60952" lon="-1.47248">
        <ele>110.950097</ele>
        <time>2022-07-30T11:26:57.000Z</time>
      </trkpt>
      <trkpt lat="49.60954" lon="-1.47248">
        <ele>110.995208</ele>
        <time>2022-07-30T11:26:58.000Z</time>
      </trkpt>
      <trkpt lat="49.60957" lon="-1.47248">
        <ele>111.042364</ele>
        <time>2022-07-30T11:26:59.000Z</time>
      </trkpt>
      <trkpt lat="49.60959" lon="-1.47249">
        <ele>111.102448</ele>
        <time>2022-07-30T11:27:00.000Z</time>
      </trkpt>
      <trkpt lat="49.60962" lon="-1.4725">
        <ele>111.155662</ele>
        <time>2022-07-30T11:27:01.000Z</time>
      </trkpt>
      <trkpt lat="49.60964" lon="-1.47251">
        <ele>111.206272</ele>
        <time>2022-07-30T11:27:02.000Z</time>
      </trkpt>
      <trkpt lat="49.60966" lon="-1.47253">
        <ele>111.254494</ele>
        <time>2022-07-30T11:27:03.000Z</time>
      </trkpt>
      <trkpt lat="49.60969" lon="-1.47254">
        <ele>111.302716</ele>
        <time>2022-07-30T11:27:04.000Z</time>
      </trkpt>
      <trkpt lat="49.60971" lon="-1.47255">
        <ele>111.359535</ele>
        <time>2022-07-30T11:27:05.000Z</time>
      </trkpt>
      <trkpt lat="49.60973" lon="-1.47257">
        <ele>111.408768</ele>
        <time>2022-07-30T11:27:06.000Z</time>
      </trkpt>
      <trkpt lat="49.60976" lon="-1.47259">
        <ele>111.462169</ele>
        <time>2022-07-30T11:27:07.000Z</time>
      </trkpt>
      <trkpt lat="49.60978" lon="-1.4726">
        <ele>111.503262</ele>
        <time>2022-07-30T11:27:08.000Z</time>
      </trkpt>
      <trkpt lat="49.6098" lon="-1.4726">
        <ele>111.548781</ele>
        <time>2022-07-30T11:27:10.000Z</time>
      </trkpt>
      <trkpt lat="49.60985" lon="-1.47266">
        <ele>111.681511</ele>
        <time>2022-07-30T11:28:08.000Z</time>
      </trkpt>
      <trkpt lat="49.60988" lon="-1.47267">
        <ele>111.735512</ele>
        <time>2022-07-30T11:28:09.000Z</time>
      </trkpt>
      <trkpt lat="49.60991" lon="-1.47268">
        <ele>111.811842</ele>
        <time>2022-07-30T11:28:10.000Z</time>
      </trkpt>
      <trkpt lat="49.60995" lon="-1.4727">
        <ele>111.89283</ele>
        <time>2022-07-30T11:28:11.000Z</time>
      </trkpt>
      <trkpt lat="49.60999" lon="-1.47272">
        <ele>111.975015</ele>
        <time>2022-07-30T11:28:12.000Z</time>
      </trkpt>
      <trkpt lat="49.61003" lon="-1.47274">
        <ele>112.064241</ele>
        <time>2022-07-30T11:28:13.000Z</time>
      </trkpt>
      <trkpt lat="49.61007" lon="-1.47275">
        <ele>112.152487</ele>
        <time>2022-07-30T11:28:14.000Z</time>
      </trkpt>
      <trkpt lat="49.61012" lon="-1.47277">
        <ele>112.238739</ele>
        <time>2022-07-30T11:28:15.000Z</time>
      </trkpt>
      <trkpt lat="49.61015" lon="-1.47278">
        <ele>112.320702</ele>
        <time>2022-07-30T11:28:16.000Z</time>
      </trkpt>
      <trkpt lat="49.6102" lon="-1.4728">
        <ele>112.40727</ele>
        <time>2022-07-30T11:28:17.000Z</time>
      </trkpt>
      <trkpt lat="49.61024" lon="-1.47282">
        <ele>112.496151</ele>
        <time>2022-07-30T11:28:18.000Z</time>
      </trkpt>
      <trkpt lat="49.61028" lon="-1.47283">
        <ele>112.583054</ele>
        <time>2022-07-30T11:28:19.000Z</time>
      </trkpt>
      <trkpt lat="49.61033" lon="-1.47285">
        <ele>112.630378</ele>
        <time>2022-07-30T11:28:20.000Z</time>
      </trkpt>
      <trkpt lat="49.61037" lon="-1.47286">
        <ele>112.584568</ele>
        <time>2022-07-30T11:28:21.000Z</time>
      </trkpt>
      <trkpt lat="49.61042" lon="-1.47287">
        <ele>112.538555</ele>
        <time>2022-07-30T11:28:22.000Z</time>
      </trkpt>
      <trkpt lat="49.61046" lon="-1.47288">
        <ele>112.495117</ele>
        <time>2022-07-30T11:28:23.000Z</time>
      </trkpt>
      <trkpt lat="49.61051" lon="-1.4729">
        <ele>112.445021</ele>
        <time>2022-07-30T11:28:24.000Z</time>
      </trkpt>
      <trkpt lat="49.61055" lon="-1.47292">
        <ele>112.399155</ele>
        <time>2022-07-30T11:28:25.000Z</time>
      </trkpt>
      <trkpt lat="49.6106" lon="-1.47294">
        <ele>112.352315</ele>
        <time>2022-07-30T11:28:26.000Z</time>
      </trkpt>
      <trkpt lat="49.61064" lon="-1.47296">
        <ele>112.30513</ele>
        <time>2022-07-30T11:28:27.000Z</time>
      </trkpt>
      <trkpt lat="49.61069" lon="-1.47298">
        <ele>112.254677</ele>
        <time>2022-07-30T11:28:28.000Z</time>
      </trkpt>
      <trkpt lat="49.61073" lon="-1.47301">
        <ele>112.208834</ele>
        <time>2022-07-30T11:28:29.000Z</time>
      </trkpt>
      <trkpt lat="49.61077" lon="-1.47304">
        <ele>112.160878</ele>
        <time>2022-07-30T11:28:30.000Z</time>
      </trkpt>
      <trkpt lat="49.61082" lon="-1.47306">
        <ele>112.115034</ele>
        <time>2022-07-30T11:28:31.000Z</time>
      </trkpt>
      <trkpt lat="49.61087" lon="-1.47309">
        <ele>112.061117</ele>
        <time>2022-07-30T11:28:32.000Z</time>
      </trkpt>
      <trkpt lat="49.61091" lon="-1.47312">
        <ele>112.015018</ele>
        <time>2022-07-30T11:28:33.000Z</time>
      </trkpt>
      <trkpt lat="49.61095" lon="-1.47315">
        <ele>111.968724</ele>
        <time>2022-07-30T11:28:34.000Z</time>
      </trkpt>
      <trkpt lat="49.61099" lon="-1.47318">
        <ele>111.920629</ele>
        <time>2022-07-30T11:28:35.000Z</time>
      </trkpt>
      <trkpt lat="49.61103" lon="-1.47322">
        <ele>111.872534</ele>
        <time>2022-07-30T11:28:36.000Z</time>
      </trkpt>
      <trkpt lat="49.61108" lon="-1.47326">
        <ele>111.817569</ele>
        <time>2022-07-30T11:28:37.000Z</time>
      </trkpt>
      <trkpt lat="49.61112" lon="-1.4733">
        <ele>111.766876</ele>
        <time>2022-07-30T11:28:38.000Z</time>
      </trkpt>
      <trkpt lat="49.61117" lon="-1.47335">
        <ele>111.712847</ele>
        <time>2022-07-30T11:28:39.000Z</time>
      </trkpt>
      <trkpt lat="49.61121" lon="-1.47339">
        <ele>111.661329</ele>
        <time>2022-07-30T11:28:40.000Z</time>
      </trkpt>
      <trkpt lat="49.61125" lon="-1.47344">
        <ele>111.60778</ele>
        <time>2022-07-30T11:28:41.000Z</time>
      </trkpt>
      <trkpt lat="49.6113" lon="-1.47349">
        <ele>111.550344</ele>
        <time>2022-07-30T11:28:42.000Z</time>
      </trkpt>
      <trkpt lat="49.61134" lon="-1.47355">
        <ele>111.493306</ele>
        <time>2022-07-30T11:28:43.000Z</time>
      </trkpt>
      <trkpt lat="49.61139" lon="-1.4736">
        <ele>111.436952</ele>
        <time>2022-07-30T11:28:44.000Z</time>
      </trkpt>
      <trkpt lat="49.61143" lon="-1.47365">
        <ele>111.378233</ele>
        <time>2022-07-30T11:28:45.000Z</time>
      </trkpt>
      <trkpt lat="49.61149" lon="-1.47371">
        <ele>111.3141</ele>
        <time>2022-07-30T11:28:46.000Z</time>
      </trkpt>
      <trkpt lat="49.61154" lon="-1.47376">
        <ele>111.25322</ele>
        <time>2022-07-30T11:28:47.000Z</time>
      </trkpt>
      <trkpt lat="49.61159" lon="-1.47381">
        <ele>111.188902</ele>
        <time>2022-07-30T11:28:48.000Z</time>
      </trkpt>
      <trkpt lat="49.61165" lon="-1.47386">
        <ele>111.124769</ele>
        <time>2022-07-30T11:28:49.000Z</time>
      </trkpt>
      <trkpt lat="49.61171" lon="-1.47391">
        <ele>111.058456</ele>
        <time>2022-07-30T11:28:50.000Z</time>
      </trkpt>
      <trkpt lat="49.61176" lon="-1.47395">
        <ele>110.994528</ele>
        <time>2022-07-30T11:28:51.000Z</time>
      </trkpt>
      <trkpt lat="49.61182" lon="-1.47399">
        <ele>110.930781</ele>
        <time>2022-07-30T11:28:52.000Z</time>
      </trkpt>
      <trkpt lat="49.61188" lon="-1.47402">
        <ele>110.868725</ele>
        <time>2022-07-30T11:28:53.000Z</time>
      </trkpt>
      <trkpt lat="49.61194" lon="-1.47406">
        <ele>110.737444</ele>
        <time>2022-07-30T11:28:54.000Z</time>
      </trkpt>
      <trkpt lat="49.61199" lon="-1.47409">
        <ele>110.546417</ele>
        <time>2022-07-30T11:28:55.000Z</time>
      </trkpt>
      <trkpt lat="49.61205" lon="-1.47412">
        <ele>110.344404</ele>
        <time>2022-07-30T11:28:56.000Z</time>
      </trkpt>
      <trkpt lat="49.61211" lon="-1.47416">
        <ele>110.138741</ele>
        <time>2022-07-30T11:28:57.000Z</time>
      </trkpt>
      <trkpt lat="49.61216" lon="-1.47419">
        <ele>109.946937</ele>
        <time>2022-07-30T11:28:58.000Z</time>
      </trkpt>
      <trkpt lat="49.61222" lon="-1.47422">
        <ele>109.742794</ele>
        <time>2022-07-30T11:28:59.000Z</time>
      </trkpt>
      <trkpt lat="49.61227" lon="-1.47426">
        <ele>109.558468</ele>
        <time>2022-07-30T11:29:00.000Z</time>
      </trkpt>
      <trkpt lat="49.61233" lon="-1.47429">
        <ele>109.356658</ele>
        <time>2022-07-30T11:29:01.000Z</time>
      </trkpt>
      <trkpt lat="49.61238" lon="-1.47432">
        <ele>109.153955</ele>
        <time>2022-07-30T11:29:02.000Z</time>
      </trkpt>
      <trkpt lat="49.61244" lon="-1.47436">
        <ele>108.961353</ele>
        <time>2022-07-30T11:29:03.000Z</time>
      </trkpt>
      <trkpt lat="49.61249" lon="-1.47439">
        <ele>108.764059</ele>
        <time>2022-07-30T11:29:04.000Z</time>
      </trkpt>
      <trkpt lat="49.61254" lon="-1.47443">
        <ele>108.584916</ele>
        <time>2022-07-30T11:29:05.000Z</time>
      </trkpt>
      <trkpt lat="49.61259" lon="-1.47447">
        <ele>108.40059</ele>
        <time>2022-07-30T11:29:06.000Z</time>
      </trkpt>
      <trkpt lat="49.61264" lon="-1.47451">
        <ele>108.222434</ele>
        <time>2022-07-30T11:29:07.000Z</time>
      </trkpt>
      <trkpt lat="49.61269" lon="-1.47454">
        <ele>108.038109</ele>
        <time>2022-07-30T11:29:08.000Z</time>
      </trkpt>
      <trkpt lat="49.61274" lon="-1.47458">
        <ele>107.849183</ele>
        <time>2022-07-30T11:29:09.000Z</time>
      </trkpt>
      <trkpt lat="49.61279" lon="-1.47463">
        <ele>107.663711</ele>
        <time>2022-07-30T11:29:10.000Z</time>
      </trkpt>
      <trkpt lat="49.61283" lon="-1.47467">
        <ele>107.494861</ele>
        <time>2022-07-30T11:29:11.000Z</time>
      </trkpt>
      <trkpt lat="49.61287" lon="-1.47471">
        <ele>107.342958</ele>
        <time>2022-07-30T11:29:12.000Z</time>
      </trkpt>
      <trkpt lat="49.61289" lon="-1.47475">
        <ele>107.236288</ele>
        <time>2022-07-30T11:29:13.000Z</time>
      </trkpt>
      <trkpt lat="49.61292" lon="-1.47477">
        <ele>107.151967</ele>
        <time>2022-07-30T11:29:14.000Z</time>
      </trkpt>
      <trkpt lat="49.61294" lon="-1.47478">
        <ele>107.067749</ele>
        <time>2022-07-30T11:29:16.000Z</time>
      </trkpt>
      <trkpt lat="49.61298" lon="-1.47491">
        <ele>106.771767</ele>
        <time>2022-07-30T11:30:36.000Z</time>
      </trkpt>
      <trkpt lat="49.613" lon="-1.47494">
        <ele>106.662051</ele>
        <time>2022-07-30T11:30:37.000Z</time>
      </trkpt>
      <trkpt lat="49.61302" lon="-1.47498">
        <ele>106.554189</ele>
        <time>2022-07-30T11:30:38.000Z</time>
      </trkpt>
      <trkpt lat="49.61304" lon="-1.47503">
        <ele>106.433564</ele>
        <time>2022-07-30T11:30:39.000Z</time>
      </trkpt>
      <trkpt lat="49.61307" lon="-1.47508">
        <ele>106.286754</ele>
        <time>2022-07-30T11:30:40.000Z</time>
      </trkpt>
      <trkpt lat="49.61309" lon="-1.47514">
        <ele>106.144786</ele>
        <time>2022-07-30T11:30:41.000Z</time>
      </trkpt>
      <trkpt lat="49.61312" lon="-1.4752">
        <ele>105.988549</ele>
        <time>2022-07-30T11:30:42.000Z</time>
      </trkpt>
      <trkpt lat="49.61315" lon="-1.47526">
        <ele>105.822262</ele>
        <time>2022-07-30T11:30:43.000Z</time>
      </trkpt>
      <trkpt lat="49.61318" lon="-1.47532">
        <ele>105.660623</ele>
        <time>2022-07-30T11:30:44.000Z</time>
      </trkpt>
      <trkpt lat="49.61321" lon="-1.47539">
        <ele>105.489331</ele>
        <time>2022-07-30T11:30:45.000Z</time>
      </trkpt>
      <trkpt lat="49.61324" lon="-1.47545">
        <ele>105.311225</ele>
        <time>2022-07-30T11:30:46.000Z</time>
      </trkpt>
      <trkpt lat="49.61327" lon="-1.47552">
        <ele>105.133372</ele>
        <time>2022-07-30T11:30:47.000Z</time>
      </trkpt>
      <trkpt lat="49.61331" lon="-1.4756">
        <ele>104.932563</ele>
        <time>2022-07-30T11:30:48.000Z</time>
      </trkpt>
      <trkpt lat="49.61334" lon="-1.47567">
        <ele>104.701858</ele>
        <time>2022-07-30T11:30:49.000Z</time>
      </trkpt>
      <trkpt lat="49.61338" lon="-1.47575">
        <ele>104.443249</ele>
        <time>2022-07-30T11:30:50.000Z</time>
      </trkpt>
      <trkpt lat="49.61342" lon="-1.47583">
        <ele>104.169312</ele>
        <time>2022-07-30T11:30:51.000Z</time>
      </trkpt>
      <trkpt lat="49.61346" lon="-1.47591">
        <ele>103.899953</ele>
        <time>2022-07-30T11:30:52.000Z</time>
      </trkpt>
      <trkpt lat="49.6135" lon="-1.476">
        <ele>103.612216</ele>
        <time>2022-07-30T11:30:53.000Z</time>
      </trkpt>
      <trkpt lat="49.61354" lon="-1.47609">
        <ele>103.324785</ele>
        <time>2022-07-30T11:30:54.000Z</time>
      </trkpt>
      <trkpt lat="49.61359" lon="-1.47617">
        <ele>103.027539</ele>
        <time>2022-07-30T11:30:55.000Z</time>
      </trkpt>
      <trkpt lat="49.61363" lon="-1.47626">
        <ele>102.719555</ele>
        <time>2022-07-30T11:30:56.000Z</time>
      </trkpt>
      <trkpt lat="49.61368" lon="-1.47636">
        <ele>102.389929</ele>
        <time>2022-07-30T11:30:57.000Z</time>
      </trkpt>
      <trkpt lat="49.61373" lon="-1.47645">
        <ele>102.069005</ele>
        <time>2022-07-30T11:30:58.000Z</time>
      </trkpt>
      <trkpt lat="49.61377" lon="-1.47655">
        <ele>101.745898</ele>
        <time>2022-07-30T11:30:59.000Z</time>
      </trkpt>
      <trkpt lat="49.61382" lon="-1.47665">
        <ele>101.405879</ele>
        <time>2022-07-30T11:31:00.000Z</time>
      </trkpt>
      <trkpt lat="49.61387" lon="-1.47675">
        <ele>101.078383</ele>
        <time>2022-07-30T11:31:01.000Z</time>
      </trkpt>
      <trkpt lat="49.61391" lon="-1.47686">
        <ele>100.737557</ele>
        <time>2022-07-30T11:31:02.000Z</time>
      </trkpt>
      <trkpt lat="49.61396" lon="-1.47696">
        <ele>100.398573</ele>
        <time>2022-07-30T11:31:03.000Z</time>
      </trkpt>
      <trkpt lat="49.61401" lon="-1.47707">
        <ele>100.064475</ele>
        <time>2022-07-30T11:31:04.000Z</time>
      </trkpt>
      <trkpt lat="49.61405" lon="-1.47717">
        <ele>99.721139</ele>
        <time>2022-07-30T11:31:05.000Z</time>
      </trkpt>
      <trkpt lat="49.61411" lon="-1.47728">
        <ele>99.370157</ele>
        <time>2022-07-30T11:31:06.000Z</time>
      </trkpt>
      <trkpt lat="49.61416" lon="-1.47738">
        <ele>99.016157</ele>
        <time>2022-07-30T11:31:07.000Z</time>
      </trkpt>
      <trkpt lat="49.61421" lon="-1.47748">
        <ele>98.677175</ele>
        <time>2022-07-30T11:31:08.000Z</time>
      </trkpt>
      <trkpt lat="49.61426" lon="-1.47759">
        <ele>98.310575</ele>
        <time>2022-07-30T11:31:09.000Z</time>
      </trkpt>
      <trkpt lat="49.61431" lon="-1.4777">
        <ele>97.960661</ele>
        <time>2022-07-30T11:31:10.000Z</time>
      </trkpt>
      <trkpt lat="49.61437" lon="-1.47781">
        <ele>97.593647</ele>
        <time>2022-07-30T11:31:11.000Z</time>
      </trkpt>
      <trkpt lat="49.61441" lon="-1.47792">
        <ele>97.161444</ele>
        <time>2022-07-30T11:31:12.000Z</time>
      </trkpt>
      <trkpt lat="49.61446" lon="-1.47803">
        <ele>96.670866</ele>
        <time>2022-07-30T11:31:13.000Z</time>
      </trkpt>
      <trkpt lat="49.61451" lon="-1.47815">
        <ele>96.192381</ele>
        <time>2022-07-30T11:31:14.000Z</time>
      </trkpt>
      <trkpt lat="49.61457" lon="-1.47826">
        <ele>95.69516</ele>
        <time>2022-07-30T11:31:15.000Z</time>
      </trkpt>
      <trkpt lat="49.61462" lon="-1.47838">
        <ele>95.186877</ele>
        <time>2022-07-30T11:31:16.000Z</time>
      </trkpt>
      <trkpt lat="49.61468" lon="-1.47849">
        <ele>94.679752</ele>
        <time>2022-07-30T11:31:17.000Z</time>
      </trkpt>
      <trkpt lat="49.61474" lon="-1.47861">
        <ele>94.153452</ele>
        <time>2022-07-30T11:31:18.000Z</time>
      </trkpt>
      <trkpt lat="49.61479" lon="-1.47873">
        <ele>93.630241</ele>
        <time>2022-07-30T11:31:19.000Z</time>
      </trkpt>
      <trkpt lat="49.61485" lon="-1.47885">
        <ele>93.091536</ele>
        <time>2022-07-30T11:31:20.000Z</time>
      </trkpt>
      <trkpt lat="49.61491" lon="-1.47898">
        <ele>92.523138</ele>
        <time>2022-07-30T11:31:21.000Z</time>
      </trkpt>
      <trkpt lat="49.61498" lon="-1.47911">
        <ele>91.943184</ele>
        <time>2022-07-30T11:31:22.000Z</time>
      </trkpt>
      <trkpt lat="49.61503" lon="-1.47925">
        <ele>91.360693</ele>
        <time>2022-07-30T11:31:23.000Z</time>
      </trkpt>
      <trkpt lat="49.61509" lon="-1.47939">
        <ele>90.766288</ele>
        <time>2022-07-30T11:31:24.000Z</time>
      </trkpt>
      <trkpt lat="49.61516" lon="-1.47952">
        <ele>90.160762</ele>
        <time>2022-07-30T11:31:25.000Z</time>
      </trkpt>
      <trkpt lat="49.61523" lon="-1.47965">
        <ele>89.55398</ele>
        <time>2022-07-30T11:31:26.000Z</time>
      </trkpt>
      <trkpt lat="49.61529" lon="-1.4798">
        <ele>88.970923</ele>
        <time>2022-07-30T11:31:27.000Z</time>
      </trkpt>
      <trkpt lat="49.61534" lon="-1.47992">
        <ele>88.438922</ele>
        <time>2022-07-30T11:31:28.000Z</time>
      </trkpt>
      <trkpt lat="49.61539" lon="-1.48003">
        <ele>87.96635</ele>
        <time>2022-07-30T11:31:29.000Z</time>
      </trkpt>
      <trkpt lat="49.61543" lon="-1.48014">
        <ele>87.595001</ele>
        <time>2022-07-30T11:31:30.000Z</time>
      </trkpt>
      <trkpt lat="49.61546" lon="-1.48023">
        <ele>87.431928</ele>
        <time>2022-07-30T11:31:31.000Z</time>
      </trkpt>
      <trkpt lat="49.6155" lon="-1.48031">
        <ele>87.287379</ele>
        <time>2022-07-30T11:31:32.000Z</time>
      </trkpt>
      <trkpt lat="49.61552" lon="-1.48034">
        <ele>87.211689</ele>
        <time>2022-07-30T11:31:33.000Z</time>
      </trkpt>
      <trkpt lat="49.61555" lon="-1.48036">
        <ele>87.146184</ele>
        <time>2022-07-30T11:31:34.000Z</time>
      </trkpt>
      <trkpt lat="49.61557" lon="-1.48038">
        <ele>87.077399</ele>
        <time>2022-07-30T11:31:35.000Z</time>
      </trkpt>
      <trkpt lat="49.61559" lon="-1.48039">
        <ele>87.030326</ele>
        <time>2022-07-30T11:31:36.000Z</time>
      </trkpt>
      <trkpt lat="49.61562" lon="-1.48037">
        <ele>86.963981</ele>
        <time>2022-07-30T11:31:37.000Z</time>
      </trkpt>
      <trkpt lat="49.61563" lon="-1.48036">
        <ele>86.919236</ele>
        <time>2022-07-30T11:31:38.000Z</time>
      </trkpt>
      <trkpt lat="49.61564" lon="-1.48033">
        <ele>86.875286</ele>
        <time>2022-07-30T11:31:39.000Z</time>
      </trkpt>
      <trkpt lat="49.61565" lon="-1.48028">
        <ele>86.793065</ele>
        <time>2022-07-30T11:31:40.000Z</time>
      </trkpt>
      <trkpt lat="49.61566" lon="-1.48023">
        <ele>86.712028</ele>
        <time>2022-07-30T11:31:41.000Z</time>
      </trkpt>
      <trkpt lat="49.61566" lon="-1.4802">
        <ele>86.655818</ele>
        <time>2022-07-30T11:31:42.000Z</time>
      </trkpt>
      <trkpt lat="49.61567" lon="-1.48015">
        <ele>86.574023</ele>
        <time>2022-07-30T11:31:43.000Z</time>
      </trkpt>
      <trkpt lat="49.61568" lon="-1.48011">
        <ele>86.520249</ele>
        <time>2022-07-30T11:31:44.000Z</time>
      </trkpt>
      <trkpt lat="49.61568" lon="-1.48006">
        <ele>86.435074</ele>
        <time>2022-07-30T11:31:46.000Z</time>
      </trkpt>
      <trkpt lat="49.61568" lon="-1.48002">
        <ele>86.382421</ele>
        <time>2022-07-30T11:31:47.000Z</time>
      </trkpt>
      <trkpt lat="49.61568" lon="-1.47998">
        <ele>86.320062</ele>
        <time>2022-07-30T11:31:48.000Z</time>
      </trkpt>
      <trkpt lat="49.61568" lon="-1.47995">
        <ele>86.268957</ele>
        <time>2022-07-30T11:31:49.000Z</time>
      </trkpt>
      <trkpt lat="49.61568" lon="-1.4799">
        <ele>86.183481</ele>
        <time>2022-07-30T11:31:51.000Z</time>
      </trkpt>
      <trkpt lat="49.61569" lon="-1.47987">
        <ele>86.137004</ele>
        <time>2022-07-30T11:31:52.000Z</time>
      </trkpt>
      <trkpt lat="49.6157" lon="-1.47984">
        <ele>86.0928</ele>
        <time>2022-07-30T11:31:53.000Z</time>
      </trkpt>
      <trkpt lat="49.61571" lon="-1.47981">
        <ele>86.034308</ele>
        <time>2022-07-30T11:31:54.000Z</time>
      </trkpt>
      <trkpt lat="49.61571" lon="-1.47978">
        <ele>85.987299</ele>
        <time>2022-07-30T11:31:55.000Z</time>
      </trkpt>
      <trkpt lat="49.61572" lon="-1.47974">
        <ele>85.931232</ele>
        <time>2022-07-30T11:31:56.000Z</time>
      </trkpt>
      <trkpt lat="49.61573" lon="-1.47971">
        <ele>85.871994</ele>
        <time>2022-07-30T11:31:57.000Z</time>
      </trkpt>
      <trkpt lat="49.61573" lon="-1.47968">
        <ele>85.826322</ele>
        <time>2022-07-30T11:31:58.000Z</time>
      </trkpt>
      <trkpt lat="49.61574" lon="-1.47965">
        <ele>85.774075</ele>
        <time>2022-07-30T11:31:59.000Z</time>
      </trkpt>
      <trkpt lat="49.61576" lon="-1.47962">
        <ele>85.714266</ele>
        <time>2022-07-30T11:32:00.000Z</time>
      </trkpt>
      <trkpt lat="49.61577" lon="-1.47958">
        <ele>85.644964</ele>
        <time>2022-07-30T11:32:01.000Z</time>
      </trkpt>
      <trkpt lat="49.61577" lon="-1.47954">
        <ele>85.590763</ele>
        <time>2022-07-30T11:32:02.000Z</time>
      </trkpt>
      <trkpt lat="49.61577" lon="-1.47951">
        <ele>85.543754</ele>
        <time>2022-07-30T11:32:03.000Z</time>
      </trkpt>
      <trkpt lat="49.61578" lon="-1.47947">
        <ele>85.482933</ele>
        <time>2022-07-30T11:32:04.000Z</time>
      </trkpt>
      <trkpt lat="49.61579" lon="-1.47943">
        <ele>85.412244</ele>
        <time>2022-07-30T11:32:05.000Z</time>
      </trkpt>
      <trkpt lat="49.6158" lon="-1.47938">
        <ele>85.328811</ele>
        <time>2022-07-30T11:32:06.000Z</time>
      </trkpt>
      <trkpt lat="49.61581" lon="-1.47934">
        <ele>85.262206</ele>
        <time>2022-07-30T11:32:07.000Z</time>
      </trkpt>
      <trkpt lat="49.61581" lon="-1.47931">
        <ele>85.206139</ele>
        <time>2022-07-30T11:32:08.000Z</time>
      </trkpt>
      <trkpt lat="49.61582" lon="-1.47927">
        <ele>85.144959</ele>
        <time>2022-07-30T11:32:09.000Z</time>
      </trkpt>
      <trkpt lat="49.61583" lon="-1.47923">
        <ele>85.088892</ele>
        <time>2022-07-30T11:32:10.000Z</time>
      </trkpt>
      <trkpt lat="49.61583" lon="-1.47919">
        <ele>85.024728</ele>
        <time>2022-07-30T11:32:11.000Z</time>
      </trkpt>
      <trkpt lat="49.61584" lon="-1.47915">
        <ele>84.956212</ele>
        <time>2022-07-30T11:32:12.000Z</time>
      </trkpt>
      <trkpt lat="49.61584" lon="-1.47911">
        <ele>84.889236</ele>
        <time>2022-07-30T11:32:13.000Z</time>
      </trkpt>
      <trkpt lat="49.61585" lon="-1.47906">
        <ele>84.818486</ele>
        <time>2022-07-30T11:32:14.000Z</time>
      </trkpt>
      <trkpt lat="49.61586" lon="-1.47902">
        <ele>84.748853</ele>
        <time>2022-07-30T11:32:15.000Z</time>
      </trkpt>
      <trkpt lat="49.61587" lon="-1.47898">
        <ele>84.682306</ele>
        <time>2022-07-30T11:32:16.000Z</time>
      </trkpt>
      <trkpt lat="49.61588" lon="-1.47894">
        <ele>84.616732</ele>
        <time>2022-07-30T11:32:17.000Z</time>
      </trkpt>
      <trkpt lat="49.61588" lon="-1.4789">
        <ele>84.554054</ele>
        <time>2022-07-30T11:32:18.000Z</time>
      </trkpt>
      <trkpt lat="49.61589" lon="-1.47886">
        <ele>84.482906</ele>
        <time>2022-07-30T11:32:19.000Z</time>
      </trkpt>
      <trkpt lat="49.61589" lon="-1.47881">
        <ele>84.408721</ele>
        <time>2022-07-30T11:32:20.000Z</time>
      </trkpt>
      <trkpt lat="49.6159" lon="-1.47876">
        <ele>84.332527</ele>
        <time>2022-07-30T11:32:21.000Z</time>
      </trkpt>
      <trkpt lat="49.61591" lon="-1.47871">
        <ele>84.246212</ele>
        <time>2022-07-30T11:32:22.000Z</time>
      </trkpt>
      <trkpt lat="49.61592" lon="-1.47866">
        <ele>84.170508</ele>
        <time>2022-07-30T11:32:23.000Z</time>
      </trkpt>
      <trkpt lat="49.61593" lon="-1.47861">
        <ele>84.089471</ele>
        <time>2022-07-30T11:32:24.000Z</time>
      </trkpt>
      <trkpt lat="49.61594" lon="-1.47856">
        <ele>84.010724</ele>
        <time>2022-07-30T11:32:25.000Z</time>
      </trkpt>
      <trkpt lat="49.61594" lon="-1.47851">
        <ele>83.936045</ele>
        <time>2022-07-30T11:32:26.000Z</time>
      </trkpt>
      <trkpt lat="49.61595" lon="-1.47847">
        <ele>83.859435</ele>
        <time>2022-07-30T11:32:27.000Z</time>
      </trkpt>
      <trkpt lat="49.61596" lon="-1.47842">
        <ele>83.788287</ele>
        <time>2022-07-30T11:32:28.000Z</time>
      </trkpt>
      <trkpt lat="49.61596" lon="-1.47838">
        <ele>83.721312</ele>
        <time>2022-07-30T11:32:29.000Z</time>
      </trkpt>
      <trkpt lat="49.61596" lon="-1.47833">
        <ele>83.650971</ele>
        <time>2022-07-30T11:32:30.000Z</time>
      </trkpt>
      <trkpt lat="49.61597" lon="-1.47829">
        <ele>83.578038</ele>
        <time>2022-07-30T11:32:31.000Z</time>
      </trkpt>
      <trkpt lat="49.61597" lon="-1.47824">
        <ele>83.507983</ele>
        <time>2022-07-30T11:32:32.000Z</time>
      </trkpt>
      <trkpt lat="49.61598" lon="-1.4782">
        <ele>83.433299</ele>
        <time>2022-07-30T11:32:33.000Z</time>
      </trkpt>
      <trkpt lat="49.61599" lon="-1.47815">
        <ele>83.355915</ele>
        <time>2022-07-30T11:32:34.000Z</time>
      </trkpt>
      <trkpt lat="49.61599" lon="-1.4781">
        <ele>83.289222</ele>
        <time>2022-07-30T11:32:35.000Z</time>
      </trkpt>
      <trkpt lat="49.616" lon="-1.47805">
        <ele>83.226528</ele>
        <time>2022-07-30T11:32:36.000Z</time>
      </trkpt>
      <trkpt lat="49.61601" lon="-1.478">
        <ele>83.161735</ele>
        <time>2022-07-30T11:32:37.000Z</time>
      </trkpt>
      <trkpt lat="49.61602" lon="-1.47794">
        <ele>83.092813</ele>
        <time>2022-07-30T11:32:38.000Z</time>
      </trkpt>
      <trkpt lat="49.61603" lon="-1.47789">
        <ele>83.020888</ele>
        <time>2022-07-30T11:32:39.000Z</time>
      </trkpt>
      <trkpt lat="49.61604" lon="-1.47784">
        <ele>82.953712</ele>
        <time>2022-07-30T11:32:40.000Z</time>
      </trkpt>
      <trkpt lat="49.61604" lon="-1.47778">
        <ele>82.884799</ele>
        <time>2022-07-30T11:32:41.000Z</time>
      </trkpt>
      <trkpt lat="49.61605" lon="-1.47772">
        <ele>82.809862</ele>
        <time>2022-07-30T11:32:42.000Z</time>
      </trkpt>
      <trkpt lat="49.61606" lon="-1.47766">
        <ele>82.73251</ele>
        <time>2022-07-30T11:32:43.000Z</time>
      </trkpt>
      <trkpt lat="49.61607" lon="-1.4776">
        <ele>82.649324</ele>
        <time>2022-07-30T11:32:44.000Z</time>
      </trkpt>
      <trkpt lat="49.61608" lon="-1.47754">
        <ele>82.568339</ele>
        <time>2022-07-30T11:32:45.000Z</time>
      </trkpt>
      <trkpt lat="49.61609" lon="-1.47747">
        <ele>82.482496</ele>
        <time>2022-07-30T11:32:46.000Z</time>
      </trkpt>
      <trkpt lat="49.6161" lon="-1.4774">
        <ele>82.399284</ele>
        <time>2022-07-30T11:32:47.000Z</time>
      </trkpt>
      <trkpt lat="49.61611" lon="-1.47733">
        <ele>82.308366</ele>
        <time>2022-07-30T11:32:48.000Z</time>
      </trkpt>
      <trkpt lat="49.61612" lon="-1.47726">
        <ele>82.216813</ele>
        <time>2022-07-30T11:32:49.000Z</time>
      </trkpt>
      <trkpt lat="49.61613" lon="-1.47719">
        <ele>82.121209</ele>
        <time>2022-07-30T11:32:50.000Z</time>
      </trkpt>
      <trkpt lat="49.61613" lon="-1.47711">
        <ele>82.024378</ele>
        <time>2022-07-30T11:32:51.000Z</time>
      </trkpt>
      <trkpt lat="49.61614" lon="-1.47703">
        <ele>81.923587</ele>
        <time>2022-07-30T11:32:52.000Z</time>
      </trkpt>
      <trkpt lat="49.61615" lon="-1.47695">
        <ele>81.824668</ele>
        <time>2022-07-30T11:32:53.000Z</time>
      </trkpt>
      <trkpt lat="49.61617" lon="-1.47687">
        <ele>81.716549</ele>
        <time>2022-07-30T11:32:54.000Z</time>
      </trkpt>
      <trkpt lat="49.61618" lon="-1.47678">
        <ele>81.607505</ele>
        <time>2022-07-30T11:32:55.000Z</time>
      </trkpt>
      <trkpt lat="49.61621" lon="-1.4767">
        <ele>81.487883</ele>
        <time>2022-07-30T11:32:56.000Z</time>
      </trkpt>
      <trkpt lat="49.61622" lon="-1.4766">
        <ele>81.368951</ele>
        <time>2022-07-30T11:32:57.000Z</time>
      </trkpt>
      <trkpt lat="49.61625" lon="-1.47652">
        <ele>81.245683</ele>
        <time>2022-07-30T11:32:58.000Z</time>
      </trkpt>
      <trkpt lat="49.61628" lon="-1.47643">
        <ele>81.124396</ele>
        <time>2022-07-30T11:32:59.000Z</time>
      </trkpt>
      <trkpt lat="49.61631" lon="-1.47635">
        <ele>81.005946</ele>
        <time>2022-07-30T11:33:00.000Z</time>
      </trkpt>
      <trkpt lat="49.61635" lon="-1.47626">
        <ele>80.87692</ele>
        <time>2022-07-30T11:33:01.000Z</time>
      </trkpt>
      <trkpt lat="49.61638" lon="-1.47618">
        <ele>80.750119</ele>
        <time>2022-07-30T11:33:02.000Z</time>
      </trkpt>
      <trkpt lat="49.61642" lon="-1.47609">
        <ele>80.624374</ele>
        <time>2022-07-30T11:33:03.000Z</time>
      </trkpt>
      <trkpt lat="49.61646" lon="-1.47601">
        <ele>80.494332</ele>
        <time>2022-07-30T11:33:04.000Z</time>
      </trkpt>
      <trkpt lat="49.6165" lon="-1.47592">
        <ele>80.358493</ele>
        <time>2022-07-30T11:33:05.000Z</time>
      </trkpt>
      <trkpt lat="49.61654" lon="-1.47584">
        <ele>80.231704</ele>
        <time>2022-07-30T11:33:06.000Z</time>
      </trkpt>
      <trkpt lat="49.61658" lon="-1.47575">
        <ele>80.100703</ele>
        <time>2022-07-30T11:33:07.000Z</time>
      </trkpt>
      <trkpt lat="49.61661" lon="-1.47567">
        <ele>79.974958</ele>
        <time>2022-07-30T11:33:08.000Z</time>
      </trkpt>
      <trkpt lat="49.61665" lon="-1.47558">
        <ele>79.836003</ele>
        <time>2022-07-30T11:33:09.000Z</time>
      </trkpt>
      <trkpt lat="49.61668" lon="-1.47549">
        <ele>79.677911</ele>
        <time>2022-07-30T11:33:10.000Z</time>
      </trkpt>
      <trkpt lat="49.6167" lon="-1.4754">
        <ele>79.524427</ele>
        <time>2022-07-30T11:33:11.000Z</time>
      </trkpt>
      <trkpt lat="49.61672" lon="-1.47531">
        <ele>79.374742</ele>
        <time>2022-07-30T11:33:12.000Z</time>
      </trkpt>
      <trkpt lat="49.61675" lon="-1.47523">
        <ele>79.225628</ele>
        <time>2022-07-30T11:33:13.000Z</time>
      </trkpt>
      <trkpt lat="49.61676" lon="-1.47514">
        <ele>79.080585</ele>
        <time>2022-07-30T11:33:14.000Z</time>
      </trkpt>
      <trkpt lat="49.61677" lon="-1.47505">
        <ele>78.938586</ele>
        <time>2022-07-30T11:33:15.000Z</time>
      </trkpt>
      <trkpt lat="49.61678" lon="-1.47496">
        <ele>78.795353</ele>
        <time>2022-07-30T11:33:16.000Z</time>
      </trkpt>
      <trkpt lat="49.61679" lon="-1.47487">
        <ele>78.655542</ele>
        <time>2022-07-30T11:33:17.000Z</time>
      </trkpt>
      <trkpt lat="49.6168" lon="-1.4748">
        <ele>78.527732</ele>
        <time>2022-07-30T11:33:18.000Z</time>
      </trkpt>
      <trkpt lat="49.61681" lon="-1.47473">
        <ele>78.415333</ele>
        <time>2022-07-30T11:33:19.000Z</time>
      </trkpt>
      <trkpt lat="49.61682" lon="-1.47466">
        <ele>78.311126</ele>
        <time>2022-07-30T11:33:20.000Z</time>
      </trkpt>
      <trkpt lat="49.61683" lon="-1.47462">
        <ele>78.239045</ele>
        <time>2022-07-30T11:33:21.000Z</time>
      </trkpt>
      <trkpt lat="49.61683" lon="-1.47458">
        <ele>78.180329</ele>
        <time>2022-07-30T11:33:22.000Z</time>
      </trkpt>
      <trkpt lat="49.61682" lon="-1.47455">
        <ele>78.134828</ele>
        <time>2022-07-30T11:33:23.000Z</time>
      </trkpt>
      <trkpt lat="49.61683" lon="-1.47451">
        <ele>78.072168</ele>
        <time>2022-07-30T11:33:25.000Z</time>
      </trkpt>
      <trkpt lat="49.61683" lon="-1.47443">
        <ele>77.943417</ele>
        <time>2022-07-30T11:34:40.000Z</time>
      </trkpt>
      <trkpt lat="49.61684" lon="-1.47438">
        <ele>77.864282</ele>
        <time>2022-07-30T11:34:41.000Z</time>
      </trkpt>
      <trkpt lat="49.61685" lon="-1.47434">
        <ele>77.784269</ele>
        <time>2022-07-30T11:34:42.000Z</time>
      </trkpt>
      <trkpt lat="49.61686" lon="-1.47429">
        <ele>77.695772</ele>
        <time>2022-07-30T11:34:43.000Z</time>
      </trkpt>
      <trkpt lat="49.61687" lon="-1.47423">
        <ele>77.602865</ele>
        <time>2022-07-30T11:34:44.000Z</time>
      </trkpt>
      <trkpt lat="49.61689" lon="-1.47417">
        <ele>77.504286</ele>
        <time>2022-07-30T11:34:45.000Z</time>
      </trkpt>
      <trkpt lat="49.61691" lon="-1.47412">
        <ele>77.404249</ele>
        <time>2022-07-30T11:34:46.000Z</time>
      </trkpt>
      <trkpt lat="49.61693" lon="-1.47405">
        <ele>77.287873</ele>
        <time>2022-07-30T11:34:47.000Z</time>
      </trkpt>
      <trkpt lat="49.61695" lon="-1.47399">
        <ele>77.186149</ele>
        <time>2022-07-30T11:34:48.000Z</time>
      </trkpt>
      <trkpt lat="49.61696" lon="-1.47393">
        <ele>77.078767</ele>
        <time>2022-07-30T11:34:49.000Z</time>
      </trkpt>
      <trkpt lat="49.61698" lon="-1.47387">
        <ele>76.965605</ele>
        <time>2022-07-30T11:34:50.000Z</time>
      </trkpt>
      <trkpt lat="49.617" lon="-1.4738">
        <ele>76.84854</ele>
        <time>2022-07-30T11:34:51.000Z</time>
      </trkpt>
      <trkpt lat="49.61702" lon="-1.47373">
        <ele>76.73393</ele>
        <time>2022-07-30T11:34:52.000Z</time>
      </trkpt>
      <trkpt lat="49.61704" lon="-1.47366">
        <ele>76.613492</ele>
        <time>2022-07-30T11:34:53.000Z</time>
      </trkpt>
      <trkpt lat="49.61706" lon="-1.47359">
        <ele>76.49012</ele>
        <time>2022-07-30T11:34:54.000Z</time>
      </trkpt>
      <trkpt lat="49.61708" lon="-1.47352">
        <ele>76.365277</ele>
        <time>2022-07-30T11:34:55.000Z</time>
      </trkpt>
      <trkpt lat="49.61709" lon="-1.47344">
        <ele>76.236955</ele>
        <time>2022-07-30T11:34:56.000Z</time>
      </trkpt>
      <trkpt lat="49.61711" lon="-1.47336">
        <ele>76.100878</ele>
        <time>2022-07-30T11:34:57.000Z</time>
      </trkpt>
      <trkpt lat="49.61714" lon="-1.47328">
        <ele>75.957064</ele>
        <time>2022-07-30T11:34:58.000Z</time>
      </trkpt>
      <trkpt lat="49.61716" lon="-1.47319">
        <ele>75.80942</ele>
        <time>2022-07-30T11:34:59.000Z</time>
      </trkpt>
      <trkpt lat="49.61718" lon="-1.4731">
        <ele>75.649323</ele>
        <time>2022-07-30T11:35:00.000Z</time>
      </trkpt>
      <trkpt lat="49.61721" lon="-1.473">
        <ele>75.48274</ele>
        <time>2022-07-30T11:35:01.000Z</time>
      </trkpt>
      <trkpt lat="49.61723" lon="-1.4729">
        <ele>75.261152</ele>
        <time>2022-07-30T11:35:02.000Z</time>
      </trkpt>
      <trkpt lat="49.61726" lon="-1.4728">
        <ele>75.019798</ele>
        <time>2022-07-30T11:35:03.000Z</time>
      </trkpt>
      <trkpt lat="49.61729" lon="-1.47269">
        <ele>74.768683</ele>
        <time>2022-07-30T11:35:04.000Z</time>
      </trkpt>
      <trkpt lat="49.61733" lon="-1.47257">
        <ele>74.500023</ele>
        <time>2022-07-30T11:35:05.000Z</time>
      </trkpt>
      <trkpt lat="49.61736" lon="-1.47245">
        <ele>74.22139</ele>
        <time>2022-07-30T11:35:06.000Z</time>
      </trkpt>
      <trkpt lat="49.61741" lon="-1.47234">
        <ele>73.938557</ele>
        <time>2022-07-30T11:35:07.000Z</time>
      </trkpt>
      <trkpt lat="49.61746" lon="-1.47223">
        <ele>73.646735</ele>
        <time>2022-07-30T11:35:08.000Z</time>
      </trkpt>
      <trkpt lat="49.61752" lon="-1.47212">
        <ele>73.34497</ele>
        <time>2022-07-30T11:35:09.000Z</time>
      </trkpt>
      <trkpt lat="49.61759" lon="-1.47204">
        <ele>73.063256</ele>
        <time>2022-07-30T11:35:10.000Z</time>
      </trkpt>
      <trkpt lat="49.61766" lon="-1.47198">
        <ele>72.798056</ele>
        <time>2022-07-30T11:35:11.000Z</time>
      </trkpt>
      <trkpt lat="49.61774" lon="-1.47193">
        <ele>72.518688</ele>
        <time>2022-07-30T11:35:12.000Z</time>
      </trkpt>
      <trkpt lat="49.61782" lon="-1.47189">
        <ele>72.246125</ele>
        <time>2022-07-30T11:35:13.000Z</time>
      </trkpt>
      <trkpt lat="49.6179" lon="-1.47186">
        <ele>71.985315</ele>
        <time>2022-07-30T11:35:14.000Z</time>
      </trkpt>
      <trkpt lat="49.61798" lon="-1.47183">
        <ele>71.715058</ele>
        <time>2022-07-30T11:35:15.000Z</time>
      </trkpt>
      <trkpt lat="49.61806" lon="-1.4718">
        <ele>71.44686</ele>
        <time>2022-07-30T11:35:16.000Z</time>
      </trkpt>
      <trkpt lat="49.61814" lon="-1.47177">
        <ele>71.170453</ele>
        <time>2022-07-30T11:35:17.000Z</time>
      </trkpt>
      <trkpt lat="49.61822" lon="-1.47174">
        <ele>70.910201</ele>
        <time>2022-07-30T11:35:18.000Z</time>
      </trkpt>
      <trkpt lat="49.6183" lon="-1.47171">
        <ele>70.638822</ele>
        <time>2022-07-30T11:35:19.000Z</time>
      </trkpt>
      <trkpt lat="49.61838" lon="-1.47167">
        <ele>70.365644</ele>
        <time>2022-07-30T11:35:20.000Z</time>
      </trkpt>
      <trkpt lat="49.61845" lon="-1.47163">
        <ele>70.102187</ele>
        <time>2022-07-30T11:35:21.000Z</time>
      </trkpt>
      <trkpt lat="49.61853" lon="-1.47158">
        <ele>69.844127</ele>
        <time>2022-07-30T11:35:22.000Z</time>
      </trkpt>
      <trkpt lat="49.6186" lon="-1.47154">
        <ele>69.599263</ele>
        <time>2022-07-30T11:35:23.000Z</time>
      </trkpt>
      <trkpt lat="49.61866" lon="-1.47149">
        <ele>69.455831</ele>
        <time>2022-07-30T11:35:24.000Z</time>
      </trkpt>
      <trkpt lat="49.61872" lon="-1.47145">
        <ele>69.317604</ele>
        <time>2022-07-30T11:35:25.000Z</time>
      </trkpt>
      <trkpt lat="49.61877" lon="-1.47141">
        <ele>69.196477</ele>
        <time>2022-07-30T11:35:26.000Z</time>
      </trkpt>
      <trkpt lat="49.61882" lon="-1.47137">
        <ele>69.072183</ele>
        <time>2022-07-30T11:35:27.000Z</time>
      </trkpt>
      <trkpt lat="49.61887" lon="-1.47132">
        <ele>68.939684</ele>
        <time>2022-07-30T11:35:28.000Z</time>
      </trkpt>
      <trkpt lat="49.61892" lon="-1.47128">
        <ele>68.819566</ele>
        <time>2022-07-30T11:35:29.000Z</time>
      </trkpt>
      <trkpt lat="49.61897" lon="-1.47123">
        <ele>68.689592</ele>
        <time>2022-07-30T11:35:30.000Z</time>
      </trkpt>
      <trkpt lat="49.61903" lon="-1.47117">
        <ele>68.551973</ele>
        <time>2022-07-30T11:35:31.000Z</time>
      </trkpt>
      <trkpt lat="49.61908" lon="-1.47112">
        <ele>68.420472</ele>
        <time>2022-07-30T11:35:32.000Z</time>
      </trkpt>
      <trkpt lat="49.61913" lon="-1.47106">
        <ele>68.278002</ele>
        <time>2022-07-30T11:35:33.000Z</time>
      </trkpt>
      <trkpt lat="49.61918" lon="-1.471">
        <ele>68.146182</ele>
        <time>2022-07-30T11:35:34.000Z</time>
      </trkpt>
      <trkpt lat="49.61923" lon="-1.47093">
        <ele>67.998355</ele>
        <time>2022-07-30T11:35:35.000Z</time>
      </trkpt>
      <trkpt lat="49.61927" lon="-1.47085">
        <ele>67.868593</ele>
        <time>2022-07-30T11:35:36.000Z</time>
      </trkpt>
      <trkpt lat="49.6193" lon="-1.47077">
        <ele>67.734829</ele>
        <time>2022-07-30T11:35:37.000Z</time>
      </trkpt>
      <trkpt lat="49.61933" lon="-1.47069">
        <ele>67.5962</ele>
        <time>2022-07-30T11:35:38.000Z</time>
      </trkpt>
      <trkpt lat="49.61936" lon="-1.4706">
        <ele>67.459391</ele>
        <time>2022-07-30T11:35:39.000Z</time>
      </trkpt>
      <trkpt lat="49.61939" lon="-1.47051">
        <ele>67.320307</ele>
        <time>2022-07-30T11:35:40.000Z</time>
      </trkpt>
      <trkpt lat="49.61941" lon="-1.47042">
        <ele>67.188426</ele>
        <time>2022-07-30T11:35:41.000Z</time>
      </trkpt>
      <trkpt lat="49.61944" lon="-1.47033">
        <ele>67.054363</ele>
        <time>2022-07-30T11:35:42.000Z</time>
      </trkpt>
      <trkpt lat="49.61946" lon="-1.47024">
        <ele>66.914841</ele>
        <time>2022-07-30T11:35:43.000Z</time>
      </trkpt>
      <trkpt lat="49.61949" lon="-1.47015">
        <ele>66.787198</ele>
        <time>2022-07-30T11:35:44.000Z</time>
      </trkpt>
      <trkpt lat="49.61951" lon="-1.47006">
        <ele>66.656494</ele>
        <time>2022-07-30T11:35:45.000Z</time>
      </trkpt>
      <trkpt lat="49.61953" lon="-1.46997">
        <ele>66.523719</ele>
        <time>2022-07-30T11:35:46.000Z</time>
      </trkpt>
      <trkpt lat="49.61955" lon="-1.46989">
        <ele>66.403724</ele>
        <time>2022-07-30T11:35:47.000Z</time>
      </trkpt>
      <trkpt lat="49.61957" lon="-1.46982">
        <ele>66.292135</ele>
        <time>2022-07-30T11:35:48.000Z</time>
      </trkpt>
      <trkpt lat="49.61958" lon="-1.46974">
        <ele>66.180547</ele>
        <time>2022-07-30T11:35:49.000Z</time>
      </trkpt>
      <trkpt lat="49.6196" lon="-1.46966">
        <ele>66.065076</ele>
        <time>2022-07-30T11:35:50.000Z</time>
      </trkpt>
      <trkpt lat="49.61962" lon="-1.46959">
        <ele>65.950902</ele>
        <time>2022-07-30T11:35:51.000Z</time>
      </trkpt>
      <trkpt lat="49.61964" lon="-1.46951">
        <ele>65.845996</ele>
        <time>2022-07-30T11:35:52.000Z</time>
      </trkpt>
      <trkpt lat="49.61965" lon="-1.46944">
        <ele>65.76249</ele>
        <time>2022-07-30T11:35:53.000Z</time>
      </trkpt>
      <trkpt lat="49.61967" lon="-1.46937">
        <ele>65.774067</ele>
        <time>2022-07-30T11:35:54.000Z</time>
      </trkpt>
      <trkpt lat="49.61968" lon="-1.4693">
        <ele>65.785581</ele>
        <time>2022-07-30T11:35:55.000Z</time>
      </trkpt>
      <trkpt lat="49.61969" lon="-1.46923">
        <ele>65.79678</ele>
        <time>2022-07-30T11:35:56.000Z</time>
      </trkpt>
      <trkpt lat="49.61971" lon="-1.46916">
        <ele>65.807417</ele>
        <time>2022-07-30T11:35:57.000Z</time>
      </trkpt>
      <trkpt lat="49.61971" lon="-1.46909">
        <ele>65.817855</ele>
        <time>2022-07-30T11:35:58.000Z</time>
      </trkpt>
      <trkpt lat="49.61972" lon="-1.46903">
        <ele>65.82772</ele>
        <time>2022-07-30T11:35:59.000Z</time>
      </trkpt>
      <trkpt lat="49.61973" lon="-1.46897">
        <ele>65.836803</ele>
        <time>2022-07-30T11:36:00.000Z</time>
      </trkpt>
      <trkpt lat="49.61974" lon="-1.4689">
        <ele>65.847149</ele>
        <time>2022-07-30T11:36:01.000Z</time>
      </trkpt>
      <trkpt lat="49.61975" lon="-1.46883">
        <ele>65.857888</ele>
        <time>2022-07-30T11:36:02.000Z</time>
      </trkpt>
      <trkpt lat="49.61975" lon="-1.46877">
        <ele>65.867909</ele>
        <time>2022-07-30T11:36:03.000Z</time>
      </trkpt>
      <trkpt lat="49.61976" lon="-1.4687">
        <ele>65.878018</ele>
        <time>2022-07-30T11:36:04.000Z</time>
      </trkpt>
      <trkpt lat="49.61977" lon="-1.46864">
        <ele>65.887883</ele>
        <time>2022-07-30T11:36:05.000Z</time>
      </trkpt>
      <trkpt lat="49.61979" lon="-1.46858">
        <ele>65.89747</ele>
        <time>2022-07-30T11:36:06.000Z</time>
      </trkpt>
      <trkpt lat="49.61981" lon="-1.46853">
        <ele>65.90722</ele>
        <time>2022-07-30T11:36:07.000Z</time>
      </trkpt>
      <trkpt lat="49.61982" lon="-1.46847">
        <ele>65.916667</ele>
        <time>2022-07-30T11:36:08.000Z</time>
      </trkpt>
      <trkpt lat="49.61984" lon="-1.46842">
        <ele>65.92556</ele>
        <time>2022-07-30T11:36:09.000Z</time>
      </trkpt>
      <trkpt lat="49.61985" lon="-1.46836">
        <ele>65.934464</ele>
        <time>2022-07-30T11:36:10.000Z</time>
      </trkpt>
      <trkpt lat="49.61987" lon="-1.46831">
        <ele>65.943634</ele>
        <time>2022-07-30T11:36:11.000Z</time>
      </trkpt>
      <trkpt lat="49.61989" lon="-1.46825">
        <ele>65.952713</ele>
        <time>2022-07-30T11:36:12.000Z</time>
      </trkpt>
      <trkpt lat="49.6199" lon="-1.4682">
        <ele>65.961883</ele>
        <time>2022-07-30T11:36:13.000Z</time>
      </trkpt>
      <trkpt lat="49.61993" lon="-1.46815">
        <ele>65.971456</ele>
        <time>2022-07-30T11:36:14.000Z</time>
      </trkpt>
      <trkpt lat="49.61994" lon="-1.46809">
        <ele>65.980349</ele>
        <time>2022-07-30T11:36:15.000Z</time>
      </trkpt>
      <trkpt lat="49.61996" lon="-1.46804">
        <ele>65.989104</ele>
        <time>2022-07-30T11:36:16.000Z</time>
      </trkpt>
      <trkpt lat="49.61998" lon="-1.46799">
        <ele>65.997784</ele>
        <time>2022-07-30T11:36:17.000Z</time>
      </trkpt>
      <trkpt lat="49.61999" lon="-1.46794">
        <ele>66.006179</ele>
        <time>2022-07-30T11:36:18.000Z</time>
      </trkpt>
      <trkpt lat="49.62001" lon="-1.46789">
        <ele>66.015137</ele>
        <time>2022-07-30T11:36:19.000Z</time>
      </trkpt>
      <trkpt lat="49.62003" lon="-1.46785">
        <ele>66.023053</ele>
        <time>2022-07-30T11:36:20.000Z</time>
      </trkpt>
      <trkpt lat="49.62006" lon="-1.46781">
        <ele>66.032223</ele>
        <time>2022-07-30T11:36:21.000Z</time>
      </trkpt>
      <trkpt lat="49.62008" lon="-1.46776">
        <ele>66.040014</ele>
        <time>2022-07-30T11:36:22.000Z</time>
      </trkpt>
      <trkpt lat="49.62009" lon="-1.46772">
        <ele>66.046956</ele>
        <time>2022-07-30T11:36:23.000Z</time>
      </trkpt>
      <trkpt lat="49.62011" lon="-1.46768">
        <ele>66.054937</ele>
        <time>2022-07-30T11:36:24.000Z</time>
      </trkpt>
      <trkpt lat="49.62014" lon="-1.46764">
        <ele>66.063994</ele>
        <time>2022-07-30T11:36:25.000Z</time>
      </trkpt>
      <trkpt lat="49.62016" lon="-1.4676">
        <ele>66.071294</ele>
        <time>2022-07-30T11:36:26.000Z</time>
      </trkpt>
      <trkpt lat="49.62018" lon="-1.46757">
        <ele>66.078239</ele>
        <time>2022-07-30T11:36:27.000Z</time>
      </trkpt>
      <trkpt lat="49.62019" lon="-1.46753">
        <ele>66.084508</ele>
        <time>2022-07-30T11:36:28.000Z</time>
      </trkpt>
      <trkpt lat="49.62022" lon="-1.4675">
        <ele>66.092606</ele>
        <time>2022-07-30T11:36:29.000Z</time>
      </trkpt>
      <trkpt lat="49.62024" lon="-1.46746">
        <ele>66.100737</ele>
        <time>2022-07-30T11:36:30.000Z</time>
      </trkpt>
      <trkpt lat="49.62027" lon="-1.46742">
        <ele>66.10957</ele>
        <time>2022-07-30T11:36:31.000Z</time>
      </trkpt>
      <trkpt lat="49.6203" lon="-1.46739">
        <ele>66.118212</ele>
        <time>2022-07-30T11:36:32.000Z</time>
      </trkpt>
      <trkpt lat="49.62034" lon="-1.46735">
        <ele>66.128257</ele>
        <time>2022-07-30T11:36:33.000Z</time>
      </trkpt>
      <trkpt lat="49.62036" lon="-1.46731">
        <ele>66.137202</ele>
        <time>2022-07-30T11:36:34.000Z</time>
      </trkpt>
      <trkpt lat="49.62039" lon="-1.46727">
        <ele>66.145126</ele>
        <time>2022-07-30T11:36:35.000Z</time>
      </trkpt>
      <trkpt lat="49.62042" lon="-1.46724">
        <ele>66.153958</ele>
        <time>2022-07-30T11:36:36.000Z</time>
      </trkpt>
      <trkpt lat="49.62044" lon="-1.4672">
        <ele>66.16226</ele>
        <time>2022-07-30T11:36:37.000Z</time>
      </trkpt>
      <trkpt lat="49.62046" lon="-1.46716">
        <ele>66.169677</ele>
        <time>2022-07-30T11:36:38.000Z</time>
      </trkpt>
      <trkpt lat="49.62049" lon="-1.46712">
        <ele>66.178961</ele>
        <time>2022-07-30T11:36:39.000Z</time>
      </trkpt>
      <trkpt lat="49.62052" lon="-1.46707">
        <ele>66.209057</ele>
        <time>2022-07-30T11:36:40.000Z</time>
      </trkpt>
      <trkpt lat="49.62055" lon="-1.46702">
        <ele>66.248314</ele>
        <time>2022-07-30T11:36:41.000Z</time>
      </trkpt>
      <trkpt lat="49.62058" lon="-1.46697">
        <ele>66.288727</ele>
        <time>2022-07-30T11:36:42.000Z</time>
      </trkpt>
      <trkpt lat="49.62061" lon="-1.46693">
        <ele>66.32565</ele>
        <time>2022-07-30T11:36:43.000Z</time>
      </trkpt>
      <trkpt lat="49.62063" lon="-1.46688">
        <ele>66.363213</ele>
        <time>2022-07-30T11:36:44.000Z</time>
      </trkpt>
      <trkpt lat="49.62066" lon="-1.46682">
        <ele>66.406103</ele>
        <time>2022-07-30T11:36:45.000Z</time>
      </trkpt>
      <trkpt lat="49.62068" lon="-1.46676">
        <ele>66.448762</ele>
        <time>2022-07-30T11:36:46.000Z</time>
      </trkpt>
      <trkpt lat="49.6207" lon="-1.4667">
        <ele>66.491341</ele>
        <time>2022-07-30T11:36:47.000Z</time>
      </trkpt>
      <trkpt lat="49.62072" lon="-1.46663">
        <ele>66.535023</ele>
        <time>2022-07-30T11:36:48.000Z</time>
      </trkpt>
      <trkpt lat="49.62074" lon="-1.46657">
        <ele>66.578211</ele>
        <time>2022-07-30T11:36:49.000Z</time>
      </trkpt>
      <trkpt lat="49.62075" lon="-1.4665">
        <ele>66.620267</ele>
        <time>2022-07-30T11:36:50.000Z</time>
      </trkpt>
      <trkpt lat="49.62076" lon="-1.46643">
        <ele>66.661851</ele>
        <time>2022-07-30T11:36:51.000Z</time>
      </trkpt>
      <trkpt lat="49.62077" lon="-1.46637">
        <ele>66.703311</ele>
        <time>2022-07-30T11:36:52.000Z</time>
      </trkpt>
      <trkpt lat="49.62078" lon="-1.4663">
        <ele>66.746075</ele>
        <time>2022-07-30T11:36:53.000Z</time>
      </trkpt>
      <trkpt lat="49.62079" lon="-1.46623">
        <ele>66.787071</ele>
        <time>2022-07-30T11:36:54.000Z</time>
      </trkpt>
      <trkpt lat="49.6208" lon="-1.46616">
        <ele>66.829177</ele>
        <time>2022-07-30T11:36:55.000Z</time>
      </trkpt>
      <trkpt lat="49.6208" lon="-1.46609">
        <ele>66.871607</ele>
        <time>2022-07-30T11:36:56.000Z</time>
      </trkpt>
      <trkpt lat="49.62081" lon="-1.46603">
        <ele>66.911623</ele>
        <time>2022-07-30T11:36:57.000Z</time>
      </trkpt>
      <trkpt lat="49.6208" lon="-1.46596">
        <ele>66.950433</ele>
        <time>2022-07-30T11:36:58.000Z</time>
      </trkpt>
      <trkpt lat="49.6208" lon="-1.4659">
        <ele>66.989846</ele>
        <time>2022-07-30T11:36:59.000Z</time>
      </trkpt>
      <trkpt lat="49.6208" lon="-1.46584">
        <ele>67.026846</ele>
        <time>2022-07-30T11:37:00.000Z</time>
      </trkpt>
      <trkpt lat="49.62079" lon="-1.46578">
        <ele>67.064317</ele>
        <time>2022-07-30T11:37:01.000Z</time>
      </trkpt>
      <trkpt lat="49.62078" lon="-1.46572">
        <ele>67.100714</ele>
        <time>2022-07-30T11:37:02.000Z</time>
      </trkpt>
      <trkpt lat="49.62078" lon="-1.46566">
        <ele>67.133494</ele>
        <time>2022-07-30T11:37:03.000Z</time>
      </trkpt>
      <trkpt lat="49.62077" lon="-1.46561">
        <ele>67.165024</ele>
        <time>2022-07-30T11:37:04.000Z</time>
      </trkpt>
      <trkpt lat="49.62076" lon="-1.46556">
        <ele>67.199552</ele>
        <time>2022-07-30T11:37:05.000Z</time>
      </trkpt>
      <trkpt lat="49.62076" lon="-1.46551">
        <ele>67.231825</ele>
        <time>2022-07-30T11:37:06.000Z</time>
      </trkpt>
      <trkpt lat="49.62076" lon="-1.46545">
        <ele>67.2634</ele>
        <time>2022-07-30T11:37:07.000Z</time>
      </trkpt>
      <trkpt lat="49.62076" lon="-1.4654">
        <ele>67.29377</ele>
        <time>2022-07-30T11:37:08.000Z</time>
      </trkpt>
      <trkpt lat="49.62076" lon="-1.46535">
        <ele>67.324841</ele>
        <time>2022-07-30T11:37:09.000Z</time>
      </trkpt>
      <trkpt lat="49.62076" lon="-1.4653">
        <ele>67.359316</ele>
        <time>2022-07-30T11:37:10.000Z</time>
      </trkpt>
      <trkpt lat="49.62076" lon="-1.46524">
        <ele>67.392581</ele>
        <time>2022-07-30T11:37:11.000Z</time>
      </trkpt>
      <trkpt lat="49.62076" lon="-1.46519">
        <ele>67.425846</ele>
        <time>2022-07-30T11:37:12.000Z</time>
      </trkpt>
      <trkpt lat="49.62076" lon="-1.46513">
        <ele>67.457517</ele>
        <time>2022-07-30T11:37:13.000Z</time>
      </trkpt>
      <trkpt lat="49.62076" lon="-1.46508">
        <ele>67.488363</ele>
        <time>2022-07-30T11:37:14.000Z</time>
      </trkpt>
      <trkpt lat="49.62075" lon="-1.46503">
        <ele>67.520046</ele>
        <time>2022-07-30T11:37:15.000Z</time>
      </trkpt>
      <trkpt lat="49.62074" lon="-1.46499">
        <ele>67.549392</ele>
        <time>2022-07-30T11:37:16.000Z</time>
      </trkpt>
      <trkpt lat="49.62072" lon="-1.46494">
        <ele>67.583104</ele>
        <time>2022-07-30T11:37:17.000Z</time>
      </trkpt>
      <trkpt lat="49.62071" lon="-1.46489">
        <ele>67.61449</ele>
        <time>2022-07-30T11:37:18.000Z</time>
      </trkpt>
      <trkpt lat="49.6207" lon="-1.46483">
        <ele>67.6499</ele>
        <time>2022-07-30T11:37:19.000Z</time>
      </trkpt>
      <trkpt lat="49.62069" lon="-1.46478">
        <ele>67.683629</ele>
        <time>2022-07-30T11:37:20.000Z</time>
      </trkpt>
      <trkpt lat="49.62067" lon="-1.46474">
        <ele>67.716116</ele>
        <time>2022-07-30T11:37:21.000Z</time>
      </trkpt>
      <trkpt lat="49.62065" lon="-1.46469">
        <ele>67.747643</ele>
        <time>2022-07-30T11:37:22.000Z</time>
      </trkpt>
      <trkpt lat="49.62063" lon="-1.46465">
        <ele>67.78013</ele>
        <time>2022-07-30T11:37:23.000Z</time>
      </trkpt>
      <trkpt lat="49.62062" lon="-1.46461">
        <ele>67.802905</ele>
        <time>2022-07-30T11:37:24.000Z</time>
      </trkpt>
      <trkpt lat="49.62061" lon="-1.46457">
        <ele>67.830513</ele>
        <time>2022-07-30T11:37:25.000Z</time>
      </trkpt>
      <trkpt lat="49.6206" lon="-1.46452">
        <ele>67.864575</ele>
        <time>2022-07-30T11:37:26.000Z</time>
      </trkpt>
      <trkpt lat="49.62059" lon="-1.46447">
        <ele>67.918365</ele>
        <time>2022-07-30T11:37:27.000Z</time>
      </trkpt>
      <trkpt lat="49.62057" lon="-1.46443">
        <ele>67.970896</ele>
        <time>2022-07-30T11:37:28.000Z</time>
      </trkpt>
      <trkpt lat="49.62055" lon="-1.46439">
        <ele>68.029168</ele>
        <time>2022-07-30T11:37:29.000Z</time>
      </trkpt>
      <trkpt lat="49.62053" lon="-1.46435">
        <ele>68.084623</ele>
        <time>2022-07-30T11:37:30.000Z</time>
      </trkpt>
      <trkpt lat="49.62052" lon="-1.4643">
        <ele>68.143574</ele>
        <time>2022-07-30T11:37:31.000Z</time>
      </trkpt>
      <trkpt lat="49.6205" lon="-1.46425">
        <ele>68.204377</ele>
        <time>2022-07-30T11:37:32.000Z</time>
      </trkpt>
      <trkpt lat="49.62048" lon="-1.4642">
        <ele>68.266568</ele>
        <time>2022-07-30T11:37:33.000Z</time>
      </trkpt>
      <trkpt lat="49.62046" lon="-1.46415">
        <ele>68.332091</ele>
        <time>2022-07-30T11:37:34.000Z</time>
      </trkpt>
      <trkpt lat="49.62045" lon="-1.46409">
        <ele>68.400269</ele>
        <time>2022-07-30T11:37:35.000Z</time>
      </trkpt>
      <trkpt lat="49.62043" lon="-1.46404">
        <ele>68.469456</ele>
        <time>2022-07-30T11:37:36.000Z</time>
      </trkpt>
      <trkpt lat="49.62041" lon="-1.46398">
        <ele>68.540788</ele>
        <time>2022-07-30T11:37:37.000Z</time>
      </trkpt>
      <trkpt lat="49.62039" lon="-1.46392">
        <ele>68.611933</ele>
        <time>2022-07-30T11:37:38.000Z</time>
      </trkpt>
      <trkpt lat="49.62037" lon="-1.46387">
        <ele>68.682876</ele>
        <time>2022-07-30T11:37:39.000Z</time>
      </trkpt>
      <trkpt lat="49.62035" lon="-1.46381">
        <ele>68.753818</ele>
        <time>2022-07-30T11:37:40.000Z</time>
      </trkpt>
      <trkpt lat="49.62032" lon="-1.46375">
        <ele>68.833043</ele>
        <time>2022-07-30T11:37:41.000Z</time>
      </trkpt>
      <trkpt lat="49.62029" lon="-1.46369">
        <ele>68.917864</ele>
        <time>2022-07-30T11:37:42.000Z</time>
      </trkpt>
      <trkpt lat="49.62026" lon="-1.46363">
        <ele>69.001792</ele>
        <time>2022-07-30T11:37:43.000Z</time>
      </trkpt>
      <trkpt lat="49.62024" lon="-1.46357">
        <ele>69.078251</ele>
        <time>2022-07-30T11:37:44.000Z</time>
      </trkpt>
      <trkpt lat="49.62021" lon="-1.46351">
        <ele>69.156081</ele>
        <time>2022-07-30T11:37:45.000Z</time>
      </trkpt>
      <trkpt lat="49.62019" lon="-1.46346">
        <ele>69.224491</ele>
        <time>2022-07-30T11:37:46.000Z</time>
      </trkpt>
      <trkpt lat="49.62017" lon="-1.4634">
        <ele>69.298192</ele>
        <time>2022-07-30T11:37:47.000Z</time>
      </trkpt>
      <trkpt lat="49.62015" lon="-1.46335">
        <ele>69.366602</ele>
        <time>2022-07-30T11:37:48.000Z</time>
      </trkpt>
      <trkpt lat="49.62013" lon="-1.46329">
        <ele>69.436956</ele>
        <time>2022-07-30T11:37:49.000Z</time>
      </trkpt>
      <trkpt lat="49.62011" lon="-1.46323">
        <ele>69.503126</ele>
        <time>2022-07-30T11:37:50.000Z</time>
      </trkpt>
      <trkpt lat="49.6201" lon="-1.46318">
        <ele>69.563712</ele>
        <time>2022-07-30T11:37:51.000Z</time>
      </trkpt>
      <trkpt lat="49.62009" lon="-1.46312">
        <ele>69.6329</ele>
        <time>2022-07-30T11:37:52.000Z</time>
      </trkpt>
      <trkpt lat="49.62008" lon="-1.46306">
        <ele>69.699425</ele>
        <time>2022-07-30T11:37:53.000Z</time>
      </trkpt>
      <trkpt lat="49.62007" lon="-1.463">
        <ele>69.767421</ele>
        <time>2022-07-30T11:37:54.000Z</time>
      </trkpt>
      <trkpt lat="49.62006" lon="-1.46294">
        <ele>69.839481</ele>
        <time>2022-07-30T11:37:55.000Z</time>
      </trkpt>
      <trkpt lat="49.62005" lon="-1.46288">
        <ele>69.910671</ele>
        <time>2022-07-30T11:37:56.000Z</time>
      </trkpt>
      <trkpt lat="49.62005" lon="-1.46282">
        <ele>69.977303</ele>
        <time>2022-07-30T11:37:57.000Z</time>
      </trkpt>
      <trkpt lat="49.62004" lon="-1.46276">
        <ele>70.04335</ele>
        <time>2022-07-30T11:37:58.000Z</time>
      </trkpt>
      <trkpt lat="49.62003" lon="-1.46269">
        <ele>70.113474</ele>
        <time>2022-07-30T11:37:59.000Z</time>
      </trkpt>
      <trkpt lat="49.62003" lon="-1.46264">
        <ele>70.177334</ele>
        <time>2022-07-30T11:38:00.000Z</time>
      </trkpt>
      <trkpt lat="49.62003" lon="-1.46258">
        <ele>70.241193</ele>
        <time>2022-07-30T11:38:01.000Z</time>
      </trkpt>
      <trkpt lat="49.62002" lon="-1.46252">
        <ele>70.306301</ele>
        <time>2022-07-30T11:38:02.000Z</time>
      </trkpt>
      <trkpt lat="49.62002" lon="-1.46246">
        <ele>70.373443</ele>
        <time>2022-07-30T11:38:03.000Z</time>
      </trkpt>
      <trkpt lat="49.62002" lon="-1.4624">
        <ele>70.44149</ele>
        <time>2022-07-30T11:38:04.000Z</time>
      </trkpt>
      <trkpt lat="49.62001" lon="-1.46233">
        <ele>70.510293</ele>
        <time>2022-07-30T11:38:05.000Z</time>
      </trkpt>
      <trkpt lat="49.62001" lon="-1.46227">
        <ele>70.577435</ele>
        <time>2022-07-30T11:38:06.000Z</time>
      </trkpt>
      <trkpt lat="49.62001" lon="-1.46221">
        <ele>70.643287</ele>
        <time>2022-07-30T11:38:07.000Z</time>
      </trkpt>
      <trkpt lat="49.62001" lon="-1.46215">
        <ele>70.709139</ele>
        <time>2022-07-30T11:38:08.000Z</time>
      </trkpt>
      <trkpt lat="49.62001" lon="-1.46209">
        <ele>70.774247</ele>
        <time>2022-07-30T11:38:09.000Z</time>
      </trkpt>
      <trkpt lat="49.62" lon="-1.46204">
        <ele>70.834825</ele>
        <time>2022-07-30T11:38:10.000Z</time>
      </trkpt>
      <trkpt lat="49.62" lon="-1.46198">
        <ele>70.895402</ele>
        <time>2022-07-30T11:38:11.000Z</time>
      </trkpt>
      <trkpt lat="49.62" lon="-1.46193">
        <ele>70.921957</ele>
        <time>2022-07-30T11:38:12.000Z</time>
      </trkpt>
      <trkpt lat="49.62" lon="-1.46187">
        <ele>70.938416</ele>
        <time>2022-07-30T11:38:13.000Z</time>
      </trkpt>
      <trkpt lat="49.62" lon="-1.46182">
        <ele>70.954575</ele>
        <time>2022-07-30T11:38:14.000Z</time>
      </trkpt>
      <trkpt lat="49.61999" lon="-1.46176">
        <ele>70.971266</ele>
        <time>2022-07-30T11:38:15.000Z</time>
      </trkpt>
      <trkpt lat="49.61999" lon="-1.46171">
        <ele>70.987126</ele>
        <time>2022-07-30T11:38:16.000Z</time>
      </trkpt>
      <trkpt lat="49.61999" lon="-1.46166">
        <ele>71.002687</ele>
        <time>2022-07-30T11:38:17.000Z</time>
      </trkpt>
      <trkpt lat="49.61999" lon="-1.46161">
        <ele>71.01806</ele>
        <time>2022-07-30T11:38:18.000Z</time>
      </trkpt>
      <trkpt lat="49.61999" lon="-1.46156">
        <ele>71.033621</ele>
        <time>2022-07-30T11:38:19.000Z</time>
      </trkpt>
      <trkpt lat="49.61999" lon="-1.4615">
        <ele>71.049243</ele>
        <time>2022-07-30T11:38:20.000Z</time>
      </trkpt>
      <trkpt lat="49.61998" lon="-1.46146">
        <ele>71.063674</ele>
        <time>2022-07-30T11:38:21.000Z</time>
      </trkpt>
      <trkpt lat="49.61998" lon="-1.46141">
        <ele>71.078038</ele>
        <time>2022-07-30T11:38:22.000Z</time>
      </trkpt>
      <trkpt lat="49.61998" lon="-1.46136">
        <ele>71.09366</ele>
        <time>2022-07-30T11:38:23.000Z</time>
      </trkpt>
      <trkpt lat="49.61998" lon="-1.46131">
        <ele>71.108623</ele>
        <time>2022-07-30T11:38:24.000Z</time>
      </trkpt>
      <trkpt lat="49.61998" lon="-1.46126">
        <ele>71.123053</ele>
        <time>2022-07-30T11:38:25.000Z</time>
      </trkpt>
      <trkpt lat="49.61997" lon="-1.46121">
        <ele>71.138361</ele>
        <time>2022-07-30T11:38:26.000Z</time>
      </trkpt>
      <trkpt lat="49.61997" lon="-1.46116">
        <ele>71.153089</ele>
        <time>2022-07-30T11:38:27.000Z</time>
      </trkpt>
      <trkpt lat="49.61997" lon="-1.46111">
        <ele>71.167453</ele>
        <time>2022-07-30T11:38:28.000Z</time>
      </trkpt>
      <trkpt lat="49.61997" lon="-1.46106">
        <ele>71.181518</ele>
        <time>2022-07-30T11:38:29.000Z</time>
      </trkpt>
      <trkpt lat="49.61997" lon="-1.46102">
        <ele>71.195283</ele>
        <time>2022-07-30T11:38:30.000Z</time>
      </trkpt>
      <trkpt lat="49.61997" lon="-1.46097">
        <ele>71.210012</ele>
        <time>2022-07-30T11:38:31.000Z</time>
      </trkpt>
      <trkpt lat="49.61997" lon="-1.46092">
        <ele>71.223777</ele>
        <time>2022-07-30T11:38:32.000Z</time>
      </trkpt>
      <trkpt lat="49.61997" lon="-1.46088">
        <ele>71.236944</ele>
        <time>2022-07-30T11:38:33.000Z</time>
      </trkpt>
      <trkpt lat="49.61997" lon="-1.46083">
        <ele>71.250411</ele>
        <time>2022-07-30T11:38:34.000Z</time>
      </trkpt>
      <trkpt lat="49.61996" lon="-1.46079">
        <ele>71.263353</ele>
        <time>2022-07-30T11:38:35.000Z</time>
      </trkpt>
      <trkpt lat="49.61996" lon="-1.46075">
        <ele>71.27622</ele>
        <time>2022-07-30T11:38:36.000Z</time>
      </trkpt>
      <trkpt lat="49.61996" lon="-1.4607">
        <ele>71.290406</ele>
        <time>2022-07-30T11:38:37.000Z</time>
      </trkpt>
      <trkpt lat="49.61996" lon="-1.46065">
        <ele>71.304591</ele>
        <time>2022-07-30T11:38:38.000Z</time>
      </trkpt>
      <trkpt lat="49.61996" lon="-1.46061">
        <ele>71.31848</ele>
        <time>2022-07-30T11:38:39.000Z</time>
      </trkpt>
      <trkpt lat="49.61996" lon="-1.46056">
        <ele>71.331647</ele>
        <time>2022-07-30T11:38:40.000Z</time>
      </trkpt>
      <trkpt lat="49.61995" lon="-1.46052">
        <ele>71.345689</ele>
        <time>2022-07-30T11:38:41.000Z</time>
      </trkpt>
      <trkpt lat="49.61995" lon="-1.46047">
        <ele>71.359822</ele>
        <time>2022-07-30T11:38:42.000Z</time>
      </trkpt>
      <trkpt lat="49.61994" lon="-1.46043">
        <ele>71.373671</ele>
        <time>2022-07-30T11:38:43.000Z</time>
      </trkpt>
      <trkpt lat="49.61994" lon="-1.46038">
        <ele>71.387208</ele>
        <time>2022-07-30T11:38:44.000Z</time>
      </trkpt>
      <trkpt lat="49.61993" lon="-1.46032">
        <ele>71.404764</ele>
        <time>2022-07-30T11:38:45.000Z</time>
      </trkpt>
      <trkpt lat="49.61993" lon="-1.46028">
        <ele>71.418302</ele>
        <time>2022-07-30T11:38:46.000Z</time>
      </trkpt>
      <trkpt lat="49.61993" lon="-1.46023">
        <ele>71.432067</ele>
        <time>2022-07-30T11:38:47.000Z</time>
      </trkpt>
      <trkpt lat="49.61993" lon="-1.46018">
        <ele>71.447093</ele>
        <time>2022-07-30T11:38:48.000Z</time>
      </trkpt>
      <trkpt lat="49.61993" lon="-1.46012">
        <ele>71.466245</ele>
        <time>2022-07-30T11:38:49.000Z</time>
      </trkpt>
      <trkpt lat="49.61992" lon="-1.46005">
        <ele>71.486259</ele>
        <time>2022-07-30T11:38:50.000Z</time>
      </trkpt>
      <trkpt lat="49.61991" lon="-1.45998">
        <ele>71.50805</ele>
        <time>2022-07-30T11:38:51.000Z</time>
      </trkpt>
      <trkpt lat="49.61989" lon="-1.4599">
        <ele>71.533105</ele>
        <time>2022-07-30T11:38:52.000Z</time>
      </trkpt>
      <trkpt lat="49.61989" lon="-1.45982">
        <ele>71.559469</ele>
        <time>2022-07-30T11:38:53.000Z</time>
      </trkpt>
      <trkpt lat="49.61987" lon="-1.45972">
        <ele>71.58865</ele>
        <time>2022-07-30T11:38:54.000Z</time>
      </trkpt>
      <trkpt lat="49.61985" lon="-1.45963">
        <ele>71.617123</ele>
        <time>2022-07-30T11:38:55.000Z</time>
      </trkpt>
      <trkpt lat="49.61981" lon="-1.45954">
        <ele>71.649165</ele>
        <time>2022-07-30T11:38:56.000Z</time>
      </trkpt>
      <trkpt lat="49.61979" lon="-1.45944">
        <ele>71.680943</ele>
        <time>2022-07-30T11:38:57.000Z</time>
      </trkpt>
      <trkpt lat="49.61975" lon="-1.45934">
        <ele>71.71536</ele>
        <time>2022-07-30T11:38:58.000Z</time>
      </trkpt>
      <trkpt lat="49.61971" lon="-1.45925">
        <ele>71.66245</ele>
        <time>2022-07-30T11:38:59.000Z</time>
      </trkpt>
      <trkpt lat="49.61966" lon="-1.45915">
        <ele>71.359251</ele>
        <time>2022-07-30T11:39:00.000Z</time>
      </trkpt>
      <trkpt lat="49.61962" lon="-1.45905">
        <ele>71.05638</ele>
        <time>2022-07-30T11:39:01.000Z</time>
      </trkpt>
      <trkpt lat="49.61957" lon="-1.45895">
        <ele>70.722868</ele>
        <time>2022-07-30T11:39:02.000Z</time>
      </trkpt>
      <trkpt lat="49.61952" lon="-1.45884">
        <ele>70.392113</ele>
        <time>2022-07-30T11:39:03.000Z</time>
      </trkpt>
      <trkpt lat="49.61947" lon="-1.45873">
        <ele>70.045407</ele>
        <time>2022-07-30T11:39:04.000Z</time>
      </trkpt>
      <trkpt lat="49.61941" lon="-1.45862">
        <ele>69.681013</ele>
        <time>2022-07-30T11:39:05.000Z</time>
      </trkpt>
      <trkpt lat="49.61936" lon="-1.4585">
        <ele>69.33121</ele>
        <time>2022-07-30T11:39:06.000Z</time>
      </trkpt>
      <trkpt lat="49.61931" lon="-1.45838">
        <ele>68.959893</ele>
        <time>2022-07-30T11:39:07.000Z</time>
      </trkpt>
      <trkpt lat="49.61926" lon="-1.45826">
        <ele>68.598686</ele>
        <time>2022-07-30T11:39:08.000Z</time>
      </trkpt>
      <trkpt lat="49.61923" lon="-1.45812">
        <ele>68.229145</ele>
        <time>2022-07-30T11:39:09.000Z</time>
      </trkpt>
      <trkpt lat="49.6192" lon="-1.45798">
        <ele>67.856575</ele>
        <time>2022-07-30T11:39:10.000Z</time>
      </trkpt>
      <trkpt lat="49.61919" lon="-1.45784">
        <ele>67.484559</ele>
        <time>2022-07-30T11:39:11.000Z</time>
      </trkpt>
      <trkpt lat="49.61918" lon="-1.45769">
        <ele>67.110231</ele>
        <time>2022-07-30T11:39:12.000Z</time>
      </trkpt>
      <trkpt lat="49.61917" lon="-1.45755">
        <ele>66.73642</ele>
        <time>2022-07-30T11:39:13.000Z</time>
      </trkpt>
      <trkpt lat="49.61915" lon="-1.4574">
        <ele>66.360454</ele>
        <time>2022-07-30T11:39:14.000Z</time>
      </trkpt>
      <trkpt lat="49.61912" lon="-1.45726">
        <ele>65.991751</ele>
        <time>2022-07-30T11:39:15.000Z</time>
      </trkpt>
      <trkpt lat="49.61909" lon="-1.45713">
        <ele>65.632704</ele>
        <time>2022-07-30T11:39:16.000Z</time>
      </trkpt>
      <trkpt lat="49.61906" lon="-1.457">
        <ele>65.279277</ele>
        <time>2022-07-30T11:39:17.000Z</time>
      </trkpt>
      <trkpt lat="49.61903" lon="-1.45688">
        <ele>64.951398</ele>
        <time>2022-07-30T11:39:18.000Z</time>
      </trkpt>
      <trkpt lat="49.619" lon="-1.45676">
        <ele>64.669851</ele>
        <time>2022-07-30T11:39:19.000Z</time>
      </trkpt>
      <trkpt lat="49.61898" lon="-1.45665">
        <ele>64.59359</ele>
        <time>2022-07-30T11:39:20.000Z</time>
      </trkpt>
      <trkpt lat="49.61895" lon="-1.45654">
        <ele>64.519735</ele>
        <time>2022-07-30T11:39:21.000Z</time>
      </trkpt>
      <trkpt lat="49.61892" lon="-1.45643">
        <ele>64.442724</ele>
        <time>2022-07-30T11:39:22.000Z</time>
      </trkpt>
      <trkpt lat="49.6189" lon="-1.45633">
        <ele>64.3705</ele>
        <time>2022-07-30T11:39:23.000Z</time>
      </trkpt>
      <trkpt lat="49.61888" lon="-1.45622">
        <ele>64.30009</ele>
        <time>2022-07-30T11:39:24.000Z</time>
      </trkpt>
      <trkpt lat="49.61886" lon="-1.45612">
        <ele>64.232184</ele>
        <time>2022-07-30T11:39:25.000Z</time>
      </trkpt>
      <trkpt lat="49.61885" lon="-1.45603">
        <ele>64.167539</ele>
        <time>2022-07-30T11:39:26.000Z</time>
      </trkpt>
      <trkpt lat="49.61884" lon="-1.45593">
        <ele>64.106181</ele>
        <time>2022-07-30T11:39:27.000Z</time>
      </trkpt>
      <trkpt lat="49.61882" lon="-1.45585">
        <ele>64.045739</ele>
        <time>2022-07-30T11:39:28.000Z</time>
      </trkpt>
      <trkpt lat="49.6188" lon="-1.45576">
        <ele>63.987304</ele>
        <time>2022-07-30T11:39:29.000Z</time>
      </trkpt>
      <trkpt lat="49.61877" lon="-1.45568">
        <ele>63.928984</ele>
        <time>2022-07-30T11:39:30.000Z</time>
      </trkpt>
      <trkpt lat="49.61874" lon="-1.45561">
        <ele>63.869374</ele>
        <time>2022-07-30T11:39:31.000Z</time>
      </trkpt>
      <trkpt lat="49.61871" lon="-1.45553">
        <ele>63.812479</ele>
        <time>2022-07-30T11:39:32.000Z</time>
      </trkpt>
      <trkpt lat="49.61868" lon="-1.45546">
        <ele>63.756654</ele>
        <time>2022-07-30T11:39:33.000Z</time>
      </trkpt>
      <trkpt lat="49.61864" lon="-1.4554">
        <ele>63.702938</ele>
        <time>2022-07-30T11:39:34.000Z</time>
      </trkpt>
      <trkpt lat="49.61862" lon="-1.45533">
        <ele>63.652557</ele>
        <time>2022-07-30T11:39:35.000Z</time>
      </trkpt>
      <trkpt lat="49.6186" lon="-1.45526">
        <ele>63.601413</ele>
        <time>2022-07-30T11:39:36.000Z</time>
      </trkpt>
      <trkpt lat="49.61858" lon="-1.45519">
        <ele>63.553158</ele>
        <time>2022-07-30T11:39:37.000Z</time>
      </trkpt>
      <trkpt lat="49.61856" lon="-1.45512">
        <ele>63.50129</ele>
        <time>2022-07-30T11:39:38.000Z</time>
      </trkpt>
      <trkpt lat="49.61854" lon="-1.45505">
        <ele>63.453213</ele>
        <time>2022-07-30T11:39:39.000Z</time>
      </trkpt>
      <trkpt lat="49.61853" lon="-1.45497">
        <ele>63.403252</ele>
        <time>2022-07-30T11:39:40.000Z</time>
      </trkpt>
      <trkpt lat="49.61853" lon="-1.4549">
        <ele>63.355589</ele>
        <time>2022-07-30T11:39:41.000Z</time>
      </trkpt>
      <trkpt lat="49.61852" lon="-1.45483">
        <ele>63.30888</ele>
        <time>2022-07-30T11:39:42.000Z</time>
      </trkpt>
      <trkpt lat="49.61851" lon="-1.45477">
        <ele>63.266097</ele>
        <time>2022-07-30T11:39:43.000Z</time>
      </trkpt>
      <trkpt lat="49.6185" lon="-1.4547">
        <ele>63.221295</ele>
        <time>2022-07-30T11:39:44.000Z</time>
      </trkpt>
      <trkpt lat="49.6185" lon="-1.45463">
        <ele>63.178513</ele>
        <time>2022-07-30T11:39:45.000Z</time>
      </trkpt>
      <trkpt lat="49.61849" lon="-1.45458">
        <ele>63.14024</ele>
        <time>2022-07-30T11:39:46.000Z</time>
      </trkpt>
      <trkpt lat="49.61848" lon="-1.45451">
        <ele>63.097777</ele>
        <time>2022-07-30T11:39:47.000Z</time>
      </trkpt>
      <trkpt lat="49.61847" lon="-1.45446">
        <ele>63.061811</ele>
        <time>2022-07-30T11:39:48.000Z</time>
      </trkpt>
      <trkpt lat="49.61846" lon="-1.45441">
        <ele>63.02584</ele>
        <time>2022-07-30T11:39:49.000Z</time>
      </trkpt>
      <trkpt lat="49.61846" lon="-1.45435">
        <ele>62.990781</ele>
        <time>2022-07-30T11:39:50.000Z</time>
      </trkpt>
      <trkpt lat="49.61845" lon="-1.4543">
        <ele>62.956174</ele>
        <time>2022-07-30T11:39:51.000Z</time>
      </trkpt>
      <trkpt lat="49.61844" lon="-1.45425">
        <ele>62.921101</ele>
        <time>2022-07-30T11:39:52.000Z</time>
      </trkpt>
      <trkpt lat="49.61844" lon="-1.4542">
        <ele>62.887768</ele>
        <time>2022-07-30T11:39:53.000Z</time>
      </trkpt>
      <trkpt lat="49.61842" lon="-1.45415">
        <ele>62.883901</ele>
        <time>2022-07-30T11:39:54.000Z</time>
      </trkpt>
      <trkpt lat="49.61841" lon="-1.45409">
        <ele>62.897927</ele>
        <time>2022-07-30T11:39:55.000Z</time>
      </trkpt>
      <trkpt lat="49.6184" lon="-1.45403">
        <ele>62.912148</ele>
        <time>2022-07-30T11:39:56.000Z</time>
      </trkpt>
      <trkpt lat="49.61839" lon="-1.45397">
        <ele>62.926662</ele>
        <time>2022-07-30T11:39:57.000Z</time>
      </trkpt>
      <trkpt lat="49.61838" lon="-1.45391">
        <ele>62.941786</ele>
        <time>2022-07-30T11:39:58.000Z</time>
      </trkpt>
      <trkpt lat="49.61838" lon="-1.45385">
        <ele>62.957127</ele>
        <time>2022-07-30T11:39:59.000Z</time>
      </trkpt>
      <trkpt lat="49.61837" lon="-1.45379">
        <ele>62.972408</ele>
        <time>2022-07-30T11:40:00.000Z</time>
      </trkpt>
      <trkpt lat="49.61836" lon="-1.45372">
        <ele>62.987987</ele>
        <time>2022-07-30T11:40:01.000Z</time>
      </trkpt>
      <trkpt lat="49.61835" lon="-1.45366">
        <ele>63.003227</ele>
        <time>2022-07-30T11:40:02.000Z</time>
      </trkpt>
      <trkpt lat="49.61834" lon="-1.4536">
        <ele>63.019199</ele>
        <time>2022-07-30T11:40:03.000Z</time>
      </trkpt>
      <trkpt lat="49.61833" lon="-1.45353">
        <ele>63.035369</ele>
        <time>2022-07-30T11:40:04.000Z</time>
      </trkpt>
      <trkpt lat="49.61832" lon="-1.45346">
        <ele>63.052318</ele>
        <time>2022-07-30T11:40:05.000Z</time>
      </trkpt>
      <trkpt lat="49.61831" lon="-1.4534">
        <ele>63.068542</ele>
        <time>2022-07-30T11:40:06.000Z</time>
      </trkpt>
      <trkpt lat="49.6183" lon="-1.45333">
        <ele>63.084433</ele>
        <time>2022-07-30T11:40:07.000Z</time>
      </trkpt>
      <trkpt lat="49.61829" lon="-1.45327">
        <ele>63.099939</ele>
        <time>2022-07-30T11:40:08.000Z</time>
      </trkpt>
      <trkpt lat="49.61828" lon="-1.4532">
        <ele>63.117118</ele>
        <time>2022-07-30T11:40:09.000Z</time>
      </trkpt>
      <trkpt lat="49.61826" lon="-1.45313">
        <ele>63.134414</ele>
        <time>2022-07-30T11:40:10.000Z</time>
      </trkpt>
      <trkpt lat="49.61825" lon="-1.45307">
        <ele>63.149837</ele>
        <time>2022-07-30T11:40:11.000Z</time>
      </trkpt>
      <trkpt lat="49.61824" lon="-1.453">
        <ele>63.16646</ele>
        <time>2022-07-30T11:40:12.000Z</time>
      </trkpt>
      <trkpt lat="49.61822" lon="-1.45294">
        <ele>63.182495</ele>
        <time>2022-07-30T11:40:13.000Z</time>
      </trkpt>
      <trkpt lat="49.61821" lon="-1.45287">
        <ele>63.198758</ele>
        <time>2022-07-30T11:40:14.000Z</time>
      </trkpt>
      <trkpt lat="49.6182" lon="-1.45281">
        <ele>63.215381</ele>
        <time>2022-07-30T11:40:15.000Z</time>
      </trkpt>
      <trkpt lat="49.61818" lon="-1.45274">
        <ele>63.231872</ele>
        <time>2022-07-30T11:40:16.000Z</time>
      </trkpt>
      <trkpt lat="49.61817" lon="-1.45268">
        <ele>63.247062</ele>
        <time>2022-07-30T11:40:17.000Z</time>
      </trkpt>
      <trkpt lat="49.61816" lon="-1.45262">
        <ele>63.263685</ele>
        <time>2022-07-30T11:40:18.000Z</time>
      </trkpt>
      <trkpt lat="49.61814" lon="-1.45255">
        <ele>63.279492</ele>
        <time>2022-07-30T11:40:19.000Z</time>
      </trkpt>
      <trkpt lat="49.61813" lon="-1.45249">
        <ele>63.295231</ele>
        <time>2022-07-30T11:40:20.000Z</time>
      </trkpt>
      <trkpt lat="49.61812" lon="-1.45242">
        <ele>63.311854</ele>
        <time>2022-07-30T11:40:21.000Z</time>
      </trkpt>
      <trkpt lat="49.6181" lon="-1.45236">
        <ele>63.327587</ele>
        <time>2022-07-30T11:40:22.000Z</time>
      </trkpt>
      <trkpt lat="49.61808" lon="-1.45231">
        <ele>63.342912</ele>
        <time>2022-07-30T11:40:23.000Z</time>
      </trkpt>
      <trkpt lat="49.61806" lon="-1.45225">
        <ele>63.358449</ele>
        <time>2022-07-30T11:40:24.000Z</time>
      </trkpt>
      <trkpt lat="49.61805" lon="-1.45219">
        <ele>63.372446</ele>
        <time>2022-07-30T11:40:25.000Z</time>
      </trkpt>
      <trkpt lat="49.61803" lon="-1.45214">
        <ele>63.388508</ele>
        <time>2022-07-30T11:40:26.000Z</time>
      </trkpt>
      <trkpt lat="49.618" lon="-1.45209">
        <ele>63.40356</ele>
        <time>2022-07-30T11:40:27.000Z</time>
      </trkpt>
      <trkpt lat="49.61798" lon="-1.45204">
        <ele>63.417616</ele>
        <time>2022-07-30T11:40:28.000Z</time>
      </trkpt>
      <trkpt lat="49.61796" lon="-1.45199">
        <ele>63.431698</ele>
        <time>2022-07-30T11:40:29.000Z</time>
      </trkpt>
      <trkpt lat="49.61793" lon="-1.45194">
        <ele>63.446421</ele>
        <time>2022-07-30T11:40:30.000Z</time>
      </trkpt>
      <trkpt lat="49.6179" lon="-1.4519">
        <ele>63.461095</ele>
        <time>2022-07-30T11:40:31.000Z</time>
      </trkpt>
      <trkpt lat="49.61788" lon="-1.45186">
        <ele>63.474308</ele>
        <time>2022-07-30T11:40:32.000Z</time>
      </trkpt>
      <trkpt lat="49.61786" lon="-1.45182">
        <ele>63.486671</ele>
        <time>2022-07-30T11:40:33.000Z</time>
      </trkpt>
      <trkpt lat="49.61784" lon="-1.4518">
        <ele>63.495244</ele>
        <time>2022-07-30T11:40:34.000Z</time>
      </trkpt>
      <trkpt lat="49.61783" lon="-1.45177">
        <ele>63.502907</ele>
        <time>2022-07-30T11:40:35.000Z</time>
      </trkpt>
      <trkpt lat="49.6178" lon="-1.45174">
        <ele>63.515658</ele>
        <time>2022-07-30T11:40:37.000Z</time>
      </trkpt>
      <trkpt lat="49.61778" lon="-1.45174">
        <ele>63.523863</ele>
        <time>2022-07-30T11:40:38.000Z</time>
      </trkpt>
      <trkpt lat="49.61775" lon="-1.45174">
        <ele>63.531981</ele>
        <time>2022-07-30T11:40:39.000Z</time>
      </trkpt>
      <trkpt lat="49.61773" lon="-1.45175">
        <ele>63.544636</ele>
        <time>2022-07-30T11:40:40.000Z</time>
      </trkpt>
      <trkpt lat="49.61771" lon="-1.45175">
        <ele>63.61109</ele>
        <time>2022-07-30T11:40:41.000Z</time>
      </trkpt>
      <trkpt lat="49.61768" lon="-1.45175">
        <ele>63.680196</ele>
        <time>2022-07-30T11:40:42.000Z</time>
      </trkpt>
      <trkpt lat="49.61766" lon="-1.45174">
        <ele>63.748753</ele>
        <time>2022-07-30T11:40:43.000Z</time>
      </trkpt>
      <trkpt lat="49.61763" lon="-1.45172">
        <ele>63.831102</ele>
        <time>2022-07-30T11:40:44.000Z</time>
      </trkpt>
      <trkpt lat="49.6176" lon="-1.45171">
        <ele>63.903652</ele>
        <time>2022-07-30T11:40:45.000Z</time>
      </trkpt>
      <trkpt lat="49.61757" lon="-1.45169">
        <ele>63.992431</ele>
        <time>2022-07-30T11:40:46.000Z</time>
      </trkpt>
      <trkpt lat="49.61754" lon="-1.45168">
        <ele>64.073622</ele>
        <time>2022-07-30T11:40:47.000Z</time>
      </trkpt>
      <trkpt lat="49.61752" lon="-1.45166">
        <ele>64.139721</ele>
        <time>2022-07-30T11:40:48.000Z</time>
      </trkpt>
      <trkpt lat="49.6175" lon="-1.45163">
        <ele>64.20828</ele>
        <time>2022-07-30T11:40:49.000Z</time>
      </trkpt>
      <trkpt lat="49.6175" lon="-1.4516">
        <ele>64.265592</ele>
        <time>2022-07-30T11:40:50.000Z</time>
      </trkpt>
      <trkpt lat="49.6175" lon="-1.45156">
        <ele>64.325787</ele>
        <time>2022-07-30T11:40:51.000Z</time>
      </trkpt>
      <trkpt lat="49.6175" lon="-1.45153">
        <ele>64.384803</ele>
        <time>2022-07-30T11:40:52.000Z</time>
      </trkpt>
      <trkpt lat="49.61751" lon="-1.4515">
        <ele>64.440448</ele>
        <time>2022-07-30T11:40:53.000Z</time>
      </trkpt>
      <trkpt lat="49.61751" lon="-1.45147">
        <ele>64.490956</ele>
        <time>2022-07-30T11:40:54.000Z</time>
      </trkpt>
      <trkpt lat="49.61752" lon="-1.45144">
        <ele>64.545797</ele>
        <time>2022-07-30T11:40:55.000Z</time>
      </trkpt>
      <trkpt lat="49.61752" lon="-1.45141">
        <ele>64.593266</ele>
        <time>2022-07-30T11:40:56.000Z</time>
      </trkpt>
      <trkpt lat="49.61753" lon="-1.45139">
        <ele>64.643282</ele>
        <time>2022-07-30T11:40:57.000Z</time>
      </trkpt>
      <trkpt lat="49.61754" lon="-1.45136">
        <ele>64.69704</ele>
        <time>2022-07-30T11:40:58.000Z</time>
      </trkpt>
      <trkpt lat="49.61754" lon="-1.45133">
        <ele>64.752076</ele>
        <time>2022-07-30T11:40:59.000Z</time>
      </trkpt>
      <trkpt lat="49.61755" lon="-1.45129">
        <ele>64.810164</ele>
        <time>2022-07-30T11:41:00.000Z</time>
      </trkpt>
      <trkpt lat="49.61756" lon="-1.45127">
        <ele>64.863922</ele>
        <time>2022-07-30T11:41:01.000Z</time>
      </trkpt>
      <trkpt lat="49.61757" lon="-1.45124">
        <ele>64.91891</ele>
        <time>2022-07-30T11:41:02.000Z</time>
      </trkpt>
      <trkpt lat="49.61758" lon="-1.45121">
        <ele>64.976766</ele>
        <time>2022-07-30T11:41:03.000Z</time>
      </trkpt>
      <trkpt lat="49.61759" lon="-1.45119">
        <ele>65.025955</ele>
        <time>2022-07-30T11:41:04.000Z</time>
      </trkpt>
      <trkpt lat="49.6176" lon="-1.45116">
        <ele>65.086393</ele>
        <time>2022-07-30T11:41:05.000Z</time>
      </trkpt>
      <trkpt lat="49.61763" lon="-1.45111">
        <ele>65.194681</ele>
        <time>2022-07-30T11:41:07.000Z</time>
      </trkpt>
      <trkpt lat="49.61764" lon="-1.45108">
        <ele>65.255118</ele>
        <time>2022-07-30T11:41:08.000Z</time>
      </trkpt>
      <trkpt lat="49.61766" lon="-1.45106">
        <ele>65.315556</ele>
        <time>2022-07-30T11:41:09.000Z</time>
      </trkpt>
      <trkpt lat="49.61767" lon="-1.45103">
        <ele>65.370459</ele>
        <time>2022-07-30T11:41:10.000Z</time>
      </trkpt>
      <trkpt lat="49.61768" lon="-1.45101">
        <ele>65.428315</ele>
        <time>2022-07-30T11:41:11.000Z</time>
      </trkpt>
      <trkpt lat="49.6177" lon="-1.45098">
        <ele>65.486356</ele>
        <time>2022-07-30T11:41:12.000Z</time>
      </trkpt>
      <trkpt lat="49.61772" lon="-1.45096">
        <ele>65.543239</ele>
        <time>2022-07-30T11:41:13.000Z</time>
      </trkpt>
      <trkpt lat="49.61775" lon="-1.45092">
        <ele>65.654746</ele>
        <time>2022-07-30T11:41:15.000Z</time>
      </trkpt>
      <trkpt lat="49.61777" lon="-1.45089">
        <ele>65.721024</ele>
        <time>2022-07-30T11:41:16.000Z</time>
      </trkpt>
      <trkpt lat="49.61779" lon="-1.45087">
        <ele>65.787232</ele>
        <time>2022-07-30T11:41:17.000Z</time>
      </trkpt>
      <trkpt lat="49.61781" lon="-1.45085">
        <ele>65.850284</ele>
        <time>2022-07-30T11:41:18.000Z</time>
      </trkpt>
      <trkpt lat="49.61782" lon="-1.45083">
        <ele>65.912319</ele>
        <time>2022-07-30T11:41:19.000Z</time>
      </trkpt>
      <trkpt lat="49.61784" lon="-1.4508">
        <ele>65.975251</ele>
        <time>2022-07-30T11:41:20.000Z</time>
      </trkpt>
      <trkpt lat="49.61786" lon="-1.45077">
        <ele>66.038182</ele>
        <time>2022-07-30T11:41:21.000Z</time>
      </trkpt>
      <trkpt lat="49.61788" lon="-1.45075">
        <ele>66.107917</ele>
        <time>2022-07-30T11:41:22.000Z</time>
      </trkpt>
      <trkpt lat="49.61789" lon="-1.45072">
        <ele>66.167162</ele>
        <time>2022-07-30T11:41:23.000Z</time>
      </trkpt>
      <trkpt lat="49.6179" lon="-1.45069">
        <ele>66.227813</ele>
        <time>2022-07-30T11:41:24.000Z</time>
      </trkpt>
      <trkpt lat="49.61792" lon="-1.45066">
        <ele>66.292024</ele>
        <time>2022-07-30T11:41:25.000Z</time>
      </trkpt>
      <trkpt lat="49.61793" lon="-1.45064">
        <ele>66.341212</ele>
        <time>2022-07-30T11:41:26.000Z</time>
      </trkpt>
      <trkpt lat="49.61794" lon="-1.45061">
        <ele>66.399068</ele>
        <time>2022-07-30T11:41:27.000Z</time>
      </trkpt>
      <trkpt lat="49.61796" lon="-1.45056">
        <ele>66.494978</ele>
        <time>2022-07-30T11:41:29.000Z</time>
      </trkpt>
      <trkpt lat="49.61797" lon="-1.45051">
        <ele>66.592445</ele>
        <time>2022-07-30T11:41:31.000Z</time>
      </trkpt>
      <trkpt lat="49.61798" lon="-1.45048">
        <ele>66.65047</ele>
        <time>2022-07-30T11:41:32.000Z</time>
      </trkpt>
      <trkpt lat="49.61798" lon="-1.45044">
        <ele>66.716068</ele>
        <time>2022-07-30T11:41:33.000Z</time>
      </trkpt>
      <trkpt lat="49.61799" lon="-1.45041">
        <ele>66.773379</ele>
        <time>2022-07-30T11:41:34.000Z</time>
      </trkpt>
      <trkpt lat="49.61799" lon="-1.45037">
        <ele>66.828415</ele>
        <time>2022-07-30T11:41:35.000Z</time>
      </trkpt>
      <trkpt lat="49.61799" lon="-1.45034">
        <ele>66.881731</ele>
        <time>2022-07-30T11:41:36.000Z</time>
      </trkpt>
      <trkpt lat="49.61799" lon="-1.45031">
        <ele>66.940206</ele>
        <time>2022-07-30T11:41:37.000Z</time>
      </trkpt>
      <trkpt lat="49.61798" lon="-1.45028">
        <ele>66.99585</ele>
        <time>2022-07-30T11:41:38.000Z</time>
      </trkpt>
      <trkpt lat="49.61797" lon="-1.45024">
        <ele>67.057207</ele>
        <time>2022-07-30T11:41:39.000Z</time>
      </trkpt>
      <trkpt lat="49.61797" lon="-1.45021">
        <ele>67.118786</ele>
        <time>2022-07-30T11:41:40.000Z</time>
      </trkpt>
      <trkpt lat="49.61796" lon="-1.45018">
        <ele>67.181784</ele>
        <time>2022-07-30T11:41:41.000Z</time>
      </trkpt>
      <trkpt lat="49.61796" lon="-1.45014">
        <ele>67.245916</ele>
        <time>2022-07-30T11:41:42.000Z</time>
      </trkpt>
      <trkpt lat="49.61795" lon="-1.45011">
        <ele>67.307495</ele>
        <time>2022-07-30T11:41:43.000Z</time>
      </trkpt>
      <trkpt lat="49.61794" lon="-1.45007">
        <ele>67.373284</ele>
        <time>2022-07-30T11:41:44.000Z</time>
      </trkpt>
      <trkpt lat="49.61793" lon="-1.45004">
        <ele>67.439072</ele>
        <time>2022-07-30T11:41:45.000Z</time>
      </trkpt>
      <trkpt lat="49.61792" lon="-1.45">
        <ele>67.503836</ele>
        <time>2022-07-30T11:41:46.000Z</time>
      </trkpt>
      <trkpt lat="49.6179" lon="-1.44996">
        <ele>67.576226</ele>
        <time>2022-07-30T11:41:47.000Z</time>
      </trkpt>
      <trkpt lat="49.61789" lon="-1.44993">
        <ele>67.646766</ele>
        <time>2022-07-30T11:41:48.000Z</time>
      </trkpt>
      <trkpt lat="49.61788" lon="-1.44988">
        <ele>67.725713</ele>
        <time>2022-07-30T11:41:49.000Z</time>
      </trkpt>
      <trkpt lat="49.61787" lon="-1.44984">
        <ele>67.810996</ele>
        <time>2022-07-30T11:41:50.000Z</time>
      </trkpt>
      <trkpt lat="49.61785" lon="-1.4498">
        <ele>67.895736</ele>
        <time>2022-07-30T11:41:51.000Z</time>
      </trkpt>
      <trkpt lat="49.61783" lon="-1.44975">
        <ele>67.985252</ele>
        <time>2022-07-30T11:41:52.000Z</time>
      </trkpt>
      <trkpt lat="49.61781" lon="-1.44971">
        <ele>68.081963</ele>
        <time>2022-07-30T11:41:53.000Z</time>
      </trkpt>
      <trkpt lat="49.6178" lon="-1.44965">
        <ele>68.1769</ele>
        <time>2022-07-30T11:41:54.000Z</time>
      </trkpt>
      <trkpt lat="49.61779" lon="-1.4496">
        <ele>68.274367</ele>
        <time>2022-07-30T11:41:55.000Z</time>
      </trkpt>
      <trkpt lat="49.61778" lon="-1.44954">
        <ele>68.220377</ele>
        <time>2022-07-30T11:41:56.000Z</time>
      </trkpt>
      <trkpt lat="49.61776" lon="-1.44948">
        <ele>68.060398</ele>
        <time>2022-07-30T11:41:57.000Z</time>
      </trkpt>
      <trkpt lat="49.61775" lon="-1.44943">
        <ele>67.909074</ele>
        <time>2022-07-30T11:41:58.000Z</time>
      </trkpt>
      <trkpt lat="49.61773" lon="-1.44936">
        <ele>67.736627</ele>
        <time>2022-07-30T11:41:59.000Z</time>
      </trkpt>
      <trkpt lat="49.61772" lon="-1.44929">
        <ele>67.567609</ele>
        <time>2022-07-30T11:42:00.000Z</time>
      </trkpt>
      <trkpt lat="49.61771" lon="-1.44923">
        <ele>67.402234</ele>
        <time>2022-07-30T11:42:01.000Z</time>
      </trkpt>
      <trkpt lat="49.6177" lon="-1.44916">
        <ele>67.237511</ele>
        <time>2022-07-30T11:42:02.000Z</time>
      </trkpt>
      <trkpt lat="49.61768" lon="-1.4491">
        <ele>67.059132</ele>
        <time>2022-07-30T11:42:03.000Z</time>
      </trkpt>
      <trkpt lat="49.61767" lon="-1.44902">
        <ele>66.86912</ele>
        <time>2022-07-30T11:42:04.000Z</time>
      </trkpt>
      <trkpt lat="49.61765" lon="-1.44894">
        <ele>66.656179</ele>
        <time>2022-07-30T11:42:05.000Z</time>
      </trkpt>
      <trkpt lat="49.61763" lon="-1.44885">
        <ele>66.421065</ele>
        <time>2022-07-30T11:42:06.000Z</time>
      </trkpt>
      <trkpt lat="49.6176" lon="-1.44875">
        <ele>66.159424</ele>
        <time>2022-07-30T11:42:07.000Z</time>
      </trkpt>
      <trkpt lat="49.61758" lon="-1.44865">
        <ele>65.881287</ele>
        <time>2022-07-30T11:42:08.000Z</time>
      </trkpt>
      <trkpt lat="49.61755" lon="-1.44854">
        <ele>65.586227</ele>
        <time>2022-07-30T11:42:09.000Z</time>
      </trkpt>
      <trkpt lat="49.61751" lon="-1.44843">
        <ele>65.285665</ele>
        <time>2022-07-30T11:42:10.000Z</time>
      </trkpt>
      <trkpt lat="49.61746" lon="-1.44833">
        <ele>64.975255</ele>
        <time>2022-07-30T11:42:11.000Z</time>
      </trkpt>
      <trkpt lat="49.61741" lon="-1.44822">
        <ele>64.653656</ele>
        <time>2022-07-30T11:42:12.000Z</time>
      </trkpt>
      <trkpt lat="49.61736" lon="-1.44812">
        <ele>64.339864</ele>
        <time>2022-07-30T11:42:13.000Z</time>
      </trkpt>
      <trkpt lat="49.61731" lon="-1.44803">
        <ele>64.028255</ele>
        <time>2022-07-30T11:42:14.000Z</time>
      </trkpt>
      <trkpt lat="49.61725" lon="-1.44793">
        <ele>63.70098</ele>
        <time>2022-07-30T11:42:15.000Z</time>
      </trkpt>
      <trkpt lat="49.61719" lon="-1.44783">
        <ele>63.364499</ele>
        <time>2022-07-30T11:42:16.000Z</time>
      </trkpt>
      <trkpt lat="49.61713" lon="-1.44772">
        <ele>63.026738</ele>
        <time>2022-07-30T11:42:17.000Z</time>
      </trkpt>
      <trkpt lat="49.61707" lon="-1.44762">
        <ele>62.675317</ele>
        <time>2022-07-30T11:42:18.000Z</time>
      </trkpt>
      <trkpt lat="49.61701" lon="-1.44751">
        <ele>62.323896</ele>
        <time>2022-07-30T11:42:19.000Z</time>
      </trkpt>
      <trkpt lat="49.61695" lon="-1.4474">
        <ele>61.974322</ele>
        <time>2022-07-30T11:42:20.000Z</time>
      </trkpt>
      <trkpt lat="49.61689" lon="-1.44729">
        <ele>61.619777</ele>
        <time>2022-07-30T11:42:21.000Z</time>
      </trkpt>
      <trkpt lat="49.61683" lon="-1.44718">
        <ele>61.31739</ele>
        <time>2022-07-30T11:42:22.000Z</time>
      </trkpt>
      <trkpt lat="49.61677" lon="-1.44707">
        <ele>61.058254</ele>
        <time>2022-07-30T11:42:23.000Z</time>
      </trkpt>
      <trkpt lat="49.61671" lon="-1.44697">
        <ele>60.806555</ele>
        <time>2022-07-30T11:42:24.000Z</time>
      </trkpt>
      <trkpt lat="49.61666" lon="-1.44686">
        <ele>60.555826</ele>
        <time>2022-07-30T11:42:25.000Z</time>
      </trkpt>
      <trkpt lat="49.6166" lon="-1.44676">
        <ele>60.317965</ele>
        <time>2022-07-30T11:42:26.000Z</time>
      </trkpt>
      <trkpt lat="49.61655" lon="-1.44667">
        <ele>60.081063</ele>
        <time>2022-07-30T11:42:27.000Z</time>
      </trkpt>
      <trkpt lat="49.61649" lon="-1.44657">
        <ele>59.847387</ele>
        <time>2022-07-30T11:42:28.000Z</time>
      </trkpt>
      <trkpt lat="49.61644" lon="-1.44647">
        <ele>59.613235</ele>
        <time>2022-07-30T11:42:29.000Z</time>
      </trkpt>
      <trkpt lat="49.61639" lon="-1.44638">
        <ele>59.384981</ele>
        <time>2022-07-30T11:42:30.000Z</time>
      </trkpt>
      <trkpt lat="49.61635" lon="-1.44628">
        <ele>59.173363</ele>
        <time>2022-07-30T11:42:31.000Z</time>
      </trkpt>
      <trkpt lat="49.6163" lon="-1.44618">
        <ele>58.961706</ele>
        <time>2022-07-30T11:42:32.000Z</time>
      </trkpt>
      <trkpt lat="49.61627" lon="-1.44609">
        <ele>58.757707</ele>
        <time>2022-07-30T11:42:33.000Z</time>
      </trkpt>
      <trkpt lat="49.61623" lon="-1.44599">
        <ele>58.558817</ele>
        <time>2022-07-30T11:42:34.000Z</time>
      </trkpt>
      <trkpt lat="49.6162" lon="-1.4459">
        <ele>58.362435</ele>
        <time>2022-07-30T11:42:35.000Z</time>
      </trkpt>
      <trkpt lat="49.61617" lon="-1.44582">
        <ele>58.191452</ele>
        <time>2022-07-30T11:42:36.000Z</time>
      </trkpt>
      <trkpt lat="49.61614" lon="-1.44573">
        <ele>58.014975</ele>
        <time>2022-07-30T11:42:37.000Z</time>
      </trkpt>
      <trkpt lat="49.61611" lon="-1.44565">
        <ele>57.848165</ele>
        <time>2022-07-30T11:42:38.000Z</time>
      </trkpt>
      <trkpt lat="49.61609" lon="-1.44557">
        <ele>57.687888</ele>
        <time>2022-07-30T11:42:39.000Z</time>
      </trkpt>
      <trkpt lat="49.61606" lon="-1.4455">
        <ele>57.53445</ele>
        <time>2022-07-30T11:42:40.000Z</time>
      </trkpt>
      <trkpt lat="49.61603" lon="-1.44543">
        <ele>57.382239</ele>
        <time>2022-07-30T11:42:41.000Z</time>
      </trkpt>
      <trkpt lat="49.61601" lon="-1.44536">
        <ele>57.231627</ele>
        <time>2022-07-30T11:42:42.000Z</time>
      </trkpt>
      <trkpt lat="49.61598" lon="-1.44529">
        <ele>57.085578</ele>
        <time>2022-07-30T11:42:43.000Z</time>
      </trkpt>
      <trkpt lat="49.61596" lon="-1.44522">
        <ele>56.953448</ele>
        <time>2022-07-30T11:42:44.000Z</time>
      </trkpt>
      <trkpt lat="49.61594" lon="-1.44516">
        <ele>56.819812</ele>
        <time>2022-07-30T11:42:45.000Z</time>
      </trkpt>
      <trkpt lat="49.61592" lon="-1.4451">
        <ele>56.693841</ele>
        <time>2022-07-30T11:42:46.000Z</time>
      </trkpt>
      <trkpt lat="49.6159" lon="-1.44504">
        <ele>56.583164</ele>
        <time>2022-07-30T11:42:47.000Z</time>
      </trkpt>
      <trkpt lat="49.61588" lon="-1.44499">
        <ele>56.477979</ele>
        <time>2022-07-30T11:42:48.000Z</time>
      </trkpt>
      <trkpt lat="49.61587" lon="-1.44494">
        <ele>56.393614</ele>
        <time>2022-07-30T11:42:49.000Z</time>
      </trkpt>
      <trkpt lat="49.61586" lon="-1.4449">
        <ele>56.378503</ele>
        <time>2022-07-30T11:42:50.000Z</time>
      </trkpt>
      <trkpt lat="49.61584" lon="-1.44485">
        <ele>56.361947</ele>
        <time>2022-07-30T11:42:51.000Z</time>
      </trkpt>
      <trkpt lat="49.61583" lon="-1.44479">
        <ele>56.344846</ele>
        <time>2022-07-30T11:42:52.000Z</time>
      </trkpt>
      <trkpt lat="49.61582" lon="-1.44474">
        <ele>56.326889</ele>
        <time>2022-07-30T11:42:53.000Z</time>
      </trkpt>
      <trkpt lat="49.61582" lon="-1.44468">
        <ele>56.309656</ele>
        <time>2022-07-30T11:42:54.000Z</time>
      </trkpt>
      <trkpt lat="49.61581" lon="-1.44463">
        <ele>56.292071</ele>
        <time>2022-07-30T11:42:55.000Z</time>
      </trkpt>
      <trkpt lat="49.61581" lon="-1.44457">
        <ele>56.273669</ele>
        <time>2022-07-30T11:42:56.000Z</time>
      </trkpt>
      <trkpt lat="49.61582" lon="-1.4445">
        <ele>56.254065</ele>
        <time>2022-07-30T11:42:57.000Z</time>
      </trkpt>
      <trkpt lat="49.61583" lon="-1.44444">
        <ele>56.233494</ele>
        <time>2022-07-30T11:42:58.000Z</time>
      </trkpt>
      <trkpt lat="49.61584" lon="-1.44438">
        <ele>56.213964</ele>
        <time>2022-07-30T11:42:59.000Z</time>
      </trkpt>
      <trkpt lat="49.61585" lon="-1.44431">
        <ele>56.192219</ele>
        <time>2022-07-30T11:43:00.000Z</time>
      </trkpt>
      <trkpt lat="49.61586" lon="-1.44424">
        <ele>56.171833</ele>
        <time>2022-07-30T11:43:01.000Z</time>
      </trkpt>
      <trkpt lat="49.61588" lon="-1.44418">
        <ele>56.150382</ele>
        <time>2022-07-30T11:43:02.000Z</time>
      </trkpt>
      <trkpt lat="49.61589" lon="-1.44411">
        <ele>56.129056</ele>
        <time>2022-07-30T11:43:03.000Z</time>
      </trkpt>
      <trkpt lat="49.61591" lon="-1.44404">
        <ele>56.107156</ele>
        <time>2022-07-30T11:43:04.000Z</time>
      </trkpt>
      <trkpt lat="49.61592" lon="-1.44397">
        <ele>56.084822</ele>
        <time>2022-07-30T11:43:05.000Z</time>
      </trkpt>
      <trkpt lat="49.61593" lon="-1.44391">
        <ele>56.063078</ele>
        <time>2022-07-30T11:43:06.000Z</time>
      </trkpt>
      <trkpt lat="49.61595" lon="-1.44384">
        <ele>56.040365</ele>
        <time>2022-07-30T11:43:07.000Z</time>
      </trkpt>
      <trkpt lat="49.61597" lon="-1.44377">
        <ele>56.01702</ele>
        <time>2022-07-30T11:43:08.000Z</time>
      </trkpt>
      <trkpt lat="49.61598" lon="-1.44369">
        <ele>55.994136</ele>
        <time>2022-07-30T11:43:09.000Z</time>
      </trkpt>
      <trkpt lat="49.61599" lon="-1.44362">
        <ele>55.969918</ele>
        <time>2022-07-30T11:43:10.000Z</time>
      </trkpt>
      <trkpt lat="49.61601" lon="-1.44354">
        <ele>55.946224</ele>
        <time>2022-07-30T11:43:11.000Z</time>
      </trkpt>
      <trkpt lat="49.61602" lon="-1.44347">
        <ele>55.92182</ele>
        <time>2022-07-30T11:43:12.000Z</time>
      </trkpt>
      <trkpt lat="49.61603" lon="-1.44339">
        <ele>55.897433</ele>
        <time>2022-07-30T11:43:13.000Z</time>
      </trkpt>
      <trkpt lat="49.61604" lon="-1.44331">
        <ele>55.873647</ele>
        <time>2022-07-30T11:43:14.000Z</time>
      </trkpt>
      <trkpt lat="49.61604" lon="-1.44324">
        <ele>55.850601</ele>
        <time>2022-07-30T11:43:15.000Z</time>
      </trkpt>
      <trkpt lat="49.61604" lon="-1.44316">
        <ele>55.828131</ele>
        <time>2022-07-30T11:43:16.000Z</time>
      </trkpt>
      <trkpt lat="49.61604" lon="-1.44309">
        <ele>55.806049</ele>
        <time>2022-07-30T11:43:17.000Z</time>
      </trkpt>
      <trkpt lat="49.61604" lon="-1.44302">
        <ele>55.783966</ele>
        <time>2022-07-30T11:43:18.000Z</time>
      </trkpt>
      <trkpt lat="49.61604" lon="-1.44295">
        <ele>55.763111</ele>
        <time>2022-07-30T11:43:19.000Z</time>
      </trkpt>
      <trkpt lat="49.61604" lon="-1.44288">
        <ele>55.742562</ele>
        <time>2022-07-30T11:43:20.000Z</time>
      </trkpt>
      <trkpt lat="49.61605" lon="-1.44282">
        <ele>55.722425</ele>
        <time>2022-07-30T11:43:21.000Z</time>
      </trkpt>
      <trkpt lat="49.61605" lon="-1.44276">
        <ele>55.703716</ele>
        <time>2022-07-30T11:43:22.000Z</time>
      </trkpt>
      <trkpt lat="49.61605" lon="-1.4427">
        <ele>55.685314</ele>
        <time>2022-07-30T11:43:23.000Z</time>
      </trkpt>
      <trkpt lat="49.61604" lon="-1.44264">
        <ele>55.666997</ele>
        <time>2022-07-30T11:43:24.000Z</time>
      </trkpt>
      <trkpt lat="49.61604" lon="-1.44258">
        <ele>55.649718</ele>
        <time>2022-07-30T11:43:25.000Z</time>
      </trkpt>
      <trkpt lat="49.61604" lon="-1.44252">
        <ele>55.631567</ele>
        <time>2022-07-30T11:43:26.000Z</time>
      </trkpt>
      <trkpt lat="49.61604" lon="-1.44246">
        <ele>55.612869</ele>
        <time>2022-07-30T11:43:27.000Z</time>
      </trkpt>
      <trkpt lat="49.61605" lon="-1.4424">
        <ele>55.594249</ele>
        <time>2022-07-30T11:43:28.000Z</time>
      </trkpt>
      <trkpt lat="49.61605" lon="-1.44235">
        <ele>55.577015</ele>
        <time>2022-07-30T11:43:29.000Z</time>
      </trkpt>
      <trkpt lat="49.61605" lon="-1.44229">
        <ele>55.558864</ele>
        <time>2022-07-30T11:43:30.000Z</time>
      </trkpt>
      <trkpt lat="49.61606" lon="-1.44223">
        <ele>55.545834</ele>
        <time>2022-07-30T11:43:31.000Z</time>
      </trkpt>
      <trkpt lat="49.61606" lon="-1.44218">
        <ele>55.555077</ele>
        <time>2022-07-30T11:43:32.000Z</time>
      </trkpt>
      <trkpt lat="49.61606" lon="-1.44212">
        <ele>55.564156</ele>
        <time>2022-07-30T11:43:33.000Z</time>
      </trkpt>
      <trkpt lat="49.61605" lon="-1.44207">
        <ele>55.573291</ele>
        <time>2022-07-30T11:43:34.000Z</time>
      </trkpt>
      <trkpt lat="49.61605" lon="-1.44201">
        <ele>55.58237</ele>
        <time>2022-07-30T11:43:35.000Z</time>
      </trkpt>
      <trkpt lat="49.61606" lon="-1.44196">
        <ele>55.590686</ele>
        <time>2022-07-30T11:43:36.000Z</time>
      </trkpt>
      <trkpt lat="49.61606" lon="-1.44191">
        <ele>55.599599</ele>
        <time>2022-07-30T11:43:37.000Z</time>
      </trkpt>
      <trkpt lat="49.61606" lon="-1.44186">
        <ele>55.608052</ele>
        <time>2022-07-30T11:43:38.000Z</time>
      </trkpt>
      <trkpt lat="49.61606" lon="-1.4418">
        <ele>55.617461</ele>
        <time>2022-07-30T11:43:39.000Z</time>
      </trkpt>
      <trkpt lat="49.61606" lon="-1.44175">
        <ele>55.626539</ele>
        <time>2022-07-30T11:43:40.000Z</time>
      </trkpt>
      <trkpt lat="49.61606" lon="-1.44169">
        <ele>55.635122</ele>
        <time>2022-07-30T11:43:41.000Z</time>
      </trkpt>
      <trkpt lat="49.61606" lon="-1.44164">
        <ele>55.644233</ele>
        <time>2022-07-30T11:43:42.000Z</time>
      </trkpt>
      <trkpt lat="49.61606" lon="-1.44158">
        <ele>55.653477</ele>
        <time>2022-07-30T11:43:43.000Z</time>
      </trkpt>
      <trkpt lat="49.61606" lon="-1.44153">
        <ele>55.662587</ele>
        <time>2022-07-30T11:43:44.000Z</time>
      </trkpt>
      <trkpt lat="49.61606" lon="-1.44147">
        <ele>55.672326</ele>
        <time>2022-07-30T11:43:45.000Z</time>
      </trkpt>
      <trkpt lat="49.61607" lon="-1.44141">
        <ele>55.681532</ele>
        <time>2022-07-30T11:43:46.000Z</time>
      </trkpt>
      <trkpt lat="49.61607" lon="-1.44136">
        <ele>55.689951</ele>
        <time>2022-07-30T11:43:47.000Z</time>
      </trkpt>
      <trkpt lat="49.61607" lon="-1.44131">
        <ele>55.699029</ele>
        <time>2022-07-30T11:43:48.000Z</time>
      </trkpt>
      <trkpt lat="49.61606" lon="-1.44125">
        <ele>55.708073</ele>
        <time>2022-07-30T11:43:49.000Z</time>
      </trkpt>
      <trkpt lat="49.61606" lon="-1.4412">
        <ele>55.717316</ele>
        <time>2022-07-30T11:43:50.000Z</time>
      </trkpt>
      <trkpt lat="49.61606" lon="-1.44114">
        <ele>55.72623</ele>
        <time>2022-07-30T11:43:51.000Z</time>
      </trkpt>
      <trkpt lat="49.61606" lon="-1.44109">
        <ele>55.734978</ele>
        <time>2022-07-30T11:43:52.000Z</time>
      </trkpt>
      <trkpt lat="49.61607" lon="-1.44103">
        <ele>55.74451</ele>
        <time>2022-07-30T11:43:53.000Z</time>
      </trkpt>
      <trkpt lat="49.61607" lon="-1.44098">
        <ele>55.753754</ele>
        <time>2022-07-30T11:43:54.000Z</time>
      </trkpt>
      <trkpt lat="49.61607" lon="-1.44092">
        <ele>55.763193</ele>
        <time>2022-07-30T11:43:55.000Z</time>
      </trkpt>
      <trkpt lat="49.61607" lon="-1.44087">
        <ele>55.771942</ele>
        <time>2022-07-30T11:43:56.000Z</time>
      </trkpt>
      <trkpt lat="49.61607" lon="-1.44081">
        <ele>55.78102</ele>
        <time>2022-07-30T11:43:57.000Z</time>
      </trkpt>
      <trkpt lat="49.61607" lon="-1.44076">
        <ele>55.790131</ele>
        <time>2022-07-30T11:43:58.000Z</time>
      </trkpt>
      <trkpt lat="49.61607" lon="-1.4407">
        <ele>55.799209</ele>
        <time>2022-07-30T11:43:59.000Z</time>
      </trkpt>
      <trkpt lat="49.61607" lon="-1.44064">
        <ele>55.808948</ele>
        <time>2022-07-30T11:44:00.000Z</time>
      </trkpt>
      <trkpt lat="49.61607" lon="-1.44059">
        <ele>55.817696</ele>
        <time>2022-07-30T11:44:01.000Z</time>
      </trkpt>
      <trkpt lat="49.61606" lon="-1.44054">
        <ele>55.826415</ele>
        <time>2022-07-30T11:44:02.000Z</time>
      </trkpt>
      <trkpt lat="49.61606" lon="-1.44049">
        <ele>55.834867</ele>
        <time>2022-07-30T11:44:03.000Z</time>
      </trkpt>
      <trkpt lat="49.61605" lon="-1.44044">
        <ele>55.843183</ele>
        <time>2022-07-30T11:44:04.000Z</time>
      </trkpt>
      <trkpt lat="49.61605" lon="-1.44038">
        <ele>55.852129</ele>
        <time>2022-07-30T11:44:05.000Z</time>
      </trkpt>
      <trkpt lat="49.61604" lon="-1.44033">
        <ele>55.861173</ele>
        <time>2022-07-30T11:44:06.000Z</time>
      </trkpt>
      <trkpt lat="49.61604" lon="-1.44028">
        <ele>55.869757</ele>
        <time>2022-07-30T11:44:07.000Z</time>
      </trkpt>
      <trkpt lat="49.61604" lon="-1.44023">
        <ele>55.877745</ele>
        <time>2022-07-30T11:44:08.000Z</time>
      </trkpt>
      <trkpt lat="49.61604" lon="-1.44018">
        <ele>55.885998</ele>
        <time>2022-07-30T11:44:09.000Z</time>
      </trkpt>
      <trkpt lat="49.61604" lon="-1.44013">
        <ele>55.89478</ele>
        <time>2022-07-30T11:44:10.000Z</time>
      </trkpt>
      <trkpt lat="49.61603" lon="-1.44008">
        <ele>55.903397</ele>
        <time>2022-07-30T11:44:11.000Z</time>
      </trkpt>
      <trkpt lat="49.61603" lon="-1.44002">
        <ele>55.912014</ele>
        <time>2022-07-30T11:44:12.000Z</time>
      </trkpt>
      <trkpt lat="49.61602" lon="-1.43997">
        <ele>55.920652</ele>
        <time>2022-07-30T11:44:13.000Z</time>
      </trkpt>
      <trkpt lat="49.61601" lon="-1.43992">
        <ele>55.929533</ele>
        <time>2022-07-30T11:44:14.000Z</time>
      </trkpt>
      <trkpt lat="49.61601" lon="-1.43986">
        <ele>55.939109</ele>
        <time>2022-07-30T11:44:15.000Z</time>
      </trkpt>
      <trkpt lat="49.616" lon="-1.43981">
        <ele>55.948633</ele>
        <time>2022-07-30T11:44:16.000Z</time>
      </trkpt>
      <trkpt lat="49.61599" lon="-1.43975">
        <ele>55.957885</ele>
        <time>2022-07-30T11:44:17.000Z</time>
      </trkpt>
      <trkpt lat="49.61598" lon="-1.4397">
        <ele>55.967464</ele>
        <time>2022-07-30T11:44:18.000Z</time>
      </trkpt>
      <trkpt lat="49.61597" lon="-1.43964">
        <ele>55.977531</ele>
        <time>2022-07-30T11:44:19.000Z</time>
      </trkpt>
      <trkpt lat="49.61596" lon="-1.43958">
        <ele>55.987757</ele>
        <time>2022-07-30T11:44:20.000Z</time>
      </trkpt>
      <trkpt lat="49.61595" lon="-1.43953">
        <ele>55.996801</ele>
        <time>2022-07-30T11:44:21.000Z</time>
      </trkpt>
      <trkpt lat="49.61594" lon="-1.43947">
        <ele>56.037948</ele>
        <time>2022-07-30T11:44:22.000Z</time>
      </trkpt>
      <trkpt lat="49.61593" lon="-1.43941">
        <ele>56.124864</ele>
        <time>2022-07-30T11:44:23.000Z</time>
      </trkpt>
      <trkpt lat="49.61593" lon="-1.43936">
        <ele>56.199262</ele>
        <time>2022-07-30T11:44:24.000Z</time>
      </trkpt>
      <trkpt lat="49.61591" lon="-1.43931">
        <ele>56.283837</ele>
        <time>2022-07-30T11:44:25.000Z</time>
      </trkpt>
      <trkpt lat="49.61591" lon="-1.43926">
        <ele>56.364218</ele>
        <time>2022-07-30T11:44:26.000Z</time>
      </trkpt>
      <trkpt lat="49.6159" lon="-1.4392">
        <ele>56.450216</ele>
        <time>2022-07-30T11:44:27.000Z</time>
      </trkpt>
      <trkpt lat="49.61589" lon="-1.43915">
        <ele>56.531699</ele>
        <time>2022-07-30T11:44:28.000Z</time>
      </trkpt>
      <trkpt lat="49.61589" lon="-1.4391">
        <ele>56.614845</ele>
        <time>2022-07-30T11:44:29.000Z</time>
      </trkpt>
      <trkpt lat="49.61588" lon="-1.43904">
        <ele>56.700899</ele>
        <time>2022-07-30T11:44:30.000Z</time>
      </trkpt>
      <trkpt lat="49.61587" lon="-1.43899">
        <ele>56.780465</ele>
        <time>2022-07-30T11:44:31.000Z</time>
      </trkpt>
      <trkpt lat="49.61586" lon="-1.43894">
        <ele>56.863025</ele>
        <time>2022-07-30T11:44:32.000Z</time>
      </trkpt>
      <trkpt lat="49.61585" lon="-1.43889">
        <ele>56.93397</ele>
        <time>2022-07-30T11:44:33.000Z</time>
      </trkpt>
      <trkpt lat="49.61584" lon="-1.43885">
        <ele>57.006619</ele>
        <time>2022-07-30T11:44:34.000Z</time>
      </trkpt>
      <trkpt lat="49.61583" lon="-1.4388">
        <ele>57.077564</ele>
        <time>2022-07-30T11:44:35.000Z</time>
      </trkpt>
      <trkpt lat="49.61583" lon="-1.43876">
        <ele>57.141514</ele>
        <time>2022-07-30T11:44:36.000Z</time>
      </trkpt>
      <trkpt lat="49.61582" lon="-1.43872">
        <ele>57.209287</ele>
        <time>2022-07-30T11:44:37.000Z</time>
      </trkpt>
      <trkpt lat="49.61581" lon="-1.43868">
        <ele>57.276694</ele>
        <time>2022-07-30T11:44:38.000Z</time>
      </trkpt>
      <trkpt lat="49.6158" lon="-1.43863">
        <ele>57.348359</ele>
        <time>2022-07-30T11:44:39.000Z</time>
      </trkpt>
      <trkpt lat="49.61579" lon="-1.43859">
        <ele>57.415</ele>
        <time>2022-07-30T11:44:40.000Z</time>
      </trkpt>
      <trkpt lat="49.61578" lon="-1.43855">
        <ele>57.486481</ele>
        <time>2022-07-30T11:44:41.000Z</time>
      </trkpt>
      <trkpt lat="49.61577" lon="-1.4385">
        <ele>57.552742</ele>
        <time>2022-07-30T11:44:42.000Z</time>
      </trkpt>
      <trkpt lat="49.61576" lon="-1.43846">
        <ele>57.624408</ele>
        <time>2022-07-30T11:44:43.000Z</time>
      </trkpt>
      <trkpt lat="49.61575" lon="-1.43841">
        <ele>57.692143</ele>
        <time>2022-07-30T11:44:44.000Z</time>
      </trkpt>
      <trkpt lat="49.61574" lon="-1.43837">
        <ele>57.760906</ele>
        <time>2022-07-30T11:44:45.000Z</time>
      </trkpt>
      <trkpt lat="49.61573" lon="-1.43833">
        <ele>57.825493</ele>
        <time>2022-07-30T11:44:46.000Z</time>
      </trkpt>
      <trkpt lat="49.61572" lon="-1.43829">
        <ele>57.88928</ele>
        <time>2022-07-30T11:44:47.000Z</time>
      </trkpt>
      <trkpt lat="49.61572" lon="-1.43825">
        <ele>57.950244</ele>
        <time>2022-07-30T11:44:48.000Z</time>
      </trkpt>
      <trkpt lat="49.61571" lon="-1.43822">
        <ele>58.004922</ele>
        <time>2022-07-30T11:44:49.000Z</time>
      </trkpt>
      <trkpt lat="49.6157" lon="-1.43818">
        <ele>58.070992</ele>
        <time>2022-07-30T11:44:50.000Z</time>
      </trkpt>
      <trkpt lat="49.61569" lon="-1.43814">
        <ele>58.12912</ele>
        <time>2022-07-30T11:44:51.000Z</time>
      </trkpt>
      <trkpt lat="49.61568" lon="-1.4381">
        <ele>58.191537</ele>
        <time>2022-07-30T11:44:52.000Z</time>
      </trkpt>
      <trkpt lat="49.61568" lon="-1.43806">
        <ele>58.251921</ele>
        <time>2022-07-30T11:44:53.000Z</time>
      </trkpt>
      <trkpt lat="49.61567" lon="-1.43803">
        <ele>58.311434</ele>
        <time>2022-07-30T11:44:54.000Z</time>
      </trkpt>
      <trkpt lat="49.61566" lon="-1.43799">
        <ele>58.370971</ele>
        <time>2022-07-30T11:44:55.000Z</time>
      </trkpt>
      <trkpt lat="49.61565" lon="-1.43795">
        <ele>58.443072</ele>
        <time>2022-07-30T11:44:56.000Z</time>
      </trkpt>
      <trkpt lat="49.61564" lon="-1.43791">
        <ele>58.510479</ele>
        <time>2022-07-30T11:44:57.000Z</time>
      </trkpt>
      <trkpt lat="49.61562" lon="-1.43786">
        <ele>58.580599</ele>
        <time>2022-07-30T11:44:58.000Z</time>
      </trkpt>
      <trkpt lat="49.61562" lon="-1.43782">
        <ele>58.643918</ele>
        <time>2022-07-30T11:44:59.000Z</time>
      </trkpt>
      <trkpt lat="49.61561" lon="-1.43778">
        <ele>58.711653</ele>
        <time>2022-07-30T11:45:00.000Z</time>
      </trkpt>
      <trkpt lat="49.6156" lon="-1.43774">
        <ele>58.777648</ele>
        <time>2022-07-30T11:45:01.000Z</time>
      </trkpt>
      <trkpt lat="49.61559" lon="-1.43769">
        <ele>58.845384</ele>
        <time>2022-07-30T11:45:02.000Z</time>
      </trkpt>
      <trkpt lat="49.61558" lon="-1.43765">
        <ele>58.911379</ele>
        <time>2022-07-30T11:45:03.000Z</time>
      </trkpt>
      <trkpt lat="49.61558" lon="-1.43761">
        <ele>58.97323</ele>
        <time>2022-07-30T11:45:04.000Z</time>
      </trkpt>
      <trkpt lat="49.61557" lon="-1.43757">
        <ele>59.03856</ele>
        <time>2022-07-30T11:45:05.000Z</time>
      </trkpt>
      <trkpt lat="49.61557" lon="-1.43753">
        <ele>59.100411</ele>
        <time>2022-07-30T11:45:06.000Z</time>
      </trkpt>
      <trkpt lat="49.61556" lon="-1.43749">
        <ele>59.172077</ele>
        <time>2022-07-30T11:45:07.000Z</time>
      </trkpt>
      <trkpt lat="49.61555" lon="-1.43744">
        <ele>59.245907</ele>
        <time>2022-07-30T11:45:08.000Z</time>
      </trkpt>
      <trkpt lat="49.61554" lon="-1.43739">
        <ele>59.317573</ele>
        <time>2022-07-30T11:45:09.000Z</time>
      </trkpt>
      <trkpt lat="49.61553" lon="-1.43735">
        <ele>59.383834</ele>
        <time>2022-07-30T11:45:10.000Z</time>
      </trkpt>
      <trkpt lat="49.61552" lon="-1.43731">
        <ele>59.453954</ele>
        <time>2022-07-30T11:45:11.000Z</time>
      </trkpt>
      <trkpt lat="49.6155" lon="-1.43726">
        <ele>59.528177</ele>
        <time>2022-07-30T11:45:12.000Z</time>
      </trkpt>
      <trkpt lat="49.61549" lon="-1.43722">
        <ele>59.594172</ele>
        <time>2022-07-30T11:45:13.000Z</time>
      </trkpt>
      <trkpt lat="49.61548" lon="-1.43718">
        <ele>59.667568</ele>
        <time>2022-07-30T11:45:14.000Z</time>
      </trkpt>
      <trkpt lat="49.61547" lon="-1.43714">
        <ele>59.738098</ele>
        <time>2022-07-30T11:45:15.000Z</time>
      </trkpt>
      <trkpt lat="49.61545" lon="-1.4371">
        <ele>59.808218</ele>
        <time>2022-07-30T11:45:16.000Z</time>
      </trkpt>
      <trkpt lat="49.61544" lon="-1.43705">
        <ele>59.88244</ele>
        <time>2022-07-30T11:45:17.000Z</time>
      </trkpt>
      <trkpt lat="49.61542" lon="-1.43701">
        <ele>59.955837</ele>
        <time>2022-07-30T11:45:18.000Z</time>
      </trkpt>
      <trkpt lat="49.61541" lon="-1.43697">
        <ele>60.02325</ele>
        <time>2022-07-30T11:45:19.000Z</time>
      </trkpt>
      <trkpt lat="49.6154" lon="-1.43693">
        <ele>60.089015</ele>
        <time>2022-07-30T11:45:20.000Z</time>
      </trkpt>
      <trkpt lat="49.61538" lon="-1.4369">
        <ele>60.157801</ele>
        <time>2022-07-30T11:45:21.000Z</time>
      </trkpt>
      <trkpt lat="49.61536" lon="-1.43686">
        <ele>60.134785</ele>
        <time>2022-07-30T11:45:22.000Z</time>
      </trkpt>
      <trkpt lat="49.61534" lon="-1.43682">
        <ele>60.064559</ele>
        <time>2022-07-30T11:45:23.000Z</time>
      </trkpt>
      <trkpt lat="49.61533" lon="-1.43678">
        <ele>59.988938</ele>
        <time>2022-07-30T11:45:24.000Z</time>
      </trkpt>
      <trkpt lat="49.61531" lon="-1.43674">
        <ele>59.918386</ele>
        <time>2022-07-30T11:45:25.000Z</time>
      </trkpt>
      <trkpt lat="49.61529" lon="-1.43671">
        <ele>59.843693</ele>
        <time>2022-07-30T11:45:26.000Z</time>
      </trkpt>
      <trkpt lat="49.61527" lon="-1.43667">
        <ele>59.763908</ele>
        <time>2022-07-30T11:45:27.000Z</time>
      </trkpt>
      <trkpt lat="49.61525" lon="-1.43663">
        <ele>59.680061</ele>
        <time>2022-07-30T11:45:28.000Z</time>
      </trkpt>
      <trkpt lat="49.61524" lon="-1.43658">
        <ele>59.600294</ele>
        <time>2022-07-30T11:45:29.000Z</time>
      </trkpt>
      <trkpt lat="49.61522" lon="-1.43654">
        <ele>59.515891</ele>
        <time>2022-07-30T11:45:30.000Z</time>
      </trkpt>
      <trkpt lat="49.6152" lon="-1.4365">
        <ele>59.430831</ele>
        <time>2022-07-30T11:45:31.000Z</time>
      </trkpt>
      <trkpt lat="49.61517" lon="-1.43646">
        <ele>59.344801</ele>
        <time>2022-07-30T11:45:32.000Z</time>
      </trkpt>
      <trkpt lat="49.61516" lon="-1.43642">
        <ele>59.270108</ele>
        <time>2022-07-30T11:45:33.000Z</time>
      </trkpt>
      <trkpt lat="49.61514" lon="-1.43638">
        <ele>59.191615</ele>
        <time>2022-07-30T11:45:34.000Z</time>
      </trkpt>
      <trkpt lat="49.61512" lon="-1.43635">
        <ele>59.116922</ele>
        <time>2022-07-30T11:45:35.000Z</time>
      </trkpt>
      <trkpt lat="49.61509" lon="-1.43631">
        <ele>59.034439</ele>
        <time>2022-07-30T11:45:36.000Z</time>
      </trkpt>
      <trkpt lat="49.61508" lon="-1.43628">
        <ele>58.960986</ele>
        <time>2022-07-30T11:45:37.000Z</time>
      </trkpt>
      <trkpt lat="49.61505" lon="-1.43624">
        <ele>58.864423</ele>
        <time>2022-07-30T11:45:38.000Z</time>
      </trkpt>
      <trkpt lat="49.61502" lon="-1.43619">
        <ele>58.769066</ele>
        <time>2022-07-30T11:45:39.000Z</time>
      </trkpt>
      <trkpt lat="49.615" lon="-1.43614">
        <ele>58.669651</ele>
        <time>2022-07-30T11:45:40.000Z</time>
      </trkpt>
      <trkpt lat="49.61497" lon="-1.4361">
        <ele>58.566405</ele>
        <time>2022-07-30T11:45:41.000Z</time>
      </trkpt>
      <trkpt lat="49.61494" lon="-1.43605">
        <ele>58.467195</ele>
        <time>2022-07-30T11:45:42.000Z</time>
      </trkpt>
      <trkpt lat="49.61491" lon="-1.43601">
        <ele>58.363937</ele>
        <time>2022-07-30T11:45:43.000Z</time>
      </trkpt>
      <trkpt lat="49.61487" lon="-1.43596">
        <ele>58.244765</ele>
        <time>2022-07-30T11:45:44.000Z</time>
      </trkpt>
      <trkpt lat="49.61484" lon="-1.43591">
        <ele>58.119599</ele>
        <time>2022-07-30T11:45:45.000Z</time>
      </trkpt>
      <trkpt lat="49.6148" lon="-1.43584">
        <ele>57.979954</ele>
        <time>2022-07-30T11:45:46.000Z</time>
      </trkpt>
      <trkpt lat="49.61476" lon="-1.43577">
        <ele>57.837718</ele>
        <time>2022-07-30T11:45:47.000Z</time>
      </trkpt>
      <trkpt lat="49.61472" lon="-1.43569">
        <ele>57.670169</ele>
        <time>2022-07-30T11:45:48.000Z</time>
      </trkpt>
      <trkpt lat="49.61469" lon="-1.43559">
        <ele>57.492968</ele>
        <time>2022-07-30T11:45:49.000Z</time>
      </trkpt>
      <trkpt lat="49.61466" lon="-1.43548">
        <ele>57.298944</ele>
        <time>2022-07-30T11:45:50.000Z</time>
      </trkpt>
      <trkpt lat="49.61464" lon="-1.43536">
        <ele>57.10142</ele>
        <time>2022-07-30T11:45:51.000Z</time>
      </trkpt>
      <trkpt lat="49.61461" lon="-1.43525">
        <ele>56.899905</ele>
        <time>2022-07-30T11:45:52.000Z</time>
      </trkpt>
      <trkpt lat="49.61458" lon="-1.43514">
        <ele>56.713326</ele>
        <time>2022-07-30T11:45:53.000Z</time>
      </trkpt>
      <trkpt lat="49.61454" lon="-1.43504">
        <ele>56.536124</ele>
        <time>2022-07-30T11:45:54.000Z</time>
      </trkpt>
      <trkpt lat="49.61451" lon="-1.43496">
        <ele>56.371387</ele>
        <time>2022-07-30T11:45:55.000Z</time>
      </trkpt>
      <trkpt lat="49.61447" lon="-1.43487">
        <ele>56.201203</ele>
        <time>2022-07-30T11:45:56.000Z</time>
      </trkpt>
      <trkpt lat="49.61443" lon="-1.43479">
        <ele>56.040331</ele>
        <time>2022-07-30T11:45:57.000Z</time>
      </trkpt>
      <trkpt lat="49.61439" lon="-1.43471">
        <ele>55.874693</ele>
        <time>2022-07-30T11:45:58.000Z</time>
      </trkpt>
      <trkpt lat="49.61435" lon="-1.43463">
        <ele>55.714169</ele>
        <time>2022-07-30T11:45:59.000Z</time>
      </trkpt>
      <trkpt lat="49.6143" lon="-1.43456">
        <ele>55.54522</ele>
        <time>2022-07-30T11:46:00.000Z</time>
      </trkpt>
      <trkpt lat="49.61426" lon="-1.43448">
        <ele>55.379003</ele>
        <time>2022-07-30T11:46:01.000Z</time>
      </trkpt>
      <trkpt lat="49.61421" lon="-1.4344">
        <ele>55.193707</ele>
        <time>2022-07-30T11:46:02.000Z</time>
      </trkpt>
      <trkpt lat="49.61418" lon="-1.43432">
        <ele>55.02906</ele>
        <time>2022-07-30T11:46:03.000Z</time>
      </trkpt>
      <trkpt lat="49.61415" lon="-1.43423">
        <ele>54.863517</ele>
        <time>2022-07-30T11:46:04.000Z</time>
      </trkpt>
      <trkpt lat="49.61413" lon="-1.43414">
        <ele>54.707032</ele>
        <time>2022-07-30T11:46:05.000Z</time>
      </trkpt>
      <trkpt lat="49.61414" lon="-1.43405">
        <ele>54.558369</ele>
        <time>2022-07-30T11:46:06.000Z</time>
      </trkpt>
      <trkpt lat="49.61415" lon="-1.43397">
        <ele>54.416819</ele>
        <time>2022-07-30T11:46:07.000Z</time>
      </trkpt>
      <trkpt lat="49.61419" lon="-1.4339">
        <ele>54.266245</ele>
        <time>2022-07-30T11:46:08.000Z</time>
      </trkpt>
      <trkpt lat="49.61422" lon="-1.43383">
        <ele>54.120629</ele>
        <time>2022-07-30T11:46:09.000Z</time>
      </trkpt>
      <trkpt lat="49.61426" lon="-1.43376">
        <ele>53.973832</ele>
        <time>2022-07-30T11:46:10.000Z</time>
      </trkpt>
      <trkpt lat="49.61429" lon="-1.4337">
        <ele>53.845615</ele>
        <time>2022-07-30T11:46:11.000Z</time>
      </trkpt>
      <trkpt lat="49.61432" lon="-1.43364">
        <ele>53.706466</ele>
        <time>2022-07-30T11:46:12.000Z</time>
      </trkpt>
      <trkpt lat="49.61435" lon="-1.43358">
        <ele>53.578249</ele>
        <time>2022-07-30T11:46:13.000Z</time>
      </trkpt>
      <trkpt lat="49.61439" lon="-1.43351">
        <ele>53.436536</ele>
        <time>2022-07-30T11:46:14.000Z</time>
      </trkpt>
      <trkpt lat="49.61442" lon="-1.43345">
        <ele>53.297387</ele>
        <time>2022-07-30T11:46:15.000Z</time>
      </trkpt>
      <trkpt lat="49.61445" lon="-1.43338">
        <ele>53.162283</ele>
        <time>2022-07-30T11:46:16.000Z</time>
      </trkpt>
      <trkpt lat="49.61449" lon="-1.43332">
        <ele>53.023134</ele>
        <time>2022-07-30T11:46:17.000Z</time>
      </trkpt>
      <trkpt lat="49.61452" lon="-1.43326">
        <ele>52.89283</ele>
        <time>2022-07-30T11:46:18.000Z</time>
      </trkpt>
      <trkpt lat="49.61455" lon="-1.4332">
        <ele>52.763816</ele>
        <time>2022-07-30T11:46:19.000Z</time>
      </trkpt>
      <trkpt lat="49.61458" lon="-1.43314">
        <ele>52.636084</ele>
        <time>2022-07-30T11:46:20.000Z</time>
      </trkpt>
      <trkpt lat="49.61462" lon="-1.43308">
        <ele>52.498969</ele>
        <time>2022-07-30T11:46:21.000Z</time>
      </trkpt>
      <trkpt lat="49.61465" lon="-1.43302">
        <ele>52.379032</ele>
        <time>2022-07-30T11:46:22.000Z</time>
      </trkpt>
      <trkpt lat="49.61468" lon="-1.43297">
        <ele>52.260133</ele>
        <time>2022-07-30T11:46:23.000Z</time>
      </trkpt>
      <trkpt lat="49.6147" lon="-1.43291">
        <ele>52.138884</ele>
        <time>2022-07-30T11:46:24.000Z</time>
      </trkpt>
      <trkpt lat="49.61472" lon="-1.43284">
        <ele>52.022367</ele>
        <time>2022-07-30T11:46:25.000Z</time>
      </trkpt>
      <trkpt lat="49.61472" lon="-1.43278">
        <ele>51.91812</ele>
        <time>2022-07-30T11:46:26.000Z</time>
      </trkpt>
      <trkpt lat="49.61471" lon="-1.43272">
        <ele>51.809362</ele>
        <time>2022-07-30T11:46:27.000Z</time>
      </trkpt>
      <trkpt lat="49.6147" lon="-1.43265">
        <ele>51.699273</ele>
        <time>2022-07-30T11:46:28.000Z</time>
      </trkpt>
      <trkpt lat="49.61469" lon="-1.43259">
        <ele>51.582685</ele>
        <time>2022-07-30T11:46:29.000Z</time>
      </trkpt>
      <trkpt lat="49.61468" lon="-1.43252">
        <ele>51.468623</ele>
        <time>2022-07-30T11:46:30.000Z</time>
      </trkpt>
      <trkpt lat="49.61466" lon="-1.43246">
        <ele>51.345992</ele>
        <time>2022-07-30T11:46:31.000Z</time>
      </trkpt>
      <trkpt lat="49.61464" lon="-1.43239">
        <ele>51.229404</ele>
        <time>2022-07-30T11:46:32.000Z</time>
      </trkpt>
      <trkpt lat="49.61462" lon="-1.43233">
        <ele>51.112815</ele>
        <time>2022-07-30T11:46:33.000Z</time>
      </trkpt>
      <trkpt lat="49.61461" lon="-1.43226">
        <ele>51.053639</ele>
        <time>2022-07-30T11:46:34.000Z</time>
      </trkpt>
      <trkpt lat="49.6146" lon="-1.43218">
        <ele>51.036491</ele>
        <time>2022-07-30T11:46:35.000Z</time>
      </trkpt>
      <trkpt lat="49.6146" lon="-1.43212">
        <ele>51.020362</ele>
        <time>2022-07-30T11:46:36.000Z</time>
      </trkpt>
      <trkpt lat="49.61459" lon="-1.43204">
        <ele>51.00298</ele>
        <time>2022-07-30T11:46:37.000Z</time>
      </trkpt>
      <trkpt lat="49.61459" lon="-1.43197">
        <ele>50.986681</ele>
        <time>2022-07-30T11:46:38.000Z</time>
      </trkpt>
      <trkpt lat="49.6146" lon="-1.4319">
        <ele>50.969299</ele>
        <time>2022-07-30T11:46:39.000Z</time>
      </trkpt>
      <trkpt lat="49.6146" lon="-1.43183">
        <ele>50.952229</ele>
        <time>2022-07-30T11:46:40.000Z</time>
      </trkpt>
      <trkpt lat="49.61461" lon="-1.43176">
        <ele>50.936129</ele>
        <time>2022-07-30T11:46:41.000Z</time>
      </trkpt>
      <trkpt lat="49.61462" lon="-1.43169">
        <ele>50.919382</ele>
        <time>2022-07-30T11:46:42.000Z</time>
      </trkpt>
      <trkpt lat="49.61462" lon="-1.43163">
        <ele>50.903405</ele>
        <time>2022-07-30T11:46:43.000Z</time>
      </trkpt>
      <trkpt lat="49.61463" lon="-1.43156">
        <ele>50.888363</ele>
        <time>2022-07-30T11:46:44.000Z</time>
      </trkpt>
      <trkpt lat="49.61464" lon="-1.4315">
        <ele>50.872812</ele>
        <time>2022-07-30T11:46:45.000Z</time>
      </trkpt>
      <trkpt lat="49.61465" lon="-1.43144">
        <ele>50.858238</ele>
        <time>2022-07-30T11:46:46.000Z</time>
      </trkpt>
      <trkpt lat="49.61466" lon="-1.43137">
        <ele>50.842457</ele>
        <time>2022-07-30T11:46:47.000Z</time>
      </trkpt>
      <trkpt lat="49.61466" lon="-1.43131">
        <ele>50.82648</ele>
        <time>2022-07-30T11:46:48.000Z</time>
      </trkpt>
      <trkpt lat="49.61467" lon="-1.43124">
        <ele>50.810216</ele>
        <time>2022-07-30T11:46:49.000Z</time>
      </trkpt>
      <trkpt lat="49.61468" lon="-1.43117">
        <ele>50.794053</ele>
        <time>2022-07-30T11:46:50.000Z</time>
      </trkpt>
      <trkpt lat="49.61469" lon="-1.43111">
        <ele>50.779187</ele>
        <time>2022-07-30T11:46:51.000Z</time>
      </trkpt>
      <trkpt lat="49.6147" lon="-1.43104">
        <ele>50.762892</ele>
        <time>2022-07-30T11:46:52.000Z</time>
      </trkpt>
      <trkpt lat="49.6147" lon="-1.43097">
        <ele>50.746447</ele>
        <time>2022-07-30T11:46:53.000Z</time>
      </trkpt>
      <trkpt lat="49.61471" lon="-1.4309">
        <ele>50.729768</ele>
        <time>2022-07-30T11:46:54.000Z</time>
      </trkpt>
      <trkpt lat="49.61472" lon="-1.43083">
        <ele>50.71234</ele>
        <time>2022-07-30T11:46:55.000Z</time>
      </trkpt>
      <trkpt lat="49.61473" lon="-1.43075">
        <ele>50.693505</ele>
        <time>2022-07-30T11:46:56.000Z</time>
      </trkpt>
      <trkpt lat="49.61474" lon="-1.43067">
        <ele>50.674325</ele>
        <time>2022-07-30T11:46:57.000Z</time>
      </trkpt>
      <trkpt lat="49.61474" lon="-1.43059">
        <ele>50.653981</ele>
        <time>2022-07-30T11:46:58.000Z</time>
      </trkpt>
      <trkpt lat="49.61475" lon="-1.4305">
        <ele>50.632569</ele>
        <time>2022-07-30T11:46:59.000Z</time>
      </trkpt>
      <trkpt lat="49.61475" lon="-1.43041">
        <ele>50.61081</ele>
        <time>2022-07-30T11:47:00.000Z</time>
      </trkpt>
      <trkpt lat="49.61474" lon="-1.43031">
        <ele>50.589029</ele>
        <time>2022-07-30T11:47:01.000Z</time>
      </trkpt>
      <trkpt lat="49.61474" lon="-1.43022">
        <ele>50.567422</ele>
        <time>2022-07-30T11:47:02.000Z</time>
      </trkpt>
      <trkpt lat="49.61472" lon="-1.43013">
        <ele>50.545871</ele>
        <time>2022-07-30T11:47:03.000Z</time>
      </trkpt>
      <trkpt lat="49.61471" lon="-1.43004">
        <ele>50.52409</ele>
        <time>2022-07-30T11:47:04.000Z</time>
      </trkpt>
      <trkpt lat="49.6147" lon="-1.42996">
        <ele>50.504002</ele>
        <time>2022-07-30T11:47:05.000Z</time>
      </trkpt>
      <trkpt lat="49.61469" lon="-1.42988">
        <ele>50.484519</ele>
        <time>2022-07-30T11:47:06.000Z</time>
      </trkpt>
      <trkpt lat="49.61467" lon="-1.4298">
        <ele>50.465418</ele>
        <time>2022-07-30T11:47:07.000Z</time>
      </trkpt>
      <trkpt lat="49.61466" lon="-1.42973">
        <ele>50.447793</ele>
        <time>2022-07-30T11:47:08.000Z</time>
      </trkpt>
      <trkpt lat="49.61466" lon="-1.42966">
        <ele>50.430043</ele>
        <time>2022-07-30T11:47:09.000Z</time>
      </trkpt>
      <trkpt lat="49.61465" lon="-1.42958">
        <ele>50.411493</ele>
        <time>2022-07-30T11:47:10.000Z</time>
      </trkpt>
      <trkpt lat="49.61464" lon="-1.42951">
        <ele>50.525226</ele>
        <time>2022-07-30T11:47:11.000Z</time>
      </trkpt>
      <trkpt lat="49.61463" lon="-1.42944">
        <ele>50.656194</ele>
        <time>2022-07-30T11:47:12.000Z</time>
      </trkpt>
      <trkpt lat="49.61462" lon="-1.42937">
        <ele>50.776715</ele>
        <time>2022-07-30T11:47:13.000Z</time>
      </trkpt>
      <trkpt lat="49.61462" lon="-1.42931">
        <ele>50.900983</ele>
        <time>2022-07-30T11:47:14.000Z</time>
      </trkpt>
      <trkpt lat="49.61461" lon="-1.42924">
        <ele>51.03012</ele>
        <time>2022-07-30T11:47:15.000Z</time>
      </trkpt>
      <trkpt lat="49.6146" lon="-1.42918">
        <ele>51.152516</ele>
        <time>2022-07-30T11:47:16.000Z</time>
      </trkpt>
      <trkpt lat="49.61459" lon="-1.42912">
        <ele>51.262834</ele>
        <time>2022-07-30T11:47:17.000Z</time>
      </trkpt>
      <trkpt lat="49.61458" lon="-1.42907">
        <ele>51.364713</ele>
        <time>2022-07-30T11:47:18.000Z</time>
      </trkpt>
      <trkpt lat="49.61458" lon="-1.42901">
        <ele>51.468381</ele>
        <time>2022-07-30T11:47:19.000Z</time>
      </trkpt>
      <trkpt lat="49.61458" lon="-1.42896">
        <ele>51.573562</ele>
        <time>2022-07-30T11:47:20.000Z</time>
      </trkpt>
      <trkpt lat="49.61458" lon="-1.4289">
        <ele>51.680621</ele>
        <time>2022-07-30T11:47:21.000Z</time>
      </trkpt>
      <trkpt lat="49.61458" lon="-1.42884">
        <ele>51.789559</ele>
        <time>2022-07-30T11:47:22.000Z</time>
      </trkpt>
      <trkpt lat="49.61458" lon="-1.42879">
        <ele>51.891355</ele>
        <time>2022-07-30T11:47:23.000Z</time>
      </trkpt>
      <trkpt lat="49.61458" lon="-1.42874">
        <ele>51.988711</ele>
        <time>2022-07-30T11:47:24.000Z</time>
      </trkpt>
      <trkpt lat="49.61457" lon="-1.42869">
        <ele>52.078685</ele>
        <time>2022-07-30T11:47:25.000Z</time>
      </trkpt>
      <trkpt lat="49.61458" lon="-1.42864">
        <ele>52.183442</ele>
        <time>2022-07-30T11:47:26.000Z</time>
      </trkpt>
      <trkpt lat="49.61458" lon="-1.42858">
        <ele>52.283368</ele>
        <time>2022-07-30T11:47:27.000Z</time>
      </trkpt>
      <trkpt lat="49.61459" lon="-1.42853">
        <ele>52.379446</ele>
        <time>2022-07-30T11:47:28.000Z</time>
      </trkpt>
      <trkpt lat="49.61459" lon="-1.42847">
        <ele>52.491619</ele>
        <time>2022-07-30T11:47:29.000Z</time>
      </trkpt>
      <trkpt lat="49.61459" lon="-1.42841">
        <ele>52.609947</ele>
        <time>2022-07-30T11:47:30.000Z</time>
      </trkpt>
      <trkpt lat="49.61459" lon="-1.42836">
        <ele>52.709873</ele>
        <time>2022-07-30T11:47:31.000Z</time>
      </trkpt>
      <trkpt lat="49.61459" lon="-1.42831">
        <ele>52.804186</ele>
        <time>2022-07-30T11:47:32.000Z</time>
      </trkpt>
      <trkpt lat="49.61458" lon="-1.42826">
        <ele>52.898811</ele>
        <time>2022-07-30T11:47:33.000Z</time>
      </trkpt>
      <trkpt lat="49.61459" lon="-1.42821">
        <ele>52.991572</ele>
        <time>2022-07-30T11:47:34.000Z</time>
      </trkpt>
      <trkpt lat="49.61459" lon="-1.42816">
        <ele>53.078407</ele>
        <time>2022-07-30T11:47:35.000Z</time>
      </trkpt>
      <trkpt lat="49.61459" lon="-1.42812">
        <ele>53.162927</ele>
        <time>2022-07-30T11:47:36.000Z</time>
      </trkpt>
      <trkpt lat="49.61459" lon="-1.42807">
        <ele>53.24557</ele>
        <time>2022-07-30T11:47:37.000Z</time>
      </trkpt>
      <trkpt lat="49.61459" lon="-1.42803">
        <ele>53.3268</ele>
        <time>2022-07-30T11:47:38.000Z</time>
      </trkpt>
      <trkpt lat="49.61458" lon="-1.42799">
        <ele>53.402819</ele>
        <time>2022-07-30T11:47:39.000Z</time>
      </trkpt>
      <trkpt lat="49.61458" lon="-1.42796">
        <ele>53.459166</ele>
        <time>2022-07-30T11:47:40.000Z</time>
      </trkpt>
      <trkpt lat="49.61458" lon="-1.42793">
        <ele>53.51618</ele>
        <time>2022-07-30T11:47:43.000Z</time>
      </trkpt>
      <trkpt lat="49.61456" lon="-1.42783">
        <ele>53.709645</ele>
        <time>2022-07-30T11:48:01.000Z</time>
      </trkpt>
      <trkpt lat="49.61456" lon="-1.42779">
        <ele>53.795937</ele>
        <time>2022-07-30T11:48:02.000Z</time>
      </trkpt>
      <trkpt lat="49.61455" lon="-1.42774">
        <ele>53.890638</ele>
        <time>2022-07-30T11:48:03.000Z</time>
      </trkpt>
      <trkpt lat="49.61454" lon="-1.42769">
        <ele>53.97693</ele>
        <time>2022-07-30T11:48:04.000Z</time>
      </trkpt>
      <trkpt lat="49.61454" lon="-1.42764">
        <ele>54.069373</ele>
        <time>2022-07-30T11:48:05.000Z</time>
      </trkpt>
      <trkpt lat="49.61453" lon="-1.4276">
        <ele>54.167087</ele>
        <time>2022-07-30T11:48:06.000Z</time>
      </trkpt>
      <trkpt lat="49.61451" lon="-1.42755">
        <ele>54.259629</ele>
        <time>2022-07-30T11:48:07.000Z</time>
      </trkpt>
      <trkpt lat="49.61451" lon="-1.42751">
        <ele>54.340859</ele>
        <time>2022-07-30T11:48:08.000Z</time>
      </trkpt>
      <trkpt lat="49.6145" lon="-1.42747">
        <ele>54.416869</ele>
        <time>2022-07-30T11:48:09.000Z</time>
      </trkpt>
      <trkpt lat="49.6145" lon="-1.42743">
        <ele>54.48877</ele>
        <time>2022-07-30T11:48:10.000Z</time>
      </trkpt>
      <trkpt lat="49.61449" lon="-1.42739">
        <ele>54.564762</ele>
        <time>2022-07-30T11:48:11.000Z</time>
      </trkpt>
      <trkpt lat="49.61448" lon="-1.42735">
        <ele>54.64354</ele>
        <time>2022-07-30T11:48:12.000Z</time>
      </trkpt>
      <trkpt lat="49.61447" lon="-1.42731">
        <ele>54.724068</ele>
        <time>2022-07-30T11:48:13.000Z</time>
      </trkpt>
      <trkpt lat="49.61446" lon="-1.42728">
        <ele>54.79753</ele>
        <time>2022-07-30T11:48:14.000Z</time>
      </trkpt>
      <trkpt lat="49.61446" lon="-1.42724">
        <ele>54.874647</ele>
        <time>2022-07-30T11:48:15.000Z</time>
      </trkpt>
      <trkpt lat="49.61445" lon="-1.4272">
        <ele>54.952468</ele>
        <time>2022-07-30T11:48:16.000Z</time>
      </trkpt>
      <trkpt lat="49.61445" lon="-1.42716">
        <ele>55.027598</ele>
        <time>2022-07-30T11:48:17.000Z</time>
      </trkpt>
      <trkpt lat="49.61445" lon="-1.42712">
        <ele>55.103229</ele>
        <time>2022-07-30T11:48:18.000Z</time>
      </trkpt>
      <trkpt lat="49.61445" lon="-1.42707">
        <ele>55.182593</ele>
        <time>2022-07-30T11:48:19.000Z</time>
      </trkpt>
      <trkpt lat="49.61444" lon="-1.42704">
        <ele>55.256794</ele>
        <time>2022-07-30T11:48:20.000Z</time>
      </trkpt>
      <trkpt lat="49.61444" lon="-1.427">
        <ele>55.331924</ele>
        <time>2022-07-30T11:48:21.000Z</time>
      </trkpt>
      <trkpt lat="49.61444" lon="-1.42696">
        <ele>55.403297</ele>
        <time>2022-07-30T11:48:22.000Z</time>
      </trkpt>
      <trkpt lat="49.61444" lon="-1.42692">
        <ele>55.476548</ele>
        <time>2022-07-30T11:48:23.000Z</time>
      </trkpt>
      <trkpt lat="49.61443" lon="-1.42688">
        <ele>55.553664</ele>
        <time>2022-07-30T11:48:24.000Z</time>
      </trkpt>
      <trkpt lat="49.61443" lon="-1.42684">
        <ele>55.621281</ele>
        <time>2022-07-30T11:48:25.000Z</time>
      </trkpt>
      <trkpt lat="49.61443" lon="-1.4268">
        <ele>55.751658</ele>
        <time>2022-07-30T11:48:26.000Z</time>
      </trkpt>
      <trkpt lat="49.61443" lon="-1.42677">
        <ele>55.879696</ele>
        <time>2022-07-30T11:48:27.000Z</time>
      </trkpt>
      <trkpt lat="49.61444" lon="-1.42673">
        <ele>56.014775</ele>
        <time>2022-07-30T11:48:28.000Z</time>
      </trkpt>
      <trkpt lat="49.61445" lon="-1.42669">
        <ele>56.140023</ele>
        <time>2022-07-30T11:48:29.000Z</time>
      </trkpt>
      <trkpt lat="49.61446" lon="-1.42665">
        <ele>56.281346</ele>
        <time>2022-07-30T11:48:30.000Z</time>
      </trkpt>
      <trkpt lat="49.61446" lon="-1.42661">
        <ele>56.417022</ele>
        <time>2022-07-30T11:48:31.000Z</time>
      </trkpt>
      <trkpt lat="49.61447" lon="-1.42658">
        <ele>56.548807</ele>
        <time>2022-07-30T11:48:32.000Z</time>
      </trkpt>
      <trkpt lat="49.61447" lon="-1.42654">
        <ele>56.677792</ele>
        <time>2022-07-30T11:48:33.000Z</time>
      </trkpt>
      <trkpt lat="49.61448" lon="-1.4265">
        <ele>56.812871</ele>
        <time>2022-07-30T11:48:34.000Z</time>
      </trkpt>
      <trkpt lat="49.61449" lon="-1.42646">
        <ele>56.941385</ele>
        <time>2022-07-30T11:48:35.000Z</time>
      </trkpt>
      <trkpt lat="49.61449" lon="-1.42643">
        <ele>57.064805</ele>
        <time>2022-07-30T11:48:36.000Z</time>
      </trkpt>
      <trkpt lat="49.6145" lon="-1.42639">
        <ele>57.190052</ele>
        <time>2022-07-30T11:48:37.000Z</time>
      </trkpt>
      <trkpt lat="49.61451" lon="-1.42636">
        <ele>57.318939</ele>
        <time>2022-07-30T11:48:38.000Z</time>
      </trkpt>
      <trkpt lat="49.61451" lon="-1.42632">
        <ele>57.437895</ele>
        <time>2022-07-30T11:48:39.000Z</time>
      </trkpt>
      <trkpt lat="49.61453" lon="-1.42629">
        <ele>57.579714</ele>
        <time>2022-07-30T11:48:40.000Z</time>
      </trkpt>
      <trkpt lat="49.61453" lon="-1.42625">
        <ele>57.698671</ele>
        <time>2022-07-30T11:48:41.000Z</time>
      </trkpt>
      <trkpt lat="49.61454" lon="-1.42621">
        <ele>57.83375</ele>
        <time>2022-07-30T11:48:42.000Z</time>
      </trkpt>
      <trkpt lat="49.61455" lon="-1.42618">
        <ele>57.963765</ele>
        <time>2022-07-30T11:48:43.000Z</time>
      </trkpt>
      <trkpt lat="49.61456" lon="-1.42614">
        <ele>58.098844</ele>
        <time>2022-07-30T11:48:44.000Z</time>
      </trkpt>
      <trkpt lat="49.61456" lon="-1.4261">
        <ele>58.230629</ele>
        <time>2022-07-30T11:48:45.000Z</time>
      </trkpt>
      <trkpt lat="49.61457" lon="-1.42606">
        <ele>58.370234</ele>
        <time>2022-07-30T11:48:46.000Z</time>
      </trkpt>
      <trkpt lat="49.61458" lon="-1.42602">
        <ele>58.509727</ele>
        <time>2022-07-30T11:48:47.000Z</time>
      </trkpt>
      <trkpt lat="49.61459" lon="-1.42598">
        <ele>58.649333</ele>
        <time>2022-07-30T11:48:48.000Z</time>
      </trkpt>
      <trkpt lat="49.61459" lon="-1.42595">
        <ele>58.781117</ele>
        <time>2022-07-30T11:48:49.000Z</time>
      </trkpt>
      <trkpt lat="49.61461" lon="-1.42591">
        <ele>58.925906</ele>
        <time>2022-07-30T11:48:50.000Z</time>
      </trkpt>
      <trkpt lat="49.61461" lon="-1.42587">
        <ele>59.05442</ele>
        <time>2022-07-30T11:48:51.000Z</time>
      </trkpt>
      <trkpt lat="49.61462" lon="-1.42583">
        <ele>59.199209</ele>
        <time>2022-07-30T11:48:52.000Z</time>
      </trkpt>
      <trkpt lat="49.61464" lon="-1.42579">
        <ele>59.349989</ele>
        <time>2022-07-30T11:48:53.000Z</time>
      </trkpt>
      <trkpt lat="49.61465" lon="-1.42575">
        <ele>59.492661</ele>
        <time>2022-07-30T11:48:54.000Z</time>
      </trkpt>
      <trkpt lat="49.61465" lon="-1.42571">
        <ele>59.629033</ele>
        <time>2022-07-30T11:48:55.000Z</time>
      </trkpt>
      <trkpt lat="49.61466" lon="-1.42567">
        <ele>59.771704</ele>
        <time>2022-07-30T11:48:56.000Z</time>
      </trkpt>
      <trkpt lat="49.61467" lon="-1.42563">
        <ele>59.908059</ele>
        <time>2022-07-30T11:48:57.000Z</time>
      </trkpt>
      <trkpt lat="49.61467" lon="-1.42559">
        <ele>60.047083</ele>
        <time>2022-07-30T11:48:58.000Z</time>
      </trkpt>
      <trkpt lat="49.61468" lon="-1.42555">
        <ele>60.185423</ele>
        <time>2022-07-30T11:48:59.000Z</time>
      </trkpt>
      <trkpt lat="49.61468" lon="-1.42551">
        <ele>60.321779</ele>
        <time>2022-07-30T11:49:00.000Z</time>
      </trkpt>
      <trkpt lat="49.61469" lon="-1.42548">
        <ele>60.447026</ele>
        <time>2022-07-30T11:49:01.000Z</time>
      </trkpt>
      <trkpt lat="49.6147" lon="-1.42544">
        <ele>60.588348</ele>
        <time>2022-07-30T11:49:02.000Z</time>
      </trkpt>
      <trkpt lat="49.6147" lon="-1.4254">
        <ele>60.720132</ele>
        <time>2022-07-30T11:49:03.000Z</time>
      </trkpt>
      <trkpt lat="49.61471" lon="-1.42536">
        <ele>60.849116</ele>
        <time>2022-07-30T11:49:04.000Z</time>
      </trkpt>
      <trkpt lat="49.61471" lon="-1.42532">
        <ele>60.998188</ele>
        <time>2022-07-30T11:49:05.000Z</time>
      </trkpt>
      <trkpt lat="49.61472" lon="-1.42528">
        <ele>61.141049</ele>
        <time>2022-07-30T11:49:06.000Z</time>
      </trkpt>
      <trkpt lat="49.61472" lon="-1.42523">
        <ele>61.295849</ele>
        <time>2022-07-30T11:49:07.000Z</time>
      </trkpt>
      <trkpt lat="49.61474" lon="-1.42519">
        <ele>61.452683</ele>
        <time>2022-07-30T11:49:08.000Z</time>
      </trkpt>
      <trkpt lat="49.61474" lon="-1.42515">
        <ele>61.597596</ele>
        <time>2022-07-30T11:49:09.000Z</time>
      </trkpt>
      <trkpt lat="49.61475" lon="-1.42511">
        <ele>61.743966</ele>
        <time>2022-07-30T11:49:10.000Z</time>
      </trkpt>
      <trkpt lat="49.61475" lon="-1.42506">
        <ele>61.889687</ele>
        <time>2022-07-30T11:49:11.000Z</time>
      </trkpt>
      <trkpt lat="49.61476" lon="-1.42502">
        <ele>62.041188</ele>
        <time>2022-07-30T11:49:12.000Z</time>
      </trkpt>
      <trkpt lat="49.61476" lon="-1.42498">
        <ele>62.18691</ele>
        <time>2022-07-30T11:49:13.000Z</time>
      </trkpt>
      <trkpt lat="49.61477" lon="-1.42494">
        <ele>62.326515</ele>
        <time>2022-07-30T11:49:14.000Z</time>
      </trkpt>
      <trkpt lat="49.61477" lon="-1.42489">
        <ele>62.471399</ele>
        <time>2022-07-30T11:49:15.000Z</time>
      </trkpt>
      <trkpt lat="49.61477" lon="-1.42485">
        <ele>62.616312</ele>
        <time>2022-07-30T11:49:16.000Z</time>
      </trkpt>
      <trkpt lat="49.61478" lon="-1.42481">
        <ele>62.762434</ele>
        <time>2022-07-30T11:49:17.000Z</time>
      </trkpt>
      <trkpt lat="49.61478" lon="-1.42477">
        <ele>62.901457</ele>
        <time>2022-07-30T11:49:18.000Z</time>
      </trkpt>
      <trkpt lat="49.61479" lon="-1.42473">
        <ele>63.04637</ele>
        <time>2022-07-30T11:49:19.000Z</time>
      </trkpt>
      <trkpt lat="49.6148" lon="-1.42468">
        <ele>63.197137</ele>
        <time>2022-07-30T11:49:20.000Z</time>
      </trkpt>
      <trkpt lat="49.6148" lon="-1.42464">
        <ele>63.345343</ele>
        <time>2022-07-30T11:49:21.000Z</time>
      </trkpt>
      <trkpt lat="49.61481" lon="-1.4246">
        <ele>63.491064</ele>
        <time>2022-07-30T11:49:22.000Z</time>
      </trkpt>
      <trkpt lat="49.61481" lon="-1.42456">
        <ele>63.634099</ele>
        <time>2022-07-30T11:49:23.000Z</time>
      </trkpt>
      <trkpt lat="49.61482" lon="-1.42451">
        <ele>63.779012</ele>
        <time>2022-07-30T11:49:24.000Z</time>
      </trkpt>
      <trkpt lat="49.61482" lon="-1.42447">
        <ele>63.927218</ele>
        <time>2022-07-30T11:49:25.000Z</time>
      </trkpt>
      <trkpt lat="49.61483" lon="-1.42443">
        <ele>64.070253</ele>
        <time>2022-07-30T11:49:26.000Z</time>
      </trkpt>
      <trkpt lat="49.61483" lon="-1.42439">
        <ele>64.209276</ele>
        <time>2022-07-30T11:49:27.000Z</time>
      </trkpt>
      <trkpt lat="49.61484" lon="-1.42434">
        <ele>64.367958</ele>
        <time>2022-07-30T11:49:28.000Z</time>
      </trkpt>
      <trkpt lat="49.61484" lon="-1.4243">
        <ele>64.510993</ele>
        <time>2022-07-30T11:49:29.000Z</time>
      </trkpt>
      <trkpt lat="49.61485" lon="-1.42426">
        <ele>64.668744</ele>
        <time>2022-07-30T11:49:30.000Z</time>
      </trkpt>
      <trkpt lat="49.61486" lon="-1.42421">
        <ele>64.828465</ele>
        <time>2022-07-30T11:49:31.000Z</time>
      </trkpt>
      <trkpt lat="49.61486" lon="-1.42417">
        <ele>64.974187</ele>
        <time>2022-07-30T11:49:32.000Z</time>
      </trkpt>
      <trkpt lat="49.61486" lon="-1.42412">
        <ele>65.037154</ele>
        <time>2022-07-30T11:49:33.000Z</time>
      </trkpt>
      <trkpt lat="49.61487" lon="-1.42408">
        <ele>65.09867</ele>
        <time>2022-07-30T11:49:34.000Z</time>
      </trkpt>
      <trkpt lat="49.61488" lon="-1.42404">
        <ele>65.160676</ele>
        <time>2022-07-30T11:49:35.000Z</time>
      </trkpt>
      <trkpt lat="49.61488" lon="-1.42399">
        <ele>65.222551</ele>
        <time>2022-07-30T11:49:36.000Z</time>
      </trkpt>
      <trkpt lat="49.61488" lon="-1.42395">
        <ele>65.285485</ele>
        <time>2022-07-30T11:49:37.000Z</time>
      </trkpt>
      <trkpt lat="49.61488" lon="-1.4239">
        <ele>65.34842</ele>
        <time>2022-07-30T11:49:38.000Z</time>
      </trkpt>
      <trkpt lat="49.61488" lon="-1.42386">
        <ele>65.406124</ele>
        <time>2022-07-30T11:49:39.000Z</time>
      </trkpt>
      <trkpt lat="49.61488" lon="-1.42382">
        <ele>65.469058</ele>
        <time>2022-07-30T11:49:40.000Z</time>
      </trkpt>
      <trkpt lat="49.61488" lon="-1.42377">
        <ele>65.531992</ele>
        <time>2022-07-30T11:49:41.000Z</time>
      </trkpt>
      <trkpt lat="49.61488" lon="-1.42373">
        <ele>65.593528</ele>
        <time>2022-07-30T11:49:42.000Z</time>
      </trkpt>
      <trkpt lat="49.61488" lon="-1.42368">
        <ele>65.658186</ele>
        <time>2022-07-30T11:49:43.000Z</time>
      </trkpt>
      <trkpt lat="49.61488" lon="-1.42364">
        <ele>65.721452</ele>
        <time>2022-07-30T11:49:44.000Z</time>
      </trkpt>
      <trkpt lat="49.61488" lon="-1.42359">
        <ele>65.787184</ele>
        <time>2022-07-30T11:49:45.000Z</time>
      </trkpt>
      <trkpt lat="49.61487" lon="-1.42355">
        <ele>65.84919</ele>
        <time>2022-07-30T11:49:46.000Z</time>
      </trkpt>
      <trkpt lat="49.61487" lon="-1.4235">
        <ele>65.910725</ele>
        <time>2022-07-30T11:49:47.000Z</time>
      </trkpt>
      <trkpt lat="49.61487" lon="-1.42346">
        <ele>65.973992</ele>
        <time>2022-07-30T11:49:48.000Z</time>
      </trkpt>
      <trkpt lat="49.61487" lon="-1.42342">
        <ele>66.034129</ele>
        <time>2022-07-30T11:49:49.000Z</time>
      </trkpt>
      <trkpt lat="49.61486" lon="-1.42337">
        <ele>66.093223</ele>
        <time>2022-07-30T11:49:50.000Z</time>
      </trkpt>
      <trkpt lat="49.61486" lon="-1.42333">
        <ele>66.150563</ele>
        <time>2022-07-30T11:49:51.000Z</time>
      </trkpt>
      <trkpt lat="49.61486" lon="-1.42329">
        <ele>66.21383</ele>
        <time>2022-07-30T11:49:52.000Z</time>
      </trkpt>
      <trkpt lat="49.61485" lon="-1.42324">
        <ele>66.277193</ele>
        <time>2022-07-30T11:49:53.000Z</time>
      </trkpt>
      <trkpt lat="49.61484" lon="-1.4232">
        <ele>66.34525</ele>
        <time>2022-07-30T11:49:54.000Z</time>
      </trkpt>
      <trkpt lat="49.61484" lon="-1.42316">
        <ele>66.407256</ele>
        <time>2022-07-30T11:49:55.000Z</time>
      </trkpt>
      <trkpt lat="49.61483" lon="-1.42311">
        <ele>66.475624</ele>
        <time>2022-07-30T11:49:56.000Z</time>
      </trkpt>
      <trkpt lat="49.61482" lon="-1.42306">
        <ele>66.543069</ele>
        <time>2022-07-30T11:49:57.000Z</time>
      </trkpt>
      <trkpt lat="49.61482" lon="-1.42302">
        <ele>66.607322</ele>
        <time>2022-07-30T11:49:58.000Z</time>
      </trkpt>
      <trkpt lat="49.61481" lon="-1.42297">
        <ele>66.674317</ele>
        <time>2022-07-30T11:49:59.000Z</time>
      </trkpt>
      <trkpt lat="49.6148" lon="-1.42292">
        <ele>66.73904</ele>
        <time>2022-07-30T11:50:00.000Z</time>
      </trkpt>
      <trkpt lat="49.6148" lon="-1.42288">
        <ele>66.799525</ele>
        <time>2022-07-30T11:50:01.000Z</time>
      </trkpt>
      <trkpt lat="49.6148" lon="-1.42284">
        <ele>66.858619</ele>
        <time>2022-07-30T11:50:02.000Z</time>
      </trkpt>
      <trkpt lat="49.61479" lon="-1.4228">
        <ele>66.917917</ele>
        <time>2022-07-30T11:50:03.000Z</time>
      </trkpt>
      <trkpt lat="49.61478" lon="-1.42275">
        <ele>66.9808</ele>
        <time>2022-07-30T11:50:04.000Z</time>
      </trkpt>
      <trkpt lat="49.61478" lon="-1.42271">
        <ele>67.042316</ele>
        <time>2022-07-30T11:50:05.000Z</time>
      </trkpt>
      <trkpt lat="49.61477" lon="-1.42267">
        <ele>67.100263</ele>
        <time>2022-07-30T11:50:06.000Z</time>
      </trkpt>
      <trkpt lat="49.61477" lon="-1.42263">
        <ele>67.161779</ele>
        <time>2022-07-30T11:50:07.000Z</time>
      </trkpt>
      <trkpt lat="49.61476" lon="-1.42259">
        <ele>67.220873</ele>
        <time>2022-07-30T11:50:08.000Z</time>
      </trkpt>
      <trkpt lat="49.61476" lon="-1.42254">
        <ele>67.281627</ele>
        <time>2022-07-30T11:50:09.000Z</time>
      </trkpt>
      <trkpt lat="49.61476" lon="-1.4225">
        <ele>67.344894</ele>
        <time>2022-07-30T11:50:10.000Z</time>
      </trkpt>
      <trkpt lat="49.61475" lon="-1.42245">
        <ele>67.410758</ele>
        <time>2022-07-30T11:50:11.000Z</time>
      </trkpt>
      <trkpt lat="49.61474" lon="-1.42241">
        <ele>67.475481</ele>
        <time>2022-07-30T11:50:12.000Z</time>
      </trkpt>
      <trkpt lat="49.61473" lon="-1.42236">
        <ele>67.544023</ele>
        <time>2022-07-30T11:50:13.000Z</time>
      </trkpt>
      <trkpt lat="49.61472" lon="-1.42231">
        <ele>67.613208</ele>
        <time>2022-07-30T11:50:14.000Z</time>
      </trkpt>
      <trkpt lat="49.61472" lon="-1.42226">
        <ele>67.687613</ele>
        <time>2022-07-30T11:50:15.000Z</time>
      </trkpt>
      <trkpt lat="49.61471" lon="-1.42221">
        <ele>67.76326</ele>
        <time>2022-07-30T11:50:16.000Z</time>
      </trkpt>
      <trkpt lat="49.61471" lon="-1.42215">
        <ele>67.840452</ele>
        <time>2022-07-30T11:50:17.000Z</time>
      </trkpt>
      <trkpt lat="49.6147" lon="-1.4221">
        <ele>67.917075</ele>
        <time>2022-07-30T11:50:18.000Z</time>
      </trkpt>
      <trkpt lat="49.61469" lon="-1.42205">
        <ele>67.991596</ele>
        <time>2022-07-30T11:50:19.000Z</time>
      </trkpt>
      <trkpt lat="49.61469" lon="-1.42199">
        <ele>68.068219</ele>
        <time>2022-07-30T11:50:20.000Z</time>
      </trkpt>
      <trkpt lat="49.61468" lon="-1.42194">
        <ele>68.145411</ele>
        <time>2022-07-30T11:50:21.000Z</time>
      </trkpt>
      <trkpt lat="49.61468" lon="-1.42188">
        <ele>68.224204</ele>
        <time>2022-07-30T11:50:22.000Z</time>
      </trkpt>
      <trkpt lat="49.61467" lon="-1.42182">
        <ele>68.310336</ele>
        <time>2022-07-30T11:50:23.000Z</time>
      </trkpt>
      <trkpt lat="49.61466" lon="-1.42176">
        <ele>68.394222</ele>
        <time>2022-07-30T11:50:24.000Z</time>
      </trkpt>
      <trkpt lat="49.61466" lon="-1.4217">
        <ele>68.479128</ele>
        <time>2022-07-30T11:50:25.000Z</time>
      </trkpt>
      <trkpt lat="49.61464" lon="-1.42165">
        <ele>68.561007</ele>
        <time>2022-07-30T11:50:26.000Z</time>
      </trkpt>
      <trkpt lat="49.61463" lon="-1.42159">
        <ele>68.646839</ele>
        <time>2022-07-30T11:50:27.000Z</time>
      </trkpt>
      <trkpt lat="49.61462" lon="-1.42153">
        <ele>68.731989</ele>
        <time>2022-07-30T11:50:28.000Z</time>
      </trkpt>
      <trkpt lat="49.6146" lon="-1.42147">
        <ele>68.821439</ele>
        <time>2022-07-30T11:50:29.000Z</time>
      </trkpt>
      <trkpt lat="49.61459" lon="-1.42141">
        <ele>68.860158</ele>
        <time>2022-07-30T11:50:30.000Z</time>
      </trkpt>
      <trkpt lat="49.61457" lon="-1.42135">
        <ele>68.863234</ele>
        <time>2022-07-30T11:50:31.000Z</time>
      </trkpt>
      <trkpt lat="49.61456" lon="-1.42129">
        <ele>68.866236</ele>
        <time>2022-07-30T11:50:32.000Z</time>
      </trkpt>
      <trkpt lat="49.61454" lon="-1.42123">
        <ele>68.869281</ele>
        <time>2022-07-30T11:50:33.000Z</time>
      </trkpt>
      <trkpt lat="49.61453" lon="-1.42116">
        <ele>68.872571</ele>
        <time>2022-07-30T11:50:34.000Z</time>
      </trkpt>
      <trkpt lat="49.61451" lon="-1.42109">
        <ele>68.87599</ele>
        <time>2022-07-30T11:50:35.000Z</time>
      </trkpt>
      <trkpt lat="49.6145" lon="-1.42102">
        <ele>68.879344</ele>
        <time>2022-07-30T11:50:36.000Z</time>
      </trkpt>
      <trkpt lat="49.61448" lon="-1.42095">
        <ele>68.882763</ele>
        <time>2022-07-30T11:50:37.000Z</time>
      </trkpt>
      <trkpt lat="49.61448" lon="-1.42088">
        <ele>68.886153</ele>
        <time>2022-07-30T11:50:38.000Z</time>
      </trkpt>
      <trkpt lat="49.61446" lon="-1.42081">
        <ele>68.889596</ele>
        <time>2022-07-30T11:50:39.000Z</time>
      </trkpt>
      <trkpt lat="49.61446" lon="-1.42073">
        <ele>68.892986</ele>
        <time>2022-07-30T11:50:40.000Z</time>
      </trkpt>
      <trkpt lat="49.61445" lon="-1.42066">
        <ele>68.896517</ele>
        <time>2022-07-30T11:50:41.000Z</time>
      </trkpt>
      <trkpt lat="49.61444" lon="-1.42058">
        <ele>68.900008</ele>
        <time>2022-07-30T11:50:42.000Z</time>
      </trkpt>
      <trkpt lat="49.61443" lon="-1.42051">
        <ele>68.903431</ele>
        <time>2022-07-30T11:50:43.000Z</time>
      </trkpt>
      <trkpt lat="49.61442" lon="-1.42044">
        <ele>68.906785</ele>
        <time>2022-07-30T11:50:44.000Z</time>
      </trkpt>
      <trkpt lat="49.61441" lon="-1.42037">
        <ele>68.910208</ele>
        <time>2022-07-30T11:50:45.000Z</time>
      </trkpt>
      <trkpt lat="49.61441" lon="-1.42029">
        <ele>68.913561</ele>
        <time>2022-07-30T11:50:46.000Z</time>
      </trkpt>
      <trkpt lat="49.6144" lon="-1.42022">
        <ele>68.916931</ele>
        <time>2022-07-30T11:50:47.000Z</time>
      </trkpt>
      <trkpt lat="49.6144" lon="-1.42015">
        <ele>68.920162</ele>
        <time>2022-07-30T11:50:48.000Z</time>
      </trkpt>
      <trkpt lat="49.61439" lon="-1.42009">
        <ele>68.923187</ele>
        <time>2022-07-30T11:50:49.000Z</time>
      </trkpt>
      <trkpt lat="49.61439" lon="-1.42002">
        <ele>68.926313</ele>
        <time>2022-07-30T11:50:50.000Z</time>
      </trkpt>
      <trkpt lat="49.61438" lon="-1.41995">
        <ele>68.929474</ele>
        <time>2022-07-30T11:50:51.000Z</time>
      </trkpt>
      <trkpt lat="49.61438" lon="-1.41988">
        <ele>68.932614</ele>
        <time>2022-07-30T11:50:52.000Z</time>
      </trkpt>
      <trkpt lat="49.61437" lon="-1.41981">
        <ele>68.935871</ele>
        <time>2022-07-30T11:50:53.000Z</time>
      </trkpt>
      <trkpt lat="49.61436" lon="-1.41975">
        <ele>68.938941</ele>
        <time>2022-07-30T11:50:54.000Z</time>
      </trkpt>
      <trkpt lat="49.61435" lon="-1.41968">
        <ele>68.942031</ele>
        <time>2022-07-30T11:50:55.000Z</time>
      </trkpt>
      <trkpt lat="49.61434" lon="-1.41962">
        <ele>68.945066</ele>
        <time>2022-07-30T11:50:56.000Z</time>
      </trkpt>
      <trkpt lat="49.61433" lon="-1.41955">
        <ele>68.948128</ele>
        <time>2022-07-30T11:50:57.000Z</time>
      </trkpt>
      <trkpt lat="49.61433" lon="-1.41949">
        <ele>68.951129</ele>
        <time>2022-07-30T11:50:58.000Z</time>
      </trkpt>
      <trkpt lat="49.61432" lon="-1.41943">
        <ele>68.953938</ele>
        <time>2022-07-30T11:50:59.000Z</time>
      </trkpt>
      <trkpt lat="49.61431" lon="-1.41937">
        <ele>68.956775</ele>
        <time>2022-07-30T11:51:00.000Z</time>
      </trkpt>
      <trkpt lat="49.61431" lon="-1.41932">
        <ele>68.959266</ele>
        <time>2022-07-30T11:51:01.000Z</time>
      </trkpt>
      <trkpt lat="49.6143" lon="-1.41927">
        <ele>68.961579</ele>
        <time>2022-07-30T11:51:02.000Z</time>
      </trkpt>
      <trkpt lat="49.61429" lon="-1.41922">
        <ele>68.964061</ele>
        <time>2022-07-30T11:51:03.000Z</time>
      </trkpt>
      <trkpt lat="49.61429" lon="-1.41917">
        <ele>68.966313</ele>
        <time>2022-07-30T11:51:04.000Z</time>
      </trkpt>
      <trkpt lat="49.61427" lon="-1.41912">
        <ele>68.968795</ele>
        <time>2022-07-30T11:51:05.000Z</time>
      </trkpt>
      <trkpt lat="49.61426" lon="-1.41907">
        <ele>68.971073</ele>
        <time>2022-07-30T11:51:06.000Z</time>
      </trkpt>
      <trkpt lat="49.61425" lon="-1.41902">
        <ele>68.973464</ele>
        <time>2022-07-30T11:51:07.000Z</time>
      </trkpt>
      <trkpt lat="49.61425" lon="-1.41897">
        <ele>68.97591</ele>
        <time>2022-07-30T11:51:08.000Z</time>
      </trkpt>
      <trkpt lat="49.61423" lon="-1.41892">
        <ele>68.97841</ele>
        <time>2022-07-30T11:51:09.000Z</time>
      </trkpt>
      <trkpt lat="49.61423" lon="-1.41887">
        <ele>68.980721</ele>
        <time>2022-07-30T11:51:10.000Z</time>
      </trkpt>
      <trkpt lat="49.61421" lon="-1.41882">
        <ele>68.983033</ele>
        <time>2022-07-30T11:51:11.000Z</time>
      </trkpt>
      <trkpt lat="49.61421" lon="-1.41877">
        <ele>68.98533</ele>
        <time>2022-07-30T11:51:12.000Z</time>
      </trkpt>
      <trkpt lat="49.6142" lon="-1.41872">
        <ele>68.973096</ele>
        <time>2022-07-30T11:51:13.000Z</time>
      </trkpt>
      <trkpt lat="49.61419" lon="-1.41868">
        <ele>68.953117</ele>
        <time>2022-07-30T11:51:14.000Z</time>
      </trkpt>
      <trkpt lat="49.61417" lon="-1.41862">
        <ele>68.930832</ele>
        <time>2022-07-30T11:51:15.000Z</time>
      </trkpt>
      <trkpt lat="49.61417" lon="-1.41858">
        <ele>68.91116</ele>
        <time>2022-07-30T11:51:16.000Z</time>
      </trkpt>
      <trkpt lat="49.61415" lon="-1.41852">
        <ele>68.88909</ele>
        <time>2022-07-30T11:51:17.000Z</time>
      </trkpt>
      <trkpt lat="49.61414" lon="-1.41847">
        <ele>68.867786</ele>
        <time>2022-07-30T11:51:18.000Z</time>
      </trkpt>
      <trkpt lat="49.61413" lon="-1.41842">
        <ele>68.845501</ele>
        <time>2022-07-30T11:51:19.000Z</time>
      </trkpt>
      <trkpt lat="49.61413" lon="-1.41837">
        <ele>68.823989</ele>
        <time>2022-07-30T11:51:20.000Z</time>
      </trkpt>
      <trkpt lat="49.61411" lon="-1.41832">
        <ele>68.801705</ele>
        <time>2022-07-30T11:51:21.000Z</time>
      </trkpt>
      <trkpt lat="49.6141" lon="-1.41826">
        <ele>68.778865</ele>
        <time>2022-07-30T11:51:22.000Z</time>
      </trkpt>
      <trkpt lat="49.61409" lon="-1.41822">
        <ele>68.760512</ele>
        <time>2022-07-30T11:51:23.000Z</time>
      </trkpt>
      <trkpt lat="49.61407" lon="-1.41815">
        <ele>68.731587</ele>
        <time>2022-07-30T11:51:24.000Z</time>
      </trkpt>
      <trkpt lat="49.61406" lon="-1.41809">
        <ele>68.707426</ele>
        <time>2022-07-30T11:51:25.000Z</time>
      </trkpt>
      <trkpt lat="49.61405" lon="-1.41803">
        <ele>68.681484</ele>
        <time>2022-07-30T11:51:26.000Z</time>
      </trkpt>
      <trkpt lat="49.61403" lon="-1.41798">
        <ele>68.65621</ele>
        <time>2022-07-30T11:51:27.000Z</time>
      </trkpt>
      <trkpt lat="49.61401" lon="-1.41792">
        <ele>68.631373</ele>
        <time>2022-07-30T11:51:28.000Z</time>
      </trkpt>
      <trkpt lat="49.61399" lon="-1.41786">
        <ele>68.605104</ele>
        <time>2022-07-30T11:51:29.000Z</time>
      </trkpt>
      <trkpt lat="49.61397" lon="-1.41781">
        <ele>68.580183</ele>
        <time>2022-07-30T11:51:30.000Z</time>
      </trkpt>
      <trkpt lat="49.61395" lon="-1.41776">
        <ele>68.554932</ele>
        <time>2022-07-30T11:51:31.000Z</time>
      </trkpt>
      <trkpt lat="49.61392" lon="-1.4177">
        <ele>68.529094</ele>
        <time>2022-07-30T11:51:32.000Z</time>
      </trkpt>
      <trkpt lat="49.61391" lon="-1.41766">
        <ele>68.509957</ele>
        <time>2022-07-30T11:51:33.000Z</time>
      </trkpt>
      <trkpt lat="49.61388" lon="-1.4176">
        <ele>68.480078</ele>
        <time>2022-07-30T11:51:34.000Z</time>
      </trkpt>
      <trkpt lat="49.61386" lon="-1.41755">
        <ele>68.453499</ele>
        <time>2022-07-30T11:51:35.000Z</time>
      </trkpt>
      <trkpt lat="49.61384" lon="-1.41749">
        <ele>68.429281</ele>
        <time>2022-07-30T11:51:36.000Z</time>
      </trkpt>
      <trkpt lat="49.61382" lon="-1.41744">
        <ele>68.40774</ele>
        <time>2022-07-30T11:51:37.000Z</time>
      </trkpt>
      <trkpt lat="49.61381" lon="-1.41739">
        <ele>68.384564</ele>
        <time>2022-07-30T11:51:38.000Z</time>
      </trkpt>
      <trkpt lat="49.61379" lon="-1.41734">
        <ele>68.361388</ele>
        <time>2022-07-30T11:51:39.000Z</time>
      </trkpt>
      <trkpt lat="49.61377" lon="-1.41729">
        <ele>68.336171</ele>
        <time>2022-07-30T11:51:40.000Z</time>
      </trkpt>
      <trkpt lat="49.61375" lon="-1.41723">
        <ele>68.311251</ele>
        <time>2022-07-30T11:51:41.000Z</time>
      </trkpt>
      <trkpt lat="49.61373" lon="-1.41718">
        <ele>68.286414</ele>
        <time>2022-07-30T11:51:42.000Z</time>
      </trkpt>
      <trkpt lat="49.61372" lon="-1.41712">
        <ele>68.262308</ele>
        <time>2022-07-30T11:51:43.000Z</time>
      </trkpt>
      <trkpt lat="49.61371" lon="-1.41707">
        <ele>68.240788</ele>
        <time>2022-07-30T11:51:44.000Z</time>
      </trkpt>
      <trkpt lat="49.61369" lon="-1.41702">
        <ele>68.219206</ele>
        <time>2022-07-30T11:51:45.000Z</time>
      </trkpt>
      <trkpt lat="49.61368" lon="-1.41697">
        <ele>68.198405</ele>
        <time>2022-07-30T11:51:46.000Z</time>
      </trkpt>
      <trkpt lat="49.61367" lon="-1.41692">
        <ele>68.177865</ele>
        <time>2022-07-30T11:51:47.000Z</time>
      </trkpt>
      <trkpt lat="49.61365" lon="-1.41688">
        <ele>68.157064</ele>
        <time>2022-07-30T11:51:48.000Z</time>
      </trkpt>
      <trkpt lat="49.61365" lon="-1.41683">
        <ele>68.136315</ele>
        <time>2022-07-30T11:51:49.000Z</time>
      </trkpt>
      <trkpt lat="49.61363" lon="-1.41677">
        <ele>68.11403</ele>
        <time>2022-07-30T11:51:50.000Z</time>
      </trkpt>
      <trkpt lat="49.61363" lon="-1.41672">
        <ele>68.091962</ele>
        <time>2022-07-30T11:51:51.000Z</time>
      </trkpt>
      <trkpt lat="49.61362" lon="-1.41666">
        <ele>68.067424</ele>
        <time>2022-07-30T11:51:52.000Z</time>
      </trkpt>
      <trkpt lat="49.61361" lon="-1.4166">
        <ele>68.042653</ele>
        <time>2022-07-30T11:51:53.000Z</time>
      </trkpt>
      <trkpt lat="49.61359" lon="-1.41653">
        <ele>68.01486</ele>
        <time>2022-07-30T11:51:54.000Z</time>
      </trkpt>
      <trkpt lat="49.61358" lon="-1.41647">
        <ele>67.988149</ele>
        <time>2022-07-30T11:51:55.000Z</time>
      </trkpt>
      <trkpt lat="49.61357" lon="-1.4164">
        <ele>67.959801</ele>
        <time>2022-07-30T11:51:56.000Z</time>
      </trkpt>
      <trkpt lat="49.61356" lon="-1.41633">
        <ele>67.930686</ele>
        <time>2022-07-30T11:51:57.000Z</time>
      </trkpt>
      <trkpt lat="49.61355" lon="-1.41626">
        <ele>67.901735</ele>
        <time>2022-07-30T11:51:58.000Z</time>
      </trkpt>
      <trkpt lat="49.61353" lon="-1.41618">
        <ele>67.824777</ele>
        <time>2022-07-30T11:51:59.000Z</time>
      </trkpt>
      <trkpt lat="49.61351" lon="-1.4161">
        <ele>67.579329</ele>
        <time>2022-07-30T11:52:00.000Z</time>
      </trkpt>
      <trkpt lat="49.61349" lon="-1.41602">
        <ele>67.331367</ele>
        <time>2022-07-30T11:52:01.000Z</time>
      </trkpt>
      <trkpt lat="49.61348" lon="-1.41593">
        <ele>67.07152</ele>
        <time>2022-07-30T11:52:02.000Z</time>
      </trkpt>
      <trkpt lat="49.61346" lon="-1.41583">
        <ele>66.796546</ele>
        <time>2022-07-30T11:52:03.000Z</time>
      </trkpt>
      <trkpt lat="49.61344" lon="-1.41573">
        <ele>66.5073</ele>
        <time>2022-07-30T11:52:04.000Z</time>
      </trkpt>
      <trkpt lat="49.61342" lon="-1.41563">
        <ele>66.215367</ele>
        <time>2022-07-30T11:52:05.000Z</time>
      </trkpt>
      <trkpt lat="49.61341" lon="-1.41553">
        <ele>65.913198</ele>
        <time>2022-07-30T11:52:06.000Z</time>
      </trkpt>
      <trkpt lat="49.61338" lon="-1.41542">
        <ele>65.577919</ele>
        <time>2022-07-30T11:52:07.000Z</time>
      </trkpt>
      <trkpt lat="49.61335" lon="-1.41531">
        <ele>65.255421</ele>
        <time>2022-07-30T11:52:08.000Z</time>
      </trkpt>
      <trkpt lat="49.61333" lon="-1.4152">
        <ele>64.931622</ele>
        <time>2022-07-30T11:52:09.000Z</time>
      </trkpt>
      <trkpt lat="49.6133" lon="-1.41509">
        <ele>64.588718</ele>
        <time>2022-07-30T11:52:10.000Z</time>
      </trkpt>
      <trkpt lat="49.61327" lon="-1.41498">
        <ele>64.267441</ele>
        <time>2022-07-30T11:52:11.000Z</time>
      </trkpt>
      <trkpt lat="49.61324" lon="-1.41487">
        <ele>63.937304</ele>
        <time>2022-07-30T11:52:12.000Z</time>
      </trkpt>
      <trkpt lat="49.61321" lon="-1.41476">
        <ele>63.607167</ele>
        <time>2022-07-30T11:52:13.000Z</time>
      </trkpt>
      <trkpt lat="49.61317" lon="-1.41467">
        <ele>63.284985</ele>
        <time>2022-07-30T11:52:14.000Z</time>
      </trkpt>
      <trkpt lat="49.61313" lon="-1.41457">
        <ele>62.953473</ele>
        <time>2022-07-30T11:52:15.000Z</time>
      </trkpt>
      <trkpt lat="49.61309" lon="-1.41447">
        <ele>62.643139</ele>
        <time>2022-07-30T11:52:16.000Z</time>
      </trkpt>
      <trkpt lat="49.61305" lon="-1.41438">
        <ele>62.318697</ele>
        <time>2022-07-30T11:52:17.000Z</time>
      </trkpt>
      <trkpt lat="49.61301" lon="-1.41428">
        <ele>61.996514</ele>
        <time>2022-07-30T11:52:18.000Z</time>
      </trkpt>
      <trkpt lat="49.61297" lon="-1.41418">
        <ele>61.667365</ele>
        <time>2022-07-30T11:52:19.000Z</time>
      </trkpt>
      <trkpt lat="49.61293" lon="-1.41408">
        <ele>61.338207</ele>
        <time>2022-07-30T11:52:20.000Z</time>
      </trkpt>
      <trkpt lat="49.61289" lon="-1.41398">
        <ele>61.008599</ele>
        <time>2022-07-30T11:52:21.000Z</time>
      </trkpt>
      <trkpt lat="49.61286" lon="-1.41388">
        <ele>60.699121</ele>
        <time>2022-07-30T11:52:22.000Z</time>
      </trkpt>
      <trkpt lat="49.61284" lon="-1.41378">
        <ele>60.396569</ele>
        <time>2022-07-30T11:52:23.000Z</time>
      </trkpt>
      <trkpt lat="49.61283" lon="-1.41367">
        <ele>60.10686</ele>
        <time>2022-07-30T11:52:24.000Z</time>
      </trkpt>
      <trkpt lat="49.61283" lon="-1.41357">
        <ele>59.916132</ele>
        <time>2022-07-30T11:52:25.000Z</time>
      </trkpt>
      <trkpt lat="49.61283" lon="-1.41347">
        <ele>59.735271</ele>
        <time>2022-07-30T11:52:26.000Z</time>
      </trkpt>
      <trkpt lat="49.61284" lon="-1.41337">
        <ele>59.557239</ele>
        <time>2022-07-30T11:52:27.000Z</time>
      </trkpt>
      <trkpt lat="49.61284" lon="-1.41327">
        <ele>59.381604</ele>
        <time>2022-07-30T11:52:28.000Z</time>
      </trkpt>
      <trkpt lat="49.61285" lon="-1.41317">
        <ele>59.199691</ele>
        <time>2022-07-30T11:52:29.000Z</time>
      </trkpt>
      <trkpt lat="49.61285" lon="-1.41307">
        <ele>59.016256</ele>
        <time>2022-07-30T11:52:30.000Z</time>
      </trkpt>
      <trkpt lat="49.61286" lon="-1.41297">
        <ele>58.829678</ele>
        <time>2022-07-30T11:52:31.000Z</time>
      </trkpt>
      <trkpt lat="49.61287" lon="-1.41287">
        <ele>58.645213</ele>
        <time>2022-07-30T11:52:32.000Z</time>
      </trkpt>
      <trkpt lat="49.61289" lon="-1.41277">
        <ele>58.45892</ele>
        <time>2022-07-30T11:52:33.000Z</time>
      </trkpt>
      <trkpt lat="49.6129" lon="-1.41267">
        <ele>58.279906</ele>
        <time>2022-07-30T11:52:34.000Z</time>
      </trkpt>
      <trkpt lat="49.61292" lon="-1.41258">
        <ele>58.102379</ele>
        <time>2022-07-30T11:52:35.000Z</time>
      </trkpt>
      <trkpt lat="49.61293" lon="-1.41249">
        <ele>57.9409</ele>
        <time>2022-07-30T11:52:36.000Z</time>
      </trkpt>
      <trkpt lat="49.61294" lon="-1.41241">
        <ele>57.782945</ele>
        <time>2022-07-30T11:52:37.000Z</time>
      </trkpt>
      <trkpt lat="49.61295" lon="-1.41232">
        <ele>57.621466</ele>
        <time>2022-07-30T11:52:38.000Z</time>
      </trkpt>
      <trkpt lat="49.61297" lon="-1.41223">
        <ele>57.459642</ele>
        <time>2022-07-30T11:52:39.000Z</time>
      </trkpt>
      <trkpt lat="49.61298" lon="-1.41214">
        <ele>57.295228</ele>
        <time>2022-07-30T11:52:40.000Z</time>
      </trkpt>
      <trkpt lat="49.613" lon="-1.41205">
        <ele>57.124694</ele>
        <time>2022-07-30T11:52:41.000Z</time>
      </trkpt>
      <trkpt lat="49.61301" lon="-1.41196">
        <ele>56.959544</ele>
        <time>2022-07-30T11:52:42.000Z</time>
      </trkpt>
      <trkpt lat="49.61302" lon="-1.41187">
        <ele>56.794394</ele>
        <time>2022-07-30T11:52:43.000Z</time>
      </trkpt>
      <trkpt lat="49.61303" lon="-1.41179">
        <ele>56.638624</ele>
        <time>2022-07-30T11:52:44.000Z</time>
      </trkpt>
      <trkpt lat="49.61303" lon="-1.4117">
        <ele>56.476477</ele>
        <time>2022-07-30T11:52:45.000Z</time>
      </trkpt>
      <trkpt lat="49.61304" lon="-1.41161">
        <ele>56.312844</ele>
        <time>2022-07-30T11:52:46.000Z</time>
      </trkpt>
      <trkpt lat="49.61304" lon="-1.41152">
        <ele>56.157079</ele>
        <time>2022-07-30T11:52:47.000Z</time>
      </trkpt>
      <trkpt lat="49.61305" lon="-1.41143">
        <ele>55.993712</ele>
        <time>2022-07-30T11:52:48.000Z</time>
      </trkpt>
      <trkpt lat="49.61306" lon="-1.41134">
        <ele>55.828279</ele>
        <time>2022-07-30T11:52:49.000Z</time>
      </trkpt>
      <trkpt lat="49.61307" lon="-1.41125">
        <ele>55.649132</ele>
        <time>2022-07-30T11:52:50.000Z</time>
      </trkpt>
      <trkpt lat="49.61308" lon="-1.41114">
        <ele>55.463896</ele>
        <time>2022-07-30T11:52:51.000Z</time>
      </trkpt>
      <trkpt lat="49.61309" lon="-1.41104">
        <ele>55.270163</ele>
        <time>2022-07-30T11:52:52.000Z</time>
      </trkpt>
      <trkpt lat="49.61309" lon="-1.41093">
        <ele>55.059999</ele>
        <time>2022-07-30T11:52:53.000Z</time>
      </trkpt>
      <trkpt lat="49.6131" lon="-1.41081">
        <ele>54.744305</ele>
        <time>2022-07-30T11:52:54.000Z</time>
      </trkpt>
      <trkpt lat="49.61311" lon="-1.4107">
        <ele>54.416779</ele>
        <time>2022-07-30T11:52:55.000Z</time>
      </trkpt>
      <trkpt lat="49.61312" lon="-1.41058">
        <ele>54.085455</ele>
        <time>2022-07-30T11:52:56.000Z</time>
      </trkpt>
      <trkpt lat="49.61313" lon="-1.41046">
        <ele>53.738163</ele>
        <time>2022-07-30T11:52:57.000Z</time>
      </trkpt>
      <trkpt lat="49.61313" lon="-1.41033">
        <ele>53.388942</ele>
        <time>2022-07-30T11:52:58.000Z</time>
      </trkpt>
      <trkpt lat="49.61314" lon="-1.4102">
        <ele>53.020482</ele>
        <time>2022-07-30T11:52:59.000Z</time>
      </trkpt>
      <trkpt lat="49.61315" lon="-1.41008">
        <ele>52.659742</ele>
        <time>2022-07-30T11:53:00.000Z</time>
      </trkpt>
      <trkpt lat="49.61316" lon="-1.40994">
        <ele>52.272934</ele>
        <time>2022-07-30T11:53:01.000Z</time>
      </trkpt>
      <trkpt lat="49.61317" lon="-1.4098">
        <ele>51.876718</ele>
        <time>2022-07-30T11:53:02.000Z</time>
      </trkpt>
      <trkpt lat="49.61319" lon="-1.40966">
        <ele>51.469569</ele>
        <time>2022-07-30T11:53:03.000Z</time>
      </trkpt>
      <trkpt lat="49.61321" lon="-1.40951">
        <ele>51.065185</ele>
        <time>2022-07-30T11:53:04.000Z</time>
      </trkpt>
      <trkpt lat="49.61322" lon="-1.40936">
        <ele>50.618329</ele>
        <time>2022-07-30T11:53:05.000Z</time>
      </trkpt>
      <trkpt lat="49.61323" lon="-1.40919">
        <ele>50.160339</ele>
        <time>2022-07-30T11:53:06.000Z</time>
      </trkpt>
      <trkpt lat="49.61325" lon="-1.40903">
        <ele>49.687387</ele>
        <time>2022-07-30T11:53:07.000Z</time>
      </trkpt>
      <trkpt lat="49.61328" lon="-1.40887">
        <ele>49.227299</ele>
        <time>2022-07-30T11:53:08.000Z</time>
      </trkpt>
      <trkpt lat="49.61332" lon="-1.40872">
        <ele>48.78586</ele>
        <time>2022-07-30T11:53:09.000Z</time>
      </trkpt>
      <trkpt lat="49.61337" lon="-1.40858">
        <ele>48.330344</ele>
        <time>2022-07-30T11:53:10.000Z</time>
      </trkpt>
      <trkpt lat="49.61342" lon="-1.40846">
        <ele>47.913354</ele>
        <time>2022-07-30T11:53:11.000Z</time>
      </trkpt>
      <trkpt lat="49.61349" lon="-1.40835">
        <ele>47.502727</ele>
        <time>2022-07-30T11:53:12.000Z</time>
      </trkpt>
      <trkpt lat="49.61355" lon="-1.40825">
        <ele>47.426547</ele>
        <time>2022-07-30T11:53:13.000Z</time>
      </trkpt>
      <trkpt lat="49.6136" lon="-1.40816">
        <ele>47.706147</ele>
        <time>2022-07-30T11:53:14.000Z</time>
      </trkpt>
      <trkpt lat="49.61365" lon="-1.40807">
        <ele>47.970362</ele>
        <time>2022-07-30T11:53:15.000Z</time>
      </trkpt>
      <trkpt lat="49.61369" lon="-1.40799">
        <ele>48.217376</ele>
        <time>2022-07-30T11:53:16.000Z</time>
      </trkpt>
      <trkpt lat="49.61373" lon="-1.40792">
        <ele>48.429596</ele>
        <time>2022-07-30T11:53:17.000Z</time>
      </trkpt>
      <trkpt lat="49.61376" lon="-1.40785">
        <ele>48.620064</ele>
        <time>2022-07-30T11:53:18.000Z</time>
      </trkpt>
      <trkpt lat="49.61379" lon="-1.40778">
        <ele>48.785925</ele>
        <time>2022-07-30T11:53:19.000Z</time>
      </trkpt>
      <trkpt lat="49.6138" lon="-1.40773">
        <ele>48.918438</ele>
        <time>2022-07-30T11:53:20.000Z</time>
      </trkpt>
      <trkpt lat="49.61381" lon="-1.40768">
        <ele>49.029509</ele>
        <time>2022-07-30T11:53:21.000Z</time>
      </trkpt>
      <trkpt lat="49.61383" lon="-1.40765">
        <ele>49.128447</ele>
        <time>2022-07-30T11:53:22.000Z</time>
      </trkpt>
      <trkpt lat="49.61383" lon="-1.40762">
        <ele>49.20499</ele>
        <time>2022-07-30T11:53:23.000Z</time>
      </trkpt>
      <trkpt lat="49.61384" lon="-1.40758">
        <ele>49.286134</ele>
        <time>2022-07-30T11:53:24.000Z</time>
      </trkpt>
      <trkpt lat="49.61385" lon="-1.40755">
        <ele>49.360586</ele>
        <time>2022-07-30T11:53:25.000Z</time>
      </trkpt>
      <trkpt lat="49.61386" lon="-1.40753">
        <ele>49.424904</ele>
        <time>2022-07-30T11:53:26.000Z</time>
      </trkpt>
      <trkpt lat="49.61387" lon="-1.4075">
        <ele>49.497363</ele>
        <time>2022-07-30T11:53:27.000Z</time>
      </trkpt>
      <trkpt lat="49.61387" lon="-1.40747">
        <ele>49.562052</ele>
        <time>2022-07-30T11:53:28.000Z</time>
      </trkpt>
      <trkpt lat="49.61388" lon="-1.40744">
        <ele>49.634511</ele>
        <time>2022-07-30T11:53:29.000Z</time>
      </trkpt>
      <trkpt lat="49.61389" lon="-1.40742">
        <ele>49.6992</ele>
        <time>2022-07-30T11:53:30.000Z</time>
      </trkpt>
      <trkpt lat="49.61389" lon="-1.40739">
        <ele>49.766038</ele>
        <time>2022-07-30T11:53:31.000Z</time>
      </trkpt>
      <trkpt lat="49.6139" lon="-1.40736">
        <ele>49.840489</ele>
        <time>2022-07-30T11:53:32.000Z</time>
      </trkpt>
      <trkpt lat="49.61391" lon="-1.40733">
        <ele>49.907326</ele>
        <time>2022-07-30T11:53:33.000Z</time>
      </trkpt>
      <trkpt lat="49.61392" lon="-1.4073">
        <ele>49.973234</ele>
        <time>2022-07-30T11:53:34.000Z</time>
      </trkpt>
      <trkpt lat="49.61393" lon="-1.40727">
        <ele>50.05022</ele>
        <time>2022-07-30T11:53:35.000Z</time>
      </trkpt>
      <trkpt lat="49.61393" lon="-1.40724">
        <ele>50.126764</ele>
        <time>2022-07-30T11:53:36.000Z</time>
      </trkpt>
      <trkpt lat="49.61394" lon="-1.40721">
        <ele>50.207907</ele>
        <time>2022-07-30T11:53:37.000Z</time>
      </trkpt>
      <trkpt lat="49.61395" lon="-1.40718">
        <ele>50.275103</ele>
        <time>2022-07-30T11:53:38.000Z</time>
      </trkpt>
      <trkpt lat="49.61396" lon="-1.40715">
        <ele>50.356247</ele>
        <time>2022-07-30T11:53:39.000Z</time>
      </trkpt>
      <trkpt lat="49.61397" lon="-1.40711">
        <ele>50.436763</ele>
        <time>2022-07-30T11:53:40.000Z</time>
      </trkpt>
      <trkpt lat="49.61397" lon="-1.40708">
        <ele>50.507918</ele>
        <time>2022-07-30T11:53:41.000Z</time>
      </trkpt>
      <trkpt lat="49.61398" lon="-1.40705">
        <ele>50.591605</ele>
        <time>2022-07-30T11:53:42.000Z</time>
      </trkpt>
      <trkpt lat="49.61399" lon="-1.40702">
        <ele>50.672122</ele>
        <time>2022-07-30T11:53:43.000Z</time>
      </trkpt>
      <trkpt lat="49.61401" lon="-1.40699">
        <ele>50.748204</ele>
        <time>2022-07-30T11:53:44.000Z</time>
      </trkpt>
      <trkpt lat="49.61402" lon="-1.40696">
        <ele>50.82872</ele>
        <time>2022-07-30T11:53:45.000Z</time>
      </trkpt>
      <trkpt lat="49.61403" lon="-1.40693">
        <ele>50.92015</ele>
        <time>2022-07-30T11:53:46.000Z</time>
      </trkpt>
      <trkpt lat="49.61404" lon="-1.40689">
        <ele>51.00659</ele>
        <time>2022-07-30T11:53:47.000Z</time>
      </trkpt>
      <trkpt lat="49.61405" lon="-1.40685">
        <ele>51.099993</ele>
        <time>2022-07-30T11:53:48.000Z</time>
      </trkpt>
      <trkpt lat="49.61405" lon="-1.40682">
        <ele>51.184501</ele>
        <time>2022-07-30T11:53:49.000Z</time>
      </trkpt>
      <trkpt lat="49.61406" lon="-1.40678">
        <ele>51.271191</ele>
        <time>2022-07-30T11:53:50.000Z</time>
      </trkpt>
      <trkpt lat="49.61407" lon="-1.40675">
        <ele>51.352335</ele>
        <time>2022-07-30T11:53:51.000Z</time>
      </trkpt>
      <trkpt lat="49.61408" lon="-1.40671">
        <ele>51.441806</ele>
        <time>2022-07-30T11:53:52.000Z</time>
      </trkpt>
      <trkpt lat="49.61409" lon="-1.40667">
        <ele>51.537896</ele>
        <time>2022-07-30T11:53:53.000Z</time>
      </trkpt>
      <trkpt lat="49.61411" lon="-1.40663">
        <ele>51.644432</ele>
        <time>2022-07-30T11:53:54.000Z</time>
      </trkpt>
      <trkpt lat="49.61412" lon="-1.40659">
        <ele>51.740394</ele>
        <time>2022-07-30T11:53:55.000Z</time>
      </trkpt>
      <trkpt lat="49.61413" lon="-1.40655">
        <ele>51.845883</ele>
        <time>2022-07-30T11:53:56.000Z</time>
      </trkpt>
      <trkpt lat="49.61414" lon="-1.40651">
        <ele>51.962213</ele>
        <time>2022-07-30T11:53:57.000Z</time>
      </trkpt>
      <trkpt lat="49.61415" lon="-1.40646">
        <ele>52.074326</ele>
        <time>2022-07-30T11:53:58.000Z</time>
      </trkpt>
      <trkpt lat="49.61416" lon="-1.40641">
        <ele>52.183225</ele>
        <time>2022-07-30T11:53:59.000Z</time>
      </trkpt>
      <trkpt lat="49.61417" lon="-1.40637">
        <ele>52.29104</ele>
        <time>2022-07-30T11:54:00.000Z</time>
      </trkpt>
      <trkpt lat="49.61419" lon="-1.40632">
        <ele>52.406856</ele>
        <time>2022-07-30T11:54:01.000Z</time>
      </trkpt>
      <trkpt lat="49.6142" lon="-1.40627">
        <ele>52.520102</ele>
        <time>2022-07-30T11:54:02.000Z</time>
      </trkpt>
      <trkpt lat="49.61421" lon="-1.40623">
        <ele>52.632215</ele>
        <time>2022-07-30T11:54:03.000Z</time>
      </trkpt>
      <trkpt lat="49.61421" lon="-1.40618">
        <ele>52.746015</ele>
        <time>2022-07-30T11:54:04.000Z</time>
      </trkpt>
      <trkpt lat="49.61421" lon="-1.40613">
        <ele>52.859815</ele>
        <time>2022-07-30T11:54:05.000Z</time>
      </trkpt>
      <trkpt lat="49.61421" lon="-1.40608">
        <ele>52.968598</ele>
        <time>2022-07-30T11:54:06.000Z</time>
      </trkpt>
      <trkpt lat="49.61421" lon="-1.40603">
        <ele>53.086912</ele>
        <time>2022-07-30T11:54:07.000Z</time>
      </trkpt>
      <trkpt lat="49.61421" lon="-1.40598">
        <ele>53.195695</ele>
        <time>2022-07-30T11:54:08.000Z</time>
      </trkpt>
      <trkpt lat="49.61421" lon="-1.40593">
        <ele>53.306744</ele>
        <time>2022-07-30T11:54:09.000Z</time>
      </trkpt>
      <trkpt lat="49.6142" lon="-1.40588">
        <ele>53.421986</ele>
        <time>2022-07-30T11:54:10.000Z</time>
      </trkpt>
      <trkpt lat="49.61419" lon="-1.40583">
        <ele>53.531948</ele>
        <time>2022-07-30T11:54:11.000Z</time>
      </trkpt>
      <trkpt lat="49.61418" lon="-1.40578">
        <ele>53.551625</ele>
        <time>2022-07-30T11:54:12.000Z</time>
      </trkpt>
      <trkpt lat="49.61418" lon="-1.40574">
        <ele>53.503125</ele>
        <time>2022-07-30T11:54:13.000Z</time>
      </trkpt>
      <trkpt lat="49.61418" lon="-1.40569">
        <ele>53.450182</ele>
        <time>2022-07-30T11:54:14.000Z</time>
      </trkpt>
      <trkpt lat="49.61418" lon="-1.40563">
        <ele>53.393039</ele>
        <time>2022-07-30T11:54:15.000Z</time>
      </trkpt>
      <trkpt lat="49.61419" lon="-1.40558">
        <ele>53.334837</ele>
        <time>2022-07-30T11:54:16.000Z</time>
      </trkpt>
      <trkpt lat="49.61421" lon="-1.40553">
        <ele>53.274143</ele>
        <time>2022-07-30T11:54:17.000Z</time>
      </trkpt>
      <trkpt lat="49.61422" lon="-1.40548">
        <ele>53.2144</ele>
        <time>2022-07-30T11:54:18.000Z</time>
      </trkpt>
      <trkpt lat="49.61424" lon="-1.40543">
        <ele>53.156547</ele>
        <time>2022-07-30T11:54:19.000Z</time>
      </trkpt>
      <trkpt lat="49.61425" lon="-1.40539">
        <ele>53.106518</ele>
        <time>2022-07-30T11:54:20.000Z</time>
      </trkpt>
      <trkpt lat="49.61427" lon="-1.40535">
        <ele>53.055911</ele>
        <time>2022-07-30T11:54:21.000Z</time>
      </trkpt>
      <trkpt lat="49.61429" lon="-1.40531">
        <ele>53.006347</ele>
        <time>2022-07-30T11:54:22.000Z</time>
      </trkpt>
      <trkpt lat="49.61431" lon="-1.40527">
        <ele>52.956571</ele>
        <time>2022-07-30T11:54:23.000Z</time>
      </trkpt>
      <trkpt lat="49.61433" lon="-1.40524">
        <ele>52.906181</ele>
        <time>2022-07-30T11:54:24.000Z</time>
      </trkpt>
      <trkpt lat="49.61435" lon="-1.40521">
        <ele>52.85841</ele>
        <time>2022-07-30T11:54:25.000Z</time>
      </trkpt>
      <trkpt lat="49.61438" lon="-1.40518">
        <ele>52.801006</ele>
        <time>2022-07-30T11:54:26.000Z</time>
      </trkpt>
      <trkpt lat="49.6144" lon="-1.40515">
        <ele>52.753927</ele>
        <time>2022-07-30T11:54:27.000Z</time>
      </trkpt>
      <trkpt lat="49.61443" lon="-1.40512">
        <ele>52.704924</ele>
        <time>2022-07-30T11:54:28.000Z</time>
      </trkpt>
      <trkpt lat="49.61445" lon="-1.40509">
        <ele>52.657153</ele>
        <time>2022-07-30T11:54:29.000Z</time>
      </trkpt>
      <trkpt lat="49.61448" lon="-1.40506">
        <ele>52.602579</ele>
        <time>2022-07-30T11:54:30.000Z</time>
      </trkpt>
      <trkpt lat="49.61451" lon="-1.40504">
        <ele>52.547467</ele>
        <time>2022-07-30T11:54:31.000Z</time>
      </trkpt>
      <trkpt lat="49.61454" lon="-1.40501">
        <ele>52.487609</ele>
        <time>2022-07-30T11:54:32.000Z</time>
      </trkpt>
      <trkpt lat="49.61457" lon="-1.40498">
        <ele>52.430914</ele>
        <time>2022-07-30T11:54:33.000Z</time>
      </trkpt>
      <trkpt lat="49.6146" lon="-1.40494">
        <ele>52.368287</ele>
        <time>2022-07-30T11:54:34.000Z</time>
      </trkpt>
      <trkpt lat="49.61463" lon="-1.40491">
        <ele>52.305069</ele>
        <time>2022-07-30T11:54:35.000Z</time>
      </trkpt>
      <trkpt lat="49.61466" lon="-1.40487">
        <ele>52.244509</ele>
        <time>2022-07-30T11:54:36.000Z</time>
      </trkpt>
      <trkpt lat="49.61468" lon="-1.40484">
        <ele>52.191949</ele>
        <time>2022-07-30T11:54:37.000Z</time>
      </trkpt>
      <trkpt lat="49.6147" lon="-1.4048">
        <ele>52.13743</ele>
        <time>2022-07-30T11:54:38.000Z</time>
      </trkpt>
      <trkpt lat="49.61473" lon="-1.40476">
        <ele>52.083701</ele>
        <time>2022-07-30T11:54:39.000Z</time>
      </trkpt>
      <trkpt lat="49.61475" lon="-1.40472">
        <ele>52.027315</ele>
        <time>2022-07-30T11:54:40.000Z</time>
      </trkpt>
      <trkpt lat="49.61477" lon="-1.40467">
        <ele>51.96801</ele>
        <time>2022-07-30T11:54:41.000Z</time>
      </trkpt>
      <trkpt lat="49.61479" lon="-1.40462">
        <ele>51.905156</ele>
        <time>2022-07-30T11:54:42.000Z</time>
      </trkpt>
      <trkpt lat="49.61482" lon="-1.40457">
        <ele>51.837561</ele>
        <time>2022-07-30T11:54:43.000Z</time>
      </trkpt>
      <trkpt lat="49.61484" lon="-1.40452">
        <ele>51.765779</ele>
        <time>2022-07-30T11:54:44.000Z</time>
      </trkpt>
      <trkpt lat="49.61487" lon="-1.40446">
        <ele>51.694079</ele>
        <time>2022-07-30T11:54:45.000Z</time>
      </trkpt>
      <trkpt lat="49.6149" lon="-1.4044">
        <ele>51.610505</ele>
        <time>2022-07-30T11:54:46.000Z</time>
      </trkpt>
      <trkpt lat="49.61493" lon="-1.40434">
        <ele>51.529966</ele>
        <time>2022-07-30T11:54:47.000Z</time>
      </trkpt>
      <trkpt lat="49.61495" lon="-1.40427">
        <ele>51.445013</ele>
        <time>2022-07-30T11:54:48.000Z</time>
      </trkpt>
      <trkpt lat="49.61498" lon="-1.4042">
        <ele>51.359816</ele>
        <time>2022-07-30T11:54:49.000Z</time>
      </trkpt>
      <trkpt lat="49.61501" lon="-1.40412">
        <ele>51.270134</ele>
        <time>2022-07-30T11:54:50.000Z</time>
      </trkpt>
      <trkpt lat="49.61503" lon="-1.40404">
        <ele>51.173484</ele>
        <time>2022-07-30T11:54:51.000Z</time>
      </trkpt>
      <trkpt lat="49.61506" lon="-1.40395">
        <ele>51.072066</ele>
        <time>2022-07-30T11:54:52.000Z</time>
      </trkpt>
      <trkpt lat="49.61508" lon="-1.40385">
        <ele>50.963205</ele>
        <time>2022-07-30T11:54:53.000Z</time>
      </trkpt>
      <trkpt lat="49.61509" lon="-1.40375">
        <ele>50.852568</ele>
        <time>2022-07-30T11:54:54.000Z</time>
      </trkpt>
      <trkpt lat="49.6151" lon="-1.40365">
        <ele>50.749012</ele>
        <time>2022-07-30T11:54:55.000Z</time>
      </trkpt>
      <trkpt lat="49.6151" lon="-1.40357">
        <ele>50.65834</ele>
        <time>2022-07-30T11:54:56.000Z</time>
      </trkpt>
      <trkpt lat="49.6151" lon="-1.40348">
        <ele>50.597654</ele>
        <time>2022-07-30T11:54:57.000Z</time>
      </trkpt>
      <trkpt lat="49.6151" lon="-1.4034">
        <ele>50.538987</ele>
        <time>2022-07-30T11:54:58.000Z</time>
      </trkpt>
      <trkpt lat="49.61511" lon="-1.40331">
        <ele>50.479208</ele>
        <time>2022-07-30T11:54:59.000Z</time>
      </trkpt>
      <trkpt lat="49.61512" lon="-1.40322">
        <ele>50.41527</ele>
        <time>2022-07-30T11:55:00.000Z</time>
      </trkpt>
      <trkpt lat="49.61513" lon="-1.40312">
        <ele>50.349777</ele>
        <time>2022-07-30T11:55:01.000Z</time>
      </trkpt>
      <trkpt lat="49.61514" lon="-1.40303">
        <ele>50.286509</ele>
        <time>2022-07-30T11:55:02.000Z</time>
      </trkpt>
      <trkpt lat="49.61516" lon="-1.40294">
        <ele>50.219823</ele>
        <time>2022-07-30T11:55:03.000Z</time>
      </trkpt>
      <trkpt lat="49.61517" lon="-1.40285">
        <ele>50.156554</ele>
        <time>2022-07-30T11:55:04.000Z</time>
      </trkpt>
      <trkpt lat="49.61518" lon="-1.40276">
        <ele>50.095821</ele>
        <time>2022-07-30T11:55:05.000Z</time>
      </trkpt>
      <trkpt lat="49.6152" lon="-1.40268">
        <ele>50.037718</ele>
        <time>2022-07-30T11:55:06.000Z</time>
      </trkpt>
      <trkpt lat="49.61522" lon="-1.40261">
        <ele>49.984191</ele>
        <time>2022-07-30T11:55:07.000Z</time>
      </trkpt>
      <trkpt lat="49.61524" lon="-1.40254">
        <ele>49.931483</ele>
        <time>2022-07-30T11:55:08.000Z</time>
      </trkpt>
      <trkpt lat="49.61525" lon="-1.40247">
        <ele>49.88318</ele>
        <time>2022-07-30T11:55:09.000Z</time>
      </trkpt>
      <trkpt lat="49.61528" lon="-1.40242">
        <ele>49.83591</ele>
        <time>2022-07-30T11:55:10.000Z</time>
      </trkpt>
      <trkpt lat="49.6153" lon="-1.40236">
        <ele>49.788606</ele>
        <time>2022-07-30T11:55:11.000Z</time>
      </trkpt>
      <trkpt lat="49.61533" lon="-1.4023">
        <ele>49.743691</ele>
        <time>2022-07-30T11:55:12.000Z</time>
      </trkpt>
      <trkpt lat="49.61535" lon="-1.40226">
        <ele>49.701967</ele>
        <time>2022-07-30T11:55:13.000Z</time>
      </trkpt>
      <trkpt lat="49.61536" lon="-1.40221">
        <ele>49.67003</ele>
        <time>2022-07-30T11:55:14.000Z</time>
      </trkpt>
      <trkpt lat="49.61538" lon="-1.40217">
        <ele>49.639325</ele>
        <time>2022-07-30T11:55:15.000Z</time>
      </trkpt>
      <trkpt lat="49.61539" lon="-1.40213">
        <ele>49.605302</ele>
        <time>2022-07-30T11:55:16.000Z</time>
      </trkpt>
      <trkpt lat="49.61541" lon="-1.40209">
        <ele>49.572744</ele>
        <time>2022-07-30T11:55:17.000Z</time>
      </trkpt>
      <trkpt lat="49.61543" lon="-1.40205">
        <ele>49.53461</ele>
        <time>2022-07-30T11:55:18.000Z</time>
      </trkpt>
      <trkpt lat="49.61545" lon="-1.402">
        <ele>49.495284</ele>
        <time>2022-07-30T11:55:19.000Z</time>
      </trkpt>
      <trkpt lat="49.61547" lon="-1.40198">
        <ele>49.472203</ele>
        <time>2022-07-30T11:55:20.000Z</time>
      </trkpt>
      <trkpt lat="49.61548" lon="-1.40195">
        <ele>49.446586</ele>
        <time>2022-07-30T11:55:21.000Z</time>
      </trkpt>
      <trkpt lat="49.6155" lon="-1.40191">
        <ele>49.416064</ele>
        <time>2022-07-30T11:55:22.000Z</time>
      </trkpt>
      <trkpt lat="49.61551" lon="-1.40187">
        <ele>49.384569</ele>
        <time>2022-07-30T11:55:23.000Z</time>
      </trkpt>
      <trkpt lat="49.61552" lon="-1.40183">
        <ele>49.35325</ele>
        <time>2022-07-30T11:55:24.000Z</time>
      </trkpt>
      <trkpt lat="49.61554" lon="-1.40179">
        <ele>49.320995</ele>
        <time>2022-07-30T11:55:25.000Z</time>
      </trkpt>
      <trkpt lat="49.61556" lon="-1.40174">
        <ele>49.285775</ele>
        <time>2022-07-30T11:55:26.000Z</time>
      </trkpt>
      <trkpt lat="49.61557" lon="-1.4017">
        <ele>49.250556</ele>
        <time>2022-07-30T11:55:27.000Z</time>
      </trkpt>
      <trkpt lat="49.61558" lon="-1.40165">
        <ele>49.214226</ele>
        <time>2022-07-30T11:55:28.000Z</time>
      </trkpt>
      <trkpt lat="49.6156" lon="-1.4016">
        <ele>49.17726</ele>
        <time>2022-07-30T11:55:29.000Z</time>
      </trkpt>
      <trkpt lat="49.61562" lon="-1.40156">
        <ele>49.141259</ele>
        <time>2022-07-30T11:55:30.000Z</time>
      </trkpt>
      <trkpt lat="49.61563" lon="-1.40152">
        <ele>49.108702</ele>
        <time>2022-07-30T11:55:31.000Z</time>
      </trkpt>
      <trkpt lat="49.61565" lon="-1.40147">
        <ele>49.074895</ele>
        <time>2022-07-30T11:55:32.000Z</time>
      </trkpt>
      <trkpt lat="49.61566" lon="-1.40142">
        <ele>49.039831</ele>
        <time>2022-07-30T11:55:33.000Z</time>
      </trkpt>
      <trkpt lat="49.61567" lon="-1.40138">
        <ele>49.00453</ele>
        <time>2022-07-30T11:55:34.000Z</time>
      </trkpt>
      <trkpt lat="49.61569" lon="-1.40133">
        <ele>48.968211</ele>
        <time>2022-07-30T11:55:35.000Z</time>
      </trkpt>
      <trkpt lat="49.6157" lon="-1.40129">
        <ele>48.935456</ele>
        <time>2022-07-30T11:55:36.000Z</time>
      </trkpt>
      <trkpt lat="49.61571" lon="-1.40124">
        <ele>48.899687</ele>
        <time>2022-07-30T11:55:37.000Z</time>
      </trkpt>
      <trkpt lat="49.61572" lon="-1.40118">
        <ele>48.861429</ele>
        <time>2022-07-30T11:55:38.000Z</time>
      </trkpt>
      <trkpt lat="49.61573" lon="-1.40113">
        <ele>48.82131</ele>
        <time>2022-07-30T11:55:39.000Z</time>
      </trkpt>
      <trkpt lat="49.61574" lon="-1.40108">
        <ele>48.787368</ele>
        <time>2022-07-30T11:55:40.000Z</time>
      </trkpt>
      <trkpt lat="49.61575" lon="-1.40104">
        <ele>48.757309</ele>
        <time>2022-07-30T11:55:41.000Z</time>
      </trkpt>
      <trkpt lat="49.61576" lon="-1.40101">
        <ele>48.770639</ele>
        <time>2022-07-30T11:55:42.000Z</time>
      </trkpt>
      <trkpt lat="49.61576" lon="-1.40097">
        <ele>48.798604</ele>
        <time>2022-07-30T11:55:43.000Z</time>
      </trkpt>
      <trkpt lat="49.61577" lon="-1.40094">
        <ele>48.828151</ele>
        <time>2022-07-30T11:55:44.000Z</time>
      </trkpt>
      <trkpt lat="49.61578" lon="-1.4009">
        <ele>48.85537</ele>
        <time>2022-07-30T11:55:45.000Z</time>
      </trkpt>
      <trkpt lat="49.61579" lon="-1.40087">
        <ele>48.885202</ele>
        <time>2022-07-30T11:55:46.000Z</time>
      </trkpt>
      <trkpt lat="49.6158" lon="-1.40084">
        <ele>48.907123</ele>
        <time>2022-07-30T11:55:47.000Z</time>
      </trkpt>
      <trkpt lat="49.6158" lon="-1.40081">
        <ele>48.930296</ele>
        <time>2022-07-30T11:55:48.000Z</time>
      </trkpt>
      <trkpt lat="49.6158" lon="-1.40078">
        <ele>48.957567</ele>
        <time>2022-07-30T11:55:49.000Z</time>
      </trkpt>
      <trkpt lat="49.6158" lon="-1.40074">
        <ele>48.988066</ele>
        <time>2022-07-30T11:55:50.000Z</time>
      </trkpt>
      <trkpt lat="49.61581" lon="-1.40071">
        <ele>49.017297</ele>
        <time>2022-07-30T11:55:51.000Z</time>
      </trkpt>
      <trkpt lat="49.61582" lon="-1.40068">
        <ele>49.041926</ele>
        <time>2022-07-30T11:55:52.000Z</time>
      </trkpt>
      <trkpt lat="49.61583" lon="-1.40064">
        <ele>49.069891</ele>
        <time>2022-07-30T11:55:53.000Z</time>
      </trkpt>
      <trkpt lat="49.61583" lon="-1.40061">
        <ele>49.09598</ele>
        <time>2022-07-30T11:55:54.000Z</time>
      </trkpt>
      <trkpt lat="49.61583" lon="-1.40058">
        <ele>49.119152</ele>
        <time>2022-07-30T11:55:55.000Z</time>
      </trkpt>
      <trkpt lat="49.61584" lon="-1.40055">
        <ele>49.145627</ele>
        <time>2022-07-30T11:55:56.000Z</time>
      </trkpt>
      <trkpt lat="49.61585" lon="-1.40051">
        <ele>49.175174</ele>
        <time>2022-07-30T11:55:57.000Z</time>
      </trkpt>
      <trkpt lat="49.61586" lon="-1.40048">
        <ele>49.205761</ele>
        <time>2022-07-30T11:55:58.000Z</time>
      </trkpt>
      <trkpt lat="49.61588" lon="-1.40044">
        <ele>49.242071</ele>
        <time>2022-07-30T11:55:59.000Z</time>
      </trkpt>
      <trkpt lat="49.61589" lon="-1.40039">
        <ele>49.278025</ele>
        <time>2022-07-30T11:56:00.000Z</time>
      </trkpt>
      <trkpt lat="49.61591" lon="-1.40036">
        <ele>49.313031</ele>
        <time>2022-07-30T11:56:01.000Z</time>
      </trkpt>
      <trkpt lat="49.61592" lon="-1.40031">
        <ele>49.34832</ele>
        <time>2022-07-30T11:56:02.000Z</time>
      </trkpt>
      <trkpt lat="49.61593" lon="-1.40026">
        <ele>49.389219</ele>
        <time>2022-07-30T11:56:03.000Z</time>
      </trkpt>
      <trkpt lat="49.61594" lon="-1.40022">
        <ele>49.425463</ele>
        <time>2022-07-30T11:56:04.000Z</time>
      </trkpt>
      <trkpt lat="49.61594" lon="-1.40017">
        <ele>49.466261</ele>
        <time>2022-07-30T11:56:05.000Z</time>
      </trkpt>
      <trkpt lat="49.61595" lon="-1.40012">
        <ele>49.504265</ele>
        <time>2022-07-30T11:56:06.000Z</time>
      </trkpt>
      <trkpt lat="49.61596" lon="-1.40004">
        <ele>49.562422</ele>
        <time>2022-07-30T11:56:07.000Z</time>
      </trkpt>
      <trkpt lat="49.61596" lon="-1.39998">
        <ele>49.61263</ele>
        <time>2022-07-30T11:56:08.000Z</time>
      </trkpt>
      <trkpt lat="49.61597" lon="-1.39992">
        <ele>49.659199</ele>
        <time>2022-07-30T11:56:09.000Z</time>
      </trkpt>
      <trkpt lat="49.61599" lon="-1.39987">
        <ele>49.704363</ele>
        <time>2022-07-30T11:56:10.000Z</time>
      </trkpt>
      <trkpt lat="49.61601" lon="-1.39981">
        <ele>49.752345</ele>
        <time>2022-07-30T11:56:11.000Z</time>
      </trkpt>
      <trkpt lat="49.61602" lon="-1.39975">
        <ele>49.800948</ele>
        <time>2022-07-30T11:56:12.000Z</time>
      </trkpt>
      <trkpt lat="49.61603" lon="-1.39969">
        <ele>49.853935</ele>
        <time>2022-07-30T11:56:13.000Z</time>
      </trkpt>
      <trkpt lat="49.61604" lon="-1.39964">
        <ele>49.896574</ele>
        <time>2022-07-30T11:56:14.000Z</time>
      </trkpt>
      <trkpt lat="49.61605" lon="-1.39958">
        <ele>49.93994</ele>
        <time>2022-07-30T11:56:15.000Z</time>
      </trkpt>
      <trkpt lat="49.61606" lon="-1.39953">
        <ele>49.980388</ele>
        <time>2022-07-30T11:56:16.000Z</time>
      </trkpt>
      <trkpt lat="49.61607" lon="-1.39948">
        <ele>50.021963</ele>
        <time>2022-07-30T11:56:17.000Z</time>
      </trkpt>
      <trkpt lat="49.61608" lon="-1.39943">
        <ele>50.064601</ele>
        <time>2022-07-30T11:56:18.000Z</time>
      </trkpt>
      <trkpt lat="49.61609" lon="-1.39938">
        <ele>50.10425</ele>
        <time>2022-07-30T11:56:19.000Z</time>
      </trkpt>
      <trkpt lat="49.6161" lon="-1.39933">
        <ele>50.141252</ele>
        <time>2022-07-30T11:56:20.000Z</time>
      </trkpt>
      <trkpt lat="49.61611" lon="-1.39928">
        <ele>50.18241</ele>
        <time>2022-07-30T11:56:21.000Z</time>
      </trkpt>
      <trkpt lat="49.61611" lon="-1.39923">
        <ele>50.226583</ele>
        <time>2022-07-30T11:56:22.000Z</time>
      </trkpt>
      <trkpt lat="49.61611" lon="-1.39917">
        <ele>50.270611</ele>
        <time>2022-07-30T11:56:23.000Z</time>
      </trkpt>
      <trkpt lat="49.61612" lon="-1.39912">
        <ele>50.311705</ele>
        <time>2022-07-30T11:56:24.000Z</time>
      </trkpt>
      <trkpt lat="49.61612" lon="-1.39907">
        <ele>50.348956</ele>
        <time>2022-07-30T11:56:25.000Z</time>
      </trkpt>
      <trkpt lat="49.61613" lon="-1.39902">
        <ele>50.384443</ele>
        <time>2022-07-30T11:56:26.000Z</time>
      </trkpt>
      <trkpt lat="49.61614" lon="-1.39897">
        <ele>50.424862</ele>
        <time>2022-07-30T11:56:27.000Z</time>
      </trkpt>
      <trkpt lat="49.61615" lon="-1.39893">
        <ele>50.461978</ele>
        <time>2022-07-30T11:56:28.000Z</time>
      </trkpt>
      <trkpt lat="49.61615" lon="-1.39888">
        <ele>50.498457</ele>
        <time>2022-07-30T11:56:29.000Z</time>
      </trkpt>
      <trkpt lat="49.61615" lon="-1.39883">
        <ele>50.535534</ele>
        <time>2022-07-30T11:56:30.000Z</time>
      </trkpt>
      <trkpt lat="49.61616" lon="-1.39878">
        <ele>50.575046</ele>
        <time>2022-07-30T11:56:31.000Z</time>
      </trkpt>
      <trkpt lat="49.61616" lon="-1.39873">
        <ele>50.613832</ele>
        <time>2022-07-30T11:56:32.000Z</time>
      </trkpt>
      <trkpt lat="49.61616" lon="-1.39868">
        <ele>50.654157</ele>
        <time>2022-07-30T11:56:33.000Z</time>
      </trkpt>
      <trkpt lat="49.61616" lon="-1.39863">
        <ele>50.694482</ele>
        <time>2022-07-30T11:56:34.000Z</time>
      </trkpt>
      <trkpt lat="49.61616" lon="-1.39858">
        <ele>50.733268</ele>
        <time>2022-07-30T11:56:35.000Z</time>
      </trkpt>
      <trkpt lat="49.61616" lon="-1.39853">
        <ele>50.774206</ele>
        <time>2022-07-30T11:56:36.000Z</time>
      </trkpt>
      <trkpt lat="49.61616" lon="-1.39847">
        <ele>50.814531</ele>
        <time>2022-07-30T11:56:37.000Z</time>
      </trkpt>
      <trkpt lat="49.61617" lon="-1.39842">
        <ele>50.854568</ele>
        <time>2022-07-30T11:56:38.000Z</time>
      </trkpt>
      <trkpt lat="49.61617" lon="-1.39837">
        <ele>50.894076</ele>
        <time>2022-07-30T11:56:39.000Z</time>
      </trkpt>
      <trkpt lat="49.61617" lon="-1.39832">
        <ele>50.86223</ele>
        <time>2022-07-30T11:56:40.000Z</time>
      </trkpt>
      <trkpt lat="49.61617" lon="-1.39827">
        <ele>50.831102</ele>
        <time>2022-07-30T11:56:41.000Z</time>
      </trkpt>
      <trkpt lat="49.61618" lon="-1.39822">
        <ele>50.799975</ele>
        <time>2022-07-30T11:56:42.000Z</time>
      </trkpt>
      <trkpt lat="49.61618" lon="-1.39817">
        <ele>50.768979</ele>
        <time>2022-07-30T11:56:43.000Z</time>
      </trkpt>
      <trkpt lat="49.61618" lon="-1.39811">
        <ele>50.733645</ele>
        <time>2022-07-30T11:56:44.000Z</time>
      </trkpt>
      <trkpt lat="49.61618" lon="-1.39805">
        <ele>50.695104</ele>
        <time>2022-07-30T11:56:45.000Z</time>
      </trkpt>
      <trkpt lat="49.61618" lon="-1.39799">
        <ele>50.65729</ele>
        <time>2022-07-30T11:56:46.000Z</time>
      </trkpt>
      <trkpt lat="49.61618" lon="-1.39793">
        <ele>50.618749</ele>
        <time>2022-07-30T11:56:47.000Z</time>
      </trkpt>
      <trkpt lat="49.61617" lon="-1.39786">
        <ele>50.577116</ele>
        <time>2022-07-30T11:56:48.000Z</time>
      </trkpt>
      <trkpt lat="49.61617" lon="-1.39779">
        <ele>50.53301</ele>
        <time>2022-07-30T11:56:49.000Z</time>
      </trkpt>
      <trkpt lat="49.61617" lon="-1.39772">
        <ele>50.489617</ele>
        <time>2022-07-30T11:56:50.000Z</time>
      </trkpt>
      <trkpt lat="49.61617" lon="-1.39764">
        <ele>50.443585</ele>
        <time>2022-07-30T11:56:51.000Z</time>
      </trkpt>
      <trkpt lat="49.61616" lon="-1.39757">
        <ele>50.394471</ele>
        <time>2022-07-30T11:56:52.000Z</time>
      </trkpt>
      <trkpt lat="49.61615" lon="-1.39749">
        <ele>50.346271</ele>
        <time>2022-07-30T11:56:53.000Z</time>
      </trkpt>
      <trkpt lat="49.61615" lon="-1.39741">
        <ele>50.297834</ele>
        <time>2022-07-30T11:56:54.000Z</time>
      </trkpt>
      <trkpt lat="49.61614" lon="-1.39733">
        <ele>50.247499</ele>
        <time>2022-07-30T11:56:55.000Z</time>
      </trkpt>
      <trkpt lat="49.61613" lon="-1.39725">
        <ele>50.19776</ele>
        <time>2022-07-30T11:56:56.000Z</time>
      </trkpt>
      <trkpt lat="49.61613" lon="-1.39717">
        <ele>50.149683</ele>
        <time>2022-07-30T11:56:57.000Z</time>
      </trkpt>
      <trkpt lat="49.61612" lon="-1.3971">
        <ele>50.100991</ele>
        <time>2022-07-30T11:56:58.000Z</time>
      </trkpt>
      <trkpt lat="49.61613" lon="-1.39701">
        <ele>50.049836</ele>
        <time>2022-07-30T11:56:59.000Z</time>
      </trkpt>
      <trkpt lat="49.61613" lon="-1.39694">
        <ele>50.001484</ele>
        <time>2022-07-30T11:57:00.000Z</time>
      </trkpt>
      <trkpt lat="49.61612" lon="-1.39686">
        <ele>49.953407</ele>
        <time>2022-07-30T11:57:01.000Z</time>
      </trkpt>
      <trkpt lat="49.61612" lon="-1.39678">
        <ele>49.906914</ele>
        <time>2022-07-30T11:57:02.000Z</time>
      </trkpt>
      <trkpt lat="49.61612" lon="-1.39671">
        <ele>49.8615</ele>
        <time>2022-07-30T11:57:03.000Z</time>
      </trkpt>
      <trkpt lat="49.61612" lon="-1.39664">
        <ele>49.816867</ele>
        <time>2022-07-30T11:57:04.000Z</time>
      </trkpt>
      <trkpt lat="49.61612" lon="-1.39656">
        <ele>49.770374</ele>
        <time>2022-07-30T11:57:05.000Z</time>
      </trkpt>
      <trkpt lat="49.61612" lon="-1.3965">
        <ele>49.728047</ele>
        <time>2022-07-30T11:57:06.000Z</time>
      </trkpt>
      <trkpt lat="49.61612" lon="-1.39642">
        <ele>49.679544</ele>
        <time>2022-07-30T11:57:07.000Z</time>
      </trkpt>
      <trkpt lat="49.61612" lon="-1.39634">
        <ele>49.631725</ele>
        <time>2022-07-30T11:57:08.000Z</time>
      </trkpt>
      <trkpt lat="49.61612" lon="-1.39627">
        <ele>49.585232</ele>
        <time>2022-07-30T11:57:09.000Z</time>
      </trkpt>
      <trkpt lat="49.61612" lon="-1.39619">
        <ele>49.535557</ele>
        <time>2022-07-30T11:57:10.000Z</time>
      </trkpt>
      <trkpt lat="49.61612" lon="-1.39611">
        <ele>49.485817</ele>
        <time>2022-07-30T11:57:11.000Z</time>
      </trkpt>
      <trkpt lat="49.61612" lon="-1.39603">
        <ele>49.437465</ele>
        <time>2022-07-30T11:57:12.000Z</time>
      </trkpt>
      <trkpt lat="49.61612" lon="-1.39594">
        <ele>49.385393</ele>
        <time>2022-07-30T11:57:13.000Z</time>
      </trkpt>
      <trkpt lat="49.61612" lon="-1.39586">
        <ele>49.335653</ele>
        <time>2022-07-30T11:57:14.000Z</time>
      </trkpt>
      <trkpt lat="49.61612" lon="-1.39579">
        <ele>49.289072</ele>
        <time>2022-07-30T11:57:15.000Z</time>
      </trkpt>
      <trkpt lat="49.61611" lon="-1.39571">
        <ele>49.239397</ele>
        <time>2022-07-30T11:57:16.000Z</time>
      </trkpt>
      <trkpt lat="49.61611" lon="-1.39562">
        <ele>49.186627</ele>
        <time>2022-07-30T11:57:17.000Z</time>
      </trkpt>
      <trkpt lat="49.61611" lon="-1.39554">
        <ele>49.016234</ele>
        <time>2022-07-30T11:57:18.000Z</time>
      </trkpt>
      <trkpt lat="49.61611" lon="-1.39545">
        <ele>48.81304</ele>
        <time>2022-07-30T11:57:19.000Z</time>
      </trkpt>
      <trkpt lat="49.61611" lon="-1.39536">
        <ele>48.615633</ele>
        <time>2022-07-30T11:57:20.000Z</time>
      </trkpt>
      <trkpt lat="49.61611" lon="-1.39527">
        <ele>48.406613</ele>
        <time>2022-07-30T11:57:21.000Z</time>
      </trkpt>
      <trkpt lat="49.61611" lon="-1.39519">
        <ele>48.20111</ele>
        <time>2022-07-30T11:57:22.000Z</time>
      </trkpt>
      <trkpt lat="49.6161" lon="-1.3951">
        <ele>47.989038</ele>
        <time>2022-07-30T11:57:23.000Z</time>
      </trkpt>
      <trkpt lat="49.61609" lon="-1.395">
        <ele>47.770097</ele>
        <time>2022-07-30T11:57:24.000Z</time>
      </trkpt>
      <trkpt lat="49.61608" lon="-1.39491">
        <ele>47.554011</ele>
        <time>2022-07-30T11:57:25.000Z</time>
      </trkpt>
      <trkpt lat="49.61607" lon="-1.39482">
        <ele>47.331956</ele>
        <time>2022-07-30T11:57:26.000Z</time>
      </trkpt>
      <trkpt lat="49.61605" lon="-1.39471">
        <ele>47.081446</ele>
        <time>2022-07-30T11:57:27.000Z</time>
      </trkpt>
      <trkpt lat="49.61605" lon="-1.3946">
        <ele>46.820445</ele>
        <time>2022-07-30T11:57:28.000Z</time>
      </trkpt>
      <trkpt lat="49.61604" lon="-1.39449">
        <ele>46.560173</ele>
        <time>2022-07-30T11:57:29.000Z</time>
      </trkpt>
      <trkpt lat="49.61604" lon="-1.39438">
        <ele>46.299837</ele>
        <time>2022-07-30T11:57:30.000Z</time>
      </trkpt>
      <trkpt lat="49.61604" lon="-1.39427">
        <ele>46.044368</ele>
        <time>2022-07-30T11:57:31.000Z</time>
      </trkpt>
      <trkpt lat="49.61603" lon="-1.39414">
        <ele>45.760826</ele>
        <time>2022-07-30T11:57:32.000Z</time>
      </trkpt>
      <trkpt lat="49.61603" lon="-1.39402">
        <ele>45.481925</ele>
        <time>2022-07-30T11:57:33.000Z</time>
      </trkpt>
      <trkpt lat="49.61602" lon="-1.3939">
        <ele>45.189415</ele>
        <time>2022-07-30T11:57:34.000Z</time>
      </trkpt>
      <trkpt lat="49.61602" lon="-1.39378">
        <ele>44.908193</ele>
        <time>2022-07-30T11:57:35.000Z</time>
      </trkpt>
      <trkpt lat="49.61603" lon="-1.39365">
        <ele>44.614555</ele>
        <time>2022-07-30T11:57:36.000Z</time>
      </trkpt>
      <trkpt lat="49.61604" lon="-1.39353">
        <ele>44.315129</ele>
        <time>2022-07-30T11:57:37.000Z</time>
      </trkpt>
      <trkpt lat="49.61607" lon="-1.3934">
        <ele>43.996965</ele>
        <time>2022-07-30T11:57:38.000Z</time>
      </trkpt>
      <trkpt lat="49.61611" lon="-1.39327">
        <ele>43.679272</ele>
        <time>2022-07-30T11:57:39.000Z</time>
      </trkpt>
      <trkpt lat="49.61615" lon="-1.39315">
        <ele>43.354994</ele>
        <time>2022-07-30T11:57:40.000Z</time>
      </trkpt>
      <trkpt lat="49.61621" lon="-1.39303">
        <ele>43.021159</ele>
        <time>2022-07-30T11:57:41.000Z</time>
      </trkpt>
      <trkpt lat="49.61626" lon="-1.39292">
        <ele>42.716518</ele>
        <time>2022-07-30T11:57:42.000Z</time>
      </trkpt>
      <trkpt lat="49.6163" lon="-1.39282">
        <ele>42.567193</ele>
        <time>2022-07-30T11:57:43.000Z</time>
      </trkpt>
      <trkpt lat="49.61634" lon="-1.39272">
        <ele>42.424813</ele>
        <time>2022-07-30T11:57:44.000Z</time>
      </trkpt>
      <trkpt lat="49.61635" lon="-1.39261">
        <ele>42.297818</ele>
        <time>2022-07-30T11:57:45.000Z</time>
      </trkpt>
      <trkpt lat="49.61635" lon="-1.39251">
        <ele>42.167127</ele>
        <time>2022-07-30T11:57:46.000Z</time>
      </trkpt>
      <trkpt lat="49.61635" lon="-1.3924">
        <ele>42.039574</ele>
        <time>2022-07-30T11:57:47.000Z</time>
      </trkpt>
      <trkpt lat="49.61634" lon="-1.3923">
        <ele>41.920266</ele>
        <time>2022-07-30T11:57:48.000Z</time>
      </trkpt>
      <trkpt lat="49.61634" lon="-1.39221">
        <ele>41.802887</ele>
        <time>2022-07-30T11:57:49.000Z</time>
      </trkpt>
      <trkpt lat="49.61634" lon="-1.39211">
        <ele>41.684297</ele>
        <time>2022-07-30T11:57:50.000Z</time>
      </trkpt>
      <trkpt lat="49.61634" lon="-1.39202">
        <ele>41.575389</ele>
        <time>2022-07-30T11:57:51.000Z</time>
      </trkpt>
      <trkpt lat="49.61635" lon="-1.39193">
        <ele>41.470849</ele>
        <time>2022-07-30T11:57:52.000Z</time>
      </trkpt>
      <trkpt lat="49.61636" lon="-1.39185">
        <ele>41.373395</ele>
        <time>2022-07-30T11:57:53.000Z</time>
      </trkpt>
      <trkpt lat="49.61637" lon="-1.39177">
        <ele>41.27599</ele>
        <time>2022-07-30T11:57:54.000Z</time>
      </trkpt>
      <trkpt lat="49.61637" lon="-1.3917">
        <ele>41.183342</ele>
        <time>2022-07-30T11:57:55.000Z</time>
      </trkpt>
      <trkpt lat="49.61638" lon="-1.39163">
        <ele>41.097633</ele>
        <time>2022-07-30T11:57:56.000Z</time>
      </trkpt>
      <trkpt lat="49.61639" lon="-1.39156">
        <ele>41.011274</ele>
        <time>2022-07-30T11:57:57.000Z</time>
      </trkpt>
      <trkpt lat="49.6164" lon="-1.39149">
        <ele>40.930431</ele>
        <time>2022-07-30T11:57:58.000Z</time>
      </trkpt>
      <trkpt lat="49.61641" lon="-1.39144">
        <ele>40.859437</ele>
        <time>2022-07-30T11:57:59.000Z</time>
      </trkpt>
      <trkpt lat="49.61641" lon="-1.39138">
        <ele>40.793983</ele>
        <time>2022-07-30T11:58:00.000Z</time>
      </trkpt>
      <trkpt lat="49.61642" lon="-1.39132">
        <ele>40.722368</ele>
        <time>2022-07-30T11:58:01.000Z</time>
      </trkpt>
      <trkpt lat="49.61642" lon="-1.39127">
        <ele>40.655577</ele>
        <time>2022-07-30T11:58:02.000Z</time>
      </trkpt>
      <trkpt lat="49.61643" lon="-1.39121">
        <ele>40.586451</ele>
        <time>2022-07-30T11:58:03.000Z</time>
      </trkpt>
      <trkpt lat="49.61643" lon="-1.39116">
        <ele>40.525688</ele>
        <time>2022-07-30T11:58:04.000Z</time>
      </trkpt>
      <trkpt lat="49.61644" lon="-1.39111">
        <ele>40.463719</ele>
        <time>2022-07-30T11:58:05.000Z</time>
      </trkpt>
      <trkpt lat="49.61644" lon="-1.39106">
        <ele>40.40416</ele>
        <time>2022-07-30T11:58:06.000Z</time>
      </trkpt>
      <trkpt lat="49.61645" lon="-1.39102">
        <ele>40.352853</ele>
        <time>2022-07-30T11:58:07.000Z</time>
      </trkpt>
      <trkpt lat="49.61645" lon="-1.39098">
        <ele>40.295978</ele>
        <time>2022-07-30T11:58:08.000Z</time>
      </trkpt>
      <trkpt lat="49.61645" lon="-1.39093">
        <ele>40.235474</ele>
        <time>2022-07-30T11:58:09.000Z</time>
      </trkpt>
      <trkpt lat="49.61645" lon="-1.39087">
        <ele>40.1723</ele>
        <time>2022-07-30T11:58:10.000Z</time>
      </trkpt>
      <trkpt lat="49.61645" lon="-1.39082">
        <ele>40.110331</ele>
        <time>2022-07-30T11:58:11.000Z</time>
      </trkpt>
      <trkpt lat="49.61645" lon="-1.39078">
        <ele>40.053457</ele>
        <time>2022-07-30T11:58:12.000Z</time>
      </trkpt>
      <trkpt lat="49.61645" lon="-1.39073">
        <ele>39.996307</ele>
        <time>2022-07-30T11:58:13.000Z</time>
      </trkpt>
      <trkpt lat="49.61645" lon="-1.39068">
        <ele>39.941853</ele>
        <time>2022-07-30T11:58:14.000Z</time>
      </trkpt>
      <trkpt lat="49.61645" lon="-1.39064">
        <ele>39.883769</ele>
        <time>2022-07-30T11:58:15.000Z</time>
      </trkpt>
      <trkpt lat="49.61645" lon="-1.39059">
        <ele>39.825684</ele>
        <time>2022-07-30T11:58:16.000Z</time>
      </trkpt>
      <trkpt lat="49.61646" lon="-1.39054">
        <ele>39.769259</ele>
        <time>2022-07-30T11:58:17.000Z</time>
      </trkpt>
      <trkpt lat="49.61647" lon="-1.39051">
        <ele>39.725337</ele>
        <time>2022-07-30T11:58:18.000Z</time>
      </trkpt>
      <trkpt lat="49.61647" lon="-1.39046">
        <ele>39.664574</ele>
        <time>2022-07-30T11:58:19.000Z</time>
      </trkpt>
      <trkpt lat="49.61647" lon="-1.39041">
        <ele>39.609609</ele>
        <time>2022-07-30T11:58:20.000Z</time>
      </trkpt>
      <trkpt lat="49.61647" lon="-1.39037">
        <ele>39.555155</ele>
        <time>2022-07-30T11:58:21.000Z</time>
      </trkpt>
      <trkpt lat="49.61647" lon="-1.39032">
        <ele>39.500191</ele>
        <time>2022-07-30T11:58:22.000Z</time>
      </trkpt>
      <trkpt lat="49.61647" lon="-1.39027">
        <ele>39.439686</ele>
        <time>2022-07-30T11:58:23.000Z</time>
      </trkpt>
      <trkpt lat="49.61647" lon="-1.39022">
        <ele>39.376761</ele>
        <time>2022-07-30T11:58:24.000Z</time>
      </trkpt>
      <trkpt lat="49.61647" lon="-1.39017">
        <ele>39.365778</ele>
        <time>2022-07-30T11:58:25.000Z</time>
      </trkpt>
      <trkpt lat="49.61647" lon="-1.39011">
        <ele>39.363702</ele>
        <time>2022-07-30T11:58:26.000Z</time>
      </trkpt>
      <trkpt lat="49.61647" lon="-1.39005">
        <ele>39.361686</ele>
        <time>2022-07-30T11:58:27.000Z</time>
      </trkpt>
      <trkpt lat="49.61647" lon="-1.39">
        <ele>39.359573</ele>
        <time>2022-07-30T11:58:28.000Z</time>
      </trkpt>
      <trkpt lat="49.61647" lon="-1.38994">
        <ele>39.357388</ele>
        <time>2022-07-30T11:58:29.000Z</time>
      </trkpt>
      <trkpt lat="49.61647" lon="-1.38988">
        <ele>39.3553</ele>
        <time>2022-07-30T11:58:30.000Z</time>
      </trkpt>
      <trkpt lat="49.61647" lon="-1.38982">
        <ele>39.353187</ele>
        <time>2022-07-30T11:58:31.000Z</time>
      </trkpt>
      <trkpt lat="49.61647" lon="-1.38976">
        <ele>39.350923</ele>
        <time>2022-07-30T11:58:32.000Z</time>
      </trkpt>
      <trkpt lat="49.61647" lon="-1.3897">
        <ele>39.348628</ele>
        <time>2022-07-30T11:58:33.000Z</time>
      </trkpt>
      <trkpt lat="49.61647" lon="-1.38963">
        <ele>39.346363</ele>
        <time>2022-07-30T11:58:34.000Z</time>
      </trkpt>
      <trkpt lat="49.61647" lon="-1.38957">
        <ele>39.344135</ele>
        <time>2022-07-30T11:58:35.000Z</time>
      </trkpt>
      <trkpt lat="49.61646" lon="-1.38951">
        <ele>39.341943</ele>
        <time>2022-07-30T11:58:36.000Z</time>
      </trkpt>
      <trkpt lat="49.61646" lon="-1.38945">
        <ele>39.339768</ele>
        <time>2022-07-30T11:58:37.000Z</time>
      </trkpt>
      <trkpt lat="49.61645" lon="-1.38939">
        <ele>39.337571</ele>
        <time>2022-07-30T11:58:38.000Z</time>
      </trkpt>
      <trkpt lat="49.61645" lon="-1.38933">
        <ele>39.335349</ele>
        <time>2022-07-30T11:58:39.000Z</time>
      </trkpt>
      <trkpt lat="49.61645" lon="-1.38927">
        <ele>39.333174</ele>
        <time>2022-07-30T11:58:40.000Z</time>
      </trkpt>
      <trkpt lat="49.61645" lon="-1.38922">
        <ele>39.331134</ele>
        <time>2022-07-30T11:58:41.000Z</time>
      </trkpt>
      <trkpt lat="49.61645" lon="-1.38916">
        <ele>39.328978</ele>
        <time>2022-07-30T11:58:42.000Z</time>
      </trkpt>
      <trkpt lat="49.61644" lon="-1.3891">
        <ele>39.326901</ele>
        <time>2022-07-30T11:58:43.000Z</time>
      </trkpt>
      <trkpt lat="49.61643" lon="-1.38905">
        <ele>39.324764</ele>
        <time>2022-07-30T11:58:44.000Z</time>
      </trkpt>
      <trkpt lat="49.61642" lon="-1.38899">
        <ele>39.322563</ele>
        <time>2022-07-30T11:58:45.000Z</time>
      </trkpt>
      <trkpt lat="49.6164" lon="-1.38893">
        <ele>39.320396</ele>
        <time>2022-07-30T11:58:46.000Z</time>
      </trkpt>
      <trkpt lat="49.61639" lon="-1.38887">
        <ele>39.317898</ele>
        <time>2022-07-30T11:58:47.000Z</time>
      </trkpt>
      <trkpt lat="49.61637" lon="-1.38881">
        <ele>39.315433</ele>
        <time>2022-07-30T11:58:48.000Z</time>
      </trkpt>
      <trkpt lat="49.61635" lon="-1.38874">
        <ele>39.312902</ele>
        <time>2022-07-30T11:58:49.000Z</time>
      </trkpt>
      <trkpt lat="49.61633" lon="-1.38868">
        <ele>39.310404</ele>
        <time>2022-07-30T11:58:50.000Z</time>
      </trkpt>
      <trkpt lat="49.61631" lon="-1.38862">
        <ele>39.307801</ele>
        <time>2022-07-30T11:58:51.000Z</time>
      </trkpt>
      <trkpt lat="49.61629" lon="-1.38856">
        <ele>39.30529</ele>
        <time>2022-07-30T11:58:52.000Z</time>
      </trkpt>
      <trkpt lat="49.61627" lon="-1.3885">
        <ele>39.302779</ele>
        <time>2022-07-30T11:58:53.000Z</time>
      </trkpt>
      <trkpt lat="49.61624" lon="-1.38843">
        <ele>39.299966</ele>
        <time>2022-07-30T11:58:54.000Z</time>
      </trkpt>
      <trkpt lat="49.61622" lon="-1.38836">
        <ele>39.297134</ele>
        <time>2022-07-30T11:58:55.000Z</time>
      </trkpt>
      <trkpt lat="49.61621" lon="-1.38829">
        <ele>39.294376</ele>
        <time>2022-07-30T11:58:56.000Z</time>
      </trkpt>
      <trkpt lat="49.6162" lon="-1.38821">
        <ele>39.291407</ele>
        <time>2022-07-30T11:58:57.000Z</time>
      </trkpt>
      <trkpt lat="49.61619" lon="-1.38813">
        <ele>39.288561</ele>
        <time>2022-07-30T11:58:58.000Z</time>
      </trkpt>
      <trkpt lat="49.61619" lon="-1.38805">
        <ele>39.285647</ele>
        <time>2022-07-30T11:58:59.000Z</time>
      </trkpt>
      <trkpt lat="49.61619" lon="-1.38797">
        <ele>39.282806</ele>
        <time>2022-07-30T11:59:00.000Z</time>
      </trkpt>
      <trkpt lat="49.6162" lon="-1.38789">
        <ele>39.279873</ele>
        <time>2022-07-30T11:59:01.000Z</time>
      </trkpt>
      <trkpt lat="49.61621" lon="-1.38782">
        <ele>39.277113</ele>
        <time>2022-07-30T11:59:02.000Z</time>
      </trkpt>
      <trkpt lat="49.61621" lon="-1.38774">
        <ele>39.274412</ele>
        <time>2022-07-30T11:59:03.000Z</time>
      </trkpt>
      <trkpt lat="49.61621" lon="-1.38767">
        <ele>39.271857</ele>
        <time>2022-07-30T11:59:04.000Z</time>
      </trkpt>
      <trkpt lat="49.61622" lon="-1.38761">
        <ele>39.269349</ele>
        <time>2022-07-30T11:59:05.000Z</time>
      </trkpt>
      <trkpt lat="49.61622" lon="-1.38754">
        <ele>39.266909</ele>
        <time>2022-07-30T11:59:06.000Z</time>
      </trkpt>
      <trkpt lat="49.61622" lon="-1.38748">
        <ele>39.244417</ele>
        <time>2022-07-30T11:59:07.000Z</time>
      </trkpt>
      <trkpt lat="49.61623" lon="-1.38742">
        <ele>39.216892</ele>
        <time>2022-07-30T11:59:08.000Z</time>
      </trkpt>
      <trkpt lat="49.61624" lon="-1.38737">
        <ele>39.190595</ele>
        <time>2022-07-30T11:59:09.000Z</time>
      </trkpt>
      <trkpt lat="49.61624" lon="-1.38731">
        <ele>39.1647</ele>
        <time>2022-07-30T11:59:10.000Z</time>
      </trkpt>
      <trkpt lat="49.61625" lon="-1.38726">
        <ele>39.138533</ele>
        <time>2022-07-30T11:59:11.000Z</time>
      </trkpt>
      <trkpt lat="49.61625" lon="-1.3872">
        <ele>39.111791</ele>
        <time>2022-07-30T11:59:12.000Z</time>
      </trkpt>
      <trkpt lat="49.61625" lon="-1.38714">
        <ele>39.085034</ele>
        <time>2022-07-30T11:59:13.000Z</time>
      </trkpt>
      <trkpt lat="49.61626" lon="-1.38709">
        <ele>39.058203</ele>
        <time>2022-07-30T11:59:14.000Z</time>
      </trkpt>
      <trkpt lat="49.61627" lon="-1.38703">
        <ele>39.030498</ele>
        <time>2022-07-30T11:59:15.000Z</time>
      </trkpt>
      <trkpt lat="49.61627" lon="-1.38697">
        <ele>39.002942</ele>
        <time>2022-07-30T11:59:16.000Z</time>
      </trkpt>
      <trkpt lat="49.61629" lon="-1.38691">
        <ele>38.971922</ele>
        <time>2022-07-30T11:59:17.000Z</time>
      </trkpt>
      <trkpt lat="49.61629" lon="-1.38684">
        <ele>38.93982</ele>
        <time>2022-07-30T11:59:18.000Z</time>
      </trkpt>
      <trkpt lat="49.61631" lon="-1.38677">
        <ele>38.905657</ele>
        <time>2022-07-30T11:59:19.000Z</time>
      </trkpt>
      <trkpt lat="49.61632" lon="-1.3867">
        <ele>38.870651</ele>
        <time>2022-07-30T11:59:20.000Z</time>
      </trkpt>
      <trkpt lat="49.61633" lon="-1.38662">
        <ele>38.833942</ele>
        <time>2022-07-30T11:59:21.000Z</time>
      </trkpt>
      <trkpt lat="49.61634" lon="-1.38654">
        <ele>38.795717</ele>
        <time>2022-07-30T11:59:22.000Z</time>
      </trkpt>
      <trkpt lat="49.61635" lon="-1.38646">
        <ele>38.756571</ele>
        <time>2022-07-30T11:59:23.000Z</time>
      </trkpt>
      <trkpt lat="49.61636" lon="-1.38637">
        <ele>38.716163</ele>
        <time>2022-07-30T11:59:24.000Z</time>
      </trkpt>
      <trkpt lat="49.61637" lon="-1.38629">
        <ele>38.673978</ele>
        <time>2022-07-30T11:59:25.000Z</time>
      </trkpt>
      <trkpt lat="49.61639" lon="-1.3862">
        <ele>38.629339</ele>
        <time>2022-07-30T11:59:26.000Z</time>
      </trkpt>
      <trkpt lat="49.61641" lon="-1.38611">
        <ele>38.585821</ele>
        <time>2022-07-30T11:59:27.000Z</time>
      </trkpt>
      <trkpt lat="49.61643" lon="-1.38602">
        <ele>38.541412</ele>
        <time>2022-07-30T11:59:28.000Z</time>
      </trkpt>
      <trkpt lat="49.61645" lon="-1.38593">
        <ele>38.494081</ele>
        <time>2022-07-30T11:59:29.000Z</time>
      </trkpt>
      <trkpt lat="49.61647" lon="-1.38583">
        <ele>38.448553</ele>
        <time>2022-07-30T11:59:30.000Z</time>
      </trkpt>
      <trkpt lat="49.61649" lon="-1.38574">
        <ele>38.402804</ele>
        <time>2022-07-30T11:59:31.000Z</time>
      </trkpt>
      <trkpt lat="49.61652" lon="-1.38565">
        <ele>38.356795</ele>
        <time>2022-07-30T11:59:32.000Z</time>
      </trkpt>
      <trkpt lat="49.61654" lon="-1.38556">
        <ele>38.313145</ele>
        <time>2022-07-30T11:59:33.000Z</time>
      </trkpt>
      <trkpt lat="49.61657" lon="-1.38548">
        <ele>38.268409</ele>
        <time>2022-07-30T11:59:34.000Z</time>
      </trkpt>
      <trkpt lat="49.61659" lon="-1.38539">
        <ele>38.225625</ele>
        <time>2022-07-30T11:59:35.000Z</time>
      </trkpt>
      <trkpt lat="49.61661" lon="-1.38531">
        <ele>38.183552</ele>
        <time>2022-07-30T11:59:36.000Z</time>
      </trkpt>
      <trkpt lat="49.61663" lon="-1.38523">
        <ele>38.144457</ele>
        <time>2022-07-30T11:59:37.000Z</time>
      </trkpt>
      <trkpt lat="49.61665" lon="-1.38516">
        <ele>38.105537</ele>
        <time>2022-07-30T11:59:38.000Z</time>
      </trkpt>
      <trkpt lat="49.61667" lon="-1.38508">
        <ele>38.069064</ele>
        <time>2022-07-30T11:59:39.000Z</time>
      </trkpt>
      <trkpt lat="49.61669" lon="-1.38501">
        <ele>38.033024</ele>
        <time>2022-07-30T11:59:40.000Z</time>
      </trkpt>
      <trkpt lat="49.61671" lon="-1.38494">
        <ele>37.997418</ele>
        <time>2022-07-30T11:59:41.000Z</time>
      </trkpt>
      <trkpt lat="49.61672" lon="-1.38487">
        <ele>37.965808</ele>
        <time>2022-07-30T11:59:42.000Z</time>
      </trkpt>
      <trkpt lat="49.61673" lon="-1.38481">
        <ele>38.031887</ele>
        <time>2022-07-30T11:59:43.000Z</time>
      </trkpt>
      <trkpt lat="49.61675" lon="-1.38474">
        <ele>38.097779</ele>
        <time>2022-07-30T11:59:44.000Z</time>
      </trkpt>
      <trkpt lat="49.61677" lon="-1.38468">
        <ele>38.163672</ele>
        <time>2022-07-30T11:59:45.000Z</time>
      </trkpt>
      <trkpt lat="49.61677" lon="-1.38461">
        <ele>38.224807</ele>
        <time>2022-07-30T11:59:46.000Z</time>
      </trkpt>
      <trkpt lat="49.61678" lon="-1.38455">
        <ele>38.287195</ele>
        <time>2022-07-30T11:59:47.000Z</time>
      </trkpt>
      <trkpt lat="49.61679" lon="-1.38449">
        <ele>38.344727</ele>
        <time>2022-07-30T11:59:48.000Z</time>
      </trkpt>
      <trkpt lat="49.6168" lon="-1.38443">
        <ele>38.40468</ele>
        <time>2022-07-30T11:59:49.000Z</time>
      </trkpt>
      <trkpt lat="49.61681" lon="-1.38437">
        <ele>38.460589</ele>
        <time>2022-07-30T11:59:50.000Z</time>
      </trkpt>
      <trkpt lat="49.61682" lon="-1.38431">
        <ele>38.515313</ele>
        <time>2022-07-30T11:59:51.000Z</time>
      </trkpt>
      <trkpt lat="49.61683" lon="-1.38426">
        <ele>38.572189</ele>
        <time>2022-07-30T11:59:52.000Z</time>
      </trkpt>
      <trkpt lat="49.61683" lon="-1.3842">
        <ele>38.629721</ele>
        <time>2022-07-30T11:59:53.000Z</time>
      </trkpt>
      <trkpt lat="49.61685" lon="-1.38414">
        <ele>38.689674</ele>
        <time>2022-07-30T11:59:54.000Z</time>
      </trkpt>
      <trkpt lat="49.61685" lon="-1.38408">
        <ele>38.747206</ele>
        <time>2022-07-30T11:59:55.000Z</time>
      </trkpt>
      <trkpt lat="49.61686" lon="-1.38401">
        <ele>38.809862</ele>
        <time>2022-07-30T11:59:56.000Z</time>
      </trkpt>
      <trkpt lat="49.61687" lon="-1.38395">
        <ele>38.871142</ele>
        <time>2022-07-30T11:59:57.000Z</time>
      </trkpt>
      <trkpt lat="49.61688" lon="-1.38388">
        <ele>38.934452</ele>
        <time>2022-07-30T11:59:58.000Z</time>
      </trkpt>
      <trkpt lat="49.61689" lon="-1.38382">
        <ele>38.994795</ele>
        <time>2022-07-30T11:59:59.000Z</time>
      </trkpt>
      <trkpt lat="49.61689" lon="-1.38376">
        <ele>39.054434</ele>
        <time>2022-07-30T12:00:00.000Z</time>
      </trkpt>
      <trkpt lat="49.61691" lon="-1.3837">
        <ele>39.115287</ele>
        <time>2022-07-30T12:00:01.000Z</time>
      </trkpt>
      <trkpt lat="49.61692" lon="-1.38364">
        <ele>39.175497</ele>
        <time>2022-07-30T12:00:02.000Z</time>
      </trkpt>
      <trkpt lat="49.61693" lon="-1.38357">
        <ele>39.237251</ele>
        <time>2022-07-30T12:00:03.000Z</time>
      </trkpt>
      <trkpt lat="49.61693" lon="-1.38351">
        <ele>39.295719</ele>
        <time>2022-07-30T12:00:04.000Z</time>
      </trkpt>
      <trkpt lat="49.61694" lon="-1.38345">
        <ele>39.355358</ele>
        <time>2022-07-30T12:00:05.000Z</time>
      </trkpt>
      <trkpt lat="49.61694" lon="-1.38339">
        <ele>39.41522</ele>
        <time>2022-07-30T12:00:06.000Z</time>
      </trkpt>
      <trkpt lat="49.61695" lon="-1.38332">
        <ele>39.478529</ele>
        <time>2022-07-30T12:00:07.000Z</time>
      </trkpt>
      <trkpt lat="49.61696" lon="-1.38326">
        <ele>39.53981</ele>
        <time>2022-07-30T12:00:08.000Z</time>
      </trkpt>
      <trkpt lat="49.61697" lon="-1.3832">
        <ele>39.598278</ele>
        <time>2022-07-30T12:00:09.000Z</time>
      </trkpt>
      <trkpt lat="49.61697" lon="-1.38314">
        <ele>39.657322</ele>
        <time>2022-07-30T12:00:10.000Z</time>
      </trkpt>
      <trkpt lat="49.61698" lon="-1.38307">
        <ele>39.718457</ele>
        <time>2022-07-30T12:00:11.000Z</time>
      </trkpt>
      <trkpt lat="49.61698" lon="-1.38301">
        <ele>39.779265</ele>
        <time>2022-07-30T12:00:12.000Z</time>
      </trkpt>
      <trkpt lat="49.61699" lon="-1.38295">
        <ele>39.83797</ele>
        <time>2022-07-30T12:00:13.000Z</time>
      </trkpt>
      <trkpt lat="49.617" lon="-1.38289">
        <ele>39.897376</ele>
        <time>2022-07-30T12:00:14.000Z</time>
      </trkpt>
      <trkpt lat="49.617" lon="-1.38282">
        <ele>39.957015</ele>
        <time>2022-07-30T12:00:15.000Z</time>
      </trkpt>
      <trkpt lat="49.61701" lon="-1.38276">
        <ele>40.014042</ele>
        <time>2022-07-30T12:00:16.000Z</time>
      </trkpt>
      <trkpt lat="49.61701" lon="-1.3827">
        <ele>40.072014</ele>
        <time>2022-07-30T12:00:17.000Z</time>
      </trkpt>
      <trkpt lat="49.61701" lon="-1.38264">
        <ele>40.129545</ele>
        <time>2022-07-30T12:00:18.000Z</time>
      </trkpt>
      <trkpt lat="49.61701" lon="-1.38258">
        <ele>40.186404</ele>
        <time>2022-07-30T12:00:19.000Z</time>
      </trkpt>
      <trkpt lat="49.61701" lon="-1.38252">
        <ele>40.243262</ele>
        <time>2022-07-30T12:00:20.000Z</time>
      </trkpt>
      <trkpt lat="49.61701" lon="-1.38246">
        <ele>40.30012</ele>
        <time>2022-07-30T12:00:21.000Z</time>
      </trkpt>
      <trkpt lat="49.61701" lon="-1.3824">
        <ele>40.356031</ele>
        <time>2022-07-30T12:00:22.000Z</time>
      </trkpt>
      <trkpt lat="49.61701" lon="-1.38235">
        <ele>40.409279</ele>
        <time>2022-07-30T12:00:23.000Z</time>
      </trkpt>
      <trkpt lat="49.61701" lon="-1.38229">
        <ele>40.461584</ele>
        <time>2022-07-30T12:00:24.000Z</time>
      </trkpt>
      <trkpt lat="49.61702" lon="-1.38224">
        <ele>40.511913</ele>
        <time>2022-07-30T12:00:25.000Z</time>
      </trkpt>
      <trkpt lat="49.61702" lon="-1.38219">
        <ele>40.562329</ele>
        <time>2022-07-30T12:00:26.000Z</time>
      </trkpt>
      <trkpt lat="49.61702" lon="-1.38214">
        <ele>40.615045</ele>
        <time>2022-07-30T12:00:27.000Z</time>
      </trkpt>
      <trkpt lat="49.61702" lon="-1.38208">
        <ele>40.6755</ele>
        <time>2022-07-30T12:00:28.000Z</time>
      </trkpt>
      <trkpt lat="49.61702" lon="-1.38203">
        <ele>40.735049</ele>
        <time>2022-07-30T12:00:29.000Z</time>
      </trkpt>
      <trkpt lat="49.61701" lon="-1.38198">
        <ele>40.796748</ele>
        <time>2022-07-30T12:00:30.000Z</time>
      </trkpt>
      <trkpt lat="49.61701" lon="-1.38192">
        <ele>40.858344</ele>
        <time>2022-07-30T12:00:31.000Z</time>
      </trkpt>
      <trkpt lat="49.61701" lon="-1.38187">
        <ele>40.919029</ele>
        <time>2022-07-30T12:00:32.000Z</time>
      </trkpt>
      <trkpt lat="49.61701" lon="-1.38182">
        <ele>40.979484</ele>
        <time>2022-07-30T12:00:33.000Z</time>
      </trkpt>
      <trkpt lat="49.61701" lon="-1.38177">
        <ele>41.038799</ele>
        <time>2022-07-30T12:00:34.000Z</time>
      </trkpt>
      <trkpt lat="49.61701" lon="-1.38171">
        <ele>41.098348</ele>
        <time>2022-07-30T12:00:35.000Z</time>
      </trkpt>
      <trkpt lat="49.61701" lon="-1.38166">
        <ele>41.156522</ele>
        <time>2022-07-30T12:00:36.000Z</time>
      </trkpt>
      <trkpt lat="49.61701" lon="-1.38161">
        <ele>41.213555</ele>
        <time>2022-07-30T12:00:37.000Z</time>
      </trkpt>
      <trkpt lat="49.61701" lon="-1.38156">
        <ele>41.270588</ele>
        <time>2022-07-30T12:00:38.000Z</time>
      </trkpt>
      <trkpt lat="49.61701" lon="-1.38151">
        <ele>41.329902</ele>
        <time>2022-07-30T12:00:39.000Z</time>
      </trkpt>
      <trkpt lat="49.61701" lon="-1.38146">
        <ele>41.38718</ele>
        <time>2022-07-30T12:00:40.000Z</time>
      </trkpt>
      <trkpt lat="49.61701" lon="-1.38141">
        <ele>41.446494</ele>
        <time>2022-07-30T12:00:41.000Z</time>
      </trkpt>
      <trkpt lat="49.61701" lon="-1.38136">
        <ele>41.504668</ele>
        <time>2022-07-30T12:00:42.000Z</time>
      </trkpt>
      <trkpt lat="49.61701" lon="-1.38131">
        <ele>41.564217</ele>
        <time>2022-07-30T12:00:43.000Z</time>
      </trkpt>
      <trkpt lat="49.61701" lon="-1.38125">
        <ele>41.624672</ele>
        <time>2022-07-30T12:00:44.000Z</time>
      </trkpt>
      <trkpt lat="49.61702" lon="-1.3812">
        <ele>41.683022</ele>
        <time>2022-07-30T12:00:45.000Z</time>
      </trkpt>
      <trkpt lat="49.61702" lon="-1.38115">
        <ele>41.744843</ele>
        <time>2022-07-30T12:00:46.000Z</time>
      </trkpt>
      <trkpt lat="49.61703" lon="-1.38105">
        <ele>41.86245</ele>
        <time>2022-07-30T12:00:48.000Z</time>
      </trkpt>
      <trkpt lat="49.61703" lon="-1.38099">
        <ele>41.924149</ele>
        <time>2022-07-30T12:00:49.000Z</time>
      </trkpt>
      <trkpt lat="49.61704" lon="-1.38094">
        <ele>41.990019</ele>
        <time>2022-07-30T12:00:50.000Z</time>
      </trkpt>
      <trkpt lat="49.61705" lon="-1.38088">
        <ele>42.05139</ele>
        <time>2022-07-30T12:00:51.000Z</time>
      </trkpt>
      <trkpt lat="49.61705" lon="-1.38083">
        <ele>42.117565</ele>
        <time>2022-07-30T12:00:52.000Z</time>
      </trkpt>
      <trkpt lat="49.61706" lon="-1.38077">
        <ele>42.180062</ele>
        <time>2022-07-30T12:00:53.000Z</time>
      </trkpt>
      <trkpt lat="49.61707" lon="-1.38072">
        <ele>42.244125</ele>
        <time>2022-07-30T12:00:54.000Z</time>
      </trkpt>
      <trkpt lat="49.61709" lon="-1.38067">
        <ele>42.305579</ele>
        <time>2022-07-30T12:00:55.000Z</time>
      </trkpt>
      <trkpt lat="49.61709" lon="-1.38062">
        <ele>42.364772</ele>
        <time>2022-07-30T12:00:56.000Z</time>
      </trkpt>
      <trkpt lat="49.61711" lon="-1.38057">
        <ele>42.426226</ele>
        <time>2022-07-30T12:00:57.000Z</time>
      </trkpt>
      <trkpt lat="49.61711" lon="-1.38052">
        <ele>42.484576</ele>
        <time>2022-07-30T12:00:58.000Z</time>
      </trkpt>
      <trkpt lat="49.61713" lon="-1.38047">
        <ele>42.545396</ele>
        <time>2022-07-30T12:00:59.000Z</time>
      </trkpt>
      <trkpt lat="49.61713" lon="-1.38042">
        <ele>42.603994</ele>
        <time>2022-07-30T12:01:00.000Z</time>
      </trkpt>
      <trkpt lat="49.61714" lon="-1.38037">
        <ele>42.663187</ele>
        <time>2022-07-30T12:01:01.000Z</time>
      </trkpt>
      <trkpt lat="49.61715" lon="-1.38032">
        <ele>42.722876</ele>
        <time>2022-07-30T12:01:02.000Z</time>
      </trkpt>
      <trkpt lat="49.61716" lon="-1.38027">
        <ele>42.780971</ele>
        <time>2022-07-30T12:01:03.000Z</time>
      </trkpt>
      <trkpt lat="49.61717" lon="-1.38022">
        <ele>42.837092</ele>
        <time>2022-07-30T12:01:04.000Z</time>
      </trkpt>
      <trkpt lat="49.61717" lon="-1.38017">
        <ele>42.895095</ele>
        <time>2022-07-30T12:01:05.000Z</time>
      </trkpt>
      <trkpt lat="49.61718" lon="-1.38012">
        <ele>42.958062</ele>
        <time>2022-07-30T12:01:06.000Z</time>
      </trkpt>
      <trkpt lat="49.61719" lon="-1.38006">
        <ele>43.020556</ele>
        <time>2022-07-30T12:01:07.000Z</time>
      </trkpt>
      <trkpt lat="49.61719" lon="-1.38001">
        <ele>43.080021</ele>
        <time>2022-07-30T12:01:08.000Z</time>
      </trkpt>
      <trkpt lat="49.6172" lon="-1.37996">
        <ele>43.144727</ele>
        <time>2022-07-30T12:01:09.000Z</time>
      </trkpt>
      <trkpt lat="49.6172" lon="-1.3799">
        <ele>43.207464</ele>
        <time>2022-07-30T12:01:10.000Z</time>
      </trkpt>
      <trkpt lat="49.61721" lon="-1.37985">
        <ele>43.269285</ele>
        <time>2022-07-30T12:01:11.000Z</time>
      </trkpt>
      <trkpt lat="49.61721" lon="-1.3798">
        <ele>43.330983</ele>
        <time>2022-07-30T12:01:12.000Z</time>
      </trkpt>
      <trkpt lat="49.61722" lon="-1.37974">
        <ele>43.39348</ele>
        <time>2022-07-30T12:01:13.000Z</time>
      </trkpt>
      <trkpt lat="49.61722" lon="-1.37969">
        <ele>43.455076</ele>
        <time>2022-07-30T12:01:14.000Z</time>
      </trkpt>
      <trkpt lat="49.61723" lon="-1.37964">
        <ele>43.515939</ele>
        <time>2022-07-30T12:01:15.000Z</time>
      </trkpt>
      <trkpt lat="49.61723" lon="-1.37958">
        <ele>43.57731</ele>
        <time>2022-07-30T12:01:16.000Z</time>
      </trkpt>
      <trkpt lat="49.61723" lon="-1.37953">
        <ele>43.638906</ele>
        <time>2022-07-30T12:01:17.000Z</time>
      </trkpt>
      <trkpt lat="49.61724" lon="-1.37948">
        <ele>43.700277</ele>
        <time>2022-07-30T12:01:18.000Z</time>
      </trkpt>
      <trkpt lat="49.61724" lon="-1.37942">
        <ele>43.760731</ele>
        <time>2022-07-30T12:01:19.000Z</time>
      </trkpt>
      <trkpt lat="49.61724" lon="-1.37937">
        <ele>43.728763</ele>
        <time>2022-07-30T12:01:20.000Z</time>
      </trkpt>
      <trkpt lat="49.61725" lon="-1.37931">
        <ele>43.695923</ele>
        <time>2022-07-30T12:01:21.000Z</time>
      </trkpt>
      <trkpt lat="49.61725" lon="-1.37926">
        <ele>43.663083</ele>
        <time>2022-07-30T12:01:22.000Z</time>
      </trkpt>
      <trkpt lat="49.61725" lon="-1.3792">
        <ele>43.630243</ele>
        <time>2022-07-30T12:01:23.000Z</time>
      </trkpt>
      <trkpt lat="49.61725" lon="-1.37915">
        <ele>43.598114</ele>
        <time>2022-07-30T12:01:24.000Z</time>
      </trkpt>
      <trkpt lat="49.61725" lon="-1.37909">
        <ele>43.56539</ele>
        <time>2022-07-30T12:01:25.000Z</time>
      </trkpt>
      <trkpt lat="49.61725" lon="-1.37904">
        <ele>43.530881</ele>
        <time>2022-07-30T12:01:26.000Z</time>
      </trkpt>
      <trkpt lat="49.61725" lon="-1.37898">
        <ele>43.496967</ele>
        <time>2022-07-30T12:01:27.000Z</time>
      </trkpt>
      <trkpt lat="49.61725" lon="-1.37892">
        <ele>43.462348</ele>
        <time>2022-07-30T12:01:28.000Z</time>
      </trkpt>
      <trkpt lat="49.61725" lon="-1.37886">
        <ele>43.426542</ele>
        <time>2022-07-30T12:01:29.000Z</time>
      </trkpt>
      <trkpt lat="49.61724" lon="-1.3788">
        <ele>43.391923</ele>
        <time>2022-07-30T12:01:30.000Z</time>
      </trkpt>
      <trkpt lat="49.61724" lon="-1.37874">
        <ele>43.354852</ele>
        <time>2022-07-30T12:01:31.000Z</time>
      </trkpt>
      <trkpt lat="49.61723" lon="-1.37868">
        <ele>43.315787</ele>
        <time>2022-07-30T12:01:32.000Z</time>
      </trkpt>
      <trkpt lat="49.61723" lon="-1.37861">
        <ele>43.275923</ele>
        <time>2022-07-30T12:01:33.000Z</time>
      </trkpt>
      <trkpt lat="49.61723" lon="-1.37854">
        <ele>43.236557</ele>
        <time>2022-07-30T12:01:34.000Z</time>
      </trkpt>
      <trkpt lat="49.61723" lon="-1.37847">
        <ele>43.19363</ele>
        <time>2022-07-30T12:01:35.000Z</time>
      </trkpt>
      <trkpt lat="49.61723" lon="-1.3784">
        <ele>43.150791</ele>
        <time>2022-07-30T12:01:36.000Z</time>
      </trkpt>
      <trkpt lat="49.61723" lon="-1.37832">
        <ele>43.106167</ele>
        <time>2022-07-30T12:01:37.000Z</time>
      </trkpt>
      <trkpt lat="49.61723" lon="-1.37825">
        <ele>43.062733</ele>
        <time>2022-07-30T12:01:38.000Z</time>
      </trkpt>
      <trkpt lat="49.61722" lon="-1.37818">
        <ele>43.017958</ele>
        <time>2022-07-30T12:01:39.000Z</time>
      </trkpt>
      <trkpt lat="49.61722" lon="-1.3781">
        <ele>42.972144</ele>
        <time>2022-07-30T12:01:40.000Z</time>
      </trkpt>
      <trkpt lat="49.61721" lon="-1.37802">
        <ele>42.926176</ele>
        <time>2022-07-30T12:01:41.000Z</time>
      </trkpt>
      <trkpt lat="49.61721" lon="-1.37795">
        <ele>42.879913</ele>
        <time>2022-07-30T12:01:42.000Z</time>
      </trkpt>
      <trkpt lat="49.61721" lon="-1.37787">
        <ele>42.834099</ele>
        <time>2022-07-30T12:01:43.000Z</time>
      </trkpt>
      <trkpt lat="49.6172" lon="-1.37779">
        <ele>42.788797</ele>
        <time>2022-07-30T12:01:44.000Z</time>
      </trkpt>
      <trkpt lat="49.6172" lon="-1.37771">
        <ele>42.741712</ele>
        <time>2022-07-30T12:01:45.000Z</time>
      </trkpt>
      <trkpt lat="49.61719" lon="-1.37763">
        <ele>42.693795</ele>
        <time>2022-07-30T12:01:46.000Z</time>
      </trkpt>
      <trkpt lat="49.61719" lon="-1.37755">
        <ele>42.646055</ele>
        <time>2022-07-30T12:01:47.000Z</time>
      </trkpt>
      <trkpt lat="49.61718" lon="-1.37748">
        <ele>42.59932</ele>
        <time>2022-07-30T12:01:48.000Z</time>
      </trkpt>
      <trkpt lat="49.61718" lon="-1.3774">
        <ele>42.552585</ele>
        <time>2022-07-30T12:01:49.000Z</time>
      </trkpt>
      <trkpt lat="49.61717" lon="-1.37732">
        <ele>42.504692</ele>
        <time>2022-07-30T12:01:50.000Z</time>
      </trkpt>
      <trkpt lat="49.61716" lon="-1.37724">
        <ele>42.457384</ele>
        <time>2022-07-30T12:01:51.000Z</time>
      </trkpt>
      <trkpt lat="49.61714" lon="-1.37716">
        <ele>42.408704</ele>
        <time>2022-07-30T12:01:52.000Z</time>
      </trkpt>
      <trkpt lat="49.61713" lon="-1.37709">
        <ele>42.361723</ele>
        <time>2022-07-30T12:01:53.000Z</time>
      </trkpt>
      <trkpt lat="49.6171" lon="-1.37701">
        <ele>42.310014</ele>
        <time>2022-07-30T12:01:54.000Z</time>
      </trkpt>
      <trkpt lat="49.61709" lon="-1.37693">
        <ele>42.260199</ele>
        <time>2022-07-30T12:01:55.000Z</time>
      </trkpt>
      <trkpt lat="49.61707" lon="-1.37684">
        <ele>42.208104</ele>
        <time>2022-07-30T12:01:56.000Z</time>
      </trkpt>
      <trkpt lat="49.61705" lon="-1.37676">
        <ele>42.152915</ele>
        <time>2022-07-30T12:01:57.000Z</time>
      </trkpt>
      <trkpt lat="49.61703" lon="-1.37667">
        <ele>42.085612</ele>
        <time>2022-07-30T12:01:58.000Z</time>
      </trkpt>
      <trkpt lat="49.61702" lon="-1.37657">
        <ele>41.979026</ele>
        <time>2022-07-30T12:01:59.000Z</time>
      </trkpt>
      <trkpt lat="49.61701" lon="-1.37647">
        <ele>41.863821</ele>
        <time>2022-07-30T12:02:00.000Z</time>
      </trkpt>
      <trkpt lat="49.61699" lon="-1.37637">
        <ele>41.749682</ele>
        <time>2022-07-30T12:02:01.000Z</time>
      </trkpt>
      <trkpt lat="49.61697" lon="-1.37626">
        <ele>41.626995</ele>
        <time>2022-07-30T12:02:02.000Z</time>
      </trkpt>
      <trkpt lat="49.61697" lon="-1.37615">
        <ele>41.502384</ele>
        <time>2022-07-30T12:02:03.000Z</time>
      </trkpt>
      <trkpt lat="49.61696" lon="-1.37603">
        <ele>41.379017</ele>
        <time>2022-07-30T12:02:04.000Z</time>
      </trkpt>
      <trkpt lat="49.61695" lon="-1.37592">
        <ele>41.256744</ele>
        <time>2022-07-30T12:02:05.000Z</time>
      </trkpt>
      <trkpt lat="49.61696" lon="-1.37581">
        <ele>41.135565</ele>
        <time>2022-07-30T12:02:06.000Z</time>
      </trkpt>
      <trkpt lat="49.61697" lon="-1.37571">
        <ele>41.019063</ele>
        <time>2022-07-30T12:02:07.000Z</time>
      </trkpt>
      <trkpt lat="49.61698" lon="-1.3756">
        <ele>40.903101</ele>
        <time>2022-07-30T12:02:08.000Z</time>
      </trkpt>
      <trkpt lat="49.617" lon="-1.3755">
        <ele>40.788215</ele>
        <time>2022-07-30T12:02:09.000Z</time>
      </trkpt>
      <trkpt lat="49.61702" lon="-1.37541">
        <ele>40.675922</ele>
        <time>2022-07-30T12:02:10.000Z</time>
      </trkpt>
      <trkpt lat="49.61704" lon="-1.37531">
        <ele>40.568877</ele>
        <time>2022-07-30T12:02:11.000Z</time>
      </trkpt>
      <trkpt lat="49.61706" lon="-1.37522">
        <ele>40.459163</ele>
        <time>2022-07-30T12:02:12.000Z</time>
      </trkpt>
      <trkpt lat="49.61709" lon="-1.37513">
        <ele>40.351936</ele>
        <time>2022-07-30T12:02:13.000Z</time>
      </trkpt>
      <trkpt lat="49.61711" lon="-1.37504">
        <ele>40.246341</ele>
        <time>2022-07-30T12:02:14.000Z</time>
      </trkpt>
      <trkpt lat="49.61713" lon="-1.37495">
        <ele>40.136159</ele>
        <time>2022-07-30T12:02:15.000Z</time>
      </trkpt>
      <trkpt lat="49.61716" lon="-1.37486">
        <ele>40.025818</ele>
        <time>2022-07-30T12:02:16.000Z</time>
      </trkpt>
      <trkpt lat="49.61719" lon="-1.37477">
        <ele>39.916221</ele>
        <time>2022-07-30T12:02:17.000Z</time>
      </trkpt>
      <trkpt lat="49.61722" lon="-1.37468">
        <ele>39.803525</ele>
        <time>2022-07-30T12:02:18.000Z</time>
      </trkpt>
      <trkpt lat="49.61725" lon="-1.37458">
        <ele>39.692336</ele>
        <time>2022-07-30T12:02:19.000Z</time>
      </trkpt>
      <trkpt lat="49.61728" lon="-1.37449">
        <ele>39.577109</ele>
        <time>2022-07-30T12:02:20.000Z</time>
      </trkpt>
      <trkpt lat="49.61732" lon="-1.37441">
        <ele>39.460974</ele>
        <time>2022-07-30T12:02:21.000Z</time>
      </trkpt>
      <trkpt lat="49.61736" lon="-1.37432">
        <ele>39.353181</ele>
        <time>2022-07-30T12:02:22.000Z</time>
      </trkpt>
      <trkpt lat="49.61739" lon="-1.37424">
        <ele>39.247215</ele>
        <time>2022-07-30T12:02:23.000Z</time>
      </trkpt>
      <trkpt lat="49.61743" lon="-1.37416">
        <ele>39.138322</ele>
        <time>2022-07-30T12:02:24.000Z</time>
      </trkpt>
      <trkpt lat="49.61747" lon="-1.37408">
        <ele>39.040535</ele>
        <time>2022-07-30T12:02:25.000Z</time>
      </trkpt>
      <trkpt lat="49.61751" lon="-1.37401">
        <ele>38.971565</ele>
        <time>2022-07-30T12:02:26.000Z</time>
      </trkpt>
      <trkpt lat="49.61755" lon="-1.37393">
        <ele>38.905396</ele>
        <time>2022-07-30T12:02:27.000Z</time>
      </trkpt>
      <trkpt lat="49.61758" lon="-1.37385">
        <ele>38.836242</ele>
        <time>2022-07-30T12:02:28.000Z</time>
      </trkpt>
      <trkpt lat="49.61762" lon="-1.37378">
        <ele>38.771278</ele>
        <time>2022-07-30T12:02:29.000Z</time>
      </trkpt>
      <trkpt lat="49.61766" lon="-1.37371">
        <ele>38.704777</ele>
        <time>2022-07-30T12:02:30.000Z</time>
      </trkpt>
      <trkpt lat="49.61769" lon="-1.37363">
        <ele>38.642718</ele>
        <time>2022-07-30T12:02:31.000Z</time>
      </trkpt>
      <trkpt lat="49.61773" lon="-1.37356">
        <ele>38.576217</ele>
        <time>2022-07-30T12:02:32.000Z</time>
      </trkpt>
      <trkpt lat="49.61776" lon="-1.37349">
        <ele>38.515178</ele>
        <time>2022-07-30T12:02:33.000Z</time>
      </trkpt>
      <trkpt lat="49.6178" lon="-1.37342">
        <ele>38.451913</ele>
        <time>2022-07-30T12:02:34.000Z</time>
      </trkpt>
      <trkpt lat="49.61783" lon="-1.37335">
        <ele>38.392844</ele>
        <time>2022-07-30T12:02:35.000Z</time>
      </trkpt>
      <trkpt lat="49.61786" lon="-1.37328">
        <ele>38.331253</ele>
        <time>2022-07-30T12:02:36.000Z</time>
      </trkpt>
      <trkpt lat="49.61789" lon="-1.37321">
        <ele>38.270465</ele>
        <time>2022-07-30T12:02:37.000Z</time>
      </trkpt>
      <trkpt lat="49.61792" lon="-1.37314">
        <ele>38.210879</ele>
        <time>2022-07-30T12:02:38.000Z</time>
      </trkpt>
      <trkpt lat="49.61795" lon="-1.37307">
        <ele>38.152482</ele>
        <time>2022-07-30T12:02:39.000Z</time>
      </trkpt>
      <trkpt lat="49.61798" lon="-1.373">
        <ele>38.095265</ele>
        <time>2022-07-30T12:02:40.000Z</time>
      </trkpt>
      <trkpt lat="49.61801" lon="-1.37293">
        <ele>38.039087</ele>
        <time>2022-07-30T12:02:41.000Z</time>
      </trkpt>
      <trkpt lat="49.61803" lon="-1.37286">
        <ele>37.981153</ele>
        <time>2022-07-30T12:02:42.000Z</time>
      </trkpt>
      <trkpt lat="49.61806" lon="-1.37279">
        <ele>37.925659</ele>
        <time>2022-07-30T12:02:43.000Z</time>
      </trkpt>
      <trkpt lat="49.61808" lon="-1.37272">
        <ele>37.871609</ele>
        <time>2022-07-30T12:02:44.000Z</time>
      </trkpt>
      <trkpt lat="49.6181" lon="-1.37265">
        <ele>37.819443</ele>
        <time>2022-07-30T12:02:45.000Z</time>
      </trkpt>
      <trkpt lat="49.61812" lon="-1.37259">
        <ele>37.770765</ele>
        <time>2022-07-30T12:02:46.000Z</time>
      </trkpt>
      <trkpt lat="49.61814" lon="-1.37253">
        <ele>37.721082</ele>
        <time>2022-07-30T12:02:47.000Z</time>
      </trkpt>
      <trkpt lat="49.61816" lon="-1.37247">
        <ele>37.675403</ele>
        <time>2022-07-30T12:02:48.000Z</time>
      </trkpt>
      <trkpt lat="49.61819" lon="-1.37242">
        <ele>37.629394</ele>
        <time>2022-07-30T12:02:49.000Z</time>
      </trkpt>
      <trkpt lat="49.61821" lon="-1.37236">
        <ele>37.582174</ele>
        <time>2022-07-30T12:02:50.000Z</time>
      </trkpt>
      <trkpt lat="49.61823" lon="-1.3723">
        <ele>37.537121</ele>
        <time>2022-07-30T12:02:51.000Z</time>
      </trkpt>
      <trkpt lat="49.61825" lon="-1.37225">
        <ele>37.491113</ele>
        <time>2022-07-30T12:02:52.000Z</time>
      </trkpt>
      <trkpt lat="49.61827" lon="-1.37219">
        <ele>37.447305</ele>
        <time>2022-07-30T12:02:53.000Z</time>
      </trkpt>
      <trkpt lat="49.61829" lon="-1.37214">
        <ele>37.403498</ele>
        <time>2022-07-30T12:02:54.000Z</time>
      </trkpt>
      <trkpt lat="49.6183" lon="-1.37208">
        <ele>37.36169</ele>
        <time>2022-07-30T12:02:55.000Z</time>
      </trkpt>
      <trkpt lat="49.61833" lon="-1.37203">
        <ele>37.312695</ele>
        <time>2022-07-30T12:02:56.000Z</time>
      </trkpt>
      <trkpt lat="49.61835" lon="-1.37197">
        <ele>37.267093</ele>
        <time>2022-07-30T12:02:57.000Z</time>
      </trkpt>
      <trkpt lat="49.61837" lon="-1.3719">
        <ele>37.215768</ele>
        <time>2022-07-30T12:02:58.000Z</time>
      </trkpt>
      <trkpt lat="49.61839" lon="-1.37184">
        <ele>37.165008</ele>
        <time>2022-07-30T12:02:59.000Z</time>
      </trkpt>
      <trkpt lat="49.6184" lon="-1.37176">
        <ele>37.105966</ele>
        <time>2022-07-30T12:03:00.000Z</time>
      </trkpt>
      <trkpt lat="49.61841" lon="-1.37168">
        <ele>36.951965</ele>
        <time>2022-07-30T12:03:01.000Z</time>
      </trkpt>
      <trkpt lat="49.6184" lon="-1.3716">
        <ele>36.794183</ele>
        <time>2022-07-30T12:03:02.000Z</time>
      </trkpt>
      <trkpt lat="49.61838" lon="-1.37151">
        <ele>36.622649</ele>
        <time>2022-07-30T12:03:03.000Z</time>
      </trkpt>
      <trkpt lat="49.61836" lon="-1.37143">
        <ele>36.451908</ele>
        <time>2022-07-30T12:03:04.000Z</time>
      </trkpt>
      <trkpt lat="49.61833" lon="-1.37136">
        <ele>36.293343</ele>
        <time>2022-07-30T12:03:05.000Z</time>
      </trkpt>
      <trkpt lat="49.61829" lon="-1.37129">
        <ele>36.09973</ele>
        <time>2022-07-30T12:03:06.000Z</time>
      </trkpt>
      <trkpt lat="49.61824" lon="-1.37121">
        <ele>35.904722</ele>
        <time>2022-07-30T12:03:07.000Z</time>
      </trkpt>
      <trkpt lat="49.6182" lon="-1.37114">
        <ele>35.711238</ele>
        <time>2022-07-30T12:03:08.000Z</time>
      </trkpt>
      <trkpt lat="49.61815" lon="-1.37105">
        <ele>35.503682</ele>
        <time>2022-07-30T12:03:09.000Z</time>
      </trkpt>
      <trkpt lat="49.61812" lon="-1.37095">
        <ele>35.284275</ele>
        <time>2022-07-30T12:03:10.000Z</time>
      </trkpt>
      <trkpt lat="49.61808" lon="-1.37085">
        <ele>35.059453</ele>
        <time>2022-07-30T12:03:11.000Z</time>
      </trkpt>
      <trkpt lat="49.61806" lon="-1.37073">
        <ele>34.827042</ele>
        <time>2022-07-30T12:03:12.000Z</time>
      </trkpt>
      <trkpt lat="49.61805" lon="-1.37061">
        <ele>34.596232</ele>
        <time>2022-07-30T12:03:13.000Z</time>
      </trkpt>
      <trkpt lat="49.61804" lon="-1.37049">
        <ele>34.36413</ele>
        <time>2022-07-30T12:03:14.000Z</time>
      </trkpt>
      <trkpt lat="49.61803" lon="-1.37037">
        <ele>34.140033</ele>
        <time>2022-07-30T12:03:15.000Z</time>
      </trkpt>
      <trkpt lat="49.61802" lon="-1.37027">
        <ele>33.934871</ele>
        <time>2022-07-30T12:03:16.000Z</time>
      </trkpt>
      <trkpt lat="49.61801" lon="-1.37017">
        <ele>33.758476</ele>
        <time>2022-07-30T12:03:17.000Z</time>
      </trkpt>
      <trkpt lat="49.61801" lon="-1.3701">
        <ele>33.612032</ele>
        <time>2022-07-30T12:03:18.000Z</time>
      </trkpt>
      <trkpt lat="49.618" lon="-1.37004">
        <ele>33.501867</ele>
        <time>2022-07-30T12:03:19.000Z</time>
      </trkpt>
      <trkpt lat="49.61799" lon="-1.37">
        <ele>33.407873</ele>
        <time>2022-07-30T12:03:20.000Z</time>
      </trkpt>
      <trkpt lat="49.61798" lon="-1.36996">
        <ele>33.329547</ele>
        <time>2022-07-30T12:03:21.000Z</time>
      </trkpt>
      <trkpt lat="49.61797" lon="-1.36992">
        <ele>33.259668</ele>
        <time>2022-07-30T12:03:22.000Z</time>
      </trkpt>
      <trkpt lat="49.61796" lon="-1.36988">
        <ele>33.160375</ele>
        <time>2022-07-30T12:03:24.000Z</time>
      </trkpt>
      <trkpt lat="49.61793" lon="-1.36986">
        <ele>33.087931</ele>
        <time>2022-07-30T12:03:26.000Z</time>
      </trkpt>
      <trkpt lat="49.61791" lon="-1.36985">
        <ele>33.007456</ele>
        <time>2022-07-30T12:03:28.000Z</time>
      </trkpt>
      <trkpt lat="49.6179" lon="-1.36982">
        <ele>32.952896</ele>
        <time>2022-07-30T12:03:30.000Z</time>
      </trkpt>
      <trkpt lat="49.6179" lon="-1.36979">
        <ele>32.888034</ele>
        <time>2022-07-30T12:03:32.000Z</time>
      </trkpt>
      <trkpt lat="49.61792" lon="-1.36977">
        <ele>32.816423</ele>
        <time>2022-07-30T12:03:34.000Z</time>
      </trkpt>
      <trkpt lat="49.61795" lon="-1.36979">
        <ele>32.735949</ele>
        <time>2022-07-30T12:03:36.000Z</time>
      </trkpt>
      <trkpt lat="49.61796" lon="-1.36981">
        <ele>32.679613</ele>
        <time>2022-07-30T12:03:37.000Z</time>
      </trkpt>
      <trkpt lat="49.61797" lon="-1.36983">
        <ele>32.623563</ele>
        <time>2022-07-30T12:03:38.000Z</time>
      </trkpt>
      <trkpt lat="49.61798" lon="-1.36986">
        <ele>32.559388</ele>
        <time>2022-07-30T12:03:39.000Z</time>
      </trkpt>
      <trkpt lat="49.618" lon="-1.36989">
        <ele>32.489584</ele>
        <time>2022-07-30T12:03:40.000Z</time>
      </trkpt>
      <trkpt lat="49.61801" lon="-1.36991">
        <ele>32.425204</ele>
        <time>2022-07-30T12:03:41.000Z</time>
      </trkpt>
      <trkpt lat="49.61803" lon="-1.36996">
        <ele>32.322425</ele>
        <time>2022-07-30T12:03:43.000Z</time>
      </trkpt>
      <trkpt lat="49.618" lon="-1.36999">
        <ele>32.229074</ele>
        <time>2022-07-30T12:03:45.000Z</time>
      </trkpt>
      <trkpt lat="49.61797" lon="-1.36997">
        <ele>32.130029</ele>
        <time>2022-07-30T12:03:47.000Z</time>
      </trkpt>
      <trkpt lat="49.61795" lon="-1.36993">
        <ele>32.032104</ele>
        <time>2022-07-30T12:03:49.000Z</time>
      </trkpt>
      <trkpt lat="49.61795" lon="-1.36988">
        <ele>31.948165</ele>
        <time>2022-07-30T12:03:51.000Z</time>
      </trkpt>
      <trkpt lat="49.61797" lon="-1.36984">
        <ele>31.861085</ele>
        <time>2022-07-30T12:03:53.000Z</time>
      </trkpt>
      <trkpt lat="49.61797" lon="-1.3698">
        <ele>31.814866</ele>
        <time>2022-07-30T12:03:55.000Z</time>
      </trkpt>
      <trkpt lat="49.61796" lon="-1.36966">
        <ele>31.815936</ele>
        <time>2022-07-30T12:11:15.000Z</time>
      </trkpt>
      <trkpt lat="49.61796" lon="-1.3697">
        <ele>31.81624</ele>
        <time>2022-07-30T12:11:17.000Z</time>
      </trkpt>
      <trkpt lat="49.61796" lon="-1.36977">
        <ele>31.816738</ele>
        <time>2022-07-30T12:20:11.000Z</time>
      </trkpt>
      <trkpt lat="49.61796" lon="-1.36973">
        <ele>31.817023</ele>
        <time>2022-07-30T12:20:12.000Z</time>
      </trkpt>
      <trkpt lat="49.61796" lon="-1.36969">
        <ele>31.81733</ele>
        <time>2022-07-30T12:20:13.000Z</time>
      </trkpt>
      <trkpt lat="49.61795" lon="-1.36965">
        <ele>31.817652</ele>
        <time>2022-07-30T12:20:14.000Z</time>
      </trkpt>
      <trkpt lat="49.61795" lon="-1.36961">
        <ele>31.817987</ele>
        <time>2022-07-30T12:20:15.000Z</time>
      </trkpt>
      <trkpt lat="49.61794" lon="-1.36956">
        <ele>31.818363</ele>
        <time>2022-07-30T12:20:16.000Z</time>
      </trkpt>
      <trkpt lat="49.61793" lon="-1.36951">
        <ele>31.818733</ele>
        <time>2022-07-30T12:20:17.000Z</time>
      </trkpt>
      <trkpt lat="49.61792" lon="-1.36946">
        <ele>31.81912</ele>
        <time>2022-07-30T12:20:18.000Z</time>
      </trkpt>
      <trkpt lat="49.61792" lon="-1.36941">
        <ele>31.819533</ele>
        <time>2022-07-30T12:20:19.000Z</time>
      </trkpt>
      <trkpt lat="49.61792" lon="-1.36935">
        <ele>31.81996</ele>
        <time>2022-07-30T12:20:20.000Z</time>
      </trkpt>
      <trkpt lat="49.61792" lon="-1.36931">
        <ele>31.820317</ele>
        <time>2022-07-30T12:20:21.000Z</time>
      </trkpt>
      <trkpt lat="49.61791" lon="-1.36926">
        <ele>31.820685</ele>
        <time>2022-07-30T12:20:22.000Z</time>
      </trkpt>
      <trkpt lat="49.61791" lon="-1.36921">
        <ele>31.821066</ele>
        <time>2022-07-30T12:20:23.000Z</time>
      </trkpt>
      <trkpt lat="49.61792" lon="-1.36916">
        <ele>31.82144</ele>
        <time>2022-07-30T12:20:24.000Z</time>
      </trkpt>
      <trkpt lat="49.61792" lon="-1.36911">
        <ele>31.821823</ele>
        <time>2022-07-30T12:20:25.000Z</time>
      </trkpt>
      <trkpt lat="49.61792" lon="-1.36906">
        <ele>31.822188</ele>
        <time>2022-07-30T12:20:26.000Z</time>
      </trkpt>
      <trkpt lat="49.61793" lon="-1.36901">
        <ele>31.822598</ele>
        <time>2022-07-30T12:20:27.000Z</time>
      </trkpt>
      <trkpt lat="49.61793" lon="-1.36895">
        <ele>31.823018</ele>
        <time>2022-07-30T12:20:28.000Z</time>
      </trkpt>
      <trkpt lat="49.61794" lon="-1.3689">
        <ele>31.823423</ele>
        <time>2022-07-30T12:20:29.000Z</time>
      </trkpt>
      <trkpt lat="49.61795" lon="-1.36885">
        <ele>31.823821</ele>
        <time>2022-07-30T12:20:30.000Z</time>
      </trkpt>
      <trkpt lat="49.61796" lon="-1.3688">
        <ele>31.824246</ele>
        <time>2022-07-30T12:20:31.000Z</time>
      </trkpt>
      <trkpt lat="49.61797" lon="-1.36875">
        <ele>31.824666</ele>
        <time>2022-07-30T12:20:32.000Z</time>
      </trkpt>
      <trkpt lat="49.61799" lon="-1.3687">
        <ele>31.825084</ele>
        <time>2022-07-30T12:20:33.000Z</time>
      </trkpt>
      <trkpt lat="49.618" lon="-1.36865">
        <ele>31.825494</ele>
        <time>2022-07-30T12:20:34.000Z</time>
      </trkpt>
      <trkpt lat="49.61801" lon="-1.36859">
        <ele>31.825933</ele>
        <time>2022-07-30T12:20:35.000Z</time>
      </trkpt>
      <trkpt lat="49.61803" lon="-1.36854">
        <ele>31.826364</ele>
        <time>2022-07-30T12:20:36.000Z</time>
      </trkpt>
      <trkpt lat="49.61804" lon="-1.36849">
        <ele>31.826803</ele>
        <time>2022-07-30T12:20:37.000Z</time>
      </trkpt>
      <trkpt lat="49.61806" lon="-1.36844">
        <ele>31.827214</ele>
        <time>2022-07-30T12:20:38.000Z</time>
      </trkpt>
      <trkpt lat="49.61807" lon="-1.36839">
        <ele>31.827652</ele>
        <time>2022-07-30T12:20:39.000Z</time>
      </trkpt>
      <trkpt lat="49.61809" lon="-1.36834">
        <ele>31.828068</ele>
        <time>2022-07-30T12:20:40.000Z</time>
      </trkpt>
      <trkpt lat="49.61812" lon="-1.3683">
        <ele>31.828497</ele>
        <time>2022-07-30T12:20:41.000Z</time>
      </trkpt>
      <trkpt lat="49.61814" lon="-1.36826">
        <ele>31.828916</ele>
        <time>2022-07-30T12:20:42.000Z</time>
      </trkpt>
      <trkpt lat="49.61816" lon="-1.36821">
        <ele>31.829327</ele>
        <time>2022-07-30T12:20:43.000Z</time>
      </trkpt>
      <trkpt lat="49.61819" lon="-1.36817">
        <ele>31.829811</ele>
        <time>2022-07-30T12:20:44.000Z</time>
      </trkpt>
      <trkpt lat="49.61822" lon="-1.36814">
        <ele>31.830217</ele>
        <time>2022-07-30T12:20:45.000Z</time>
      </trkpt>
      <trkpt lat="49.61824" lon="-1.3681">
        <ele>31.830619</ele>
        <time>2022-07-30T12:20:46.000Z</time>
      </trkpt>
      <trkpt lat="49.61827" lon="-1.36806">
        <ele>31.831071</ele>
        <time>2022-07-30T12:20:47.000Z</time>
      </trkpt>
      <trkpt lat="49.6183" lon="-1.36803">
        <ele>31.831509</ele>
        <time>2022-07-30T12:20:48.000Z</time>
      </trkpt>
      <trkpt lat="49.61833" lon="-1.36799">
        <ele>31.831979</ele>
        <time>2022-07-30T12:20:49.000Z</time>
      </trkpt>
      <trkpt lat="49.61836" lon="-1.36795">
        <ele>31.832386</ele>
        <time>2022-07-30T12:20:50.000Z</time>
      </trkpt>
      <trkpt lat="49.61839" lon="-1.36792">
        <ele>31.83286</ele>
        <time>2022-07-30T12:20:51.000Z</time>
      </trkpt>
      <trkpt lat="49.61842" lon="-1.36788">
        <ele>31.833276</ele>
        <time>2022-07-30T12:20:52.000Z</time>
      </trkpt>
      <trkpt lat="49.61845" lon="-1.36784">
        <ele>31.833723</ele>
        <time>2022-07-30T12:20:53.000Z</time>
      </trkpt>
      <trkpt lat="49.61848" lon="-1.3678">
        <ele>31.834193</ele>
        <time>2022-07-30T12:20:54.000Z</time>
      </trkpt>
      <trkpt lat="49.6185" lon="-1.36777">
        <ele>31.834581</ele>
        <time>2022-07-30T12:20:55.000Z</time>
      </trkpt>
      <trkpt lat="49.61853" lon="-1.36773">
        <ele>31.835028</ele>
        <time>2022-07-30T12:20:56.000Z</time>
      </trkpt>
      <trkpt lat="49.61856" lon="-1.36769">
        <ele>31.835471</ele>
        <time>2022-07-30T12:20:57.000Z</time>
      </trkpt>
      <trkpt lat="49.61859" lon="-1.36766">
        <ele>31.835389</ele>
        <time>2022-07-30T12:20:58.000Z</time>
      </trkpt>
      <trkpt lat="49.61862" lon="-1.36762">
        <ele>31.829913</ele>
        <time>2022-07-30T12:20:59.000Z</time>
      </trkpt>
      <trkpt lat="49.61864" lon="-1.36758">
        <ele>31.824972</ele>
        <time>2022-07-30T12:21:00.000Z</time>
      </trkpt>
      <trkpt lat="49.61867" lon="-1.36753">
        <ele>31.819539</ele>
        <time>2022-07-30T12:21:01.000Z</time>
      </trkpt>
      <trkpt lat="49.6187" lon="-1.3675">
        <ele>31.814183</ele>
        <time>2022-07-30T12:21:02.000Z</time>
      </trkpt>
      <trkpt lat="49.61873" lon="-1.36746">
        <ele>31.808811</ele>
        <time>2022-07-30T12:21:03.000Z</time>
      </trkpt>
      <trkpt lat="49.61875" lon="-1.36741">
        <ele>31.803724</ele>
        <time>2022-07-30T12:21:04.000Z</time>
      </trkpt>
      <trkpt lat="49.61877" lon="-1.36737">
        <ele>31.79852</ele>
        <time>2022-07-30T12:21:05.000Z</time>
      </trkpt>
      <trkpt lat="49.6188" lon="-1.36733">
        <ele>31.793292</ele>
        <time>2022-07-30T12:21:06.000Z</time>
      </trkpt>
      <trkpt lat="49.61882" lon="-1.36728">
        <ele>31.788002</ele>
        <time>2022-07-30T12:21:07.000Z</time>
      </trkpt>
      <trkpt lat="49.61884" lon="-1.36723">
        <ele>31.78287</ele>
        <time>2022-07-30T12:21:08.000Z</time>
      </trkpt>
      <trkpt lat="49.61886" lon="-1.36718">
        <ele>31.777424</ele>
        <time>2022-07-30T12:21:09.000Z</time>
      </trkpt>
      <trkpt lat="49.61889" lon="-1.36714">
        <ele>31.772016</ele>
        <time>2022-07-30T12:21:10.000Z</time>
      </trkpt>
      <trkpt lat="49.61891" lon="-1.36709">
        <ele>31.766787</ele>
        <time>2022-07-30T12:21:11.000Z</time>
      </trkpt>
      <trkpt lat="49.61893" lon="-1.36704">
        <ele>31.761578</ele>
        <time>2022-07-30T12:21:12.000Z</time>
      </trkpt>
      <trkpt lat="49.61895" lon="-1.367">
        <ele>31.756601</ele>
        <time>2022-07-30T12:21:13.000Z</time>
      </trkpt>
      <trkpt lat="49.61897" lon="-1.36695">
        <ele>31.751313</ele>
        <time>2022-07-30T12:21:14.000Z</time>
      </trkpt>
      <trkpt lat="49.61899" lon="-1.3669">
        <ele>31.745719</ele>
        <time>2022-07-30T12:21:15.000Z</time>
      </trkpt>
      <trkpt lat="49.61901" lon="-1.36685">
        <ele>31.740713</ele>
        <time>2022-07-30T12:21:16.000Z</time>
      </trkpt>
      <trkpt lat="49.61903" lon="-1.36681">
        <ele>31.735715</ele>
        <time>2022-07-30T12:21:17.000Z</time>
      </trkpt>
      <trkpt lat="49.61905" lon="-1.36676">
        <ele>31.730815</ele>
        <time>2022-07-30T12:21:18.000Z</time>
      </trkpt>
      <trkpt lat="49.61907" lon="-1.36671">
        <ele>31.725608</ele>
        <time>2022-07-30T12:21:19.000Z</time>
      </trkpt>
      <trkpt lat="49.61909" lon="-1.36666">
        <ele>31.720399</ele>
        <time>2022-07-30T12:21:20.000Z</time>
      </trkpt>
      <trkpt lat="49.6191" lon="-1.36662">
        <ele>31.715499</ele>
        <time>2022-07-30T12:21:21.000Z</time>
      </trkpt>
      <trkpt lat="49.61913" lon="-1.36657">
        <ele>31.710356</ele>
        <time>2022-07-30T12:21:22.000Z</time>
      </trkpt>
      <trkpt lat="49.61915" lon="-1.36653">
        <ele>31.70491</ele>
        <time>2022-07-30T12:21:23.000Z</time>
      </trkpt>
      <trkpt lat="49.61917" lon="-1.36648">
        <ele>31.699778</ele>
        <time>2022-07-30T12:21:24.000Z</time>
      </trkpt>
      <trkpt lat="49.61919" lon="-1.36643">
        <ele>31.694569</ele>
        <time>2022-07-30T12:21:25.000Z</time>
      </trkpt>
      <trkpt lat="49.61921" lon="-1.36638">
        <ele>31.688975</ele>
        <time>2022-07-30T12:21:26.000Z</time>
      </trkpt>
      <trkpt lat="49.61923" lon="-1.36633">
        <ele>31.683611</ele>
        <time>2022-07-30T12:21:27.000Z</time>
      </trkpt>
      <trkpt lat="49.61925" lon="-1.36628">
        <ele>31.678097</ele>
        <time>2022-07-30T12:21:28.000Z</time>
      </trkpt>
      <trkpt lat="49.61927" lon="-1.36623">
        <ele>31.672967</ele>
        <time>2022-07-30T12:21:29.000Z</time>
      </trkpt>
      <trkpt lat="49.61929" lon="-1.36619">
        <ele>31.66799</ele>
        <time>2022-07-30T12:21:30.000Z</time>
      </trkpt>
      <trkpt lat="49.61931" lon="-1.36614">
        <ele>31.662937</ele>
        <time>2022-07-30T12:21:31.000Z</time>
      </trkpt>
      <trkpt lat="49.61933" lon="-1.3661">
        <ele>31.657938</ele>
        <time>2022-07-30T12:21:32.000Z</time>
      </trkpt>
      <trkpt lat="49.61935" lon="-1.36606">
        <ele>31.653183</ele>
        <time>2022-07-30T12:21:33.000Z</time>
      </trkpt>
      <trkpt lat="49.61937" lon="-1.36602">
        <ele>31.648804</ele>
        <time>2022-07-30T12:21:34.000Z</time>
      </trkpt>
      <trkpt lat="49.61939" lon="-1.36598">
        <ele>31.644359</ele>
        <time>2022-07-30T12:21:35.000Z</time>
      </trkpt>
      <trkpt lat="49.61941" lon="-1.36593">
        <ele>31.639361</ele>
        <time>2022-07-30T12:21:36.000Z</time>
      </trkpt>
      <trkpt lat="49.61943" lon="-1.36589">
        <ele>31.634916</ele>
        <time>2022-07-30T12:21:37.000Z</time>
      </trkpt>
      <trkpt lat="49.61945" lon="-1.36585">
        <ele>31.630016</ele>
        <time>2022-07-30T12:21:38.000Z</time>
      </trkpt>
      <trkpt lat="49.61947" lon="-1.3658">
        <ele>31.624887</ele>
        <time>2022-07-30T12:21:39.000Z</time>
      </trkpt>
      <trkpt lat="49.61949" lon="-1.36575">
        <ele>31.619755</ele>
        <time>2022-07-30T12:21:40.000Z</time>
      </trkpt>
      <trkpt lat="49.6195" lon="-1.3657">
        <ele>31.614624</ele>
        <time>2022-07-30T12:21:41.000Z</time>
      </trkpt>
      <trkpt lat="49.61952" lon="-1.36565">
        <ele>31.609793</ele>
        <time>2022-07-30T12:21:42.000Z</time>
      </trkpt>
      <trkpt lat="49.61954" lon="-1.3656">
        <ele>31.604505</ele>
        <time>2022-07-30T12:21:43.000Z</time>
      </trkpt>
      <trkpt lat="49.61956" lon="-1.36555">
        <ele>31.598585</ele>
        <time>2022-07-30T12:21:44.000Z</time>
      </trkpt>
      <trkpt lat="49.61958" lon="-1.3655">
        <ele>31.593376</ele>
        <time>2022-07-30T12:21:45.000Z</time>
      </trkpt>
      <trkpt lat="49.6196" lon="-1.36545">
        <ele>31.588288</ele>
        <time>2022-07-30T12:21:46.000Z</time>
      </trkpt>
      <trkpt lat="49.61962" lon="-1.36541">
        <ele>31.583312</ele>
        <time>2022-07-30T12:21:47.000Z</time>
      </trkpt>
      <trkpt lat="49.61964" lon="-1.36536">
        <ele>31.626503</ele>
        <time>2022-07-30T12:21:48.000Z</time>
      </trkpt>
      <trkpt lat="49.61965" lon="-1.36531">
        <ele>31.677828</ele>
        <time>2022-07-30T12:21:49.000Z</time>
      </trkpt>
      <trkpt lat="49.61967" lon="-1.36526">
        <ele>31.726879</ele>
        <time>2022-07-30T12:21:50.000Z</time>
      </trkpt>
      <trkpt lat="49.61969" lon="-1.36522">
        <ele>31.775932</ele>
        <time>2022-07-30T12:21:51.000Z</time>
      </trkpt>
      <trkpt lat="49.61971" lon="-1.36517">
        <ele>31.822942</ele>
        <time>2022-07-30T12:21:52.000Z</time>
      </trkpt>
      <trkpt lat="49.61973" lon="-1.36513">
        <ele>31.869027</ele>
        <time>2022-07-30T12:21:53.000Z</time>
      </trkpt>
      <trkpt lat="49.61975" lon="-1.36508">
        <ele>31.918943</ele>
        <time>2022-07-30T12:21:54.000Z</time>
      </trkpt>
      <trkpt lat="49.61977" lon="-1.36504">
        <ele>31.967262</ele>
        <time>2022-07-30T12:21:55.000Z</time>
      </trkpt>
      <trkpt lat="49.61979" lon="-1.36499">
        <ele>32.012712</ele>
        <time>2022-07-30T12:21:56.000Z</time>
      </trkpt>
      <trkpt lat="49.61981" lon="-1.36495">
        <ele>32.060271</ele>
        <time>2022-07-30T12:21:57.000Z</time>
      </trkpt>
      <trkpt lat="49.61982" lon="-1.3649">
        <ele>32.109323</ele>
        <time>2022-07-30T12:21:58.000Z</time>
      </trkpt>
      <trkpt lat="49.61984" lon="-1.36485">
        <ele>32.157119</ele>
        <time>2022-07-30T12:21:59.000Z</time>
      </trkpt>
      <trkpt lat="49.61985" lon="-1.3648">
        <ele>32.202368</ele>
        <time>2022-07-30T12:22:00.000Z</time>
      </trkpt>
      <trkpt lat="49.61987" lon="-1.36475">
        <ele>32.253692</ele>
        <time>2022-07-30T12:22:01.000Z</time>
      </trkpt>
      <trkpt lat="49.61989" lon="-1.36471">
        <ele>32.299921</ele>
        <time>2022-07-30T12:22:02.000Z</time>
      </trkpt>
      <trkpt lat="49.61991" lon="-1.36466">
        <ele>32.351245</ele>
        <time>2022-07-30T12:22:03.000Z</time>
      </trkpt>
      <trkpt lat="49.61993" lon="-1.36461">
        <ele>32.400297</ele>
        <time>2022-07-30T12:22:04.000Z</time>
      </trkpt>
      <trkpt lat="49.61995" lon="-1.36456">
        <ele>32.450829</ele>
        <time>2022-07-30T12:22:05.000Z</time>
      </trkpt>
      <trkpt lat="49.61996" lon="-1.36451">
        <ele>32.500206</ele>
        <time>2022-07-30T12:22:06.000Z</time>
      </trkpt>
      <trkpt lat="49.61998" lon="-1.36446">
        <ele>32.552782</ele>
        <time>2022-07-30T12:22:07.000Z</time>
      </trkpt>
      <trkpt lat="49.61999" lon="-1.36441">
        <ele>32.59873</ele>
        <time>2022-07-30T12:22:08.000Z</time>
      </trkpt>
      <trkpt lat="49.62" lon="-1.36436">
        <ele>32.648902</ele>
        <time>2022-07-30T12:22:09.000Z</time>
      </trkpt>
      <trkpt lat="49.62002" lon="-1.36431">
        <ele>32.698279</ele>
        <time>2022-07-30T12:22:10.000Z</time>
      </trkpt>
      <trkpt lat="49.62003" lon="-1.36426">
        <ele>32.743766</ele>
        <time>2022-07-30T12:22:11.000Z</time>
      </trkpt>
      <trkpt lat="49.62005" lon="-1.36421">
        <ele>32.791325</ele>
        <time>2022-07-30T12:22:12.000Z</time>
      </trkpt>
      <trkpt lat="49.62006" lon="-1.36417">
        <ele>32.837389</ele>
        <time>2022-07-30T12:22:13.000Z</time>
      </trkpt>
      <trkpt lat="49.62007" lon="-1.36412">
        <ele>32.881634</ele>
        <time>2022-07-30T12:22:14.000Z</time>
      </trkpt>
      <trkpt lat="49.62009" lon="-1.36407">
        <ele>32.930218</ele>
        <time>2022-07-30T12:22:15.000Z</time>
      </trkpt>
      <trkpt lat="49.6201" lon="-1.36402">
        <ele>32.973844</ele>
        <time>2022-07-30T12:22:16.000Z</time>
      </trkpt>
      <trkpt lat="49.62011" lon="-1.36398">
        <ele>33.015682</ele>
        <time>2022-07-30T12:22:17.000Z</time>
      </trkpt>
      <trkpt lat="49.62011" lon="-1.36393">
        <ele>33.056361</ele>
        <time>2022-07-30T12:22:18.000Z</time>
      </trkpt>
      <trkpt lat="49.62013" lon="-1.36389">
        <ele>33.099986</ele>
        <time>2022-07-30T12:22:19.000Z</time>
      </trkpt>
      <trkpt lat="49.62013" lon="-1.36384">
        <ele>33.139798</ele>
        <time>2022-07-30T12:22:20.000Z</time>
      </trkpt>
      <trkpt lat="49.62014" lon="-1.3638">
        <ele>33.180215</ele>
        <time>2022-07-30T12:22:21.000Z</time>
      </trkpt>
      <trkpt lat="49.62015" lon="-1.36377">
        <ele>33.213986</ele>
        <time>2022-07-30T12:22:22.000Z</time>
      </trkpt>
      <trkpt lat="49.62016" lon="-1.36373">
        <ele>33.247429</ele>
        <time>2022-07-30T12:22:23.000Z</time>
      </trkpt>
      <trkpt lat="49.62018" lon="-1.36369">
        <ele>33.293494</ele>
        <time>2022-07-30T12:22:25.000Z</time>
      </trkpt>
      <trkpt lat="49.62018" lon="-1.36358">
        <ele>33.386823</ele>
        <time>2022-07-30T12:24:23.000Z</time>
      </trkpt>
      <trkpt lat="49.6202" lon="-1.36355">
        <ele>33.424751</ele>
        <time>2022-07-30T12:24:24.000Z</time>
      </trkpt>
      <trkpt lat="49.62021" lon="-1.36351">
        <ele>33.458948</ele>
        <time>2022-07-30T12:24:25.000Z</time>
      </trkpt>
      <trkpt lat="49.62023" lon="-1.36348">
        <ele>33.498336</ele>
        <time>2022-07-30T12:24:26.000Z</time>
      </trkpt>
      <trkpt lat="49.62025" lon="-1.36344">
        <ele>33.540139</ele>
        <time>2022-07-30T12:24:27.000Z</time>
      </trkpt>
      <trkpt lat="49.62026" lon="-1.3634">
        <ele>33.580267</ele>
        <time>2022-07-30T12:24:28.000Z</time>
      </trkpt>
      <trkpt lat="49.62028" lon="-1.36336">
        <ele>33.620394</ele>
        <time>2022-07-30T12:24:29.000Z</time>
      </trkpt>
      <trkpt lat="49.6203" lon="-1.36332">
        <ele>33.664434</ele>
        <time>2022-07-30T12:24:30.000Z</time>
      </trkpt>
      <trkpt lat="49.62031" lon="-1.36329">
        <ele>33.697941</ele>
        <time>2022-07-30T12:24:31.000Z</time>
      </trkpt>
      <trkpt lat="49.62033" lon="-1.36326">
        <ele>33.732346</ele>
        <time>2022-07-30T12:24:32.000Z</time>
      </trkpt>
      <trkpt lat="49.62034" lon="-1.36323">
        <ele>33.766752</ele>
        <time>2022-07-30T12:24:33.000Z</time>
      </trkpt>
      <trkpt lat="49.62036" lon="-1.3632">
        <ele>33.802542</ele>
        <time>2022-07-30T12:24:34.000Z</time>
      </trkpt>
      <trkpt lat="49.62037" lon="-1.36317">
        <ele>33.833204</ele>
        <time>2022-07-30T12:24:35.000Z</time>
      </trkpt>
      <trkpt lat="49.62038" lon="-1.36314">
        <ele>33.86761</ele>
        <time>2022-07-30T12:24:36.000Z</time>
      </trkpt>
      <trkpt lat="49.6204" lon="-1.36311">
        <ele>33.898834</ele>
        <time>2022-07-30T12:24:37.000Z</time>
      </trkpt>
      <trkpt lat="49.62041" lon="-1.36308">
        <ele>33.929335</ele>
        <time>2022-07-30T12:24:38.000Z</time>
      </trkpt>
      <trkpt lat="49.62042" lon="-1.36305">
        <ele>33.962072</ele>
        <time>2022-07-30T12:24:39.000Z</time>
      </trkpt>
      <trkpt lat="49.62044" lon="-1.36302">
        <ele>33.99513</ele>
        <time>2022-07-30T12:24:40.000Z</time>
      </trkpt>
      <trkpt lat="49.62045" lon="-1.36299">
        <ele>34.029535</ele>
        <time>2022-07-30T12:24:41.000Z</time>
      </trkpt>
      <trkpt lat="49.62047" lon="-1.36296">
        <ele>34.1112</ele>
        <time>2022-07-30T12:24:42.000Z</time>
      </trkpt>
      <trkpt lat="49.62048" lon="-1.36294">
        <ele>34.236966</ele>
        <time>2022-07-30T12:24:43.000Z</time>
      </trkpt>
      <trkpt lat="49.6205" lon="-1.3629">
        <ele>34.373129</ele>
        <time>2022-07-30T12:24:44.000Z</time>
      </trkpt>
      <trkpt lat="49.62051" lon="-1.36288">
        <ele>34.480831</ele>
        <time>2022-07-30T12:24:45.000Z</time>
      </trkpt>
      <trkpt lat="49.62052" lon="-1.36284">
        <ele>34.608064</ele>
        <time>2022-07-30T12:24:46.000Z</time>
      </trkpt>
      <trkpt lat="49.62053" lon="-1.36281">
        <ele>34.72971</ele>
        <time>2022-07-30T12:24:47.000Z</time>
      </trkpt>
      <trkpt lat="49.62056" lon="-1.36277">
        <ele>34.922789</ele>
        <time>2022-07-30T12:24:49.000Z</time>
      </trkpt>
      <trkpt lat="49.62057" lon="-1.36274">
        <ele>35.028168</ele>
        <time>2022-07-30T12:24:50.000Z</time>
      </trkpt>
      <trkpt lat="49.62059" lon="-1.36269">
        <ele>35.238131</ele>
        <time>2022-07-30T12:24:52.000Z</time>
      </trkpt>
      <trkpt lat="49.6206" lon="-1.36266">
        <ele>35.352562</ele>
        <time>2022-07-30T12:24:53.000Z</time>
      </trkpt>
      <trkpt lat="49.62061" lon="-1.36263">
        <ele>35.466209</ele>
        <time>2022-07-30T12:24:54.000Z</time>
      </trkpt>
      <trkpt lat="49.62062" lon="-1.36259">
        <ele>35.599198</ele>
        <time>2022-07-30T12:24:55.000Z</time>
      </trkpt>
      <trkpt lat="49.62063" lon="-1.36256">
        <ele>35.708183</ele>
        <time>2022-07-30T12:24:56.000Z</time>
      </trkpt>
      <trkpt lat="49.62064" lon="-1.36253">
        <ele>35.835417</ele>
        <time>2022-07-30T12:24:57.000Z</time>
      </trkpt>
      <trkpt lat="49.62065" lon="-1.3625">
        <ele>35.947633</ele>
        <time>2022-07-30T12:24:58.000Z</time>
      </trkpt>
      <trkpt lat="49.62066" lon="-1.36247">
        <ele>36.061281</ele>
        <time>2022-07-30T12:24:59.000Z</time>
      </trkpt>
      <trkpt lat="49.62067" lon="-1.36244">
        <ele>36.177934</ele>
        <time>2022-07-30T12:25:00.000Z</time>
      </trkpt>
      <trkpt lat="49.62068" lon="-1.36241">
        <ele>36.295446</ele>
        <time>2022-07-30T12:25:01.000Z</time>
      </trkpt>
      <trkpt lat="49.62068" lon="-1.36237">
        <ele>36.409218</ele>
        <time>2022-07-30T12:25:02.000Z</time>
      </trkpt>
      <trkpt lat="49.62069" lon="-1.36234">
        <ele>36.527984</ele>
        <time>2022-07-30T12:25:03.000Z</time>
      </trkpt>
      <trkpt lat="49.6207" lon="-1.36232">
        <ele>36.622827</ele>
        <time>2022-07-30T12:25:04.000Z</time>
      </trkpt>
      <trkpt lat="49.62071" lon="-1.36229">
        <ele>36.744405</ele>
        <time>2022-07-30T12:25:05.000Z</time>
      </trkpt>
      <trkpt lat="49.62072" lon="-1.36226">
        <ele>36.850167</ele>
        <time>2022-07-30T12:25:06.000Z</time>
      </trkpt>
      <trkpt lat="49.62073" lon="-1.36222">
        <ele>36.983156</ele>
        <time>2022-07-30T12:25:07.000Z</time>
      </trkpt>
      <trkpt lat="49.62074" lon="-1.36219">
        <ele>37.105112</ele>
        <time>2022-07-30T12:25:08.000Z</time>
      </trkpt>
      <trkpt lat="49.62075" lon="-1.36215">
        <ele>37.2285</ele>
        <time>2022-07-30T12:25:09.000Z</time>
      </trkpt>
      <trkpt lat="49.62076" lon="-1.36212">
        <ele>37.350145</ele>
        <time>2022-07-30T12:25:10.000Z</time>
      </trkpt>
      <trkpt lat="49.62077" lon="-1.36209">
        <ele>37.457555</ele>
        <time>2022-07-30T12:25:11.000Z</time>
      </trkpt>
      <trkpt lat="49.62077" lon="-1.36206">
        <ele>37.56892</ele>
        <time>2022-07-30T12:25:12.000Z</time>
      </trkpt>
      <trkpt lat="49.62078" lon="-1.36203">
        <ele>37.67633</ele>
        <time>2022-07-30T12:25:13.000Z</time>
      </trkpt>
      <trkpt lat="49.62079" lon="-1.362">
        <ele>37.782091</ele>
        <time>2022-07-30T12:25:14.000Z</time>
      </trkpt>
      <trkpt lat="49.6208" lon="-1.36197">
        <ele>37.91508</ele>
        <time>2022-07-30T12:25:15.000Z</time>
      </trkpt>
      <trkpt lat="49.62081" lon="-1.36194">
        <ele>38.045179</ele>
        <time>2022-07-30T12:25:16.000Z</time>
      </trkpt>
      <trkpt lat="49.62082" lon="-1.3619">
        <ele>38.154094</ele>
        <time>2022-07-30T12:25:17.000Z</time>
      </trkpt>
      <trkpt lat="49.62083" lon="-1.36187">
        <ele>38.276814</ele>
        <time>2022-07-30T12:25:18.000Z</time>
      </trkpt>
      <trkpt lat="49.62083" lon="-1.36184">
        <ele>38.39227</ele>
        <time>2022-07-30T12:25:19.000Z</time>
      </trkpt>
      <trkpt lat="49.62084" lon="-1.36181">
        <ele>38.498031</ele>
        <time>2022-07-30T12:25:20.000Z</time>
      </trkpt>
      <trkpt lat="49.62084" lon="-1.36177">
        <ele>38.615929</ele>
        <time>2022-07-30T12:25:21.000Z</time>
      </trkpt>
      <trkpt lat="49.62085" lon="-1.36174">
        <ele>38.74577</ele>
        <time>2022-07-30T12:25:22.000Z</time>
      </trkpt>
      <trkpt lat="49.62086" lon="-1.3617">
        <ele>38.875869</ele>
        <time>2022-07-30T12:25:23.000Z</time>
      </trkpt>
      <trkpt lat="49.62086" lon="-1.36167">
        <ele>38.994571</ele>
        <time>2022-07-30T12:25:24.000Z</time>
      </trkpt>
      <trkpt lat="49.62088" lon="-1.36163">
        <ele>39.133404</ele>
        <time>2022-07-30T12:25:25.000Z</time>
      </trkpt>
      <trkpt lat="49.62088" lon="-1.3616">
        <ele>39.261884</ele>
        <time>2022-07-30T12:25:26.000Z</time>
      </trkpt>
      <trkpt lat="49.62089" lon="-1.36156">
        <ele>39.381561</ele>
        <time>2022-07-30T12:25:27.000Z</time>
      </trkpt>
      <trkpt lat="49.6209" lon="-1.36154">
        <ele>39.48685</ele>
        <time>2022-07-30T12:25:28.000Z</time>
      </trkpt>
      <trkpt lat="49.62091" lon="-1.36151">
        <ele>39.600497</ele>
        <time>2022-07-30T12:25:29.000Z</time>
      </trkpt>
      <trkpt lat="49.62092" lon="-1.36147">
        <ele>39.715953</ele>
        <time>2022-07-30T12:25:30.000Z</time>
      </trkpt>
      <trkpt lat="49.62092" lon="-1.36144">
        <ele>39.832355</ele>
        <time>2022-07-30T12:25:31.000Z</time>
      </trkpt>
      <trkpt lat="49.62093" lon="-1.3614">
        <ele>39.962337</ele>
        <time>2022-07-30T12:25:32.000Z</time>
      </trkpt>
      <trkpt lat="49.62094" lon="-1.36137">
        <ele>40.085725</ele>
        <time>2022-07-30T12:25:33.000Z</time>
      </trkpt>
      <trkpt lat="49.62094" lon="-1.36133">
        <ele>40.214205</ele>
        <time>2022-07-30T12:25:34.000Z</time>
      </trkpt>
      <trkpt lat="49.62096" lon="-1.3613">
        <ele>40.350105</ele>
        <time>2022-07-30T12:25:35.000Z</time>
      </trkpt>
      <trkpt lat="49.62096" lon="-1.36126">
        <ele>40.47206</ele>
        <time>2022-07-30T12:25:36.000Z</time>
      </trkpt>
      <trkpt lat="49.62098" lon="-1.36123">
        <ele>40.60796</ele>
        <time>2022-07-30T12:25:37.000Z</time>
      </trkpt>
      <trkpt lat="49.62098" lon="-1.36119">
        <ele>40.73691</ele>
        <time>2022-07-30T12:25:38.000Z</time>
      </trkpt>
      <trkpt lat="49.62099" lon="-1.36115">
        <ele>40.87648</ele>
        <time>2022-07-30T12:25:39.000Z</time>
      </trkpt>
      <trkpt lat="49.62099" lon="-1.36111">
        <ele>41.011505</ele>
        <time>2022-07-30T12:25:40.000Z</time>
      </trkpt>
      <trkpt lat="49.621" lon="-1.36107">
        <ele>41.13346</ele>
        <time>2022-07-30T12:25:41.000Z</time>
      </trkpt>
      <trkpt lat="49.62101" lon="-1.36104">
        <ele>41.26007</ele>
        <time>2022-07-30T12:25:42.000Z</time>
      </trkpt>
      <trkpt lat="49.62101" lon="-1.361">
        <ele>41.3932</ele>
        <time>2022-07-30T12:25:43.000Z</time>
      </trkpt>
      <trkpt lat="49.62103" lon="-1.36097">
        <ele>41.532045</ele>
        <time>2022-07-30T12:25:44.000Z</time>
      </trkpt>
      <trkpt lat="49.62104" lon="-1.36094">
        <ele>41.645815</ele>
        <time>2022-07-30T12:25:45.000Z</time>
      </trkpt>
      <trkpt lat="49.62105" lon="-1.3609">
        <ele>41.772661</ele>
        <time>2022-07-30T12:25:46.000Z</time>
      </trkpt>
      <trkpt lat="49.62106" lon="-1.36086">
        <ele>41.907706</ele>
        <time>2022-07-30T12:25:47.000Z</time>
      </trkpt>
      <trkpt lat="49.62107" lon="-1.36083">
        <ele>42.045866</ele>
        <time>2022-07-30T12:25:48.000Z</time>
      </trkpt>
      <trkpt lat="49.62108" lon="-1.36079">
        <ele>42.166475</ele>
        <time>2022-07-30T12:25:49.000Z</time>
      </trkpt>
      <trkpt lat="49.62108" lon="-1.36076">
        <ele>42.282061</ele>
        <time>2022-07-30T12:25:50.000Z</time>
      </trkpt>
      <trkpt lat="49.62109" lon="-1.36072">
        <ele>42.435824</ele>
        <time>2022-07-30T12:25:51.000Z</time>
      </trkpt>
      <trkpt lat="49.6211" lon="-1.36068">
        <ele>42.570869</ele>
        <time>2022-07-30T12:25:52.000Z</time>
      </trkpt>
      <trkpt lat="49.62111" lon="-1.36064">
        <ele>42.707157</ele>
        <time>2022-07-30T12:25:53.000Z</time>
      </trkpt>
      <trkpt lat="49.62112" lon="-1.3606">
        <ele>42.854898</ele>
        <time>2022-07-30T12:25:54.000Z</time>
      </trkpt>
      <trkpt lat="49.62114" lon="-1.36056">
        <ele>43.016128</ele>
        <time>2022-07-30T12:25:55.000Z</time>
      </trkpt>
      <trkpt lat="49.62116" lon="-1.36052">
        <ele>43.186093</ele>
        <time>2022-07-30T12:25:56.000Z</time>
      </trkpt>
      <trkpt lat="49.62118" lon="-1.36047">
        <ele>43.387202</ele>
        <time>2022-07-30T12:25:57.000Z</time>
      </trkpt>
      <trkpt lat="49.6212" lon="-1.36042">
        <ele>43.346896</ele>
        <time>2022-07-30T12:25:58.000Z</time>
      </trkpt>
      <trkpt lat="49.62123" lon="-1.36037">
        <ele>43.294198</ele>
        <time>2022-07-30T12:25:59.000Z</time>
      </trkpt>
      <trkpt lat="49.62126" lon="-1.36032">
        <ele>43.239721</ele>
        <time>2022-07-30T12:26:00.000Z</time>
      </trkpt>
      <trkpt lat="49.6213" lon="-1.36026">
        <ele>43.176581</ele>
        <time>2022-07-30T12:26:01.000Z</time>
      </trkpt>
      <trkpt lat="49.62133" lon="-1.36021">
        <ele>43.112355</ele>
        <time>2022-07-30T12:26:02.000Z</time>
      </trkpt>
      <trkpt lat="49.62138" lon="-1.36014">
        <ele>43.04137</ele>
        <time>2022-07-30T12:26:03.000Z</time>
      </trkpt>
      <trkpt lat="49.62142" lon="-1.36008">
        <ele>42.965587</ele>
        <time>2022-07-30T12:26:04.000Z</time>
      </trkpt>
      <trkpt lat="49.62147" lon="-1.36001">
        <ele>42.887146</ele>
        <time>2022-07-30T12:26:05.000Z</time>
      </trkpt>
      <trkpt lat="49.62151" lon="-1.35994">
        <ele>42.80802</ele>
        <time>2022-07-30T12:26:06.000Z</time>
      </trkpt>
      <trkpt lat="49.62156" lon="-1.35986">
        <ele>42.725234</ele>
        <time>2022-07-30T12:26:07.000Z</time>
      </trkpt>
      <trkpt lat="49.62161" lon="-1.35979">
        <ele>42.639854</ele>
        <time>2022-07-30T12:26:08.000Z</time>
      </trkpt>
      <trkpt lat="49.62166" lon="-1.35971">
        <ele>42.557069</ele>
        <time>2022-07-30T12:26:09.000Z</time>
      </trkpt>
      <trkpt lat="49.62172" lon="-1.35964">
        <ele>42.470578</ele>
        <time>2022-07-30T12:26:10.000Z</time>
      </trkpt>
      <trkpt lat="49.62177" lon="-1.35956">
        <ele>42.381625</ele>
        <time>2022-07-30T12:26:11.000Z</time>
      </trkpt>
      <trkpt lat="49.62182" lon="-1.35949">
        <ele>42.297321</ele>
        <time>2022-07-30T12:26:12.000Z</time>
      </trkpt>
      <trkpt lat="49.62188" lon="-1.35942">
        <ele>42.208047</ele>
        <time>2022-07-30T12:26:13.000Z</time>
      </trkpt>
      <trkpt lat="49.62193" lon="-1.35934">
        <ele>42.12016</ele>
        <time>2022-07-30T12:26:14.000Z</time>
      </trkpt>
      <trkpt lat="49.62199" lon="-1.35927">
        <ele>42.029376</ele>
        <time>2022-07-30T12:26:15.000Z</time>
      </trkpt>
      <trkpt lat="49.62205" lon="-1.35919">
        <ele>41.933864</ele>
        <time>2022-07-30T12:26:16.000Z</time>
      </trkpt>
      <trkpt lat="49.62211" lon="-1.35911">
        <ele>41.839585</ele>
        <time>2022-07-30T12:26:17.000Z</time>
      </trkpt>
      <trkpt lat="49.62216" lon="-1.35903">
        <ele>41.751451</ele>
        <time>2022-07-30T12:26:18.000Z</time>
      </trkpt>
      <trkpt lat="49.62221" lon="-1.35895">
        <ele>41.658073</ele>
        <time>2022-07-30T12:26:19.000Z</time>
      </trkpt>
      <trkpt lat="49.62228" lon="-1.35887">
        <ele>41.562062</ele>
        <time>2022-07-30T12:26:20.000Z</time>
      </trkpt>
      <trkpt lat="49.62234" lon="-1.35879">
        <ele>41.465041</ele>
        <time>2022-07-30T12:26:21.000Z</time>
      </trkpt>
      <trkpt lat="49.62239" lon="-1.35871">
        <ele>41.370762</ele>
        <time>2022-07-30T12:26:22.000Z</time>
      </trkpt>
      <trkpt lat="49.62245" lon="-1.35863">
        <ele>41.274662</ele>
        <time>2022-07-30T12:26:23.000Z</time>
      </trkpt>
      <trkpt lat="49.62252" lon="-1.35855">
        <ele>41.256869</ele>
        <time>2022-07-30T12:26:24.000Z</time>
      </trkpt>
      <trkpt lat="49.62258" lon="-1.35848">
        <ele>41.383365</ele>
        <time>2022-07-30T12:26:25.000Z</time>
      </trkpt>
      <trkpt lat="49.62263" lon="-1.3584">
        <ele>41.495284</ele>
        <time>2022-07-30T12:26:26.000Z</time>
      </trkpt>
      <trkpt lat="49.62268" lon="-1.35832">
        <ele>41.606895</ele>
        <time>2022-07-30T12:26:27.000Z</time>
      </trkpt>
      <trkpt lat="49.62273" lon="-1.35824">
        <ele>41.711233</ele>
        <time>2022-07-30T12:26:28.000Z</time>
      </trkpt>
      <trkpt lat="49.62277" lon="-1.35817">
        <ele>41.807588</ele>
        <time>2022-07-30T12:26:29.000Z</time>
      </trkpt>
      <trkpt lat="49.62281" lon="-1.35811">
        <ele>41.898883</ele>
        <time>2022-07-30T12:26:30.000Z</time>
      </trkpt>
      <trkpt lat="49.62285" lon="-1.35805">
        <ele>41.9849</ele>
        <time>2022-07-30T12:26:31.000Z</time>
      </trkpt>
      <trkpt lat="49.62289" lon="-1.358">
        <ele>42.064581</ele>
        <time>2022-07-30T12:26:32.000Z</time>
      </trkpt>
      <trkpt lat="49.62293" lon="-1.35796">
        <ele>42.136899</ele>
        <time>2022-07-30T12:26:33.000Z</time>
      </trkpt>
      <trkpt lat="49.62296" lon="-1.35791">
        <ele>42.206008</ele>
        <time>2022-07-30T12:26:34.000Z</time>
      </trkpt>
      <trkpt lat="49.62299" lon="-1.35787">
        <ele>42.266635</ele>
        <time>2022-07-30T12:26:35.000Z</time>
      </trkpt>
      <trkpt lat="49.62302" lon="-1.35784">
        <ele>42.326628</ele>
        <time>2022-07-30T12:26:36.000Z</time>
      </trkpt>
      <trkpt lat="49.62305" lon="-1.35781">
        <ele>42.374779</ele>
        <time>2022-07-30T12:26:37.000Z</time>
      </trkpt>
      <trkpt lat="49.62307" lon="-1.35779">
        <ele>42.423629</ele>
        <time>2022-07-30T12:26:38.000Z</time>
      </trkpt>
      <trkpt lat="49.6231" lon="-1.35776">
        <ele>42.471381</ele>
        <time>2022-07-30T12:26:39.000Z</time>
      </trkpt>
      <trkpt lat="49.62312" lon="-1.35774">
        <ele>42.51675</ele>
        <time>2022-07-30T12:26:40.000Z</time>
      </trkpt>
      <trkpt lat="49.62315" lon="-1.35772">
        <ele>42.557903</ele>
        <time>2022-07-30T12:26:41.000Z</time>
      </trkpt>
      <trkpt lat="49.62317" lon="-1.3577">
        <ele>42.594929</ele>
        <time>2022-07-30T12:26:42.000Z</time>
      </trkpt>
      <trkpt lat="49.62319" lon="-1.35767">
        <ele>42.635792</ele>
        <time>2022-07-30T12:26:43.000Z</time>
      </trkpt>
      <trkpt lat="49.62321" lon="-1.35765">
        <ele>42.673433</ele>
        <time>2022-07-30T12:26:44.000Z</time>
      </trkpt>
      <trkpt lat="49.62323" lon="-1.35763">
        <ele>42.717285</ele>
        <time>2022-07-30T12:26:45.000Z</time>
      </trkpt>
      <trkpt lat="49.62325" lon="-1.3576">
        <ele>42.763721</ele>
        <time>2022-07-30T12:26:46.000Z</time>
      </trkpt>
      <trkpt lat="49.62328" lon="-1.35758">
        <ele>42.811473</ele>
        <time>2022-07-30T12:26:47.000Z</time>
      </trkpt>
      <trkpt lat="49.62331" lon="-1.35755">
        <ele>42.857695</ele>
        <time>2022-07-30T12:26:48.000Z</time>
      </trkpt>
      <trkpt lat="49.62333" lon="-1.35754">
        <ele>42.89651</ele>
        <time>2022-07-30T12:26:49.000Z</time>
      </trkpt>
      <trkpt lat="49.62335" lon="-1.35752">
        <ele>42.930746</ele>
        <time>2022-07-30T12:26:50.000Z</time>
      </trkpt>
      <trkpt lat="49.62336" lon="-1.35749">
        <ele>42.970773</ele>
        <time>2022-07-30T12:26:51.000Z</time>
      </trkpt>
      <trkpt lat="49.62339" lon="-1.35746">
        <ele>43.014052</ele>
        <time>2022-07-30T12:26:52.000Z</time>
      </trkpt>
      <trkpt lat="49.62341" lon="-1.35744">
        <ele>43.057245</ele>
        <time>2022-07-30T12:26:53.000Z</time>
      </trkpt>
      <trkpt lat="49.62343" lon="-1.35741">
        <ele>43.097504</ele>
        <time>2022-07-30T12:26:54.000Z</time>
      </trkpt>
      <trkpt lat="49.62345" lon="-1.35738">
        <ele>43.148107</ele>
        <time>2022-07-30T12:26:55.000Z</time>
      </trkpt>
      <trkpt lat="49.62348" lon="-1.35736">
        <ele>43.190694</ele>
        <time>2022-07-30T12:26:56.000Z</time>
      </trkpt>
      <trkpt lat="49.62349" lon="-1.35733">
        <ele>43.231644</ele>
        <time>2022-07-30T12:26:57.000Z</time>
      </trkpt>
      <trkpt lat="49.62352" lon="-1.3573">
        <ele>43.27887</ele>
        <time>2022-07-30T12:26:58.000Z</time>
      </trkpt>
      <trkpt lat="49.62355" lon="-1.35728">
        <ele>43.325585</ele>
        <time>2022-07-30T12:26:59.000Z</time>
      </trkpt>
      <trkpt lat="49.62357" lon="-1.35726">
        <ele>43.368172</ele>
        <time>2022-07-30T12:27:00.000Z</time>
      </trkpt>
      <trkpt lat="49.62359" lon="-1.35723">
        <ele>43.417021</ele>
        <time>2022-07-30T12:27:01.000Z</time>
      </trkpt>
      <trkpt lat="49.62361" lon="-1.3572">
        <ele>43.457971</ele>
        <time>2022-07-30T12:27:02.000Z</time>
      </trkpt>
      <trkpt lat="49.62364" lon="-1.35717">
        <ele>43.503732</ele>
        <time>2022-07-30T12:27:03.000Z</time>
      </trkpt>
      <trkpt lat="49.62366" lon="-1.35715">
        <ele>43.546453</ele>
        <time>2022-07-30T12:27:04.000Z</time>
      </trkpt>
      <trkpt lat="49.62368" lon="-1.35713">
        <ele>43.586255</ele>
        <time>2022-07-30T12:27:05.000Z</time>
      </trkpt>
      <trkpt lat="49.6237" lon="-1.3571">
        <ele>43.628251</ele>
        <time>2022-07-30T12:27:06.000Z</time>
      </trkpt>
      <trkpt lat="49.62372" lon="-1.35708">
        <ele>43.668369</ele>
        <time>2022-07-30T12:27:07.000Z</time>
      </trkpt>
      <trkpt lat="49.62374" lon="-1.35705">
        <ele>43.712819</ele>
        <time>2022-07-30T12:27:08.000Z</time>
      </trkpt>
      <trkpt lat="49.62376" lon="-1.35702">
        <ele>43.753641</ele>
        <time>2022-07-30T12:27:09.000Z</time>
      </trkpt>
      <trkpt lat="49.62378" lon="-1.35699">
        <ele>43.795268</ele>
        <time>2022-07-30T12:27:10.000Z</time>
      </trkpt>
      <trkpt lat="49.6238" lon="-1.35695">
        <ele>43.839854</ele>
        <time>2022-07-30T12:27:11.000Z</time>
      </trkpt>
      <trkpt lat="49.62381" lon="-1.35692">
        <ele>43.878322</ele>
        <time>2022-07-30T12:27:12.000Z</time>
      </trkpt>
      <trkpt lat="49.62383" lon="-1.3569">
        <ele>43.917904</ele>
        <time>2022-07-30T12:27:13.000Z</time>
      </trkpt>
      <trkpt lat="49.62384" lon="-1.35687">
        <ele>43.954353</ele>
        <time>2022-07-30T12:27:14.000Z</time>
      </trkpt>
      <trkpt lat="49.62386" lon="-1.35683">
        <ele>43.994224</ele>
        <time>2022-07-30T12:27:15.000Z</time>
      </trkpt>
      <trkpt lat="49.62387" lon="-1.3568">
        <ele>44.025141</ele>
        <time>2022-07-30T12:27:16.000Z</time>
      </trkpt>
      <trkpt lat="49.62388" lon="-1.35676">
        <ele>44.050189</ele>
        <time>2022-07-30T12:27:17.000Z</time>
      </trkpt>
      <trkpt lat="49.62389" lon="-1.35673">
        <ele>44.074094</ele>
        <time>2022-07-30T12:27:18.000Z</time>
      </trkpt>
      <trkpt lat="49.6239" lon="-1.35669">
        <ele>44.097849</ele>
        <time>2022-07-30T12:27:19.000Z</time>
      </trkpt>
      <trkpt lat="49.62391" lon="-1.35665">
        <ele>44.122789</ele>
        <time>2022-07-30T12:27:20.000Z</time>
      </trkpt>
      <trkpt lat="49.62393" lon="-1.35662">
        <ele>44.148658</ele>
        <time>2022-07-30T12:27:21.000Z</time>
      </trkpt>
      <trkpt lat="49.62394" lon="-1.35658">
        <ele>44.173175</ele>
        <time>2022-07-30T12:27:22.000Z</time>
      </trkpt>
      <trkpt lat="49.62396" lon="-1.35654">
        <ele>44.199691</ele>
        <time>2022-07-30T12:27:23.000Z</time>
      </trkpt>
      <trkpt lat="49.62397" lon="-1.3565">
        <ele>44.225096</ele>
        <time>2022-07-30T12:27:24.000Z</time>
      </trkpt>
      <trkpt lat="49.62398" lon="-1.35646">
        <ele>44.250558</ele>
        <time>2022-07-30T12:27:25.000Z</time>
      </trkpt>
      <trkpt lat="49.62399" lon="-1.35642">
        <ele>44.277911</ele>
        <time>2022-07-30T12:27:26.000Z</time>
      </trkpt>
      <trkpt lat="49.624" lon="-1.35638">
        <ele>44.303001</ele>
        <time>2022-07-30T12:27:27.000Z</time>
      </trkpt>
      <trkpt lat="49.62402" lon="-1.35634">
        <ele>44.330856</ele>
        <time>2022-07-30T12:27:28.000Z</time>
      </trkpt>
      <trkpt lat="49.62404" lon="-1.3563">
        <ele>44.358711</ele>
        <time>2022-07-30T12:27:29.000Z</time>
      </trkpt>
      <trkpt lat="49.62405" lon="-1.35626">
        <ele>44.387071</ele>
        <time>2022-07-30T12:27:30.000Z</time>
      </trkpt>
      <trkpt lat="49.62406" lon="-1.35622">
        <ele>44.4147</ele>
        <time>2022-07-30T12:27:31.000Z</time>
      </trkpt>
      <trkpt lat="49.62408" lon="-1.35618">
        <ele>44.443061</ele>
        <time>2022-07-30T12:27:32.000Z</time>
      </trkpt>
      <trkpt lat="49.62409" lon="-1.35614">
        <ele>44.471931</ele>
        <time>2022-07-30T12:27:33.000Z</time>
      </trkpt>
      <trkpt lat="49.6241" lon="-1.35609">
        <ele>44.498706</ele>
        <time>2022-07-30T12:27:34.000Z</time>
      </trkpt>
      <trkpt lat="49.62412" lon="-1.35605">
        <ele>44.5279</ele>
        <time>2022-07-30T12:27:35.000Z</time>
      </trkpt>
      <trkpt lat="49.62413" lon="-1.356">
        <ele>44.557798</ele>
        <time>2022-07-30T12:27:36.000Z</time>
      </trkpt>
      <trkpt lat="49.62414" lon="-1.35596">
        <ele>44.583756</ele>
        <time>2022-07-30T12:27:37.000Z</time>
      </trkpt>
      <trkpt lat="49.62415" lon="-1.35593">
        <ele>44.607173</ele>
        <time>2022-07-30T12:27:38.000Z</time>
      </trkpt>
      <trkpt lat="49.62416" lon="-1.35588">
        <ele>44.633687</ele>
        <time>2022-07-30T12:27:39.000Z</time>
      </trkpt>
      <trkpt lat="49.62417" lon="-1.35584">
        <ele>44.660203</ele>
        <time>2022-07-30T12:27:40.000Z</time>
      </trkpt>
      <trkpt lat="49.62418" lon="-1.35581">
        <ele>44.681418</ele>
        <time>2022-07-30T12:27:41.000Z</time>
      </trkpt>
      <trkpt lat="49.6242" lon="-1.35578">
        <ele>44.704303</ele>
        <time>2022-07-30T12:27:42.000Z</time>
      </trkpt>
      <trkpt lat="49.6242" lon="-1.35574">
        <ele>44.726397</ele>
        <time>2022-07-30T12:27:44.000Z</time>
      </trkpt>
      <trkpt lat="49.62423" lon="-1.35568">
        <ele>44.771089</ele>
        <time>2022-07-30T12:28:49.000Z</time>
      </trkpt>
      <trkpt lat="49.62425" lon="-1.35565">
        <ele>44.798742</ele>
        <time>2022-07-30T12:28:50.000Z</time>
      </trkpt>
      <trkpt lat="49.62426" lon="-1.35561">
        <ele>44.82379</ele>
        <time>2022-07-30T12:28:51.000Z</time>
      </trkpt>
      <trkpt lat="49.62428" lon="-1.35557">
        <ele>44.856126</ele>
        <time>2022-07-30T12:28:52.000Z</time>
      </trkpt>
      <trkpt lat="49.6243" lon="-1.35552">
        <ele>44.887585</ele>
        <time>2022-07-30T12:28:53.000Z</time>
      </trkpt>
      <trkpt lat="49.62431" lon="-1.35547">
        <ele>44.921161</ele>
        <time>2022-07-30T12:28:54.000Z</time>
      </trkpt>
      <trkpt lat="49.62433" lon="-1.35542">
        <ele>44.955507</ele>
        <time>2022-07-30T12:28:55.000Z</time>
      </trkpt>
      <trkpt lat="49.62435" lon="-1.35537">
        <ele>44.990881</ele>
        <time>2022-07-30T12:28:56.000Z</time>
      </trkpt>
      <trkpt lat="49.62437" lon="-1.35532">
        <ele>45.023925</ele>
        <time>2022-07-30T12:28:57.000Z</time>
      </trkpt>
      <trkpt lat="49.62438" lon="-1.35527">
        <ele>45.054751</ele>
        <time>2022-07-30T12:28:58.000Z</time>
      </trkpt>
      <trkpt lat="49.6244" lon="-1.35522">
        <ele>45.08621</ele>
        <time>2022-07-30T12:28:59.000Z</time>
      </trkpt>
      <trkpt lat="49.62442" lon="-1.35517">
        <ele>45.120557</ele>
        <time>2022-07-30T12:29:00.000Z</time>
      </trkpt>
      <trkpt lat="49.62443" lon="-1.35512">
        <ele>45.1536</ele>
        <time>2022-07-30T12:29:01.000Z</time>
      </trkpt>
      <trkpt lat="49.62445" lon="-1.35507">
        <ele>45.186643</ele>
        <time>2022-07-30T12:29:02.000Z</time>
      </trkpt>
      <trkpt lat="49.62447" lon="-1.35502">
        <ele>45.22099</ele>
        <time>2022-07-30T12:29:03.000Z</time>
      </trkpt>
      <trkpt lat="49.62449" lon="-1.35497">
        <ele>45.255337</ele>
        <time>2022-07-30T12:29:04.000Z</time>
      </trkpt>
      <trkpt lat="49.6245" lon="-1.35492">
        <ele>45.28726</ele>
        <time>2022-07-30T12:29:05.000Z</time>
      </trkpt>
      <trkpt lat="49.62452" lon="-1.35487">
        <ele>45.322633</ele>
        <time>2022-07-30T12:29:06.000Z</time>
      </trkpt>
      <trkpt lat="49.62454" lon="-1.35482">
        <ele>45.358976</ele>
        <time>2022-07-30T12:29:07.000Z</time>
      </trkpt>
      <trkpt lat="49.62456" lon="-1.35476">
        <ele>45.39435</ele>
        <time>2022-07-30T12:29:08.000Z</time>
      </trkpt>
      <trkpt lat="49.62458" lon="-1.35471">
        <ele>45.429209</ele>
        <time>2022-07-30T12:29:09.000Z</time>
      </trkpt>
      <trkpt lat="49.62459" lon="-1.35466">
        <ele>45.464932</ele>
        <time>2022-07-30T12:29:10.000Z</time>
      </trkpt>
      <trkpt lat="49.62461" lon="-1.3546">
        <ele>45.502915</ele>
        <time>2022-07-30T12:29:11.000Z</time>
      </trkpt>
      <trkpt lat="49.62463" lon="-1.35455">
        <ele>45.538806</ele>
        <time>2022-07-30T12:29:12.000Z</time>
      </trkpt>
      <trkpt lat="49.62465" lon="-1.35449">
        <ele>45.577098</ele>
        <time>2022-07-30T12:29:13.000Z</time>
      </trkpt>
      <trkpt lat="49.62467" lon="-1.35444">
        <ele>45.613362</ele>
        <time>2022-07-30T12:29:14.000Z</time>
      </trkpt>
      <trkpt lat="49.62469" lon="-1.35438">
        <ele>45.652402</ele>
        <time>2022-07-30T12:29:15.000Z</time>
      </trkpt>
      <trkpt lat="49.62471" lon="-1.35432">
        <ele>45.634296</ele>
        <time>2022-07-30T12:29:16.000Z</time>
      </trkpt>
      <trkpt lat="49.62473" lon="-1.35425">
        <ele>45.596053</ele>
        <time>2022-07-30T12:29:17.000Z</time>
      </trkpt>
      <trkpt lat="49.62475" lon="-1.35419">
        <ele>45.557738</ele>
        <time>2022-07-30T12:29:18.000Z</time>
      </trkpt>
      <trkpt lat="49.62477" lon="-1.35414">
        <ele>45.52638</ele>
        <time>2022-07-30T12:29:19.000Z</time>
      </trkpt>
      <trkpt lat="49.62479" lon="-1.35406">
        <ele>45.479773</ele>
        <time>2022-07-30T12:29:20.000Z</time>
      </trkpt>
      <trkpt lat="49.62481" lon="-1.35399">
        <ele>45.44055</ele>
        <time>2022-07-30T12:29:21.000Z</time>
      </trkpt>
      <trkpt lat="49.62483" lon="-1.35392">
        <ele>45.399886</ele>
        <time>2022-07-30T12:29:22.000Z</time>
      </trkpt>
      <trkpt lat="49.62485" lon="-1.35386">
        <ele>45.360557</ele>
        <time>2022-07-30T12:29:23.000Z</time>
      </trkpt>
      <trkpt lat="49.62487" lon="-1.3538">
        <ele>45.321776</ele>
        <time>2022-07-30T12:29:24.000Z</time>
      </trkpt>
      <trkpt lat="49.6249" lon="-1.35373">
        <ele>45.283394</ele>
        <time>2022-07-30T12:29:25.000Z</time>
      </trkpt>
      <trkpt lat="49.62493" lon="-1.35367">
        <ele>45.242384</ele>
        <time>2022-07-30T12:29:26.000Z</time>
      </trkpt>
      <trkpt lat="49.62495" lon="-1.35361">
        <ele>45.201845</ele>
        <time>2022-07-30T12:29:27.000Z</time>
      </trkpt>
      <trkpt lat="49.62498" lon="-1.35354">
        <ele>45.159333</ele>
        <time>2022-07-30T12:29:28.000Z</time>
      </trkpt>
      <trkpt lat="49.62501" lon="-1.35348">
        <ele>45.117239</ele>
        <time>2022-07-30T12:29:29.000Z</time>
      </trkpt>
      <trkpt lat="49.62505" lon="-1.35342">
        <ele>45.071783</ele>
        <time>2022-07-30T12:29:30.000Z</time>
      </trkpt>
      <trkpt lat="49.62509" lon="-1.35336">
        <ele>45.027275</ele>
        <time>2022-07-30T12:29:31.000Z</time>
      </trkpt>
      <trkpt lat="49.62512" lon="-1.35329">
        <ele>44.982202</ele>
        <time>2022-07-30T12:29:32.000Z</time>
      </trkpt>
      <trkpt lat="49.62516" lon="-1.35322">
        <ele>44.931184</ele>
        <time>2022-07-30T12:29:33.000Z</time>
      </trkpt>
      <trkpt lat="49.6252" lon="-1.35315">
        <ele>44.883763</ele>
        <time>2022-07-30T12:29:34.000Z</time>
      </trkpt>
      <trkpt lat="49.62524" lon="-1.35308">
        <ele>44.834785</ele>
        <time>2022-07-30T12:29:35.000Z</time>
      </trkpt>
      <trkpt lat="49.62527" lon="-1.35301">
        <ele>44.782369</ele>
        <time>2022-07-30T12:29:36.000Z</time>
      </trkpt>
      <trkpt lat="49.62531" lon="-1.35293">
        <ele>44.730458</ele>
        <time>2022-07-30T12:29:37.000Z</time>
      </trkpt>
      <trkpt lat="49.62535" lon="-1.35285">
        <ele>44.676065</ele>
        <time>2022-07-30T12:29:38.000Z</time>
      </trkpt>
      <trkpt lat="49.6254" lon="-1.35277">
        <ele>44.622613</ele>
        <time>2022-07-30T12:29:39.000Z</time>
      </trkpt>
      <trkpt lat="49.62544" lon="-1.35269">
        <ele>44.564135</ele>
        <time>2022-07-30T12:29:40.000Z</time>
      </trkpt>
      <trkpt lat="49.62549" lon="-1.35261">
        <ele>44.507317</ele>
        <time>2022-07-30T12:29:41.000Z</time>
      </trkpt>
      <trkpt lat="49.62553" lon="-1.35253">
        <ele>44.450836</ele>
        <time>2022-07-30T12:29:42.000Z</time>
      </trkpt>
      <trkpt lat="49.62558" lon="-1.35245">
        <ele>44.391568</ele>
        <time>2022-07-30T12:29:43.000Z</time>
      </trkpt>
      <trkpt lat="49.62562" lon="-1.35237">
        <ele>44.334879</ele>
        <time>2022-07-30T12:29:44.000Z</time>
      </trkpt>
      <trkpt lat="49.62566" lon="-1.35228">
        <ele>44.277974</ele>
        <time>2022-07-30T12:29:45.000Z</time>
      </trkpt>
      <trkpt lat="49.62571" lon="-1.35221">
        <ele>44.221961</ele>
        <time>2022-07-30T12:29:46.000Z</time>
      </trkpt>
      <trkpt lat="49.62575" lon="-1.35212">
        <ele>44.174314</ele>
        <time>2022-07-30T12:29:47.000Z</time>
      </trkpt>
      <trkpt lat="49.62579" lon="-1.35204">
        <ele>44.184046</ele>
        <time>2022-07-30T12:29:48.000Z</time>
      </trkpt>
      <trkpt lat="49.62583" lon="-1.35196">
        <ele>44.193194</ele>
        <time>2022-07-30T12:29:49.000Z</time>
      </trkpt>
      <trkpt lat="49.62587" lon="-1.35189">
        <ele>44.202283</ele>
        <time>2022-07-30T12:29:50.000Z</time>
      </trkpt>
      <trkpt lat="49.62591" lon="-1.35182">
        <ele>44.211414</ele>
        <time>2022-07-30T12:29:51.000Z</time>
      </trkpt>
      <trkpt lat="49.62596" lon="-1.35175">
        <ele>44.220735</ele>
        <time>2022-07-30T12:29:52.000Z</time>
      </trkpt>
      <trkpt lat="49.626" lon="-1.35167">
        <ele>44.229892</ele>
        <time>2022-07-30T12:29:53.000Z</time>
      </trkpt>
      <trkpt lat="49.62604" lon="-1.3516">
        <ele>44.238811</ele>
        <time>2022-07-30T12:29:54.000Z</time>
      </trkpt>
      <trkpt lat="49.62608" lon="-1.35154">
        <ele>44.24769</ele>
        <time>2022-07-30T12:29:55.000Z</time>
      </trkpt>
      <trkpt lat="49.62612" lon="-1.35147">
        <ele>44.25657</ele>
        <time>2022-07-30T12:29:56.000Z</time>
      </trkpt>
      <trkpt lat="49.62616" lon="-1.35141">
        <ele>44.264943</ele>
        <time>2022-07-30T12:29:57.000Z</time>
      </trkpt>
      <trkpt lat="49.62621" lon="-1.35134">
        <ele>44.273421</ele>
        <time>2022-07-30T12:29:58.000Z</time>
      </trkpt>
      <trkpt lat="49.62625" lon="-1.35129">
        <ele>44.282199</ele>
        <time>2022-07-30T12:29:59.000Z</time>
      </trkpt>
      <trkpt lat="49.62629" lon="-1.35123">
        <ele>44.290062</ele>
        <time>2022-07-30T12:30:00.000Z</time>
      </trkpt>
      <trkpt lat="49.62634" lon="-1.35118">
        <ele>44.297858</ele>
        <time>2022-07-30T12:30:01.000Z</time>
      </trkpt>
      <trkpt lat="49.62638" lon="-1.35113">
        <ele>44.305833</ele>
        <time>2022-07-30T12:30:02.000Z</time>
      </trkpt>
      <trkpt lat="49.62642" lon="-1.35108">
        <ele>44.313515</ele>
        <time>2022-07-30T12:30:03.000Z</time>
      </trkpt>
      <trkpt lat="49.62646" lon="-1.35103">
        <ele>44.321195</ele>
        <time>2022-07-30T12:30:04.000Z</time>
      </trkpt>
      <trkpt lat="49.6265" lon="-1.35098">
        <ele>44.328703</ele>
        <time>2022-07-30T12:30:05.000Z</time>
      </trkpt>
      <trkpt lat="49.62654" lon="-1.35094">
        <ele>44.336161</ele>
        <time>2022-07-30T12:30:06.000Z</time>
      </trkpt>
      <trkpt lat="49.62659" lon="-1.35089">
        <ele>44.344355</ele>
        <time>2022-07-30T12:30:07.000Z</time>
      </trkpt>
      <trkpt lat="49.62663" lon="-1.35084">
        <ele>44.351923</ele>
        <time>2022-07-30T12:30:08.000Z</time>
      </trkpt>
      <trkpt lat="49.62667" lon="-1.3508">
        <ele>44.359086</ele>
        <time>2022-07-30T12:30:09.000Z</time>
      </trkpt>
      <trkpt lat="49.62671" lon="-1.35075">
        <ele>44.366371</ele>
        <time>2022-07-30T12:30:10.000Z</time>
      </trkpt>
      <trkpt lat="49.62674" lon="-1.3507">
        <ele>44.37288</ele>
        <time>2022-07-30T12:30:11.000Z</time>
      </trkpt>
      <trkpt lat="49.62678" lon="-1.35065">
        <ele>44.380099</ele>
        <time>2022-07-30T12:30:12.000Z</time>
      </trkpt>
      <trkpt lat="49.62682" lon="-1.35061">
        <ele>44.387086</ele>
        <time>2022-07-30T12:30:13.000Z</time>
      </trkpt>
      <trkpt lat="49.62685" lon="-1.35056">
        <ele>44.393612</ele>
        <time>2022-07-30T12:30:14.000Z</time>
      </trkpt>
      <trkpt lat="49.62689" lon="-1.35052">
        <ele>44.40049</ele>
        <time>2022-07-30T12:30:15.000Z</time>
      </trkpt>
      <trkpt lat="49.62692" lon="-1.35047">
        <ele>44.406737</ele>
        <time>2022-07-30T12:30:16.000Z</time>
      </trkpt>
      <trkpt lat="49.62694" lon="-1.35041">
        <ele>44.413083</ele>
        <time>2022-07-30T12:30:17.000Z</time>
      </trkpt>
      <trkpt lat="49.62696" lon="-1.35035">
        <ele>44.419273</ele>
        <time>2022-07-30T12:30:18.000Z</time>
      </trkpt>
      <trkpt lat="49.62699" lon="-1.3503">
        <ele>44.426123</ele>
        <time>2022-07-30T12:30:19.000Z</time>
      </trkpt>
      <trkpt lat="49.62702" lon="-1.35024">
        <ele>44.433047</ele>
        <time>2022-07-30T12:30:20.000Z</time>
      </trkpt>
      <trkpt lat="49.62705" lon="-1.35018">
        <ele>44.396121</ele>
        <time>2022-07-30T12:30:21.000Z</time>
      </trkpt>
      <trkpt lat="49.62708" lon="-1.35012">
        <ele>44.338993</ele>
        <time>2022-07-30T12:30:22.000Z</time>
      </trkpt>
      <trkpt lat="49.62711" lon="-1.35006">
        <ele>44.281752</ele>
        <time>2022-07-30T12:30:23.000Z</time>
      </trkpt>
      <trkpt lat="49.62714" lon="-1.35">
        <ele>44.22263</ele>
        <time>2022-07-30T12:30:24.000Z</time>
      </trkpt>
      <trkpt lat="49.62717" lon="-1.34994">
        <ele>44.160638</ele>
        <time>2022-07-30T12:30:25.000Z</time>
      </trkpt>
      <trkpt lat="49.62721" lon="-1.34988">
        <ele>44.090871</ele>
        <time>2022-07-30T12:30:26.000Z</time>
      </trkpt>
      <trkpt lat="49.62725" lon="-1.34983">
        <ele>44.024648</ele>
        <time>2022-07-30T12:30:27.000Z</time>
      </trkpt>
      <trkpt lat="49.6273" lon="-1.34977">
        <ele>43.955158</ele>
        <time>2022-07-30T12:30:28.000Z</time>
      </trkpt>
      <trkpt lat="49.62735" lon="-1.34972">
        <ele>43.880203</ele>
        <time>2022-07-30T12:30:29.000Z</time>
      </trkpt>
      <trkpt lat="49.62739" lon="-1.34967">
        <ele>43.810226</ele>
        <time>2022-07-30T12:30:30.000Z</time>
      </trkpt>
      <trkpt lat="49.62744" lon="-1.34961">
        <ele>43.738276</ele>
        <time>2022-07-30T12:30:31.000Z</time>
      </trkpt>
      <trkpt lat="49.62749" lon="-1.34956">
        <ele>43.659833</ele>
        <time>2022-07-30T12:30:32.000Z</time>
      </trkpt>
      <trkpt lat="49.62755" lon="-1.34951">
        <ele>43.583864</ele>
        <time>2022-07-30T12:30:33.000Z</time>
      </trkpt>
      <trkpt lat="49.62759" lon="-1.34945">
        <ele>43.509547</ele>
        <time>2022-07-30T12:30:34.000Z</time>
      </trkpt>
      <trkpt lat="49.62765" lon="-1.34939">
        <ele>43.431847</ele>
        <time>2022-07-30T12:30:35.000Z</time>
      </trkpt>
      <trkpt lat="49.62769" lon="-1.34933">
        <ele>43.358493</ele>
        <time>2022-07-30T12:30:36.000Z</time>
      </trkpt>
      <trkpt lat="49.62774" lon="-1.34928">
        <ele>43.287525</ele>
        <time>2022-07-30T12:30:37.000Z</time>
      </trkpt>
      <trkpt lat="49.62778" lon="-1.34922">
        <ele>43.222928</ele>
        <time>2022-07-30T12:30:38.000Z</time>
      </trkpt>
      <trkpt lat="49.62782" lon="-1.34916">
        <ele>43.150048</ele>
        <time>2022-07-30T12:30:39.000Z</time>
      </trkpt>
      <trkpt lat="49.62788" lon="-1.34912">
        <ele>43.077224</ele>
        <time>2022-07-30T12:30:40.000Z</time>
      </trkpt>
      <trkpt lat="49.62793" lon="-1.34906">
        <ele>43.00046</ele>
        <time>2022-07-30T12:30:41.000Z</time>
      </trkpt>
      <trkpt lat="49.62797" lon="-1.349">
        <ele>42.927967</ele>
        <time>2022-07-30T12:30:42.000Z</time>
      </trkpt>
      <trkpt lat="49.62802" lon="-1.34893">
        <ele>42.85229</ele>
        <time>2022-07-30T12:30:43.000Z</time>
      </trkpt>
      <trkpt lat="49.62806" lon="-1.34888">
        <ele>42.779411</ele>
        <time>2022-07-30T12:30:44.000Z</time>
      </trkpt>
      <trkpt lat="49.62811" lon="-1.34883">
        <ele>42.708813</ele>
        <time>2022-07-30T12:30:45.000Z</time>
      </trkpt>
      <trkpt lat="49.62817" lon="-1.34877">
        <ele>42.629938</ele>
        <time>2022-07-30T12:30:46.000Z</time>
      </trkpt>
      <trkpt lat="49.62823" lon="-1.34873">
        <ele>42.547512</ele>
        <time>2022-07-30T12:30:47.000Z</time>
      </trkpt>
      <trkpt lat="49.62828" lon="-1.34867">
        <ele>42.471664</ele>
        <time>2022-07-30T12:30:48.000Z</time>
      </trkpt>
      <trkpt lat="49.62833" lon="-1.34862">
        <ele>42.399252</ele>
        <time>2022-07-30T12:30:49.000Z</time>
      </trkpt>
      <trkpt lat="49.62838" lon="-1.34857">
        <ele>42.324562</ele>
        <time>2022-07-30T12:30:50.000Z</time>
      </trkpt>
      <trkpt lat="49.62842" lon="-1.34851">
        <ele>42.255538</ele>
        <time>2022-07-30T12:30:51.000Z</time>
      </trkpt>
      <trkpt lat="49.62847" lon="-1.34846">
        <ele>42.151986</ele>
        <time>2022-07-30T12:30:52.000Z</time>
      </trkpt>
      <trkpt lat="49.62853" lon="-1.34841">
        <ele>42.03688</ele>
        <time>2022-07-30T12:30:53.000Z</time>
      </trkpt>
      <trkpt lat="49.62858" lon="-1.34834">
        <ele>41.922477</ele>
        <time>2022-07-30T12:30:54.000Z</time>
      </trkpt>
      <trkpt lat="49.62864" lon="-1.34829">
        <ele>41.81032</ele>
        <time>2022-07-30T12:30:55.000Z</time>
      </trkpt>
      <trkpt lat="49.62869" lon="-1.34823">
        <ele>41.701404</ele>
        <time>2022-07-30T12:30:56.000Z</time>
      </trkpt>
      <trkpt lat="49.62874" lon="-1.34817">
        <ele>41.59314</ele>
        <time>2022-07-30T12:30:57.000Z</time>
      </trkpt>
      <trkpt lat="49.62877" lon="-1.34811">
        <ele>41.505944</ele>
        <time>2022-07-30T12:30:58.000Z</time>
      </trkpt>
      <trkpt lat="49.62882" lon="-1.34805">
        <ele>41.399105</ele>
        <time>2022-07-30T12:30:59.000Z</time>
      </trkpt>
      <trkpt lat="49.62886" lon="-1.34799">
        <ele>41.303861</ele>
        <time>2022-07-30T12:31:00.000Z</time>
      </trkpt>
      <trkpt lat="49.62891" lon="-1.34794">
        <ele>41.199104</ele>
        <time>2022-07-30T12:31:01.000Z</time>
      </trkpt>
      <trkpt lat="49.62895" lon="-1.34787">
        <ele>41.090841</ele>
        <time>2022-07-30T12:31:02.000Z</time>
      </trkpt>
      <trkpt lat="49.629" lon="-1.34782">
        <ele>40.985397</ele>
        <time>2022-07-30T12:31:03.000Z</time>
      </trkpt>
      <trkpt lat="49.62905" lon="-1.34775">
        <ele>40.882346</ele>
        <time>2022-07-30T12:31:04.000Z</time>
      </trkpt>
      <trkpt lat="49.6291" lon="-1.3477">
        <ele>40.772669</ele>
        <time>2022-07-30T12:31:05.000Z</time>
      </trkpt>
      <trkpt lat="49.62916" lon="-1.34765">
        <ele>40.659261</ele>
        <time>2022-07-30T12:31:06.000Z</time>
      </trkpt>
      <trkpt lat="49.6292" lon="-1.34759">
        <ele>40.557132</ele>
        <time>2022-07-30T12:31:07.000Z</time>
      </trkpt>
      <trkpt lat="49.62925" lon="-1.34753">
        <ele>40.454275</ele>
        <time>2022-07-30T12:31:08.000Z</time>
      </trkpt>
      <trkpt lat="49.6293" lon="-1.34747">
        <ele>40.341743</ele>
        <time>2022-07-30T12:31:09.000Z</time>
      </trkpt>
      <trkpt lat="49.62936" lon="-1.34743">
        <ele>40.228429</ele>
        <time>2022-07-30T12:31:10.000Z</time>
      </trkpt>
      <trkpt lat="49.6294" lon="-1.34737">
        <ele>40.127022</ele>
        <time>2022-07-30T12:31:11.000Z</time>
      </trkpt>
      <trkpt lat="49.62945" lon="-1.34731">
        <ele>40.018106</ele>
        <time>2022-07-30T12:31:12.000Z</time>
      </trkpt>
      <trkpt lat="49.62951" lon="-1.34727">
        <ele>39.910703</ele>
        <time>2022-07-30T12:31:13.000Z</time>
      </trkpt>
      <trkpt lat="49.62957" lon="-1.34723">
        <ele>39.794231</ele>
        <time>2022-07-30T12:31:14.000Z</time>
      </trkpt>
      <trkpt lat="49.62963" lon="-1.34719">
        <ele>39.684342</ele>
        <time>2022-07-30T12:31:15.000Z</time>
      </trkpt>
      <trkpt lat="49.62969" lon="-1.34715">
        <ele>39.565725</ele>
        <time>2022-07-30T12:31:16.000Z</time>
      </trkpt>
      <trkpt lat="49.62975" lon="-1.34711">
        <ele>39.451078</ele>
        <time>2022-07-30T12:31:17.000Z</time>
      </trkpt>
      <trkpt lat="49.62982" lon="-1.34707">
        <ele>39.327985</ele>
        <time>2022-07-30T12:31:18.000Z</time>
      </trkpt>
      <trkpt lat="49.62989" lon="-1.34704">
        <ele>39.205264</ele>
        <time>2022-07-30T12:31:19.000Z</time>
      </trkpt>
      <trkpt lat="49.62996" lon="-1.34701">
        <ele>39.02382</ele>
        <time>2022-07-30T12:31:20.000Z</time>
      </trkpt>
      <trkpt lat="49.63003" lon="-1.34697">
        <ele>38.749931</ele>
        <time>2022-07-30T12:31:21.000Z</time>
      </trkpt>
      <trkpt lat="49.63011" lon="-1.34694">
        <ele>38.463193</ele>
        <time>2022-07-30T12:31:22.000Z</time>
      </trkpt>
      <trkpt lat="49.6302" lon="-1.3469">
        <ele>38.146216</ele>
        <time>2022-07-30T12:31:23.000Z</time>
      </trkpt>
      <trkpt lat="49.63029" lon="-1.34686">
        <ele>37.792422</ele>
        <time>2022-07-30T12:31:24.000Z</time>
      </trkpt>
      <trkpt lat="49.63038" lon="-1.34682">
        <ele>37.448345</ele>
        <time>2022-07-30T12:31:25.000Z</time>
      </trkpt>
      <trkpt lat="49.63047" lon="-1.34678">
        <ele>37.134049</ele>
        <time>2022-07-30T12:31:26.000Z</time>
      </trkpt>
      <trkpt lat="49.63055" lon="-1.34673">
        <ele>36.80399</ele>
        <time>2022-07-30T12:31:27.000Z</time>
      </trkpt>
      <trkpt lat="49.63065" lon="-1.34668">
        <ele>36.445743</ele>
        <time>2022-07-30T12:31:28.000Z</time>
      </trkpt>
      <trkpt lat="49.63075" lon="-1.34663">
        <ele>36.084651</ele>
        <time>2022-07-30T12:31:29.000Z</time>
      </trkpt>
      <trkpt lat="49.63084" lon="-1.34659">
        <ele>35.727082</ele>
        <time>2022-07-30T12:31:30.000Z</time>
      </trkpt>
      <trkpt lat="49.63094" lon="-1.34654">
        <ele>35.359914</ele>
        <time>2022-07-30T12:31:31.000Z</time>
      </trkpt>
      <trkpt lat="49.63103" lon="-1.3465">
        <ele>35.012562</ele>
        <time>2022-07-30T12:31:32.000Z</time>
      </trkpt>
      <trkpt lat="49.63114" lon="-1.34646">
        <ele>34.629716</ele>
        <time>2022-07-30T12:31:33.000Z</time>
      </trkpt>
      <trkpt lat="49.63124" lon="-1.34643">
        <ele>34.267745</ele>
        <time>2022-07-30T12:31:34.000Z</time>
      </trkpt>
      <trkpt lat="49.63134" lon="-1.3464">
        <ele>33.896141</ele>
        <time>2022-07-30T12:31:35.000Z</time>
      </trkpt>
      <trkpt lat="49.63144" lon="-1.34638">
        <ele>33.549161</ele>
        <time>2022-07-30T12:31:36.000Z</time>
      </trkpt>
      <trkpt lat="49.63154" lon="-1.34635">
        <ele>33.189138</ele>
        <time>2022-07-30T12:31:37.000Z</time>
      </trkpt>
      <trkpt lat="49.63163" lon="-1.34632">
        <ele>32.863626</ele>
        <time>2022-07-30T12:31:38.000Z</time>
      </trkpt>
      <trkpt lat="49.63172" lon="-1.3463">
        <ele>32.624041</ele>
        <time>2022-07-30T12:31:39.000Z</time>
      </trkpt>
      <trkpt lat="49.63181" lon="-1.3463">
        <ele>32.449697</ele>
        <time>2022-07-30T12:31:40.000Z</time>
      </trkpt>
      <trkpt lat="49.63191" lon="-1.34629">
        <ele>32.252257</ele>
        <time>2022-07-30T12:31:41.000Z</time>
      </trkpt>
      <trkpt lat="49.632" lon="-1.34628">
        <ele>32.077485</ele>
        <time>2022-07-30T12:31:42.000Z</time>
      </trkpt>
      <trkpt lat="49.63208" lon="-1.34627">
        <ele>31.91608</ele>
        <time>2022-07-30T12:31:43.000Z</time>
      </trkpt>
      <trkpt lat="49.63216" lon="-1.34625">
        <ele>31.765409</ele>
        <time>2022-07-30T12:31:44.000Z</time>
      </trkpt>
      <trkpt lat="49.63224" lon="-1.34623">
        <ele>31.609496</ele>
        <time>2022-07-30T12:31:45.000Z</time>
      </trkpt>
      <trkpt lat="49.63231" lon="-1.34624">
        <ele>31.460186</ele>
        <time>2022-07-30T12:31:46.000Z</time>
      </trkpt>
      <trkpt lat="49.6324" lon="-1.34624">
        <ele>31.299605</ele>
        <time>2022-07-30T12:31:47.000Z</time>
      </trkpt>
      <trkpt lat="49.63248" lon="-1.34624">
        <ele>31.138902</ele>
        <time>2022-07-30T12:31:48.000Z</time>
      </trkpt>
      <trkpt lat="49.63255" lon="-1.34622">
        <ele>31.001807</ele>
        <time>2022-07-30T12:31:49.000Z</time>
      </trkpt>
      <trkpt lat="49.63261" lon="-1.3462">
        <ele>30.882099</ele>
        <time>2022-07-30T12:31:50.000Z</time>
      </trkpt>
      <trkpt lat="49.63267" lon="-1.34619">
        <ele>30.763128</ele>
        <time>2022-07-30T12:31:51.000Z</time>
      </trkpt>
      <trkpt lat="49.63273" lon="-1.34618">
        <ele>30.650217</ele>
        <time>2022-07-30T12:31:52.000Z</time>
      </trkpt>
      <trkpt lat="49.63279" lon="-1.34621">
        <ele>30.534492</ele>
        <time>2022-07-30T12:31:53.000Z</time>
      </trkpt>
      <trkpt lat="49.63285" lon="-1.34625">
        <ele>30.402275</ele>
        <time>2022-07-30T12:31:54.000Z</time>
      </trkpt>
      <trkpt lat="49.63291" lon="-1.34629">
        <ele>30.279376</ele>
        <time>2022-07-30T12:31:55.000Z</time>
      </trkpt>
      <trkpt lat="49.63297" lon="-1.34632">
        <ele>30.161599</ele>
        <time>2022-07-30T12:31:56.000Z</time>
      </trkpt>
      <trkpt lat="49.63303" lon="-1.34636">
        <ele>30.028483</ele>
        <time>2022-07-30T12:31:57.000Z</time>
      </trkpt>
      <trkpt lat="49.6331" lon="-1.34638">
        <ele>29.893244</ele>
        <time>2022-07-30T12:31:58.000Z</time>
      </trkpt>
      <trkpt lat="49.63316" lon="-1.34641">
        <ele>29.773637</ele>
        <time>2022-07-30T12:31:59.000Z</time>
      </trkpt>
      <trkpt lat="49.63323" lon="-1.34642">
        <ele>29.641482</ele>
        <time>2022-07-30T12:32:00.000Z</time>
      </trkpt>
      <trkpt lat="49.63329" lon="-1.34641">
        <ele>29.517635</ele>
        <time>2022-07-30T12:32:01.000Z</time>
      </trkpt>
      <trkpt lat="49.63336" lon="-1.3464">
        <ele>29.386654</ele>
        <time>2022-07-30T12:32:02.000Z</time>
      </trkpt>
      <trkpt lat="49.63343" lon="-1.34638">
        <ele>29.248925</ele>
        <time>2022-07-30T12:32:03.000Z</time>
      </trkpt>
      <trkpt lat="49.63349" lon="-1.34635">
        <ele>29.311166</ele>
        <time>2022-07-30T12:32:04.000Z</time>
      </trkpt>
      <trkpt lat="49.63355" lon="-1.34631">
        <ele>29.387597</ele>
        <time>2022-07-30T12:32:05.000Z</time>
      </trkpt>
      <trkpt lat="49.6336" lon="-1.34626">
        <ele>29.464693</ele>
        <time>2022-07-30T12:32:06.000Z</time>
      </trkpt>
      <trkpt lat="49.63366" lon="-1.34622">
        <ele>29.542487</ele>
        <time>2022-07-30T12:32:07.000Z</time>
      </trkpt>
      <trkpt lat="49.63371" lon="-1.34617">
        <ele>29.612568</ele>
        <time>2022-07-30T12:32:08.000Z</time>
      </trkpt>
      <trkpt lat="49.63377" lon="-1.34613">
        <ele>29.688999</ele>
        <time>2022-07-30T12:32:09.000Z</time>
      </trkpt>
      <trkpt lat="49.63383" lon="-1.34609">
        <ele>29.763699</ele>
        <time>2022-07-30T12:32:10.000Z</time>
      </trkpt>
      <trkpt lat="49.63388" lon="-1.34605">
        <ele>29.836905</ele>
        <time>2022-07-30T12:32:11.000Z</time>
      </trkpt>
      <trkpt lat="49.63394" lon="-1.34601">
        <ele>29.911928</ele>
        <time>2022-07-30T12:32:12.000Z</time>
      </trkpt>
      <trkpt lat="49.63399" lon="-1.34597">
        <ele>29.983505</ele>
        <time>2022-07-30T12:32:13.000Z</time>
      </trkpt>
      <trkpt lat="49.63405" lon="-1.34593">
        <ele>30.05399</ele>
        <time>2022-07-30T12:32:14.000Z</time>
      </trkpt>
      <trkpt lat="49.63411" lon="-1.3459">
        <ele>30.128286</ele>
        <time>2022-07-30T12:32:15.000Z</time>
      </trkpt>
      <trkpt lat="49.63416" lon="-1.34587">
        <ele>30.196248</ele>
        <time>2022-07-30T12:32:16.000Z</time>
      </trkpt>
      <trkpt lat="49.63421" lon="-1.34584">
        <ele>30.262222</ele>
        <time>2022-07-30T12:32:17.000Z</time>
      </trkpt>
      <trkpt lat="49.63426" lon="-1.3458">
        <ele>30.328498</ele>
        <time>2022-07-30T12:32:18.000Z</time>
      </trkpt>
      <trkpt lat="49.63431" lon="-1.34577">
        <ele>30.391186</ele>
        <time>2022-07-30T12:32:19.000Z</time>
      </trkpt>
      <trkpt lat="49.63436" lon="-1.34573">
        <ele>30.455194</ele>
        <time>2022-07-30T12:32:20.000Z</time>
      </trkpt>
      <trkpt lat="49.6344" lon="-1.3457">
        <ele>30.515661</ele>
        <time>2022-07-30T12:32:21.000Z</time>
      </trkpt>
      <trkpt lat="49.63445" lon="-1.34566">
        <ele>30.574536</ele>
        <time>2022-07-30T12:32:22.000Z</time>
      </trkpt>
      <trkpt lat="49.63449" lon="-1.34562">
        <ele>30.633239</ele>
        <time>2022-07-30T12:32:23.000Z</time>
      </trkpt>
      <trkpt lat="49.63453" lon="-1.34558">
        <ele>30.689099</ele>
        <time>2022-07-30T12:32:24.000Z</time>
      </trkpt>
      <trkpt lat="49.63456" lon="-1.34554">
        <ele>30.73885</ele>
        <time>2022-07-30T12:32:25.000Z</time>
      </trkpt>
      <trkpt lat="49.6346" lon="-1.34551">
        <ele>30.787777</ele>
        <time>2022-07-30T12:32:26.000Z</time>
      </trkpt>
      <trkpt lat="49.63462" lon="-1.34547">
        <ele>30.831221</ele>
        <time>2022-07-30T12:32:27.000Z</time>
      </trkpt>
      <trkpt lat="49.63465" lon="-1.34544">
        <ele>30.869466</ele>
        <time>2022-07-30T12:32:28.000Z</time>
      </trkpt>
      <trkpt lat="49.63468" lon="-1.3454">
        <ele>30.91291</ele>
        <time>2022-07-30T12:32:29.000Z</time>
      </trkpt>
      <trkpt lat="49.63469" lon="-1.34537">
        <ele>30.945889</ele>
        <time>2022-07-30T12:32:30.000Z</time>
      </trkpt>
      <trkpt lat="49.63472" lon="-1.34534">
        <ele>30.981811</ele>
        <time>2022-07-30T12:32:31.000Z</time>
      </trkpt>
      <trkpt lat="49.63473" lon="-1.34531">
        <ele>31.01184</ele>
        <time>2022-07-30T12:32:32.000Z</time>
      </trkpt>
      <trkpt lat="49.63475" lon="-1.34528">
        <ele>31.039093</ele>
        <time>2022-07-30T12:32:33.000Z</time>
      </trkpt>
      <trkpt lat="49.63476" lon="-1.34525">
        <ele>31.069722</ele>
        <time>2022-07-30T12:32:34.000Z</time>
      </trkpt>
      <trkpt lat="49.63478" lon="-1.34522">
        <ele>31.101597</ele>
        <time>2022-07-30T12:32:35.000Z</time>
      </trkpt>
      <trkpt lat="49.6348" lon="-1.34519">
        <ele>31.13402</ele>
        <time>2022-07-30T12:32:36.000Z</time>
      </trkpt>
      <trkpt lat="49.63482" lon="-1.34516">
        <ele>31.164049</ele>
        <time>2022-07-30T12:32:37.000Z</time>
      </trkpt>
      <trkpt lat="49.63484" lon="-1.34514">
        <ele>31.194339</ele>
        <time>2022-07-30T12:32:38.000Z</time>
      </trkpt>
      <trkpt lat="49.63485" lon="-1.34512">
        <ele>31.222673</ele>
        <time>2022-07-30T12:32:39.000Z</time>
      </trkpt>
      <trkpt lat="49.63487" lon="-1.3451">
        <ele>31.244568</ele>
        <time>2022-07-30T12:32:40.000Z</time>
      </trkpt>
      <trkpt lat="49.63489" lon="-1.34507">
        <ele>31.274351</ele>
        <time>2022-07-30T12:32:41.000Z</time>
      </trkpt>
      <trkpt lat="49.63491" lon="-1.34504">
        <ele>31.306047</ele>
        <time>2022-07-30T12:32:42.000Z</time>
      </trkpt>
      <trkpt lat="49.63492" lon="-1.34502">
        <ele>31.333205</ele>
        <time>2022-07-30T12:32:43.000Z</time>
      </trkpt>
      <trkpt lat="49.63494" lon="-1.345">
        <ele>31.359287</ele>
        <time>2022-07-30T12:32:44.000Z</time>
      </trkpt>
      <trkpt lat="49.63496" lon="-1.34497">
        <ele>31.402979</ele>
        <time>2022-07-30T12:32:45.000Z</time>
      </trkpt>
      <trkpt lat="49.63497" lon="-1.34494">
        <ele>31.499763</ele>
        <time>2022-07-30T12:32:46.000Z</time>
      </trkpt>
      <trkpt lat="49.63499" lon="-1.34491">
        <ele>31.585561</ele>
        <time>2022-07-30T12:32:47.000Z</time>
      </trkpt>
      <trkpt lat="49.635" lon="-1.34489">
        <ele>31.653458</ele>
        <time>2022-07-30T12:32:48.000Z</time>
      </trkpt>
      <trkpt lat="49.63502" lon="-1.34487">
        <ele>31.745084</ele>
        <time>2022-07-30T12:32:49.000Z</time>
      </trkpt>
      <trkpt lat="49.63504" lon="-1.34485">
        <ele>31.836405</ele>
        <time>2022-07-30T12:32:50.000Z</time>
      </trkpt>
      <trkpt lat="49.63506" lon="-1.34482">
        <ele>31.932395</ele>
        <time>2022-07-30T12:32:51.000Z</time>
      </trkpt>
      <trkpt lat="49.63508" lon="-1.3448">
        <ele>32.028385</ele>
        <time>2022-07-30T12:32:52.000Z</time>
      </trkpt>
      <trkpt lat="49.63509" lon="-1.34477">
        <ele>32.119525</ele>
        <time>2022-07-30T12:32:53.000Z</time>
      </trkpt>
      <trkpt lat="49.6351" lon="-1.34474">
        <ele>32.205323</ele>
        <time>2022-07-30T12:32:54.000Z</time>
      </trkpt>
      <trkpt lat="49.63512" lon="-1.34471">
        <ele>32.296464</ele>
        <time>2022-07-30T12:32:55.000Z</time>
      </trkpt>
      <trkpt lat="49.63513" lon="-1.34469">
        <ele>32.378265</ele>
        <time>2022-07-30T12:32:56.000Z</time>
      </trkpt>
      <trkpt lat="49.63515" lon="-1.34466">
        <ele>32.474255</ele>
        <time>2022-07-30T12:32:57.000Z</time>
      </trkpt>
      <trkpt lat="49.63517" lon="-1.34464">
        <ele>32.570245</ele>
        <time>2022-07-30T12:32:58.000Z</time>
      </trkpt>
      <trkpt lat="49.63518" lon="-1.34462">
        <ele>32.644411</ele>
        <time>2022-07-30T12:32:59.000Z</time>
      </trkpt>
      <trkpt lat="49.6352" lon="-1.3446">
        <ele>32.72357</ele>
        <time>2022-07-30T12:33:00.000Z</time>
      </trkpt>
      <trkpt lat="49.63522" lon="-1.34458">
        <ele>32.811993</ele>
        <time>2022-07-30T12:33:01.000Z</time>
      </trkpt>
      <trkpt lat="49.63524" lon="-1.34456">
        <ele>32.910045</ele>
        <time>2022-07-30T12:33:02.000Z</time>
      </trkpt>
      <trkpt lat="49.63526" lon="-1.34454">
        <ele>32.998468</ele>
        <time>2022-07-30T12:33:03.000Z</time>
      </trkpt>
      <trkpt lat="49.63528" lon="-1.34452">
        <ele>33.077626</ele>
        <time>2022-07-30T12:33:04.000Z</time>
      </trkpt>
      <trkpt lat="49.6353" lon="-1.34448">
        <ele>33.216062</ele>
        <time>2022-07-30T12:33:06.000Z</time>
      </trkpt>
      <trkpt lat="49.63532" lon="-1.34446">
        <ele>33.300122</ele>
        <time>2022-07-30T12:33:07.000Z</time>
      </trkpt>
      <trkpt lat="49.63534" lon="-1.34443">
        <ele>33.404159</ele>
        <time>2022-07-30T12:33:08.000Z</time>
      </trkpt>
      <trkpt lat="49.63536" lon="-1.34441">
        <ele>33.492582</ele>
        <time>2022-07-30T12:33:09.000Z</time>
      </trkpt>
      <trkpt lat="49.63538" lon="-1.3444">
        <ele>33.565882</ele>
        <time>2022-07-30T12:33:10.000Z</time>
      </trkpt>
      <trkpt lat="49.6354" lon="-1.34438">
        <ele>33.654305</ele>
        <time>2022-07-30T12:33:11.000Z</time>
      </trkpt>
      <trkpt lat="49.63541" lon="-1.34436">
        <ele>33.736361</ele>
        <time>2022-07-30T12:33:12.000Z</time>
      </trkpt>
      <trkpt lat="49.63545" lon="-1.34434">
        <ele>33.890257</ele>
        <time>2022-07-30T12:33:14.000Z</time>
      </trkpt>
      <trkpt lat="49.63547" lon="-1.34432">
        <ele>33.972313</ele>
        <time>2022-07-30T12:33:15.000Z</time>
      </trkpt>
      <trkpt lat="49.63549" lon="-1.34431">
        <ele>34.054369</ele>
        <time>2022-07-30T12:33:16.000Z</time>
      </trkpt>
      <trkpt lat="49.63551" lon="-1.34429">
        <ele>34.13881</ele>
        <time>2022-07-30T12:33:17.000Z</time>
      </trkpt>
      <trkpt lat="49.63552" lon="-1.34427">
        <ele>34.217968</ele>
        <time>2022-07-30T12:33:18.000Z</time>
      </trkpt>
      <trkpt lat="49.63554" lon="-1.34425">
        <ele>34.306391</ele>
        <time>2022-07-30T12:33:19.000Z</time>
      </trkpt>
      <trkpt lat="49.63556" lon="-1.34423">
        <ele>34.387139</ele>
        <time>2022-07-30T12:33:20.000Z</time>
      </trkpt>
      <trkpt lat="49.63558" lon="-1.34421">
        <ele>34.478764</ele>
        <time>2022-07-30T12:33:21.000Z</time>
      </trkpt>
      <trkpt lat="49.6356" lon="-1.34419">
        <ele>34.567187</ele>
        <time>2022-07-30T12:33:22.000Z</time>
      </trkpt>
      <trkpt lat="49.63562" lon="-1.34417">
        <ele>34.654231</ele>
        <time>2022-07-30T12:33:23.000Z</time>
      </trkpt>
      <trkpt lat="49.63563" lon="-1.34415">
        <ele>34.73498</ele>
        <time>2022-07-30T12:33:24.000Z</time>
      </trkpt>
      <trkpt lat="49.63565" lon="-1.34412">
        <ele>34.829373</ele>
        <time>2022-07-30T12:33:25.000Z</time>
      </trkpt>
      <trkpt lat="49.63567" lon="-1.3441">
        <ele>34.910121</ele>
        <time>2022-07-30T12:33:26.000Z</time>
      </trkpt>
      <trkpt lat="49.63568" lon="-1.34408">
        <ele>34.983298</ele>
        <time>2022-07-30T12:33:27.000Z</time>
      </trkpt>
      <trkpt lat="49.63569" lon="-1.34405">
        <ele>35.078172</ele>
        <time>2022-07-30T12:33:28.000Z</time>
      </trkpt>
      <trkpt lat="49.63571" lon="-1.34402">
        <ele>35.171164</ele>
        <time>2022-07-30T12:33:29.000Z</time>
      </trkpt>
      <trkpt lat="49.63572" lon="-1.34399">
        <ele>35.253501</ele>
        <time>2022-07-30T12:33:30.000Z</time>
      </trkpt>
      <trkpt lat="49.63573" lon="-1.34396">
        <ele>35.343393</ele>
        <time>2022-07-30T12:33:31.000Z</time>
      </trkpt>
      <trkpt lat="49.63575" lon="-1.34393">
        <ele>35.440176</ele>
        <time>2022-07-30T12:33:32.000Z</time>
      </trkpt>
      <trkpt lat="49.63576" lon="-1.3439">
        <ele>35.530909</ele>
        <time>2022-07-30T12:33:33.000Z</time>
      </trkpt>
      <trkpt lat="49.63577" lon="-1.34387">
        <ele>35.627693</ele>
        <time>2022-07-30T12:33:34.000Z</time>
      </trkpt>
      <trkpt lat="49.63579" lon="-1.34383">
        <ele>35.72602</ele>
        <time>2022-07-30T12:33:35.000Z</time>
      </trkpt>
      <trkpt lat="49.6358" lon="-1.3438">
        <ele>35.808357</ele>
        <time>2022-07-30T12:33:36.000Z</time>
      </trkpt>
      <trkpt lat="49.63581" lon="-1.34377">
        <ele>35.911017</ele>
        <time>2022-07-30T12:33:37.000Z</time>
      </trkpt>
      <trkpt lat="49.63582" lon="-1.34374">
        <ele>36.00175</ele>
        <time>2022-07-30T12:33:38.000Z</time>
      </trkpt>
      <trkpt lat="49.63584" lon="-1.34371">
        <ele>36.102428</ele>
        <time>2022-07-30T12:33:39.000Z</time>
      </trkpt>
      <trkpt lat="49.63585" lon="-1.34367">
        <ele>36.198619</ele>
        <time>2022-07-30T12:33:40.000Z</time>
      </trkpt>
      <trkpt lat="49.63587" lon="-1.34364">
        <ele>36.305308</ele>
        <time>2022-07-30T12:33:41.000Z</time>
      </trkpt>
      <trkpt lat="49.63587" lon="-1.3436">
        <ele>36.395472</ele>
        <time>2022-07-30T12:33:42.000Z</time>
      </trkpt>
      <trkpt lat="49.63589" lon="-1.34357">
        <ele>36.502161</ele>
        <time>2022-07-30T12:33:43.000Z</time>
      </trkpt>
      <trkpt lat="49.6359" lon="-1.34353">
        <ele>36.606826</ele>
        <time>2022-07-30T12:33:44.000Z</time>
      </trkpt>
      <trkpt lat="49.63592" lon="-1.3435">
        <ele>36.707305</ele>
        <time>2022-07-30T12:33:45.000Z</time>
      </trkpt>
      <trkpt lat="49.63593" lon="-1.34346">
        <ele>36.813994</ele>
        <time>2022-07-30T12:33:46.000Z</time>
      </trkpt>
      <trkpt lat="49.63595" lon="-1.34343">
        <ele>36.922727</ele>
        <time>2022-07-30T12:33:47.000Z</time>
      </trkpt>
      <trkpt lat="49.63596" lon="-1.34339">
        <ele>37.025833</ele>
        <time>2022-07-30T12:33:48.000Z</time>
      </trkpt>
      <trkpt lat="49.63597" lon="-1.34335">
        <ele>37.134566</ele>
        <time>2022-07-30T12:33:49.000Z</time>
      </trkpt>
      <trkpt lat="49.63599" lon="-1.34332">
        <ele>37.23923</ele>
        <time>2022-07-30T12:33:50.000Z</time>
      </trkpt>
      <trkpt lat="49.63601" lon="-1.34329">
        <ele>37.34189</ele>
        <time>2022-07-30T12:33:51.000Z</time>
      </trkpt>
      <trkpt lat="49.63602" lon="-1.34325">
        <ele>37.437157</ele>
        <time>2022-07-30T12:33:52.000Z</time>
      </trkpt>
      <trkpt lat="49.63603" lon="-1.34322">
        <ele>37.543846</ele>
        <time>2022-07-30T12:33:53.000Z</time>
      </trkpt>
      <trkpt lat="49.63605" lon="-1.34318">
        <ele>37.648675</ele>
        <time>2022-07-30T12:33:54.000Z</time>
      </trkpt>
      <trkpt lat="49.63606" lon="-1.34314">
        <ele>37.764327</ele>
        <time>2022-07-30T12:33:55.000Z</time>
      </trkpt>
      <trkpt lat="49.63608" lon="-1.34311">
        <ele>37.869156</ele>
        <time>2022-07-30T12:33:56.000Z</time>
      </trkpt>
      <trkpt lat="49.63609" lon="-1.34307">
        <ele>37.979951</ele>
        <time>2022-07-30T12:33:57.000Z</time>
      </trkpt>
      <trkpt lat="49.63611" lon="-1.34303">
        <ele>38.080431</ele>
        <time>2022-07-30T12:33:58.000Z</time>
      </trkpt>
      <trkpt lat="49.63612" lon="-1.343">
        <ele>38.179053</ele>
        <time>2022-07-30T12:33:59.000Z</time>
      </trkpt>
      <trkpt lat="49.63613" lon="-1.34296">
        <ele>38.285742</ele>
        <time>2022-07-30T12:34:00.000Z</time>
      </trkpt>
      <trkpt lat="49.63615" lon="-1.34293">
        <ele>38.404242</ele>
        <time>2022-07-30T12:34:01.000Z</time>
      </trkpt>
      <trkpt lat="49.63617" lon="-1.3429">
        <ele>38.511196</ele>
        <time>2022-07-30T12:34:02.000Z</time>
      </trkpt>
      <trkpt lat="49.63619" lon="-1.34287">
        <ele>38.616067</ele>
        <time>2022-07-30T12:34:03.000Z</time>
      </trkpt>
      <trkpt lat="49.6362" lon="-1.34283">
        <ele>38.718507</ele>
        <time>2022-07-30T12:34:04.000Z</time>
      </trkpt>
      <trkpt lat="49.63621" lon="-1.3428">
        <ele>38.823379</ele>
        <time>2022-07-30T12:34:05.000Z</time>
      </trkpt>
      <trkpt lat="49.63623" lon="-1.34277">
        <ele>38.937283</ele>
        <time>2022-07-30T12:34:06.000Z</time>
      </trkpt>
      <trkpt lat="49.63625" lon="-1.34274">
        <ele>39.038071</ele>
        <time>2022-07-30T12:34:07.000Z</time>
      </trkpt>
      <trkpt lat="49.63627" lon="-1.34272">
        <ele>39.145362</ele>
        <time>2022-07-30T12:34:08.000Z</time>
      </trkpt>
      <trkpt lat="49.63629" lon="-1.34268">
        <ele>39.262178</ele>
        <time>2022-07-30T12:34:09.000Z</time>
      </trkpt>
      <trkpt lat="49.6363" lon="-1.34265">
        <ele>39.373367</ele>
        <time>2022-07-30T12:34:10.000Z</time>
      </trkpt>
      <trkpt lat="49.63632" lon="-1.34262">
        <ele>39.480658</ele>
        <time>2022-07-30T12:34:11.000Z</time>
      </trkpt>
      <trkpt lat="49.63634" lon="-1.34259">
        <ele>39.587949</ele>
        <time>2022-07-30T12:34:12.000Z</time>
      </trkpt>
      <trkpt lat="49.63636" lon="-1.34256">
        <ele>39.701852</ele>
        <time>2022-07-30T12:34:13.000Z</time>
      </trkpt>
      <trkpt lat="49.63637" lon="-1.34253">
        <ele>39.804292</ele>
        <time>2022-07-30T12:34:14.000Z</time>
      </trkpt>
      <trkpt lat="49.63639" lon="-1.3425">
        <ele>39.907108</ele>
        <time>2022-07-30T12:34:15.000Z</time>
      </trkpt>
      <trkpt lat="49.63641" lon="-1.34247">
        <ele>40.009924</ele>
        <time>2022-07-30T12:34:16.000Z</time>
      </trkpt>
      <trkpt lat="49.63642" lon="-1.34243">
        <ele>40.123263</ele>
        <time>2022-07-30T12:34:17.000Z</time>
      </trkpt>
      <trkpt lat="49.63644" lon="-1.3424">
        <ele>40.220968</ele>
        <time>2022-07-30T12:34:18.000Z</time>
      </trkpt>
      <trkpt lat="49.63645" lon="-1.34237">
        <ele>40.335821</ele>
        <time>2022-07-30T12:34:19.000Z</time>
      </trkpt>
      <trkpt lat="49.63647" lon="-1.34234">
        <ele>40.444343</ele>
        <time>2022-07-30T12:34:20.000Z</time>
      </trkpt>
      <trkpt lat="49.63649" lon="-1.34232">
        <ele>40.543132</ele>
        <time>2022-07-30T12:34:21.000Z</time>
      </trkpt>
      <trkpt lat="49.63651" lon="-1.34229">
        <ele>40.659596</ele>
        <time>2022-07-30T12:34:22.000Z</time>
      </trkpt>
      <trkpt lat="49.63653" lon="-1.34226">
        <ele>40.76873</ele>
        <time>2022-07-30T12:34:23.000Z</time>
      </trkpt>
      <trkpt lat="49.63655" lon="-1.34223">
        <ele>40.87602</ele>
        <time>2022-07-30T12:34:24.000Z</time>
      </trkpt>
      <trkpt lat="49.63657" lon="-1.3422">
        <ele>40.989924</ele>
        <time>2022-07-30T12:34:25.000Z</time>
      </trkpt>
      <trkpt lat="49.63659" lon="-1.34216">
        <ele>41.122808</ele>
        <time>2022-07-30T12:34:26.000Z</time>
      </trkpt>
      <trkpt lat="49.63661" lon="-1.34213">
        <ele>41.225624</ele>
        <time>2022-07-30T12:34:27.000Z</time>
      </trkpt>
      <trkpt lat="49.63662" lon="-1.3421">
        <ele>41.330495</ele>
        <time>2022-07-30T12:34:28.000Z</time>
      </trkpt>
      <trkpt lat="49.63664" lon="-1.34207">
        <ele>41.445347</ele>
        <time>2022-07-30T12:34:29.000Z</time>
      </trkpt>
      <trkpt lat="49.63666" lon="-1.34204">
        <ele>41.566169</ele>
        <time>2022-07-30T12:34:30.000Z</time>
      </trkpt>
      <trkpt lat="49.63668" lon="-1.342">
        <ele>41.685738</ele>
        <time>2022-07-30T12:34:31.000Z</time>
      </trkpt>
      <trkpt lat="49.6367" lon="-1.34197">
        <ele>41.804544</ele>
        <time>2022-07-30T12:34:32.000Z</time>
      </trkpt>
      <trkpt lat="49.63671" lon="-1.34194">
        <ele>41.902249</ele>
        <time>2022-07-30T12:34:33.000Z</time>
      </trkpt>
      <trkpt lat="49.63673" lon="-1.34191">
        <ele>42.013258</ele>
        <time>2022-07-30T12:34:34.000Z</time>
      </trkpt>
      <trkpt lat="49.63676" lon="-1.34188">
        <ele>42.142597</ele>
        <time>2022-07-30T12:34:35.000Z</time>
      </trkpt>
      <trkpt lat="49.63677" lon="-1.34185">
        <ele>42.242533</ele>
        <time>2022-07-30T12:34:36.000Z</time>
      </trkpt>
      <trkpt lat="49.63679" lon="-1.34182">
        <ele>42.353542</ele>
        <time>2022-07-30T12:34:37.000Z</time>
      </trkpt>
      <trkpt lat="49.63681" lon="-1.34179">
        <ele>42.462065</ele>
        <time>2022-07-30T12:34:38.000Z</time>
      </trkpt>
      <trkpt lat="49.63683" lon="-1.34176">
        <ele>42.573648</ele>
        <time>2022-07-30T12:34:39.000Z</time>
      </trkpt>
      <trkpt lat="49.63685" lon="-1.34174">
        <ele>42.672271</ele>
        <time>2022-07-30T12:34:40.000Z</time>
      </trkpt>
      <trkpt lat="49.63687" lon="-1.34172">
        <ele>42.774244</ele>
        <time>2022-07-30T12:34:41.000Z</time>
      </trkpt>
      <trkpt lat="49.63689" lon="-1.34169">
        <ele>42.863543</ele>
        <time>2022-07-30T12:34:42.000Z</time>
      </trkpt>
      <trkpt lat="49.63691" lon="-1.34167">
        <ele>42.968658</ele>
        <time>2022-07-30T12:34:43.000Z</time>
      </trkpt>
      <trkpt lat="49.63692" lon="-1.34164">
        <ele>43.069445</ele>
        <time>2022-07-30T12:34:44.000Z</time>
      </trkpt>
      <trkpt lat="49.63693" lon="-1.34161">
        <ele>43.152142</ele>
        <time>2022-07-30T12:34:45.000Z</time>
      </trkpt>
      <trkpt lat="49.63695" lon="-1.34158">
        <ele>43.257623</ele>
        <time>2022-07-30T12:34:46.000Z</time>
      </trkpt>
      <trkpt lat="49.63697" lon="-1.34156">
        <ele>43.352508</ele>
        <time>2022-07-30T12:34:47.000Z</time>
      </trkpt>
      <trkpt lat="49.63698" lon="-1.34153">
        <ele>43.445494</ele>
        <time>2022-07-30T12:34:48.000Z</time>
      </trkpt>
      <trkpt lat="49.63699" lon="-1.3415">
        <ele>43.532412</ele>
        <time>2022-07-30T12:34:49.000Z</time>
      </trkpt>
      <trkpt lat="49.63701" lon="-1.34148">
        <ele>43.6312</ele>
        <time>2022-07-30T12:34:50.000Z</time>
      </trkpt>
      <trkpt lat="49.63702" lon="-1.34145">
        <ele>43.720499</ele>
        <time>2022-07-30T12:34:51.000Z</time>
      </trkpt>
      <trkpt lat="49.63705" lon="-1.34143">
        <ele>43.823471</ele>
        <time>2022-07-30T12:34:52.000Z</time>
      </trkpt>
      <trkpt lat="49.63706" lon="-1.34141">
        <ele>43.909252</ele>
        <time>2022-07-30T12:34:53.000Z</time>
      </trkpt>
      <trkpt lat="49.63708" lon="-1.34139">
        <ele>44.002237</ele>
        <time>2022-07-30T12:34:54.000Z</time>
      </trkpt>
      <trkpt lat="49.63709" lon="-1.34136">
        <ele>44.085011</ele>
        <time>2022-07-30T12:34:55.000Z</time>
      </trkpt>
      <trkpt lat="49.63711" lon="-1.34134">
        <ele>44.183633</ele>
        <time>2022-07-30T12:34:56.000Z</time>
      </trkpt>
      <trkpt lat="49.63714" lon="-1.34132">
        <ele>44.308752</ele>
        <time>2022-07-30T12:34:57.000Z</time>
      </trkpt>
      <trkpt lat="49.63716" lon="-1.34129">
        <ele>44.419762</ele>
        <time>2022-07-30T12:34:58.000Z</time>
      </trkpt>
      <trkpt lat="49.63717" lon="-1.34125">
        <ele>44.52882</ele>
        <time>2022-07-30T12:34:59.000Z</time>
      </trkpt>
      <trkpt lat="49.63719" lon="-1.34122">
        <ele>44.639829</ele>
        <time>2022-07-30T12:35:00.000Z</time>
      </trkpt>
      <trkpt lat="49.63721" lon="-1.34119">
        <ele>44.753167</ele>
        <time>2022-07-30T12:35:01.000Z</time>
      </trkpt>
      <trkpt lat="49.63723" lon="-1.34115">
        <ele>44.88508</ele>
        <time>2022-07-30T12:35:02.000Z</time>
      </trkpt>
      <trkpt lat="49.63726" lon="-1.34111">
        <ele>45.042176</ele>
        <time>2022-07-30T12:35:03.000Z</time>
      </trkpt>
      <trkpt lat="49.63728" lon="-1.34108">
        <ele>45.173123</ele>
        <time>2022-07-30T12:35:04.000Z</time>
      </trkpt>
      <trkpt lat="49.6373" lon="-1.34104">
        <ele>45.306006</ele>
        <time>2022-07-30T12:35:05.000Z</time>
      </trkpt>
      <trkpt lat="49.63733" lon="-1.341">
        <ele>45.443606</ele>
        <time>2022-07-30T12:35:06.000Z</time>
      </trkpt>
      <trkpt lat="49.63735" lon="-1.34097">
        <ele>45.576489</ele>
        <time>2022-07-30T12:35:07.000Z</time>
      </trkpt>
      <trkpt lat="49.63737" lon="-1.34093">
        <ele>45.620191</ele>
        <time>2022-07-30T12:35:08.000Z</time>
      </trkpt>
      <trkpt lat="49.63739" lon="-1.34089">
        <ele>45.561308</ele>
        <time>2022-07-30T12:35:09.000Z</time>
      </trkpt>
      <trkpt lat="49.63741" lon="-1.34086">
        <ele>45.499411</ele>
        <time>2022-07-30T12:35:10.000Z</time>
      </trkpt>
      <trkpt lat="49.63743" lon="-1.34082">
        <ele>45.428139</ele>
        <time>2022-07-30T12:35:11.000Z</time>
      </trkpt>
      <trkpt lat="49.63746" lon="-1.34078">
        <ele>45.358492</ele>
        <time>2022-07-30T12:35:12.000Z</time>
      </trkpt>
      <trkpt lat="49.63747" lon="-1.34073">
        <ele>45.297308</ele>
        <time>2022-07-30T12:35:13.000Z</time>
      </trkpt>
      <trkpt lat="49.63749" lon="-1.34069">
        <ele>45.225636</ele>
        <time>2022-07-30T12:35:14.000Z</time>
      </trkpt>
      <trkpt lat="49.63752" lon="-1.34065">
        <ele>45.156669</ele>
        <time>2022-07-30T12:35:15.000Z</time>
      </trkpt>
      <trkpt lat="49.63754" lon="-1.34061">
        <ele>45.089985</ele>
        <time>2022-07-30T12:35:16.000Z</time>
      </trkpt>
      <trkpt lat="49.63756" lon="-1.34057">
        <ele>45.021018</ele>
        <time>2022-07-30T12:35:17.000Z</time>
      </trkpt>
      <trkpt lat="49.63759" lon="-1.34054">
        <ele>44.951179</ele>
        <time>2022-07-30T12:35:18.000Z</time>
      </trkpt>
      <trkpt lat="49.63762" lon="-1.34049">
        <ele>44.871135</ele>
        <time>2022-07-30T12:35:19.000Z</time>
      </trkpt>
      <trkpt lat="49.63764" lon="-1.34045">
        <ele>44.798066</ele>
        <time>2022-07-30T12:35:20.000Z</time>
      </trkpt>
      <trkpt lat="49.63766" lon="-1.34041">
        <ele>44.723297</ele>
        <time>2022-07-30T12:35:21.000Z</time>
      </trkpt>
      <trkpt lat="49.63769" lon="-1.34036">
        <ele>44.638661</ele>
        <time>2022-07-30T12:35:22.000Z</time>
      </trkpt>
      <trkpt lat="49.63772" lon="-1.34031">
        <ele>44.557218</ele>
        <time>2022-07-30T12:35:23.000Z</time>
      </trkpt>
      <trkpt lat="49.63774" lon="-1.34026">
        <ele>44.475545</ele>
        <time>2022-07-30T12:35:24.000Z</time>
      </trkpt>
      <trkpt lat="49.63778" lon="-1.34021">
        <ele>44.379738</ele>
        <time>2022-07-30T12:35:25.000Z</time>
      </trkpt>
      <trkpt lat="49.63781" lon="-1.34015">
        <ele>44.284412</ele>
        <time>2022-07-30T12:35:26.000Z</time>
      </trkpt>
      <trkpt lat="49.63784" lon="-1.3401">
        <ele>44.187152</ele>
        <time>2022-07-30T12:35:27.000Z</time>
      </trkpt>
      <trkpt lat="49.63788" lon="-1.34004">
        <ele>44.083038</ele>
        <time>2022-07-30T12:35:28.000Z</time>
      </trkpt>
      <trkpt lat="49.63792" lon="-1.33997">
        <ele>43.970672</ele>
        <time>2022-07-30T12:35:29.000Z</time>
      </trkpt>
      <trkpt lat="49.63796" lon="-1.33992">
        <ele>43.856416</ele>
        <time>2022-07-30T12:35:30.000Z</time>
      </trkpt>
      <trkpt lat="49.638" lon="-1.33985">
        <ele>43.739429</ele>
        <time>2022-07-30T12:35:31.000Z</time>
      </trkpt>
      <trkpt lat="49.63805" lon="-1.33978">
        <ele>43.61734</ele>
        <time>2022-07-30T12:35:32.000Z</time>
      </trkpt>
      <trkpt lat="49.63809" lon="-1.33971">
        <ele>43.489255</ele>
        <time>2022-07-30T12:35:33.000Z</time>
      </trkpt>
      <trkpt lat="49.63813" lon="-1.33964">
        <ele>43.361621</ele>
        <time>2022-07-30T12:35:34.000Z</time>
      </trkpt>
      <trkpt lat="49.63818" lon="-1.33956">
        <ele>43.231823</ele>
        <time>2022-07-30T12:35:35.000Z</time>
      </trkpt>
      <trkpt lat="49.63822" lon="-1.3395">
        <ele>43.106474</ele>
        <time>2022-07-30T12:35:36.000Z</time>
      </trkpt>
      <trkpt lat="49.63827" lon="-1.33942">
        <ele>42.973248</ele>
        <time>2022-07-30T12:35:37.000Z</time>
      </trkpt>
      <trkpt lat="49.63832" lon="-1.33935">
        <ele>42.839121</ele>
        <time>2022-07-30T12:35:38.000Z</time>
      </trkpt>
      <trkpt lat="49.63837" lon="-1.33927">
        <ele>42.697118</ele>
        <time>2022-07-30T12:35:39.000Z</time>
      </trkpt>
      <trkpt lat="49.63841" lon="-1.3392">
        <ele>42.565299</ele>
        <time>2022-07-30T12:35:40.000Z</time>
      </trkpt>
      <trkpt lat="49.63845" lon="-1.33912">
        <ele>42.437769</ele>
        <time>2022-07-30T12:35:41.000Z</time>
      </trkpt>
      <trkpt lat="49.6385" lon="-1.33904">
        <ele>42.30499</ele>
        <time>2022-07-30T12:35:42.000Z</time>
      </trkpt>
      <trkpt lat="49.63855" lon="-1.33897">
        <ele>42.162988</ele>
        <time>2022-07-30T12:35:43.000Z</time>
      </trkpt>
      <trkpt lat="49.63859" lon="-1.33889">
        <ele>41.997603</ele>
        <time>2022-07-30T12:35:44.000Z</time>
      </trkpt>
      <trkpt lat="49.63865" lon="-1.33881">
        <ele>41.734546</ele>
        <time>2022-07-30T12:35:45.000Z</time>
      </trkpt>
      <trkpt lat="49.6387" lon="-1.33873">
        <ele>41.476639</ele>
        <time>2022-07-30T12:35:46.000Z</time>
      </trkpt>
      <trkpt lat="49.63875" lon="-1.33866">
        <ele>41.222824</ele>
        <time>2022-07-30T12:35:47.000Z</time>
      </trkpt>
      <trkpt lat="49.63881" lon="-1.33858">
        <ele>40.942531</ele>
        <time>2022-07-30T12:35:48.000Z</time>
      </trkpt>
      <trkpt lat="49.63887" lon="-1.33851">
        <ele>40.667978</ele>
        <time>2022-07-30T12:35:49.000Z</time>
      </trkpt>
      <trkpt lat="49.63894" lon="-1.33844">
        <ele>40.367476</ele>
        <time>2022-07-30T12:35:50.000Z</time>
      </trkpt>
      <trkpt lat="49.63901" lon="-1.33837">
        <ele>40.079687</ele>
        <time>2022-07-30T12:35:51.000Z</time>
      </trkpt>
      <trkpt lat="49.63908" lon="-1.3383">
        <ele>39.786045</ele>
        <time>2022-07-30T12:35:52.000Z</time>
      </trkpt>
      <trkpt lat="49.63915" lon="-1.33824">
        <ele>39.493057</ele>
        <time>2022-07-30T12:35:53.000Z</time>
      </trkpt>
      <trkpt lat="49.63923" lon="-1.33817">
        <ele>39.17749</ele>
        <time>2022-07-30T12:35:54.000Z</time>
      </trkpt>
      <trkpt lat="49.6393" lon="-1.3381">
        <ele>38.872998</ele>
        <time>2022-07-30T12:35:55.000Z</time>
      </trkpt>
      <trkpt lat="49.63937" lon="-1.33803">
        <ele>38.573318</ele>
        <time>2022-07-30T12:35:56.000Z</time>
      </trkpt>
      <trkpt lat="49.63945" lon="-1.33795">
        <ele>38.249443</ele>
        <time>2022-07-30T12:35:57.000Z</time>
      </trkpt>
      <trkpt lat="49.63953" lon="-1.33788">
        <ele>37.922323</ele>
        <time>2022-07-30T12:35:58.000Z</time>
      </trkpt>
      <trkpt lat="49.63961" lon="-1.33781">
        <ele>37.601452</ele>
        <time>2022-07-30T12:35:59.000Z</time>
      </trkpt>
      <trkpt lat="49.63968" lon="-1.33773">
        <ele>37.277577</ele>
        <time>2022-07-30T12:36:00.000Z</time>
      </trkpt>
      <trkpt lat="49.63976" lon="-1.33766">
        <ele>36.959699</ele>
        <time>2022-07-30T12:36:01.000Z</time>
      </trkpt>
      <trkpt lat="49.63982" lon="-1.3376">
        <ele>36.692137</ele>
        <time>2022-07-30T12:36:02.000Z</time>
      </trkpt>
      <trkpt lat="49.63989" lon="-1.33754">
        <ele>36.43484</ele>
        <time>2022-07-30T12:36:03.000Z</time>
      </trkpt>
      <trkpt lat="49.63995" lon="-1.33748">
        <ele>36.178774</ele>
        <time>2022-07-30T12:36:04.000Z</time>
      </trkpt>
      <trkpt lat="49.64001" lon="-1.33741">
        <ele>35.911249</ele>
        <time>2022-07-30T12:36:05.000Z</time>
      </trkpt>
      <trkpt lat="49.64007" lon="-1.33735">
        <ele>35.630315</ele>
        <time>2022-07-30T12:36:06.000Z</time>
      </trkpt>
      <trkpt lat="49.64014" lon="-1.33728">
        <ele>35.309608</ele>
        <time>2022-07-30T12:36:07.000Z</time>
      </trkpt>
      <trkpt lat="49.64021" lon="-1.33722">
        <ele>34.995037</ele>
        <time>2022-07-30T12:36:08.000Z</time>
      </trkpt>
      <trkpt lat="49.64028" lon="-1.33715">
        <ele>34.664778</ele>
        <time>2022-07-30T12:36:09.000Z</time>
      </trkpt>
      <trkpt lat="49.64035" lon="-1.33709">
        <ele>34.333783</ele>
        <time>2022-07-30T12:36:10.000Z</time>
      </trkpt>
      <trkpt lat="49.64042" lon="-1.33702">
        <ele>33.991905</ele>
        <time>2022-07-30T12:36:11.000Z</time>
      </trkpt>
      <trkpt lat="49.64049" lon="-1.33695">
        <ele>33.647909</ele>
        <time>2022-07-30T12:36:12.000Z</time>
      </trkpt>
      <trkpt lat="49.64056" lon="-1.33688">
        <ele>33.323512</ele>
        <time>2022-07-30T12:36:13.000Z</time>
      </trkpt>
      <trkpt lat="49.64063" lon="-1.33681">
        <ele>32.984786</ele>
        <time>2022-07-30T12:36:14.000Z</time>
      </trkpt>
      <trkpt lat="49.6407" lon="-1.33673">
        <ele>32.631248</ele>
        <time>2022-07-30T12:36:15.000Z</time>
      </trkpt>
      <trkpt lat="49.64077" lon="-1.33666">
        <ele>32.285088</ele>
        <time>2022-07-30T12:36:16.000Z</time>
      </trkpt>
      <trkpt lat="49.64085" lon="-1.33658">
        <ele>31.935668</ele>
        <time>2022-07-30T12:36:17.000Z</time>
      </trkpt>
      <trkpt lat="49.64091" lon="-1.3365">
        <ele>31.602182</ele>
        <time>2022-07-30T12:36:18.000Z</time>
      </trkpt>
      <trkpt lat="49.64097" lon="-1.33641">
        <ele>31.267031</ele>
        <time>2022-07-30T12:36:19.000Z</time>
      </trkpt>
      <trkpt lat="49.64103" lon="-1.33633">
        <ele>30.937545</ele>
        <time>2022-07-30T12:36:20.000Z</time>
      </trkpt>
      <trkpt lat="49.6411" lon="-1.33624">
        <ele>30.589822</ele>
        <time>2022-07-30T12:36:21.000Z</time>
      </trkpt>
      <trkpt lat="49.64117" lon="-1.33616">
        <ele>30.242137</ele>
        <time>2022-07-30T12:36:22.000Z</time>
      </trkpt>
      <trkpt lat="49.64123" lon="-1.33608">
        <ele>29.921482</ele>
        <time>2022-07-30T12:36:23.000Z</time>
      </trkpt>
      <trkpt lat="49.64129" lon="-1.336">
        <ele>29.595453</ele>
        <time>2022-07-30T12:36:24.000Z</time>
      </trkpt>
      <trkpt lat="49.64135" lon="-1.33591">
        <ele>29.274065</ele>
        <time>2022-07-30T12:36:25.000Z</time>
      </trkpt>
      <trkpt lat="49.6414" lon="-1.33582">
        <ele>28.962027</ele>
        <time>2022-07-30T12:36:26.000Z</time>
      </trkpt>
      <trkpt lat="49.64146" lon="-1.33574">
        <ele>28.647855</ele>
        <time>2022-07-30T12:36:27.000Z</time>
      </trkpt>
      <trkpt lat="49.64151" lon="-1.33566">
        <ele>28.3722</ele>
        <time>2022-07-30T12:36:28.000Z</time>
      </trkpt>
      <trkpt lat="49.64157" lon="-1.33558">
        <ele>28.141059</ele>
        <time>2022-07-30T12:36:29.000Z</time>
      </trkpt>
      <trkpt lat="49.64163" lon="-1.3355">
        <ele>27.920986</ele>
        <time>2022-07-30T12:36:30.000Z</time>
      </trkpt>
      <trkpt lat="49.64168" lon="-1.33542">
        <ele>27.701766</ele>
        <time>2022-07-30T12:36:31.000Z</time>
      </trkpt>
      <trkpt lat="49.64173" lon="-1.33535">
        <ele>27.494215</ele>
        <time>2022-07-30T12:36:32.000Z</time>
      </trkpt>
      <trkpt lat="49.64179" lon="-1.33528">
        <ele>27.282949</ele>
        <time>2022-07-30T12:36:33.000Z</time>
      </trkpt>
      <trkpt lat="49.64184" lon="-1.33521">
        <ele>27.089684</ele>
        <time>2022-07-30T12:36:34.000Z</time>
      </trkpt>
      <trkpt lat="49.64188" lon="-1.33514">
        <ele>26.908092</ele>
        <time>2022-07-30T12:36:35.000Z</time>
      </trkpt>
      <trkpt lat="49.64193" lon="-1.33508">
        <ele>26.716122</ele>
        <time>2022-07-30T12:36:36.000Z</time>
      </trkpt>
      <trkpt lat="49.64197" lon="-1.33501">
        <ele>26.545665</ele>
        <time>2022-07-30T12:36:37.000Z</time>
      </trkpt>
      <trkpt lat="49.64201" lon="-1.33495">
        <ele>26.383425</ele>
        <time>2022-07-30T12:36:38.000Z</time>
      </trkpt>
      <trkpt lat="49.64205" lon="-1.33489">
        <ele>26.216957</ele>
        <time>2022-07-30T12:36:39.000Z</time>
      </trkpt>
      <trkpt lat="49.64209" lon="-1.33483">
        <ele>26.045722</ele>
        <time>2022-07-30T12:36:40.000Z</time>
      </trkpt>
      <trkpt lat="49.64213" lon="-1.33477">
        <ele>25.881415</ele>
        <time>2022-07-30T12:36:41.000Z</time>
      </trkpt>
      <trkpt lat="49.64217" lon="-1.33471">
        <ele>25.720516</ele>
        <time>2022-07-30T12:36:42.000Z</time>
      </trkpt>
      <trkpt lat="49.64221" lon="-1.33465">
        <ele>25.563056</ele>
        <time>2022-07-30T12:36:43.000Z</time>
      </trkpt>
      <trkpt lat="49.64225" lon="-1.33459">
        <ele>25.406932</ele>
        <time>2022-07-30T12:36:44.000Z</time>
      </trkpt>
      <trkpt lat="49.64229" lon="-1.33453">
        <ele>25.244692</ele>
        <time>2022-07-30T12:36:45.000Z</time>
      </trkpt>
      <trkpt lat="49.64232" lon="-1.33448">
        <ele>25.087232</ele>
        <time>2022-07-30T12:36:46.000Z</time>
      </trkpt>
      <trkpt lat="49.64236" lon="-1.33442">
        <ele>24.933119</ele>
        <time>2022-07-30T12:36:47.000Z</time>
      </trkpt>
      <trkpt lat="49.64239" lon="-1.33437">
        <ele>24.807836</ele>
        <time>2022-07-30T12:36:48.000Z</time>
      </trkpt>
      <trkpt lat="49.64242" lon="-1.3343">
        <ele>24.643554</ele>
        <time>2022-07-30T12:36:49.000Z</time>
      </trkpt>
      <trkpt lat="49.64246" lon="-1.33422">
        <ele>24.45449</ele>
        <time>2022-07-30T12:36:50.000Z</time>
      </trkpt>
      <trkpt lat="49.64249" lon="-1.33415">
        <ele>24.29747</ele>
        <time>2022-07-30T12:36:51.000Z</time>
      </trkpt>
      <trkpt lat="49.64251" lon="-1.33408">
        <ele>24.141808</ele>
        <time>2022-07-30T12:36:52.000Z</time>
      </trkpt>
      <trkpt lat="49.64254" lon="-1.334">
        <ele>23.968504</ele>
        <time>2022-07-30T12:36:53.000Z</time>
      </trkpt>
      <trkpt lat="49.64256" lon="-1.33392">
        <ele>23.800877</ele>
        <time>2022-07-30T12:36:54.000Z</time>
      </trkpt>
      <trkpt lat="49.64259" lon="-1.33383">
        <ele>23.626829</ele>
        <time>2022-07-30T12:36:55.000Z</time>
      </trkpt>
      <trkpt lat="49.6426" lon="-1.33375">
        <ele>23.456067</ele>
        <time>2022-07-30T12:36:56.000Z</time>
      </trkpt>
      <trkpt lat="49.64261" lon="-1.33366">
        <ele>23.293582</ele>
        <time>2022-07-30T12:36:57.000Z</time>
      </trkpt>
      <trkpt lat="49.64262" lon="-1.33358">
        <ele>23.145516</ele>
        <time>2022-07-30T12:36:58.000Z</time>
      </trkpt>
      <trkpt lat="49.64264" lon="-1.3335">
        <ele>23.075453</ele>
        <time>2022-07-30T12:36:59.000Z</time>
      </trkpt>
      <trkpt lat="49.64265" lon="-1.33342">
        <ele>23.006399</ele>
        <time>2022-07-30T12:37:00.000Z</time>
      </trkpt>
      <trkpt lat="49.64266" lon="-1.33333">
        <ele>22.933285</ele>
        <time>2022-07-30T12:37:01.000Z</time>
      </trkpt>
      <trkpt lat="49.64266" lon="-1.33325">
        <ele>22.862052</ele>
        <time>2022-07-30T12:37:02.000Z</time>
      </trkpt>
      <trkpt lat="49.64266" lon="-1.33316">
        <ele>22.791655</ele>
        <time>2022-07-30T12:37:03.000Z</time>
      </trkpt>
      <trkpt lat="49.64267" lon="-1.33308">
        <ele>22.72201</ele>
        <time>2022-07-30T12:37:04.000Z</time>
      </trkpt>
      <trkpt lat="49.64267" lon="-1.333">
        <ele>22.650461</ele>
        <time>2022-07-30T12:37:05.000Z</time>
      </trkpt>
      <trkpt lat="49.64268" lon="-1.33291">
        <ele>22.576523</ele>
        <time>2022-07-30T12:37:06.000Z</time>
      </trkpt>
      <trkpt lat="49.64269" lon="-1.33283">
        <ele>22.508632</ele>
        <time>2022-07-30T12:37:07.000Z</time>
      </trkpt>
      <trkpt lat="49.6427" lon="-1.33275">
        <ele>22.437989</ele>
        <time>2022-07-30T12:37:08.000Z</time>
      </trkpt>
      <trkpt lat="49.64271" lon="-1.33267">
        <ele>22.370044</ele>
        <time>2022-07-30T12:37:09.000Z</time>
      </trkpt>
      <trkpt lat="49.64272" lon="-1.33259">
        <ele>22.303507</ele>
        <time>2022-07-30T12:37:10.000Z</time>
      </trkpt>
      <trkpt lat="49.64273" lon="-1.33251">
        <ele>22.236386</ele>
        <time>2022-07-30T12:37:11.000Z</time>
      </trkpt>
      <trkpt lat="49.64274" lon="-1.33243">
        <ele>22.16792</ele>
        <time>2022-07-30T12:37:12.000Z</time>
      </trkpt>
      <trkpt lat="49.64276" lon="-1.33235">
        <ele>22.098497</ele>
        <time>2022-07-30T12:37:13.000Z</time>
      </trkpt>
      <trkpt lat="49.64278" lon="-1.33228">
        <ele>22.032634</ele>
        <time>2022-07-30T12:37:14.000Z</time>
      </trkpt>
      <trkpt lat="49.64281" lon="-1.33221">
        <ele>21.967525</ele>
        <time>2022-07-30T12:37:15.000Z</time>
      </trkpt>
      <trkpt lat="49.64284" lon="-1.33215">
        <ele>21.900089</ele>
        <time>2022-07-30T12:37:16.000Z</time>
      </trkpt>
      <trkpt lat="49.64286" lon="-1.33209">
        <ele>21.845303</ele>
        <time>2022-07-30T12:37:17.000Z</time>
      </trkpt>
      <trkpt lat="49.64289" lon="-1.33201">
        <ele>21.76519</ele>
        <time>2022-07-30T12:37:18.000Z</time>
      </trkpt>
      <trkpt lat="49.64292" lon="-1.33194">
        <ele>21.699863</ele>
        <time>2022-07-30T12:37:19.000Z</time>
      </trkpt>
      <trkpt lat="49.64294" lon="-1.33189">
        <ele>21.650685</ele>
        <time>2022-07-30T12:37:20.000Z</time>
      </trkpt>
      <trkpt lat="49.64297" lon="-1.33182">
        <ele>21.57692</ele>
        <time>2022-07-30T12:37:21.000Z</time>
      </trkpt>
      <trkpt lat="49.643" lon="-1.33177">
        <ele>21.525374</ele>
        <time>2022-07-30T12:37:22.000Z</time>
      </trkpt>
      <trkpt lat="49.64302" lon="-1.33171">
        <ele>21.463393</ele>
        <time>2022-07-30T12:37:23.000Z</time>
      </trkpt>
      <trkpt lat="49.64306" lon="-1.33166">
        <ele>21.399632</ele>
        <time>2022-07-30T12:37:24.000Z</time>
      </trkpt>
      <trkpt lat="49.64309" lon="-1.33159">
        <ele>21.325103</ele>
        <time>2022-07-30T12:37:25.000Z</time>
      </trkpt>
      <trkpt lat="49.64312" lon="-1.33153">
        <ele>21.267444</ele>
        <time>2022-07-30T12:37:26.000Z</time>
      </trkpt>
      <trkpt lat="49.64314" lon="-1.33148">
        <ele>21.213348</ele>
        <time>2022-07-30T12:37:27.000Z</time>
      </trkpt>
      <trkpt lat="49.64317" lon="-1.33142">
        <ele>21.151539</ele>
        <time>2022-07-30T12:37:28.000Z</time>
      </trkpt>
      <trkpt lat="49.64319" lon="-1.33136">
        <ele>21.092511</ele>
        <time>2022-07-30T12:37:29.000Z</time>
      </trkpt>
      <trkpt lat="49.64321" lon="-1.33131">
        <ele>21.048257</ele>
        <time>2022-07-30T12:37:30.000Z</time>
      </trkpt>
      <trkpt lat="49.64324" lon="-1.33125">
        <ele>20.982825</ele>
        <time>2022-07-30T12:37:31.000Z</time>
      </trkpt>
      <trkpt lat="49.64325" lon="-1.33119">
        <ele>20.928527</ele>
        <time>2022-07-30T12:37:32.000Z</time>
      </trkpt>
      <trkpt lat="49.64327" lon="-1.33112">
        <ele>20.869816</ele>
        <time>2022-07-30T12:37:33.000Z</time>
      </trkpt>
      <trkpt lat="49.64329" lon="-1.33106">
        <ele>20.846239</ele>
        <time>2022-07-30T12:37:34.000Z</time>
      </trkpt>
      <trkpt lat="49.64331" lon="-1.331">
        <ele>20.884643</ele>
        <time>2022-07-30T12:37:35.000Z</time>
      </trkpt>
      <trkpt lat="49.64332" lon="-1.33094">
        <ele>20.925622</ele>
        <time>2022-07-30T12:37:36.000Z</time>
      </trkpt>
      <trkpt lat="49.64333" lon="-1.33087">
        <ele>20.965452</ele>
        <time>2022-07-30T12:37:37.000Z</time>
      </trkpt>
      <trkpt lat="49.64335" lon="-1.33081">
        <ele>21.004417</ele>
        <time>2022-07-30T12:37:38.000Z</time>
      </trkpt>
      <trkpt lat="49.64336" lon="-1.33074">
        <ele>21.044846</ele>
        <time>2022-07-30T12:37:39.000Z</time>
      </trkpt>
      <trkpt lat="49.64338" lon="-1.33068">
        <ele>21.082689</ele>
        <time>2022-07-30T12:37:40.000Z</time>
      </trkpt>
      <trkpt lat="49.64338" lon="-1.33063">
        <ele>21.112077</ele>
        <time>2022-07-30T12:37:41.000Z</time>
      </trkpt>
      <trkpt lat="49.6434" lon="-1.33056">
        <ele>21.158787</ele>
        <time>2022-07-30T12:37:42.000Z</time>
      </trkpt>
      <trkpt lat="49.64342" lon="-1.3305">
        <ele>21.198146</ele>
        <time>2022-07-30T12:37:43.000Z</time>
      </trkpt>
      <trkpt lat="49.64344" lon="-1.33044">
        <ele>21.23725</ele>
        <time>2022-07-30T12:37:44.000Z</time>
      </trkpt>
      <trkpt lat="49.64346" lon="-1.33039">
        <ele>21.274506</ele>
        <time>2022-07-30T12:37:45.000Z</time>
      </trkpt>
      <trkpt lat="49.64348" lon="-1.33034">
        <ele>21.304624</ele>
        <time>2022-07-30T12:37:46.000Z</time>
      </trkpt>
      <trkpt lat="49.6435" lon="-1.33028">
        <ele>21.349647</ele>
        <time>2022-07-30T12:37:47.000Z</time>
      </trkpt>
      <trkpt lat="49.64352" lon="-1.33023">
        <ele>21.384302</ele>
        <time>2022-07-30T12:37:48.000Z</time>
      </trkpt>
      <trkpt lat="49.64355" lon="-1.33018">
        <ele>21.419965</ele>
        <time>2022-07-30T12:37:49.000Z</time>
      </trkpt>
      <trkpt lat="49.64357" lon="-1.33013">
        <ele>21.456266</ele>
        <time>2022-07-30T12:37:50.000Z</time>
      </trkpt>
      <trkpt lat="49.64359" lon="-1.33009">
        <ele>21.487923</ele>
        <time>2022-07-30T12:37:51.000Z</time>
      </trkpt>
      <trkpt lat="49.64361" lon="-1.33004">
        <ele>21.52079</ele>
        <time>2022-07-30T12:37:52.000Z</time>
      </trkpt>
      <trkpt lat="49.64363" lon="-1.33">
        <ele>21.550023</ele>
        <time>2022-07-30T12:37:53.000Z</time>
      </trkpt>
      <trkpt lat="49.64365" lon="-1.32996">
        <ele>21.579257</ele>
        <time>2022-07-30T12:37:54.000Z</time>
      </trkpt>
      <trkpt lat="49.64367" lon="-1.32992">
        <ele>21.61078</ele>
        <time>2022-07-30T12:37:55.000Z</time>
      </trkpt>
      <trkpt lat="49.64369" lon="-1.32988">
        <ele>21.638487</ele>
        <time>2022-07-30T12:37:56.000Z</time>
      </trkpt>
      <trkpt lat="49.6437" lon="-1.32984">
        <ele>21.665539</ele>
        <time>2022-07-30T12:37:57.000Z</time>
      </trkpt>
      <trkpt lat="49.64372" lon="-1.3298">
        <ele>21.696261</ele>
        <time>2022-07-30T12:37:58.000Z</time>
      </trkpt>
      <trkpt lat="49.64374" lon="-1.32976">
        <ele>21.724471</ele>
        <time>2022-07-30T12:37:59.000Z</time>
      </trkpt>
      <trkpt lat="49.64375" lon="-1.32972">
        <ele>21.749239</ele>
        <time>2022-07-30T12:38:00.000Z</time>
      </trkpt>
      <trkpt lat="49.64377" lon="-1.32968">
        <ele>21.781052</ele>
        <time>2022-07-30T12:38:01.000Z</time>
      </trkpt>
      <trkpt lat="49.64378" lon="-1.32964">
        <ele>21.806006</ele>
        <time>2022-07-30T12:38:02.000Z</time>
      </trkpt>
      <trkpt lat="49.64379" lon="-1.3296">
        <ele>21.830178</ele>
        <time>2022-07-30T12:38:03.000Z</time>
      </trkpt>
      <trkpt lat="49.6438" lon="-1.32956">
        <ele>21.852655</ele>
        <time>2022-07-30T12:38:04.000Z</time>
      </trkpt>
      <trkpt lat="49.6438" lon="-1.32953">
        <ele>21.87328</ele>
        <time>2022-07-30T12:38:05.000Z</time>
      </trkpt>
      <trkpt lat="49.6438" lon="-1.32949">
        <ele>21.895084</ele>
        <time>2022-07-30T12:38:06.000Z</time>
      </trkpt>
      <trkpt lat="49.6438" lon="-1.32946">
        <ele>21.914721</ele>
        <time>2022-07-30T12:38:07.000Z</time>
      </trkpt>
      <trkpt lat="49.6438" lon="-1.32942">
        <ele>21.935665</ele>
        <time>2022-07-30T12:38:08.000Z</time>
      </trkpt>
      <trkpt lat="49.64381" lon="-1.32939">
        <ele>21.955297</ele>
        <time>2022-07-30T12:38:09.000Z</time>
      </trkpt>
      <trkpt lat="49.64381" lon="-1.32936">
        <ele>21.973768</ele>
        <time>2022-07-30T12:38:10.000Z</time>
      </trkpt>
      <trkpt lat="49.64381" lon="-1.32933">
        <ele>21.991447</ele>
        <time>2022-07-30T12:38:11.000Z</time>
      </trkpt>
      <trkpt lat="49.64381" lon="-1.3293">
        <ele>22.009126</ele>
        <time>2022-07-30T12:38:12.000Z</time>
      </trkpt>
      <trkpt lat="49.64381" lon="-1.32927">
        <ele>22.028179</ele>
        <time>2022-07-30T12:38:13.000Z</time>
      </trkpt>
      <trkpt lat="49.64381" lon="-1.32924">
        <ele>22.045858</ele>
        <time>2022-07-30T12:38:14.000Z</time>
      </trkpt>
      <trkpt lat="49.64382" lon="-1.3292">
        <ele>22.065064</ele>
        <time>2022-07-30T12:38:15.000Z</time>
      </trkpt>
      <trkpt lat="49.64382" lon="-1.32917">
        <ele>22.082952</ele>
        <time>2022-07-30T12:38:16.000Z</time>
      </trkpt>
      <trkpt lat="49.64382" lon="-1.32915">
        <ele>22.099452</ele>
        <time>2022-07-30T12:38:17.000Z</time>
      </trkpt>
      <trkpt lat="49.64382" lon="-1.3291">
        <ele>22.124352</ele>
        <time>2022-07-30T12:38:19.000Z</time>
      </trkpt>
      <trkpt lat="49.64389" lon="-1.329">
        <ele>22.210624</ele>
        <time>2022-07-30T12:44:06.000Z</time>
      </trkpt>
      <trkpt lat="49.64389" lon="-1.32896">
        <ele>22.233101</ele>
        <time>2022-07-30T12:44:07.000Z</time>
      </trkpt>
      <trkpt lat="49.6439" lon="-1.32892">
        <ele>22.256952</ele>
        <time>2022-07-30T12:44:08.000Z</time>
      </trkpt>
      <trkpt lat="49.6439" lon="-1.32888">
        <ele>22.282438</ele>
        <time>2022-07-30T12:44:09.000Z</time>
      </trkpt>
      <trkpt lat="49.64391" lon="-1.32883">
        <ele>22.309512</ele>
        <time>2022-07-30T12:44:10.000Z</time>
      </trkpt>
      <trkpt lat="49.64391" lon="-1.32878">
        <ele>22.337209</ele>
        <time>2022-07-30T12:44:11.000Z</time>
      </trkpt>
      <trkpt lat="49.64391" lon="-1.32874">
        <ele>22.364453</ele>
        <time>2022-07-30T12:44:12.000Z</time>
      </trkpt>
      <trkpt lat="49.64391" lon="-1.3287">
        <ele>22.38947</ele>
        <time>2022-07-30T12:44:13.000Z</time>
      </trkpt>
      <trkpt lat="49.64392" lon="-1.32866">
        <ele>22.411444</ele>
        <time>2022-07-30T12:44:14.000Z</time>
      </trkpt>
      <trkpt lat="49.64392" lon="-1.32863">
        <ele>22.431081</ele>
        <time>2022-07-30T12:44:15.000Z</time>
      </trkpt>
      <trkpt lat="49.64392" lon="-1.32859">
        <ele>22.451706</ele>
        <time>2022-07-30T12:44:16.000Z</time>
      </trkpt>
      <trkpt lat="49.64393" lon="-1.32856">
        <ele>22.467068</ele>
        <time>2022-07-30T12:44:17.000Z</time>
      </trkpt>
      <trkpt lat="49.64393" lon="-1.32852">
        <ele>22.45103</ele>
        <time>2022-07-30T12:44:18.000Z</time>
      </trkpt>
      <trkpt lat="49.64393" lon="-1.32848">
        <ele>22.433033</ele>
        <time>2022-07-30T12:44:19.000Z</time>
      </trkpt>
      <trkpt lat="49.64394" lon="-1.32844">
        <ele>22.412878</ele>
        <time>2022-07-30T12:44:20.000Z</time>
      </trkpt>
      <trkpt lat="49.64395" lon="-1.32839">
        <ele>22.389773</ele>
        <time>2022-07-30T12:44:21.000Z</time>
      </trkpt>
      <trkpt lat="49.64396" lon="-1.32834">
        <ele>22.364667</ele>
        <time>2022-07-30T12:44:22.000Z</time>
      </trkpt>
      <trkpt lat="49.64396" lon="-1.32828">
        <ele>22.338982</ele>
        <time>2022-07-30T12:44:23.000Z</time>
      </trkpt>
      <trkpt lat="49.64397" lon="-1.32823">
        <ele>22.312543</ele>
        <time>2022-07-30T12:44:24.000Z</time>
      </trkpt>
      <trkpt lat="49.64398" lon="-1.32817">
        <ele>22.285959</ele>
        <time>2022-07-30T12:44:25.000Z</time>
      </trkpt>
      <trkpt lat="49.64398" lon="-1.32812">
        <ele>22.262037</ele>
        <time>2022-07-30T12:44:26.000Z</time>
      </trkpt>
      <trkpt lat="49.64399" lon="-1.32807">
        <ele>22.237816</ele>
        <time>2022-07-30T12:44:27.000Z</time>
      </trkpt>
      <trkpt lat="49.64399" lon="-1.32802">
        <ele>22.21473</ele>
        <time>2022-07-30T12:44:28.000Z</time>
      </trkpt>
      <trkpt lat="49.644" lon="-1.32797">
        <ele>22.190527</ele>
        <time>2022-07-30T12:44:29.000Z</time>
      </trkpt>
      <trkpt lat="49.64401" lon="-1.32792">
        <ele>22.168127</ele>
        <time>2022-07-30T12:44:30.000Z</time>
      </trkpt>
      <trkpt lat="49.64401" lon="-1.32787">
        <ele>22.145041</ele>
        <time>2022-07-30T12:44:31.000Z</time>
      </trkpt>
      <trkpt lat="49.64401" lon="-1.32782">
        <ele>22.122032</ele>
        <time>2022-07-30T12:44:32.000Z</time>
      </trkpt>
      <trkpt lat="49.64401" lon="-1.32777">
        <ele>22.099579</ele>
        <time>2022-07-30T12:44:33.000Z</time>
      </trkpt>
      <trkpt lat="49.64402" lon="-1.32772">
        <ele>22.076114</ele>
        <time>2022-07-30T12:44:34.000Z</time>
      </trkpt>
      <trkpt lat="49.64402" lon="-1.32767">
        <ele>22.052192</ele>
        <time>2022-07-30T12:44:35.000Z</time>
      </trkpt>
      <trkpt lat="49.64402" lon="-1.32762">
        <ele>22.029281</ele>
        <time>2022-07-30T12:44:36.000Z</time>
      </trkpt>
      <trkpt lat="49.64402" lon="-1.32757">
        <ele>22.00637</ele>
        <time>2022-07-30T12:44:37.000Z</time>
      </trkpt>
      <trkpt lat="49.64402" lon="-1.32751">
        <ele>21.981991</ele>
        <time>2022-07-30T12:44:38.000Z</time>
      </trkpt>
      <trkpt lat="49.64403" lon="-1.32746">
        <ele>21.955814</ele>
        <time>2022-07-30T12:44:39.000Z</time>
      </trkpt>
      <trkpt lat="49.64403" lon="-1.32741">
        <ele>21.931987</ele>
        <time>2022-07-30T12:44:40.000Z</time>
      </trkpt>
      <trkpt lat="49.64404" lon="-1.32735">
        <ele>21.907608</ele>
        <time>2022-07-30T12:44:41.000Z</time>
      </trkpt>
      <trkpt lat="49.64404" lon="-1.3273">
        <ele>21.882773</ele>
        <time>2022-07-30T12:44:42.000Z</time>
      </trkpt>
      <trkpt lat="49.64405" lon="-1.32725">
        <ele>21.857478</ele>
        <time>2022-07-30T12:44:43.000Z</time>
      </trkpt>
      <trkpt lat="49.64405" lon="-1.32719">
        <ele>21.832186</ele>
        <time>2022-07-30T12:44:44.000Z</time>
      </trkpt>
      <trkpt lat="49.64405" lon="-1.32714">
        <ele>21.806895</ele>
        <time>2022-07-30T12:44:45.000Z</time>
      </trkpt>
      <trkpt lat="49.64405" lon="-1.32708">
        <ele>21.780776</ele>
        <time>2022-07-30T12:44:46.000Z</time>
      </trkpt>
      <trkpt lat="49.64405" lon="-1.32702">
        <ele>21.754199</ele>
        <time>2022-07-30T12:44:47.000Z</time>
      </trkpt>
      <trkpt lat="49.64406" lon="-1.32697">
        <ele>21.728839</ele>
        <time>2022-07-30T12:44:48.000Z</time>
      </trkpt>
      <trkpt lat="49.64406" lon="-1.32691">
        <ele>21.702634</ele>
        <time>2022-07-30T12:44:49.000Z</time>
      </trkpt>
      <trkpt lat="49.64407" lon="-1.32685">
        <ele>21.675305</ele>
        <time>2022-07-30T12:44:50.000Z</time>
      </trkpt>
      <trkpt lat="49.64407" lon="-1.32679">
        <ele>21.649033</ele>
        <time>2022-07-30T12:44:51.000Z</time>
      </trkpt>
      <trkpt lat="49.64407" lon="-1.32674">
        <ele>21.623373</ele>
        <time>2022-07-30T12:44:52.000Z</time>
      </trkpt>
      <trkpt lat="49.64407" lon="-1.32668">
        <ele>21.595879</ele>
        <time>2022-07-30T12:44:53.000Z</time>
      </trkpt>
      <trkpt lat="49.64408" lon="-1.32662">
        <ele>21.56739</ele>
        <time>2022-07-30T12:44:54.000Z</time>
      </trkpt>
      <trkpt lat="49.64409" lon="-1.32655">
        <ele>21.537828</ele>
        <time>2022-07-30T12:44:55.000Z</time>
      </trkpt>
      <trkpt lat="49.64409" lon="-1.32649">
        <ele>21.508044</ele>
        <time>2022-07-30T12:44:56.000Z</time>
      </trkpt>
      <trkpt lat="49.64409" lon="-1.32642">
        <ele>21.476946</ele>
        <time>2022-07-30T12:44:57.000Z</time>
      </trkpt>
      <trkpt lat="49.6441" lon="-1.32635">
        <ele>21.446172</ele>
        <time>2022-07-30T12:44:58.000Z</time>
      </trkpt>
      <trkpt lat="49.6441" lon="-1.32629">
        <ele>21.416312</ele>
        <time>2022-07-30T12:44:59.000Z</time>
      </trkpt>
      <trkpt lat="49.64411" lon="-1.32622">
        <ele>21.386118</ele>
        <time>2022-07-30T12:45:00.000Z</time>
      </trkpt>
      <trkpt lat="49.64411" lon="-1.32616">
        <ele>21.35694</ele>
        <time>2022-07-30T12:45:01.000Z</time>
      </trkpt>
      <trkpt lat="49.64412" lon="-1.3261">
        <ele>21.327994</ele>
        <time>2022-07-30T12:45:02.000Z</time>
      </trkpt>
      <trkpt lat="49.64412" lon="-1.32603">
        <ele>21.2978</ele>
        <time>2022-07-30T12:45:03.000Z</time>
      </trkpt>
      <trkpt lat="49.64413" lon="-1.32597">
        <ele>21.268169</ele>
        <time>2022-07-30T12:45:04.000Z</time>
      </trkpt>
      <trkpt lat="49.64413" lon="-1.32591">
        <ele>21.239223</ele>
        <time>2022-07-30T12:45:05.000Z</time>
      </trkpt>
      <trkpt lat="49.64413" lon="-1.32584">
        <ele>21.210277</ele>
        <time>2022-07-30T12:45:06.000Z</time>
      </trkpt>
      <trkpt lat="49.64414" lon="-1.32578">
        <ele>21.171548</ele>
        <time>2022-07-30T12:45:07.000Z</time>
      </trkpt>
      <trkpt lat="49.64414" lon="-1.32572">
        <ele>21.127413</ele>
        <time>2022-07-30T12:45:08.000Z</time>
      </trkpt>
      <trkpt lat="49.64415" lon="-1.32565">
        <ele>21.080164</ele>
        <time>2022-07-30T12:45:09.000Z</time>
      </trkpt>
      <trkpt lat="49.64415" lon="-1.32559">
        <ele>21.036878</ele>
        <time>2022-07-30T12:45:10.000Z</time>
      </trkpt>
      <trkpt lat="49.64415" lon="-1.32553">
        <ele>20.992645</ele>
        <time>2022-07-30T12:45:11.000Z</time>
      </trkpt>
      <trkpt lat="49.64416" lon="-1.32547">
        <ele>20.945991</ele>
        <time>2022-07-30T12:45:12.000Z</time>
      </trkpt>
      <trkpt lat="49.64416" lon="-1.3254">
        <ele>20.899097</ele>
        <time>2022-07-30T12:45:13.000Z</time>
      </trkpt>
      <trkpt lat="49.64417" lon="-1.32534">
        <ele>20.853158</ele>
        <time>2022-07-30T12:45:14.000Z</time>
      </trkpt>
      <trkpt lat="49.64417" lon="-1.32528">
        <ele>20.806264</ele>
        <time>2022-07-30T12:45:15.000Z</time>
      </trkpt>
      <trkpt lat="49.64417" lon="-1.32521">
        <ele>20.757927</ele>
        <time>2022-07-30T12:45:16.000Z</time>
      </trkpt>
      <trkpt lat="49.64417" lon="-1.32514">
        <ele>20.710312</ele>
        <time>2022-07-30T12:45:17.000Z</time>
      </trkpt>
      <trkpt lat="49.64417" lon="-1.32508">
        <ele>20.663207</ele>
        <time>2022-07-30T12:45:18.000Z</time>
      </trkpt>
      <trkpt lat="49.64417" lon="-1.32501">
        <ele>20.614665</ele>
        <time>2022-07-30T12:45:19.000Z</time>
      </trkpt>
      <trkpt lat="49.64417" lon="-1.32495">
        <ele>20.568997</ele>
        <time>2022-07-30T12:45:20.000Z</time>
      </trkpt>
      <trkpt lat="49.64417" lon="-1.32488">
        <ele>20.522824</ele>
        <time>2022-07-30T12:45:21.000Z</time>
      </trkpt>
      <trkpt lat="49.64417" lon="-1.32482">
        <ele>20.475812</ele>
        <time>2022-07-30T12:45:22.000Z</time>
      </trkpt>
      <trkpt lat="49.64418" lon="-1.32475">
        <ele>20.428799</ele>
        <time>2022-07-30T12:45:23.000Z</time>
      </trkpt>
      <trkpt lat="49.64418" lon="-1.32469">
        <ele>20.381786</ele>
        <time>2022-07-30T12:45:24.000Z</time>
      </trkpt>
      <trkpt lat="49.64418" lon="-1.32463">
        <ele>20.337778</ele>
        <time>2022-07-30T12:45:25.000Z</time>
      </trkpt>
      <trkpt lat="49.64418" lon="-1.32456">
        <ele>20.291485</ele>
        <time>2022-07-30T12:45:26.000Z</time>
      </trkpt>
      <trkpt lat="49.64418" lon="-1.3245">
        <ele>20.242313</ele>
        <time>2022-07-30T12:45:27.000Z</time>
      </trkpt>
      <trkpt lat="49.64418" lon="-1.32443">
        <ele>20.193142</ele>
        <time>2022-07-30T12:45:28.000Z</time>
      </trkpt>
      <trkpt lat="49.64417" lon="-1.32436">
        <ele>20.146488</ele>
        <time>2022-07-30T12:45:29.000Z</time>
      </trkpt>
      <trkpt lat="49.64417" lon="-1.3243">
        <ele>20.100819</ele>
        <time>2022-07-30T12:45:30.000Z</time>
      </trkpt>
      <trkpt lat="49.64416" lon="-1.32423">
        <ele>20.051453</ele>
        <time>2022-07-30T12:45:31.000Z</time>
      </trkpt>
      <trkpt lat="49.64415" lon="-1.32417">
        <ele>20.003916</ele>
        <time>2022-07-30T12:45:32.000Z</time>
      </trkpt>
      <trkpt lat="49.64414" lon="-1.3241">
        <ele>19.955962</ele>
        <time>2022-07-30T12:45:33.000Z</time>
      </trkpt>
      <trkpt lat="49.64414" lon="-1.32404">
        <ele>19.908949</ele>
        <time>2022-07-30T12:45:34.000Z</time>
      </trkpt>
      <trkpt lat="49.64413" lon="-1.32397">
        <ele>19.861411</ele>
        <time>2022-07-30T12:45:35.000Z</time>
      </trkpt>
      <trkpt lat="49.64413" lon="-1.32391">
        <ele>19.814398</ele>
        <time>2022-07-30T12:45:36.000Z</time>
      </trkpt>
      <trkpt lat="49.64412" lon="-1.32386">
        <ele>19.775955</ele>
        <time>2022-07-30T12:45:37.000Z</time>
      </trkpt>
      <trkpt lat="49.64411" lon="-1.32379">
        <ele>19.729301</ele>
        <time>2022-07-30T12:45:38.000Z</time>
      </trkpt>
      <trkpt lat="49.64411" lon="-1.32372">
        <ele>19.674066</ele>
        <time>2022-07-30T12:45:39.000Z</time>
      </trkpt>
      <trkpt lat="49.6441" lon="-1.32367">
        <ele>19.637001</ele>
        <time>2022-07-30T12:45:40.000Z</time>
      </trkpt>
      <trkpt lat="49.64409" lon="-1.32359">
        <ele>19.580333</ele>
        <time>2022-07-30T12:45:41.000Z</time>
      </trkpt>
      <trkpt lat="49.64408" lon="-1.32352">
        <ele>19.530025</ele>
        <time>2022-07-30T12:45:42.000Z</time>
      </trkpt>
      <trkpt lat="49.64407" lon="-1.32346">
        <ele>19.481228</ele>
        <time>2022-07-30T12:45:43.000Z</time>
      </trkpt>
      <trkpt lat="49.64407" lon="-1.32339">
        <ele>19.434123</ele>
        <time>2022-07-30T12:45:44.000Z</time>
      </trkpt>
      <trkpt lat="49.64407" lon="-1.32333">
        <ele>19.389269</ele>
        <time>2022-07-30T12:45:45.000Z</time>
      </trkpt>
      <trkpt lat="49.64406" lon="-1.32327">
        <ele>19.346895</ele>
        <time>2022-07-30T12:45:46.000Z</time>
      </trkpt>
      <trkpt lat="49.64406" lon="-1.32321">
        <ele>19.305637</ele>
        <time>2022-07-30T12:45:47.000Z</time>
      </trkpt>
      <trkpt lat="49.64405" lon="-1.32316">
        <ele>19.265708</ele>
        <time>2022-07-30T12:45:48.000Z</time>
      </trkpt>
      <trkpt lat="49.64405" lon="-1.32311">
        <ele>19.226891</ele>
        <time>2022-07-30T12:45:49.000Z</time>
      </trkpt>
      <trkpt lat="49.64404" lon="-1.32305">
        <ele>19.190151</ele>
        <time>2022-07-30T12:45:50.000Z</time>
      </trkpt>
      <trkpt lat="49.64404" lon="-1.323">
        <ele>19.168493</ele>
        <time>2022-07-30T12:45:51.000Z</time>
      </trkpt>
      <trkpt lat="49.64403" lon="-1.32294">
        <ele>19.146608</ele>
        <time>2022-07-30T12:45:52.000Z</time>
      </trkpt>
      <trkpt lat="49.64402" lon="-1.32289">
        <ele>19.123057</ele>
        <time>2022-07-30T12:45:53.000Z</time>
      </trkpt>
      <trkpt lat="49.64402" lon="-1.32283">
        <ele>19.100226</ele>
        <time>2022-07-30T12:45:54.000Z</time>
      </trkpt>
      <trkpt lat="49.64401" lon="-1.32277">
        <ele>19.07583</ele>
        <time>2022-07-30T12:45:55.000Z</time>
      </trkpt>
      <trkpt lat="49.64401" lon="-1.3227">
        <ele>19.051135</ele>
        <time>2022-07-30T12:45:56.000Z</time>
      </trkpt>
      <trkpt lat="49.64399" lon="-1.32264">
        <ele>19.026119</ele>
        <time>2022-07-30T12:45:57.000Z</time>
      </trkpt>
      <trkpt lat="49.64399" lon="-1.32258">
        <ele>19.000264</ele>
        <time>2022-07-30T12:45:58.000Z</time>
      </trkpt>
      <trkpt lat="49.64398" lon="-1.32251">
        <ele>18.974182</ele>
        <time>2022-07-30T12:45:59.000Z</time>
      </trkpt>
      <trkpt lat="49.64397" lon="-1.32245">
        <ele>18.95026</ele>
        <time>2022-07-30T12:46:00.000Z</time>
      </trkpt>
      <trkpt lat="49.64397" lon="-1.32239">
        <ele>18.925864</ele>
        <time>2022-07-30T12:46:01.000Z</time>
      </trkpt>
      <trkpt lat="49.64396" lon="-1.32233">
        <ele>18.899649</ele>
        <time>2022-07-30T12:46:02.000Z</time>
      </trkpt>
      <trkpt lat="49.64396" lon="-1.32225">
        <ele>18.870947</ele>
        <time>2022-07-30T12:46:03.000Z</time>
      </trkpt>
      <trkpt lat="49.64395" lon="-1.32218">
        <ele>18.843812</ele>
        <time>2022-07-30T12:46:04.000Z</time>
      </trkpt>
      <trkpt lat="49.64395" lon="-1.32212">
        <ele>18.819024</ele>
        <time>2022-07-30T12:46:05.000Z</time>
      </trkpt>
      <trkpt lat="49.64394" lon="-1.32205">
        <ele>18.792007</ele>
        <time>2022-07-30T12:46:06.000Z</time>
      </trkpt>
      <trkpt lat="49.64394" lon="-1.32198">
        <ele>18.764932</ele>
        <time>2022-07-30T12:46:07.000Z</time>
      </trkpt>
      <trkpt lat="49.64394" lon="-1.32192">
        <ele>18.738971</ele>
        <time>2022-07-30T12:46:08.000Z</time>
      </trkpt>
      <trkpt lat="49.64394" lon="-1.32185">
        <ele>18.711444</ele>
        <time>2022-07-30T12:46:09.000Z</time>
      </trkpt>
      <trkpt lat="49.64393" lon="-1.32178">
        <ele>18.684126</ele>
        <time>2022-07-30T12:46:10.000Z</time>
      </trkpt>
      <trkpt lat="49.64393" lon="-1.32171">
        <ele>18.656659</ele>
        <time>2022-07-30T12:46:11.000Z</time>
      </trkpt>
      <trkpt lat="49.64392" lon="-1.32166">
        <ele>18.635434</ele>
        <time>2022-07-30T12:46:12.000Z</time>
      </trkpt>
      <trkpt lat="49.64392" lon="-1.32159">
        <ele>18.60869</ele>
        <time>2022-07-30T12:46:13.000Z</time>
      </trkpt>
      <trkpt lat="49.64392" lon="-1.3215">
        <ele>18.57568</ele>
        <time>2022-07-30T12:46:14.000Z</time>
      </trkpt>
      <trkpt lat="49.64391" lon="-1.32144">
        <ele>18.549718</ele>
        <time>2022-07-30T12:46:15.000Z</time>
      </trkpt>
      <trkpt lat="49.64391" lon="-1.32137">
        <ele>18.523428</ele>
        <time>2022-07-30T12:46:16.000Z</time>
      </trkpt>
      <trkpt lat="49.64391" lon="-1.3213">
        <ele>18.495855</ele>
        <time>2022-07-30T12:46:17.000Z</time>
      </trkpt>
      <trkpt lat="49.64391" lon="-1.32123">
        <ele>18.468388</ele>
        <time>2022-07-30T12:46:18.000Z</time>
      </trkpt>
      <trkpt lat="49.64391" lon="-1.32116">
        <ele>18.44092</ele>
        <time>2022-07-30T12:46:19.000Z</time>
      </trkpt>
      <trkpt lat="49.64391" lon="-1.32109">
        <ele>18.414238</ele>
        <time>2022-07-30T12:46:20.000Z</time>
      </trkpt>
      <trkpt lat="49.64391" lon="-1.32103">
        <ele>18.387948</ele>
        <time>2022-07-30T12:46:21.000Z</time>
      </trkpt>
      <trkpt lat="49.64391" lon="-1.32095">
        <ele>18.359696</ele>
        <time>2022-07-30T12:46:22.000Z</time>
      </trkpt>
      <trkpt lat="49.64391" lon="-1.32089">
        <ele>18.334191</ele>
        <time>2022-07-30T12:46:23.000Z</time>
      </trkpt>
      <trkpt lat="49.64391" lon="-1.32082">
        <ele>18.308571</ele>
        <time>2022-07-30T12:46:24.000Z</time>
      </trkpt>
      <trkpt lat="49.64391" lon="-1.32076">
        <ele>18.283851</ele>
        <time>2022-07-30T12:46:25.000Z</time>
      </trkpt>
      <trkpt lat="49.64392" lon="-1.32069">
        <ele>18.256922</ele>
        <time>2022-07-30T12:46:26.000Z</time>
      </trkpt>
      <trkpt lat="49.64393" lon="-1.32062">
        <ele>18.229177</ele>
        <time>2022-07-30T12:46:27.000Z</time>
      </trkpt>
      <trkpt lat="49.64394" lon="-1.32056">
        <ele>18.203026</ele>
        <time>2022-07-30T12:46:28.000Z</time>
      </trkpt>
      <trkpt lat="49.64394" lon="-1.32049">
        <ele>18.176486</ele>
        <time>2022-07-30T12:46:29.000Z</time>
      </trkpt>
      <trkpt lat="49.64396" lon="-1.32042">
        <ele>18.149041</ele>
        <time>2022-07-30T12:46:30.000Z</time>
      </trkpt>
      <trkpt lat="49.64397" lon="-1.32036">
        <ele>18.12122</ele>
        <time>2022-07-30T12:46:31.000Z</time>
      </trkpt>
      <trkpt lat="49.64398" lon="-1.32029">
        <ele>18.0975</ele>
        <time>2022-07-30T12:46:32.000Z</time>
      </trkpt>
      <trkpt lat="49.644" lon="-1.32022">
        <ele>18.08092</ele>
        <time>2022-07-30T12:46:33.000Z</time>
      </trkpt>
      <trkpt lat="49.64401" lon="-1.32015">
        <ele>18.064446</ele>
        <time>2022-07-30T12:46:34.000Z</time>
      </trkpt>
      <trkpt lat="49.64402" lon="-1.32008">
        <ele>18.04808</ele>
        <time>2022-07-30T12:46:35.000Z</time>
      </trkpt>
      <trkpt lat="49.64403" lon="-1.32001">
        <ele>18.031606</ele>
        <time>2022-07-30T12:46:36.000Z</time>
      </trkpt>
      <trkpt lat="49.64405" lon="-1.31994">
        <ele>18.015451</ele>
        <time>2022-07-30T12:46:37.000Z</time>
      </trkpt>
      <trkpt lat="49.64407" lon="-1.31987">
        <ele>17.998905</ele>
        <time>2022-07-30T12:46:38.000Z</time>
      </trkpt>
      <trkpt lat="49.64408" lon="-1.31981">
        <ele>17.983515</ele>
        <time>2022-07-30T12:46:39.000Z</time>
      </trkpt>
      <trkpt lat="49.6441" lon="-1.31974">
        <ele>17.967382</ele>
        <time>2022-07-30T12:46:40.000Z</time>
      </trkpt>
      <trkpt lat="49.64412" lon="-1.31968">
        <ele>17.951651</ele>
        <time>2022-07-30T12:46:41.000Z</time>
      </trkpt>
      <trkpt lat="49.64413" lon="-1.31962">
        <ele>17.935929</ele>
        <time>2022-07-30T12:46:42.000Z</time>
      </trkpt>
      <trkpt lat="49.64415" lon="-1.31955">
        <ele>17.92062</ele>
        <time>2022-07-30T12:46:43.000Z</time>
      </trkpt>
      <trkpt lat="49.64417" lon="-1.31949">
        <ele>17.904889</ele>
        <time>2022-07-30T12:46:44.000Z</time>
      </trkpt>
      <trkpt lat="49.64419" lon="-1.31943">
        <ele>17.889219</ele>
        <time>2022-07-30T12:46:45.000Z</time>
      </trkpt>
      <trkpt lat="49.6442" lon="-1.31937">
        <ele>17.875013</ele>
        <time>2022-07-30T12:46:46.000Z</time>
      </trkpt>
      <trkpt lat="49.64421" lon="-1.3193">
        <ele>17.859915</ele>
        <time>2022-07-30T12:46:47.000Z</time>
      </trkpt>
      <trkpt lat="49.64423" lon="-1.31924">
        <ele>17.845026</ele>
        <time>2022-07-30T12:46:48.000Z</time>
      </trkpt>
      <trkpt lat="49.64424" lon="-1.31918">
        <ele>17.831011</ele>
        <time>2022-07-30T12:46:49.000Z</time>
      </trkpt>
      <trkpt lat="49.64426" lon="-1.31912">
        <ele>17.815491</ele>
        <time>2022-07-30T12:46:50.000Z</time>
      </trkpt>
      <trkpt lat="49.64427" lon="-1.31906">
        <ele>17.801644</ele>
        <time>2022-07-30T12:46:51.000Z</time>
      </trkpt>
      <trkpt lat="49.64429" lon="-1.319">
        <ele>17.787174</ele>
        <time>2022-07-30T12:46:52.000Z</time>
      </trkpt>
      <trkpt lat="49.6443" lon="-1.31894">
        <ele>17.772647</ele>
        <time>2022-07-30T12:46:53.000Z</time>
      </trkpt>
      <trkpt lat="49.64432" lon="-1.31888">
        <ele>17.757968</ele>
        <time>2022-07-30T12:46:54.000Z</time>
      </trkpt>
      <trkpt lat="49.64433" lon="-1.31882">
        <ele>17.743225</ele>
        <time>2022-07-30T12:46:55.000Z</time>
      </trkpt>
      <trkpt lat="49.64434" lon="-1.31876">
        <ele>17.729953</ele>
        <time>2022-07-30T12:46:56.000Z</time>
      </trkpt>
      <trkpt lat="49.64436" lon="-1.31871">
        <ele>17.715691</ele>
        <time>2022-07-30T12:46:57.000Z</time>
      </trkpt>
      <trkpt lat="49.64437" lon="-1.31865">
        <ele>17.702446</ele>
        <time>2022-07-30T12:46:58.000Z</time>
      </trkpt>
      <trkpt lat="49.64438" lon="-1.31859">
        <ele>17.687767</ele>
        <time>2022-07-30T12:46:59.000Z</time>
      </trkpt>
      <trkpt lat="49.6444" lon="-1.31853">
        <ele>17.673454</ele>
        <time>2022-07-30T12:47:00.000Z</time>
      </trkpt>
      <trkpt lat="49.64442" lon="-1.31847">
        <ele>17.658345</ele>
        <time>2022-07-30T12:47:01.000Z</time>
      </trkpt>
      <trkpt lat="49.64443" lon="-1.31841">
        <ele>17.64446</ele>
        <time>2022-07-30T12:47:02.000Z</time>
      </trkpt>
      <trkpt lat="49.64445" lon="-1.31835">
        <ele>17.629781</ele>
        <time>2022-07-30T12:47:03.000Z</time>
      </trkpt>
      <trkpt lat="49.64446" lon="-1.31829">
        <ele>17.615468</ele>
        <time>2022-07-30T12:47:04.000Z</time>
      </trkpt>
      <trkpt lat="49.64447" lon="-1.31823">
        <ele>17.600395</ele>
        <time>2022-07-30T12:47:05.000Z</time>
      </trkpt>
      <trkpt lat="49.64448" lon="-1.31817">
        <ele>17.585868</ele>
        <time>2022-07-30T12:47:06.000Z</time>
      </trkpt>
      <trkpt lat="49.64449" lon="-1.3181">
        <ele>17.570974</ele>
        <time>2022-07-30T12:47:07.000Z</time>
      </trkpt>
      <trkpt lat="49.64451" lon="-1.31804">
        <ele>17.555665</ele>
        <time>2022-07-30T12:47:08.000Z</time>
      </trkpt>
      <trkpt lat="49.64453" lon="-1.31798">
        <ele>17.540567</ele>
        <time>2022-07-30T12:47:09.000Z</time>
      </trkpt>
      <trkpt lat="49.64454" lon="-1.31792">
        <ele>17.525609</ele>
        <time>2022-07-30T12:47:10.000Z</time>
      </trkpt>
      <trkpt lat="49.64455" lon="-1.31785">
        <ele>17.5103</ele>
        <time>2022-07-30T12:47:11.000Z</time>
      </trkpt>
      <trkpt lat="49.64457" lon="-1.31779">
        <ele>17.494167</ele>
        <time>2022-07-30T12:47:12.000Z</time>
      </trkpt>
      <trkpt lat="49.64459" lon="-1.31772">
        <ele>17.478437</ele>
        <time>2022-07-30T12:47:13.000Z</time>
      </trkpt>
      <trkpt lat="49.64461" lon="-1.31766">
        <ele>17.447317</ele>
        <time>2022-07-30T12:47:14.000Z</time>
      </trkpt>
      <trkpt lat="49.64462" lon="-1.31759">
        <ele>17.412804</ele>
        <time>2022-07-30T12:47:15.000Z</time>
      </trkpt>
      <trkpt lat="49.64464" lon="-1.31752">
        <ele>17.377896</ele>
        <time>2022-07-30T12:47:16.000Z</time>
      </trkpt>
      <trkpt lat="49.64465" lon="-1.31746">
        <ele>17.344666</ele>
        <time>2022-07-30T12:47:17.000Z</time>
      </trkpt>
      <trkpt lat="49.64467" lon="-1.31739">
        <ele>17.308789</ele>
        <time>2022-07-30T12:47:18.000Z</time>
      </trkpt>
      <trkpt lat="49.64469" lon="-1.31732">
        <ele>17.272107</ele>
        <time>2022-07-30T12:47:19.000Z</time>
      </trkpt>
      <trkpt lat="49.64471" lon="-1.31724">
        <ele>17.23453</ele>
        <time>2022-07-30T12:47:20.000Z</time>
      </trkpt>
      <trkpt lat="49.64472" lon="-1.31717">
        <ele>17.199414</ele>
        <time>2022-07-30T12:47:21.000Z</time>
      </trkpt>
      <trkpt lat="49.64473" lon="-1.3171">
        <ele>17.16125</ele>
        <time>2022-07-30T12:47:22.000Z</time>
      </trkpt>
      <trkpt lat="49.64475" lon="-1.31702">
        <ele>17.123726</ele>
        <time>2022-07-30T12:47:23.000Z</time>
      </trkpt>
      <trkpt lat="49.64476" lon="-1.31695">
        <ele>17.086937</ele>
        <time>2022-07-30T12:47:24.000Z</time>
      </trkpt>
      <trkpt lat="49.64478" lon="-1.31688">
        <ele>17.048014</ele>
        <time>2022-07-30T12:47:25.000Z</time>
      </trkpt>
      <trkpt lat="49.64479" lon="-1.3168">
        <ele>17.009556</ele>
        <time>2022-07-30T12:47:26.000Z</time>
      </trkpt>
      <trkpt lat="49.64481" lon="-1.31673">
        <ele>16.973156</ele>
        <time>2022-07-30T12:47:27.000Z</time>
      </trkpt>
      <trkpt lat="49.64482" lon="-1.31665">
        <ele>16.937567</ele>
        <time>2022-07-30T12:47:28.000Z</time>
      </trkpt>
      <trkpt lat="49.64483" lon="-1.31658">
        <ele>16.902373</ele>
        <time>2022-07-30T12:47:29.000Z</time>
      </trkpt>
      <trkpt lat="49.64484" lon="-1.31651">
        <ele>16.867178</ele>
        <time>2022-07-30T12:47:30.000Z</time>
      </trkpt>
      <trkpt lat="49.64485" lon="-1.31644">
        <ele>16.833052</ele>
        <time>2022-07-30T12:47:31.000Z</time>
      </trkpt>
      <trkpt lat="49.64486" lon="-1.31638">
        <ele>16.798786</ele>
        <time>2022-07-30T12:47:32.000Z</time>
      </trkpt>
      <trkpt lat="49.64487" lon="-1.31631">
        <ele>16.765618</ele>
        <time>2022-07-30T12:47:33.000Z</time>
      </trkpt>
      <trkpt lat="49.64487" lon="-1.31624">
        <ele>16.73043</ele>
        <time>2022-07-30T12:47:34.000Z</time>
      </trkpt>
      <trkpt lat="49.64488" lon="-1.31617">
        <ele>16.695939</ele>
        <time>2022-07-30T12:47:35.000Z</time>
      </trkpt>
      <trkpt lat="49.64489" lon="-1.31609">
        <ele>16.660752</ele>
        <time>2022-07-30T12:47:36.000Z</time>
      </trkpt>
      <trkpt lat="49.64489" lon="-1.31602">
        <ele>16.6254</ele>
        <time>2022-07-30T12:47:37.000Z</time>
      </trkpt>
      <trkpt lat="49.6449" lon="-1.31595">
        <ele>16.588536</ele>
        <time>2022-07-30T12:47:38.000Z</time>
      </trkpt>
      <trkpt lat="49.64491" lon="-1.31587">
        <ele>16.55361</ele>
        <time>2022-07-30T12:47:39.000Z</time>
      </trkpt>
      <trkpt lat="49.64491" lon="-1.3158">
        <ele>16.519296</ele>
        <time>2022-07-30T12:47:40.000Z</time>
      </trkpt>
      <trkpt lat="49.64491" lon="-1.31573">
        <ele>16.485466</ele>
        <time>2022-07-30T12:47:41.000Z</time>
      </trkpt>
      <trkpt lat="49.64491" lon="-1.31566">
        <ele>16.452118</ele>
        <time>2022-07-30T12:47:42.000Z</time>
      </trkpt>
      <trkpt lat="49.64491" lon="-1.31559">
        <ele>16.417804</ele>
        <time>2022-07-30T12:47:43.000Z</time>
      </trkpt>
      <trkpt lat="49.64491" lon="-1.31552">
        <ele>16.38059</ele>
        <time>2022-07-30T12:47:44.000Z</time>
      </trkpt>
      <trkpt lat="49.64491" lon="-1.31544">
        <ele>16.344343</ele>
        <time>2022-07-30T12:47:45.000Z</time>
      </trkpt>
      <trkpt lat="49.64491" lon="-1.31537">
        <ele>16.309546</ele>
        <time>2022-07-30T12:47:46.000Z</time>
      </trkpt>
      <trkpt lat="49.64491" lon="-1.3153">
        <ele>16.275715</ele>
        <time>2022-07-30T12:47:47.000Z</time>
      </trkpt>
      <trkpt lat="49.64491" lon="-1.31523">
        <ele>16.241884</ele>
        <time>2022-07-30T12:47:48.000Z</time>
      </trkpt>
      <trkpt lat="49.6449" lon="-1.31516">
        <ele>16.207441</ele>
        <time>2022-07-30T12:47:49.000Z</time>
      </trkpt>
      <trkpt lat="49.6449" lon="-1.31509">
        <ele>16.172643</ele>
        <time>2022-07-30T12:47:50.000Z</time>
      </trkpt>
      <trkpt lat="49.6449" lon="-1.31501">
        <ele>16.13708</ele>
        <time>2022-07-30T12:47:51.000Z</time>
      </trkpt>
      <trkpt lat="49.6449" lon="-1.31494">
        <ele>16.10196</ele>
        <time>2022-07-30T12:47:52.000Z</time>
      </trkpt>
      <trkpt lat="49.64489" lon="-1.31487">
        <ele>16.067345</ele>
        <time>2022-07-30T12:47:53.000Z</time>
      </trkpt>
      <trkpt lat="49.64489" lon="-1.31479">
        <ele>16.033273</ele>
        <time>2022-07-30T12:47:54.000Z</time>
      </trkpt>
      <trkpt lat="49.64489" lon="-1.31472">
        <ele>15.998727</ele>
        <time>2022-07-30T12:47:55.000Z</time>
      </trkpt>
      <trkpt lat="49.64489" lon="-1.31465">
        <ele>15.963167</ele>
        <time>2022-07-30T12:47:56.000Z</time>
      </trkpt>
      <trkpt lat="49.64489" lon="-1.31457">
        <ele>15.927675</ele>
        <time>2022-07-30T12:47:57.000Z</time>
      </trkpt>
      <trkpt lat="49.64489" lon="-1.3145">
        <ele>15.892183</ele>
        <time>2022-07-30T12:47:58.000Z</time>
      </trkpt>
      <trkpt lat="49.64488" lon="-1.31443">
        <ele>15.858665</ele>
        <time>2022-07-30T12:47:59.000Z</time>
      </trkpt>
      <trkpt lat="49.64488" lon="-1.31435">
        <ele>15.824119</ele>
        <time>2022-07-30T12:48:00.000Z</time>
      </trkpt>
      <trkpt lat="49.64488" lon="-1.31428">
        <ele>15.7891</ele>
        <time>2022-07-30T12:48:01.000Z</time>
      </trkpt>
      <trkpt lat="49.64488" lon="-1.31421">
        <ele>15.755501</ele>
        <time>2022-07-30T12:48:02.000Z</time>
      </trkpt>
      <trkpt lat="49.64488" lon="-1.31414">
        <ele>15.723795</ele>
        <time>2022-07-30T12:48:03.000Z</time>
      </trkpt>
      <trkpt lat="49.64488" lon="-1.31408">
        <ele>15.692724</ele>
        <time>2022-07-30T12:48:04.000Z</time>
      </trkpt>
      <trkpt lat="49.64488" lon="-1.314">
        <ele>15.658371</ele>
        <time>2022-07-30T12:48:05.000Z</time>
      </trkpt>
      <trkpt lat="49.64489" lon="-1.31393">
        <ele>15.625172</ele>
        <time>2022-07-30T12:48:06.000Z</time>
      </trkpt>
      <trkpt lat="49.64489" lon="-1.31387">
        <ele>15.59286</ele>
        <time>2022-07-30T12:48:07.000Z</time>
      </trkpt>
      <trkpt lat="49.64489" lon="-1.3138">
        <ele>15.560606</ele>
        <time>2022-07-30T12:48:08.000Z</time>
      </trkpt>
      <trkpt lat="49.6449" lon="-1.31373">
        <ele>15.528225</ele>
        <time>2022-07-30T12:48:09.000Z</time>
      </trkpt>
      <trkpt lat="49.64491" lon="-1.31366">
        <ele>15.495226</ele>
        <time>2022-07-30T12:48:10.000Z</time>
      </trkpt>
      <trkpt lat="49.64493" lon="-1.31359">
        <ele>15.461219</ele>
        <time>2022-07-30T12:48:11.000Z</time>
      </trkpt>
      <trkpt lat="49.64494" lon="-1.31353">
        <ele>15.427869</ele>
        <time>2022-07-30T12:48:12.000Z</time>
      </trkpt>
      <trkpt lat="49.64495" lon="-1.31346">
        <ele>15.39477</ele>
        <time>2022-07-30T12:48:13.000Z</time>
      </trkpt>
      <trkpt lat="49.64497" lon="-1.3134">
        <ele>15.362746</ele>
        <time>2022-07-30T12:48:14.000Z</time>
      </trkpt>
      <trkpt lat="49.64499" lon="-1.31333">
        <ele>15.328456</ele>
        <time>2022-07-30T12:48:15.000Z</time>
      </trkpt>
      <trkpt lat="49.64501" lon="-1.31327">
        <ele>15.294707</ele>
        <time>2022-07-30T12:48:16.000Z</time>
      </trkpt>
      <trkpt lat="49.64503" lon="-1.3132">
        <ele>15.259654</ele>
        <time>2022-07-30T12:48:17.000Z</time>
      </trkpt>
      <trkpt lat="49.64506" lon="-1.31314">
        <ele>15.222315</ele>
        <time>2022-07-30T12:48:18.000Z</time>
      </trkpt>
      <trkpt lat="49.64508" lon="-1.31307">
        <ele>15.187402</ele>
        <time>2022-07-30T12:48:19.000Z</time>
      </trkpt>
      <trkpt lat="49.64511" lon="-1.313">
        <ele>15.150808</ele>
        <time>2022-07-30T12:48:20.000Z</time>
      </trkpt>
      <trkpt lat="49.64513" lon="-1.31294">
        <ele>15.114503</ele>
        <time>2022-07-30T12:48:21.000Z</time>
      </trkpt>
      <trkpt lat="49.64516" lon="-1.31287">
        <ele>15.076767</ele>
        <time>2022-07-30T12:48:22.000Z</time>
      </trkpt>
      <trkpt lat="49.64518" lon="-1.3128">
        <ele>15.041298</ele>
        <time>2022-07-30T12:48:23.000Z</time>
      </trkpt>
      <trkpt lat="49.64521" lon="-1.31273">
        <ele>15.001973</ele>
        <time>2022-07-30T12:48:24.000Z</time>
      </trkpt>
      <trkpt lat="49.64523" lon="-1.31267">
        <ele>14.966423</ele>
        <time>2022-07-30T12:48:25.000Z</time>
      </trkpt>
      <trkpt lat="49.64526" lon="-1.3126">
        <ele>14.928286</ele>
        <time>2022-07-30T12:48:26.000Z</time>
      </trkpt>
      <trkpt lat="49.64529" lon="-1.31253">
        <ele>14.892509</ele>
        <time>2022-07-30T12:48:27.000Z</time>
      </trkpt>
      <trkpt lat="49.64532" lon="-1.31247">
        <ele>14.853452</ele>
        <time>2022-07-30T12:48:28.000Z</time>
      </trkpt>
      <trkpt lat="49.64536" lon="-1.31241">
        <ele>14.81858</ele>
        <time>2022-07-30T12:48:29.000Z</time>
      </trkpt>
      <trkpt lat="49.64539" lon="-1.31235">
        <ele>14.830277</ele>
        <time>2022-07-30T12:48:30.000Z</time>
      </trkpt>
      <trkpt lat="49.64541" lon="-1.31229">
        <ele>14.841423</ele>
        <time>2022-07-30T12:48:31.000Z</time>
      </trkpt>
      <trkpt lat="49.64545" lon="-1.31223">
        <ele>14.853924</ele>
        <time>2022-07-30T12:48:32.000Z</time>
      </trkpt>
      <trkpt lat="49.64548" lon="-1.31218">
        <ele>14.865592</ele>
        <time>2022-07-30T12:48:33.000Z</time>
      </trkpt>
      <trkpt lat="49.64551" lon="-1.31212">
        <ele>14.877143</ele>
        <time>2022-07-30T12:48:34.000Z</time>
      </trkpt>
      <trkpt lat="49.64555" lon="-1.31207">
        <ele>14.889361</ele>
        <time>2022-07-30T12:48:35.000Z</time>
      </trkpt>
      <trkpt lat="49.64558" lon="-1.31202">
        <ele>14.900568</ele>
        <time>2022-07-30T12:48:36.000Z</time>
      </trkpt>
      <trkpt lat="49.64561" lon="-1.31197">
        <ele>14.910545</ele>
        <time>2022-07-30T12:48:37.000Z</time>
      </trkpt>
      <trkpt lat="49.64564" lon="-1.31193">
        <ele>14.920478</ele>
        <time>2022-07-30T12:48:38.000Z</time>
      </trkpt>
      <trkpt lat="49.64567" lon="-1.3119">
        <ele>14.929169</ele>
        <time>2022-07-30T12:48:39.000Z</time>
      </trkpt>
      <trkpt lat="49.6457" lon="-1.31186">
        <ele>14.937768</ele>
        <time>2022-07-30T12:48:40.000Z</time>
      </trkpt>
      <trkpt lat="49.64572" lon="-1.31183">
        <ele>14.945168</ele>
        <time>2022-07-30T12:48:41.000Z</time>
      </trkpt>
      <trkpt lat="49.64574" lon="-1.3118">
        <ele>14.952742</ele>
        <time>2022-07-30T12:48:42.000Z</time>
      </trkpt>
      <trkpt lat="49.64577" lon="-1.31176">
        <ele>14.961315</ele>
        <time>2022-07-30T12:48:43.000Z</time>
      </trkpt>
      <trkpt lat="49.6458" lon="-1.31172">
        <ele>14.970491</ele>
        <time>2022-07-30T12:48:44.000Z</time>
      </trkpt>
      <trkpt lat="49.64582" lon="-1.31168">
        <ele>14.979084</ele>
        <time>2022-07-30T12:48:45.000Z</time>
      </trkpt>
      <trkpt lat="49.64584" lon="-1.31164">
        <ele>14.988113</ele>
        <time>2022-07-30T12:48:46.000Z</time>
      </trkpt>
      <trkpt lat="49.64587" lon="-1.31159">
        <ele>14.996826</ele>
        <time>2022-07-30T12:48:47.000Z</time>
      </trkpt>
      <trkpt lat="49.64589" lon="-1.31155">
        <ele>15.005088</ele>
        <time>2022-07-30T12:48:48.000Z</time>
      </trkpt>
      <trkpt lat="49.64591" lon="-1.31151">
        <ele>15.013649</ele>
        <time>2022-07-30T12:48:49.000Z</time>
      </trkpt>
      <trkpt lat="49.64593" lon="-1.31146">
        <ele>15.022042</ele>
        <time>2022-07-30T12:48:50.000Z</time>
      </trkpt>
      <trkpt lat="49.64595" lon="-1.31142">
        <ele>15.030187</ele>
        <time>2022-07-30T12:48:51.000Z</time>
      </trkpt>
      <trkpt lat="49.64597" lon="-1.31138">
        <ele>15.039496</ele>
        <time>2022-07-30T12:48:52.000Z</time>
      </trkpt>
      <trkpt lat="49.64599" lon="-1.31133">
        <ele>15.047051</ele>
        <time>2022-07-30T12:48:53.000Z</time>
      </trkpt>
      <trkpt lat="49.64601" lon="-1.31129">
        <ele>15.055444</ele>
        <time>2022-07-30T12:48:54.000Z</time>
      </trkpt>
      <trkpt lat="49.64605" lon="-1.3112">
        <ele>15.071846</ele>
        <time>2022-07-30T12:48:56.000Z</time>
      </trkpt>
      <trkpt lat="49.64606" lon="-1.31116">
        <ele>15.07985</ele>
        <time>2022-07-30T12:48:57.000Z</time>
      </trkpt>
      <trkpt lat="49.64608" lon="-1.31112">
        <ele>15.0876</ele>
        <time>2022-07-30T12:48:58.000Z</time>
      </trkpt>
      <trkpt lat="49.64611" lon="-1.31108">
        <ele>15.096194</ele>
        <time>2022-07-30T12:48:59.000Z</time>
      </trkpt>
      <trkpt lat="49.64613" lon="-1.31104">
        <ele>15.10407</ele>
        <time>2022-07-30T12:49:00.000Z</time>
      </trkpt>
      <trkpt lat="49.64614" lon="-1.311">
        <ele>15.111695</ele>
        <time>2022-07-30T12:49:01.000Z</time>
      </trkpt>
      <trkpt lat="49.64616" lon="-1.31096">
        <ele>15.119195</ele>
        <time>2022-07-30T12:49:02.000Z</time>
      </trkpt>
      <trkpt lat="49.64619" lon="-1.31092">
        <ele>15.127321</ele>
        <time>2022-07-30T12:49:03.000Z</time>
      </trkpt>
      <trkpt lat="49.64621" lon="-1.31088">
        <ele>15.136006</ele>
        <time>2022-07-30T12:49:04.000Z</time>
      </trkpt>
      <trkpt lat="49.64622" lon="-1.31084">
        <ele>15.142998</ele>
        <time>2022-07-30T12:49:05.000Z</time>
      </trkpt>
      <trkpt lat="49.64624" lon="-1.3108">
        <ele>15.15126</ele>
        <time>2022-07-30T12:49:06.000Z</time>
      </trkpt>
      <trkpt lat="49.64626" lon="-1.31076">
        <ele>15.159393</ele>
        <time>2022-07-30T12:49:07.000Z</time>
      </trkpt>
      <trkpt lat="49.64628" lon="-1.31071">
        <ele>15.167005</ele>
        <time>2022-07-30T12:49:08.000Z</time>
      </trkpt>
      <trkpt lat="49.6463" lon="-1.31067">
        <ele>15.175276</ele>
        <time>2022-07-30T12:49:09.000Z</time>
      </trkpt>
      <trkpt lat="49.64632" lon="-1.31063">
        <ele>15.183669</ele>
        <time>2022-07-30T12:49:10.000Z</time>
      </trkpt>
      <trkpt lat="49.64634" lon="-1.31058">
        <ele>15.191801</ele>
        <time>2022-07-30T12:49:11.000Z</time>
      </trkpt>
      <trkpt lat="49.64636" lon="-1.31054">
        <ele>15.200064</ele>
        <time>2022-07-30T12:49:12.000Z</time>
      </trkpt>
      <trkpt lat="49.64637" lon="-1.3105">
        <ele>15.208196</ele>
        <time>2022-07-30T12:49:13.000Z</time>
      </trkpt>
      <trkpt lat="49.64639" lon="-1.31045">
        <ele>15.216723</ele>
        <time>2022-07-30T12:49:14.000Z</time>
      </trkpt>
      <trkpt lat="49.64641" lon="-1.3104">
        <ele>15.225018</ele>
        <time>2022-07-30T12:49:15.000Z</time>
      </trkpt>
      <trkpt lat="49.64643" lon="-1.31036">
        <ele>15.233175</ele>
        <time>2022-07-30T12:49:16.000Z</time>
      </trkpt>
      <trkpt lat="49.64645" lon="-1.31031">
        <ele>15.24232</ele>
        <time>2022-07-30T12:49:17.000Z</time>
      </trkpt>
      <trkpt lat="49.64647" lon="-1.31027">
        <ele>15.250713</ele>
        <time>2022-07-30T12:49:18.000Z</time>
      </trkpt>
      <trkpt lat="49.64648" lon="-1.31022">
        <ele>15.251344</ele>
        <time>2022-07-30T12:49:19.000Z</time>
      </trkpt>
      <trkpt lat="49.6465" lon="-1.31017">
        <ele>15.250932</ele>
        <time>2022-07-30T12:49:20.000Z</time>
      </trkpt>
      <trkpt lat="49.64653" lon="-1.31013">
        <ele>15.250487</ele>
        <time>2022-07-30T12:49:21.000Z</time>
      </trkpt>
      <trkpt lat="49.64654" lon="-1.31008">
        <ele>15.250066</ele>
        <time>2022-07-30T12:49:22.000Z</time>
      </trkpt>
      <trkpt lat="49.64656" lon="-1.31002">
        <ele>15.249631</ele>
        <time>2022-07-30T12:49:23.000Z</time>
      </trkpt>
      <trkpt lat="49.64657" lon="-1.30997">
        <ele>15.249209</ele>
        <time>2022-07-30T12:49:24.000Z</time>
      </trkpt>
      <trkpt lat="49.64659" lon="-1.30993">
        <ele>15.248784</ele>
        <time>2022-07-30T12:49:25.000Z</time>
      </trkpt>
      <trkpt lat="49.64661" lon="-1.30988">
        <ele>15.248359</ele>
        <time>2022-07-30T12:49:26.000Z</time>
      </trkpt>
      <trkpt lat="49.64662" lon="-1.30983">
        <ele>15.247938</ele>
        <time>2022-07-30T12:49:27.000Z</time>
      </trkpt>
      <trkpt lat="49.64664" lon="-1.30977">
        <ele>15.247503</ele>
        <time>2022-07-30T12:49:28.000Z</time>
      </trkpt>
      <trkpt lat="49.64666" lon="-1.30972">
        <ele>15.247059</ele>
        <time>2022-07-30T12:49:29.000Z</time>
      </trkpt>
      <trkpt lat="49.64668" lon="-1.30967">
        <ele>15.246627</ele>
        <time>2022-07-30T12:49:30.000Z</time>
      </trkpt>
      <trkpt lat="49.6467" lon="-1.30962">
        <ele>15.246164</ele>
        <time>2022-07-30T12:49:31.000Z</time>
      </trkpt>
      <trkpt lat="49.64671" lon="-1.30957">
        <ele>15.24575</ele>
        <time>2022-07-30T12:49:32.000Z</time>
      </trkpt>
      <trkpt lat="49.64673" lon="-1.30952">
        <ele>15.245265</ele>
        <time>2022-07-30T12:49:33.000Z</time>
      </trkpt>
      <trkpt lat="49.64675" lon="-1.30946">
        <ele>15.244823</ele>
        <time>2022-07-30T12:49:34.000Z</time>
      </trkpt>
      <trkpt lat="49.64676" lon="-1.30941">
        <ele>15.244367</ele>
        <time>2022-07-30T12:49:35.000Z</time>
      </trkpt>
      <trkpt lat="49.64678" lon="-1.30935">
        <ele>15.243911</ele>
        <time>2022-07-30T12:49:36.000Z</time>
      </trkpt>
      <trkpt lat="49.64679" lon="-1.3093">
        <ele>15.243456</ele>
        <time>2022-07-30T12:49:37.000Z</time>
      </trkpt>
      <trkpt lat="49.64681" lon="-1.30924">
        <ele>15.243021</ele>
        <time>2022-07-30T12:49:38.000Z</time>
      </trkpt>
      <trkpt lat="49.64682" lon="-1.30919">
        <ele>15.242597</ele>
        <time>2022-07-30T12:49:39.000Z</time>
      </trkpt>
      <trkpt lat="49.64684" lon="-1.30914">
        <ele>15.242133</ele>
        <time>2022-07-30T12:49:40.000Z</time>
      </trkpt>
      <trkpt lat="49.64686" lon="-1.30908">
        <ele>15.241685</ele>
        <time>2022-07-30T12:49:41.000Z</time>
      </trkpt>
      <trkpt lat="49.64687" lon="-1.30903">
        <ele>15.241256</ele>
        <time>2022-07-30T12:49:42.000Z</time>
      </trkpt>
      <trkpt lat="49.64689" lon="-1.30898">
        <ele>15.240818</ele>
        <time>2022-07-30T12:49:43.000Z</time>
      </trkpt>
      <trkpt lat="49.6469" lon="-1.30893">
        <ele>15.240397</ele>
        <time>2022-07-30T12:49:44.000Z</time>
      </trkpt>
      <trkpt lat="49.64692" lon="-1.30888">
        <ele>15.239975</ele>
        <time>2022-07-30T12:49:45.000Z</time>
      </trkpt>
      <trkpt lat="49.64693" lon="-1.30883">
        <ele>15.239554</ele>
        <time>2022-07-30T12:49:46.000Z</time>
      </trkpt>
      <trkpt lat="49.64695" lon="-1.30877">
        <ele>15.239119</ele>
        <time>2022-07-30T12:49:47.000Z</time>
      </trkpt>
      <trkpt lat="49.64696" lon="-1.30872">
        <ele>15.238705</ele>
        <time>2022-07-30T12:49:48.000Z</time>
      </trkpt>
      <trkpt lat="49.64697" lon="-1.30867">
        <ele>15.23827</ele>
        <time>2022-07-30T12:49:49.000Z</time>
      </trkpt>
      <trkpt lat="49.64699" lon="-1.30862">
        <ele>15.237832</ele>
        <time>2022-07-30T12:49:50.000Z</time>
      </trkpt>
      <trkpt lat="49.64701" lon="-1.30857">
        <ele>15.237407</ele>
        <time>2022-07-30T12:49:51.000Z</time>
      </trkpt>
      <trkpt lat="49.64703" lon="-1.30852">
        <ele>15.236969</ele>
        <time>2022-07-30T12:49:52.000Z</time>
      </trkpt>
      <trkpt lat="49.64705" lon="-1.30847">
        <ele>15.236547</ele>
        <time>2022-07-30T12:49:53.000Z</time>
      </trkpt>
      <trkpt lat="49.64706" lon="-1.30842">
        <ele>15.236138</ele>
        <time>2022-07-30T12:49:54.000Z</time>
      </trkpt>
      <trkpt lat="49.64707" lon="-1.30837">
        <ele>15.23571</ele>
        <time>2022-07-30T12:49:55.000Z</time>
      </trkpt>
      <trkpt lat="49.64709" lon="-1.30832">
        <ele>15.235278</ele>
        <time>2022-07-30T12:49:56.000Z</time>
      </trkpt>
      <trkpt lat="49.64711" lon="-1.30827">
        <ele>15.23487</ele>
        <time>2022-07-30T12:49:57.000Z</time>
      </trkpt>
      <trkpt lat="49.64712" lon="-1.30822">
        <ele>15.234442</ele>
        <time>2022-07-30T12:49:58.000Z</time>
      </trkpt>
      <trkpt lat="49.64714" lon="-1.30817">
        <ele>15.234004</ele>
        <time>2022-07-30T12:49:59.000Z</time>
      </trkpt>
      <trkpt lat="49.64716" lon="-1.30812">
        <ele>15.233603</ele>
        <time>2022-07-30T12:50:00.000Z</time>
      </trkpt>
      <trkpt lat="49.64717" lon="-1.30807">
        <ele>15.233202</ele>
        <time>2022-07-30T12:50:01.000Z</time>
      </trkpt>
      <trkpt lat="49.64719" lon="-1.30803">
        <ele>15.232807</ele>
        <time>2022-07-30T12:50:02.000Z</time>
      </trkpt>
      <trkpt lat="49.6472" lon="-1.30798">
        <ele>15.2324</ele>
        <time>2022-07-30T12:50:03.000Z</time>
      </trkpt>
      <trkpt lat="49.64721" lon="-1.30793">
        <ele>15.232014</ele>
        <time>2022-07-30T12:50:04.000Z</time>
      </trkpt>
      <trkpt lat="49.64723" lon="-1.30788">
        <ele>15.231593</ele>
        <time>2022-07-30T12:50:05.000Z</time>
      </trkpt>
      <trkpt lat="49.64725" lon="-1.30783">
        <ele>15.231171</ele>
        <time>2022-07-30T12:50:06.000Z</time>
      </trkpt>
      <trkpt lat="49.64726" lon="-1.30778">
        <ele>15.230778</ele>
        <time>2022-07-30T12:50:07.000Z</time>
      </trkpt>
      <trkpt lat="49.64727" lon="-1.30773">
        <ele>15.197045</ele>
        <time>2022-07-30T12:50:08.000Z</time>
      </trkpt>
      <trkpt lat="49.64729" lon="-1.30769">
        <ele>15.163324</ele>
        <time>2022-07-30T12:50:09.000Z</time>
      </trkpt>
      <trkpt lat="49.64729" lon="-1.30765">
        <ele>15.13542</ele>
        <time>2022-07-30T12:50:10.000Z</time>
      </trkpt>
      <trkpt lat="49.64731" lon="-1.30762">
        <ele>15.106921</ele>
        <time>2022-07-30T12:50:11.000Z</time>
      </trkpt>
      <trkpt lat="49.64731" lon="-1.30758">
        <ele>15.079981</ele>
        <time>2022-07-30T12:50:12.000Z</time>
      </trkpt>
      <trkpt lat="49.64732" lon="-1.30755">
        <ele>15.055773</ele>
        <time>2022-07-30T12:50:13.000Z</time>
      </trkpt>
      <trkpt lat="49.64733" lon="-1.30751">
        <ele>15.026802</ele>
        <time>2022-07-30T12:50:14.000Z</time>
      </trkpt>
      <trkpt lat="49.64733" lon="-1.30747">
        <ele>15.001866</ele>
        <time>2022-07-30T12:50:15.000Z</time>
      </trkpt>
      <trkpt lat="49.64733" lon="-1.30743">
        <ele>14.974127</ele>
        <time>2022-07-30T12:50:16.000Z</time>
      </trkpt>
      <trkpt lat="49.64734" lon="-1.30739">
        <ele>14.944842</ele>
        <time>2022-07-30T12:50:17.000Z</time>
      </trkpt>
      <trkpt lat="49.64733" lon="-1.30735">
        <ele>14.913461</ele>
        <time>2022-07-30T12:50:18.000Z</time>
      </trkpt>
      <trkpt lat="49.64733" lon="-1.3073">
        <ele>14.880807</ele>
        <time>2022-07-30T12:50:19.000Z</time>
      </trkpt>
      <trkpt lat="49.64732" lon="-1.30726">
        <ele>14.84471</ele>
        <time>2022-07-30T12:50:20.000Z</time>
      </trkpt>
      <trkpt lat="49.6473" lon="-1.30721">
        <ele>14.804884</ele>
        <time>2022-07-30T12:50:21.000Z</time>
      </trkpt>
      <trkpt lat="49.64727" lon="-1.30717">
        <ele>14.769405</ele>
        <time>2022-07-30T12:50:22.000Z</time>
      </trkpt>
      <trkpt lat="49.64725" lon="-1.30714">
        <ele>14.732695</ele>
        <time>2022-07-30T12:50:23.000Z</time>
      </trkpt>
      <trkpt lat="49.64722" lon="-1.30711">
        <ele>14.693402</ele>
        <time>2022-07-30T12:50:24.000Z</time>
      </trkpt>
      <trkpt lat="49.6472" lon="-1.30708">
        <ele>14.660437</ele>
        <time>2022-07-30T12:50:25.000Z</time>
      </trkpt>
      <trkpt lat="49.64717" lon="-1.30705">
        <ele>14.626261</ele>
        <time>2022-07-30T12:50:26.000Z</time>
      </trkpt>
      <trkpt lat="49.64715" lon="-1.30702">
        <ele>14.591289</ele>
        <time>2022-07-30T12:50:27.000Z</time>
      </trkpt>
      <trkpt lat="49.64712" lon="-1.30699">
        <ele>14.552411</ele>
        <time>2022-07-30T12:50:28.000Z</time>
      </trkpt>
      <trkpt lat="49.64709" lon="-1.30696">
        <ele>14.511577</ele>
        <time>2022-07-30T12:50:29.000Z</time>
      </trkpt>
      <trkpt lat="49.64706" lon="-1.30692">
        <ele>14.472699</ele>
        <time>2022-07-30T12:50:30.000Z</time>
      </trkpt>
      <trkpt lat="49.64702" lon="-1.30689">
        <ele>14.426147</ele>
        <time>2022-07-30T12:50:31.000Z</time>
      </trkpt>
      <trkpt lat="49.647" lon="-1.30686">
        <ele>14.390427</ele>
        <time>2022-07-30T12:50:32.000Z</time>
      </trkpt>
      <trkpt lat="49.64697" lon="-1.30682">
        <ele>14.352271</ele>
        <time>2022-07-30T12:50:33.000Z</time>
      </trkpt>
      <trkpt lat="49.64695" lon="-1.30677">
        <ele>14.314327</ele>
        <time>2022-07-30T12:50:34.000Z</time>
      </trkpt>
      <trkpt lat="49.64694" lon="-1.30672">
        <ele>14.276197</ele>
        <time>2022-07-30T12:50:35.000Z</time>
      </trkpt>
      <trkpt lat="49.64693" lon="-1.30667">
        <ele>14.236528</ele>
        <time>2022-07-30T12:50:36.000Z</time>
      </trkpt>
      <trkpt lat="49.64692" lon="-1.30661">
        <ele>14.195498</ele>
        <time>2022-07-30T12:50:37.000Z</time>
      </trkpt>
      <trkpt lat="49.64692" lon="-1.30656">
        <ele>14.157218</ele>
        <time>2022-07-30T12:50:38.000Z</time>
      </trkpt>
      <trkpt lat="49.64692" lon="-1.3065">
        <ele>14.117531</ele>
        <time>2022-07-30T12:50:39.000Z</time>
      </trkpt>
      <trkpt lat="49.64693" lon="-1.30645">
        <ele>14.077182</ele>
        <time>2022-07-30T12:50:40.000Z</time>
      </trkpt>
      <trkpt lat="49.64694" lon="-1.30639">
        <ele>14.034107</ele>
        <time>2022-07-30T12:50:41.000Z</time>
      </trkpt>
      <trkpt lat="49.64695" lon="-1.30633">
        <ele>13.992445</ele>
        <time>2022-07-30T12:50:42.000Z</time>
      </trkpt>
      <trkpt lat="49.64697" lon="-1.30628">
        <ele>13.949858</ele>
        <time>2022-07-30T12:50:43.000Z</time>
      </trkpt>
      <trkpt lat="49.64698" lon="-1.30622">
        <ele>13.908148</ele>
        <time>2022-07-30T12:50:44.000Z</time>
      </trkpt>
      <trkpt lat="49.64699" lon="-1.30616">
        <ele>13.86362</ele>
        <time>2022-07-30T12:50:45.000Z</time>
      </trkpt>
      <trkpt lat="49.64701" lon="-1.30611">
        <ele>13.819741</ele>
        <time>2022-07-30T12:50:46.000Z</time>
      </trkpt>
      <trkpt lat="49.64703" lon="-1.30605">
        <ele>13.774461</ele>
        <time>2022-07-30T12:50:47.000Z</time>
      </trkpt>
      <trkpt lat="49.64704" lon="-1.30599">
        <ele>13.731111</ele>
        <time>2022-07-30T12:50:48.000Z</time>
      </trkpt>
      <trkpt lat="49.64706" lon="-1.30593">
        <ele>13.686583</ele>
        <time>2022-07-30T12:50:49.000Z</time>
      </trkpt>
      <trkpt lat="49.64707" lon="-1.30587">
        <ele>13.642565</ele>
        <time>2022-07-30T12:50:50.000Z</time>
      </trkpt>
      <trkpt lat="49.64709" lon="-1.30582">
        <ele>13.598037</ele>
        <time>2022-07-30T12:50:51.000Z</time>
      </trkpt>
      <trkpt lat="49.64709" lon="-1.30576">
        <ele>13.555912</ele>
        <time>2022-07-30T12:50:52.000Z</time>
      </trkpt>
      <trkpt lat="49.64711" lon="-1.3057">
        <ele>13.512033</ele>
        <time>2022-07-30T12:50:53.000Z</time>
      </trkpt>
      <trkpt lat="49.64713" lon="-1.30564">
        <ele>13.468154</ele>
        <time>2022-07-30T12:50:54.000Z</time>
      </trkpt>
      <trkpt lat="49.64715" lon="-1.30559">
        <ele>13.423602</ele>
        <time>2022-07-30T12:50:55.000Z</time>
      </trkpt>
      <trkpt lat="49.64716" lon="-1.30553">
        <ele>13.380102</ele>
        <time>2022-07-30T12:50:56.000Z</time>
      </trkpt>
      <trkpt lat="49.64717" lon="-1.30547">
        <ele>13.335415</ele>
        <time>2022-07-30T12:50:57.000Z</time>
      </trkpt>
      <trkpt lat="49.64718" lon="-1.30541">
        <ele>13.293023</ele>
        <time>2022-07-30T12:50:58.000Z</time>
      </trkpt>
      <trkpt lat="49.64719" lon="-1.30535">
        <ele>13.261314</ele>
        <time>2022-07-30T12:50:59.000Z</time>
      </trkpt>
      <trkpt lat="49.6472" lon="-1.3053">
        <ele>13.246861</ele>
        <time>2022-07-30T12:51:00.000Z</time>
      </trkpt>
      <trkpt lat="49.64721" lon="-1.30524">
        <ele>13.231688</ele>
        <time>2022-07-30T12:51:01.000Z</time>
      </trkpt>
      <trkpt lat="49.64722" lon="-1.30519">
        <ele>13.216724</ele>
        <time>2022-07-30T12:51:02.000Z</time>
      </trkpt>
      <trkpt lat="49.64723" lon="-1.30513">
        <ele>13.20192</ele>
        <time>2022-07-30T12:51:03.000Z</time>
      </trkpt>
      <trkpt lat="49.64724" lon="-1.30507">
        <ele>13.186465</ele>
        <time>2022-07-30T12:51:04.000Z</time>
      </trkpt>
      <trkpt lat="49.64725" lon="-1.30501">
        <ele>13.170921</ele>
        <time>2022-07-30T12:51:05.000Z</time>
      </trkpt>
      <trkpt lat="49.64725" lon="-1.30496">
        <ele>13.155466</ele>
        <time>2022-07-30T12:51:06.000Z</time>
      </trkpt>
      <trkpt lat="49.64726" lon="-1.3049">
        <ele>13.141161</ele>
        <time>2022-07-30T12:51:07.000Z</time>
      </trkpt>
      <trkpt lat="49.64727" lon="-1.30485">
        <ele>13.127104</ele>
        <time>2022-07-30T12:51:08.000Z</time>
      </trkpt>
      <trkpt lat="49.64728" lon="-1.3048">
        <ele>13.112906</ele>
        <time>2022-07-30T12:51:09.000Z</time>
      </trkpt>
      <trkpt lat="49.64729" lon="-1.30474">
        <ele>13.098603</ele>
        <time>2022-07-30T12:51:10.000Z</time>
      </trkpt>
      <trkpt lat="49.64729" lon="-1.30468">
        <ele>13.08323</ele>
        <time>2022-07-30T12:51:11.000Z</time>
      </trkpt>
      <trkpt lat="49.64729" lon="-1.30462">
        <ele>13.067636</ele>
        <time>2022-07-30T12:51:12.000Z</time>
      </trkpt>
      <trkpt lat="49.64729" lon="-1.30456">
        <ele>13.052088</ele>
        <time>2022-07-30T12:51:13.000Z</time>
      </trkpt>
      <trkpt lat="49.6473" lon="-1.3045">
        <ele>13.035719</ele>
        <time>2022-07-30T12:51:14.000Z</time>
      </trkpt>
      <trkpt lat="49.6473" lon="-1.30444">
        <ele>13.018832</ele>
        <time>2022-07-30T12:51:15.000Z</time>
      </trkpt>
      <trkpt lat="49.64731" lon="-1.30437">
        <ele>13.002523</ele>
        <time>2022-07-30T12:51:16.000Z</time>
      </trkpt>
      <trkpt lat="49.64731" lon="-1.30431">
        <ele>12.986671</ele>
        <time>2022-07-30T12:51:17.000Z</time>
      </trkpt>
      <trkpt lat="49.64732" lon="-1.30425">
        <ele>12.970426</ele>
        <time>2022-07-30T12:51:18.000Z</time>
      </trkpt>
      <trkpt lat="49.64732" lon="-1.30419">
        <ele>12.955348</ele>
        <time>2022-07-30T12:51:19.000Z</time>
      </trkpt>
      <trkpt lat="49.64733" lon="-1.30413">
        <ele>12.939805</ele>
        <time>2022-07-30T12:51:20.000Z</time>
      </trkpt>
      <trkpt lat="49.64733" lon="-1.30408">
        <ele>12.924727</ele>
        <time>2022-07-30T12:51:21.000Z</time>
      </trkpt>
      <trkpt lat="49.64733" lon="-1.30402">
        <ele>12.909133</ele>
        <time>2022-07-30T12:51:22.000Z</time>
      </trkpt>
      <trkpt lat="49.64732" lon="-1.30396">
        <ele>12.893335</ele>
        <time>2022-07-30T12:51:23.000Z</time>
      </trkpt>
      <trkpt lat="49.64733" lon="-1.3039">
        <ele>12.87743</ele>
        <time>2022-07-30T12:51:24.000Z</time>
      </trkpt>
      <trkpt lat="49.64733" lon="-1.30384">
        <ele>12.862611</ele>
        <time>2022-07-30T12:51:25.000Z</time>
      </trkpt>
      <trkpt lat="49.64733" lon="-1.30379">
        <ele>12.848358</ele>
        <time>2022-07-30T12:51:26.000Z</time>
      </trkpt>
      <trkpt lat="49.64733" lon="-1.30373">
        <ele>12.834106</ele>
        <time>2022-07-30T12:51:27.000Z</time>
      </trkpt>
      <trkpt lat="49.64733" lon="-1.30368">
        <ele>12.820372</ele>
        <time>2022-07-30T12:51:28.000Z</time>
      </trkpt>
      <trkpt lat="49.64733" lon="-1.30362">
        <ele>12.805601</ele>
        <time>2022-07-30T12:51:29.000Z</time>
      </trkpt>
      <trkpt lat="49.64733" lon="-1.30356">
        <ele>12.790053</ele>
        <time>2022-07-30T12:51:30.000Z</time>
      </trkpt>
      <trkpt lat="49.64733" lon="-1.3035">
        <ele>12.775024</ele>
        <time>2022-07-30T12:51:31.000Z</time>
      </trkpt>
      <trkpt lat="49.64733" lon="-1.30344">
        <ele>12.759735</ele>
        <time>2022-07-30T12:51:32.000Z</time>
      </trkpt>
      <trkpt lat="49.64734" lon="-1.30339">
        <ele>12.745393</ele>
        <time>2022-07-30T12:51:33.000Z</time>
      </trkpt>
      <trkpt lat="49.64735" lon="-1.30334">
        <ele>12.731194</ele>
        <time>2022-07-30T12:51:34.000Z</time>
      </trkpt>
      <trkpt lat="49.64735" lon="-1.30328">
        <ele>12.716161</ele>
        <time>2022-07-30T12:51:35.000Z</time>
      </trkpt>
      <trkpt lat="49.64736" lon="-1.30323">
        <ele>12.702463</ele>
        <time>2022-07-30T12:51:36.000Z</time>
      </trkpt>
      <trkpt lat="49.64737" lon="-1.30318">
        <ele>12.689643</ele>
        <time>2022-07-30T12:51:37.000Z</time>
      </trkpt>
      <trkpt lat="49.64739" lon="-1.30313">
        <ele>12.675653</ele>
        <time>2022-07-30T12:51:38.000Z</time>
      </trkpt>
      <trkpt lat="49.64741" lon="-1.30308">
        <ele>12.6612</ele>
        <time>2022-07-30T12:51:39.000Z</time>
      </trkpt>
      <trkpt lat="49.64741" lon="-1.30303">
        <ele>12.647752</ele>
        <time>2022-07-30T12:51:40.000Z</time>
      </trkpt>
      <trkpt lat="49.64743" lon="-1.30298">
        <ele>12.6333</ele>
        <time>2022-07-30T12:51:41.000Z</time>
      </trkpt>
      <trkpt lat="49.64745" lon="-1.30293">
        <ele>12.618381</ele>
        <time>2022-07-30T12:51:42.000Z</time>
      </trkpt>
      <trkpt lat="49.64747" lon="-1.30288">
        <ele>12.602907</ele>
        <time>2022-07-30T12:51:43.000Z</time>
      </trkpt>
      <trkpt lat="49.64749" lon="-1.30283">
        <ele>12.588686</ele>
        <time>2022-07-30T12:51:44.000Z</time>
      </trkpt>
      <trkpt lat="49.64751" lon="-1.30279">
        <ele>12.573867</ele>
        <time>2022-07-30T12:51:45.000Z</time>
      </trkpt>
      <trkpt lat="49.64753" lon="-1.30274">
        <ele>12.559509</ele>
        <time>2022-07-30T12:51:46.000Z</time>
      </trkpt>
      <trkpt lat="49.64755" lon="-1.3027">
        <ele>12.557285</ele>
        <time>2022-07-30T12:51:47.000Z</time>
      </trkpt>
      <trkpt lat="49.64757" lon="-1.30265">
        <ele>12.591875</ele>
        <time>2022-07-30T12:51:48.000Z</time>
      </trkpt>
      <trkpt lat="49.64759" lon="-1.30261">
        <ele>12.62483</ele>
        <time>2022-07-30T12:51:49.000Z</time>
      </trkpt>
      <trkpt lat="49.6476" lon="-1.30256">
        <ele>12.655253</ele>
        <time>2022-07-30T12:51:50.000Z</time>
      </trkpt>
      <trkpt lat="49.64761" lon="-1.30253">
        <ele>12.675973</ele>
        <time>2022-07-30T12:51:51.000Z</time>
      </trkpt>
      <trkpt lat="49.64762" lon="-1.30249">
        <ele>12.702357</ele>
        <time>2022-07-30T12:51:52.000Z</time>
      </trkpt>
      <trkpt lat="49.64763" lon="-1.30245">
        <ele>12.730384</ele>
        <time>2022-07-30T12:51:53.000Z</time>
      </trkpt>
      <trkpt lat="49.64763" lon="-1.3024">
        <ele>12.757988</ele>
        <time>2022-07-30T12:51:54.000Z</time>
      </trkpt>
      <trkpt lat="49.64761" lon="-1.30236">
        <ele>12.783812</ele>
        <time>2022-07-30T12:51:55.000Z</time>
      </trkpt>
      <trkpt lat="49.64761" lon="-1.30233">
        <ele>12.805114</ele>
        <time>2022-07-30T12:51:56.000Z</time>
      </trkpt>
      <trkpt lat="49.64759" lon="-1.3023">
        <ele>12.827798</ele>
        <time>2022-07-30T12:51:57.000Z</time>
      </trkpt>
      <trkpt lat="49.64758" lon="-1.30227">
        <ele>12.849044</ele>
        <time>2022-07-30T12:51:58.000Z</time>
      </trkpt>
      <trkpt lat="49.64757" lon="-1.30224">
        <ele>12.869684</ele>
        <time>2022-07-30T12:51:59.000Z</time>
      </trkpt>
      <trkpt lat="49.64756" lon="-1.30221">
        <ele>12.892136</ele>
        <time>2022-07-30T12:52:00.000Z</time>
      </trkpt>
      <trkpt lat="49.64754" lon="-1.30218">
        <ele>12.914793</ele>
        <time>2022-07-30T12:52:01.000Z</time>
      </trkpt>
      <trkpt lat="49.64753" lon="-1.30215">
        <ele>12.939594</ele>
        <time>2022-07-30T12:52:02.000Z</time>
      </trkpt>
      <trkpt lat="49.64751" lon="-1.30212">
        <ele>12.962811</ele>
        <time>2022-07-30T12:52:03.000Z</time>
      </trkpt>
      <trkpt lat="49.6475" lon="-1.30209">
        <ele>12.987613</ele>
        <time>2022-07-30T12:52:04.000Z</time>
      </trkpt>
      <trkpt lat="49.64749" lon="-1.30205">
        <ele>13.012365</ele>
        <time>2022-07-30T12:52:05.000Z</time>
      </trkpt>
      <trkpt lat="49.64747" lon="-1.30202">
        <ele>13.037654</ele>
        <time>2022-07-30T12:52:06.000Z</time>
      </trkpt>
      <trkpt lat="49.64745" lon="-1.30198">
        <ele>13.063936</ele>
        <time>2022-07-30T12:52:07.000Z</time>
      </trkpt>
      <trkpt lat="49.64743" lon="-1.30195">
        <ele>13.091954</ele>
        <time>2022-07-30T12:52:08.000Z</time>
      </trkpt>
      <trkpt lat="49.64742" lon="-1.30191">
        <ele>13.118236</ele>
        <time>2022-07-30T12:52:09.000Z</time>
      </trkpt>
      <trkpt lat="49.64741" lon="-1.30188">
        <ele>13.142988</ele>
        <time>2022-07-30T12:52:10.000Z</time>
      </trkpt>
      <trkpt lat="49.64739" lon="-1.30184">
        <ele>13.170282</ele>
        <time>2022-07-30T12:52:11.000Z</time>
      </trkpt>
      <trkpt lat="49.64737" lon="-1.3018">
        <ele>13.197575</ele>
        <time>2022-07-30T12:52:12.000Z</time>
      </trkpt>
      <trkpt lat="49.64736" lon="-1.30176">
        <ele>13.226941</ele>
        <time>2022-07-30T12:52:13.000Z</time>
      </trkpt>
      <trkpt lat="49.64735" lon="-1.30172">
        <ele>13.253244</ele>
        <time>2022-07-30T12:52:14.000Z</time>
      </trkpt>
      <trkpt lat="49.64733" lon="-1.30168">
        <ele>13.283184</ele>
        <time>2022-07-30T12:52:15.000Z</time>
      </trkpt>
      <trkpt lat="49.6473" lon="-1.30165">
        <ele>13.317311</ele>
        <time>2022-07-30T12:52:16.000Z</time>
      </trkpt>
      <trkpt lat="49.64728" lon="-1.30161">
        <ele>13.350929</ele>
        <time>2022-07-30T12:52:17.000Z</time>
      </trkpt>
      <trkpt lat="49.64725" lon="-1.30158">
        <ele>13.380258</ele>
        <time>2022-07-30T12:52:18.000Z</time>
      </trkpt>
      <trkpt lat="49.64724" lon="-1.30154">
        <ele>13.407551</ele>
        <time>2022-07-30T12:52:19.000Z</time>
      </trkpt>
      <trkpt lat="49.64722" lon="-1.30151">
        <ele>13.433736</ele>
        <time>2022-07-30T12:52:20.000Z</time>
      </trkpt>
      <trkpt lat="49.6472" lon="-1.30147">
        <ele>13.46366</ele>
        <time>2022-07-30T12:52:21.000Z</time>
      </trkpt>
      <trkpt lat="49.64718" lon="-1.30143">
        <ele>13.493599</ele>
        <time>2022-07-30T12:52:22.000Z</time>
      </trkpt>
      <trkpt lat="49.64716" lon="-1.3014">
        <ele>13.522698</ele>
        <time>2022-07-30T12:52:23.000Z</time>
      </trkpt>
      <trkpt lat="49.64714" lon="-1.30137">
        <ele>13.550502</ele>
        <time>2022-07-30T12:52:24.000Z</time>
      </trkpt>
      <trkpt lat="49.64712" lon="-1.30134">
        <ele>13.575811</ele>
        <time>2022-07-30T12:52:25.000Z</time>
      </trkpt>
      <trkpt lat="49.6471" lon="-1.30131">
        <ele>13.6029</ele>
        <time>2022-07-30T12:52:26.000Z</time>
      </trkpt>
      <trkpt lat="49.64708" lon="-1.30127">
        <ele>13.630183</ele>
        <time>2022-07-30T12:52:27.000Z</time>
      </trkpt>
      <trkpt lat="49.64706" lon="-1.30124">
        <ele>13.656368</ele>
        <time>2022-07-30T12:52:28.000Z</time>
      </trkpt>
      <trkpt lat="49.64705" lon="-1.30121">
        <ele>13.68112</ele>
        <time>2022-07-30T12:52:29.000Z</time>
      </trkpt>
      <trkpt lat="49.64702" lon="-1.30118">
        <ele>13.711882</ele>
        <time>2022-07-30T12:52:30.000Z</time>
      </trkpt>
      <trkpt lat="49.647" lon="-1.30115">
        <ele>13.737625</ele>
        <time>2022-07-30T12:52:31.000Z</time>
      </trkpt>
      <trkpt lat="49.64699" lon="-1.30111">
        <ele>13.760799</ele>
        <time>2022-07-30T12:52:32.000Z</time>
      </trkpt>
      <trkpt lat="49.64697" lon="-1.30108">
        <ele>13.786984</ele>
        <time>2022-07-30T12:52:33.000Z</time>
      </trkpt>
      <trkpt lat="49.64695" lon="-1.30105">
        <ele>13.815163</ele>
        <time>2022-07-30T12:52:34.000Z</time>
      </trkpt>
      <trkpt lat="49.64693" lon="-1.30102">
        <ele>13.839006</ele>
        <time>2022-07-30T12:52:35.000Z</time>
      </trkpt>
      <trkpt lat="49.64691" lon="-1.30099">
        <ele>13.86681</ele>
        <time>2022-07-30T12:52:36.000Z</time>
      </trkpt>
      <trkpt lat="49.6469" lon="-1.30096">
        <ele>13.890653</ele>
        <time>2022-07-30T12:52:37.000Z</time>
      </trkpt>
      <trkpt lat="49.64688" lon="-1.30093">
        <ele>13.916396</ele>
        <time>2022-07-30T12:52:38.000Z</time>
      </trkpt>
      <trkpt lat="49.64686" lon="-1.30089">
        <ele>13.942678</ele>
        <time>2022-07-30T12:52:39.000Z</time>
      </trkpt>
      <trkpt lat="49.64685" lon="-1.30086">
        <ele>13.96743</ele>
        <time>2022-07-30T12:52:40.000Z</time>
      </trkpt>
      <trkpt lat="49.64683" lon="-1.30083">
        <ele>13.994519</ele>
        <time>2022-07-30T12:52:41.000Z</time>
      </trkpt>
      <trkpt lat="49.64681" lon="-1.30079">
        <ele>14.019809</ele>
        <time>2022-07-30T12:52:42.000Z</time>
      </trkpt>
      <trkpt lat="49.64679" lon="-1.30075">
        <ele>14.049749</ele>
        <time>2022-07-30T12:52:43.000Z</time>
      </trkpt>
      <trkpt lat="49.64678" lon="-1.30072">
        <ele>14.076114</ele>
        <time>2022-07-30T12:52:44.000Z</time>
      </trkpt>
      <trkpt lat="49.64677" lon="-1.30068">
        <ele>14.101276</ele>
        <time>2022-07-30T12:52:45.000Z</time>
      </trkpt>
      <trkpt lat="49.64676" lon="-1.30063">
        <ele>14.129583</ele>
        <time>2022-07-30T12:52:46.000Z</time>
      </trkpt>
      <trkpt lat="49.64675" lon="-1.30059">
        <ele>14.156459</ele>
        <time>2022-07-30T12:52:47.000Z</time>
      </trkpt>
      <trkpt lat="49.64674" lon="-1.30055">
        <ele>14.186807</ele>
        <time>2022-07-30T12:52:48.000Z</time>
      </trkpt>
      <trkpt lat="49.64674" lon="-1.3005">
        <ele>14.214992</ele>
        <time>2022-07-30T12:52:49.000Z</time>
      </trkpt>
      <trkpt lat="49.64673" lon="-1.30045">
        <ele>14.244378</ele>
        <time>2022-07-30T12:52:50.000Z</time>
      </trkpt>
      <trkpt lat="49.64673" lon="-1.30041">
        <ele>14.264501</ele>
        <time>2022-07-30T12:52:51.000Z</time>
      </trkpt>
      <trkpt lat="49.64673" lon="-1.30037">
        <ele>14.279767</ele>
        <time>2022-07-30T12:52:52.000Z</time>
      </trkpt>
      <trkpt lat="49.64673" lon="-1.30032">
        <ele>14.296521</ele>
        <time>2022-07-30T12:52:53.000Z</time>
      </trkpt>
      <trkpt lat="49.64673" lon="-1.30028">
        <ele>14.313275</ele>
        <time>2022-07-30T12:52:54.000Z</time>
      </trkpt>
      <trkpt lat="49.64672" lon="-1.30023">
        <ele>14.330506</ele>
        <time>2022-07-30T12:52:55.000Z</time>
      </trkpt>
      <trkpt lat="49.64672" lon="-1.30018">
        <ele>14.349202</ele>
        <time>2022-07-30T12:52:56.000Z</time>
      </trkpt>
      <trkpt lat="49.64672" lon="-1.30013">
        <ele>14.368563</ele>
        <time>2022-07-30T12:52:57.000Z</time>
      </trkpt>
      <trkpt lat="49.64672" lon="-1.30008">
        <ele>14.388371</ele>
        <time>2022-07-30T12:52:58.000Z</time>
      </trkpt>
      <trkpt lat="49.64671" lon="-1.30002">
        <ele>14.410704</ele>
        <time>2022-07-30T12:52:59.000Z</time>
      </trkpt>
      <trkpt lat="49.6467" lon="-1.29996">
        <ele>14.43291</ele>
        <time>2022-07-30T12:53:00.000Z</time>
      </trkpt>
      <trkpt lat="49.64669" lon="-1.2999">
        <ele>14.456467</ele>
        <time>2022-07-30T12:53:01.000Z</time>
      </trkpt>
      <trkpt lat="49.64668" lon="-1.29984">
        <ele>14.480023</ele>
        <time>2022-07-30T12:53:02.000Z</time>
      </trkpt>
      <trkpt lat="49.64665" lon="-1.29979">
        <ele>14.504093</ele>
        <time>2022-07-30T12:53:03.000Z</time>
      </trkpt>
      <trkpt lat="49.64662" lon="-1.29973">
        <ele>14.529645</ele>
        <time>2022-07-30T12:53:04.000Z</time>
      </trkpt>
      <trkpt lat="49.6466" lon="-1.29968">
        <ele>14.552462</ele>
        <time>2022-07-30T12:53:05.000Z</time>
      </trkpt>
      <trkpt lat="49.64658" lon="-1.29964">
        <ele>14.574917</ele>
        <time>2022-07-30T12:53:06.000Z</time>
      </trkpt>
      <trkpt lat="49.64654" lon="-1.29959">
        <ele>14.599553</ele>
        <time>2022-07-30T12:53:07.000Z</time>
      </trkpt>
      <trkpt lat="49.64652" lon="-1.29955">
        <ele>14.62092</ele>
        <time>2022-07-30T12:53:08.000Z</time>
      </trkpt>
      <trkpt lat="49.64649" lon="-1.29951">
        <ele>14.642715</ele>
        <time>2022-07-30T12:53:09.000Z</time>
      </trkpt>
      <trkpt lat="49.64646" lon="-1.29947">
        <ele>14.66548</ele>
        <time>2022-07-30T12:53:10.000Z</time>
      </trkpt>
      <trkpt lat="49.64643" lon="-1.29944">
        <ele>14.686643</ele>
        <time>2022-07-30T12:53:11.000Z</time>
      </trkpt>
      <trkpt lat="49.6464" lon="-1.2994">
        <ele>14.710619</ele>
        <time>2022-07-30T12:53:12.000Z</time>
      </trkpt>
      <trkpt lat="49.64636" lon="-1.29937">
        <ele>14.735508</ele>
        <time>2022-07-30T12:53:13.000Z</time>
      </trkpt>
      <trkpt lat="49.64633" lon="-1.29935">
        <ele>14.7563</ele>
        <time>2022-07-30T12:53:14.000Z</time>
      </trkpt>
      <trkpt lat="49.6463" lon="-1.29932">
        <ele>14.775685</ele>
        <time>2022-07-30T12:53:15.000Z</time>
      </trkpt>
      <trkpt lat="49.64626" lon="-1.2993">
        <ele>14.797813</ele>
        <time>2022-07-30T12:53:16.000Z</time>
      </trkpt>
      <trkpt lat="49.64623" lon="-1.29927">
        <ele>14.819987</ele>
        <time>2022-07-30T12:53:17.000Z</time>
      </trkpt>
      <trkpt lat="49.6462" lon="-1.29925">
        <ele>14.838101</ele>
        <time>2022-07-30T12:53:18.000Z</time>
      </trkpt>
      <trkpt lat="49.64617" lon="-1.29924">
        <ele>14.857442</ele>
        <time>2022-07-30T12:53:19.000Z</time>
      </trkpt>
      <trkpt lat="49.64614" lon="-1.29922">
        <ele>14.875028</ele>
        <time>2022-07-30T12:53:20.000Z</time>
      </trkpt>
      <trkpt lat="49.64611" lon="-1.2992">
        <ele>14.891121</ele>
        <time>2022-07-30T12:53:21.000Z</time>
      </trkpt>
      <trkpt lat="49.64608" lon="-1.29918">
        <ele>14.910835</ele>
        <time>2022-07-30T12:53:22.000Z</time>
      </trkpt>
      <trkpt lat="49.64605" lon="-1.29916">
        <ele>14.928064</ele>
        <time>2022-07-30T12:53:23.000Z</time>
      </trkpt>
      <trkpt lat="49.64603" lon="-1.29914">
        <ele>14.945503</ele>
        <time>2022-07-30T12:53:24.000Z</time>
      </trkpt>
      <trkpt lat="49.646" lon="-1.29912">
        <ele>14.962206</ele>
        <time>2022-07-30T12:53:25.000Z</time>
      </trkpt>
      <trkpt lat="49.64597" lon="-1.2991">
        <ele>14.982056</ele>
        <time>2022-07-30T12:53:26.000Z</time>
      </trkpt>
      <trkpt lat="49.64594" lon="-1.29908">
        <ele>15.000974</ele>
        <time>2022-07-30T12:53:27.000Z</time>
      </trkpt>
      <trkpt lat="49.64592" lon="-1.29905">
        <ele>15.017367</ele>
        <time>2022-07-30T12:53:28.000Z</time>
      </trkpt>
      <trkpt lat="49.64589" lon="-1.29903">
        <ele>15.036464</ele>
        <time>2022-07-30T12:53:29.000Z</time>
      </trkpt>
      <trkpt lat="49.64587" lon="-1.299">
        <ele>15.051311</ele>
        <time>2022-07-30T12:53:30.000Z</time>
      </trkpt>
      <trkpt lat="49.64585" lon="-1.29897">
        <ele>15.068151</ele>
        <time>2022-07-30T12:53:31.000Z</time>
      </trkpt>
      <trkpt lat="49.64582" lon="-1.29894">
        <ele>15.085529</ele>
        <time>2022-07-30T12:53:32.000Z</time>
      </trkpt>
      <trkpt lat="49.6458" lon="-1.29891">
        <ele>15.101921</ele>
        <time>2022-07-30T12:53:33.000Z</time>
      </trkpt>
      <trkpt lat="49.64578" lon="-1.29888">
        <ele>15.11848</ele>
        <time>2022-07-30T12:53:34.000Z</time>
      </trkpt>
      <trkpt lat="49.64576" lon="-1.29885">
        <ele>15.134373</ele>
        <time>2022-07-30T12:53:35.000Z</time>
      </trkpt>
      <trkpt lat="49.64574" lon="-1.29881">
        <ele>15.15227</ele>
        <time>2022-07-30T12:53:36.000Z</time>
      </trkpt>
      <trkpt lat="49.64572" lon="-1.29878">
        <ele>15.168163</ele>
        <time>2022-07-30T12:53:37.000Z</time>
      </trkpt>
      <trkpt lat="49.6457" lon="-1.29875">
        <ele>15.184722</ele>
        <time>2022-07-30T12:53:38.000Z</time>
      </trkpt>
      <trkpt lat="49.64568" lon="-1.29872">
        <ele>15.200887</ele>
        <time>2022-07-30T12:53:39.000Z</time>
      </trkpt>
      <trkpt lat="49.64566" lon="-1.29869">
        <ele>15.21728</ele>
        <time>2022-07-30T12:53:40.000Z</time>
      </trkpt>
      <trkpt lat="49.64564" lon="-1.29866">
        <ele>15.232381</ele>
        <time>2022-07-30T12:53:41.000Z</time>
      </trkpt>
      <trkpt lat="49.64562" lon="-1.29863">
        <ele>15.24894</ele>
        <time>2022-07-30T12:53:42.000Z</time>
      </trkpt>
      <trkpt lat="49.6456" lon="-1.2986">
        <ele>15.264042</ele>
        <time>2022-07-30T12:53:43.000Z</time>
      </trkpt>
      <trkpt lat="49.64558" lon="-1.29857">
        <ele>15.280917</ele>
        <time>2022-07-30T12:53:44.000Z</time>
      </trkpt>
      <trkpt lat="49.64556" lon="-1.29855">
        <ele>15.285673</ele>
        <time>2022-07-30T12:53:45.000Z</time>
      </trkpt>
      <trkpt lat="49.64554" lon="-1.29852">
        <ele>15.283563</ele>
        <time>2022-07-30T12:53:46.000Z</time>
      </trkpt>
      <trkpt lat="49.64551" lon="-1.29849">
        <ele>15.280672</ele>
        <time>2022-07-30T12:53:47.000Z</time>
      </trkpt>
      <trkpt lat="49.64549" lon="-1.29846">
        <ele>15.278296</ele>
        <time>2022-07-30T12:53:48.000Z</time>
      </trkpt>
      <trkpt lat="49.64547" lon="-1.29843">
        <ele>15.275879</ele>
        <time>2022-07-30T12:53:49.000Z</time>
      </trkpt>
      <trkpt lat="49.64546" lon="-1.2984">
        <ele>15.273752</ele>
        <time>2022-07-30T12:53:50.000Z</time>
      </trkpt>
      <trkpt lat="49.64544" lon="-1.29837">
        <ele>15.27157</ele>
        <time>2022-07-30T12:53:51.000Z</time>
      </trkpt>
      <trkpt lat="49.64542" lon="-1.29835">
        <ele>15.26946</ele>
        <time>2022-07-30T12:53:52.000Z</time>
      </trkpt>
      <trkpt lat="49.6454" lon="-1.29831">
        <ele>15.267247</ele>
        <time>2022-07-30T12:53:53.000Z</time>
      </trkpt>
      <trkpt lat="49.64538" lon="-1.29828">
        <ele>15.264891</ele>
        <time>2022-07-30T12:53:54.000Z</time>
      </trkpt>
      <trkpt lat="49.64536" lon="-1.29825">
        <ele>15.262594</ele>
        <time>2022-07-30T12:53:55.000Z</time>
      </trkpt>
      <trkpt lat="49.64534" lon="-1.29822">
        <ele>15.260114</ele>
        <time>2022-07-30T12:53:56.000Z</time>
      </trkpt>
      <trkpt lat="49.64533" lon="-1.29819">
        <ele>15.257944</ele>
        <time>2022-07-30T12:53:57.000Z</time>
      </trkpt>
      <trkpt lat="49.6453" lon="-1.29816">
        <ele>15.255434</ele>
        <time>2022-07-30T12:53:58.000Z</time>
      </trkpt>
      <trkpt lat="49.64528" lon="-1.29814">
        <ele>15.253215</ele>
        <time>2022-07-30T12:53:59.000Z</time>
      </trkpt>
      <trkpt lat="49.64526" lon="-1.29811">
        <ele>15.250839</ele>
        <time>2022-07-30T12:54:00.000Z</time>
      </trkpt>
      <trkpt lat="49.64523" lon="-1.29808">
        <ele>15.248032</ele>
        <time>2022-07-30T12:54:01.000Z</time>
      </trkpt>
      <trkpt lat="49.64521" lon="-1.29806">
        <ele>15.245414</ele>
        <time>2022-07-30T12:54:02.000Z</time>
      </trkpt>
      <trkpt lat="49.64518" lon="-1.29803">
        <ele>15.242738</ele>
        <time>2022-07-30T12:54:03.000Z</time>
      </trkpt>
      <trkpt lat="49.64516" lon="-1.298">
        <ele>15.240194</ele>
        <time>2022-07-30T12:54:04.000Z</time>
      </trkpt>
      <trkpt lat="49.64513" lon="-1.29797">
        <ele>15.237344</ele>
        <time>2022-07-30T12:54:05.000Z</time>
      </trkpt>
      <trkpt lat="49.6451" lon="-1.29795">
        <ele>15.234812</ele>
        <time>2022-07-30T12:54:06.000Z</time>
      </trkpt>
      <trkpt lat="49.64508" lon="-1.29792">
        <ele>15.232437</ele>
        <time>2022-07-30T12:54:07.000Z</time>
      </trkpt>
      <trkpt lat="49.64505" lon="-1.2979">
        <ele>15.229681</ele>
        <time>2022-07-30T12:54:08.000Z</time>
      </trkpt>
      <trkpt lat="49.64503" lon="-1.29787">
        <ele>15.227175</ele>
        <time>2022-07-30T12:54:09.000Z</time>
      </trkpt>
      <trkpt lat="49.645" lon="-1.29785">
        <ele>15.224796</ele>
        <time>2022-07-30T12:54:10.000Z</time>
      </trkpt>
      <trkpt lat="49.64497" lon="-1.29783">
        <ele>15.221988</ele>
        <time>2022-07-30T12:54:11.000Z</time>
      </trkpt>
      <trkpt lat="49.64495" lon="-1.29781">
        <ele>15.219672</ele>
        <time>2022-07-30T12:54:12.000Z</time>
      </trkpt>
      <trkpt lat="49.64493" lon="-1.29778">
        <ele>15.217364</ele>
        <time>2022-07-30T12:54:13.000Z</time>
      </trkpt>
      <trkpt lat="49.64491" lon="-1.29776">
        <ele>15.215055</ele>
        <time>2022-07-30T12:54:14.000Z</time>
      </trkpt>
      <trkpt lat="49.64488" lon="-1.29773">
        <ele>15.212193</ele>
        <time>2022-07-30T12:54:15.000Z</time>
      </trkpt>
      <trkpt lat="49.64486" lon="-1.29771">
        <ele>15.210603</ele>
        <time>2022-07-30T12:54:16.000Z</time>
      </trkpt>
      <trkpt lat="49.64484" lon="-1.29767">
        <ele>15.207526</ele>
        <time>2022-07-30T12:54:17.000Z</time>
      </trkpt>
      <trkpt lat="49.64481" lon="-1.29765">
        <ele>15.20528</ele>
        <time>2022-07-30T12:54:18.000Z</time>
      </trkpt>
      <trkpt lat="49.64478" lon="-1.29763">
        <ele>15.202596</ele>
        <time>2022-07-30T12:54:19.000Z</time>
      </trkpt>
      <trkpt lat="49.64476" lon="-1.2976">
        <ele>15.200186</ele>
        <time>2022-07-30T12:54:20.000Z</time>
      </trkpt>
      <trkpt lat="49.64473" lon="-1.29758">
        <ele>15.197324</ele>
        <time>2022-07-30T12:54:21.000Z</time>
      </trkpt>
      <trkpt lat="49.64471" lon="-1.29755">
        <ele>15.194676</ele>
        <time>2022-07-30T12:54:22.000Z</time>
      </trkpt>
      <trkpt lat="49.64469" lon="-1.29752">
        <ele>15.192367</ele>
        <time>2022-07-30T12:54:23.000Z</time>
      </trkpt>
      <trkpt lat="49.64466" lon="-1.2975">
        <ele>15.18966</ele>
        <time>2022-07-30T12:54:24.000Z</time>
      </trkpt>
      <trkpt lat="49.64463" lon="-1.29748">
        <ele>15.187502</ele>
        <time>2022-07-30T12:54:25.000Z</time>
      </trkpt>
      <trkpt lat="49.64461" lon="-1.29746">
        <ele>15.185071</ele>
        <time>2022-07-30T12:54:26.000Z</time>
      </trkpt>
      <trkpt lat="49.64458" lon="-1.29745">
        <ele>15.182793</ele>
        <time>2022-07-30T12:54:27.000Z</time>
      </trkpt>
      <trkpt lat="49.64455" lon="-1.29745">
        <ele>15.180423</ele>
        <time>2022-07-30T12:54:28.000Z</time>
      </trkpt>
      <trkpt lat="49.64453" lon="-1.29746">
        <ele>15.177933</ele>
        <time>2022-07-30T12:54:29.000Z</time>
      </trkpt>
      <trkpt lat="49.64449" lon="-1.29747">
        <ele>15.175122</ele>
        <time>2022-07-30T12:54:30.000Z</time>
      </trkpt>
      <trkpt lat="49.64447" lon="-1.29749">
        <ele>15.172667</ele>
        <time>2022-07-30T12:54:31.000Z</time>
      </trkpt>
      <trkpt lat="49.64444" lon="-1.29752">
        <ele>15.169912</ele>
        <time>2022-07-30T12:54:32.000Z</time>
      </trkpt>
      <trkpt lat="49.64442" lon="-1.29754">
        <ele>15.167697</ele>
        <time>2022-07-30T12:54:33.000Z</time>
      </trkpt>
      <trkpt lat="49.64439" lon="-1.29756">
        <ele>15.165217</ele>
        <time>2022-07-30T12:54:34.000Z</time>
      </trkpt>
      <trkpt lat="49.64436" lon="-1.29758">
        <ele>15.162023</ele>
        <time>2022-07-30T12:54:35.000Z</time>
      </trkpt>
      <trkpt lat="49.64433" lon="-1.29761">
        <ele>15.159714</ele>
        <time>2022-07-30T12:54:36.000Z</time>
      </trkpt>
      <trkpt lat="49.64431" lon="-1.29763">
        <ele>15.157181</ele>
        <time>2022-07-30T12:54:37.000Z</time>
      </trkpt>
      <trkpt lat="49.64429" lon="-1.29765">
        <ele>15.155024</ele>
        <time>2022-07-30T12:54:38.000Z</time>
      </trkpt>
      <trkpt lat="49.64425" lon="-1.29767">
        <ele>15.152126</ele>
        <time>2022-07-30T12:54:39.000Z</time>
      </trkpt>
      <trkpt lat="49.64423" lon="-1.29768">
        <ele>15.149994</ele>
        <time>2022-07-30T12:54:40.000Z</time>
      </trkpt>
      <trkpt lat="49.64421" lon="-1.2977">
        <ele>15.147863</ele>
        <time>2022-07-30T12:54:41.000Z</time>
      </trkpt>
      <trkpt lat="49.64418" lon="-1.29773">
        <ele>15.145108</ele>
        <time>2022-07-30T12:54:42.000Z</time>
      </trkpt>
      <trkpt lat="49.64415" lon="-1.29774">
        <ele>15.142777</ele>
        <time>2022-07-30T12:54:43.000Z</time>
      </trkpt>
      <trkpt lat="49.64413" lon="-1.29777">
        <ele>15.140271</ele>
        <time>2022-07-30T12:54:44.000Z</time>
      </trkpt>
      <trkpt lat="49.6441" lon="-1.29778">
        <ele>15.137392</ele>
        <time>2022-07-30T12:54:45.000Z</time>
      </trkpt>
      <trkpt lat="49.64407" lon="-1.29781">
        <ele>15.135348</ele>
        <time>2022-07-30T12:54:46.000Z</time>
      </trkpt>
      <trkpt lat="49.64404" lon="-1.29783">
        <ele>15.136276</ele>
        <time>2022-07-30T12:54:47.000Z</time>
      </trkpt>
      <trkpt lat="49.64401" lon="-1.29785">
        <ele>15.136964</ele>
        <time>2022-07-30T12:54:48.000Z</time>
      </trkpt>
      <trkpt lat="49.64398" lon="-1.29786">
        <ele>15.137836</ele>
        <time>2022-07-30T12:54:49.000Z</time>
      </trkpt>
      <trkpt lat="49.64395" lon="-1.29787">
        <ele>15.138611</ele>
        <time>2022-07-30T12:54:50.000Z</time>
      </trkpt>
      <trkpt lat="49.64392" lon="-1.29787">
        <ele>15.139447</ele>
        <time>2022-07-30T12:54:51.000Z</time>
      </trkpt>
      <trkpt lat="49.64389" lon="-1.29789">
        <ele>15.140119</ele>
        <time>2022-07-30T12:54:52.000Z</time>
      </trkpt>
      <trkpt lat="49.64386" lon="-1.2979">
        <ele>15.140971</ele>
        <time>2022-07-30T12:54:53.000Z</time>
      </trkpt>
      <trkpt lat="49.64383" lon="-1.29789">
        <ele>15.141721</ele>
        <time>2022-07-30T12:54:54.000Z</time>
      </trkpt>
      <trkpt lat="49.6438" lon="-1.29787">
        <ele>15.142604</ele>
        <time>2022-07-30T12:54:55.000Z</time>
      </trkpt>
      <trkpt lat="49.64378" lon="-1.29786">
        <ele>15.143227</ele>
        <time>2022-07-30T12:54:56.000Z</time>
      </trkpt>
      <trkpt lat="49.64375" lon="-1.29784">
        <ele>15.143961</ele>
        <time>2022-07-30T12:54:57.000Z</time>
      </trkpt>
      <trkpt lat="49.64373" lon="-1.29784">
        <ele>15.14473</ele>
        <time>2022-07-30T12:54:58.000Z</time>
      </trkpt>
      <trkpt lat="49.64369" lon="-1.29782">
        <ele>15.145613</ele>
        <time>2022-07-30T12:54:59.000Z</time>
      </trkpt>
      <trkpt lat="49.64366" lon="-1.2978">
        <ele>15.146533</ele>
        <time>2022-07-30T12:55:00.000Z</time>
      </trkpt>
      <trkpt lat="49.64364" lon="-1.29777">
        <ele>15.14736</ele>
        <time>2022-07-30T12:55:01.000Z</time>
      </trkpt>
      <trkpt lat="49.64361" lon="-1.29774">
        <ele>15.148176</ele>
        <time>2022-07-30T12:55:02.000Z</time>
      </trkpt>
      <trkpt lat="49.64358" lon="-1.2977">
        <ele>15.149087</ele>
        <time>2022-07-30T12:55:03.000Z</time>
      </trkpt>
      <trkpt lat="49.64356" lon="-1.29767">
        <ele>15.150068</ele>
        <time>2022-07-30T12:55:04.000Z</time>
      </trkpt>
      <trkpt lat="49.64353" lon="-1.29764">
        <ele>15.150951</ele>
        <time>2022-07-30T12:55:05.000Z</time>
      </trkpt>
      <trkpt lat="49.6435" lon="-1.29761">
        <ele>15.151804</ele>
        <time>2022-07-30T12:55:06.000Z</time>
      </trkpt>
      <trkpt lat="49.64346" lon="-1.29759">
        <ele>15.152796</ele>
        <time>2022-07-30T12:55:07.000Z</time>
      </trkpt>
      <trkpt lat="49.64342" lon="-1.29758">
        <ele>15.153802</ele>
        <time>2022-07-30T12:55:08.000Z</time>
      </trkpt>
      <trkpt lat="49.64339" lon="-1.29758">
        <ele>15.154802</ele>
        <time>2022-07-30T12:55:09.000Z</time>
      </trkpt>
      <trkpt lat="49.64336" lon="-1.29757">
        <ele>15.15556</ele>
        <time>2022-07-30T12:55:10.000Z</time>
      </trkpt>
      <trkpt lat="49.64333" lon="-1.29757">
        <ele>15.156239</ele>
        <time>2022-07-30T12:55:11.000Z</time>
      </trkpt>
      <trkpt lat="49.6433" lon="-1.29757">
        <ele>15.157001</ele>
        <time>2022-07-30T12:55:12.000Z</time>
      </trkpt>
      <trkpt lat="49.64328" lon="-1.29755">
        <ele>15.157628</ele>
        <time>2022-07-30T12:55:13.000Z</time>
      </trkpt>
      <trkpt lat="49.64326" lon="-1.29753">
        <ele>15.158258</ele>
        <time>2022-07-30T12:55:14.000Z</time>
      </trkpt>
      <trkpt lat="49.64324" lon="-1.2975">
        <ele>15.158991</ele>
        <time>2022-07-30T12:55:15.000Z</time>
      </trkpt>
      <trkpt lat="49.64323" lon="-1.29745">
        <ele>15.159814</ele>
        <time>2022-07-30T12:55:16.000Z</time>
      </trkpt>
      <trkpt lat="49.64322" lon="-1.29741">
        <ele>15.160618</ele>
        <time>2022-07-30T12:55:17.000Z</time>
      </trkpt>
      <trkpt lat="49.6432" lon="-1.29736">
        <ele>15.16145</ele>
        <time>2022-07-30T12:55:18.000Z</time>
      </trkpt>
      <trkpt lat="49.6432" lon="-1.29732">
        <ele>15.162214</ele>
        <time>2022-07-30T12:55:19.000Z</time>
      </trkpt>
      <trkpt lat="49.6432" lon="-1.29727">
        <ele>15.162978</ele>
        <time>2022-07-30T12:55:20.000Z</time>
      </trkpt>
      <trkpt lat="49.64319" lon="-1.29723">
        <ele>15.163675</ele>
        <time>2022-07-30T12:55:21.000Z</time>
      </trkpt>
      <trkpt lat="49.6432" lon="-1.29719">
        <ele>15.16444</ele>
        <time>2022-07-30T12:55:22.000Z</time>
      </trkpt>
      <trkpt lat="49.6432" lon="-1.29714">
        <ele>15.165187</ele>
        <time>2022-07-30T12:55:23.000Z</time>
      </trkpt>
      <trkpt lat="49.64321" lon="-1.2971">
        <ele>15.16593</ele>
        <time>2022-07-30T12:55:24.000Z</time>
      </trkpt>
      <trkpt lat="49.64322" lon="-1.29706">
        <ele>15.166686</ele>
        <time>2022-07-30T12:55:25.000Z</time>
      </trkpt>
      <trkpt lat="49.64324" lon="-1.29702">
        <ele>15.167437</ele>
        <time>2022-07-30T12:55:26.000Z</time>
      </trkpt>
      <trkpt lat="49.64325" lon="-1.29699">
        <ele>15.168222</ele>
        <time>2022-07-30T12:55:27.000Z</time>
      </trkpt>
      <trkpt lat="49.64327" lon="-1.29695">
        <ele>15.16901</ele>
        <time>2022-07-30T12:55:28.000Z</time>
      </trkpt>
      <trkpt lat="49.64329" lon="-1.29691">
        <ele>15.169835</ele>
        <time>2022-07-30T12:55:29.000Z</time>
      </trkpt>
      <trkpt lat="49.64331" lon="-1.29688">
        <ele>15.170531</ele>
        <time>2022-07-30T12:55:30.000Z</time>
      </trkpt>
      <trkpt lat="49.64333" lon="-1.29684">
        <ele>15.171356</ele>
        <time>2022-07-30T12:55:31.000Z</time>
      </trkpt>
      <trkpt lat="49.64335" lon="-1.2968">
        <ele>15.172217</ele>
        <time>2022-07-30T12:55:32.000Z</time>
      </trkpt>
      <trkpt lat="49.64337" lon="-1.29676">
        <ele>15.173028</ele>
        <time>2022-07-30T12:55:33.000Z</time>
      </trkpt>
      <trkpt lat="49.64339" lon="-1.29672">
        <ele>15.173973</ele>
        <time>2022-07-30T12:55:34.000Z</time>
      </trkpt>
      <trkpt lat="49.64341" lon="-1.29669">
        <ele>15.174797</ele>
        <time>2022-07-30T12:55:35.000Z</time>
      </trkpt>
      <trkpt lat="49.64344" lon="-1.29665">
        <ele>15.175651</ele>
        <time>2022-07-30T12:55:36.000Z</time>
      </trkpt>
      <trkpt lat="49.64346" lon="-1.29661">
        <ele>15.176476</ele>
        <time>2022-07-30T12:55:37.000Z</time>
      </trkpt>
      <trkpt lat="49.64348" lon="-1.29658">
        <ele>15.177337</ele>
        <time>2022-07-30T12:55:38.000Z</time>
      </trkpt>
      <trkpt lat="49.6435" lon="-1.29654">
        <ele>15.178151</ele>
        <time>2022-07-30T12:55:39.000Z</time>
      </trkpt>
      <trkpt lat="49.64352" lon="-1.29651">
        <ele>15.178872</ele>
        <time>2022-07-30T12:55:40.000Z</time>
      </trkpt>
      <trkpt lat="49.64354" lon="-1.29648">
        <ele>15.17966</ele>
        <time>2022-07-30T12:55:41.000Z</time>
      </trkpt>
      <trkpt lat="49.64356" lon="-1.29644">
        <ele>15.180394</ele>
        <time>2022-07-30T12:55:42.000Z</time>
      </trkpt>
      <trkpt lat="49.64357" lon="-1.29641">
        <ele>15.18109</ele>
        <time>2022-07-30T12:55:43.000Z</time>
      </trkpt>
      <trkpt lat="49.64359" lon="-1.29638">
        <ele>15.181854</ele>
        <time>2022-07-30T12:55:44.000Z</time>
      </trkpt>
      <trkpt lat="49.64361" lon="-1.29634">
        <ele>15.217078</ele>
        <time>2022-07-30T12:55:45.000Z</time>
      </trkpt>
      <trkpt lat="49.64363" lon="-1.2963">
        <ele>15.261208</ele>
        <time>2022-07-30T12:55:46.000Z</time>
      </trkpt>
      <trkpt lat="49.64365" lon="-1.29627">
        <ele>15.31154</ele>
        <time>2022-07-30T12:55:47.000Z</time>
      </trkpt>
      <trkpt lat="49.64366" lon="-1.29623">
        <ele>15.357833</ele>
        <time>2022-07-30T12:55:48.000Z</time>
      </trkpt>
      <trkpt lat="49.64368" lon="-1.2962">
        <ele>15.405713</ele>
        <time>2022-07-30T12:55:49.000Z</time>
      </trkpt>
      <trkpt lat="49.6437" lon="-1.29616">
        <ele>15.452795</ele>
        <time>2022-07-30T12:55:50.000Z</time>
      </trkpt>
      <trkpt lat="49.64372" lon="-1.29613">
        <ele>15.498671</ele>
        <time>2022-07-30T12:55:51.000Z</time>
      </trkpt>
      <trkpt lat="49.64374" lon="-1.2961">
        <ele>15.544186</ele>
        <time>2022-07-30T12:55:52.000Z</time>
      </trkpt>
      <trkpt lat="49.64376" lon="-1.29607">
        <ele>15.58493</ele>
        <time>2022-07-30T12:55:53.000Z</time>
      </trkpt>
      <trkpt lat="49.64378" lon="-1.29604">
        <ele>15.631223</ele>
        <time>2022-07-30T12:55:54.000Z</time>
      </trkpt>
      <trkpt lat="49.64379" lon="-1.296">
        <ele>15.677866</ele>
        <time>2022-07-30T12:55:55.000Z</time>
      </trkpt>
      <trkpt lat="49.64381" lon="-1.29597">
        <ele>15.722781</ele>
        <time>2022-07-30T12:55:56.000Z</time>
      </trkpt>
      <trkpt lat="49.64382" lon="-1.29593">
        <ele>15.765164</ele>
        <time>2022-07-30T12:55:57.000Z</time>
      </trkpt>
      <trkpt lat="49.64384" lon="-1.29591">
        <ele>15.805576</ele>
        <time>2022-07-30T12:55:58.000Z</time>
      </trkpt>
      <trkpt lat="49.64386" lon="-1.29589">
        <ele>15.836436</ele>
        <time>2022-07-30T12:55:59.000Z</time>
      </trkpt>
      <trkpt lat="49.64388" lon="-1.2958">
        <ele>15.934679</ele>
        <time>2022-07-30T12:56:16.000Z</time>
      </trkpt>
      <trkpt lat="49.64397" lon="-1.29566">
        <ele>16.149167</ele>
        <time>2022-07-30T12:58:24.000Z</time>
      </trkpt>
      <trkpt lat="49.64401" lon="-1.29561">
        <ele>16.231152</ele>
        <time>2022-07-30T12:58:25.000Z</time>
      </trkpt>
      <trkpt lat="49.64404" lon="-1.29555">
        <ele>16.311834</ele>
        <time>2022-07-30T12:58:26.000Z</time>
      </trkpt>
      <trkpt lat="49.64407" lon="-1.29549">
        <ele>16.391716</ele>
        <time>2022-07-30T12:58:27.000Z</time>
      </trkpt>
      <trkpt lat="49.64411" lon="-1.29544">
        <ele>16.472557</ele>
        <time>2022-07-30T12:58:28.000Z</time>
      </trkpt>
      <trkpt lat="49.64414" lon="-1.29538">
        <ele>16.5453</ele>
        <time>2022-07-30T12:58:29.000Z</time>
      </trkpt>
      <trkpt lat="49.64417" lon="-1.29533">
        <ele>16.618256</ele>
        <time>2022-07-30T12:58:30.000Z</time>
      </trkpt>
      <trkpt lat="49.6442" lon="-1.29528">
        <ele>16.688352</ele>
        <time>2022-07-30T12:58:31.000Z</time>
      </trkpt>
      <trkpt lat="49.64422" lon="-1.29524">
        <ele>16.750112</ele>
        <time>2022-07-30T12:58:32.000Z</time>
      </trkpt>
      <trkpt lat="49.64425" lon="-1.29519">
        <ele>16.814478</ele>
        <time>2022-07-30T12:58:33.000Z</time>
      </trkpt>
      <trkpt lat="49.64427" lon="-1.29515">
        <ele>16.869496</ele>
        <time>2022-07-30T12:58:34.000Z</time>
      </trkpt>
      <trkpt lat="49.64429" lon="-1.29511">
        <ele>16.925318</ele>
        <time>2022-07-30T12:58:35.000Z</time>
      </trkpt>
      <trkpt lat="49.64432" lon="-1.29507">
        <ele>16.981397</ele>
        <time>2022-07-30T12:58:36.000Z</time>
      </trkpt>
      <trkpt lat="49.64434" lon="-1.29503">
        <ele>17.03803</ele>
        <time>2022-07-30T12:58:37.000Z</time>
      </trkpt>
      <trkpt lat="49.64437" lon="-1.29499">
        <ele>17.098944</ele>
        <time>2022-07-30T12:58:38.000Z</time>
      </trkpt>
      <trkpt lat="49.64439" lon="-1.29495">
        <ele>17.157224</ele>
        <time>2022-07-30T12:58:39.000Z</time>
      </trkpt>
      <trkpt lat="49.64442" lon="-1.29491">
        <ele>17.2189</ele>
        <time>2022-07-30T12:58:40.000Z</time>
      </trkpt>
      <trkpt lat="49.64445" lon="-1.29486">
        <ele>17.287721</ele>
        <time>2022-07-30T12:58:41.000Z</time>
      </trkpt>
      <trkpt lat="49.64447" lon="-1.29481">
        <ele>17.351094</ele>
        <time>2022-07-30T12:58:42.000Z</time>
      </trkpt>
      <trkpt lat="49.64449" lon="-1.29476">
        <ele>17.41187</ele>
        <time>2022-07-30T12:58:43.000Z</time>
      </trkpt>
      <trkpt lat="49.64451" lon="-1.29471">
        <ele>17.478282</ele>
        <time>2022-07-30T12:58:44.000Z</time>
      </trkpt>
      <trkpt lat="49.64453" lon="-1.29466">
        <ele>17.538232</ele>
        <time>2022-07-30T12:58:45.000Z</time>
      </trkpt>
      <trkpt lat="49.64456" lon="-1.29462">
        <ele>17.606291</ele>
        <time>2022-07-30T12:58:46.000Z</time>
      </trkpt>
      <trkpt lat="49.64459" lon="-1.29457">
        <ele>17.671095</ele>
        <time>2022-07-30T12:58:47.000Z</time>
      </trkpt>
      <trkpt lat="49.64461" lon="-1.29453">
        <ele>17.731677</ele>
        <time>2022-07-30T12:58:48.000Z</time>
      </trkpt>
      <trkpt lat="49.64464" lon="-1.29448">
        <ele>17.790145</ele>
        <time>2022-07-30T12:58:49.000Z</time>
      </trkpt>
      <trkpt lat="49.64466" lon="-1.29444">
        <ele>17.845588</ele>
        <time>2022-07-30T12:58:50.000Z</time>
      </trkpt>
      <trkpt lat="49.64468" lon="-1.2944">
        <ele>17.907263</ele>
        <time>2022-07-30T12:58:51.000Z</time>
      </trkpt>
      <trkpt lat="49.6447" lon="-1.29436">
        <ele>17.962281</ele>
        <time>2022-07-30T12:58:52.000Z</time>
      </trkpt>
      <trkpt lat="49.64472" lon="-1.29431">
        <ele>18.015992</ele>
        <time>2022-07-30T12:58:53.000Z</time>
      </trkpt>
      <trkpt lat="49.64475" lon="-1.29427">
        <ele>18.072859</ele>
        <time>2022-07-30T12:58:54.000Z</time>
      </trkpt>
      <trkpt lat="49.64477" lon="-1.29423">
        <ele>18.127907</ele>
        <time>2022-07-30T12:58:55.000Z</time>
      </trkpt>
      <trkpt lat="49.64479" lon="-1.29419">
        <ele>18.180356</ele>
        <time>2022-07-30T12:58:56.000Z</time>
      </trkpt>
      <trkpt lat="49.64481" lon="-1.29414">
        <ele>18.232999</ele>
        <time>2022-07-30T12:58:57.000Z</time>
      </trkpt>
      <trkpt lat="49.64484" lon="-1.2941">
        <ele>18.291111</ele>
        <time>2022-07-30T12:58:58.000Z</time>
      </trkpt>
      <trkpt lat="49.64487" lon="-1.29406">
        <ele>18.34571</ele>
        <time>2022-07-30T12:58:59.000Z</time>
      </trkpt>
      <trkpt lat="49.64489" lon="-1.29402">
        <ele>18.399087</ele>
        <time>2022-07-30T12:59:00.000Z</time>
      </trkpt>
      <trkpt lat="49.64492" lon="-1.29397">
        <ele>18.455111</ele>
        <time>2022-07-30T12:59:01.000Z</time>
      </trkpt>
      <trkpt lat="49.64494" lon="-1.29393">
        <ele>18.509353</ele>
        <time>2022-07-30T12:59:02.000Z</time>
      </trkpt>
      <trkpt lat="49.64497" lon="-1.29389">
        <ele>18.563251</ele>
        <time>2022-07-30T12:59:03.000Z</time>
      </trkpt>
      <trkpt lat="49.64499" lon="-1.29385">
        <ele>18.617494</ele>
        <time>2022-07-30T12:59:04.000Z</time>
      </trkpt>
      <trkpt lat="49.64501" lon="-1.29381">
        <ele>18.667722</ele>
        <time>2022-07-30T12:59:05.000Z</time>
      </trkpt>
      <trkpt lat="49.64504" lon="-1.29377">
        <ele>18.725191</ele>
        <time>2022-07-30T12:59:06.000Z</time>
      </trkpt>
      <trkpt lat="49.64507" lon="-1.29373">
        <ele>18.776387</ele>
        <time>2022-07-30T12:59:07.000Z</time>
      </trkpt>
      <trkpt lat="49.64509" lon="-1.29369">
        <ele>18.832411</ele>
        <time>2022-07-30T12:59:08.000Z</time>
      </trkpt>
      <trkpt lat="49.64511" lon="-1.29365">
        <ele>18.883607</ele>
        <time>2022-07-30T12:59:09.000Z</time>
      </trkpt>
      <trkpt lat="49.64514" lon="-1.29361">
        <ele>18.936813</ele>
        <time>2022-07-30T12:59:10.000Z</time>
      </trkpt>
      <trkpt lat="49.64517" lon="-1.29357">
        <ele>18.988425</ele>
        <time>2022-07-30T12:59:11.000Z</time>
      </trkpt>
      <trkpt lat="49.64519" lon="-1.29354">
        <ele>19.034426</ele>
        <time>2022-07-30T12:59:12.000Z</time>
      </trkpt>
      <trkpt lat="49.64521" lon="-1.29351">
        <ele>19.079546</ele>
        <time>2022-07-30T12:59:13.000Z</time>
      </trkpt>
      <trkpt lat="49.64524" lon="-1.29347">
        <ele>19.132191</ele>
        <time>2022-07-30T12:59:14.000Z</time>
      </trkpt>
      <trkpt lat="49.64526" lon="-1.29344">
        <ele>19.178592</ele>
        <time>2022-07-30T12:59:15.000Z</time>
      </trkpt>
      <trkpt lat="49.64529" lon="-1.29341">
        <ele>19.225386</ele>
        <time>2022-07-30T12:59:16.000Z</time>
      </trkpt>
      <trkpt lat="49.64531" lon="-1.29338">
        <ele>19.274525</ele>
        <time>2022-07-30T12:59:17.000Z</time>
      </trkpt>
      <trkpt lat="49.64534" lon="-1.29335">
        <ele>19.327767</ele>
        <time>2022-07-30T12:59:18.000Z</time>
      </trkpt>
      <trkpt lat="49.64536" lon="-1.29331">
        <ele>19.376551</ele>
        <time>2022-07-30T12:59:19.000Z</time>
      </trkpt>
      <trkpt lat="49.64539" lon="-1.29327">
        <ele>19.425638</ele>
        <time>2022-07-30T12:59:20.000Z</time>
      </trkpt>
      <trkpt lat="49.64541" lon="-1.29323">
        <ele>19.474422</ele>
        <time>2022-07-30T12:59:21.000Z</time>
      </trkpt>
      <trkpt lat="49.64544" lon="-1.2932">
        <ele>19.528237</ele>
        <time>2022-07-30T12:59:22.000Z</time>
      </trkpt>
      <trkpt lat="49.64546" lon="-1.29316">
        <ele>19.575611</ele>
        <time>2022-07-30T12:59:23.000Z</time>
      </trkpt>
      <trkpt lat="49.64548" lon="-1.29313">
        <ele>19.622669</ele>
        <time>2022-07-30T12:59:24.000Z</time>
      </trkpt>
      <trkpt lat="49.6455" lon="-1.2931">
        <ele>19.666686</ele>
        <time>2022-07-30T12:59:25.000Z</time>
      </trkpt>
      <trkpt lat="49.64553" lon="-1.29307">
        <ele>19.709436</ele>
        <time>2022-07-30T12:59:26.000Z</time>
      </trkpt>
      <trkpt lat="49.64555" lon="-1.29304">
        <ele>19.751565</ele>
        <time>2022-07-30T12:59:27.000Z</time>
      </trkpt>
      <trkpt lat="49.64557" lon="-1.29302">
        <ele>19.791935</ele>
        <time>2022-07-30T12:59:28.000Z</time>
      </trkpt>
      <trkpt lat="49.6456" lon="-1.29299">
        <ele>19.841074</ele>
        <time>2022-07-30T12:59:29.000Z</time>
      </trkpt>
      <trkpt lat="49.64562" lon="-1.29295">
        <ele>19.886403</ele>
        <time>2022-07-30T12:59:30.000Z</time>
      </trkpt>
      <trkpt lat="49.64564" lon="-1.29292">
        <ele>19.927955</ele>
        <time>2022-07-30T12:59:31.000Z</time>
      </trkpt>
      <trkpt lat="49.64566" lon="-1.29289">
        <ele>19.970519</ele>
        <time>2022-07-30T12:59:32.000Z</time>
      </trkpt>
      <trkpt lat="49.64568" lon="-1.29286">
        <ele>20.012654</ele>
        <time>2022-07-30T12:59:33.000Z</time>
      </trkpt>
      <trkpt lat="49.6457" lon="-1.29283">
        <ele>20.054187</ele>
        <time>2022-07-30T12:59:34.000Z</time>
      </trkpt>
      <trkpt lat="49.64573" lon="-1.29281">
        <ele>20.095757</ele>
        <time>2022-07-30T12:59:35.000Z</time>
      </trkpt>
      <trkpt lat="49.64575" lon="-1.29278">
        <ele>20.139777</ele>
        <time>2022-07-30T12:59:36.000Z</time>
      </trkpt>
      <trkpt lat="49.64578" lon="-1.29276">
        <ele>20.186626</ele>
        <time>2022-07-30T12:59:37.000Z</time>
      </trkpt>
      <trkpt lat="49.6458" lon="-1.29272">
        <ele>20.233309</ele>
        <time>2022-07-30T12:59:38.000Z</time>
      </trkpt>
      <trkpt lat="49.64582" lon="-1.29269">
        <ele>20.277984</ele>
        <time>2022-07-30T12:59:39.000Z</time>
      </trkpt>
      <trkpt lat="49.64584" lon="-1.29265">
        <ele>20.321694</ele>
        <time>2022-07-30T12:59:40.000Z</time>
      </trkpt>
      <trkpt lat="49.64586" lon="-1.29261">
        <ele>20.366888</ele>
        <time>2022-07-30T12:59:41.000Z</time>
      </trkpt>
      <trkpt lat="49.64588" lon="-1.29258">
        <ele>20.412836</ele>
        <time>2022-07-30T12:59:42.000Z</time>
      </trkpt>
      <trkpt lat="49.6459" lon="-1.29253">
        <ele>20.467702</ele>
        <time>2022-07-30T12:59:43.000Z</time>
      </trkpt>
      <trkpt lat="49.64592" lon="-1.29248">
        <ele>20.523205</ele>
        <time>2022-07-30T12:59:44.000Z</time>
      </trkpt>
      <trkpt lat="49.64594" lon="-1.29244">
        <ele>20.579486</ele>
        <time>2022-07-30T12:59:45.000Z</time>
      </trkpt>
      <trkpt lat="49.64597" lon="-1.29239">
        <ele>20.635867</ele>
        <time>2022-07-30T12:59:46.000Z</time>
      </trkpt>
      <trkpt lat="49.64599" lon="-1.29234">
        <ele>20.69731</ele>
        <time>2022-07-30T12:59:47.000Z</time>
      </trkpt>
      <trkpt lat="49.64602" lon="-1.29229">
        <ele>20.754772</ele>
        <time>2022-07-30T12:59:48.000Z</time>
      </trkpt>
      <trkpt lat="49.64604" lon="-1.29224">
        <ele>20.808511</ele>
        <time>2022-07-30T12:59:49.000Z</time>
      </trkpt>
      <trkpt lat="49.64607" lon="-1.29219">
        <ele>20.863478</ele>
        <time>2022-07-30T12:59:50.000Z</time>
      </trkpt>
      <trkpt lat="49.6461" lon="-1.29213">
        <ele>20.920236</ele>
        <time>2022-07-30T12:59:51.000Z</time>
      </trkpt>
      <trkpt lat="49.64613" lon="-1.29208">
        <ele>20.975143</ele>
        <time>2022-07-30T12:59:52.000Z</time>
      </trkpt>
      <trkpt lat="49.64615" lon="-1.29203">
        <ele>21.03005</ele>
        <time>2022-07-30T12:59:53.000Z</time>
      </trkpt>
      <trkpt lat="49.64618" lon="-1.29198">
        <ele>21.084122</ele>
        <time>2022-07-30T12:59:54.000Z</time>
      </trkpt>
      <trkpt lat="49.64621" lon="-1.29194">
        <ele>21.136054</ele>
        <time>2022-07-30T12:59:55.000Z</time>
      </trkpt>
      <trkpt lat="49.64623" lon="-1.2919">
        <ele>21.181048</ele>
        <time>2022-07-30T12:59:56.000Z</time>
      </trkpt>
      <trkpt lat="49.64626" lon="-1.29186">
        <ele>21.222137</ele>
        <time>2022-07-30T12:59:57.000Z</time>
      </trkpt>
      <trkpt lat="49.64628" lon="-1.29182">
        <ele>21.262628</ele>
        <time>2022-07-30T12:59:58.000Z</time>
      </trkpt>
      <trkpt lat="49.6463" lon="-1.29179">
        <ele>21.302848</ele>
        <time>2022-07-30T12:59:59.000Z</time>
      </trkpt>
      <trkpt lat="49.64632" lon="-1.29175">
        <ele>21.340207</ele>
        <time>2022-07-30T13:00:00.000Z</time>
      </trkpt>
      <trkpt lat="49.64634" lon="-1.29172">
        <ele>21.380107</ele>
        <time>2022-07-30T13:00:01.000Z</time>
      </trkpt>
      <trkpt lat="49.64637" lon="-1.29169">
        <ele>21.419765</ele>
        <time>2022-07-30T13:00:02.000Z</time>
      </trkpt>
      <trkpt lat="49.64639" lon="-1.29166">
        <ele>21.459759</ele>
        <time>2022-07-30T13:00:03.000Z</time>
      </trkpt>
      <trkpt lat="49.64641" lon="-1.29162">
        <ele>21.500549</ele>
        <time>2022-07-30T13:00:04.000Z</time>
      </trkpt>
      <trkpt lat="49.64644" lon="-1.29159">
        <ele>21.540449</ele>
        <time>2022-07-30T13:00:05.000Z</time>
      </trkpt>
      <trkpt lat="49.64646" lon="-1.29155">
        <ele>21.582403</ele>
        <time>2022-07-30T13:00:06.000Z</time>
      </trkpt>
      <trkpt lat="49.64648" lon="-1.29151">
        <ele>21.620392</ele>
        <time>2022-07-30T13:00:07.000Z</time>
      </trkpt>
      <trkpt lat="49.6465" lon="-1.29147">
        <ele>21.662701</ele>
        <time>2022-07-30T13:00:08.000Z</time>
      </trkpt>
      <trkpt lat="49.64652" lon="-1.29144">
        <ele>21.705249</ele>
        <time>2022-07-30T13:00:09.000Z</time>
      </trkpt>
      <trkpt lat="49.64654" lon="-1.2914">
        <ele>21.743991</ele>
        <time>2022-07-30T13:00:10.000Z</time>
      </trkpt>
      <trkpt lat="49.64657" lon="-1.29137">
        <ele>21.787561</ele>
        <time>2022-07-30T13:00:11.000Z</time>
      </trkpt>
      <trkpt lat="49.64659" lon="-1.29133">
        <ele>21.82987</ele>
        <time>2022-07-30T13:00:12.000Z</time>
      </trkpt>
      <trkpt lat="49.64662" lon="-1.29129">
        <ele>21.876811</ele>
        <time>2022-07-30T13:00:13.000Z</time>
      </trkpt>
      <trkpt lat="49.64664" lon="-1.29125">
        <ele>21.918719</ele>
        <time>2022-07-30T13:00:14.000Z</time>
      </trkpt>
      <trkpt lat="49.64666" lon="-1.2912">
        <ele>21.962908</ele>
        <time>2022-07-30T13:00:15.000Z</time>
      </trkpt>
      <trkpt lat="49.64668" lon="-1.29116">
        <ele>22.003486</ele>
        <time>2022-07-30T13:00:16.000Z</time>
      </trkpt>
      <trkpt lat="49.6467" lon="-1.29112">
        <ele>22.047858</ele>
        <time>2022-07-30T13:00:17.000Z</time>
      </trkpt>
      <trkpt lat="49.64672" lon="-1.29108">
        <ele>22.089766</ele>
        <time>2022-07-30T13:00:18.000Z</time>
      </trkpt>
      <trkpt lat="49.64674" lon="-1.29105">
        <ele>22.128509</ele>
        <time>2022-07-30T13:00:19.000Z</time>
      </trkpt>
      <trkpt lat="49.64677" lon="-1.29102">
        <ele>22.170507</ele>
        <time>2022-07-30T13:00:20.000Z</time>
      </trkpt>
      <trkpt lat="49.64679" lon="-1.29099">
        <ele>22.210549</ele>
        <time>2022-07-30T13:00:21.000Z</time>
      </trkpt>
      <trkpt lat="49.64682" lon="-1.29096">
        <ele>22.247087</ele>
        <time>2022-07-30T13:00:22.000Z</time>
      </trkpt>
      <trkpt lat="49.64684" lon="-1.29093">
        <ele>22.283207</ele>
        <time>2022-07-30T13:00:23.000Z</time>
      </trkpt>
      <trkpt lat="49.64686" lon="-1.29089">
        <ele>22.322314</ele>
        <time>2022-07-30T13:00:24.000Z</time>
      </trkpt>
      <trkpt lat="49.64688" lon="-1.29086">
        <ele>22.361056</ele>
        <time>2022-07-30T13:00:25.000Z</time>
      </trkpt>
      <trkpt lat="49.6469" lon="-1.29083">
        <ele>22.395382</ele>
        <time>2022-07-30T13:00:26.000Z</time>
      </trkpt>
      <trkpt lat="49.64692" lon="-1.2908">
        <ele>22.43504</ele>
        <time>2022-07-30T13:00:27.000Z</time>
      </trkpt>
      <trkpt lat="49.64695" lon="-1.29076">
        <ele>22.477121</ele>
        <time>2022-07-30T13:00:28.000Z</time>
      </trkpt>
      <trkpt lat="49.64697" lon="-1.29073">
        <ele>22.516779</ele>
        <time>2022-07-30T13:00:29.000Z</time>
      </trkpt>
      <trkpt lat="49.64699" lon="-1.2907">
        <ele>22.555522</ele>
        <time>2022-07-30T13:00:30.000Z</time>
      </trkpt>
      <trkpt lat="49.64702" lon="-1.29066">
        <ele>22.598559</ele>
        <time>2022-07-30T13:00:31.000Z</time>
      </trkpt>
      <trkpt lat="49.64705" lon="-1.29063">
        <ele>22.64208</ele>
        <time>2022-07-30T13:00:32.000Z</time>
      </trkpt>
      <trkpt lat="49.64707" lon="-1.2906">
        <ele>22.684078</ele>
        <time>2022-07-30T13:00:33.000Z</time>
      </trkpt>
      <trkpt lat="49.64709" lon="-1.29057">
        <ele>22.721153</ele>
        <time>2022-07-30T13:00:34.000Z</time>
      </trkpt>
      <trkpt lat="49.64712" lon="-1.29054">
        <ele>22.763151</ele>
        <time>2022-07-30T13:00:35.000Z</time>
      </trkpt>
      <trkpt lat="49.64715" lon="-1.29051">
        <ele>22.807705</ele>
        <time>2022-07-30T13:00:36.000Z</time>
      </trkpt>
      <trkpt lat="49.64717" lon="-1.29048">
        <ele>22.848723</ele>
        <time>2022-07-30T13:00:37.000Z</time>
      </trkpt>
      <trkpt lat="49.64721" lon="-1.29044">
        <ele>22.896882</ele>
        <time>2022-07-30T13:00:38.000Z</time>
      </trkpt>
      <trkpt lat="49.64724" lon="-1.29041">
        <ele>22.941435</ele>
        <time>2022-07-30T13:00:39.000Z</time>
      </trkpt>
      <trkpt lat="49.64726" lon="-1.29039">
        <ele>22.9765</ele>
        <time>2022-07-30T13:00:40.000Z</time>
      </trkpt>
      <trkpt lat="49.6473" lon="-1.29036">
        <ele>23.025575</ele>
        <time>2022-07-30T13:00:41.000Z</time>
      </trkpt>
      <trkpt lat="49.64733" lon="-1.29033">
        <ele>23.033258</ele>
        <time>2022-07-30T13:00:42.000Z</time>
      </trkpt>
      <trkpt lat="49.64736" lon="-1.29031">
        <ele>23.040302</ele>
        <time>2022-07-30T13:00:43.000Z</time>
      </trkpt>
      <trkpt lat="49.64739" lon="-1.29028">
        <ele>23.046455</ele>
        <time>2022-07-30T13:00:44.000Z</time>
      </trkpt>
      <trkpt lat="49.64742" lon="-1.29025">
        <ele>23.053041</ele>
        <time>2022-07-30T13:00:45.000Z</time>
      </trkpt>
      <trkpt lat="49.64745" lon="-1.29023">
        <ele>23.060614</ele>
        <time>2022-07-30T13:00:46.000Z</time>
      </trkpt>
      <trkpt lat="49.64749" lon="-1.2902">
        <ele>23.068298</ele>
        <time>2022-07-30T13:00:47.000Z</time>
      </trkpt>
      <trkpt lat="49.64752" lon="-1.29018">
        <ele>23.074821</ele>
        <time>2022-07-30T13:00:48.000Z</time>
      </trkpt>
      <trkpt lat="49.64755" lon="-1.29015">
        <ele>23.082242</ele>
        <time>2022-07-30T13:00:49.000Z</time>
      </trkpt>
      <trkpt lat="49.64758" lon="-1.29013">
        <ele>23.089071</ele>
        <time>2022-07-30T13:00:50.000Z</time>
      </trkpt>
      <trkpt lat="49.64762" lon="-1.29011">
        <ele>23.096058</ele>
        <time>2022-07-30T13:00:51.000Z</time>
      </trkpt>
      <trkpt lat="49.64765" lon="-1.29009">
        <ele>23.10299</ele>
        <time>2022-07-30T13:00:52.000Z</time>
      </trkpt>
      <trkpt lat="49.64768" lon="-1.29006">
        <ele>23.10964</ele>
        <time>2022-07-30T13:00:53.000Z</time>
      </trkpt>
      <trkpt lat="49.64771" lon="-1.29003">
        <ele>23.116864</ele>
        <time>2022-07-30T13:00:54.000Z</time>
      </trkpt>
      <trkpt lat="49.64773" lon="-1.29">
        <ele>23.122855</ele>
        <time>2022-07-30T13:00:55.000Z</time>
      </trkpt>
      <trkpt lat="49.64777" lon="-1.28998">
        <ele>23.129956</ele>
        <time>2022-07-30T13:00:56.000Z</time>
      </trkpt>
      <trkpt lat="49.64779" lon="-1.28995">
        <ele>23.136255</ele>
        <time>2022-07-30T13:00:57.000Z</time>
      </trkpt>
      <trkpt lat="49.64782" lon="-1.28992">
        <ele>23.142841</ele>
        <time>2022-07-30T13:00:58.000Z</time>
      </trkpt>
      <trkpt lat="49.64785" lon="-1.2899">
        <ele>23.148832</ele>
        <time>2022-07-30T13:00:59.000Z</time>
      </trkpt>
      <trkpt lat="49.64787" lon="-1.28987">
        <ele>23.154356</ele>
        <time>2022-07-30T13:01:00.000Z</time>
      </trkpt>
      <trkpt lat="49.64789" lon="-1.28985">
        <ele>23.160205</ele>
        <time>2022-07-30T13:01:01.000Z</time>
      </trkpt>
      <trkpt lat="49.64792" lon="-1.28982">
        <ele>23.166359</ele>
        <time>2022-07-30T13:01:02.000Z</time>
      </trkpt>
      <trkpt lat="49.64794" lon="-1.2898">
        <ele>23.171577</ele>
        <time>2022-07-30T13:01:03.000Z</time>
      </trkpt>
      <trkpt lat="49.64797" lon="-1.28977">
        <ele>23.177802</ele>
        <time>2022-07-30T13:01:04.000Z</time>
      </trkpt>
      <trkpt lat="49.64799" lon="-1.28974">
        <ele>23.184101</ele>
        <time>2022-07-30T13:01:05.000Z</time>
      </trkpt>
      <trkpt lat="49.64802" lon="-1.28971">
        <ele>23.190166</ele>
        <time>2022-07-30T13:01:06.000Z</time>
      </trkpt>
      <trkpt lat="49.64804" lon="-1.28968">
        <ele>23.195918</ele>
        <time>2022-07-30T13:01:07.000Z</time>
      </trkpt>
      <trkpt lat="49.64806" lon="-1.28965">
        <ele>23.201598</ele>
        <time>2022-07-30T13:01:08.000Z</time>
      </trkpt>
      <trkpt lat="49.64808" lon="-1.28963">
        <ele>23.2065</ele>
        <time>2022-07-30T13:01:09.000Z</time>
      </trkpt>
      <trkpt lat="49.6481" lon="-1.2896">
        <ele>23.211403</ele>
        <time>2022-07-30T13:01:10.000Z</time>
      </trkpt>
      <trkpt lat="49.64813" lon="-1.28956">
        <ele>23.218301</ele>
        <time>2022-07-30T13:01:12.000Z</time>
      </trkpt>
      <trkpt lat="49.64818" lon="-1.2895">
        <ele>23.232142</ele>
        <time>2022-07-30T13:01:41.000Z</time>
      </trkpt>
      <trkpt lat="49.64821" lon="-1.28946">
        <ele>23.238915</ele>
        <time>2022-07-30T13:01:42.000Z</time>
      </trkpt>
      <trkpt lat="49.64824" lon="-1.28943">
        <ele>23.246223</ele>
        <time>2022-07-30T13:01:43.000Z</time>
      </trkpt>
      <trkpt lat="49.64826" lon="-1.28939">
        <ele>23.253023</ele>
        <time>2022-07-30T13:01:44.000Z</time>
      </trkpt>
      <trkpt lat="49.64829" lon="-1.28936">
        <ele>23.260023</ele>
        <time>2022-07-30T13:01:45.000Z</time>
      </trkpt>
      <trkpt lat="49.64832" lon="-1.28933">
        <ele>23.26758</ele>
        <time>2022-07-30T13:01:46.000Z</time>
      </trkpt>
      <trkpt lat="49.64835" lon="-1.28929">
        <ele>23.27419</ele>
        <time>2022-07-30T13:01:47.000Z</time>
      </trkpt>
      <trkpt lat="49.64838" lon="-1.28926">
        <ele>23.281818</ele>
        <time>2022-07-30T13:01:48.000Z</time>
      </trkpt>
      <trkpt lat="49.64841" lon="-1.28923">
        <ele>23.288277</ele>
        <time>2022-07-30T13:01:49.000Z</time>
      </trkpt>
      <trkpt lat="49.64843" lon="-1.28919">
        <ele>23.294799</ele>
        <time>2022-07-30T13:01:50.000Z</time>
      </trkpt>
      <trkpt lat="49.64846" lon="-1.28915">
        <ele>23.302436</ele>
        <time>2022-07-30T13:01:51.000Z</time>
      </trkpt>
      <trkpt lat="49.64848" lon="-1.28911">
        <ele>23.30911</ele>
        <time>2022-07-30T13:01:52.000Z</time>
      </trkpt>
      <trkpt lat="49.6485" lon="-1.28907">
        <ele>23.315405</ele>
        <time>2022-07-30T13:01:53.000Z</time>
      </trkpt>
      <trkpt lat="49.64853" lon="-1.28904">
        <ele>23.322096</ele>
        <time>2022-07-30T13:01:54.000Z</time>
      </trkpt>
      <trkpt lat="49.64856" lon="-1.28901">
        <ele>23.329022</ele>
        <time>2022-07-30T13:01:55.000Z</time>
      </trkpt>
      <trkpt lat="49.64858" lon="-1.28898">
        <ele>23.335399</ele>
        <time>2022-07-30T13:01:56.000Z</time>
      </trkpt>
      <trkpt lat="49.64861" lon="-1.28894">
        <ele>23.341741</ele>
        <time>2022-07-30T13:01:57.000Z</time>
      </trkpt>
      <trkpt lat="49.64863" lon="-1.28891">
        <ele>23.348969</ele>
        <time>2022-07-30T13:01:58.000Z</time>
      </trkpt>
      <trkpt lat="49.64865" lon="-1.28888">
        <ele>23.353718</ele>
        <time>2022-07-30T13:01:59.000Z</time>
      </trkpt>
      <trkpt lat="49.64868" lon="-1.28884">
        <ele>23.360955</ele>
        <time>2022-07-30T13:02:00.000Z</time>
      </trkpt>
      <trkpt lat="49.64871" lon="-1.2888">
        <ele>23.368851</ele>
        <time>2022-07-30T13:02:01.000Z</time>
      </trkpt>
      <trkpt lat="49.64874" lon="-1.28876">
        <ele>23.376239</ele>
        <time>2022-07-30T13:02:02.000Z</time>
      </trkpt>
      <trkpt lat="49.64876" lon="-1.28872">
        <ele>23.368712</ele>
        <time>2022-07-30T13:02:03.000Z</time>
      </trkpt>
      <trkpt lat="49.64879" lon="-1.28869">
        <ele>23.357582</ele>
        <time>2022-07-30T13:02:04.000Z</time>
      </trkpt>
      <trkpt lat="49.64882" lon="-1.28865">
        <ele>23.344852</ele>
        <time>2022-07-30T13:02:05.000Z</time>
      </trkpt>
      <trkpt lat="49.64884" lon="-1.28861">
        <ele>23.332433</ele>
        <time>2022-07-30T13:02:06.000Z</time>
      </trkpt>
      <trkpt lat="49.64887" lon="-1.28857">
        <ele>23.31977</ele>
        <time>2022-07-30T13:02:07.000Z</time>
      </trkpt>
      <trkpt lat="49.6489" lon="-1.28853">
        <ele>23.305838</ele>
        <time>2022-07-30T13:02:08.000Z</time>
      </trkpt>
      <trkpt lat="49.64893" lon="-1.28849">
        <ele>23.293419</ele>
        <time>2022-07-30T13:02:09.000Z</time>
      </trkpt>
      <trkpt lat="49.64896" lon="-1.28845">
        <ele>23.279759</ele>
        <time>2022-07-30T13:02:10.000Z</time>
      </trkpt>
      <trkpt lat="49.64898" lon="-1.28841">
        <ele>23.267577</ele>
        <time>2022-07-30T13:02:11.000Z</time>
      </trkpt>
      <trkpt lat="49.64901" lon="-1.28837">
        <ele>23.255855</ele>
        <time>2022-07-30T13:02:12.000Z</time>
      </trkpt>
      <trkpt lat="49.64903" lon="-1.28833">
        <ele>23.244018</ele>
        <time>2022-07-30T13:02:13.000Z</time>
      </trkpt>
      <trkpt lat="49.64906" lon="-1.2883">
        <ele>23.231562</ele>
        <time>2022-07-30T13:02:14.000Z</time>
      </trkpt>
      <trkpt lat="49.64908" lon="-1.28826">
        <ele>23.220312</ele>
        <time>2022-07-30T13:02:15.000Z</time>
      </trkpt>
      <trkpt lat="49.64911" lon="-1.28823">
        <ele>23.208779</ele>
        <time>2022-07-30T13:02:16.000Z</time>
      </trkpt>
      <trkpt lat="49.64914" lon="-1.2882">
        <ele>23.197663</ele>
        <time>2022-07-30T13:02:17.000Z</time>
      </trkpt>
      <trkpt lat="49.64916" lon="-1.28817">
        <ele>23.187131</ele>
        <time>2022-07-30T13:02:18.000Z</time>
      </trkpt>
      <trkpt lat="49.64918" lon="-1.28813">
        <ele>23.175459</ele>
        <time>2022-07-30T13:02:19.000Z</time>
      </trkpt>
      <trkpt lat="49.64921" lon="-1.28809">
        <ele>23.162884</ele>
        <time>2022-07-30T13:02:20.000Z</time>
      </trkpt>
      <trkpt lat="49.64923" lon="-1.28805">
        <ele>23.15155</ele>
        <time>2022-07-30T13:02:21.000Z</time>
      </trkpt>
      <trkpt lat="49.64926" lon="-1.28802">
        <ele>23.139436</ele>
        <time>2022-07-30T13:02:22.000Z</time>
      </trkpt>
      <trkpt lat="49.64928" lon="-1.28798">
        <ele>23.127719</ele>
        <time>2022-07-30T13:02:23.000Z</time>
      </trkpt>
      <trkpt lat="49.64931" lon="-1.28795">
        <ele>23.11633</ele>
        <time>2022-07-30T13:02:24.000Z</time>
      </trkpt>
      <trkpt lat="49.64934" lon="-1.28791">
        <ele>23.1036</ele>
        <time>2022-07-30T13:02:25.000Z</time>
      </trkpt>
      <trkpt lat="49.64936" lon="-1.28787">
        <ele>23.092753</ele>
        <time>2022-07-30T13:02:26.000Z</time>
      </trkpt>
      <trkpt lat="49.64939" lon="-1.28783">
        <ele>23.079595</ele>
        <time>2022-07-30T13:02:27.000Z</time>
      </trkpt>
      <trkpt lat="49.64941" lon="-1.28779">
        <ele>23.067414</ele>
        <time>2022-07-30T13:02:28.000Z</time>
      </trkpt>
      <trkpt lat="49.64944" lon="-1.28776">
        <ele>23.054684</ele>
        <time>2022-07-30T13:02:29.000Z</time>
      </trkpt>
      <trkpt lat="49.64947" lon="-1.28772">
        <ele>23.041954</ele>
        <time>2022-07-30T13:02:30.000Z</time>
      </trkpt>
      <trkpt lat="49.6495" lon="-1.28768">
        <ele>23.029084</ele>
        <time>2022-07-30T13:02:31.000Z</time>
      </trkpt>
      <trkpt lat="49.64953" lon="-1.28764">
        <ele>23.015926</ele>
        <time>2022-07-30T13:02:32.000Z</time>
      </trkpt>
      <trkpt lat="49.64956" lon="-1.2876">
        <ele>23.003744</ele>
        <time>2022-07-30T13:02:33.000Z</time>
      </trkpt>
      <trkpt lat="49.64958" lon="-1.28756">
        <ele>22.99163</ele>
        <time>2022-07-30T13:02:34.000Z</time>
      </trkpt>
      <trkpt lat="49.64961" lon="-1.28752">
        <ele>22.977835</ele>
        <time>2022-07-30T13:02:35.000Z</time>
      </trkpt>
      <trkpt lat="49.64964" lon="-1.28749">
        <ele>22.966268</ele>
        <time>2022-07-30T13:02:36.000Z</time>
      </trkpt>
      <trkpt lat="49.64967" lon="-1.28745">
        <ele>22.953255</ele>
        <time>2022-07-30T13:02:37.000Z</time>
      </trkpt>
      <trkpt lat="49.6497" lon="-1.2874">
        <ele>22.939343</ele>
        <time>2022-07-30T13:02:38.000Z</time>
      </trkpt>
      <trkpt lat="49.64973" lon="-1.28736">
        <ele>22.925412</ele>
        <time>2022-07-30T13:02:39.000Z</time>
      </trkpt>
      <trkpt lat="49.64975" lon="-1.28732">
        <ele>22.912837</ele>
        <time>2022-07-30T13:02:40.000Z</time>
      </trkpt>
      <trkpt lat="49.64979" lon="-1.28728">
        <ele>22.898625</ele>
        <time>2022-07-30T13:02:41.000Z</time>
      </trkpt>
      <trkpt lat="49.64981" lon="-1.28724">
        <ele>22.886011</ele>
        <time>2022-07-30T13:02:42.000Z</time>
      </trkpt>
      <trkpt lat="49.64984" lon="-1.2872">
        <ele>22.873746</ele>
        <time>2022-07-30T13:02:43.000Z</time>
      </trkpt>
      <trkpt lat="49.64987" lon="-1.28717">
        <ele>22.861155</ele>
        <time>2022-07-30T13:02:44.000Z</time>
      </trkpt>
      <trkpt lat="49.6499" lon="-1.28713">
        <ele>22.848425</ele>
        <time>2022-07-30T13:02:45.000Z</time>
      </trkpt>
      <trkpt lat="49.64992" lon="-1.28709">
        <ele>22.837905</ele>
        <time>2022-07-30T13:02:46.000Z</time>
      </trkpt>
      <trkpt lat="49.64994" lon="-1.28705">
        <ele>22.826571</ele>
        <time>2022-07-30T13:02:47.000Z</time>
      </trkpt>
      <trkpt lat="49.64997" lon="-1.28702">
        <ele>22.814754</ele>
        <time>2022-07-30T13:02:48.000Z</time>
      </trkpt>
      <trkpt lat="49.64999" lon="-1.28698">
        <ele>22.803336</ele>
        <time>2022-07-30T13:02:49.000Z</time>
      </trkpt>
      <trkpt lat="49.65001" lon="-1.28695">
        <ele>22.792097</ele>
        <time>2022-07-30T13:02:50.000Z</time>
      </trkpt>
      <trkpt lat="49.65004" lon="-1.28692">
        <ele>22.782165</ele>
        <time>2022-07-30T13:02:51.000Z</time>
      </trkpt>
      <trkpt lat="49.65006" lon="-1.28688">
        <ele>22.770104</ele>
        <time>2022-07-30T13:02:52.000Z</time>
      </trkpt>
      <trkpt lat="49.65009" lon="-1.28685">
        <ele>22.755235</ele>
        <time>2022-07-30T13:02:53.000Z</time>
      </trkpt>
      <trkpt lat="49.65012" lon="-1.28682">
        <ele>22.740198</ele>
        <time>2022-07-30T13:02:54.000Z</time>
      </trkpt>
      <trkpt lat="49.65015" lon="-1.28679">
        <ele>22.722039</ele>
        <time>2022-07-30T13:02:55.000Z</time>
      </trkpt>
      <trkpt lat="49.65017" lon="-1.28675">
        <ele>22.706454</ele>
        <time>2022-07-30T13:02:56.000Z</time>
      </trkpt>
      <trkpt lat="49.65021" lon="-1.28672">
        <ele>22.688466</ele>
        <time>2022-07-30T13:02:57.000Z</time>
      </trkpt>
      <trkpt lat="49.65023" lon="-1.28669">
        <ele>22.673619</ele>
        <time>2022-07-30T13:02:58.000Z</time>
      </trkpt>
      <trkpt lat="49.65026" lon="-1.28666">
        <ele>22.659109</ele>
        <time>2022-07-30T13:02:59.000Z</time>
      </trkpt>
      <trkpt lat="49.65028" lon="-1.28663">
        <ele>22.645518</ele>
        <time>2022-07-30T13:03:00.000Z</time>
      </trkpt>
      <trkpt lat="49.6503" lon="-1.28661">
        <ele>22.634147</ele>
        <time>2022-07-30T13:03:01.000Z</time>
      </trkpt>
      <trkpt lat="49.65032" lon="-1.28657">
        <ele>22.620452</ele>
        <time>2022-07-30T13:03:03.000Z</time>
      </trkpt>
      <trkpt lat="49.65023" lon="-1.28659">
        <ele>22.578343</ele>
        <time>2022-07-30T13:03:29.000Z</time>
      </trkpt>
      <trkpt lat="49.6503" lon="-1.28652">
        <ele>22.539172</ele>
        <time>2022-07-30T13:03:39.000Z</time>
      </trkpt>
      <trkpt lat="49.65033" lon="-1.2865">
        <ele>22.523885</ele>
        <time>2022-07-30T13:03:40.000Z</time>
      </trkpt>
      <trkpt lat="49.65035" lon="-1.28647">
        <ele>22.511196</ele>
        <time>2022-07-30T13:03:41.000Z</time>
      </trkpt>
      <trkpt lat="49.65038" lon="-1.28644">
        <ele>22.495031</ele>
        <time>2022-07-30T13:03:42.000Z</time>
      </trkpt>
      <trkpt lat="49.65041" lon="-1.28641">
        <ele>22.476196</ele>
        <time>2022-07-30T13:03:43.000Z</time>
      </trkpt>
      <trkpt lat="49.65045" lon="-1.28638">
        <ele>22.457658</ele>
        <time>2022-07-30T13:03:44.000Z</time>
      </trkpt>
      <trkpt lat="49.65048" lon="-1.28635">
        <ele>22.439404</ele>
        <time>2022-07-30T13:03:45.000Z</time>
      </trkpt>
      <trkpt lat="49.65052" lon="-1.28633">
        <ele>22.422517</ele>
        <time>2022-07-30T13:03:46.000Z</time>
      </trkpt>
      <trkpt lat="49.65055" lon="-1.2863">
        <ele>22.404659</ele>
        <time>2022-07-30T13:03:47.000Z</time>
      </trkpt>
      <trkpt lat="49.65059" lon="-1.28627">
        <ele>22.385272</ele>
        <time>2022-07-30T13:03:48.000Z</time>
      </trkpt>
      <trkpt lat="49.65061" lon="-1.28623">
        <ele>22.36859</ele>
        <time>2022-07-30T13:03:49.000Z</time>
      </trkpt>
      <trkpt lat="49.65065" lon="-1.28619">
        <ele>22.349713</ele>
        <time>2022-07-30T13:03:50.000Z</time>
      </trkpt>
      <trkpt lat="49.65068" lon="-1.28616">
        <ele>22.329851</ele>
        <time>2022-07-30T13:03:51.000Z</time>
      </trkpt>
      <trkpt lat="49.65071" lon="-1.28612">
        <ele>22.311339</ele>
        <time>2022-07-30T13:03:52.000Z</time>
      </trkpt>
      <trkpt lat="49.65075" lon="-1.28608">
        <ele>22.290375</ele>
        <time>2022-07-30T13:03:53.000Z</time>
      </trkpt>
      <trkpt lat="49.65078" lon="-1.28604">
        <ele>22.270533</ele>
        <time>2022-07-30T13:03:54.000Z</time>
      </trkpt>
      <trkpt lat="49.65082" lon="-1.28599">
        <ele>22.249444</ele>
        <time>2022-07-30T13:03:55.000Z</time>
      </trkpt>
      <trkpt lat="49.65085" lon="-1.28595">
        <ele>22.230406</ele>
        <time>2022-07-30T13:03:56.000Z</time>
      </trkpt>
      <trkpt lat="49.65088" lon="-1.2859">
        <ele>22.210161</ele>
        <time>2022-07-30T13:03:57.000Z</time>
      </trkpt>
      <trkpt lat="49.65091" lon="-1.28586">
        <ele>22.190694</ele>
        <time>2022-07-30T13:03:58.000Z</time>
      </trkpt>
      <trkpt lat="49.65094" lon="-1.28581">
        <ele>22.170244</ele>
        <time>2022-07-30T13:03:59.000Z</time>
      </trkpt>
      <trkpt lat="49.65097" lon="-1.28576">
        <ele>22.150116</ele>
        <time>2022-07-30T13:04:00.000Z</time>
      </trkpt>
      <trkpt lat="49.651" lon="-1.28571">
        <ele>22.128387</ele>
        <time>2022-07-30T13:04:01.000Z</time>
      </trkpt>
      <trkpt lat="49.65103" lon="-1.28565">
        <ele>22.107408</ele>
        <time>2022-07-30T13:04:02.000Z</time>
      </trkpt>
      <trkpt lat="49.65106" lon="-1.2856">
        <ele>22.085237</ele>
        <time>2022-07-30T13:04:03.000Z</time>
      </trkpt>
      <trkpt lat="49.65109" lon="-1.28554">
        <ele>22.065299</ele>
        <time>2022-07-30T13:04:04.000Z</time>
      </trkpt>
      <trkpt lat="49.65112" lon="-1.28549">
        <ele>22.04335</ele>
        <time>2022-07-30T13:04:05.000Z</time>
      </trkpt>
      <trkpt lat="49.65115" lon="-1.28544">
        <ele>22.022543</ele>
        <time>2022-07-30T13:04:06.000Z</time>
      </trkpt>
      <trkpt lat="49.65118" lon="-1.28538">
        <ele>21.999922</ele>
        <time>2022-07-30T13:04:07.000Z</time>
      </trkpt>
      <trkpt lat="49.65121" lon="-1.28533">
        <ele>21.980261</ele>
        <time>2022-07-30T13:04:08.000Z</time>
      </trkpt>
      <trkpt lat="49.65124" lon="-1.28527">
        <ele>21.95764</ele>
        <time>2022-07-30T13:04:09.000Z</time>
      </trkpt>
      <trkpt lat="49.65126" lon="-1.28521">
        <ele>21.936488</ele>
        <time>2022-07-30T13:04:10.000Z</time>
      </trkpt>
      <trkpt lat="49.6513" lon="-1.28515">
        <ele>21.877829</ele>
        <time>2022-07-30T13:04:11.000Z</time>
      </trkpt>
      <trkpt lat="49.65133" lon="-1.2851">
        <ele>21.82381</ele>
        <time>2022-07-30T13:04:12.000Z</time>
      </trkpt>
      <trkpt lat="49.65136" lon="-1.28504">
        <ele>21.767027</ele>
        <time>2022-07-30T13:04:13.000Z</time>
      </trkpt>
      <trkpt lat="49.65139" lon="-1.28498">
        <ele>21.711233</ele>
        <time>2022-07-30T13:04:14.000Z</time>
      </trkpt>
      <trkpt lat="49.65142" lon="-1.28492">
        <ele>21.649938</ele>
        <time>2022-07-30T13:04:15.000Z</time>
      </trkpt>
      <trkpt lat="49.65146" lon="-1.28486">
        <ele>21.592013</ele>
        <time>2022-07-30T13:04:16.000Z</time>
      </trkpt>
      <trkpt lat="49.65149" lon="-1.2848">
        <ele>21.53523</ele>
        <time>2022-07-30T13:04:17.000Z</time>
      </trkpt>
      <trkpt lat="49.65152" lon="-1.28474">
        <ele>21.475602</ele>
        <time>2022-07-30T13:04:18.000Z</time>
      </trkpt>
      <trkpt lat="49.65156" lon="-1.28468">
        <ele>21.414316</ele>
        <time>2022-07-30T13:04:19.000Z</time>
      </trkpt>
      <trkpt lat="49.6516" lon="-1.28462">
        <ele>21.354688</ele>
        <time>2022-07-30T13:04:20.000Z</time>
      </trkpt>
      <trkpt lat="49.65164" lon="-1.28456">
        <ele>21.292145</ele>
        <time>2022-07-30T13:04:21.000Z</time>
      </trkpt>
      <trkpt lat="49.65167" lon="-1.2845">
        <ele>21.227194</ele>
        <time>2022-07-30T13:04:22.000Z</time>
      </trkpt>
      <trkpt lat="49.65171" lon="-1.28444">
        <ele>21.163034</ele>
        <time>2022-07-30T13:04:23.000Z</time>
      </trkpt>
      <trkpt lat="49.65175" lon="-1.28437">
        <ele>21.100608</ele>
        <time>2022-07-30T13:04:24.000Z</time>
      </trkpt>
      <trkpt lat="49.65179" lon="-1.28431">
        <ele>21.035658</ele>
        <time>2022-07-30T13:04:25.000Z</time>
      </trkpt>
      <trkpt lat="49.65182" lon="-1.28425">
        <ele>20.972661</ele>
        <time>2022-07-30T13:04:26.000Z</time>
      </trkpt>
      <trkpt lat="49.65186" lon="-1.28418">
        <ele>20.905727</ele>
        <time>2022-07-30T13:04:27.000Z</time>
      </trkpt>
      <trkpt lat="49.6519" lon="-1.28411">
        <ele>20.836912</ele>
        <time>2022-07-30T13:04:28.000Z</time>
      </trkpt>
      <trkpt lat="49.65193" lon="-1.28404">
        <ele>20.772763</ele>
        <time>2022-07-30T13:04:29.000Z</time>
      </trkpt>
      <trkpt lat="49.65197" lon="-1.28397">
        <ele>20.706391</ele>
        <time>2022-07-30T13:04:30.000Z</time>
      </trkpt>
      <trkpt lat="49.652" lon="-1.2839">
        <ele>20.642539</ele>
        <time>2022-07-30T13:04:31.000Z</time>
      </trkpt>
      <trkpt lat="49.65204" lon="-1.28383">
        <ele>20.576635</ele>
        <time>2022-07-30T13:04:32.000Z</time>
      </trkpt>
      <trkpt lat="49.65207" lon="-1.28376">
        <ele>20.509704</ele>
        <time>2022-07-30T13:04:33.000Z</time>
      </trkpt>
      <trkpt lat="49.6521" lon="-1.28369">
        <ele>20.444014</ele>
        <time>2022-07-30T13:04:34.000Z</time>
      </trkpt>
      <trkpt lat="49.65213" lon="-1.28362">
        <ele>20.380162</ele>
        <time>2022-07-30T13:04:35.000Z</time>
      </trkpt>
      <trkpt lat="49.65217" lon="-1.28354">
        <ele>20.312375</ele>
        <time>2022-07-30T13:04:36.000Z</time>
      </trkpt>
      <trkpt lat="49.6522" lon="-1.28347">
        <ele>20.247913</ele>
        <time>2022-07-30T13:04:37.000Z</time>
      </trkpt>
      <trkpt lat="49.65224" lon="-1.2834">
        <ele>20.179022</ele>
        <time>2022-07-30T13:04:38.000Z</time>
      </trkpt>
      <trkpt lat="49.65227" lon="-1.28332">
        <ele>20.110735</ele>
        <time>2022-07-30T13:04:39.000Z</time>
      </trkpt>
      <trkpt lat="49.6523" lon="-1.28325">
        <ele>20.045641</ele>
        <time>2022-07-30T13:04:40.000Z</time>
      </trkpt>
      <trkpt lat="49.65234" lon="-1.28318">
        <ele>19.979146</ele>
        <time>2022-07-30T13:04:41.000Z</time>
      </trkpt>
      <trkpt lat="49.65237" lon="-1.28311">
        <ele>19.914071</ele>
        <time>2022-07-30T13:04:42.000Z</time>
      </trkpt>
      <trkpt lat="49.6524" lon="-1.28303">
        <ele>19.861098</ele>
        <time>2022-07-30T13:04:43.000Z</time>
      </trkpt>
      <trkpt lat="49.65242" lon="-1.28296">
        <ele>19.84231</ele>
        <time>2022-07-30T13:04:44.000Z</time>
      </trkpt>
      <trkpt lat="49.65245" lon="-1.28289">
        <ele>19.82278</ele>
        <time>2022-07-30T13:04:45.000Z</time>
      </trkpt>
      <trkpt lat="49.65248" lon="-1.28283">
        <ele>19.804423</ele>
        <time>2022-07-30T13:04:46.000Z</time>
      </trkpt>
      <trkpt lat="49.6525" lon="-1.28276">
        <ele>19.786045</ele>
        <time>2022-07-30T13:04:47.000Z</time>
      </trkpt>
      <trkpt lat="49.65253" lon="-1.28269">
        <ele>19.766098</ele>
        <time>2022-07-30T13:04:48.000Z</time>
      </trkpt>
      <trkpt lat="49.65256" lon="-1.28262">
        <ele>19.748483</ele>
        <time>2022-07-30T13:04:49.000Z</time>
      </trkpt>
      <trkpt lat="49.65259" lon="-1.28256">
        <ele>19.729543</ele>
        <time>2022-07-30T13:04:50.000Z</time>
      </trkpt>
      <trkpt lat="49.65261" lon="-1.28249">
        <ele>19.711888</ele>
        <time>2022-07-30T13:04:51.000Z</time>
      </trkpt>
      <trkpt lat="49.65263" lon="-1.28242">
        <ele>19.693732</ele>
        <time>2022-07-30T13:04:52.000Z</time>
      </trkpt>
      <trkpt lat="49.65266" lon="-1.28236">
        <ele>19.675964</ele>
        <time>2022-07-30T13:04:53.000Z</time>
      </trkpt>
      <trkpt lat="49.65269" lon="-1.28229">
        <ele>19.657413</ele>
        <time>2022-07-30T13:04:54.000Z</time>
      </trkpt>
      <trkpt lat="49.65271" lon="-1.28223">
        <ele>19.640384</ele>
        <time>2022-07-30T13:04:55.000Z</time>
      </trkpt>
      <trkpt lat="49.65274" lon="-1.28217">
        <ele>19.622826</ele>
        <time>2022-07-30T13:04:56.000Z</time>
      </trkpt>
      <trkpt lat="49.65277" lon="-1.2821">
        <ele>19.604274</ele>
        <time>2022-07-30T13:04:57.000Z</time>
      </trkpt>
      <trkpt lat="49.65279" lon="-1.28204">
        <ele>19.586507</ele>
        <time>2022-07-30T13:04:58.000Z</time>
      </trkpt>
      <trkpt lat="49.65281" lon="-1.28197">
        <ele>19.569509</ele>
        <time>2022-07-30T13:04:59.000Z</time>
      </trkpt>
      <trkpt lat="49.65284" lon="-1.28191">
        <ele>19.551854</ele>
        <time>2022-07-30T13:05:00.000Z</time>
      </trkpt>
      <trkpt lat="49.65286" lon="-1.28184">
        <ele>19.533688</ele>
        <time>2022-07-30T13:05:01.000Z</time>
      </trkpt>
      <trkpt lat="49.65289" lon="-1.28178">
        <ele>19.515732</ele>
        <time>2022-07-30T13:05:02.000Z</time>
      </trkpt>
      <trkpt lat="49.65291" lon="-1.28171">
        <ele>19.498543</ele>
        <time>2022-07-30T13:05:03.000Z</time>
      </trkpt>
      <trkpt lat="49.65293" lon="-1.28165">
        <ele>19.481306</ele>
        <time>2022-07-30T13:05:04.000Z</time>
      </trkpt>
      <trkpt lat="49.65295" lon="-1.28158">
        <ele>19.464308</ele>
        <time>2022-07-30T13:05:05.000Z</time>
      </trkpt>
      <trkpt lat="49.65298" lon="-1.28152">
        <ele>19.446654</ele>
        <time>2022-07-30T13:05:06.000Z</time>
      </trkpt>
      <trkpt lat="49.65301" lon="-1.28145">
        <ele>19.427713</ele>
        <time>2022-07-30T13:05:07.000Z</time>
      </trkpt>
      <trkpt lat="49.65303" lon="-1.28138">
        <ele>19.409743</ele>
        <time>2022-07-30T13:05:08.000Z</time>
      </trkpt>
      <trkpt lat="49.65305" lon="-1.28132">
        <ele>19.392541</ele>
        <time>2022-07-30T13:05:09.000Z</time>
      </trkpt>
      <trkpt lat="49.65308" lon="-1.28126">
        <ele>19.375176</ele>
        <time>2022-07-30T13:05:10.000Z</time>
      </trkpt>
      <trkpt lat="49.6531" lon="-1.2812">
        <ele>19.359316</ele>
        <time>2022-07-30T13:05:11.000Z</time>
      </trkpt>
      <trkpt lat="49.65312" lon="-1.28113">
        <ele>19.341143</ele>
        <time>2022-07-30T13:05:12.000Z</time>
      </trkpt>
      <trkpt lat="49.65315" lon="-1.28106">
        <ele>19.323735</ele>
        <time>2022-07-30T13:05:13.000Z</time>
      </trkpt>
      <trkpt lat="49.65317" lon="-1.28101">
        <ele>19.308541</ele>
        <time>2022-07-30T13:05:14.000Z</time>
      </trkpt>
      <trkpt lat="49.65319" lon="-1.28093">
        <ele>19.287924</ele>
        <time>2022-07-30T13:05:15.000Z</time>
      </trkpt>
      <trkpt lat="49.65322" lon="-1.28087">
        <ele>19.270687</ele>
        <time>2022-07-30T13:05:16.000Z</time>
      </trkpt>
      <trkpt lat="49.65325" lon="-1.2808">
        <ele>19.252521</ele>
        <time>2022-07-30T13:05:17.000Z</time>
      </trkpt>
      <trkpt lat="49.65327" lon="-1.28074">
        <ele>19.234866</ele>
        <time>2022-07-30T13:05:18.000Z</time>
      </trkpt>
      <trkpt lat="49.65329" lon="-1.28067">
        <ele>19.217044</ele>
        <time>2022-07-30T13:05:19.000Z</time>
      </trkpt>
      <trkpt lat="49.65331" lon="-1.2806">
        <ele>19.18704</ele>
        <time>2022-07-30T13:05:20.000Z</time>
      </trkpt>
      <trkpt lat="49.65333" lon="-1.28054">
        <ele>19.151867</ele>
        <time>2022-07-30T13:05:21.000Z</time>
      </trkpt>
      <trkpt lat="49.65335" lon="-1.28047">
        <ele>19.116361</ele>
        <time>2022-07-30T13:05:22.000Z</time>
      </trkpt>
      <trkpt lat="49.65338" lon="-1.2804">
        <ele>19.081605</ele>
        <time>2022-07-30T13:05:23.000Z</time>
      </trkpt>
      <trkpt lat="49.6534" lon="-1.28034">
        <ele>19.047358</ele>
        <time>2022-07-30T13:05:24.000Z</time>
      </trkpt>
      <trkpt lat="49.65342" lon="-1.28027">
        <ele>19.010383</ele>
        <time>2022-07-30T13:05:25.000Z</time>
      </trkpt>
      <trkpt lat="49.65343" lon="-1.2802">
        <ele>18.976738</ele>
        <time>2022-07-30T13:05:26.000Z</time>
      </trkpt>
      <trkpt lat="49.65346" lon="-1.28013">
        <ele>18.938213</ele>
        <time>2022-07-30T13:05:27.000Z</time>
      </trkpt>
      <trkpt lat="49.65348" lon="-1.28006">
        <ele>18.904095</ele>
        <time>2022-07-30T13:05:28.000Z</time>
      </trkpt>
      <trkpt lat="49.6535" lon="-1.27999">
        <ele>18.868989</ele>
        <time>2022-07-30T13:05:29.000Z</time>
      </trkpt>
      <trkpt lat="49.65352" lon="-1.27992">
        <ele>18.832558</ele>
        <time>2022-07-30T13:05:30.000Z</time>
      </trkpt>
      <trkpt lat="49.65355" lon="-1.27985">
        <ele>18.795805</ele>
        <time>2022-07-30T13:05:31.000Z</time>
      </trkpt>
      <trkpt lat="49.65357" lon="-1.27978">
        <ele>18.759374</ele>
        <time>2022-07-30T13:05:32.000Z</time>
      </trkpt>
      <trkpt lat="49.65359" lon="-1.27971">
        <ele>18.722521</ele>
        <time>2022-07-30T13:05:33.000Z</time>
      </trkpt>
      <trkpt lat="49.65361" lon="-1.27964">
        <ele>18.684545</ele>
        <time>2022-07-30T13:05:34.000Z</time>
      </trkpt>
      <trkpt lat="49.65363" lon="-1.27956">
        <ele>18.645964</ele>
        <time>2022-07-30T13:05:35.000Z</time>
      </trkpt>
      <trkpt lat="49.65365" lon="-1.27948">
        <ele>18.606946</ele>
        <time>2022-07-30T13:05:36.000Z</time>
      </trkpt>
      <trkpt lat="49.65367" lon="-1.27941">
        <ele>18.568365</ele>
        <time>2022-07-30T13:05:37.000Z</time>
      </trkpt>
      <trkpt lat="49.65369" lon="-1.27933">
        <ele>18.530658</ele>
        <time>2022-07-30T13:05:38.000Z</time>
      </trkpt>
      <trkpt lat="49.6537" lon="-1.27925">
        <ele>18.492796</ele>
        <time>2022-07-30T13:05:39.000Z</time>
      </trkpt>
      <trkpt lat="49.65371" lon="-1.27918">
        <ele>18.455568</ele>
        <time>2022-07-30T13:05:40.000Z</time>
      </trkpt>
      <trkpt lat="49.65373" lon="-1.2791">
        <ele>18.416366</ele>
        <time>2022-07-30T13:05:41.000Z</time>
      </trkpt>
      <trkpt lat="49.65374" lon="-1.27902">
        <ele>18.378219</ele>
        <time>2022-07-30T13:05:42.000Z</time>
      </trkpt>
      <trkpt lat="49.65375" lon="-1.27893">
        <ele>18.337895</ele>
        <time>2022-07-30T13:05:43.000Z</time>
      </trkpt>
      <trkpt lat="49.65375" lon="-1.27885">
        <ele>18.299171</ele>
        <time>2022-07-30T13:05:44.000Z</time>
      </trkpt>
      <trkpt lat="49.65375" lon="-1.27879">
        <ele>18.269675</ele>
        <time>2022-07-30T13:05:45.000Z</time>
      </trkpt>
      <trkpt lat="49.65377" lon="-1.27869">
        <ele>18.224358</ele>
        <time>2022-07-30T13:05:46.000Z</time>
      </trkpt>
      <trkpt lat="49.65378" lon="-1.27861">
        <ele>18.185741</ele>
        <time>2022-07-30T13:05:47.000Z</time>
      </trkpt>
      <trkpt lat="49.65379" lon="-1.27853">
        <ele>18.147124</ele>
        <time>2022-07-30T13:05:48.000Z</time>
      </trkpt>
      <trkpt lat="49.65381" lon="-1.27846">
        <ele>18.110152</ele>
        <time>2022-07-30T13:05:49.000Z</time>
      </trkpt>
      <trkpt lat="49.65383" lon="-1.27838">
        <ele>18.073316</ele>
        <time>2022-07-30T13:05:50.000Z</time>
      </trkpt>
      <trkpt lat="49.65384" lon="-1.27831">
        <ele>18.036344</ele>
        <time>2022-07-30T13:05:51.000Z</time>
      </trkpt>
      <trkpt lat="49.65385" lon="-1.27823">
        <ele>18.000493</ele>
        <time>2022-07-30T13:05:52.000Z</time>
      </trkpt>
      <trkpt lat="49.65387" lon="-1.27816">
        <ele>17.965737</ele>
        <time>2022-07-30T13:05:53.000Z</time>
      </trkpt>
      <trkpt lat="49.65389" lon="-1.2781">
        <ele>17.934488</ele>
        <time>2022-07-30T13:05:54.000Z</time>
      </trkpt>
      <trkpt lat="49.6539" lon="-1.27805">
        <ele>17.905292</ele>
        <time>2022-07-30T13:05:55.000Z</time>
      </trkpt>
      <trkpt lat="49.65391" lon="-1.27801">
        <ele>17.86818</ele>
        <time>2022-07-30T13:05:56.000Z</time>
      </trkpt>
      <trkpt lat="49.65392" lon="-1.27797">
        <ele>17.838753</ele>
        <time>2022-07-30T13:05:57.000Z</time>
      </trkpt>
      <trkpt lat="49.65392" lon="-1.27794">
        <ele>17.813715</ele>
        <time>2022-07-30T13:05:58.000Z</time>
      </trkpt>
      <trkpt lat="49.65392" lon="-1.27791">
        <ele>17.783778</ele>
        <time>2022-07-30T13:06:00.000Z</time>
      </trkpt>
      <trkpt lat="49.65394" lon="-1.2778">
        <ele>17.693984</ele>
        <time>2022-07-30T13:06:36.000Z</time>
      </trkpt>
      <trkpt lat="49.65394" lon="-1.27775">
        <ele>17.649606</ele>
        <time>2022-07-30T13:06:37.000Z</time>
      </trkpt>
      <trkpt lat="49.65396" lon="-1.27771">
        <ele>17.609412</ele>
        <time>2022-07-30T13:06:38.000Z</time>
      </trkpt>
      <trkpt lat="49.65398" lon="-1.27764">
        <ele>17.548484</ele>
        <time>2022-07-30T13:06:39.000Z</time>
      </trkpt>
      <trkpt lat="49.65401" lon="-1.27759">
        <ele>17.493039</ele>
        <time>2022-07-30T13:06:40.000Z</time>
      </trkpt>
      <trkpt lat="49.65404" lon="-1.27753">
        <ele>17.431281</ele>
        <time>2022-07-30T13:06:41.000Z</time>
      </trkpt>
      <trkpt lat="49.65406" lon="-1.27746">
        <ele>17.368262</ele>
        <time>2022-07-30T13:06:42.000Z</time>
      </trkpt>
      <trkpt lat="49.65409" lon="-1.27739">
        <ele>17.301787</ele>
        <time>2022-07-30T13:06:43.000Z</time>
      </trkpt>
      <trkpt lat="49.65412" lon="-1.27733">
        <ele>17.234435</ele>
        <time>2022-07-30T13:06:44.000Z</time>
      </trkpt>
      <trkpt lat="49.65415" lon="-1.27726">
        <ele>17.167774</ele>
        <time>2022-07-30T13:06:45.000Z</time>
      </trkpt>
      <trkpt lat="49.65418" lon="-1.27718">
        <ele>17.095721</ele>
        <time>2022-07-30T13:06:46.000Z</time>
      </trkpt>
      <trkpt lat="49.65421" lon="-1.2771">
        <ele>17.020816</ele>
        <time>2022-07-30T13:06:47.000Z</time>
      </trkpt>
      <trkpt lat="49.65424" lon="-1.27703">
        <ele>16.949462</ele>
        <time>2022-07-30T13:06:48.000Z</time>
      </trkpt>
      <trkpt lat="49.65428" lon="-1.27696">
        <ele>16.874745</ele>
        <time>2022-07-30T13:06:49.000Z</time>
      </trkpt>
      <trkpt lat="49.65431" lon="-1.27689">
        <ele>16.79997</ele>
        <time>2022-07-30T13:06:50.000Z</time>
      </trkpt>
      <trkpt lat="49.65434" lon="-1.2768">
        <ele>16.71779</ele>
        <time>2022-07-30T13:06:51.000Z</time>
      </trkpt>
      <trkpt lat="49.65436" lon="-1.27671">
        <ele>16.638007</ele>
        <time>2022-07-30T13:06:52.000Z</time>
      </trkpt>
      <trkpt lat="49.65439" lon="-1.27663">
        <ele>16.556908</ele>
        <time>2022-07-30T13:06:53.000Z</time>
      </trkpt>
      <trkpt lat="49.65442" lon="-1.27654">
        <ele>16.476773</ele>
        <time>2022-07-30T13:06:54.000Z</time>
      </trkpt>
      <trkpt lat="49.65446" lon="-1.27645">
        <ele>16.392996</ele>
        <time>2022-07-30T13:06:55.000Z</time>
      </trkpt>
      <trkpt lat="49.65449" lon="-1.27637">
        <ele>16.317988</ele>
        <time>2022-07-30T13:06:56.000Z</time>
      </trkpt>
      <trkpt lat="49.65452" lon="-1.27629">
        <ele>16.236175</ele>
        <time>2022-07-30T13:06:57.000Z</time>
      </trkpt>
      <trkpt lat="49.65454" lon="-1.2762">
        <ele>16.154888</ele>
        <time>2022-07-30T13:06:58.000Z</time>
      </trkpt>
      <trkpt lat="49.65458" lon="-1.27611">
        <ele>16.068749</ele>
        <time>2022-07-30T13:06:59.000Z</time>
      </trkpt>
      <trkpt lat="49.65461" lon="-1.27601">
        <ele>15.984352</ele>
        <time>2022-07-30T13:07:00.000Z</time>
      </trkpt>
      <trkpt lat="49.65464" lon="-1.27593">
        <ele>15.901105</ele>
        <time>2022-07-30T13:07:01.000Z</time>
      </trkpt>
      <trkpt lat="49.65467" lon="-1.27583">
        <ele>15.815966</ele>
        <time>2022-07-30T13:07:02.000Z</time>
      </trkpt>
      <trkpt lat="49.65469" lon="-1.27574">
        <ele>15.730623</ele>
        <time>2022-07-30T13:07:03.000Z</time>
      </trkpt>
      <trkpt lat="49.65472" lon="-1.27564">
        <ele>15.646195</ele>
        <time>2022-07-30T13:07:04.000Z</time>
      </trkpt>
      <trkpt lat="49.65474" lon="-1.27555">
        <ele>15.595395</ele>
        <time>2022-07-30T13:07:05.000Z</time>
      </trkpt>
      <trkpt lat="49.65476" lon="-1.27545">
        <ele>15.557823</ele>
        <time>2022-07-30T13:07:06.000Z</time>
      </trkpt>
      <trkpt lat="49.65478" lon="-1.27536">
        <ele>15.521811</ele>
        <time>2022-07-30T13:07:07.000Z</time>
      </trkpt>
      <trkpt lat="49.65481" lon="-1.27526">
        <ele>15.483939</ele>
        <time>2022-07-30T13:07:08.000Z</time>
      </trkpt>
      <trkpt lat="49.65484" lon="-1.27517">
        <ele>15.447315</ele>
        <time>2022-07-30T13:07:09.000Z</time>
      </trkpt>
      <trkpt lat="49.65486" lon="-1.27508">
        <ele>15.411446</ele>
        <time>2022-07-30T13:07:10.000Z</time>
      </trkpt>
      <trkpt lat="49.65488" lon="-1.27499">
        <ele>15.377136</ele>
        <time>2022-07-30T13:07:11.000Z</time>
      </trkpt>
      <trkpt lat="49.65491" lon="-1.2749">
        <ele>15.341291</ele>
        <time>2022-07-30T13:07:12.000Z</time>
      </trkpt>
      <trkpt lat="49.65493" lon="-1.27481">
        <ele>15.306982</ele>
        <time>2022-07-30T13:07:13.000Z</time>
      </trkpt>
      <trkpt lat="49.65495" lon="-1.27472">
        <ele>15.272898</ele>
        <time>2022-07-30T13:07:14.000Z</time>
      </trkpt>
      <trkpt lat="49.65497" lon="-1.27464">
        <ele>15.238382</ele>
        <time>2022-07-30T13:07:15.000Z</time>
      </trkpt>
      <trkpt lat="49.65499" lon="-1.27455">
        <ele>15.205137</ele>
        <time>2022-07-30T13:07:16.000Z</time>
      </trkpt>
      <trkpt lat="49.655" lon="-1.27446">
        <ele>15.171297</ele>
        <time>2022-07-30T13:07:17.000Z</time>
      </trkpt>
      <trkpt lat="49.65501" lon="-1.27437">
        <ele>15.137758</ele>
        <time>2022-07-30T13:07:18.000Z</time>
      </trkpt>
      <trkpt lat="49.65502" lon="-1.27428">
        <ele>15.104546</ele>
        <time>2022-07-30T13:07:19.000Z</time>
      </trkpt>
      <trkpt lat="49.65502" lon="-1.27419">
        <ele>15.071813</ele>
        <time>2022-07-30T13:07:20.000Z</time>
      </trkpt>
      <trkpt lat="49.65502" lon="-1.2741">
        <ele>15.039807</ele>
        <time>2022-07-30T13:07:21.000Z</time>
      </trkpt>
      <trkpt lat="49.65501" lon="-1.27401">
        <ele>15.009004</ele>
        <time>2022-07-30T13:07:22.000Z</time>
      </trkpt>
      <trkpt lat="49.655" lon="-1.27394">
        <ele>14.980388</ele>
        <time>2022-07-30T13:07:23.000Z</time>
      </trkpt>
      <trkpt lat="49.65496" lon="-1.27388">
        <ele>14.949639</ele>
        <time>2022-07-30T13:07:24.000Z</time>
      </trkpt>
      <trkpt lat="49.65493" lon="-1.27382">
        <ele>14.920264</ele>
        <time>2022-07-30T13:07:25.000Z</time>
      </trkpt>
      <trkpt lat="49.65488" lon="-1.27377">
        <ele>14.890537</ele>
        <time>2022-07-30T13:07:26.000Z</time>
      </trkpt>
      <trkpt lat="49.65484" lon="-1.27373">
        <ele>14.861548</ele>
        <time>2022-07-30T13:07:27.000Z</time>
      </trkpt>
      <trkpt lat="49.65478" lon="-1.2737">
        <ele>14.830758</ele>
        <time>2022-07-30T13:07:28.000Z</time>
      </trkpt>
      <trkpt lat="49.65473" lon="-1.27368">
        <ele>14.80047</ele>
        <time>2022-07-30T13:07:29.000Z</time>
      </trkpt>
      <trkpt lat="49.65468" lon="-1.27366">
        <ele>14.768885</ele>
        <time>2022-07-30T13:07:30.000Z</time>
      </trkpt>
      <trkpt lat="49.65463" lon="-1.27363">
        <ele>14.74267</ele>
        <time>2022-07-30T13:07:31.000Z</time>
      </trkpt>
      <trkpt lat="49.65459" lon="-1.2736">
        <ele>14.713579</ele>
        <time>2022-07-30T13:07:32.000Z</time>
      </trkpt>
      <trkpt lat="49.65454" lon="-1.27357">
        <ele>14.686769</ele>
        <time>2022-07-30T13:07:33.000Z</time>
      </trkpt>
      <trkpt lat="49.6545" lon="-1.27354">
        <ele>14.658783</ele>
        <time>2022-07-30T13:07:34.000Z</time>
      </trkpt>
      <trkpt lat="49.65446" lon="-1.2735">
        <ele>14.633547</ele>
        <time>2022-07-30T13:07:35.000Z</time>
      </trkpt>
      <trkpt lat="49.65442" lon="-1.27347">
        <ele>14.609992</ele>
        <time>2022-07-30T13:07:36.000Z</time>
      </trkpt>
      <trkpt lat="49.65438" lon="-1.27343">
        <ele>14.603721</ele>
        <time>2022-07-30T13:07:37.000Z</time>
      </trkpt>
      <trkpt lat="49.65435" lon="-1.27339">
        <ele>14.597457</ele>
        <time>2022-07-30T13:07:38.000Z</time>
      </trkpt>
      <trkpt lat="49.65431" lon="-1.27336">
        <ele>14.591355</ele>
        <time>2022-07-30T13:07:39.000Z</time>
      </trkpt>
      <trkpt lat="49.65427" lon="-1.27333">
        <ele>14.584304</ele>
        <time>2022-07-30T13:07:40.000Z</time>
      </trkpt>
      <trkpt lat="49.65423" lon="-1.2733">
        <ele>14.577924</ele>
        <time>2022-07-30T13:07:41.000Z</time>
      </trkpt>
      <trkpt lat="49.6542" lon="-1.27327">
        <ele>14.57285</ele>
        <time>2022-07-30T13:07:42.000Z</time>
      </trkpt>
      <trkpt lat="49.65417" lon="-1.27324">
        <ele>14.567209</ele>
        <time>2022-07-30T13:07:43.000Z</time>
      </trkpt>
      <trkpt lat="49.65414" lon="-1.2732">
        <ele>14.562321</ele>
        <time>2022-07-30T13:07:44.000Z</time>
      </trkpt>
      <trkpt lat="49.65413" lon="-1.27316">
        <ele>14.557922</ele>
        <time>2022-07-30T13:07:45.000Z</time>
      </trkpt>
      <trkpt lat="49.65411" lon="-1.27312">
        <ele>14.5537</ele>
        <time>2022-07-30T13:07:46.000Z</time>
      </trkpt>
      <trkpt lat="49.6541" lon="-1.27308">
        <ele>14.549793</ele>
        <time>2022-07-30T13:07:47.000Z</time>
      </trkpt>
      <trkpt lat="49.65408" lon="-1.27305">
        <ele>14.545539</ele>
        <time>2022-07-30T13:07:48.000Z</time>
      </trkpt>
      <trkpt lat="49.65406" lon="-1.27301">
        <ele>14.541549</ele>
        <time>2022-07-30T13:07:49.000Z</time>
      </trkpt>
      <trkpt lat="49.65405" lon="-1.27298">
        <ele>14.537709</ele>
        <time>2022-07-30T13:07:50.000Z</time>
      </trkpt>
      <trkpt lat="49.65405" lon="-1.27294">
        <ele>14.533976</ele>
        <time>2022-07-30T13:07:51.000Z</time>
      </trkpt>
      <trkpt lat="49.65404" lon="-1.2729">
        <ele>14.530133</ele>
        <time>2022-07-30T13:07:52.000Z</time>
      </trkpt>
      <trkpt lat="49.65404" lon="-1.27286">
        <ele>14.526093</ele>
        <time>2022-07-30T13:07:53.000Z</time>
      </trkpt>
      <trkpt lat="49.65403" lon="-1.27281">
        <ele>14.522088</ele>
        <time>2022-07-30T13:07:54.000Z</time>
      </trkpt>
      <trkpt lat="49.65403" lon="-1.27277">
        <ele>14.517803</ele>
        <time>2022-07-30T13:07:55.000Z</time>
      </trkpt>
      <trkpt lat="49.65403" lon="-1.27272">
        <ele>14.513426</ele>
        <time>2022-07-30T13:07:56.000Z</time>
      </trkpt>
      <trkpt lat="49.65404" lon="-1.27267">
        <ele>14.508407</ele>
        <time>2022-07-30T13:07:57.000Z</time>
      </trkpt>
      <trkpt lat="49.65405" lon="-1.27262">
        <ele>14.503854</ele>
        <time>2022-07-30T13:07:58.000Z</time>
      </trkpt>
      <trkpt lat="49.65406" lon="-1.27257">
        <ele>14.498836</ele>
        <time>2022-07-30T13:07:59.000Z</time>
      </trkpt>
      <trkpt lat="49.65407" lon="-1.27252">
        <ele>14.494002</ele>
        <time>2022-07-30T13:08:00.000Z</time>
      </trkpt>
      <trkpt lat="49.65408" lon="-1.27247">
        <ele>14.48907</ele>
        <time>2022-07-30T13:08:01.000Z</time>
      </trkpt>
      <trkpt lat="49.6541" lon="-1.27242">
        <ele>14.484051</ele>
        <time>2022-07-30T13:08:02.000Z</time>
      </trkpt>
      <trkpt lat="49.65411" lon="-1.27237">
        <ele>14.479177</ele>
        <time>2022-07-30T13:08:03.000Z</time>
      </trkpt>
      <trkpt lat="49.65412" lon="-1.27233">
        <ele>14.474149</ele>
        <time>2022-07-30T13:08:04.000Z</time>
      </trkpt>
      <trkpt lat="49.65414" lon="-1.27227">
        <ele>14.468702</ele>
        <time>2022-07-30T13:08:05.000Z</time>
      </trkpt>
      <trkpt lat="49.65415" lon="-1.27222">
        <ele>14.463385</ele>
        <time>2022-07-30T13:08:06.000Z</time>
      </trkpt>
      <trkpt lat="49.65417" lon="-1.27217">
        <ele>14.457671</ele>
        <time>2022-07-30T13:08:07.000Z</time>
      </trkpt>
      <trkpt lat="49.65419" lon="-1.27211">
        <ele>14.452029</ele>
        <time>2022-07-30T13:08:08.000Z</time>
      </trkpt>
      <trkpt lat="49.65421" lon="-1.27206">
        <ele>14.446834</ele>
        <time>2022-07-30T13:08:09.000Z</time>
      </trkpt>
      <trkpt lat="49.65422" lon="-1.27201">
        <ele>14.44111</ele>
        <time>2022-07-30T13:08:10.000Z</time>
      </trkpt>
      <trkpt lat="49.65424" lon="-1.27196">
        <ele>14.435663</ele>
        <time>2022-07-30T13:08:11.000Z</time>
      </trkpt>
      <trkpt lat="49.65426" lon="-1.2719">
        <ele>14.430301</ele>
        <time>2022-07-30T13:08:12.000Z</time>
      </trkpt>
      <trkpt lat="49.65428" lon="-1.27185">
        <ele>14.42482</ele>
        <time>2022-07-30T13:08:13.000Z</time>
      </trkpt>
      <trkpt lat="49.65429" lon="-1.2718">
        <ele>14.419454</ele>
        <time>2022-07-30T13:08:14.000Z</time>
      </trkpt>
      <trkpt lat="49.65431" lon="-1.27174">
        <ele>14.413648</ele>
        <time>2022-07-30T13:08:15.000Z</time>
      </trkpt>
      <trkpt lat="49.65432" lon="-1.27169">
        <ele>14.408032</ele>
        <time>2022-07-30T13:08:16.000Z</time>
      </trkpt>
      <trkpt lat="49.65434" lon="-1.27164">
        <ele>14.402754</ele>
        <time>2022-07-30T13:08:17.000Z</time>
      </trkpt>
      <trkpt lat="49.65436" lon="-1.27158">
        <ele>14.397223</ele>
        <time>2022-07-30T13:08:18.000Z</time>
      </trkpt>
      <trkpt lat="49.65437" lon="-1.27153">
        <ele>14.391682</ele>
        <time>2022-07-30T13:08:19.000Z</time>
      </trkpt>
      <trkpt lat="49.65438" lon="-1.27147">
        <ele>14.385877</ele>
        <time>2022-07-30T13:08:20.000Z</time>
      </trkpt>
      <trkpt lat="49.65439" lon="-1.27141">
        <ele>14.380131</ele>
        <time>2022-07-30T13:08:21.000Z</time>
      </trkpt>
      <trkpt lat="49.6544" lon="-1.27134">
        <ele>14.373908</ele>
        <time>2022-07-30T13:08:22.000Z</time>
      </trkpt>
      <trkpt lat="49.6544" lon="-1.27127">
        <ele>14.367374</ele>
        <time>2022-07-30T13:08:23.000Z</time>
      </trkpt>
      <trkpt lat="49.65439" lon="-1.2712">
        <ele>14.360798</ele>
        <time>2022-07-30T13:08:24.000Z</time>
      </trkpt>
      <trkpt lat="49.65438" lon="-1.27114">
        <ele>14.354146</ele>
        <time>2022-07-30T13:08:25.000Z</time>
      </trkpt>
      <trkpt lat="49.65437" lon="-1.27107">
        <ele>14.342485</ele>
        <time>2022-07-30T13:08:26.000Z</time>
      </trkpt>
      <trkpt lat="49.65435" lon="-1.271">
        <ele>14.327429</ele>
        <time>2022-07-30T13:08:27.000Z</time>
      </trkpt>
      <trkpt lat="49.65433" lon="-1.27095">
        <ele>14.315762</ele>
        <time>2022-07-30T13:08:28.000Z</time>
      </trkpt>
      <trkpt lat="49.65431" lon="-1.27088">
        <ele>14.300328</ele>
        <time>2022-07-30T13:08:29.000Z</time>
      </trkpt>
      <trkpt lat="49.65429" lon="-1.2708">
        <ele>14.283059</ele>
        <time>2022-07-30T13:08:30.000Z</time>
      </trkpt>
      <trkpt lat="49.65427" lon="-1.27074">
        <ele>14.268024</ele>
        <time>2022-07-30T13:08:31.000Z</time>
      </trkpt>
      <trkpt lat="49.65426" lon="-1.27068">
        <ele>14.254805</ele>
        <time>2022-07-30T13:08:32.000Z</time>
      </trkpt>
      <trkpt lat="49.65424" lon="-1.27062">
        <ele>14.241066</ele>
        <time>2022-07-30T13:08:33.000Z</time>
      </trkpt>
      <trkpt lat="49.65422" lon="-1.27056">
        <ele>14.228654</ele>
        <time>2022-07-30T13:08:34.000Z</time>
      </trkpt>
      <trkpt lat="49.65421" lon="-1.2705">
        <ele>14.216498</ele>
        <time>2022-07-30T13:08:35.000Z</time>
      </trkpt>
      <trkpt lat="49.65419" lon="-1.27046">
        <ele>14.204136</ele>
        <time>2022-07-30T13:08:36.000Z</time>
      </trkpt>
      <trkpt lat="49.65417" lon="-1.27041">
        <ele>14.193077</ele>
        <time>2022-07-30T13:08:37.000Z</time>
      </trkpt>
      <trkpt lat="49.65416" lon="-1.27037">
        <ele>14.182934</ele>
        <time>2022-07-30T13:08:38.000Z</time>
      </trkpt>
      <trkpt lat="49.65415" lon="-1.27031">
        <ele>14.171372</ele>
        <time>2022-07-30T13:08:39.000Z</time>
      </trkpt>
      <trkpt lat="49.65414" lon="-1.27026">
        <ele>14.160094</ele>
        <time>2022-07-30T13:08:40.000Z</time>
      </trkpt>
      <trkpt lat="49.65413" lon="-1.27021">
        <ele>14.148427</ele>
        <time>2022-07-30T13:08:41.000Z</time>
      </trkpt>
      <trkpt lat="49.65411" lon="-1.27015">
        <ele>14.136203</ele>
        <time>2022-07-30T13:08:42.000Z</time>
      </trkpt>
      <trkpt lat="49.6541" lon="-1.2701">
        <ele>14.124921</ele>
        <time>2022-07-30T13:08:43.000Z</time>
      </trkpt>
      <trkpt lat="49.65408" lon="-1.27005">
        <ele>14.11344</ele>
        <time>2022-07-30T13:08:44.000Z</time>
      </trkpt>
      <trkpt lat="49.65406" lon="-1.27">
        <ele>14.101506</ele>
        <time>2022-07-30T13:08:45.000Z</time>
      </trkpt>
      <trkpt lat="49.65405" lon="-1.26995">
        <ele>14.089454</ele>
        <time>2022-07-30T13:08:46.000Z</time>
      </trkpt>
      <trkpt lat="49.65404" lon="-1.2699">
        <ele>14.078581</ele>
        <time>2022-07-30T13:08:47.000Z</time>
      </trkpt>
      <trkpt lat="49.65404" lon="-1.26984">
        <ele>14.067649</ele>
        <time>2022-07-30T13:08:48.000Z</time>
      </trkpt>
      <trkpt lat="49.65402" lon="-1.26979">
        <ele>14.056558</ele>
        <time>2022-07-30T13:08:49.000Z</time>
      </trkpt>
      <trkpt lat="49.65401" lon="-1.26974">
        <ele>14.045581</ele>
        <time>2022-07-30T13:08:50.000Z</time>
      </trkpt>
      <trkpt lat="49.654" lon="-1.2697">
        <ele>14.035453</ele>
        <time>2022-07-30T13:08:51.000Z</time>
      </trkpt>
      <trkpt lat="49.65399" lon="-1.26965">
        <ele>14.02531</ele>
        <time>2022-07-30T13:08:52.000Z</time>
      </trkpt>
      <trkpt lat="49.65399" lon="-1.26961">
        <ele>14.016047</ele>
        <time>2022-07-30T13:08:53.000Z</time>
      </trkpt>
      <trkpt lat="49.65399" lon="-1.26956">
        <ele>14.006784</ele>
        <time>2022-07-30T13:08:54.000Z</time>
      </trkpt>
      <trkpt lat="49.654" lon="-1.26952">
        <ele>13.997379</ele>
        <time>2022-07-30T13:08:55.000Z</time>
      </trkpt>
      <trkpt lat="49.65401" lon="-1.26948">
        <ele>13.988168</ele>
        <time>2022-07-30T13:08:56.000Z</time>
      </trkpt>
      <trkpt lat="49.65403" lon="-1.26944">
        <ele>13.979009</ele>
        <time>2022-07-30T13:08:57.000Z</time>
      </trkpt>
      <trkpt lat="49.65404" lon="-1.2694">
        <ele>13.970856</ele>
        <time>2022-07-30T13:08:58.000Z</time>
      </trkpt>
      <trkpt lat="49.65405" lon="-1.26937">
        <ele>13.963425</ele>
        <time>2022-07-30T13:08:59.000Z</time>
      </trkpt>
      <trkpt lat="49.65407" lon="-1.26935">
        <ele>13.955738</ele>
        <time>2022-07-30T13:09:00.000Z</time>
      </trkpt>
      <trkpt lat="49.65408" lon="-1.26932">
        <ele>13.948645</ele>
        <time>2022-07-30T13:09:01.000Z</time>
      </trkpt>
      <trkpt lat="49.65409" lon="-1.26929">
        <ele>13.942242</ele>
        <time>2022-07-30T13:09:02.000Z</time>
      </trkpt>
      <trkpt lat="49.65411" lon="-1.26926">
        <ele>13.934555</ele>
        <time>2022-07-30T13:09:03.000Z</time>
      </trkpt>
      <trkpt lat="49.65412" lon="-1.26923">
        <ele>13.92747</ele>
        <time>2022-07-30T13:09:04.000Z</time>
      </trkpt>
      <trkpt lat="49.65413" lon="-1.26921">
        <ele>13.919783</ele>
        <time>2022-07-30T13:09:05.000Z</time>
      </trkpt>
      <trkpt lat="49.65414" lon="-1.26917">
        <ele>13.912469</ele>
        <time>2022-07-30T13:09:06.000Z</time>
      </trkpt>
      <trkpt lat="49.65416" lon="-1.26914">
        <ele>13.904163</ele>
        <time>2022-07-30T13:09:07.000Z</time>
      </trkpt>
      <trkpt lat="49.65416" lon="-1.26911">
        <ele>13.898092</ele>
        <time>2022-07-30T13:09:08.000Z</time>
      </trkpt>
      <trkpt lat="49.65418" lon="-1.26909">
        <ele>13.891491</ele>
        <time>2022-07-30T13:09:09.000Z</time>
      </trkpt>
      <trkpt lat="49.6542" lon="-1.26905">
        <ele>13.880998</ele>
        <time>2022-07-30T13:09:11.000Z</time>
      </trkpt>
      <trkpt lat="49.65421" lon="-1.26903">
        <ele>13.874581</ele>
        <time>2022-07-30T13:09:12.000Z</time>
      </trkpt>
      <trkpt lat="49.65424" lon="-1.269">
        <ele>13.86392</ele>
        <time>2022-07-30T13:09:14.000Z</time>
      </trkpt>
      <trkpt lat="49.65426" lon="-1.26899">
        <ele>13.856938</ele>
        <time>2022-07-30T13:09:16.000Z</time>
      </trkpt>
      <trkpt lat="49.65429" lon="-1.26896">
        <ele>13.845716</ele>
        <time>2022-07-30T13:09:38.000Z</time>
      </trkpt>
      <trkpt lat="49.65431" lon="-1.26895">
        <ele>13.838458</ele>
        <time>2022-07-30T13:09:39.000Z</time>
      </trkpt>
      <trkpt lat="49.65433" lon="-1.26894">
        <ele>13.832197</ele>
        <time>2022-07-30T13:09:40.000Z</time>
      </trkpt>
      <trkpt lat="49.65436" lon="-1.26893">
        <ele>13.825153</ele>
        <time>2022-07-30T13:09:41.000Z</time>
      </trkpt>
      <trkpt lat="49.65437" lon="-1.26894">
        <ele>13.819025</ele>
        <time>2022-07-30T13:09:42.000Z</time>
      </trkpt>
      <trkpt lat="49.65439" lon="-1.26895">
        <ele>13.812505</ele>
        <time>2022-07-30T13:09:43.000Z</time>
      </trkpt>
      <trkpt lat="49.65442" lon="-1.26895">
        <ele>13.80551</ele>
        <time>2022-07-30T13:09:44.000Z</time>
      </trkpt>
      <trkpt lat="49.65444" lon="-1.26894">
        <ele>13.797119</ele>
        <time>2022-07-30T13:09:45.000Z</time>
      </trkpt>
      <trkpt lat="49.65447" lon="-1.26893">
        <ele>13.788908</ele>
        <time>2022-07-30T13:09:46.000Z</time>
      </trkpt>
      <trkpt lat="49.6545" lon="-1.26892">
        <ele>13.77956</ele>
        <time>2022-07-30T13:09:47.000Z</time>
      </trkpt>
      <trkpt lat="49.65452" lon="-1.26892">
        <ele>13.771745</ele>
        <time>2022-07-30T13:09:48.000Z</time>
      </trkpt>
      <trkpt lat="49.65455" lon="-1.26891">
        <ele>13.764131</ele>
        <time>2022-07-30T13:09:49.000Z</time>
      </trkpt>
      <trkpt lat="49.65458" lon="-1.2689">
        <ele>13.754309</ele>
        <time>2022-07-30T13:09:50.000Z</time>
      </trkpt>
      <trkpt lat="49.65461" lon="-1.26888">
        <ele>13.744151</ele>
        <time>2022-07-30T13:09:51.000Z</time>
      </trkpt>
      <trkpt lat="49.65464" lon="-1.26885">
        <ele>13.735117</ele>
        <time>2022-07-30T13:09:52.000Z</time>
      </trkpt>
      <trkpt lat="49.65466" lon="-1.26883">
        <ele>13.726855</ele>
        <time>2022-07-30T13:09:53.000Z</time>
      </trkpt>
      <trkpt lat="49.65469" lon="-1.26879">
        <ele>13.716695</ele>
        <time>2022-07-30T13:09:54.000Z</time>
      </trkpt>
      <trkpt lat="49.65471" lon="-1.26876">
        <ele>13.706176</ele>
        <time>2022-07-30T13:09:55.000Z</time>
      </trkpt>
      <trkpt lat="49.65474" lon="-1.26873">
        <ele>13.696112</ele>
        <time>2022-07-30T13:09:56.000Z</time>
      </trkpt>
      <trkpt lat="49.65476" lon="-1.26868">
        <ele>13.685193</ele>
        <time>2022-07-30T13:09:57.000Z</time>
      </trkpt>
      <trkpt lat="49.65479" lon="-1.26864">
        <ele>13.673416</ele>
        <time>2022-07-30T13:09:58.000Z</time>
      </trkpt>
      <trkpt lat="49.65481" lon="-1.26859">
        <ele>13.661885</ele>
        <time>2022-07-30T13:09:59.000Z</time>
      </trkpt>
      <trkpt lat="49.65483" lon="-1.26854">
        <ele>13.65166</ele>
        <time>2022-07-30T13:10:00.000Z</time>
      </trkpt>
      <trkpt lat="49.65484" lon="-1.2685">
        <ele>13.641577</ele>
        <time>2022-07-30T13:10:01.000Z</time>
      </trkpt>
      <trkpt lat="49.65486" lon="-1.26845">
        <ele>13.631664</ele>
        <time>2022-07-30T13:10:02.000Z</time>
      </trkpt>
      <trkpt lat="49.65488" lon="-1.26841">
        <ele>13.62129</ele>
        <time>2022-07-30T13:10:03.000Z</time>
      </trkpt>
      <trkpt lat="49.6549" lon="-1.26836">
        <ele>13.610095</ele>
        <time>2022-07-30T13:10:04.000Z</time>
      </trkpt>
      <trkpt lat="49.65492" lon="-1.26831">
        <ele>13.598565</ele>
        <time>2022-07-30T13:10:05.000Z</time>
      </trkpt>
      <trkpt lat="49.65493" lon="-1.26825">
        <ele>13.587448</ele>
        <time>2022-07-30T13:10:06.000Z</time>
      </trkpt>
      <trkpt lat="49.65494" lon="-1.2682">
        <ele>13.576504</ele>
        <time>2022-07-30T13:10:07.000Z</time>
      </trkpt>
      <trkpt lat="49.65496" lon="-1.26815">
        <ele>13.565213</ele>
        <time>2022-07-30T13:10:08.000Z</time>
      </trkpt>
      <trkpt lat="49.65498" lon="-1.26809">
        <ele>13.553746</ele>
        <time>2022-07-30T13:10:09.000Z</time>
      </trkpt>
      <trkpt lat="49.65499" lon="-1.26804">
        <ele>13.542454</ele>
        <time>2022-07-30T13:10:10.000Z</time>
      </trkpt>
      <trkpt lat="49.655" lon="-1.26799">
        <ele>13.531794</ele>
        <time>2022-07-30T13:10:11.000Z</time>
      </trkpt>
      <trkpt lat="49.65501" lon="-1.26794">
        <ele>13.521134</ele>
        <time>2022-07-30T13:10:12.000Z</time>
      </trkpt>
      <trkpt lat="49.65503" lon="-1.26789">
        <ele>13.510365</ele>
        <time>2022-07-30T13:10:13.000Z</time>
      </trkpt>
      <trkpt lat="49.65504" lon="-1.26783">
        <ele>13.499601</ele>
        <time>2022-07-30T13:10:14.000Z</time>
      </trkpt>
      <trkpt lat="49.65506" lon="-1.26778">
        <ele>13.488832</ele>
        <time>2022-07-30T13:10:15.000Z</time>
      </trkpt>
      <trkpt lat="49.65508" lon="-1.26773">
        <ele>13.477637</ele>
        <time>2022-07-30T13:10:16.000Z</time>
      </trkpt>
      <trkpt lat="49.65509" lon="-1.26769">
        <ele>13.467554</ele>
        <time>2022-07-30T13:10:17.000Z</time>
      </trkpt>
      <trkpt lat="49.65511" lon="-1.26764">
        <ele>13.456784</ele>
        <time>2022-07-30T13:10:18.000Z</time>
      </trkpt>
      <trkpt lat="49.65512" lon="-1.26759">
        <ele>13.446559</ele>
        <time>2022-07-30T13:10:19.000Z</time>
      </trkpt>
      <trkpt lat="49.65514" lon="-1.26754">
        <ele>13.435616</ele>
        <time>2022-07-30T13:10:20.000Z</time>
      </trkpt>
      <trkpt lat="49.65515" lon="-1.26748">
        <ele>13.423947</ele>
        <time>2022-07-30T13:10:21.000Z</time>
      </trkpt>
      <trkpt lat="49.65516" lon="-1.26742">
        <ele>13.412544</ele>
        <time>2022-07-30T13:10:22.000Z</time>
      </trkpt>
      <trkpt lat="49.65517" lon="-1.26737">
        <ele>13.400787</ele>
        <time>2022-07-30T13:10:23.000Z</time>
      </trkpt>
      <trkpt lat="49.65518" lon="-1.26731">
        <ele>13.389584</ele>
        <time>2022-07-30T13:10:24.000Z</time>
      </trkpt>
      <trkpt lat="49.65519" lon="-1.26725">
        <ele>13.377367</ele>
        <time>2022-07-30T13:10:25.000Z</time>
      </trkpt>
      <trkpt lat="49.65521" lon="-1.26719">
        <ele>13.363947</ele>
        <time>2022-07-30T13:10:26.000Z</time>
      </trkpt>
      <trkpt lat="49.65523" lon="-1.26712">
        <ele>13.350702</ele>
        <time>2022-07-30T13:10:27.000Z</time>
      </trkpt>
      <trkpt lat="49.65525" lon="-1.26707">
        <ele>13.339759</ele>
        <time>2022-07-30T13:10:28.000Z</time>
      </trkpt>
      <trkpt lat="49.65527" lon="-1.26699">
        <ele>13.323154</ele>
        <time>2022-07-30T13:10:29.000Z</time>
      </trkpt>
      <trkpt lat="49.65529" lon="-1.26693">
        <ele>13.309183</ele>
        <time>2022-07-30T13:10:30.000Z</time>
      </trkpt>
      <trkpt lat="49.6553" lon="-1.26685">
        <ele>13.294302</ele>
        <time>2022-07-30T13:10:31.000Z</time>
      </trkpt>
      <trkpt lat="49.65532" lon="-1.26678">
        <ele>13.278687</ele>
        <time>2022-07-30T13:10:32.000Z</time>
      </trkpt>
      <trkpt lat="49.65534" lon="-1.2667">
        <ele>13.262487</ele>
        <time>2022-07-30T13:10:33.000Z</time>
      </trkpt>
      <trkpt lat="49.65535" lon="-1.26662">
        <ele>13.247195</ele>
        <time>2022-07-30T13:10:34.000Z</time>
      </trkpt>
      <trkpt lat="49.65537" lon="-1.26654">
        <ele>13.202614</ele>
        <time>2022-07-30T13:10:35.000Z</time>
      </trkpt>
      <trkpt lat="49.65539" lon="-1.26646">
        <ele>13.147954</ele>
        <time>2022-07-30T13:10:36.000Z</time>
      </trkpt>
      <trkpt lat="49.6554" lon="-1.26638">
        <ele>13.095614</ele>
        <time>2022-07-30T13:10:37.000Z</time>
      </trkpt>
      <trkpt lat="49.65541" lon="-1.2663">
        <ele>13.039946</ele>
        <time>2022-07-30T13:10:38.000Z</time>
      </trkpt>
      <trkpt lat="49.65543" lon="-1.26621">
        <ele>12.981687</ele>
        <time>2022-07-30T13:10:39.000Z</time>
      </trkpt>
      <trkpt lat="49.65544" lon="-1.26612">
        <ele>12.92602</ele>
        <time>2022-07-30T13:10:40.000Z</time>
      </trkpt>
      <trkpt lat="49.65545" lon="-1.26603">
        <ele>12.867246</ele>
        <time>2022-07-30T13:10:41.000Z</time>
      </trkpt>
      <trkpt lat="49.65546" lon="-1.26595">
        <ele>12.811481</ele>
        <time>2022-07-30T13:10:42.000Z</time>
      </trkpt>
      <trkpt lat="49.65547" lon="-1.26586">
        <ele>12.755604</ele>
        <time>2022-07-30T13:10:43.000Z</time>
      </trkpt>
      <trkpt lat="49.65547" lon="-1.26577">
        <ele>12.698164</ele>
        <time>2022-07-30T13:10:44.000Z</time>
      </trkpt>
      <trkpt lat="49.65547" lon="-1.26568">
        <ele>12.640801</ele>
        <time>2022-07-30T13:10:45.000Z</time>
      </trkpt>
      <trkpt lat="49.65547" lon="-1.26559">
        <ele>12.582801</ele>
        <time>2022-07-30T13:10:46.000Z</time>
      </trkpt>
      <trkpt lat="49.65547" lon="-1.2655">
        <ele>12.525998</ele>
        <time>2022-07-30T13:10:47.000Z</time>
      </trkpt>
      <trkpt lat="49.65547" lon="-1.26541">
        <ele>12.468635</ele>
        <time>2022-07-30T13:10:48.000Z</time>
      </trkpt>
      <trkpt lat="49.65547" lon="-1.26532">
        <ele>12.411272</ele>
        <time>2022-07-30T13:10:49.000Z</time>
      </trkpt>
      <trkpt lat="49.65548" lon="-1.26523">
        <ele>12.355106</ele>
        <time>2022-07-30T13:10:50.000Z</time>
      </trkpt>
      <trkpt lat="49.65547" lon="-1.26515">
        <ele>12.300849</ele>
        <time>2022-07-30T13:10:51.000Z</time>
      </trkpt>
      <trkpt lat="49.65548" lon="-1.26506">
        <ele>12.246592</ele>
        <time>2022-07-30T13:10:52.000Z</time>
      </trkpt>
      <trkpt lat="49.65549" lon="-1.26497">
        <ele>12.190274</ele>
        <time>2022-07-30T13:10:53.000Z</time>
      </trkpt>
      <trkpt lat="49.65549" lon="-1.26489">
        <ele>12.13831</ele>
        <time>2022-07-30T13:10:54.000Z</time>
      </trkpt>
      <trkpt lat="49.6555" lon="-1.26481">
        <ele>12.083697</ele>
        <time>2022-07-30T13:10:55.000Z</time>
      </trkpt>
      <trkpt lat="49.6555" lon="-1.26472">
        <ele>12.030077</ele>
        <time>2022-07-30T13:10:56.000Z</time>
      </trkpt>
      <trkpt lat="49.65551" lon="-1.26464">
        <ele>11.975181</ele>
        <time>2022-07-30T13:10:57.000Z</time>
      </trkpt>
      <trkpt lat="49.65552" lon="-1.26456">
        <ele>11.921832</ele>
        <time>2022-07-30T13:10:58.000Z</time>
      </trkpt>
      <trkpt lat="49.65553" lon="-1.26447">
        <ele>11.868822</ele>
        <time>2022-07-30T13:10:59.000Z</time>
      </trkpt>
      <trkpt lat="49.65553" lon="-1.26439">
        <ele>11.815474</ele>
        <time>2022-07-30T13:11:00.000Z</time>
      </trkpt>
      <trkpt lat="49.65554" lon="-1.26431">
        <ele>11.763126</ele>
        <time>2022-07-30T13:11:01.000Z</time>
      </trkpt>
      <trkpt lat="49.65555" lon="-1.26422">
        <ele>11.708063</ele>
        <time>2022-07-30T13:11:02.000Z</time>
      </trkpt>
      <trkpt lat="49.65556" lon="-1.26414">
        <ele>11.654424</ele>
        <time>2022-07-30T13:11:03.000Z</time>
      </trkpt>
      <trkpt lat="49.65557" lon="-1.26407">
        <ele>11.609979</ele>
        <time>2022-07-30T13:11:04.000Z</time>
      </trkpt>
      <trkpt lat="49.65557" lon="-1.26397">
        <ele>11.543103</ele>
        <time>2022-07-30T13:11:05.000Z</time>
      </trkpt>
      <trkpt lat="49.65559" lon="-1.26389">
        <ele>11.488676</ele>
        <time>2022-07-30T13:11:06.000Z</time>
      </trkpt>
      <trkpt lat="49.65559" lon="-1.2638">
        <ele>11.486243</ele>
        <time>2022-07-30T13:11:07.000Z</time>
      </trkpt>
      <trkpt lat="49.65561" lon="-1.26372">
        <ele>11.506054</ele>
        <time>2022-07-30T13:11:08.000Z</time>
      </trkpt>
      <trkpt lat="49.65561" lon="-1.26366">
        <ele>11.521763</ele>
        <time>2022-07-30T13:11:09.000Z</time>
      </trkpt>
      <trkpt lat="49.65563" lon="-1.26356">
        <ele>11.545379</ele>
        <time>2022-07-30T13:11:10.000Z</time>
      </trkpt>
      <trkpt lat="49.65563" lon="-1.26348">
        <ele>11.564579</ele>
        <time>2022-07-30T13:11:11.000Z</time>
      </trkpt>
      <trkpt lat="49.65565" lon="-1.2634">
        <ele>11.583551</ele>
        <time>2022-07-30T13:11:12.000Z</time>
      </trkpt>
      <trkpt lat="49.65565" lon="-1.26333">
        <ele>11.601971</ele>
        <time>2022-07-30T13:11:13.000Z</time>
      </trkpt>
      <trkpt lat="49.65567" lon="-1.26325">
        <ele>11.620251</ele>
        <time>2022-07-30T13:11:14.000Z</time>
      </trkpt>
      <trkpt lat="49.65567" lon="-1.26318">
        <ele>11.637138</ele>
        <time>2022-07-30T13:11:15.000Z</time>
      </trkpt>
      <trkpt lat="49.65568" lon="-1.26311">
        <ele>11.654152</ele>
        <time>2022-07-30T13:11:16.000Z</time>
      </trkpt>
      <trkpt lat="49.65569" lon="-1.26304">
        <ele>11.671242</ele>
        <time>2022-07-30T13:11:17.000Z</time>
      </trkpt>
      <trkpt lat="49.65571" lon="-1.26299">
        <ele>11.684755</ele>
        <time>2022-07-30T13:11:18.000Z</time>
      </trkpt>
      <trkpt lat="49.65572" lon="-1.26291">
        <ele>11.703868</ele>
        <time>2022-07-30T13:11:19.000Z</time>
      </trkpt>
      <trkpt lat="49.65573" lon="-1.26285">
        <ele>11.719781</ele>
        <time>2022-07-30T13:11:20.000Z</time>
      </trkpt>
      <trkpt lat="49.65574" lon="-1.26279">
        <ele>11.735014</ele>
        <time>2022-07-30T13:11:21.000Z</time>
      </trkpt>
      <trkpt lat="49.65575" lon="-1.26273">
        <ele>11.750074</ele>
        <time>2022-07-30T13:11:22.000Z</time>
      </trkpt>
      <trkpt lat="49.65576" lon="-1.26267">
        <ele>11.764845</ele>
        <time>2022-07-30T13:11:23.000Z</time>
      </trkpt>
      <trkpt lat="49.65577" lon="-1.2626">
        <ele>11.780383</ele>
        <time>2022-07-30T13:11:24.000Z</time>
      </trkpt>
      <trkpt lat="49.65578" lon="-1.26254">
        <ele>11.795764</ele>
        <time>2022-07-30T13:11:25.000Z</time>
      </trkpt>
      <trkpt lat="49.65579" lon="-1.26248">
        <ele>11.810848</ele>
        <time>2022-07-30T13:11:26.000Z</time>
      </trkpt>
      <trkpt lat="49.65581" lon="-1.26242">
        <ele>11.825481</ele>
        <time>2022-07-30T13:11:27.000Z</time>
      </trkpt>
      <trkpt lat="49.65582" lon="-1.26237">
        <ele>11.83944</ele>
        <time>2022-07-30T13:11:28.000Z</time>
      </trkpt>
      <trkpt lat="49.65584" lon="-1.26232">
        <ele>11.853676</ele>
        <time>2022-07-30T13:11:29.000Z</time>
      </trkpt>
      <trkpt lat="49.65587" lon="-1.26226">
        <ele>11.870039</ele>
        <time>2022-07-30T13:11:30.000Z</time>
      </trkpt>
      <trkpt lat="49.65589" lon="-1.26221">
        <ele>11.884452</ele>
        <time>2022-07-30T13:11:31.000Z</time>
      </trkpt>
      <trkpt lat="49.65591" lon="-1.26216">
        <ele>11.898274</ele>
        <time>2022-07-30T13:11:32.000Z</time>
      </trkpt>
      <trkpt lat="49.65593" lon="-1.26212">
        <ele>11.911572</ele>
        <time>2022-07-30T13:11:33.000Z</time>
      </trkpt>
      <trkpt lat="49.65595" lon="-1.26208">
        <ele>11.923726</ele>
        <time>2022-07-30T13:11:34.000Z</time>
      </trkpt>
      <trkpt lat="49.65597" lon="-1.26205">
        <ele>11.934377</ele>
        <time>2022-07-30T13:11:35.000Z</time>
      </trkpt>
      <trkpt lat="49.656" lon="-1.26202">
        <ele>11.945937</ele>
        <time>2022-07-30T13:11:36.000Z</time>
      </trkpt>
      <trkpt lat="49.65602" lon="-1.26199">
        <ele>11.956289</ele>
        <time>2022-07-30T13:11:37.000Z</time>
      </trkpt>
      <trkpt lat="49.65603" lon="-1.26196">
        <ele>11.963913</ele>
        <time>2022-07-30T13:11:38.000Z</time>
      </trkpt>
      <trkpt lat="49.65603" lon="-1.26192">
        <ele>11.973238</ele>
        <time>2022-07-30T13:11:40.000Z</time>
      </trkpt>
      <trkpt lat="49.65603" lon="-1.26187">
        <ele>11.98583</ele>
        <time>2022-07-30T13:11:42.000Z</time>
      </trkpt>
      <trkpt lat="49.65602" lon="-1.26184">
        <ele>11.993133</ele>
        <time>2022-07-30T13:11:43.000Z</time>
      </trkpt>
      <trkpt lat="49.65601" lon="-1.26181">
        <ele>12.000586</ele>
        <time>2022-07-30T13:11:44.000Z</time>
      </trkpt>
      <trkpt lat="49.65599" lon="-1.26176">
        <ele>12.017209</ele>
        <time>2022-07-30T13:11:46.000Z</time>
      </trkpt>
      <trkpt lat="49.65597" lon="-1.26173">
        <ele>12.027215</ele>
        <time>2022-07-30T13:11:47.000Z</time>
      </trkpt>
      <trkpt lat="49.65595" lon="-1.2617">
        <ele>12.035596</ele>
        <time>2022-07-30T13:11:48.000Z</time>
      </trkpt>
      <trkpt lat="49.65593" lon="-1.26167">
        <ele>12.046889</ele>
        <time>2022-07-30T13:11:49.000Z</time>
      </trkpt>
      <trkpt lat="49.65591" lon="-1.26163">
        <ele>12.058019</ele>
        <time>2022-07-30T13:11:50.000Z</time>
      </trkpt>
      <trkpt lat="49.65589" lon="-1.2616">
        <ele>12.068234</ele>
        <time>2022-07-30T13:11:51.000Z</time>
      </trkpt>
      <trkpt lat="49.65588" lon="-1.26156">
        <ele>12.078842</ele>
        <time>2022-07-30T13:11:52.000Z</time>
      </trkpt>
      <trkpt lat="49.65586" lon="-1.26153">
        <ele>12.089057</ele>
        <time>2022-07-30T13:11:53.000Z</time>
      </trkpt>
      <trkpt lat="49.65584" lon="-1.26149">
        <ele>12.100317</ele>
        <time>2022-07-30T13:11:54.000Z</time>
      </trkpt>
      <trkpt lat="49.65583" lon="-1.26145">
        <ele>12.110563</ele>
        <time>2022-07-30T13:11:55.000Z</time>
      </trkpt>
      <trkpt lat="49.65581" lon="-1.26141">
        <ele>12.121773</ele>
        <time>2022-07-30T13:11:56.000Z</time>
      </trkpt>
      <trkpt lat="49.6558" lon="-1.26137">
        <ele>12.134185</ele>
        <time>2022-07-30T13:11:57.000Z</time>
      </trkpt>
      <trkpt lat="49.65577" lon="-1.26133">
        <ele>12.144724</ele>
        <time>2022-07-30T13:11:58.000Z</time>
      </trkpt>
      <trkpt lat="49.65575" lon="-1.26128">
        <ele>12.155945</ele>
        <time>2022-07-30T13:11:59.000Z</time>
      </trkpt>
      <trkpt lat="49.65573" lon="-1.26124">
        <ele>12.16613</ele>
        <time>2022-07-30T13:12:00.000Z</time>
      </trkpt>
      <trkpt lat="49.65572" lon="-1.26119">
        <ele>12.176491</ele>
        <time>2022-07-30T13:12:01.000Z</time>
      </trkpt>
      <trkpt lat="49.6557" lon="-1.26115">
        <ele>12.186656</ele>
        <time>2022-07-30T13:12:02.000Z</time>
      </trkpt>
      <trkpt lat="49.65568" lon="-1.26111">
        <ele>12.196325</ele>
        <time>2022-07-30T13:12:03.000Z</time>
      </trkpt>
      <trkpt lat="49.65567" lon="-1.26106">
        <ele>12.206511</ele>
        <time>2022-07-30T13:12:04.000Z</time>
      </trkpt>
      <trkpt lat="49.65565" lon="-1.26102">
        <ele>12.21684</ele>
        <time>2022-07-30T13:12:05.000Z</time>
      </trkpt>
      <trkpt lat="49.65563" lon="-1.26098">
        <ele>12.226508</ele>
        <time>2022-07-30T13:12:06.000Z</time>
      </trkpt>
      <trkpt lat="49.65561" lon="-1.26094">
        <ele>12.23633</ele>
        <time>2022-07-30T13:12:07.000Z</time>
      </trkpt>
      <trkpt lat="49.65559" lon="-1.26091">
        <ele>12.245592</ele>
        <time>2022-07-30T13:12:08.000Z</time>
      </trkpt>
      <trkpt lat="49.65557" lon="-1.26087">
        <ele>12.255559</ele>
        <time>2022-07-30T13:12:09.000Z</time>
      </trkpt>
      <trkpt lat="49.65555" lon="-1.26084">
        <ele>12.264321</ele>
        <time>2022-07-30T13:12:10.000Z</time>
      </trkpt>
      <trkpt lat="49.65552" lon="-1.26081">
        <ele>12.275243</ele>
        <time>2022-07-30T13:12:11.000Z</time>
      </trkpt>
      <trkpt lat="49.6555" lon="-1.26078">
        <ele>12.283855</ele>
        <time>2022-07-30T13:12:12.000Z</time>
      </trkpt>
      <trkpt lat="49.65547" lon="-1.26075">
        <ele>12.29324</ele>
        <time>2022-07-30T13:12:13.000Z</time>
      </trkpt>
      <trkpt lat="49.65544" lon="-1.26073">
        <ele>12.304057</ele>
        <time>2022-07-30T13:12:14.000Z</time>
      </trkpt>
      <trkpt lat="49.65541" lon="-1.26071">
        <ele>12.31379</ele>
        <time>2022-07-30T13:12:15.000Z</time>
      </trkpt>
      <trkpt lat="49.65539" lon="-1.26069">
        <ele>12.322161</ele>
        <time>2022-07-30T13:12:16.000Z</time>
      </trkpt>
      <trkpt lat="49.65535" lon="-1.26068">
        <ele>12.332302</ele>
        <time>2022-07-30T13:12:17.000Z</time>
      </trkpt>
      <trkpt lat="49.65532" lon="-1.26067">
        <ele>12.34255</ele>
        <time>2022-07-30T13:12:18.000Z</time>
      </trkpt>
      <trkpt lat="49.65529" lon="-1.26065">
        <ele>12.35388</ele>
        <time>2022-07-30T13:12:19.000Z</time>
      </trkpt>
      <trkpt lat="49.65525" lon="-1.26064">
        <ele>12.36496</ele>
        <time>2022-07-30T13:12:20.000Z</time>
      </trkpt>
      <trkpt lat="49.65522" lon="-1.26062">
        <ele>12.376092</ele>
        <time>2022-07-30T13:12:21.000Z</time>
      </trkpt>
      <trkpt lat="49.65518" lon="-1.26061">
        <ele>12.388273</ele>
        <time>2022-07-30T13:12:22.000Z</time>
      </trkpt>
      <trkpt lat="49.65514" lon="-1.26059">
        <ele>12.400747</ele>
        <time>2022-07-30T13:12:23.000Z</time>
      </trkpt>
      <trkpt lat="49.65511" lon="-1.26056">
        <ele>12.41083</ele>
        <time>2022-07-30T13:12:24.000Z</time>
      </trkpt>
      <trkpt lat="49.65509" lon="-1.26054">
        <ele>12.419566</ele>
        <time>2022-07-30T13:12:25.000Z</time>
      </trkpt>
      <trkpt lat="49.65506" lon="-1.26051">
        <ele>12.429279</ele>
        <time>2022-07-30T13:12:26.000Z</time>
      </trkpt>
      <trkpt lat="49.65504" lon="-1.26048">
        <ele>12.437649</ele>
        <time>2022-07-30T13:12:27.000Z</time>
      </trkpt>
      <trkpt lat="49.65501" lon="-1.26046">
        <ele>12.446464</ele>
        <time>2022-07-30T13:12:28.000Z</time>
      </trkpt>
      <trkpt lat="49.65499" lon="-1.26045">
        <ele>12.453683</ele>
        <time>2022-07-30T13:12:29.000Z</time>
      </trkpt>
      <trkpt lat="49.65497" lon="-1.26044">
        <ele>12.460902</ele>
        <time>2022-07-30T13:12:30.000Z</time>
      </trkpt>
      <trkpt lat="49.65494" lon="-1.26043">
        <ele>12.469067</ele>
        <time>2022-07-30T13:12:31.000Z</time>
      </trkpt>
      <trkpt lat="49.65493" lon="-1.26041">
        <ele>12.476114</ele>
        <time>2022-07-30T13:12:32.000Z</time>
      </trkpt>
      <trkpt lat="49.65491" lon="-1.26039">
        <ele>12.482172</ele>
        <time>2022-07-30T13:12:33.000Z</time>
      </trkpt>
      <trkpt lat="49.65489" lon="-1.26035">
        <ele>12.490934</ele>
        <time>2022-07-30T13:12:34.000Z</time>
      </trkpt>
      <trkpt lat="49.65488" lon="-1.26031">
        <ele>12.500602</ele>
        <time>2022-07-30T13:12:35.000Z</time>
      </trkpt>
      <trkpt lat="49.65485" lon="-1.26027">
        <ele>12.512132</ele>
        <time>2022-07-30T13:12:36.000Z</time>
      </trkpt>
      <trkpt lat="49.65482" lon="-1.26024">
        <ele>12.522612</ele>
        <time>2022-07-30T13:12:37.000Z</time>
      </trkpt>
      <trkpt lat="49.6548" lon="-1.26021">
        <ele>12.531961</ele>
        <time>2022-07-30T13:12:38.000Z</time>
      </trkpt>
      <trkpt lat="49.65477" lon="-1.26019">
        <ele>12.541675</ele>
        <time>2022-07-30T13:12:39.000Z</time>
      </trkpt>
      <trkpt lat="49.65474" lon="-1.26015">
        <ele>12.552953</ele>
        <time>2022-07-30T13:12:40.000Z</time>
      </trkpt>
      <trkpt lat="49.65472" lon="-1.26012">
        <ele>12.562214</ele>
        <time>2022-07-30T13:12:41.000Z</time>
      </trkpt>
      <trkpt lat="49.6547" lon="-1.26009">
        <ele>12.57134</ele>
        <time>2022-07-30T13:12:42.000Z</time>
      </trkpt>
      <trkpt lat="49.65468" lon="-1.26006">
        <ele>12.578315</ele>
        <time>2022-07-30T13:12:43.000Z</time>
      </trkpt>
      <trkpt lat="49.65465" lon="-1.26002">
        <ele>12.590099</ele>
        <time>2022-07-30T13:12:44.000Z</time>
      </trkpt>
      <trkpt lat="49.65462" lon="-1.26">
        <ele>12.60058</ele>
        <time>2022-07-30T13:12:45.000Z</time>
      </trkpt>
      <trkpt lat="49.6546" lon="-1.25996">
        <ele>12.609841</ele>
        <time>2022-07-30T13:12:46.000Z</time>
      </trkpt>
      <trkpt lat="49.65458" lon="-1.25994">
        <ele>12.618816</ele>
        <time>2022-07-30T13:12:47.000Z</time>
      </trkpt>
      <trkpt lat="49.65456" lon="-1.25991">
        <ele>12.626213</ele>
        <time>2022-07-30T13:12:48.000Z</time>
      </trkpt>
      <trkpt lat="49.65453" lon="-1.25988">
        <ele>12.637048</ele>
        <time>2022-07-30T13:12:49.000Z</time>
      </trkpt>
      <trkpt lat="49.65452" lon="-1.25985">
        <ele>12.644457</ele>
        <time>2022-07-30T13:12:50.000Z</time>
      </trkpt>
      <trkpt lat="49.65449" lon="-1.25981">
        <ele>12.655488</ele>
        <time>2022-07-30T13:12:51.000Z</time>
      </trkpt>
      <trkpt lat="49.65447" lon="-1.25977">
        <ele>12.665929</ele>
        <time>2022-07-30T13:12:52.000Z</time>
      </trkpt>
      <trkpt lat="49.65445" lon="-1.25975">
        <ele>12.672291</ele>
        <time>2022-07-30T13:12:53.000Z</time>
      </trkpt>
      <trkpt lat="49.65443" lon="-1.25971">
        <ele>12.683713</ele>
        <time>2022-07-30T13:12:54.000Z</time>
      </trkpt>
      <trkpt lat="49.65441" lon="-1.25968">
        <ele>12.683791</ele>
        <time>2022-07-30T13:12:55.000Z</time>
      </trkpt>
      <trkpt lat="49.6544" lon="-1.25965">
        <ele>12.681289</ele>
        <time>2022-07-30T13:12:56.000Z</time>
      </trkpt>
      <trkpt lat="49.65439" lon="-1.25961">
        <ele>12.678337</ele>
        <time>2022-07-30T13:12:57.000Z</time>
      </trkpt>
      <trkpt lat="49.65438" lon="-1.25958">
        <ele>12.675883</ele>
        <time>2022-07-30T13:12:58.000Z</time>
      </trkpt>
      <trkpt lat="49.65438" lon="-1.25954">
        <ele>12.673306</ele>
        <time>2022-07-30T13:12:59.000Z</time>
      </trkpt>
      <trkpt lat="49.65438" lon="-1.2595">
        <ele>12.670434</ele>
        <time>2022-07-30T13:13:00.000Z</time>
      </trkpt>
      <trkpt lat="49.65439" lon="-1.25946">
        <ele>12.666931</ele>
        <time>2022-07-30T13:13:01.000Z</time>
      </trkpt>
      <trkpt lat="49.6544" lon="-1.25941">
        <ele>12.663331</ele>
        <time>2022-07-30T13:13:02.000Z</time>
      </trkpt>
      <trkpt lat="49.65441" lon="-1.25936">
        <ele>12.659364</ele>
        <time>2022-07-30T13:13:03.000Z</time>
      </trkpt>
      <trkpt lat="49.65442" lon="-1.25932">
        <ele>12.656246</ele>
        <time>2022-07-30T13:13:04.000Z</time>
      </trkpt>
      <trkpt lat="49.65444" lon="-1.25926">
        <ele>12.651468</ele>
        <time>2022-07-30T13:13:05.000Z</time>
      </trkpt>
      <trkpt lat="49.65445" lon="-1.25921">
        <ele>12.647228</ele>
        <time>2022-07-30T13:13:06.000Z</time>
      </trkpt>
      <trkpt lat="49.65446" lon="-1.25916">
        <ele>12.643375</ele>
        <time>2022-07-30T13:13:07.000Z</time>
      </trkpt>
      <trkpt lat="49.65448" lon="-1.25911">
        <ele>12.639339</ele>
        <time>2022-07-30T13:13:08.000Z</time>
      </trkpt>
      <trkpt lat="49.65448" lon="-1.25906">
        <ele>12.63545</ele>
        <time>2022-07-30T13:13:09.000Z</time>
      </trkpt>
      <trkpt lat="49.65449" lon="-1.25901">
        <ele>12.631737</ele>
        <time>2022-07-30T13:13:10.000Z</time>
      </trkpt>
      <trkpt lat="49.6545" lon="-1.25896">
        <ele>12.627774</ele>
        <time>2022-07-30T13:13:11.000Z</time>
      </trkpt>
      <trkpt lat="49.65452" lon="-1.2589">
        <ele>12.623669</ele>
        <time>2022-07-30T13:13:12.000Z</time>
      </trkpt>
      <trkpt lat="49.65453" lon="-1.25885">
        <ele>12.619604</ele>
        <time>2022-07-30T13:13:13.000Z</time>
      </trkpt>
      <trkpt lat="49.65453" lon="-1.25879">
        <ele>12.615284</ele>
        <time>2022-07-30T13:13:14.000Z</time>
      </trkpt>
      <trkpt lat="49.65454" lon="-1.25874">
        <ele>12.611007</ele>
        <time>2022-07-30T13:13:15.000Z</time>
      </trkpt>
      <trkpt lat="49.65456" lon="-1.25868">
        <ele>12.606418</ele>
        <time>2022-07-30T13:13:16.000Z</time>
      </trkpt>
      <trkpt lat="49.65457" lon="-1.25863">
        <ele>12.602383</ele>
        <time>2022-07-30T13:13:17.000Z</time>
      </trkpt>
      <trkpt lat="49.65458" lon="-1.25857">
        <ele>12.597933</ele>
        <time>2022-07-30T13:13:18.000Z</time>
      </trkpt>
      <trkpt lat="49.65459" lon="-1.25851">
        <ele>12.593622</ele>
        <time>2022-07-30T13:13:19.000Z</time>
      </trkpt>
      <trkpt lat="49.6546" lon="-1.25847">
        <ele>12.590383</ele>
        <time>2022-07-30T13:13:20.000Z</time>
      </trkpt>
      <trkpt lat="49.65461" lon="-1.25841">
        <ele>12.585374</ele>
        <time>2022-07-30T13:13:21.000Z</time>
      </trkpt>
      <trkpt lat="49.65462" lon="-1.25835">
        <ele>12.581246</ele>
        <time>2022-07-30T13:13:22.000Z</time>
      </trkpt>
      <trkpt lat="49.65462" lon="-1.25829">
        <ele>12.576776</ele>
        <time>2022-07-30T13:13:23.000Z</time>
      </trkpt>
      <trkpt lat="49.65462" lon="-1.25824">
        <ele>12.572726</ele>
        <time>2022-07-30T13:13:24.000Z</time>
      </trkpt>
      <trkpt lat="49.65463" lon="-1.25818">
        <ele>12.568661</ele>
        <time>2022-07-30T13:13:25.000Z</time>
      </trkpt>
      <trkpt lat="49.65464" lon="-1.25813">
        <ele>12.564817</ele>
        <time>2022-07-30T13:13:26.000Z</time>
      </trkpt>
      <trkpt lat="49.65464" lon="-1.25809">
        <ele>12.562072</ele>
        <time>2022-07-30T13:13:27.000Z</time>
      </trkpt>
      <trkpt lat="49.65464" lon="-1.25804">
        <ele>12.558374</ele>
        <time>2022-07-30T13:13:28.000Z</time>
      </trkpt>
      <trkpt lat="49.65465" lon="-1.25798">
        <ele>12.553502</ele>
        <time>2022-07-30T13:13:29.000Z</time>
      </trkpt>
      <trkpt lat="49.65464" lon="-1.25793">
        <ele>12.549658</ele>
        <time>2022-07-30T13:13:30.000Z</time>
      </trkpt>
      <trkpt lat="49.65464" lon="-1.25788">
        <ele>12.546345</ele>
        <time>2022-07-30T13:13:31.000Z</time>
      </trkpt>
      <trkpt lat="49.65464" lon="-1.25783">
        <ele>12.542663</ele>
        <time>2022-07-30T13:13:32.000Z</time>
      </trkpt>
      <trkpt lat="49.65465" lon="-1.25778">
        <ele>12.538746</ele>
        <time>2022-07-30T13:13:33.000Z</time>
      </trkpt>
      <trkpt lat="49.65466" lon="-1.25772">
        <ele>12.534397</ele>
        <time>2022-07-30T13:13:34.000Z</time>
      </trkpt>
      <trkpt lat="49.65466" lon="-1.25766">
        <ele>12.530145</ele>
        <time>2022-07-30T13:13:35.000Z</time>
      </trkpt>
      <trkpt lat="49.65467" lon="-1.25761">
        <ele>12.525868</ele>
        <time>2022-07-30T13:13:36.000Z</time>
      </trkpt>
      <trkpt lat="49.65468" lon="-1.25755">
        <ele>12.521397</ele>
        <time>2022-07-30T13:13:37.000Z</time>
      </trkpt>
      <trkpt lat="49.65468" lon="-1.25749">
        <ele>12.517029</ele>
        <time>2022-07-30T13:13:38.000Z</time>
      </trkpt>
      <trkpt lat="49.65467" lon="-1.25744">
        <ele>12.512964</ele>
        <time>2022-07-30T13:13:39.000Z</time>
      </trkpt>
      <trkpt lat="49.65466" lon="-1.25739">
        <ele>12.509376</ele>
        <time>2022-07-30T13:13:40.000Z</time>
      </trkpt>
      <trkpt lat="49.65463" lon="-1.25737">
        <ele>12.505599</ele>
        <time>2022-07-30T13:13:41.000Z</time>
      </trkpt>
      <trkpt lat="49.6546" lon="-1.25736">
        <ele>12.502164</ele>
        <time>2022-07-30T13:13:42.000Z</time>
      </trkpt>
      <trkpt lat="49.65457" lon="-1.25735">
        <ele>12.498506</ele>
        <time>2022-07-30T13:13:43.000Z</time>
      </trkpt>
      <trkpt lat="49.65453" lon="-1.25736">
        <ele>12.494095</ele>
        <time>2022-07-30T13:13:44.000Z</time>
      </trkpt>
      <trkpt lat="49.6545" lon="-1.25737">
        <ele>12.490366</ele>
        <time>2022-07-30T13:13:45.000Z</time>
      </trkpt>
      <trkpt lat="49.65446" lon="-1.25738">
        <ele>12.486331</ele>
        <time>2022-07-30T13:13:46.000Z</time>
      </trkpt>
      <trkpt lat="49.65443" lon="-1.25739">
        <ele>12.482344</ele>
        <time>2022-07-30T13:13:47.000Z</time>
      </trkpt>
      <trkpt lat="49.65437" lon="-1.25739">
        <ele>12.486473</ele>
        <time>2022-07-30T13:13:49.000Z</time>
      </trkpt>
      <trkpt lat="49.65433" lon="-1.25739">
        <ele>12.489807</ele>
        <time>2022-07-30T13:13:50.000Z</time>
      </trkpt>
      <trkpt lat="49.65429" lon="-1.25738">
        <ele>12.493521</ele>
        <time>2022-07-30T13:13:51.000Z</time>
      </trkpt>
      <trkpt lat="49.65426" lon="-1.25738">
        <ele>12.496566</ele>
        <time>2022-07-30T13:13:52.000Z</time>
      </trkpt>
      <trkpt lat="49.65423" lon="-1.25738">
        <ele>12.499232</ele>
        <time>2022-07-30T13:13:53.000Z</time>
      </trkpt>
      <trkpt lat="49.6542" lon="-1.25738">
        <ele>12.502952</ele>
        <time>2022-07-30T13:13:54.000Z</time>
      </trkpt>
      <trkpt lat="49.65416" lon="-1.25738">
        <ele>12.505998</ele>
        <time>2022-07-30T13:13:55.000Z</time>
      </trkpt>
      <trkpt lat="49.65413" lon="-1.25738">
        <ele>12.508758</ele>
        <time>2022-07-30T13:13:56.000Z</time>
      </trkpt>
      <trkpt lat="49.65411" lon="-1.25737">
        <ele>12.511157</ele>
        <time>2022-07-30T13:13:57.000Z</time>
      </trkpt>
      <trkpt lat="49.65408" lon="-1.25736">
        <ele>12.514088</ele>
        <time>2022-07-30T13:13:58.000Z</time>
      </trkpt>
      <trkpt lat="49.65405" lon="-1.25731">
        <ele>12.518377</ele>
        <time>2022-07-30T13:13:59.000Z</time>
      </trkpt>
      <trkpt lat="49.65404" lon="-1.25726">
        <ele>12.521583</ele>
        <time>2022-07-30T13:14:00.000Z</time>
      </trkpt>
      <trkpt lat="49.65403" lon="-1.25722">
        <ele>12.524485</ele>
        <time>2022-07-30T13:14:01.000Z</time>
      </trkpt>
      <trkpt lat="49.65402" lon="-1.25716">
        <ele>12.528242</ele>
        <time>2022-07-30T13:14:02.000Z</time>
      </trkpt>
      <trkpt lat="49.65403" lon="-1.2571">
        <ele>12.53194</ele>
        <time>2022-07-30T13:14:03.000Z</time>
      </trkpt>
      <trkpt lat="49.65404" lon="-1.25704">
        <ele>12.535735</ele>
        <time>2022-07-30T13:14:04.000Z</time>
      </trkpt>
      <trkpt lat="49.65405" lon="-1.25698">
        <ele>12.539189</ele>
        <time>2022-07-30T13:14:05.000Z</time>
      </trkpt>
      <trkpt lat="49.65406" lon="-1.25693">
        <ele>12.542913</ele>
        <time>2022-07-30T13:14:06.000Z</time>
      </trkpt>
      <trkpt lat="49.65406" lon="-1.25687">
        <ele>12.546168</ele>
        <time>2022-07-30T13:14:07.000Z</time>
      </trkpt>
      <trkpt lat="49.65408" lon="-1.25682">
        <ele>12.54966</ele>
        <time>2022-07-30T13:14:08.000Z</time>
      </trkpt>
      <trkpt lat="49.65409" lon="-1.25677">
        <ele>12.553155</ele>
        <time>2022-07-30T13:14:09.000Z</time>
      </trkpt>
      <trkpt lat="49.6541" lon="-1.25671">
        <ele>12.557154</ele>
        <time>2022-07-30T13:14:10.000Z</time>
      </trkpt>
      <trkpt lat="49.65412" lon="-1.25664">
        <ele>12.561228</ele>
        <time>2022-07-30T13:14:11.000Z</time>
      </trkpt>
      <trkpt lat="49.65413" lon="-1.25658">
        <ele>12.565285</ele>
        <time>2022-07-30T13:14:12.000Z</time>
      </trkpt>
      <trkpt lat="49.65414" lon="-1.25653">
        <ele>12.568662</ele>
        <time>2022-07-30T13:14:13.000Z</time>
      </trkpt>
      <trkpt lat="49.65415" lon="-1.25646">
        <ele>12.573181</ele>
        <time>2022-07-30T13:14:14.000Z</time>
      </trkpt>
      <trkpt lat="49.65416" lon="-1.2564">
        <ele>12.577179</ele>
        <time>2022-07-30T13:14:15.000Z</time>
      </trkpt>
      <trkpt lat="49.65418" lon="-1.25634">
        <ele>12.580961</ele>
        <time>2022-07-30T13:14:16.000Z</time>
      </trkpt>
      <trkpt lat="49.65419" lon="-1.25628">
        <ele>12.584779</ele>
        <time>2022-07-30T13:14:17.000Z</time>
      </trkpt>
      <trkpt lat="49.6542" lon="-1.25622">
        <ele>12.588574</ele>
        <time>2022-07-30T13:14:18.000Z</time>
      </trkpt>
      <trkpt lat="49.6542" lon="-1.25615">
        <ele>12.592589</ele>
        <time>2022-07-30T13:14:19.000Z</time>
      </trkpt>
      <trkpt lat="49.6542" lon="-1.25609">
        <ele>12.596612</ele>
        <time>2022-07-30T13:14:20.000Z</time>
      </trkpt>
      <trkpt lat="49.6542" lon="-1.25603">
        <ele>12.600433</ele>
        <time>2022-07-30T13:14:21.000Z</time>
      </trkpt>
      <trkpt lat="49.65421" lon="-1.25597">
        <ele>12.603711</ele>
        <time>2022-07-30T13:14:22.000Z</time>
      </trkpt>
      <trkpt lat="49.65421" lon="-1.2559">
        <ele>12.608455</ele>
        <time>2022-07-30T13:14:23.000Z</time>
      </trkpt>
      <trkpt lat="49.65421" lon="-1.25583">
        <ele>12.612584</ele>
        <time>2022-07-30T13:14:24.000Z</time>
      </trkpt>
      <trkpt lat="49.6542" lon="-1.25576">
        <ele>12.616661</ele>
        <time>2022-07-30T13:14:25.000Z</time>
      </trkpt>
      <trkpt lat="49.6542" lon="-1.25569">
        <ele>12.620974</ele>
        <time>2022-07-30T13:14:26.000Z</time>
      </trkpt>
      <trkpt lat="49.6542" lon="-1.25562">
        <ele>12.625582</ele>
        <time>2022-07-30T13:14:27.000Z</time>
      </trkpt>
      <trkpt lat="49.65419" lon="-1.25555">
        <ele>12.630116</ele>
        <time>2022-07-30T13:14:28.000Z</time>
      </trkpt>
      <trkpt lat="49.65418" lon="-1.25548">
        <ele>12.634481</ele>
        <time>2022-07-30T13:14:29.000Z</time>
      </trkpt>
      <trkpt lat="49.65418" lon="-1.2554">
        <ele>12.638926</ele>
        <time>2022-07-30T13:14:30.000Z</time>
      </trkpt>
      <trkpt lat="49.65418" lon="-1.25534">
        <ele>12.643126</ele>
        <time>2022-07-30T13:14:31.000Z</time>
      </trkpt>
      <trkpt lat="49.65417" lon="-1.25527">
        <ele>12.647355</ele>
        <time>2022-07-30T13:14:32.000Z</time>
      </trkpt>
      <trkpt lat="49.65417" lon="-1.2552">
        <ele>12.651501</ele>
        <time>2022-07-30T13:14:33.000Z</time>
      </trkpt>
      <trkpt lat="49.65417" lon="-1.25513">
        <ele>12.628479</ele>
        <time>2022-07-30T13:14:34.000Z</time>
      </trkpt>
      <trkpt lat="49.65417" lon="-1.25507">
        <ele>12.595257</ele>
        <time>2022-07-30T13:14:35.000Z</time>
      </trkpt>
      <trkpt lat="49.65417" lon="-1.25501">
        <ele>12.562034</ele>
        <time>2022-07-30T13:14:36.000Z</time>
      </trkpt>
      <trkpt lat="49.65417" lon="-1.25494">
        <ele>12.528446</ele>
        <time>2022-07-30T13:14:37.000Z</time>
      </trkpt>
      <trkpt lat="49.65417" lon="-1.25488">
        <ele>12.496956</ele>
        <time>2022-07-30T13:14:38.000Z</time>
      </trkpt>
      <trkpt lat="49.65416" lon="-1.25482">
        <ele>12.465373</ele>
        <time>2022-07-30T13:14:39.000Z</time>
      </trkpt>
      <trkpt lat="49.65416" lon="-1.25476">
        <ele>12.433359</ele>
        <time>2022-07-30T13:14:40.000Z</time>
      </trkpt>
      <trkpt lat="49.65416" lon="-1.2547">
        <ele>12.400729</ele>
        <time>2022-07-30T13:14:41.000Z</time>
      </trkpt>
      <trkpt lat="49.65415" lon="-1.25464">
        <ele>12.369228</ele>
        <time>2022-07-30T13:14:42.000Z</time>
      </trkpt>
      <trkpt lat="49.65414" lon="-1.25459">
        <ele>12.340473</ele>
        <time>2022-07-30T13:14:43.000Z</time>
      </trkpt>
      <trkpt lat="49.65413" lon="-1.25454">
        <ele>12.309782</ele>
        <time>2022-07-30T13:14:44.000Z</time>
      </trkpt>
      <trkpt lat="49.65412" lon="-1.25449">
        <ele>12.28535</ele>
        <time>2022-07-30T13:14:45.000Z</time>
      </trkpt>
      <trkpt lat="49.65409" lon="-1.25443">
        <ele>12.24746</ele>
        <time>2022-07-30T13:14:46.000Z</time>
      </trkpt>
      <trkpt lat="49.65407" lon="-1.25438">
        <ele>12.214408</ele>
        <time>2022-07-30T13:14:47.000Z</time>
      </trkpt>
      <trkpt lat="49.65405" lon="-1.25433">
        <ele>12.18169</ele>
        <time>2022-07-30T13:14:48.000Z</time>
      </trkpt>
      <trkpt lat="49.65404" lon="-1.25426">
        <ele>12.148789</ele>
        <time>2022-07-30T13:14:49.000Z</time>
      </trkpt>
      <trkpt lat="49.65404" lon="-1.2542">
        <ele>12.114676</ele>
        <time>2022-07-30T13:14:50.000Z</time>
      </trkpt>
      <trkpt lat="49.65404" lon="-1.25415">
        <ele>12.08686</ele>
        <time>2022-07-30T13:14:51.000Z</time>
      </trkpt>
      <trkpt lat="49.65404" lon="-1.25407">
        <ele>12.045924</ele>
        <time>2022-07-30T13:14:52.000Z</time>
      </trkpt>
      <trkpt lat="49.65405" lon="-1.254">
        <ele>12.012247</ele>
        <time>2022-07-30T13:14:53.000Z</time>
      </trkpt>
      <trkpt lat="49.65405" lon="-1.25395">
        <ele>11.984431</ele>
        <time>2022-07-30T13:14:54.000Z</time>
      </trkpt>
      <trkpt lat="49.65406" lon="-1.25387">
        <ele>11.941143</ele>
        <time>2022-07-30T13:14:55.000Z</time>
      </trkpt>
      <trkpt lat="49.65406" lon="-1.25381">
        <ele>11.907723</ele>
        <time>2022-07-30T13:14:56.000Z</time>
      </trkpt>
      <trkpt lat="49.65408" lon="-1.25374">
        <ele>11.871014</ele>
        <time>2022-07-30T13:14:57.000Z</time>
      </trkpt>
      <trkpt lat="49.65409" lon="-1.25368">
        <ele>11.836129</ele>
        <time>2022-07-30T13:14:58.000Z</time>
      </trkpt>
      <trkpt lat="49.6541" lon="-1.25363">
        <ele>11.810165</ele>
        <time>2022-07-30T13:14:59.000Z</time>
      </trkpt>
      <trkpt lat="49.65411" lon="-1.25355">
        <ele>11.768909</ele>
        <time>2022-07-30T13:15:00.000Z</time>
      </trkpt>
      <trkpt lat="49.65412" lon="-1.25349">
        <ele>11.734706</ele>
        <time>2022-07-30T13:15:01.000Z</time>
      </trkpt>
      <trkpt lat="49.65414" lon="-1.25342">
        <ele>11.697227</ele>
        <time>2022-07-30T13:15:02.000Z</time>
      </trkpt>
      <trkpt lat="49.65415" lon="-1.25335">
        <ele>11.659223</ele>
        <time>2022-07-30T13:15:03.000Z</time>
      </trkpt>
      <trkpt lat="49.65417" lon="-1.25328">
        <ele>11.618775</ele>
        <time>2022-07-30T13:15:04.000Z</time>
      </trkpt>
      <trkpt lat="49.65419" lon="-1.2532">
        <ele>11.575232</ele>
        <time>2022-07-30T13:15:05.000Z</time>
      </trkpt>
      <trkpt lat="49.65421" lon="-1.25312">
        <ele>11.53051</ele>
        <time>2022-07-30T13:15:06.000Z</time>
      </trkpt>
      <trkpt lat="49.65422" lon="-1.25305">
        <ele>11.486772</ele>
        <time>2022-07-30T13:15:07.000Z</time>
      </trkpt>
      <trkpt lat="49.65425" lon="-1.25297">
        <ele>11.444513</ele>
        <time>2022-07-30T13:15:08.000Z</time>
      </trkpt>
      <trkpt lat="49.65427" lon="-1.2529">
        <ele>11.403782</ele>
        <time>2022-07-30T13:15:09.000Z</time>
      </trkpt>
      <trkpt lat="49.6543" lon="-1.25284">
        <ele>11.362352</ele>
        <time>2022-07-30T13:15:10.000Z</time>
      </trkpt>
      <trkpt lat="49.65432" lon="-1.25277">
        <ele>11.323392</ele>
        <time>2022-07-30T13:15:11.000Z</time>
      </trkpt>
      <trkpt lat="49.65434" lon="-1.25271">
        <ele>11.287203</ele>
        <time>2022-07-30T13:15:12.000Z</time>
      </trkpt>
      <trkpt lat="49.65436" lon="-1.25265">
        <ele>11.250848</ele>
        <time>2022-07-30T13:15:13.000Z</time>
      </trkpt>
      <trkpt lat="49.65438" lon="-1.25259">
        <ele>11.214659</ele>
        <time>2022-07-30T13:15:14.000Z</time>
      </trkpt>
      <trkpt lat="49.65441" lon="-1.25253">
        <ele>11.164492</ele>
        <time>2022-07-30T13:15:15.000Z</time>
      </trkpt>
      <trkpt lat="49.65443" lon="-1.25247">
        <ele>11.095533</ele>
        <time>2022-07-30T13:15:16.000Z</time>
      </trkpt>
      <trkpt lat="49.65445" lon="-1.25242">
        <ele>11.025928</ele>
        <time>2022-07-30T13:15:17.000Z</time>
      </trkpt>
      <trkpt lat="49.65448" lon="-1.25236">
        <ele>10.952479</ele>
        <time>2022-07-30T13:15:18.000Z</time>
      </trkpt>
      <trkpt lat="49.6545" lon="-1.25231">
        <ele>10.889881</ele>
        <time>2022-07-30T13:15:19.000Z</time>
      </trkpt>
      <trkpt lat="49.65453" lon="-1.25226">
        <ele>10.815022</ele>
        <time>2022-07-30T13:15:20.000Z</time>
      </trkpt>
      <trkpt lat="49.65456" lon="-1.25221">
        <ele>10.746279</ele>
        <time>2022-07-30T13:15:21.000Z</time>
      </trkpt>
      <trkpt lat="49.65459" lon="-1.25216">
        <ele>10.676768</ele>
        <time>2022-07-30T13:15:22.000Z</time>
      </trkpt>
      <trkpt lat="49.65462" lon="-1.25212">
        <ele>10.613539</ele>
        <time>2022-07-30T13:15:23.000Z</time>
      </trkpt>
      <trkpt lat="49.65464" lon="-1.25207">
        <ele>10.552922</ele>
        <time>2022-07-30T13:15:24.000Z</time>
      </trkpt>
      <trkpt lat="49.65467" lon="-1.25203">
        <ele>10.497526</ele>
        <time>2022-07-30T13:15:25.000Z</time>
      </trkpt>
      <trkpt lat="49.65469" lon="-1.25199">
        <ele>10.436526</ele>
        <time>2022-07-30T13:15:26.000Z</time>
      </trkpt>
      <trkpt lat="49.65472" lon="-1.25196">
        <ele>10.38068</ele>
        <time>2022-07-30T13:15:27.000Z</time>
      </trkpt>
      <trkpt lat="49.65475" lon="-1.25192">
        <ele>10.324138</ele>
        <time>2022-07-30T13:15:28.000Z</time>
      </trkpt>
      <trkpt lat="49.65477" lon="-1.25188">
        <ele>10.261713</ele>
        <time>2022-07-30T13:15:29.000Z</time>
      </trkpt>
      <trkpt lat="49.6548" lon="-1.25184">
        <ele>10.203958</ele>
        <time>2022-07-30T13:15:30.000Z</time>
      </trkpt>
      <trkpt lat="49.65482" lon="-1.2518">
        <ele>10.14786</ele>
        <time>2022-07-30T13:15:31.000Z</time>
      </trkpt>
      <trkpt lat="49.65485" lon="-1.25176">
        <ele>10.085148</ele>
        <time>2022-07-30T13:15:32.000Z</time>
      </trkpt>
      <trkpt lat="49.65488" lon="-1.25173">
        <ele>10.024989</ele>
        <time>2022-07-30T13:15:33.000Z</time>
      </trkpt>
      <trkpt lat="49.6549" lon="-1.25168">
        <ele>9.96936</ele>
        <time>2022-07-30T13:15:34.000Z</time>
      </trkpt>
      <trkpt lat="49.65492" lon="-1.25163">
        <ele>9.911642</ele>
        <time>2022-07-30T13:15:35.000Z</time>
      </trkpt>
      <trkpt lat="49.65491" lon="-1.25158">
        <ele>9.856554</ele>
        <time>2022-07-30T13:15:36.000Z</time>
      </trkpt>
      <trkpt lat="49.65489" lon="-1.25153">
        <ele>9.800926</ele>
        <time>2022-07-30T13:15:37.000Z</time>
      </trkpt>
      <trkpt lat="49.65487" lon="-1.25149">
        <ele>9.743171</ele>
        <time>2022-07-30T13:15:38.000Z</time>
      </trkpt>
      <trkpt lat="49.65484" lon="-1.25145">
        <ele>9.680746</ele>
        <time>2022-07-30T13:15:39.000Z</time>
      </trkpt>
      <trkpt lat="49.65482" lon="-1.2514">
        <ele>9.619823</ele>
        <time>2022-07-30T13:15:40.000Z</time>
      </trkpt>
      <trkpt lat="49.65479" lon="-1.25135">
        <ele>9.558079</ele>
        <time>2022-07-30T13:15:41.000Z</time>
      </trkpt>
      <trkpt lat="49.65477" lon="-1.2513">
        <ele>9.486225</ele>
        <time>2022-07-30T13:15:42.000Z</time>
      </trkpt>
      <trkpt lat="49.65474" lon="-1.25125">
        <ele>9.41982</ele>
        <time>2022-07-30T13:15:43.000Z</time>
      </trkpt>
      <trkpt lat="49.65471" lon="-1.2512">
        <ele>9.350235</ele>
        <time>2022-07-30T13:15:44.000Z</time>
      </trkpt>
      <trkpt lat="49.65468" lon="-1.25114">
        <ele>9.272114</ele>
        <time>2022-07-30T13:15:45.000Z</time>
      </trkpt>
      <trkpt lat="49.65466" lon="-1.25108">
        <ele>9.199066</ele>
        <time>2022-07-30T13:15:46.000Z</time>
      </trkpt>
      <trkpt lat="49.65463" lon="-1.25102">
        <ele>9.124001</ele>
        <time>2022-07-30T13:15:47.000Z</time>
      </trkpt>
      <trkpt lat="49.6546" lon="-1.25097">
        <ele>9.050553</ele>
        <time>2022-07-30T13:15:48.000Z</time>
      </trkpt>
      <trkpt lat="49.65457" lon="-1.25091">
        <ele>8.971647</ele>
        <time>2022-07-30T13:15:49.000Z</time>
      </trkpt>
      <trkpt lat="49.65453" lon="-1.25085">
        <ele>8.891153</ele>
        <time>2022-07-30T13:15:50.000Z</time>
      </trkpt>
      <trkpt lat="49.6545" lon="-1.25079">
        <ele>8.806434</ele>
        <time>2022-07-30T13:15:51.000Z</time>
      </trkpt>
      <trkpt lat="49.65445" lon="-1.25075">
        <ele>8.714978</ele>
        <time>2022-07-30T13:15:52.000Z</time>
      </trkpt>
      <trkpt lat="49.6544" lon="-1.2507">
        <ele>8.627512</ele>
        <time>2022-07-30T13:15:53.000Z</time>
      </trkpt>
      <trkpt lat="49.65436" lon="-1.25065">
        <ele>8.542663</ele>
        <time>2022-07-30T13:15:54.000Z</time>
      </trkpt>
      <trkpt lat="49.65432" lon="-1.25059">
        <ele>8.456572</ele>
        <time>2022-07-30T13:15:55.000Z</time>
      </trkpt>
      <trkpt lat="49.65428" lon="-1.25054">
        <ele>8.371761</ele>
        <time>2022-07-30T13:15:56.000Z</time>
      </trkpt>
      <trkpt lat="49.65424" lon="-1.2505">
        <ele>8.322883</ele>
        <time>2022-07-30T13:15:57.000Z</time>
      </trkpt>
      <trkpt lat="49.6542" lon="-1.25044">
        <ele>8.337911</ele>
        <time>2022-07-30T13:15:58.000Z</time>
      </trkpt>
      <trkpt lat="49.65416" lon="-1.25039">
        <ele>8.351595</ele>
        <time>2022-07-30T13:15:59.000Z</time>
      </trkpt>
      <trkpt lat="49.65412" lon="-1.25034">
        <ele>8.365532</ele>
        <time>2022-07-30T13:16:00.000Z</time>
      </trkpt>
      <trkpt lat="49.65408" lon="-1.2503">
        <ele>8.379123</ele>
        <time>2022-07-30T13:16:01.000Z</time>
      </trkpt>
      <trkpt lat="49.65404" lon="-1.25026">
        <ele>8.393189</ele>
        <time>2022-07-30T13:16:02.000Z</time>
      </trkpt>
      <trkpt lat="49.654" lon="-1.25022">
        <ele>8.405828</ele>
        <time>2022-07-30T13:16:03.000Z</time>
      </trkpt>
      <trkpt lat="49.65396" lon="-1.25018">
        <ele>8.418566</ele>
        <time>2022-07-30T13:16:04.000Z</time>
      </trkpt>
      <trkpt lat="49.65392" lon="-1.25014">
        <ele>8.431737</ele>
        <time>2022-07-30T13:16:05.000Z</time>
      </trkpt>
      <trkpt lat="49.65389" lon="-1.2501">
        <ele>8.444336</ele>
        <time>2022-07-30T13:16:06.000Z</time>
      </trkpt>
      <trkpt lat="49.65385" lon="-1.25006">
        <ele>8.457175</ele>
        <time>2022-07-30T13:16:07.000Z</time>
      </trkpt>
      <trkpt lat="49.65382" lon="-1.25002">
        <ele>8.468151</ele>
        <time>2022-07-30T13:16:08.000Z</time>
      </trkpt>
      <trkpt lat="49.65378" lon="-1.24998">
        <ele>8.481122</ele>
        <time>2022-07-30T13:16:09.000Z</time>
      </trkpt>
      <trkpt lat="49.65375" lon="-1.24994">
        <ele>8.493066</ele>
        <time>2022-07-30T13:16:10.000Z</time>
      </trkpt>
      <trkpt lat="49.65372" lon="-1.2499">
        <ele>8.504289</ele>
        <time>2022-07-30T13:16:11.000Z</time>
      </trkpt>
      <trkpt lat="49.65369" lon="-1.24985">
        <ele>8.516371</ele>
        <time>2022-07-30T13:16:12.000Z</time>
      </trkpt>
      <trkpt lat="49.65365" lon="-1.24981">
        <ele>8.528745</ele>
        <time>2022-07-30T13:16:13.000Z</time>
      </trkpt>
      <trkpt lat="49.65362" lon="-1.24977">
        <ele>8.539844</ele>
        <time>2022-07-30T13:16:14.000Z</time>
      </trkpt>
      <trkpt lat="49.65359" lon="-1.24973">
        <ele>8.550016</ele>
        <time>2022-07-30T13:16:15.000Z</time>
      </trkpt>
      <trkpt lat="49.65357" lon="-1.2497">
        <ele>8.560291</ele>
        <time>2022-07-30T13:16:16.000Z</time>
      </trkpt>
      <trkpt lat="49.65354" lon="-1.24966">
        <ele>8.570536</ele>
        <time>2022-07-30T13:16:17.000Z</time>
      </trkpt>
      <trkpt lat="49.65351" lon="-1.24962">
        <ele>8.580456</ele>
        <time>2022-07-30T13:16:18.000Z</time>
      </trkpt>
      <trkpt lat="49.65349" lon="-1.24958">
        <ele>8.590538</ele>
        <time>2022-07-30T13:16:19.000Z</time>
      </trkpt>
      <trkpt lat="49.65347" lon="-1.24953">
        <ele>8.599799</ele>
        <time>2022-07-30T13:16:20.000Z</time>
      </trkpt>
      <trkpt lat="49.65345" lon="-1.2495">
        <ele>8.609793</ele>
        <time>2022-07-30T13:16:21.000Z</time>
      </trkpt>
      <trkpt lat="49.65341" lon="-1.24946">
        <ele>8.620953</ele>
        <time>2022-07-30T13:16:22.000Z</time>
      </trkpt>
      <trkpt lat="49.65339" lon="-1.24942">
        <ele>8.631601</ele>
        <time>2022-07-30T13:16:23.000Z</time>
      </trkpt>
      <trkpt lat="49.65335" lon="-1.24938">
        <ele>8.643094</ele>
        <time>2022-07-30T13:16:24.000Z</time>
      </trkpt>
      <trkpt lat="49.65332" lon="-1.24934">
        <ele>8.654363</ele>
        <time>2022-07-30T13:16:25.000Z</time>
      </trkpt>
      <trkpt lat="49.65329" lon="-1.24931">
        <ele>8.66624</ele>
        <time>2022-07-30T13:16:26.000Z</time>
      </trkpt>
      <trkpt lat="49.65327" lon="-1.24926">
        <ele>8.676409</ele>
        <time>2022-07-30T13:16:27.000Z</time>
      </trkpt>
      <trkpt lat="49.65324" lon="-1.24922">
        <ele>8.685709</ele>
        <time>2022-07-30T13:16:28.000Z</time>
      </trkpt>
      <trkpt lat="49.65321" lon="-1.2492">
        <ele>8.695563</ele>
        <time>2022-07-30T13:16:29.000Z</time>
      </trkpt>
      <trkpt lat="49.65319" lon="-1.24916">
        <ele>8.704965</ele>
        <time>2022-07-30T13:16:30.000Z</time>
      </trkpt>
      <trkpt lat="49.65317" lon="-1.24912">
        <ele>8.714315</ele>
        <time>2022-07-30T13:16:31.000Z</time>
      </trkpt>
      <trkpt lat="49.65314" lon="-1.24908">
        <ele>8.723985</ele>
        <time>2022-07-30T13:16:32.000Z</time>
      </trkpt>
      <trkpt lat="49.65311" lon="-1.24904">
        <ele>8.734757</ele>
        <time>2022-07-30T13:16:33.000Z</time>
      </trkpt>
      <trkpt lat="49.65309" lon="-1.249">
        <ele>8.744427</ele>
        <time>2022-07-30T13:16:34.000Z</time>
      </trkpt>
      <trkpt lat="49.65306" lon="-1.24897">
        <ele>8.754592</ele>
        <time>2022-07-30T13:16:35.000Z</time>
      </trkpt>
      <trkpt lat="49.65303" lon="-1.24894">
        <ele>8.765334</ele>
        <time>2022-07-30T13:16:36.000Z</time>
      </trkpt>
      <trkpt lat="49.65301" lon="-1.2489">
        <ele>8.774755</ele>
        <time>2022-07-30T13:16:37.000Z</time>
      </trkpt>
      <trkpt lat="49.65298" lon="-1.24886">
        <ele>8.784157</ele>
        <time>2022-07-30T13:16:38.000Z</time>
      </trkpt>
      <trkpt lat="49.65295" lon="-1.24882">
        <ele>8.794806</ele>
        <time>2022-07-30T13:16:39.000Z</time>
      </trkpt>
      <trkpt lat="49.65293" lon="-1.24879">
        <ele>8.805307</ele>
        <time>2022-07-30T13:16:40.000Z</time>
      </trkpt>
      <trkpt lat="49.6529" lon="-1.24876">
        <ele>8.814761</ele>
        <time>2022-07-30T13:16:41.000Z</time>
      </trkpt>
      <trkpt lat="49.65285" lon="-1.24873">
        <ele>8.810163</ele>
        <time>2022-07-30T13:16:42.000Z</time>
      </trkpt>
      <trkpt lat="49.65283" lon="-1.2487">
        <ele>8.798487</ele>
        <time>2022-07-30T13:16:43.000Z</time>
      </trkpt>
      <trkpt lat="49.6528" lon="-1.24866">
        <ele>8.785326</ele>
        <time>2022-07-30T13:16:44.000Z</time>
      </trkpt>
      <trkpt lat="49.65277" lon="-1.24863">
        <ele>8.77282</ele>
        <time>2022-07-30T13:16:45.000Z</time>
      </trkpt>
      <trkpt lat="49.65275" lon="-1.24858">
        <ele>8.759906</ele>
        <time>2022-07-30T13:16:46.000Z</time>
      </trkpt>
      <trkpt lat="49.65273" lon="-1.24854">
        <ele>8.747132</ele>
        <time>2022-07-30T13:16:47.000Z</time>
      </trkpt>
      <trkpt lat="49.6527" lon="-1.24849">
        <ele>8.733003</ele>
        <time>2022-07-30T13:16:48.000Z</time>
      </trkpt>
      <trkpt lat="49.65267" lon="-1.24846">
        <ele>8.718999</ele>
        <time>2022-07-30T13:16:49.000Z</time>
      </trkpt>
      <trkpt lat="49.65263" lon="-1.24842">
        <ele>8.703157</ele>
        <time>2022-07-30T13:16:50.000Z</time>
      </trkpt>
      <trkpt lat="49.65259" lon="-1.24838">
        <ele>8.686219</ele>
        <time>2022-07-30T13:16:51.000Z</time>
      </trkpt>
      <trkpt lat="49.65255" lon="-1.24834">
        <ele>8.668643</ele>
        <time>2022-07-30T13:16:52.000Z</time>
      </trkpt>
      <trkpt lat="49.6525" lon="-1.24829">
        <ele>8.649034</ele>
        <time>2022-07-30T13:16:53.000Z</time>
      </trkpt>
      <trkpt lat="49.65247" lon="-1.24825">
        <ele>8.63418</ele>
        <time>2022-07-30T13:16:54.000Z</time>
      </trkpt>
      <trkpt lat="49.65243" lon="-1.2482">
        <ele>8.615701</ele>
        <time>2022-07-30T13:16:55.000Z</time>
      </trkpt>
      <trkpt lat="49.65238" lon="-1.24814">
        <ele>8.593297</ele>
        <time>2022-07-30T13:16:56.000Z</time>
      </trkpt>
      <trkpt lat="49.65233" lon="-1.24809">
        <ele>8.573194</ele>
        <time>2022-07-30T13:16:57.000Z</time>
      </trkpt>
      <trkpt lat="49.65229" lon="-1.24805">
        <ele>8.555495</ele>
        <time>2022-07-30T13:16:58.000Z</time>
      </trkpt>
      <trkpt lat="49.65226" lon="-1.24801">
        <ele>8.541624</ele>
        <time>2022-07-30T13:16:59.000Z</time>
      </trkpt>
      <trkpt lat="49.6522" lon="-1.24797">
        <ele>8.517612</ele>
        <time>2022-07-30T13:17:00.000Z</time>
      </trkpt>
      <trkpt lat="49.65215" lon="-1.24792">
        <ele>8.498648</ele>
        <time>2022-07-30T13:17:01.000Z</time>
      </trkpt>
      <trkpt lat="49.65211" lon="-1.24788">
        <ele>8.480856</ele>
        <time>2022-07-30T13:17:02.000Z</time>
      </trkpt>
      <trkpt lat="49.65206" lon="-1.24783">
        <ele>8.461112</ele>
        <time>2022-07-30T13:17:03.000Z</time>
      </trkpt>
      <trkpt lat="49.65202" lon="-1.24778">
        <ele>8.443183</ele>
        <time>2022-07-30T13:17:04.000Z</time>
      </trkpt>
      <trkpt lat="49.65198" lon="-1.24774">
        <ele>8.42539</ele>
        <time>2022-07-30T13:17:05.000Z</time>
      </trkpt>
      <trkpt lat="49.65195" lon="-1.24771">
        <ele>8.411231</ele>
        <time>2022-07-30T13:17:06.000Z</time>
      </trkpt>
      <trkpt lat="49.6519" lon="-1.24768">
        <ele>8.393238</ele>
        <time>2022-07-30T13:17:07.000Z</time>
      </trkpt>
      <trkpt lat="49.65184" lon="-1.24765">
        <ele>8.370449</ele>
        <time>2022-07-30T13:17:08.000Z</time>
      </trkpt>
      <trkpt lat="49.65178" lon="-1.24763">
        <ele>8.349148</ele>
        <time>2022-07-30T13:17:09.000Z</time>
      </trkpt>
      <trkpt lat="49.65172" lon="-1.2476">
        <ele>8.328365</ele>
        <time>2022-07-30T13:17:10.000Z</time>
      </trkpt>
      <trkpt lat="49.65166" lon="-1.24758">
        <ele>8.307182</ele>
        <time>2022-07-30T13:17:11.000Z</time>
      </trkpt>
      <trkpt lat="49.65162" lon="-1.24755">
        <ele>8.290814</ele>
        <time>2022-07-30T13:17:12.000Z</time>
      </trkpt>
      <trkpt lat="49.65159" lon="-1.24752">
        <ele>8.276654</ele>
        <time>2022-07-30T13:17:13.000Z</time>
      </trkpt>
      <trkpt lat="49.65155" lon="-1.2475">
        <ele>8.262299</ele>
        <time>2022-07-30T13:17:14.000Z</time>
      </trkpt>
      <trkpt lat="49.65152" lon="-1.24748">
        <ele>8.25222</ele>
        <time>2022-07-30T13:17:15.000Z</time>
      </trkpt>
      <trkpt lat="49.65149" lon="-1.24746">
        <ele>8.238579</ele>
        <time>2022-07-30T13:17:16.000Z</time>
      </trkpt>
      <trkpt lat="49.65146" lon="-1.24744">
        <ele>8.226532</ele>
        <time>2022-07-30T13:17:17.000Z</time>
      </trkpt>
      <trkpt lat="49.65142" lon="-1.24742">
        <ele>8.214767</ele>
        <time>2022-07-30T13:17:18.000Z</time>
      </trkpt>
      <trkpt lat="49.65139" lon="-1.2474">
        <ele>8.201485</ele>
        <time>2022-07-30T13:17:19.000Z</time>
      </trkpt>
      <trkpt lat="49.65137" lon="-1.24738">
        <ele>8.192258</ele>
        <time>2022-07-30T13:17:20.000Z</time>
      </trkpt>
      <trkpt lat="49.65134" lon="-1.24737">
        <ele>8.184921</ele>
        <time>2022-07-30T13:17:21.000Z</time>
      </trkpt>
      <trkpt lat="49.6513" lon="-1.24735">
        <ele>8.192605</ele>
        <time>2022-07-30T13:17:22.000Z</time>
      </trkpt>
      <trkpt lat="49.65127" lon="-1.24733">
        <ele>8.198974</ele>
        <time>2022-07-30T13:17:23.000Z</time>
      </trkpt>
      <trkpt lat="49.65124" lon="-1.24731">
        <ele>8.204912</ele>
        <time>2022-07-30T13:17:24.000Z</time>
      </trkpt>
      <trkpt lat="49.65122" lon="-1.24729">
        <ele>8.209568</ele>
        <time>2022-07-30T13:17:25.000Z</time>
      </trkpt>
      <trkpt lat="49.65118" lon="-1.24726">
        <ele>8.217841</ele>
        <time>2022-07-30T13:17:26.000Z</time>
      </trkpt>
      <trkpt lat="49.65115" lon="-1.24722">
        <ele>8.225103</ele>
        <time>2022-07-30T13:17:27.000Z</time>
      </trkpt>
      <trkpt lat="49.65112" lon="-1.24719">
        <ele>8.231698</ele>
        <time>2022-07-30T13:17:28.000Z</time>
      </trkpt>
      <trkpt lat="49.65108" lon="-1.24717">
        <ele>8.239594</ele>
        <time>2022-07-30T13:17:29.000Z</time>
      </trkpt>
      <trkpt lat="49.65105" lon="-1.24715">
        <ele>8.244859</ele>
        <time>2022-07-30T13:17:30.000Z</time>
      </trkpt>
      <trkpt lat="49.65102" lon="-1.24712">
        <ele>8.251385</ele>
        <time>2022-07-30T13:17:31.000Z</time>
      </trkpt>
      <trkpt lat="49.651" lon="-1.2471">
        <ele>8.256929</ele>
        <time>2022-07-30T13:17:32.000Z</time>
      </trkpt>
      <trkpt lat="49.65097" lon="-1.24707">
        <ele>8.262859</ele>
        <time>2022-07-30T13:17:33.000Z</time>
      </trkpt>
      <trkpt lat="49.65094" lon="-1.24704">
        <ele>8.269075</ele>
        <time>2022-07-30T13:17:34.000Z</time>
      </trkpt>
      <trkpt lat="49.65092" lon="-1.24701">
        <ele>8.275524</ele>
        <time>2022-07-30T13:17:35.000Z</time>
      </trkpt>
      <trkpt lat="49.65089" lon="-1.24696">
        <ele>8.282823</ele>
        <time>2022-07-30T13:17:36.000Z</time>
      </trkpt>
      <trkpt lat="49.65086" lon="-1.24692">
        <ele>8.289946</ele>
        <time>2022-07-30T13:17:37.000Z</time>
      </trkpt>
      <trkpt lat="49.65084" lon="-1.24688">
        <ele>8.297248</ele>
        <time>2022-07-30T13:17:38.000Z</time>
      </trkpt>
      <trkpt lat="49.65081" lon="-1.24684">
        <ele>8.304945</ele>
        <time>2022-07-30T13:17:39.000Z</time>
      </trkpt>
      <trkpt lat="49.65078" lon="-1.24679">
        <ele>8.311853</ele>
        <time>2022-07-30T13:17:40.000Z</time>
      </trkpt>
      <trkpt lat="49.65076" lon="-1.24675">
        <ele>8.318329</ele>
        <time>2022-07-30T13:17:41.000Z</time>
      </trkpt>
      <trkpt lat="49.65074" lon="-1.24672">
        <ele>8.324142</ele>
        <time>2022-07-30T13:17:42.000Z</time>
      </trkpt>
      <trkpt lat="49.65072" lon="-1.24668">
        <ele>8.329398</ele>
        <time>2022-07-30T13:17:43.000Z</time>
      </trkpt>
      <trkpt lat="49.65069" lon="-1.24665">
        <ele>8.335993</ele>
        <time>2022-07-30T13:17:44.000Z</time>
      </trkpt>
      <trkpt lat="49.65065" lon="-1.24662">
        <ele>8.344086</ele>
        <time>2022-07-30T13:17:45.000Z</time>
      </trkpt>
      <trkpt lat="49.65063" lon="-1.2466">
        <ele>8.349022</ele>
        <time>2022-07-30T13:17:46.000Z</time>
      </trkpt>
      <trkpt lat="49.6506" lon="-1.24656">
        <ele>8.356953</ele>
        <time>2022-07-30T13:17:47.000Z</time>
      </trkpt>
      <trkpt lat="49.65057" lon="-1.24653">
        <ele>8.363479</ele>
        <time>2022-07-30T13:17:48.000Z</time>
      </trkpt>
      <trkpt lat="49.65053" lon="-1.24651">
        <ele>8.370742</ele>
        <time>2022-07-30T13:17:49.000Z</time>
      </trkpt>
      <trkpt lat="49.6505" lon="-1.24648">
        <ele>8.377202</ele>
        <time>2022-07-30T13:17:50.000Z</time>
      </trkpt>
      <trkpt lat="49.65047" lon="-1.24645">
        <ele>8.384396</ele>
        <time>2022-07-30T13:17:51.000Z</time>
      </trkpt>
      <trkpt lat="49.65044" lon="-1.24641">
        <ele>8.392193</ele>
        <time>2022-07-30T13:17:52.000Z</time>
      </trkpt>
      <trkpt lat="49.65041" lon="-1.24637">
        <ele>8.398752</ele>
        <time>2022-07-30T13:17:53.000Z</time>
      </trkpt>
      <trkpt lat="49.65039" lon="-1.24633">
        <ele>8.405139</ele>
        <time>2022-07-30T13:17:54.000Z</time>
      </trkpt>
      <trkpt lat="49.65037" lon="-1.24628">
        <ele>8.412</ele>
        <time>2022-07-30T13:17:55.000Z</time>
      </trkpt>
      <trkpt lat="49.65037" lon="-1.24623">
        <ele>8.418633</ele>
        <time>2022-07-30T13:17:56.000Z</time>
      </trkpt>
      <trkpt lat="49.65035" lon="-1.24618">
        <ele>8.424709</ele>
        <time>2022-07-30T13:17:57.000Z</time>
      </trkpt>
      <trkpt lat="49.65035" lon="-1.24614">
        <ele>8.430509</ele>
        <time>2022-07-30T13:17:58.000Z</time>
      </trkpt>
      <trkpt lat="49.65033" lon="-1.2461">
        <ele>8.435981</ele>
        <time>2022-07-30T13:17:59.000Z</time>
      </trkpt>
      <trkpt lat="49.65032" lon="-1.24608">
        <ele>8.439658</ele>
        <time>2022-07-30T13:18:00.000Z</time>
      </trkpt>
      <trkpt lat="49.6503" lon="-1.24605">
        <ele>8.444486</ele>
        <time>2022-07-30T13:18:01.000Z</time>
      </trkpt>
      <trkpt lat="49.65029" lon="-1.24602">
        <ele>8.448147</ele>
        <time>2022-07-30T13:18:02.000Z</time>
      </trkpt>
      <trkpt lat="49.65025" lon="-1.24596">
        <ele>8.457835</ele>
        <time>2022-07-30T13:18:05.000Z</time>
      </trkpt>
      <trkpt lat="49.65024" lon="-1.24594">
        <ele>8.461189</ele>
        <time>2022-07-30T13:18:06.000Z</time>
      </trkpt>
      <trkpt lat="49.65023" lon="-1.24591">
        <ele>8.46571</ele>
        <time>2022-07-30T13:18:07.000Z</time>
      </trkpt>
      <trkpt lat="49.6502" lon="-1.24587">
        <ele>8.472901</ele>
        <time>2022-07-30T13:18:09.000Z</time>
      </trkpt>
      <trkpt lat="49.65018" lon="-1.24585">
        <ele>8.477422</ele>
        <time>2022-07-30T13:18:10.000Z</time>
      </trkpt>
      <trkpt lat="49.65016" lon="-1.24583">
        <ele>8.481721</ele>
        <time>2022-07-30T13:18:11.000Z</time>
      </trkpt>
      <trkpt lat="49.65014" lon="-1.2458">
        <ele>8.486389</ele>
        <time>2022-07-30T13:18:12.000Z</time>
      </trkpt>
      <trkpt lat="49.65013" lon="-1.24578">
        <ele>8.490644</ele>
        <time>2022-07-30T13:18:13.000Z</time>
      </trkpt>
      <trkpt lat="49.65011" lon="-1.24575">
        <ele>8.4949</ele>
        <time>2022-07-30T13:18:14.000Z</time>
      </trkpt>
      <trkpt lat="49.65009" lon="-1.24573">
        <ele>8.499801</ele>
        <time>2022-07-30T13:18:15.000Z</time>
      </trkpt>
      <trkpt lat="49.65007" lon="-1.24571">
        <ele>8.504622</ele>
        <time>2022-07-30T13:18:16.000Z</time>
      </trkpt>
      <trkpt lat="49.65005" lon="-1.2457">
        <ele>8.508612</ele>
        <time>2022-07-30T13:18:17.000Z</time>
      </trkpt>
      <trkpt lat="49.65003" lon="-1.24568">
        <ele>8.513268</ele>
        <time>2022-07-30T13:18:18.000Z</time>
      </trkpt>
      <trkpt lat="49.65" lon="-1.24565">
        <ele>8.519728</ele>
        <time>2022-07-30T13:18:19.000Z</time>
      </trkpt>
      <trkpt lat="49.64997" lon="-1.24563">
        <ele>8.510547</ele>
        <time>2022-07-30T13:18:20.000Z</time>
      </trkpt>
      <trkpt lat="49.64995" lon="-1.2456">
        <ele>8.499785</ele>
        <time>2022-07-30T13:18:21.000Z</time>
      </trkpt>
      <trkpt lat="49.64993" lon="-1.24558">
        <ele>8.489172</ele>
        <time>2022-07-30T13:18:22.000Z</time>
      </trkpt>
      <trkpt lat="49.64991" lon="-1.24555">
        <ele>8.477941</ele>
        <time>2022-07-30T13:18:23.000Z</time>
      </trkpt>
      <trkpt lat="49.64989" lon="-1.24552">
        <ele>8.466377</ele>
        <time>2022-07-30T13:18:24.000Z</time>
      </trkpt>
      <trkpt lat="49.64987" lon="-1.24549">
        <ele>8.4553</ele>
        <time>2022-07-30T13:18:25.000Z</time>
      </trkpt>
      <trkpt lat="49.64985" lon="-1.24546">
        <ele>8.444315</ele>
        <time>2022-07-30T13:18:26.000Z</time>
      </trkpt>
      <trkpt lat="49.64983" lon="-1.24544">
        <ele>8.43448</ele>
        <time>2022-07-30T13:18:27.000Z</time>
      </trkpt>
      <trkpt lat="49.64979" lon="-1.24541">
        <ele>8.419493</ele>
        <time>2022-07-30T13:18:28.000Z</time>
      </trkpt>
      <trkpt lat="49.64977" lon="-1.24538">
        <ele>8.405903</ele>
        <time>2022-07-30T13:18:29.000Z</time>
      </trkpt>
      <trkpt lat="49.64975" lon="-1.24534">
        <ele>8.393451</ele>
        <time>2022-07-30T13:18:30.000Z</time>
      </trkpt>
      <trkpt lat="49.64972" lon="-1.24531">
        <ele>8.380818</ele>
        <time>2022-07-30T13:18:31.000Z</time>
      </trkpt>
      <trkpt lat="49.6497" lon="-1.24527">
        <ele>8.368274</ele>
        <time>2022-07-30T13:18:32.000Z</time>
      </trkpt>
      <trkpt lat="49.64968" lon="-1.24524">
        <ele>8.35619</ele>
        <time>2022-07-30T13:18:33.000Z</time>
      </trkpt>
      <trkpt lat="49.64966" lon="-1.24521">
        <ele>8.344923</ele>
        <time>2022-07-30T13:18:34.000Z</time>
      </trkpt>
      <trkpt lat="49.64963" lon="-1.24518">
        <ele>8.331824</ele>
        <time>2022-07-30T13:18:35.000Z</time>
      </trkpt>
      <trkpt lat="49.64961" lon="-1.24514">
        <ele>8.319916</ele>
        <time>2022-07-30T13:18:36.000Z</time>
      </trkpt>
      <trkpt lat="49.64959" lon="-1.24511">
        <ele>8.307888</ele>
        <time>2022-07-30T13:18:37.000Z</time>
      </trkpt>
      <trkpt lat="49.64957" lon="-1.24508">
        <ele>8.296235</ele>
        <time>2022-07-30T13:18:38.000Z</time>
      </trkpt>
      <trkpt lat="49.64954" lon="-1.24504">
        <ele>8.282645</ele>
        <time>2022-07-30T13:18:39.000Z</time>
      </trkpt>
      <trkpt lat="49.64952" lon="-1.24501">
        <ele>8.26952</ele>
        <time>2022-07-30T13:18:40.000Z</time>
      </trkpt>
      <trkpt lat="49.64949" lon="-1.24498">
        <ele>8.255767</ele>
        <time>2022-07-30T13:18:41.000Z</time>
      </trkpt>
      <trkpt lat="49.64946" lon="-1.24495">
        <ele>8.242824</ele>
        <time>2022-07-30T13:18:42.000Z</time>
      </trkpt>
      <trkpt lat="49.64945" lon="-1.24491">
        <ele>8.232267</ele>
        <time>2022-07-30T13:18:43.000Z</time>
      </trkpt>
      <trkpt lat="49.64943" lon="-1.24488">
        <ele>8.221749</ele>
        <time>2022-07-30T13:18:44.000Z</time>
      </trkpt>
      <trkpt lat="49.64942" lon="-1.24484">
        <ele>8.210819</ele>
        <time>2022-07-30T13:18:45.000Z</time>
      </trkpt>
      <trkpt lat="49.64941" lon="-1.24481">
        <ele>8.20059</ele>
        <time>2022-07-30T13:18:46.000Z</time>
      </trkpt>
      <trkpt lat="49.64939" lon="-1.24477">
        <ele>8.190072</ele>
        <time>2022-07-30T13:18:47.000Z</time>
      </trkpt>
      <trkpt lat="49.64938" lon="-1.24474">
        <ele>8.179332</ele>
        <time>2022-07-30T13:18:48.000Z</time>
      </trkpt>
      <trkpt lat="49.64936" lon="-1.2447">
        <ele>8.167768</ele>
        <time>2022-07-30T13:18:49.000Z</time>
      </trkpt>
      <trkpt lat="49.64933" lon="-1.24465">
        <ele>8.150831</ele>
        <time>2022-07-30T13:18:51.000Z</time>
      </trkpt>
      <trkpt lat="49.64932" lon="-1.24463">
        <ele>8.143032</ele>
        <time>2022-07-30T13:18:52.000Z</time>
      </trkpt>
      <trkpt lat="49.64931" lon="-1.24461">
        <ele>8.135734</ele>
        <time>2022-07-30T13:18:53.000Z</time>
      </trkpt>
      <trkpt lat="49.64929" lon="-1.24458">
        <ele>8.126377</ele>
        <time>2022-07-30T13:18:54.000Z</time>
      </trkpt>
      <trkpt lat="49.64927" lon="-1.24456">
        <ele>8.11685</ele>
        <time>2022-07-30T13:18:55.000Z</time>
      </trkpt>
      <trkpt lat="49.64926" lon="-1.24454">
        <ele>8.10962</ele>
        <time>2022-07-30T13:18:56.000Z</time>
      </trkpt>
      <trkpt lat="49.64924" lon="-1.24449">
        <ele>8.095484</ele>
        <time>2022-07-30T13:18:58.000Z</time>
      </trkpt>
      <trkpt lat="49.64922" lon="-1.24444">
        <ele>8.080097</ele>
        <time>2022-07-30T13:19:00.000Z</time>
      </trkpt>
      <trkpt lat="49.6492" lon="-1.24443">
        <ele>8.072722</ele>
        <time>2022-07-30T13:19:01.000Z</time>
      </trkpt>
      <trkpt lat="49.64918" lon="-1.24441">
        <ele>8.06321</ele>
        <time>2022-07-30T13:19:02.000Z</time>
      </trkpt>
      <trkpt lat="49.64916" lon="-1.24438">
        <ele>8.053853</ele>
        <time>2022-07-30T13:19:03.000Z</time>
      </trkpt>
      <trkpt lat="49.64914" lon="-1.24436">
        <ele>8.042047</ele>
        <time>2022-07-30T13:19:04.000Z</time>
      </trkpt>
      <trkpt lat="49.64912" lon="-1.24432">
        <ele>8.030628</ele>
        <time>2022-07-30T13:19:05.000Z</time>
      </trkpt>
      <trkpt lat="49.64911" lon="-1.24429">
        <ele>8.021838</ele>
        <time>2022-07-30T13:19:06.000Z</time>
      </trkpt>
      <trkpt lat="49.64909" lon="-1.24426">
        <ele>8.009044</ele>
        <time>2022-07-30T13:19:07.000Z</time>
      </trkpt>
      <trkpt lat="49.64906" lon="-1.24422">
        <ele>7.993724</ele>
        <time>2022-07-30T13:19:08.000Z</time>
      </trkpt>
      <trkpt lat="49.64904" lon="-1.24419">
        <ele>7.982647</ele>
        <time>2022-07-30T13:19:09.000Z</time>
      </trkpt>
      <trkpt lat="49.64901" lon="-1.24414">
        <ele>7.966286</ele>
        <time>2022-07-30T13:19:10.000Z</time>
      </trkpt>
      <trkpt lat="49.64899" lon="-1.24409">
        <ele>7.951159</ele>
        <time>2022-07-30T13:19:11.000Z</time>
      </trkpt>
      <trkpt lat="49.64898" lon="-1.24405">
        <ele>7.939981</ele>
        <time>2022-07-30T13:19:12.000Z</time>
      </trkpt>
      <trkpt lat="49.64894" lon="-1.24401">
        <ele>7.922037</ele>
        <time>2022-07-30T13:19:13.000Z</time>
      </trkpt>
      <trkpt lat="49.64891" lon="-1.24398">
        <ele>7.909073</ele>
        <time>2022-07-30T13:19:14.000Z</time>
      </trkpt>
      <trkpt lat="49.64887" lon="-1.24396">
        <ele>7.890142</ele>
        <time>2022-07-30T13:19:15.000Z</time>
      </trkpt>
      <trkpt lat="49.64883" lon="-1.24394">
        <ele>7.8732</ele>
        <time>2022-07-30T13:19:16.000Z</time>
      </trkpt>
      <trkpt lat="49.64877" lon="-1.24391">
        <ele>7.851815</ele>
        <time>2022-07-30T13:19:17.000Z</time>
      </trkpt>
      <trkpt lat="49.64872" lon="-1.2439">
        <ele>7.831524</ele>
        <time>2022-07-30T13:19:18.000Z</time>
      </trkpt>
      <trkpt lat="49.64869" lon="-1.2439">
        <ele>7.817696</ele>
        <time>2022-07-30T13:19:19.000Z</time>
      </trkpt>
      <trkpt lat="49.64863" lon="-1.2439">
        <ele>7.74193</ele>
        <time>2022-07-30T13:19:20.000Z</time>
      </trkpt>
      <trkpt lat="49.64858" lon="-1.24391">
        <ele>7.672169</ele>
        <time>2022-07-30T13:19:21.000Z</time>
      </trkpt>
      <trkpt lat="49.64851" lon="-1.24393">
        <ele>7.553643</ele>
        <time>2022-07-30T13:19:22.000Z</time>
      </trkpt>
      <trkpt lat="49.64845" lon="-1.24395">
        <ele>7.458165</ele>
        <time>2022-07-30T13:19:23.000Z</time>
      </trkpt>
      <trkpt lat="49.64838" lon="-1.24397">
        <ele>7.363202</ele>
        <time>2022-07-30T13:19:24.000Z</time>
      </trkpt>
      <trkpt lat="49.64834" lon="-1.24397">
        <ele>7.293562</ele>
        <time>2022-07-30T13:19:25.000Z</time>
      </trkpt>
      <trkpt lat="49.64827" lon="-1.24398">
        <ele>7.190436</ele>
        <time>2022-07-30T13:19:26.000Z</time>
      </trkpt>
      <trkpt lat="49.64822" lon="-1.24397">
        <ele>7.107268</ele>
        <time>2022-07-30T13:19:27.000Z</time>
      </trkpt>
      <trkpt lat="49.64816" lon="-1.24396">
        <ele>7.017164</ele>
        <time>2022-07-30T13:19:28.000Z</time>
      </trkpt>
      <trkpt lat="49.64811" lon="-1.24394">
        <ele>6.930495</ele>
        <time>2022-07-30T13:19:29.000Z</time>
      </trkpt>
      <trkpt lat="49.64806" lon="-1.24391">
        <ele>6.861295</ele>
        <time>2022-07-30T13:19:30.000Z</time>
      </trkpt>
      <trkpt lat="49.64801" lon="-1.24387">
        <ele>6.762811</ele>
        <time>2022-07-30T13:19:31.000Z</time>
      </trkpt>
      <trkpt lat="49.64796" lon="-1.24383">
        <ele>6.680775</ele>
        <time>2022-07-30T13:19:32.000Z</time>
      </trkpt>
      <trkpt lat="49.64792" lon="-1.2438">
        <ele>6.61561</ele>
        <time>2022-07-30T13:19:33.000Z</time>
      </trkpt>
      <trkpt lat="49.64788" lon="-1.24377">
        <ele>6.539024</ele>
        <time>2022-07-30T13:19:34.000Z</time>
      </trkpt>
      <trkpt lat="49.64777" lon="-1.24372">
        <ele>6.375092</ele>
        <time>2022-07-30T13:19:36.000Z</time>
      </trkpt>
      <trkpt lat="49.64773" lon="-1.24371">
        <ele>6.309902</ele>
        <time>2022-07-30T13:19:37.000Z</time>
      </trkpt>
      <trkpt lat="49.64769" lon="-1.24372">
        <ele>6.240691</ele>
        <time>2022-07-30T13:19:38.000Z</time>
      </trkpt>
      <trkpt lat="49.64764" lon="-1.24372">
        <ele>6.172687</ele>
        <time>2022-07-30T13:19:39.000Z</time>
      </trkpt>
      <trkpt lat="49.6476" lon="-1.24372">
        <ele>6.10339</ele>
        <time>2022-07-30T13:19:40.000Z</time>
      </trkpt>
      <trkpt lat="49.64757" lon="-1.2437">
        <ele>6.051679</ele>
        <time>2022-07-30T13:19:41.000Z</time>
      </trkpt>
      <trkpt lat="49.64755" lon="-1.24366">
        <ele>5.996523</ele>
        <time>2022-07-30T13:19:43.000Z</time>
      </trkpt>
      <trkpt lat="49.64753" lon="-1.24364">
        <ele>5.968313</ele>
        <time>2022-07-30T13:19:44.000Z</time>
      </trkpt>
      <trkpt lat="49.64751" lon="-1.24359">
        <ele>5.913157</ele>
        <time>2022-07-30T13:19:46.000Z</time>
      </trkpt>
      <trkpt lat="49.64749" lon="-1.24356">
        <ele>5.864892</ele>
        <time>2022-07-30T13:19:48.000Z</time>
      </trkpt>
      <trkpt lat="49.64747" lon="-1.24353">
        <ele>5.824599</ele>
        <time>2022-07-30T13:19:50.000Z</time>
      </trkpt>
      <trkpt lat="49.64745" lon="-1.24354">
        <ele>5.794568</ele>
        <time>2022-07-30T13:19:52.000Z</time>
      </trkpt>
      <trkpt lat="49.64743" lon="-1.24355">
        <ele>5.762249</ele>
        <time>2022-07-30T13:19:55.000Z</time>
      </trkpt>
      <trkpt lat="49.64742" lon="-1.24341">
        <ele>5.620594</ele>
        <time>2022-07-30T13:22:04.000Z</time>
      </trkpt>
      <trkpt lat="49.64741" lon="-1.24338">
        <ele>5.576636</ele>
        <time>2022-07-30T13:22:05.000Z</time>
      </trkpt>
      <trkpt lat="49.64738" lon="-1.24334">
        <ele>5.523383</ele>
        <time>2022-07-30T13:22:06.000Z</time>
      </trkpt>
      <trkpt lat="49.64736" lon="-1.2433">
        <ele>5.469456</ele>
        <time>2022-07-30T13:22:07.000Z</time>
      </trkpt>
      <trkpt lat="49.64733" lon="-1.24327">
        <ele>5.422888</ele>
        <time>2022-07-30T13:22:08.000Z</time>
      </trkpt>
      <trkpt lat="49.64731" lon="-1.24324">
        <ele>5.377768</ele>
        <time>2022-07-30T13:22:09.000Z</time>
      </trkpt>
      <trkpt lat="49.64728" lon="-1.24322">
        <ele>5.329038</ele>
        <time>2022-07-30T13:22:10.000Z</time>
      </trkpt>
      <trkpt lat="49.64726" lon="-1.2432">
        <ele>5.285752</ele>
        <time>2022-07-30T13:22:11.000Z</time>
      </trkpt>
      <trkpt lat="49.64722" lon="-1.24316">
        <ele>5.211415</ele>
        <time>2022-07-30T13:22:13.000Z</time>
      </trkpt>
      <trkpt lat="49.6472" lon="-1.24314">
        <ele>5.17861</ele>
        <time>2022-07-30T13:22:14.000Z</time>
      </trkpt>
      <trkpt lat="49.64717" lon="-1.24313">
        <ele>5.126899</ele>
        <time>2022-07-30T13:22:16.000Z</time>
      </trkpt>
      <trkpt lat="49.64715" lon="-1.24311">
        <ele>5.098627</ele>
        <time>2022-07-30T13:22:17.000Z</time>
      </trkpt>
      <trkpt lat="49.64713" lon="-1.2431">
        <ele>5.067767</ele>
        <time>2022-07-30T13:22:18.000Z</time>
      </trkpt>
      <trkpt lat="49.6471" lon="-1.24307">
        <ele>5.048426</ele>
        <time>2022-07-30T13:22:20.000Z</time>
      </trkpt>
      <trkpt lat="49.64707" lon="-1.24301">
        <ele>5.052009</ele>
        <time>2022-07-30T13:22:22.000Z</time>
      </trkpt>
      <trkpt lat="49.64706" lon="-1.24299">
        <ele>5.053743</ele>
        <time>2022-07-30T13:22:23.000Z</time>
      </trkpt>
      <trkpt lat="49.64704" lon="-1.24297">
        <ele>5.055584</ele>
        <time>2022-07-30T13:22:24.000Z</time>
      </trkpt>
      <trkpt lat="49.64702" lon="-1.24296">
        <ele>5.057609</ele>
        <time>2022-07-30T13:22:25.000Z</time>
      </trkpt>
      <trkpt lat="49.647" lon="-1.24293">
        <ele>5.059709</ele>
        <time>2022-07-30T13:22:26.000Z</time>
      </trkpt>
      <trkpt lat="49.64697" lon="-1.24291">
        <ele>5.062279</ele>
        <time>2022-07-30T13:22:27.000Z</time>
      </trkpt>
      <trkpt lat="49.64695" lon="-1.24288">
        <ele>5.064312</ele>
        <time>2022-07-30T13:22:28.000Z</time>
      </trkpt>
      <trkpt lat="49.64693" lon="-1.24285">
        <ele>5.066919</ele>
        <time>2022-07-30T13:22:29.000Z</time>
      </trkpt>
      <trkpt lat="49.64691" lon="-1.24282">
        <ele>5.06932</ele>
        <time>2022-07-30T13:22:30.000Z</time>
      </trkpt>
      <trkpt lat="49.64689" lon="-1.24281">
        <ele>5.071402</ele>
        <time>2022-07-30T13:22:31.000Z</time>
      </trkpt>
      <trkpt lat="49.64686" lon="-1.24279">
        <ele>5.074024</ele>
        <time>2022-07-30T13:22:32.000Z</time>
      </trkpt>
      <trkpt lat="49.64683" lon="-1.24275">
        <ele>5.076929</ele>
        <time>2022-07-30T13:22:33.000Z</time>
      </trkpt>
      <trkpt lat="49.64681" lon="-1.24273">
        <ele>5.079296</ele>
        <time>2022-07-30T13:22:34.000Z</time>
      </trkpt>
      <trkpt lat="49.64679" lon="-1.2427">
        <ele>5.081569</ele>
        <time>2022-07-30T13:22:35.000Z</time>
      </trkpt>
      <trkpt lat="49.64677" lon="-1.24267">
        <ele>5.083744</ele>
        <time>2022-07-30T13:22:36.000Z</time>
      </trkpt>
      <trkpt lat="49.64675" lon="-1.24264">
        <ele>5.086032</ele>
        <time>2022-07-30T13:22:37.000Z</time>
      </trkpt>
      <trkpt lat="49.64673" lon="-1.24261">
        <ele>5.088321</ele>
        <time>2022-07-30T13:22:38.000Z</time>
      </trkpt>
      <trkpt lat="49.64671" lon="-1.24258">
        <ele>5.090688</ele>
        <time>2022-07-30T13:22:39.000Z</time>
      </trkpt>
      <trkpt lat="49.64669" lon="-1.24255">
        <ele>5.092856</ele>
        <time>2022-07-30T13:22:40.000Z</time>
      </trkpt>
      <trkpt lat="49.64668" lon="-1.24253">
        <ele>5.094958</ele>
        <time>2022-07-30T13:22:41.000Z</time>
      </trkpt>
      <trkpt lat="49.64666" lon="-1.24251">
        <ele>5.096894</ele>
        <time>2022-07-30T13:22:42.000Z</time>
      </trkpt>
      <trkpt lat="49.64663" lon="-1.24248">
        <ele>5.099366</ele>
        <time>2022-07-30T13:22:43.000Z</time>
      </trkpt>
      <trkpt lat="49.64662" lon="-1.24246">
        <ele>5.1011</ele>
        <time>2022-07-30T13:22:44.000Z</time>
      </trkpt>
      <trkpt lat="49.6466" lon="-1.24242">
        <ele>5.103937</ele>
        <time>2022-07-30T13:22:45.000Z</time>
      </trkpt>
      <trkpt lat="49.64657" lon="-1.24239">
        <ele>5.106338</ele>
        <time>2022-07-30T13:22:46.000Z</time>
      </trkpt>
      <trkpt lat="49.64656" lon="-1.24236">
        <ele>5.10863</ele>
        <time>2022-07-30T13:22:47.000Z</time>
      </trkpt>
      <trkpt lat="49.64654" lon="-1.24232">
        <ele>5.111119</ele>
        <time>2022-07-30T13:22:48.000Z</time>
      </trkpt>
      <trkpt lat="49.64653" lon="-1.24229">
        <ele>5.11318</ele>
        <time>2022-07-30T13:22:49.000Z</time>
      </trkpt>
      <trkpt lat="49.64652" lon="-1.24226">
        <ele>5.115176</ele>
        <time>2022-07-30T13:22:50.000Z</time>
      </trkpt>
      <trkpt lat="49.64649" lon="-1.24222">
        <ele>5.117836</ele>
        <time>2022-07-30T13:22:51.000Z</time>
      </trkpt>
      <trkpt lat="49.64646" lon="-1.2422">
        <ele>5.120633</ele>
        <time>2022-07-30T13:22:52.000Z</time>
      </trkpt>
      <trkpt lat="49.64644" lon="-1.24218">
        <ele>5.123104</ele>
        <time>2022-07-30T13:22:53.000Z</time>
      </trkpt>
      <trkpt lat="49.64641" lon="-1.24216">
        <ele>5.125363</ele>
        <time>2022-07-30T13:22:54.000Z</time>
      </trkpt>
      <trkpt lat="49.6464" lon="-1.24215">
        <ele>5.126939</ele>
        <time>2022-07-30T13:22:55.000Z</time>
      </trkpt>
      <trkpt lat="49.64637" lon="-1.24213">
        <ele>5.12989</ele>
        <time>2022-07-30T13:22:56.000Z</time>
      </trkpt>
      <trkpt lat="49.64634" lon="-1.24211">
        <ele>5.132191</ele>
        <time>2022-07-30T13:22:57.000Z</time>
      </trkpt>
      <trkpt lat="49.64631" lon="-1.2421">
        <ele>5.13445</ele>
        <time>2022-07-30T13:22:58.000Z</time>
      </trkpt>
      <trkpt lat="49.64629" lon="-1.24208">
        <ele>5.136373</ele>
        <time>2022-07-30T13:22:59.000Z</time>
      </trkpt>
      <trkpt lat="49.64628" lon="-1.24206">
        <ele>5.138107</ele>
        <time>2022-07-30T13:23:00.000Z</time>
      </trkpt>
      <trkpt lat="49.64626" lon="-1.24205">
        <ele>5.139904</ele>
        <time>2022-07-30T13:23:01.000Z</time>
      </trkpt>
      <trkpt lat="49.64622" lon="-1.24201">
        <ele>5.143798</ele>
        <time>2022-07-30T13:23:03.000Z</time>
      </trkpt>
      <trkpt lat="49.6462" lon="-1.242">
        <ele>5.145647</ele>
        <time>2022-07-30T13:23:04.000Z</time>
      </trkpt>
      <trkpt lat="49.64616" lon="-1.24199">
        <ele>5.148613</ele>
        <time>2022-07-30T13:23:05.000Z</time>
      </trkpt>
      <trkpt lat="49.64613" lon="-1.24199">
        <ele>5.151071</ele>
        <time>2022-07-30T13:23:06.000Z</time>
      </trkpt>
      <trkpt lat="49.64612" lon="-1.24198">
        <ele>5.152686</ele>
        <time>2022-07-30T13:23:07.000Z</time>
      </trkpt>
      <trkpt lat="49.64609" lon="-1.24198">
        <ele>5.154559</ele>
        <time>2022-07-30T13:23:08.000Z</time>
      </trkpt>
      <trkpt lat="49.64607" lon="-1.24197">
        <ele>5.156773</ele>
        <time>2022-07-30T13:23:10.000Z</time>
      </trkpt>
      <trkpt lat="49.64605" lon="-1.24197">
        <ele>5.158629</ele>
        <time>2022-07-30T13:23:12.000Z</time>
      </trkpt>
      <trkpt lat="49.64603" lon="-1.24198">
        <ele>5.160274</ele>
        <time>2022-07-30T13:23:14.000Z</time>
      </trkpt>
      <trkpt lat="49.64601" lon="-1.242">
        <ele>5.162311</ele>
        <time>2022-07-30T13:23:17.000Z</time>
      </trkpt>
      <trkpt lat="49.64599" lon="-1.24202">
        <ele>5.164311</ele>
        <time>2022-07-30T13:23:19.000Z</time>
      </trkpt>
      <trkpt lat="49.64592" lon="-1.24202">
        <ele>5.169704</ele>
        <time>2022-07-30T13:24:19.000Z</time>
      </trkpt>
      <trkpt lat="49.6459" lon="-1.24203">
        <ele>5.171319</ele>
        <time>2022-07-30T13:24:20.000Z</time>
      </trkpt>
      <trkpt lat="49.64589" lon="-1.24203">
        <ele>5.172952</ele>
        <time>2022-07-30T13:24:21.000Z</time>
      </trkpt>
      <trkpt lat="49.64586" lon="-1.24204">
        <ele>5.174927</ele>
        <time>2022-07-30T13:24:22.000Z</time>
      </trkpt>
      <trkpt lat="49.64584" lon="-1.24204">
        <ele>5.177039</ele>
        <time>2022-07-30T13:24:23.000Z</time>
      </trkpt>
      <trkpt lat="49.64581" lon="-1.24205">
        <ele>5.179491</ele>
        <time>2022-07-30T13:24:24.000Z</time>
      </trkpt>
      <trkpt lat="49.64578" lon="-1.24205">
        <ele>5.181687</ele>
        <time>2022-07-30T13:24:25.000Z</time>
      </trkpt>
      <trkpt lat="49.64576" lon="-1.24206">
        <ele>5.183862</ele>
        <time>2022-07-30T13:24:27.000Z</time>
      </trkpt>
      <trkpt lat="49.64572" lon="-1.24207">
        <ele>5.186834</ele>
        <time>2022-07-30T13:24:29.000Z</time>
      </trkpt>
      <trkpt lat="49.64568" lon="-1.24207">
        <ele>5.190135</ele>
        <time>2022-07-30T13:24:31.000Z</time>
      </trkpt>
      <trkpt lat="49.64566" lon="-1.24208">
        <ele>5.19178</ele>
        <time>2022-07-30T13:24:32.000Z</time>
      </trkpt>
      <trkpt lat="49.64565" lon="-1.24209">
        <ele>5.193404</ele>
        <time>2022-07-30T13:24:33.000Z</time>
      </trkpt>
      <trkpt lat="49.64562" lon="-1.24209">
        <ele>5.195636</ele>
        <time>2022-07-30T13:24:34.000Z</time>
      </trkpt>
      <trkpt lat="49.6456" lon="-1.2421">
        <ele>5.19724</ele>
        <time>2022-07-30T13:24:35.000Z</time>
      </trkpt>
      <trkpt lat="49.64558" lon="-1.2421">
        <ele>5.199583</ele>
        <time>2022-07-30T13:24:37.000Z</time>
      </trkpt>
      <trkpt lat="49.64556" lon="-1.24211">
        <ele>5.201825</ele>
        <time>2022-07-30T13:24:38.000Z</time>
      </trkpt>
      <trkpt lat="49.64553" lon="-1.24211">
        <ele>5.204953</ele>
        <time>2022-07-30T13:24:39.000Z</time>
      </trkpt>
      <trkpt lat="49.64551" lon="-1.24212">
        <ele>5.207171</ele>
        <time>2022-07-30T13:24:40.000Z</time>
      </trkpt>
      <trkpt lat="49.64548" lon="-1.24212">
        <ele>5.210273</ele>
        <time>2022-07-30T13:24:41.000Z</time>
      </trkpt>
      <trkpt lat="49.64546" lon="-1.24212">
        <ele>5.213154</ele>
        <time>2022-07-30T13:24:42.000Z</time>
      </trkpt>
      <trkpt lat="49.64542" lon="-1.24212">
        <ele>5.216695</ele>
        <time>2022-07-30T13:24:43.000Z</time>
      </trkpt>
      <trkpt lat="49.64541" lon="-1.24211">
        <ele>5.218828</ele>
        <time>2022-07-30T13:24:44.000Z</time>
      </trkpt>
      <trkpt lat="49.64538" lon="-1.2421">
        <ele>5.221793</ele>
        <time>2022-07-30T13:24:45.000Z</time>
      </trkpt>
      <trkpt lat="49.64535" lon="-1.24209">
        <ele>5.22538</ele>
        <time>2022-07-30T13:24:46.000Z</time>
      </trkpt>
      <trkpt lat="49.64532" lon="-1.24209">
        <ele>5.228628</ele>
        <time>2022-07-30T13:24:47.000Z</time>
      </trkpt>
      <trkpt lat="49.64529" lon="-1.24208">
        <ele>5.232187</ele>
        <time>2022-07-30T13:24:48.000Z</time>
      </trkpt>
      <trkpt lat="49.64526" lon="-1.24208">
        <ele>5.234977</ele>
        <time>2022-07-30T13:24:49.000Z</time>
      </trkpt>
      <trkpt lat="49.64523" lon="-1.24207">
        <ele>5.238564</ele>
        <time>2022-07-30T13:24:50.000Z</time>
      </trkpt>
      <trkpt lat="49.6452" lon="-1.24206">
        <ele>5.241512</ele>
        <time>2022-07-30T13:24:51.000Z</time>
      </trkpt>
      <trkpt lat="49.64517" lon="-1.24205">
        <ele>5.244801</ele>
        <time>2022-07-30T13:24:52.000Z</time>
      </trkpt>
      <trkpt lat="49.64515" lon="-1.24204">
        <ele>5.24759</ele>
        <time>2022-07-30T13:24:53.000Z</time>
      </trkpt>
      <trkpt lat="49.64512" lon="-1.24204">
        <ele>5.250475</ele>
        <time>2022-07-30T13:24:54.000Z</time>
      </trkpt>
      <trkpt lat="49.6451" lon="-1.24204">
        <ele>5.252608</ele>
        <time>2022-07-30T13:24:55.000Z</time>
      </trkpt>
      <trkpt lat="49.64507" lon="-1.24203">
        <ele>5.256185</ele>
        <time>2022-07-30T13:24:56.000Z</time>
      </trkpt>
      <trkpt lat="49.64505" lon="-1.24202">
        <ele>5.259209</ele>
        <time>2022-07-30T13:24:57.000Z</time>
      </trkpt>
      <trkpt lat="49.64501" lon="-1.24201">
        <ele>5.262822</ele>
        <time>2022-07-30T13:24:58.000Z</time>
      </trkpt>
      <trkpt lat="49.64498" lon="-1.242">
        <ele>5.266381</ele>
        <time>2022-07-30T13:24:59.000Z</time>
      </trkpt>
      <trkpt lat="49.64494" lon="-1.242">
        <ele>5.270601</ele>
        <time>2022-07-30T13:25:00.000Z</time>
      </trkpt>
      <trkpt lat="49.64491" lon="-1.24198">
        <ele>5.274585</ele>
        <time>2022-07-30T13:25:01.000Z</time>
      </trkpt>
      <trkpt lat="49.64487" lon="-1.24197">
        <ele>5.279339</ele>
        <time>2022-07-30T13:25:02.000Z</time>
      </trkpt>
      <trkpt lat="49.64484" lon="-1.24196">
        <ele>5.282967</ele>
        <time>2022-07-30T13:25:03.000Z</time>
      </trkpt>
      <trkpt lat="49.64478" lon="-1.24195">
        <ele>5.289004</ele>
        <time>2022-07-30T13:25:04.000Z</time>
      </trkpt>
      <trkpt lat="49.64474" lon="-1.24194">
        <ele>5.294035</ele>
        <time>2022-07-30T13:25:05.000Z</time>
      </trkpt>
      <trkpt lat="49.64471" lon="-1.24191">
        <ele>5.297643</ele>
        <time>2022-07-30T13:25:06.000Z</time>
      </trkpt>
      <trkpt lat="49.64468" lon="-1.2419">
        <ele>5.301242</ele>
        <time>2022-07-30T13:25:07.000Z</time>
      </trkpt>
      <trkpt lat="49.64462" lon="-1.24189">
        <ele>5.306962</ele>
        <time>2022-07-30T13:25:08.000Z</time>
      </trkpt>
      <trkpt lat="49.64459" lon="-1.24188">
        <ele>5.311302</ele>
        <time>2022-07-30T13:25:09.000Z</time>
      </trkpt>
      <trkpt lat="49.64455" lon="-1.24187">
        <ele>5.31535</ele>
        <time>2022-07-30T13:25:10.000Z</time>
      </trkpt>
      <trkpt lat="49.64452" lon="-1.24185">
        <ele>5.319369</ele>
        <time>2022-07-30T13:25:11.000Z</time>
      </trkpt>
      <trkpt lat="49.64449" lon="-1.24184">
        <ele>5.322337</ele>
        <time>2022-07-30T13:25:12.000Z</time>
      </trkpt>
      <trkpt lat="49.64446" lon="-1.24182">
        <ele>5.325361</ele>
        <time>2022-07-30T13:25:13.000Z</time>
      </trkpt>
      <trkpt lat="49.64444" lon="-1.24181">
        <ele>5.328327</ele>
        <time>2022-07-30T13:25:14.000Z</time>
      </trkpt>
      <trkpt lat="49.64442" lon="-1.2418">
        <ele>5.330845</ele>
        <time>2022-07-30T13:25:15.000Z</time>
      </trkpt>
      <trkpt lat="49.64437" lon="-1.24179">
        <ele>5.335955</ele>
        <time>2022-07-30T13:25:17.000Z</time>
      </trkpt>
      <trkpt lat="49.64435" lon="-1.24178">
        <ele>5.338116</ele>
        <time>2022-07-30T13:25:18.000Z</time>
      </trkpt>
      <trkpt lat="49.64433" lon="-1.24177">
        <ele>5.340602</ele>
        <time>2022-07-30T13:25:20.000Z</time>
      </trkpt>
      <trkpt lat="49.64431" lon="-1.24177">
        <ele>5.342844</ele>
        <time>2022-07-30T13:25:21.000Z</time>
      </trkpt>
      <trkpt lat="49.64427" lon="-1.24176">
        <ele>5.347064</ele>
        <time>2022-07-30T13:25:23.000Z</time>
      </trkpt>
      <trkpt lat="49.64425" lon="-1.24177">
        <ele>5.349503</ele>
        <time>2022-07-30T13:25:24.000Z</time>
      </trkpt>
      <trkpt lat="49.64423" lon="-1.24177">
        <ele>5.352052</ele>
        <time>2022-07-30T13:25:25.000Z</time>
      </trkpt>
      <trkpt lat="49.6442" lon="-1.24177">
        <ele>5.355596</ele>
        <time>2022-07-30T13:25:26.000Z</time>
      </trkpt>
      <trkpt lat="49.64417" lon="-1.24177">
        <ele>5.358363</ele>
        <time>2022-07-30T13:25:27.000Z</time>
      </trkpt>
      <trkpt lat="49.64414" lon="-1.24176">
        <ele>5.361579</ele>
        <time>2022-07-30T13:25:28.000Z</time>
      </trkpt>
      <trkpt lat="49.64412" lon="-1.24176">
        <ele>5.36446</ele>
        <time>2022-07-30T13:25:29.000Z</time>
      </trkpt>
      <trkpt lat="49.64409" lon="-1.24176">
        <ele>5.36723</ele>
        <time>2022-07-30T13:25:30.000Z</time>
      </trkpt>
      <trkpt lat="49.64406" lon="-1.24176">
        <ele>5.370459</ele>
        <time>2022-07-30T13:25:31.000Z</time>
      </trkpt>
      <trkpt lat="49.64403" lon="-1.24177">
        <ele>5.373707</ele>
        <time>2022-07-30T13:25:32.000Z</time>
      </trkpt>
      <trkpt lat="49.64401" lon="-1.24178">
        <ele>5.376641</ele>
        <time>2022-07-30T13:25:33.000Z</time>
      </trkpt>
      <trkpt lat="49.64397" lon="-1.24179">
        <ele>5.38058</ele>
        <time>2022-07-30T13:25:34.000Z</time>
      </trkpt>
      <trkpt lat="49.64394" lon="-1.2418">
        <ele>5.383853</ele>
        <time>2022-07-30T13:25:35.000Z</time>
      </trkpt>
      <trkpt lat="49.64391" lon="-1.24181">
        <ele>5.387466</ele>
        <time>2022-07-30T13:25:36.000Z</time>
      </trkpt>
      <trkpt lat="49.64388" lon="-1.24182">
        <ele>5.391053</ele>
        <time>2022-07-30T13:25:37.000Z</time>
      </trkpt>
      <trkpt lat="49.64386" lon="-1.24182">
        <ele>5.393497</ele>
        <time>2022-07-30T13:25:38.000Z</time>
      </trkpt>
      <trkpt lat="49.64382" lon="-1.24182">
        <ele>5.401717</ele>
        <time>2022-07-30T13:25:39.000Z</time>
      </trkpt>
      <trkpt lat="49.6438" lon="-1.24183">
        <ele>5.423792</ele>
        <time>2022-07-30T13:25:40.000Z</time>
      </trkpt>
      <trkpt lat="49.64376" lon="-1.24184">
        <ele>5.451196</ele>
        <time>2022-07-30T13:25:41.000Z</time>
      </trkpt>
      <trkpt lat="49.64374" lon="-1.24184">
        <ele>5.469931</ele>
        <time>2022-07-30T13:25:42.000Z</time>
      </trkpt>
      <trkpt lat="49.6437" lon="-1.24184">
        <ele>5.50279</ele>
        <time>2022-07-30T13:25:43.000Z</time>
      </trkpt>
      <trkpt lat="49.64366" lon="-1.24183">
        <ele>5.537949</ele>
        <time>2022-07-30T13:25:44.000Z</time>
      </trkpt>
      <trkpt lat="49.64363" lon="-1.24183">
        <ele>5.567457</ele>
        <time>2022-07-30T13:25:45.000Z</time>
      </trkpt>
      <trkpt lat="49.6436" lon="-1.24183">
        <ele>5.591988</ele>
        <time>2022-07-30T13:25:46.000Z</time>
      </trkpt>
      <trkpt lat="49.64357" lon="-1.24185">
        <ele>5.619866</ele>
        <time>2022-07-30T13:25:47.000Z</time>
      </trkpt>
      <trkpt lat="49.64353" lon="-1.24186">
        <ele>5.648042</ele>
        <time>2022-07-30T13:25:48.000Z</time>
      </trkpt>
      <trkpt lat="49.6435" lon="-1.24188">
        <ele>5.676217</ele>
        <time>2022-07-30T13:25:49.000Z</time>
      </trkpt>
      <trkpt lat="49.64348" lon="-1.24189">
        <ele>5.698792</ele>
        <time>2022-07-30T13:25:50.000Z</time>
      </trkpt>
      <trkpt lat="49.64344" lon="-1.2419">
        <ele>5.72667</ele>
        <time>2022-07-30T13:25:51.000Z</time>
      </trkpt>
      <trkpt lat="49.64341" lon="-1.24191">
        <ele>5.754178</ele>
        <time>2022-07-30T13:25:52.000Z</time>
      </trkpt>
      <trkpt lat="49.64338" lon="-1.24192">
        <ele>5.784072</ele>
        <time>2022-07-30T13:25:53.000Z</time>
      </trkpt>
      <trkpt lat="49.64334" lon="-1.24193">
        <ele>5.81655</ele>
        <time>2022-07-30T13:25:54.000Z</time>
      </trkpt>
      <trkpt lat="49.64331" lon="-1.24194">
        <ele>5.838886</ele>
        <time>2022-07-30T13:25:55.000Z</time>
      </trkpt>
      <trkpt lat="49.64328" lon="-1.24195">
        <ele>5.866631</ele>
        <time>2022-07-30T13:25:56.000Z</time>
      </trkpt>
      <trkpt lat="49.64325" lon="-1.24196">
        <ele>5.894509</ele>
        <time>2022-07-30T13:25:57.000Z</time>
      </trkpt>
      <trkpt lat="49.64321" lon="-1.24197">
        <ele>5.924838</ele>
        <time>2022-07-30T13:25:58.000Z</time>
      </trkpt>
      <trkpt lat="49.64318" lon="-1.24198">
        <ele>5.954827</ele>
        <time>2022-07-30T13:25:59.000Z</time>
      </trkpt>
      <trkpt lat="49.64314" lon="-1.242">
        <ele>5.98897</ele>
        <time>2022-07-30T13:26:00.000Z</time>
      </trkpt>
      <trkpt lat="49.64309" lon="-1.24202">
        <ele>6.035402</ele>
        <time>2022-07-30T13:26:01.000Z</time>
      </trkpt>
      <trkpt lat="49.64305" lon="-1.24203">
        <ele>6.065212</ele>
        <time>2022-07-30T13:26:02.000Z</time>
      </trkpt>
      <trkpt lat="49.64301" lon="-1.24204">
        <ele>6.101016</ele>
        <time>2022-07-30T13:26:03.000Z</time>
      </trkpt>
      <trkpt lat="49.64298" lon="-1.24204">
        <ele>6.128115</ele>
        <time>2022-07-30T13:26:04.000Z</time>
      </trkpt>
      <trkpt lat="49.64294" lon="-1.24205">
        <ele>6.160358</ele>
        <time>2022-07-30T13:26:05.000Z</time>
      </trkpt>
      <trkpt lat="49.64291" lon="-1.24206">
        <ele>6.185178</ele>
        <time>2022-07-30T13:26:06.000Z</time>
      </trkpt>
      <trkpt lat="49.64288" lon="-1.24206">
        <ele>6.209998</ele>
        <time>2022-07-30T13:26:07.000Z</time>
      </trkpt>
      <trkpt lat="49.64285" lon="-1.24207">
        <ele>6.239892</ele>
        <time>2022-07-30T13:26:08.000Z</time>
      </trkpt>
      <trkpt lat="49.64281" lon="-1.24208">
        <ele>6.27304</ele>
        <time>2022-07-30T13:26:09.000Z</time>
      </trkpt>
      <trkpt lat="49.64278" lon="-1.24209">
        <ele>6.296938</ele>
        <time>2022-07-30T13:26:10.000Z</time>
      </trkpt>
      <trkpt lat="49.64274" lon="-1.24209">
        <ele>6.329837</ele>
        <time>2022-07-30T13:26:11.000Z</time>
      </trkpt>
      <trkpt lat="49.64271" lon="-1.2421">
        <ele>6.354422</ele>
        <time>2022-07-30T13:26:12.000Z</time>
      </trkpt>
      <trkpt lat="49.64267" lon="-1.24211">
        <ele>6.3869</ele>
        <time>2022-07-30T13:26:13.000Z</time>
      </trkpt>
      <trkpt lat="49.64265" lon="-1.24211">
        <ele>6.409136</ele>
        <time>2022-07-30T13:26:14.000Z</time>
      </trkpt>
      <trkpt lat="49.64261" lon="-1.24212">
        <ele>6.441319</ele>
        <time>2022-07-30T13:26:15.000Z</time>
      </trkpt>
      <trkpt lat="49.64258" lon="-1.24213">
        <ele>6.466241</ele>
        <time>2022-07-30T13:26:16.000Z</time>
      </trkpt>
      <trkpt lat="49.64255" lon="-1.24214">
        <ele>6.493748</ele>
        <time>2022-07-30T13:26:17.000Z</time>
      </trkpt>
      <trkpt lat="49.64251" lon="-1.24214">
        <ele>6.523418</ele>
        <time>2022-07-30T13:26:18.000Z</time>
      </trkpt>
      <trkpt lat="49.64249" lon="-1.24215">
        <ele>6.545654</ele>
        <time>2022-07-30T13:26:19.000Z</time>
      </trkpt>
      <trkpt lat="49.64245" lon="-1.24216">
        <ele>6.575389</ele>
        <time>2022-07-30T13:26:20.000Z</time>
      </trkpt>
      <trkpt lat="49.64242" lon="-1.24216">
        <ele>6.599974</ele>
        <time>2022-07-30T13:26:21.000Z</time>
      </trkpt>
      <trkpt lat="49.64239" lon="-1.24217">
        <ele>6.626984</ele>
        <time>2022-07-30T13:26:22.000Z</time>
      </trkpt>
      <trkpt lat="49.64236" lon="-1.24217">
        <ele>6.650882</ele>
        <time>2022-07-30T13:26:23.000Z</time>
      </trkpt>
      <trkpt lat="49.64233" lon="-1.24218">
        <ele>6.675917</ele>
        <time>2022-07-30T13:26:24.000Z</time>
      </trkpt>
      <trkpt lat="49.64231" lon="-1.24219">
        <ele>6.698254</ele>
        <time>2022-07-30T13:26:25.000Z</time>
      </trkpt>
      <trkpt lat="49.64228" lon="-1.2422">
        <ele>6.719764</ele>
        <time>2022-07-30T13:26:26.000Z</time>
      </trkpt>
      <trkpt lat="49.64225" lon="-1.24221">
        <ele>6.744686</ele>
        <time>2022-07-30T13:26:27.000Z</time>
      </trkpt>
      <trkpt lat="49.64222" lon="-1.24221">
        <ele>6.769338</ele>
        <time>2022-07-30T13:26:28.000Z</time>
      </trkpt>
      <trkpt lat="49.6422" lon="-1.24222">
        <ele>6.788002</ele>
        <time>2022-07-30T13:26:29.000Z</time>
      </trkpt>
      <trkpt lat="49.64217" lon="-1.24222">
        <ele>6.818455</ele>
        <time>2022-07-30T13:26:30.000Z</time>
      </trkpt>
      <trkpt lat="49.64214" lon="-1.24223">
        <ele>6.837278</ele>
        <time>2022-07-30T13:26:31.000Z</time>
      </trkpt>
      <trkpt lat="49.64212" lon="-1.24224">
        <ele>6.862199</ele>
        <time>2022-07-30T13:26:32.000Z</time>
      </trkpt>
      <trkpt lat="49.64209" lon="-1.24224">
        <ele>6.883515</ele>
        <time>2022-07-30T13:26:33.000Z</time>
      </trkpt>
      <trkpt lat="49.64206" lon="-1.24225">
        <ele>6.905752</ele>
        <time>2022-07-30T13:26:34.000Z</time>
      </trkpt>
      <trkpt lat="49.64204" lon="-1.24225">
        <ele>6.919023</ele>
        <time>2022-07-30T13:26:35.000Z</time>
      </trkpt>
      <trkpt lat="49.64201" lon="-1.24226">
        <ele>6.92611</ele>
        <time>2022-07-30T13:26:36.000Z</time>
      </trkpt>
      <trkpt lat="49.64199" lon="-1.24226">
        <ele>6.934477</ele>
        <time>2022-07-30T13:26:37.000Z</time>
      </trkpt>
      <trkpt lat="49.64196" lon="-1.24227">
        <ele>6.942715</ele>
        <time>2022-07-30T13:26:38.000Z</time>
      </trkpt>
      <trkpt lat="49.64193" lon="-1.24228">
        <ele>6.954681</ele>
        <time>2022-07-30T13:26:39.000Z</time>
      </trkpt>
      <trkpt lat="49.6419" lon="-1.24229">
        <ele>6.962041</ele>
        <time>2022-07-30T13:26:40.000Z</time>
      </trkpt>
      <trkpt lat="49.64188" lon="-1.2423">
        <ele>6.969177</ele>
        <time>2022-07-30T13:26:41.000Z</time>
      </trkpt>
      <trkpt lat="49.64185" lon="-1.2423">
        <ele>6.979498</ele>
        <time>2022-07-30T13:26:42.000Z</time>
      </trkpt>
      <trkpt lat="49.64182" lon="-1.24231">
        <ele>6.98982</ele>
        <time>2022-07-30T13:26:43.000Z</time>
      </trkpt>
      <trkpt lat="49.6418" lon="-1.24231">
        <ele>6.997227</ele>
        <time>2022-07-30T13:26:44.000Z</time>
      </trkpt>
      <trkpt lat="49.64176" lon="-1.24232">
        <ele>7.007705</ele>
        <time>2022-07-30T13:26:45.000Z</time>
      </trkpt>
      <trkpt lat="49.64173" lon="-1.24233">
        <ele>7.019257</ele>
        <time>2022-07-30T13:26:46.000Z</time>
      </trkpt>
      <trkpt lat="49.6417" lon="-1.24235">
        <ele>7.029824</ele>
        <time>2022-07-30T13:26:47.000Z</time>
      </trkpt>
      <trkpt lat="49.64167" lon="-1.24236">
        <ele>7.038423</ele>
        <time>2022-07-30T13:26:48.000Z</time>
      </trkpt>
      <trkpt lat="49.64164" lon="-1.24237">
        <ele>7.049042</ele>
        <time>2022-07-30T13:26:49.000Z</time>
      </trkpt>
      <trkpt lat="49.6416" lon="-1.24238">
        <ele>7.061489</ele>
        <time>2022-07-30T13:26:50.000Z</time>
      </trkpt>
      <trkpt lat="49.64157" lon="-1.24239">
        <ele>7.073041</ele>
        <time>2022-07-30T13:26:51.000Z</time>
      </trkpt>
      <trkpt lat="49.64153" lon="-1.24241">
        <ele>7.084546</ele>
        <time>2022-07-30T13:26:52.000Z</time>
      </trkpt>
      <trkpt lat="49.6415" lon="-1.24242">
        <ele>7.095406</ele>
        <time>2022-07-30T13:26:53.000Z</time>
      </trkpt>
      <trkpt lat="49.64148" lon="-1.24244">
        <ele>7.103418</ele>
        <time>2022-07-30T13:26:54.000Z</time>
      </trkpt>
      <trkpt lat="49.64145" lon="-1.24245">
        <ele>7.110978</ele>
        <time>2022-07-30T13:26:55.000Z</time>
      </trkpt>
      <trkpt lat="49.64143" lon="-1.24246">
        <ele>7.119576</ele>
        <time>2022-07-30T13:26:56.000Z</time>
      </trkpt>
      <trkpt lat="49.6414" lon="-1.24247">
        <ele>7.129267</ele>
        <time>2022-07-30T13:26:57.000Z</time>
      </trkpt>
      <trkpt lat="49.64137" lon="-1.24249">
        <ele>7.137874</ele>
        <time>2022-07-30T13:26:58.000Z</time>
      </trkpt>
      <trkpt lat="49.64135" lon="-1.24251">
        <ele>7.146245</ele>
        <time>2022-07-30T13:26:59.000Z</time>
      </trkpt>
      <trkpt lat="49.64133" lon="-1.24253">
        <ele>7.154437</ele>
        <time>2022-07-30T13:27:00.000Z</time>
      </trkpt>
      <trkpt lat="49.64131" lon="-1.24254">
        <ele>7.161285</ele>
        <time>2022-07-30T13:27:01.000Z</time>
      </trkpt>
      <trkpt lat="49.64128" lon="-1.24256">
        <ele>7.171168</ele>
        <time>2022-07-30T13:27:02.000Z</time>
      </trkpt>
      <trkpt lat="49.64125" lon="-1.24257">
        <ele>7.181735</ele>
        <time>2022-07-30T13:27:03.000Z</time>
      </trkpt>
      <trkpt lat="49.64121" lon="-1.24258">
        <ele>7.193241</ele>
        <time>2022-07-30T13:27:04.000Z</time>
      </trkpt>
      <trkpt lat="49.64118" lon="-1.24259">
        <ele>7.203644</ele>
        <time>2022-07-30T13:27:05.000Z</time>
      </trkpt>
      <trkpt lat="49.64115" lon="-1.24259">
        <ele>7.212959</ele>
        <time>2022-07-30T13:27:06.000Z</time>
      </trkpt>
      <trkpt lat="49.64112" lon="-1.24259">
        <ele>7.224222</ele>
        <time>2022-07-30T13:27:07.000Z</time>
      </trkpt>
      <trkpt lat="49.64108" lon="-1.24258">
        <ele>7.235576</ele>
        <time>2022-07-30T13:27:08.000Z</time>
      </trkpt>
      <trkpt lat="49.64105" lon="-1.24258">
        <ele>7.245864</ele>
        <time>2022-07-30T13:27:09.000Z</time>
      </trkpt>
      <trkpt lat="49.64101" lon="-1.24257">
        <ele>7.257464</ele>
        <time>2022-07-30T13:27:10.000Z</time>
      </trkpt>
      <trkpt lat="49.64097" lon="-1.24257">
        <ele>7.270701</ele>
        <time>2022-07-30T13:27:11.000Z</time>
      </trkpt>
      <trkpt lat="49.64092" lon="-1.24256">
        <ele>7.289371</ele>
        <time>2022-07-30T13:27:12.000Z</time>
      </trkpt>
      <trkpt lat="49.64087" lon="-1.24255">
        <ele>7.303866</ele>
        <time>2022-07-30T13:27:13.000Z</time>
      </trkpt>
      <trkpt lat="49.64082" lon="-1.24254">
        <ele>7.319409</ele>
        <time>2022-07-30T13:27:14.000Z</time>
      </trkpt>
      <trkpt lat="49.64077" lon="-1.24253">
        <ele>7.335013</ele>
        <time>2022-07-30T13:27:15.000Z</time>
      </trkpt>
      <trkpt lat="49.64073" lon="-1.24252">
        <ele>7.348334</ele>
        <time>2022-07-30T13:27:16.000Z</time>
      </trkpt>
      <trkpt lat="49.64071" lon="-1.2425">
        <ele>7.356609</ele>
        <time>2022-07-30T13:27:17.000Z</time>
      </trkpt>
      <trkpt lat="49.64069" lon="-1.24249">
        <ele>7.365375</ele>
        <time>2022-07-30T13:27:18.000Z</time>
      </trkpt>
      <trkpt lat="49.64066" lon="-1.24247">
        <ele>7.374083</ele>
        <time>2022-07-30T13:27:19.000Z</time>
      </trkpt>
      <trkpt lat="49.64062" lon="-1.24246">
        <ele>7.385506</ele>
        <time>2022-07-30T13:27:20.000Z</time>
      </trkpt>
      <trkpt lat="49.64058" lon="-1.24246">
        <ele>7.399086</ele>
        <time>2022-07-30T13:27:21.000Z</time>
      </trkpt>
      <trkpt lat="49.64055" lon="-1.24244">
        <ele>7.410592</ele>
        <time>2022-07-30T13:27:22.000Z</time>
      </trkpt>
      <trkpt lat="49.64051" lon="-1.24243">
        <ele>7.422054</ele>
        <time>2022-07-30T13:27:23.000Z</time>
      </trkpt>
      <trkpt lat="49.64049" lon="-1.24242">
        <ele>7.43089</ele>
        <time>2022-07-30T13:27:24.000Z</time>
      </trkpt>
      <trkpt lat="49.64045" lon="-1.2424">
        <ele>7.44353</ele>
        <time>2022-07-30T13:27:25.000Z</time>
      </trkpt>
      <trkpt lat="49.64042" lon="-1.24239">
        <ele>7.454262</ele>
        <time>2022-07-30T13:27:26.000Z</time>
      </trkpt>
      <trkpt lat="49.64037" lon="-1.24238">
        <ele>7.4679</ele>
        <time>2022-07-30T13:27:27.000Z</time>
      </trkpt>
      <trkpt lat="49.64034" lon="-1.24237">
        <ele>7.480347</ele>
        <time>2022-07-30T13:27:28.000Z</time>
      </trkpt>
      <trkpt lat="49.6403" lon="-1.24235">
        <ele>7.492877</ele>
        <time>2022-07-30T13:27:29.000Z</time>
      </trkpt>
      <trkpt lat="49.64027" lon="-1.24234">
        <ele>7.518592</ele>
        <time>2022-07-30T13:27:30.000Z</time>
      </trkpt>
      <trkpt lat="49.64024" lon="-1.24234">
        <ele>7.541881</ele>
        <time>2022-07-30T13:27:31.000Z</time>
      </trkpt>
      <trkpt lat="49.64021" lon="-1.24233">
        <ele>7.563088</ele>
        <time>2022-07-30T13:27:32.000Z</time>
      </trkpt>
      <trkpt lat="49.64017" lon="-1.24232">
        <ele>7.591207</ele>
        <time>2022-07-30T13:27:33.000Z</time>
      </trkpt>
      <trkpt lat="49.64013" lon="-1.24231">
        <ele>7.617816</ele>
        <time>2022-07-30T13:27:34.000Z</time>
      </trkpt>
      <trkpt lat="49.6401" lon="-1.24229">
        <ele>7.645838</ele>
        <time>2022-07-30T13:27:35.000Z</time>
      </trkpt>
      <trkpt lat="49.64006" lon="-1.24228">
        <ele>7.67208</ele>
        <time>2022-07-30T13:27:36.000Z</time>
      </trkpt>
      <trkpt lat="49.64004" lon="-1.24227">
        <ele>7.691439</ele>
        <time>2022-07-30T13:27:37.000Z</time>
      </trkpt>
      <trkpt lat="49.63999" lon="-1.24226">
        <ele>7.726497</ele>
        <time>2022-07-30T13:27:38.000Z</time>
      </trkpt>
      <trkpt lat="49.63995" lon="-1.24225">
        <ele>7.754519</ele>
        <time>2022-07-30T13:27:39.000Z</time>
      </trkpt>
      <trkpt lat="49.63992" lon="-1.24224">
        <ele>7.778107</ele>
        <time>2022-07-30T13:27:40.000Z</time>
      </trkpt>
      <trkpt lat="49.63989" lon="-1.24223">
        <ele>7.799391</ele>
        <time>2022-07-30T13:27:41.000Z</time>
      </trkpt>
      <trkpt lat="49.63987" lon="-1.24222">
        <ele>7.813316</ele>
        <time>2022-07-30T13:27:42.000Z</time>
      </trkpt>
      <trkpt lat="49.63983" lon="-1.24221">
        <ele>7.842593</ele>
        <time>2022-07-30T13:27:43.000Z</time>
      </trkpt>
      <trkpt lat="49.6398" lon="-1.24219">
        <ele>7.863717</ele>
        <time>2022-07-30T13:27:44.000Z</time>
      </trkpt>
      <trkpt lat="49.63977" lon="-1.24218">
        <ele>7.890325</ele>
        <time>2022-07-30T13:27:45.000Z</time>
      </trkpt>
      <trkpt lat="49.63974" lon="-1.24217">
        <ele>7.9077</ele>
        <time>2022-07-30T13:27:46.000Z</time>
      </trkpt>
      <trkpt lat="49.63971" lon="-1.24216">
        <ele>7.930938</ele>
        <time>2022-07-30T13:27:47.000Z</time>
      </trkpt>
      <trkpt lat="49.63969" lon="-1.24215">
        <ele>7.950296</ele>
        <time>2022-07-30T13:27:48.000Z</time>
      </trkpt>
      <trkpt lat="49.63966" lon="-1.24215">
        <ele>7.968509</ele>
        <time>2022-07-30T13:27:49.000Z</time>
      </trkpt>
      <trkpt lat="49.63963" lon="-1.24214">
        <ele>7.989792</ele>
        <time>2022-07-30T13:27:50.000Z</time>
      </trkpt>
      <trkpt lat="49.63959" lon="-1.24213">
        <ele>8.017642</ele>
        <time>2022-07-30T13:27:51.000Z</time>
      </trkpt>
      <trkpt lat="49.63957" lon="-1.24212">
        <ele>8.03911</ele>
        <time>2022-07-30T13:27:52.000Z</time>
      </trkpt>
      <trkpt lat="49.63953" lon="-1.24211">
        <ele>8.065012</ele>
        <time>2022-07-30T13:27:53.000Z</time>
      </trkpt>
      <trkpt lat="49.6395" lon="-1.24209">
        <ele>8.086703</ele>
        <time>2022-07-30T13:27:54.000Z</time>
      </trkpt>
      <trkpt lat="49.63947" lon="-1.24208">
        <ele>8.112711</ele>
        <time>2022-07-30T13:27:55.000Z</time>
      </trkpt>
      <trkpt lat="49.63943" lon="-1.24207">
        <ele>8.136502</ele>
        <time>2022-07-30T13:27:56.000Z</time>
      </trkpt>
      <trkpt lat="49.6394" lon="-1.24206">
        <ele>8.165065</ele>
        <time>2022-07-30T13:27:57.000Z</time>
      </trkpt>
      <trkpt lat="49.63937" lon="-1.24205">
        <ele>8.18351</ele>
        <time>2022-07-30T13:27:58.000Z</time>
      </trkpt>
      <trkpt lat="49.63933" lon="-1.24204">
        <ele>8.209937</ele>
        <time>2022-07-30T13:27:59.000Z</time>
      </trkpt>
      <trkpt lat="49.6393" lon="-1.24203">
        <ele>8.233728</ele>
        <time>2022-07-30T13:28:00.000Z</time>
      </trkpt>
      <trkpt lat="49.63926" lon="-1.24202">
        <ele>8.261578</ele>
        <time>2022-07-30T13:28:01.000Z</time>
      </trkpt>
      <trkpt lat="49.63923" lon="-1.24201">
        <ele>8.28951</ele>
        <time>2022-07-30T13:28:02.000Z</time>
      </trkpt>
      <trkpt lat="49.6392" lon="-1.242">
        <ele>8.306773</ele>
        <time>2022-07-30T13:28:03.000Z</time>
      </trkpt>
      <trkpt lat="49.63917" lon="-1.24199">
        <ele>8.332676</ele>
        <time>2022-07-30T13:28:04.000Z</time>
      </trkpt>
      <trkpt lat="49.63914" lon="-1.24198">
        <ele>8.356096</ele>
        <time>2022-07-30T13:28:05.000Z</time>
      </trkpt>
      <trkpt lat="49.63911" lon="-1.24197">
        <ele>8.375701</ele>
        <time>2022-07-30T13:28:06.000Z</time>
      </trkpt>
      <trkpt lat="49.63909" lon="-1.24196">
        <ele>8.394058</ele>
        <time>2022-07-30T13:28:07.000Z</time>
      </trkpt>
      <trkpt lat="49.63906" lon="-1.24195">
        <ele>8.415341</ele>
        <time>2022-07-30T13:28:08.000Z</time>
      </trkpt>
      <trkpt lat="49.63903" lon="-1.24194">
        <ele>8.434409</ele>
        <time>2022-07-30T13:28:09.000Z</time>
      </trkpt>
      <trkpt lat="49.63901" lon="-1.24193">
        <ele>8.45319</ele>
        <time>2022-07-30T13:28:10.000Z</time>
      </trkpt>
      <trkpt lat="49.63898" lon="-1.24192">
        <ele>8.470332</ele>
        <time>2022-07-30T13:28:11.000Z</time>
      </trkpt>
      <trkpt lat="49.63895" lon="-1.24192">
        <ele>8.493752</ele>
        <time>2022-07-30T13:28:12.000Z</time>
      </trkpt>
      <trkpt lat="49.63892" lon="-1.24191">
        <ele>8.517102</ele>
        <time>2022-07-30T13:28:13.000Z</time>
      </trkpt>
      <trkpt lat="49.63889" lon="-1.2419">
        <ele>8.537467</ele>
        <time>2022-07-30T13:28:14.000Z</time>
      </trkpt>
      <trkpt lat="49.63885" lon="-1.2419">
        <ele>8.565891</ele>
        <time>2022-07-30T13:28:15.000Z</time>
      </trkpt>
      <trkpt lat="49.63883" lon="-1.24189">
        <ele>8.582459</ele>
        <time>2022-07-30T13:28:16.000Z</time>
      </trkpt>
      <trkpt lat="49.63879" lon="-1.24187">
        <ele>8.61119</ele>
        <time>2022-07-30T13:28:17.000Z</time>
      </trkpt>
      <trkpt lat="49.63876" lon="-1.24186">
        <ele>8.634875</ele>
        <time>2022-07-30T13:28:18.000Z</time>
      </trkpt>
      <trkpt lat="49.63873" lon="-1.24186">
        <ele>8.653231</ele>
        <time>2022-07-30T13:28:19.000Z</time>
      </trkpt>
      <trkpt lat="49.63869" lon="-1.24185">
        <ele>8.681794</ele>
        <time>2022-07-30T13:28:20.000Z</time>
      </trkpt>
      <trkpt lat="49.63867" lon="-1.24184">
        <ele>8.70015</ele>
        <time>2022-07-30T13:28:21.000Z</time>
      </trkpt>
      <trkpt lat="49.63864" lon="-1.24183">
        <ele>8.723387</ele>
        <time>2022-07-30T13:28:22.000Z</time>
      </trkpt>
      <trkpt lat="49.63861" lon="-1.24183">
        <ele>8.746625</ele>
        <time>2022-07-30T13:28:23.000Z</time>
      </trkpt>
      <trkpt lat="49.63858" lon="-1.24182">
        <ele>8.765554</ele>
        <time>2022-07-30T13:28:24.000Z</time>
      </trkpt>
      <trkpt lat="49.63854" lon="-1.24181">
        <ele>8.802047</ele>
        <time>2022-07-30T13:28:25.000Z</time>
      </trkpt>
      <trkpt lat="49.63851" lon="-1.24181">
        <ele>8.839295</ele>
        <time>2022-07-30T13:28:26.000Z</time>
      </trkpt>
      <trkpt lat="49.63848" lon="-1.2418">
        <ele>8.889358</ele>
        <time>2022-07-30T13:28:27.000Z</time>
      </trkpt>
      <trkpt lat="49.63845" lon="-1.2418">
        <ele>8.926503</ele>
        <time>2022-07-30T13:28:28.000Z</time>
      </trkpt>
      <trkpt lat="49.63842" lon="-1.2418">
        <ele>8.976337</ele>
        <time>2022-07-30T13:28:29.000Z</time>
      </trkpt>
      <trkpt lat="49.63838" lon="-1.24179">
        <ele>9.026306</ele>
        <time>2022-07-30T13:28:30.000Z</time>
      </trkpt>
      <trkpt lat="49.63835" lon="-1.24179">
        <ele>9.06779</ele>
        <time>2022-07-30T13:28:31.000Z</time>
      </trkpt>
      <trkpt lat="49.63831" lon="-1.24178">
        <ele>9.122311</ele>
        <time>2022-07-30T13:28:32.000Z</time>
      </trkpt>
      <trkpt lat="49.63828" lon="-1.24177">
        <ele>9.173697</ele>
        <time>2022-07-30T13:28:33.000Z</time>
      </trkpt>
      <trkpt lat="49.63825" lon="-1.24177">
        <ele>9.213502</ele>
        <time>2022-07-30T13:28:34.000Z</time>
      </trkpt>
      <trkpt lat="49.63822" lon="-1.24177">
        <ele>9.259227</ele>
        <time>2022-07-30T13:28:35.000Z</time>
      </trkpt>
      <trkpt lat="49.63818" lon="-1.24177">
        <ele>9.310439</ele>
        <time>2022-07-30T13:28:36.000Z</time>
      </trkpt>
      <trkpt lat="49.63815" lon="-1.24176">
        <ele>9.356014</ele>
        <time>2022-07-30T13:28:37.000Z</time>
      </trkpt>
      <trkpt lat="49.63812" lon="-1.24176">
        <ele>9.405908</ele>
        <time>2022-07-30T13:28:38.000Z</time>
      </trkpt>
      <trkpt lat="49.63808" lon="-1.24176">
        <ele>9.4514</ele>
        <time>2022-07-30T13:28:39.000Z</time>
      </trkpt>
      <trkpt lat="49.63805" lon="-1.24176">
        <ele>9.492719</ele>
        <time>2022-07-30T13:28:40.000Z</time>
      </trkpt>
      <trkpt lat="49.63802" lon="-1.24175">
        <ele>9.538295</ele>
        <time>2022-07-30T13:28:41.000Z</time>
      </trkpt>
      <trkpt lat="49.638" lon="-1.24175">
        <ele>9.573884</ele>
        <time>2022-07-30T13:28:42.000Z</time>
      </trkpt>
      <trkpt lat="49.63796" lon="-1.24175">
        <ele>9.629396</ele>
        <time>2022-07-30T13:28:43.000Z</time>
      </trkpt>
      <trkpt lat="49.63792" lon="-1.24174">
        <ele>9.683614</ele>
        <time>2022-07-30T13:28:44.000Z</time>
      </trkpt>
      <trkpt lat="49.63789" lon="-1.24174">
        <ele>9.733786</ele>
        <time>2022-07-30T13:28:45.000Z</time>
      </trkpt>
      <trkpt lat="49.63786" lon="-1.24173">
        <ele>9.77527</ele>
        <time>2022-07-30T13:28:46.000Z</time>
      </trkpt>
      <trkpt lat="49.63783" lon="-1.24173">
        <ele>9.8066</ele>
        <time>2022-07-30T13:28:47.000Z</time>
      </trkpt>
      <trkpt lat="49.6378" lon="-1.24173">
        <ele>9.857853</ele>
        <time>2022-07-30T13:28:48.000Z</time>
      </trkpt>
      <trkpt lat="49.63777" lon="-1.24172">
        <ele>9.903429</ele>
        <time>2022-07-30T13:28:49.000Z</time>
      </trkpt>
      <trkpt lat="49.63774" lon="-1.24172">
        <ele>9.934921</ele>
        <time>2022-07-30T13:28:50.000Z</time>
      </trkpt>
      <trkpt lat="49.63772" lon="-1.24171">
        <ele>9.976404</ele>
        <time>2022-07-30T13:28:51.000Z</time>
      </trkpt>
      <trkpt lat="49.63769" lon="-1.24171">
        <ele>10.008017</ele>
        <time>2022-07-30T13:28:52.000Z</time>
      </trkpt>
      <trkpt lat="49.63765" lon="-1.2417">
        <ele>10.063735</ele>
        <time>2022-07-30T13:28:53.000Z</time>
      </trkpt>
      <trkpt lat="49.63762" lon="-1.2417">
        <ele>10.109459</ele>
        <time>2022-07-30T13:28:54.000Z</time>
      </trkpt>
      <trkpt lat="49.6376" lon="-1.24169">
        <ele>10.141814</ele>
        <time>2022-07-30T13:28:55.000Z</time>
      </trkpt>
      <trkpt lat="49.63757" lon="-1.24168">
        <ele>10.18842</ele>
        <time>2022-07-30T13:28:56.000Z</time>
      </trkpt>
      <trkpt lat="49.63754" lon="-1.24167">
        <ele>10.234834</ele>
        <time>2022-07-30T13:28:57.000Z</time>
      </trkpt>
      <trkpt lat="49.63751" lon="-1.24166">
        <ele>10.276318</ele>
        <time>2022-07-30T13:28:58.000Z</time>
      </trkpt>
      <trkpt lat="49.63748" lon="-1.24166">
        <ele>10.322264</ele>
        <time>2022-07-30T13:28:59.000Z</time>
      </trkpt>
      <trkpt lat="49.63744" lon="-1.24165">
        <ele>10.368678</ele>
        <time>2022-07-30T13:29:00.000Z</time>
      </trkpt>
      <trkpt lat="49.63742" lon="-1.24164">
        <ele>10.405392</ele>
        <time>2022-07-30T13:29:01.000Z</time>
      </trkpt>
      <trkpt lat="49.63739" lon="-1.24163">
        <ele>10.447635</ele>
        <time>2022-07-30T13:29:02.000Z</time>
      </trkpt>
      <trkpt lat="49.63736" lon="-1.24162">
        <ele>10.485324</ele>
        <time>2022-07-30T13:29:03.000Z</time>
      </trkpt>
      <trkpt lat="49.63734" lon="-1.24161">
        <ele>10.517257</ele>
        <time>2022-07-30T13:29:04.000Z</time>
      </trkpt>
      <trkpt lat="49.63732" lon="-1.2416">
        <ele>10.554946</ele>
        <time>2022-07-30T13:29:05.000Z</time>
      </trkpt>
      <trkpt lat="49.63728" lon="-1.24159">
        <ele>10.601761</ele>
        <time>2022-07-30T13:29:06.000Z</time>
      </trkpt>
      <trkpt lat="49.63726" lon="-1.24158">
        <ele>10.638979</ele>
        <time>2022-07-30T13:29:07.000Z</time>
      </trkpt>
      <trkpt lat="49.63724" lon="-1.24157">
        <ele>10.672496</ele>
        <time>2022-07-30T13:29:08.000Z</time>
      </trkpt>
      <trkpt lat="49.6372" lon="-1.24156">
        <ele>10.71931</ele>
        <time>2022-07-30T13:29:09.000Z</time>
      </trkpt>
      <trkpt lat="49.63718" lon="-1.24155">
        <ele>10.751442</ele>
        <time>2022-07-30T13:29:10.000Z</time>
      </trkpt>
      <trkpt lat="49.63716" lon="-1.24154">
        <ele>10.789533</ele>
        <time>2022-07-30T13:29:11.000Z</time>
      </trkpt>
      <trkpt lat="49.63713" lon="-1.24153">
        <ele>10.826752</ele>
        <time>2022-07-30T13:29:12.000Z</time>
      </trkpt>
      <trkpt lat="49.63711" lon="-1.24152">
        <ele>10.860721</ele>
        <time>2022-07-30T13:29:13.000Z</time>
      </trkpt>
      <trkpt lat="49.63709" lon="-1.24151">
        <ele>10.893595</ele>
        <time>2022-07-30T13:29:14.000Z</time>
      </trkpt>
      <trkpt lat="49.63706" lon="-1.24149">
        <ele>10.933053</ele>
        <time>2022-07-30T13:29:15.000Z</time>
      </trkpt>
      <trkpt lat="49.63704" lon="-1.24148">
        <ele>10.965408</ele>
        <time>2022-07-30T13:29:16.000Z</time>
      </trkpt>
      <trkpt lat="49.63701" lon="-1.24148">
        <ele>11.003097</ele>
        <time>2022-07-30T13:29:17.000Z</time>
      </trkpt>
      <trkpt lat="49.63698" lon="-1.24148">
        <ele>11.048627</ele>
        <time>2022-07-30T13:29:18.000Z</time>
      </trkpt>
      <trkpt lat="49.63696" lon="-1.24147">
        <ele>11.075888</ele>
        <time>2022-07-30T13:29:19.000Z</time>
      </trkpt>
      <trkpt lat="49.63694" lon="-1.24147">
        <ele>11.103039</ele>
        <time>2022-07-30T13:29:20.000Z</time>
      </trkpt>
      <trkpt lat="49.63691" lon="-1.24147">
        <ele>11.144308</ele>
        <time>2022-07-30T13:29:22.000Z</time>
      </trkpt>
      <trkpt lat="49.63689" lon="-1.24148">
        <ele>11.181681</ele>
        <time>2022-07-30T13:29:24.000Z</time>
      </trkpt>
      <trkpt lat="49.63687" lon="-1.24148">
        <ele>11.208754</ele>
        <time>2022-07-30T13:29:29.000Z</time>
      </trkpt>
      <trkpt lat="49.6369" lon="-1.24147">
        <ele>11.258927</ele>
        <time>2022-07-30T13:30:12.000Z</time>
      </trkpt>
      <trkpt lat="49.63693" lon="-1.24146">
        <ele>11.297019</ele>
        <time>2022-07-30T13:30:14.000Z</time>
      </trkpt>
      <trkpt lat="49.63695" lon="-1.24146">
        <ele>11.32403</ele>
        <time>2022-07-30T13:30:17.000Z</time>
      </trkpt>
      <trkpt lat="49.63686" lon="-1.24138">
        <ele>11.310831</ele>
        <time>2022-07-30T13:31:05.000Z</time>
      </trkpt>
      <trkpt lat="49.63685" lon="-1.24134">
        <ele>11.300072</ele>
        <time>2022-07-30T13:31:06.000Z</time>
      </trkpt>
      <trkpt lat="49.63685" lon="-1.24129">
        <ele>11.288594</ele>
        <time>2022-07-30T13:31:07.000Z</time>
      </trkpt>
      <trkpt lat="49.63685" lon="-1.24124">
        <ele>11.274589</ele>
        <time>2022-07-30T13:31:08.000Z</time>
      </trkpt>
      <trkpt lat="49.63686" lon="-1.24118">
        <ele>11.25937</ele>
        <time>2022-07-30T13:31:09.000Z</time>
      </trkpt>
      <trkpt lat="49.63686" lon="-1.24111">
        <ele>11.24271</ele>
        <time>2022-07-30T13:31:10.000Z</time>
      </trkpt>
      <trkpt lat="49.63688" lon="-1.24104">
        <ele>11.222747</ele>
        <time>2022-07-30T13:31:11.000Z</time>
      </trkpt>
      <trkpt lat="49.6369" lon="-1.24097">
        <ele>11.202313</ele>
        <time>2022-07-30T13:31:12.000Z</time>
      </trkpt>
      <trkpt lat="49.63693" lon="-1.24089">
        <ele>11.180567</ele>
        <time>2022-07-30T13:31:13.000Z</time>
      </trkpt>
      <trkpt lat="49.63695" lon="-1.24081">
        <ele>11.157571</ele>
        <time>2022-07-30T13:31:14.000Z</time>
      </trkpt>
      <trkpt lat="49.63697" lon="-1.24072">
        <ele>11.134664</ele>
        <time>2022-07-30T13:31:15.000Z</time>
      </trkpt>
      <trkpt lat="49.637" lon="-1.24063">
        <ele>11.110049</ele>
        <time>2022-07-30T13:31:16.000Z</time>
      </trkpt>
      <trkpt lat="49.63702" lon="-1.24055">
        <ele>11.085506</ele>
        <time>2022-07-30T13:31:17.000Z</time>
      </trkpt>
      <trkpt lat="49.63705" lon="-1.24046">
        <ele>11.060964</ele>
        <time>2022-07-30T13:31:18.000Z</time>
      </trkpt>
      <trkpt lat="49.63707" lon="-1.24037">
        <ele>11.036792</ele>
        <time>2022-07-30T13:31:19.000Z</time>
      </trkpt>
      <trkpt lat="49.6371" lon="-1.24028">
        <ele>11.011739</ele>
        <time>2022-07-30T13:31:20.000Z</time>
      </trkpt>
      <trkpt lat="49.63713" lon="-1.24019">
        <ele>10.986891</ele>
        <time>2022-07-30T13:31:21.000Z</time>
      </trkpt>
      <trkpt lat="49.63716" lon="-1.2401">
        <ele>10.961385</ele>
        <time>2022-07-30T13:31:22.000Z</time>
      </trkpt>
      <trkpt lat="49.63718" lon="-1.24001">
        <ele>10.935915</ele>
        <time>2022-07-30T13:31:23.000Z</time>
      </trkpt>
      <trkpt lat="49.63721" lon="-1.23992">
        <ele>10.910834</ele>
        <time>2022-07-30T13:31:24.000Z</time>
      </trkpt>
      <trkpt lat="49.63723" lon="-1.23983">
        <ele>10.885812</ele>
        <time>2022-07-30T13:31:25.000Z</time>
      </trkpt>
      <trkpt lat="49.63726" lon="-1.23974">
        <ele>10.860305</ele>
        <time>2022-07-30T13:31:26.000Z</time>
      </trkpt>
      <trkpt lat="49.63728" lon="-1.23965">
        <ele>10.835457</ele>
        <time>2022-07-30T13:31:27.000Z</time>
      </trkpt>
      <trkpt lat="49.63731" lon="-1.23955">
        <ele>10.809988</ele>
        <time>2022-07-30T13:31:28.000Z</time>
      </trkpt>
      <trkpt lat="49.63734" lon="-1.23946">
        <ele>10.784482</ele>
        <time>2022-07-30T13:31:29.000Z</time>
      </trkpt>
      <trkpt lat="49.63736" lon="-1.23937">
        <ele>10.760073</ele>
        <time>2022-07-30T13:31:30.000Z</time>
      </trkpt>
      <trkpt lat="49.63738" lon="-1.23929">
        <ele>10.736612</ele>
        <time>2022-07-30T13:31:31.000Z</time>
      </trkpt>
      <trkpt lat="49.63741" lon="-1.2392">
        <ele>10.711607</ele>
        <time>2022-07-30T13:31:32.000Z</time>
      </trkpt>
      <trkpt lat="49.63743" lon="-1.23911">
        <ele>10.687295</ele>
        <time>2022-07-30T13:31:33.000Z</time>
      </trkpt>
      <trkpt lat="49.63746" lon="-1.23902">
        <ele>10.663145</ele>
        <time>2022-07-30T13:31:34.000Z</time>
      </trkpt>
      <trkpt lat="49.63748" lon="-1.23894">
        <ele>10.638634</ele>
        <time>2022-07-30T13:31:35.000Z</time>
      </trkpt>
      <trkpt lat="49.63751" lon="-1.23886">
        <ele>10.596874</ele>
        <time>2022-07-30T13:31:36.000Z</time>
      </trkpt>
      <trkpt lat="49.63754" lon="-1.23877">
        <ele>10.552571</ele>
        <time>2022-07-30T13:31:37.000Z</time>
      </trkpt>
      <trkpt lat="49.63756" lon="-1.23869">
        <ele>10.512121</ele>
        <time>2022-07-30T13:31:38.000Z</time>
      </trkpt>
      <trkpt lat="49.63758" lon="-1.23861">
        <ele>10.468371</ele>
        <time>2022-07-30T13:31:39.000Z</time>
      </trkpt>
      <trkpt lat="49.63761" lon="-1.23852">
        <ele>10.423657</ele>
        <time>2022-07-30T13:31:40.000Z</time>
      </trkpt>
      <trkpt lat="49.63764" lon="-1.23844">
        <ele>10.381055</ele>
        <time>2022-07-30T13:31:41.000Z</time>
      </trkpt>
      <trkpt lat="49.63766" lon="-1.23836">
        <ele>10.339397</ele>
        <time>2022-07-30T13:31:42.000Z</time>
      </trkpt>
      <trkpt lat="49.63769" lon="-1.23828">
        <ele>10.295914</ele>
        <time>2022-07-30T13:31:43.000Z</time>
      </trkpt>
      <trkpt lat="49.63772" lon="-1.2382">
        <ele>10.255035</ele>
        <time>2022-07-30T13:31:44.000Z</time>
      </trkpt>
      <trkpt lat="49.63774" lon="-1.23811">
        <ele>10.21259</ele>
        <time>2022-07-30T13:31:45.000Z</time>
      </trkpt>
      <trkpt lat="49.63776" lon="-1.23803">
        <ele>10.167867</ele>
        <time>2022-07-30T13:31:46.000Z</time>
      </trkpt>
      <trkpt lat="49.63779" lon="-1.23794">
        <ele>10.123154</ele>
        <time>2022-07-30T13:31:47.000Z</time>
      </trkpt>
      <trkpt lat="49.63781" lon="-1.23785">
        <ele>10.079687</ele>
        <time>2022-07-30T13:31:48.000Z</time>
      </trkpt>
      <trkpt lat="49.63784" lon="-1.23777">
        <ele>10.036383</ele>
        <time>2022-07-30T13:31:49.000Z</time>
      </trkpt>
      <trkpt lat="49.63786" lon="-1.23768">
        <ele>9.990806</ele>
        <time>2022-07-30T13:31:50.000Z</time>
      </trkpt>
      <trkpt lat="49.63789" lon="-1.23758">
        <ele>9.942348</ele>
        <time>2022-07-30T13:31:51.000Z</time>
      </trkpt>
      <trkpt lat="49.63792" lon="-1.23749">
        <ele>9.893919</ele>
        <time>2022-07-30T13:31:52.000Z</time>
      </trkpt>
      <trkpt lat="49.63794" lon="-1.23739">
        <ele>9.845207</ele>
        <time>2022-07-30T13:31:53.000Z</time>
      </trkpt>
      <trkpt lat="49.63797" lon="-1.23729">
        <ele>9.794624</ele>
        <time>2022-07-30T13:31:54.000Z</time>
      </trkpt>
      <trkpt lat="49.63799" lon="-1.23719">
        <ele>9.744736</ele>
        <time>2022-07-30T13:31:55.000Z</time>
      </trkpt>
      <trkpt lat="49.63801" lon="-1.23709">
        <ele>9.695786</ele>
        <time>2022-07-30T13:31:56.000Z</time>
      </trkpt>
      <trkpt lat="49.63803" lon="-1.237">
        <ele>9.651288</ele>
        <time>2022-07-30T13:31:57.000Z</time>
      </trkpt>
      <trkpt lat="49.63805" lon="-1.23692">
        <ele>9.612901</ele>
        <time>2022-07-30T13:31:58.000Z</time>
      </trkpt>
      <trkpt lat="49.63806" lon="-1.23685">
        <ele>9.58035</ele>
        <time>2022-07-30T13:31:59.000Z</time>
      </trkpt>
      <trkpt lat="49.63806" lon="-1.2368">
        <ele>9.554662</ele>
        <time>2022-07-30T13:32:00.000Z</time>
      </trkpt>
      <trkpt lat="49.63806" lon="-1.23675">
        <ele>9.532682</ele>
        <time>2022-07-30T13:32:01.000Z</time>
      </trkpt>
      <trkpt lat="49.63806" lon="-1.23671">
        <ele>9.515928</ele>
        <time>2022-07-30T13:32:02.000Z</time>
      </trkpt>
      <trkpt lat="49.63805" lon="-1.23665">
        <ele>9.487856</ele>
        <time>2022-07-30T13:32:04.000Z</time>
      </trkpt>
      <trkpt lat="49.63805" lon="-1.23663">
        <ele>9.474544</ele>
        <time>2022-07-30T13:32:05.000Z</time>
      </trkpt>
      <trkpt lat="49.63803" lon="-1.23659">
        <ele>9.454953</ele>
        <time>2022-07-30T13:32:07.000Z</time>
      </trkpt>
      <trkpt lat="49.638" lon="-1.23658">
        <ele>9.429188</ele>
        <time>2022-07-30T13:32:09.000Z</time>
      </trkpt>
      <trkpt lat="49.63797" lon="-1.23657">
        <ele>9.409815</ele>
        <time>2022-07-30T13:32:11.000Z</time>
      </trkpt>
      <trkpt lat="49.63795" lon="-1.23655">
        <ele>9.39054</ele>
        <time>2022-07-30T13:32:13.000Z</time>
      </trkpt>
      <trkpt lat="49.63792" lon="-1.23653">
        <ele>9.370327</ele>
        <time>2022-07-30T13:32:15.000Z</time>
      </trkpt>
      <trkpt lat="49.63791" lon="-1.23648">
        <ele>9.34696</ele>
        <time>2022-07-30T13:32:17.000Z</time>
      </trkpt>
      <trkpt lat="49.6379" lon="-1.23645">
        <ele>9.334777</ele>
        <time>2022-07-30T13:32:18.000Z</time>
      </trkpt>
      <trkpt lat="49.63789" lon="-1.23642">
        <ele>9.323717</ele>
        <time>2022-07-30T13:32:19.000Z</time>
      </trkpt>
      <trkpt lat="49.63788" lon="-1.2364">
        <ele>9.31225</ele>
        <time>2022-07-30T13:32:20.000Z</time>
      </trkpt>
      <trkpt lat="49.63787" lon="-1.23638">
        <ele>9.301198</ele>
        <time>2022-07-30T13:32:21.000Z</time>
      </trkpt>
      <trkpt lat="49.63782" lon="-1.23638">
        <ele>9.277275</ele>
        <time>2022-07-30T13:32:23.000Z</time>
      </trkpt>
      <trkpt lat="49.6378" lon="-1.23639">
        <ele>9.26219</ele>
        <time>2022-07-30T13:32:24.000Z</time>
      </trkpt>
      <trkpt lat="49.63778" lon="-1.23639">
        <ele>9.251075</ele>
        <time>2022-07-30T13:32:25.000Z</time>
      </trkpt>
      <trkpt lat="49.63776" lon="-1.2364">
        <ele>9.240108</ele>
        <time>2022-07-30T13:32:27.000Z</time>
      </trkpt>
      <trkpt lat="49.6377" lon="-1.23641">
        <ele>9.203506</ele>
        <time>2022-07-30T13:51:09.000Z</time>
      </trkpt>
      <trkpt lat="49.63767" lon="-1.23642">
        <ele>9.190348</ele>
        <time>2022-07-30T13:51:10.000Z</time>
      </trkpt>
      <trkpt lat="49.63765" lon="-1.23643">
        <ele>9.173441</ele>
        <time>2022-07-30T13:51:11.000Z</time>
      </trkpt>
      <trkpt lat="49.63762" lon="-1.23643">
        <ele>9.156837</ele>
        <time>2022-07-30T13:51:12.000Z</time>
      </trkpt>
      <trkpt lat="49.63759" lon="-1.23644">
        <ele>9.139929</ele>
        <time>2022-07-30T13:51:13.000Z</time>
      </trkpt>
      <trkpt lat="49.63756" lon="-1.23645">
        <ele>9.123098</ele>
        <time>2022-07-30T13:51:14.000Z</time>
      </trkpt>
      <trkpt lat="49.63752" lon="-1.23646">
        <ele>9.101398</ele>
        <time>2022-07-30T13:51:15.000Z</time>
      </trkpt>
      <trkpt lat="49.63748" lon="-1.23647">
        <ele>9.079576</ele>
        <time>2022-07-30T13:51:16.000Z</time>
      </trkpt>
      <trkpt lat="49.63745" lon="-1.23648">
        <ele>9.060998</ele>
        <time>2022-07-30T13:51:17.000Z</time>
      </trkpt>
      <trkpt lat="49.63742" lon="-1.23649">
        <ele>9.042171</ele>
        <time>2022-07-30T13:51:18.000Z</time>
      </trkpt>
      <trkpt lat="49.63738" lon="-1.2365">
        <ele>9.01983</ele>
        <time>2022-07-30T13:51:19.000Z</time>
      </trkpt>
      <trkpt lat="49.63734" lon="-1.2365">
        <ele>8.998129</ele>
        <time>2022-07-30T13:51:20.000Z</time>
      </trkpt>
      <trkpt lat="49.6373" lon="-1.2365">
        <ele>8.974231</ele>
        <time>2022-07-30T13:51:21.000Z</time>
      </trkpt>
      <trkpt lat="49.63726" lon="-1.2365">
        <ele>8.950891</ele>
        <time>2022-07-30T13:51:22.000Z</time>
      </trkpt>
      <trkpt lat="49.63721" lon="-1.23649">
        <ele>8.923516</ele>
        <time>2022-07-30T13:51:23.000Z</time>
      </trkpt>
      <trkpt lat="49.63717" lon="-1.23649">
        <ele>8.897845</ele>
        <time>2022-07-30T13:51:24.000Z</time>
      </trkpt>
      <trkpt lat="49.63712" lon="-1.23648">
        <ele>8.870471</ele>
        <time>2022-07-30T13:51:25.000Z</time>
      </trkpt>
      <trkpt lat="49.63707" lon="-1.23648">
        <ele>8.841367</ele>
        <time>2022-07-30T13:51:26.000Z</time>
      </trkpt>
      <trkpt lat="49.63701" lon="-1.23647">
        <ele>8.809856</ele>
        <time>2022-07-30T13:51:27.000Z</time>
      </trkpt>
      <trkpt lat="49.63696" lon="-1.23645">
        <ele>8.782061</ele>
        <time>2022-07-30T13:51:28.000Z</time>
      </trkpt>
      <trkpt lat="49.63691" lon="-1.23644">
        <ele>8.75276</ele>
        <time>2022-07-30T13:51:29.000Z</time>
      </trkpt>
      <trkpt lat="49.63686" lon="-1.23643">
        <ele>8.724965</ele>
        <time>2022-07-30T13:51:30.000Z</time>
      </trkpt>
      <trkpt lat="49.63681" lon="-1.23642">
        <ele>8.695553</ele>
        <time>2022-07-30T13:51:31.000Z</time>
      </trkpt>
      <trkpt lat="49.63677" lon="-1.2364">
        <ele>8.669192</ele>
        <time>2022-07-30T13:51:32.000Z</time>
      </trkpt>
      <trkpt lat="49.63672" lon="-1.23638">
        <ele>8.640903</ele>
        <time>2022-07-30T13:51:33.000Z</time>
      </trkpt>
      <trkpt lat="49.63668" lon="-1.23636">
        <ele>8.614154</ele>
        <time>2022-07-30T13:51:34.000Z</time>
      </trkpt>
      <trkpt lat="49.63663" lon="-1.23634">
        <ele>8.587296</ele>
        <time>2022-07-30T13:51:35.000Z</time>
      </trkpt>
      <trkpt lat="49.63659" lon="-1.23631">
        <ele>8.560864</ele>
        <time>2022-07-30T13:51:36.000Z</time>
      </trkpt>
      <trkpt lat="49.63654" lon="-1.23629">
        <ele>8.535962</ele>
        <time>2022-07-30T13:51:37.000Z</time>
      </trkpt>
      <trkpt lat="49.6365" lon="-1.23628">
        <ele>8.511588</ele>
        <time>2022-07-30T13:51:38.000Z</time>
      </trkpt>
      <trkpt lat="49.63646" lon="-1.23627">
        <ele>8.489518</ele>
        <time>2022-07-30T13:51:39.000Z</time>
      </trkpt>
      <trkpt lat="49.63643" lon="-1.23626">
        <ele>8.467372</ele>
        <time>2022-07-30T13:51:40.000Z</time>
      </trkpt>
      <trkpt lat="49.63639" lon="-1.23624">
        <ele>8.444503</ele>
        <time>2022-07-30T13:51:41.000Z</time>
      </trkpt>
      <trkpt lat="49.63635" lon="-1.23622">
        <ele>8.420347</ele>
        <time>2022-07-30T13:51:42.000Z</time>
      </trkpt>
      <trkpt lat="49.63631" lon="-1.23621">
        <ele>8.39913</ele>
        <time>2022-07-30T13:51:43.000Z</time>
      </trkpt>
      <trkpt lat="49.63627" lon="-1.2362">
        <ele>8.376984</ele>
        <time>2022-07-30T13:51:44.000Z</time>
      </trkpt>
      <trkpt lat="49.63623" lon="-1.23618">
        <ele>8.354837</ele>
        <time>2022-07-30T13:51:45.000Z</time>
      </trkpt>
      <trkpt lat="49.6362" lon="-1.23617">
        <ele>8.333416</ele>
        <time>2022-07-30T13:51:46.000Z</time>
      </trkpt>
      <trkpt lat="49.63616" lon="-1.23615">
        <ele>8.330758</ele>
        <time>2022-07-30T13:51:47.000Z</time>
      </trkpt>
      <trkpt lat="49.63613" lon="-1.23614">
        <ele>8.340394</ele>
        <time>2022-07-30T13:51:48.000Z</time>
      </trkpt>
      <trkpt lat="49.63609" lon="-1.23613">
        <ele>8.349868</ele>
        <time>2022-07-30T13:51:49.000Z</time>
      </trkpt>
      <trkpt lat="49.63605" lon="-1.23612">
        <ele>8.360356</ele>
        <time>2022-07-30T13:51:50.000Z</time>
      </trkpt>
      <trkpt lat="49.63602" lon="-1.23611">
        <ele>8.369866</ele>
        <time>2022-07-30T13:51:51.000Z</time>
      </trkpt>
      <trkpt lat="49.63598" lon="-1.23609">
        <ele>8.379501</ele>
        <time>2022-07-30T13:51:52.000Z</time>
      </trkpt>
      <trkpt lat="49.63595" lon="-1.23608">
        <ele>8.389137</ele>
        <time>2022-07-30T13:51:53.000Z</time>
      </trkpt>
      <trkpt lat="49.63591" lon="-1.23606">
        <ele>8.398923</ele>
        <time>2022-07-30T13:51:54.000Z</time>
      </trkpt>
      <trkpt lat="49.63589" lon="-1.23604">
        <ele>8.406983</ele>
        <time>2022-07-30T13:51:55.000Z</time>
      </trkpt>
      <trkpt lat="49.63585" lon="-1.23603">
        <ele>8.417644</ele>
        <time>2022-07-30T13:51:56.000Z</time>
      </trkpt>
      <trkpt lat="49.63581" lon="-1.23602">
        <ele>8.426341</ele>
        <time>2022-07-30T13:51:57.000Z</time>
      </trkpt>
      <trkpt lat="49.63578" lon="-1.23601">
        <ele>8.436539</ele>
        <time>2022-07-30T13:51:58.000Z</time>
      </trkpt>
      <trkpt lat="49.63574" lon="-1.236">
        <ele>8.445924</ele>
        <time>2022-07-30T13:51:59.000Z</time>
      </trkpt>
      <trkpt lat="49.63571" lon="-1.23599">
        <ele>8.454585</ele>
        <time>2022-07-30T13:52:00.000Z</time>
      </trkpt>
      <trkpt lat="49.63567" lon="-1.23598">
        <ele>8.464027</ele>
        <time>2022-07-30T13:52:01.000Z</time>
      </trkpt>
      <trkpt lat="49.63564" lon="-1.23597">
        <ele>8.47373</ele>
        <time>2022-07-30T13:52:02.000Z</time>
      </trkpt>
      <trkpt lat="49.63561" lon="-1.23596">
        <ele>8.482329</ele>
        <time>2022-07-30T13:52:03.000Z</time>
      </trkpt>
      <trkpt lat="49.63557" lon="-1.23596">
        <ele>8.492446</ele>
        <time>2022-07-30T13:52:04.000Z</time>
      </trkpt>
      <trkpt lat="49.63553" lon="-1.23596">
        <ele>8.501737</ele>
        <time>2022-07-30T13:52:05.000Z</time>
      </trkpt>
      <trkpt lat="49.63549" lon="-1.23595">
        <ele>8.512095</ele>
        <time>2022-07-30T13:52:06.000Z</time>
      </trkpt>
      <trkpt lat="49.63546" lon="-1.23595">
        <ele>8.522181</ele>
        <time>2022-07-30T13:52:07.000Z</time>
      </trkpt>
      <trkpt lat="49.63542" lon="-1.23595">
        <ele>8.531472</ele>
        <time>2022-07-30T13:52:08.000Z</time>
      </trkpt>
      <trkpt lat="49.63538" lon="-1.23595">
        <ele>8.541817</ele>
        <time>2022-07-30T13:52:09.000Z</time>
      </trkpt>
      <trkpt lat="49.63534" lon="-1.23596">
        <ele>8.552015</ele>
        <time>2022-07-30T13:52:10.000Z</time>
      </trkpt>
      <trkpt lat="49.63531" lon="-1.23597">
        <ele>8.561401</ele>
        <time>2022-07-30T13:52:11.000Z</time>
      </trkpt>
      <trkpt lat="49.63527" lon="-1.23597">
        <ele>8.570763</ele>
        <time>2022-07-30T13:52:12.000Z</time>
      </trkpt>
      <trkpt lat="49.63524" lon="-1.23598">
        <ele>8.58116</ele>
        <time>2022-07-30T13:52:13.000Z</time>
      </trkpt>
      <trkpt lat="49.6352" lon="-1.23599">
        <ele>8.590572</ele>
        <time>2022-07-30T13:52:14.000Z</time>
      </trkpt>
      <trkpt lat="49.63517" lon="-1.236">
        <ele>8.600121</ele>
        <time>2022-07-30T13:52:15.000Z</time>
      </trkpt>
      <trkpt lat="49.63513" lon="-1.23601">
        <ele>8.609563</ele>
        <time>2022-07-30T13:52:16.000Z</time>
      </trkpt>
      <trkpt lat="49.63509" lon="-1.23602">
        <ele>8.619266</ele>
        <time>2022-07-30T13:52:17.000Z</time>
      </trkpt>
      <trkpt lat="49.63506" lon="-1.23603">
        <ele>8.629492</ele>
        <time>2022-07-30T13:52:18.000Z</time>
      </trkpt>
      <trkpt lat="49.63502" lon="-1.23604">
        <ele>8.638934</ele>
        <time>2022-07-30T13:52:19.000Z</time>
      </trkpt>
      <trkpt lat="49.63499" lon="-1.23605">
        <ele>8.648444</ele>
        <time>2022-07-30T13:52:20.000Z</time>
      </trkpt>
      <trkpt lat="49.63496" lon="-1.23606">
        <ele>8.656366</ele>
        <time>2022-07-30T13:52:21.000Z</time>
      </trkpt>
      <trkpt lat="49.63492" lon="-1.23607">
        <ele>8.666826</ele>
        <time>2022-07-30T13:52:22.000Z</time>
      </trkpt>
      <trkpt lat="49.63488" lon="-1.23608">
        <ele>8.676168</ele>
        <time>2022-07-30T13:52:23.000Z</time>
      </trkpt>
      <trkpt lat="49.63485" lon="-1.23608">
        <ele>8.685492</ele>
        <time>2022-07-30T13:52:24.000Z</time>
      </trkpt>
      <trkpt lat="49.63481" lon="-1.23609">
        <ele>8.694816</ele>
        <time>2022-07-30T13:52:25.000Z</time>
      </trkpt>
      <trkpt lat="49.63478" lon="-1.23609">
        <ele>8.7041</ele>
        <time>2022-07-30T13:52:26.000Z</time>
      </trkpt>
      <trkpt lat="49.63475" lon="-1.23609">
        <ele>8.712596</ele>
        <time>2022-07-30T13:52:27.000Z</time>
      </trkpt>
      <trkpt lat="49.63471" lon="-1.23609">
        <ele>8.721091</ele>
        <time>2022-07-30T13:52:28.000Z</time>
      </trkpt>
      <trkpt lat="49.63468" lon="-1.23608">
        <ele>8.730679</ele>
        <time>2022-07-30T13:52:29.000Z</time>
      </trkpt>
      <trkpt lat="49.63465" lon="-1.23608">
        <ele>8.739211</ele>
        <time>2022-07-30T13:52:30.000Z</time>
      </trkpt>
      <trkpt lat="49.63462" lon="-1.23607">
        <ele>8.74671</ele>
        <time>2022-07-30T13:52:31.000Z</time>
      </trkpt>
      <trkpt lat="49.63458" lon="-1.23607">
        <ele>8.756335</ele>
        <time>2022-07-30T13:52:32.000Z</time>
      </trkpt>
      <trkpt lat="49.63455" lon="-1.23606">
        <ele>8.763889</ele>
        <time>2022-07-30T13:52:33.000Z</time>
      </trkpt>
      <trkpt lat="49.63452" lon="-1.23605">
        <ele>8.773563</ele>
        <time>2022-07-30T13:52:34.000Z</time>
      </trkpt>
      <trkpt lat="49.63448" lon="-1.23604">
        <ele>8.783005</ele>
        <time>2022-07-30T13:52:35.000Z</time>
      </trkpt>
      <trkpt lat="49.63445" lon="-1.23603">
        <ele>8.79239</ele>
        <time>2022-07-30T13:52:36.000Z</time>
      </trkpt>
      <trkpt lat="49.63441" lon="-1.23602">
        <ele>8.804432</ele>
        <time>2022-07-30T13:52:37.000Z</time>
      </trkpt>
      <trkpt lat="49.63437" lon="-1.236">
        <ele>8.853469</ele>
        <time>2022-07-30T13:52:38.000Z</time>
      </trkpt>
      <trkpt lat="49.63434" lon="-1.23599">
        <ele>8.897556</ele>
        <time>2022-07-30T13:52:39.000Z</time>
      </trkpt>
      <trkpt lat="49.63429" lon="-1.23598">
        <ele>8.953235</ele>
        <time>2022-07-30T13:52:40.000Z</time>
      </trkpt>
      <trkpt lat="49.63426" lon="-1.23597">
        <ele>8.996827</ele>
        <time>2022-07-30T13:52:41.000Z</time>
      </trkpt>
      <trkpt lat="49.63422" lon="-1.23596">
        <ele>9.040735</ele>
        <time>2022-07-30T13:52:42.000Z</time>
      </trkpt>
      <trkpt lat="49.63418" lon="-1.23595">
        <ele>9.09278</ele>
        <time>2022-07-30T13:52:43.000Z</time>
      </trkpt>
      <trkpt lat="49.63414" lon="-1.23594">
        <ele>9.139487</ele>
        <time>2022-07-30T13:52:44.000Z</time>
      </trkpt>
      <trkpt lat="49.6341" lon="-1.23595">
        <ele>9.187276</ele>
        <time>2022-07-30T13:52:45.000Z</time>
      </trkpt>
      <trkpt lat="49.63406" lon="-1.23595">
        <ele>9.237888</ele>
        <time>2022-07-30T13:52:46.000Z</time>
      </trkpt>
      <trkpt lat="49.63403" lon="-1.23597">
        <ele>9.283324</ele>
        <time>2022-07-30T13:52:47.000Z</time>
      </trkpt>
      <trkpt lat="49.63399" lon="-1.236">
        <ele>9.32837</ele>
        <time>2022-07-30T13:52:48.000Z</time>
      </trkpt>
      <trkpt lat="49.63397" lon="-1.23604">
        <ele>9.372215</ele>
        <time>2022-07-30T13:52:49.000Z</time>
      </trkpt>
      <trkpt lat="49.63395" lon="-1.23608">
        <ele>9.416306</ele>
        <time>2022-07-30T13:52:50.000Z</time>
      </trkpt>
      <trkpt lat="49.63392" lon="-1.23613">
        <ele>9.461776</ele>
        <time>2022-07-30T13:52:51.000Z</time>
      </trkpt>
      <trkpt lat="49.6339" lon="-1.23617">
        <ele>9.505051</ele>
        <time>2022-07-30T13:52:52.000Z</time>
      </trkpt>
      <trkpt lat="49.63388" lon="-1.23622">
        <ele>9.549772</ele>
        <time>2022-07-30T13:52:53.000Z</time>
      </trkpt>
      <trkpt lat="49.63386" lon="-1.23626">
        <ele>9.594622</ele>
        <time>2022-07-30T13:52:54.000Z</time>
      </trkpt>
      <trkpt lat="49.63384" lon="-1.23631">
        <ele>9.63591</ele>
        <time>2022-07-30T13:52:55.000Z</time>
      </trkpt>
      <trkpt lat="49.63382" lon="-1.23635">
        <ele>9.676546</ele>
        <time>2022-07-30T13:52:56.000Z</time>
      </trkpt>
      <trkpt lat="49.6338" lon="-1.23639">
        <ele>9.717835</ele>
        <time>2022-07-30T13:52:57.000Z</time>
      </trkpt>
      <trkpt lat="49.63378" lon="-1.23644">
        <ele>9.763107</ele>
        <time>2022-07-30T13:52:58.000Z</time>
      </trkpt>
      <trkpt lat="49.63376" lon="-1.23648">
        <ele>9.805716</ele>
        <time>2022-07-30T13:52:59.000Z</time>
      </trkpt>
      <trkpt lat="49.63374" lon="-1.23653">
        <ele>9.847662</ele>
        <time>2022-07-30T13:53:00.000Z</time>
      </trkpt>
      <trkpt lat="49.63372" lon="-1.23657">
        <ele>9.891128</ele>
        <time>2022-07-30T13:53:01.000Z</time>
      </trkpt>
      <trkpt lat="49.6337" lon="-1.23661">
        <ele>9.933119</ele>
        <time>2022-07-30T13:53:02.000Z</time>
      </trkpt>
      <trkpt lat="49.63368" lon="-1.23666">
        <ele>9.975728</ele>
        <time>2022-07-30T13:53:03.000Z</time>
      </trkpt>
      <trkpt lat="49.63366" lon="-1.2367">
        <ele>10.017674</ele>
        <time>2022-07-30T13:53:04.000Z</time>
      </trkpt>
      <trkpt lat="49.63365" lon="-1.23675">
        <ele>10.06095</ele>
        <time>2022-07-30T13:53:05.000Z</time>
      </trkpt>
      <trkpt lat="49.63363" lon="-1.23679">
        <ele>10.103559</ele>
        <time>2022-07-30T13:53:06.000Z</time>
      </trkpt>
      <trkpt lat="49.63361" lon="-1.23684">
        <ele>10.148166</ele>
        <time>2022-07-30T13:53:07.000Z</time>
      </trkpt>
      <trkpt lat="49.63359" lon="-1.23689">
        <ele>10.192112</ele>
        <time>2022-07-30T13:53:08.000Z</time>
      </trkpt>
      <trkpt lat="49.63357" lon="-1.23693">
        <ele>10.235387</ele>
        <time>2022-07-30T13:53:09.000Z</time>
      </trkpt>
      <trkpt lat="49.63355" lon="-1.23698">
        <ele>10.275413</ele>
        <time>2022-07-30T13:53:10.000Z</time>
      </trkpt>
      <trkpt lat="49.63353" lon="-1.23702">
        <ele>10.318688</ele>
        <time>2022-07-30T13:53:11.000Z</time>
      </trkpt>
      <trkpt lat="49.63351" lon="-1.23707">
        <ele>10.365414</ele>
        <time>2022-07-30T13:53:12.000Z</time>
      </trkpt>
      <trkpt lat="49.63349" lon="-1.23712">
        <ele>10.410035</ele>
        <time>2022-07-30T13:53:13.000Z</time>
      </trkpt>
      <trkpt lat="49.63347" lon="-1.23717">
        <ele>10.457327</ele>
        <time>2022-07-30T13:53:14.000Z</time>
      </trkpt>
      <trkpt lat="49.63345" lon="-1.23721">
        <ele>10.499936</ele>
        <time>2022-07-30T13:53:15.000Z</time>
      </trkpt>
      <trkpt lat="49.63343" lon="-1.23726">
        <ele>10.541928</ele>
        <time>2022-07-30T13:53:16.000Z</time>
      </trkpt>
      <trkpt lat="49.63341" lon="-1.2373">
        <ele>10.584748</ele>
        <time>2022-07-30T13:53:17.000Z</time>
      </trkpt>
      <trkpt lat="49.6334" lon="-1.23735">
        <ele>10.630048</ele>
        <time>2022-07-30T13:53:18.000Z</time>
      </trkpt>
      <trkpt lat="49.63338" lon="-1.2374">
        <ele>10.674669</ele>
        <time>2022-07-30T13:53:19.000Z</time>
      </trkpt>
      <trkpt lat="49.63336" lon="-1.23745">
        <ele>10.717406</ele>
        <time>2022-07-30T13:53:20.000Z</time>
      </trkpt>
      <trkpt lat="49.63334" lon="-1.2375">
        <ele>10.763388</ele>
        <time>2022-07-30T13:53:21.000Z</time>
      </trkpt>
      <trkpt lat="49.63333" lon="-1.23755">
        <ele>10.809371</ele>
        <time>2022-07-30T13:53:22.000Z</time>
      </trkpt>
      <trkpt lat="49.63331" lon="-1.2376">
        <ele>10.857421</ele>
        <time>2022-07-30T13:53:23.000Z</time>
      </trkpt>
      <trkpt lat="49.63329" lon="-1.23765">
        <ele>10.903362</ele>
        <time>2022-07-30T13:53:24.000Z</time>
      </trkpt>
      <trkpt lat="49.63327" lon="-1.2377">
        <ele>10.949344</ele>
        <time>2022-07-30T13:53:25.000Z</time>
      </trkpt>
      <trkpt lat="49.63325" lon="-1.23775">
        <ele>10.995327</ele>
        <time>2022-07-30T13:53:26.000Z</time>
      </trkpt>
      <trkpt lat="49.63323" lon="-1.2378">
        <ele>11.060164</ele>
        <time>2022-07-30T13:53:27.000Z</time>
      </trkpt>
      <trkpt lat="49.63322" lon="-1.23786">
        <ele>11.134209</ele>
        <time>2022-07-30T13:53:28.000Z</time>
      </trkpt>
      <trkpt lat="49.6332" lon="-1.23791">
        <ele>11.207108</ele>
        <time>2022-07-30T13:53:29.000Z</time>
      </trkpt>
      <trkpt lat="49.63319" lon="-1.23796">
        <ele>11.274582</ele>
        <time>2022-07-30T13:53:30.000Z</time>
      </trkpt>
      <trkpt lat="49.63317" lon="-1.23801">
        <ele>11.345202</ele>
        <time>2022-07-30T13:53:31.000Z</time>
      </trkpt>
      <trkpt lat="49.63317" lon="-1.23806">
        <ele>11.413359</ele>
        <time>2022-07-30T13:53:32.000Z</time>
      </trkpt>
      <trkpt lat="49.63316" lon="-1.23811">
        <ele>11.479623</ele>
        <time>2022-07-30T13:53:33.000Z</time>
      </trkpt>
      <trkpt lat="49.63315" lon="-1.23816">
        <ele>11.546506</ele>
        <time>2022-07-30T13:53:34.000Z</time>
      </trkpt>
      <trkpt lat="49.63314" lon="-1.23822">
        <ele>11.61827</ele>
        <time>2022-07-30T13:53:35.000Z</time>
      </trkpt>
      <trkpt lat="49.63313" lon="-1.23827">
        <ele>11.684377</ele>
        <time>2022-07-30T13:53:36.000Z</time>
      </trkpt>
      <trkpt lat="49.63313" lon="-1.23832">
        <ele>11.749153</ele>
        <time>2022-07-30T13:53:37.000Z</time>
      </trkpt>
      <trkpt lat="49.63312" lon="-1.23837">
        <ele>11.813545</ele>
        <time>2022-07-30T13:53:38.000Z</time>
      </trkpt>
      <trkpt lat="49.63312" lon="-1.23841">
        <ele>11.872088</ele>
        <time>2022-07-30T13:53:39.000Z</time>
      </trkpt>
      <trkpt lat="49.63311" lon="-1.23846">
        <ele>11.928112</ele>
        <time>2022-07-30T13:53:40.000Z</time>
      </trkpt>
      <trkpt lat="49.63311" lon="-1.2385">
        <ele>11.980615</ele>
        <time>2022-07-30T13:53:41.000Z</time>
      </trkpt>
      <trkpt lat="49.63311" lon="-1.23854">
        <ele>12.037598</ele>
        <time>2022-07-30T13:53:42.000Z</time>
      </trkpt>
      <trkpt lat="49.63311" lon="-1.23859">
        <ele>12.097401</ele>
        <time>2022-07-30T13:53:43.000Z</time>
      </trkpt>
      <trkpt lat="49.6331" lon="-1.23864">
        <ele>12.160986</ele>
        <time>2022-07-30T13:53:44.000Z</time>
      </trkpt>
      <trkpt lat="49.6331" lon="-1.23869">
        <ele>12.227869</ele>
        <time>2022-07-30T13:53:45.000Z</time>
      </trkpt>
      <trkpt lat="49.63309" lon="-1.23874">
        <ele>12.289152</ele>
        <time>2022-07-30T13:53:46.000Z</time>
      </trkpt>
      <trkpt lat="49.63309" lon="-1.23879">
        <ele>12.354998</ele>
        <time>2022-07-30T13:53:47.000Z</time>
      </trkpt>
      <trkpt lat="49.63309" lon="-1.23884">
        <ele>12.41939</ele>
        <time>2022-07-30T13:53:48.000Z</time>
      </trkpt>
      <trkpt lat="49.63309" lon="-1.23889">
        <ele>12.484235</ele>
        <time>2022-07-30T13:53:49.000Z</time>
      </trkpt>
      <trkpt lat="49.63309" lon="-1.23895">
        <ele>12.550082</ele>
        <time>2022-07-30T13:53:50.000Z</time>
      </trkpt>
      <trkpt lat="49.63308" lon="-1.239">
        <ele>12.618576</ele>
        <time>2022-07-30T13:53:51.000Z</time>
      </trkpt>
      <trkpt lat="49.63308" lon="-1.23906">
        <ele>12.693516</ele>
        <time>2022-07-30T13:53:52.000Z</time>
      </trkpt>
      <trkpt lat="49.63307" lon="-1.23912">
        <ele>12.767891</ele>
        <time>2022-07-30T13:53:53.000Z</time>
      </trkpt>
      <trkpt lat="49.63306" lon="-1.23917">
        <ele>12.844413</ele>
        <time>2022-07-30T13:53:54.000Z</time>
      </trkpt>
      <trkpt lat="49.63305" lon="-1.23923">
        <ele>12.917971</ele>
        <time>2022-07-30T13:53:55.000Z</time>
      </trkpt>
      <trkpt lat="49.63303" lon="-1.23928">
        <ele>12.99087</ele>
        <time>2022-07-30T13:53:56.000Z</time>
      </trkpt>
      <trkpt lat="49.63302" lon="-1.23933">
        <ele>13.061965</ele>
        <time>2022-07-30T13:53:57.000Z</time>
      </trkpt>
      <trkpt lat="49.63301" lon="-1.23939">
        <ele>13.134915</ele>
        <time>2022-07-30T13:53:58.000Z</time>
      </trkpt>
      <trkpt lat="49.63299" lon="-1.23944">
        <ele>13.209417</ele>
        <time>2022-07-30T13:53:59.000Z</time>
      </trkpt>
      <trkpt lat="49.63297" lon="-1.23949">
        <ele>13.283832</ele>
        <time>2022-07-30T13:54:00.000Z</time>
      </trkpt>
      <trkpt lat="49.63295" lon="-1.23954">
        <ele>13.350168</ele>
        <time>2022-07-30T13:54:01.000Z</time>
      </trkpt>
      <trkpt lat="49.63294" lon="-1.23958">
        <ele>13.41372</ele>
        <time>2022-07-30T13:54:02.000Z</time>
      </trkpt>
      <trkpt lat="49.63293" lon="-1.23963">
        <ele>13.478775</ele>
        <time>2022-07-30T13:54:03.000Z</time>
      </trkpt>
      <trkpt lat="49.63292" lon="-1.23968">
        <ele>13.547</ele>
        <time>2022-07-30T13:54:04.000Z</time>
      </trkpt>
      <trkpt lat="49.63291" lon="-1.23973">
        <ele>13.607849</ele>
        <time>2022-07-30T13:54:05.000Z</time>
      </trkpt>
      <trkpt lat="49.63289" lon="-1.23978">
        <ele>13.675085</ele>
        <time>2022-07-30T13:54:06.000Z</time>
      </trkpt>
      <trkpt lat="49.63288" lon="-1.23982">
        <ele>13.735175</ele>
        <time>2022-07-30T13:54:07.000Z</time>
      </trkpt>
      <trkpt lat="49.63287" lon="-1.23986">
        <ele>13.794222</ele>
        <time>2022-07-30T13:54:08.000Z</time>
      </trkpt>
      <trkpt lat="49.63285" lon="-1.23991">
        <ele>13.859226</ele>
        <time>2022-07-30T13:54:09.000Z</time>
      </trkpt>
      <trkpt lat="49.63284" lon="-1.23995">
        <ele>13.922022</ele>
        <time>2022-07-30T13:54:10.000Z</time>
      </trkpt>
      <trkpt lat="49.63283" lon="-1.23999">
        <ele>13.979245</ele>
        <time>2022-07-30T13:54:11.000Z</time>
      </trkpt>
      <trkpt lat="49.63281" lon="-1.24004">
        <ele>14.046481</ele>
        <time>2022-07-30T13:54:12.000Z</time>
      </trkpt>
      <trkpt lat="49.63281" lon="-1.24009">
        <ele>14.107549</ele>
        <time>2022-07-30T13:54:13.000Z</time>
      </trkpt>
      <trkpt lat="49.6328" lon="-1.24014">
        <ele>14.170827</ele>
        <time>2022-07-30T13:54:14.000Z</time>
      </trkpt>
      <trkpt lat="49.63279" lon="-1.24019">
        <ele>14.235603</ele>
        <time>2022-07-30T13:54:15.000Z</time>
      </trkpt>
      <trkpt lat="49.63278" lon="-1.24024">
        <ele>14.303124</ele>
        <time>2022-07-30T13:54:16.000Z</time>
      </trkpt>
      <trkpt lat="49.63277" lon="-1.24028">
        <ele>14.365428</ele>
        <time>2022-07-30T13:54:17.000Z</time>
      </trkpt>
      <trkpt lat="49.63276" lon="-1.24033">
        <ele>14.431142</ele>
        <time>2022-07-30T13:54:18.000Z</time>
      </trkpt>
      <trkpt lat="49.63275" lon="-1.24038">
        <ele>14.497406</ele>
        <time>2022-07-30T13:54:19.000Z</time>
      </trkpt>
      <trkpt lat="49.63275" lon="-1.24043">
        <ele>14.517653</ele>
        <time>2022-07-30T13:54:20.000Z</time>
      </trkpt>
      <trkpt lat="49.63274" lon="-1.24048">
        <ele>14.510897</ele>
        <time>2022-07-30T13:54:21.000Z</time>
      </trkpt>
      <trkpt lat="49.63274" lon="-1.24053">
        <ele>14.504672</ele>
        <time>2022-07-30T13:54:22.000Z</time>
      </trkpt>
      <trkpt lat="49.63273" lon="-1.24058">
        <ele>14.498574</ele>
        <time>2022-07-30T13:54:23.000Z</time>
      </trkpt>
      <trkpt lat="49.63273" lon="-1.24062">
        <ele>14.492605</ele>
        <time>2022-07-30T13:54:24.000Z</time>
      </trkpt>
      <trkpt lat="49.63272" lon="-1.24067">
        <ele>14.486127</ele>
        <time>2022-07-30T13:54:25.000Z</time>
      </trkpt>
      <trkpt lat="49.63272" lon="-1.24072">
        <ele>14.479562</ele>
        <time>2022-07-30T13:54:26.000Z</time>
      </trkpt>
      <trkpt lat="49.63271" lon="-1.24077">
        <ele>14.473336</ele>
        <time>2022-07-30T13:54:27.000Z</time>
      </trkpt>
      <trkpt lat="49.63271" lon="-1.24082">
        <ele>14.467088</ele>
        <time>2022-07-30T13:54:28.000Z</time>
      </trkpt>
      <trkpt lat="49.63271" lon="-1.24087">
        <ele>14.460605</ele>
        <time>2022-07-30T13:54:29.000Z</time>
      </trkpt>
      <trkpt lat="49.6327" lon="-1.24092">
        <ele>14.45404</ele>
        <time>2022-07-30T13:54:30.000Z</time>
      </trkpt>
      <trkpt lat="49.63269" lon="-1.24097">
        <ele>14.446665</ele>
        <time>2022-07-30T13:54:31.000Z</time>
      </trkpt>
      <trkpt lat="49.63269" lon="-1.24103">
        <ele>14.439667</ele>
        <time>2022-07-30T13:54:32.000Z</time>
      </trkpt>
      <trkpt lat="49.63268" lon="-1.24108">
        <ele>14.432339</ele>
        <time>2022-07-30T13:54:33.000Z</time>
      </trkpt>
      <trkpt lat="49.63268" lon="-1.24114">
        <ele>14.424849</ele>
        <time>2022-07-30T13:54:34.000Z</time>
      </trkpt>
      <trkpt lat="49.63267" lon="-1.2412">
        <ele>14.417466</ele>
        <time>2022-07-30T13:54:35.000Z</time>
      </trkpt>
      <trkpt lat="49.63266" lon="-1.24126">
        <ele>14.409542</ele>
        <time>2022-07-30T13:54:36.000Z</time>
      </trkpt>
      <trkpt lat="49.63265" lon="-1.24131">
        <ele>14.401959</ele>
        <time>2022-07-30T13:54:37.000Z</time>
      </trkpt>
      <trkpt lat="49.63265" lon="-1.24137">
        <ele>14.39419</ele>
        <time>2022-07-30T13:54:38.000Z</time>
      </trkpt>
      <trkpt lat="49.63264" lon="-1.24144">
        <ele>14.38581</ele>
        <time>2022-07-30T13:54:39.000Z</time>
      </trkpt>
      <trkpt lat="49.63264" lon="-1.2415">
        <ele>14.377268</ele>
        <time>2022-07-30T13:54:40.000Z</time>
      </trkpt>
      <trkpt lat="49.63264" lon="-1.24158">
        <ele>14.367953</ele>
        <time>2022-07-30T13:54:41.000Z</time>
      </trkpt>
      <trkpt lat="49.63263" lon="-1.24165">
        <ele>14.358509</ele>
        <time>2022-07-30T13:54:42.000Z</time>
      </trkpt>
      <trkpt lat="49.63263" lon="-1.24172">
        <ele>14.348922</ele>
        <time>2022-07-30T13:54:43.000Z</time>
      </trkpt>
      <trkpt lat="49.63263" lon="-1.2418">
        <ele>14.339498</ele>
        <time>2022-07-30T13:54:44.000Z</time>
      </trkpt>
      <trkpt lat="49.63262" lon="-1.24187">
        <ele>14.330125</ele>
        <time>2022-07-30T13:54:45.000Z</time>
      </trkpt>
      <trkpt lat="49.63262" lon="-1.24194">
        <ele>14.321326</ele>
        <time>2022-07-30T13:54:46.000Z</time>
      </trkpt>
      <trkpt lat="49.63261" lon="-1.24201">
        <ele>14.311926</ele>
        <time>2022-07-30T13:54:47.000Z</time>
      </trkpt>
      <trkpt lat="49.63261" lon="-1.24208">
        <ele>14.30281</ele>
        <time>2022-07-30T13:54:48.000Z</time>
      </trkpt>
      <trkpt lat="49.6326" lon="-1.24214">
        <ele>14.294205</ele>
        <time>2022-07-30T13:54:49.000Z</time>
      </trkpt>
      <trkpt lat="49.6326" lon="-1.24221">
        <ele>14.285443</ele>
        <time>2022-07-30T13:54:50.000Z</time>
      </trkpt>
      <trkpt lat="49.63258" lon="-1.24228">
        <ele>14.27629</ele>
        <time>2022-07-30T13:54:51.000Z</time>
      </trkpt>
      <trkpt lat="49.63258" lon="-1.24234">
        <ele>14.267813</ele>
        <time>2022-07-30T13:54:52.000Z</time>
      </trkpt>
      <trkpt lat="49.63256" lon="-1.24241">
        <ele>14.258783</ele>
        <time>2022-07-30T13:54:53.000Z</time>
      </trkpt>
      <trkpt lat="49.63255" lon="-1.24247">
        <ele>14.250454</ele>
        <time>2022-07-30T13:54:54.000Z</time>
      </trkpt>
      <trkpt lat="49.63254" lon="-1.24253">
        <ele>14.242286</ele>
        <time>2022-07-30T13:54:55.000Z</time>
      </trkpt>
      <trkpt lat="49.63254" lon="-1.24259">
        <ele>14.23516</ele>
        <time>2022-07-30T13:54:56.000Z</time>
      </trkpt>
      <trkpt lat="49.63253" lon="-1.24264">
        <ele>14.228555</ele>
        <time>2022-07-30T13:54:57.000Z</time>
      </trkpt>
      <trkpt lat="49.63252" lon="-1.24269">
        <ele>14.221606</ele>
        <time>2022-07-30T13:54:58.000Z</time>
      </trkpt>
      <trkpt lat="49.63252" lon="-1.24274">
        <ele>14.215254</ele>
        <time>2022-07-30T13:54:59.000Z</time>
      </trkpt>
      <trkpt lat="49.63251" lon="-1.24278">
        <ele>14.209414</ele>
        <time>2022-07-30T13:55:00.000Z</time>
      </trkpt>
      <trkpt lat="49.63251" lon="-1.24283">
        <ele>14.203702</ele>
        <time>2022-07-30T13:55:01.000Z</time>
      </trkpt>
      <trkpt lat="49.6325" lon="-1.24287">
        <ele>14.198601</ele>
        <time>2022-07-30T13:55:02.000Z</time>
      </trkpt>
      <trkpt lat="49.6325" lon="-1.2429">
        <ele>14.193787</ele>
        <time>2022-07-30T13:55:03.000Z</time>
      </trkpt>
      <trkpt lat="49.6325" lon="-1.24293">
        <ele>14.190172</ele>
        <time>2022-07-30T13:55:04.000Z</time>
      </trkpt>
      <trkpt lat="49.6325" lon="-1.24296">
        <ele>14.186299</ele>
        <time>2022-07-30T13:55:05.000Z</time>
      </trkpt>
      <trkpt lat="49.63249" lon="-1.24301">
        <ele>14.179971</ele>
        <time>2022-07-30T13:55:07.000Z</time>
      </trkpt>
      <trkpt lat="49.63248" lon="-1.24303">
        <ele>14.176313</ele>
        <time>2022-07-30T13:55:08.000Z</time>
      </trkpt>
      <trkpt lat="49.63246" lon="-1.24304">
        <ele>14.172582</ele>
        <time>2022-07-30T13:55:09.000Z</time>
      </trkpt>
      <trkpt lat="49.63242" lon="-1.24307">
        <ele>14.164114</ele>
        <time>2022-07-30T13:55:11.000Z</time>
      </trkpt>
      <trkpt lat="49.6324" lon="-1.24308">
        <ele>14.149095</ele>
        <time>2022-07-30T13:55:12.000Z</time>
      </trkpt>
      <trkpt lat="49.63237" lon="-1.24309">
        <ele>14.126307</ele>
        <time>2022-07-30T13:55:13.000Z</time>
      </trkpt>
      <trkpt lat="49.63234" lon="-1.24309">
        <ele>14.100991</ele>
        <time>2022-07-30T13:55:14.000Z</time>
      </trkpt>
      <trkpt lat="49.6323" lon="-1.2431">
        <ele>14.070888</ele>
        <time>2022-07-30T13:55:15.000Z</time>
      </trkpt>
      <trkpt lat="49.63226" lon="-1.24312">
        <ele>14.03924</ele>
        <time>2022-07-30T13:55:16.000Z</time>
      </trkpt>
      <trkpt lat="49.63222" lon="-1.24314">
        <ele>14.008344</ele>
        <time>2022-07-30T13:55:17.000Z</time>
      </trkpt>
      <trkpt lat="49.63218" lon="-1.24316">
        <ele>13.972042</ele>
        <time>2022-07-30T13:55:18.000Z</time>
      </trkpt>
      <trkpt lat="49.63213" lon="-1.24317">
        <ele>13.933583</ele>
        <time>2022-07-30T13:55:19.000Z</time>
      </trkpt>
      <trkpt lat="49.63208" lon="-1.24319">
        <ele>13.892363</ele>
        <time>2022-07-30T13:55:20.000Z</time>
      </trkpt>
      <trkpt lat="49.63203" lon="-1.24322">
        <ele>13.848749</ele>
        <time>2022-07-30T13:55:21.000Z</time>
      </trkpt>
      <trkpt lat="49.63197" lon="-1.24324">
        <ele>13.805741</ele>
        <time>2022-07-30T13:55:22.000Z</time>
      </trkpt>
      <trkpt lat="49.63192" lon="-1.24327">
        <ele>13.761414</ele>
        <time>2022-07-30T13:55:23.000Z</time>
      </trkpt>
      <trkpt lat="49.63187" lon="-1.2433">
        <ele>13.717087</ele>
        <time>2022-07-30T13:55:24.000Z</time>
      </trkpt>
      <trkpt lat="49.63181" lon="-1.24332">
        <ele>13.674402</ele>
        <time>2022-07-30T13:55:25.000Z</time>
      </trkpt>
      <trkpt lat="49.63176" lon="-1.24335">
        <ele>13.627534</ele>
        <time>2022-07-30T13:55:26.000Z</time>
      </trkpt>
      <trkpt lat="49.6317" lon="-1.24338">
        <ele>13.580369</ele>
        <time>2022-07-30T13:55:27.000Z</time>
      </trkpt>
      <trkpt lat="49.63165" lon="-1.24341">
        <ele>13.536042</ele>
        <time>2022-07-30T13:55:28.000Z</time>
      </trkpt>
      <trkpt lat="49.63159" lon="-1.24343">
        <ele>13.491672</ele>
        <time>2022-07-30T13:55:29.000Z</time>
      </trkpt>
      <trkpt lat="49.63154" lon="-1.24345">
        <ele>13.45058</ele>
        <time>2022-07-30T13:55:30.000Z</time>
      </trkpt>
      <trkpt lat="49.63149" lon="-1.24346">
        <ele>13.407639</ele>
        <time>2022-07-30T13:55:31.000Z</time>
      </trkpt>
      <trkpt lat="49.63144" lon="-1.24348">
        <ele>13.371207</ele>
        <time>2022-07-30T13:55:32.000Z</time>
      </trkpt>
      <trkpt lat="49.63139" lon="-1.24351">
        <ele>13.331646</ele>
        <time>2022-07-30T13:55:33.000Z</time>
      </trkpt>
      <trkpt lat="49.63135" lon="-1.24354">
        <ele>13.294131</ele>
        <time>2022-07-30T13:55:34.000Z</time>
      </trkpt>
      <trkpt lat="49.63132" lon="-1.24359">
        <ele>13.260329</ele>
        <time>2022-07-30T13:55:35.000Z</time>
      </trkpt>
      <trkpt lat="49.63129" lon="-1.24364">
        <ele>13.226754</ele>
        <time>2022-07-30T13:55:36.000Z</time>
      </trkpt>
      <trkpt lat="49.63127" lon="-1.2437">
        <ele>13.196114</ele>
        <time>2022-07-30T13:55:37.000Z</time>
      </trkpt>
      <trkpt lat="49.63126" lon="-1.24374">
        <ele>13.168808</ele>
        <time>2022-07-30T13:55:38.000Z</time>
      </trkpt>
      <trkpt lat="49.63124" lon="-1.24379">
        <ele>13.14244</ele>
        <time>2022-07-30T13:55:39.000Z</time>
      </trkpt>
      <trkpt lat="49.63122" lon="-1.24382">
        <ele>13.118158</ele>
        <time>2022-07-30T13:55:40.000Z</time>
      </trkpt>
      <trkpt lat="49.63119" lon="-1.24386">
        <ele>13.089721</ele>
        <time>2022-07-30T13:55:41.000Z</time>
      </trkpt>
      <trkpt lat="49.63116" lon="-1.24389">
        <ele>13.063105</ele>
        <time>2022-07-30T13:55:42.000Z</time>
      </trkpt>
      <trkpt lat="49.63112" lon="-1.24391">
        <ele>13.031012</ele>
        <time>2022-07-30T13:55:43.000Z</time>
      </trkpt>
      <trkpt lat="49.63109" lon="-1.24392">
        <ele>13.000617</ele>
        <time>2022-07-30T13:55:44.000Z</time>
      </trkpt>
      <trkpt lat="49.63105" lon="-1.24393">
        <ele>12.973056</ele>
        <time>2022-07-30T13:55:45.000Z</time>
      </trkpt>
      <trkpt lat="49.63101" lon="-1.24393">
        <ele>12.940221</ele>
        <time>2022-07-30T13:55:46.000Z</time>
      </trkpt>
      <trkpt lat="49.63097" lon="-1.24393">
        <ele>12.907422</ele>
        <time>2022-07-30T13:55:47.000Z</time>
      </trkpt>
      <trkpt lat="49.63093" lon="-1.24393">
        <ele>12.875303</ele>
        <time>2022-07-30T13:55:48.000Z</time>
      </trkpt>
      <trkpt lat="49.63088" lon="-1.24391">
        <ele>12.841851</ele>
        <time>2022-07-30T13:55:49.000Z</time>
      </trkpt>
      <trkpt lat="49.63084" lon="-1.2439">
        <ele>12.808946</ele>
        <time>2022-07-30T13:55:50.000Z</time>
      </trkpt>
      <trkpt lat="49.63079" lon="-1.24388">
        <ele>12.770701</ele>
        <time>2022-07-30T13:55:51.000Z</time>
      </trkpt>
      <trkpt lat="49.63075" lon="-1.24387">
        <ele>12.729336</ele>
        <time>2022-07-30T13:55:52.000Z</time>
      </trkpt>
      <trkpt lat="49.6307" lon="-1.24385">
        <ele>12.679736</ele>
        <time>2022-07-30T13:55:53.000Z</time>
      </trkpt>
      <trkpt lat="49.63064" lon="-1.24383">
        <ele>12.626289</ele>
        <time>2022-07-30T13:55:54.000Z</time>
      </trkpt>
      <trkpt lat="49.63059" lon="-1.24381">
        <ele>12.570435</ele>
        <time>2022-07-30T13:55:55.000Z</time>
      </trkpt>
      <trkpt lat="49.63052" lon="-1.24379">
        <ele>12.504259</ele>
        <time>2022-07-30T13:55:56.000Z</time>
      </trkpt>
      <trkpt lat="49.63045" lon="-1.24377">
        <ele>12.442184</ele>
        <time>2022-07-30T13:55:57.000Z</time>
      </trkpt>
      <trkpt lat="49.63039" lon="-1.24374">
        <ele>12.377066</ele>
        <time>2022-07-30T13:55:58.000Z</time>
      </trkpt>
      <trkpt lat="49.63032" lon="-1.24372">
        <ele>12.309277</ele>
        <time>2022-07-30T13:55:59.000Z</time>
      </trkpt>
      <trkpt lat="49.63025" lon="-1.24371">
        <ele>12.240974</ele>
        <time>2022-07-30T13:56:00.000Z</time>
      </trkpt>
      <trkpt lat="49.63018" lon="-1.24369">
        <ele>12.173611</ele>
        <time>2022-07-30T13:56:01.000Z</time>
      </trkpt>
      <trkpt lat="49.63011" lon="-1.24367">
        <ele>12.109252</ele>
        <time>2022-07-30T13:56:02.000Z</time>
      </trkpt>
      <trkpt lat="49.63004" lon="-1.24366">
        <ele>12.041284</ele>
        <time>2022-07-30T13:56:03.000Z</time>
      </trkpt>
      <trkpt lat="49.62997" lon="-1.24365">
        <ele>11.979745</ele>
        <time>2022-07-30T13:56:04.000Z</time>
      </trkpt>
      <trkpt lat="49.62991" lon="-1.24363">
        <ele>11.915386</ele>
        <time>2022-07-30T13:56:05.000Z</time>
      </trkpt>
      <trkpt lat="49.62984" lon="-1.24361">
        <ele>11.850839</ele>
        <time>2022-07-30T13:56:06.000Z</time>
      </trkpt>
      <trkpt lat="49.62978" lon="-1.2436">
        <ele>11.789205</ele>
        <time>2022-07-30T13:56:07.000Z</time>
      </trkpt>
      <trkpt lat="49.62971" lon="-1.24358">
        <ele>11.72747</ele>
        <time>2022-07-30T13:56:08.000Z</time>
      </trkpt>
      <trkpt lat="49.62965" lon="-1.24356">
        <ele>11.668432</ele>
        <time>2022-07-30T13:56:09.000Z</time>
      </trkpt>
      <trkpt lat="49.62959" lon="-1.24354">
        <ele>11.609274</ele>
        <time>2022-07-30T13:56:10.000Z</time>
      </trkpt>
      <trkpt lat="49.62954" lon="-1.24353">
        <ele>11.557572</ele>
        <time>2022-07-30T13:56:11.000Z</time>
      </trkpt>
      <trkpt lat="49.62948" lon="-1.24353">
        <ele>11.502215</ele>
        <time>2022-07-30T13:56:12.000Z</time>
      </trkpt>
      <trkpt lat="49.62942" lon="-1.24351">
        <ele>11.45026</ele>
        <time>2022-07-30T13:56:13.000Z</time>
      </trkpt>
      <trkpt lat="49.62938" lon="-1.2435">
        <ele>11.403822</ele>
        <time>2022-07-30T13:56:14.000Z</time>
      </trkpt>
      <trkpt lat="49.62933" lon="-1.24349">
        <ele>11.363423</ele>
        <time>2022-07-30T13:56:15.000Z</time>
      </trkpt>
      <trkpt lat="49.62928" lon="-1.24348">
        <ele>11.3148</ele>
        <time>2022-07-30T13:56:16.000Z</time>
      </trkpt>
      <trkpt lat="49.62924" lon="-1.24348">
        <ele>11.271804</ele>
        <time>2022-07-30T13:56:17.000Z</time>
      </trkpt>
      <trkpt lat="49.62919" lon="-1.24346">
        <ele>11.229328</ele>
        <time>2022-07-30T13:56:18.000Z</time>
      </trkpt>
      <trkpt lat="49.62915" lon="-1.24346">
        <ele>11.183548</ele>
        <time>2022-07-30T13:56:19.000Z</time>
      </trkpt>
      <trkpt lat="49.6291" lon="-1.24345">
        <ele>11.137814</ele>
        <time>2022-07-30T13:56:20.000Z</time>
      </trkpt>
      <trkpt lat="49.62905" lon="-1.24345">
        <ele>11.088193</ele>
        <time>2022-07-30T13:56:21.000Z</time>
      </trkpt>
      <trkpt lat="49.629" lon="-1.24344">
        <ele>11.053494</ele>
        <time>2022-07-30T13:56:22.000Z</time>
      </trkpt>
      <trkpt lat="49.62895" lon="-1.24345">
        <ele>11.093888</ele>
        <time>2022-07-30T13:56:23.000Z</time>
      </trkpt>
      <trkpt lat="49.6289" lon="-1.24346">
        <ele>11.132731</ele>
        <time>2022-07-30T13:56:24.000Z</time>
      </trkpt>
      <trkpt lat="49.62885" lon="-1.24349">
        <ele>11.175721</ele>
        <time>2022-07-30T13:56:25.000Z</time>
      </trkpt>
      <trkpt lat="49.6288" lon="-1.24353">
        <ele>11.215128</ele>
        <time>2022-07-30T13:56:26.000Z</time>
      </trkpt>
      <trkpt lat="49.62877" lon="-1.24356">
        <ele>11.250665</ele>
        <time>2022-07-30T13:56:27.000Z</time>
      </trkpt>
      <trkpt lat="49.62872" lon="-1.2436">
        <ele>11.288664</ele>
        <time>2022-07-30T13:56:28.000Z</time>
      </trkpt>
      <trkpt lat="49.62868" lon="-1.24363">
        <ele>11.325478</ele>
        <time>2022-07-30T13:56:29.000Z</time>
      </trkpt>
      <trkpt lat="49.62864" lon="-1.24366">
        <ele>11.360176</ele>
        <time>2022-07-30T13:56:30.000Z</time>
      </trkpt>
      <trkpt lat="49.62861" lon="-1.24369">
        <ele>11.393265</ele>
        <time>2022-07-30T13:56:31.000Z</time>
      </trkpt>
      <trkpt lat="49.62857" lon="-1.24371">
        <ele>11.426109</ele>
        <time>2022-07-30T13:56:32.000Z</time>
      </trkpt>
      <trkpt lat="49.62853" lon="-1.24373">
        <ele>11.457265</ele>
        <time>2022-07-30T13:56:33.000Z</time>
      </trkpt>
      <trkpt lat="49.62849" lon="-1.24374">
        <ele>11.485625</ele>
        <time>2022-07-30T13:56:34.000Z</time>
      </trkpt>
      <trkpt lat="49.62846" lon="-1.24375">
        <ele>11.513612</ele>
        <time>2022-07-30T13:56:35.000Z</time>
      </trkpt>
      <trkpt lat="49.62842" lon="-1.24375">
        <ele>11.542161</ele>
        <time>2022-07-30T13:56:36.000Z</time>
      </trkpt>
      <trkpt lat="49.62839" lon="-1.24376">
        <ele>11.569889</ele>
        <time>2022-07-30T13:56:37.000Z</time>
      </trkpt>
      <trkpt lat="49.62835" lon="-1.24376">
        <ele>11.597617</ele>
        <time>2022-07-30T13:56:38.000Z</time>
      </trkpt>
      <trkpt lat="49.62832" lon="-1.24376">
        <ele>11.623012</ele>
        <time>2022-07-30T13:56:39.000Z</time>
      </trkpt>
      <trkpt lat="49.62829" lon="-1.24376">
        <ele>11.648345</ele>
        <time>2022-07-30T13:56:40.000Z</time>
      </trkpt>
      <trkpt lat="49.62826" lon="-1.24376">
        <ele>11.668937</ele>
        <time>2022-07-30T13:56:41.000Z</time>
      </trkpt>
      <trkpt lat="49.62823" lon="-1.24376">
        <ele>11.691085</ele>
        <time>2022-07-30T13:56:42.000Z</time>
      </trkpt>
      <trkpt lat="49.62821" lon="-1.24376">
        <ele>11.714024</ele>
        <time>2022-07-30T13:56:43.000Z</time>
      </trkpt>
      <trkpt lat="49.62817" lon="-1.24377">
        <ele>11.739383</ele>
        <time>2022-07-30T13:56:44.000Z</time>
      </trkpt>
      <trkpt lat="49.62815" lon="-1.24377">
        <ele>11.757576</ele>
        <time>2022-07-30T13:56:45.000Z</time>
      </trkpt>
      <trkpt lat="49.62813" lon="-1.24376">
        <ele>11.777377</ele>
        <time>2022-07-30T13:56:46.000Z</time>
      </trkpt>
      <trkpt lat="49.6281" lon="-1.24376">
        <ele>11.795635</ele>
        <time>2022-07-30T13:56:47.000Z</time>
      </trkpt>
      <trkpt lat="49.62807" lon="-1.24376">
        <ele>11.817807</ele>
        <time>2022-07-30T13:56:48.000Z</time>
      </trkpt>
      <trkpt lat="49.62805" lon="-1.24376">
        <ele>11.838373</ele>
        <time>2022-07-30T13:56:49.000Z</time>
      </trkpt>
      <trkpt lat="49.62802" lon="-1.24376">
        <ele>11.863706</ele>
        <time>2022-07-30T13:56:50.000Z</time>
      </trkpt>
      <trkpt lat="49.62799" lon="-1.24376">
        <ele>11.886697</ele>
        <time>2022-07-30T13:56:51.000Z</time>
      </trkpt>
      <trkpt lat="49.62795" lon="-1.24375">
        <ele>11.914613</ele>
        <time>2022-07-30T13:56:52.000Z</time>
      </trkpt>
      <trkpt lat="49.62791" lon="-1.24374">
        <ele>11.945638</ele>
        <time>2022-07-30T13:56:53.000Z</time>
      </trkpt>
      <trkpt lat="49.62787" lon="-1.24372">
        <ele>11.979983</ele>
        <time>2022-07-30T13:56:54.000Z</time>
      </trkpt>
      <trkpt lat="49.62783" lon="-1.2437">
        <ele>12.011425</ele>
        <time>2022-07-30T13:56:55.000Z</time>
      </trkpt>
      <trkpt lat="49.62779" lon="-1.24368">
        <ele>12.04577</ele>
        <time>2022-07-30T13:56:56.000Z</time>
      </trkpt>
      <trkpt lat="49.62775" lon="-1.24367">
        <ele>12.080248</ele>
        <time>2022-07-30T13:56:57.000Z</time>
      </trkpt>
      <trkpt lat="49.62771" lon="-1.24365">
        <ele>12.11426</ele>
        <time>2022-07-30T13:56:58.000Z</time>
      </trkpt>
      <trkpt lat="49.62767" lon="-1.24363">
        <ele>12.149027</ele>
        <time>2022-07-30T13:56:59.000Z</time>
      </trkpt>
      <trkpt lat="49.62763" lon="-1.24361">
        <ele>12.180321</ele>
        <time>2022-07-30T13:57:00.000Z</time>
      </trkpt>
      <trkpt lat="49.62759" lon="-1.24359">
        <ele>12.212114</ele>
        <time>2022-07-30T13:57:01.000Z</time>
      </trkpt>
      <trkpt lat="49.62755" lon="-1.24358">
        <ele>12.245222</ele>
        <time>2022-07-30T13:57:02.000Z</time>
      </trkpt>
      <trkpt lat="49.62751" lon="-1.24357">
        <ele>12.279321</ele>
        <time>2022-07-30T13:57:03.000Z</time>
      </trkpt>
      <trkpt lat="49.62746" lon="-1.24355">
        <ele>12.317869</ele>
        <time>2022-07-30T13:57:04.000Z</time>
      </trkpt>
      <trkpt lat="49.62742" lon="-1.24354">
        <ele>12.351084</ele>
        <time>2022-07-30T13:57:05.000Z</time>
      </trkpt>
      <trkpt lat="49.62737" lon="-1.24353">
        <ele>12.387297</ele>
        <time>2022-07-30T13:57:06.000Z</time>
      </trkpt>
      <trkpt lat="49.62733" lon="-1.24351">
        <ele>12.421397</ele>
        <time>2022-07-30T13:57:07.000Z</time>
      </trkpt>
      <trkpt lat="49.62729" lon="-1.2435">
        <ele>12.454505</ele>
        <time>2022-07-30T13:57:08.000Z</time>
      </trkpt>
      <trkpt lat="49.62724" lon="-1.24349">
        <ele>12.465394</ele>
        <time>2022-07-30T13:57:09.000Z</time>
      </trkpt>
      <trkpt lat="49.6272" lon="-1.24348">
        <ele>12.455615</ele>
        <time>2022-07-30T13:57:10.000Z</time>
      </trkpt>
      <trkpt lat="49.62715" lon="-1.24347">
        <ele>12.445793</ele>
        <time>2022-07-30T13:57:11.000Z</time>
      </trkpt>
      <trkpt lat="49.62711" lon="-1.24345">
        <ele>12.436606</ele>
        <time>2022-07-30T13:57:12.000Z</time>
      </trkpt>
      <trkpt lat="49.62707" lon="-1.24344">
        <ele>12.427437</ele>
        <time>2022-07-30T13:57:13.000Z</time>
      </trkpt>
      <trkpt lat="49.62703" lon="-1.24342">
        <ele>12.418165</ele>
        <time>2022-07-30T13:57:14.000Z</time>
      </trkpt>
      <trkpt lat="49.62699" lon="-1.24341">
        <ele>12.409729</ele>
        <time>2022-07-30T13:57:15.000Z</time>
      </trkpt>
      <trkpt lat="49.62695" lon="-1.24339">
        <ele>12.401084</ele>
        <time>2022-07-30T13:57:16.000Z</time>
      </trkpt>
      <trkpt lat="49.62692" lon="-1.24338">
        <ele>12.393373</ele>
        <time>2022-07-30T13:57:17.000Z</time>
      </trkpt>
      <trkpt lat="49.62688" lon="-1.24337">
        <ele>12.385057</ele>
        <time>2022-07-30T13:57:18.000Z</time>
      </trkpt>
      <trkpt lat="49.62684" lon="-1.24336">
        <ele>12.377345</ele>
        <time>2022-07-30T13:57:19.000Z</time>
      </trkpt>
      <trkpt lat="49.62681" lon="-1.24334">
        <ele>12.370152</ele>
        <time>2022-07-30T13:57:20.000Z</time>
      </trkpt>
      <trkpt lat="49.62677" lon="-1.24332">
        <ele>12.361397</ele>
        <time>2022-07-30T13:57:21.000Z</time>
      </trkpt>
      <trkpt lat="49.62673" lon="-1.24331">
        <ele>12.352887</ele>
        <time>2022-07-30T13:57:22.000Z</time>
      </trkpt>
      <trkpt lat="49.62669" lon="-1.24329">
        <ele>12.343434</ele>
        <time>2022-07-30T13:57:23.000Z</time>
      </trkpt>
      <trkpt lat="49.62665" lon="-1.24326">
        <ele>12.334654</ele>
        <time>2022-07-30T13:57:24.000Z</time>
      </trkpt>
      <trkpt lat="49.62661" lon="-1.24324">
        <ele>12.325724</ele>
        <time>2022-07-30T13:57:25.000Z</time>
      </trkpt>
      <trkpt lat="49.62658" lon="-1.24322">
        <ele>12.317789</ele>
        <time>2022-07-30T13:57:26.000Z</time>
      </trkpt>
      <trkpt lat="49.62654" lon="-1.2432">
        <ele>12.308453</ele>
        <time>2022-07-30T13:57:27.000Z</time>
      </trkpt>
      <trkpt lat="49.6265" lon="-1.24318">
        <ele>12.300223</ele>
        <time>2022-07-30T13:57:28.000Z</time>
      </trkpt>
      <trkpt lat="49.62646" lon="-1.24316">
        <ele>12.291588</ele>
        <time>2022-07-30T13:57:29.000Z</time>
      </trkpt>
      <trkpt lat="49.62643" lon="-1.24314">
        <ele>12.282953</ele>
        <time>2022-07-30T13:57:30.000Z</time>
      </trkpt>
      <trkpt lat="49.62639" lon="-1.24312">
        <ele>12.274197</ele>
        <time>2022-07-30T13:57:31.000Z</time>
      </trkpt>
      <trkpt lat="49.62635" lon="-1.2431">
        <ele>12.266069</ele>
        <time>2022-07-30T13:57:32.000Z</time>
      </trkpt>
      <trkpt lat="49.62631" lon="-1.24308">
        <ele>12.25734</ele>
        <time>2022-07-30T13:57:33.000Z</time>
      </trkpt>
      <trkpt lat="49.62627" lon="-1.24306">
        <ele>12.247408</ele>
        <time>2022-07-30T13:57:34.000Z</time>
      </trkpt>
      <trkpt lat="49.62624" lon="-1.24304">
        <ele>12.240033</ele>
        <time>2022-07-30T13:57:35.000Z</time>
      </trkpt>
      <trkpt lat="49.6262" lon="-1.24303">
        <ele>12.231278</ele>
        <time>2022-07-30T13:57:36.000Z</time>
      </trkpt>
      <trkpt lat="49.62616" lon="-1.24301">
        <ele>12.222643</ele>
        <time>2022-07-30T13:57:37.000Z</time>
      </trkpt>
      <trkpt lat="49.62612" lon="-1.24299">
        <ele>12.213189</ele>
        <time>2022-07-30T13:57:38.000Z</time>
      </trkpt>
      <trkpt lat="49.62608" lon="-1.24296">
        <ele>12.203806</ele>
        <time>2022-07-30T13:57:39.000Z</time>
      </trkpt>
      <trkpt lat="49.62604" lon="-1.24293">
        <ele>12.194173</ele>
        <time>2022-07-30T13:57:40.000Z</time>
      </trkpt>
      <trkpt lat="49.626" lon="-1.2429">
        <ele>12.184353</ele>
        <time>2022-07-30T13:57:41.000Z</time>
      </trkpt>
      <trkpt lat="49.62596" lon="-1.24287">
        <ele>12.174853</ele>
        <time>2022-07-30T13:57:42.000Z</time>
      </trkpt>
      <trkpt lat="49.62591" lon="-1.24284">
        <ele>12.163715</ele>
        <time>2022-07-30T13:57:43.000Z</time>
      </trkpt>
      <trkpt lat="49.62587" lon="-1.24281">
        <ele>12.153723</ele>
        <time>2022-07-30T13:57:44.000Z</time>
      </trkpt>
      <trkpt lat="49.62582" lon="-1.2428">
        <ele>12.143821</ele>
        <time>2022-07-30T13:57:45.000Z</time>
      </trkpt>
      <trkpt lat="49.62577" lon="-1.2428">
        <ele>12.133493</ele>
        <time>2022-07-30T13:57:46.000Z</time>
      </trkpt>
      <trkpt lat="49.62573" lon="-1.24281">
        <ele>12.123646</ele>
        <time>2022-07-30T13:57:47.000Z</time>
      </trkpt>
      <trkpt lat="49.62569" lon="-1.24283">
        <ele>12.114107</ele>
        <time>2022-07-30T13:57:48.000Z</time>
      </trkpt>
      <trkpt lat="49.62565" lon="-1.24286">
        <ele>12.105812</ele>
        <time>2022-07-30T13:57:49.000Z</time>
      </trkpt>
      <trkpt lat="49.62561" lon="-1.24288">
        <ele>12.096927</ele>
        <time>2022-07-30T13:57:50.000Z</time>
      </trkpt>
      <trkpt lat="49.62558" lon="-1.24291">
        <ele>12.089083</ele>
        <time>2022-07-30T13:57:51.000Z</time>
      </trkpt>
      <trkpt lat="49.62555" lon="-1.24293">
        <ele>12.070817</ele>
        <time>2022-07-30T13:57:52.000Z</time>
      </trkpt>
      <trkpt lat="49.62551" lon="-1.24296">
        <ele>12.031978</ele>
        <time>2022-07-30T13:57:53.000Z</time>
      </trkpt>
      <trkpt lat="49.62548" lon="-1.24298">
        <ele>11.9967</ele>
        <time>2022-07-30T13:57:54.000Z</time>
      </trkpt>
      <trkpt lat="49.62545" lon="-1.243">
        <ele>11.958168</ele>
        <time>2022-07-30T13:57:55.000Z</time>
      </trkpt>
      <trkpt lat="49.62541" lon="-1.24301">
        <ele>11.921914</ele>
        <time>2022-07-30T13:57:56.000Z</time>
      </trkpt>
      <trkpt lat="49.62538" lon="-1.24302">
        <ele>11.889267</ele>
        <time>2022-07-30T13:57:57.000Z</time>
      </trkpt>
      <trkpt lat="49.62534" lon="-1.24302">
        <ele>11.854019</ele>
        <time>2022-07-30T13:57:58.000Z</time>
      </trkpt>
      <trkpt lat="49.62531" lon="-1.24302">
        <ele>11.818771</ele>
        <time>2022-07-30T13:57:59.000Z</time>
      </trkpt>
      <trkpt lat="49.62528" lon="-1.24302">
        <ele>11.789558</ele>
        <time>2022-07-30T13:58:00.000Z</time>
      </trkpt>
      <trkpt lat="49.62525" lon="-1.24301">
        <ele>11.763244</ele>
        <time>2022-07-30T13:58:01.000Z</time>
      </trkpt>
      <trkpt lat="49.62524" lon="-1.24301">
        <ele>11.743833</ele>
        <time>2022-07-30T13:58:02.000Z</time>
      </trkpt>
      <trkpt lat="49.62521" lon="-1.24301">
        <ele>11.71858</ele>
        <time>2022-07-30T13:58:04.000Z</time>
      </trkpt>
      <trkpt lat="49.62519" lon="-1.24297">
        <ele>11.686957</ele>
        <time>2022-07-30T13:58:06.000Z</time>
      </trkpt>
      <trkpt lat="49.62518" lon="-1.24294">
        <ele>11.663924</ele>
        <time>2022-07-30T13:58:07.000Z</time>
      </trkpt>
      <trkpt lat="49.62519" lon="-1.2429">
        <ele>11.640892</ele>
        <time>2022-07-30T13:58:08.000Z</time>
      </trkpt>
      <trkpt lat="49.6252" lon="-1.24286">
        <ele>11.6117</ele>
        <time>2022-07-30T13:58:09.000Z</time>
      </trkpt>
      <trkpt lat="49.62521" lon="-1.24282">
        <ele>11.580975</ele>
        <time>2022-07-30T13:58:10.000Z</time>
      </trkpt>
      <trkpt lat="49.62521" lon="-1.24277">
        <ele>11.549514</ele>
        <time>2022-07-30T13:58:11.000Z</time>
      </trkpt>
      <trkpt lat="49.62522" lon="-1.24272">
        <ele>11.51503</ele>
        <time>2022-07-30T13:58:12.000Z</time>
      </trkpt>
      <trkpt lat="49.62523" lon="-1.24267">
        <ele>11.480381</ele>
        <time>2022-07-30T13:58:13.000Z</time>
      </trkpt>
      <trkpt lat="49.62523" lon="-1.24262">
        <ele>11.447623</ele>
        <time>2022-07-30T13:58:14.000Z</time>
      </trkpt>
      <trkpt lat="49.62524" lon="-1.24256">
        <ele>11.41161</ele>
        <time>2022-07-30T13:58:15.000Z</time>
      </trkpt>
      <trkpt lat="49.62525" lon="-1.24251">
        <ele>11.377152</ele>
        <time>2022-07-30T13:58:16.000Z</time>
      </trkpt>
      <trkpt lat="49.62525" lon="-1.24246">
        <ele>11.344393</ele>
        <time>2022-07-30T13:58:17.000Z</time>
      </trkpt>
      <trkpt lat="49.62526" lon="-1.24241">
        <ele>11.307422</ele>
        <time>2022-07-30T13:58:18.000Z</time>
      </trkpt>
      <trkpt lat="49.62528" lon="-1.24235">
        <ele>11.265695</ele>
        <time>2022-07-30T13:58:19.000Z</time>
      </trkpt>
      <trkpt lat="49.62529" lon="-1.24229">
        <ele>11.225443</ele>
        <time>2022-07-30T13:58:20.000Z</time>
      </trkpt>
      <trkpt lat="49.6253" lon="-1.24222">
        <ele>11.181859</ele>
        <time>2022-07-30T13:58:21.000Z</time>
      </trkpt>
      <trkpt lat="49.62531" lon="-1.24216">
        <ele>11.136231</ele>
        <time>2022-07-30T13:58:22.000Z</time>
      </trkpt>
      <trkpt lat="49.62533" lon="-1.24209">
        <ele>11.089646</ele>
        <time>2022-07-30T13:58:23.000Z</time>
      </trkpt>
      <trkpt lat="49.62534" lon="-1.24202">
        <ele>11.043673</ele>
        <time>2022-07-30T13:58:24.000Z</time>
      </trkpt>
      <trkpt lat="49.62536" lon="-1.24196">
        <ele>10.998928</ele>
        <time>2022-07-30T13:58:25.000Z</time>
      </trkpt>
      <trkpt lat="49.62538" lon="-1.2419">
        <ele>10.954183</ele>
        <time>2022-07-30T13:58:26.000Z</time>
      </trkpt>
      <trkpt lat="49.62539" lon="-1.24183">
        <ele>10.909803</ele>
        <time>2022-07-30T13:58:27.000Z</time>
      </trkpt>
      <trkpt lat="49.62541" lon="-1.24177">
        <ele>10.862606</ele>
        <time>2022-07-30T13:58:28.000Z</time>
      </trkpt>
      <trkpt lat="49.62543" lon="-1.2417">
        <ele>10.816084</ele>
        <time>2022-07-30T13:58:29.000Z</time>
      </trkpt>
      <trkpt lat="49.62545" lon="-1.24164">
        <ele>10.770748</ele>
        <time>2022-07-30T13:58:30.000Z</time>
      </trkpt>
      <trkpt lat="49.62547" lon="-1.24157">
        <ele>10.72243</ele>
        <time>2022-07-30T13:58:31.000Z</time>
      </trkpt>
      <trkpt lat="49.62549" lon="-1.24151">
        <ele>10.675908</ele>
        <time>2022-07-30T13:58:32.000Z</time>
      </trkpt>
      <trkpt lat="49.6255" lon="-1.24144">
        <ele>10.631154</ele>
        <time>2022-07-30T13:58:33.000Z</time>
      </trkpt>
      <trkpt lat="49.62552" lon="-1.24138">
        <ele>10.584037</ele>
        <time>2022-07-30T13:58:34.000Z</time>
      </trkpt>
      <trkpt lat="49.62553" lon="-1.24131">
        <ele>10.535999</ele>
        <time>2022-07-30T13:58:35.000Z</time>
      </trkpt>
      <trkpt lat="49.62555" lon="-1.24124">
        <ele>10.490371</ele>
        <time>2022-07-30T13:58:36.000Z</time>
      </trkpt>
      <trkpt lat="49.62556" lon="-1.24117">
        <ele>10.44565</ele>
        <time>2022-07-30T13:58:37.000Z</time>
      </trkpt>
      <trkpt lat="49.62557" lon="-1.24111">
        <ele>10.402701</ele>
        <time>2022-07-30T13:58:38.000Z</time>
      </trkpt>
      <trkpt lat="49.62558" lon="-1.24105">
        <ele>10.359566</ele>
        <time>2022-07-30T13:58:39.000Z</time>
      </trkpt>
      <trkpt lat="49.62558" lon="-1.24098">
        <ele>10.317054</ele>
        <time>2022-07-30T13:58:40.000Z</time>
      </trkpt>
      <trkpt lat="49.62559" lon="-1.24091">
        <ele>10.273241</ele>
        <time>2022-07-30T13:58:41.000Z</time>
      </trkpt>
      <trkpt lat="49.62559" lon="-1.24084">
        <ele>10.250195</ele>
        <time>2022-07-30T13:58:42.000Z</time>
      </trkpt>
      <trkpt lat="49.62559" lon="-1.24077">
        <ele>10.227225</ele>
        <time>2022-07-30T13:58:43.000Z</time>
      </trkpt>
      <trkpt lat="49.62559" lon="-1.2407">
        <ele>10.203238</ele>
        <time>2022-07-30T13:58:44.000Z</time>
      </trkpt>
      <trkpt lat="49.62559" lon="-1.24063">
        <ele>10.17925</ele>
        <time>2022-07-30T13:58:45.000Z</time>
      </trkpt>
      <trkpt lat="49.62559" lon="-1.24055">
        <ele>10.15502</ele>
        <time>2022-07-30T13:58:46.000Z</time>
      </trkpt>
      <trkpt lat="49.62559" lon="-1.24048">
        <ele>10.130416</ele>
        <time>2022-07-30T13:58:47.000Z</time>
      </trkpt>
      <trkpt lat="49.62558" lon="-1.2404">
        <ele>10.105673</ele>
        <time>2022-07-30T13:58:48.000Z</time>
      </trkpt>
      <trkpt lat="49.62558" lon="-1.24033">
        <ele>10.080088</ele>
        <time>2022-07-30T13:58:49.000Z</time>
      </trkpt>
      <trkpt lat="49.62557" lon="-1.24025">
        <ele>10.054305</ele>
        <time>2022-07-30T13:58:50.000Z</time>
      </trkpt>
      <trkpt lat="49.62557" lon="-1.24017">
        <ele>10.028394</ele>
        <time>2022-07-30T13:58:51.000Z</time>
      </trkpt>
      <trkpt lat="49.62556" lon="-1.24009">
        <ele>10.002024</ele>
        <time>2022-07-30T13:58:52.000Z</time>
      </trkpt>
      <trkpt lat="49.62555" lon="-1.24001">
        <ele>9.97461</ele>
        <time>2022-07-30T13:58:53.000Z</time>
      </trkpt>
      <trkpt lat="49.62553" lon="-1.23993">
        <ele>9.94775</ele>
        <time>2022-07-30T13:58:54.000Z</time>
      </trkpt>
      <trkpt lat="49.62549" lon="-1.23986">
        <ele>9.918345</ele>
        <time>2022-07-30T13:58:55.000Z</time>
      </trkpt>
      <trkpt lat="49.62546" lon="-1.2398">
        <ele>9.892388</ele>
        <time>2022-07-30T13:58:56.000Z</time>
      </trkpt>
      <trkpt lat="49.62541" lon="-1.23974">
        <ele>9.862559</ele>
        <time>2022-07-30T13:58:57.000Z</time>
      </trkpt>
      <trkpt lat="49.62537" lon="-1.2397">
        <ele>9.837319</ele>
        <time>2022-07-30T13:58:58.000Z</time>
      </trkpt>
      <trkpt lat="49.62533" lon="-1.23966">
        <ele>9.811845</ele>
        <time>2022-07-30T13:58:59.000Z</time>
      </trkpt>
      <trkpt lat="49.62529" lon="-1.23962">
        <ele>9.787329</ele>
        <time>2022-07-30T13:59:00.000Z</time>
      </trkpt>
      <trkpt lat="49.62525" lon="-1.23959">
        <ele>9.763938</ele>
        <time>2022-07-30T13:59:01.000Z</time>
      </trkpt>
      <trkpt lat="49.62521" lon="-1.23956">
        <ele>9.743058</ele>
        <time>2022-07-30T13:59:02.000Z</time>
      </trkpt>
      <trkpt lat="49.62517" lon="-1.23953">
        <ele>9.722828</ele>
        <time>2022-07-30T13:59:03.000Z</time>
      </trkpt>
      <trkpt lat="49.62515" lon="-1.2395">
        <ele>9.7056</ele>
        <time>2022-07-30T13:59:04.000Z</time>
      </trkpt>
      <trkpt lat="49.62511" lon="-1.23948">
        <ele>9.687322</ele>
        <time>2022-07-30T13:59:05.000Z</time>
      </trkpt>
      <trkpt lat="49.62508" lon="-1.23946">
        <ele>9.669615</ele>
        <time>2022-07-30T13:59:06.000Z</time>
      </trkpt>
      <trkpt lat="49.62505" lon="-1.23944">
        <ele>9.653816</ele>
        <time>2022-07-30T13:59:07.000Z</time>
      </trkpt>
      <trkpt lat="49.62502" lon="-1.23942">
        <ele>9.638137</ele>
        <time>2022-07-30T13:59:08.000Z</time>
      </trkpt>
      <trkpt lat="49.625" lon="-1.2394">
        <ele>9.622457</ele>
        <time>2022-07-30T13:59:09.000Z</time>
      </trkpt>
      <trkpt lat="49.62497" lon="-1.23939">
        <ele>9.608777</ele>
        <time>2022-07-30T13:59:10.000Z</time>
      </trkpt>
      <trkpt lat="49.62494" lon="-1.23937">
        <ele>9.594237</ele>
        <time>2022-07-30T13:59:11.000Z</time>
      </trkpt>
      <trkpt lat="49.62491" lon="-1.23935">
        <ele>9.577235</ele>
        <time>2022-07-30T13:59:12.000Z</time>
      </trkpt>
      <trkpt lat="49.62488" lon="-1.23933">
        <ele>9.560902</ele>
        <time>2022-07-30T13:59:13.000Z</time>
      </trkpt>
      <trkpt lat="49.62485" lon="-1.23931">
        <ele>9.541801</ele>
        <time>2022-07-30T13:59:14.000Z</time>
      </trkpt>
      <trkpt lat="49.62481" lon="-1.23929">
        <ele>9.52282</ele>
        <time>2022-07-30T13:59:15.000Z</time>
      </trkpt>
      <trkpt lat="49.62478" lon="-1.23927">
        <ele>9.503719</ele>
        <time>2022-07-30T13:59:16.000Z</time>
      </trkpt>
      <trkpt lat="49.62475" lon="-1.23924">
        <ele>9.485877</ele>
        <time>2022-07-30T13:59:17.000Z</time>
      </trkpt>
      <trkpt lat="49.62471" lon="-1.23922">
        <ele>9.466056</ele>
        <time>2022-07-30T13:59:18.000Z</time>
      </trkpt>
      <trkpt lat="49.62468" lon="-1.2392">
        <ele>9.448214</ele>
        <time>2022-07-30T13:59:19.000Z</time>
      </trkpt>
      <trkpt lat="49.62465" lon="-1.23917">
        <ele>9.430372</ele>
        <time>2022-07-30T13:59:20.000Z</time>
      </trkpt>
      <trkpt lat="49.62461" lon="-1.23915">
        <ele>9.411507</ele>
        <time>2022-07-30T13:59:21.000Z</time>
      </trkpt>
      <trkpt lat="49.62458" lon="-1.23913">
        <ele>9.393524</ele>
        <time>2022-07-30T13:59:22.000Z</time>
      </trkpt>
      <trkpt lat="49.62455" lon="-1.2391">
        <ele>9.376235</ele>
        <time>2022-07-30T13:59:23.000Z</time>
      </trkpt>
      <trkpt lat="49.62452" lon="-1.23907">
        <ele>9.352465</ele>
        <time>2022-07-30T13:59:24.000Z</time>
      </trkpt>
      <trkpt lat="49.6245" lon="-1.23904">
        <ele>9.317517</ele>
        <time>2022-07-30T13:59:25.000Z</time>
      </trkpt>
      <trkpt lat="49.62447" lon="-1.23901">
        <ele>9.282569</ele>
        <time>2022-07-30T13:59:26.000Z</time>
      </trkpt>
      <trkpt lat="49.62444" lon="-1.23899">
        <ele>9.242367</ele>
        <time>2022-07-30T13:59:27.000Z</time>
      </trkpt>
      <trkpt lat="49.62441" lon="-1.23896">
        <ele>9.208731</ele>
        <time>2022-07-30T13:59:28.000Z</time>
      </trkpt>
      <trkpt lat="49.62438" lon="-1.23894">
        <ele>9.166796</ele>
        <time>2022-07-30T13:59:29.000Z</time>
      </trkpt>
      <trkpt lat="49.62435" lon="-1.23891">
        <ele>9.133028</ele>
        <time>2022-07-30T13:59:30.000Z</time>
      </trkpt>
      <trkpt lat="49.62432" lon="-1.23888">
        <ele>9.095694</ele>
        <time>2022-07-30T13:59:31.000Z</time>
      </trkpt>
      <trkpt lat="49.62429" lon="-1.23886">
        <ele>9.057986</ele>
        <time>2022-07-30T13:59:32.000Z</time>
      </trkpt>
      <trkpt lat="49.62426" lon="-1.23883">
        <ele>9.017436</ele>
        <time>2022-07-30T13:59:33.000Z</time>
      </trkpt>
      <trkpt lat="49.62423" lon="-1.2388">
        <ele>8.980264</ele>
        <time>2022-07-30T13:59:34.000Z</time>
      </trkpt>
      <trkpt lat="49.6242" lon="-1.23877">
        <ele>8.932228</ele>
        <time>2022-07-30T13:59:35.000Z</time>
      </trkpt>
      <trkpt lat="49.62416" lon="-1.23874">
        <ele>8.886406</ele>
        <time>2022-07-30T13:59:36.000Z</time>
      </trkpt>
      <trkpt lat="49.62412" lon="-1.23872">
        <ele>8.837512</ele>
        <time>2022-07-30T13:59:37.000Z</time>
      </trkpt>
      <trkpt lat="49.62408" lon="-1.2387">
        <ele>8.793253</ele>
        <time>2022-07-30T13:59:38.000Z</time>
      </trkpt>
      <trkpt lat="49.62403" lon="-1.23868">
        <ele>8.742006</ele>
        <time>2022-07-30T13:59:39.000Z</time>
      </trkpt>
      <trkpt lat="49.62398" lon="-1.23867">
        <ele>8.685134</ele>
        <time>2022-07-30T13:59:40.000Z</time>
      </trkpt>
      <trkpt lat="49.62393" lon="-1.23867">
        <ele>8.632098</ele>
        <time>2022-07-30T13:59:41.000Z</time>
      </trkpt>
      <trkpt lat="49.62389" lon="-1.23867">
        <ele>8.585747</ele>
        <time>2022-07-30T13:59:42.000Z</time>
      </trkpt>
      <trkpt lat="49.62384" lon="-1.23868">
        <ele>8.532142</ele>
        <time>2022-07-30T13:59:43.000Z</time>
      </trkpt>
      <trkpt lat="49.6238" lon="-1.2387">
        <ele>8.481391</ele>
        <time>2022-07-30T13:59:44.000Z</time>
      </trkpt>
      <trkpt lat="49.62375" lon="-1.23871">
        <ele>8.431716</ele>
        <time>2022-07-30T13:59:45.000Z</time>
      </trkpt>
      <trkpt lat="49.62371" lon="-1.23873">
        <ele>8.376907</ele>
        <time>2022-07-30T13:59:46.000Z</time>
      </trkpt>
      <trkpt lat="49.62366" lon="-1.23876">
        <ele>8.324183</ele>
        <time>2022-07-30T13:59:47.000Z</time>
      </trkpt>
      <trkpt lat="49.62362" lon="-1.23878">
        <ele>8.270697</ele>
        <time>2022-07-30T13:59:48.000Z</time>
      </trkpt>
      <trkpt lat="49.62357" lon="-1.23881">
        <ele>8.220541</ele>
        <time>2022-07-30T13:59:49.000Z</time>
      </trkpt>
      <trkpt lat="49.62348" lon="-1.23886">
        <ele>8.105026</ele>
        <time>2022-07-30T13:59:51.000Z</time>
      </trkpt>
      <trkpt lat="49.62342" lon="-1.23889">
        <ele>8.046249</ele>
        <time>2022-07-30T13:59:52.000Z</time>
      </trkpt>
      <trkpt lat="49.62338" lon="-1.23891">
        <ele>7.991249</ele>
        <time>2022-07-30T13:59:53.000Z</time>
      </trkpt>
      <trkpt lat="49.62333" lon="-1.23893">
        <ele>7.933412</ele>
        <time>2022-07-30T13:59:54.000Z</time>
      </trkpt>
      <trkpt lat="49.62324" lon="-1.23898">
        <ele>7.827221</ele>
        <time>2022-07-30T13:59:56.000Z</time>
      </trkpt>
      <trkpt lat="49.62319" lon="-1.23901">
        <ele>7.773734</ele>
        <time>2022-07-30T13:59:57.000Z</time>
      </trkpt>
      <trkpt lat="49.62315" lon="-1.23904">
        <ele>7.723714</ele>
        <time>2022-07-30T13:59:58.000Z</time>
      </trkpt>
      <trkpt lat="49.6231" lon="-1.23907">
        <ele>7.669957</ele>
        <time>2022-07-30T13:59:59.000Z</time>
      </trkpt>
      <trkpt lat="49.62306" lon="-1.2391">
        <ele>7.615919</ele>
        <time>2022-07-30T14:00:00.000Z</time>
      </trkpt>
      <trkpt lat="49.62302" lon="-1.23913">
        <ele>7.56427</ele>
        <time>2022-07-30T14:00:01.000Z</time>
      </trkpt>
      <trkpt lat="49.62298" lon="-1.23917">
        <ele>7.514538</ele>
        <time>2022-07-30T14:00:02.000Z</time>
      </trkpt>
      <trkpt lat="49.62294" lon="-1.2392">
        <ele>7.465756</ele>
        <time>2022-07-30T14:00:03.000Z</time>
      </trkpt>
      <trkpt lat="49.62291" lon="-1.23924">
        <ele>7.419783</ele>
        <time>2022-07-30T14:00:04.000Z</time>
      </trkpt>
      <trkpt lat="49.62283" lon="-1.2393">
        <ele>7.357906</ele>
        <time>2022-07-30T14:00:06.000Z</time>
      </trkpt>
      <trkpt lat="49.6228" lon="-1.23932">
        <ele>7.341379</ele>
        <time>2022-07-30T14:00:07.000Z</time>
      </trkpt>
      <trkpt lat="49.62277" lon="-1.23934">
        <ele>7.324008</ele>
        <time>2022-07-30T14:00:08.000Z</time>
      </trkpt>
      <trkpt lat="49.62273" lon="-1.23936">
        <ele>7.306917</ele>
        <time>2022-07-30T14:00:09.000Z</time>
      </trkpt>
      <trkpt lat="49.6227" lon="-1.23937">
        <ele>7.292859</ele>
        <time>2022-07-30T14:00:10.000Z</time>
      </trkpt>
      <trkpt lat="49.62266" lon="-1.23939">
        <ele>7.274041</ele>
        <time>2022-07-30T14:00:11.000Z</time>
      </trkpt>
      <trkpt lat="49.6226" lon="-1.23941">
        <ele>7.241541</ele>
        <time>2022-07-30T14:00:13.000Z</time>
      </trkpt>
      <trkpt lat="49.62256" lon="-1.23943">
        <ele>7.225696</ele>
        <time>2022-07-30T14:00:14.000Z</time>
      </trkpt>
      <trkpt lat="49.62253" lon="-1.23945">
        <ele>7.208423</ele>
        <time>2022-07-30T14:00:15.000Z</time>
      </trkpt>
      <trkpt lat="49.6225" lon="-1.23947">
        <ele>7.19237</ele>
        <time>2022-07-30T14:00:16.000Z</time>
      </trkpt>
      <trkpt lat="49.62247" lon="-1.23948">
        <ele>7.17805</ele>
        <time>2022-07-30T14:00:17.000Z</time>
      </trkpt>
      <trkpt lat="49.62241" lon="-1.2395">
        <ele>7.150924</ele>
        <time>2022-07-30T14:00:19.000Z</time>
      </trkpt>
      <trkpt lat="49.62239" lon="-1.2395">
        <ele>7.140138</ele>
        <time>2022-07-30T14:00:20.000Z</time>
      </trkpt>
      <trkpt lat="49.62236" lon="-1.2395">
        <ele>7.128417</ele>
        <time>2022-07-30T14:00:22.000Z</time>
      </trkpt>
      <trkpt lat="49.62232" lon="-1.23937">
        <ele>7.084412</ele>
        <time>2022-07-30T14:00:48.000Z</time>
      </trkpt>
      <trkpt lat="49.62229" lon="-1.23927">
        <ele>7.050625</ele>
        <time>2022-07-30T14:00:50.000Z</time>
      </trkpt>
      <trkpt lat="49.62227" lon="-1.23916">
        <ele>7.015706</ele>
        <time>2022-07-30T14:00:52.000Z</time>
      </trkpt>
      <trkpt lat="49.62226" lon="-1.2391">
        <ele>6.996025</ele>
        <time>2022-07-30T14:00:53.000Z</time>
      </trkpt>
      <trkpt lat="49.62224" lon="-1.23904">
        <ele>6.97597</ele>
        <time>2022-07-30T14:00:54.000Z</time>
      </trkpt>
      <trkpt lat="49.62223" lon="-1.23898">
        <ele>6.957683</ele>
        <time>2022-07-30T14:00:55.000Z</time>
      </trkpt>
      <trkpt lat="49.62221" lon="-1.23893">
        <ele>6.939947</ele>
        <time>2022-07-30T14:00:56.000Z</time>
      </trkpt>
      <trkpt lat="49.62219" lon="-1.23887">
        <ele>6.921308</ele>
        <time>2022-07-30T14:00:57.000Z</time>
      </trkpt>
      <trkpt lat="49.62218" lon="-1.23882">
        <ele>6.90412</ele>
        <time>2022-07-30T14:00:58.000Z</time>
      </trkpt>
      <trkpt lat="49.62216" lon="-1.23877">
        <ele>6.887778</ele>
        <time>2022-07-30T14:00:59.000Z</time>
      </trkpt>
      <trkpt lat="49.62214" lon="-1.23872">
        <ele>6.870456</ele>
        <time>2022-07-30T14:01:00.000Z</time>
      </trkpt>
      <trkpt lat="49.62213" lon="-1.23868">
        <ele>6.853394</ele>
        <time>2022-07-30T14:01:01.000Z</time>
      </trkpt>
      <trkpt lat="49.62211" lon="-1.23863">
        <ele>6.83729</ele>
        <time>2022-07-30T14:01:02.000Z</time>
      </trkpt>
      <trkpt lat="49.62209" lon="-1.23858">
        <ele>6.819181</ele>
        <time>2022-07-30T14:01:03.000Z</time>
      </trkpt>
      <trkpt lat="49.62207" lon="-1.23853">
        <ele>6.802377</ele>
        <time>2022-07-30T14:01:04.000Z</time>
      </trkpt>
      <trkpt lat="49.62205" lon="-1.23848">
        <ele>6.784794</ele>
        <time>2022-07-30T14:01:05.000Z</time>
      </trkpt>
      <trkpt lat="49.62203" lon="-1.23843">
        <ele>6.766461</ele>
        <time>2022-07-30T14:01:06.000Z</time>
      </trkpt>
      <trkpt lat="49.622" lon="-1.23838">
        <ele>6.747111</ele>
        <time>2022-07-30T14:01:07.000Z</time>
      </trkpt>
      <trkpt lat="49.62198" lon="-1.23832">
        <ele>6.727667</ele>
        <time>2022-07-30T14:01:08.000Z</time>
      </trkpt>
      <trkpt lat="49.62197" lon="-1.23826">
        <ele>6.70741</ele>
        <time>2022-07-30T14:01:09.000Z</time>
      </trkpt>
      <trkpt lat="49.62195" lon="-1.2382">
        <ele>6.687153</ele>
        <time>2022-07-30T14:01:10.000Z</time>
      </trkpt>
      <trkpt lat="49.62192" lon="-1.23815">
        <ele>6.665759</ele>
        <time>2022-07-30T14:01:11.000Z</time>
      </trkpt>
      <trkpt lat="49.6219" lon="-1.23808">
        <ele>6.645234</ele>
        <time>2022-07-30T14:01:12.000Z</time>
      </trkpt>
      <trkpt lat="49.62189" lon="-1.23802">
        <ele>6.623604</ele>
        <time>2022-07-30T14:01:13.000Z</time>
      </trkpt>
      <trkpt lat="49.62187" lon="-1.23795">
        <ele>6.60142</ele>
        <time>2022-07-30T14:01:14.000Z</time>
      </trkpt>
      <trkpt lat="49.62185" lon="-1.23788">
        <ele>6.578214</ele>
        <time>2022-07-30T14:01:15.000Z</time>
      </trkpt>
      <trkpt lat="49.62183" lon="-1.23781">
        <ele>6.55627</ele>
        <time>2022-07-30T14:01:16.000Z</time>
      </trkpt>
      <trkpt lat="49.62181" lon="-1.23774">
        <ele>6.541129</ele>
        <time>2022-07-30T14:01:17.000Z</time>
      </trkpt>
      <trkpt lat="49.62179" lon="-1.23767">
        <ele>6.548241</ele>
        <time>2022-07-30T14:01:18.000Z</time>
      </trkpt>
      <trkpt lat="49.62177" lon="-1.2376">
        <ele>6.555334</ele>
        <time>2022-07-30T14:01:19.000Z</time>
      </trkpt>
      <trkpt lat="49.62175" lon="-1.23753">
        <ele>6.562424</ele>
        <time>2022-07-30T14:01:20.000Z</time>
      </trkpt>
      <trkpt lat="49.62173" lon="-1.23747">
        <ele>6.569278</ele>
        <time>2022-07-30T14:01:21.000Z</time>
      </trkpt>
      <trkpt lat="49.62171" lon="-1.23741">
        <ele>6.576049</ele>
        <time>2022-07-30T14:01:22.000Z</time>
      </trkpt>
      <trkpt lat="49.62169" lon="-1.23735">
        <ele>6.582433</ele>
        <time>2022-07-30T14:01:23.000Z</time>
      </trkpt>
      <trkpt lat="49.62166" lon="-1.23729">
        <ele>6.589182</ele>
        <time>2022-07-30T14:01:24.000Z</time>
      </trkpt>
      <trkpt lat="49.62164" lon="-1.23723">
        <ele>6.595615</ele>
        <time>2022-07-30T14:01:25.000Z</time>
      </trkpt>
      <trkpt lat="49.62162" lon="-1.23717">
        <ele>6.601892</ele>
        <time>2022-07-30T14:01:26.000Z</time>
      </trkpt>
      <trkpt lat="49.62159" lon="-1.23711">
        <ele>6.608487</ele>
        <time>2022-07-30T14:01:27.000Z</time>
      </trkpt>
      <trkpt lat="49.62157" lon="-1.23706">
        <ele>6.614206</ele>
        <time>2022-07-30T14:01:28.000Z</time>
      </trkpt>
      <trkpt lat="49.62154" lon="-1.23702">
        <ele>6.620278</ele>
        <time>2022-07-30T14:01:29.000Z</time>
      </trkpt>
      <trkpt lat="49.62151" lon="-1.23697">
        <ele>6.626557</ele>
        <time>2022-07-30T14:01:30.000Z</time>
      </trkpt>
      <trkpt lat="49.62148" lon="-1.23692">
        <ele>6.633206</ele>
        <time>2022-07-30T14:01:31.000Z</time>
      </trkpt>
      <trkpt lat="49.62145" lon="-1.23687">
        <ele>6.639317</ele>
        <time>2022-07-30T14:01:32.000Z</time>
      </trkpt>
      <trkpt lat="49.62142" lon="-1.23683">
        <ele>6.645639</ele>
        <time>2022-07-30T14:01:33.000Z</time>
      </trkpt>
      <trkpt lat="49.62138" lon="-1.23678">
        <ele>6.652403</ele>
        <time>2022-07-30T14:01:34.000Z</time>
      </trkpt>
      <trkpt lat="49.62135" lon="-1.23674">
        <ele>6.658599</ele>
        <time>2022-07-30T14:01:35.000Z</time>
      </trkpt>
      <trkpt lat="49.62132" lon="-1.23669">
        <ele>6.665191</ele>
        <time>2022-07-30T14:01:36.000Z</time>
      </trkpt>
      <trkpt lat="49.62128" lon="-1.23665">
        <ele>6.671904</ele>
        <time>2022-07-30T14:01:37.000Z</time>
      </trkpt>
      <trkpt lat="49.62125" lon="-1.2366">
        <ele>6.678183</ele>
        <time>2022-07-30T14:01:38.000Z</time>
      </trkpt>
      <trkpt lat="49.62122" lon="-1.23655">
        <ele>6.684832</ele>
        <time>2022-07-30T14:01:39.000Z</time>
      </trkpt>
      <trkpt lat="49.62119" lon="-1.2365">
        <ele>6.691396</ele>
        <time>2022-07-30T14:01:40.000Z</time>
      </trkpt>
      <trkpt lat="49.62116" lon="-1.23644">
        <ele>6.697866</ele>
        <time>2022-07-30T14:01:41.000Z</time>
      </trkpt>
      <trkpt lat="49.62113" lon="-1.23639">
        <ele>6.704575</ele>
        <time>2022-07-30T14:01:42.000Z</time>
      </trkpt>
      <trkpt lat="49.62111" lon="-1.23633">
        <ele>6.710928</ele>
        <time>2022-07-30T14:01:43.000Z</time>
      </trkpt>
      <trkpt lat="49.62109" lon="-1.23627">
        <ele>6.717837</ele>
        <time>2022-07-30T14:01:44.000Z</time>
      </trkpt>
      <trkpt lat="49.62107" lon="-1.23621">
        <ele>6.72424</ele>
        <time>2022-07-30T14:01:45.000Z</time>
      </trkpt>
      <trkpt lat="49.62105" lon="-1.23614">
        <ele>6.730962</ele>
        <time>2022-07-30T14:01:46.000Z</time>
      </trkpt>
      <trkpt lat="49.62103" lon="-1.23608">
        <ele>6.737357</ele>
        <time>2022-07-30T14:01:47.000Z</time>
      </trkpt>
      <trkpt lat="49.62102" lon="-1.23601">
        <ele>6.743935</ele>
        <time>2022-07-30T14:01:48.000Z</time>
      </trkpt>
      <trkpt lat="49.621" lon="-1.23595">
        <ele>6.750513</ele>
        <time>2022-07-30T14:01:49.000Z</time>
      </trkpt>
      <trkpt lat="49.62099" lon="-1.23588">
        <ele>6.757358</ele>
        <time>2022-07-30T14:01:50.000Z</time>
      </trkpt>
      <trkpt lat="49.62098" lon="-1.23581">
        <ele>6.76414</ele>
        <time>2022-07-30T14:01:51.000Z</time>
      </trkpt>
      <trkpt lat="49.62096" lon="-1.23574">
        <ele>6.771162</ele>
        <time>2022-07-30T14:01:52.000Z</time>
      </trkpt>
      <trkpt lat="49.62094" lon="-1.23567">
        <ele>6.778185</ele>
        <time>2022-07-30T14:01:53.000Z</time>
      </trkpt>
      <trkpt lat="49.62093" lon="-1.2356">
        <ele>6.784782</ele>
        <time>2022-07-30T14:01:54.000Z</time>
      </trkpt>
      <trkpt lat="49.62092" lon="-1.23553">
        <ele>6.791804</ele>
        <time>2022-07-30T14:01:55.000Z</time>
      </trkpt>
      <trkpt lat="49.62091" lon="-1.23546">
        <ele>6.798484</ele>
        <time>2022-07-30T14:01:56.000Z</time>
      </trkpt>
      <trkpt lat="49.6209" lon="-1.23539">
        <ele>6.825154</ele>
        <time>2022-07-30T14:01:57.000Z</time>
      </trkpt>
      <trkpt lat="49.6209" lon="-1.23532">
        <ele>6.867035</ele>
        <time>2022-07-30T14:01:58.000Z</time>
      </trkpt>
      <trkpt lat="49.62089" lon="-1.23525">
        <ele>6.908597</ele>
        <time>2022-07-30T14:01:59.000Z</time>
      </trkpt>
      <trkpt lat="49.62089" lon="-1.23519">
        <ele>6.949192</ele>
        <time>2022-07-30T14:02:00.000Z</time>
      </trkpt>
      <trkpt lat="49.62089" lon="-1.23512">
        <ele>6.991476</ele>
        <time>2022-07-30T14:02:01.000Z</time>
      </trkpt>
      <trkpt lat="49.62089" lon="-1.23505">
        <ele>7.030813</ele>
        <time>2022-07-30T14:02:02.000Z</time>
      </trkpt>
      <trkpt lat="49.6209" lon="-1.23499">
        <ele>7.069716</ele>
        <time>2022-07-30T14:02:03.000Z</time>
      </trkpt>
      <trkpt lat="49.6209" lon="-1.23492">
        <ele>7.10714</ele>
        <time>2022-07-30T14:02:04.000Z</time>
      </trkpt>
      <trkpt lat="49.62091" lon="-1.23486">
        <ele>7.144704</ele>
        <time>2022-07-30T14:02:05.000Z</time>
      </trkpt>
      <trkpt lat="49.62091" lon="-1.2348">
        <ele>7.179927</ele>
        <time>2022-07-30T14:02:06.000Z</time>
      </trkpt>
      <trkpt lat="49.6209" lon="-1.23476">
        <ele>7.210028</ele>
        <time>2022-07-30T14:02:07.000Z</time>
      </trkpt>
      <trkpt lat="49.62089" lon="-1.23472">
        <ele>7.236585</ele>
        <time>2022-07-30T14:02:08.000Z</time>
      </trkpt>
      <trkpt lat="49.62086" lon="-1.23469">
        <ele>7.26176</ele>
        <time>2022-07-30T14:02:10.000Z</time>
      </trkpt>
      <trkpt lat="49.6208" lon="-1.23472">
        <ele>7.319919</ele>
        <time>2022-07-30T14:02:57.000Z</time>
      </trkpt>
      <trkpt lat="49.62077" lon="-1.23472">
        <ele>7.34667</ele>
        <time>2022-07-30T14:02:58.000Z</time>
      </trkpt>
      <trkpt lat="49.62074" lon="-1.23472">
        <ele>7.378972</ele>
        <time>2022-07-30T14:02:59.000Z</time>
      </trkpt>
      <trkpt lat="49.62071" lon="-1.23472">
        <ele>7.408466</ele>
        <time>2022-07-30T14:03:00.000Z</time>
      </trkpt>
      <trkpt lat="49.62067" lon="-1.23472">
        <ele>7.443565</ele>
        <time>2022-07-30T14:03:01.000Z</time>
      </trkpt>
      <trkpt lat="49.62064" lon="-1.23471">
        <ele>7.473204</ele>
        <time>2022-07-30T14:03:02.000Z</time>
      </trkpt>
      <trkpt lat="49.6206" lon="-1.23471">
        <ele>7.505506</ele>
        <time>2022-07-30T14:03:03.000Z</time>
      </trkpt>
      <trkpt lat="49.62057" lon="-1.23471">
        <ele>7.535019</ele>
        <time>2022-07-30T14:03:04.000Z</time>
      </trkpt>
      <trkpt lat="49.62054" lon="-1.23471">
        <ele>7.559097</ele>
        <time>2022-07-30T14:03:05.000Z</time>
      </trkpt>
      <trkpt lat="49.62052" lon="-1.23471">
        <ele>7.583123</ele>
        <time>2022-07-30T14:03:06.000Z</time>
      </trkpt>
      <trkpt lat="49.62049" lon="-1.2347">
        <ele>7.608952</ele>
        <time>2022-07-30T14:03:07.000Z</time>
      </trkpt>
      <trkpt lat="49.62046" lon="-1.2347">
        <ele>7.632979</ele>
        <time>2022-07-30T14:03:08.000Z</time>
      </trkpt>
      <trkpt lat="49.62044" lon="-1.2347">
        <ele>7.656967</ele>
        <time>2022-07-30T14:03:09.000Z</time>
      </trkpt>
      <trkpt lat="49.62041" lon="-1.2347">
        <ele>7.68651</ele>
        <time>2022-07-30T14:03:10.000Z</time>
      </trkpt>
      <trkpt lat="49.62038" lon="-1.23469">
        <ele>7.709617</ele>
        <time>2022-07-30T14:03:11.000Z</time>
      </trkpt>
      <trkpt lat="49.62036" lon="-1.23469">
        <ele>7.730846</ele>
        <time>2022-07-30T14:03:12.000Z</time>
      </trkpt>
      <trkpt lat="49.62034" lon="-1.23468">
        <ele>7.751674</ele>
        <time>2022-07-30T14:03:13.000Z</time>
      </trkpt>
      <trkpt lat="49.62031" lon="-1.23468">
        <ele>7.778504</ele>
        <time>2022-07-30T14:03:14.000Z</time>
      </trkpt>
      <trkpt lat="49.62029" lon="-1.23468">
        <ele>7.798856</ele>
        <time>2022-07-30T14:03:15.000Z</time>
      </trkpt>
      <trkpt lat="49.62026" lon="-1.23467">
        <ele>7.820126</ele>
        <time>2022-07-30T14:03:16.000Z</time>
      </trkpt>
      <trkpt lat="49.62024" lon="-1.23467">
        <ele>7.84054</ele>
        <time>2022-07-30T14:03:17.000Z</time>
      </trkpt>
      <trkpt lat="49.62022" lon="-1.23467">
        <ele>7.858058</ele>
        <time>2022-07-30T14:03:18.000Z</time>
      </trkpt>
      <trkpt lat="49.6202" lon="-1.23466">
        <ele>7.875729</ele>
        <time>2022-07-30T14:03:19.000Z</time>
      </trkpt>
      <trkpt lat="49.62018" lon="-1.23466">
        <ele>7.894169</ele>
        <time>2022-07-30T14:03:20.000Z</time>
      </trkpt>
      <trkpt lat="49.62016" lon="-1.23466">
        <ele>7.917399</ele>
        <time>2022-07-30T14:03:22.000Z</time>
      </trkpt>
      <trkpt lat="49.62011" lon="-1.23473">
        <ele>7.976697</ele>
        <time>2022-07-30T14:05:33.000Z</time>
      </trkpt>
      <trkpt lat="49.6201" lon="-1.23477">
        <ele>8.003414</ele>
        <time>2022-07-30T14:05:34.000Z</time>
      </trkpt>
      <trkpt lat="49.62008" lon="-1.23481">
        <ele>8.031479</ele>
        <time>2022-07-30T14:05:35.000Z</time>
      </trkpt>
      <trkpt lat="49.62007" lon="-1.23486">
        <ele>8.063176</ele>
        <time>2022-07-30T14:05:36.000Z</time>
      </trkpt>
      <trkpt lat="49.62005" lon="-1.2349">
        <ele>8.096249</ele>
        <time>2022-07-30T14:05:37.000Z</time>
      </trkpt>
      <trkpt lat="49.62003" lon="-1.23495">
        <ele>8.129831</ele>
        <time>2022-07-30T14:05:38.000Z</time>
      </trkpt>
      <trkpt lat="49.62001" lon="-1.235">
        <ele>8.165473</ele>
        <time>2022-07-30T14:05:39.000Z</time>
      </trkpt>
      <trkpt lat="49.61999" lon="-1.23505">
        <ele>8.200079</ele>
        <time>2022-07-30T14:05:40.000Z</time>
      </trkpt>
      <trkpt lat="49.61997" lon="-1.2351">
        <ele>8.234685</ele>
        <time>2022-07-30T14:05:41.000Z</time>
      </trkpt>
      <trkpt lat="49.61995" lon="-1.23515">
        <ele>8.270135</ele>
        <time>2022-07-30T14:05:42.000Z</time>
      </trkpt>
      <trkpt lat="49.61993" lon="-1.23521">
        <ele>8.307347</ele>
        <time>2022-07-30T14:05:43.000Z</time>
      </trkpt>
      <trkpt lat="49.61991" lon="-1.23526">
        <ele>8.344558</ele>
        <time>2022-07-30T14:05:44.000Z</time>
      </trkpt>
      <trkpt lat="49.6199" lon="-1.23532">
        <ele>8.380072</ele>
        <time>2022-07-30T14:05:45.000Z</time>
      </trkpt>
      <trkpt lat="49.61989" lon="-1.23537">
        <ele>8.415522</ele>
        <time>2022-07-30T14:05:46.000Z</time>
      </trkpt>
      <trkpt lat="49.61987" lon="-1.23543">
        <ele>8.451684</ele>
        <time>2022-07-30T14:05:47.000Z</time>
      </trkpt>
      <trkpt lat="49.61985" lon="-1.23548">
        <ele>8.489518</ele>
        <time>2022-07-30T14:05:48.000Z</time>
      </trkpt>
      <trkpt lat="49.61983" lon="-1.23553">
        <ele>8.529667</ele>
        <time>2022-07-30T14:05:49.000Z</time>
      </trkpt>
      <trkpt lat="49.61981" lon="-1.23558">
        <ele>8.569873</ele>
        <time>2022-07-30T14:05:50.000Z</time>
      </trkpt>
      <trkpt lat="49.6198" lon="-1.23563">
        <ele>8.609251</ele>
        <time>2022-07-30T14:05:51.000Z</time>
      </trkpt>
      <trkpt lat="49.61978" lon="-1.23569">
        <ele>8.646788</ele>
        <time>2022-07-30T14:05:52.000Z</time>
      </trkpt>
      <trkpt lat="49.61977" lon="-1.23574">
        <ele>8.685557</ele>
        <time>2022-07-30T14:05:53.000Z</time>
      </trkpt>
      <trkpt lat="49.61975" lon="-1.23579">
        <ele>8.722098</ele>
        <time>2022-07-30T14:05:54.000Z</time>
      </trkpt>
      <trkpt lat="49.61974" lon="-1.23584">
        <ele>8.759635</ele>
        <time>2022-07-30T14:05:55.000Z</time>
      </trkpt>
      <trkpt lat="49.61973" lon="-1.2359">
        <ele>8.800238</ele>
        <time>2022-07-30T14:05:56.000Z</time>
      </trkpt>
      <trkpt lat="49.61971" lon="-1.23595">
        <ele>8.842215</ele>
        <time>2022-07-30T14:05:57.000Z</time>
      </trkpt>
      <trkpt lat="49.61969" lon="-1.23601">
        <ele>8.884051</ele>
        <time>2022-07-30T14:05:58.000Z</time>
      </trkpt>
      <trkpt lat="49.61967" lon="-1.23606">
        <ele>8.925269</ele>
        <time>2022-07-30T14:05:59.000Z</time>
      </trkpt>
      <trkpt lat="49.61966" lon="-1.23612">
        <ele>8.965966</ele>
        <time>2022-07-30T14:06:00.000Z</time>
      </trkpt>
      <trkpt lat="49.61965" lon="-1.23617">
        <ele>9.004132</ele>
        <time>2022-07-30T14:06:01.000Z</time>
      </trkpt>
      <trkpt lat="49.61963" lon="-1.23623">
        <ele>9.044122</ele>
        <time>2022-07-30T14:06:02.000Z</time>
      </trkpt>
      <trkpt lat="49.61962" lon="-1.23628">
        <ele>9.082283</ele>
        <time>2022-07-30T14:06:03.000Z</time>
      </trkpt>
      <trkpt lat="49.61961" lon="-1.23633">
        <ele>9.116529</ele>
        <time>2022-07-30T14:06:04.000Z</time>
      </trkpt>
      <trkpt lat="49.61959" lon="-1.23639">
        <ele>9.158365</ele>
        <time>2022-07-30T14:06:05.000Z</time>
      </trkpt>
      <trkpt lat="49.61958" lon="-1.23644">
        <ele>9.196836</ele>
        <time>2022-07-30T14:06:06.000Z</time>
      </trkpt>
      <trkpt lat="49.61957" lon="-1.2365">
        <ele>9.236265</ele>
        <time>2022-07-30T14:06:07.000Z</time>
      </trkpt>
      <trkpt lat="49.61956" lon="-1.23655">
        <ele>9.276868</ele>
        <time>2022-07-30T14:06:08.000Z</time>
      </trkpt>
      <trkpt lat="49.61955" lon="-1.23661">
        <ele>9.316379</ele>
        <time>2022-07-30T14:06:09.000Z</time>
      </trkpt>
      <trkpt lat="49.61953" lon="-1.23667">
        <ele>9.357712</ele>
        <time>2022-07-30T14:06:10.000Z</time>
      </trkpt>
      <trkpt lat="49.61953" lon="-1.23672">
        <ele>9.397445</ele>
        <time>2022-07-30T14:06:11.000Z</time>
      </trkpt>
      <trkpt lat="49.61952" lon="-1.23678">
        <ele>9.438921</ele>
        <time>2022-07-30T14:06:12.000Z</time>
      </trkpt>
      <trkpt lat="49.61951" lon="-1.23684">
        <ele>9.479316</ele>
        <time>2022-07-30T14:06:13.000Z</time>
      </trkpt>
      <trkpt lat="49.6195" lon="-1.2369">
        <ele>9.520203</ele>
        <time>2022-07-30T14:06:14.000Z</time>
      </trkpt>
      <trkpt lat="49.61949" lon="-1.23696">
        <ele>9.561535</ele>
        <time>2022-07-30T14:06:15.000Z</time>
      </trkpt>
      <trkpt lat="49.61948" lon="-1.23702">
        <ele>9.599739</ele>
        <time>2022-07-30T14:06:16.000Z</time>
      </trkpt>
      <trkpt lat="49.61947" lon="-1.23707">
        <ele>9.640436</ele>
        <time>2022-07-30T14:06:17.000Z</time>
      </trkpt>
      <trkpt lat="49.61946" lon="-1.23713">
        <ele>9.678184</ele>
        <time>2022-07-30T14:06:18.000Z</time>
      </trkpt>
      <trkpt lat="49.61945" lon="-1.23718">
        <ele>9.716388</ele>
        <time>2022-07-30T14:06:19.000Z</time>
      </trkpt>
      <trkpt lat="49.61945" lon="-1.23723">
        <ele>9.751497</ele>
        <time>2022-07-30T14:06:20.000Z</time>
      </trkpt>
      <trkpt lat="49.61944" lon="-1.23729">
        <ele>9.789048</ele>
        <time>2022-07-30T14:06:21.000Z</time>
      </trkpt>
      <trkpt lat="49.61943" lon="-1.23734">
        <ele>9.824289</ele>
        <time>2022-07-30T14:06:22.000Z</time>
      </trkpt>
      <trkpt lat="49.61941" lon="-1.23738">
        <ele>9.858088</ele>
        <time>2022-07-30T14:06:23.000Z</time>
      </trkpt>
      <trkpt lat="49.61941" lon="-1.23743">
        <ele>9.891672</ele>
        <time>2022-07-30T14:06:24.000Z</time>
      </trkpt>
      <trkpt lat="49.6194" lon="-1.23748">
        <ele>9.926709</ele>
        <time>2022-07-30T14:06:25.000Z</time>
      </trkpt>
      <trkpt lat="49.61938" lon="-1.23753">
        <ele>9.959892</ele>
        <time>2022-07-30T14:06:26.000Z</time>
      </trkpt>
      <trkpt lat="49.61937" lon="-1.23757">
        <ele>9.991423</ele>
        <time>2022-07-30T14:06:27.000Z</time>
      </trkpt>
      <trkpt lat="49.61936" lon="-1.23761">
        <ele>10.021561</ele>
        <time>2022-07-30T14:06:28.000Z</time>
      </trkpt>
      <trkpt lat="49.61935" lon="-1.23765">
        <ele>10.048561</ele>
        <time>2022-07-30T14:06:29.000Z</time>
      </trkpt>
      <trkpt lat="49.61933" lon="-1.23768">
        <ele>10.079082</ele>
        <time>2022-07-30T14:06:30.000Z</time>
      </trkpt>
      <trkpt lat="49.61932" lon="-1.23772">
        <ele>10.10452</ele>
        <time>2022-07-30T14:06:31.000Z</time>
      </trkpt>
      <trkpt lat="49.61931" lon="-1.23775">
        <ele>10.128633</ele>
        <time>2022-07-30T14:06:32.000Z</time>
      </trkpt>
      <trkpt lat="49.61929" lon="-1.23778">
        <ele>10.159385</ele>
        <time>2022-07-30T14:06:33.000Z</time>
      </trkpt>
      <trkpt lat="49.61927" lon="-1.23782">
        <ele>10.193919</ele>
        <time>2022-07-30T14:06:34.000Z</time>
      </trkpt>
      <trkpt lat="49.61925" lon="-1.23786">
        <ele>10.22444</ele>
        <time>2022-07-30T14:06:35.000Z</time>
      </trkpt>
      <trkpt lat="49.61923" lon="-1.2379">
        <ele>10.256237</ele>
        <time>2022-07-30T14:06:36.000Z</time>
      </trkpt>
      <trkpt lat="49.61921" lon="-1.23793">
        <ele>10.288564</ele>
        <time>2022-07-30T14:06:37.000Z</time>
      </trkpt>
      <trkpt lat="49.6192" lon="-1.23797">
        <ele>10.319652</ele>
        <time>2022-07-30T14:06:38.000Z</time>
      </trkpt>
      <trkpt lat="49.61918" lon="-1.23801">
        <ele>10.366526</ele>
        <time>2022-07-30T14:06:39.000Z</time>
      </trkpt>
      <trkpt lat="49.61917" lon="-1.23805">
        <ele>10.40964</ele>
        <time>2022-07-30T14:06:40.000Z</time>
      </trkpt>
      <trkpt lat="49.61915" lon="-1.23809">
        <ele>10.456174</ele>
        <time>2022-07-30T14:06:41.000Z</time>
      </trkpt>
      <trkpt lat="49.61914" lon="-1.23812">
        <ele>10.501126</ele>
        <time>2022-07-30T14:06:42.000Z</time>
      </trkpt>
      <trkpt lat="49.61913" lon="-1.23816">
        <ele>10.543063</ele>
        <time>2022-07-30T14:06:43.000Z</time>
      </trkpt>
      <trkpt lat="49.61911" lon="-1.2382">
        <ele>10.584486</ele>
        <time>2022-07-30T14:06:44.000Z</time>
      </trkpt>
      <trkpt lat="49.6191" lon="-1.23823">
        <ele>10.624501</ele>
        <time>2022-07-30T14:06:45.000Z</time>
      </trkpt>
      <trkpt lat="49.61909" lon="-1.23827">
        <ele>10.668531</ele>
        <time>2022-07-30T14:06:46.000Z</time>
      </trkpt>
      <trkpt lat="49.61908" lon="-1.23831">
        <ele>10.713483</ele>
        <time>2022-07-30T14:06:47.000Z</time>
      </trkpt>
      <trkpt lat="49.61907" lon="-1.23835">
        <ele>10.759758</ele>
        <time>2022-07-30T14:06:48.000Z</time>
      </trkpt>
      <trkpt lat="49.61906" lon="-1.23839">
        <ele>10.810514</ele>
        <time>2022-07-30T14:06:49.000Z</time>
      </trkpt>
      <trkpt lat="49.61906" lon="-1.23844">
        <ele>10.863041</ele>
        <time>2022-07-30T14:06:50.000Z</time>
      </trkpt>
      <trkpt lat="49.61905" lon="-1.23849">
        <ele>10.915569</ele>
        <time>2022-07-30T14:06:51.000Z</time>
      </trkpt>
      <trkpt lat="49.61905" lon="-1.23854">
        <ele>10.967872</ele>
        <time>2022-07-30T14:06:52.000Z</time>
      </trkpt>
      <trkpt lat="49.61905" lon="-1.2386">
        <ele>11.022483</ele>
        <time>2022-07-30T14:06:53.000Z</time>
      </trkpt>
      <trkpt lat="49.61905" lon="-1.23865">
        <ele>11.077924</ele>
        <time>2022-07-30T14:06:54.000Z</time>
      </trkpt>
      <trkpt lat="49.61905" lon="-1.2387">
        <ele>11.130451</ele>
        <time>2022-07-30T14:06:55.000Z</time>
      </trkpt>
      <trkpt lat="49.61906" lon="-1.23874">
        <ele>11.177773</ele>
        <time>2022-07-30T14:06:56.000Z</time>
      </trkpt>
      <trkpt lat="49.61907" lon="-1.23879">
        <ele>11.226464</ele>
        <time>2022-07-30T14:06:57.000Z</time>
      </trkpt>
      <trkpt lat="49.61907" lon="-1.23883">
        <ele>11.268307</ele>
        <time>2022-07-30T14:06:58.000Z</time>
      </trkpt>
      <trkpt lat="49.61907" lon="-1.23886">
        <ele>11.305238</ele>
        <time>2022-07-30T14:06:59.000Z</time>
      </trkpt>
      <trkpt lat="49.61908" lon="-1.2389">
        <ele>11.344245</ele>
        <time>2022-07-30T14:07:00.000Z</time>
      </trkpt>
      <trkpt lat="49.61908" lon="-1.23893">
        <ele>11.376673</ele>
        <time>2022-07-30T14:07:01.000Z</time>
      </trkpt>
      <trkpt lat="49.61908" lon="-1.23897">
        <ele>11.423994</ele>
        <time>2022-07-30T14:07:03.000Z</time>
      </trkpt>
      <trkpt lat="49.61909" lon="-1.23907">
        <ele>11.527611</ele>
        <time>2022-07-30T14:09:48.000Z</time>
      </trkpt>
      <trkpt lat="49.61909" lon="-1.23913">
        <ele>11.592648</ele>
        <time>2022-07-30T14:09:49.000Z</time>
      </trkpt>
      <trkpt lat="49.6191" lon="-1.2392">
        <ele>11.66199</ele>
        <time>2022-07-30T14:09:50.000Z</time>
      </trkpt>
      <trkpt lat="49.6191" lon="-1.23927">
        <ele>11.737927</ele>
        <time>2022-07-30T14:09:51.000Z</time>
      </trkpt>
      <trkpt lat="49.61911" lon="-1.23935">
        <ele>11.819054</ele>
        <time>2022-07-30T14:09:52.000Z</time>
      </trkpt>
      <trkpt lat="49.61911" lon="-1.23942">
        <ele>11.89569</ele>
        <time>2022-07-30T14:09:53.000Z</time>
      </trkpt>
      <trkpt lat="49.61912" lon="-1.2395">
        <ele>11.976817</ele>
        <time>2022-07-30T14:09:54.000Z</time>
      </trkpt>
      <trkpt lat="49.61913" lon="-1.23958">
        <ele>12.062046</ele>
        <time>2022-07-30T14:09:55.000Z</time>
      </trkpt>
      <trkpt lat="49.61914" lon="-1.23965">
        <ele>12.142135</ele>
        <time>2022-07-30T14:09:56.000Z</time>
      </trkpt>
      <trkpt lat="49.61915" lon="-1.23973">
        <ele>12.227364</ele>
        <time>2022-07-30T14:09:57.000Z</time>
      </trkpt>
      <trkpt lat="49.61915" lon="-1.23982">
        <ele>12.318886</ele>
        <time>2022-07-30T14:09:58.000Z</time>
      </trkpt>
      <trkpt lat="49.61917" lon="-1.23991">
        <ele>12.415343</ele>
        <time>2022-07-30T14:09:59.000Z</time>
      </trkpt>
      <trkpt lat="49.61917" lon="-1.24">
        <ele>12.509986</ele>
        <time>2022-07-30T14:10:00.000Z</time>
      </trkpt>
      <trkpt lat="49.61918" lon="-1.24009">
        <ele>12.606443</ele>
        <time>2022-07-30T14:10:01.000Z</time>
      </trkpt>
      <trkpt lat="49.61919" lon="-1.24018">
        <ele>12.703168</ele>
        <time>2022-07-30T14:10:02.000Z</time>
      </trkpt>
      <trkpt lat="49.6192" lon="-1.24027">
        <ele>12.797584</ele>
        <time>2022-07-30T14:10:03.000Z</time>
      </trkpt>
      <trkpt lat="49.61921" lon="-1.24035">
        <ele>12.884103</ele>
        <time>2022-07-30T14:10:04.000Z</time>
      </trkpt>
      <trkpt lat="49.61922" lon="-1.24043">
        <ele>12.966269</ele>
        <time>2022-07-30T14:10:05.000Z</time>
      </trkpt>
      <trkpt lat="49.61923" lon="-1.24051">
        <ele>13.049506</ele>
        <time>2022-07-30T14:10:06.000Z</time>
      </trkpt>
      <trkpt lat="49.61924" lon="-1.24058">
        <ele>13.12648</ele>
        <time>2022-07-30T14:10:07.000Z</time>
      </trkpt>
      <trkpt lat="49.61925" lon="-1.24065">
        <ele>13.204531</ele>
        <time>2022-07-30T14:10:08.000Z</time>
      </trkpt>
      <trkpt lat="49.61925" lon="-1.24072">
        <ele>13.291475</ele>
        <time>2022-07-30T14:10:09.000Z</time>
      </trkpt>
      <trkpt lat="49.61927" lon="-1.24079">
        <ele>13.384848</ele>
        <time>2022-07-30T14:10:10.000Z</time>
      </trkpt>
      <trkpt lat="49.61928" lon="-1.24085">
        <ele>13.47396</ele>
        <time>2022-07-30T14:10:11.000Z</time>
      </trkpt>
      <trkpt lat="49.61929" lon="-1.24092">
        <ele>13.565553</ele>
        <time>2022-07-30T14:10:12.000Z</time>
      </trkpt>
      <trkpt lat="49.61931" lon="-1.24097">
        <ele>13.648626</ele>
        <time>2022-07-30T14:10:13.000Z</time>
      </trkpt>
      <trkpt lat="49.61932" lon="-1.24103">
        <ele>13.731988</ele>
        <time>2022-07-30T14:10:14.000Z</time>
      </trkpt>
      <trkpt lat="49.61933" lon="-1.24109">
        <ele>13.814537</ele>
        <time>2022-07-30T14:10:15.000Z</time>
      </trkpt>
      <trkpt lat="49.61933" lon="-1.24115">
        <ele>13.897899</ele>
        <time>2022-07-30T14:10:16.000Z</time>
      </trkpt>
      <trkpt lat="49.61935" lon="-1.24121">
        <ele>13.977145</ele>
        <time>2022-07-30T14:10:17.000Z</time>
      </trkpt>
      <trkpt lat="49.61936" lon="-1.24126">
        <ele>14.054468</ele>
        <time>2022-07-30T14:10:18.000Z</time>
      </trkpt>
      <trkpt lat="49.61937" lon="-1.24132">
        <ele>14.134986</ele>
        <time>2022-07-30T14:10:19.000Z</time>
      </trkpt>
      <trkpt lat="49.61939" lon="-1.24138">
        <ele>14.21907</ele>
        <time>2022-07-30T14:10:20.000Z</time>
      </trkpt>
      <trkpt lat="49.6194" lon="-1.24143">
        <ele>14.300677</ele>
        <time>2022-07-30T14:10:21.000Z</time>
      </trkpt>
      <trkpt lat="49.61941" lon="-1.24148">
        <ele>14.373531</ele>
        <time>2022-07-30T14:10:22.000Z</time>
      </trkpt>
      <trkpt lat="49.61942" lon="-1.24154">
        <ele>14.45024</ele>
        <time>2022-07-30T14:10:23.000Z</time>
      </trkpt>
      <trkpt lat="49.61943" lon="-1.24159">
        <ele>14.527562</ele>
        <time>2022-07-30T14:10:24.000Z</time>
      </trkpt>
      <trkpt lat="49.61945" lon="-1.24165">
        <ele>14.609169</ele>
        <time>2022-07-30T14:10:25.000Z</time>
      </trkpt>
      <trkpt lat="49.61947" lon="-1.2417">
        <ele>14.687089</ele>
        <time>2022-07-30T14:10:26.000Z</time>
      </trkpt>
      <trkpt lat="49.61949" lon="-1.24175">
        <ele>14.76672</ele>
        <time>2022-07-30T14:10:27.000Z</time>
      </trkpt>
      <trkpt lat="49.6195" lon="-1.24181">
        <ele>14.850804</ele>
        <time>2022-07-30T14:10:28.000Z</time>
      </trkpt>
      <trkpt lat="49.61951" lon="-1.24187">
        <ele>14.936439</ele>
        <time>2022-07-30T14:10:29.000Z</time>
      </trkpt>
      <trkpt lat="49.61953" lon="-1.24192">
        <ele>15.021767</ele>
        <time>2022-07-30T14:10:30.000Z</time>
      </trkpt>
      <trkpt lat="49.61955" lon="-1.24198">
        <ele>15.110949</ele>
        <time>2022-07-30T14:10:31.000Z</time>
      </trkpt>
      <trkpt lat="49.61957" lon="-1.24204">
        <ele>15.196514</ele>
        <time>2022-07-30T14:10:32.000Z</time>
      </trkpt>
      <trkpt lat="49.61959" lon="-1.24209">
        <ele>15.27969</ele>
        <time>2022-07-30T14:10:33.000Z</time>
      </trkpt>
      <trkpt lat="49.6196" lon="-1.24214">
        <ele>15.356389</ele>
        <time>2022-07-30T14:10:34.000Z</time>
      </trkpt>
      <trkpt lat="49.61962" lon="-1.24219">
        <ele>15.43485</ele>
        <time>2022-07-30T14:10:35.000Z</time>
      </trkpt>
      <trkpt lat="49.61964" lon="-1.24224">
        <ele>15.504023</ele>
        <time>2022-07-30T14:10:36.000Z</time>
      </trkpt>
      <trkpt lat="49.61965" lon="-1.24229">
        <ele>15.576727</ele>
        <time>2022-07-30T14:10:37.000Z</time>
      </trkpt>
      <trkpt lat="49.61967" lon="-1.24233">
        <ele>15.65284</ele>
        <time>2022-07-30T14:10:38.000Z</time>
      </trkpt>
      <trkpt lat="49.61969" lon="-1.24238">
        <ele>15.726681</ele>
        <time>2022-07-30T14:10:39.000Z</time>
      </trkpt>
      <trkpt lat="49.61971" lon="-1.24243">
        <ele>15.795854</ele>
        <time>2022-07-30T14:10:40.000Z</time>
      </trkpt>
      <trkpt lat="49.61972" lon="-1.24248">
        <ele>15.868707</ele>
        <time>2022-07-30T14:10:41.000Z</time>
      </trkpt>
      <trkpt lat="49.61973" lon="-1.24253">
        <ele>15.945407</ele>
        <time>2022-07-30T14:10:42.000Z</time>
      </trkpt>
      <trkpt lat="49.61975" lon="-1.24258">
        <ele>16.017272</ele>
        <time>2022-07-30T14:10:43.000Z</time>
      </trkpt>
      <trkpt lat="49.61975" lon="-1.24262">
        <ele>16.082549</ele>
        <time>2022-07-30T14:10:44.000Z</time>
      </trkpt>
      <trkpt lat="49.61975" lon="-1.24266">
        <ele>16.138044</ele>
        <time>2022-07-30T14:10:45.000Z</time>
      </trkpt>
      <trkpt lat="49.61973" lon="-1.2427">
        <ele>16.201214</ele>
        <time>2022-07-30T14:10:46.000Z</time>
      </trkpt>
      <trkpt lat="49.61971" lon="-1.24272">
        <ele>16.258291</ele>
        <time>2022-07-30T14:10:47.000Z</time>
      </trkpt>
      <trkpt lat="49.61969" lon="-1.24274">
        <ele>16.315823</ele>
        <time>2022-07-30T14:10:48.000Z</time>
      </trkpt>
      <trkpt lat="49.61965" lon="-1.24275">
        <ele>16.384036</ele>
        <time>2022-07-30T14:10:49.000Z</time>
      </trkpt>
      <trkpt lat="49.61962" lon="-1.24275">
        <ele>16.451384</ele>
        <time>2022-07-30T14:10:50.000Z</time>
      </trkpt>
      <trkpt lat="49.61959" lon="-1.24276">
        <ele>16.525751</ele>
        <time>2022-07-30T14:10:51.000Z</time>
      </trkpt>
      <trkpt lat="49.61955" lon="-1.24277">
        <ele>16.599488</ele>
        <time>2022-07-30T14:10:52.000Z</time>
      </trkpt>
      <trkpt lat="49.61952" lon="-1.24278">
        <ele>16.672925</ele>
        <time>2022-07-30T14:10:53.000Z</time>
      </trkpt>
      <trkpt lat="49.61949" lon="-1.24278">
        <ele>16.739905</ele>
        <time>2022-07-30T14:10:54.000Z</time>
      </trkpt>
      <trkpt lat="49.61945" lon="-1.24278">
        <ele>16.81323</ele>
        <time>2022-07-30T14:10:55.000Z</time>
      </trkpt>
      <trkpt lat="49.61941" lon="-1.24279">
        <ele>16.894813</ele>
        <time>2022-07-30T14:10:56.000Z</time>
      </trkpt>
      <trkpt lat="49.61938" lon="-1.24279">
        <ele>16.968251</ele>
        <time>2022-07-30T14:10:57.000Z</time>
      </trkpt>
      <trkpt lat="49.61934" lon="-1.24279">
        <ele>16.976769</ele>
        <time>2022-07-30T14:10:58.000Z</time>
      </trkpt>
      <trkpt lat="49.61931" lon="-1.2428">
        <ele>16.95377</ele>
        <time>2022-07-30T14:10:59.000Z</time>
      </trkpt>
      <trkpt lat="49.61927" lon="-1.2428">
        <ele>16.928123</ele>
        <time>2022-07-30T14:11:00.000Z</time>
      </trkpt>
      <trkpt lat="49.61923" lon="-1.24281">
        <ele>16.90313</ele>
        <time>2022-07-30T14:11:01.000Z</time>
      </trkpt>
      <trkpt lat="49.61919" lon="-1.24282">
        <ele>16.877996</ele>
        <time>2022-07-30T14:11:02.000Z</time>
      </trkpt>
      <trkpt lat="49.61916" lon="-1.24282">
        <ele>16.852406</ele>
        <time>2022-07-30T14:11:03.000Z</time>
      </trkpt>
      <trkpt lat="49.61912" lon="-1.24282">
        <ele>16.827412</ele>
        <time>2022-07-30T14:11:04.000Z</time>
      </trkpt>
      <trkpt lat="49.61909" lon="-1.24283">
        <ele>16.806334</ele>
        <time>2022-07-30T14:11:05.000Z</time>
      </trkpt>
      <trkpt lat="49.61905" lon="-1.24283">
        <ele>16.783299</ele>
        <time>2022-07-30T14:11:06.000Z</time>
      </trkpt>
      <trkpt lat="49.61901" lon="-1.24284">
        <ele>16.757568</ele>
        <time>2022-07-30T14:11:07.000Z</time>
      </trkpt>
      <trkpt lat="49.61897" lon="-1.24285">
        <ele>16.732305</ele>
        <time>2022-07-30T14:11:08.000Z</time>
      </trkpt>
      <trkpt lat="49.61893" lon="-1.24286">
        <ele>16.706575</ele>
        <time>2022-07-30T14:11:09.000Z</time>
      </trkpt>
      <trkpt lat="49.6189" lon="-1.24286">
        <ele>16.681542</ele>
        <time>2022-07-30T14:11:10.000Z</time>
      </trkpt>
      <trkpt lat="49.61885" lon="-1.24287">
        <ele>16.653692</ele>
        <time>2022-07-30T14:11:11.000Z</time>
      </trkpt>
      <trkpt lat="49.61881" lon="-1.24289">
        <ele>16.621678</ele>
        <time>2022-07-30T14:11:12.000Z</time>
      </trkpt>
      <trkpt lat="49.61875" lon="-1.2429">
        <ele>16.585721</ele>
        <time>2022-07-30T14:11:13.000Z</time>
      </trkpt>
      <trkpt lat="49.6187" lon="-1.24292">
        <ele>16.549764</ele>
        <time>2022-07-30T14:11:14.000Z</time>
      </trkpt>
      <trkpt lat="49.61864" lon="-1.24293">
        <ele>16.509409</ele>
        <time>2022-07-30T14:11:15.000Z</time>
      </trkpt>
      <trkpt lat="49.61858" lon="-1.24295">
        <ele>16.46854</ele>
        <time>2022-07-30T14:11:16.000Z</time>
      </trkpt>
      <trkpt lat="49.61851" lon="-1.24296">
        <ele>16.426237</ele>
        <time>2022-07-30T14:11:17.000Z</time>
      </trkpt>
      <trkpt lat="49.61844" lon="-1.24297">
        <ele>16.377591</ele>
        <time>2022-07-30T14:11:18.000Z</time>
      </trkpt>
      <trkpt lat="49.61837" lon="-1.24296">
        <ele>16.329598</ele>
        <time>2022-07-30T14:11:19.000Z</time>
      </trkpt>
      <trkpt lat="49.6183" lon="-1.24294">
        <ele>16.28864</ele>
        <time>2022-07-30T14:11:20.000Z</time>
      </trkpt>
      <trkpt lat="49.61824" lon="-1.2429">
        <ele>16.244867</ele>
        <time>2022-07-30T14:11:21.000Z</time>
      </trkpt>
      <trkpt lat="49.61819" lon="-1.24285">
        <ele>16.201475</ele>
        <time>2022-07-30T14:11:22.000Z</time>
      </trkpt>
      <trkpt lat="49.61813" lon="-1.2428">
        <ele>16.160638</ele>
        <time>2022-07-30T14:11:23.000Z</time>
      </trkpt>
      <trkpt lat="49.61808" lon="-1.24275">
        <ele>16.1198</ele>
        <time>2022-07-30T14:11:24.000Z</time>
      </trkpt>
      <trkpt lat="49.61803" lon="-1.2427">
        <ele>16.079173</ele>
        <time>2022-07-30T14:11:25.000Z</time>
      </trkpt>
      <trkpt lat="49.61797" lon="-1.24266">
        <ele>16.040104</ele>
        <time>2022-07-30T14:11:26.000Z</time>
      </trkpt>
      <trkpt lat="49.61792" lon="-1.24261">
        <ele>16.001177</ele>
        <time>2022-07-30T14:11:27.000Z</time>
      </trkpt>
      <trkpt lat="49.61788" lon="-1.24257">
        <ele>15.966492</ele>
        <time>2022-07-30T14:11:28.000Z</time>
      </trkpt>
      <trkpt lat="49.61783" lon="-1.24252">
        <ele>15.92861</ele>
        <time>2022-07-30T14:11:29.000Z</time>
      </trkpt>
      <trkpt lat="49.61778" lon="-1.24249">
        <ele>15.891497</ele>
        <time>2022-07-30T14:11:30.000Z</time>
      </trkpt>
      <trkpt lat="49.61773" lon="-1.24245">
        <ele>15.856144</ele>
        <time>2022-07-30T14:11:31.000Z</time>
      </trkpt>
      <trkpt lat="49.61768" lon="-1.2424">
        <ele>15.821234</ele>
        <time>2022-07-30T14:11:32.000Z</time>
      </trkpt>
      <trkpt lat="49.61764" lon="-1.24236">
        <ele>15.811553</ele>
        <time>2022-07-30T14:11:33.000Z</time>
      </trkpt>
      <trkpt lat="49.6176" lon="-1.2423">
        <ele>15.811009</ele>
        <time>2022-07-30T14:11:34.000Z</time>
      </trkpt>
      <trkpt lat="49.61758" lon="-1.24224">
        <ele>15.810518</ele>
        <time>2022-07-30T14:11:35.000Z</time>
      </trkpt>
      <trkpt lat="49.61756" lon="-1.24219">
        <ele>15.810061</ele>
        <time>2022-07-30T14:11:36.000Z</time>
      </trkpt>
      <trkpt lat="49.61754" lon="-1.24213">
        <ele>15.809623</ele>
        <time>2022-07-30T14:11:37.000Z</time>
      </trkpt>
      <trkpt lat="49.61751" lon="-1.24208">
        <ele>15.809144</ele>
        <time>2022-07-30T14:11:38.000Z</time>
      </trkpt>
      <trkpt lat="49.61748" lon="-1.24204">
        <ele>15.808696</ele>
        <time>2022-07-30T14:11:39.000Z</time>
      </trkpt>
      <trkpt lat="49.61745" lon="-1.24199">
        <ele>15.808216</ele>
        <time>2022-07-30T14:11:40.000Z</time>
      </trkpt>
      <trkpt lat="49.61742" lon="-1.24195">
        <ele>15.807798</ele>
        <time>2022-07-30T14:11:41.000Z</time>
      </trkpt>
      <trkpt lat="49.61739" lon="-1.2419">
        <ele>15.80734</ele>
        <time>2022-07-30T14:11:42.000Z</time>
      </trkpt>
      <trkpt lat="49.61737" lon="-1.24187">
        <ele>15.807029</ele>
        <time>2022-07-30T14:11:43.000Z</time>
      </trkpt>
      <trkpt lat="49.61735" lon="-1.24185">
        <ele>15.806758</ele>
        <time>2022-07-30T14:11:44.000Z</time>
      </trkpt>
      <trkpt lat="49.61733" lon="-1.24182">
        <ele>15.806404</ele>
        <time>2022-07-30T14:11:46.000Z</time>
      </trkpt>
      <trkpt lat="49.6173" lon="-1.24178">
        <ele>15.806053</ele>
        <time>2022-07-30T14:11:48.000Z</time>
      </trkpt>
      <trkpt lat="49.61728" lon="-1.24175">
        <ele>15.805694</ele>
        <time>2022-07-30T14:11:50.000Z</time>
      </trkpt>
      <trkpt lat="49.61726" lon="-1.24173">
        <ele>15.805494</ele>
        <time>2022-07-30T14:11:51.000Z</time>
      </trkpt>
      <trkpt lat="49.61724" lon="-1.2417">
        <ele>15.805162</ele>
        <time>2022-07-30T14:11:53.000Z</time>
      </trkpt>
      <trkpt lat="49.61722" lon="-1.24169">
        <ele>15.804962</ele>
        <time>2022-07-30T14:11:54.000Z</time>
      </trkpt>
      <trkpt lat="49.61721" lon="-1.24167">
        <ele>15.804758</ele>
        <time>2022-07-30T14:11:55.000Z</time>
      </trkpt>
      <trkpt lat="49.6172" lon="-1.24164">
        <ele>15.804516</ele>
        <time>2022-07-30T14:11:57.000Z</time>
      </trkpt>
      <trkpt lat="49.61721" lon="-1.24161">
        <ele>15.804275</ele>
        <time>2022-07-30T14:11:59.000Z</time>
      </trkpt>
      <trkpt lat="49.61723" lon="-1.24162">
        <ele>15.804003</ele>
        <time>2022-07-30T14:12:02.000Z</time>
      </trkpt>
      <trkpt lat="49.61724" lon="-1.24167">
        <ele>15.803649</ele>
        <time>2022-07-30T14:12:04.000Z</time>
      </trkpt>
      <trkpt lat="49.61725" lon="-1.24172">
        <ele>15.803303</ele>
        <time>2022-07-30T14:12:06.000Z</time>
      </trkpt>
      <trkpt lat="49.61728" lon="-1.24176">
        <ele>15.80287</ele>
        <time>2022-07-30T14:12:08.000Z</time>
      </trkpt>
      <trkpt lat="49.6173" lon="-1.24178">
        <ele>15.802599</ele>
        <time>2022-07-30T14:12:09.000Z</time>
      </trkpt>
      <trkpt lat="49.61732" lon="-1.24181">
        <ele>15.802336</ele>
        <time>2022-07-30T14:12:10.000Z</time>
      </trkpt>
      <trkpt lat="49.61734" lon="-1.24183">
        <ele>15.802041</ele>
        <time>2022-07-30T14:12:11.000Z</time>
      </trkpt>
      <trkpt lat="49.61737" lon="-1.24187">
        <ele>15.801644</ele>
        <time>2022-07-30T14:12:13.000Z</time>
      </trkpt>
      <trkpt lat="49.61738" lon="-1.2419">
        <ele>15.80137</ele>
        <time>2022-07-30T14:12:15.000Z</time>
      </trkpt>
      <trkpt lat="49.61742" lon="-1.24201">
        <ele>15.80047</ele>
        <time>2022-07-30T14:13:12.000Z</time>
      </trkpt>
      <trkpt lat="49.61746" lon="-1.24203">
        <ele>15.800079</ele>
        <time>2022-07-30T14:13:13.000Z</time>
      </trkpt>
      <trkpt lat="49.61749" lon="-1.24205">
        <ele>15.799737</ele>
        <time>2022-07-30T14:13:14.000Z</time>
      </trkpt>
      <trkpt lat="49.61751" lon="-1.24206">
        <ele>15.799455</ele>
        <time>2022-07-30T14:13:15.000Z</time>
      </trkpt>
      <trkpt lat="49.61754" lon="-1.24207">
        <ele>15.799135</ele>
        <time>2022-07-30T14:13:16.000Z</time>
      </trkpt>
      <trkpt lat="49.61756" lon="-1.24209">
        <ele>15.798903</ele>
        <time>2022-07-30T14:13:17.000Z</time>
      </trkpt>
      <trkpt lat="49.61757" lon="-1.24213">
        <ele>15.7986</ele>
        <time>2022-07-30T14:13:19.000Z</time>
      </trkpt>
      <trkpt lat="49.61755" lon="-1.24214">
        <ele>15.798351</ele>
        <time>2022-07-30T14:13:21.000Z</time>
      </trkpt>
      <trkpt lat="49.61752" lon="-1.24211">
        <ele>15.798032</ele>
        <time>2022-07-30T14:13:23.000Z</time>
      </trkpt>
      <trkpt lat="49.61751" lon="-1.24208">
        <ele>15.797794</ele>
        <time>2022-07-30T14:13:24.000Z</time>
      </trkpt>
      <trkpt lat="49.6175" lon="-1.24205">
        <ele>15.797534</ele>
        <time>2022-07-30T14:13:25.000Z</time>
      </trkpt>
      <trkpt lat="49.61748" lon="-1.24201">
        <ele>15.797205</ele>
        <time>2022-07-30T14:13:26.000Z</time>
      </trkpt>
      <trkpt lat="49.61746" lon="-1.24198">
        <ele>15.796861</ele>
        <time>2022-07-30T14:13:27.000Z</time>
      </trkpt>
      <trkpt lat="49.61743" lon="-1.24194">
        <ele>15.796485</ele>
        <time>2022-07-30T14:13:28.000Z</time>
      </trkpt>
      <trkpt lat="49.61741" lon="-1.24191">
        <ele>15.796103</ele>
        <time>2022-07-30T14:13:29.000Z</time>
      </trkpt>
      <trkpt lat="49.61738" lon="-1.24186">
        <ele>15.795694</ele>
        <time>2022-07-30T14:13:30.000Z</time>
      </trkpt>
      <trkpt lat="49.61735" lon="-1.24182">
        <ele>15.79527</ele>
        <time>2022-07-30T14:13:31.000Z</time>
      </trkpt>
      <trkpt lat="49.61733" lon="-1.24178">
        <ele>15.794878</ele>
        <time>2022-07-30T14:13:32.000Z</time>
      </trkpt>
      <trkpt lat="49.61729" lon="-1.24174">
        <ele>15.794426</ele>
        <time>2022-07-30T14:13:33.000Z</time>
      </trkpt>
      <trkpt lat="49.61726" lon="-1.2417">
        <ele>15.793982</ele>
        <time>2022-07-30T14:13:34.000Z</time>
      </trkpt>
      <trkpt lat="49.61723" lon="-1.24166">
        <ele>15.793508</ele>
        <time>2022-07-30T14:13:35.000Z</time>
      </trkpt>
      <trkpt lat="49.61719" lon="-1.24163">
        <ele>15.793013</ele>
        <time>2022-07-30T14:13:36.000Z</time>
      </trkpt>
      <trkpt lat="49.61715" lon="-1.24159">
        <ele>15.792524</ele>
        <time>2022-07-30T14:13:37.000Z</time>
      </trkpt>
      <trkpt lat="49.61711" lon="-1.24155">
        <ele>15.764882</ele>
        <time>2022-07-30T14:13:38.000Z</time>
      </trkpt>
      <trkpt lat="49.61707" lon="-1.24152">
        <ele>15.732241</ele>
        <time>2022-07-30T14:13:39.000Z</time>
      </trkpt>
      <trkpt lat="49.61702" lon="-1.24149">
        <ele>15.698754</ele>
        <time>2022-07-30T14:13:40.000Z</time>
      </trkpt>
      <trkpt lat="49.61698" lon="-1.24145">
        <ele>15.662301</ele>
        <time>2022-07-30T14:13:41.000Z</time>
      </trkpt>
      <trkpt lat="49.61693" lon="-1.24142">
        <ele>15.624146</ele>
        <time>2022-07-30T14:13:42.000Z</time>
      </trkpt>
      <trkpt lat="49.61689" lon="-1.24138">
        <ele>15.590649</ele>
        <time>2022-07-30T14:13:43.000Z</time>
      </trkpt>
      <trkpt lat="49.61685" lon="-1.24135">
        <ele>15.558395</ele>
        <time>2022-07-30T14:13:44.000Z</time>
      </trkpt>
      <trkpt lat="49.61681" lon="-1.24131">
        <ele>15.521942</ele>
        <time>2022-07-30T14:13:45.000Z</time>
      </trkpt>
      <trkpt lat="49.61677" lon="-1.24127">
        <ele>15.489057</ele>
        <time>2022-07-30T14:13:46.000Z</time>
      </trkpt>
      <trkpt lat="49.61673" lon="-1.24122">
        <ele>15.455889</ele>
        <time>2022-07-30T14:13:47.000Z</time>
      </trkpt>
      <trkpt lat="49.6167" lon="-1.24118">
        <ele>15.423986</ele>
        <time>2022-07-30T14:13:48.000Z</time>
      </trkpt>
      <trkpt lat="49.61666" lon="-1.24113">
        <ele>15.38972</ele>
        <time>2022-07-30T14:13:49.000Z</time>
      </trkpt>
      <trkpt lat="49.61662" lon="-1.2411">
        <ele>15.353896</ele>
        <time>2022-07-30T14:13:50.000Z</time>
      </trkpt>
      <trkpt lat="49.61657" lon="-1.24107">
        <ele>15.31721</ele>
        <time>2022-07-30T14:13:51.000Z</time>
      </trkpt>
      <trkpt lat="49.61652" lon="-1.24105">
        <ele>15.276588</ele>
        <time>2022-07-30T14:13:52.000Z</time>
      </trkpt>
      <trkpt lat="49.61646" lon="-1.24102">
        <ele>15.233532</ele>
        <time>2022-07-30T14:13:53.000Z</time>
      </trkpt>
      <trkpt lat="49.61641" lon="-1.24098">
        <ele>15.194964</ele>
        <time>2022-07-30T14:13:54.000Z</time>
      </trkpt>
      <trkpt lat="49.61637" lon="-1.24093">
        <ele>15.155321</ele>
        <time>2022-07-30T14:13:55.000Z</time>
      </trkpt>
      <trkpt lat="49.61632" lon="-1.24087">
        <ele>15.113108</ele>
        <time>2022-07-30T14:13:56.000Z</time>
      </trkpt>
      <trkpt lat="49.61629" lon="-1.2408">
        <ele>15.074621</ele>
        <time>2022-07-30T14:13:57.000Z</time>
      </trkpt>
      <trkpt lat="49.61627" lon="-1.24073">
        <ele>15.036373</ele>
        <time>2022-07-30T14:13:58.000Z</time>
      </trkpt>
      <trkpt lat="49.61624" lon="-1.24065">
        <ele>14.99574</ele>
        <time>2022-07-30T14:13:59.000Z</time>
      </trkpt>
      <trkpt lat="49.61622" lon="-1.24057">
        <ele>14.957573</ele>
        <time>2022-07-30T14:14:00.000Z</time>
      </trkpt>
      <trkpt lat="49.61621" lon="-1.24049">
        <ele>14.920116</ele>
        <time>2022-07-30T14:14:01.000Z</time>
      </trkpt>
      <trkpt lat="49.61619" lon="-1.24041">
        <ele>14.881333</ele>
        <time>2022-07-30T14:14:02.000Z</time>
      </trkpt>
      <trkpt lat="49.61618" lon="-1.24033">
        <ele>14.842679</ele>
        <time>2022-07-30T14:14:03.000Z</time>
      </trkpt>
      <trkpt lat="49.61617" lon="-1.24025">
        <ele>14.803117</ele>
        <time>2022-07-30T14:14:04.000Z</time>
      </trkpt>
      <trkpt lat="49.61615" lon="-1.24017">
        <ele>14.763004</ele>
        <time>2022-07-30T14:14:05.000Z</time>
      </trkpt>
      <trkpt lat="49.61613" lon="-1.24008">
        <ele>14.722664</ele>
        <time>2022-07-30T14:14:06.000Z</time>
      </trkpt>
      <trkpt lat="49.61611" lon="-1.24001">
        <ele>14.684106</ele>
        <time>2022-07-30T14:14:07.000Z</time>
      </trkpt>
      <trkpt lat="49.61608" lon="-1.23994">
        <ele>14.643661</ele>
        <time>2022-07-30T14:14:08.000Z</time>
      </trkpt>
      <trkpt lat="49.61604" lon="-1.23987">
        <ele>14.602703</ele>
        <time>2022-07-30T14:14:09.000Z</time>
      </trkpt>
      <trkpt lat="49.61601" lon="-1.2398">
        <ele>14.564138</ele>
        <time>2022-07-30T14:14:10.000Z</time>
      </trkpt>
      <trkpt lat="49.61597" lon="-1.23976">
        <ele>14.529031</ele>
        <time>2022-07-30T14:14:11.000Z</time>
      </trkpt>
      <trkpt lat="49.61593" lon="-1.23972">
        <ele>14.487874</ele>
        <time>2022-07-30T14:14:12.000Z</time>
      </trkpt>
      <trkpt lat="49.61591" lon="-1.23969">
        <ele>14.430379</ele>
        <time>2022-07-30T14:14:13.000Z</time>
      </trkpt>
      <trkpt lat="49.61589" lon="-1.23966">
        <ele>14.385196</ele>
        <time>2022-07-30T14:14:14.000Z</time>
      </trkpt>
      <trkpt lat="49.61589" lon="-1.23963">
        <ele>14.350212</ele>
        <time>2022-07-30T14:14:15.000Z</time>
      </trkpt>
      <trkpt lat="49.61588" lon="-1.23961">
        <ele>14.31536</ele>
        <time>2022-07-30T14:14:16.000Z</time>
      </trkpt>
      <trkpt lat="49.61587" lon="-1.23955">
        <ele>14.252705</ele>
        <time>2022-07-30T14:14:18.000Z</time>
      </trkpt>
      <trkpt lat="49.61587" lon="-1.23953">
        <ele>14.21904</ele>
        <time>2022-07-30T14:14:22.000Z</time>
      </trkpt>
      <trkpt lat="49.61587" lon="-1.23943">
        <ele>14.109768</ele>
        <time>2022-07-30T14:16:28.000Z</time>
      </trkpt>
      <trkpt lat="49.61587" lon="-1.23937">
        <ele>14.0372</ele>
        <time>2022-07-30T14:16:29.000Z</time>
      </trkpt>
      <trkpt lat="49.61586" lon="-1.2393">
        <ele>13.952169</ele>
        <time>2022-07-30T14:16:30.000Z</time>
      </trkpt>
      <trkpt lat="49.61586" lon="-1.23923">
        <ele>13.866584</ele>
        <time>2022-07-30T14:16:31.000Z</time>
      </trkpt>
      <trkpt lat="49.61585" lon="-1.23916">
        <ele>13.776941</ele>
        <time>2022-07-30T14:16:32.000Z</time>
      </trkpt>
      <trkpt lat="49.61584" lon="-1.23908">
        <ele>13.683531</ele>
        <time>2022-07-30T14:16:33.000Z</time>
      </trkpt>
      <trkpt lat="49.61583" lon="-1.239">
        <ele>13.588381</ele>
        <time>2022-07-30T14:16:34.000Z</time>
      </trkpt>
      <trkpt lat="49.61582" lon="-1.23892">
        <ele>13.495138</ele>
        <time>2022-07-30T14:16:35.000Z</time>
      </trkpt>
      <trkpt lat="49.61581" lon="-1.23885">
        <ele>13.406426</ele>
        <time>2022-07-30T14:16:36.000Z</time>
      </trkpt>
      <trkpt lat="49.6158" lon="-1.23878">
        <ele>13.317255</ele>
        <time>2022-07-30T14:16:37.000Z</time>
      </trkpt>
      <trkpt lat="49.61579" lon="-1.2387">
        <ele>13.228789</ele>
        <time>2022-07-30T14:16:38.000Z</time>
      </trkpt>
      <trkpt lat="49.61578" lon="-1.23863">
        <ele>13.140737</ele>
        <time>2022-07-30T14:16:39.000Z</time>
      </trkpt>
      <trkpt lat="49.61576" lon="-1.23856">
        <ele>13.053216</ele>
        <time>2022-07-30T14:16:40.000Z</time>
      </trkpt>
      <trkpt lat="49.61575" lon="-1.23849">
        <ele>12.96856</ele>
        <time>2022-07-30T14:16:41.000Z</time>
      </trkpt>
      <trkpt lat="49.61574" lon="-1.23842">
        <ele>12.88218</ele>
        <time>2022-07-30T14:16:42.000Z</time>
      </trkpt>
      <trkpt lat="49.61573" lon="-1.23835">
        <ele>12.796939</ele>
        <time>2022-07-30T14:16:43.000Z</time>
      </trkpt>
      <trkpt lat="49.61571" lon="-1.23829">
        <ele>12.713347</ele>
        <time>2022-07-30T14:16:44.000Z</time>
      </trkpt>
      <trkpt lat="49.6157" lon="-1.23822">
        <ele>12.626412</ele>
        <time>2022-07-30T14:16:45.000Z</time>
      </trkpt>
      <trkpt lat="49.61568" lon="-1.23815">
        <ele>12.53836</ele>
        <time>2022-07-30T14:16:46.000Z</time>
      </trkpt>
      <trkpt lat="49.61567" lon="-1.23807">
        <ele>12.448716</ele>
        <time>2022-07-30T14:16:47.000Z</time>
      </trkpt>
      <trkpt lat="49.61567" lon="-1.238">
        <ele>12.35619</ele>
        <time>2022-07-30T14:16:48.000Z</time>
      </trkpt>
      <trkpt lat="49.61568" lon="-1.23792">
        <ele>12.264191</ele>
        <time>2022-07-30T14:16:49.000Z</time>
      </trkpt>
      <trkpt lat="49.6157" lon="-1.23785">
        <ele>12.17087</ele>
        <time>2022-07-30T14:16:50.000Z</time>
      </trkpt>
      <trkpt lat="49.61573" lon="-1.23778">
        <ele>12.080161</ele>
        <time>2022-07-30T14:16:51.000Z</time>
      </trkpt>
      <trkpt lat="49.61575" lon="-1.23773">
        <ele>12.003486</ele>
        <time>2022-07-30T14:16:52.000Z</time>
      </trkpt>
      <trkpt lat="49.61577" lon="-1.23768">
        <ele>11.93277</ele>
        <time>2022-07-30T14:16:53.000Z</time>
      </trkpt>
      <trkpt lat="49.61578" lon="-1.23763">
        <ele>11.87063</ele>
        <time>2022-07-30T14:16:54.000Z</time>
      </trkpt>
      <trkpt lat="49.6158" lon="-1.23758">
        <ele>11.808698</ele>
        <time>2022-07-30T14:16:55.000Z</time>
      </trkpt>
      <trkpt lat="49.61581" lon="-1.23754">
        <ele>11.748845</ele>
        <time>2022-07-30T14:16:56.000Z</time>
      </trkpt>
      <trkpt lat="49.61583" lon="-1.23749">
        <ele>11.679485</ele>
        <time>2022-07-30T14:16:57.000Z</time>
      </trkpt>
      <trkpt lat="49.61584" lon="-1.23743">
        <ele>11.610036</ele>
        <time>2022-07-30T14:16:58.000Z</time>
      </trkpt>
      <trkpt lat="49.61586" lon="-1.23737">
        <ele>11.534988</ele>
        <time>2022-07-30T14:16:59.000Z</time>
      </trkpt>
      <trkpt lat="49.61586" lon="-1.23731">
        <ele>11.461237</ele>
        <time>2022-07-30T14:17:00.000Z</time>
      </trkpt>
      <trkpt lat="49.61587" lon="-1.23725">
        <ele>11.386596</ele>
        <time>2022-07-30T14:17:01.000Z</time>
      </trkpt>
      <trkpt lat="49.61587" lon="-1.23719">
        <ele>11.312845</ele>
        <time>2022-07-30T14:17:02.000Z</time>
      </trkpt>
      <trkpt lat="49.61588" lon="-1.23712">
        <ele>11.239094</ele>
        <time>2022-07-30T14:17:03.000Z</time>
      </trkpt>
      <trkpt lat="49.61588" lon="-1.23706">
        <ele>11.168928</ele>
        <time>2022-07-30T14:17:04.000Z</time>
      </trkpt>
      <trkpt lat="49.61589" lon="-1.237">
        <ele>11.091549</ele>
        <time>2022-07-30T14:17:05.000Z</time>
      </trkpt>
      <trkpt lat="49.61589" lon="-1.23693">
        <ele>11.015965</ele>
        <time>2022-07-30T14:17:06.000Z</time>
      </trkpt>
      <trkpt lat="49.6159" lon="-1.23686">
        <ele>10.941808</ele>
        <time>2022-07-30T14:17:07.000Z</time>
      </trkpt>
      <trkpt lat="49.61591" lon="-1.2368">
        <ele>10.865902</ele>
        <time>2022-07-30T14:17:08.000Z</time>
      </trkpt>
      <trkpt lat="49.61591" lon="-1.23673">
        <ele>10.791745</ele>
        <time>2022-07-30T14:17:09.000Z</time>
      </trkpt>
      <trkpt lat="49.61593" lon="-1.23667">
        <ele>10.715679</ele>
        <time>2022-07-30T14:17:10.000Z</time>
      </trkpt>
      <trkpt lat="49.61593" lon="-1.2366">
        <ele>10.637714</ele>
        <time>2022-07-30T14:17:11.000Z</time>
      </trkpt>
      <trkpt lat="49.61594" lon="-1.23653">
        <ele>10.560478</ele>
        <time>2022-07-30T14:17:12.000Z</time>
      </trkpt>
      <trkpt lat="49.61594" lon="-1.23646">
        <ele>10.484894</ele>
        <time>2022-07-30T14:17:13.000Z</time>
      </trkpt>
      <trkpt lat="49.61595" lon="-1.2364">
        <ele>10.406418</ele>
        <time>2022-07-30T14:17:14.000Z</time>
      </trkpt>
      <trkpt lat="49.61595" lon="-1.23633">
        <ele>10.329711</ele>
        <time>2022-07-30T14:17:15.000Z</time>
      </trkpt>
      <trkpt lat="49.61596" lon="-1.23626">
        <ele>10.248012</ele>
        <time>2022-07-30T14:17:16.000Z</time>
      </trkpt>
      <trkpt lat="49.61597" lon="-1.23618">
        <ele>10.16514</ele>
        <time>2022-07-30T14:17:17.000Z</time>
      </trkpt>
      <trkpt lat="49.61597" lon="-1.23611">
        <ele>10.078974</ele>
        <time>2022-07-30T14:17:18.000Z</time>
      </trkpt>
      <trkpt lat="49.61599" lon="-1.23603">
        <ele>9.992685</ele>
        <time>2022-07-30T14:17:19.000Z</time>
      </trkpt>
      <trkpt lat="49.616" lon="-1.23596">
        <ele>9.905405</ele>
        <time>2022-07-30T14:17:20.000Z</time>
      </trkpt>
      <trkpt lat="49.61601" lon="-1.23588">
        <ele>9.813673</ele>
        <time>2022-07-30T14:17:21.000Z</time>
      </trkpt>
      <trkpt lat="49.61603" lon="-1.2358">
        <ele>9.721595</ele>
        <time>2022-07-30T14:17:22.000Z</time>
      </trkpt>
      <trkpt lat="49.61604" lon="-1.23572">
        <ele>9.629516</ele>
        <time>2022-07-30T14:17:23.000Z</time>
      </trkpt>
      <trkpt lat="49.61606" lon="-1.23564">
        <ele>9.530979</ele>
        <time>2022-07-30T14:17:24.000Z</time>
      </trkpt>
      <trkpt lat="49.61608" lon="-1.23556">
        <ele>9.432133</ele>
        <time>2022-07-30T14:17:25.000Z</time>
      </trkpt>
      <trkpt lat="49.6161" lon="-1.23547">
        <ele>9.333596</ele>
        <time>2022-07-30T14:17:26.000Z</time>
      </trkpt>
      <trkpt lat="49.61612" lon="-1.23539">
        <ele>9.232671</ele>
        <time>2022-07-30T14:17:27.000Z</time>
      </trkpt>
      <trkpt lat="49.61614" lon="-1.23531">
        <ele>9.133009</ele>
        <time>2022-07-30T14:17:28.000Z</time>
      </trkpt>
      <trkpt lat="49.61616" lon="-1.23522">
        <ele>9.031041</ele>
        <time>2022-07-30T14:17:29.000Z</time>
      </trkpt>
      <trkpt lat="49.61619" lon="-1.23514">
        <ele>8.929307</ele>
        <time>2022-07-30T14:17:30.000Z</time>
      </trkpt>
      <trkpt lat="49.61621" lon="-1.23506">
        <ele>8.827315</ele>
        <time>2022-07-30T14:17:31.000Z</time>
      </trkpt>
      <trkpt lat="49.61623" lon="-1.23498">
        <ele>8.728814</ele>
        <time>2022-07-30T14:17:32.000Z</time>
      </trkpt>
      <trkpt lat="49.61626" lon="-1.2349">
        <ele>8.631006</ele>
        <time>2022-07-30T14:17:33.000Z</time>
      </trkpt>
      <trkpt lat="49.61628" lon="-1.23482">
        <ele>8.535265</ele>
        <time>2022-07-30T14:17:34.000Z</time>
      </trkpt>
      <trkpt lat="49.6163" lon="-1.23474">
        <ele>8.432521</ele>
        <time>2022-07-30T14:17:35.000Z</time>
      </trkpt>
      <trkpt lat="49.61633" lon="-1.23466">
        <ele>8.334713</ele>
        <time>2022-07-30T14:17:36.000Z</time>
      </trkpt>
      <trkpt lat="49.61635" lon="-1.23458">
        <ele>8.236213</ele>
        <time>2022-07-30T14:17:37.000Z</time>
      </trkpt>
      <trkpt lat="49.61637" lon="-1.2345">
        <ele>8.138275</ele>
        <time>2022-07-30T14:17:38.000Z</time>
      </trkpt>
      <trkpt lat="49.6164" lon="-1.23442">
        <ele>8.08345</ele>
        <time>2022-07-30T14:17:39.000Z</time>
      </trkpt>
      <trkpt lat="49.61643" lon="-1.23434">
        <ele>8.071358</ele>
        <time>2022-07-30T14:17:40.000Z</time>
      </trkpt>
      <trkpt lat="49.61645" lon="-1.23427">
        <ele>8.060378</ele>
        <time>2022-07-30T14:17:41.000Z</time>
      </trkpt>
      <trkpt lat="49.61647" lon="-1.23419">
        <ele>8.04869</ele>
        <time>2022-07-30T14:17:42.000Z</time>
      </trkpt>
      <trkpt lat="49.6165" lon="-1.23411">
        <ele>8.037468</ele>
        <time>2022-07-30T14:17:43.000Z</time>
      </trkpt>
      <trkpt lat="49.61653" lon="-1.23403">
        <ele>8.025605</ele>
        <time>2022-07-30T14:17:44.000Z</time>
      </trkpt>
      <trkpt lat="49.61655" lon="-1.23396">
        <ele>8.014244</ele>
        <time>2022-07-30T14:17:45.000Z</time>
      </trkpt>
      <trkpt lat="49.61657" lon="-1.23387">
        <ele>8.002458</ele>
        <time>2022-07-30T14:17:46.000Z</time>
      </trkpt>
      <trkpt lat="49.6166" lon="-1.23379">
        <ele>7.99025</ele>
        <time>2022-07-30T14:17:47.000Z</time>
      </trkpt>
      <trkpt lat="49.61663" lon="-1.23371">
        <ele>7.978534</ele>
        <time>2022-07-30T14:17:48.000Z</time>
      </trkpt>
      <trkpt lat="49.61665" lon="-1.23363">
        <ele>7.966728</ele>
        <time>2022-07-30T14:17:49.000Z</time>
      </trkpt>
      <trkpt lat="49.61668" lon="-1.23355">
        <ele>7.954636</ele>
        <time>2022-07-30T14:17:50.000Z</time>
      </trkpt>
      <trkpt lat="49.61671" lon="-1.23347">
        <ele>7.94292</ele>
        <time>2022-07-30T14:17:51.000Z</time>
      </trkpt>
      <trkpt lat="49.61674" lon="-1.23339">
        <ele>7.930827</ele>
        <time>2022-07-30T14:17:52.000Z</time>
      </trkpt>
      <trkpt lat="49.61677" lon="-1.23332">
        <ele>7.919079</ele>
        <time>2022-07-30T14:17:53.000Z</time>
      </trkpt>
      <trkpt lat="49.61679" lon="-1.23324">
        <ele>7.907331</ele>
        <time>2022-07-30T14:17:54.000Z</time>
      </trkpt>
      <trkpt lat="49.61683" lon="-1.23316">
        <ele>7.895374</ele>
        <time>2022-07-30T14:17:55.000Z</time>
      </trkpt>
      <trkpt lat="49.61685" lon="-1.23309">
        <ele>7.884249</ele>
        <time>2022-07-30T14:17:56.000Z</time>
      </trkpt>
      <trkpt lat="49.61689" lon="-1.23301">
        <ele>7.872056</ele>
        <time>2022-07-30T14:17:57.000Z</time>
      </trkpt>
      <trkpt lat="49.61692" lon="-1.23294">
        <ele>7.860648</ele>
        <time>2022-07-30T14:17:58.000Z</time>
      </trkpt>
      <trkpt lat="49.61694" lon="-1.23287">
        <ele>7.849353</ele>
        <time>2022-07-30T14:17:59.000Z</time>
      </trkpt>
      <trkpt lat="49.61697" lon="-1.23279">
        <ele>7.837832</ele>
        <time>2022-07-30T14:18:00.000Z</time>
      </trkpt>
      <trkpt lat="49.61701" lon="-1.23272">
        <ele>7.826206</ele>
        <time>2022-07-30T14:18:01.000Z</time>
      </trkpt>
      <trkpt lat="49.61704" lon="-1.23265">
        <ele>7.814332</ele>
        <time>2022-07-30T14:18:02.000Z</time>
      </trkpt>
      <trkpt lat="49.61707" lon="-1.23258">
        <ele>7.803353</ele>
        <time>2022-07-30T14:18:03.000Z</time>
      </trkpt>
      <trkpt lat="49.61711" lon="-1.23251">
        <ele>7.791706</ele>
        <time>2022-07-30T14:18:04.000Z</time>
      </trkpt>
      <trkpt lat="49.61715" lon="-1.23245">
        <ele>7.780116</ele>
        <time>2022-07-30T14:18:05.000Z</time>
      </trkpt>
      <trkpt lat="49.61719" lon="-1.23239">
        <ele>7.768954</ele>
        <time>2022-07-30T14:18:06.000Z</time>
      </trkpt>
      <trkpt lat="49.61723" lon="-1.23233">
        <ele>7.757391</ele>
        <time>2022-07-30T14:18:07.000Z</time>
      </trkpt>
      <trkpt lat="49.61728" lon="-1.23227">
        <ele>7.74522</ele>
        <time>2022-07-30T14:18:08.000Z</time>
      </trkpt>
      <trkpt lat="49.61732" lon="-1.23223">
        <ele>7.734231</ele>
        <time>2022-07-30T14:18:09.000Z</time>
      </trkpt>
      <trkpt lat="49.61737" lon="-1.23219">
        <ele>7.723698</ele>
        <time>2022-07-30T14:18:10.000Z</time>
      </trkpt>
      <trkpt lat="49.61742" lon="-1.23215">
        <ele>7.687747</ele>
        <time>2022-07-30T14:18:11.000Z</time>
      </trkpt>
      <trkpt lat="49.61746" lon="-1.23211">
        <ele>7.654927</ele>
        <time>2022-07-30T14:18:12.000Z</time>
      </trkpt>
      <trkpt lat="49.61751" lon="-1.23208">
        <ele>7.620679</ele>
        <time>2022-07-30T14:18:13.000Z</time>
      </trkpt>
      <trkpt lat="49.61756" lon="-1.23205">
        <ele>7.584876</ele>
        <time>2022-07-30T14:18:14.000Z</time>
      </trkpt>
      <trkpt lat="49.61761" lon="-1.23202">
        <ele>7.553017</ele>
        <time>2022-07-30T14:18:15.000Z</time>
      </trkpt>
      <trkpt lat="49.61765" lon="-1.23198">
        <ele>7.517287</ele>
        <time>2022-07-30T14:18:16.000Z</time>
      </trkpt>
      <trkpt lat="49.6177" lon="-1.23194">
        <ele>7.484275</ele>
        <time>2022-07-30T14:18:17.000Z</time>
      </trkpt>
      <trkpt lat="49.61773" lon="-1.23188">
        <ele>7.450153</ele>
        <time>2022-07-30T14:18:18.000Z</time>
      </trkpt>
      <trkpt lat="49.61776" lon="-1.23182">
        <ele>7.417735</ele>
        <time>2022-07-30T14:18:19.000Z</time>
      </trkpt>
      <trkpt lat="49.61778" lon="-1.23175">
        <ele>7.385433</ele>
        <time>2022-07-30T14:18:20.000Z</time>
      </trkpt>
      <trkpt lat="49.61779" lon="-1.23167">
        <ele>7.351691</ele>
        <time>2022-07-30T14:18:21.000Z</time>
      </trkpt>
      <trkpt lat="49.61779" lon="-1.23159">
        <ele>7.317741</ele>
        <time>2022-07-30T14:18:22.000Z</time>
      </trkpt>
      <trkpt lat="49.61778" lon="-1.23151">
        <ele>7.283582</ele>
        <time>2022-07-30T14:18:23.000Z</time>
      </trkpt>
      <trkpt lat="49.61776" lon="-1.23143">
        <ele>7.250225</ele>
        <time>2022-07-30T14:18:24.000Z</time>
      </trkpt>
      <trkpt lat="49.61775" lon="-1.23136">
        <ele>7.217021</ele>
        <time>2022-07-30T14:18:25.000Z</time>
      </trkpt>
      <trkpt lat="49.61774" lon="-1.23128">
        <ele>7.184527</ele>
        <time>2022-07-30T14:18:26.000Z</time>
      </trkpt>
      <trkpt lat="49.61774" lon="-1.23121">
        <ele>7.152457</ele>
        <time>2022-07-30T14:18:27.000Z</time>
      </trkpt>
      <trkpt lat="49.61773" lon="-1.23113">
        <ele>7.118279</ele>
        <time>2022-07-30T14:18:28.000Z</time>
      </trkpt>
      <trkpt lat="49.61772" lon="-1.23105">
        <ele>7.084021</ele>
        <time>2022-07-30T14:18:29.000Z</time>
      </trkpt>
      <trkpt lat="49.61771" lon="-1.23097">
        <ele>7.049564</ele>
        <time>2022-07-30T14:18:30.000Z</time>
      </trkpt>
      <trkpt lat="49.6177" lon="-1.23089">
        <ele>7.016237</ele>
        <time>2022-07-30T14:18:31.000Z</time>
      </trkpt>
      <trkpt lat="49.61769" lon="-1.23081">
        <ele>6.982616</ele>
        <time>2022-07-30T14:18:32.000Z</time>
      </trkpt>
      <trkpt lat="49.61768" lon="-1.23073">
        <ele>6.948358</ele>
        <time>2022-07-30T14:18:33.000Z</time>
      </trkpt>
      <trkpt lat="49.61768" lon="-1.23065">
        <ele>6.913339</ele>
        <time>2022-07-30T14:18:34.000Z</time>
      </trkpt>
      <trkpt lat="49.61767" lon="-1.23057">
        <ele>6.877929</ele>
        <time>2022-07-30T14:18:35.000Z</time>
      </trkpt>
      <trkpt lat="49.61766" lon="-1.23049">
        <ele>6.843331</ele>
        <time>2022-07-30T14:18:36.000Z</time>
      </trkpt>
      <trkpt lat="49.61765" lon="-1.23041">
        <ele>6.807506</ele>
        <time>2022-07-30T14:18:37.000Z</time>
      </trkpt>
      <trkpt lat="49.61765" lon="-1.23032">
        <ele>6.772229</ele>
        <time>2022-07-30T14:18:38.000Z</time>
      </trkpt>
      <trkpt lat="49.61764" lon="-1.23024">
        <ele>6.73713</ele>
        <time>2022-07-30T14:18:39.000Z</time>
      </trkpt>
      <trkpt lat="49.61764" lon="-1.23016">
        <ele>6.702332</ele>
        <time>2022-07-30T14:18:40.000Z</time>
      </trkpt>
      <trkpt lat="49.61763" lon="-1.23008">
        <ele>6.66871</ele>
        <time>2022-07-30T14:18:41.000Z</time>
      </trkpt>
      <trkpt lat="49.61762" lon="-1.23001">
        <ele>6.636554</ele>
        <time>2022-07-30T14:18:42.000Z</time>
      </trkpt>
      <trkpt lat="49.61762" lon="-1.22993">
        <ele>6.603642</ele>
        <time>2022-07-30T14:18:43.000Z</time>
      </trkpt>
      <trkpt lat="49.6176" lon="-1.22985">
        <ele>6.570285</ele>
        <time>2022-07-30T14:18:44.000Z</time>
      </trkpt>
      <trkpt lat="49.6176" lon="-1.22978">
        <ele>6.548456</ele>
        <time>2022-07-30T14:18:45.000Z</time>
      </trkpt>
      <trkpt lat="49.61759" lon="-1.2297">
        <ele>6.564706</ele>
        <time>2022-07-30T14:18:46.000Z</time>
      </trkpt>
      <trkpt lat="49.61758" lon="-1.22963">
        <ele>6.580446</ele>
        <time>2022-07-30T14:18:47.000Z</time>
      </trkpt>
      <trkpt lat="49.61757" lon="-1.22956">
        <ele>6.595225</ele>
        <time>2022-07-30T14:18:48.000Z</time>
      </trkpt>
      <trkpt lat="49.61757" lon="-1.22949">
        <ele>6.610168</ele>
        <time>2022-07-30T14:18:49.000Z</time>
      </trkpt>
      <trkpt lat="49.61756" lon="-1.22943">
        <ele>6.623299</ele>
        <time>2022-07-30T14:18:50.000Z</time>
      </trkpt>
      <trkpt lat="49.61755" lon="-1.22938">
        <ele>6.635865</ele>
        <time>2022-07-30T14:18:51.000Z</time>
      </trkpt>
      <trkpt lat="49.61754" lon="-1.22933">
        <ele>6.646216</ele>
        <time>2022-07-30T14:18:52.000Z</time>
      </trkpt>
      <trkpt lat="49.61753" lon="-1.2293">
        <ele>6.654716</ele>
        <time>2022-07-30T14:18:53.000Z</time>
      </trkpt>
      <trkpt lat="49.61752" lon="-1.22927">
        <ele>6.661391</ele>
        <time>2022-07-30T14:18:54.000Z</time>
      </trkpt>
      <trkpt lat="49.61751" lon="-1.22925">
        <ele>6.667626</ele>
        <time>2022-07-30T14:18:55.000Z</time>
      </trkpt>
      <trkpt lat="49.61749" lon="-1.22922">
        <ele>6.677351</ele>
        <time>2022-07-30T14:18:57.000Z</time>
      </trkpt>
      <trkpt lat="49.61746" lon="-1.2292">
        <ele>6.685623</ele>
        <time>2022-07-30T14:19:00.000Z</time>
      </trkpt>
      <trkpt lat="49.61748" lon="-1.22915">
        <ele>6.698564</ele>
        <time>2022-07-30T14:19:18.000Z</time>
      </trkpt>
      <trkpt lat="49.61692" lon="-1.22932">
        <ele>6.886599</ele>
        <time>2022-07-30T14:20:26.000Z</time>
      </trkpt>
      <trkpt lat="49.61689" lon="-1.22933">
        <ele>6.897255</ele>
        <time>2022-07-30T14:20:27.000Z</time>
      </trkpt>
      <trkpt lat="49.61687" lon="-1.22933">
        <ele>6.904923</ele>
        <time>2022-07-30T14:20:28.000Z</time>
      </trkpt>
      <trkpt lat="49.61684" lon="-1.22934">
        <ele>6.915544</ele>
        <time>2022-07-30T14:20:29.000Z</time>
      </trkpt>
      <trkpt lat="49.61681" lon="-1.22933">
        <ele>6.923838</ele>
        <time>2022-07-30T14:20:30.000Z</time>
      </trkpt>
      <trkpt lat="49.61678" lon="-1.22934">
        <ele>6.932462</ele>
        <time>2022-07-30T14:20:31.000Z</time>
      </trkpt>
      <trkpt lat="49.61675" lon="-1.22934">
        <ele>6.943072</ele>
        <time>2022-07-30T14:20:32.000Z</time>
      </trkpt>
      <trkpt lat="49.61672" lon="-1.22934">
        <ele>6.952701</ele>
        <time>2022-07-30T14:20:33.000Z</time>
      </trkpt>
      <trkpt lat="49.61669" lon="-1.22934">
        <ele>6.963323</ele>
        <time>2022-07-30T14:20:34.000Z</time>
      </trkpt>
      <trkpt lat="49.61666" lon="-1.22934">
        <ele>6.972933</ele>
        <time>2022-07-30T14:20:35.000Z</time>
      </trkpt>
      <trkpt lat="49.61663" lon="-1.22934">
        <ele>6.983543</ele>
        <time>2022-07-30T14:20:36.000Z</time>
      </trkpt>
      <trkpt lat="49.6166" lon="-1.22934">
        <ele>6.995156</ele>
        <time>2022-07-30T14:20:37.000Z</time>
      </trkpt>
      <trkpt lat="49.61657" lon="-1.22935">
        <ele>7.004773</ele>
        <time>2022-07-30T14:20:38.000Z</time>
      </trkpt>
      <trkpt lat="49.61653" lon="-1.22934">
        <ele>7.015383</ele>
        <time>2022-07-30T14:20:39.000Z</time>
      </trkpt>
      <trkpt lat="49.6165" lon="-1.22934">
        <ele>7.026004</ele>
        <time>2022-07-30T14:20:40.000Z</time>
      </trkpt>
      <trkpt lat="49.61647" lon="-1.22934">
        <ele>7.03666</ele>
        <time>2022-07-30T14:20:41.000Z</time>
      </trkpt>
      <trkpt lat="49.61644" lon="-1.22933">
        <ele>7.0474</ele>
        <time>2022-07-30T14:20:42.000Z</time>
      </trkpt>
      <trkpt lat="49.61641" lon="-1.22932">
        <ele>7.058176</ele>
        <time>2022-07-30T14:20:43.000Z</time>
      </trkpt>
      <trkpt lat="49.61637" lon="-1.22931">
        <ele>7.068855</ele>
        <time>2022-07-30T14:20:44.000Z</time>
      </trkpt>
      <trkpt lat="49.61634" lon="-1.2293">
        <ele>7.080648</ele>
        <time>2022-07-30T14:20:45.000Z</time>
      </trkpt>
      <trkpt lat="49.61631" lon="-1.22929">
        <ele>7.090448</ele>
        <time>2022-07-30T14:20:46.000Z</time>
      </trkpt>
      <trkpt lat="49.61628" lon="-1.22928">
        <ele>7.10224</ele>
        <time>2022-07-30T14:20:47.000Z</time>
      </trkpt>
      <trkpt lat="49.61625" lon="-1.22928">
        <ele>7.111934</ele>
        <time>2022-07-30T14:20:48.000Z</time>
      </trkpt>
      <trkpt lat="49.61621" lon="-1.22927">
        <ele>7.123689</ele>
        <time>2022-07-30T14:20:49.000Z</time>
      </trkpt>
      <trkpt lat="49.61618" lon="-1.22926">
        <ele>7.134428</ele>
        <time>2022-07-30T14:20:50.000Z</time>
      </trkpt>
      <trkpt lat="49.61615" lon="-1.22926">
        <ele>7.140512</ele>
        <time>2022-07-30T14:20:51.000Z</time>
      </trkpt>
      <trkpt lat="49.61612" lon="-1.22925">
        <ele>7.139674</ele>
        <time>2022-07-30T14:20:52.000Z</time>
      </trkpt>
      <trkpt lat="49.6161" lon="-1.22925">
        <ele>7.138996</ele>
        <time>2022-07-30T14:20:53.000Z</time>
      </trkpt>
      <trkpt lat="49.61607" lon="-1.22925">
        <ele>7.138318</ele>
        <time>2022-07-30T14:20:54.000Z</time>
      </trkpt>
      <trkpt lat="49.61604" lon="-1.22925">
        <ele>7.137588</ele>
        <time>2022-07-30T14:20:55.000Z</time>
      </trkpt>
      <trkpt lat="49.61602" lon="-1.22925">
        <ele>7.136988</ele>
        <time>2022-07-30T14:20:56.000Z</time>
      </trkpt>
      <trkpt lat="49.61599" lon="-1.22925">
        <ele>7.136336</ele>
        <time>2022-07-30T14:20:57.000Z</time>
      </trkpt>
      <trkpt lat="49.61597" lon="-1.22925">
        <ele>7.135814</ele>
        <time>2022-07-30T14:20:58.000Z</time>
      </trkpt>
      <trkpt lat="49.61595" lon="-1.22925">
        <ele>7.135239</ele>
        <time>2022-07-30T14:20:59.000Z</time>
      </trkpt>
      <trkpt lat="49.61593" lon="-1.22925">
        <ele>7.13456</ele>
        <time>2022-07-30T14:21:01.000Z</time>
      </trkpt>
      <trkpt lat="49.61589" lon="-1.22927">
        <ele>7.133518</ele>
        <time>2022-07-30T14:22:50.000Z</time>
      </trkpt>
      <trkpt lat="49.61591" lon="-1.22925">
        <ele>7.132768</ele>
        <time>2022-07-30T14:22:54.000Z</time>
      </trkpt>
      <trkpt lat="49.61595" lon="-1.22926">
        <ele>7.131774</ele>
        <time>2022-07-30T14:22:56.000Z</time>
      </trkpt>
      <trkpt lat="49.61597" lon="-1.22926">
        <ele>7.131196</ele>
        <time>2022-07-30T14:22:57.000Z</time>
      </trkpt>
      <trkpt lat="49.61601" lon="-1.22926">
        <ele>7.130361</ele>
        <time>2022-07-30T14:22:58.000Z</time>
      </trkpt>
      <trkpt lat="49.61603" lon="-1.22926">
        <ele>7.129682</ele>
        <time>2022-07-30T14:22:59.000Z</time>
      </trkpt>
      <trkpt lat="49.61606" lon="-1.22925">
        <ele>7.128923</ele>
        <time>2022-07-30T14:23:00.000Z</time>
      </trkpt>
      <trkpt lat="49.6115" lon="-1.23595">
        <ele>7.694414</ele>
        <time>2022-07-30T14:28:08.000Z</time>
      </trkpt>
      <trkpt lat="49.61147" lon="-1.236">
        <ele>7.716266</ele>
        <time>2022-07-30T14:28:09.000Z</time>
      </trkpt>
      <trkpt lat="49.61144" lon="-1.23604">
        <ele>7.737925</ele>
        <time>2022-07-30T14:28:10.000Z</time>
      </trkpt>
      <trkpt lat="49.61142" lon="-1.2361">
        <ele>7.758929</ele>
        <time>2022-07-30T14:28:11.000Z</time>
      </trkpt>
      <trkpt lat="49.61139" lon="-1.23615">
        <ele>7.782593</ele>
        <time>2022-07-30T14:28:12.000Z</time>
      </trkpt>
      <trkpt lat="49.61137" lon="-1.23621">
        <ele>7.804163</ele>
        <time>2022-07-30T14:28:13.000Z</time>
      </trkpt>
      <trkpt lat="49.61134" lon="-1.23626">
        <ele>7.827425</ele>
        <time>2022-07-30T14:28:14.000Z</time>
      </trkpt>
      <trkpt lat="49.61133" lon="-1.23632">
        <ele>7.849711</ele>
        <time>2022-07-30T14:28:15.000Z</time>
      </trkpt>
      <trkpt lat="49.61131" lon="-1.23638">
        <ele>7.8714</ele>
        <time>2022-07-30T14:28:16.000Z</time>
      </trkpt>
      <trkpt lat="49.61129" lon="-1.23644">
        <ele>7.893917</ele>
        <time>2022-07-30T14:28:17.000Z</time>
      </trkpt>
      <trkpt lat="49.61127" lon="-1.2365">
        <ele>7.915569</ele>
        <time>2022-07-30T14:28:18.000Z</time>
      </trkpt>
      <trkpt lat="49.61126" lon="-1.23656">
        <ele>7.920785</ele>
        <time>2022-07-30T14:28:19.000Z</time>
      </trkpt>
      <trkpt lat="49.61125" lon="-1.23662">
        <ele>7.909894</ele>
        <time>2022-07-30T14:28:20.000Z</time>
      </trkpt>
      <trkpt lat="49.61125" lon="-1.23668">
        <ele>7.899535</ele>
        <time>2022-07-30T14:28:21.000Z</time>
      </trkpt>
      <trkpt lat="49.61124" lon="-1.23675">
        <ele>7.888537</ele>
        <time>2022-07-30T14:28:22.000Z</time>
      </trkpt>
      <trkpt lat="49.61123" lon="-1.23681">
        <ele>7.878086</ele>
        <time>2022-07-30T14:28:23.000Z</time>
      </trkpt>
      <trkpt lat="49.61123" lon="-1.23687">
        <ele>7.867384</ele>
        <time>2022-07-30T14:28:24.000Z</time>
      </trkpt>
      <trkpt lat="49.61122" lon="-1.23693">
        <ele>7.856552</ele>
        <time>2022-07-30T14:28:25.000Z</time>
      </trkpt>
      <trkpt lat="49.61121" lon="-1.23699">
        <ele>7.84585</ele>
        <time>2022-07-30T14:28:26.000Z</time>
      </trkpt>
      <trkpt lat="49.61121" lon="-1.23705">
        <ele>7.835147</ele>
        <time>2022-07-30T14:28:27.000Z</time>
      </trkpt>
      <trkpt lat="49.61121" lon="-1.23711">
        <ele>7.824593</ele>
        <time>2022-07-30T14:28:28.000Z</time>
      </trkpt>
      <trkpt lat="49.6112" lon="-1.23718">
        <ele>7.813376</ele>
        <time>2022-07-30T14:28:29.000Z</time>
      </trkpt>
      <trkpt lat="49.6112" lon="-1.23725">
        <ele>7.801471</ele>
        <time>2022-07-30T14:28:30.000Z</time>
      </trkpt>
      <trkpt lat="49.6112" lon="-1.23732">
        <ele>7.789766</ele>
        <time>2022-07-30T14:28:31.000Z</time>
      </trkpt>
      <trkpt lat="49.61119" lon="-1.23738">
        <ele>7.777952</ele>
        <time>2022-07-30T14:28:32.000Z</time>
      </trkpt>
      <trkpt lat="49.61119" lon="-1.23745">
        <ele>7.765856</ele>
        <time>2022-07-30T14:28:33.000Z</time>
      </trkpt>
      <trkpt lat="49.61118" lon="-1.23752">
        <ele>7.753871</ele>
        <time>2022-07-30T14:28:34.000Z</time>
      </trkpt>
      <trkpt lat="49.61118" lon="-1.23759">
        <ele>7.742139</ele>
        <time>2022-07-30T14:28:35.000Z</time>
      </trkpt>
      <trkpt lat="49.61117" lon="-1.23766">
        <ele>7.730286</ele>
        <time>2022-07-30T14:28:36.000Z</time>
      </trkpt>
      <trkpt lat="49.61117" lon="-1.23773">
        <ele>7.718382</ele>
        <time>2022-07-30T14:28:37.000Z</time>
      </trkpt>
      <trkpt lat="49.61117" lon="-1.23779">
        <ele>7.706909</ele>
        <time>2022-07-30T14:28:38.000Z</time>
      </trkpt>
      <trkpt lat="49.61116" lon="-1.23786">
        <ele>7.695863</ele>
        <time>2022-07-30T14:28:39.000Z</time>
      </trkpt>
      <trkpt lat="49.61116" lon="-1.23792">
        <ele>7.684521</ele>
        <time>2022-07-30T14:28:40.000Z</time>
      </trkpt>
      <trkpt lat="49.61116" lon="-1.23799">
        <ele>7.67316</ele>
        <time>2022-07-30T14:28:41.000Z</time>
      </trkpt>
      <trkpt lat="49.61115" lon="-1.23806">
        <ele>7.661599</ele>
        <time>2022-07-30T14:28:42.000Z</time>
      </trkpt>
      <trkpt lat="49.61115" lon="-1.23812">
        <ele>7.650724</ele>
        <time>2022-07-30T14:28:43.000Z</time>
      </trkpt>
      <trkpt lat="49.61115" lon="-1.23818">
        <ele>7.640022</ele>
        <time>2022-07-30T14:28:44.000Z</time>
      </trkpt>
      <trkpt lat="49.61114" lon="-1.23825">
        <ele>7.628782</ele>
        <time>2022-07-30T14:28:45.000Z</time>
      </trkpt>
      <trkpt lat="49.61113" lon="-1.23831">
        <ele>7.617677</ele>
        <time>2022-07-30T14:28:46.000Z</time>
      </trkpt>
      <trkpt lat="49.61113" lon="-1.23837">
        <ele>7.606975</ele>
        <time>2022-07-30T14:28:47.000Z</time>
      </trkpt>
      <trkpt lat="49.61113" lon="-1.23843">
        <ele>7.596249</ele>
        <time>2022-07-30T14:28:48.000Z</time>
      </trkpt>
      <trkpt lat="49.61112" lon="-1.23849">
        <ele>7.585718</ele>
        <time>2022-07-30T14:28:49.000Z</time>
      </trkpt>
      <trkpt lat="49.61112" lon="-1.23855">
        <ele>7.575268</ele>
        <time>2022-07-30T14:28:50.000Z</time>
      </trkpt>
      <trkpt lat="49.61112" lon="-1.23861">
        <ele>7.565111</ele>
        <time>2022-07-30T14:28:51.000Z</time>
      </trkpt>
      <trkpt lat="49.61112" lon="-1.23867">
        <ele>7.555644</ele>
        <time>2022-07-30T14:28:52.000Z</time>
      </trkpt>
      <trkpt lat="49.61112" lon="-1.23872">
        <ele>7.546864</ele>
        <time>2022-07-30T14:28:53.000Z</time>
      </trkpt>
      <trkpt lat="49.61112" lon="-1.23877">
        <ele>7.537569</ele>
        <time>2022-07-30T14:28:54.000Z</time>
      </trkpt>
      <trkpt lat="49.61112" lon="-1.23882">
        <ele>7.529306</ele>
        <time>2022-07-30T14:28:55.000Z</time>
      </trkpt>
      <trkpt lat="49.61112" lon="-1.23887">
        <ele>7.52156</ele>
        <time>2022-07-30T14:28:56.000Z</time>
      </trkpt>
      <trkpt lat="49.61112" lon="-1.23891">
        <ele>7.51433</ele>
        <time>2022-07-30T14:28:57.000Z</time>
      </trkpt>
      <trkpt lat="49.61112" lon="-1.23895">
        <ele>7.507262</ele>
        <time>2022-07-30T14:28:58.000Z</time>
      </trkpt>
      <trkpt lat="49.61112" lon="-1.23898">
        <ele>7.50103</ele>
        <time>2022-07-30T14:28:59.000Z</time>
      </trkpt>
      <trkpt lat="49.61112" lon="-1.23902">
        <ele>7.495349</ele>
        <time>2022-07-30T14:29:00.000Z</time>
      </trkpt>
      <trkpt lat="49.61111" lon="-1.23905">
        <ele>7.488759</ele>
        <time>2022-07-30T14:29:01.000Z</time>
      </trkpt>
      <trkpt lat="49.61111" lon="-1.23909">
        <ele>7.481793</ele>
        <time>2022-07-30T14:29:02.000Z</time>
      </trkpt>
      <trkpt lat="49.61111" lon="-1.23914">
        <ele>7.474391</ele>
        <time>2022-07-30T14:29:03.000Z</time>
      </trkpt>
      <trkpt lat="49.61111" lon="-1.23919">
        <ele>7.465784</ele>
        <time>2022-07-30T14:29:04.000Z</time>
      </trkpt>
      <trkpt lat="49.61111" lon="-1.23924">
        <ele>7.456316</ele>
        <time>2022-07-30T14:29:05.000Z</time>
      </trkpt>
      <trkpt lat="49.61111" lon="-1.2393">
        <ele>7.44695</ele>
        <time>2022-07-30T14:29:06.000Z</time>
      </trkpt>
      <trkpt lat="49.61111" lon="-1.23936">
        <ele>7.439189</ele>
        <time>2022-07-30T14:29:07.000Z</time>
      </trkpt>
      <trkpt lat="49.61111" lon="-1.23942">
        <ele>7.430869</ele>
        <time>2022-07-30T14:29:08.000Z</time>
      </trkpt>
      <trkpt lat="49.61111" lon="-1.23948">
        <ele>7.422416</ele>
        <time>2022-07-30T14:29:09.000Z</time>
      </trkpt>
      <trkpt lat="49.61111" lon="-1.23954">
        <ele>7.414096</ele>
        <time>2022-07-30T14:29:10.000Z</time>
      </trkpt>
      <trkpt lat="49.61111" lon="-1.23961">
        <ele>7.405243</ele>
        <time>2022-07-30T14:29:11.000Z</time>
      </trkpt>
      <trkpt lat="49.61111" lon="-1.23967">
        <ele>7.396656</ele>
        <time>2022-07-30T14:29:12.000Z</time>
      </trkpt>
      <trkpt lat="49.61111" lon="-1.23974">
        <ele>7.387919</ele>
        <time>2022-07-30T14:29:13.000Z</time>
      </trkpt>
      <trkpt lat="49.61111" lon="-1.2398">
        <ele>7.379087</ele>
        <time>2022-07-30T14:29:14.000Z</time>
      </trkpt>
      <trkpt lat="49.61111" lon="-1.23987">
        <ele>7.369854</ele>
        <time>2022-07-30T14:29:15.000Z</time>
      </trkpt>
      <trkpt lat="49.61111" lon="-1.23994">
        <ele>7.360754</ele>
        <time>2022-07-30T14:29:16.000Z</time>
      </trkpt>
      <trkpt lat="49.61112" lon="-1.24001">
        <ele>7.351367</ele>
        <time>2022-07-30T14:29:17.000Z</time>
      </trkpt>
      <trkpt lat="49.61112" lon="-1.24008">
        <ele>7.342</ele>
        <time>2022-07-30T14:29:18.000Z</time>
      </trkpt>
      <trkpt lat="49.61113" lon="-1.24015">
        <ele>7.332713</ele>
        <time>2022-07-30T14:29:19.000Z</time>
      </trkpt>
      <trkpt lat="49.61113" lon="-1.24022">
        <ele>7.323078</ele>
        <time>2022-07-30T14:29:20.000Z</time>
      </trkpt>
      <trkpt lat="49.61113" lon="-1.24029">
        <ele>7.313674</ele>
        <time>2022-07-30T14:29:21.000Z</time>
      </trkpt>
      <trkpt lat="49.61113" lon="-1.24036">
        <ele>7.30404</ele>
        <time>2022-07-30T14:29:22.000Z</time>
      </trkpt>
      <trkpt lat="49.61113" lon="-1.24043">
        <ele>7.294539</ele>
        <time>2022-07-30T14:29:23.000Z</time>
      </trkpt>
      <trkpt lat="49.61113" lon="-1.24051">
        <ele>7.284235</ele>
        <time>2022-07-30T14:29:24.000Z</time>
      </trkpt>
      <trkpt lat="49.61113" lon="-1.24058">
        <ele>7.274466</ele>
        <time>2022-07-30T14:29:25.000Z</time>
      </trkpt>
      <trkpt lat="49.61113" lon="-1.24066">
        <ele>7.264163</ele>
        <time>2022-07-30T14:29:26.000Z</time>
      </trkpt>
      <trkpt lat="49.61113" lon="-1.24074">
        <ele>7.253707</ele>
        <time>2022-07-30T14:29:27.000Z</time>
      </trkpt>
      <trkpt lat="49.61114" lon="-1.24082">
        <ele>7.243117</ele>
        <time>2022-07-30T14:29:28.000Z</time>
      </trkpt>
      <trkpt lat="49.61114" lon="-1.2409">
        <ele>7.232606</ele>
        <time>2022-07-30T14:29:29.000Z</time>
      </trkpt>
      <trkpt lat="49.61115" lon="-1.24097">
        <ele>7.222269</ele>
        <time>2022-07-30T14:29:30.000Z</time>
      </trkpt>
      <trkpt lat="49.61115" lon="-1.24105">
        <ele>7.212233</ele>
        <time>2022-07-30T14:29:31.000Z</time>
      </trkpt>
      <trkpt lat="49.61115" lon="-1.24112">
        <ele>7.202465</ele>
        <time>2022-07-30T14:29:32.000Z</time>
      </trkpt>
      <trkpt lat="49.61115" lon="-1.24119">
        <ele>7.192696</ele>
        <time>2022-07-30T14:29:33.000Z</time>
      </trkpt>
      <trkpt lat="49.61115" lon="-1.24127">
        <ele>7.183042</ele>
        <time>2022-07-30T14:29:34.000Z</time>
      </trkpt>
      <trkpt lat="49.61115" lon="-1.24134">
        <ele>7.173675</ele>
        <time>2022-07-30T14:29:35.000Z</time>
      </trkpt>
      <trkpt lat="49.61115" lon="-1.2414">
        <ele>7.165355</ele>
        <time>2022-07-30T14:29:36.000Z</time>
      </trkpt>
      <trkpt lat="49.61115" lon="-1.24146">
        <ele>7.157192</ele>
        <time>2022-07-30T14:29:37.000Z</time>
      </trkpt>
      <trkpt lat="49.61114" lon="-1.24152">
        <ele>7.149121</ele>
        <time>2022-07-30T14:29:38.000Z</time>
      </trkpt>
      <trkpt lat="49.61114" lon="-1.24158">
        <ele>7.140732</ele>
        <time>2022-07-30T14:29:39.000Z</time>
      </trkpt>
      <trkpt lat="49.61113" lon="-1.24164">
        <ele>7.132679</ele>
        <time>2022-07-30T14:29:40.000Z</time>
      </trkpt>
      <trkpt lat="49.61113" lon="-1.2417">
        <ele>7.124383</ele>
        <time>2022-07-30T14:29:41.000Z</time>
      </trkpt>
      <trkpt lat="49.61113" lon="-1.24177">
        <ele>7.115663</ele>
        <time>2022-07-30T14:29:42.000Z</time>
      </trkpt>
      <trkpt lat="49.61113" lon="-1.24183">
        <ele>7.107233</ele>
        <time>2022-07-30T14:29:43.000Z</time>
      </trkpt>
      <trkpt lat="49.61113" lon="-1.24189">
        <ele>7.098762</ele>
        <time>2022-07-30T14:29:44.000Z</time>
      </trkpt>
      <trkpt lat="49.61112" lon="-1.24196">
        <ele>7.090442</ele>
        <time>2022-07-30T14:29:45.000Z</time>
      </trkpt>
      <trkpt lat="49.61112" lon="-1.24202">
        <ele>7.082413</ele>
        <time>2022-07-30T14:29:46.000Z</time>
      </trkpt>
      <trkpt lat="49.61112" lon="-1.24207">
        <ele>7.077641</ele>
        <time>2022-07-30T14:29:47.000Z</time>
      </trkpt>
      <trkpt lat="49.61112" lon="-1.24213">
        <ele>7.079499</ele>
        <time>2022-07-30T14:29:48.000Z</time>
      </trkpt>
      <trkpt lat="49.61112" lon="-1.24219">
        <ele>7.081357</ele>
        <time>2022-07-30T14:29:49.000Z</time>
      </trkpt>
      <trkpt lat="49.61113" lon="-1.24226">
        <ele>7.083384</ele>
        <time>2022-07-30T14:29:50.000Z</time>
      </trkpt>
      <trkpt lat="49.61113" lon="-1.24232">
        <ele>7.085424</ele>
        <time>2022-07-30T14:29:51.000Z</time>
      </trkpt>
      <trkpt lat="49.61115" lon="-1.24238">
        <ele>7.087433</ele>
        <time>2022-07-30T14:29:52.000Z</time>
      </trkpt>
      <trkpt lat="49.61117" lon="-1.24244">
        <ele>7.0895</ele>
        <time>2022-07-30T14:29:53.000Z</time>
      </trkpt>
      <trkpt lat="49.61119" lon="-1.2425">
        <ele>7.091568</ele>
        <time>2022-07-30T14:29:54.000Z</time>
      </trkpt>
      <trkpt lat="49.61121" lon="-1.24256">
        <ele>7.093525</ele>
        <time>2022-07-30T14:29:55.000Z</time>
      </trkpt>
      <trkpt lat="49.61123" lon="-1.24262">
        <ele>7.095604</ele>
        <time>2022-07-30T14:29:56.000Z</time>
      </trkpt>
      <trkpt lat="49.61125" lon="-1.24267">
        <ele>7.097552</ele>
        <time>2022-07-30T14:29:57.000Z</time>
      </trkpt>
      <trkpt lat="49.61127" lon="-1.24272">
        <ele>7.099482</ele>
        <time>2022-07-30T14:29:58.000Z</time>
      </trkpt>
      <trkpt lat="49.61129" lon="-1.24277">
        <ele>7.10138</ele>
        <time>2022-07-30T14:29:59.000Z</time>
      </trkpt>
      <trkpt lat="49.61132" lon="-1.24283">
        <ele>7.103355</ele>
        <time>2022-07-30T14:30:00.000Z</time>
      </trkpt>
      <trkpt lat="49.61134" lon="-1.24288">
        <ele>7.105387</ele>
        <time>2022-07-30T14:30:01.000Z</time>
      </trkpt>
      <trkpt lat="49.61137" lon="-1.24293">
        <ele>7.107372</ele>
        <time>2022-07-30T14:30:02.000Z</time>
      </trkpt>
      <trkpt lat="49.6114" lon="-1.24298">
        <ele>7.109376</ele>
        <time>2022-07-30T14:30:03.000Z</time>
      </trkpt>
      <trkpt lat="49.61142" lon="-1.24303">
        <ele>7.111477</ele>
        <time>2022-07-30T14:30:04.000Z</time>
      </trkpt>
      <trkpt lat="49.61145" lon="-1.24308">
        <ele>7.113452</ele>
        <time>2022-07-30T14:30:05.000Z</time>
      </trkpt>
      <trkpt lat="49.61147" lon="-1.24313">
        <ele>7.115376</ele>
        <time>2022-07-30T14:30:06.000Z</time>
      </trkpt>
      <trkpt lat="49.61149" lon="-1.24319">
        <ele>7.11735</ele>
        <time>2022-07-30T14:30:07.000Z</time>
      </trkpt>
      <trkpt lat="49.61152" lon="-1.24324">
        <ele>7.119382</ele>
        <time>2022-07-30T14:30:08.000Z</time>
      </trkpt>
      <trkpt lat="49.61154" lon="-1.24329">
        <ele>7.121253</ele>
        <time>2022-07-30T14:30:09.000Z</time>
      </trkpt>
      <trkpt lat="49.61157" lon="-1.24333">
        <ele>7.123175</ele>
        <time>2022-07-30T14:30:10.000Z</time>
      </trkpt>
      <trkpt lat="49.6116" lon="-1.24337">
        <ele>7.125182</ele>
        <time>2022-07-30T14:30:11.000Z</time>
      </trkpt>
      <trkpt lat="49.61163" lon="-1.24341">
        <ele>7.12704</ele>
        <time>2022-07-30T14:30:12.000Z</time>
      </trkpt>
      <trkpt lat="49.61166" lon="-1.24345">
        <ele>7.128799</ele>
        <time>2022-07-30T14:30:13.000Z</time>
      </trkpt>
      <trkpt lat="49.61169" lon="-1.24348">
        <ele>7.130502</ele>
        <time>2022-07-30T14:30:14.000Z</time>
      </trkpt>
      <trkpt lat="49.61172" lon="-1.24351">
        <ele>7.132186</ele>
        <time>2022-07-30T14:30:15.000Z</time>
      </trkpt>
      <trkpt lat="49.61174" lon="-1.24354">
        <ele>7.133775</ele>
        <time>2022-07-30T14:30:16.000Z</time>
      </trkpt>
      <trkpt lat="49.61178" lon="-1.24357">
        <ele>7.13558</ele>
        <time>2022-07-30T14:30:17.000Z</time>
      </trkpt>
      <trkpt lat="49.6118" lon="-1.24361">
        <ele>7.137169</ele>
        <time>2022-07-30T14:30:18.000Z</time>
      </trkpt>
      <trkpt lat="49.61183" lon="-1.24364">
        <ele>7.138721</ele>
        <time>2022-07-30T14:30:19.000Z</time>
      </trkpt>
      <trkpt lat="49.61186" lon="-1.24367">
        <ele>7.140406</ele>
        <time>2022-07-30T14:30:20.000Z</time>
      </trkpt>
      <trkpt lat="49.61188" lon="-1.2437">
        <ele>7.142034</ele>
        <time>2022-07-30T14:30:21.000Z</time>
      </trkpt>
      <trkpt lat="49.61191" lon="-1.24373">
        <ele>7.143681</ele>
        <time>2022-07-30T14:30:22.000Z</time>
      </trkpt>
      <trkpt lat="49.61194" lon="-1.24377">
        <ele>7.145537</ele>
        <time>2022-07-30T14:30:23.000Z</time>
      </trkpt>
      <trkpt lat="49.61197" lon="-1.2438">
        <ele>7.147145</ele>
        <time>2022-07-30T14:30:24.000Z</time>
      </trkpt>
      <trkpt lat="49.612" lon="-1.24384">
        <ele>7.149113</ele>
        <time>2022-07-30T14:30:25.000Z</time>
      </trkpt>
      <trkpt lat="49.61203" lon="-1.24388">
        <ele>7.150872</ele>
        <time>2022-07-30T14:30:26.000Z</time>
      </trkpt>
      <trkpt lat="49.61206" lon="-1.24391">
        <ele>7.152782</ele>
        <time>2022-07-30T14:30:27.000Z</time>
      </trkpt>
      <trkpt lat="49.61208" lon="-1.24395">
        <ele>7.15436</ele>
        <time>2022-07-30T14:30:28.000Z</time>
      </trkpt>
      <trkpt lat="49.61211" lon="-1.24399">
        <ele>7.156086</ele>
        <time>2022-07-30T14:30:29.000Z</time>
      </trkpt>
      <trkpt lat="49.61213" lon="-1.24404">
        <ele>7.157881</ele>
        <time>2022-07-30T14:30:30.000Z</time>
      </trkpt>
      <trkpt lat="49.61215" lon="-1.24409">
        <ele>7.159866</ele>
        <time>2022-07-30T14:30:31.000Z</time>
      </trkpt>
      <trkpt lat="49.61218" lon="-1.24414">
        <ele>7.161871</ele>
        <time>2022-07-30T14:30:32.000Z</time>
      </trkpt>
      <trkpt lat="49.61221" lon="-1.24419">
        <ele>7.165054</ele>
        <time>2022-07-30T14:30:33.000Z</time>
      </trkpt>
      <trkpt lat="49.61223" lon="-1.24424">
        <ele>7.170158</ele>
        <time>2022-07-30T14:30:34.000Z</time>
      </trkpt>
      <trkpt lat="49.61226" lon="-1.24429">
        <ele>7.175356</ele>
        <time>2022-07-30T14:30:35.000Z</time>
      </trkpt>
      <trkpt lat="49.61229" lon="-1.24433">
        <ele>7.180157</ele>
        <time>2022-07-30T14:30:36.000Z</time>
      </trkpt>
      <trkpt lat="49.61232" lon="-1.24438">
        <ele>7.185685</ele>
        <time>2022-07-30T14:30:37.000Z</time>
      </trkpt>
      <trkpt lat="49.61235" lon="-1.24444">
        <ele>7.191326</ele>
        <time>2022-07-30T14:30:38.000Z</time>
      </trkpt>
      <trkpt lat="49.61238" lon="-1.24449">
        <ele>7.196604</ele>
        <time>2022-07-30T14:30:39.000Z</time>
      </trkpt>
      <trkpt lat="49.61241" lon="-1.24453">
        <ele>7.201966</ele>
        <time>2022-07-30T14:30:40.000Z</time>
      </trkpt>
      <trkpt lat="49.61245" lon="-1.24458">
        <ele>7.207494</ele>
        <time>2022-07-30T14:30:41.000Z</time>
      </trkpt>
      <trkpt lat="49.61248" lon="-1.24463">
        <ele>7.213021</ele>
        <time>2022-07-30T14:30:42.000Z</time>
      </trkpt>
      <trkpt lat="49.61251" lon="-1.24468">
        <ele>7.218299</ele>
        <time>2022-07-30T14:30:43.000Z</time>
      </trkpt>
      <trkpt lat="49.61253" lon="-1.24473">
        <ele>7.223497</ele>
        <time>2022-07-30T14:30:44.000Z</time>
      </trkpt>
      <trkpt lat="49.61257" lon="-1.24478">
        <ele>7.229081</ele>
        <time>2022-07-30T14:30:45.000Z</time>
      </trkpt>
      <trkpt lat="49.6126" lon="-1.24483">
        <ele>7.234443</ele>
        <time>2022-07-30T14:30:46.000Z</time>
      </trkpt>
      <trkpt lat="49.61263" lon="-1.24488">
        <ele>7.23986</ele>
        <time>2022-07-30T14:30:47.000Z</time>
      </trkpt>
      <trkpt lat="49.61266" lon="-1.24493">
        <ele>7.244842</ele>
        <time>2022-07-30T14:30:48.000Z</time>
      </trkpt>
      <trkpt lat="49.61269" lon="-1.24498">
        <ele>7.250179</ele>
        <time>2022-07-30T14:30:49.000Z</time>
      </trkpt>
      <trkpt lat="49.61271" lon="-1.24503">
        <ele>7.255575</ele>
        <time>2022-07-30T14:30:50.000Z</time>
      </trkpt>
      <trkpt lat="49.61274" lon="-1.24508">
        <ele>7.260773</ele>
        <time>2022-07-30T14:30:51.000Z</time>
      </trkpt>
      <trkpt lat="49.61278" lon="-1.24513">
        <ele>7.266652</ele>
        <time>2022-07-30T14:30:52.000Z</time>
      </trkpt>
      <trkpt lat="49.61281" lon="-1.24518">
        <ele>7.272068</ele>
        <time>2022-07-30T14:30:53.000Z</time>
      </trkpt>
      <trkpt lat="49.61284" lon="-1.24523">
        <ele>7.277596</ele>
        <time>2022-07-30T14:30:54.000Z</time>
      </trkpt>
      <trkpt lat="49.61287" lon="-1.24528">
        <ele>7.283352</ele>
        <time>2022-07-30T14:30:55.000Z</time>
      </trkpt>
      <trkpt lat="49.6129" lon="-1.24534">
        <ele>7.288701</ele>
        <time>2022-07-30T14:30:56.000Z</time>
      </trkpt>
      <trkpt lat="49.61293" lon="-1.2454">
        <ele>7.294633</ele>
        <time>2022-07-30T14:30:57.000Z</time>
      </trkpt>
      <trkpt lat="49.61296" lon="-1.24545">
        <ele>7.300564</ele>
        <time>2022-07-30T14:30:58.000Z</time>
      </trkpt>
      <trkpt lat="49.613" lon="-1.24551">
        <ele>7.306798</ele>
        <time>2022-07-30T14:30:59.000Z</time>
      </trkpt>
      <trkpt lat="49.61304" lon="-1.24557">
        <ele>7.313318</ele>
        <time>2022-07-30T14:31:00.000Z</time>
      </trkpt>
      <trkpt lat="49.61308" lon="-1.24562">
        <ele>7.319696</ele>
        <time>2022-07-30T14:31:01.000Z</time>
      </trkpt>
      <trkpt lat="49.61311" lon="-1.24568">
        <ele>7.325873</ele>
        <time>2022-07-30T14:31:02.000Z</time>
      </trkpt>
      <trkpt lat="49.61315" lon="-1.24573">
        <ele>7.332458</ele>
        <time>2022-07-30T14:31:03.000Z</time>
      </trkpt>
      <trkpt lat="49.61319" lon="-1.24579">
        <ele>7.338994</ele>
        <time>2022-07-30T14:31:04.000Z</time>
      </trkpt>
      <trkpt lat="49.61324" lon="-1.24584">
        <ele>7.345436</ele>
        <time>2022-07-30T14:31:05.000Z</time>
      </trkpt>
      <trkpt lat="49.61328" lon="-1.24589">
        <ele>7.352076</ele>
        <time>2022-07-30T14:31:06.000Z</time>
      </trkpt>
      <trkpt lat="49.61333" lon="-1.24593">
        <ele>7.359019</ele>
        <time>2022-07-30T14:31:07.000Z</time>
      </trkpt>
      <trkpt lat="49.61337" lon="-1.24598">
        <ele>7.365704</ele>
        <time>2022-07-30T14:31:08.000Z</time>
      </trkpt>
      <trkpt lat="49.61342" lon="-1.24603">
        <ele>7.372435</ele>
        <time>2022-07-30T14:31:09.000Z</time>
      </trkpt>
      <trkpt lat="49.61346" lon="-1.24608">
        <ele>7.378682</ele>
        <time>2022-07-30T14:31:10.000Z</time>
      </trkpt>
      <trkpt lat="49.6135" lon="-1.24613">
        <ele>7.349313</ele>
        <time>2022-07-30T14:31:11.000Z</time>
      </trkpt>
      <trkpt lat="49.61354" lon="-1.24619">
        <ele>7.301594</ele>
        <time>2022-07-30T14:31:12.000Z</time>
      </trkpt>
      <trkpt lat="49.61357" lon="-1.24625">
        <ele>7.253432</ele>
        <time>2022-07-30T14:31:13.000Z</time>
      </trkpt>
      <trkpt lat="49.61361" lon="-1.24632">
        <ele>7.203322</ele>
        <time>2022-07-30T14:31:14.000Z</time>
      </trkpt>
      <trkpt lat="49.61364" lon="-1.24638">
        <ele>7.155259</ele>
        <time>2022-07-30T14:31:15.000Z</time>
      </trkpt>
      <trkpt lat="49.61367" lon="-1.24645">
        <ele>7.106196</ele>
        <time>2022-07-30T14:31:16.000Z</time>
      </trkpt>
      <trkpt lat="49.61369" lon="-1.24652">
        <ele>7.057544</ele>
        <time>2022-07-30T14:31:17.000Z</time>
      </trkpt>
      <trkpt lat="49.61372" lon="-1.2466">
        <ele>7.010057</ele>
        <time>2022-07-30T14:31:18.000Z</time>
      </trkpt>
      <trkpt lat="49.61373" lon="-1.24667">
        <ele>6.962017</ele>
        <time>2022-07-30T14:31:19.000Z</time>
      </trkpt>
      <trkpt lat="49.61375" lon="-1.24675">
        <ele>6.910864</ele>
        <time>2022-07-30T14:31:20.000Z</time>
      </trkpt>
      <trkpt lat="49.61377" lon="-1.24683">
        <ele>6.860716</ele>
        <time>2022-07-30T14:31:21.000Z</time>
      </trkpt>
      <trkpt lat="49.61379" lon="-1.24691">
        <ele>6.809563</ele>
        <time>2022-07-30T14:31:22.000Z</time>
      </trkpt>
      <trkpt lat="49.6138" lon="-1.24699">
        <ele>6.759617</ele>
        <time>2022-07-30T14:31:23.000Z</time>
      </trkpt>
      <trkpt lat="49.61381" lon="-1.24707">
        <ele>6.71005</ele>
        <time>2022-07-30T14:31:24.000Z</time>
      </trkpt>
      <trkpt lat="49.61383" lon="-1.24716">
        <ele>6.658963</ele>
        <time>2022-07-30T14:31:25.000Z</time>
      </trkpt>
      <trkpt lat="49.61385" lon="-1.24724">
        <ele>6.609018</ele>
        <time>2022-07-30T14:31:26.000Z</time>
      </trkpt>
      <trkpt lat="49.61386" lon="-1.24732">
        <ele>6.560414</ele>
        <time>2022-07-30T14:31:27.000Z</time>
      </trkpt>
      <trkpt lat="49.61387" lon="-1.2474">
        <ele>6.511213</ele>
        <time>2022-07-30T14:31:28.000Z</time>
      </trkpt>
      <trkpt lat="49.61389" lon="-1.24747">
        <ele>6.462406</ele>
        <time>2022-07-30T14:31:29.000Z</time>
      </trkpt>
      <trkpt lat="49.6139" lon="-1.24755">
        <ele>6.415302</ele>
        <time>2022-07-30T14:31:30.000Z</time>
      </trkpt>
      <trkpt lat="49.61392" lon="-1.24762">
        <ele>6.369895</ele>
        <time>2022-07-30T14:31:31.000Z</time>
      </trkpt>
      <trkpt lat="49.61393" lon="-1.24769">
        <ele>6.325308</ele>
        <time>2022-07-30T14:31:32.000Z</time>
      </trkpt>
      <trkpt lat="49.61395" lon="-1.24776">
        <ele>6.280464</ele>
        <time>2022-07-30T14:31:33.000Z</time>
      </trkpt>
      <trkpt lat="49.61396" lon="-1.24783">
        <ele>6.237868</ele>
        <time>2022-07-30T14:31:34.000Z</time>
      </trkpt>
      <trkpt lat="49.61397" lon="-1.24789">
        <ele>6.199965</ele>
        <time>2022-07-30T14:31:35.000Z</time>
      </trkpt>
      <trkpt lat="49.61399" lon="-1.24795">
        <ele>6.162783</ele>
        <time>2022-07-30T14:31:36.000Z</time>
      </trkpt>
      <trkpt lat="49.61401" lon="-1.24799">
        <ele>6.131638</ele>
        <time>2022-07-30T14:31:37.000Z</time>
      </trkpt>
      <trkpt lat="49.61401" lon="-1.24803">
        <ele>6.107497</ele>
        <time>2022-07-30T14:31:38.000Z</time>
      </trkpt>
      <trkpt lat="49.61402" lon="-1.24806">
        <ele>6.090567</ele>
        <time>2022-07-30T14:31:39.000Z</time>
      </trkpt>
      <trkpt lat="49.61402" lon="-1.2481">
        <ele>6.069688</ele>
        <time>2022-07-30T14:31:41.000Z</time>
      </trkpt>
      <trkpt lat="49.614" lon="-1.24813">
        <ele>6.046649</ele>
        <time>2022-07-30T14:31:43.000Z</time>
      </trkpt>
      <trkpt lat="49.61399" lon="-1.24814">
        <ele>6.029715</ele>
        <time>2022-07-30T14:31:44.000Z</time>
      </trkpt>
      <trkpt lat="49.61396" lon="-1.24815">
        <ele>5.999869</ele>
        <time>2022-07-30T14:31:46.000Z</time>
      </trkpt>
      <trkpt lat="49.61392" lon="-1.24815">
        <ele>5.964863</ele>
        <time>2022-07-30T14:31:48.000Z</time>
      </trkpt>
      <trkpt lat="49.61388" lon="-1.24817">
        <ele>5.931081</ele>
        <time>2022-07-30T14:31:50.000Z</time>
      </trkpt>
      <trkpt lat="49.61387" lon="-1.24818">
        <ele>5.913845</ele>
        <time>2022-07-30T14:31:51.000Z</time>
      </trkpt>
      <trkpt lat="49.61385" lon="-1.2482">
        <ele>5.892823</ele>
        <time>2022-07-30T14:31:52.000Z</time>
      </trkpt>
      <trkpt lat="49.61383" lon="-1.24821">
        <ele>5.874341</ele>
        <time>2022-07-30T14:31:53.000Z</time>
      </trkpt>
      <trkpt lat="49.61381" lon="-1.24821">
        <ele>5.856596</ele>
        <time>2022-07-30T14:31:54.000Z</time>
      </trkpt>
      <trkpt lat="49.61379" lon="-1.24822">
        <ele>5.836122</ele>
        <time>2022-07-30T14:31:55.000Z</time>
      </trkpt>
      <trkpt lat="49.61376" lon="-1.24823">
        <ele>5.814122</ele>
        <time>2022-07-30T14:31:56.000Z</time>
      </trkpt>
      <trkpt lat="49.61373" lon="-1.24824">
        <ele>5.780978</ele>
        <time>2022-07-30T14:31:57.000Z</time>
      </trkpt>
      <trkpt lat="49.6137" lon="-1.24826">
        <ele>5.755422</ele>
        <time>2022-07-30T14:31:58.000Z</time>
      </trkpt>
      <trkpt lat="49.61367" lon="-1.24827">
        <ele>5.723962</ele>
        <time>2022-07-30T14:31:59.000Z</time>
      </trkpt>
      <trkpt lat="49.61363" lon="-1.24829">
        <ele>5.711471</ele>
        <time>2022-07-30T14:32:00.000Z</time>
      </trkpt>
      <trkpt lat="49.6136" lon="-1.2483">
        <ele>5.698919</ele>
        <time>2022-07-30T14:32:01.000Z</time>
      </trkpt>
      <trkpt lat="49.61356" lon="-1.24832">
        <ele>5.684983</ele>
        <time>2022-07-30T14:32:02.000Z</time>
      </trkpt>
      <trkpt lat="49.61352" lon="-1.24833">
        <ele>5.671598</ele>
        <time>2022-07-30T14:32:03.000Z</time>
      </trkpt>
      <trkpt lat="49.61349" lon="-1.24835">
        <ele>5.65898</ele>
        <time>2022-07-30T14:32:04.000Z</time>
      </trkpt>
      <trkpt lat="49.61345" lon="-1.24837">
        <ele>5.644701</ele>
        <time>2022-07-30T14:32:05.000Z</time>
      </trkpt>
      <trkpt lat="49.61341" lon="-1.24839">
        <ele>5.631032</ele>
        <time>2022-07-30T14:32:06.000Z</time>
      </trkpt>
      <trkpt lat="49.61337" lon="-1.24841">
        <ele>5.617951</ele>
        <time>2022-07-30T14:32:07.000Z</time>
      </trkpt>
      <trkpt lat="49.61333" lon="-1.24844">
        <ele>5.602305</ele>
        <time>2022-07-30T14:32:08.000Z</time>
      </trkpt>
      <trkpt lat="49.61329" lon="-1.24847">
        <ele>5.587419</ele>
        <time>2022-07-30T14:32:09.000Z</time>
      </trkpt>
      <trkpt lat="49.61325" lon="-1.2485">
        <ele>5.57141</ele>
        <time>2022-07-30T14:32:10.000Z</time>
      </trkpt>
      <trkpt lat="49.61321" lon="-1.24854">
        <ele>5.55561</ele>
        <time>2022-07-30T14:32:11.000Z</time>
      </trkpt>
      <trkpt lat="49.61317" lon="-1.24856">
        <ele>5.539877</ele>
        <time>2022-07-30T14:32:12.000Z</time>
      </trkpt>
      <trkpt lat="49.61312" lon="-1.2486">
        <ele>5.521897</ele>
        <time>2022-07-30T14:32:13.000Z</time>
      </trkpt>
      <trkpt lat="49.61308" lon="-1.24862">
        <ele>5.505294</ele>
        <time>2022-07-30T14:32:14.000Z</time>
      </trkpt>
      <trkpt lat="49.61303" lon="-1.24866">
        <ele>5.489393</ele>
        <time>2022-07-30T14:32:15.000Z</time>
      </trkpt>
      <trkpt lat="49.61299" lon="-1.24869">
        <ele>5.472979</ele>
        <time>2022-07-30T14:32:16.000Z</time>
      </trkpt>
      <trkpt lat="49.61295" lon="-1.24873">
        <ele>5.456349</ele>
        <time>2022-07-30T14:32:17.000Z</time>
      </trkpt>
      <trkpt lat="49.61291" lon="-1.24877">
        <ele>5.439669</ele>
        <time>2022-07-30T14:32:18.000Z</time>
      </trkpt>
      <trkpt lat="49.61286" lon="-1.24881">
        <ele>5.420911</ele>
        <time>2022-07-30T14:32:19.000Z</time>
      </trkpt>
      <trkpt lat="49.61282" lon="-1.24886">
        <ele>5.403757</ele>
        <time>2022-07-30T14:32:20.000Z</time>
      </trkpt>
      <trkpt lat="49.61278" lon="-1.24891">
        <ele>5.385842</ele>
        <time>2022-07-30T14:32:21.000Z</time>
      </trkpt>
      <trkpt lat="49.61276" lon="-1.24897">
        <ele>5.369387</ele>
        <time>2022-07-30T14:32:22.000Z</time>
      </trkpt>
      <trkpt lat="49.61274" lon="-1.24904">
        <ele>5.352451</ele>
        <time>2022-07-30T14:32:23.000Z</time>
      </trkpt>
      <trkpt lat="49.61272" lon="-1.24912">
        <ele>5.334508</ele>
        <time>2022-07-30T14:32:24.000Z</time>
      </trkpt>
      <trkpt lat="49.61271" lon="-1.24919">
        <ele>5.317183</ele>
        <time>2022-07-30T14:32:25.000Z</time>
      </trkpt>
      <trkpt lat="49.61271" lon="-1.24927">
        <ele>5.300472</ele>
        <time>2022-07-30T14:32:26.000Z</time>
      </trkpt>
      <trkpt lat="49.61271" lon="-1.24934">
        <ele>5.283761</ele>
        <time>2022-07-30T14:32:27.000Z</time>
      </trkpt>
      <trkpt lat="49.61271" lon="-1.24942">
        <ele>5.266381</ele>
        <time>2022-07-30T14:32:28.000Z</time>
      </trkpt>
      <trkpt lat="49.6127" lon="-1.2495">
        <ele>5.249543</ele>
        <time>2022-07-30T14:32:29.000Z</time>
      </trkpt>
      <trkpt lat="49.6127" lon="-1.24957">
        <ele>5.232355</ele>
        <time>2022-07-30T14:32:30.000Z</time>
      </trkpt>
      <trkpt lat="49.6127" lon="-1.24965">
        <ele>5.21539</ele>
        <time>2022-07-30T14:32:31.000Z</time>
      </trkpt>
      <trkpt lat="49.61269" lon="-1.24972">
        <ele>5.198844</ele>
        <time>2022-07-30T14:32:32.000Z</time>
      </trkpt>
      <trkpt lat="49.61269" lon="-1.24979">
        <ele>5.182991</ele>
        <time>2022-07-30T14:32:33.000Z</time>
      </trkpt>
      <trkpt lat="49.61269" lon="-1.24986">
        <ele>5.167393</ele>
        <time>2022-07-30T14:32:34.000Z</time>
      </trkpt>
      <trkpt lat="49.61269" lon="-1.24993">
        <ele>5.15166</ele>
        <time>2022-07-30T14:32:35.000Z</time>
      </trkpt>
      <trkpt lat="49.61268" lon="-1.25001">
        <ele>5.135438</ele>
        <time>2022-07-30T14:32:36.000Z</time>
      </trkpt>
      <trkpt lat="49.61268" lon="-1.25008">
        <ele>5.11914</ele>
        <time>2022-07-30T14:32:37.000Z</time>
      </trkpt>
      <trkpt lat="49.61267" lon="-1.25015">
        <ele>5.107569</ele>
        <time>2022-07-30T14:32:38.000Z</time>
      </trkpt>
      <trkpt lat="49.61266" lon="-1.25023">
        <ele>5.110476</ele>
        <time>2022-07-30T14:32:39.000Z</time>
      </trkpt>
      <trkpt lat="49.61266" lon="-1.2503">
        <ele>5.113288</ele>
        <time>2022-07-30T14:32:40.000Z</time>
      </trkpt>
      <trkpt lat="49.61266" lon="-1.25037">
        <ele>5.116061</ele>
        <time>2022-07-30T14:32:41.000Z</time>
      </trkpt>
      <trkpt lat="49.61265" lon="-1.25044">
        <ele>5.118756</ele>
        <time>2022-07-30T14:32:42.000Z</time>
      </trkpt>
      <trkpt lat="49.61264" lon="-1.25051">
        <ele>5.121587</ele>
        <time>2022-07-30T14:32:43.000Z</time>
      </trkpt>
      <trkpt lat="49.61264" lon="-1.25058">
        <ele>5.124416</ele>
        <time>2022-07-30T14:32:44.000Z</time>
      </trkpt>
      <trkpt lat="49.61263" lon="-1.25065">
        <ele>5.127292</ele>
        <time>2022-07-30T14:32:45.000Z</time>
      </trkpt>
      <trkpt lat="49.61262" lon="-1.25073">
        <ele>5.13015</ele>
        <time>2022-07-30T14:32:46.000Z</time>
      </trkpt>
      <trkpt lat="49.61262" lon="-1.2508">
        <ele>5.132884</ele>
        <time>2022-07-30T14:32:47.000Z</time>
      </trkpt>
      <trkpt lat="49.61261" lon="-1.25087">
        <ele>5.135721</ele>
        <time>2022-07-30T14:32:48.000Z</time>
      </trkpt>
      <trkpt lat="49.61261" lon="-1.25094">
        <ele>5.138511</ele>
        <time>2022-07-30T14:32:49.000Z</time>
      </trkpt>
      <trkpt lat="49.6126" lon="-1.25101">
        <ele>5.141245</ele>
        <time>2022-07-30T14:32:50.000Z</time>
      </trkpt>
      <trkpt lat="49.6126" lon="-1.25108">
        <ele>5.144061</ele>
        <time>2022-07-30T14:32:51.000Z</time>
      </trkpt>
      <trkpt lat="49.61259" lon="-1.25115">
        <ele>5.14689</ele>
        <time>2022-07-30T14:32:52.000Z</time>
      </trkpt>
      <trkpt lat="49.61259" lon="-1.25122">
        <ele>5.149565</ele>
        <time>2022-07-30T14:32:53.000Z</time>
      </trkpt>
      <trkpt lat="49.61258" lon="-1.25129">
        <ele>5.152303</ele>
        <time>2022-07-30T14:32:54.000Z</time>
      </trkpt>
      <trkpt lat="49.61258" lon="-1.25136">
        <ele>5.155031</ele>
        <time>2022-07-30T14:32:55.000Z</time>
      </trkpt>
      <trkpt lat="49.61258" lon="-1.25143">
        <ele>5.157687</ele>
        <time>2022-07-30T14:32:56.000Z</time>
      </trkpt>
      <trkpt lat="49.61258" lon="-1.2515">
        <ele>5.160382</ele>
        <time>2022-07-30T14:32:57.000Z</time>
      </trkpt>
      <trkpt lat="49.61257" lon="-1.25157">
        <ele>5.163155</ele>
        <time>2022-07-30T14:32:58.000Z</time>
      </trkpt>
      <trkpt lat="49.61257" lon="-1.25164">
        <ele>5.16607</ele>
        <time>2022-07-30T14:32:59.000Z</time>
      </trkpt>
      <trkpt lat="49.61257" lon="-1.25171">
        <ele>5.168837</ele>
        <time>2022-07-30T14:33:00.000Z</time>
      </trkpt>
      <trkpt lat="49.61257" lon="-1.25178">
        <ele>5.171564</ele>
        <time>2022-07-30T14:33:01.000Z</time>
      </trkpt>
      <trkpt lat="49.61257" lon="-1.25186">
        <ele>5.17437</ele>
        <time>2022-07-30T14:33:02.000Z</time>
      </trkpt>
      <trkpt lat="49.61257" lon="-1.25193">
        <ele>5.177176</ele>
        <time>2022-07-30T14:33:03.000Z</time>
      </trkpt>
      <trkpt lat="49.61257" lon="-1.252">
        <ele>5.179943</ele>
        <time>2022-07-30T14:33:04.000Z</time>
      </trkpt>
      <trkpt lat="49.61257" lon="-1.25207">
        <ele>5.182749</ele>
        <time>2022-07-30T14:33:05.000Z</time>
      </trkpt>
      <trkpt lat="49.61257" lon="-1.25214">
        <ele>5.185509</ele>
        <time>2022-07-30T14:33:06.000Z</time>
      </trkpt>
      <trkpt lat="49.61257" lon="-1.25221">
        <ele>5.188315</ele>
        <time>2022-07-30T14:33:07.000Z</time>
      </trkpt>
      <trkpt lat="49.61257" lon="-1.25228">
        <ele>5.191082</ele>
        <time>2022-07-30T14:33:08.000Z</time>
      </trkpt>
      <trkpt lat="49.61258" lon="-1.25236">
        <ele>5.193894</ele>
        <time>2022-07-30T14:33:09.000Z</time>
      </trkpt>
      <trkpt lat="49.61258" lon="-1.25243">
        <ele>5.196822</ele>
        <time>2022-07-30T14:33:10.000Z</time>
      </trkpt>
      <trkpt lat="49.61258" lon="-1.2525">
        <ele>5.199673</ele>
        <time>2022-07-30T14:33:11.000Z</time>
      </trkpt>
      <trkpt lat="49.61259" lon="-1.25258">
        <ele>5.202761</ele>
        <time>2022-07-30T14:33:12.000Z</time>
      </trkpt>
      <trkpt lat="49.61259" lon="-1.25266">
        <ele>5.205744</ele>
        <time>2022-07-30T14:33:13.000Z</time>
      </trkpt>
      <trkpt lat="49.61259" lon="-1.25274">
        <ele>5.208862</ele>
        <time>2022-07-30T14:33:14.000Z</time>
      </trkpt>
      <trkpt lat="49.6126" lon="-1.25282">
        <ele>5.211985</ele>
        <time>2022-07-30T14:33:15.000Z</time>
      </trkpt>
      <trkpt lat="49.6126" lon="-1.2529">
        <ele>5.215059</ele>
        <time>2022-07-30T14:33:16.000Z</time>
      </trkpt>
      <trkpt lat="49.6126" lon="-1.25297">
        <ele>5.217774</ele>
        <time>2022-07-30T14:33:17.000Z</time>
      </trkpt>
      <trkpt lat="49.6126" lon="-1.25305">
        <ele>5.220448</ele>
        <time>2022-07-30T14:33:18.000Z</time>
      </trkpt>
      <trkpt lat="49.6126" lon="-1.25313">
        <ele>5.223309</ele>
        <time>2022-07-30T14:33:19.000Z</time>
      </trkpt>
      <trkpt lat="49.61261" lon="-1.2532">
        <ele>5.226028</ele>
        <time>2022-07-30T14:33:20.000Z</time>
      </trkpt>
      <trkpt lat="49.61261" lon="-1.25328">
        <ele>5.228845</ele>
        <time>2022-07-30T14:33:21.000Z</time>
      </trkpt>
      <trkpt lat="49.61262" lon="-1.25336">
        <ele>5.231547</ele>
        <time>2022-07-30T14:33:22.000Z</time>
      </trkpt>
      <trkpt lat="49.61262" lon="-1.25343">
        <ele>5.234241</ele>
        <time>2022-07-30T14:33:23.000Z</time>
      </trkpt>
      <trkpt lat="49.61263" lon="-1.25351">
        <ele>5.237006</ele>
        <time>2022-07-30T14:33:24.000Z</time>
      </trkpt>
      <trkpt lat="49.61264" lon="-1.25358">
        <ele>5.23965</ele>
        <time>2022-07-30T14:33:25.000Z</time>
      </trkpt>
      <trkpt lat="49.61264" lon="-1.25365">
        <ele>5.242203</ele>
        <time>2022-07-30T14:33:26.000Z</time>
      </trkpt>
      <trkpt lat="49.61266" lon="-1.25373">
        <ele>5.244936</ele>
        <time>2022-07-30T14:33:27.000Z</time>
      </trkpt>
      <trkpt lat="49.61266" lon="-1.2538">
        <ele>5.247489</ele>
        <time>2022-07-30T14:33:28.000Z</time>
      </trkpt>
      <trkpt lat="49.61268" lon="-1.25387">
        <ele>5.250051</ele>
        <time>2022-07-30T14:33:29.000Z</time>
      </trkpt>
      <trkpt lat="49.61269" lon="-1.25394">
        <ele>5.252607</ele>
        <time>2022-07-30T14:33:30.000Z</time>
      </trkpt>
      <trkpt lat="49.6127" lon="-1.25401">
        <ele>5.255135</ele>
        <time>2022-07-30T14:33:31.000Z</time>
      </trkpt>
      <trkpt lat="49.61271" lon="-1.25407">
        <ele>5.257681</ele>
        <time>2022-07-30T14:33:32.000Z</time>
      </trkpt>
      <trkpt lat="49.61273" lon="-1.25414">
        <ele>5.26016</ele>
        <time>2022-07-30T14:33:33.000Z</time>
      </trkpt>
      <trkpt lat="49.61274" lon="-1.2542">
        <ele>5.26257</ele>
        <time>2022-07-30T14:33:34.000Z</time>
      </trkpt>
      <trkpt lat="49.61276" lon="-1.25427">
        <ele>5.265149</ele>
        <time>2022-07-30T14:33:35.000Z</time>
      </trkpt>
      <trkpt lat="49.61277" lon="-1.25434">
        <ele>5.267746</ele>
        <time>2022-07-30T14:33:36.000Z</time>
      </trkpt>
      <trkpt lat="49.61278" lon="-1.25441">
        <ele>5.270273</ele>
        <time>2022-07-30T14:33:37.000Z</time>
      </trkpt>
      <trkpt lat="49.6128" lon="-1.25448">
        <ele>5.272881</ele>
        <time>2022-07-30T14:33:38.000Z</time>
      </trkpt>
      <trkpt lat="49.61282" lon="-1.25454">
        <ele>5.275489</ele>
        <time>2022-07-30T14:33:39.000Z</time>
      </trkpt>
      <trkpt lat="49.61284" lon="-1.25461">
        <ele>5.278135</ele>
        <time>2022-07-30T14:33:40.000Z</time>
      </trkpt>
      <trkpt lat="49.61286" lon="-1.25468">
        <ele>5.280798</ele>
        <time>2022-07-30T14:33:41.000Z</time>
      </trkpt>
      <trkpt lat="49.61288" lon="-1.25475">
        <ele>5.283405</ele>
        <time>2022-07-30T14:33:42.000Z</time>
      </trkpt>
      <trkpt lat="49.61289" lon="-1.25482">
        <ele>5.286036</ele>
        <time>2022-07-30T14:33:43.000Z</time>
      </trkpt>
      <trkpt lat="49.61291" lon="-1.25489">
        <ele>5.288808</ele>
        <time>2022-07-30T14:33:44.000Z</time>
      </trkpt>
      <trkpt lat="49.61293" lon="-1.25496">
        <ele>5.291514</ele>
        <time>2022-07-30T14:33:45.000Z</time>
      </trkpt>
      <trkpt lat="49.61294" lon="-1.25503">
        <ele>5.29411</ele>
        <time>2022-07-30T14:33:46.000Z</time>
      </trkpt>
      <trkpt lat="49.61296" lon="-1.2551">
        <ele>5.296882</ele>
        <time>2022-07-30T14:33:47.000Z</time>
      </trkpt>
      <trkpt lat="49.61298" lon="-1.25517">
        <ele>5.299529</ele>
        <time>2022-07-30T14:33:48.000Z</time>
      </trkpt>
      <trkpt lat="49.61299" lon="-1.25524">
        <ele>5.302209</ele>
        <time>2022-07-30T14:33:49.000Z</time>
      </trkpt>
      <trkpt lat="49.61301" lon="-1.25531">
        <ele>5.304822</ele>
        <time>2022-07-30T14:33:50.000Z</time>
      </trkpt>
      <trkpt lat="49.61303" lon="-1.25538">
        <ele>5.307528</ele>
        <time>2022-07-30T14:33:51.000Z</time>
      </trkpt>
      <trkpt lat="49.61304" lon="-1.25545">
        <ele>5.310124</ele>
        <time>2022-07-30T14:33:52.000Z</time>
      </trkpt>
      <trkpt lat="49.61306" lon="-1.25552">
        <ele>5.312636</ele>
        <time>2022-07-30T14:33:53.000Z</time>
      </trkpt>
      <trkpt lat="49.61307" lon="-1.25558">
        <ele>5.329282</ele>
        <time>2022-07-30T14:33:54.000Z</time>
      </trkpt>
      <trkpt lat="49.61309" lon="-1.25565">
        <ele>5.362324</ele>
        <time>2022-07-30T14:33:55.000Z</time>
      </trkpt>
      <trkpt lat="49.6131" lon="-1.25571">
        <ele>5.392165</ele>
        <time>2022-07-30T14:33:56.000Z</time>
      </trkpt>
      <trkpt lat="49.61311" lon="-1.25577">
        <ele>5.421829</ele>
        <time>2022-07-30T14:33:57.000Z</time>
      </trkpt>
      <trkpt lat="49.6131" lon="-1.25583">
        <ele>5.4525</ele>
        <time>2022-07-30T14:33:58.000Z</time>
      </trkpt>
      <trkpt lat="49.61309" lon="-1.25588">
        <ele>5.479796</ele>
        <time>2022-07-30T14:33:59.000Z</time>
      </trkpt>
      <trkpt lat="49.61306" lon="-1.25593">
        <ele>5.511023</ele>
        <time>2022-07-30T14:34:00.000Z</time>
      </trkpt>
      <trkpt lat="49.61302" lon="-1.25595">
        <ele>5.541731</ele>
        <time>2022-07-30T14:34:01.000Z</time>
      </trkpt>
      <trkpt lat="49.61298" lon="-1.25596">
        <ele>5.573322</ele>
        <time>2022-07-30T14:34:02.000Z</time>
      </trkpt>
      <trkpt lat="49.61293" lon="-1.25596">
        <ele>5.604559</ele>
        <time>2022-07-30T14:34:03.000Z</time>
      </trkpt>
      <trkpt lat="49.61289" lon="-1.25596">
        <ele>5.637271</ele>
        <time>2022-07-30T14:34:04.000Z</time>
      </trkpt>
      <trkpt lat="49.61285" lon="-1.25597">
        <ele>5.666585</ele>
        <time>2022-07-30T14:34:05.000Z</time>
      </trkpt>
      <trkpt lat="49.61281" lon="-1.25598">
        <ele>5.697306</ele>
        <time>2022-07-30T14:34:06.000Z</time>
      </trkpt>
      <trkpt lat="49.61277" lon="-1.25599">
        <ele>5.731103</ele>
        <time>2022-07-30T14:34:07.000Z</time>
      </trkpt>
      <trkpt lat="49.61272" lon="-1.256">
        <ele>5.7649</ele>
        <time>2022-07-30T14:34:08.000Z</time>
      </trkpt>
      <trkpt lat="49.61268" lon="-1.25601">
        <ele>5.796491</ele>
        <time>2022-07-30T14:34:09.000Z</time>
      </trkpt>
      <trkpt lat="49.61263" lon="-1.25602">
        <ele>5.829794</ele>
        <time>2022-07-30T14:34:10.000Z</time>
      </trkpt>
      <trkpt lat="49.61259" lon="-1.25604">
        <ele>5.865941</ele>
        <time>2022-07-30T14:34:11.000Z</time>
      </trkpt>
      <trkpt lat="49.61254" lon="-1.25605">
        <ele>5.902088</ele>
        <time>2022-07-30T14:34:12.000Z</time>
      </trkpt>
      <trkpt lat="49.61249" lon="-1.25606">
        <ele>5.935957</ele>
        <time>2022-07-30T14:34:13.000Z</time>
      </trkpt>
      <trkpt lat="49.61245" lon="-1.25607">
        <ele>5.967548</ele>
        <time>2022-07-30T14:34:14.000Z</time>
      </trkpt>
      <trkpt lat="49.6124" lon="-1.25608">
        <ele>6.003695</ele>
        <time>2022-07-30T14:34:15.000Z</time>
      </trkpt>
      <trkpt lat="49.61236" lon="-1.25609">
        <ele>6.037643</ele>
        <time>2022-07-30T14:34:16.000Z</time>
      </trkpt>
      <trkpt lat="49.61231" lon="-1.2561">
        <ele>6.070704</ele>
        <time>2022-07-30T14:34:17.000Z</time>
      </trkpt>
      <trkpt lat="49.61227" lon="-1.25612">
        <ele>6.106932</ele>
        <time>2022-07-30T14:34:18.000Z</time>
      </trkpt>
      <trkpt lat="49.61222" lon="-1.25613">
        <ele>6.143541</ele>
        <time>2022-07-30T14:34:19.000Z</time>
      </trkpt>
      <trkpt lat="49.61217" lon="-1.25615">
        <ele>6.180501</ele>
        <time>2022-07-30T14:34:20.000Z</time>
      </trkpt>
      <trkpt lat="49.61212" lon="-1.25617">
        <ele>6.220339</ele>
        <time>2022-07-30T14:34:21.000Z</time>
      </trkpt>
      <trkpt lat="49.61206" lon="-1.25619">
        <ele>6.260966</ele>
        <time>2022-07-30T14:34:22.000Z</time>
      </trkpt>
      <trkpt lat="49.61201" lon="-1.2562">
        <ele>6.302034</ele>
        <time>2022-07-30T14:34:23.000Z</time>
      </trkpt>
      <trkpt lat="49.61196" lon="-1.25622">
        <ele>6.34404</ele>
        <time>2022-07-30T14:34:24.000Z</time>
      </trkpt>
      <trkpt lat="49.6119" lon="-1.25624">
        <ele>6.384827</ele>
        <time>2022-07-30T14:34:25.000Z</time>
      </trkpt>
      <trkpt lat="49.61184" lon="-1.25626">
        <ele>6.429006</ele>
        <time>2022-07-30T14:34:26.000Z</time>
      </trkpt>
      <trkpt lat="49.61178" lon="-1.25628">
        <ele>6.475085</ele>
        <time>2022-07-30T14:34:27.000Z</time>
      </trkpt>
      <trkpt lat="49.61173" lon="-1.25629">
        <ele>6.518242</ele>
        <time>2022-07-30T14:34:28.000Z</time>
      </trkpt>
      <trkpt lat="49.61167" lon="-1.25631">
        <ele>6.562528</ele>
        <time>2022-07-30T14:34:29.000Z</time>
      </trkpt>
      <trkpt lat="49.61161" lon="-1.25633">
        <ele>6.608886</ele>
        <time>2022-07-30T14:34:30.000Z</time>
      </trkpt>
      <trkpt lat="49.61155" lon="-1.25635">
        <ele>6.650525</ele>
        <time>2022-07-30T14:34:31.000Z</time>
      </trkpt>
      <trkpt lat="49.61149" lon="-1.25637">
        <ele>6.626052</ele>
        <time>2022-07-30T14:34:32.000Z</time>
      </trkpt>
      <trkpt lat="49.61143" lon="-1.25638">
        <ele>6.60439</ele>
        <time>2022-07-30T14:34:33.000Z</time>
      </trkpt>
      <trkpt lat="49.61137" lon="-1.2564">
        <ele>6.57987</ele>
        <time>2022-07-30T14:34:34.000Z</time>
      </trkpt>
      <trkpt lat="49.61132" lon="-1.25642">
        <ele>6.55629</ele>
        <time>2022-07-30T14:34:35.000Z</time>
      </trkpt>
      <trkpt lat="49.61126" lon="-1.25644">
        <ele>6.534365</ele>
        <time>2022-07-30T14:34:36.000Z</time>
      </trkpt>
      <trkpt lat="49.6112" lon="-1.25646">
        <ele>6.50969</ele>
        <time>2022-07-30T14:34:37.000Z</time>
      </trkpt>
      <trkpt lat="49.61114" lon="-1.25649">
        <ele>6.486109</ele>
        <time>2022-07-30T14:34:38.000Z</time>
      </trkpt>
      <trkpt lat="49.61109" lon="-1.25651">
        <ele>6.462912</ele>
        <time>2022-07-30T14:34:39.000Z</time>
      </trkpt>
      <trkpt lat="49.61103" lon="-1.25653">
        <ele>6.439391</ele>
        <time>2022-07-30T14:34:40.000Z</time>
      </trkpt>
      <trkpt lat="49.61097" lon="-1.25655">
        <ele>6.416313</ele>
        <time>2022-07-30T14:34:41.000Z</time>
      </trkpt>
      <trkpt lat="49.61091" lon="-1.25657">
        <ele>6.392732</ele>
        <time>2022-07-30T14:34:42.000Z</time>
      </trkpt>
      <trkpt lat="49.61085" lon="-1.25659">
        <ele>6.369152</ele>
        <time>2022-07-30T14:34:43.000Z</time>
      </trkpt>
      <trkpt lat="49.6108" lon="-1.25661">
        <ele>6.348312</ele>
        <time>2022-07-30T14:34:44.000Z</time>
      </trkpt>
      <trkpt lat="49.61075" lon="-1.25664">
        <ele>6.325115</ele>
        <time>2022-07-30T14:34:45.000Z</time>
      </trkpt>
      <trkpt lat="49.61069" lon="-1.25666">
        <ele>6.302683</ele>
        <time>2022-07-30T14:34:46.000Z</time>
      </trkpt>
      <trkpt lat="49.61063" lon="-1.25668">
        <ele>6.279547</ele>
        <time>2022-07-30T14:34:47.000Z</time>
      </trkpt>
      <trkpt lat="49.61058" lon="-1.2567">
        <ele>6.255966</ele>
        <time>2022-07-30T14:34:48.000Z</time>
      </trkpt>
      <trkpt lat="49.61053" lon="-1.25672">
        <ele>6.235059</ele>
        <time>2022-07-30T14:34:49.000Z</time>
      </trkpt>
      <trkpt lat="49.61047" lon="-1.25674">
        <ele>6.211538</ele>
        <time>2022-07-30T14:34:50.000Z</time>
      </trkpt>
      <trkpt lat="49.61041" lon="-1.25676">
        <ele>6.18846</ele>
        <time>2022-07-30T14:34:51.000Z</time>
      </trkpt>
      <trkpt lat="49.61035" lon="-1.25679">
        <ele>6.164752</ele>
        <time>2022-07-30T14:34:52.000Z</time>
      </trkpt>
      <trkpt lat="49.61029" lon="-1.25681">
        <ele>6.141288</ele>
        <time>2022-07-30T14:34:53.000Z</time>
      </trkpt>
      <trkpt lat="49.61024" lon="-1.25683">
        <ele>6.118152</ele>
        <time>2022-07-30T14:34:54.000Z</time>
      </trkpt>
      <trkpt lat="49.61018" lon="-1.25685">
        <ele>6.09572</ele>
        <time>2022-07-30T14:34:55.000Z</time>
      </trkpt>
      <trkpt lat="49.61013" lon="-1.25687">
        <ele>6.07367</ele>
        <time>2022-07-30T14:34:56.000Z</time>
      </trkpt>
      <trkpt lat="49.61007" lon="-1.2569">
        <ele>6.051553</ele>
        <time>2022-07-30T14:34:57.000Z</time>
      </trkpt>
      <trkpt lat="49.61002" lon="-1.25692">
        <ele>6.028089</ele>
        <time>2022-07-30T14:34:58.000Z</time>
      </trkpt>
      <trkpt lat="49.60996" lon="-1.25694">
        <ele>6.006039</ele>
        <time>2022-07-30T14:34:59.000Z</time>
      </trkpt>
      <trkpt lat="49.60991" lon="-1.25696">
        <ele>5.984683</ele>
        <time>2022-07-30T14:35:00.000Z</time>
      </trkpt>
      <trkpt lat="49.60986" lon="-1.25698">
        <ele>5.962758</ele>
        <time>2022-07-30T14:35:01.000Z</time>
      </trkpt>
      <trkpt lat="49.6098" lon="-1.257">
        <ele>5.941628</ele>
        <time>2022-07-30T14:35:02.000Z</time>
      </trkpt>
      <trkpt lat="49.60974" lon="-1.25702">
        <ele>5.950363</ele>
        <time>2022-07-30T14:35:03.000Z</time>
      </trkpt>
      <trkpt lat="49.60969" lon="-1.25705">
        <ele>5.959782</ele>
        <time>2022-07-30T14:35:04.000Z</time>
      </trkpt>
      <trkpt lat="49.60964" lon="-1.25707">
        <ele>5.968036</ele>
        <time>2022-07-30T14:35:05.000Z</time>
      </trkpt>
      <trkpt lat="49.60958" lon="-1.25709">
        <ele>5.97629</ele>
        <time>2022-07-30T14:35:06.000Z</time>
      </trkpt>
      <trkpt lat="49.60954" lon="-1.25711">
        <ele>5.984088</ele>
        <time>2022-07-30T14:35:07.000Z</time>
      </trkpt>
      <trkpt lat="49.60948" lon="-1.25712">
        <ele>5.992713</ele>
        <time>2022-07-30T14:35:08.000Z</time>
      </trkpt>
      <trkpt lat="49.60943" lon="-1.25715">
        <ele>6.000567</ele>
        <time>2022-07-30T14:35:09.000Z</time>
      </trkpt>
      <trkpt lat="49.60938" lon="-1.25717">
        <ele>6.008973</ele>
        <time>2022-07-30T14:35:10.000Z</time>
      </trkpt>
      <trkpt lat="49.60933" lon="-1.25719">
        <ele>6.016772</ele>
        <time>2022-07-30T14:35:11.000Z</time>
      </trkpt>
      <trkpt lat="49.60928" lon="-1.25721">
        <ele>6.025026</ele>
        <time>2022-07-30T14:35:12.000Z</time>
      </trkpt>
      <trkpt lat="49.60924" lon="-1.25722">
        <ele>6.032318</ele>
        <time>2022-07-30T14:35:13.000Z</time>
      </trkpt>
      <trkpt lat="49.60919" lon="-1.25724">
        <ele>6.040547</ele>
        <time>2022-07-30T14:35:14.000Z</time>
      </trkpt>
      <trkpt lat="49.60914" lon="-1.25726">
        <ele>6.048346</ele>
        <time>2022-07-30T14:35:15.000Z</time>
      </trkpt>
      <trkpt lat="49.60909" lon="-1.25728">
        <ele>6.056145</ele>
        <time>2022-07-30T14:35:16.000Z</time>
      </trkpt>
      <trkpt lat="49.60905" lon="-1.2573">
        <ele>6.06349</ele>
        <time>2022-07-30T14:35:17.000Z</time>
      </trkpt>
      <trkpt lat="49.60901" lon="-1.25733">
        <ele>6.070333</ele>
        <time>2022-07-30T14:35:18.000Z</time>
      </trkpt>
      <trkpt lat="49.60897" lon="-1.25736">
        <ele>6.077168</ele>
        <time>2022-07-30T14:35:19.000Z</time>
      </trkpt>
      <trkpt lat="49.60894" lon="-1.25739">
        <ele>6.082263</ele>
        <time>2022-07-30T14:35:20.000Z</time>
      </trkpt>
      <trkpt lat="49.60892" lon="-1.25742">
        <ele>6.086982</ele>
        <time>2022-07-30T14:35:21.000Z</time>
      </trkpt>
      <trkpt lat="49.60891" lon="-1.25746">
        <ele>6.091245</ele>
        <time>2022-07-30T14:35:22.000Z</time>
      </trkpt>
      <trkpt lat="49.60891" lon="-1.2575">
        <ele>6.095338</ele>
        <time>2022-07-30T14:35:23.000Z</time>
      </trkpt>
      <trkpt lat="49.60891" lon="-1.25754">
        <ele>6.099431</ele>
        <time>2022-07-30T14:35:24.000Z</time>
      </trkpt>
      <trkpt lat="49.60891" lon="-1.25758">
        <ele>6.10312</ele>
        <time>2022-07-30T14:35:25.000Z</time>
      </trkpt>
      <trkpt lat="49.60891" lon="-1.25761">
        <ele>6.106608</ele>
        <time>2022-07-30T14:35:26.000Z</time>
      </trkpt>
      <trkpt lat="49.6089" lon="-1.25765">
        <ele>6.11002</ele>
        <time>2022-07-30T14:35:27.000Z</time>
      </trkpt>
      <trkpt lat="49.6089" lon="-1.25768">
        <ele>6.11307</ele>
        <time>2022-07-30T14:35:28.000Z</time>
      </trkpt>
      <trkpt lat="49.6089" lon="-1.25771">
        <ele>6.116155</ele>
        <time>2022-07-30T14:35:29.000Z</time>
      </trkpt>
      <trkpt lat="49.6089" lon="-1.25776">
        <ele>6.121441</ele>
        <time>2022-07-30T14:35:31.000Z</time>
      </trkpt>
      <trkpt lat="49.60889" lon="-1.25779">
        <ele>6.124438</ele>
        <time>2022-07-30T14:35:32.000Z</time>
      </trkpt>
      <trkpt lat="49.60889" lon="-1.25782">
        <ele>6.127487</ele>
        <time>2022-07-30T14:35:33.000Z</time>
      </trkpt>
      <trkpt lat="49.60889" lon="-1.25785">
        <ele>6.131017</ele>
        <time>2022-07-30T14:35:34.000Z</time>
      </trkpt>
      <trkpt lat="49.60888" lon="-1.25788">
        <ele>6.134505</ele>
        <time>2022-07-30T14:35:35.000Z</time>
      </trkpt>
      <trkpt lat="49.60888" lon="-1.25792">
        <ele>6.138164</ele>
        <time>2022-07-30T14:35:36.000Z</time>
      </trkpt>
      <trkpt lat="49.60888" lon="-1.25795">
        <ele>6.141721</ele>
        <time>2022-07-30T14:35:37.000Z</time>
      </trkpt>
      <trkpt lat="49.60889" lon="-1.25799">
        <ele>6.145209</ele>
        <time>2022-07-30T14:35:38.000Z</time>
      </trkpt>
      <trkpt lat="49.60889" lon="-1.25802">
        <ele>6.14836</ele>
        <time>2022-07-30T14:35:39.000Z</time>
      </trkpt>
      <trkpt lat="49.60888" lon="-1.25805">
        <ele>6.151948</ele>
        <time>2022-07-30T14:35:40.000Z</time>
      </trkpt>
      <trkpt lat="49.60888" lon="-1.25809">
        <ele>6.155506</ele>
        <time>2022-07-30T14:35:41.000Z</time>
      </trkpt>
      <trkpt lat="49.60888" lon="-1.25812">
        <ele>6.159094</ele>
        <time>2022-07-30T14:35:42.000Z</time>
      </trkpt>
      <trkpt lat="49.60888" lon="-1.25816">
        <ele>6.162582</ele>
        <time>2022-07-30T14:35:43.000Z</time>
      </trkpt>
      <trkpt lat="49.60887" lon="-1.25819">
        <ele>6.166112</ele>
        <time>2022-07-30T14:35:44.000Z</time>
      </trkpt>
      <trkpt lat="49.60887" lon="-1.25823">
        <ele>6.169872</ele>
        <time>2022-07-30T14:35:45.000Z</time>
      </trkpt>
      <trkpt lat="49.60886" lon="-1.25828">
        <ele>6.174841</ele>
        <time>2022-07-30T14:35:46.000Z</time>
      </trkpt>
      <trkpt lat="49.60886" lon="-1.25833">
        <ele>6.179945</ele>
        <time>2022-07-30T14:35:47.000Z</time>
      </trkpt>
      <trkpt lat="49.60886" lon="-1.25838">
        <ele>6.185758</ele>
        <time>2022-07-30T14:35:48.000Z</time>
      </trkpt>
      <trkpt lat="49.60885" lon="-1.25844">
        <ele>6.192054</ele>
        <time>2022-07-30T14:35:49.000Z</time>
      </trkpt>
      <trkpt lat="49.60885" lon="-1.25851">
        <ele>6.198678</ele>
        <time>2022-07-30T14:35:50.000Z</time>
      </trkpt>
      <trkpt lat="49.60885" lon="-1.25858">
        <ele>6.205504</ele>
        <time>2022-07-30T14:35:51.000Z</time>
      </trkpt>
      <trkpt lat="49.60884" lon="-1.25865">
        <ele>6.212704</ele>
        <time>2022-07-30T14:35:52.000Z</time>
      </trkpt>
      <trkpt lat="49.60883" lon="-1.25872">
        <ele>6.220587</ele>
        <time>2022-07-30T14:35:53.000Z</time>
      </trkpt>
      <trkpt lat="49.60883" lon="-1.2588">
        <ele>6.204342</ele>
        <time>2022-07-30T14:35:54.000Z</time>
      </trkpt>
      <trkpt lat="49.60882" lon="-1.25888">
        <ele>6.176479</ele>
        <time>2022-07-30T14:35:55.000Z</time>
      </trkpt>
      <trkpt lat="49.60881" lon="-1.25896">
        <ele>6.147383</ele>
        <time>2022-07-30T14:35:56.000Z</time>
      </trkpt>
      <trkpt lat="49.6088" lon="-1.25904">
        <ele>6.117746</ele>
        <time>2022-07-30T14:35:57.000Z</time>
      </trkpt>
      <trkpt lat="49.60879" lon="-1.25912">
        <ele>6.088297</ele>
        <time>2022-07-30T14:35:58.000Z</time>
      </trkpt>
      <trkpt lat="49.60879" lon="-1.2592">
        <ele>6.058115</ele>
        <time>2022-07-30T14:35:59.000Z</time>
      </trkpt>
      <trkpt lat="49.60878" lon="-1.25929">
        <ele>6.027476</ele>
        <time>2022-07-30T14:36:00.000Z</time>
      </trkpt>
      <trkpt lat="49.60878" lon="-1.25937">
        <ele>5.996972</ele>
        <time>2022-07-30T14:36:01.000Z</time>
      </trkpt>
      <trkpt lat="49.60877" lon="-1.25946">
        <ele>5.966015</ele>
        <time>2022-07-30T14:36:02.000Z</time>
      </trkpt>
      <trkpt lat="49.60877" lon="-1.25954">
        <ele>5.936088</ele>
        <time>2022-07-30T14:36:03.000Z</time>
      </trkpt>
      <trkpt lat="49.60876" lon="-1.25962">
        <ele>5.906095</ele>
        <time>2022-07-30T14:36:04.000Z</time>
      </trkpt>
      <trkpt lat="49.60875" lon="-1.25971">
        <ele>5.875813</ele>
        <time>2022-07-30T14:36:05.000Z</time>
      </trkpt>
      <trkpt lat="49.60875" lon="-1.25979">
        <ele>5.845886</ele>
        <time>2022-07-30T14:36:06.000Z</time>
      </trkpt>
      <trkpt lat="49.60874" lon="-1.25987">
        <ele>5.815893</ele>
        <time>2022-07-30T14:36:07.000Z</time>
      </trkpt>
      <trkpt lat="49.60873" lon="-1.25996">
        <ele>5.785384</ele>
        <time>2022-07-30T14:36:08.000Z</time>
      </trkpt>
      <trkpt lat="49.60873" lon="-1.26004">
        <ele>5.756274</ele>
        <time>2022-07-30T14:36:09.000Z</time>
      </trkpt>
      <trkpt lat="49.60872" lon="-1.26012">
        <ele>5.725635</ele>
        <time>2022-07-30T14:36:10.000Z</time>
      </trkpt>
      <trkpt lat="49.60871" lon="-1.26021">
        <ele>5.695352</ele>
        <time>2022-07-30T14:36:11.000Z</time>
      </trkpt>
      <trkpt lat="49.60871" lon="-1.26029">
        <ele>5.664293</ele>
        <time>2022-07-30T14:36:12.000Z</time>
      </trkpt>
      <trkpt lat="49.6087" lon="-1.26038">
        <ele>5.632228</ele>
        <time>2022-07-30T14:36:13.000Z</time>
      </trkpt>
      <trkpt lat="49.60869" lon="-1.26047">
        <ele>5.601524</ele>
        <time>2022-07-30T14:36:14.000Z</time>
      </trkpt>
      <trkpt lat="49.60869" lon="-1.26055">
        <ele>5.570885</ele>
        <time>2022-07-30T14:36:15.000Z</time>
      </trkpt>
      <trkpt lat="49.60869" lon="-1.26064">
        <ele>5.540023</ele>
        <time>2022-07-30T14:36:16.000Z</time>
      </trkpt>
      <trkpt lat="49.60868" lon="-1.26073">
        <ele>5.508088</ele>
        <time>2022-07-30T14:36:17.000Z</time>
      </trkpt>
      <trkpt lat="49.60867" lon="-1.26082">
        <ele>5.475013</ele>
        <time>2022-07-30T14:36:18.000Z</time>
      </trkpt>
      <trkpt lat="49.60867" lon="-1.26091">
        <ele>5.442593</ele>
        <time>2022-07-30T14:36:19.000Z</time>
      </trkpt>
      <trkpt lat="49.60866" lon="-1.261">
        <ele>5.410624</ele>
        <time>2022-07-30T14:36:20.000Z</time>
      </trkpt>
      <trkpt lat="49.60865" lon="-1.26109">
        <ele>5.377346</ele>
        <time>2022-07-30T14:36:21.000Z</time>
      </trkpt>
      <trkpt lat="49.60865" lon="-1.26118">
        <ele>5.344305</ele>
        <time>2022-07-30T14:36:22.000Z</time>
      </trkpt>
      <trkpt lat="49.60864" lon="-1.26127">
        <ele>5.311171</ele>
        <time>2022-07-30T14:36:23.000Z</time>
      </trkpt>
      <trkpt lat="49.60863" lon="-1.26136">
        <ele>5.278096</ele>
        <time>2022-07-30T14:36:24.000Z</time>
      </trkpt>
      <trkpt lat="49.60862" lon="-1.26145">
        <ele>5.245676</ele>
        <time>2022-07-30T14:36:25.000Z</time>
      </trkpt>
      <trkpt lat="49.60861" lon="-1.26154">
        <ele>5.224021</ele>
        <time>2022-07-30T14:36:26.000Z</time>
      </trkpt>
      <trkpt lat="49.60861" lon="-1.26163">
        <ele>5.214781</ele>
        <time>2022-07-30T14:36:27.000Z</time>
      </trkpt>
      <trkpt lat="49.6086" lon="-1.26172">
        <ele>5.205333</ele>
        <time>2022-07-30T14:36:28.000Z</time>
      </trkpt>
      <trkpt lat="49.60859" lon="-1.26181">
        <ele>5.196004</ele>
        <time>2022-07-30T14:36:29.000Z</time>
      </trkpt>
      <trkpt lat="49.60859" lon="-1.2619">
        <ele>5.186556</ele>
        <time>2022-07-30T14:36:30.000Z</time>
      </trkpt>
      <trkpt lat="49.60858" lon="-1.26199">
        <ele>5.176883</ele>
        <time>2022-07-30T14:36:31.000Z</time>
      </trkpt>
      <trkpt lat="49.60857" lon="-1.26208">
        <ele>5.167579</ele>
        <time>2022-07-30T14:36:32.000Z</time>
      </trkpt>
      <trkpt lat="49.60856" lon="-1.26217">
        <ele>5.158425</ele>
        <time>2022-07-30T14:36:33.000Z</time>
      </trkpt>
      <trkpt lat="49.60855" lon="-1.26225">
        <ele>5.149225</ele>
        <time>2022-07-30T14:36:34.000Z</time>
      </trkpt>
      <trkpt lat="49.60855" lon="-1.26234">
        <ele>5.140174</ele>
        <time>2022-07-30T14:36:35.000Z</time>
      </trkpt>
      <trkpt lat="49.60854" lon="-1.26242">
        <ele>5.131245</ele>
        <time>2022-07-30T14:36:36.000Z</time>
      </trkpt>
      <trkpt lat="49.60853" lon="-1.26251">
        <ele>5.121813</ele>
        <time>2022-07-30T14:36:37.000Z</time>
      </trkpt>
      <trkpt lat="49.60853" lon="-1.2626">
        <ele>5.112572</ele>
        <time>2022-07-30T14:36:38.000Z</time>
      </trkpt>
      <trkpt lat="49.60852" lon="-1.26269">
        <ele>5.103551</ele>
        <time>2022-07-30T14:36:39.000Z</time>
      </trkpt>
      <trkpt lat="49.60851" lon="-1.26277">
        <ele>5.094453</ele>
        <time>2022-07-30T14:36:40.000Z</time>
      </trkpt>
      <trkpt lat="49.60851" lon="-1.26286">
        <ele>5.085732</ele>
        <time>2022-07-30T14:36:41.000Z</time>
      </trkpt>
      <trkpt lat="49.6085" lon="-1.26294">
        <ele>5.076992</ele>
        <time>2022-07-30T14:36:42.000Z</time>
      </trkpt>
      <trkpt lat="49.60849" lon="-1.26302">
        <ele>5.068307</ele>
        <time>2022-07-30T14:36:43.000Z</time>
      </trkpt>
      <trkpt lat="49.60849" lon="-1.2631">
        <ele>5.059616</ele>
        <time>2022-07-30T14:36:44.000Z</time>
      </trkpt>
      <trkpt lat="49.60848" lon="-1.26319">
        <ele>5.050687</ele>
        <time>2022-07-30T14:36:45.000Z</time>
      </trkpt>
      <trkpt lat="49.60847" lon="-1.26328">
        <ele>5.041551</ele>
        <time>2022-07-30T14:36:46.000Z</time>
      </trkpt>
      <trkpt lat="49.60847" lon="-1.26336">
        <ele>5.032603</ele>
        <time>2022-07-30T14:36:47.000Z</time>
      </trkpt>
      <trkpt lat="49.60846" lon="-1.26345">
        <ele>5.023675</ele>
        <time>2022-07-30T14:36:48.000Z</time>
      </trkpt>
      <trkpt lat="49.60845" lon="-1.26353">
        <ele>5.014448</ele>
        <time>2022-07-30T14:36:49.000Z</time>
      </trkpt>
      <trkpt lat="49.60845" lon="-1.26362">
        <ele>5.005454</ele>
        <time>2022-07-30T14:36:50.000Z</time>
      </trkpt>
      <trkpt lat="49.60844" lon="-1.2637">
        <ele>4.996334</ele>
        <time>2022-07-30T14:36:51.000Z</time>
      </trkpt>
      <trkpt lat="49.60843" lon="-1.26379">
        <ele>4.987445</ele>
        <time>2022-07-30T14:36:52.000Z</time>
      </trkpt>
      <trkpt lat="49.60841" lon="-1.26387">
        <ele>4.97837</ele>
        <time>2022-07-30T14:36:53.000Z</time>
      </trkpt>
      <trkpt lat="49.60838" lon="-1.26393">
        <ele>4.970129</ele>
        <time>2022-07-30T14:36:54.000Z</time>
      </trkpt>
      <trkpt lat="49.60834" lon="-1.26399">
        <ele>4.96107</ele>
        <time>2022-07-30T14:36:55.000Z</time>
      </trkpt>
      <trkpt lat="49.60829" lon="-1.26402">
        <ele>4.953085</ele>
        <time>2022-07-30T14:36:56.000Z</time>
      </trkpt>
      <trkpt lat="49.60824" lon="-1.26404">
        <ele>4.944136</ele>
        <time>2022-07-30T14:36:57.000Z</time>
      </trkpt>
      <trkpt lat="49.60819" lon="-1.26405">
        <ele>4.939807</ele>
        <time>2022-07-30T14:36:58.000Z</time>
      </trkpt>
      <trkpt lat="49.60813" lon="-1.26407">
        <ele>4.943741</ele>
        <time>2022-07-30T14:36:59.000Z</time>
      </trkpt>
      <trkpt lat="49.60808" lon="-1.26408">
        <ele>4.947173</ele>
        <time>2022-07-30T14:37:00.000Z</time>
      </trkpt>
      <trkpt lat="49.60803" lon="-1.26409">
        <ele>4.951022</ele>
        <time>2022-07-30T14:37:01.000Z</time>
      </trkpt>
      <trkpt lat="49.60797" lon="-1.26411">
        <ele>4.954934</ele>
        <time>2022-07-30T14:37:02.000Z</time>
      </trkpt>
      <trkpt lat="49.60793" lon="-1.26412">
        <ele>4.958366</ele>
        <time>2022-07-30T14:37:03.000Z</time>
      </trkpt>
      <trkpt lat="49.60787" lon="-1.26413">
        <ele>4.962223</ele>
        <time>2022-07-30T14:37:04.000Z</time>
      </trkpt>
      <trkpt lat="49.60782" lon="-1.26414">
        <ele>4.965634</ele>
        <time>2022-07-30T14:37:05.000Z</time>
      </trkpt>
      <trkpt lat="49.60777" lon="-1.26416">
        <ele>4.969274</ele>
        <time>2022-07-30T14:37:06.000Z</time>
      </trkpt>
      <trkpt lat="49.60772" lon="-1.26417">
        <ele>4.973175</ele>
        <time>2022-07-30T14:37:07.000Z</time>
      </trkpt>
      <trkpt lat="49.60767" lon="-1.26418">
        <ele>4.976815</ele>
        <time>2022-07-30T14:37:08.000Z</time>
      </trkpt>
      <trkpt lat="49.60762" lon="-1.26419">
        <ele>4.980471</ele>
        <time>2022-07-30T14:37:09.000Z</time>
      </trkpt>
      <trkpt lat="49.60757" lon="-1.26421">
        <ele>4.983896</ele>
        <time>2022-07-30T14:37:10.000Z</time>
      </trkpt>
      <trkpt lat="49.60751" lon="-1.26422">
        <ele>4.987745</ele>
        <time>2022-07-30T14:37:11.000Z</time>
      </trkpt>
      <trkpt lat="49.60746" lon="-1.26423">
        <ele>4.991657</ele>
        <time>2022-07-30T14:37:12.000Z</time>
      </trkpt>
      <trkpt lat="49.60741" lon="-1.26424">
        <ele>4.995267</ele>
        <time>2022-07-30T14:37:13.000Z</time>
      </trkpt>
      <trkpt lat="49.60735" lon="-1.26425">
        <ele>4.999124</ele>
        <time>2022-07-30T14:37:14.000Z</time>
      </trkpt>
      <trkpt lat="49.6073" lon="-1.26427">
        <ele>5.003057</ele>
        <time>2022-07-30T14:37:15.000Z</time>
      </trkpt>
      <trkpt lat="49.60725" lon="-1.26428">
        <ele>5.006906</ele>
        <time>2022-07-30T14:37:16.000Z</time>
      </trkpt>
      <trkpt lat="49.60719" lon="-1.2643">
        <ele>5.010581</ele>
        <time>2022-07-30T14:37:17.000Z</time>
      </trkpt>
      <trkpt lat="49.60714" lon="-1.26431">
        <ele>5.014514</ele>
        <time>2022-07-30T14:37:18.000Z</time>
      </trkpt>
      <trkpt lat="49.60709" lon="-1.26432">
        <ele>5.01835</ele>
        <time>2022-07-30T14:37:19.000Z</time>
      </trkpt>
      <trkpt lat="49.60703" lon="-1.26434">
        <ele>5.022007</ele>
        <time>2022-07-30T14:37:20.000Z</time>
      </trkpt>
      <trkpt lat="49.60698" lon="-1.26436">
        <ele>5.025976</ele>
        <time>2022-07-30T14:37:21.000Z</time>
      </trkpt>
      <trkpt lat="49.60693" lon="-1.26438">
        <ele>5.02996</ele>
        <time>2022-07-30T14:37:22.000Z</time>
      </trkpt>
      <trkpt lat="49.60688" lon="-1.26441">
        <ele>5.03359</ele>
        <time>2022-07-30T14:37:23.000Z</time>
      </trkpt>
      <trkpt lat="49.60683" lon="-1.26445">
        <ele>5.037139</ele>
        <time>2022-07-30T14:37:24.000Z</time>
      </trkpt>
      <trkpt lat="49.60678" lon="-1.26449">
        <ele>5.041048</ele>
        <time>2022-07-30T14:37:25.000Z</time>
      </trkpt>
      <trkpt lat="49.60674" lon="-1.26454">
        <ele>5.044702</ele>
        <time>2022-07-30T14:37:26.000Z</time>
      </trkpt>
      <trkpt lat="49.6067" lon="-1.26459">
        <ele>5.048469</ele>
        <time>2022-07-30T14:37:27.000Z</time>
      </trkpt>
      <trkpt lat="49.60666" lon="-1.26465">
        <ele>5.052252</ele>
        <time>2022-07-30T14:37:28.000Z</time>
      </trkpt>
      <trkpt lat="49.60663" lon="-1.26471">
        <ele>5.055869</ele>
        <time>2022-07-30T14:37:29.000Z</time>
      </trkpt>
      <trkpt lat="49.6066" lon="-1.26476">
        <ele>5.059212</ele>
        <time>2022-07-30T14:37:30.000Z</time>
      </trkpt>
      <trkpt lat="49.60656" lon="-1.26482">
        <ele>5.06273</ele>
        <time>2022-07-30T14:37:31.000Z</time>
      </trkpt>
      <trkpt lat="49.60654" lon="-1.26487">
        <ele>5.062903</ele>
        <time>2022-07-30T14:37:32.000Z</time>
      </trkpt>
      <trkpt lat="49.6065" lon="-1.26493">
        <ele>5.046368</ele>
        <time>2022-07-30T14:37:33.000Z</time>
      </trkpt>
      <trkpt lat="49.60648" lon="-1.26499">
        <ele>5.031634</ele>
        <time>2022-07-30T14:37:34.000Z</time>
      </trkpt>
      <trkpt lat="49.60645" lon="-1.26504">
        <ele>5.015521</ele>
        <time>2022-07-30T14:37:35.000Z</time>
      </trkpt>
      <trkpt lat="49.60642" lon="-1.2651">
        <ele>4.999689</ele>
        <time>2022-07-30T14:37:36.000Z</time>
      </trkpt>
      <trkpt lat="49.60638" lon="-1.26516">
        <ele>4.982769</ele>
        <time>2022-07-30T14:37:37.000Z</time>
      </trkpt>
      <trkpt lat="49.60634" lon="-1.26522">
        <ele>4.965524</ele>
        <time>2022-07-30T14:37:38.000Z</time>
      </trkpt>
      <trkpt lat="49.60631" lon="-1.26527">
        <ele>4.949067</ele>
        <time>2022-07-30T14:37:39.000Z</time>
      </trkpt>
      <trkpt lat="49.60628" lon="-1.26533">
        <ele>4.932793</ele>
        <time>2022-07-30T14:37:40.000Z</time>
      </trkpt>
      <trkpt lat="49.60624" lon="-1.26539">
        <ele>4.916029</ele>
        <time>2022-07-30T14:37:41.000Z</time>
      </trkpt>
      <trkpt lat="49.60621" lon="-1.26545">
        <ele>4.899593</ele>
        <time>2022-07-30T14:37:42.000Z</time>
      </trkpt>
      <trkpt lat="49.60618" lon="-1.26551">
        <ele>4.88376</ele>
        <time>2022-07-30T14:37:43.000Z</time>
      </trkpt>
      <trkpt lat="49.60615" lon="-1.26557">
        <ele>4.866828</ele>
        <time>2022-07-30T14:37:44.000Z</time>
      </trkpt>
      <trkpt lat="49.60612" lon="-1.26564">
        <ele>4.850654</ele>
        <time>2022-07-30T14:37:45.000Z</time>
      </trkpt>
      <trkpt lat="49.60609" lon="-1.2657">
        <ele>4.833723</ele>
        <time>2022-07-30T14:37:46.000Z</time>
      </trkpt>
      <trkpt lat="49.60605" lon="-1.26576">
        <ele>4.81633</ele>
        <time>2022-07-30T14:37:47.000Z</time>
      </trkpt>
      <trkpt lat="49.60602" lon="-1.26582">
        <ele>4.799893</ele>
        <time>2022-07-30T14:37:48.000Z</time>
      </trkpt>
      <trkpt lat="49.60598" lon="-1.26588">
        <ele>4.782887</ele>
        <time>2022-07-30T14:37:49.000Z</time>
      </trkpt>
      <trkpt lat="49.60594" lon="-1.26593">
        <ele>4.766064</ele>
        <time>2022-07-30T14:37:50.000Z</time>
      </trkpt>
      <trkpt lat="49.6059" lon="-1.26597">
        <ele>4.750117</ele>
        <time>2022-07-30T14:37:51.000Z</time>
      </trkpt>
      <trkpt lat="49.60585" lon="-1.266">
        <ele>4.732877</ele>
        <time>2022-07-30T14:37:52.000Z</time>
      </trkpt>
      <trkpt lat="49.60581" lon="-1.26603">
        <ele>4.71704</ele>
        <time>2022-07-30T14:37:53.000Z</time>
      </trkpt>
      <trkpt lat="49.60576" lon="-1.26605">
        <ele>4.701755</ele>
        <time>2022-07-30T14:37:54.000Z</time>
      </trkpt>
      <trkpt lat="49.60571" lon="-1.26606">
        <ele>4.684882</ele>
        <time>2022-07-30T14:37:55.000Z</time>
      </trkpt>
      <trkpt lat="49.60566" lon="-1.26607">
        <ele>4.669099</ele>
        <time>2022-07-30T14:37:56.000Z</time>
      </trkpt>
      <trkpt lat="49.60561" lon="-1.26607">
        <ele>4.652451</ele>
        <time>2022-07-30T14:37:57.000Z</time>
      </trkpt>
      <trkpt lat="49.60557" lon="-1.26607">
        <ele>4.636771</ele>
        <time>2022-07-30T14:37:58.000Z</time>
      </trkpt>
      <trkpt lat="49.60552" lon="-1.26607">
        <ele>4.621068</ele>
        <time>2022-07-30T14:37:59.000Z</time>
      </trkpt>
      <trkpt lat="49.60547" lon="-1.26605">
        <ele>4.604195</ele>
        <time>2022-07-30T14:38:00.000Z</time>
      </trkpt>
      <trkpt lat="49.60542" lon="-1.26604">
        <ele>4.588324</ele>
        <time>2022-07-30T14:38:01.000Z</time>
      </trkpt>
      <trkpt lat="49.60537" lon="-1.26603">
        <ele>4.573538</ele>
        <time>2022-07-30T14:38:02.000Z</time>
      </trkpt>
      <trkpt lat="49.60533" lon="-1.26602">
        <ele>4.557728</ele>
        <time>2022-07-30T14:38:03.000Z</time>
      </trkpt>
      <trkpt lat="49.60527" lon="-1.26601">
        <ele>4.54082</ele>
        <time>2022-07-30T14:38:04.000Z</time>
      </trkpt>
      <trkpt lat="49.60523" lon="-1.26599">
        <ele>4.524835</ele>
        <time>2022-07-30T14:38:05.000Z</time>
      </trkpt>
      <trkpt lat="49.60517" lon="-1.26598">
        <ele>4.507567</ele>
        <time>2022-07-30T14:38:06.000Z</time>
      </trkpt>
      <trkpt lat="49.60513" lon="-1.26596">
        <ele>4.492709</ele>
        <time>2022-07-30T14:38:07.000Z</time>
      </trkpt>
      <trkpt lat="49.60508" lon="-1.26594">
        <ele>4.477557</ele>
        <time>2022-07-30T14:38:08.000Z</time>
      </trkpt>
      <trkpt lat="49.60503" lon="-1.26592">
        <ele>4.47433</ele>
        <time>2022-07-30T14:38:09.000Z</time>
      </trkpt>
      <trkpt lat="49.60498" lon="-1.26589">
        <ele>4.47088</ele>
        <time>2022-07-30T14:38:10.000Z</time>
      </trkpt>
      <trkpt lat="49.60493" lon="-1.26587">
        <ele>4.467813</ele>
        <time>2022-07-30T14:38:11.000Z</time>
      </trkpt>
      <trkpt lat="49.60489" lon="-1.26585">
        <ele>4.464561</ele>
        <time>2022-07-30T14:38:12.000Z</time>
      </trkpt>
      <trkpt lat="49.60483" lon="-1.26583">
        <ele>4.460996</ele>
        <time>2022-07-30T14:38:13.000Z</time>
      </trkpt>
      <trkpt lat="49.60478" lon="-1.26582">
        <ele>4.45767</ele>
        <time>2022-07-30T14:38:14.000Z</time>
      </trkpt>
      <trkpt lat="49.60473" lon="-1.26582">
        <ele>4.454562</ele>
        <time>2022-07-30T14:38:15.000Z</time>
      </trkpt>
      <trkpt lat="49.60468" lon="-1.26582">
        <ele>4.45126</ele>
        <time>2022-07-30T14:38:16.000Z</time>
      </trkpt>
      <trkpt lat="49.60463" lon="-1.26583">
        <ele>4.448107</ele>
        <time>2022-07-30T14:38:17.000Z</time>
      </trkpt>
      <trkpt lat="49.60459" lon="-1.26586">
        <ele>4.445026</ele>
        <time>2022-07-30T14:38:18.000Z</time>
      </trkpt>
      <trkpt lat="49.60454" lon="-1.26589">
        <ele>4.441887</ele>
        <time>2022-07-30T14:38:19.000Z</time>
      </trkpt>
      <trkpt lat="49.6045" lon="-1.26592">
        <ele>4.438799</ele>
        <time>2022-07-30T14:38:20.000Z</time>
      </trkpt>
      <trkpt lat="49.60446" lon="-1.26596">
        <ele>4.435768</ele>
        <time>2022-07-30T14:38:21.000Z</time>
      </trkpt>
      <trkpt lat="49.60443" lon="-1.26599">
        <ele>4.433181</ele>
        <time>2022-07-30T14:38:22.000Z</time>
      </trkpt>
      <trkpt lat="49.60439" lon="-1.26603">
        <ele>4.430151</ele>
        <time>2022-07-30T14:38:23.000Z</time>
      </trkpt>
      <trkpt lat="49.60436" lon="-1.26607">
        <ele>4.427333</ele>
        <time>2022-07-30T14:38:24.000Z</time>
      </trkpt>
      <trkpt lat="49.60432" lon="-1.2661">
        <ele>4.424993</ele>
        <time>2022-07-30T14:38:25.000Z</time>
      </trkpt>
      <trkpt lat="49.60429" lon="-1.2661">
        <ele>4.422912</ele>
        <time>2022-07-30T14:38:26.000Z</time>
      </trkpt>
      <trkpt lat="49.60426" lon="-1.26609">
        <ele>4.42089</ele>
        <time>2022-07-30T14:38:27.000Z</time>
      </trkpt>
      <trkpt lat="49.60424" lon="-1.26605">
        <ele>4.41907</ele>
        <time>2022-07-30T14:38:28.000Z</time>
      </trkpt>
      <trkpt lat="49.60423" lon="-1.26601">
        <ele>4.417176</ele>
        <time>2022-07-30T14:38:29.000Z</time>
      </trkpt>
      <trkpt lat="49.60423" lon="-1.26596">
        <ele>4.415147</ele>
        <time>2022-07-30T14:38:30.000Z</time>
      </trkpt>
      <trkpt lat="49.60422" lon="-1.26591">
        <ele>4.413015</ele>
        <time>2022-07-30T14:38:31.000Z</time>
      </trkpt>
      <trkpt lat="49.60422" lon="-1.26586">
        <ele>4.410826</ele>
        <time>2022-07-30T14:38:32.000Z</time>
      </trkpt>
      <trkpt lat="49.60421" lon="-1.26581">
        <ele>4.408599</ele>
        <time>2022-07-30T14:38:33.000Z</time>
      </trkpt>
      <trkpt lat="49.60421" lon="-1.26576">
        <ele>4.406302</ele>
        <time>2022-07-30T14:38:34.000Z</time>
      </trkpt>
      <trkpt lat="49.6042" lon="-1.2657">
        <ele>4.404034</ele>
        <time>2022-07-30T14:38:35.000Z</time>
      </trkpt>
      <trkpt lat="49.6042" lon="-1.26565">
        <ele>4.40172</ele>
        <time>2022-07-30T14:38:36.000Z</time>
      </trkpt>
      <trkpt lat="49.60418" lon="-1.26559">
        <ele>4.399305</ele>
        <time>2022-07-30T14:38:37.000Z</time>
      </trkpt>
      <trkpt lat="49.60418" lon="-1.26554">
        <ele>4.396966</ele>
        <time>2022-07-30T14:38:38.000Z</time>
      </trkpt>
      <trkpt lat="49.60416" lon="-1.26548">
        <ele>4.394512</ele>
        <time>2022-07-30T14:38:39.000Z</time>
      </trkpt>
      <trkpt lat="49.60415" lon="-1.26543">
        <ele>4.392214</ele>
        <time>2022-07-30T14:38:40.000Z</time>
      </trkpt>
      <trkpt lat="49.60413" lon="-1.26539">
        <ele>4.389664</ele>
        <time>2022-07-30T14:38:41.000Z</time>
      </trkpt>
      <trkpt lat="49.60409" lon="-1.26535">
        <ele>4.387127</ele>
        <time>2022-07-30T14:38:42.000Z</time>
      </trkpt>
      <trkpt lat="49.60405" lon="-1.26532">
        <ele>4.384361</ele>
        <time>2022-07-30T14:38:43.000Z</time>
      </trkpt>
      <trkpt lat="49.60402" lon="-1.26531">
        <ele>4.382</ele>
        <time>2022-07-30T14:38:44.000Z</time>
      </trkpt>
      <trkpt lat="49.60398" lon="-1.2653">
        <ele>4.379506</ele>
        <time>2022-07-30T14:38:45.000Z</time>
      </trkpt>
      <trkpt lat="49.60394" lon="-1.26529">
        <ele>4.376772</ele>
        <time>2022-07-30T14:38:46.000Z</time>
      </trkpt>
      <trkpt lat="49.6039" lon="-1.26528">
        <ele>4.374297</ele>
        <time>2022-07-30T14:38:47.000Z</time>
      </trkpt>
      <trkpt lat="49.60386" lon="-1.26528">
        <ele>4.371374</ele>
        <time>2022-07-30T14:38:48.000Z</time>
      </trkpt>
      <trkpt lat="49.60381" lon="-1.26527">
        <ele>4.368625</ele>
        <time>2022-07-30T14:38:49.000Z</time>
      </trkpt>
      <trkpt lat="49.60377" lon="-1.26526">
        <ele>4.365939</ele>
        <time>2022-07-30T14:38:50.000Z</time>
      </trkpt>
      <trkpt lat="49.60373" lon="-1.26525">
        <ele>4.362998</ele>
        <time>2022-07-30T14:38:51.000Z</time>
      </trkpt>
      <trkpt lat="49.60369" lon="-1.26523">
        <ele>4.365085</ele>
        <time>2022-07-30T14:38:52.000Z</time>
      </trkpt>
      <trkpt lat="49.60365" lon="-1.26521">
        <ele>4.370783</ele>
        <time>2022-07-30T14:38:53.000Z</time>
      </trkpt>
      <trkpt lat="49.60361" lon="-1.26518">
        <ele>4.376475</ele>
        <time>2022-07-30T14:38:54.000Z</time>
      </trkpt>
      <trkpt lat="49.60357" lon="-1.26514">
        <ele>4.381854</ele>
        <time>2022-07-30T14:38:55.000Z</time>
      </trkpt>
      <trkpt lat="49.60354" lon="-1.26509">
        <ele>4.387396</ele>
        <time>2022-07-30T14:38:56.000Z</time>
      </trkpt>
      <trkpt lat="49.60351" lon="-1.26504">
        <ele>4.393779</ele>
        <time>2022-07-30T14:38:57.000Z</time>
      </trkpt>
      <trkpt lat="49.60349" lon="-1.26498">
        <ele>4.399395</ele>
        <time>2022-07-30T14:38:58.000Z</time>
      </trkpt>
      <trkpt lat="49.60347" lon="-1.26492">
        <ele>4.404896</ele>
        <time>2022-07-30T14:38:59.000Z</time>
      </trkpt>
      <trkpt lat="49.60346" lon="-1.26486">
        <ele>4.410492</ele>
        <time>2022-07-30T14:39:00.000Z</time>
      </trkpt>
      <trkpt lat="49.60344" lon="-1.2648">
        <ele>4.416298</ele>
        <time>2022-07-30T14:39:01.000Z</time>
      </trkpt>
      <trkpt lat="49.60342" lon="-1.26473">
        <ele>4.422179</ele>
        <time>2022-07-30T14:39:02.000Z</time>
      </trkpt>
      <trkpt lat="49.6034" lon="-1.26467">
        <ele>4.428065</ele>
        <time>2022-07-30T14:39:03.000Z</time>
      </trkpt>
      <trkpt lat="49.60338" lon="-1.26461">
        <ele>4.433776</ele>
        <time>2022-07-30T14:39:04.000Z</time>
      </trkpt>
      <trkpt lat="49.60337" lon="-1.26455">
        <ele>4.439268</ele>
        <time>2022-07-30T14:39:05.000Z</time>
      </trkpt>
      <trkpt lat="49.60335" lon="-1.26449">
        <ele>4.44476</ele>
        <time>2022-07-30T14:39:06.000Z</time>
      </trkpt>
      <trkpt lat="49.60333" lon="-1.26443">
        <ele>4.450565</ele>
        <time>2022-07-30T14:39:07.000Z</time>
      </trkpt>
      <trkpt lat="49.60331" lon="-1.26437">
        <ele>4.456218</ele>
        <time>2022-07-30T14:39:08.000Z</time>
      </trkpt>
      <trkpt lat="49.60329" lon="-1.26431">
        <ele>4.46187</ele>
        <time>2022-07-30T14:39:09.000Z</time>
      </trkpt>
      <trkpt lat="49.60327" lon="-1.26424">
        <ele>4.467917</ele>
        <time>2022-07-30T14:39:10.000Z</time>
      </trkpt>
      <trkpt lat="49.60326" lon="-1.26418">
        <ele>4.473232</ele>
        <time>2022-07-30T14:39:11.000Z</time>
      </trkpt>
      <trkpt lat="49.60324" lon="-1.26412">
        <ele>4.479019</ele>
        <time>2022-07-30T14:39:12.000Z</time>
      </trkpt>
      <trkpt lat="49.60321" lon="-1.26406">
        <ele>4.4852</ele>
        <time>2022-07-30T14:39:13.000Z</time>
      </trkpt>
      <trkpt lat="49.60319" lon="-1.264">
        <ele>4.490883</ele>
        <time>2022-07-30T14:39:14.000Z</time>
      </trkpt>
      <trkpt lat="49.60317" lon="-1.26395">
        <ele>4.496229</ele>
        <time>2022-07-30T14:39:15.000Z</time>
      </trkpt>
      <trkpt lat="49.60313" lon="-1.26391">
        <ele>4.501608</ele>
        <time>2022-07-30T14:39:16.000Z</time>
      </trkpt>
      <trkpt lat="49.6031" lon="-1.26388">
        <ele>4.506837</ele>
        <time>2022-07-30T14:39:17.000Z</time>
      </trkpt>
      <trkpt lat="49.60306" lon="-1.26387">
        <ele>4.511666</ele>
        <time>2022-07-30T14:39:18.000Z</time>
      </trkpt>
      <trkpt lat="49.60302" lon="-1.26387">
        <ele>4.517027</ele>
        <time>2022-07-30T14:39:19.000Z</time>
      </trkpt>
      <trkpt lat="49.60298" lon="-1.26387">
        <ele>4.522139</ele>
        <time>2022-07-30T14:39:20.000Z</time>
      </trkpt>
      <trkpt lat="49.60294" lon="-1.26388">
        <ele>4.52756</ele>
        <time>2022-07-30T14:39:21.000Z</time>
      </trkpt>
      <trkpt lat="49.6029" lon="-1.2639">
        <ele>4.532772</ele>
        <time>2022-07-30T14:39:22.000Z</time>
      </trkpt>
      <trkpt lat="49.60286" lon="-1.26391">
        <ele>4.538275</ele>
        <time>2022-07-30T14:39:23.000Z</time>
      </trkpt>
      <trkpt lat="49.60282" lon="-1.26392">
        <ele>4.54424</ele>
        <time>2022-07-30T14:39:24.000Z</time>
      </trkpt>
      <trkpt lat="49.60277" lon="-1.26394">
        <ele>4.550219</ele>
        <time>2022-07-30T14:39:25.000Z</time>
      </trkpt>
      <trkpt lat="49.60273" lon="-1.26395">
        <ele>4.555686</ele>
        <time>2022-07-30T14:39:26.000Z</time>
      </trkpt>
      <trkpt lat="49.60269" lon="-1.26396">
        <ele>4.561298</ele>
        <time>2022-07-30T14:39:27.000Z</time>
      </trkpt>
      <trkpt lat="49.60265" lon="-1.26397">
        <ele>4.566849</ele>
        <time>2022-07-30T14:39:28.000Z</time>
      </trkpt>
      <trkpt lat="49.60261" lon="-1.26399">
        <ele>4.572316</ele>
        <time>2022-07-30T14:39:29.000Z</time>
      </trkpt>
      <trkpt lat="49.60256" lon="-1.264">
        <ele>4.578667</ele>
        <time>2022-07-30T14:39:30.000Z</time>
      </trkpt>
      <trkpt lat="49.60252" lon="-1.26401">
        <ele>4.583831</ele>
        <time>2022-07-30T14:39:31.000Z</time>
      </trkpt>
      <trkpt lat="49.60247" lon="-1.26402">
        <ele>4.589653</ele>
        <time>2022-07-30T14:39:32.000Z</time>
      </trkpt>
      <trkpt lat="49.60243" lon="-1.26403">
        <ele>4.59517</ele>
        <time>2022-07-30T14:39:33.000Z</time>
      </trkpt>
      <trkpt lat="49.60239" lon="-1.26403">
        <ele>4.599467</ele>
        <time>2022-07-30T14:39:34.000Z</time>
      </trkpt>
      <trkpt lat="49.60235" lon="-1.26401">
        <ele>4.602684</ele>
        <time>2022-07-30T14:39:35.000Z</time>
      </trkpt>
      <trkpt lat="49.60231" lon="-1.26399">
        <ele>4.606109</ele>
        <time>2022-07-30T14:39:36.000Z</time>
      </trkpt>
      <trkpt lat="49.60228" lon="-1.26396">
        <ele>4.609627</ele>
        <time>2022-07-30T14:39:37.000Z</time>
      </trkpt>
      <trkpt lat="49.60225" lon="-1.26391">
        <ele>4.612937</ele>
        <time>2022-07-30T14:39:38.000Z</time>
      </trkpt>
      <trkpt lat="49.60222" lon="-1.26385">
        <ele>4.616683</ele>
        <time>2022-07-30T14:39:39.000Z</time>
      </trkpt>
      <trkpt lat="49.60221" lon="-1.26379">
        <ele>4.620176</ele>
        <time>2022-07-30T14:39:40.000Z</time>
      </trkpt>
      <trkpt lat="49.60219" lon="-1.26373">
        <ele>4.623765</ele>
        <time>2022-07-30T14:39:41.000Z</time>
      </trkpt>
      <trkpt lat="49.60217" lon="-1.26367">
        <ele>4.627487</ele>
        <time>2022-07-30T14:39:42.000Z</time>
      </trkpt>
      <trkpt lat="49.60215" lon="-1.26361">
        <ele>4.631076</ele>
        <time>2022-07-30T14:39:43.000Z</time>
      </trkpt>
      <trkpt lat="49.60213" lon="-1.26355">
        <ele>4.634568</ele>
        <time>2022-07-30T14:39:44.000Z</time>
      </trkpt>
      <trkpt lat="49.60211" lon="-1.26349">
        <ele>4.638273</ele>
        <time>2022-07-30T14:39:45.000Z</time>
      </trkpt>
      <trkpt lat="49.60209" lon="-1.26343">
        <ele>4.6419</ele>
        <time>2022-07-30T14:39:46.000Z</time>
      </trkpt>
      <trkpt lat="49.60206" lon="-1.26337">
        <ele>4.645733</ele>
        <time>2022-07-30T14:39:47.000Z</time>
      </trkpt>
      <trkpt lat="49.60204" lon="-1.26331">
        <ele>4.649322</ele>
        <time>2022-07-30T14:39:48.000Z</time>
      </trkpt>
      <trkpt lat="49.60202" lon="-1.26325">
        <ele>4.653201</ele>
        <time>2022-07-30T14:39:49.000Z</time>
      </trkpt>
      <trkpt lat="49.60199" lon="-1.2632">
        <ele>4.656767</ele>
        <time>2022-07-30T14:39:50.000Z</time>
      </trkpt>
      <trkpt lat="49.60197" lon="-1.26314">
        <ele>4.660421</ele>
        <time>2022-07-30T14:39:51.000Z</time>
      </trkpt>
      <trkpt lat="49.60194" lon="-1.26308">
        <ele>4.664444</ele>
        <time>2022-07-30T14:39:52.000Z</time>
      </trkpt>
      <trkpt lat="49.60192" lon="-1.26302">
        <ele>4.668102</ele>
        <time>2022-07-30T14:39:53.000Z</time>
      </trkpt>
      <trkpt lat="49.60189" lon="-1.26296">
        <ele>4.671892</ele>
        <time>2022-07-30T14:39:54.000Z</time>
      </trkpt>
      <trkpt lat="49.60187" lon="-1.2629">
        <ele>4.675597</ele>
        <time>2022-07-30T14:39:55.000Z</time>
      </trkpt>
      <trkpt lat="49.60184" lon="-1.26285">
        <ele>4.679408</ele>
        <time>2022-07-30T14:39:56.000Z</time>
      </trkpt>
      <trkpt lat="49.60182" lon="-1.26279">
        <ele>4.682931</ele>
        <time>2022-07-30T14:39:57.000Z</time>
      </trkpt>
      <trkpt lat="49.6018" lon="-1.26274">
        <ele>4.686404</ele>
        <time>2022-07-30T14:39:58.000Z</time>
      </trkpt>
      <trkpt lat="49.60177" lon="-1.26269">
        <ele>4.689927</ele>
        <time>2022-07-30T14:39:59.000Z</time>
      </trkpt>
      <trkpt lat="49.60175" lon="-1.26263">
        <ele>4.693223</ele>
        <time>2022-07-30T14:40:00.000Z</time>
      </trkpt>
      <trkpt lat="49.60173" lon="-1.26258">
        <ele>4.696651</ele>
        <time>2022-07-30T14:40:01.000Z</time>
      </trkpt>
      <trkpt lat="49.60171" lon="-1.26253">
        <ele>4.699696</ele>
        <time>2022-07-30T14:40:02.000Z</time>
      </trkpt>
      <trkpt lat="49.60169" lon="-1.26247">
        <ele>4.703124</ele>
        <time>2022-07-30T14:40:03.000Z</time>
      </trkpt>
      <trkpt lat="49.60166" lon="-1.26242">
        <ele>4.706569</ele>
        <time>2022-07-30T14:40:04.000Z</time>
      </trkpt>
      <trkpt lat="49.60164" lon="-1.26237">
        <ele>4.709862</ele>
        <time>2022-07-30T14:40:05.000Z</time>
      </trkpt>
      <trkpt lat="49.60162" lon="-1.26232">
        <ele>4.713157</ele>
        <time>2022-07-30T14:40:06.000Z</time>
      </trkpt>
      <trkpt lat="49.6016" lon="-1.26227">
        <ele>4.716405</ele>
        <time>2022-07-30T14:40:07.000Z</time>
      </trkpt>
      <trkpt lat="49.60158" lon="-1.26223">
        <ele>4.719247</ele>
        <time>2022-07-30T14:40:08.000Z</time>
      </trkpt>
      <trkpt lat="49.60155" lon="-1.26219">
        <ele>4.722108</ele>
        <time>2022-07-30T14:40:09.000Z</time>
      </trkpt>
      <trkpt lat="49.60152" lon="-1.26218">
        <ele>4.724898</ele>
        <time>2022-07-30T14:40:10.000Z</time>
      </trkpt>
      <trkpt lat="49.60149" lon="-1.26218">
        <ele>4.727303</ele>
        <time>2022-07-30T14:40:11.000Z</time>
      </trkpt>
      <trkpt lat="49.60146" lon="-1.26219">
        <ele>4.730077</ele>
        <time>2022-07-30T14:40:12.000Z</time>
      </trkpt>
      <trkpt lat="49.60143" lon="-1.26222">
        <ele>4.732756</ele>
        <time>2022-07-30T14:40:13.000Z</time>
      </trkpt>
      <trkpt lat="49.6014" lon="-1.26224">
        <ele>4.735662</ele>
        <time>2022-07-30T14:40:14.000Z</time>
      </trkpt>
      <trkpt lat="49.60137" lon="-1.26226">
        <ele>4.738636</ele>
        <time>2022-07-30T14:40:15.000Z</time>
      </trkpt>
      <trkpt lat="49.60134" lon="-1.26228">
        <ele>4.740997</ele>
        <time>2022-07-30T14:40:16.000Z</time>
      </trkpt>
      <trkpt lat="49.60132" lon="-1.26231">
        <ele>4.743537</ele>
        <time>2022-07-30T14:40:17.000Z</time>
      </trkpt>
      <trkpt lat="49.60129" lon="-1.26233">
        <ele>4.745803</ele>
        <time>2022-07-30T14:40:18.000Z</time>
      </trkpt>
      <trkpt lat="49.60126" lon="-1.26236">
        <ele>4.750628</ele>
        <time>2022-07-30T14:40:19.000Z</time>
      </trkpt>
      <trkpt lat="49.60124" lon="-1.26239">
        <ele>4.755355</ele>
        <time>2022-07-30T14:40:20.000Z</time>
      </trkpt>
      <trkpt lat="49.6012" lon="-1.26241">
        <ele>4.760174</ele>
        <time>2022-07-30T14:40:21.000Z</time>
      </trkpt>
      <trkpt lat="49.60117" lon="-1.26242">
        <ele>4.764365</ele>
        <time>2022-07-30T14:40:22.000Z</time>
      </trkpt>
      <trkpt lat="49.60114" lon="-1.26244">
        <ele>4.768984</ele>
        <time>2022-07-30T14:40:23.000Z</time>
      </trkpt>
      <trkpt lat="49.60111" lon="-1.26245">
        <ele>4.774106</ele>
        <time>2022-07-30T14:40:24.000Z</time>
      </trkpt>
      <trkpt lat="49.60108" lon="-1.26247">
        <ele>4.778577</ele>
        <time>2022-07-30T14:40:25.000Z</time>
      </trkpt>
      <trkpt lat="49.60105" lon="-1.2625">
        <ele>4.782687</ele>
        <time>2022-07-30T14:40:26.000Z</time>
      </trkpt>
      <trkpt lat="49.60102" lon="-1.26252">
        <ele>4.78712</ele>
        <time>2022-07-30T14:40:27.000Z</time>
      </trkpt>
      <trkpt lat="49.601" lon="-1.26254">
        <ele>4.79083</ele>
        <time>2022-07-30T14:40:28.000Z</time>
      </trkpt>
      <trkpt lat="49.60098" lon="-1.26256">
        <ele>4.794655</ele>
        <time>2022-07-30T14:40:29.000Z</time>
      </trkpt>
      <trkpt lat="49.60096" lon="-1.26259">
        <ele>4.798416</ele>
        <time>2022-07-30T14:40:30.000Z</time>
      </trkpt>
      <trkpt lat="49.60093" lon="-1.26261">
        <ele>4.802146</ele>
        <time>2022-07-30T14:40:31.000Z</time>
      </trkpt>
      <trkpt lat="49.60091" lon="-1.26263">
        <ele>4.806305</ele>
        <time>2022-07-30T14:40:32.000Z</time>
      </trkpt>
      <trkpt lat="49.60089" lon="-1.26266">
        <ele>4.810082</ele>
        <time>2022-07-30T14:40:33.000Z</time>
      </trkpt>
      <trkpt lat="49.60086" lon="-1.26268">
        <ele>4.813646</ele>
        <time>2022-07-30T14:40:34.000Z</time>
      </trkpt>
      <trkpt lat="49.60084" lon="-1.2627">
        <ele>4.817305</ele>
        <time>2022-07-30T14:40:35.000Z</time>
      </trkpt>
      <trkpt lat="49.60082" lon="-1.26272">
        <ele>4.821131</ele>
        <time>2022-07-30T14:40:36.000Z</time>
      </trkpt>
      <trkpt lat="49.6008" lon="-1.26274">
        <ele>4.82484</ele>
        <time>2022-07-30T14:40:37.000Z</time>
      </trkpt>
      <trkpt lat="49.60077" lon="-1.26277">
        <ele>4.829351</ele>
        <time>2022-07-30T14:40:38.000Z</time>
      </trkpt>
      <trkpt lat="49.60074" lon="-1.26279">
        <ele>4.833406</ele>
        <time>2022-07-30T14:40:39.000Z</time>
      </trkpt>
      <trkpt lat="49.60071" lon="-1.2628">
        <ele>4.83816</ele>
        <time>2022-07-30T14:40:40.000Z</time>
      </trkpt>
      <trkpt lat="49.60069" lon="-1.26282">
        <ele>4.84209</ele>
        <time>2022-07-30T14:40:41.000Z</time>
      </trkpt>
      <trkpt lat="49.60066" lon="-1.26285">
        <ele>4.846319</ele>
        <time>2022-07-30T14:40:42.000Z</time>
      </trkpt>
      <trkpt lat="49.60063" lon="-1.26287">
        <ele>4.850791</ele>
        <time>2022-07-30T14:40:43.000Z</time>
      </trkpt>
      <trkpt lat="49.60061" lon="-1.26289">
        <ele>4.854949</ele>
        <time>2022-07-30T14:40:44.000Z</time>
      </trkpt>
      <trkpt lat="49.60058" lon="-1.26292">
        <ele>4.85946</ele>
        <time>2022-07-30T14:40:45.000Z</time>
      </trkpt>
      <trkpt lat="49.60055" lon="-1.26294">
        <ele>4.863893</ele>
        <time>2022-07-30T14:40:46.000Z</time>
      </trkpt>
      <trkpt lat="49.60052" lon="-1.26295">
        <ele>4.867744</ele>
        <time>2022-07-30T14:40:47.000Z</time>
      </trkpt>
      <trkpt lat="49.60049" lon="-1.26297">
        <ele>4.872142</ele>
        <time>2022-07-30T14:40:48.000Z</time>
      </trkpt>
      <trkpt lat="49.60047" lon="-1.26299">
        <ele>4.876049</ele>
        <time>2022-07-30T14:40:49.000Z</time>
      </trkpt>
      <trkpt lat="49.60044" lon="-1.26301">
        <ele>4.880066</ele>
        <time>2022-07-30T14:40:50.000Z</time>
      </trkpt>
      <trkpt lat="49.60041" lon="-1.26303">
        <ele>4.884577</ele>
        <time>2022-07-30T14:40:51.000Z</time>
      </trkpt>
      <trkpt lat="49.60038" lon="-1.26306">
        <ele>4.889128</ele>
        <time>2022-07-30T14:40:52.000Z</time>
      </trkpt>
      <trkpt lat="49.60035" lon="-1.26308">
        <ele>4.894134</ele>
        <time>2022-07-30T14:40:53.000Z</time>
      </trkpt>
      <trkpt lat="49.60032" lon="-1.2631">
        <ele>4.899024</ele>
        <time>2022-07-30T14:40:54.000Z</time>
      </trkpt>
      <trkpt lat="49.60029" lon="-1.26312">
        <ele>4.904234</ele>
        <time>2022-07-30T14:40:55.000Z</time>
      </trkpt>
      <trkpt lat="49.60025" lon="-1.26314">
        <ele>4.909443</ele>
        <time>2022-07-30T14:40:56.000Z</time>
      </trkpt>
      <trkpt lat="49.60021" lon="-1.26316">
        <ele>4.914784</ele>
        <time>2022-07-30T14:40:57.000Z</time>
      </trkpt>
      <trkpt lat="49.60018" lon="-1.26318">
        <ele>4.919933</ele>
        <time>2022-07-30T14:40:58.000Z</time>
      </trkpt>
      <trkpt lat="49.60014" lon="-1.2632">
        <ele>4.925456</ele>
        <time>2022-07-30T14:40:59.000Z</time>
      </trkpt>
      <trkpt lat="49.6001" lon="-1.26321">
        <ele>4.931025</ele>
        <time>2022-07-30T14:41:00.000Z</time>
      </trkpt>
      <trkpt lat="49.60006" lon="-1.26322">
        <ele>4.936439</ele>
        <time>2022-07-30T14:41:01.000Z</time>
      </trkpt>
      <trkpt lat="49.60002" lon="-1.26323">
        <ele>4.942346</ele>
        <time>2022-07-30T14:41:02.000Z</time>
      </trkpt>
      <trkpt lat="49.59998" lon="-1.26324">
        <ele>4.947699</ele>
        <time>2022-07-30T14:41:03.000Z</time>
      </trkpt>
      <trkpt lat="49.59994" lon="-1.26324">
        <ele>4.953573</ele>
        <time>2022-07-30T14:41:04.000Z</time>
      </trkpt>
      <trkpt lat="49.5999" lon="-1.26325">
        <ele>4.958884</ele>
        <time>2022-07-30T14:41:05.000Z</time>
      </trkpt>
      <trkpt lat="49.59986" lon="-1.26325">
        <ele>4.964746</ele>
        <time>2022-07-30T14:41:06.000Z</time>
      </trkpt>
      <trkpt lat="49.59982" lon="-1.26325">
        <ele>4.97089</ele>
        <time>2022-07-30T14:41:07.000Z</time>
      </trkpt>
      <trkpt lat="49.59978" lon="-1.26325">
        <ele>4.976753</ele>
        <time>2022-07-30T14:41:08.000Z</time>
      </trkpt>
      <trkpt lat="49.59974" lon="-1.26325">
        <ele>4.98206</ele>
        <time>2022-07-30T14:41:09.000Z</time>
      </trkpt>
      <trkpt lat="49.5997" lon="-1.26325">
        <ele>4.987088</ele>
        <time>2022-07-30T14:41:10.000Z</time>
      </trkpt>
      <trkpt lat="49.59966" lon="-1.26325">
        <ele>4.992393</ele>
        <time>2022-07-30T14:41:11.000Z</time>
      </trkpt>
      <trkpt lat="49.59963" lon="-1.26325">
        <ele>4.997962</ele>
        <time>2022-07-30T14:41:12.000Z</time>
      </trkpt>
      <trkpt lat="49.59958" lon="-1.26325">
        <ele>5.005848</ele>
        <time>2022-07-30T14:41:13.000Z</time>
      </trkpt>
      <trkpt lat="49.59955" lon="-1.26325">
        <ele>5.01298</ele>
        <time>2022-07-30T14:41:14.000Z</time>
      </trkpt>
      <trkpt lat="49.59951" lon="-1.26324">
        <ele>5.020308</ele>
        <time>2022-07-30T14:41:15.000Z</time>
      </trkpt>
      <trkpt lat="49.59947" lon="-1.26324">
        <ele>5.027443</ele>
        <time>2022-07-30T14:41:16.000Z</time>
      </trkpt>
      <trkpt lat="49.59943" lon="-1.26324">
        <ele>5.034766</ele>
        <time>2022-07-30T14:41:17.000Z</time>
      </trkpt>
      <trkpt lat="49.5994" lon="-1.26324">
        <ele>5.041339</ele>
        <time>2022-07-30T14:41:18.000Z</time>
      </trkpt>
      <trkpt lat="49.59936" lon="-1.26325">
        <ele>5.048521</ele>
        <time>2022-07-30T14:41:19.000Z</time>
      </trkpt>
      <trkpt lat="49.59933" lon="-1.26325">
        <ele>5.054571</ele>
        <time>2022-07-30T14:41:20.000Z</time>
      </trkpt>
      <trkpt lat="49.59929" lon="-1.26326">
        <ele>5.06199</ele>
        <time>2022-07-30T14:41:21.000Z</time>
      </trkpt>
      <trkpt lat="49.59925" lon="-1.26328">
        <ele>5.069322</ele>
        <time>2022-07-30T14:41:22.000Z</time>
      </trkpt>
      <trkpt lat="49.59922" lon="-1.2633">
        <ele>5.075714</ele>
        <time>2022-07-30T14:41:23.000Z</time>
      </trkpt>
      <trkpt lat="49.59918" lon="-1.26332">
        <ele>5.083249</ele>
        <time>2022-07-30T14:41:24.000Z</time>
      </trkpt>
      <trkpt lat="49.59914" lon="-1.26334">
        <ele>5.090561</ele>
        <time>2022-07-30T14:41:25.000Z</time>
      </trkpt>
      <trkpt lat="49.59911" lon="-1.26336">
        <ele>5.096632</ele>
        <time>2022-07-30T14:41:26.000Z</time>
      </trkpt>
      <trkpt lat="49.59908" lon="-1.26339">
        <ele>5.104041</ele>
        <time>2022-07-30T14:41:27.000Z</time>
      </trkpt>
      <trkpt lat="49.59905" lon="-1.26341">
        <ele>5.110052</ele>
        <time>2022-07-30T14:41:28.000Z</time>
      </trkpt>
      <trkpt lat="49.59902" lon="-1.26344">
        <ele>5.116287</ele>
        <time>2022-07-30T14:41:29.000Z</time>
      </trkpt>
      <trkpt lat="49.599" lon="-1.26346">
        <ele>5.121794</ele>
        <time>2022-07-30T14:41:30.000Z</time>
      </trkpt>
      <trkpt lat="49.59897" lon="-1.26348">
        <ele>5.126526</ele>
        <time>2022-07-30T14:41:31.000Z</time>
      </trkpt>
      <trkpt lat="49.59895" lon="-1.26349">
        <ele>5.130334</ele>
        <time>2022-07-30T14:41:32.000Z</time>
      </trkpt>
      <trkpt lat="49.59893" lon="-1.2635">
        <ele>5.134974</ele>
        <time>2022-07-30T14:41:33.000Z</time>
      </trkpt>
      <trkpt lat="49.59892" lon="-1.26352">
        <ele>5.138368</ele>
        <time>2022-07-30T14:41:34.000Z</time>
      </trkpt>
      <trkpt lat="49.5989" lon="-1.26353">
        <ele>5.142084</ele>
        <time>2022-07-30T14:41:35.000Z</time>
      </trkpt>
      <trkpt lat="49.59888" lon="-1.26355">
        <ele>5.145873</ele>
        <time>2022-07-30T14:41:36.000Z</time>
      </trkpt>
      <trkpt lat="49.59886" lon="-1.26359">
        <ele>5.152004</ele>
        <time>2022-07-30T14:41:38.000Z</time>
      </trkpt>
      <trkpt lat="49.59886" lon="-1.26362">
        <ele>5.155531</ele>
        <time>2022-07-30T14:41:39.000Z</time>
      </trkpt>
      <trkpt lat="49.59887" lon="-1.26365">
        <ele>5.158888</ele>
        <time>2022-07-30T14:41:40.000Z</time>
      </trkpt>
      <trkpt lat="49.59887" lon="-1.26368">
        <ele>5.162614</ele>
        <time>2022-07-30T14:41:41.000Z</time>
      </trkpt>
      <trkpt lat="49.59889" lon="-1.26372">
        <ele>5.168331</ele>
        <time>2022-07-30T14:41:43.000Z</time>
      </trkpt>
      <trkpt lat="49.5989" lon="-1.26376">
        <ele>5.173943</ele>
        <time>2022-07-30T14:41:45.000Z</time>
      </trkpt>
      <trkpt lat="49.59889" lon="-1.2638">
        <ele>5.179208</ele>
        <time>2022-07-30T14:41:47.000Z</time>
      </trkpt>
      <trkpt lat="49.59886" lon="-1.26383">
        <ele>5.18509</ele>
        <time>2022-07-30T14:41:49.000Z</time>
      </trkpt>
      <trkpt lat="49.59881" lon="-1.2639">
        <ele>5.198484</ele>
        <time>2022-07-30T14:43:23.000Z</time>
      </trkpt>
      <trkpt lat="49.59878" lon="-1.26393">
        <ele>5.204603</ele>
        <time>2022-07-30T14:43:24.000Z</time>
      </trkpt>
      <trkpt lat="49.59875" lon="-1.26395">
        <ele>5.210837</ele>
        <time>2022-07-30T14:43:25.000Z</time>
      </trkpt>
      <trkpt lat="49.59872" lon="-1.26398">
        <ele>5.217569</ele>
        <time>2022-07-30T14:43:26.000Z</time>
      </trkpt>
      <trkpt lat="49.59869" lon="-1.264">
        <ele>5.223688</ele>
        <time>2022-07-30T14:43:27.000Z</time>
      </trkpt>
      <trkpt lat="49.59866" lon="-1.26402">
        <ele>5.230876</ele>
        <time>2022-07-30T14:43:28.000Z</time>
      </trkpt>
      <trkpt lat="49.59862" lon="-1.26405">
        <ele>5.238629</ele>
        <time>2022-07-30T14:43:29.000Z</time>
      </trkpt>
      <trkpt lat="49.59858" lon="-1.26407">
        <ele>5.246554</ele>
        <time>2022-07-30T14:43:30.000Z</time>
      </trkpt>
      <trkpt lat="49.59854" lon="-1.2641">
        <ele>5.253844</ele>
        <time>2022-07-30T14:43:31.000Z</time>
      </trkpt>
      <trkpt lat="49.59851" lon="-1.26413">
        <ele>5.261001</ele>
        <time>2022-07-30T14:43:32.000Z</time>
      </trkpt>
      <trkpt lat="49.59848" lon="-1.26416">
        <ele>5.268344</ele>
        <time>2022-07-30T14:43:33.000Z</time>
      </trkpt>
      <trkpt lat="49.59844" lon="-1.26418">
        <ele>5.276317</ele>
        <time>2022-07-30T14:43:34.000Z</time>
      </trkpt>
      <trkpt lat="49.59841" lon="-1.26421">
        <ele>5.283345</ele>
        <time>2022-07-30T14:43:35.000Z</time>
      </trkpt>
      <trkpt lat="49.59837" lon="-1.26424">
        <ele>5.290309</ele>
        <time>2022-07-30T14:43:36.000Z</time>
      </trkpt>
      <trkpt lat="49.59834" lon="-1.26427">
        <ele>5.297823</ele>
        <time>2022-07-30T14:43:37.000Z</time>
      </trkpt>
      <trkpt lat="49.5983" lon="-1.2643">
        <ele>5.305222</ele>
        <time>2022-07-30T14:43:38.000Z</time>
      </trkpt>
      <trkpt lat="49.59827" lon="-1.26433">
        <ele>5.312126</ele>
        <time>2022-07-30T14:43:39.000Z</time>
      </trkpt>
      <trkpt lat="49.59824" lon="-1.26436">
        <ele>5.319582</ele>
        <time>2022-07-30T14:43:40.000Z</time>
      </trkpt>
      <trkpt lat="49.5982" lon="-1.26439">
        <ele>5.326981</ele>
        <time>2022-07-30T14:43:41.000Z</time>
      </trkpt>
      <trkpt lat="49.59817" lon="-1.26441">
        <ele>5.33441</ele>
        <time>2022-07-30T14:43:42.000Z</time>
      </trkpt>
      <trkpt lat="49.59814" lon="-1.26444">
        <ele>5.328821</ele>
        <time>2022-07-30T14:43:43.000Z</time>
      </trkpt>
      <trkpt lat="49.5981" lon="-1.26447">
        <ele>5.321804</ele>
        <time>2022-07-30T14:43:44.000Z</time>
      </trkpt>
      <trkpt lat="49.59807" lon="-1.26449">
        <ele>5.315093</ele>
        <time>2022-07-30T14:43:45.000Z</time>
      </trkpt>
      <trkpt lat="49.59804" lon="-1.26452">
        <ele>5.309241</ele>
        <time>2022-07-30T14:43:46.000Z</time>
      </trkpt>
      <trkpt lat="49.598" lon="-1.26455">
        <ele>5.30248</ele>
        <time>2022-07-30T14:43:47.000Z</time>
      </trkpt>
      <trkpt lat="49.59797" lon="-1.26458">
        <ele>5.295668</ele>
        <time>2022-07-30T14:43:48.000Z</time>
      </trkpt>
      <trkpt lat="49.59794" lon="-1.2646">
        <ele>5.289757</ele>
        <time>2022-07-30T14:43:49.000Z</time>
      </trkpt>
      <trkpt lat="49.5979" lon="-1.26463">
        <ele>5.282893</ele>
        <time>2022-07-30T14:43:50.000Z</time>
      </trkpt>
      <trkpt lat="49.59787" lon="-1.26466">
        <ele>5.276182</ele>
        <time>2022-07-30T14:43:51.000Z</time>
      </trkpt>
      <trkpt lat="49.59784" lon="-1.26469">
        <ele>5.269593</ele>
        <time>2022-07-30T14:43:52.000Z</time>
      </trkpt>
      <trkpt lat="49.59781" lon="-1.26472">
        <ele>5.263237</ele>
        <time>2022-07-30T14:43:53.000Z</time>
      </trkpt>
      <trkpt lat="49.59777" lon="-1.26475">
        <ele>5.255606</ele>
        <time>2022-07-30T14:43:54.000Z</time>
      </trkpt>
      <trkpt lat="49.59773" lon="-1.26478">
        <ele>5.248688</ele>
        <time>2022-07-30T14:43:55.000Z</time>
      </trkpt>
      <trkpt lat="49.5977" lon="-1.26481">
        <ele>5.242219</ele>
        <time>2022-07-30T14:43:56.000Z</time>
      </trkpt>
      <trkpt lat="49.59766" lon="-1.26484">
        <ele>5.234739</ele>
        <time>2022-07-30T14:43:57.000Z</time>
      </trkpt>
      <trkpt lat="49.59762" lon="-1.26488">
        <ele>5.227054</ele>
        <time>2022-07-30T14:43:58.000Z</time>
      </trkpt>
      <trkpt lat="49.59758" lon="-1.26491">
        <ele>5.219574</ele>
        <time>2022-07-30T14:43:59.000Z</time>
      </trkpt>
      <trkpt lat="49.59755" lon="-1.26494">
        <ele>5.212487</ele>
        <time>2022-07-30T14:44:00.000Z</time>
      </trkpt>
      <trkpt lat="49.59751" lon="-1.26497">
        <ele>5.2054</ele>
        <time>2022-07-30T14:44:01.000Z</time>
      </trkpt>
      <trkpt lat="49.59747" lon="-1.26501">
        <ele>5.197206</ele>
        <time>2022-07-30T14:44:02.000Z</time>
      </trkpt>
      <trkpt lat="49.59744" lon="-1.26504">
        <ele>5.190677</ele>
        <time>2022-07-30T14:44:03.000Z</time>
      </trkpt>
      <trkpt lat="49.59741" lon="-1.26507">
        <ele>5.183648</ele>
        <time>2022-07-30T14:44:04.000Z</time>
      </trkpt>
      <trkpt lat="49.59737" lon="-1.2651">
        <ele>5.177179</ele>
        <time>2022-07-30T14:44:05.000Z</time>
      </trkpt>
      <trkpt lat="49.59734" lon="-1.26513">
        <ele>5.171268</ele>
        <time>2022-07-30T14:44:06.000Z</time>
      </trkpt>
      <trkpt lat="49.59731" lon="-1.26516">
        <ele>5.164404</ele>
        <time>2022-07-30T14:44:07.000Z</time>
      </trkpt>
      <trkpt lat="49.59728" lon="-1.26518">
        <ele>5.158609</ele>
        <time>2022-07-30T14:44:08.000Z</time>
      </trkpt>
      <trkpt lat="49.59725" lon="-1.26521">
        <ele>5.151848</ele>
        <time>2022-07-30T14:44:09.000Z</time>
      </trkpt>
      <trkpt lat="49.59721" lon="-1.26524">
        <ele>5.145651</ele>
        <time>2022-07-30T14:44:10.000Z</time>
      </trkpt>
      <trkpt lat="49.59718" lon="-1.26526">
        <ele>5.139552</ele>
        <time>2022-07-30T14:44:11.000Z</time>
      </trkpt>
      <trkpt lat="49.59715" lon="-1.26529">
        <ele>5.13325</ele>
        <time>2022-07-30T14:44:12.000Z</time>
      </trkpt>
      <trkpt lat="49.59712" lon="-1.26531">
        <ele>5.127053</ele>
        <time>2022-07-30T14:44:13.000Z</time>
      </trkpt>
      <trkpt lat="49.59709" lon="-1.26534">
        <ele>5.120752</ele>
        <time>2022-07-30T14:44:14.000Z</time>
      </trkpt>
      <trkpt lat="49.59706" lon="-1.26536">
        <ele>5.114957</ele>
        <time>2022-07-30T14:44:15.000Z</time>
      </trkpt>
      <trkpt lat="49.59703" lon="-1.26539">
        <ele>5.109413</ele>
        <time>2022-07-30T14:44:16.000Z</time>
      </trkpt>
      <trkpt lat="49.59701" lon="-1.26542">
        <ele>5.104716</ele>
        <time>2022-07-30T14:44:17.000Z</time>
      </trkpt>
      <trkpt lat="49.59699" lon="-1.26545">
        <ele>5.100019</ele>
        <time>2022-07-30T14:44:18.000Z</time>
      </trkpt>
      <trkpt lat="49.59698" lon="-1.26548">
        <ele>5.095582</ele>
        <time>2022-07-30T14:44:19.000Z</time>
      </trkpt>
      <trkpt lat="49.59697" lon="-1.26552">
        <ele>5.091851</ele>
        <time>2022-07-30T14:44:20.000Z</time>
      </trkpt>
      <trkpt lat="49.59696" lon="-1.26555">
        <ele>5.08828</ele>
        <time>2022-07-30T14:44:21.000Z</time>
      </trkpt>
      <trkpt lat="49.59695" lon="-1.26557">
        <ele>5.08488</ele>
        <time>2022-07-30T14:44:22.000Z</time>
      </trkpt>
      <trkpt lat="49.59694" lon="-1.26559">
        <ele>5.081459</ele>
        <time>2022-07-30T14:44:23.000Z</time>
      </trkpt>
      <trkpt lat="49.59692" lon="-1.26561">
        <ele>5.078224</ele>
        <time>2022-07-30T14:44:24.000Z</time>
      </trkpt>
      <trkpt lat="49.59689" lon="-1.26563">
        <ele>5.071309</ele>
        <time>2022-07-30T14:44:26.000Z</time>
      </trkpt>
      <trkpt lat="49.59687" lon="-1.26565">
        <ele>5.067621</ele>
        <time>2022-07-30T14:44:27.000Z</time>
      </trkpt>
      <trkpt lat="49.59685" lon="-1.26566">
        <ele>5.064327</ele>
        <time>2022-07-30T14:44:28.000Z</time>
      </trkpt>
      <trkpt lat="49.59683" lon="-1.26569">
        <ele>5.060084</ele>
        <time>2022-07-30T14:44:29.000Z</time>
      </trkpt>
      <trkpt lat="49.59681" lon="-1.26571">
        <ele>5.05611</ele>
        <time>2022-07-30T14:44:30.000Z</time>
      </trkpt>
      <trkpt lat="49.59679" lon="-1.26573">
        <ele>5.051654</ele>
        <time>2022-07-30T14:44:31.000Z</time>
      </trkpt>
      <trkpt lat="49.59677" lon="-1.26575">
        <ele>5.046682</ele>
        <time>2022-07-30T14:44:32.000Z</time>
      </trkpt>
      <trkpt lat="49.59674" lon="-1.26577">
        <ele>5.041147</ele>
        <time>2022-07-30T14:44:33.000Z</time>
      </trkpt>
      <trkpt lat="49.59671" lon="-1.26579">
        <ele>5.035912</ele>
        <time>2022-07-30T14:44:34.000Z</time>
      </trkpt>
      <trkpt lat="49.59669" lon="-1.26582">
        <ele>5.031124</ele>
        <time>2022-07-30T14:44:35.000Z</time>
      </trkpt>
      <trkpt lat="49.59667" lon="-1.26585">
        <ele>5.026051</ele>
        <time>2022-07-30T14:44:36.000Z</time>
      </trkpt>
      <trkpt lat="49.59664" lon="-1.26588">
        <ele>5.020969</ele>
        <time>2022-07-30T14:44:37.000Z</time>
      </trkpt>
      <trkpt lat="49.59661" lon="-1.26591">
        <ele>5.016264</ele>
        <time>2022-07-30T14:44:38.000Z</time>
      </trkpt>
      <trkpt lat="49.59659" lon="-1.26594">
        <ele>5.012008</ele>
        <time>2022-07-30T14:44:39.000Z</time>
      </trkpt>
      <trkpt lat="49.59657" lon="-1.26597">
        <ele>5.007753</ele>
        <time>2022-07-30T14:44:40.000Z</time>
      </trkpt>
      <trkpt lat="49.59655" lon="-1.266">
        <ele>5.003136</ele>
        <time>2022-07-30T14:44:41.000Z</time>
      </trkpt>
      <trkpt lat="49.59653" lon="-1.26604">
        <ele>4.99835</ele>
        <time>2022-07-30T14:44:42.000Z</time>
      </trkpt>
      <trkpt lat="49.59651" lon="-1.26608">
        <ele>4.993691</ele>
        <time>2022-07-30T14:44:43.000Z</time>
      </trkpt>
      <trkpt lat="49.59649" lon="-1.26612">
        <ele>4.988719</ele>
        <time>2022-07-30T14:44:44.000Z</time>
      </trkpt>
      <trkpt lat="49.59646" lon="-1.26617">
        <ele>4.983223</ele>
        <time>2022-07-30T14:44:45.000Z</time>
      </trkpt>
      <trkpt lat="49.59644" lon="-1.26621">
        <ele>4.978129</ele>
        <time>2022-07-30T14:44:46.000Z</time>
      </trkpt>
      <trkpt lat="49.59642" lon="-1.26625">
        <ele>4.972908</ele>
        <time>2022-07-30T14:44:47.000Z</time>
      </trkpt>
      <trkpt lat="49.59639" lon="-1.26629">
        <ele>4.96752</ele>
        <time>2022-07-30T14:44:48.000Z</time>
      </trkpt>
      <trkpt lat="49.59637" lon="-1.26634">
        <ele>4.962475</ele>
        <time>2022-07-30T14:44:49.000Z</time>
      </trkpt>
      <trkpt lat="49.59635" lon="-1.26639">
        <ele>4.957271</ele>
        <time>2022-07-30T14:44:50.000Z</time>
      </trkpt>
      <trkpt lat="49.59633" lon="-1.26643">
        <ele>4.951825</ele>
        <time>2022-07-30T14:44:51.000Z</time>
      </trkpt>
      <trkpt lat="49.59631" lon="-1.26648">
        <ele>4.946622</ele>
        <time>2022-07-30T14:44:52.000Z</time>
      </trkpt>
      <trkpt lat="49.59629" lon="-1.26653">
        <ele>4.941258</ele>
        <time>2022-07-30T14:44:53.000Z</time>
      </trkpt>
      <trkpt lat="49.59627" lon="-1.26657">
        <ele>4.935887</ele>
        <time>2022-07-30T14:44:54.000Z</time>
      </trkpt>
      <trkpt lat="49.59625" lon="-1.26662">
        <ele>4.930355</ele>
        <time>2022-07-30T14:44:55.000Z</time>
      </trkpt>
      <trkpt lat="49.59623" lon="-1.26667">
        <ele>4.925117</ele>
        <time>2022-07-30T14:44:56.000Z</time>
      </trkpt>
      <trkpt lat="49.59621" lon="-1.26672">
        <ele>4.919439</ele>
        <time>2022-07-30T14:44:57.000Z</time>
      </trkpt>
      <trkpt lat="49.59619" lon="-1.26677">
        <ele>4.914201</ele>
        <time>2022-07-30T14:44:58.000Z</time>
      </trkpt>
      <trkpt lat="49.59617" lon="-1.26682">
        <ele>4.908511</ele>
        <time>2022-07-30T14:44:59.000Z</time>
      </trkpt>
      <trkpt lat="49.59616" lon="-1.26688">
        <ele>4.902934</ele>
        <time>2022-07-30T14:45:00.000Z</time>
      </trkpt>
      <trkpt lat="49.59614" lon="-1.26693">
        <ele>4.897441</ele>
        <time>2022-07-30T14:45:01.000Z</time>
      </trkpt>
      <trkpt lat="49.59613" lon="-1.26699">
        <ele>4.891942</ele>
        <time>2022-07-30T14:45:02.000Z</time>
      </trkpt>
      <trkpt lat="49.59612" lon="-1.26704">
        <ele>4.886394</ele>
        <time>2022-07-30T14:45:03.000Z</time>
      </trkpt>
      <trkpt lat="49.59612" lon="-1.2671">
        <ele>4.881209</ele>
        <time>2022-07-30T14:45:04.000Z</time>
      </trkpt>
      <trkpt lat="49.59612" lon="-1.26715">
        <ele>4.876042</ele>
        <time>2022-07-30T14:45:05.000Z</time>
      </trkpt>
      <trkpt lat="49.59612" lon="-1.26721">
        <ele>4.870782</ele>
        <time>2022-07-30T14:45:06.000Z</time>
      </trkpt>
      <trkpt lat="49.59612" lon="-1.26727">
        <ele>4.865239</ele>
        <time>2022-07-30T14:45:07.000Z</time>
      </trkpt>
      <trkpt lat="49.59612" lon="-1.26733">
        <ele>4.859586</ele>
        <time>2022-07-30T14:45:08.000Z</time>
      </trkpt>
      <trkpt lat="49.59612" lon="-1.26738">
        <ele>4.854293</ele>
        <time>2022-07-30T14:45:09.000Z</time>
      </trkpt>
      <trkpt lat="49.59612" lon="-1.26744">
        <ele>4.849094</ele>
        <time>2022-07-30T14:45:10.000Z</time>
      </trkpt>
      <trkpt lat="49.59612" lon="-1.26749">
        <ele>4.844002</ele>
        <time>2022-07-30T14:45:11.000Z</time>
      </trkpt>
      <trkpt lat="49.59611" lon="-1.26755">
        <ele>4.838948</ele>
        <time>2022-07-30T14:45:12.000Z</time>
      </trkpt>
      <trkpt lat="49.5961" lon="-1.2676">
        <ele>4.833582</ele>
        <time>2022-07-30T14:45:13.000Z</time>
      </trkpt>
      <trkpt lat="49.59609" lon="-1.26765">
        <ele>4.828526</ele>
        <time>2022-07-30T14:45:14.000Z</time>
      </trkpt>
      <trkpt lat="49.59607" lon="-1.2677">
        <ele>4.823455</ele>
        <time>2022-07-30T14:45:15.000Z</time>
      </trkpt>
      <trkpt lat="49.59605" lon="-1.26775">
        <ele>4.818072</ele>
        <time>2022-07-30T14:45:16.000Z</time>
      </trkpt>
      <trkpt lat="49.59603" lon="-1.26779">
        <ele>4.813143</ele>
        <time>2022-07-30T14:45:17.000Z</time>
      </trkpt>
      <trkpt lat="49.596" lon="-1.26783">
        <ele>4.807822</ele>
        <time>2022-07-30T14:45:18.000Z</time>
      </trkpt>
      <trkpt lat="49.59598" lon="-1.26787">
        <ele>4.802675</ele>
        <time>2022-07-30T14:45:19.000Z</time>
      </trkpt>
      <trkpt lat="49.59596" lon="-1.26791">
        <ele>4.797292</ele>
        <time>2022-07-30T14:45:20.000Z</time>
      </trkpt>
      <trkpt lat="49.59594" lon="-1.26796">
        <ele>4.792325</ele>
        <time>2022-07-30T14:45:21.000Z</time>
      </trkpt>
      <trkpt lat="49.59592" lon="-1.268">
        <ele>4.78728</ele>
        <time>2022-07-30T14:45:22.000Z</time>
      </trkpt>
      <trkpt lat="49.5959" lon="-1.26805">
        <ele>4.782622</ele>
        <time>2022-07-30T14:45:23.000Z</time>
      </trkpt>
      <trkpt lat="49.59589" lon="-1.2681">
        <ele>4.777561</ele>
        <time>2022-07-30T14:45:24.000Z</time>
      </trkpt>
      <trkpt lat="49.59588" lon="-1.26815">
        <ele>4.7725</ele>
        <time>2022-07-30T14:45:25.000Z</time>
      </trkpt>
      <trkpt lat="49.59587" lon="-1.2682">
        <ele>4.767538</ele>
        <time>2022-07-30T14:45:26.000Z</time>
      </trkpt>
      <trkpt lat="49.59587" lon="-1.26825">
        <ele>4.762679</ele>
        <time>2022-07-30T14:45:27.000Z</time>
      </trkpt>
      <trkpt lat="49.59586" lon="-1.2683">
        <ele>4.759507</ele>
        <time>2022-07-30T14:45:28.000Z</time>
      </trkpt>
      <trkpt lat="49.59586" lon="-1.26835">
        <ele>4.756418</ele>
        <time>2022-07-30T14:45:29.000Z</time>
      </trkpt>
      <trkpt lat="49.59586" lon="-1.2684">
        <ele>4.75339</ele>
        <time>2022-07-30T14:45:30.000Z</time>
      </trkpt>
      <trkpt lat="49.59586" lon="-1.26846">
        <ele>4.750119</ele>
        <time>2022-07-30T14:45:31.000Z</time>
      </trkpt>
      <trkpt lat="49.59587" lon="-1.26851">
        <ele>4.746776</ele>
        <time>2022-07-30T14:45:32.000Z</time>
      </trkpt>
      <trkpt lat="49.59588" lon="-1.26856">
        <ele>4.743517</ele>
        <time>2022-07-30T14:45:33.000Z</time>
      </trkpt>
      <trkpt lat="49.59589" lon="-1.26861">
        <ele>4.740254</ele>
        <time>2022-07-30T14:45:34.000Z</time>
      </trkpt>
      <trkpt lat="49.5959" lon="-1.26867">
        <ele>4.736969</ele>
        <time>2022-07-30T14:45:35.000Z</time>
      </trkpt>
      <trkpt lat="49.59592" lon="-1.26872">
        <ele>4.733482</ele>
        <time>2022-07-30T14:45:36.000Z</time>
      </trkpt>
      <trkpt lat="49.59593" lon="-1.26877">
        <ele>4.730163</ele>
        <time>2022-07-30T14:45:37.000Z</time>
      </trkpt>
      <trkpt lat="49.59594" lon="-1.26882">
        <ele>4.72682</ele>
        <time>2022-07-30T14:45:38.000Z</time>
      </trkpt>
      <trkpt lat="49.59596" lon="-1.26887">
        <ele>4.723333</ele>
        <time>2022-07-30T14:45:39.000Z</time>
      </trkpt>
      <trkpt lat="49.59597" lon="-1.26893">
        <ele>4.719682</ele>
        <time>2022-07-30T14:45:40.000Z</time>
      </trkpt>
      <trkpt lat="49.59599" lon="-1.26898">
        <ele>4.716031</ele>
        <time>2022-07-30T14:45:41.000Z</time>
      </trkpt>
      <trkpt lat="49.596" lon="-1.26904">
        <ele>4.712485</ele>
        <time>2022-07-30T14:45:42.000Z</time>
      </trkpt>
      <trkpt lat="49.59601" lon="-1.26909">
        <ele>4.709025</ele>
        <time>2022-07-30T14:45:43.000Z</time>
      </trkpt>
      <trkpt lat="49.59602" lon="-1.26915">
        <ele>4.705707</ele>
        <time>2022-07-30T14:45:44.000Z</time>
      </trkpt>
      <trkpt lat="49.59603" lon="-1.2692">
        <ele>4.70213</ele>
        <time>2022-07-30T14:45:45.000Z</time>
      </trkpt>
      <trkpt lat="49.59604" lon="-1.26926">
        <ele>4.698727</ele>
        <time>2022-07-30T14:45:46.000Z</time>
      </trkpt>
      <trkpt lat="49.59604" lon="-1.26932">
        <ele>4.695274</ele>
        <time>2022-07-30T14:45:47.000Z</time>
      </trkpt>
      <trkpt lat="49.59604" lon="-1.26937">
        <ele>4.69181</ele>
        <time>2022-07-30T14:45:48.000Z</time>
      </trkpt>
      <trkpt lat="49.59604" lon="-1.26943">
        <ele>4.688419</ele>
        <time>2022-07-30T14:45:49.000Z</time>
      </trkpt>
      <trkpt lat="49.59604" lon="-1.26948">
        <ele>4.685076</ele>
        <time>2022-07-30T14:45:50.000Z</time>
      </trkpt>
      <trkpt lat="49.59603" lon="-1.26954">
        <ele>4.681612</ele>
        <time>2022-07-30T14:45:51.000Z</time>
      </trkpt>
      <trkpt lat="49.59603" lon="-1.2696">
        <ele>4.678159</ele>
        <time>2022-07-30T14:45:52.000Z</time>
      </trkpt>
      <trkpt lat="49.59604" lon="-1.26965">
        <ele>4.674756</ele>
        <time>2022-07-30T14:45:53.000Z</time>
      </trkpt>
      <trkpt lat="49.59604" lon="-1.26971">
        <ele>4.671171</ele>
        <time>2022-07-30T14:45:54.000Z</time>
      </trkpt>
      <trkpt lat="49.59605" lon="-1.26977">
        <ele>4.667712</ele>
        <time>2022-07-30T14:45:55.000Z</time>
      </trkpt>
      <trkpt lat="49.59605" lon="-1.26982">
        <ele>4.664369</ele>
        <time>2022-07-30T14:45:56.000Z</time>
      </trkpt>
      <trkpt lat="49.59606" lon="-1.26988">
        <ele>4.661025</ele>
        <time>2022-07-30T14:45:57.000Z</time>
      </trkpt>
      <trkpt lat="49.59607" lon="-1.26993">
        <ele>4.657707</ele>
        <time>2022-07-30T14:45:58.000Z</time>
      </trkpt>
      <trkpt lat="49.59608" lon="-1.26998">
        <ele>4.654371</ele>
        <time>2022-07-30T14:45:59.000Z</time>
      </trkpt>
      <trkpt lat="49.59609" lon="-1.27004">
        <ele>4.650939</ele>
        <time>2022-07-30T14:46:00.000Z</time>
      </trkpt>
      <trkpt lat="49.5961" lon="-1.27009">
        <ele>4.647621</ele>
        <time>2022-07-30T14:46:01.000Z</time>
      </trkpt>
      <trkpt lat="49.59611" lon="-1.27014">
        <ele>4.644219</ele>
        <time>2022-07-30T14:46:02.000Z</time>
      </trkpt>
      <trkpt lat="49.59612" lon="-1.2702">
        <ele>4.64096</ele>
        <time>2022-07-30T14:46:03.000Z</time>
      </trkpt>
      <trkpt lat="49.59612" lon="-1.27024">
        <ele>4.6381</ele>
        <time>2022-07-30T14:46:04.000Z</time>
      </trkpt>
      <trkpt lat="49.59613" lon="-1.27029">
        <ele>4.635333</ele>
        <time>2022-07-30T14:46:05.000Z</time>
      </trkpt>
      <trkpt lat="49.59613" lon="-1.27033">
        <ele>4.632774</ele>
        <time>2022-07-30T14:46:06.000Z</time>
      </trkpt>
      <trkpt lat="49.59614" lon="-1.27037">
        <ele>4.630206</ele>
        <time>2022-07-30T14:46:07.000Z</time>
      </trkpt>
      <trkpt lat="49.59614" lon="-1.27041">
        <ele>4.627646</ele>
        <time>2022-07-30T14:46:08.000Z</time>
      </trkpt>
      <trkpt lat="49.59615" lon="-1.27046">
        <ele>4.624662</ele>
        <time>2022-07-30T14:46:09.000Z</time>
      </trkpt>
      <trkpt lat="49.59616" lon="-1.2705">
        <ele>4.62188</ele>
        <time>2022-07-30T14:46:10.000Z</time>
      </trkpt>
      <trkpt lat="49.59617" lon="-1.27055">
        <ele>4.618826</ele>
        <time>2022-07-30T14:46:11.000Z</time>
      </trkpt>
      <trkpt lat="49.59618" lon="-1.27059">
        <ele>4.615974</ele>
        <time>2022-07-30T14:46:12.000Z</time>
      </trkpt>
      <trkpt lat="49.59619" lon="-1.27064">
        <ele>4.612977</ele>
        <time>2022-07-30T14:46:13.000Z</time>
      </trkpt>
      <trkpt lat="49.5962" lon="-1.27069">
        <ele>4.610009</ele>
        <time>2022-07-30T14:46:14.000Z</time>
      </trkpt>
      <trkpt lat="49.59621" lon="-1.27073">
        <ele>4.607006</ele>
        <time>2022-07-30T14:46:15.000Z</time>
      </trkpt>
      <trkpt lat="49.59623" lon="-1.27077">
        <ele>4.603849</ele>
        <time>2022-07-30T14:46:16.000Z</time>
      </trkpt>
      <trkpt lat="49.59625" lon="-1.27082">
        <ele>4.600846</ele>
        <time>2022-07-30T14:46:17.000Z</time>
      </trkpt>
      <trkpt lat="49.59626" lon="-1.27086">
        <ele>4.598066</ele>
        <time>2022-07-30T14:46:18.000Z</time>
      </trkpt>
      <trkpt lat="49.59628" lon="-1.2709">
        <ele>4.595168</ele>
        <time>2022-07-30T14:46:19.000Z</time>
      </trkpt>
      <trkpt lat="49.59629" lon="-1.27094">
        <ele>4.599617</ele>
        <time>2022-07-30T14:46:20.000Z</time>
      </trkpt>
      <trkpt lat="49.59631" lon="-1.27099">
        <ele>4.604611</ele>
        <time>2022-07-30T14:46:21.000Z</time>
      </trkpt>
      <trkpt lat="49.59633" lon="-1.27103">
        <ele>4.60952</ele>
        <time>2022-07-30T14:46:22.000Z</time>
      </trkpt>
      <trkpt lat="49.59634" lon="-1.27108">
        <ele>4.614402</ele>
        <time>2022-07-30T14:46:23.000Z</time>
      </trkpt>
      <trkpt lat="49.59635" lon="-1.27112">
        <ele>4.619107</ele>
        <time>2022-07-30T14:46:24.000Z</time>
      </trkpt>
      <trkpt lat="49.59636" lon="-1.27117">
        <ele>4.624055</ele>
        <time>2022-07-30T14:46:25.000Z</time>
      </trkpt>
      <trkpt lat="49.59636" lon="-1.27123">
        <ele>4.629246</ele>
        <time>2022-07-30T14:46:26.000Z</time>
      </trkpt>
      <trkpt lat="49.59637" lon="-1.27128">
        <ele>4.634386</ele>
        <time>2022-07-30T14:46:27.000Z</time>
      </trkpt>
      <trkpt lat="49.59637" lon="-1.27133">
        <ele>4.639142</ele>
        <time>2022-07-30T14:46:28.000Z</time>
      </trkpt>
      <trkpt lat="49.59639" lon="-1.27137">
        <ele>4.643936</ele>
        <time>2022-07-30T14:46:29.000Z</time>
      </trkpt>
      <trkpt lat="49.5964" lon="-1.27141">
        <ele>4.648464</ele>
        <time>2022-07-30T14:46:30.000Z</time>
      </trkpt>
      <trkpt lat="49.59641" lon="-1.27145">
        <ele>4.652636</ele>
        <time>2022-07-30T14:46:31.000Z</time>
      </trkpt>
      <trkpt lat="49.59642" lon="-1.27149">
        <ele>4.656252</ele>
        <time>2022-07-30T14:46:32.000Z</time>
      </trkpt>
      <trkpt lat="49.59642" lon="-1.27152">
        <ele>4.65956</ele>
        <time>2022-07-30T14:46:33.000Z</time>
      </trkpt>
      <trkpt lat="49.59641" lon="-1.27155">
        <ele>4.662514</ele>
        <time>2022-07-30T14:46:34.000Z</time>
      </trkpt>
      <trkpt lat="49.5964" lon="-1.27158">
        <ele>4.665797</ele>
        <time>2022-07-30T14:46:35.000Z</time>
      </trkpt>
      <trkpt lat="49.59638" lon="-1.2716">
        <ele>4.669249</ele>
        <time>2022-07-30T14:46:36.000Z</time>
      </trkpt>
      <trkpt lat="49.59636" lon="-1.27161">
        <ele>4.672998</ele>
        <time>2022-07-30T14:46:37.000Z</time>
      </trkpt>
      <trkpt lat="49.59634" lon="-1.27162">
        <ele>4.676011</ele>
        <time>2022-07-30T14:46:38.000Z</time>
      </trkpt>
      <trkpt lat="49.59631" lon="-1.27163">
        <ele>4.679454</ele>
        <time>2022-07-30T14:46:39.000Z</time>
      </trkpt>
      <trkpt lat="49.59629" lon="-1.27164">
        <ele>4.683131</ele>
        <time>2022-07-30T14:46:40.000Z</time>
      </trkpt>
      <trkpt lat="49.59627" lon="-1.27166">
        <ele>4.686825</ele>
        <time>2022-07-30T14:46:41.000Z</time>
      </trkpt>
      <trkpt lat="49.59625" lon="-1.27168">
        <ele>4.690653</ele>
        <time>2022-07-30T14:46:42.000Z</time>
      </trkpt>
      <trkpt lat="49.59622" lon="-1.27169">
        <ele>4.69468</ele>
        <time>2022-07-30T14:46:43.000Z</time>
      </trkpt>
      <trkpt lat="49.5962" lon="-1.27171">
        <ele>4.698357</ele>
        <time>2022-07-30T14:46:44.000Z</time>
      </trkpt>
      <trkpt lat="49.59617" lon="-1.27172">
        <ele>4.702383</ele>
        <time>2022-07-30T14:46:45.000Z</time>
      </trkpt>
      <trkpt lat="49.59615" lon="-1.27174">
        <ele>4.70655</ele>
        <time>2022-07-30T14:46:46.000Z</time>
      </trkpt>
      <trkpt lat="49.59612" lon="-1.27175">
        <ele>4.711518</ele>
        <time>2022-07-30T14:46:47.000Z</time>
      </trkpt>
      <trkpt lat="49.59608" lon="-1.27176">
        <ele>4.716511</ele>
        <time>2022-07-30T14:46:48.000Z</time>
      </trkpt>
      <trkpt lat="49.59606" lon="-1.27177">
        <ele>4.720388</ele>
        <time>2022-07-30T14:46:49.000Z</time>
      </trkpt>
      <trkpt lat="49.59603" lon="-1.27178">
        <ele>4.724334</ele>
        <time>2022-07-30T14:46:50.000Z</time>
      </trkpt>
      <trkpt lat="49.596" lon="-1.27178">
        <ele>4.729162</ele>
        <time>2022-07-30T14:46:51.000Z</time>
      </trkpt>
      <trkpt lat="49.59597" lon="-1.27179">
        <ele>4.733542</ele>
        <time>2022-07-30T14:46:52.000Z</time>
      </trkpt>
      <trkpt lat="49.59594" lon="-1.2718">
        <ele>4.737949</ele>
        <time>2022-07-30T14:46:53.000Z</time>
      </trkpt>
      <trkpt lat="49.59592" lon="-1.2718">
        <ele>4.741781</ele>
        <time>2022-07-30T14:46:54.000Z</time>
      </trkpt>
      <trkpt lat="49.59589" lon="-1.27181">
        <ele>4.746633</ele>
        <time>2022-07-30T14:46:55.000Z</time>
      </trkpt>
      <trkpt lat="49.59586" lon="-1.27182">
        <ele>4.751094</ele>
        <time>2022-07-30T14:46:56.000Z</time>
      </trkpt>
      <trkpt lat="49.59582" lon="-1.27183">
        <ele>4.755922</ele>
        <time>2022-07-30T14:46:57.000Z</time>
      </trkpt>
      <trkpt lat="49.5958" lon="-1.27183">
        <ele>4.760328</ele>
        <time>2022-07-30T14:46:58.000Z</time>
      </trkpt>
      <trkpt lat="49.59576" lon="-1.27184">
        <ele>4.765229</ele>
        <time>2022-07-30T14:46:59.000Z</time>
      </trkpt>
      <trkpt lat="49.59573" lon="-1.27185">
        <ele>4.769652</ele>
        <time>2022-07-30T14:47:00.000Z</time>
      </trkpt>
      <trkpt lat="49.5957" lon="-1.27186">
        <ele>4.774518</ele>
        <time>2022-07-30T14:47:01.000Z</time>
      </trkpt>
      <trkpt lat="49.59567" lon="-1.27187">
        <ele>4.779816</ele>
        <time>2022-07-30T14:47:02.000Z</time>
      </trkpt>
      <trkpt lat="49.59564" lon="-1.27187">
        <ele>4.784238</ele>
        <time>2022-07-30T14:47:03.000Z</time>
      </trkpt>
      <trkpt lat="49.59561" lon="-1.27188">
        <ele>4.789121</ele>
        <time>2022-07-30T14:47:04.000Z</time>
      </trkpt>
      <trkpt lat="49.59557" lon="-1.27189">
        <ele>4.793987</ele>
        <time>2022-07-30T14:47:05.000Z</time>
      </trkpt>
      <trkpt lat="49.59554" lon="-1.2719">
        <ele>4.798839</ele>
        <time>2022-07-30T14:47:06.000Z</time>
      </trkpt>
      <trkpt lat="49.59551" lon="-1.27191">
        <ele>4.80415</ele>
        <time>2022-07-30T14:47:07.000Z</time>
      </trkpt>
      <trkpt lat="49.59548" lon="-1.27191">
        <ele>4.808573</ele>
        <time>2022-07-30T14:47:08.000Z</time>
      </trkpt>
      <trkpt lat="49.59544" lon="-1.27192">
        <ele>4.81387</ele>
        <time>2022-07-30T14:47:09.000Z</time>
      </trkpt>
      <trkpt lat="49.59541" lon="-1.27193">
        <ele>4.818293</ele>
        <time>2022-07-30T14:47:10.000Z</time>
      </trkpt>
      <trkpt lat="49.59538" lon="-1.27194">
        <ele>4.823591</ele>
        <time>2022-07-30T14:47:11.000Z</time>
      </trkpt>
      <trkpt lat="49.59534" lon="-1.27194">
        <ele>4.828867</ele>
        <time>2022-07-30T14:47:12.000Z</time>
      </trkpt>
      <trkpt lat="49.59531" lon="-1.27195">
        <ele>4.834178</ele>
        <time>2022-07-30T14:47:13.000Z</time>
      </trkpt>
      <trkpt lat="49.59528" lon="-1.27196">
        <ele>4.838639</ele>
        <time>2022-07-30T14:47:14.000Z</time>
      </trkpt>
      <trkpt lat="49.59525" lon="-1.27196">
        <ele>4.843467</ele>
        <time>2022-07-30T14:47:15.000Z</time>
      </trkpt>
      <trkpt lat="49.59522" lon="-1.27197">
        <ele>4.84835</ele>
        <time>2022-07-30T14:47:16.000Z</time>
      </trkpt>
      <trkpt lat="49.59518" lon="-1.27198">
        <ele>4.853272</ele>
        <time>2022-07-30T14:47:17.000Z</time>
      </trkpt>
      <trkpt lat="49.59515" lon="-1.27199">
        <ele>4.858598</ele>
        <time>2022-07-30T14:47:18.000Z</time>
      </trkpt>
      <trkpt lat="49.59511" lon="-1.272">
        <ele>4.864533</ele>
        <time>2022-07-30T14:47:19.000Z</time>
      </trkpt>
      <trkpt lat="49.59508" lon="-1.27201">
        <ele>4.872822</ele>
        <time>2022-07-30T14:47:20.000Z</time>
      </trkpt>
      <trkpt lat="49.59504" lon="-1.27202">
        <ele>4.881366</ele>
        <time>2022-07-30T14:47:21.000Z</time>
      </trkpt>
      <trkpt lat="49.595" lon="-1.27203">
        <ele>4.890647</ele>
        <time>2022-07-30T14:47:22.000Z</time>
      </trkpt>
      <trkpt lat="49.59496" lon="-1.27204">
        <ele>4.900137</ele>
        <time>2022-07-30T14:47:23.000Z</time>
      </trkpt>
      <trkpt lat="49.59493" lon="-1.27205">
        <ele>4.908682</ele>
        <time>2022-07-30T14:47:24.000Z</time>
      </trkpt>
      <trkpt lat="49.5949" lon="-1.27206">
        <ele>4.91649</ele>
        <time>2022-07-30T14:47:25.000Z</time>
      </trkpt>
      <trkpt lat="49.59486" lon="-1.27207">
        <ele>4.925743</ele>
        <time>2022-07-30T14:47:26.000Z</time>
      </trkpt>
      <trkpt lat="49.59482" lon="-1.27208">
        <ele>4.935233</ele>
        <time>2022-07-30T14:47:27.000Z</time>
      </trkpt>
      <trkpt lat="49.59478" lon="-1.27209">
        <ele>4.943727</ele>
        <time>2022-07-30T14:47:28.000Z</time>
      </trkpt>
      <trkpt lat="49.59475" lon="-1.2721">
        <ele>4.952933</ele>
        <time>2022-07-30T14:47:29.000Z</time>
      </trkpt>
      <trkpt lat="49.59471" lon="-1.27211">
        <ele>4.962399</ele>
        <time>2022-07-30T14:47:30.000Z</time>
      </trkpt>
      <trkpt lat="49.59467" lon="-1.27212">
        <ele>4.971605</ele>
        <time>2022-07-30T14:47:31.000Z</time>
      </trkpt>
      <trkpt lat="49.59463" lon="-1.27213">
        <ele>4.981095</ele>
        <time>2022-07-30T14:47:32.000Z</time>
      </trkpt>
      <trkpt lat="49.5946" lon="-1.27214">
        <ele>4.989038</ele>
        <time>2022-07-30T14:47:33.000Z</time>
      </trkpt>
      <trkpt lat="49.59456" lon="-1.27215">
        <ele>4.998349</ele>
        <time>2022-07-30T14:47:34.000Z</time>
      </trkpt>
      <trkpt lat="49.59452" lon="-1.27216">
        <ele>5.007603</ele>
        <time>2022-07-30T14:47:35.000Z</time>
      </trkpt>
      <trkpt lat="49.59448" lon="-1.27217">
        <ele>5.017047</ele>
        <time>2022-07-30T14:47:36.000Z</time>
      </trkpt>
      <trkpt lat="49.59445" lon="-1.27218">
        <ele>5.026275</ele>
        <time>2022-07-30T14:47:37.000Z</time>
      </trkpt>
      <trkpt lat="49.59441" lon="-1.27218">
        <ele>5.034728</ele>
        <time>2022-07-30T14:47:38.000Z</time>
      </trkpt>
      <trkpt lat="49.59437" lon="-1.27219">
        <ele>5.043483</ele>
        <time>2022-07-30T14:47:39.000Z</time>
      </trkpt>
      <trkpt lat="49.59435" lon="-1.2722">
        <ele>5.050318</ele>
        <time>2022-07-30T14:47:40.000Z</time>
      </trkpt>
      <trkpt lat="49.59432" lon="-1.27221">
        <ele>5.05739</ele>
        <time>2022-07-30T14:47:41.000Z</time>
      </trkpt>
      <trkpt lat="49.59429" lon="-1.27221">
        <ele>5.063679</ele>
        <time>2022-07-30T14:47:42.000Z</time>
      </trkpt>
      <trkpt lat="49.59427" lon="-1.27222">
        <ele>5.069689</ele>
        <time>2022-07-30T14:47:43.000Z</time>
      </trkpt>
      <trkpt lat="49.59424" lon="-1.27222">
        <ele>5.07665</ele>
        <time>2022-07-30T14:47:44.000Z</time>
      </trkpt>
      <trkpt lat="49.59421" lon="-1.27222">
        <ele>5.083618</ele>
        <time>2022-07-30T14:47:45.000Z</time>
      </trkpt>
      <trkpt lat="49.59418" lon="-1.27222">
        <ele>5.089929</ele>
        <time>2022-07-30T14:47:46.000Z</time>
      </trkpt>
      <trkpt lat="49.59416" lon="-1.27224">
        <ele>5.096214</ele>
        <time>2022-07-30T14:47:47.000Z</time>
      </trkpt>
      <trkpt lat="49.59413" lon="-1.27224">
        <ele>5.101754</ele>
        <time>2022-07-30T14:47:48.000Z</time>
      </trkpt>
      <trkpt lat="49.59412" lon="-1.27223">
        <ele>5.106381</ele>
        <time>2022-07-30T14:47:49.000Z</time>
      </trkpt>
      <trkpt lat="49.5941" lon="-1.27223">
        <ele>5.111109</ele>
        <time>2022-07-30T14:47:50.000Z</time>
      </trkpt>
      <trkpt lat="49.59408" lon="-1.27221">
        <ele>5.116461</ele>
        <time>2022-07-30T14:47:51.000Z</time>
      </trkpt>
      <trkpt lat="49.59406" lon="-1.27219">
        <ele>5.122163</ele>
        <time>2022-07-30T14:47:52.000Z</time>
      </trkpt>
      <trkpt lat="49.59404" lon="-1.27217">
        <ele>5.127645</ele>
        <time>2022-07-30T14:47:53.000Z</time>
      </trkpt>
      <trkpt lat="49.59401" lon="-1.27216">
        <ele>5.133773</ele>
        <time>2022-07-30T14:47:54.000Z</time>
      </trkpt>
      <trkpt lat="49.59399" lon="-1.27216">
        <ele>5.140022</ele>
        <time>2022-07-30T14:47:55.000Z</time>
      </trkpt>
      <trkpt lat="49.59396" lon="-1.27217">
        <ele>5.14786</ele>
        <time>2022-07-30T14:47:56.000Z</time>
      </trkpt>
      <trkpt lat="49.59392" lon="-1.27218">
        <ele>5.155697</ele>
        <time>2022-07-30T14:47:57.000Z</time>
      </trkpt>
      <trkpt lat="49.59389" lon="-1.27219">
        <ele>5.164867</ele>
        <time>2022-07-30T14:47:58.000Z</time>
      </trkpt>
      <trkpt lat="49.59385" lon="-1.2722">
        <ele>5.173384</ele>
        <time>2022-07-30T14:47:59.000Z</time>
      </trkpt>
      <trkpt lat="49.59381" lon="-1.2722">
        <ele>5.182792</ele>
        <time>2022-07-30T14:48:00.000Z</time>
      </trkpt>
      <trkpt lat="49.59378" lon="-1.27221">
        <ele>5.191337</ele>
        <time>2022-07-30T14:48:01.000Z</time>
      </trkpt>
      <trkpt lat="49.59374" lon="-1.27222">
        <ele>5.200565</ele>
        <time>2022-07-30T14:48:02.000Z</time>
      </trkpt>
      <trkpt lat="49.5937" lon="-1.27223">
        <ele>5.210791</ele>
        <time>2022-07-30T14:48:03.000Z</time>
      </trkpt>
      <trkpt lat="49.59366" lon="-1.27224">
        <ele>5.22002</ele>
        <time>2022-07-30T14:48:04.000Z</time>
      </trkpt>
      <trkpt lat="49.59362" lon="-1.27225">
        <ele>5.229428</ele>
        <time>2022-07-30T14:48:05.000Z</time>
      </trkpt>
      <trkpt lat="49.59358" lon="-1.27226">
        <ele>5.239369</ele>
        <time>2022-07-30T14:48:06.000Z</time>
      </trkpt>
      <trkpt lat="49.59354" lon="-1.27227">
        <ele>5.249527</ele>
        <time>2022-07-30T14:48:07.000Z</time>
      </trkpt>
      <trkpt lat="49.5935" lon="-1.27228">
        <ele>5.25887</ele>
        <time>2022-07-30T14:48:08.000Z</time>
      </trkpt>
      <trkpt lat="49.59345" lon="-1.27229">
        <ele>5.269833</ele>
        <time>2022-07-30T14:48:09.000Z</time>
      </trkpt>
      <trkpt lat="49.59341" lon="-1.2723">
        <ele>5.280086</ele>
        <time>2022-07-30T14:48:10.000Z</time>
      </trkpt>
      <trkpt lat="49.59337" lon="-1.27232">
        <ele>5.290201</ele>
        <time>2022-07-30T14:48:11.000Z</time>
      </trkpt>
      <trkpt lat="49.59333" lon="-1.27233">
        <ele>5.298204</ele>
        <time>2022-07-30T14:48:12.000Z</time>
      </trkpt>
      <trkpt lat="49.59328" lon="-1.27234">
        <ele>5.302551</ele>
        <time>2022-07-30T14:48:13.000Z</time>
      </trkpt>
      <trkpt lat="49.59324" lon="-1.27236">
        <ele>5.306888</ele>
        <time>2022-07-30T14:48:14.000Z</time>
      </trkpt>
      <trkpt lat="49.5932" lon="-1.27237">
        <ele>5.310863</ele>
        <time>2022-07-30T14:48:15.000Z</time>
      </trkpt>
      <trkpt lat="49.59316" lon="-1.27238">
        <ele>5.314919</ele>
        <time>2022-07-30T14:48:16.000Z</time>
      </trkpt>
      <trkpt lat="49.59311" lon="-1.27239">
        <ele>5.31886</ele>
        <time>2022-07-30T14:48:17.000Z</time>
      </trkpt>
      <trkpt lat="49.59307" lon="-1.2724">
        <ele>5.322896</ele>
        <time>2022-07-30T14:48:18.000Z</time>
      </trkpt>
      <trkpt lat="49.59303" lon="-1.27241">
        <ele>5.326931</ele>
        <time>2022-07-30T14:48:19.000Z</time>
      </trkpt>
      <trkpt lat="49.59299" lon="-1.27242">
        <ele>5.331186</ele>
        <time>2022-07-30T14:48:20.000Z</time>
      </trkpt>
      <trkpt lat="49.59294" lon="-1.27244">
        <ele>5.335242</ele>
        <time>2022-07-30T14:48:21.000Z</time>
      </trkpt>
      <trkpt lat="49.5929" lon="-1.27245">
        <ele>5.339277</ele>
        <time>2022-07-30T14:48:22.000Z</time>
      </trkpt>
      <trkpt lat="49.59286" lon="-1.27245">
        <ele>5.343202</ele>
        <time>2022-07-30T14:48:23.000Z</time>
      </trkpt>
      <trkpt lat="49.59282" lon="-1.27246">
        <ele>5.34751</ele>
        <time>2022-07-30T14:48:24.000Z</time>
      </trkpt>
      <trkpt lat="49.59278" lon="-1.27247">
        <ele>5.351171</ele>
        <time>2022-07-30T14:48:25.000Z</time>
      </trkpt>
      <trkpt lat="49.59274" lon="-1.27248">
        <ele>5.355216</ele>
        <time>2022-07-30T14:48:26.000Z</time>
      </trkpt>
      <trkpt lat="49.59269" lon="-1.2725">
        <ele>5.359297</ele>
        <time>2022-07-30T14:48:27.000Z</time>
      </trkpt>
      <trkpt lat="49.59266" lon="-1.27251">
        <ele>5.362993</ele>
        <time>2022-07-30T14:48:28.000Z</time>
      </trkpt>
      <trkpt lat="49.59261" lon="-1.27252">
        <ele>5.367592</ele>
        <time>2022-07-30T14:48:29.000Z</time>
      </trkpt>
      <trkpt lat="49.59257" lon="-1.27253">
        <ele>5.371628</ele>
        <time>2022-07-30T14:48:30.000Z</time>
      </trkpt>
      <trkpt lat="49.59253" lon="-1.27254">
        <ele>5.375602</ele>
        <time>2022-07-30T14:48:31.000Z</time>
      </trkpt>
      <trkpt lat="49.59248" lon="-1.27255">
        <ele>5.379638</ele>
        <time>2022-07-30T14:48:32.000Z</time>
      </trkpt>
      <trkpt lat="49.59244" lon="-1.27257">
        <ele>5.383975</ele>
        <time>2022-07-30T14:48:33.000Z</time>
      </trkpt>
      <trkpt lat="49.5924" lon="-1.27258">
        <ele>5.387699</ele>
        <time>2022-07-30T14:48:34.000Z</time>
      </trkpt>
      <trkpt lat="49.59236" lon="-1.27259">
        <ele>5.391735</ele>
        <time>2022-07-30T14:48:35.000Z</time>
      </trkpt>
      <trkpt lat="49.59232" lon="-1.2726">
        <ele>5.395676</ele>
        <time>2022-07-30T14:48:36.000Z</time>
      </trkpt>
      <trkpt lat="49.59228" lon="-1.27261">
        <ele>5.399688</ele>
        <time>2022-07-30T14:48:37.000Z</time>
      </trkpt>
      <trkpt lat="49.59224" lon="-1.27261">
        <ele>5.403315</ele>
        <time>2022-07-30T14:48:38.000Z</time>
      </trkpt>
      <trkpt lat="49.5922" lon="-1.27263">
        <ele>5.407092</ele>
        <time>2022-07-30T14:48:39.000Z</time>
      </trkpt>
      <trkpt lat="49.59216" lon="-1.27264">
        <ele>5.410788</ele>
        <time>2022-07-30T14:48:40.000Z</time>
      </trkpt>
      <trkpt lat="49.59212" lon="-1.27265">
        <ele>5.414471</ele>
        <time>2022-07-30T14:48:41.000Z</time>
      </trkpt>
      <trkpt lat="49.59208" lon="-1.27266">
        <ele>5.418225</ele>
        <time>2022-07-30T14:48:42.000Z</time>
      </trkpt>
      <trkpt lat="49.59205" lon="-1.27267">
        <ele>5.421886</ele>
        <time>2022-07-30T14:48:43.000Z</time>
      </trkpt>
      <trkpt lat="49.59201" lon="-1.27268">
        <ele>5.425662</ele>
        <time>2022-07-30T14:48:44.000Z</time>
      </trkpt>
      <trkpt lat="49.59197" lon="-1.2727">
        <ele>5.429403</ele>
        <time>2022-07-30T14:48:45.000Z</time>
      </trkpt>
      <trkpt lat="49.59193" lon="-1.27272">
        <ele>5.433065</ele>
        <time>2022-07-30T14:48:46.000Z</time>
      </trkpt>
      <trkpt lat="49.59191" lon="-1.27276">
        <ele>5.436302</ele>
        <time>2022-07-30T14:48:47.000Z</time>
      </trkpt>
      <trkpt lat="49.59189" lon="-1.2728">
        <ele>5.439674</ele>
        <time>2022-07-30T14:48:48.000Z</time>
      </trkpt>
      <trkpt lat="49.59187" lon="-1.27285">
        <ele>5.442979</ele>
        <time>2022-07-30T14:48:49.000Z</time>
      </trkpt>
      <trkpt lat="49.59185" lon="-1.27289">
        <ele>5.446338</ele>
        <time>2022-07-30T14:48:50.000Z</time>
      </trkpt>
      <trkpt lat="49.59183" lon="-1.27293">
        <ele>5.449491</ele>
        <time>2022-07-30T14:48:51.000Z</time>
      </trkpt>
      <trkpt lat="49.59181" lon="-1.27298">
        <ele>5.452796</ele>
        <time>2022-07-30T14:48:52.000Z</time>
      </trkpt>
      <trkpt lat="49.5918" lon="-1.27303">
        <ele>5.4559</ele>
        <time>2022-07-30T14:48:53.000Z</time>
      </trkpt>
      <trkpt lat="49.59178" lon="-1.27307">
        <ele>5.459168</ele>
        <time>2022-07-30T14:48:54.000Z</time>
      </trkpt>
      <trkpt lat="49.59177" lon="-1.27312">
        <ele>5.462163</ele>
        <time>2022-07-30T14:48:55.000Z</time>
      </trkpt>
      <trkpt lat="49.59175" lon="-1.27316">
        <ele>5.465109</ele>
        <time>2022-07-30T14:48:56.000Z</time>
      </trkpt>
      <trkpt lat="49.59173" lon="-1.2732">
        <ele>5.4677</ele>
        <time>2022-07-30T14:48:57.000Z</time>
      </trkpt>
      <trkpt lat="49.59172" lon="-1.27324">
        <ele>5.468453</ele>
        <time>2022-07-30T14:48:58.000Z</time>
      </trkpt>
      <trkpt lat="49.5917" lon="-1.27329">
        <ele>5.469154</ele>
        <time>2022-07-30T14:48:59.000Z</time>
      </trkpt>
      <trkpt lat="49.59168" lon="-1.27333">
        <ele>5.469944</ele>
        <time>2022-07-30T14:49:00.000Z</time>
      </trkpt>
      <trkpt lat="49.59167" lon="-1.27338">
        <ele>5.470739</ele>
        <time>2022-07-30T14:49:01.000Z</time>
      </trkpt>
      <trkpt lat="49.59165" lon="-1.27343">
        <ele>5.471547</ele>
        <time>2022-07-30T14:49:02.000Z</time>
      </trkpt>
      <trkpt lat="49.59164" lon="-1.27348">
        <ele>5.472355</ele>
        <time>2022-07-30T14:49:03.000Z</time>
      </trkpt>
      <trkpt lat="49.59162" lon="-1.27353">
        <ele>5.473194</ele>
        <time>2022-07-30T14:49:04.000Z</time>
      </trkpt>
      <trkpt lat="49.5916" lon="-1.27358">
        <ele>5.474002</ele>
        <time>2022-07-30T14:49:05.000Z</time>
      </trkpt>
      <trkpt lat="49.59157" lon="-1.27363">
        <ele>5.474908</ele>
        <time>2022-07-30T14:49:06.000Z</time>
      </trkpt>
      <trkpt lat="49.59155" lon="-1.27368">
        <ele>5.475725</ele>
        <time>2022-07-30T14:49:07.000Z</time>
      </trkpt>
      <trkpt lat="49.59152" lon="-1.27371">
        <ele>5.476619</ele>
        <time>2022-07-30T14:49:08.000Z</time>
      </trkpt>
      <trkpt lat="49.59149" lon="-1.27374">
        <ele>5.477441</ele>
        <time>2022-07-30T14:49:09.000Z</time>
      </trkpt>
      <trkpt lat="49.59145" lon="-1.27377">
        <ele>5.478364</ele>
        <time>2022-07-30T14:49:10.000Z</time>
      </trkpt>
      <trkpt lat="49.59141" lon="-1.27379">
        <ele>5.479229</ele>
        <time>2022-07-30T14:49:11.000Z</time>
      </trkpt>
      <trkpt lat="49.59138" lon="-1.27381">
        <ele>5.480118</ele>
        <time>2022-07-30T14:49:12.000Z</time>
      </trkpt>
      <trkpt lat="49.59134" lon="-1.27382">
        <ele>5.480879</ele>
        <time>2022-07-30T14:49:13.000Z</time>
      </trkpt>
      <trkpt lat="49.59131" lon="-1.27384">
        <ele>5.481699</ele>
        <time>2022-07-30T14:49:14.000Z</time>
      </trkpt>
      <trkpt lat="49.59127" lon="-1.27386">
        <ele>5.482597</ele>
        <time>2022-07-30T14:49:15.000Z</time>
      </trkpt>
      <trkpt lat="49.59124" lon="-1.27387">
        <ele>5.483359</ele>
        <time>2022-07-30T14:49:16.000Z</time>
      </trkpt>
      <trkpt lat="49.59121" lon="-1.27389">
        <ele>5.48413</ele>
        <time>2022-07-30T14:49:17.000Z</time>
      </trkpt>
      <trkpt lat="49.59117" lon="-1.27391">
        <ele>5.48495</ele>
        <time>2022-07-30T14:49:18.000Z</time>
      </trkpt>
      <trkpt lat="49.59114" lon="-1.27393">
        <ele>5.485762</ele>
        <time>2022-07-30T14:49:19.000Z</time>
      </trkpt>
      <trkpt lat="49.5911" lon="-1.27394">
        <ele>5.486502</ele>
        <time>2022-07-30T14:49:20.000Z</time>
      </trkpt>
      <trkpt lat="49.59107" lon="-1.27396">
        <ele>5.487322</ele>
        <time>2022-07-30T14:49:21.000Z</time>
      </trkpt>
      <trkpt lat="49.59104" lon="-1.27397">
        <ele>5.488083</ele>
        <time>2022-07-30T14:49:22.000Z</time>
      </trkpt>
      <trkpt lat="49.59101" lon="-1.27399">
        <ele>5.488793</ele>
        <time>2022-07-30T14:49:23.000Z</time>
      </trkpt>
      <trkpt lat="49.59097" lon="-1.27401">
        <ele>5.489622</ele>
        <time>2022-07-30T14:49:24.000Z</time>
      </trkpt>
      <trkpt lat="49.59094" lon="-1.27403">
        <ele>5.490438</ele>
        <time>2022-07-30T14:49:25.000Z</time>
      </trkpt>
      <trkpt lat="49.59091" lon="-1.27405">
        <ele>5.491131</ele>
        <time>2022-07-30T14:49:26.000Z</time>
      </trkpt>
      <trkpt lat="49.59088" lon="-1.27406">
        <ele>5.491879</ele>
        <time>2022-07-30T14:49:27.000Z</time>
      </trkpt>
      <trkpt lat="49.59085" lon="-1.27408">
        <ele>5.492562</ele>
        <time>2022-07-30T14:49:28.000Z</time>
      </trkpt>
      <trkpt lat="49.59082" lon="-1.27409">
        <ele>5.493298</ele>
        <time>2022-07-30T14:49:29.000Z</time>
      </trkpt>
      <trkpt lat="49.59079" lon="-1.2741">
        <ele>5.493962</ele>
        <time>2022-07-30T14:49:30.000Z</time>
      </trkpt>
      <trkpt lat="49.59076" lon="-1.2741">
        <ele>5.494614</ele>
        <time>2022-07-30T14:49:31.000Z</time>
      </trkpt>
      <trkpt lat="49.59073" lon="-1.27411">
        <ele>5.495178</ele>
        <time>2022-07-30T14:49:32.000Z</time>
      </trkpt>
      <trkpt lat="49.59071" lon="-1.27411">
        <ele>5.495699</ele>
        <time>2022-07-30T14:49:33.000Z</time>
      </trkpt>
      <trkpt lat="49.59069" lon="-1.27412">
        <ele>5.496136</ele>
        <time>2022-07-30T14:49:34.000Z</time>
      </trkpt>
      <trkpt lat="49.59066" lon="-1.27414">
        <ele>5.496892</ele>
        <time>2022-07-30T14:49:36.000Z</time>
      </trkpt>
      <trkpt lat="49.59064" lon="-1.27416">
        <ele>5.497449</ele>
        <time>2022-07-30T14:49:38.000Z</time>
      </trkpt>
      <trkpt lat="49.59062" lon="-1.27419">
        <ele>5.498093</ele>
        <time>2022-07-30T14:49:40.000Z</time>
      </trkpt>
      <trkpt lat="49.59063" lon="-1.27424">
        <ele>5.498773</ele>
        <time>2022-07-30T14:49:42.000Z</time>
      </trkpt>
      <trkpt lat="49.59065" lon="-1.27429">
        <ele>5.499668</ele>
        <time>2022-07-30T14:49:44.000Z</time>
      </trkpt>
      <trkpt lat="49.59066" lon="-1.27431">
        <ele>5.500121</ele>
        <time>2022-07-30T14:49:45.000Z</time>
      </trkpt>
      <trkpt lat="49.59068" lon="-1.27434">
        <ele>5.500683</ele>
        <time>2022-07-30T14:49:46.000Z</time>
      </trkpt>
      <trkpt lat="49.59069" lon="-1.27437">
        <ele>5.501194</ele>
        <time>2022-07-30T14:49:47.000Z</time>
      </trkpt>
      <trkpt lat="49.5907" lon="-1.27441">
        <ele>5.501767</ele>
        <time>2022-07-30T14:49:48.000Z</time>
      </trkpt>
      <trkpt lat="49.5907" lon="-1.27445">
        <ele>5.502393</ele>
        <time>2022-07-30T14:49:49.000Z</time>
      </trkpt>
      <trkpt lat="49.5907" lon="-1.2745">
        <ele>5.503045</ele>
        <time>2022-07-30T14:49:50.000Z</time>
      </trkpt>
      <trkpt lat="49.59069" lon="-1.27454">
        <ele>5.503701</ele>
        <time>2022-07-30T14:49:51.000Z</time>
      </trkpt>
      <trkpt lat="49.59068" lon="-1.27458">
        <ele>5.504358</ele>
        <time>2022-07-30T14:49:52.000Z</time>
      </trkpt>
      <trkpt lat="49.59066" lon="-1.27461">
        <ele>5.504997</ele>
        <time>2022-07-30T14:49:53.000Z</time>
      </trkpt>
      <trkpt lat="49.59063" lon="-1.27465">
        <ele>5.505723</ele>
        <time>2022-07-30T14:49:54.000Z</time>
      </trkpt>
      <trkpt lat="49.59061" lon="-1.27468">
        <ele>5.506476</ele>
        <time>2022-07-30T14:49:55.000Z</time>
      </trkpt>
      <trkpt lat="49.59058" lon="-1.27471">
        <ele>5.50729</ele>
        <time>2022-07-30T14:49:56.000Z</time>
      </trkpt>
      <trkpt lat="49.59055" lon="-1.27474">
        <ele>5.502032</ele>
        <time>2022-07-30T14:49:57.000Z</time>
      </trkpt>
      <trkpt lat="49.59052" lon="-1.27476">
        <ele>5.490981</ele>
        <time>2022-07-30T14:49:58.000Z</time>
      </trkpt>
      <trkpt lat="49.59048" lon="-1.27479">
        <ele>5.478276</ele>
        <time>2022-07-30T14:49:59.000Z</time>
      </trkpt>
      <trkpt lat="49.59044" lon="-1.27481">
        <ele>5.466444</ele>
        <time>2022-07-30T14:50:00.000Z</time>
      </trkpt>
      <trkpt lat="49.59041" lon="-1.27483">
        <ele>5.455636</ele>
        <time>2022-07-30T14:50:01.000Z</time>
      </trkpt>
      <trkpt lat="49.59037" lon="-1.27484">
        <ele>5.443003</ele>
        <time>2022-07-30T14:50:02.000Z</time>
      </trkpt>
      <trkpt lat="49.59033" lon="-1.27486">
        <ele>5.430499</ele>
        <time>2022-07-30T14:50:03.000Z</time>
      </trkpt>
      <trkpt lat="49.59029" lon="-1.27488">
        <ele>5.417755</ele>
        <time>2022-07-30T14:50:04.000Z</time>
      </trkpt>
      <trkpt lat="49.59026" lon="-1.2749">
        <ele>5.405312</ele>
        <time>2022-07-30T14:50:05.000Z</time>
      </trkpt>
      <trkpt lat="49.59022" lon="-1.27492">
        <ele>5.393628</ele>
        <time>2022-07-30T14:50:06.000Z</time>
      </trkpt>
      <trkpt lat="49.59018" lon="-1.27494">
        <ele>5.380484</ele>
        <time>2022-07-30T14:50:07.000Z</time>
      </trkpt>
      <trkpt lat="49.59015" lon="-1.27497">
        <ele>5.369255</ele>
        <time>2022-07-30T14:50:08.000Z</time>
      </trkpt>
      <trkpt lat="49.59012" lon="-1.27499">
        <ele>5.357346</ele>
        <time>2022-07-30T14:50:09.000Z</time>
      </trkpt>
      <trkpt lat="49.59008" lon="-1.27502">
        <ele>5.345272</ele>
        <time>2022-07-30T14:50:10.000Z</time>
      </trkpt>
      <trkpt lat="49.59005" lon="-1.27504">
        <ele>5.335064</ele>
        <time>2022-07-30T14:50:11.000Z</time>
      </trkpt>
      <trkpt lat="49.59002" lon="-1.27506">
        <ele>5.323074</ele>
        <time>2022-07-30T14:50:12.000Z</time>
      </trkpt>
      <trkpt lat="49.58998" lon="-1.27509">
        <ele>5.311558</ele>
        <time>2022-07-30T14:50:13.000Z</time>
      </trkpt>
      <trkpt lat="49.58995" lon="-1.27512">
        <ele>5.298461</ele>
        <time>2022-07-30T14:50:14.000Z</time>
      </trkpt>
      <trkpt lat="49.58991" lon="-1.27515">
        <ele>5.286739</ele>
        <time>2022-07-30T14:50:15.000Z</time>
      </trkpt>
      <trkpt lat="49.58988" lon="-1.27517">
        <ele>5.27438</ele>
        <time>2022-07-30T14:50:16.000Z</time>
      </trkpt>
      <trkpt lat="49.58984" lon="-1.27519">
        <ele>5.261812</ele>
        <time>2022-07-30T14:50:17.000Z</time>
      </trkpt>
      <trkpt lat="49.5898" lon="-1.2752">
        <ele>5.249708</ele>
        <time>2022-07-30T14:50:18.000Z</time>
      </trkpt>
      <trkpt lat="49.58976" lon="-1.27521">
        <ele>5.237493</ele>
        <time>2022-07-30T14:50:19.000Z</time>
      </trkpt>
      <trkpt lat="49.58973" lon="-1.2752">
        <ele>5.225582</ele>
        <time>2022-07-30T14:50:20.000Z</time>
      </trkpt>
      <trkpt lat="49.58969" lon="-1.2752">
        <ele>5.213347</ele>
        <time>2022-07-30T14:50:21.000Z</time>
      </trkpt>
      <trkpt lat="49.58965" lon="-1.27519">
        <ele>5.201389</ele>
        <time>2022-07-30T14:50:22.000Z</time>
      </trkpt>
      <trkpt lat="49.58961" lon="-1.27519">
        <ele>5.189409</ele>
        <time>2022-07-30T14:50:23.000Z</time>
      </trkpt>
      <trkpt lat="49.58958" lon="-1.27518">
        <ele>5.179373</ele>
        <time>2022-07-30T14:50:24.000Z</time>
      </trkpt>
      <trkpt lat="49.58955" lon="-1.27518">
        <ele>5.169256</ele>
        <time>2022-07-30T14:50:25.000Z</time>
      </trkpt>
      <trkpt lat="49.58952" lon="-1.27517">
        <ele>5.161107</ele>
        <time>2022-07-30T14:50:26.000Z</time>
      </trkpt>
      <trkpt lat="49.5895" lon="-1.27518">
        <ele>5.155145</ele>
        <time>2022-07-30T14:50:27.000Z</time>
      </trkpt>
      <trkpt lat="49.58947" lon="-1.27518">
        <ele>5.144181</ele>
        <time>2022-07-30T14:50:29.000Z</time>
      </trkpt>
      <trkpt lat="49.58944" lon="-1.27513">
        <ele>5.131305</ele>
        <time>2022-07-30T14:51:27.000Z</time>
      </trkpt>
      <trkpt lat="49.58942" lon="-1.27509">
        <ele>5.122224</ele>
        <time>2022-07-30T14:51:28.000Z</time>
      </trkpt>
      <trkpt lat="49.58941" lon="-1.27505">
        <ele>5.112858</ele>
        <time>2022-07-30T14:51:29.000Z</time>
      </trkpt>
      <trkpt lat="49.5894" lon="-1.27501">
        <ele>5.10323</ele>
        <time>2022-07-30T14:51:30.000Z</time>
      </trkpt>
      <trkpt lat="49.58938" lon="-1.27497">
        <ele>5.093169</ele>
        <time>2022-07-30T14:51:31.000Z</time>
      </trkpt>
      <trkpt lat="49.58936" lon="-1.27492">
        <ele>5.082753</ele>
        <time>2022-07-30T14:51:32.000Z</time>
      </trkpt>
      <trkpt lat="49.58935" lon="-1.27487">
        <ele>5.071438</ele>
        <time>2022-07-30T14:51:33.000Z</time>
      </trkpt>
      <trkpt lat="49.58933" lon="-1.27482">
        <ele>5.059342</ele>
        <time>2022-07-30T14:51:34.000Z</time>
      </trkpt>
      <trkpt lat="49.58931" lon="-1.27478">
        <ele>5.048927</ele>
        <time>2022-07-30T14:51:35.000Z</time>
      </trkpt>
      <trkpt lat="49.58929" lon="-1.27473">
        <ele>5.038029</ele>
        <time>2022-07-30T14:51:36.000Z</time>
      </trkpt>
      <trkpt lat="49.58928" lon="-1.27469">
        <ele>5.027472</ele>
        <time>2022-07-30T14:51:37.000Z</time>
      </trkpt>
      <trkpt lat="49.58926" lon="-1.27463">
        <ele>5.015792</ele>
        <time>2022-07-30T14:51:38.000Z</time>
      </trkpt>
      <trkpt lat="49.58925" lon="-1.27458">
        <ele>5.003927</ele>
        <time>2022-07-30T14:51:39.000Z</time>
      </trkpt>
      <trkpt lat="49.58923" lon="-1.27453">
        <ele>4.992047</ele>
        <time>2022-07-30T14:51:40.000Z</time>
      </trkpt>
      <trkpt lat="49.58921" lon="-1.27447">
        <ele>4.979757</ele>
        <time>2022-07-30T14:51:41.000Z</time>
      </trkpt>
      <trkpt lat="49.5892" lon="-1.27442">
        <ele>4.968076</ele>
        <time>2022-07-30T14:51:42.000Z</time>
      </trkpt>
      <trkpt lat="49.58918" lon="-1.27437">
        <ele>4.956395</ele>
        <time>2022-07-30T14:51:43.000Z</time>
      </trkpt>
      <trkpt lat="49.58916" lon="-1.27431">
        <ele>4.944828</ele>
        <time>2022-07-30T14:51:44.000Z</time>
      </trkpt>
      <trkpt lat="49.58915" lon="-1.27425">
        <ele>4.946846</ele>
        <time>2022-07-30T14:51:45.000Z</time>
      </trkpt>
      <trkpt lat="49.58913" lon="-1.2742">
        <ele>4.948862</ele>
        <time>2022-07-30T14:51:46.000Z</time>
      </trkpt>
      <trkpt lat="49.58911" lon="-1.27414">
        <ele>4.950794</ele>
        <time>2022-07-30T14:51:47.000Z</time>
      </trkpt>
      <trkpt lat="49.5891" lon="-1.27408">
        <ele>4.952687</ele>
        <time>2022-07-30T14:51:48.000Z</time>
      </trkpt>
      <trkpt lat="49.58908" lon="-1.27402">
        <ele>4.954619</ele>
        <time>2022-07-30T14:51:49.000Z</time>
      </trkpt>
      <trkpt lat="49.58907" lon="-1.27397">
        <ele>4.956523</ele>
        <time>2022-07-30T14:51:50.000Z</time>
      </trkpt>
      <trkpt lat="49.58905" lon="-1.27391">
        <ele>4.958454</ele>
        <time>2022-07-30T14:51:51.000Z</time>
      </trkpt>
      <trkpt lat="49.58903" lon="-1.27385">
        <ele>4.960386</ele>
        <time>2022-07-30T14:51:52.000Z</time>
      </trkpt>
      <trkpt lat="49.58902" lon="-1.2738">
        <ele>4.962091</ele>
        <time>2022-07-30T14:51:53.000Z</time>
      </trkpt>
      <trkpt lat="49.58901" lon="-1.27375">
        <ele>4.963824</ele>
        <time>2022-07-30T14:51:54.000Z</time>
      </trkpt>
      <trkpt lat="49.589" lon="-1.2737">
        <ele>4.965511</ele>
        <time>2022-07-30T14:51:55.000Z</time>
      </trkpt>
      <trkpt lat="49.58899" lon="-1.27365">
        <ele>4.967053</ele>
        <time>2022-07-30T14:51:56.000Z</time>
      </trkpt>
      <trkpt lat="49.58897" lon="-1.27361">
        <ele>4.968557</ele>
        <time>2022-07-30T14:51:57.000Z</time>
      </trkpt>
      <trkpt lat="49.58896" lon="-1.27357">
        <ele>4.969949</ele>
        <time>2022-07-30T14:51:58.000Z</time>
      </trkpt>
      <trkpt lat="49.58894" lon="-1.27353">
        <ele>4.971368</ele>
        <time>2022-07-30T14:51:59.000Z</time>
      </trkpt>
      <trkpt lat="49.58892" lon="-1.27351">
        <ele>4.97289</ele>
        <time>2022-07-30T14:52:00.000Z</time>
      </trkpt>
      <trkpt lat="49.58888" lon="-1.27349">
        <ele>4.974513</ele>
        <time>2022-07-30T14:52:01.000Z</time>
      </trkpt>
      <trkpt lat="49.58885" lon="-1.27348">
        <ele>4.9762</ele>
        <time>2022-07-30T14:52:02.000Z</time>
      </trkpt>
      <trkpt lat="49.58881" lon="-1.27349">
        <ele>4.977884</ele>
        <time>2022-07-30T14:52:03.000Z</time>
      </trkpt>
      <trkpt lat="49.58878" lon="-1.2735">
        <ele>4.97945</ele>
        <time>2022-07-30T14:52:04.000Z</time>
      </trkpt>
      <trkpt lat="49.58875" lon="-1.27351">
        <ele>4.981164</ele>
        <time>2022-07-30T14:52:05.000Z</time>
      </trkpt>
      <trkpt lat="49.5887" lon="-1.27352">
        <ele>4.983198</ele>
        <time>2022-07-30T14:52:06.000Z</time>
      </trkpt>
      <trkpt lat="49.58867" lon="-1.27352">
        <ele>4.985031</ele>
        <time>2022-07-30T14:52:07.000Z</time>
      </trkpt>
      <trkpt lat="49.58863" lon="-1.27353">
        <ele>4.986922</ele>
        <time>2022-07-30T14:52:08.000Z</time>
      </trkpt>
      <trkpt lat="49.58859" lon="-1.27354">
        <ele>4.988762</ele>
        <time>2022-07-30T14:52:09.000Z</time>
      </trkpt>
      <trkpt lat="49.58855" lon="-1.27355">
        <ele>4.99067</ele>
        <time>2022-07-30T14:52:10.000Z</time>
      </trkpt>
      <trkpt lat="49.58851" lon="-1.27357">
        <ele>4.992832</ele>
        <time>2022-07-30T14:52:11.000Z</time>
      </trkpt>
      <trkpt lat="49.58847" lon="-1.27358">
        <ele>4.994734</ele>
        <time>2022-07-30T14:52:12.000Z</time>
      </trkpt>
      <trkpt lat="49.58843" lon="-1.27359">
        <ele>4.996726</ele>
        <time>2022-07-30T14:52:13.000Z</time>
      </trkpt>
      <trkpt lat="49.58838" lon="-1.27359">
        <ele>4.999034</ele>
        <time>2022-07-30T14:52:14.000Z</time>
      </trkpt>
      <trkpt lat="49.58834" lon="-1.2736">
        <ele>5.00105</ele>
        <time>2022-07-30T14:52:15.000Z</time>
      </trkpt>
      <trkpt lat="49.58829" lon="-1.2736">
        <ele>5.003067</ele>
        <time>2022-07-30T14:52:16.000Z</time>
      </trkpt>
      <trkpt lat="49.58825" lon="-1.2736">
        <ele>5.005182</ele>
        <time>2022-07-30T14:52:17.000Z</time>
      </trkpt>
      <trkpt lat="49.58821" lon="-1.27361">
        <ele>5.007203</ele>
        <time>2022-07-30T14:52:18.000Z</time>
      </trkpt>
      <trkpt lat="49.58817" lon="-1.27361">
        <ele>5.00922</ele>
        <time>2022-07-30T14:52:19.000Z</time>
      </trkpt>
      <trkpt lat="49.58813" lon="-1.27361">
        <ele>5.011188</ele>
        <time>2022-07-30T14:52:20.000Z</time>
      </trkpt>
      <trkpt lat="49.58808" lon="-1.27361">
        <ele>5.013492</ele>
        <time>2022-07-30T14:52:21.000Z</time>
      </trkpt>
      <trkpt lat="49.58804" lon="-1.27361">
        <ele>5.015509</ele>
        <time>2022-07-30T14:52:22.000Z</time>
      </trkpt>
      <trkpt lat="49.58799" lon="-1.2736">
        <ele>5.017671</ele>
        <time>2022-07-30T14:52:23.000Z</time>
      </trkpt>
      <trkpt lat="49.58795" lon="-1.2736">
        <ele>5.019501</ele>
        <time>2022-07-30T14:52:24.000Z</time>
      </trkpt>
      <trkpt lat="49.58791" lon="-1.27359">
        <ele>5.021522</ele>
        <time>2022-07-30T14:52:25.000Z</time>
      </trkpt>
      <trkpt lat="49.58787" lon="-1.27359">
        <ele>5.023345</ele>
        <time>2022-07-30T14:52:26.000Z</time>
      </trkpt>
      <trkpt lat="49.58784" lon="-1.27359">
        <ele>5.025026</ele>
        <time>2022-07-30T14:52:27.000Z</time>
      </trkpt>
      <trkpt lat="49.5878" lon="-1.27359">
        <ele>5.026897</ele>
        <time>2022-07-30T14:52:28.000Z</time>
      </trkpt>
      <trkpt lat="49.58776" lon="-1.27359">
        <ele>5.028576</ele>
        <time>2022-07-30T14:52:29.000Z</time>
      </trkpt>
      <trkpt lat="49.58773" lon="-1.27359">
        <ele>5.030112</ele>
        <time>2022-07-30T14:52:30.000Z</time>
      </trkpt>
      <trkpt lat="49.5877" lon="-1.27358">
        <ele>5.023919</ele>
        <time>2022-07-30T14:52:31.000Z</time>
      </trkpt>
      <trkpt lat="49.58767" lon="-1.27358">
        <ele>5.009762</ele>
        <time>2022-07-30T14:52:32.000Z</time>
      </trkpt>
      <trkpt lat="49.58764" lon="-1.27356">
        <ele>4.993861</ele>
        <time>2022-07-30T14:52:33.000Z</time>
      </trkpt>
      <trkpt lat="49.58761" lon="-1.27355">
        <ele>4.979717</ele>
        <time>2022-07-30T14:52:34.000Z</time>
      </trkpt>
      <trkpt lat="49.58757" lon="-1.27354">
        <ele>4.962082</ele>
        <time>2022-07-30T14:52:35.000Z</time>
      </trkpt>
      <trkpt lat="49.58754" lon="-1.27352">
        <ele>4.944707</ele>
        <time>2022-07-30T14:52:36.000Z</time>
      </trkpt>
      <trkpt lat="49.5875" lon="-1.27351">
        <ele>4.926003</ele>
        <time>2022-07-30T14:52:37.000Z</time>
      </trkpt>
      <trkpt lat="49.58746" lon="-1.27349">
        <ele>4.906528</ele>
        <time>2022-07-30T14:52:38.000Z</time>
      </trkpt>
      <trkpt lat="49.58743" lon="-1.27348">
        <ele>4.890364</ele>
        <time>2022-07-30T14:52:39.000Z</time>
      </trkpt>
      <trkpt lat="49.58739" lon="-1.27346">
        <ele>4.868321</ele>
        <time>2022-07-30T14:52:40.000Z</time>
      </trkpt>
      <trkpt lat="49.58735" lon="-1.27344">
        <ele>4.849714</ele>
        <time>2022-07-30T14:52:41.000Z</time>
      </trkpt>
      <trkpt lat="49.58731" lon="-1.27341">
        <ele>4.827488</ele>
        <time>2022-07-30T14:52:42.000Z</time>
      </trkpt>
      <trkpt lat="49.58726" lon="-1.27339">
        <ele>4.805741</ele>
        <time>2022-07-30T14:52:43.000Z</time>
      </trkpt>
      <trkpt lat="49.58722" lon="-1.27336">
        <ele>4.783876</ele>
        <time>2022-07-30T14:52:44.000Z</time>
      </trkpt>
      <trkpt lat="49.58718" lon="-1.27333">
        <ele>4.762329</ele>
        <time>2022-07-30T14:52:45.000Z</time>
      </trkpt>
      <trkpt lat="49.58714" lon="-1.2733">
        <ele>4.741388</ele>
        <time>2022-07-30T14:52:46.000Z</time>
      </trkpt>
      <trkpt lat="49.5871" lon="-1.27327">
        <ele>4.72012</ele>
        <time>2022-07-30T14:52:47.000Z</time>
      </trkpt>
      <trkpt lat="49.58707" lon="-1.27323">
        <ele>4.69901</ele>
        <time>2022-07-30T14:52:48.000Z</time>
      </trkpt>
      <trkpt lat="49.58703" lon="-1.2732">
        <ele>4.677635</ele>
        <time>2022-07-30T14:52:49.000Z</time>
      </trkpt>
      <trkpt lat="49.58699" lon="-1.27317">
        <ele>4.655412</ele>
        <time>2022-07-30T14:52:50.000Z</time>
      </trkpt>
      <trkpt lat="49.58695" lon="-1.27313">
        <ele>4.633731</ele>
        <time>2022-07-30T14:52:51.000Z</time>
      </trkpt>
      <trkpt lat="49.58691" lon="-1.27309">
        <ele>4.610419</ele>
        <time>2022-07-30T14:52:52.000Z</time>
      </trkpt>
      <trkpt lat="49.58687" lon="-1.27305">
        <ele>4.590627</ele>
        <time>2022-07-30T14:52:53.000Z</time>
      </trkpt>
      <trkpt lat="49.58684" lon="-1.27301">
        <ele>4.56777</ele>
        <time>2022-07-30T14:52:54.000Z</time>
      </trkpt>
      <trkpt lat="49.5868" lon="-1.27297">
        <ele>4.54758</ele>
        <time>2022-07-30T14:52:55.000Z</time>
      </trkpt>
      <trkpt lat="49.58677" lon="-1.27293">
        <ele>4.526461</ele>
        <time>2022-07-30T14:52:56.000Z</time>
      </trkpt>
      <trkpt lat="49.58674" lon="-1.27288">
        <ele>4.505653</ele>
        <time>2022-07-30T14:52:57.000Z</time>
      </trkpt>
      <trkpt lat="49.5867" lon="-1.27284">
        <ele>4.483354</ele>
        <time>2022-07-30T14:52:58.000Z</time>
      </trkpt>
      <trkpt lat="49.58667" lon="-1.27279">
        <ele>4.460849</ele>
        <time>2022-07-30T14:52:59.000Z</time>
      </trkpt>
      <trkpt lat="49.58663" lon="-1.27274">
        <ele>4.437067</ele>
        <time>2022-07-30T14:53:00.000Z</time>
      </trkpt>
      <trkpt lat="49.5866" lon="-1.2727">
        <ele>4.417301</ele>
        <time>2022-07-30T14:53:01.000Z</time>
      </trkpt>
      <trkpt lat="49.58656" lon="-1.27265">
        <ele>4.394377</ele>
        <time>2022-07-30T14:53:02.000Z</time>
      </trkpt>
      <trkpt lat="49.58653" lon="-1.2726">
        <ele>4.371872</ele>
        <time>2022-07-30T14:53:03.000Z</time>
      </trkpt>
      <trkpt lat="49.5865" lon="-1.27255">
        <ele>4.350972</ele>
        <time>2022-07-30T14:53:04.000Z</time>
      </trkpt>
      <trkpt lat="49.58646" lon="-1.27249">
        <ele>4.327184</ele>
        <time>2022-07-30T14:53:05.000Z</time>
      </trkpt>
      <trkpt lat="49.58643" lon="-1.27244">
        <ele>4.303929</ele>
        <time>2022-07-30T14:53:06.000Z</time>
      </trkpt>
      <trkpt lat="49.5864" lon="-1.27238">
        <ele>4.281357</ele>
        <time>2022-07-30T14:53:07.000Z</time>
      </trkpt>
      <trkpt lat="49.58637" lon="-1.27233">
        <ele>4.258794</ele>
        <time>2022-07-30T14:53:08.000Z</time>
      </trkpt>
      <trkpt lat="49.58635" lon="-1.27228">
        <ele>4.241236</ele>
        <time>2022-07-30T14:53:09.000Z</time>
      </trkpt>
      <trkpt lat="49.58633" lon="-1.27224">
        <ele>4.22458</ele>
        <time>2022-07-30T14:53:10.000Z</time>
      </trkpt>
      <trkpt lat="49.58631" lon="-1.2722">
        <ele>4.209382</ele>
        <time>2022-07-30T14:53:11.000Z</time>
      </trkpt>
      <trkpt lat="49.58629" lon="-1.27217">
        <ele>4.19492</ele>
        <time>2022-07-30T14:53:12.000Z</time>
      </trkpt>
      <trkpt lat="49.58626" lon="-1.27213">
        <ele>4.177274</ele>
        <time>2022-07-30T14:53:13.000Z</time>
      </trkpt>
      <trkpt lat="49.58624" lon="-1.27208">
        <ele>4.163038</ele>
        <time>2022-07-30T14:53:14.000Z</time>
      </trkpt>
      <trkpt lat="49.58622" lon="-1.27203">
        <ele>4.15483</ele>
        <time>2022-07-30T14:53:15.000Z</time>
      </trkpt>
      <trkpt lat="49.5862" lon="-1.27198">
        <ele>4.146031</ele>
        <time>2022-07-30T14:53:16.000Z</time>
      </trkpt>
      <trkpt lat="49.58618" lon="-1.27192">
        <ele>4.13733</ele>
        <time>2022-07-30T14:53:17.000Z</time>
      </trkpt>
      <trkpt lat="49.58615" lon="-1.27187">
        <ele>4.127817</ele>
        <time>2022-07-30T14:53:18.000Z</time>
      </trkpt>
      <trkpt lat="49.58613" lon="-1.27181">
        <ele>4.118513</ele>
        <time>2022-07-30T14:53:19.000Z</time>
      </trkpt>
      <trkpt lat="49.58611" lon="-1.27175">
        <ele>4.108767</ele>
        <time>2022-07-30T14:53:20.000Z</time>
      </trkpt>
      <trkpt lat="49.58609" lon="-1.27169">
        <ele>4.099182</ele>
        <time>2022-07-30T14:53:21.000Z</time>
      </trkpt>
      <trkpt lat="49.58606" lon="-1.27163">
        <ele>4.089079</ele>
        <time>2022-07-30T14:53:22.000Z</time>
      </trkpt>
      <trkpt lat="49.58604" lon="-1.27158">
        <ele>4.079562</ele>
        <time>2022-07-30T14:53:23.000Z</time>
      </trkpt>
      <trkpt lat="49.58602" lon="-1.27152">
        <ele>4.06969</ele>
        <time>2022-07-30T14:53:24.000Z</time>
      </trkpt>
      <trkpt lat="49.58599" lon="-1.27146">
        <ele>4.059589</ele>
        <time>2022-07-30T14:53:25.000Z</time>
      </trkpt>
      <trkpt lat="49.58597" lon="-1.2714">
        <ele>4.049717</ele>
        <time>2022-07-30T14:53:26.000Z</time>
      </trkpt>
      <trkpt lat="49.58595" lon="-1.27134">
        <ele>4.039955</ele>
        <time>2022-07-30T14:53:27.000Z</time>
      </trkpt>
      <trkpt lat="49.58593" lon="-1.27127">
        <ele>4.030372</ele>
        <time>2022-07-30T14:53:28.000Z</time>
      </trkpt>
      <trkpt lat="49.58592" lon="-1.27122">
        <ele>4.021815</ele>
        <time>2022-07-30T14:53:29.000Z</time>
      </trkpt>
      <trkpt lat="49.5859" lon="-1.27116">
        <ele>4.012737</ele>
        <time>2022-07-30T14:53:30.000Z</time>
      </trkpt>
      <trkpt lat="49.58588" lon="-1.2711">
        <ele>4.002982</ele>
        <time>2022-07-30T14:53:31.000Z</time>
      </trkpt>
      <trkpt lat="49.58586" lon="-1.27105">
        <ele>3.994824</ele>
        <time>2022-07-30T14:53:32.000Z</time>
      </trkpt>
      <trkpt lat="49.58584" lon="-1.271">
        <ele>3.986616</ele>
        <time>2022-07-30T14:53:33.000Z</time>
      </trkpt>
      <trkpt lat="49.58583" lon="-1.27095">
        <ele>3.978719</ele>
        <time>2022-07-30T14:53:34.000Z</time>
      </trkpt>
      <trkpt lat="49.58581" lon="-1.2709">
        <ele>3.970511</ele>
        <time>2022-07-30T14:53:35.000Z</time>
      </trkpt>
      <trkpt lat="49.58579" lon="-1.27085">
        <ele>3.962487</ele>
        <time>2022-07-30T14:53:36.000Z</time>
      </trkpt>
      <trkpt lat="49.58578" lon="-1.2708">
        <ele>3.954806</ele>
        <time>2022-07-30T14:53:37.000Z</time>
      </trkpt>
      <trkpt lat="49.58577" lon="-1.27074">
        <ele>3.946654</ele>
        <time>2022-07-30T14:53:38.000Z</time>
      </trkpt>
      <trkpt lat="49.58575" lon="-1.27069">
        <ele>3.938703</ele>
        <time>2022-07-30T14:53:39.000Z</time>
      </trkpt>
      <trkpt lat="49.58574" lon="-1.27064">
        <ele>3.931021</ele>
        <time>2022-07-30T14:53:40.000Z</time>
      </trkpt>
      <trkpt lat="49.58573" lon="-1.27059">
        <ele>3.923392</ele>
        <time>2022-07-30T14:53:41.000Z</time>
      </trkpt>
      <trkpt lat="49.58572" lon="-1.27054">
        <ele>3.916315</ele>
        <time>2022-07-30T14:53:42.000Z</time>
      </trkpt>
      <trkpt lat="49.58571" lon="-1.2705">
        <ele>3.909416</ele>
        <time>2022-07-30T14:53:43.000Z</time>
      </trkpt>
      <trkpt lat="49.58569" lon="-1.27047">
        <ele>3.903322</ele>
        <time>2022-07-30T14:53:44.000Z</time>
      </trkpt>
      <trkpt lat="49.58566" lon="-1.27045">
        <ele>3.897743</ele>
        <time>2022-07-30T14:53:45.000Z</time>
      </trkpt>
      <trkpt lat="49.58564" lon="-1.27044">
        <ele>3.891951</ele>
        <time>2022-07-30T14:53:46.000Z</time>
      </trkpt>
      <trkpt lat="49.58562" lon="-1.27044">
        <ele>3.887127</ele>
        <time>2022-07-30T14:53:47.000Z</time>
      </trkpt>
      <trkpt lat="49.58559" lon="-1.27045">
        <ele>3.882155</ele>
        <time>2022-07-30T14:53:48.000Z</time>
      </trkpt>
      <trkpt lat="49.58557" lon="-1.27047">
        <ele>3.877296</ele>
        <time>2022-07-30T14:53:49.000Z</time>
      </trkpt>
      <trkpt lat="49.58556" lon="-1.27048">
        <ele>3.872567</ele>
        <time>2022-07-30T14:53:50.000Z</time>
      </trkpt>
      <trkpt lat="49.58553" lon="-1.2705">
        <ele>3.865685</ele>
        <time>2022-07-30T14:53:52.000Z</time>
      </trkpt>
      <trkpt lat="49.58551" lon="-1.27048">
        <ele>3.860738</ele>
        <time>2022-07-30T14:53:54.000Z</time>
      </trkpt>
      <trkpt lat="49.5855" lon="-1.27045">
        <ele>3.855668</ele>
        <time>2022-07-30T14:53:56.000Z</time>
      </trkpt>
      <trkpt lat="49.58549" lon="-1.27041">
        <ele>3.849596</ele>
        <time>2022-07-30T14:53:58.000Z</time>
      </trkpt>
      <trkpt lat="49.58548" lon="-1.27039">
        <ele>3.845436</ele>
        <time>2022-07-30T14:53:59.000Z</time>
      </trkpt>
      <trkpt lat="49.58547" lon="-1.27036">
        <ele>3.841009</ele>
        <time>2022-07-30T14:54:00.000Z</time>
      </trkpt>
      <trkpt lat="49.58546" lon="-1.27033">
        <ele>3.835899</ele>
        <time>2022-07-30T14:54:01.000Z</time>
      </trkpt>
      <trkpt lat="49.58545" lon="-1.27029">
        <ele>3.830482</ele>
        <time>2022-07-30T14:54:02.000Z</time>
      </trkpt>
      <trkpt lat="49.58543" lon="-1.27026">
        <ele>3.824999</ele>
        <time>2022-07-30T14:54:03.000Z</time>
      </trkpt>
      <trkpt lat="49.58542" lon="-1.27022">
        <ele>3.818934</ele>
        <time>2022-07-30T14:54:04.000Z</time>
      </trkpt>
      <trkpt lat="49.58541" lon="-1.27019">
        <ele>3.813098</ele>
        <time>2022-07-30T14:54:05.000Z</time>
      </trkpt>
      <trkpt lat="49.58539" lon="-1.27015">
        <ele>3.806799</ele>
        <time>2022-07-30T14:54:06.000Z</time>
      </trkpt>
      <trkpt lat="49.58537" lon="-1.27012">
        <ele>3.800548</ele>
        <time>2022-07-30T14:54:07.000Z</time>
      </trkpt>
      <trkpt lat="49.58535" lon="-1.27008">
        <ele>3.793941</ele>
        <time>2022-07-30T14:54:08.000Z</time>
      </trkpt>
      <trkpt lat="49.58533" lon="-1.27005">
        <ele>3.787476</ele>
        <time>2022-07-30T14:54:09.000Z</time>
      </trkpt>
      <trkpt lat="49.58532" lon="-1.27001">
        <ele>3.780576</ele>
        <time>2022-07-30T14:54:10.000Z</time>
      </trkpt>
      <trkpt lat="49.5853" lon="-1.26997">
        <ele>3.773801</ele>
        <time>2022-07-30T14:54:11.000Z</time>
      </trkpt>
      <trkpt lat="49.58528" lon="-1.26992">
        <ele>3.776684</ele>
        <time>2022-07-30T14:54:12.000Z</time>
      </trkpt>
      <trkpt lat="49.58527" lon="-1.26988">
        <ele>3.77955</ele>
        <time>2022-07-30T14:54:13.000Z</time>
      </trkpt>
      <trkpt lat="49.58525" lon="-1.26984">
        <ele>3.782529</ele>
        <time>2022-07-30T14:54:14.000Z</time>
      </trkpt>
      <trkpt lat="49.58523" lon="-1.26979">
        <ele>3.785362</ele>
        <time>2022-07-30T14:54:15.000Z</time>
      </trkpt>
      <trkpt lat="49.58521" lon="-1.26975">
        <ele>3.788485</ele>
        <time>2022-07-30T14:54:16.000Z</time>
      </trkpt>
      <trkpt lat="49.5852" lon="-1.2697">
        <ele>3.79147</ele>
        <time>2022-07-30T14:54:17.000Z</time>
      </trkpt>
      <trkpt lat="49.58518" lon="-1.26966">
        <ele>3.794354</ele>
        <time>2022-07-30T14:54:18.000Z</time>
      </trkpt>
      <trkpt lat="49.58517" lon="-1.26962">
        <ele>3.797113</ele>
        <time>2022-07-30T14:54:19.000Z</time>
      </trkpt>
      <trkpt lat="49.58515" lon="-1.26957">
        <ele>3.800188</ele>
        <time>2022-07-30T14:54:20.000Z</time>
      </trkpt>
      <trkpt lat="49.58513" lon="-1.26953">
        <ele>3.803312</ele>
        <time>2022-07-30T14:54:21.000Z</time>
      </trkpt>
      <trkpt lat="49.58511" lon="-1.26948">
        <ele>3.806297</ele>
        <time>2022-07-30T14:54:22.000Z</time>
      </trkpt>
      <trkpt lat="49.58509" lon="-1.26944">
        <ele>3.809375</ele>
        <time>2022-07-30T14:54:23.000Z</time>
      </trkpt>
      <trkpt lat="49.58508" lon="-1.2694">
        <ele>3.812259</ele>
        <time>2022-07-30T14:54:24.000Z</time>
      </trkpt>
      <trkpt lat="49.58505" lon="-1.26936">
        <ele>3.815222</ele>
        <time>2022-07-30T14:54:25.000Z</time>
      </trkpt>
      <trkpt lat="49.58504" lon="-1.26932">
        <ele>3.817906</ele>
        <time>2022-07-30T14:54:26.000Z</time>
      </trkpt>
      <trkpt lat="49.58502" lon="-1.26928">
        <ele>3.82064</ele>
        <time>2022-07-30T14:54:27.000Z</time>
      </trkpt>
      <trkpt lat="49.58501" lon="-1.26924">
        <ele>3.823399</ele>
        <time>2022-07-30T14:54:28.000Z</time>
      </trkpt>
      <trkpt lat="49.58499" lon="-1.2692">
        <ele>3.826384</ele>
        <time>2022-07-30T14:54:29.000Z</time>
      </trkpt>
      <trkpt lat="49.58498" lon="-1.26915">
        <ele>3.829472</ele>
        <time>2022-07-30T14:54:30.000Z</time>
      </trkpt>
      <trkpt lat="49.58495" lon="-1.26911">
        <ele>3.832523</ele>
        <time>2022-07-30T14:54:31.000Z</time>
      </trkpt>
      <trkpt lat="49.58494" lon="-1.26907">
        <ele>3.835125</ele>
        <time>2022-07-30T14:54:32.000Z</time>
      </trkpt>
      <trkpt lat="49.58492" lon="-1.26903">
        <ele>3.83778</ele>
        <time>2022-07-30T14:54:33.000Z</time>
      </trkpt>
      <trkpt lat="49.5849" lon="-1.269">
        <ele>3.84072</ele>
        <time>2022-07-30T14:54:34.000Z</time>
      </trkpt>
      <trkpt lat="49.58488" lon="-1.26896">
        <ele>3.843404</ele>
        <time>2022-07-30T14:54:35.000Z</time>
      </trkpt>
      <trkpt lat="49.58487" lon="-1.26892">
        <ele>3.845867</ele>
        <time>2022-07-30T14:54:36.000Z</time>
      </trkpt>
      <trkpt lat="49.58486" lon="-1.26888">
        <ele>3.848469</ele>
        <time>2022-07-30T14:54:37.000Z</time>
      </trkpt>
      <trkpt lat="49.58485" lon="-1.26884">
        <ele>3.851124</ele>
        <time>2022-07-30T14:54:38.000Z</time>
      </trkpt>
      <trkpt lat="49.58483" lon="-1.2688">
        <ele>3.854008</ele>
        <time>2022-07-30T14:54:39.000Z</time>
      </trkpt>
      <trkpt lat="49.58482" lon="-1.26876">
        <ele>3.856559</ele>
        <time>2022-07-30T14:54:40.000Z</time>
      </trkpt>
      <trkpt lat="49.5848" lon="-1.26872">
        <ele>3.859058</ele>
        <time>2022-07-30T14:54:41.000Z</time>
      </trkpt>
      <trkpt lat="49.58479" lon="-1.26869">
        <ele>3.860875</ele>
        <time>2022-07-30T14:54:42.000Z</time>
      </trkpt>
      <trkpt lat="49.58478" lon="-1.26867">
        <ele>3.862739</ele>
        <time>2022-07-30T14:54:43.000Z</time>
      </trkpt>
      <trkpt lat="49.58476" lon="-1.26863">
        <ele>3.865638</ele>
        <time>2022-07-30T14:54:45.000Z</time>
      </trkpt>
      <trkpt lat="49.58474" lon="-1.26861">
        <ele>3.867681</ele>
        <time>2022-07-30T14:54:47.000Z</time>
      </trkpt>
      <trkpt lat="49.58473" lon="-1.26858">
        <ele>3.869731</ele>
        <time>2022-07-30T14:54:49.000Z</time>
      </trkpt>
      <trkpt lat="49.58475" lon="-1.26859">
        <ele>3.871789</ele>
        <time>2022-07-30T14:55:22.000Z</time>
      </trkpt>
      <trkpt lat="49.58477" lon="-1.26862">
        <ele>3.874185</ele>
        <time>2022-07-30T14:55:24.000Z</time>
      </trkpt>
      <trkpt lat="49.58478" lon="-1.26865">
        <ele>3.876313</ele>
        <time>2022-07-30T14:55:26.000Z</time>
      </trkpt>
      <trkpt lat="49.5848" lon="-1.26868">
        <ele>3.878484</ele>
        <time>2022-07-30T14:55:28.000Z</time>
      </trkpt>
      <trkpt lat="49.58481" lon="-1.26873">
        <ele>3.881834</ele>
        <time>2022-07-30T14:55:30.000Z</time>
      </trkpt>
      <trkpt lat="49.58482" lon="-1.26877">
        <ele>3.883916</ele>
        <time>2022-07-30T14:55:31.000Z</time>
      </trkpt>
      <trkpt lat="49.58483" lon="-1.2688">
        <ele>3.886415</ele>
        <time>2022-07-30T14:55:32.000Z</time>
      </trkpt>
      <trkpt lat="49.58485" lon="-1.26884">
        <ele>3.889002</ele>
        <time>2022-07-30T14:55:33.000Z</time>
      </trkpt>
      <trkpt lat="49.58486" lon="-1.26888">
        <ele>3.891835</ele>
        <time>2022-07-30T14:55:34.000Z</time>
      </trkpt>
      <trkpt lat="49.58488" lon="-1.26893">
        <ele>3.894719</ele>
        <time>2022-07-30T14:55:35.000Z</time>
      </trkpt>
      <trkpt lat="49.5849" lon="-1.26897">
        <ele>3.897941</ele>
        <time>2022-07-30T14:55:36.000Z</time>
      </trkpt>
      <trkpt lat="49.58492" lon="-1.26902">
        <ele>3.901064</ele>
        <time>2022-07-30T14:55:37.000Z</time>
      </trkpt>
      <trkpt lat="49.58494" lon="-1.26907">
        <ele>3.904481</ele>
        <time>2022-07-30T14:55:38.000Z</time>
      </trkpt>
      <trkpt lat="49.58496" lon="-1.26912">
        <ele>3.907902</ele>
        <time>2022-07-30T14:55:39.000Z</time>
      </trkpt>
      <trkpt lat="49.58498" lon="-1.26917">
        <ele>3.911417</ele>
        <time>2022-07-30T14:55:40.000Z</time>
      </trkpt>
      <trkpt lat="49.585" lon="-1.26922">
        <ele>3.914788</ele>
        <time>2022-07-30T14:55:41.000Z</time>
      </trkpt>
      <trkpt lat="49.58502" lon="-1.26927">
        <ele>3.918545</ele>
        <time>2022-07-30T14:55:42.000Z</time>
      </trkpt>
      <trkpt lat="49.58505" lon="-1.26933">
        <ele>3.922452</ele>
        <time>2022-07-30T14:55:43.000Z</time>
      </trkpt>
      <trkpt lat="49.58506" lon="-1.26938">
        <ele>3.926012</ele>
        <time>2022-07-30T14:55:44.000Z</time>
      </trkpt>
      <trkpt lat="49.58509" lon="-1.26944">
        <ele>3.929971</ele>
        <time>2022-07-30T14:55:45.000Z</time>
      </trkpt>
      <trkpt lat="49.58511" lon="-1.2695">
        <ele>3.933829</ele>
        <time>2022-07-30T14:55:46.000Z</time>
      </trkpt>
      <trkpt lat="49.58513" lon="-1.26955">
        <ele>3.935637</ele>
        <time>2022-07-30T14:55:47.000Z</time>
      </trkpt>
      <trkpt lat="49.58516" lon="-1.26961">
        <ele>3.936428</ele>
        <time>2022-07-30T14:55:48.000Z</time>
      </trkpt>
      <trkpt lat="49.58518" lon="-1.26967">
        <ele>3.937238</ele>
        <time>2022-07-30T14:55:49.000Z</time>
      </trkpt>
      <trkpt lat="49.58521" lon="-1.26972">
        <ele>3.938101</ele>
        <time>2022-07-30T14:55:50.000Z</time>
      </trkpt>
      <trkpt lat="49.58523" lon="-1.26978">
        <ele>3.938933</ele>
        <time>2022-07-30T14:55:51.000Z</time>
      </trkpt>
      <trkpt lat="49.58525" lon="-1.26984">
        <ele>3.939733</ele>
        <time>2022-07-30T14:55:52.000Z</time>
      </trkpt>
      <trkpt lat="49.58527" lon="-1.26989">
        <ele>3.940516</ele>
        <time>2022-07-30T14:55:53.000Z</time>
      </trkpt>
      <trkpt lat="49.5853" lon="-1.26995">
        <ele>3.941327</ele>
        <time>2022-07-30T14:55:54.000Z</time>
      </trkpt>
      <trkpt lat="49.58532" lon="-1.27001">
        <ele>3.942079</ele>
        <time>2022-07-30T14:55:55.000Z</time>
      </trkpt>
      <trkpt lat="49.58534" lon="-1.27006">
        <ele>3.942819</ele>
        <time>2022-07-30T14:55:56.000Z</time>
      </trkpt>
      <trkpt lat="49.58536" lon="-1.27011">
        <ele>3.943548</ele>
        <time>2022-07-30T14:55:57.000Z</time>
      </trkpt>
      <trkpt lat="49.58539" lon="-1.27016">
        <ele>3.94435</ele>
        <time>2022-07-30T14:55:58.000Z</time>
      </trkpt>
      <trkpt lat="49.58541" lon="-1.27021">
        <ele>3.94512</ele>
        <time>2022-07-30T14:55:59.000Z</time>
      </trkpt>
      <trkpt lat="49.58543" lon="-1.27027">
        <ele>3.945883</ele>
        <time>2022-07-30T14:56:00.000Z</time>
      </trkpt>
      <trkpt lat="49.58545" lon="-1.27032">
        <ele>3.946625</ele>
        <time>2022-07-30T14:56:01.000Z</time>
      </trkpt>
      <trkpt lat="49.58547" lon="-1.27037">
        <ele>3.947326</ele>
        <time>2022-07-30T14:56:02.000Z</time>
      </trkpt>
      <trkpt lat="49.58549" lon="-1.27041">
        <ele>3.947944</ele>
        <time>2022-07-30T14:56:03.000Z</time>
      </trkpt>
      <trkpt lat="49.58551" lon="-1.27045">
        <ele>3.948495</ele>
        <time>2022-07-30T14:56:04.000Z</time>
      </trkpt>
      <trkpt lat="49.58553" lon="-1.27047">
        <ele>3.949053</ele>
        <time>2022-07-30T14:56:05.000Z</time>
      </trkpt>
      <trkpt lat="49.58556" lon="-1.27048">
        <ele>3.949526</ele>
        <time>2022-07-30T14:56:06.000Z</time>
      </trkpt>
      <trkpt lat="49.58559" lon="-1.27046">
        <ele>3.950085</ele>
        <time>2022-07-30T14:56:07.000Z</time>
      </trkpt>
      <trkpt lat="49.58561" lon="-1.27044">
        <ele>3.950631</ele>
        <time>2022-07-30T14:56:08.000Z</time>
      </trkpt>
      <trkpt lat="49.58564" lon="-1.27042">
        <ele>3.951167</ele>
        <time>2022-07-30T14:56:09.000Z</time>
      </trkpt>
      <trkpt lat="49.58565" lon="-1.2704">
        <ele>3.95155</ele>
        <time>2022-07-30T14:56:10.000Z</time>
      </trkpt>
      <trkpt lat="49.58567" lon="-1.27038">
        <ele>3.951958</ele>
        <time>2022-07-30T14:56:11.000Z</time>
      </trkpt>
      <trkpt lat="49.58568" lon="-1.27033">
        <ele>3.952574</ele>
        <time>2022-07-30T14:56:13.000Z</time>
      </trkpt>
      <trkpt lat="49.58571" lon="-1.27031">
        <ele>3.953066</ele>
        <time>2022-07-30T14:56:15.000Z</time>
      </trkpt>
      <trkpt lat="49.58572" lon="-1.27032">
        <ele>3.953403</ele>
        <time>2022-07-30T14:56:16.000Z</time>
      </trkpt>
      <trkpt lat="49.58572" lon="-1.27038">
        <ele>3.954066</ele>
        <time>2022-07-30T14:56:18.000Z</time>
      </trkpt>
      <trkpt lat="49.58571" lon="-1.27041">
        <ele>3.954492</ele>
        <time>2022-07-30T14:56:19.000Z</time>
      </trkpt>
      <trkpt lat="49.58569" lon="-1.27043">
        <ele>3.954942</ele>
        <time>2022-07-30T14:56:20.000Z</time>
      </trkpt>
      <trkpt lat="49.58566" lon="-1.27045">
        <ele>3.955467</ele>
        <time>2022-07-30T14:56:21.000Z</time>
      </trkpt>
      <trkpt lat="49.58563" lon="-1.27046">
        <ele>3.95609</ele>
        <time>2022-07-30T14:56:22.000Z</time>
      </trkpt>
      <trkpt lat="49.5856" lon="-1.27047">
        <ele>3.956646</ele>
        <time>2022-07-30T14:56:23.000Z</time>
      </trkpt>
      <trkpt lat="49.58557" lon="-1.27048">
        <ele>3.957307</ele>
        <time>2022-07-30T14:56:24.000Z</time>
      </trkpt>
      <trkpt lat="49.58553" lon="-1.27047">
        <ele>3.957969</ele>
        <time>2022-07-30T14:56:25.000Z</time>
      </trkpt>
      <trkpt lat="49.58551" lon="-1.27045">
        <ele>3.958533</ele>
        <time>2022-07-30T14:56:26.000Z</time>
      </trkpt>
      <trkpt lat="49.58548" lon="-1.27042">
        <ele>3.959204</ele>
        <time>2022-07-30T14:56:27.000Z</time>
      </trkpt>
      <trkpt lat="49.58546" lon="-1.27038">
        <ele>3.959819</ele>
        <time>2022-07-30T14:56:28.000Z</time>
      </trkpt>
      <trkpt lat="49.58544" lon="-1.27034">
        <ele>3.960386</ele>
        <time>2022-07-30T14:56:29.000Z</time>
      </trkpt>
      <trkpt lat="49.58542" lon="-1.2703">
        <ele>3.960943</ele>
        <time>2022-07-30T14:56:30.000Z</time>
      </trkpt>
      <trkpt lat="49.58541" lon="-1.27026">
        <ele>3.961521</ele>
        <time>2022-07-30T14:56:31.000Z</time>
      </trkpt>
      <trkpt lat="49.58539" lon="-1.27021">
        <ele>3.962162</ele>
        <time>2022-07-30T14:56:32.000Z</time>
      </trkpt>
      <trkpt lat="49.58537" lon="-1.27016">
        <ele>3.962841</ele>
        <time>2022-07-30T14:56:33.000Z</time>
      </trkpt>
      <trkpt lat="49.58535" lon="-1.27012">
        <ele>3.963509</ele>
        <time>2022-07-30T14:56:34.000Z</time>
      </trkpt>
      <trkpt lat="49.58533" lon="-1.27007">
        <ele>3.964188</ele>
        <time>2022-07-30T14:56:35.000Z</time>
      </trkpt>
      <trkpt lat="49.58531" lon="-1.27002">
        <ele>3.964878</ele>
        <time>2022-07-30T14:56:36.000Z</time>
      </trkpt>
      <trkpt lat="49.58529" lon="-1.26998">
        <ele>3.965577</ele>
        <time>2022-07-30T14:56:37.000Z</time>
      </trkpt>
      <trkpt lat="49.58527" lon="-1.26993">
        <ele>3.966256</ele>
        <time>2022-07-30T14:56:38.000Z</time>
      </trkpt>
      <trkpt lat="49.58525" lon="-1.26988">
        <ele>3.966965</ele>
        <time>2022-07-30T14:56:39.000Z</time>
      </trkpt>
      <trkpt lat="49.58523" lon="-1.26983">
        <ele>3.967617</ele>
        <time>2022-07-30T14:56:40.000Z</time>
      </trkpt>
      <trkpt lat="49.58521" lon="-1.26979">
        <ele>3.968265</ele>
        <time>2022-07-30T14:56:41.000Z</time>
      </trkpt>
      <trkpt lat="49.58519" lon="-1.26974">
        <ele>3.968574</ele>
        <time>2022-07-30T14:56:42.000Z</time>
      </trkpt>
      <trkpt lat="49.58517" lon="-1.2697">
        <ele>3.968574</ele>
        <time>2022-07-30T14:56:43.000Z</time>
      </trkpt>
      <trkpt lat="49.58516" lon="-1.26966">
        <ele>3.968574</ele>
        <time>2022-07-30T14:56:44.000Z</time>
      </trkpt>
      <trkpt lat="49.58514" lon="-1.26961">
        <ele>3.968574</ele>
        <time>2022-07-30T14:56:45.000Z</time>
      </trkpt>
      <trkpt lat="49.58513" lon="-1.26957">
        <ele>3.968574</ele>
        <time>2022-07-30T14:56:46.000Z</time>
      </trkpt>
      <trkpt lat="49.58511" lon="-1.26953">
        <ele>3.968574</ele>
        <time>2022-07-30T14:56:47.000Z</time>
      </trkpt>
      <trkpt lat="49.58509" lon="-1.26949">
        <ele>3.968574</ele>
        <time>2022-07-30T14:56:48.000Z</time>
      </trkpt>
      <trkpt lat="49.58507" lon="-1.26944">
        <ele>3.968574</ele>
        <time>2022-07-30T14:56:49.000Z</time>
      </trkpt>
      <trkpt lat="49.58505" lon="-1.2694">
        <ele>3.968574</ele>
        <time>2022-07-30T14:56:50.000Z</time>
      </trkpt>
      <trkpt lat="49.58503" lon="-1.26936">
        <ele>3.968574</ele>
        <time>2022-07-30T14:56:51.000Z</time>
      </trkpt>
      <trkpt lat="49.58502" lon="-1.26931">
        <ele>3.968574</ele>
        <time>2022-07-30T14:56:52.000Z</time>
      </trkpt>
      <trkpt lat="49.585" lon="-1.26927">
        <ele>3.968574</ele>
        <time>2022-07-30T14:56:53.000Z</time>
      </trkpt>
      <trkpt lat="49.58498" lon="-1.26922">
        <ele>3.968574</ele>
        <time>2022-07-30T14:56:54.000Z</time>
      </trkpt>
      <trkpt lat="49.58496" lon="-1.26917">
        <ele>3.968574</ele>
        <time>2022-07-30T14:56:55.000Z</time>
      </trkpt>
      <trkpt lat="49.58495" lon="-1.26913">
        <ele>3.968574</ele>
        <time>2022-07-30T14:56:56.000Z</time>
      </trkpt>
      <trkpt lat="49.58493" lon="-1.26908">
        <ele>3.968574</ele>
        <time>2022-07-30T14:56:57.000Z</time>
      </trkpt>
      <trkpt lat="49.58491" lon="-1.26903">
        <ele>3.968574</ele>
        <time>2022-07-30T14:56:58.000Z</time>
      </trkpt>
      <trkpt lat="49.58489" lon="-1.26898">
        <ele>3.968574</ele>
        <time>2022-07-30T14:56:59.000Z</time>
      </trkpt>
      <trkpt lat="49.58487" lon="-1.26894">
        <ele>3.968574</ele>
        <time>2022-07-30T14:57:00.000Z</time>
      </trkpt>
      <trkpt lat="49.58485" lon="-1.26889">
        <ele>3.968574</ele>
        <time>2022-07-30T14:57:01.000Z</time>
      </trkpt>
      <trkpt lat="49.58484" lon="-1.26885">
        <ele>3.968574</ele>
        <time>2022-07-30T14:57:02.000Z</time>
      </trkpt>
      <trkpt lat="49.58483" lon="-1.26881">
        <ele>3.968574</ele>
        <time>2022-07-30T14:57:03.000Z</time>
      </trkpt>
      <trkpt lat="49.58482" lon="-1.26877">
        <ele>3.968574</ele>
        <time>2022-07-30T14:57:04.000Z</time>
      </trkpt>
      <trkpt lat="49.58481" lon="-1.26874">
        <ele>3.968574</ele>
        <time>2022-07-30T14:57:05.000Z</time>
      </trkpt>
      <trkpt lat="49.58479" lon="-1.2687">
        <ele>3.968574</ele>
        <time>2022-07-30T14:57:06.000Z</time>
      </trkpt>
      <trkpt lat="49.58478" lon="-1.26868">
        <ele>3.968574</ele>
        <time>2022-07-30T14:57:07.000Z</time>
      </trkpt>
      <trkpt lat="49.58477" lon="-1.26866">
        <ele>3.968574</ele>
        <time>2022-07-30T14:57:08.000Z</time>
      </trkpt>
      <trkpt lat="49.58472" lon="-1.26864">
        <ele>3.968574</ele>
        <time>2022-07-30T14:57:10.000Z</time>
      </trkpt>
      <trkpt lat="49.5847" lon="-1.26864">
        <ele>3.968574</ele>
        <time>2022-07-30T14:57:11.000Z</time>
      </trkpt>
      <trkpt lat="49.58467" lon="-1.26864">
        <ele>3.968574</ele>
        <time>2022-07-30T14:57:12.000Z</time>
      </trkpt>
      <trkpt lat="49.58464" lon="-1.26865">
        <ele>3.968574</ele>
        <time>2022-07-30T14:57:13.000Z</time>
      </trkpt>
      <trkpt lat="49.58461" lon="-1.26866">
        <ele>3.968574</ele>
        <time>2022-07-30T14:57:14.000Z</time>
      </trkpt>
      <trkpt lat="49.5846" lon="-1.26868">
        <ele>3.968574</ele>
        <time>2022-07-30T14:57:15.000Z</time>
      </trkpt>
      <trkpt lat="49.58458" lon="-1.26871">
        <ele>3.968574</ele>
        <time>2022-07-30T14:57:16.000Z</time>
      </trkpt>
      <trkpt lat="49.58456" lon="-1.26874">
        <ele>3.968574</ele>
        <time>2022-07-30T14:57:17.000Z</time>
      </trkpt>
      <trkpt lat="49.58454" lon="-1.26876">
        <ele>3.968574</ele>
        <time>2022-07-30T14:57:18.000Z</time>
      </trkpt>
      <trkpt lat="49.58452" lon="-1.26878">
        <ele>3.968574</ele>
        <time>2022-07-30T14:57:20.000Z</time>
      </trkpt>
      <trkpt lat="49.5845" lon="-1.26879">
        <ele>3.968574</ele>
        <time>2022-07-30T14:57:22.000Z</time>
      </trkpt>
      <trkpt lat="49.58451" lon="-1.26881">
        <ele>3.968574</ele>
        <time>2022-07-30T14:57:39.000Z</time>
      </trkpt>
      <trkpt lat="49.58499" lon="-1.26916">
        <ele>6.723396</ele>
        <time>2022-07-31T09:06:03.000Z</time>
      </trkpt>
      <trkpt lat="49.585" lon="-1.26921">
        <ele>6.723396</ele>
        <time>2022-07-31T09:06:06.000Z</time>
      </trkpt>
      <trkpt lat="49.58501" lon="-1.26925">
        <ele>6.723396</ele>
        <time>2022-07-31T09:06:07.000Z</time>
      </trkpt>
      <trkpt lat="49.58502" lon="-1.26929">
        <ele>6.723396</ele>
        <time>2022-07-31T09:06:08.000Z</time>
      </trkpt>
      <trkpt lat="49.58503" lon="-1.26933">
        <ele>6.723396</ele>
        <time>2022-07-31T09:06:09.000Z</time>
      </trkpt>
      <trkpt lat="49.58505" lon="-1.26937">
        <ele>6.723396</ele>
        <time>2022-07-31T09:06:10.000Z</time>
      </trkpt>
      <trkpt lat="49.58506" lon="-1.2694">
        <ele>6.723396</ele>
        <time>2022-07-31T09:06:11.000Z</time>
      </trkpt>
      <trkpt lat="49.58507" lon="-1.26943">
        <ele>6.723396</ele>
        <time>2022-07-31T09:06:12.000Z</time>
      </trkpt>
      <trkpt lat="49.58509" lon="-1.26947">
        <ele>6.723396</ele>
        <time>2022-07-31T09:06:14.000Z</time>
      </trkpt>
      <trkpt lat="49.5851" lon="-1.26952">
        <ele>6.723396</ele>
        <time>2022-07-31T09:06:16.000Z</time>
      </trkpt>
      <trkpt lat="49.58511" lon="-1.26957">
        <ele>6.723396</ele>
        <time>2022-07-31T09:06:18.000Z</time>
      </trkpt>
      <trkpt lat="49.58513" lon="-1.26962">
        <ele>6.723396</ele>
        <time>2022-07-31T09:06:20.000Z</time>
      </trkpt>
      <trkpt lat="49.58514" lon="-1.26964">
        <ele>6.723396</ele>
        <time>2022-07-31T09:06:21.000Z</time>
      </trkpt>
      <trkpt lat="49.58515" lon="-1.26967">
        <ele>6.723396</ele>
        <time>2022-07-31T09:06:22.000Z</time>
      </trkpt>
      <trkpt lat="49.58516" lon="-1.2697">
        <ele>6.723396</ele>
        <time>2022-07-31T09:06:23.000Z</time>
      </trkpt>
      <trkpt lat="49.58517" lon="-1.26973">
        <ele>6.723396</ele>
        <time>2022-07-31T09:06:24.000Z</time>
      </trkpt>
      <trkpt lat="49.58519" lon="-1.26975">
        <ele>6.723396</ele>
        <time>2022-07-31T09:06:25.000Z</time>
      </trkpt>
      <trkpt lat="49.5852" lon="-1.26978">
        <ele>6.723396</ele>
        <time>2022-07-31T09:06:26.000Z</time>
      </trkpt>
      <trkpt lat="49.58522" lon="-1.26981">
        <ele>6.723396</ele>
        <time>2022-07-31T09:06:27.000Z</time>
      </trkpt>
      <trkpt lat="49.58523" lon="-1.26984">
        <ele>6.723396</ele>
        <time>2022-07-31T09:06:28.000Z</time>
      </trkpt>
      <trkpt lat="49.58525" lon="-1.26987">
        <ele>6.723396</ele>
        <time>2022-07-31T09:06:29.000Z</time>
      </trkpt>
      <trkpt lat="49.58526" lon="-1.26991">
        <ele>6.723396</ele>
        <time>2022-07-31T09:06:30.000Z</time>
      </trkpt>
      <trkpt lat="49.58527" lon="-1.26993">
        <ele>6.723396</ele>
        <time>2022-07-31T09:06:31.000Z</time>
      </trkpt>
      <trkpt lat="49.58529" lon="-1.26996">
        <ele>6.723396</ele>
        <time>2022-07-31T09:06:32.000Z</time>
      </trkpt>
      <trkpt lat="49.5853" lon="-1.26999">
        <ele>6.723396</ele>
        <time>2022-07-31T09:06:33.000Z</time>
      </trkpt>
      <trkpt lat="49.58531" lon="-1.27001">
        <ele>6.723396</ele>
        <time>2022-07-31T09:06:34.000Z</time>
      </trkpt>
      <trkpt lat="49.58533" lon="-1.27004">
        <ele>6.723396</ele>
        <time>2022-07-31T09:06:35.000Z</time>
      </trkpt>
      <trkpt lat="49.58534" lon="-1.27008">
        <ele>6.723396</ele>
        <time>2022-07-31T09:06:36.000Z</time>
      </trkpt>
      <trkpt lat="49.58536" lon="-1.27011">
        <ele>6.723396</ele>
        <time>2022-07-31T09:06:37.000Z</time>
      </trkpt>
      <trkpt lat="49.58537" lon="-1.27014">
        <ele>6.723396</ele>
        <time>2022-07-31T09:06:38.000Z</time>
      </trkpt>
      <trkpt lat="49.58539" lon="-1.27017">
        <ele>6.723396</ele>
        <time>2022-07-31T09:06:39.000Z</time>
      </trkpt>
      <trkpt lat="49.58536" lon="-1.27016">
        <ele>6.723396</ele>
        <time>2022-07-31T09:06:45.000Z</time>
      </trkpt>
      <trkpt lat="49.58533" lon="-1.27013">
        <ele>6.723396</ele>
        <time>2022-07-31T09:06:47.000Z</time>
      </trkpt>
      <trkpt lat="49.58531" lon="-1.27012">
        <ele>6.723396</ele>
        <time>2022-07-31T09:06:49.000Z</time>
      </trkpt>
      <trkpt lat="49.58529" lon="-1.27013">
        <ele>6.723396</ele>
        <time>2022-07-31T09:06:51.000Z</time>
      </trkpt>
      <trkpt lat="49.58526" lon="-1.27015">
        <ele>6.728198</ele>
        <time>2022-07-31T09:06:54.000Z</time>
      </trkpt>
      <trkpt lat="49.58524" lon="-1.27016">
        <ele>6.747139</ele>
        <time>2022-07-31T09:06:57.000Z</time>
      </trkpt>
      <trkpt lat="49.58516" lon="-1.27018">
        <ele>6.802334</ele>
        <time>2022-07-31T09:07:45.000Z</time>
      </trkpt>
      <trkpt lat="49.58513" lon="-1.2702">
        <ele>6.823287</ele>
        <time>2022-07-31T09:07:46.000Z</time>
      </trkpt>
      <trkpt lat="49.5851" lon="-1.27021">
        <ele>6.846678</ele>
        <time>2022-07-31T09:07:47.000Z</time>
      </trkpt>
      <trkpt lat="49.58506" lon="-1.27023">
        <ele>6.873574</ele>
        <time>2022-07-31T09:07:48.000Z</time>
      </trkpt>
      <trkpt lat="49.58503" lon="-1.27025">
        <ele>6.895582</ele>
        <time>2022-07-31T09:07:49.000Z</time>
      </trkpt>
      <trkpt lat="49.585" lon="-1.27027">
        <ele>6.922629</ele>
        <time>2022-07-31T09:07:50.000Z</time>
      </trkpt>
      <trkpt lat="49.58496" lon="-1.27029">
        <ele>6.948858</ele>
        <time>2022-07-31T09:07:51.000Z</time>
      </trkpt>
      <trkpt lat="49.58493" lon="-1.27031">
        <ele>6.972935</ele>
        <time>2022-07-31T09:07:52.000Z</time>
      </trkpt>
      <trkpt lat="49.5849" lon="-1.27032">
        <ele>6.997012</ele>
        <time>2022-07-31T09:07:53.000Z</time>
      </trkpt>
      <trkpt lat="49.58487" lon="-1.27034">
        <ele>7.016325</ele>
        <time>2022-07-31T09:07:54.000Z</time>
      </trkpt>
      <trkpt lat="49.58485" lon="-1.27035">
        <ele>7.03364</ele>
        <time>2022-07-31T09:07:55.000Z</time>
      </trkpt>
      <trkpt lat="49.58483" lon="-1.27037">
        <ele>7.048153</ele>
        <time>2022-07-31T09:07:56.000Z</time>
      </trkpt>
      <trkpt lat="49.58481" lon="-1.27038">
        <ele>7.062666</ele>
        <time>2022-07-31T09:07:57.000Z</time>
      </trkpt>
      <trkpt lat="49.58479" lon="-1.27039">
        <ele>7.076856</ele>
        <time>2022-07-31T09:07:58.000Z</time>
      </trkpt>
      <trkpt lat="49.58477" lon="-1.2704">
        <ele>7.091718</ele>
        <time>2022-07-31T09:07:59.000Z</time>
      </trkpt>
      <trkpt lat="49.58475" lon="-1.27041">
        <ele>7.10793</ele>
        <time>2022-07-31T09:08:00.000Z</time>
      </trkpt>
      <trkpt lat="49.58473" lon="-1.27042">
        <ele>7.122623</ele>
        <time>2022-07-31T09:08:01.000Z</time>
      </trkpt>
      <trkpt lat="49.58471" lon="-1.27043">
        <ele>7.139938</ele>
        <time>2022-07-31T09:08:02.000Z</time>
      </trkpt>
      <trkpt lat="49.58469" lon="-1.27044">
        <ele>7.158195</ele>
        <time>2022-07-31T09:08:03.000Z</time>
      </trkpt>
      <trkpt lat="49.58466" lon="-1.27046">
        <ele>7.175846</ele>
        <time>2022-07-31T09:08:04.000Z</time>
      </trkpt>
      <trkpt lat="49.58464" lon="-1.27047">
        <ele>7.192669</ele>
        <time>2022-07-31T09:08:05.000Z</time>
      </trkpt>
      <trkpt lat="49.58462" lon="-1.27049">
        <ele>7.209322</ele>
        <time>2022-07-31T09:08:06.000Z</time>
      </trkpt>
      <trkpt lat="49.5846" lon="-1.2705">
        <ele>7.227351</ele>
        <time>2022-07-31T09:08:07.000Z</time>
      </trkpt>
      <trkpt lat="49.58457" lon="-1.27052">
        <ele>7.246</ele>
        <time>2022-07-31T09:08:08.000Z</time>
      </trkpt>
      <trkpt lat="49.58454" lon="-1.27053">
        <ele>7.267347</ele>
        <time>2022-07-31T09:08:09.000Z</time>
      </trkpt>
      <trkpt lat="49.58452" lon="-1.27054">
        <ele>7.286814</ele>
        <time>2022-07-31T09:08:10.000Z</time>
      </trkpt>
      <trkpt lat="49.58449" lon="-1.27056">
        <ele>7.308435</ele>
        <time>2022-07-31T09:08:11.000Z</time>
      </trkpt>
      <trkpt lat="49.58446" lon="-1.27057">
        <ele>7.329542</ele>
        <time>2022-07-31T09:08:12.000Z</time>
      </trkpt>
      <trkpt lat="49.58443" lon="-1.27059">
        <ele>7.350079</ele>
        <time>2022-07-31T09:08:13.000Z</time>
      </trkpt>
      <trkpt lat="49.5844" lon="-1.27062">
        <ele>7.373343</ele>
        <time>2022-07-31T09:08:14.000Z</time>
      </trkpt>
      <trkpt lat="49.58438" lon="-1.27064">
        <ele>7.393919</ele>
        <time>2022-07-31T09:08:15.000Z</time>
      </trkpt>
      <trkpt lat="49.58435" lon="-1.27066">
        <ele>7.418684</ele>
        <time>2022-07-31T09:08:16.000Z</time>
      </trkpt>
      <trkpt lat="49.58432" lon="-1.27068">
        <ele>7.43943</ele>
        <time>2022-07-31T09:08:17.000Z</time>
      </trkpt>
      <trkpt lat="49.58429" lon="-1.27071">
        <ele>7.460849</ele>
        <time>2022-07-31T09:08:18.000Z</time>
      </trkpt>
      <trkpt lat="49.58427" lon="-1.27073">
        <ele>7.482291</ele>
        <time>2022-07-31T09:08:19.000Z</time>
      </trkpt>
      <trkpt lat="49.58424" lon="-1.27074">
        <ele>7.499454</ele>
        <time>2022-07-31T09:08:20.000Z</time>
      </trkpt>
      <trkpt lat="49.58422" lon="-1.27074">
        <ele>7.512955</ele>
        <time>2022-07-31T09:08:21.000Z</time>
      </trkpt>
      <trkpt lat="49.5842" lon="-1.27073">
        <ele>7.528834</ele>
        <time>2022-07-31T09:08:22.000Z</time>
      </trkpt>
      <trkpt lat="49.58418" lon="-1.27072">
        <ele>7.547065</ele>
        <time>2022-07-31T09:08:23.000Z</time>
      </trkpt>
      <trkpt lat="49.58416" lon="-1.27069">
        <ele>7.56564</ele>
        <time>2022-07-31T09:08:24.000Z</time>
      </trkpt>
      <trkpt lat="49.58414" lon="-1.27066">
        <ele>7.586397</ele>
        <time>2022-07-31T09:08:25.000Z</time>
      </trkpt>
      <trkpt lat="49.58412" lon="-1.27062">
        <ele>7.608917</ele>
        <time>2022-07-31T09:08:26.000Z</time>
      </trkpt>
      <trkpt lat="49.5841" lon="-1.27058">
        <ele>7.631642</ele>
        <time>2022-07-31T09:08:27.000Z</time>
      </trkpt>
      <trkpt lat="49.58408" lon="-1.27054">
        <ele>7.655489</ele>
        <time>2022-07-31T09:08:28.000Z</time>
      </trkpt>
      <trkpt lat="49.58406" lon="-1.2705">
        <ele>7.677814</ele>
        <time>2022-07-31T09:08:29.000Z</time>
      </trkpt>
      <trkpt lat="49.58404" lon="-1.27046">
        <ele>7.700539</ele>
        <time>2022-07-31T09:08:30.000Z</time>
      </trkpt>
      <trkpt lat="49.58403" lon="-1.27042">
        <ele>7.720542</ele>
        <time>2022-07-31T09:08:31.000Z</time>
      </trkpt>
      <trkpt lat="49.58402" lon="-1.27039">
        <ele>7.737652</ele>
        <time>2022-07-31T09:08:32.000Z</time>
      </trkpt>
      <trkpt lat="49.584" lon="-1.27036">
        <ele>7.754572</ele>
        <time>2022-07-31T09:08:33.000Z</time>
      </trkpt>
      <trkpt lat="49.58399" lon="-1.27033">
        <ele>7.769307</ele>
        <time>2022-07-31T09:08:34.000Z</time>
      </trkpt>
      <trkpt lat="49.58398" lon="-1.2703">
        <ele>7.78509</ele>
        <time>2022-07-31T09:08:35.000Z</time>
      </trkpt>
      <trkpt lat="49.58397" lon="-1.27027">
        <ele>7.800873</ele>
        <time>2022-07-31T09:08:36.000Z</time>
      </trkpt>
      <trkpt lat="49.58396" lon="-1.27024">
        <ele>7.817983</ele>
        <time>2022-07-31T09:08:37.000Z</time>
      </trkpt>
      <trkpt lat="49.58394" lon="-1.27021">
        <ele>7.836868</ele>
        <time>2022-07-31T09:08:38.000Z</time>
      </trkpt>
      <trkpt lat="49.58393" lon="-1.27018">
        <ele>7.854671</ele>
        <time>2022-07-31T09:08:39.000Z</time>
      </trkpt>
      <trkpt lat="49.58391" lon="-1.27015">
        <ele>7.871775</ele>
        <time>2022-07-31T09:08:40.000Z</time>
      </trkpt>
      <trkpt lat="49.5839" lon="-1.27012">
        <ele>7.886925</ele>
        <time>2022-07-31T09:08:41.000Z</time>
      </trkpt>
      <trkpt lat="49.58389" lon="-1.27009">
        <ele>7.904231</ele>
        <time>2022-07-31T09:08:42.000Z</time>
      </trkpt>
      <trkpt lat="49.58388" lon="-1.27005">
        <ele>7.921928</ele>
        <time>2022-07-31T09:08:43.000Z</time>
      </trkpt>
      <trkpt lat="49.58386" lon="-1.27001">
        <ele>7.942025</ele>
        <time>2022-07-31T09:08:44.000Z</time>
      </trkpt>
      <trkpt lat="49.58385" lon="-1.26998">
        <ele>7.960576</ele>
        <time>2022-07-31T09:08:45.000Z</time>
      </trkpt>
      <trkpt lat="49.58384" lon="-1.26994">
        <ele>7.979796</ele>
        <time>2022-07-31T09:08:46.000Z</time>
      </trkpt>
      <trkpt lat="49.58383" lon="-1.2699">
        <ele>7.993034</ele>
        <time>2022-07-31T09:08:47.000Z</time>
      </trkpt>
      <trkpt lat="49.58382" lon="-1.26985">
        <ele>7.98714</ele>
        <time>2022-07-31T09:08:48.000Z</time>
      </trkpt>
      <trkpt lat="49.58382" lon="-1.26981">
        <ele>7.981621</ele>
        <time>2022-07-31T09:08:49.000Z</time>
      </trkpt>
      <trkpt lat="49.58382" lon="-1.26977">
        <ele>7.975967</ele>
        <time>2022-07-31T09:08:50.000Z</time>
      </trkpt>
      <trkpt lat="49.58381" lon="-1.26974">
        <ele>7.970947</ele>
        <time>2022-07-31T09:08:51.000Z</time>
      </trkpt>
      <trkpt lat="49.58381" lon="-1.26971">
        <ele>7.967036</ele>
        <time>2022-07-31T09:08:52.000Z</time>
      </trkpt>
      <trkpt lat="49.58379" lon="-1.26969">
        <ele>7.962014</ele>
        <time>2022-07-31T09:08:53.000Z</time>
      </trkpt>
      <trkpt lat="49.58376" lon="-1.26967">
        <ele>7.956562</ele>
        <time>2022-07-31T09:08:54.000Z</time>
      </trkpt>
      <trkpt lat="49.58374" lon="-1.26965">
        <ele>7.951919</ele>
        <time>2022-07-31T09:08:55.000Z</time>
      </trkpt>
      <trkpt lat="49.58372" lon="-1.26964">
        <ele>7.94703</ele>
        <time>2022-07-31T09:08:56.000Z</time>
      </trkpt>
      <trkpt lat="49.5837" lon="-1.26963">
        <ele>7.941752</ele>
        <time>2022-07-31T09:08:57.000Z</time>
      </trkpt>
      <trkpt lat="49.58368" lon="-1.26961">
        <ele>7.936889</ele>
        <time>2022-07-31T09:08:58.000Z</time>
      </trkpt>
      <trkpt lat="49.58366" lon="-1.26958">
        <ele>7.931698</ele>
        <time>2022-07-31T09:08:59.000Z</time>
      </trkpt>
      <trkpt lat="49.58365" lon="-1.26955">
        <ele>7.926374</ele>
        <time>2022-07-31T09:09:00.000Z</time>
      </trkpt>
      <trkpt lat="49.58363" lon="-1.26952">
        <ele>7.920326</ele>
        <time>2022-07-31T09:09:01.000Z</time>
      </trkpt>
      <trkpt lat="49.58361" lon="-1.26948">
        <ele>7.913724</ele>
        <time>2022-07-31T09:09:02.000Z</time>
      </trkpt>
      <trkpt lat="49.58358" lon="-1.26945">
        <ele>7.906742</ele>
        <time>2022-07-31T09:09:03.000Z</time>
      </trkpt>
      <trkpt lat="49.58357" lon="-1.26941">
        <ele>7.899946</ele>
        <time>2022-07-31T09:09:04.000Z</time>
      </trkpt>
      <trkpt lat="49.58355" lon="-1.26937">
        <ele>7.893151</ele>
        <time>2022-07-31T09:09:05.000Z</time>
      </trkpt>
      <trkpt lat="49.58353" lon="-1.26932">
        <ele>7.886009</ele>
        <time>2022-07-31T09:09:06.000Z</time>
      </trkpt>
      <trkpt lat="49.5835" lon="-1.26928">
        <ele>7.878395</ele>
        <time>2022-07-31T09:09:07.000Z</time>
      </trkpt>
      <trkpt lat="49.58348" lon="-1.26925">
        <ele>7.871565</ele>
        <time>2022-07-31T09:09:08.000Z</time>
      </trkpt>
      <trkpt lat="49.58346" lon="-1.26921">
        <ele>7.864658</ele>
        <time>2022-07-31T09:09:09.000Z</time>
      </trkpt>
      <trkpt lat="49.58343" lon="-1.26917">
        <ele>7.857142</ele>
        <time>2022-07-31T09:09:10.000Z</time>
      </trkpt>
      <trkpt lat="49.58341" lon="-1.26913">
        <ele>7.850018</ele>
        <time>2022-07-31T09:09:11.000Z</time>
      </trkpt>
      <trkpt lat="49.58339" lon="-1.26909">
        <ele>7.842829</ele>
        <time>2022-07-31T09:09:12.000Z</time>
      </trkpt>
      <trkpt lat="49.58337" lon="-1.26905">
        <ele>7.835811</ele>
        <time>2022-07-31T09:09:13.000Z</time>
      </trkpt>
      <trkpt lat="49.58335" lon="-1.26901">
        <ele>7.828171</ele>
        <time>2022-07-31T09:09:14.000Z</time>
      </trkpt>
      <trkpt lat="49.58333" lon="-1.26896">
        <ele>7.821152</ele>
        <time>2022-07-31T09:09:15.000Z</time>
      </trkpt>
      <trkpt lat="49.58331" lon="-1.26892">
        <ele>7.813858</ele>
        <time>2022-07-31T09:09:16.000Z</time>
      </trkpt>
      <trkpt lat="49.58329" lon="-1.26888">
        <ele>7.806717</ele>
        <time>2022-07-31T09:09:17.000Z</time>
      </trkpt>
      <trkpt lat="49.58326" lon="-1.26884">
        <ele>7.799317</ele>
        <time>2022-07-31T09:09:18.000Z</time>
      </trkpt>
      <trkpt lat="49.58324" lon="-1.2688">
        <ele>7.792335</ele>
        <time>2022-07-31T09:09:19.000Z</time>
      </trkpt>
      <trkpt lat="49.58322" lon="-1.26876">
        <ele>7.78531</ele>
        <time>2022-07-31T09:09:20.000Z</time>
      </trkpt>
      <trkpt lat="49.58319" lon="-1.26873">
        <ele>7.778173</ele>
        <time>2022-07-31T09:09:21.000Z</time>
      </trkpt>
      <trkpt lat="49.58317" lon="-1.26869">
        <ele>7.771247</ele>
        <time>2022-07-31T09:09:22.000Z</time>
      </trkpt>
      <trkpt lat="49.58315" lon="-1.26865">
        <ele>7.764561</ele>
        <time>2022-07-31T09:09:23.000Z</time>
      </trkpt>
      <trkpt lat="49.58313" lon="-1.26862">
        <ele>7.75788</ele>
        <time>2022-07-31T09:09:24.000Z</time>
      </trkpt>
      <trkpt lat="49.58311" lon="-1.26858">
        <ele>7.751383</ele>
        <time>2022-07-31T09:09:25.000Z</time>
      </trkpt>
      <trkpt lat="49.58309" lon="-1.26855">
        <ele>7.744702</ele>
        <time>2022-07-31T09:09:26.000Z</time>
      </trkpt>
      <trkpt lat="49.58307" lon="-1.26851">
        <ele>7.738021</ele>
        <time>2022-07-31T09:09:27.000Z</time>
      </trkpt>
      <trkpt lat="49.58304" lon="-1.26848">
        <ele>7.731287</ele>
        <time>2022-07-31T09:09:28.000Z</time>
      </trkpt>
      <trkpt lat="49.58302" lon="-1.26844">
        <ele>7.724507</ele>
        <time>2022-07-31T09:09:29.000Z</time>
      </trkpt>
      <trkpt lat="49.583" lon="-1.26841">
        <ele>7.717302</ele>
        <time>2022-07-31T09:09:30.000Z</time>
      </trkpt>
      <trkpt lat="49.58297" lon="-1.26837">
        <ele>7.71032</ele>
        <time>2022-07-31T09:09:31.000Z</time>
      </trkpt>
      <trkpt lat="49.58295" lon="-1.26834">
        <ele>7.703202</ele>
        <time>2022-07-31T09:09:32.000Z</time>
      </trkpt>
      <trkpt lat="49.58293" lon="-1.26831">
        <ele>7.697256</ele>
        <time>2022-07-31T09:09:33.000Z</time>
      </trkpt>
      <trkpt lat="49.58291" lon="-1.26828">
        <ele>7.691226</ele>
        <time>2022-07-31T09:09:34.000Z</time>
      </trkpt>
      <trkpt lat="49.58289" lon="-1.26825">
        <ele>7.685329</ele>
        <time>2022-07-31T09:09:35.000Z</time>
      </trkpt>
      <trkpt lat="49.58286" lon="-1.26822">
        <ele>7.679122</ele>
        <time>2022-07-31T09:09:36.000Z</time>
      </trkpt>
      <trkpt lat="49.58284" lon="-1.26819">
        <ele>7.672091</ele>
        <time>2022-07-31T09:09:37.000Z</time>
      </trkpt>
      <trkpt lat="49.58281" lon="-1.26815">
        <ele>7.665223</ele>
        <time>2022-07-31T09:09:38.000Z</time>
      </trkpt>
      <trkpt lat="49.58279" lon="-1.26812">
        <ele>7.659377</ele>
        <time>2022-07-31T09:09:39.000Z</time>
      </trkpt>
      <trkpt lat="49.58277" lon="-1.26809">
        <ele>7.65283</ele>
        <time>2022-07-31T09:09:40.000Z</time>
      </trkpt>
      <trkpt lat="49.58275" lon="-1.26807">
        <ele>7.64755</ele>
        <time>2022-07-31T09:09:41.000Z</time>
      </trkpt>
      <trkpt lat="49.58273" lon="-1.26805">
        <ele>7.642688</ele>
        <time>2022-07-31T09:09:42.000Z</time>
      </trkpt>
      <trkpt lat="49.58271" lon="-1.26802">
        <ele>7.637583</ele>
        <time>2022-07-31T09:09:43.000Z</time>
      </trkpt>
      <trkpt lat="49.58269" lon="-1.268">
        <ele>7.632067</ele>
        <time>2022-07-31T09:09:44.000Z</time>
      </trkpt>
      <trkpt lat="49.58267" lon="-1.26798">
        <ele>7.626598</ele>
        <time>2022-07-31T09:09:45.000Z</time>
      </trkpt>
      <trkpt lat="49.58264" lon="-1.26796">
        <ele>7.620517</ele>
        <time>2022-07-31T09:09:46.000Z</time>
      </trkpt>
      <trkpt lat="49.58261" lon="-1.26794">
        <ele>7.61365</ele>
        <time>2022-07-31T09:09:47.000Z</time>
      </trkpt>
      <trkpt lat="49.58257" lon="-1.26793">
        <ele>7.60992</ele>
        <time>2022-07-31T09:09:48.000Z</time>
      </trkpt>
      <trkpt lat="49.58253" lon="-1.26791">
        <ele>7.605741</ele>
        <time>2022-07-31T09:09:49.000Z</time>
      </trkpt>
      <trkpt lat="49.5825" lon="-1.2679">
        <ele>7.602092</ele>
        <time>2022-07-31T09:09:50.000Z</time>
      </trkpt>
      <trkpt lat="49.58247" lon="-1.26789">
        <ele>7.59911</ele>
        <time>2022-07-31T09:09:51.000Z</time>
      </trkpt>
      <trkpt lat="49.58245" lon="-1.26789">
        <ele>7.596847</ele>
        <time>2022-07-31T09:09:52.000Z</time>
      </trkpt>
      <trkpt lat="49.58243" lon="-1.26789">
        <ele>7.59459</ele>
        <time>2022-07-31T09:09:53.000Z</time>
      </trkpt>
      <trkpt lat="49.58241" lon="-1.26788">
        <ele>7.592542</ele>
        <time>2022-07-31T09:09:54.000Z</time>
      </trkpt>
      <trkpt lat="49.58239" lon="-1.26789">
        <ele>7.590597</ele>
        <time>2022-07-31T09:09:55.000Z</time>
      </trkpt>
      <trkpt lat="49.58236" lon="-1.2679">
        <ele>7.587921</ele>
        <time>2022-07-31T09:09:56.000Z</time>
      </trkpt>
      <trkpt lat="49.58234" lon="-1.26791">
        <ele>7.585061</ele>
        <time>2022-07-31T09:09:57.000Z</time>
      </trkpt>
      <trkpt lat="49.58232" lon="-1.26794">
        <ele>7.582552</ele>
        <time>2022-07-31T09:09:58.000Z</time>
      </trkpt>
      <trkpt lat="49.5823" lon="-1.26796">
        <ele>7.579957</ele>
        <time>2022-07-31T09:09:59.000Z</time>
      </trkpt>
      <trkpt lat="49.58228" lon="-1.26799">
        <ele>7.576921</ele>
        <time>2022-07-31T09:10:00.000Z</time>
      </trkpt>
      <trkpt lat="49.58226" lon="-1.26802">
        <ele>7.57437</ele>
        <time>2022-07-31T09:10:01.000Z</time>
      </trkpt>
      <trkpt lat="49.58224" lon="-1.26805">
        <ele>7.571685</ele>
        <time>2022-07-31T09:10:02.000Z</time>
      </trkpt>
      <trkpt lat="49.58222" lon="-1.26807">
        <ele>7.569</ele>
        <time>2022-07-31T09:10:03.000Z</time>
      </trkpt>
      <trkpt lat="49.5822" lon="-1.2681">
        <ele>7.566426</ele>
        <time>2022-07-31T09:10:04.000Z</time>
      </trkpt>
      <trkpt lat="49.58218" lon="-1.26814">
        <ele>7.563482</ele>
        <time>2022-07-31T09:10:05.000Z</time>
      </trkpt>
      <trkpt lat="49.58216" lon="-1.26816">
        <ele>7.560797</ele>
        <time>2022-07-31T09:10:06.000Z</time>
      </trkpt>
      <trkpt lat="49.58214" lon="-1.26819">
        <ele>7.55784</ele>
        <time>2022-07-31T09:10:07.000Z</time>
      </trkpt>
      <trkpt lat="49.58213" lon="-1.26822">
        <ele>7.555818</ele>
        <time>2022-07-31T09:10:08.000Z</time>
      </trkpt>
      <trkpt lat="49.58211" lon="-1.26824">
        <ele>7.553391</ele>
        <time>2022-07-31T09:10:09.000Z</time>
      </trkpt>
      <trkpt lat="49.58209" lon="-1.26825">
        <ele>7.551443</ele>
        <time>2022-07-31T09:10:10.000Z</time>
      </trkpt>
      <trkpt lat="49.58208" lon="-1.26827">
        <ele>7.54953</ele>
        <time>2022-07-31T09:10:11.000Z</time>
      </trkpt>
      <trkpt lat="49.58206" lon="-1.26829">
        <ele>7.547466</ele>
        <time>2022-07-31T09:10:12.000Z</time>
      </trkpt>
      <trkpt lat="49.58205" lon="-1.26831">
        <ele>7.545543</ele>
        <time>2022-07-31T09:10:13.000Z</time>
      </trkpt>
      <trkpt lat="49.58203" lon="-1.26834">
        <ele>7.54312</ele>
        <time>2022-07-31T09:10:14.000Z</time>
      </trkpt>
      <trkpt lat="49.58201" lon="-1.26836">
        <ele>7.540247</ele>
        <time>2022-07-31T09:10:15.000Z</time>
      </trkpt>
      <trkpt lat="49.58198" lon="-1.26839">
        <ele>7.537007</ele>
        <time>2022-07-31T09:10:16.000Z</time>
      </trkpt>
      <trkpt lat="49.58196" lon="-1.26842">
        <ele>7.534093</ele>
        <time>2022-07-31T09:10:17.000Z</time>
      </trkpt>
      <trkpt lat="49.58194" lon="-1.26844">
        <ele>7.531218</ele>
        <time>2022-07-31T09:10:18.000Z</time>
      </trkpt>
      <trkpt lat="49.58191" lon="-1.26847">
        <ele>7.5281</ele>
        <time>2022-07-31T09:10:19.000Z</time>
      </trkpt>
      <trkpt lat="49.58189" lon="-1.26849">
        <ele>7.524768</ele>
        <time>2022-07-31T09:10:20.000Z</time>
      </trkpt>
      <trkpt lat="49.58186" lon="-1.26852">
        <ele>7.522002</ele>
        <time>2022-07-31T09:10:21.000Z</time>
      </trkpt>
      <trkpt lat="49.58184" lon="-1.26854">
        <ele>7.519062</ele>
        <time>2022-07-31T09:10:22.000Z</time>
      </trkpt>
      <trkpt lat="49.58181" lon="-1.26856">
        <ele>7.515534</ele>
        <time>2022-07-31T09:10:23.000Z</time>
      </trkpt>
      <trkpt lat="49.58178" lon="-1.26858">
        <ele>7.512836</ele>
        <time>2022-07-31T09:10:24.000Z</time>
      </trkpt>
      <trkpt lat="49.58176" lon="-1.2686">
        <ele>7.509958</ele>
        <time>2022-07-31T09:10:25.000Z</time>
      </trkpt>
      <trkpt lat="49.58173" lon="-1.26862">
        <ele>7.50699</ele>
        <time>2022-07-31T09:10:26.000Z</time>
      </trkpt>
      <trkpt lat="49.58171" lon="-1.26864">
        <ele>7.504602</ele>
        <time>2022-07-31T09:10:27.000Z</time>
      </trkpt>
      <trkpt lat="49.58169" lon="-1.26866">
        <ele>7.501571</ele>
        <time>2022-07-31T09:10:28.000Z</time>
      </trkpt>
      <trkpt lat="49.58166" lon="-1.26868">
        <ele>7.498892</ele>
        <time>2022-07-31T09:10:29.000Z</time>
      </trkpt>
      <trkpt lat="49.58164" lon="-1.2687">
        <ele>7.495894</ele>
        <time>2022-07-31T09:10:30.000Z</time>
      </trkpt>
      <trkpt lat="49.58161" lon="-1.26872">
        <ele>7.493046</ele>
        <time>2022-07-31T09:10:31.000Z</time>
      </trkpt>
      <trkpt lat="49.58158" lon="-1.26874">
        <ele>7.489921</ele>
        <time>2022-07-31T09:10:32.000Z</time>
      </trkpt>
      <trkpt lat="49.58156" lon="-1.26876">
        <ele>7.487376</ele>
        <time>2022-07-31T09:10:33.000Z</time>
      </trkpt>
      <trkpt lat="49.58154" lon="-1.26878">
        <ele>7.484679</ele>
        <time>2022-07-31T09:10:34.000Z</time>
      </trkpt>
      <trkpt lat="49.58152" lon="-1.2688">
        <ele>7.482069</ele>
        <time>2022-07-31T09:10:35.000Z</time>
      </trkpt>
      <trkpt lat="49.58149" lon="-1.26882">
        <ele>7.479304</ele>
        <time>2022-07-31T09:10:36.000Z</time>
      </trkpt>
      <trkpt lat="49.58148" lon="-1.26884">
        <ele>7.476836</ele>
        <time>2022-07-31T09:10:37.000Z</time>
      </trkpt>
      <trkpt lat="49.58145" lon="-1.26887">
        <ele>7.474044</ele>
        <time>2022-07-31T09:10:38.000Z</time>
      </trkpt>
      <trkpt lat="49.58142" lon="-1.26889">
        <ele>7.470742</ele>
        <time>2022-07-31T09:10:39.000Z</time>
      </trkpt>
      <trkpt lat="49.5814" lon="-1.26891">
        <ele>7.467773</ele>
        <time>2022-07-31T09:10:40.000Z</time>
      </trkpt>
      <trkpt lat="49.58138" lon="-1.26893">
        <ele>7.465164</ele>
        <time>2022-07-31T09:10:41.000Z</time>
      </trkpt>
      <trkpt lat="49.58135" lon="-1.26894">
        <ele>7.462017</ele>
        <time>2022-07-31T09:10:42.000Z</time>
      </trkpt>
      <trkpt lat="49.58133" lon="-1.26896">
        <ele>7.459408</ele>
        <time>2022-07-31T09:10:43.000Z</time>
      </trkpt>
      <trkpt lat="49.5813" lon="-1.26898">
        <ele>7.45671</ele>
        <time>2022-07-31T09:10:44.000Z</time>
      </trkpt>
      <trkpt lat="49.58128" lon="-1.269">
        <ele>7.454101</ele>
        <time>2022-07-31T09:10:45.000Z</time>
      </trkpt>
      <trkpt lat="49.58125" lon="-1.26902">
        <ele>7.451132</ele>
        <time>2022-07-31T09:10:46.000Z</time>
      </trkpt>
      <trkpt lat="49.58123" lon="-1.26905">
        <ele>7.448191</ele>
        <time>2022-07-31T09:10:47.000Z</time>
      </trkpt>
      <trkpt lat="49.5812" lon="-1.26907">
        <ele>7.445161</ele>
        <time>2022-07-31T09:10:48.000Z</time>
      </trkpt>
      <trkpt lat="49.58118" lon="-1.26909">
        <ele>7.442117</ele>
        <time>2022-07-31T09:10:49.000Z</time>
      </trkpt>
      <trkpt lat="49.58115" lon="-1.26911">
        <ele>7.438844</ele>
        <time>2022-07-31T09:10:50.000Z</time>
      </trkpt>
      <trkpt lat="49.58112" lon="-1.26914">
        <ele>7.435481</ele>
        <time>2022-07-31T09:10:51.000Z</time>
      </trkpt>
      <trkpt lat="49.58109" lon="-1.26916">
        <ele>7.432351</ele>
        <time>2022-07-31T09:10:52.000Z</time>
      </trkpt>
      <trkpt lat="49.58106" lon="-1.26919">
        <ele>7.434943</ele>
        <time>2022-07-31T09:10:53.000Z</time>
      </trkpt>
      <trkpt lat="49.58104" lon="-1.26921">
        <ele>7.440693</ele>
        <time>2022-07-31T09:10:54.000Z</time>
      </trkpt>
      <trkpt lat="49.58101" lon="-1.26924">
        <ele>7.447454</ele>
        <time>2022-07-31T09:10:55.000Z</time>
      </trkpt>
      <trkpt lat="49.58098" lon="-1.26926">
        <ele>7.453238</ele>
        <time>2022-07-31T09:10:56.000Z</time>
      </trkpt>
      <trkpt lat="49.58095" lon="-1.26928">
        <ele>7.45959</ele>
        <time>2022-07-31T09:10:57.000Z</time>
      </trkpt>
      <trkpt lat="49.58092" lon="-1.26931">
        <ele>7.465712</ele>
        <time>2022-07-31T09:10:58.000Z</time>
      </trkpt>
      <trkpt lat="49.5809" lon="-1.26933">
        <ele>7.471435</ele>
        <time>2022-07-31T09:10:59.000Z</time>
      </trkpt>
      <trkpt lat="49.58087" lon="-1.26935">
        <ele>7.477618</ele>
        <time>2022-07-31T09:11:00.000Z</time>
      </trkpt>
      <trkpt lat="49.58085" lon="-1.26937">
        <ele>7.482678</ele>
        <time>2022-07-31T09:11:01.000Z</time>
      </trkpt>
      <trkpt lat="49.58082" lon="-1.26939">
        <ele>7.488401</ele>
        <time>2022-07-31T09:11:02.000Z</time>
      </trkpt>
      <trkpt lat="49.5808" lon="-1.26941">
        <ele>7.493329</ele>
        <time>2022-07-31T09:11:03.000Z</time>
      </trkpt>
      <trkpt lat="49.58077" lon="-1.26943">
        <ele>7.499232</ele>
        <time>2022-07-31T09:11:04.000Z</time>
      </trkpt>
      <trkpt lat="49.58075" lon="-1.26945">
        <ele>7.50416</ele>
        <time>2022-07-31T09:11:05.000Z</time>
      </trkpt>
      <trkpt lat="49.58072" lon="-1.26947">
        <ele>7.509138</ele>
        <time>2022-07-31T09:11:06.000Z</time>
      </trkpt>
      <trkpt lat="49.5807" lon="-1.26948">
        <ele>7.513944</ele>
        <time>2022-07-31T09:11:07.000Z</time>
      </trkpt>
      <trkpt lat="49.58068" lon="-1.2695">
        <ele>7.519039</ele>
        <time>2022-07-31T09:11:08.000Z</time>
      </trkpt>
      <trkpt lat="49.58065" lon="-1.26952">
        <ele>7.524474</ele>
        <time>2022-07-31T09:11:09.000Z</time>
      </trkpt>
      <trkpt lat="49.58063" lon="-1.26954">
        <ele>7.52957</ele>
        <time>2022-07-31T09:11:10.000Z</time>
      </trkpt>
      <trkpt lat="49.58061" lon="-1.26957">
        <ele>7.53463</ele>
        <time>2022-07-31T09:11:11.000Z</time>
      </trkpt>
      <trkpt lat="49.58058" lon="-1.26959">
        <ele>7.540353</ele>
        <time>2022-07-31T09:11:12.000Z</time>
      </trkpt>
      <trkpt lat="49.58056" lon="-1.26961">
        <ele>7.545159</ele>
        <time>2022-07-31T09:11:13.000Z</time>
      </trkpt>
      <trkpt lat="49.58054" lon="-1.26962">
        <ele>7.549462</ele>
        <time>2022-07-31T09:11:14.000Z</time>
      </trkpt>
      <trkpt lat="49.58052" lon="-1.26964">
        <ele>7.554384</ele>
        <time>2022-07-31T09:11:15.000Z</time>
      </trkpt>
      <trkpt lat="49.5805" lon="-1.26966">
        <ele>7.558687</ele>
        <time>2022-07-31T09:11:16.000Z</time>
      </trkpt>
      <trkpt lat="49.58048" lon="-1.26968">
        <ele>7.563272</ele>
        <time>2022-07-31T09:11:17.000Z</time>
      </trkpt>
      <trkpt lat="49.58045" lon="-1.2697">
        <ele>7.568879</ele>
        <time>2022-07-31T09:11:18.000Z</time>
      </trkpt>
      <trkpt lat="49.58043" lon="-1.26972">
        <ele>7.574315</ele>
        <time>2022-07-31T09:11:19.000Z</time>
      </trkpt>
      <trkpt lat="49.58041" lon="-1.26974">
        <ele>7.579537</ele>
        <time>2022-07-31T09:11:20.000Z</time>
      </trkpt>
      <trkpt lat="49.58038" lon="-1.26977">
        <ele>7.584667</ele>
        <time>2022-07-31T09:11:21.000Z</time>
      </trkpt>
      <trkpt lat="49.58036" lon="-1.26979">
        <ele>7.589727</ele>
        <time>2022-07-31T09:11:22.000Z</time>
      </trkpt>
      <trkpt lat="49.58034" lon="-1.26981">
        <ele>7.595391</ele>
        <time>2022-07-31T09:11:23.000Z</time>
      </trkpt>
      <trkpt lat="49.58031" lon="-1.26983">
        <ele>7.600591</ele>
        <time>2022-07-31T09:11:24.000Z</time>
      </trkpt>
      <trkpt lat="49.58029" lon="-1.26985">
        <ele>7.605749</ele>
        <time>2022-07-31T09:11:25.000Z</time>
      </trkpt>
      <trkpt lat="49.58027" lon="-1.26988">
        <ele>7.611432</ele>
        <time>2022-07-31T09:11:26.000Z</time>
      </trkpt>
      <trkpt lat="49.58024" lon="-1.2699">
        <ele>7.616409</ele>
        <time>2022-07-31T09:11:27.000Z</time>
      </trkpt>
      <trkpt lat="49.58022" lon="-1.26992">
        <ele>7.621338</ele>
        <time>2022-07-31T09:11:28.000Z</time>
      </trkpt>
      <trkpt lat="49.5802" lon="-1.26994">
        <ele>7.626945</ele>
        <time>2022-07-31T09:11:29.000Z</time>
      </trkpt>
      <trkpt lat="49.58017" lon="-1.26996">
        <ele>7.631873</ele>
        <time>2022-07-31T09:11:30.000Z</time>
      </trkpt>
      <trkpt lat="49.58015" lon="-1.26998">
        <ele>7.636969</ele>
        <time>2022-07-31T09:11:31.000Z</time>
      </trkpt>
      <trkpt lat="49.58013" lon="-1.26999">
        <ele>7.641775</ele>
        <time>2022-07-31T09:11:32.000Z</time>
      </trkpt>
      <trkpt lat="49.58011" lon="-1.27001">
        <ele>7.646523</ele>
        <time>2022-07-31T09:11:33.000Z</time>
      </trkpt>
      <trkpt lat="49.58009" lon="-1.27003">
        <ele>7.651123</ele>
        <time>2022-07-31T09:11:34.000Z</time>
      </trkpt>
      <trkpt lat="49.58006" lon="-1.27005">
        <ele>7.655929</ele>
        <time>2022-07-31T09:11:35.000Z</time>
      </trkpt>
      <trkpt lat="49.58004" lon="-1.27007">
        <ele>7.661379</ele>
        <time>2022-07-31T09:11:36.000Z</time>
      </trkpt>
      <trkpt lat="49.58002" lon="-1.27008">
        <ele>7.665129</ele>
        <time>2022-07-31T09:11:37.000Z</time>
      </trkpt>
      <trkpt lat="49.58" lon="-1.2701">
        <ele>7.670453</ele>
        <time>2022-07-31T09:11:38.000Z</time>
      </trkpt>
      <trkpt lat="49.57997" lon="-1.27012">
        <ele>7.675549</ele>
        <time>2022-07-31T09:11:39.000Z</time>
      </trkpt>
      <trkpt lat="49.57996" lon="-1.27014">
        <ele>7.679988</ele>
        <time>2022-07-31T09:11:40.000Z</time>
      </trkpt>
      <trkpt lat="49.57993" lon="-1.27016">
        <ele>7.684917</ele>
        <time>2022-07-31T09:11:41.000Z</time>
      </trkpt>
      <trkpt lat="49.57991" lon="-1.27018">
        <ele>7.690012</ele>
        <time>2022-07-31T09:11:42.000Z</time>
      </trkpt>
      <trkpt lat="49.57989" lon="-1.2702">
        <ele>7.69494</ele>
        <time>2022-07-31T09:11:43.000Z</time>
      </trkpt>
      <trkpt lat="49.57987" lon="-1.27022">
        <ele>7.699869</ele>
        <time>2022-07-31T09:11:44.000Z</time>
      </trkpt>
      <trkpt lat="49.57984" lon="-1.27024">
        <ele>7.705159</ele>
        <time>2022-07-31T09:11:45.000Z</time>
      </trkpt>
      <trkpt lat="49.57981" lon="-1.27027">
        <ele>7.711396</ele>
        <time>2022-07-31T09:11:46.000Z</time>
      </trkpt>
      <trkpt lat="49.57979" lon="-1.27029">
        <ele>7.716324</ele>
        <time>2022-07-31T09:11:47.000Z</time>
      </trkpt>
      <trkpt lat="49.57977" lon="-1.27031">
        <ele>7.721384</ele>
        <time>2022-07-31T09:11:48.000Z</time>
      </trkpt>
      <trkpt lat="49.57975" lon="-1.27033">
        <ele>7.726361</ele>
        <time>2022-07-31T09:11:49.000Z</time>
      </trkpt>
      <trkpt lat="49.57973" lon="-1.27035">
        <ele>7.730801</ele>
        <time>2022-07-31T09:11:50.000Z</time>
      </trkpt>
      <trkpt lat="49.57971" lon="-1.27037">
        <ele>7.734775</ele>
        <time>2022-07-31T09:11:51.000Z</time>
      </trkpt>
      <trkpt lat="49.57969" lon="-1.27038">
        <ele>7.738894</ele>
        <time>2022-07-31T09:11:52.000Z</time>
      </trkpt>
      <trkpt lat="49.57967" lon="-1.2704">
        <ele>7.743714</ele>
        <time>2022-07-31T09:11:53.000Z</time>
      </trkpt>
      <trkpt lat="49.57965" lon="-1.27041">
        <ele>7.747953</ele>
        <time>2022-07-31T09:11:54.000Z</time>
      </trkpt>
      <trkpt lat="49.57963" lon="-1.27043">
        <ele>7.752881</ele>
        <time>2022-07-31T09:11:55.000Z</time>
      </trkpt>
      <trkpt lat="49.57961" lon="-1.27045">
        <ele>7.75732</ele>
        <time>2022-07-31T09:11:56.000Z</time>
      </trkpt>
      <trkpt lat="49.57959" lon="-1.27047">
        <ele>7.762416</ele>
        <time>2022-07-31T09:11:57.000Z</time>
      </trkpt>
      <trkpt lat="49.57956" lon="-1.27049">
        <ele>7.76774</ele>
        <time>2022-07-31T09:11:58.000Z</time>
      </trkpt>
      <trkpt lat="49.57954" lon="-1.27051">
        <ele>7.773463</ele>
        <time>2022-07-31T09:11:59.000Z</time>
      </trkpt>
      <trkpt lat="49.57952" lon="-1.27054">
        <ele>7.778286</ele>
        <time>2022-07-31T09:12:00.000Z</time>
      </trkpt>
      <trkpt lat="49.57949" lon="-1.27056">
        <ele>7.788094</ele>
        <time>2022-07-31T09:12:01.000Z</time>
      </trkpt>
      <trkpt lat="49.57947" lon="-1.27058">
        <ele>7.797349</ele>
        <time>2022-07-31T09:12:02.000Z</time>
      </trkpt>
      <trkpt lat="49.57945" lon="-1.2706">
        <ele>7.806604</ele>
        <time>2022-07-31T09:12:03.000Z</time>
      </trkpt>
      <trkpt lat="49.57943" lon="-1.27062">
        <ele>7.814996</ele>
        <time>2022-07-31T09:12:04.000Z</time>
      </trkpt>
      <trkpt lat="49.57941" lon="-1.27064">
        <ele>7.824252</ele>
        <time>2022-07-31T09:12:05.000Z</time>
      </trkpt>
      <trkpt lat="49.57939" lon="-1.27066">
        <ele>7.832588</ele>
        <time>2022-07-31T09:12:06.000Z</time>
      </trkpt>
      <trkpt lat="49.57936" lon="-1.27068">
        <ele>7.843336</ele>
        <time>2022-07-31T09:12:07.000Z</time>
      </trkpt>
      <trkpt lat="49.57934" lon="-1.2707">
        <ele>7.852968</ele>
        <time>2022-07-31T09:12:08.000Z</time>
      </trkpt>
      <trkpt lat="49.57932" lon="-1.27072">
        <ele>7.861579</ele>
        <time>2022-07-31T09:12:09.000Z</time>
      </trkpt>
      <trkpt lat="49.5793" lon="-1.27075">
        <ele>7.871513</ele>
        <time>2022-07-31T09:12:10.000Z</time>
      </trkpt>
      <trkpt lat="49.57928" lon="-1.27077">
        <ele>7.881146</ele>
        <time>2022-07-31T09:12:11.000Z</time>
      </trkpt>
      <trkpt lat="49.57926" lon="-1.27079">
        <ele>7.889756</ele>
        <time>2022-07-31T09:12:12.000Z</time>
      </trkpt>
      <trkpt lat="49.57924" lon="-1.27081">
        <ele>7.899325</ele>
        <time>2022-07-31T09:12:13.000Z</time>
      </trkpt>
      <trkpt lat="49.57922" lon="-1.27083">
        <ele>7.907406</ele>
        <time>2022-07-31T09:12:14.000Z</time>
      </trkpt>
      <trkpt lat="49.5792" lon="-1.27085">
        <ele>7.915743</ele>
        <time>2022-07-31T09:12:15.000Z</time>
      </trkpt>
      <trkpt lat="49.57917" lon="-1.27087">
        <ele>7.925312</ele>
        <time>2022-07-31T09:12:16.000Z</time>
      </trkpt>
      <trkpt lat="49.57916" lon="-1.27089">
        <ele>7.934213</ele>
        <time>2022-07-31T09:12:17.000Z</time>
      </trkpt>
      <trkpt lat="49.57913" lon="-1.27092">
        <ele>7.944763</ele>
        <time>2022-07-31T09:12:18.000Z</time>
      </trkpt>
      <trkpt lat="49.57911" lon="-1.27094">
        <ele>7.953017</ele>
        <time>2022-07-31T09:12:19.000Z</time>
      </trkpt>
      <trkpt lat="49.5791" lon="-1.27097">
        <ele>7.961613</ele>
        <time>2022-07-31T09:12:20.000Z</time>
      </trkpt>
      <trkpt lat="49.57908" lon="-1.27099">
        <ele>7.969539</ele>
        <time>2022-07-31T09:12:21.000Z</time>
      </trkpt>
      <trkpt lat="49.57907" lon="-1.27101">
        <ele>7.976709</ele>
        <time>2022-07-31T09:12:22.000Z</time>
      </trkpt>
      <trkpt lat="49.57905" lon="-1.27104">
        <ele>7.984798</ele>
        <time>2022-07-31T09:12:23.000Z</time>
      </trkpt>
      <trkpt lat="49.57904" lon="-1.27108">
        <ele>7.996448</ele>
        <time>2022-07-31T09:12:25.000Z</time>
      </trkpt>
      <trkpt lat="49.57902" lon="-1.27111">
        <ele>8.005322</ele>
        <time>2022-07-31T09:12:27.000Z</time>
      </trkpt>
      <trkpt lat="49.57901" lon="-1.27113">
        <ele>8.013167</ele>
        <time>2022-07-31T09:12:30.000Z</time>
      </trkpt>
      <trkpt lat="49.57896" lon="-1.27118">
        <ele>8.033773</ele>
        <time>2022-07-31T09:13:29.000Z</time>
      </trkpt>
      <trkpt lat="49.57893" lon="-1.2712">
        <ele>8.043342</ele>
        <time>2022-07-31T09:13:30.000Z</time>
      </trkpt>
      <trkpt lat="49.57891" lon="-1.27122">
        <ele>8.052845</ele>
        <time>2022-07-31T09:13:31.000Z</time>
      </trkpt>
      <trkpt lat="49.57889" lon="-1.27124">
        <ele>8.063375</ele>
        <time>2022-07-31T09:13:32.000Z</time>
      </trkpt>
      <trkpt lat="49.57886" lon="-1.27126">
        <ele>8.073692</ele>
        <time>2022-07-31T09:13:33.000Z</time>
      </trkpt>
      <trkpt lat="49.57884" lon="-1.27128">
        <ele>8.084221</ele>
        <time>2022-07-31T09:13:34.000Z</time>
      </trkpt>
      <trkpt lat="49.57881" lon="-1.2713">
        <ele>8.095734</ele>
        <time>2022-07-31T09:13:35.000Z</time>
      </trkpt>
      <trkpt lat="49.57878" lon="-1.27132">
        <ele>8.104989</ele>
        <time>2022-07-31T09:13:36.000Z</time>
      </trkpt>
      <trkpt lat="49.57876" lon="-1.27134">
        <ele>8.114128</ele>
        <time>2022-07-31T09:13:37.000Z</time>
      </trkpt>
      <trkpt lat="49.57874" lon="-1.27136">
        <ele>8.122766</ele>
        <time>2022-07-31T09:13:38.000Z</time>
      </trkpt>
      <trkpt lat="49.57872" lon="-1.27138">
        <ele>8.131103</ele>
        <time>2022-07-31T09:13:39.000Z</time>
      </trkpt>
      <trkpt lat="49.5787" lon="-1.27139">
        <ele>8.139918</ele>
        <time>2022-07-31T09:13:40.000Z</time>
      </trkpt>
      <trkpt lat="49.57868" lon="-1.27141">
        <ele>8.149374</ele>
        <time>2022-07-31T09:13:41.000Z</time>
      </trkpt>
      <trkpt lat="49.57866" lon="-1.27143">
        <ele>8.15711</ele>
        <time>2022-07-31T09:13:42.000Z</time>
      </trkpt>
      <trkpt lat="49.57864" lon="-1.27144">
        <ele>8.165827</ele>
        <time>2022-07-31T09:13:43.000Z</time>
      </trkpt>
      <trkpt lat="49.57861" lon="-1.27146">
        <ele>8.174877</ele>
        <time>2022-07-31T09:13:44.000Z</time>
      </trkpt>
      <trkpt lat="49.5786" lon="-1.27147">
        <ele>8.182613</ele>
        <time>2022-07-31T09:13:45.000Z</time>
      </trkpt>
      <trkpt lat="49.57858" lon="-1.27149">
        <ele>8.190694</ele>
        <time>2022-07-31T09:13:46.000Z</time>
      </trkpt>
      <trkpt lat="49.57855" lon="-1.27151">
        <ele>8.199412</ele>
        <time>2022-07-31T09:13:47.000Z</time>
      </trkpt>
      <trkpt lat="49.57853" lon="-1.27152">
        <ele>8.207804</ele>
        <time>2022-07-31T09:13:48.000Z</time>
      </trkpt>
      <trkpt lat="49.57851" lon="-1.27154">
        <ele>8.217706</ele>
        <time>2022-07-31T09:13:49.000Z</time>
      </trkpt>
      <trkpt lat="49.57849" lon="-1.27156">
        <ele>8.226756</ele>
        <time>2022-07-31T09:13:50.000Z</time>
      </trkpt>
      <trkpt lat="49.57846" lon="-1.27157">
        <ele>8.235674</ele>
        <time>2022-07-31T09:13:51.000Z</time>
      </trkpt>
      <trkpt lat="49.57844" lon="-1.27159">
        <ele>8.244489</ele>
        <time>2022-07-31T09:13:52.000Z</time>
      </trkpt>
      <trkpt lat="49.57842" lon="-1.27161">
        <ele>8.253128</ele>
        <time>2022-07-31T09:13:53.000Z</time>
      </trkpt>
      <trkpt lat="49.5784" lon="-1.27163">
        <ele>8.262028</ele>
        <time>2022-07-31T09:13:54.000Z</time>
      </trkpt>
      <trkpt lat="49.57838" lon="-1.27165">
        <ele>8.270365</ele>
        <time>2022-07-31T09:13:55.000Z</time>
      </trkpt>
      <trkpt lat="49.57837" lon="-1.27167">
        <ele>8.278702</ele>
        <time>2022-07-31T09:13:56.000Z</time>
      </trkpt>
      <trkpt lat="49.57835" lon="-1.27169">
        <ele>8.285613</ele>
        <time>2022-07-31T09:13:57.000Z</time>
      </trkpt>
      <trkpt lat="49.57832" lon="-1.27172">
        <ele>8.297889</ele>
        <time>2022-07-31T09:13:59.000Z</time>
      </trkpt>
      <trkpt lat="49.5783" lon="-1.27173">
        <ele>8.306607</ele>
        <time>2022-07-31T09:14:01.000Z</time>
      </trkpt>
      <trkpt lat="49.57828" lon="-1.27175">
        <ele>8.314667</ele>
        <time>2022-07-31T09:14:03.000Z</time>
      </trkpt>
      <trkpt lat="49.57822" lon="-1.27179">
        <ele>8.337255</ele>
        <time>2022-07-31T09:14:56.000Z</time>
      </trkpt>
      <trkpt lat="49.5782" lon="-1.27182">
        <ele>8.348003</ele>
        <time>2022-07-31T09:14:57.000Z</time>
      </trkpt>
      <trkpt lat="49.57817" lon="-1.27184">
        <ele>8.361222</ele>
        <time>2022-07-31T09:14:58.000Z</time>
      </trkpt>
      <trkpt lat="49.57814" lon="-1.27187">
        <ele>8.372021</ele>
        <time>2022-07-31T09:14:59.000Z</time>
      </trkpt>
      <trkpt lat="49.57811" lon="-1.27189">
        <ele>8.385129</ele>
        <time>2022-07-31T09:15:00.000Z</time>
      </trkpt>
      <trkpt lat="49.57808" lon="-1.27192">
        <ele>8.39858</ele>
        <time>2022-07-31T09:15:01.000Z</time>
      </trkpt>
      <trkpt lat="49.57805" lon="-1.27196">
        <ele>8.412531</ele>
        <time>2022-07-31T09:15:02.000Z</time>
      </trkpt>
      <trkpt lat="49.57801" lon="-1.27199">
        <ele>8.427398</ele>
        <time>2022-07-31T09:15:03.000Z</time>
      </trkpt>
      <trkpt lat="49.57798" lon="-1.27202">
        <ele>8.412605</ele>
        <time>2022-07-31T09:15:04.000Z</time>
      </trkpt>
      <trkpt lat="49.57795" lon="-1.27205">
        <ele>8.390591</ele>
        <time>2022-07-31T09:15:05.000Z</time>
      </trkpt>
      <trkpt lat="49.57793" lon="-1.27207">
        <ele>8.370599</ele>
        <time>2022-07-31T09:15:06.000Z</time>
      </trkpt>
      <trkpt lat="49.5779" lon="-1.2721">
        <ele>8.350878</ele>
        <time>2022-07-31T09:15:07.000Z</time>
      </trkpt>
      <trkpt lat="49.57787" lon="-1.27213">
        <ele>8.328076</ele>
        <time>2022-07-31T09:15:08.000Z</time>
      </trkpt>
      <trkpt lat="49.57784" lon="-1.27215">
        <ele>8.30876</ele>
        <time>2022-07-31T09:15:09.000Z</time>
      </trkpt>
      <trkpt lat="49.57781" lon="-1.27218">
        <ele>8.286146</ele>
        <time>2022-07-31T09:15:10.000Z</time>
      </trkpt>
      <trkpt lat="49.57779" lon="-1.2722">
        <ele>8.267582</ele>
        <time>2022-07-31T09:15:11.000Z</time>
      </trkpt>
      <trkpt lat="49.57776" lon="-1.27222">
        <ele>8.249079</ele>
        <time>2022-07-31T09:15:12.000Z</time>
      </trkpt>
      <trkpt lat="49.57773" lon="-1.27225">
        <ele>8.229763</ele>
        <time>2022-07-31T09:15:13.000Z</time>
      </trkpt>
      <trkpt lat="49.57772" lon="-1.27227">
        <ele>8.215692</ele>
        <time>2022-07-31T09:15:14.000Z</time>
      </trkpt>
      <trkpt lat="49.5777" lon="-1.27229">
        <ele>8.20119</ele>
        <time>2022-07-31T09:15:15.000Z</time>
      </trkpt>
      <trkpt lat="49.57768" lon="-1.27231">
        <ele>8.187133</ele>
        <time>2022-07-31T09:15:16.000Z</time>
      </trkpt>
      <trkpt lat="49.57766" lon="-1.27233">
        <ele>8.175328</ele>
        <time>2022-07-31T09:15:17.000Z</time>
      </trkpt>
      <trkpt lat="49.57765" lon="-1.27234">
        <ele>8.163524</ele>
        <time>2022-07-31T09:15:18.000Z</time>
      </trkpt>
      <trkpt lat="49.57763" lon="-1.27235">
        <ele>8.152123</ele>
        <time>2022-07-31T09:15:19.000Z</time>
      </trkpt>
      <trkpt lat="49.57761" lon="-1.27236">
        <ele>8.139467</ele>
        <time>2022-07-31T09:15:20.000Z</time>
      </trkpt>
      <trkpt lat="49.57759" lon="-1.27237">
        <ele>8.126937</ele>
        <time>2022-07-31T09:15:21.000Z</time>
      </trkpt>
      <trkpt lat="49.57757" lon="-1.27239">
        <ele>8.111494</ele>
        <time>2022-07-31T09:15:22.000Z</time>
      </trkpt>
      <trkpt lat="49.57755" lon="-1.2724">
        <ele>8.098838</ele>
        <time>2022-07-31T09:15:23.000Z</time>
      </trkpt>
      <trkpt lat="49.57753" lon="-1.27241">
        <ele>8.084127</ele>
        <time>2022-07-31T09:15:24.000Z</time>
      </trkpt>
      <trkpt lat="49.57751" lon="-1.27242">
        <ele>8.070106</ele>
        <time>2022-07-31T09:15:25.000Z</time>
      </trkpt>
      <trkpt lat="49.57749" lon="-1.27244">
        <ele>8.058302</ele>
        <time>2022-07-31T09:15:26.000Z</time>
      </trkpt>
      <trkpt lat="49.57748" lon="-1.27246">
        <ele>8.044245</ele>
        <time>2022-07-31T09:15:27.000Z</time>
      </trkpt>
      <trkpt lat="49.57744" lon="-1.27247">
        <ele>8.022771</ele>
        <time>2022-07-31T09:15:29.000Z</time>
      </trkpt>
      <trkpt lat="49.57742" lon="-1.27248">
        <ele>8.010115</ele>
        <time>2022-07-31T09:15:30.000Z</time>
      </trkpt>
      <trkpt lat="49.5774" lon="-1.27252">
        <ele>7.99105</ele>
        <time>2022-07-31T09:15:32.000Z</time>
      </trkpt>
      <trkpt lat="49.57738" lon="-1.27255">
        <ele>7.973461</ele>
        <time>2022-07-31T09:15:34.000Z</time>
      </trkpt>
      <trkpt lat="49.57736" lon="-1.27255">
        <ele>7.95768</ele>
        <time>2022-07-31T09:15:36.000Z</time>
      </trkpt>
      <trkpt lat="49.57733" lon="-1.27253">
        <ele>7.939542</ele>
        <time>2022-07-31T09:15:38.000Z</time>
      </trkpt>
      <trkpt lat="49.57739" lon="-1.27249">
        <ele>7.898367</ele>
        <time>2022-07-31T09:20:12.000Z</time>
      </trkpt>
      <trkpt lat="49.57739" lon="-1.27253">
        <ele>7.881584</ele>
        <time>2022-07-31T09:20:13.000Z</time>
      </trkpt>
      <trkpt lat="49.57737" lon="-1.27258">
        <ele>7.86219</ele>
        <time>2022-07-31T09:20:14.000Z</time>
      </trkpt>
      <trkpt lat="49.57736" lon="-1.27263">
        <ele>7.840801</ele>
        <time>2022-07-31T09:20:15.000Z</time>
      </trkpt>
      <trkpt lat="49.57736" lon="-1.27268">
        <ele>7.818002</ele>
        <time>2022-07-31T09:20:16.000Z</time>
      </trkpt>
      <trkpt lat="49.57736" lon="-1.27274">
        <ele>7.794293</ele>
        <time>2022-07-31T09:20:17.000Z</time>
      </trkpt>
      <trkpt lat="49.57736" lon="-1.2728">
        <ele>7.769766</ele>
        <time>2022-07-31T09:20:18.000Z</time>
      </trkpt>
      <trkpt lat="49.57736" lon="-1.27286">
        <ele>7.745239</ele>
        <time>2022-07-31T09:20:19.000Z</time>
      </trkpt>
      <trkpt lat="49.57736" lon="-1.27291">
        <ele>7.722757</ele>
        <time>2022-07-31T09:20:20.000Z</time>
      </trkpt>
      <trkpt lat="49.57736" lon="-1.27296">
        <ele>7.702318</ele>
        <time>2022-07-31T09:20:21.000Z</time>
      </trkpt>
      <trkpt lat="49.57736" lon="-1.27301">
        <ele>7.685149</ele>
        <time>2022-07-31T09:20:22.000Z</time>
      </trkpt>
      <trkpt lat="49.57736" lon="-1.27304">
        <ele>7.672068</ele>
        <time>2022-07-31T09:20:23.000Z</time>
      </trkpt>
      <trkpt lat="49.57736" lon="-1.27308">
        <ele>7.653264</ele>
        <time>2022-07-31T09:20:25.000Z</time>
      </trkpt>
      <trkpt lat="49.57735" lon="-1.27312">
        <ele>7.638744</ele>
        <time>2022-07-31T09:20:27.000Z</time>
      </trkpt>
      <trkpt lat="49.57733" lon="-1.27315">
        <ele>7.621601</ele>
        <time>2022-07-31T09:20:29.000Z</time>
      </trkpt>
      <trkpt lat="49.57732" lon="-1.27319">
        <ele>7.60202</ele>
        <time>2022-07-31T09:20:31.000Z</time>
      </trkpt>
      <trkpt lat="49.57732" lon="-1.27323">
        <ele>7.58853</ele>
        <time>2022-07-31T09:20:32.000Z</time>
      </trkpt>
      <trkpt lat="49.57733" lon="-1.27326">
        <ele>7.572882</ele>
        <time>2022-07-31T09:20:33.000Z</time>
      </trkpt>
      <trkpt lat="49.57733" lon="-1.27331">
        <ele>7.555301</ele>
        <time>2022-07-31T09:20:34.000Z</time>
      </trkpt>
      <trkpt lat="49.57733" lon="-1.27335">
        <ele>7.537623</ele>
        <time>2022-07-31T09:20:35.000Z</time>
      </trkpt>
      <trkpt lat="49.57734" lon="-1.2734">
        <ele>7.516234</ele>
        <time>2022-07-31T09:20:36.000Z</time>
      </trkpt>
      <trkpt lat="49.57734" lon="-1.27345">
        <ele>7.494977</ele>
        <time>2022-07-31T09:20:37.000Z</time>
      </trkpt>
      <trkpt lat="49.57734" lon="-1.2735">
        <ele>7.473312</ele>
        <time>2022-07-31T09:20:38.000Z</time>
      </trkpt>
      <trkpt lat="49.57734" lon="-1.27356">
        <ele>7.450829</ele>
        <time>2022-07-31T09:20:39.000Z</time>
      </trkpt>
      <trkpt lat="49.57734" lon="-1.27361">
        <ele>7.428346</ele>
        <time>2022-07-31T09:20:40.000Z</time>
      </trkpt>
      <trkpt lat="49.57735" lon="-1.27367">
        <ele>7.406191</ele>
        <time>2022-07-31T09:20:41.000Z</time>
      </trkpt>
      <trkpt lat="49.57735" lon="-1.27372">
        <ele>7.38657</ele>
        <time>2022-07-31T09:20:42.000Z</time>
      </trkpt>
      <trkpt lat="49.57735" lon="-1.27376">
        <ele>7.368891</ele>
        <time>2022-07-31T09:20:43.000Z</time>
      </trkpt>
      <trkpt lat="49.57735" lon="-1.2738">
        <ele>7.351538</ele>
        <time>2022-07-31T09:20:44.000Z</time>
      </trkpt>
      <trkpt lat="49.57736" lon="-1.27384">
        <ele>7.33589</ele>
        <time>2022-07-31T09:20:45.000Z</time>
      </trkpt>
      <trkpt lat="49.57736" lon="-1.27388">
        <ele>7.320299</ele>
        <time>2022-07-31T09:20:46.000Z</time>
      </trkpt>
      <trkpt lat="49.57737" lon="-1.27391">
        <ele>7.306678</ele>
        <time>2022-07-31T09:20:47.000Z</time>
      </trkpt>
      <trkpt lat="49.57736" lon="-1.27394">
        <ele>7.296185</ele>
        <time>2022-07-31T09:20:48.000Z</time>
      </trkpt>
      <trkpt lat="49.57735" lon="-1.27396">
        <ele>7.298492</ele>
        <time>2022-07-31T09:20:49.000Z</time>
      </trkpt>
      <trkpt lat="49.57732" lon="-1.27397">
        <ele>7.301707</ele>
        <time>2022-07-31T09:20:51.000Z</time>
      </trkpt>
      <trkpt lat="49.5773" lon="-1.27396">
        <ele>7.304025</ele>
        <time>2022-07-31T09:20:52.000Z</time>
      </trkpt>
      <trkpt lat="49.57728" lon="-1.27396">
        <ele>7.306916</ele>
        <time>2022-07-31T09:20:53.000Z</time>
      </trkpt>
      <trkpt lat="49.57725" lon="-1.27395">
        <ele>7.309541</ele>
        <time>2022-07-31T09:20:54.000Z</time>
      </trkpt>
      <trkpt lat="49.57723" lon="-1.27395">
        <ele>7.312727</ele>
        <time>2022-07-31T09:20:55.000Z</time>
      </trkpt>
      <trkpt lat="49.57719" lon="-1.27396">
        <ele>7.316386</ele>
        <time>2022-07-31T09:20:56.000Z</time>
      </trkpt>
      <trkpt lat="49.57717" lon="-1.27396">
        <ele>7.319347</ele>
        <time>2022-07-31T09:20:57.000Z</time>
      </trkpt>
      <trkpt lat="49.57714" lon="-1.27396">
        <ele>7.323006</ele>
        <time>2022-07-31T09:20:58.000Z</time>
      </trkpt>
      <trkpt lat="49.57711" lon="-1.27395">
        <ele>7.326022</ele>
        <time>2022-07-31T09:20:59.000Z</time>
      </trkpt>
      <trkpt lat="49.57709" lon="-1.27393">
        <ele>7.329048</ele>
        <time>2022-07-31T09:21:00.000Z</time>
      </trkpt>
      <trkpt lat="49.57706" lon="-1.27392">
        <ele>7.332096</ele>
        <time>2022-07-31T09:21:01.000Z</time>
      </trkpt>
      <trkpt lat="49.57702" lon="-1.27392">
        <ele>7.336797</ele>
        <time>2022-07-31T09:21:03.000Z</time>
      </trkpt>
      <trkpt lat="49.57699" lon="-1.27394">
        <ele>7.340474</ele>
        <time>2022-07-31T09:21:05.000Z</time>
      </trkpt>
      <trkpt lat="49.57696" lon="-1.27395">
        <ele>7.344278</ele>
        <time>2022-07-31T09:21:07.000Z</time>
      </trkpt>
      <trkpt lat="49.57694" lon="-1.27396">
        <ele>7.346471</ele>
        <time>2022-07-31T09:21:08.000Z</time>
      </trkpt>
      <trkpt lat="49.57692" lon="-1.27396">
        <ele>7.348747</ele>
        <time>2022-07-31T09:21:09.000Z</time>
      </trkpt>
      <trkpt lat="49.5769" lon="-1.27396">
        <ele>7.351254</ele>
        <time>2022-07-31T09:21:10.000Z</time>
      </trkpt>
      <trkpt lat="49.57687" lon="-1.27397">
        <ele>7.354256</ele>
        <time>2022-07-31T09:21:11.000Z</time>
      </trkpt>
      <trkpt lat="49.57684" lon="-1.27398">
        <ele>7.358021</ele>
        <time>2022-07-31T09:21:12.000Z</time>
      </trkpt>
      <trkpt lat="49.57682" lon="-1.274">
        <ele>7.36082</ele>
        <time>2022-07-31T09:21:13.000Z</time>
      </trkpt>
      <trkpt lat="49.57679" lon="-1.27402">
        <ele>7.364062</ele>
        <time>2022-07-31T09:21:14.000Z</time>
      </trkpt>
      <trkpt lat="49.57676" lon="-1.27404">
        <ele>7.367637</ele>
        <time>2022-07-31T09:21:15.000Z</time>
      </trkpt>
      <trkpt lat="49.57674" lon="-1.27406">
        <ele>7.370571</ele>
        <time>2022-07-31T09:21:16.000Z</time>
      </trkpt>
      <trkpt lat="49.57672" lon="-1.27407">
        <ele>7.37337</ele>
        <time>2022-07-31T09:21:17.000Z</time>
      </trkpt>
      <trkpt lat="49.57669" lon="-1.27409">
        <ele>7.376156</ele>
        <time>2022-07-31T09:21:18.000Z</time>
      </trkpt>
      <trkpt lat="49.57667" lon="-1.2741">
        <ele>7.378836</ele>
        <time>2022-07-31T09:21:19.000Z</time>
      </trkpt>
      <trkpt lat="49.57665" lon="-1.27412">
        <ele>7.381335</ele>
        <time>2022-07-31T09:21:20.000Z</time>
      </trkpt>
      <trkpt lat="49.57663" lon="-1.27413">
        <ele>7.3837</ele>
        <time>2022-07-31T09:21:21.000Z</time>
      </trkpt>
      <trkpt lat="49.57661" lon="-1.27414">
        <ele>7.386091</ele>
        <time>2022-07-31T09:21:22.000Z</time>
      </trkpt>
      <trkpt lat="49.57659" lon="-1.27416">
        <ele>7.389295</ele>
        <time>2022-07-31T09:21:24.000Z</time>
      </trkpt>
      <trkpt lat="49.57657" lon="-1.27416">
        <ele>7.391457</ele>
        <time>2022-07-31T09:21:26.000Z</time>
      </trkpt>
      <trkpt lat="49.57666" lon="-1.2741">
        <ele>7.402763</ele>
        <time>2022-07-31T09:21:45.000Z</time>
      </trkpt>
      <trkpt lat="49.5767" lon="-1.27408">
        <ele>7.407254</ele>
        <time>2022-07-31T09:21:47.000Z</time>
      </trkpt>
      <trkpt lat="49.57672" lon="-1.27407">
        <ele>7.409809</ele>
        <time>2022-07-31T09:21:48.000Z</time>
      </trkpt>
      <trkpt lat="49.57675" lon="-1.27406">
        <ele>7.413574</ele>
        <time>2022-07-31T09:21:50.000Z</time>
      </trkpt>
      <trkpt lat="49.57677" lon="-1.27405">
        <ele>7.415814</ele>
        <time>2022-07-31T09:21:51.000Z</time>
      </trkpt>
      <trkpt lat="49.5768" lon="-1.27402">
        <ele>7.419558</ele>
        <time>2022-07-31T09:21:53.000Z</time>
      </trkpt>
      <trkpt lat="49.57682" lon="-1.27401">
        <ele>7.421727</ele>
        <time>2022-07-31T09:21:54.000Z</time>
      </trkpt>
      <trkpt lat="49.57684" lon="-1.27399">
        <ele>7.424123</ele>
        <time>2022-07-31T09:21:55.000Z</time>
      </trkpt>
      <trkpt lat="49.57686" lon="-1.27398">
        <ele>7.426909</ele>
        <time>2022-07-31T09:21:56.000Z</time>
      </trkpt>
      <trkpt lat="49.57688" lon="-1.27397">
        <ele>7.429245</ele>
        <time>2022-07-31T09:21:57.000Z</time>
      </trkpt>
      <trkpt lat="49.5769" lon="-1.27395">
        <ele>7.431707</ele>
        <time>2022-07-31T09:21:58.000Z</time>
      </trkpt>
      <trkpt lat="49.57691" lon="-1.27393">
        <ele>7.433796</ele>
        <time>2022-07-31T09:21:59.000Z</time>
      </trkpt>
      <trkpt lat="49.57693" lon="-1.2739">
        <ele>7.437278</ele>
        <time>2022-07-31T09:22:01.000Z</time>
      </trkpt>
      <trkpt lat="49.57695" lon="-1.27387">
        <ele>7.440386</ele>
        <time>2022-07-31T09:22:03.000Z</time>
      </trkpt>
      <trkpt lat="49.57698" lon="-1.27387">
        <ele>7.443344</ele>
        <time>2022-07-31T09:22:06.000Z</time>
      </trkpt>
      <trkpt lat="49.577" lon="-1.27388">
        <ele>7.445953</ele>
        <time>2022-07-31T09:22:08.000Z</time>
      </trkpt>
      <trkpt lat="49.57703" lon="-1.27389">
        <ele>7.449667</ele>
        <time>2022-07-31T09:22:10.000Z</time>
      </trkpt>
      <trkpt lat="49.57706" lon="-1.2739">
        <ele>7.452715</ele>
        <time>2022-07-31T09:22:12.000Z</time>
      </trkpt>
      <trkpt lat="49.57709" lon="-1.27392">
        <ele>7.457043</ele>
        <time>2022-07-31T09:22:14.000Z</time>
      </trkpt>
      <trkpt lat="49.57712" lon="-1.27394">
        <ele>7.460848</ele>
        <time>2022-07-31T09:22:16.000Z</time>
      </trkpt>
      <trkpt lat="49.57716" lon="-1.27394">
        <ele>7.464829</ele>
        <time>2022-07-31T09:22:18.000Z</time>
      </trkpt>
      <trkpt lat="49.57719" lon="-1.27394">
        <ele>7.468128</ele>
        <time>2022-07-31T09:22:19.000Z</time>
      </trkpt>
      <trkpt lat="49.57721" lon="-1.27394">
        <ele>7.471086</ele>
        <time>2022-07-31T09:22:20.000Z</time>
      </trkpt>
      <trkpt lat="49.57724" lon="-1.27393">
        <ele>7.473964</ele>
        <time>2022-07-31T09:22:21.000Z</time>
      </trkpt>
      <trkpt lat="49.57726" lon="-1.27391">
        <ele>7.477237</ele>
        <time>2022-07-31T09:22:22.000Z</time>
      </trkpt>
      <trkpt lat="49.57728" lon="-1.27389">
        <ele>7.480126</ele>
        <time>2022-07-31T09:22:23.000Z</time>
      </trkpt>
      <trkpt lat="49.57731" lon="-1.27386">
        <ele>7.483414</ele>
        <time>2022-07-31T09:22:24.000Z</time>
      </trkpt>
      <trkpt lat="49.57733" lon="-1.27384">
        <ele>7.486031</ele>
        <time>2022-07-31T09:22:25.000Z</time>
      </trkpt>
      <trkpt lat="49.57735" lon="-1.27384">
        <ele>7.488538</ele>
        <time>2022-07-31T09:22:26.000Z</time>
      </trkpt>
      <trkpt lat="49.57736" lon="-1.27385">
        <ele>7.490668</ele>
        <time>2022-07-31T09:22:27.000Z</time>
      </trkpt>
      <trkpt lat="49.57737" lon="-1.2739">
        <ele>7.494372</ele>
        <time>2022-07-31T09:22:29.000Z</time>
      </trkpt>
      <trkpt lat="49.57735" lon="-1.27392">
        <ele>7.496948</ele>
        <time>2022-07-31T09:22:30.000Z</time>
      </trkpt>
      <trkpt lat="49.57732" lon="-1.27393">
        <ele>7.499852</ele>
        <time>2022-07-31T09:22:31.000Z</time>
      </trkpt>
      <trkpt lat="49.57729" lon="-1.27393">
        <ele>7.497244</ele>
        <time>2022-07-31T09:22:32.000Z</time>
      </trkpt>
      <trkpt lat="49.57727" lon="-1.27393">
        <ele>7.493617</ele>
        <time>2022-07-31T09:22:33.000Z</time>
      </trkpt>
      <trkpt lat="49.57724" lon="-1.27393">
        <ele>7.48915</ele>
        <time>2022-07-31T09:22:34.000Z</time>
      </trkpt>
      <trkpt lat="49.5772" lon="-1.27393">
        <ele>7.484686</ele>
        <time>2022-07-31T09:22:35.000Z</time>
      </trkpt>
      <trkpt lat="49.57717" lon="-1.27393">
        <ele>7.4802</ele>
        <time>2022-07-31T09:22:36.000Z</time>
      </trkpt>
      <trkpt lat="49.57714" lon="-1.27392">
        <ele>7.475277</ele>
        <time>2022-07-31T09:22:37.000Z</time>
      </trkpt>
      <trkpt lat="49.57711" lon="-1.27392">
        <ele>7.471223</ele>
        <time>2022-07-31T09:22:38.000Z</time>
      </trkpt>
      <trkpt lat="49.57708" lon="-1.27391">
        <ele>7.467078</ele>
        <time>2022-07-31T09:22:39.000Z</time>
      </trkpt>
      <trkpt lat="49.57705" lon="-1.2739">
        <ele>7.463561</ele>
        <time>2022-07-31T09:22:40.000Z</time>
      </trkpt>
      <trkpt lat="49.57702" lon="-1.2739">
        <ele>7.459491</ele>
        <time>2022-07-31T09:22:41.000Z</time>
      </trkpt>
      <trkpt lat="49.57699" lon="-1.27389">
        <ele>7.455004</ele>
        <time>2022-07-31T09:22:42.000Z</time>
      </trkpt>
      <trkpt lat="49.57696" lon="-1.2739">
        <ele>7.450508</ele>
        <time>2022-07-31T09:22:43.000Z</time>
      </trkpt>
      <trkpt lat="49.57693" lon="-1.27391">
        <ele>7.445843</ele>
        <time>2022-07-31T09:22:44.000Z</time>
      </trkpt>
      <trkpt lat="49.5769" lon="-1.27393">
        <ele>7.441026</ele>
        <time>2022-07-31T09:22:45.000Z</time>
      </trkpt>
      <trkpt lat="49.57687" lon="-1.27396">
        <ele>7.43689</ele>
        <time>2022-07-31T09:22:46.000Z</time>
      </trkpt>
      <trkpt lat="49.57684" lon="-1.27398">
        <ele>7.432073</ele>
        <time>2022-07-31T09:22:47.000Z</time>
      </trkpt>
      <trkpt lat="49.57681" lon="-1.274">
        <ele>7.427186</ele>
        <time>2022-07-31T09:22:48.000Z</time>
      </trkpt>
      <trkpt lat="49.57677" lon="-1.27402">
        <ele>7.42237</ele>
        <time>2022-07-31T09:22:49.000Z</time>
      </trkpt>
      <trkpt lat="49.57674" lon="-1.27404">
        <ele>7.417224</ele>
        <time>2022-07-31T09:22:50.000Z</time>
      </trkpt>
      <trkpt lat="49.57671" lon="-1.27406">
        <ele>7.413295</ele>
        <time>2022-07-31T09:22:51.000Z</time>
      </trkpt>
      <trkpt lat="49.57668" lon="-1.27408">
        <ele>7.408371</ele>
        <time>2022-07-31T09:22:52.000Z</time>
      </trkpt>
      <trkpt lat="49.57666" lon="-1.2741">
        <ele>7.404234</ele>
        <time>2022-07-31T09:22:53.000Z</time>
      </trkpt>
      <trkpt lat="49.57663" lon="-1.27412">
        <ele>7.40076</ele>
        <time>2022-07-31T09:22:54.000Z</time>
      </trkpt>
      <trkpt lat="49.57661" lon="-1.27412">
        <ele>7.397552</ele>
        <time>2022-07-31T09:22:56.000Z</time>
      </trkpt>
      <trkpt lat="49.57664" lon="-1.27411">
        <ele>7.393739</ele>
        <time>2022-07-31T09:23:00.000Z</time>
      </trkpt>
      <trkpt lat="49.57667" lon="-1.27409">
        <ele>7.388738</ele>
        <time>2022-07-31T09:23:02.000Z</time>
      </trkpt>
      <trkpt lat="49.57669" lon="-1.27409">
        <ele>7.385991</ele>
        <time>2022-07-31T09:23:03.000Z</time>
      </trkpt>
      <trkpt lat="49.57671" lon="-1.27407">
        <ele>7.382508</ele>
        <time>2022-07-31T09:23:04.000Z</time>
      </trkpt>
      <trkpt lat="49.57673" lon="-1.27405">
        <ele>7.379444</ele>
        <time>2022-07-31T09:23:05.000Z</time>
      </trkpt>
      <trkpt lat="49.57675" lon="-1.27404">
        <ele>7.376333</ele>
        <time>2022-07-31T09:23:06.000Z</time>
      </trkpt>
      <trkpt lat="49.57677" lon="-1.27402">
        <ele>7.372978</ele>
        <time>2022-07-31T09:23:07.000Z</time>
      </trkpt>
      <trkpt lat="49.5768" lon="-1.27401">
        <ele>7.369165</ele>
        <time>2022-07-31T09:23:08.000Z</time>
      </trkpt>
      <trkpt lat="49.57683" lon="-1.27399">
        <ele>7.365152</ele>
        <time>2022-07-31T09:23:09.000Z</time>
      </trkpt>
      <trkpt lat="49.57685" lon="-1.27397">
        <ele>7.361224</ele>
        <time>2022-07-31T09:23:10.000Z</time>
      </trkpt>
      <trkpt lat="49.57688" lon="-1.27394">
        <ele>7.3568</ele>
        <time>2022-07-31T09:23:11.000Z</time>
      </trkpt>
      <trkpt lat="49.5769" lon="-1.2739">
        <ele>7.352531</ele>
        <time>2022-07-31T09:23:12.000Z</time>
      </trkpt>
      <trkpt lat="49.57691" lon="-1.27386">
        <ele>7.34824</ele>
        <time>2022-07-31T09:23:13.000Z</time>
      </trkpt>
      <trkpt lat="49.57691" lon="-1.27381">
        <ele>7.343878</ele>
        <time>2022-07-31T09:23:14.000Z</time>
      </trkpt>
      <trkpt lat="49.57691" lon="-1.27377">
        <ele>7.339627</ele>
        <time>2022-07-31T09:23:15.000Z</time>
      </trkpt>
      <trkpt lat="49.57691" lon="-1.27372">
        <ele>7.335086</ele>
        <time>2022-07-31T09:23:16.000Z</time>
      </trkpt>
      <trkpt lat="49.57691" lon="-1.27367">
        <ele>7.330724</ele>
        <time>2022-07-31T09:23:17.000Z</time>
      </trkpt>
      <trkpt lat="49.57689" lon="-1.27363">
        <ele>7.326918</ele>
        <time>2022-07-31T09:23:18.000Z</time>
      </trkpt>
      <trkpt lat="49.57687" lon="-1.2736">
        <ele>7.322886</ele>
        <time>2022-07-31T09:23:19.000Z</time>
      </trkpt>
      <trkpt lat="49.57685" lon="-1.27358">
        <ele>7.319625</ele>
        <time>2022-07-31T09:23:20.000Z</time>
      </trkpt>
      <trkpt lat="49.57685" lon="-1.27355">
        <ele>7.316176</ele>
        <time>2022-07-31T09:23:21.000Z</time>
      </trkpt>
      <trkpt lat="49.57684" lon="-1.27351">
        <ele>7.312298</ele>
        <time>2022-07-31T09:23:22.000Z</time>
      </trkpt>
      <trkpt lat="49.57683" lon="-1.27347">
        <ele>7.308761</ele>
        <time>2022-07-31T09:23:23.000Z</time>
      </trkpt>
      <trkpt lat="49.57683" lon="-1.27343">
        <ele>7.305209</ele>
        <time>2022-07-31T09:23:24.000Z</time>
      </trkpt>
      <trkpt lat="49.57682" lon="-1.27338">
        <ele>7.300906</ele>
        <time>2022-07-31T09:23:25.000Z</time>
      </trkpt>
      <trkpt lat="49.57681" lon="-1.27334">
        <ele>7.296814</ele>
        <time>2022-07-31T09:23:26.000Z</time>
      </trkpt>
      <trkpt lat="49.57681" lon="-1.27329">
        <ele>7.292364</ele>
        <time>2022-07-31T09:23:27.000Z</time>
      </trkpt>
      <trkpt lat="49.5768" lon="-1.27324">
        <ele>7.287409</ele>
        <time>2022-07-31T09:23:28.000Z</time>
      </trkpt>
      <trkpt lat="49.57679" lon="-1.27318">
        <ele>7.282428</ele>
        <time>2022-07-31T09:23:29.000Z</time>
      </trkpt>
      <trkpt lat="49.57678" lon="-1.27313">
        <ele>7.27718</ele>
        <time>2022-07-31T09:23:30.000Z</time>
      </trkpt>
      <trkpt lat="49.57677" lon="-1.27308">
        <ele>7.272464</ele>
        <time>2022-07-31T09:23:31.000Z</time>
      </trkpt>
      <trkpt lat="49.57676" lon="-1.27302">
        <ele>7.267422</ele>
        <time>2022-07-31T09:23:32.000Z</time>
      </trkpt>
      <trkpt lat="49.57676" lon="-1.27297">
        <ele>7.262263</ele>
        <time>2022-07-31T09:23:33.000Z</time>
      </trkpt>
      <trkpt lat="49.57675" lon="-1.27291">
        <ele>7.257219</ele>
        <time>2022-07-31T09:23:34.000Z</time>
      </trkpt>
      <trkpt lat="49.57674" lon="-1.27286">
        <ele>7.251924</ele>
        <time>2022-07-31T09:23:35.000Z</time>
      </trkpt>
      <trkpt lat="49.57673" lon="-1.2728">
        <ele>7.248066</ele>
        <time>2022-07-31T09:23:36.000Z</time>
      </trkpt>
      <trkpt lat="49.57673" lon="-1.27275">
        <ele>7.24539</ele>
        <time>2022-07-31T09:23:37.000Z</time>
      </trkpt>
      <trkpt lat="49.57671" lon="-1.2727">
        <ele>7.24252</ele>
        <time>2022-07-31T09:23:38.000Z</time>
      </trkpt>
      <trkpt lat="49.57671" lon="-1.27265">
        <ele>7.239844</ele>
        <time>2022-07-31T09:23:39.000Z</time>
      </trkpt>
      <trkpt lat="49.57671" lon="-1.2726">
        <ele>7.23743</ele>
        <time>2022-07-31T09:23:40.000Z</time>
      </trkpt>
      <trkpt lat="49.57671" lon="-1.27256">
        <ele>7.23559</ele>
        <time>2022-07-31T09:23:41.000Z</time>
      </trkpt>
      <trkpt lat="49.57672" lon="-1.27252">
        <ele>7.233118</ele>
        <time>2022-07-31T09:23:43.000Z</time>
      </trkpt>
      <trkpt lat="49.57674" lon="-1.27249">
        <ele>7.231133</ele>
        <time>2022-07-31T09:23:45.000Z</time>
      </trkpt>
      <trkpt lat="49.57677" lon="-1.27248">
        <ele>7.228327</ele>
        <time>2022-07-31T09:23:47.000Z</time>
      </trkpt>
      <trkpt lat="49.57679" lon="-1.27248">
        <ele>7.226829</ele>
        <time>2022-07-31T09:23:48.000Z</time>
      </trkpt>
      <trkpt lat="49.57681" lon="-1.27248">
        <ele>7.225245</ele>
        <time>2022-07-31T09:23:49.000Z</time>
      </trkpt>
      <trkpt lat="49.57683" lon="-1.27247">
        <ele>7.223504</ele>
        <time>2022-07-31T09:23:50.000Z</time>
      </trkpt>
      <trkpt lat="49.57685" lon="-1.27247">
        <ele>7.222003</ele>
        <time>2022-07-31T09:23:51.000Z</time>
      </trkpt>
      <trkpt lat="49.57687" lon="-1.27247">
        <ele>7.220501</ele>
        <time>2022-07-31T09:23:52.000Z</time>
      </trkpt>
      <trkpt lat="49.57689" lon="-1.27247">
        <ele>7.218924</ele>
        <time>2022-07-31T09:23:53.000Z</time>
      </trkpt>
      <trkpt lat="49.57693" lon="-1.27247">
        <ele>7.216153</ele>
        <time>2022-07-31T09:23:55.000Z</time>
      </trkpt>
      <trkpt lat="49.57695" lon="-1.27245">
        <ele>7.213742</ele>
        <time>2022-07-31T09:23:57.000Z</time>
      </trkpt>
      <trkpt lat="49.57698" lon="-1.27244">
        <ele>7.211567</ele>
        <time>2022-07-31T09:23:59.000Z</time>
      </trkpt>
      <trkpt lat="49.57701" lon="-1.27241">
        <ele>7.208948</ele>
        <time>2022-07-31T09:24:01.000Z</time>
      </trkpt>
      <trkpt lat="49.57703" lon="-1.2724">
        <ele>7.20731</ele>
        <time>2022-07-31T09:24:02.000Z</time>
      </trkpt>
      <trkpt lat="49.57705" lon="-1.27239">
        <ele>7.205691</ele>
        <time>2022-07-31T09:24:03.000Z</time>
      </trkpt>
      <trkpt lat="49.57707" lon="-1.27237">
        <ele>7.204</ele>
        <time>2022-07-31T09:24:04.000Z</time>
      </trkpt>
      <trkpt lat="49.57709" lon="-1.27237">
        <ele>7.20248</ele>
        <time>2022-07-31T09:24:05.000Z</time>
      </trkpt>
      <trkpt lat="49.57712" lon="-1.27237">
        <ele>7.199958</ele>
        <time>2022-07-31T09:24:07.000Z</time>
      </trkpt>
      <trkpt lat="49.57714" lon="-1.27239">
        <ele>7.198173</ele>
        <time>2022-07-31T09:24:09.000Z</time>
      </trkpt>
      <trkpt lat="49.57807" lon="-1.27198">
        <ele>7.121822</ele>
        <time>2022-07-31T09:45:40.000Z</time>
      </trkpt>
      <trkpt lat="49.57809" lon="-1.27196">
        <ele>7.12014</ele>
        <time>2022-07-31T09:45:41.000Z</time>
      </trkpt>
      <trkpt lat="49.57811" lon="-1.27194">
        <ele>7.11834</ele>
        <time>2022-07-31T09:45:42.000Z</time>
      </trkpt>
      <trkpt lat="49.57813" lon="-1.27192">
        <ele>7.1163</ele>
        <time>2022-07-31T09:45:43.000Z</time>
      </trkpt>
      <trkpt lat="49.57815" lon="-1.2719">
        <ele>7.114287</ele>
        <time>2022-07-31T09:45:44.000Z</time>
      </trkpt>
      <trkpt lat="49.57818" lon="-1.27188">
        <ele>7.111997</ele>
        <time>2022-07-31T09:45:45.000Z</time>
      </trkpt>
      <trkpt lat="49.5782" lon="-1.27186">
        <ele>7.109659</ele>
        <time>2022-07-31T09:45:46.000Z</time>
      </trkpt>
      <trkpt lat="49.57823" lon="-1.27184">
        <ele>7.105588</ele>
        <time>2022-07-31T09:45:47.000Z</time>
      </trkpt>
      <trkpt lat="49.57826" lon="-1.27181">
        <ele>7.094217</ele>
        <time>2022-07-31T09:45:48.000Z</time>
      </trkpt>
      <trkpt lat="49.57828" lon="-1.27179">
        <ele>7.083729</ele>
        <time>2022-07-31T09:45:49.000Z</time>
      </trkpt>
      <trkpt lat="49.57831" lon="-1.27176">
        <ele>7.073154</ele>
        <time>2022-07-31T09:45:50.000Z</time>
      </trkpt>
      <trkpt lat="49.57834" lon="-1.27173">
        <ele>7.061201</ele>
        <time>2022-07-31T09:45:51.000Z</time>
      </trkpt>
      <trkpt lat="49.57836" lon="-1.2717">
        <ele>7.050714</ele>
        <time>2022-07-31T09:45:52.000Z</time>
      </trkpt>
      <trkpt lat="49.57839" lon="-1.27168">
        <ele>7.040635</ele>
        <time>2022-07-31T09:45:53.000Z</time>
      </trkpt>
      <trkpt lat="49.57842" lon="-1.27166">
        <ele>7.029473</ele>
        <time>2022-07-31T09:45:54.000Z</time>
      </trkpt>
      <trkpt lat="49.57844" lon="-1.27163">
        <ele>7.018744</ele>
        <time>2022-07-31T09:45:55.000Z</time>
      </trkpt>
      <trkpt lat="49.57847" lon="-1.2716">
        <ele>7.008168</ele>
        <time>2022-07-31T09:45:56.000Z</time>
      </trkpt>
      <trkpt lat="49.5785" lon="-1.27158">
        <ele>6.996084</ele>
        <time>2022-07-31T09:45:57.000Z</time>
      </trkpt>
      <trkpt lat="49.57853" lon="-1.27155">
        <ele>6.984819</ele>
        <time>2022-07-31T09:45:58.000Z</time>
      </trkpt>
      <trkpt lat="49.57856" lon="-1.27153">
        <ele>6.973448</ele>
        <time>2022-07-31T09:45:59.000Z</time>
      </trkpt>
      <trkpt lat="49.57859" lon="-1.2715">
        <ele>6.961966</ele>
        <time>2022-07-31T09:46:00.000Z</time>
      </trkpt>
      <trkpt lat="49.57862" lon="-1.27147">
        <ele>6.949262</ele>
        <time>2022-07-31T09:46:01.000Z</time>
      </trkpt>
      <trkpt lat="49.57865" lon="-1.27144">
        <ele>6.937592</ele>
        <time>2022-07-31T09:46:02.000Z</time>
      </trkpt>
      <trkpt lat="49.57868" lon="-1.27141">
        <ele>6.924658</ele>
        <time>2022-07-31T09:46:03.000Z</time>
      </trkpt>
      <trkpt lat="49.57871" lon="-1.27138">
        <ele>6.912705</ele>
        <time>2022-07-31T09:46:04.000Z</time>
      </trkpt>
      <trkpt lat="49.57874" lon="-1.27135">
        <ele>6.900001</ele>
        <time>2022-07-31T09:46:05.000Z</time>
      </trkpt>
      <trkpt lat="49.57877" lon="-1.27132">
        <ele>6.886295</ele>
        <time>2022-07-31T09:46:06.000Z</time>
      </trkpt>
      <trkpt lat="49.57881" lon="-1.27129">
        <ele>6.873477</ele>
        <time>2022-07-31T09:46:07.000Z</time>
      </trkpt>
      <trkpt lat="49.57884" lon="-1.27126">
        <ele>6.859471</ele>
        <time>2022-07-31T09:46:08.000Z</time>
      </trkpt>
      <trkpt lat="49.57888" lon="-1.27123">
        <ele>6.84486</ele>
        <time>2022-07-31T09:46:09.000Z</time>
      </trkpt>
      <trkpt lat="49.57892" lon="-1.2712">
        <ele>6.830582</ele>
        <time>2022-07-31T09:46:10.000Z</time>
      </trkpt>
      <trkpt lat="49.57895" lon="-1.27116">
        <ele>6.815931</ele>
        <time>2022-07-31T09:46:11.000Z</time>
      </trkpt>
      <trkpt lat="49.57898" lon="-1.27111">
        <ele>6.800806</ele>
        <time>2022-07-31T09:46:12.000Z</time>
      </trkpt>
      <trkpt lat="49.57902" lon="-1.27107">
        <ele>6.784804</ele>
        <time>2022-07-31T09:46:13.000Z</time>
      </trkpt>
      <trkpt lat="49.57905" lon="-1.27102">
        <ele>6.768624</ele>
        <time>2022-07-31T09:46:14.000Z</time>
      </trkpt>
      <trkpt lat="49.57909" lon="-1.27097">
        <ele>6.751527</ele>
        <time>2022-07-31T09:46:15.000Z</time>
      </trkpt>
      <trkpt lat="49.57913" lon="-1.27092">
        <ele>6.734448</ele>
        <time>2022-07-31T09:46:16.000Z</time>
      </trkpt>
      <trkpt lat="49.57917" lon="-1.27088">
        <ele>6.71805</ele>
        <time>2022-07-31T09:46:17.000Z</time>
      </trkpt>
      <trkpt lat="49.57921" lon="-1.27083">
        <ele>6.700794</ele>
        <time>2022-07-31T09:46:18.000Z</time>
      </trkpt>
      <trkpt lat="49.57925" lon="-1.27079">
        <ele>6.68453</ele>
        <time>2022-07-31T09:46:19.000Z</time>
      </trkpt>
      <trkpt lat="49.57929" lon="-1.27075">
        <ele>6.66697</ele>
        <time>2022-07-31T09:46:20.000Z</time>
      </trkpt>
      <trkpt lat="49.57933" lon="-1.27071">
        <ele>6.650364</ele>
        <time>2022-07-31T09:46:21.000Z</time>
      </trkpt>
      <trkpt lat="49.57938" lon="-1.27067">
        <ele>6.633468</ele>
        <time>2022-07-31T09:46:22.000Z</time>
      </trkpt>
      <trkpt lat="49.57941" lon="-1.27063">
        <ele>6.618086</ele>
        <time>2022-07-31T09:46:23.000Z</time>
      </trkpt>
      <trkpt lat="49.57945" lon="-1.2706">
        <ele>6.602296</ele>
        <time>2022-07-31T09:46:24.000Z</time>
      </trkpt>
      <trkpt lat="49.57949" lon="-1.27056">
        <ele>6.585923</ele>
        <time>2022-07-31T09:46:25.000Z</time>
      </trkpt>
      <trkpt lat="49.57953" lon="-1.27052">
        <ele>6.570014</ele>
        <time>2022-07-31T09:46:26.000Z</time>
      </trkpt>
      <trkpt lat="49.57957" lon="-1.27048">
        <ele>6.554512</ele>
        <time>2022-07-31T09:46:27.000Z</time>
      </trkpt>
      <trkpt lat="49.57961" lon="-1.27044">
        <ele>6.538722</ele>
        <time>2022-07-31T09:46:28.000Z</time>
      </trkpt>
      <trkpt lat="49.57965" lon="-1.2704">
        <ele>6.523099</ele>
        <time>2022-07-31T09:46:29.000Z</time>
      </trkpt>
      <trkpt lat="49.57969" lon="-1.27037">
        <ele>6.506432</ele>
        <time>2022-07-31T09:46:30.000Z</time>
      </trkpt>
      <trkpt lat="49.57973" lon="-1.27033">
        <ele>6.490951</ele>
        <time>2022-07-31T09:46:31.000Z</time>
      </trkpt>
      <trkpt lat="49.57977" lon="-1.27029">
        <ele>6.475583</ele>
        <time>2022-07-31T09:46:32.000Z</time>
      </trkpt>
      <trkpt lat="49.57981" lon="-1.27025">
        <ele>6.459406</ele>
        <time>2022-07-31T09:46:33.000Z</time>
      </trkpt>
      <trkpt lat="49.57985" lon="-1.27022">
        <ele>6.442438</ele>
        <time>2022-07-31T09:46:34.000Z</time>
      </trkpt>
      <trkpt lat="49.57989" lon="-1.27018">
        <ele>6.426765</ele>
        <time>2022-07-31T09:46:35.000Z</time>
      </trkpt>
      <trkpt lat="49.57993" lon="-1.27015">
        <ele>6.411789</ele>
        <time>2022-07-31T09:46:36.000Z</time>
      </trkpt>
      <trkpt lat="49.57997" lon="-1.27012">
        <ele>6.396012</ele>
        <time>2022-07-31T09:46:37.000Z</time>
      </trkpt>
      <trkpt lat="49.58002" lon="-1.27008">
        <ele>6.379618</ele>
        <time>2022-07-31T09:46:38.000Z</time>
      </trkpt>
      <trkpt lat="49.58006" lon="-1.27004">
        <ele>6.361551</ele>
        <time>2022-07-31T09:46:39.000Z</time>
      </trkpt>
      <trkpt lat="49.58011" lon="-1.27">
        <ele>6.345267</ele>
        <time>2022-07-31T09:46:40.000Z</time>
      </trkpt>
      <trkpt lat="49.58015" lon="-1.26997">
        <ele>6.329383</ele>
        <time>2022-07-31T09:46:41.000Z</time>
      </trkpt>
      <trkpt lat="49.58019" lon="-1.26993">
        <ele>6.31331</ele>
        <time>2022-07-31T09:46:42.000Z</time>
      </trkpt>
      <trkpt lat="49.58023" lon="-1.2699">
        <ele>6.297317</ele>
        <time>2022-07-31T09:46:43.000Z</time>
      </trkpt>
      <trkpt lat="49.58028" lon="-1.26986">
        <ele>6.280349</ele>
        <time>2022-07-31T09:46:44.000Z</time>
      </trkpt>
      <trkpt lat="49.58032" lon="-1.26982">
        <ele>6.26318</ele>
        <time>2022-07-31T09:46:45.000Z</time>
      </trkpt>
      <trkpt lat="49.58037" lon="-1.26979">
        <ele>6.246113</ele>
        <time>2022-07-31T09:46:46.000Z</time>
      </trkpt>
      <trkpt lat="49.58041" lon="-1.26975">
        <ele>6.228944</ele>
        <time>2022-07-31T09:46:47.000Z</time>
      </trkpt>
      <trkpt lat="49.58045" lon="-1.26971">
        <ele>6.21284</ele>
        <time>2022-07-31T09:46:48.000Z</time>
      </trkpt>
      <trkpt lat="49.58049" lon="-1.26967">
        <ele>6.196221</ele>
        <time>2022-07-31T09:46:49.000Z</time>
      </trkpt>
      <trkpt lat="49.58053" lon="-1.26963">
        <ele>6.180003</ele>
        <time>2022-07-31T09:46:50.000Z</time>
      </trkpt>
      <trkpt lat="49.58058" lon="-1.2696">
        <ele>6.16273</ele>
        <time>2022-07-31T09:46:51.000Z</time>
      </trkpt>
      <trkpt lat="49.58062" lon="-1.26956">
        <ele>6.146336</ele>
        <time>2022-07-31T09:46:52.000Z</time>
      </trkpt>
      <trkpt lat="49.58067" lon="-1.26952">
        <ele>6.129368</ele>
        <time>2022-07-31T09:46:53.000Z</time>
      </trkpt>
      <trkpt lat="49.58071" lon="-1.26949">
        <ele>6.1127</ele>
        <time>2022-07-31T09:46:54.000Z</time>
      </trkpt>
      <trkpt lat="49.58075" lon="-1.26945">
        <ele>6.096731</ele>
        <time>2022-07-31T09:46:55.000Z</time>
      </trkpt>
      <trkpt lat="49.5808" lon="-1.26942">
        <ele>6.079458</ele>
        <time>2022-07-31T09:46:56.000Z</time>
      </trkpt>
      <trkpt lat="49.58084" lon="-1.26938">
        <ele>6.063354</ele>
        <time>2022-07-31T09:46:57.000Z</time>
      </trkpt>
      <trkpt lat="49.58088" lon="-1.26934">
        <ele>6.047069</ele>
        <time>2022-07-31T09:46:58.000Z</time>
      </trkpt>
      <trkpt lat="49.58093" lon="-1.26931">
        <ele>6.030101</ele>
        <time>2022-07-31T09:46:59.000Z</time>
      </trkpt>
      <trkpt lat="49.58097" lon="-1.26927">
        <ele>6.014531</ele>
        <time>2022-07-31T09:47:00.000Z</time>
      </trkpt>
      <trkpt lat="49.58101" lon="-1.26924">
        <ele>5.997563</ele>
        <time>2022-07-31T09:47:01.000Z</time>
      </trkpt>
      <trkpt lat="49.58106" lon="-1.2692">
        <ele>5.980595</ele>
        <time>2022-07-31T09:47:02.000Z</time>
      </trkpt>
      <trkpt lat="49.5811" lon="-1.26917">
        <ele>5.964523</ele>
        <time>2022-07-31T09:47:03.000Z</time>
      </trkpt>
      <trkpt lat="49.58114" lon="-1.26913">
        <ele>5.949622</ele>
        <time>2022-07-31T09:47:04.000Z</time>
      </trkpt>
      <trkpt lat="49.58118" lon="-1.2691">
        <ele>5.933549</ele>
        <time>2022-07-31T09:47:05.000Z</time>
      </trkpt>
      <trkpt lat="49.58122" lon="-1.26906">
        <ele>5.918648</ele>
        <time>2022-07-31T09:47:06.000Z</time>
      </trkpt>
      <trkpt lat="49.58126" lon="-1.26903">
        <ele>5.902575</ele>
        <time>2022-07-31T09:47:07.000Z</time>
      </trkpt>
      <trkpt lat="49.5813" lon="-1.26899">
        <ele>5.887785</ele>
        <time>2022-07-31T09:47:08.000Z</time>
      </trkpt>
      <trkpt lat="49.58134" lon="-1.26896">
        <ele>5.887522</ele>
        <time>2022-07-31T09:47:09.000Z</time>
      </trkpt>
      <trkpt lat="49.58138" lon="-1.26893">
        <ele>5.888397</ele>
        <time>2022-07-31T09:47:10.000Z</time>
      </trkpt>
      <trkpt lat="49.58141" lon="-1.2689">
        <ele>5.889266</ele>
        <time>2022-07-31T09:47:11.000Z</time>
      </trkpt>
      <trkpt lat="49.58145" lon="-1.26886">
        <ele>5.890177</ele>
        <time>2022-07-31T09:47:12.000Z</time>
      </trkpt>
      <trkpt lat="49.58149" lon="-1.26883">
        <ele>5.891101</ele>
        <time>2022-07-31T09:47:13.000Z</time>
      </trkpt>
      <trkpt lat="49.58153" lon="-1.2688">
        <ele>5.891988</ele>
        <time>2022-07-31T09:47:14.000Z</time>
      </trkpt>
      <trkpt lat="49.58157" lon="-1.26877">
        <ele>5.892863</ele>
        <time>2022-07-31T09:47:15.000Z</time>
      </trkpt>
      <trkpt lat="49.58161" lon="-1.26874">
        <ele>5.893691</ele>
        <time>2022-07-31T09:47:16.000Z</time>
      </trkpt>
      <trkpt lat="49.58164" lon="-1.26871">
        <ele>5.894543</ele>
        <time>2022-07-31T09:47:17.000Z</time>
      </trkpt>
      <trkpt lat="49.58168" lon="-1.26867">
        <ele>5.895385</ele>
        <time>2022-07-31T09:47:18.000Z</time>
      </trkpt>
      <trkpt lat="49.58171" lon="-1.26864">
        <ele>5.896219</ele>
        <time>2022-07-31T09:47:19.000Z</time>
      </trkpt>
      <trkpt lat="49.58175" lon="-1.26861">
        <ele>5.897161</ele>
        <time>2022-07-31T09:47:20.000Z</time>
      </trkpt>
      <trkpt lat="49.58179" lon="-1.26858">
        <ele>5.897923</ele>
        <time>2022-07-31T09:47:21.000Z</time>
      </trkpt>
      <trkpt lat="49.58182" lon="-1.26855">
        <ele>5.898775</ele>
        <time>2022-07-31T09:47:22.000Z</time>
      </trkpt>
      <trkpt lat="49.58186" lon="-1.26853">
        <ele>5.899549</ele>
        <time>2022-07-31T09:47:23.000Z</time>
      </trkpt>
      <trkpt lat="49.58189" lon="-1.2685">
        <ele>5.900351</ele>
        <time>2022-07-31T09:47:24.000Z</time>
      </trkpt>
      <trkpt lat="49.58193" lon="-1.26847">
        <ele>5.901178</ele>
        <time>2022-07-31T09:47:25.000Z</time>
      </trkpt>
      <trkpt lat="49.58196" lon="-1.26844">
        <ele>5.901847</ele>
        <time>2022-07-31T09:47:26.000Z</time>
      </trkpt>
      <trkpt lat="49.58198" lon="-1.26841">
        <ele>5.902581</ele>
        <time>2022-07-31T09:47:27.000Z</time>
      </trkpt>
      <trkpt lat="49.58202" lon="-1.26838">
        <ele>5.903357</ele>
        <time>2022-07-31T09:47:28.000Z</time>
      </trkpt>
      <trkpt lat="49.58205" lon="-1.26835">
        <ele>5.904119</ele>
        <time>2022-07-31T09:47:29.000Z</time>
      </trkpt>
      <trkpt lat="49.58207" lon="-1.26831">
        <ele>5.904796</ele>
        <time>2022-07-31T09:47:30.000Z</time>
      </trkpt>
      <trkpt lat="49.5821" lon="-1.26828">
        <ele>5.905513</ele>
        <time>2022-07-31T09:47:31.000Z</time>
      </trkpt>
      <trkpt lat="49.58213" lon="-1.26825">
        <ele>5.906198</ele>
        <time>2022-07-31T09:47:32.000Z</time>
      </trkpt>
      <trkpt lat="49.58215" lon="-1.26822">
        <ele>5.906875</ele>
        <time>2022-07-31T09:47:33.000Z</time>
      </trkpt>
      <trkpt lat="49.58218" lon="-1.26818">
        <ele>5.907545</ele>
        <time>2022-07-31T09:47:34.000Z</time>
      </trkpt>
      <trkpt lat="49.5822" lon="-1.26815">
        <ele>5.908202</ele>
        <time>2022-07-31T09:47:35.000Z</time>
      </trkpt>
      <trkpt lat="49.58223" lon="-1.26811">
        <ele>5.908953</ele>
        <time>2022-07-31T09:47:36.000Z</time>
      </trkpt>
      <trkpt lat="49.58225" lon="-1.26807">
        <ele>5.909639</ele>
        <time>2022-07-31T09:47:37.000Z</time>
      </trkpt>
      <trkpt lat="49.58227" lon="-1.26804">
        <ele>5.910261</ele>
        <time>2022-07-31T09:47:38.000Z</time>
      </trkpt>
      <trkpt lat="49.58229" lon="-1.268">
        <ele>5.910934</ele>
        <time>2022-07-31T09:47:39.000Z</time>
      </trkpt>
      <trkpt lat="49.58231" lon="-1.26796">
        <ele>5.911549</ele>
        <time>2022-07-31T09:47:40.000Z</time>
      </trkpt>
      <trkpt lat="49.58234" lon="-1.26793">
        <ele>5.912192</ele>
        <time>2022-07-31T09:47:41.000Z</time>
      </trkpt>
      <trkpt lat="49.58236" lon="-1.26789">
        <ele>5.912826</ele>
        <time>2022-07-31T09:47:42.000Z</time>
      </trkpt>
      <trkpt lat="49.58238" lon="-1.26787">
        <ele>5.913334</ele>
        <time>2022-07-31T09:47:43.000Z</time>
      </trkpt>
      <trkpt lat="49.58239" lon="-1.26785">
        <ele>5.913729</ele>
        <time>2022-07-31T09:47:44.000Z</time>
      </trkpt>
      <trkpt lat="49.58242" lon="-1.26785">
        <ele>5.914182</ele>
        <time>2022-07-31T09:47:46.000Z</time>
      </trkpt>
      <trkpt lat="49.58249" lon="-1.26788">
        <ele>5.91565</ele>
        <time>2022-07-31T09:49:34.000Z</time>
      </trkpt>
      <trkpt lat="49.58251" lon="-1.26789">
        <ele>5.916195</ele>
        <time>2022-07-31T09:49:35.000Z</time>
      </trkpt>
      <trkpt lat="49.58254" lon="-1.2679">
        <ele>5.916866</ele>
        <time>2022-07-31T09:49:36.000Z</time>
      </trkpt>
      <trkpt lat="49.58258" lon="-1.26791">
        <ele>5.917546</ele>
        <time>2022-07-31T09:49:37.000Z</time>
      </trkpt>
      <trkpt lat="49.58261" lon="-1.26793">
        <ele>5.918239</ele>
        <time>2022-07-31T09:49:38.000Z</time>
      </trkpt>
      <trkpt lat="49.58263" lon="-1.26795">
        <ele>5.918819</ele>
        <time>2022-07-31T09:49:39.000Z</time>
      </trkpt>
      <trkpt lat="49.58266" lon="-1.26797">
        <ele>5.919332</ele>
        <time>2022-07-31T09:49:40.000Z</time>
      </trkpt>
      <trkpt lat="49.58268" lon="-1.26798">
        <ele>5.919822</ele>
        <time>2022-07-31T09:49:41.000Z</time>
      </trkpt>
      <trkpt lat="49.5827" lon="-1.268">
        <ele>5.920264</ele>
        <time>2022-07-31T09:49:42.000Z</time>
      </trkpt>
      <trkpt lat="49.58272" lon="-1.26801">
        <ele>5.920825</ele>
        <time>2022-07-31T09:49:43.000Z</time>
      </trkpt>
      <trkpt lat="49.58274" lon="-1.26803">
        <ele>5.921236</ele>
        <time>2022-07-31T09:49:44.000Z</time>
      </trkpt>
      <trkpt lat="49.58276" lon="-1.26805">
        <ele>5.921704</ele>
        <time>2022-07-31T09:49:45.000Z</time>
      </trkpt>
      <trkpt lat="49.58278" lon="-1.26808">
        <ele>5.922314</ele>
        <time>2022-07-31T09:49:46.000Z</time>
      </trkpt>
      <trkpt lat="49.5828" lon="-1.2681">
        <ele>5.922822</ele>
        <time>2022-07-31T09:49:47.000Z</time>
      </trkpt>
      <trkpt lat="49.58282" lon="-1.26813">
        <ele>5.923687</ele>
        <time>2022-07-31T09:49:48.000Z</time>
      </trkpt>
      <trkpt lat="49.58284" lon="-1.26816">
        <ele>5.929554</ele>
        <time>2022-07-31T09:49:49.000Z</time>
      </trkpt>
      <trkpt lat="49.58285" lon="-1.26819">
        <ele>5.93552</ele>
        <time>2022-07-31T09:49:50.000Z</time>
      </trkpt>
      <trkpt lat="49.58287" lon="-1.26822">
        <ele>5.942734</ele>
        <time>2022-07-31T09:49:51.000Z</time>
      </trkpt>
      <trkpt lat="49.5829" lon="-1.26826">
        <ele>5.949687</ele>
        <time>2022-07-31T09:49:52.000Z</time>
      </trkpt>
      <trkpt lat="49.58293" lon="-1.26829">
        <ele>5.957909</ele>
        <time>2022-07-31T09:49:53.000Z</time>
      </trkpt>
      <trkpt lat="49.58295" lon="-1.26833">
        <ele>5.964966</ele>
        <time>2022-07-31T09:49:54.000Z</time>
      </trkpt>
      <trkpt lat="49.58297" lon="-1.26836">
        <ele>5.972767</ele>
        <time>2022-07-31T09:49:55.000Z</time>
      </trkpt>
      <trkpt lat="49.583" lon="-1.2684">
        <ele>5.98025</ele>
        <time>2022-07-31T09:49:56.000Z</time>
      </trkpt>
      <trkpt lat="49.58302" lon="-1.26844">
        <ele>5.988052</ele>
        <time>2022-07-31T09:49:57.000Z</time>
      </trkpt>
      <trkpt lat="49.58304" lon="-1.26847">
        <ele>5.995108</ele>
        <time>2022-07-31T09:49:58.000Z</time>
      </trkpt>
      <trkpt lat="49.58307" lon="-1.26851">
        <ele>6.002529</ele>
        <time>2022-07-31T09:49:59.000Z</time>
      </trkpt>
      <trkpt lat="49.58309" lon="-1.26855">
        <ele>6.010365</ele>
        <time>2022-07-31T09:50:00.000Z</time>
      </trkpt>
      <trkpt lat="49.58312" lon="-1.26859">
        <ele>6.019052</ele>
        <time>2022-07-31T09:50:01.000Z</time>
      </trkpt>
      <trkpt lat="49.58314" lon="-1.26862">
        <ele>6.025251</ele>
        <time>2022-07-31T09:50:02.000Z</time>
      </trkpt>
      <trkpt lat="49.58316" lon="-1.26866">
        <ele>6.03315</ele>
        <time>2022-07-31T09:50:03.000Z</time>
      </trkpt>
      <trkpt lat="49.58318" lon="-1.2687">
        <ele>6.040525</ele>
        <time>2022-07-31T09:50:04.000Z</time>
      </trkpt>
      <trkpt lat="49.5832" lon="-1.26874">
        <ele>6.047586</ele>
        <time>2022-07-31T09:50:05.000Z</time>
      </trkpt>
      <trkpt lat="49.58323" lon="-1.26877">
        <ele>6.054903</ele>
        <time>2022-07-31T09:50:06.000Z</time>
      </trkpt>
      <trkpt lat="49.58325" lon="-1.26881">
        <ele>6.06217</ele>
        <time>2022-07-31T09:50:07.000Z</time>
      </trkpt>
      <trkpt lat="49.58327" lon="-1.26885">
        <ele>6.069117</ele>
        <time>2022-07-31T09:50:08.000Z</time>
      </trkpt>
      <trkpt lat="49.58329" lon="-1.26889">
        <ele>6.076857</ele>
        <time>2022-07-31T09:50:09.000Z</time>
      </trkpt>
      <trkpt lat="49.58331" lon="-1.26893">
        <ele>6.083918</ele>
        <time>2022-07-31T09:50:10.000Z</time>
      </trkpt>
      <trkpt lat="49.58333" lon="-1.26897">
        <ele>6.090865</ele>
        <time>2022-07-31T09:50:11.000Z</time>
      </trkpt>
      <trkpt lat="49.58335" lon="-1.26901">
        <ele>6.098043</ele>
        <time>2022-07-31T09:50:12.000Z</time>
      </trkpt>
      <trkpt lat="49.58337" lon="-1.26905">
        <ele>6.106001</ele>
        <time>2022-07-31T09:50:13.000Z</time>
      </trkpt>
      <trkpt lat="49.58339" lon="-1.26909">
        <ele>6.113595</ele>
        <time>2022-07-31T09:50:14.000Z</time>
      </trkpt>
      <trkpt lat="49.58341" lon="-1.26913">
        <ele>6.120969</ele>
        <time>2022-07-31T09:50:15.000Z</time>
      </trkpt>
      <trkpt lat="49.58344" lon="-1.26916">
        <ele>6.128967</ele>
        <time>2022-07-31T09:50:16.000Z</time>
      </trkpt>
      <trkpt lat="49.58346" lon="-1.2692">
        <ele>6.136024</ele>
        <time>2022-07-31T09:50:17.000Z</time>
      </trkpt>
      <trkpt lat="49.58348" lon="-1.26924">
        <ele>6.143222</ele>
        <time>2022-07-31T09:50:18.000Z</time>
      </trkpt>
      <trkpt lat="49.5835" lon="-1.26928">
        <ele>6.150168</ele>
        <time>2022-07-31T09:50:19.000Z</time>
      </trkpt>
      <trkpt lat="49.58352" lon="-1.26932">
        <ele>6.157985</ele>
        <time>2022-07-31T09:50:20.000Z</time>
      </trkpt>
      <trkpt lat="49.58355" lon="-1.26936">
        <ele>6.165724</ele>
        <time>2022-07-31T09:50:21.000Z</time>
      </trkpt>
      <trkpt lat="49.58357" lon="-1.2694">
        <ele>6.172671</ele>
        <time>2022-07-31T09:50:22.000Z</time>
      </trkpt>
      <trkpt lat="49.58358" lon="-1.26944">
        <ele>6.180084</ele>
        <time>2022-07-31T09:50:23.000Z</time>
      </trkpt>
      <trkpt lat="49.5836" lon="-1.26948">
        <ele>6.18738</ele>
        <time>2022-07-31T09:50:24.000Z</time>
      </trkpt>
      <trkpt lat="49.58362" lon="-1.26952">
        <ele>6.194558</ele>
        <time>2022-07-31T09:50:25.000Z</time>
      </trkpt>
      <trkpt lat="49.58365" lon="-1.26956">
        <ele>6.202297</ele>
        <time>2022-07-31T09:50:26.000Z</time>
      </trkpt>
      <trkpt lat="49.58367" lon="-1.2696">
        <ele>6.209565</ele>
        <time>2022-07-31T09:50:27.000Z</time>
      </trkpt>
      <trkpt lat="49.58369" lon="-1.26963">
        <ele>6.21629</ele>
        <time>2022-07-31T09:50:28.000Z</time>
      </trkpt>
      <trkpt lat="49.58372" lon="-1.26965">
        <ele>6.223663</ele>
        <time>2022-07-31T09:50:29.000Z</time>
      </trkpt>
      <trkpt lat="49.58374" lon="-1.26968">
        <ele>6.230355</ele>
        <time>2022-07-31T09:50:30.000Z</time>
      </trkpt>
      <trkpt lat="49.58378" lon="-1.2697">
        <ele>6.238178</ele>
        <time>2022-07-31T09:50:31.000Z</time>
      </trkpt>
      <trkpt lat="49.5838" lon="-1.26973">
        <ele>6.245258</ele>
        <time>2022-07-31T09:50:32.000Z</time>
      </trkpt>
      <trkpt lat="49.58382" lon="-1.26977">
        <ele>6.252061</ele>
        <time>2022-07-31T09:50:33.000Z</time>
      </trkpt>
      <trkpt lat="49.58383" lon="-1.26981">
        <ele>6.259294</ele>
        <time>2022-07-31T09:50:34.000Z</time>
      </trkpt>
      <trkpt lat="49.58384" lon="-1.26986">
        <ele>6.266958</ele>
        <time>2022-07-31T09:50:35.000Z</time>
      </trkpt>
      <trkpt lat="49.58384" lon="-1.26992">
        <ele>6.274948</ele>
        <time>2022-07-31T09:50:36.000Z</time>
      </trkpt>
      <trkpt lat="49.58386" lon="-1.26997">
        <ele>6.28315</ele>
        <time>2022-07-31T09:50:37.000Z</time>
      </trkpt>
      <trkpt lat="49.58388" lon="-1.27002">
        <ele>6.291482</ele>
        <time>2022-07-31T09:50:38.000Z</time>
      </trkpt>
      <trkpt lat="49.58389" lon="-1.27007">
        <ele>6.299871</ele>
        <time>2022-07-31T09:50:39.000Z</time>
      </trkpt>
      <trkpt lat="49.58391" lon="-1.27012">
        <ele>6.307684</ele>
        <time>2022-07-31T09:50:40.000Z</time>
      </trkpt>
      <trkpt lat="49.58394" lon="-1.27017">
        <ele>6.31685</ele>
        <time>2022-07-31T09:50:41.000Z</time>
      </trkpt>
      <trkpt lat="49.58396" lon="-1.27022">
        <ele>6.324514</ele>
        <time>2022-07-31T09:50:42.000Z</time>
      </trkpt>
      <trkpt lat="49.58397" lon="-1.27027">
        <ele>6.309238</ele>
        <time>2022-07-31T09:50:43.000Z</time>
      </trkpt>
      <trkpt lat="49.58399" lon="-1.27032">
        <ele>6.294419</ele>
        <time>2022-07-31T09:50:44.000Z</time>
      </trkpt>
      <trkpt lat="49.58402" lon="-1.27037">
        <ele>6.278758</ele>
        <time>2022-07-31T09:50:45.000Z</time>
      </trkpt>
      <trkpt lat="49.58404" lon="-1.27043">
        <ele>6.262457</ele>
        <time>2022-07-31T09:50:46.000Z</time>
      </trkpt>
      <trkpt lat="49.58406" lon="-1.27048">
        <ele>6.246552</ele>
        <time>2022-07-31T09:50:47.000Z</time>
      </trkpt>
      <trkpt lat="49.58408" lon="-1.27054">
        <ele>6.229609</ele>
        <time>2022-07-31T09:50:48.000Z</time>
      </trkpt>
      <trkpt lat="49.58411" lon="-1.27059">
        <ele>6.213523</ele>
        <time>2022-07-31T09:50:49.000Z</time>
      </trkpt>
      <trkpt lat="49.58413" lon="-1.27064">
        <ele>6.198489</ele>
        <time>2022-07-31T09:50:50.000Z</time>
      </trkpt>
      <trkpt lat="49.58415" lon="-1.27068">
        <ele>6.184023</ele>
        <time>2022-07-31T09:50:51.000Z</time>
      </trkpt>
      <trkpt lat="49.58418" lon="-1.27071">
        <ele>6.172765</ele>
        <time>2022-07-31T09:50:52.000Z</time>
      </trkpt>
      <trkpt lat="49.5842" lon="-1.27074">
        <ele>6.16134</ele>
        <time>2022-07-31T09:50:54.000Z</time>
      </trkpt>
      <trkpt lat="49.58422" lon="-1.27076">
        <ele>6.151068</ele>
        <time>2022-07-31T09:50:56.000Z</time>
      </trkpt>
      <trkpt lat="49.58424" lon="-1.27076">
        <ele>6.14357</ele>
        <time>2022-07-31T09:50:57.000Z</time>
      </trkpt>
      <trkpt lat="49.58427" lon="-1.27076">
        <ele>6.133301</ele>
        <time>2022-07-31T09:50:58.000Z</time>
      </trkpt>
      <trkpt lat="49.5843" lon="-1.27074">
        <ele>6.118948</ele>
        <time>2022-07-31T09:50:59.000Z</time>
      </trkpt>
      <trkpt lat="49.58434" lon="-1.27071">
        <ele>6.1014</ele>
        <time>2022-07-31T09:51:00.000Z</time>
      </trkpt>
      <trkpt lat="49.58439" lon="-1.27067">
        <ele>6.081678</ele>
        <time>2022-07-31T09:51:01.000Z</time>
      </trkpt>
      <trkpt lat="49.58444" lon="-1.27063">
        <ele>6.060209</ele>
        <time>2022-07-31T09:51:02.000Z</time>
      </trkpt>
      <trkpt lat="49.58449" lon="-1.27059">
        <ele>6.038282</ele>
        <time>2022-07-31T09:51:03.000Z</time>
      </trkpt>
      <trkpt lat="49.58454" lon="-1.27056">
        <ele>6.013959</ele>
        <time>2022-07-31T09:51:04.000Z</time>
      </trkpt>
      <trkpt lat="49.5846" lon="-1.27053">
        <ele>5.989995</ele>
        <time>2022-07-31T09:51:05.000Z</time>
      </trkpt>
      <trkpt lat="49.58466" lon="-1.27049">
        <ele>5.966308</ele>
        <time>2022-07-31T09:51:06.000Z</time>
      </trkpt>
      <trkpt lat="49.58472" lon="-1.27046">
        <ele>5.942169</ele>
        <time>2022-07-31T09:51:07.000Z</time>
      </trkpt>
      <trkpt lat="49.58477" lon="-1.27043">
        <ele>5.918483</ele>
        <time>2022-07-31T09:51:08.000Z</time>
      </trkpt>
      <trkpt lat="49.58483" lon="-1.27039">
        <ele>5.895614</ele>
        <time>2022-07-31T09:51:09.000Z</time>
      </trkpt>
      <trkpt lat="49.58488" lon="-1.27036">
        <ele>5.873198</ele>
        <time>2022-07-31T09:51:10.000Z</time>
      </trkpt>
      <trkpt lat="49.58494" lon="-1.27033">
        <ele>5.850502</ele>
        <time>2022-07-31T09:51:11.000Z</time>
      </trkpt>
      <trkpt lat="49.58499" lon="-1.2703">
        <ele>5.828172</ele>
        <time>2022-07-31T09:51:12.000Z</time>
      </trkpt>
      <trkpt lat="49.58504" lon="-1.27027">
        <ele>5.808678</ele>
        <time>2022-07-31T09:51:13.000Z</time>
      </trkpt>
      <trkpt lat="49.58509" lon="-1.27025">
        <ele>5.788006</ele>
        <time>2022-07-31T09:51:14.000Z</time>
      </trkpt>
      <trkpt lat="49.58513" lon="-1.27022">
        <ele>5.769641</ele>
        <time>2022-07-31T09:51:15.000Z</time>
      </trkpt>
      <trkpt lat="49.58518" lon="-1.2702">
        <ele>5.751197</ele>
        <time>2022-07-31T09:51:16.000Z</time>
      </trkpt>
      <trkpt lat="49.58522" lon="-1.27018">
        <ele>5.734309</ele>
        <time>2022-07-31T09:51:17.000Z</time>
      </trkpt>
      <trkpt lat="49.58525" lon="-1.27016">
        <ele>5.720107</ele>
        <time>2022-07-31T09:51:18.000Z</time>
      </trkpt>
      <trkpt lat="49.58528" lon="-1.27015">
        <ele>5.710488</ele>
        <time>2022-07-31T09:51:19.000Z</time>
      </trkpt>
      <trkpt lat="49.5853" lon="-1.27012">
        <ele>5.700264</ele>
        <time>2022-07-31T09:51:21.000Z</time>
      </trkpt>
      <trkpt lat="49.58543" lon="-1.27023">
        <ele>5.640971</ele>
        <time>2022-07-31T09:52:50.000Z</time>
      </trkpt>
      <trkpt lat="49.58548" lon="-1.27037">
        <ele>5.641018</ele>
        <time>2022-07-31T09:53:00.000Z</time>
      </trkpt>
      <trkpt lat="49.58549" lon="-1.2704">
        <ele>5.647457</ele>
        <time>2022-07-31T09:53:01.000Z</time>
      </trkpt>
      <trkpt lat="49.5855" lon="-1.27043">
        <ele>5.652258</ele>
        <time>2022-07-31T09:53:02.000Z</time>
      </trkpt>
      <trkpt lat="49.58551" lon="-1.27046">
        <ele>5.658125</ele>
        <time>2022-07-31T09:53:03.000Z</time>
      </trkpt>
      <trkpt lat="49.58553" lon="-1.27048">
        <ele>5.664488</ele>
        <time>2022-07-31T09:53:04.000Z</time>
      </trkpt>
      <trkpt lat="49.58555" lon="-1.2705">
        <ele>5.670266</ele>
        <time>2022-07-31T09:53:05.000Z</time>
      </trkpt>
      <trkpt lat="49.58557" lon="-1.27051">
        <ele>5.675475</ele>
        <time>2022-07-31T09:53:06.000Z</time>
      </trkpt>
      <trkpt lat="49.58559" lon="-1.27055">
        <ele>5.68516</ele>
        <time>2022-07-31T09:53:08.000Z</time>
      </trkpt>
      <trkpt lat="49.58561" lon="-1.27057">
        <ele>5.690577</ele>
        <time>2022-07-31T09:53:09.000Z</time>
      </trkpt>
      <trkpt lat="49.58563" lon="-1.27059">
        <ele>5.696215</ele>
        <time>2022-07-31T09:53:10.000Z</time>
      </trkpt>
      <trkpt lat="49.58565" lon="-1.27063">
        <ele>5.705689</ele>
        <time>2022-07-31T09:53:12.000Z</time>
      </trkpt>
      <trkpt lat="49.58567" lon="-1.27067">
        <ele>5.713474</ele>
        <time>2022-07-31T09:53:14.000Z</time>
      </trkpt>
      <trkpt lat="49.58569" lon="-1.27071">
        <ele>5.722591</ele>
        <time>2022-07-31T09:53:16.000Z</time>
      </trkpt>
      <trkpt lat="49.58571" lon="-1.27073">
        <ele>5.728956</ele>
        <time>2022-07-31T09:53:17.000Z</time>
      </trkpt>
      <trkpt lat="49.58572" lon="-1.27076">
        <ele>5.734968</ele>
        <time>2022-07-31T09:53:18.000Z</time>
      </trkpt>
      <trkpt lat="49.58573" lon="-1.27079">
        <ele>5.739844</ele>
        <time>2022-07-31T09:53:19.000Z</time>
      </trkpt>
      <trkpt lat="49.58575" lon="-1.27081">
        <ele>5.745053</ele>
        <time>2022-07-31T09:53:20.000Z</time>
      </trkpt>
      <trkpt lat="49.58576" lon="-1.27082">
        <ele>5.749978</ele>
        <time>2022-07-31T09:53:21.000Z</time>
      </trkpt>
      <trkpt lat="49.58579" lon="-1.27085">
        <ele>5.758727</ele>
        <time>2022-07-31T09:53:23.000Z</time>
      </trkpt>
      <trkpt lat="49.58581" lon="-1.27087">
        <ele>5.764875</ele>
        <time>2022-07-31T09:53:24.000Z</time>
      </trkpt>
      <trkpt lat="49.58582" lon="-1.2709">
        <ele>5.769951</ele>
        <time>2022-07-31T09:53:25.000Z</time>
      </trkpt>
      <trkpt lat="49.58583" lon="-1.27092">
        <ele>5.775128</ele>
        <time>2022-07-31T09:53:26.000Z</time>
      </trkpt>
      <trkpt lat="49.58585" lon="-1.27095">
        <ele>5.782466</ele>
        <time>2022-07-31T09:53:27.000Z</time>
      </trkpt>
      <trkpt lat="49.58587" lon="-1.27099">
        <ele>5.789493</ele>
        <time>2022-07-31T09:53:28.000Z</time>
      </trkpt>
      <trkpt lat="49.58588" lon="-1.27102">
        <ele>5.796391</ele>
        <time>2022-07-31T09:53:29.000Z</time>
      </trkpt>
      <trkpt lat="49.58589" lon="-1.27106">
        <ele>5.804261</ele>
        <time>2022-07-31T09:53:30.000Z</time>
      </trkpt>
      <trkpt lat="49.58591" lon="-1.2711">
        <ele>5.812276</ele>
        <time>2022-07-31T09:53:31.000Z</time>
      </trkpt>
      <trkpt lat="49.58592" lon="-1.27114">
        <ele>5.820003</ele>
        <time>2022-07-31T09:53:32.000Z</time>
      </trkpt>
      <trkpt lat="49.58594" lon="-1.27118">
        <ele>5.827179</ele>
        <time>2022-07-31T09:53:33.000Z</time>
      </trkpt>
      <trkpt lat="49.58595" lon="-1.27122">
        <ele>5.834906</ele>
        <time>2022-07-31T09:53:34.000Z</time>
      </trkpt>
      <trkpt lat="49.58597" lon="-1.27125">
        <ele>5.842232</ele>
        <time>2022-07-31T09:53:35.000Z</time>
      </trkpt>
      <trkpt lat="49.58598" lon="-1.27129">
        <ele>5.850281</ele>
        <time>2022-07-31T09:53:36.000Z</time>
      </trkpt>
      <trkpt lat="49.586" lon="-1.27133">
        <ele>5.857865</ele>
        <time>2022-07-31T09:53:37.000Z</time>
      </trkpt>
      <trkpt lat="49.58601" lon="-1.27136">
        <ele>5.864544</ele>
        <time>2022-07-31T09:53:38.000Z</time>
      </trkpt>
      <trkpt lat="49.58603" lon="-1.2714">
        <ele>5.872128</ele>
        <time>2022-07-31T09:53:39.000Z</time>
      </trkpt>
      <trkpt lat="49.58604" lon="-1.27144">
        <ele>5.879431</ele>
        <time>2022-07-31T09:53:40.000Z</time>
      </trkpt>
      <trkpt lat="49.58605" lon="-1.27147">
        <ele>5.886639</ele>
        <time>2022-07-31T09:53:41.000Z</time>
      </trkpt>
      <trkpt lat="49.58607" lon="-1.27151">
        <ele>5.894269</ele>
        <time>2022-07-31T09:53:42.000Z</time>
      </trkpt>
      <trkpt lat="49.58608" lon="-1.27155">
        <ele>5.902283</ele>
        <time>2022-07-31T09:53:43.000Z</time>
      </trkpt>
      <trkpt lat="49.58609" lon="-1.27159">
        <ele>5.909119</ele>
        <time>2022-07-31T09:53:44.000Z</time>
      </trkpt>
      <trkpt lat="49.58611" lon="-1.27163">
        <ele>5.916422</ele>
        <time>2022-07-31T09:53:45.000Z</time>
      </trkpt>
      <trkpt lat="49.58612" lon="-1.27166">
        <ele>5.9233</ele>
        <time>2022-07-31T09:53:46.000Z</time>
      </trkpt>
      <trkpt lat="49.58613" lon="-1.27169">
        <ele>5.929311</ele>
        <time>2022-07-31T09:53:47.000Z</time>
      </trkpt>
      <trkpt lat="49.58615" lon="-1.27172">
        <ele>5.935302</ele>
        <time>2022-07-31T09:53:48.000Z</time>
      </trkpt>
      <trkpt lat="49.58617" lon="-1.27173">
        <ele>5.94187</ele>
        <time>2022-07-31T09:53:49.000Z</time>
      </trkpt>
      <trkpt lat="49.5862" lon="-1.27173">
        <ele>5.948454</ele>
        <time>2022-07-31T09:53:50.000Z</time>
      </trkpt>
      <trkpt lat="49.58622" lon="-1.27173">
        <ele>5.955302</ele>
        <time>2022-07-31T09:53:51.000Z</time>
      </trkpt>
      <trkpt lat="49.58625" lon="-1.27172">
        <ele>5.96305</ele>
        <time>2022-07-31T09:53:52.000Z</time>
      </trkpt>
      <trkpt lat="49.58629" lon="-1.27171">
        <ele>5.971799</ele>
        <time>2022-07-31T09:53:53.000Z</time>
      </trkpt>
      <trkpt lat="49.58631" lon="-1.2717">
        <ele>5.978739</ele>
        <time>2022-07-31T09:53:54.000Z</time>
      </trkpt>
      <trkpt lat="49.58634" lon="-1.27168">
        <ele>5.987443</ele>
        <time>2022-07-31T09:53:55.000Z</time>
      </trkpt>
      <trkpt lat="49.58637" lon="-1.27167">
        <ele>5.994451</ele>
        <time>2022-07-31T09:53:56.000Z</time>
      </trkpt>
      <trkpt lat="49.5864" lon="-1.27167">
        <ele>6.002911</ele>
        <time>2022-07-31T09:53:57.000Z</time>
      </trkpt>
      <trkpt lat="49.58643" lon="-1.27166">
        <ele>6.011438</ele>
        <time>2022-07-31T09:53:58.000Z</time>
      </trkpt>
      <trkpt lat="49.58646" lon="-1.27165">
        <ele>6.019254</ele>
        <time>2022-07-31T09:53:59.000Z</time>
      </trkpt>
      <trkpt lat="49.5865" lon="-1.27164">
        <ele>6.028537</ele>
        <time>2022-07-31T09:54:00.000Z</time>
      </trkpt>
      <trkpt lat="49.58652" lon="-1.27163">
        <ele>6.0359</ele>
        <time>2022-07-31T09:54:01.000Z</time>
      </trkpt>
      <trkpt lat="49.58656" lon="-1.27161">
        <ele>6.045411</ele>
        <time>2022-07-31T09:54:02.000Z</time>
      </trkpt>
      <trkpt lat="49.58658" lon="-1.27159">
        <ele>6.053067</ele>
        <time>2022-07-31T09:54:03.000Z</time>
      </trkpt>
      <trkpt lat="49.58661" lon="-1.27157">
        <ele>6.061227</ele>
        <time>2022-07-31T09:54:04.000Z</time>
      </trkpt>
      <trkpt lat="49.58664" lon="-1.27157">
        <ele>6.069754</ele>
        <time>2022-07-31T09:54:05.000Z</time>
      </trkpt>
      <trkpt lat="49.58668" lon="-1.27156">
        <ele>6.078255</ele>
        <time>2022-07-31T09:54:06.000Z</time>
      </trkpt>
      <trkpt lat="49.5867" lon="-1.27155">
        <ele>6.086004</ele>
        <time>2022-07-31T09:54:07.000Z</time>
      </trkpt>
      <trkpt lat="49.58674" lon="-1.27154">
        <ele>6.09531</ele>
        <time>2022-07-31T09:54:08.000Z</time>
      </trkpt>
      <trkpt lat="49.58677" lon="-1.27153">
        <ele>6.105342</ele>
        <time>2022-07-31T09:54:09.000Z</time>
      </trkpt>
      <trkpt lat="49.5868" lon="-1.27152">
        <ele>6.120033</ele>
        <time>2022-07-31T09:54:10.000Z</time>
      </trkpt>
      <trkpt lat="49.58683" lon="-1.27151">
        <ele>6.133403</ele>
        <time>2022-07-31T09:54:11.000Z</time>
      </trkpt>
      <trkpt lat="49.58685" lon="-1.2715">
        <ele>6.146647</ele>
        <time>2022-07-31T09:54:12.000Z</time>
      </trkpt>
      <trkpt lat="49.58688" lon="-1.27149">
        <ele>6.160235</ele>
        <time>2022-07-31T09:54:13.000Z</time>
      </trkpt>
      <trkpt lat="49.58691" lon="-1.27147">
        <ele>6.172725</ele>
        <time>2022-07-31T09:54:14.000Z</time>
      </trkpt>
      <trkpt lat="49.58693" lon="-1.27146">
        <ele>6.184794</ele>
        <time>2022-07-31T09:54:15.000Z</time>
      </trkpt>
      <trkpt lat="49.58696" lon="-1.27145">
        <ele>6.195546</ele>
        <time>2022-07-31T09:54:16.000Z</time>
      </trkpt>
      <trkpt lat="49.58698" lon="-1.27144">
        <ele>6.204335</ele>
        <time>2022-07-31T09:54:17.000Z</time>
      </trkpt>
      <trkpt lat="49.58701" lon="-1.27149">
        <ele>6.223905</ele>
        <time>2022-07-31T09:55:26.000Z</time>
      </trkpt>
      <trkpt lat="49.58702" lon="-1.27153">
        <ele>6.238009</ele>
        <time>2022-07-31T09:55:27.000Z</time>
      </trkpt>
      <trkpt lat="49.58703" lon="-1.27158">
        <ele>6.252025</ele>
        <time>2022-07-31T09:55:28.000Z</time>
      </trkpt>
      <trkpt lat="49.58704" lon="-1.27162">
        <ele>6.266395</ele>
        <time>2022-07-31T09:55:29.000Z</time>
      </trkpt>
      <trkpt lat="49.58705" lon="-1.27167">
        <ele>6.279796</ele>
        <time>2022-07-31T09:55:30.000Z</time>
      </trkpt>
      <trkpt lat="49.58706" lon="-1.27171">
        <ele>6.293672</ele>
        <time>2022-07-31T09:55:31.000Z</time>
      </trkpt>
      <trkpt lat="49.58706" lon="-1.27176">
        <ele>6.307073</ele>
        <time>2022-07-31T09:55:32.000Z</time>
      </trkpt>
      <trkpt lat="49.58708" lon="-1.2718">
        <ele>6.321443</ele>
        <time>2022-07-31T09:55:33.000Z</time>
      </trkpt>
      <trkpt lat="49.58709" lon="-1.27185">
        <ele>6.334494</ele>
        <time>2022-07-31T09:55:34.000Z</time>
      </trkpt>
      <trkpt lat="49.5871" lon="-1.27189">
        <ele>6.347546</ele>
        <time>2022-07-31T09:55:35.000Z</time>
      </trkpt>
      <trkpt lat="49.5871" lon="-1.27193">
        <ele>6.360091</ele>
        <time>2022-07-31T09:55:36.000Z</time>
      </trkpt>
      <trkpt lat="49.58712" lon="-1.27197">
        <ele>6.37393</ele>
        <time>2022-07-31T09:55:37.000Z</time>
      </trkpt>
      <trkpt lat="49.58713" lon="-1.27201">
        <ele>6.386833</ele>
        <time>2022-07-31T09:55:38.000Z</time>
      </trkpt>
      <trkpt lat="49.58713" lon="-1.27206">
        <ele>6.399765</ele>
        <time>2022-07-31T09:55:39.000Z</time>
      </trkpt>
      <trkpt lat="49.58714" lon="-1.2721">
        <ele>6.41406</ele>
        <time>2022-07-31T09:55:40.000Z</time>
      </trkpt>
      <trkpt lat="49.58715" lon="-1.27215">
        <ele>6.427936</ele>
        <time>2022-07-31T09:55:41.000Z</time>
      </trkpt>
      <trkpt lat="49.58716" lon="-1.27219">
        <ele>6.440551</ele>
        <time>2022-07-31T09:55:42.000Z</time>
      </trkpt>
      <trkpt lat="49.58716" lon="-1.27224">
        <ele>6.454617</ele>
        <time>2022-07-31T09:55:43.000Z</time>
      </trkpt>
      <trkpt lat="49.58717" lon="-1.27229">
        <ele>6.469538</ele>
        <time>2022-07-31T09:55:44.000Z</time>
      </trkpt>
      <trkpt lat="49.58717" lon="-1.27234">
        <ele>6.484393</ele>
        <time>2022-07-31T09:55:45.000Z</time>
      </trkpt>
      <trkpt lat="49.58718" lon="-1.27239">
        <ele>6.499314</ele>
        <time>2022-07-31T09:55:46.000Z</time>
      </trkpt>
      <trkpt lat="49.58719" lon="-1.27243">
        <ele>6.513001</ele>
        <time>2022-07-31T09:55:47.000Z</time>
      </trkpt>
      <trkpt lat="49.5872" lon="-1.27248">
        <ele>6.527371</ele>
        <time>2022-07-31T09:55:48.000Z</time>
      </trkpt>
      <trkpt lat="49.58721" lon="-1.27252">
        <ele>6.540772</ele>
        <time>2022-07-31T09:55:49.000Z</time>
      </trkpt>
      <trkpt lat="49.58722" lon="-1.27257">
        <ele>6.554648</ele>
        <time>2022-07-31T09:55:50.000Z</time>
      </trkpt>
      <trkpt lat="49.58723" lon="-1.27261">
        <ele>6.568248</ele>
        <time>2022-07-31T09:55:51.000Z</time>
      </trkpt>
      <trkpt lat="49.58724" lon="-1.27265">
        <ele>6.58137</ele>
        <time>2022-07-31T09:55:52.000Z</time>
      </trkpt>
      <trkpt lat="49.58725" lon="-1.27269">
        <ele>6.595079</ele>
        <time>2022-07-31T09:55:53.000Z</time>
      </trkpt>
      <trkpt lat="49.58727" lon="-1.27273">
        <ele>6.607571</ele>
        <time>2022-07-31T09:55:54.000Z</time>
      </trkpt>
      <trkpt lat="49.58728" lon="-1.27276">
        <ele>6.617977</ele>
        <time>2022-07-31T09:55:55.000Z</time>
      </trkpt>
      <trkpt lat="49.58728" lon="-1.27279">
        <ele>6.627414</ele>
        <time>2022-07-31T09:55:56.000Z</time>
      </trkpt>
      <trkpt lat="49.58728" lon="-1.27283">
        <ele>6.636748</ele>
        <time>2022-07-31T09:55:57.000Z</time>
      </trkpt>
      <trkpt lat="49.58728" lon="-1.27286">
        <ele>6.646179</ele>
        <time>2022-07-31T09:55:58.000Z</time>
      </trkpt>
      <trkpt lat="49.58728" lon="-1.27289">
        <ele>6.655322</ele>
        <time>2022-07-31T09:55:59.000Z</time>
      </trkpt>
      <trkpt lat="49.58727" lon="-1.27292">
        <ele>6.665173</ele>
        <time>2022-07-31T09:56:00.000Z</time>
      </trkpt>
      <trkpt lat="49.58726" lon="-1.27295">
        <ele>6.674889</ele>
        <time>2022-07-31T09:56:01.000Z</time>
      </trkpt>
      <trkpt lat="49.58725" lon="-1.27298">
        <ele>6.684989</ele>
        <time>2022-07-31T09:56:02.000Z</time>
      </trkpt>
      <trkpt lat="49.58724" lon="-1.27301">
        <ele>6.695025</ele>
        <time>2022-07-31T09:56:03.000Z</time>
      </trkpt>
      <trkpt lat="49.58724" lon="-1.27304">
        <ele>6.704325</ele>
        <time>2022-07-31T09:56:04.000Z</time>
      </trkpt>
      <trkpt lat="49.58723" lon="-1.27307">
        <ele>6.713967</ele>
        <time>2022-07-31T09:56:05.000Z</time>
      </trkpt>
      <trkpt lat="49.58722" lon="-1.2731">
        <ele>6.723807</ele>
        <time>2022-07-31T09:56:06.000Z</time>
      </trkpt>
      <trkpt lat="49.58721" lon="-1.27313">
        <ele>6.733131</ele>
        <time>2022-07-31T09:56:07.000Z</time>
      </trkpt>
      <trkpt lat="49.5872" lon="-1.27316">
        <ele>6.742248</ele>
        <time>2022-07-31T09:56:08.000Z</time>
      </trkpt>
      <trkpt lat="49.58718" lon="-1.27318">
        <ele>6.751596</ele>
        <time>2022-07-31T09:56:09.000Z</time>
      </trkpt>
      <trkpt lat="49.58717" lon="-1.27322">
        <ele>6.764912</ele>
        <time>2022-07-31T09:56:11.000Z</time>
      </trkpt>
      <trkpt lat="49.58715" lon="-1.27324">
        <ele>6.774034</ele>
        <time>2022-07-31T09:56:15.000Z</time>
      </trkpt>
      <trkpt lat="49.58721" lon="-1.27335">
        <ele>6.812673</ele>
        <time>2022-07-31T09:56:21.000Z</time>
      </trkpt>
      <trkpt lat="49.58723" lon="-1.27336">
        <ele>6.824884</ele>
        <time>2022-07-31T09:56:22.000Z</time>
      </trkpt>
      <trkpt lat="49.58725" lon="-1.27337">
        <ele>6.83529</ele>
        <time>2022-07-31T09:56:23.000Z</time>
      </trkpt>
      <trkpt lat="49.58728" lon="-1.27338">
        <ele>6.846525</ele>
        <time>2022-07-31T09:56:24.000Z</time>
      </trkpt>
      <trkpt lat="49.5873" lon="-1.2734">
        <ele>6.857348</ele>
        <time>2022-07-31T09:56:25.000Z</time>
      </trkpt>
      <trkpt lat="49.58732" lon="-1.27341">
        <ele>6.868473</ele>
        <time>2022-07-31T09:56:26.000Z</time>
      </trkpt>
      <trkpt lat="49.58734" lon="-1.27342">
        <ele>6.877604</ele>
        <time>2022-07-31T09:56:27.000Z</time>
      </trkpt>
      <trkpt lat="49.58737" lon="-1.27344">
        <ele>6.892832</ele>
        <time>2022-07-31T09:56:29.000Z</time>
      </trkpt>
      <trkpt lat="49.5874" lon="-1.27344">
        <ele>6.902769</ele>
        <time>2022-07-31T09:56:31.000Z</time>
      </trkpt>
      <trkpt lat="49.58746" lon="-1.27348">
        <ele>6.917444</ele>
        <time>2022-07-31T09:56:53.000Z</time>
      </trkpt>
      <trkpt lat="49.58751" lon="-1.27349">
        <ele>6.925715</ele>
        <time>2022-07-31T09:56:54.000Z</time>
      </trkpt>
      <trkpt lat="49.58756" lon="-1.27351">
        <ele>6.933472</ele>
        <time>2022-07-31T09:56:55.000Z</time>
      </trkpt>
      <trkpt lat="49.5876" lon="-1.27354">
        <ele>6.941222</ele>
        <time>2022-07-31T09:56:56.000Z</time>
      </trkpt>
      <trkpt lat="49.58764" lon="-1.27359">
        <ele>6.949775</ele>
        <time>2022-07-31T09:56:57.000Z</time>
      </trkpt>
      <trkpt lat="49.58767" lon="-1.27365">
        <ele>6.958462</ele>
        <time>2022-07-31T09:56:58.000Z</time>
      </trkpt>
      <trkpt lat="49.58769" lon="-1.27373">
        <ele>6.967664</ele>
        <time>2022-07-31T09:56:59.000Z</time>
      </trkpt>
      <trkpt lat="49.58771" lon="-1.27381">
        <ele>6.977014</ele>
        <time>2022-07-31T09:57:00.000Z</time>
      </trkpt>
      <trkpt lat="49.58773" lon="-1.27389">
        <ele>6.986102</ele>
        <time>2022-07-31T09:57:01.000Z</time>
      </trkpt>
      <trkpt lat="49.58774" lon="-1.27398">
        <ele>6.995906</ele>
        <time>2022-07-31T09:57:02.000Z</time>
      </trkpt>
      <trkpt lat="49.58775" lon="-1.27407">
        <ele>7.00588</ele>
        <time>2022-07-31T09:57:03.000Z</time>
      </trkpt>
      <trkpt lat="49.58776" lon="-1.27416">
        <ele>7.015994</ele>
        <time>2022-07-31T09:57:04.000Z</time>
      </trkpt>
      <trkpt lat="49.58778" lon="-1.27425">
        <ele>7.026003</ele>
        <time>2022-07-31T09:57:05.000Z</time>
      </trkpt>
      <trkpt lat="49.58779" lon="-1.27433">
        <ele>7.035377</ele>
        <time>2022-07-31T09:57:06.000Z</time>
      </trkpt>
      <trkpt lat="49.5878" lon="-1.27441">
        <ele>7.044329</ele>
        <time>2022-07-31T09:57:07.000Z</time>
      </trkpt>
      <trkpt lat="49.58781" lon="-1.27449">
        <ele>7.053031</ele>
        <time>2022-07-31T09:57:08.000Z</time>
      </trkpt>
      <trkpt lat="49.58783" lon="-1.27456">
        <ele>7.061395</ele>
        <time>2022-07-31T09:57:09.000Z</time>
      </trkpt>
      <trkpt lat="49.58784" lon="-1.27464">
        <ele>7.069706</ele>
        <time>2022-07-31T09:57:10.000Z</time>
      </trkpt>
      <trkpt lat="49.58786" lon="-1.27471">
        <ele>7.078277</ele>
        <time>2022-07-31T09:57:11.000Z</time>
      </trkpt>
      <trkpt lat="49.58786" lon="-1.27479">
        <ele>7.086479</ele>
        <time>2022-07-31T09:57:12.000Z</time>
      </trkpt>
      <trkpt lat="49.58788" lon="-1.27486">
        <ele>7.094906</ele>
        <time>2022-07-31T09:57:13.000Z</time>
      </trkpt>
      <trkpt lat="49.58789" lon="-1.27494">
        <ele>7.103373</ele>
        <time>2022-07-31T09:57:14.000Z</time>
      </trkpt>
      <trkpt lat="49.58791" lon="-1.27501">
        <ele>7.111532</ele>
        <time>2022-07-31T09:57:15.000Z</time>
      </trkpt>
      <trkpt lat="49.58792" lon="-1.27508">
        <ele>7.119436</ele>
        <time>2022-07-31T09:57:16.000Z</time>
      </trkpt>
      <trkpt lat="49.58794" lon="-1.27515">
        <ele>7.127698</ele>
        <time>2022-07-31T09:57:17.000Z</time>
      </trkpt>
      <trkpt lat="49.58795" lon="-1.27522">
        <ele>7.135959</ele>
        <time>2022-07-31T09:57:18.000Z</time>
      </trkpt>
      <trkpt lat="49.58796" lon="-1.27529">
        <ele>7.143846</ele>
        <time>2022-07-31T09:57:19.000Z</time>
      </trkpt>
      <trkpt lat="49.58797" lon="-1.27537">
        <ele>7.151915</ele>
        <time>2022-07-31T09:57:20.000Z</time>
      </trkpt>
      <trkpt lat="49.58799" lon="-1.27544">
        <ele>7.160132</ele>
        <time>2022-07-31T09:57:21.000Z</time>
      </trkpt>
      <trkpt lat="49.588" lon="-1.27551">
        <ele>7.168454</ele>
        <time>2022-07-31T09:57:22.000Z</time>
      </trkpt>
      <trkpt lat="49.58801" lon="-1.27559">
        <ele>7.176553</ele>
        <time>2022-07-31T09:57:23.000Z</time>
      </trkpt>
      <trkpt lat="49.58803" lon="-1.27567">
        <ele>7.18564</ele>
        <time>2022-07-31T09:57:24.000Z</time>
      </trkpt>
      <trkpt lat="49.58804" lon="-1.27574">
        <ele>7.194025</ele>
        <time>2022-07-31T09:57:25.000Z</time>
      </trkpt>
      <trkpt lat="49.58806" lon="-1.27582">
        <ele>7.203029</ele>
        <time>2022-07-31T09:57:26.000Z</time>
      </trkpt>
      <trkpt lat="49.58807" lon="-1.27589">
        <ele>7.206205</ele>
        <time>2022-07-31T09:57:27.000Z</time>
      </trkpt>
      <trkpt lat="49.58809" lon="-1.27597">
        <ele>7.199466</ele>
        <time>2022-07-31T09:57:28.000Z</time>
      </trkpt>
      <trkpt lat="49.5881" lon="-1.27604">
        <ele>7.192778</ele>
        <time>2022-07-31T09:57:29.000Z</time>
      </trkpt>
      <trkpt lat="49.58811" lon="-1.27612">
        <ele>7.185923</ele>
        <time>2022-07-31T09:57:30.000Z</time>
      </trkpt>
      <trkpt lat="49.58813" lon="-1.2762">
        <ele>7.178957</ele>
        <time>2022-07-31T09:57:31.000Z</time>
      </trkpt>
      <trkpt lat="49.58814" lon="-1.27627">
        <ele>7.172277</ele>
        <time>2022-07-31T09:57:32.000Z</time>
      </trkpt>
      <trkpt lat="49.58815" lon="-1.27635">
        <ele>7.165474</ele>
        <time>2022-07-31T09:57:33.000Z</time>
      </trkpt>
      <trkpt lat="49.58817" lon="-1.27642">
        <ele>7.158672</ele>
        <time>2022-07-31T09:57:34.000Z</time>
      </trkpt>
      <trkpt lat="49.58818" lon="-1.2765">
        <ele>7.151762</ele>
        <time>2022-07-31T09:57:35.000Z</time>
      </trkpt>
      <trkpt lat="49.5882" lon="-1.27658">
        <ele>7.144714</ele>
        <time>2022-07-31T09:57:36.000Z</time>
      </trkpt>
      <trkpt lat="49.58821" lon="-1.27666">
        <ele>7.137859</ele>
        <time>2022-07-31T09:57:37.000Z</time>
      </trkpt>
      <trkpt lat="49.58822" lon="-1.27673">
        <ele>7.131263</ele>
        <time>2022-07-31T09:57:38.000Z</time>
      </trkpt>
      <trkpt lat="49.58823" lon="-1.27681">
        <ele>7.124624</ele>
        <time>2022-07-31T09:57:39.000Z</time>
      </trkpt>
      <trkpt lat="49.58825" lon="-1.27688">
        <ele>7.117822</ele>
        <time>2022-07-31T09:57:40.000Z</time>
      </trkpt>
      <trkpt lat="49.58827" lon="-1.27696">
        <ele>7.110856</ele>
        <time>2022-07-31T09:57:41.000Z</time>
      </trkpt>
      <trkpt lat="49.58828" lon="-1.27703">
        <ele>7.104285</ele>
        <time>2022-07-31T09:57:42.000Z</time>
      </trkpt>
      <trkpt lat="49.58829" lon="-1.27711">
        <ele>7.097597</ele>
        <time>2022-07-31T09:57:43.000Z</time>
      </trkpt>
      <trkpt lat="49.5883" lon="-1.27718">
        <ele>7.091169</ele>
        <time>2022-07-31T09:57:44.000Z</time>
      </trkpt>
      <trkpt lat="49.58831" lon="-1.27726">
        <ele>7.084514</ele>
        <time>2022-07-31T09:57:45.000Z</time>
      </trkpt>
      <trkpt lat="49.58833" lon="-1.27733">
        <ele>7.077875</ele>
        <time>2022-07-31T09:57:46.000Z</time>
      </trkpt>
      <trkpt lat="49.58835" lon="-1.2774">
        <ele>7.070969</ele>
        <time>2022-07-31T09:57:47.000Z</time>
      </trkpt>
      <trkpt lat="49.58836" lon="-1.27747">
        <ele>7.064897</ele>
        <time>2022-07-31T09:57:48.000Z</time>
      </trkpt>
      <trkpt lat="49.58837" lon="-1.27754">
        <ele>7.058907</ele>
        <time>2022-07-31T09:57:49.000Z</time>
      </trkpt>
      <trkpt lat="49.58839" lon="-1.2776">
        <ele>7.052882</ele>
        <time>2022-07-31T09:57:50.000Z</time>
      </trkpt>
      <trkpt lat="49.5884" lon="-1.27767">
        <ele>7.047043</ele>
        <time>2022-07-31T09:57:51.000Z</time>
      </trkpt>
      <trkpt lat="49.58841" lon="-1.27774">
        <ele>7.040853</ele>
        <time>2022-07-31T09:57:52.000Z</time>
      </trkpt>
      <trkpt lat="49.58843" lon="-1.2778">
        <ele>7.034783</ele>
        <time>2022-07-31T09:57:53.000Z</time>
      </trkpt>
      <trkpt lat="49.58844" lon="-1.27787">
        <ele>7.028719</ele>
        <time>2022-07-31T09:57:54.000Z</time>
      </trkpt>
      <trkpt lat="49.58845" lon="-1.27794">
        <ele>7.022487</ele>
        <time>2022-07-31T09:57:55.000Z</time>
      </trkpt>
      <trkpt lat="49.58846" lon="-1.27801">
        <ele>7.01638</ele>
        <time>2022-07-31T09:57:56.000Z</time>
      </trkpt>
      <trkpt lat="49.58848" lon="-1.27808">
        <ele>7.010189</ele>
        <time>2022-07-31T09:57:57.000Z</time>
      </trkpt>
      <trkpt lat="49.58849" lon="-1.27815">
        <ele>7.003957</ele>
        <time>2022-07-31T09:57:58.000Z</time>
      </trkpt>
      <trkpt lat="49.58851" lon="-1.27821">
        <ele>6.99785</ele>
        <time>2022-07-31T09:57:59.000Z</time>
      </trkpt>
      <trkpt lat="49.58852" lon="-1.27828">
        <ele>6.991702</ele>
        <time>2022-07-31T09:58:00.000Z</time>
      </trkpt>
      <trkpt lat="49.58853" lon="-1.27836">
        <ele>6.985358</ele>
        <time>2022-07-31T09:58:01.000Z</time>
      </trkpt>
      <trkpt lat="49.58853" lon="-1.27843">
        <ele>6.979041</ele>
        <time>2022-07-31T09:58:02.000Z</time>
      </trkpt>
      <trkpt lat="49.58855" lon="-1.2785">
        <ele>6.972768</ele>
        <time>2022-07-31T09:58:03.000Z</time>
      </trkpt>
      <trkpt lat="49.58856" lon="-1.27857">
        <ele>6.969436</ele>
        <time>2022-07-31T09:58:04.000Z</time>
      </trkpt>
      <trkpt lat="49.58857" lon="-1.27863">
        <ele>6.969169</ele>
        <time>2022-07-31T09:58:05.000Z</time>
      </trkpt>
      <trkpt lat="49.58858" lon="-1.2787">
        <ele>6.968892</ele>
        <time>2022-07-31T09:58:06.000Z</time>
      </trkpt>
      <trkpt lat="49.58859" lon="-1.27877">
        <ele>6.968615</ele>
        <time>2022-07-31T09:58:07.000Z</time>
      </trkpt>
      <trkpt lat="49.58861" lon="-1.27884">
        <ele>6.968347</ele>
        <time>2022-07-31T09:58:08.000Z</time>
      </trkpt>
      <trkpt lat="49.58861" lon="-1.27891">
        <ele>6.968075</ele>
        <time>2022-07-31T09:58:09.000Z</time>
      </trkpt>
      <trkpt lat="49.58863" lon="-1.27898">
        <ele>6.967789</ele>
        <time>2022-07-31T09:58:10.000Z</time>
      </trkpt>
      <trkpt lat="49.58864" lon="-1.27905">
        <ele>6.967512</ele>
        <time>2022-07-31T09:58:11.000Z</time>
      </trkpt>
      <trkpt lat="49.58865" lon="-1.27912">
        <ele>6.96723</ele>
        <time>2022-07-31T09:58:12.000Z</time>
      </trkpt>
      <trkpt lat="49.58867" lon="-1.27919">
        <ele>6.966935</ele>
        <time>2022-07-31T09:58:13.000Z</time>
      </trkpt>
      <trkpt lat="49.58867" lon="-1.27926">
        <ele>6.966669</ele>
        <time>2022-07-31T09:58:14.000Z</time>
      </trkpt>
      <trkpt lat="49.58869" lon="-1.27933">
        <ele>6.966388</ele>
        <time>2022-07-31T09:58:15.000Z</time>
      </trkpt>
      <trkpt lat="49.58869" lon="-1.2794">
        <ele>6.966118</ele>
        <time>2022-07-31T09:58:16.000Z</time>
      </trkpt>
      <trkpt lat="49.5887" lon="-1.27947">
        <ele>6.965848</ele>
        <time>2022-07-31T09:58:17.000Z</time>
      </trkpt>
      <trkpt lat="49.58871" lon="-1.27953">
        <ele>6.965583</ele>
        <time>2022-07-31T09:58:18.000Z</time>
      </trkpt>
      <trkpt lat="49.58872" lon="-1.2796">
        <ele>6.965316</ele>
        <time>2022-07-31T09:58:19.000Z</time>
      </trkpt>
      <trkpt lat="49.58874" lon="-1.27966">
        <ele>6.965056</ele>
        <time>2022-07-31T09:58:20.000Z</time>
      </trkpt>
      <trkpt lat="49.58875" lon="-1.27972">
        <ele>6.964826</ele>
        <time>2022-07-31T09:58:21.000Z</time>
      </trkpt>
      <trkpt lat="49.58877" lon="-1.27976">
        <ele>6.964627</ele>
        <time>2022-07-31T09:58:22.000Z</time>
      </trkpt>
      <trkpt lat="49.58877" lon="-1.2798">
        <ele>6.964467</ele>
        <time>2022-07-31T09:58:23.000Z</time>
      </trkpt>
      <trkpt lat="49.58879" lon="-1.27984">
        <ele>6.964311</ele>
        <time>2022-07-31T09:58:24.000Z</time>
      </trkpt>
      <trkpt lat="49.5888" lon="-1.27986">
        <ele>6.964187</ele>
        <time>2022-07-31T09:58:25.000Z</time>
      </trkpt>
      <trkpt lat="49.58881" lon="-1.2799">
        <ele>6.964046</ele>
        <time>2022-07-31T09:58:27.000Z</time>
      </trkpt>
      <trkpt lat="49.58882" lon="-1.27992">
        <ele>6.963932</ele>
        <time>2022-07-31T09:58:31.000Z</time>
      </trkpt>
      <trkpt lat="49.58885" lon="-1.28001">
        <ele>6.96357</ele>
        <time>2022-07-31T09:59:25.000Z</time>
      </trkpt>
      <trkpt lat="49.58885" lon="-1.28005">
        <ele>6.963395</ele>
        <time>2022-07-31T09:59:26.000Z</time>
      </trkpt>
      <trkpt lat="49.58887" lon="-1.28009">
        <ele>6.963208</ele>
        <time>2022-07-31T09:59:27.000Z</time>
      </trkpt>
      <trkpt lat="49.58888" lon="-1.28014">
        <ele>6.963009</ele>
        <time>2022-07-31T09:59:28.000Z</time>
      </trkpt>
      <trkpt lat="49.5889" lon="-1.28018">
        <ele>6.962807</ele>
        <time>2022-07-31T09:59:29.000Z</time>
      </trkpt>
      <trkpt lat="49.58891" lon="-1.28023">
        <ele>6.962616</ele>
        <time>2022-07-31T09:59:30.000Z</time>
      </trkpt>
      <trkpt lat="49.58893" lon="-1.28027">
        <ele>6.962421</ele>
        <time>2022-07-31T09:59:31.000Z</time>
      </trkpt>
      <trkpt lat="49.58894" lon="-1.28031">
        <ele>6.962239</ele>
        <time>2022-07-31T09:59:32.000Z</time>
      </trkpt>
      <trkpt lat="49.58896" lon="-1.28035">
        <ele>6.962079</ele>
        <time>2022-07-31T09:59:33.000Z</time>
      </trkpt>
      <trkpt lat="49.58898" lon="-1.28038">
        <ele>6.961909</ele>
        <time>2022-07-31T09:59:34.000Z</time>
      </trkpt>
      <trkpt lat="49.589" lon="-1.28041">
        <ele>6.961741</ele>
        <time>2022-07-31T09:59:35.000Z</time>
      </trkpt>
      <trkpt lat="49.58901" lon="-1.28044">
        <ele>6.96159</ele>
        <time>2022-07-31T09:59:36.000Z</time>
      </trkpt>
      <trkpt lat="49.58903" lon="-1.28047">
        <ele>6.961431</ele>
        <time>2022-07-31T09:59:37.000Z</time>
      </trkpt>
      <trkpt lat="49.58906" lon="-1.28049">
        <ele>6.961242</ele>
        <time>2022-07-31T09:59:38.000Z</time>
      </trkpt>
      <trkpt lat="49.58909" lon="-1.28051">
        <ele>6.96108</ele>
        <time>2022-07-31T09:59:39.000Z</time>
      </trkpt>
      <trkpt lat="49.58911" lon="-1.28053">
        <ele>6.960923</ele>
        <time>2022-07-31T09:59:40.000Z</time>
      </trkpt>
      <trkpt lat="49.58914" lon="-1.28054">
        <ele>6.960745</ele>
        <time>2022-07-31T09:59:41.000Z</time>
      </trkpt>
      <trkpt lat="49.58917" lon="-1.28054">
        <ele>6.96059</ele>
        <time>2022-07-31T09:59:42.000Z</time>
      </trkpt>
      <trkpt lat="49.58919" lon="-1.28054">
        <ele>6.96044</ele>
        <time>2022-07-31T09:59:43.000Z</time>
      </trkpt>
      <trkpt lat="49.58922" lon="-1.28054">
        <ele>6.960267</ele>
        <time>2022-07-31T09:59:44.000Z</time>
      </trkpt>
      <trkpt lat="49.58924" lon="-1.28055">
        <ele>6.960124</ele>
        <time>2022-07-31T09:59:45.000Z</time>
      </trkpt>
      <trkpt lat="49.58926" lon="-1.28056">
        <ele>6.959997</ele>
        <time>2022-07-31T09:59:46.000Z</time>
      </trkpt>
      <trkpt lat="49.58928" lon="-1.2806">
        <ele>6.959815</ele>
        <time>2022-07-31T09:59:48.000Z</time>
      </trkpt>
      <trkpt lat="49.58926" lon="-1.28065">
        <ele>6.959623</ele>
        <time>2022-07-31T09:59:50.000Z</time>
      </trkpt>
      <trkpt lat="49.58924" lon="-1.28067">
        <ele>6.959448</ele>
        <time>2022-07-31T09:59:52.000Z</time>
      </trkpt>
      <trkpt lat="49.58921" lon="-1.28069">
        <ele>6.959246</ele>
        <time>2022-07-31T09:59:54.000Z</time>
      </trkpt>
      <trkpt lat="49.58918" lon="-1.28072">
        <ele>6.959053</ele>
        <time>2022-07-31T09:59:56.000Z</time>
      </trkpt>
      <trkpt lat="49.58916" lon="-1.28073">
        <ele>6.958945</ele>
        <time>2022-07-31T09:59:57.000Z</time>
      </trkpt>
      <trkpt lat="49.58913" lon="-1.28076">
        <ele>6.964056</ele>
        <time>2022-07-31T09:59:59.000Z</time>
      </trkpt>
      <trkpt lat="49.58911" lon="-1.2808">
        <ele>6.974845</ele>
        <time>2022-07-31T10:00:01.000Z</time>
      </trkpt>
      <trkpt lat="49.58909" lon="-1.28085">
        <ele>6.986713</ele>
        <time>2022-07-31T10:00:03.000Z</time>
      </trkpt>
      <trkpt lat="49.58909" lon="-1.28088">
        <ele>6.992472</ele>
        <time>2022-07-31T10:00:04.000Z</time>
      </trkpt>
      <trkpt lat="49.58908" lon="-1.28091">
        <ele>6.998906</ele>
        <time>2022-07-31T10:00:05.000Z</time>
      </trkpt>
      <trkpt lat="49.58907" lon="-1.28094">
        <ele>7.00524</ele>
        <time>2022-07-31T10:00:06.000Z</time>
      </trkpt>
      <trkpt lat="49.58907" lon="-1.28097">
        <ele>7.011964</ele>
        <time>2022-07-31T10:00:07.000Z</time>
      </trkpt>
      <trkpt lat="49.58906" lon="-1.28101">
        <ele>7.019162</ele>
        <time>2022-07-31T10:00:08.000Z</time>
      </trkpt>
      <trkpt lat="49.58907" lon="-1.28104">
        <ele>7.026532</ele>
        <time>2022-07-31T10:00:09.000Z</time>
      </trkpt>
      <trkpt lat="49.58907" lon="-1.28108">
        <ele>7.034401</ele>
        <time>2022-07-31T10:00:10.000Z</time>
      </trkpt>
      <trkpt lat="49.58907" lon="-1.28112">
        <ele>7.042674</ele>
        <time>2022-07-31T10:00:11.000Z</time>
      </trkpt>
      <trkpt lat="49.58907" lon="-1.28117">
        <ele>7.051148</ele>
        <time>2022-07-31T10:00:12.000Z</time>
      </trkpt>
      <trkpt lat="49.58907" lon="-1.28121">
        <ele>7.059875</ele>
        <time>2022-07-31T10:00:13.000Z</time>
      </trkpt>
      <trkpt lat="49.58908" lon="-1.28125">
        <ele>7.069184</ele>
        <time>2022-07-31T10:00:14.000Z</time>
      </trkpt>
      <trkpt lat="49.58908" lon="-1.2813">
        <ele>7.078349</ele>
        <time>2022-07-31T10:00:15.000Z</time>
      </trkpt>
      <trkpt lat="49.58908" lon="-1.28135">
        <ele>7.088437</ele>
        <time>2022-07-31T10:00:16.000Z</time>
      </trkpt>
      <trkpt lat="49.58908" lon="-1.2814">
        <ele>7.098728</ele>
        <time>2022-07-31T10:00:17.000Z</time>
      </trkpt>
      <trkpt lat="49.58908" lon="-1.28145">
        <ele>7.108615</ele>
        <time>2022-07-31T10:00:18.000Z</time>
      </trkpt>
      <trkpt lat="49.58908" lon="-1.28149">
        <ele>7.11778</ele>
        <time>2022-07-31T10:00:19.000Z</time>
      </trkpt>
      <trkpt lat="49.58908" lon="-1.28154">
        <ele>7.127465</ele>
        <time>2022-07-31T10:00:20.000Z</time>
      </trkpt>
      <trkpt lat="49.58908" lon="-1.28159">
        <ele>7.137029</ele>
        <time>2022-07-31T10:00:21.000Z</time>
      </trkpt>
      <trkpt lat="49.58908" lon="-1.28163">
        <ele>7.146311</ele>
        <time>2022-07-31T10:00:22.000Z</time>
      </trkpt>
      <trkpt lat="49.58909" lon="-1.28168">
        <ele>7.156571</ele>
        <time>2022-07-31T10:00:23.000Z</time>
      </trkpt>
      <trkpt lat="49.58909" lon="-1.28173">
        <ele>7.166054</ele>
        <time>2022-07-31T10:00:24.000Z</time>
      </trkpt>
      <trkpt lat="49.58909" lon="-1.28178">
        <ele>7.175182</ele>
        <time>2022-07-31T10:00:25.000Z</time>
      </trkpt>
      <trkpt lat="49.5891" lon="-1.28182">
        <ele>7.185355</ele>
        <time>2022-07-31T10:00:26.000Z</time>
      </trkpt>
      <trkpt lat="49.58911" lon="-1.28187">
        <ele>7.19502</ele>
        <time>2022-07-31T10:00:27.000Z</time>
      </trkpt>
      <trkpt lat="49.58912" lon="-1.28191">
        <ele>7.204504</ele>
        <time>2022-07-31T10:00:28.000Z</time>
      </trkpt>
      <trkpt lat="49.58914" lon="-1.28194">
        <ele>7.212035</ele>
        <time>2022-07-31T10:00:29.000Z</time>
      </trkpt>
      <trkpt lat="49.58914" lon="-1.28198">
        <ele>7.220561</ele>
        <time>2022-07-31T10:00:31.000Z</time>
      </trkpt>
      <trkpt lat="49.58917" lon="-1.28206">
        <ele>7.238704</ele>
        <time>2022-07-31T10:02:29.000Z</time>
      </trkpt>
      <trkpt lat="49.58918" lon="-1.28209">
        <ele>7.244948</ele>
        <time>2022-07-31T10:02:30.000Z</time>
      </trkpt>
      <trkpt lat="49.58918" lon="-1.28212">
        <ele>7.251073</ele>
        <time>2022-07-31T10:02:31.000Z</time>
      </trkpt>
      <trkpt lat="49.58918" lon="-1.28215">
        <ele>7.257397</ele>
        <time>2022-07-31T10:02:32.000Z</time>
      </trkpt>
      <trkpt lat="49.58919" lon="-1.28219">
        <ele>7.265093</ele>
        <time>2022-07-31T10:02:33.000Z</time>
      </trkpt>
      <trkpt lat="49.5892" lon="-1.28222">
        <ele>7.273064</ele>
        <time>2022-07-31T10:02:34.000Z</time>
      </trkpt>
      <trkpt lat="49.5892" lon="-1.28227">
        <ele>7.281741</ele>
        <time>2022-07-31T10:02:35.000Z</time>
      </trkpt>
      <trkpt lat="49.58921" lon="-1.28231">
        <ele>7.290468</ele>
        <time>2022-07-31T10:02:36.000Z</time>
      </trkpt>
      <trkpt lat="49.58921" lon="-1.28235">
        <ele>7.298435</ele>
        <time>2022-07-31T10:02:37.000Z</time>
      </trkpt>
      <trkpt lat="49.58921" lon="-1.28238">
        <ele>7.305558</ele>
        <time>2022-07-31T10:02:38.000Z</time>
      </trkpt>
      <trkpt lat="49.58922" lon="-1.28242">
        <ele>7.313156</ele>
        <time>2022-07-31T10:02:39.000Z</time>
      </trkpt>
      <trkpt lat="49.58923" lon="-1.28245">
        <ele>7.319929</ele>
        <time>2022-07-31T10:02:40.000Z</time>
      </trkpt>
      <trkpt lat="49.58923" lon="-1.28248">
        <ele>7.326653</ele>
        <time>2022-07-31T10:02:41.000Z</time>
      </trkpt>
      <trkpt lat="49.58923" lon="-1.28252">
        <ele>7.333177</ele>
        <time>2022-07-31T10:02:42.000Z</time>
      </trkpt>
      <trkpt lat="49.58923" lon="-1.28255">
        <ele>7.33923</ele>
        <time>2022-07-31T10:02:43.000Z</time>
      </trkpt>
      <trkpt lat="49.58923" lon="-1.28258">
        <ele>7.345687</ele>
        <time>2022-07-31T10:02:44.000Z</time>
      </trkpt>
      <trkpt lat="49.58924" lon="-1.28261">
        <ele>7.352602</ele>
        <time>2022-07-31T10:02:45.000Z</time>
      </trkpt>
      <trkpt lat="49.58924" lon="-1.28265">
        <ele>7.360171</ele>
        <time>2022-07-31T10:02:46.000Z</time>
      </trkpt>
      <trkpt lat="49.58925" lon="-1.28269">
        <ele>7.368296</ele>
        <time>2022-07-31T10:02:47.000Z</time>
      </trkpt>
      <trkpt lat="49.58925" lon="-1.28273">
        <ele>7.37658</ele>
        <time>2022-07-31T10:02:48.000Z</time>
      </trkpt>
      <trkpt lat="49.58926" lon="-1.28277">
        <ele>7.385419</ele>
        <time>2022-07-31T10:02:49.000Z</time>
      </trkpt>
      <trkpt lat="49.58927" lon="-1.28281">
        <ele>7.394097</ele>
        <time>2022-07-31T10:02:50.000Z</time>
      </trkpt>
      <trkpt lat="49.58928" lon="-1.28285">
        <ele>7.403314</ele>
        <time>2022-07-31T10:02:51.000Z</time>
      </trkpt>
      <trkpt lat="49.58928" lon="-1.2829">
        <ele>7.411992</ele>
        <time>2022-07-31T10:02:52.000Z</time>
      </trkpt>
      <trkpt lat="49.58929" lon="-1.28294">
        <ele>7.420718</ele>
        <time>2022-07-31T10:02:53.000Z</time>
      </trkpt>
      <trkpt lat="49.5893" lon="-1.28298">
        <ele>7.430317</ele>
        <time>2022-07-31T10:02:54.000Z</time>
      </trkpt>
      <trkpt lat="49.58931" lon="-1.28303">
        <ele>7.440627</ele>
        <time>2022-07-31T10:02:55.000Z</time>
      </trkpt>
      <trkpt lat="49.58932" lon="-1.28308">
        <ele>7.450515</ele>
        <time>2022-07-31T10:02:56.000Z</time>
      </trkpt>
      <trkpt lat="49.58933" lon="-1.28313">
        <ele>7.460443</ele>
        <time>2022-07-31T10:02:57.000Z</time>
      </trkpt>
      <trkpt lat="49.58934" lon="-1.28317">
        <ele>7.470939</ele>
        <time>2022-07-31T10:02:58.000Z</time>
      </trkpt>
      <trkpt lat="49.58935" lon="-1.28322">
        <ele>7.481409</ele>
        <time>2022-07-31T10:02:59.000Z</time>
      </trkpt>
      <trkpt lat="49.58935" lon="-1.28328">
        <ele>7.491943</ele>
        <time>2022-07-31T10:03:00.000Z</time>
      </trkpt>
      <trkpt lat="49.58936" lon="-1.28333">
        <ele>7.503188</ele>
        <time>2022-07-31T10:03:01.000Z</time>
      </trkpt>
      <trkpt lat="49.58937" lon="-1.28338">
        <ele>7.513707</ele>
        <time>2022-07-31T10:03:02.000Z</time>
      </trkpt>
      <trkpt lat="49.58938" lon="-1.28343">
        <ele>7.517471</ele>
        <time>2022-07-31T10:03:03.000Z</time>
      </trkpt>
      <trkpt lat="49.58939" lon="-1.28349">
        <ele>7.5154</ele>
        <time>2022-07-31T10:03:04.000Z</time>
      </trkpt>
      <trkpt lat="49.5894" lon="-1.28354">
        <ele>7.513381</ele>
        <time>2022-07-31T10:03:05.000Z</time>
      </trkpt>
      <trkpt lat="49.58941" lon="-1.28359">
        <ele>7.511387</ele>
        <time>2022-07-31T10:03:06.000Z</time>
      </trkpt>
      <trkpt lat="49.58942" lon="-1.28365">
        <ele>7.509229</ele>
        <time>2022-07-31T10:03:07.000Z</time>
      </trkpt>
      <trkpt lat="49.58943" lon="-1.28371">
        <ele>7.507066</ele>
        <time>2022-07-31T10:03:08.000Z</time>
      </trkpt>
      <trkpt lat="49.58944" lon="-1.28376">
        <ele>7.504839</ele>
        <time>2022-07-31T10:03:09.000Z</time>
      </trkpt>
      <trkpt lat="49.58945" lon="-1.28382">
        <ele>7.502746</ele>
        <time>2022-07-31T10:03:10.000Z</time>
      </trkpt>
      <trkpt lat="49.58946" lon="-1.28388">
        <ele>7.500449</ele>
        <time>2022-07-31T10:03:11.000Z</time>
      </trkpt>
      <trkpt lat="49.58947" lon="-1.28393">
        <ele>7.498308</ele>
        <time>2022-07-31T10:03:12.000Z</time>
      </trkpt>
      <trkpt lat="49.58948" lon="-1.28399">
        <ele>7.496145</ele>
        <time>2022-07-31T10:03:13.000Z</time>
      </trkpt>
      <trkpt lat="49.58949" lon="-1.28404">
        <ele>7.494286</ele>
        <time>2022-07-31T10:03:14.000Z</time>
      </trkpt>
      <trkpt lat="49.5895" lon="-1.28408">
        <ele>7.492554</ele>
        <time>2022-07-31T10:03:15.000Z</time>
      </trkpt>
      <trkpt lat="49.58952" lon="-1.28411">
        <ele>7.490975</ele>
        <time>2022-07-31T10:03:16.000Z</time>
      </trkpt>
      <trkpt lat="49.58953" lon="-1.28415">
        <ele>7.489599</ele>
        <time>2022-07-31T10:03:17.000Z</time>
      </trkpt>
      <trkpt lat="49.58954" lon="-1.28418">
        <ele>7.488106</ele>
        <time>2022-07-31T10:03:18.000Z</time>
      </trkpt>
      <trkpt lat="49.58955" lon="-1.28422">
        <ele>7.486615</ele>
        <time>2022-07-31T10:03:19.000Z</time>
      </trkpt>
      <trkpt lat="49.58956" lon="-1.28426">
        <ele>7.485019</ele>
        <time>2022-07-31T10:03:20.000Z</time>
      </trkpt>
      <trkpt lat="49.58957" lon="-1.28431">
        <ele>7.483349</ele>
        <time>2022-07-31T10:03:21.000Z</time>
      </trkpt>
      <trkpt lat="49.58958" lon="-1.28435">
        <ele>7.481499</ele>
        <time>2022-07-31T10:03:22.000Z</time>
      </trkpt>
      <trkpt lat="49.58958" lon="-1.28441">
        <ele>7.479552</ele>
        <time>2022-07-31T10:03:23.000Z</time>
      </trkpt>
      <trkpt lat="49.58959" lon="-1.28446">
        <ele>7.477677</ele>
        <time>2022-07-31T10:03:24.000Z</time>
      </trkpt>
      <trkpt lat="49.5896" lon="-1.2845">
        <ele>7.475819</ele>
        <time>2022-07-31T10:03:25.000Z</time>
      </trkpt>
      <trkpt lat="49.5896" lon="-1.28455">
        <ele>7.474151</ele>
        <time>2022-07-31T10:03:26.000Z</time>
      </trkpt>
      <trkpt lat="49.58962" lon="-1.28459">
        <ele>7.472335</ele>
        <time>2022-07-31T10:03:27.000Z</time>
      </trkpt>
      <trkpt lat="49.58962" lon="-1.28464">
        <ele>7.47046</ele>
        <time>2022-07-31T10:03:28.000Z</time>
      </trkpt>
      <trkpt lat="49.58963" lon="-1.28469">
        <ele>7.468611</ele>
        <time>2022-07-31T10:03:29.000Z</time>
      </trkpt>
      <trkpt lat="49.58964" lon="-1.28474">
        <ele>7.466662</ele>
        <time>2022-07-31T10:03:30.000Z</time>
      </trkpt>
      <trkpt lat="49.58965" lon="-1.2848">
        <ele>7.464632</ele>
        <time>2022-07-31T10:03:31.000Z</time>
      </trkpt>
      <trkpt lat="49.58966" lon="-1.28485">
        <ele>7.462714</ele>
        <time>2022-07-31T10:03:32.000Z</time>
      </trkpt>
      <trkpt lat="49.58966" lon="-1.28489">
        <ele>7.461021</ele>
        <time>2022-07-31T10:03:33.000Z</time>
      </trkpt>
      <trkpt lat="49.58967" lon="-1.28494">
        <ele>7.459353</ele>
        <time>2022-07-31T10:03:34.000Z</time>
      </trkpt>
      <trkpt lat="49.58968" lon="-1.28498">
        <ele>7.457604</ele>
        <time>2022-07-31T10:03:35.000Z</time>
      </trkpt>
      <trkpt lat="49.58968" lon="-1.28503">
        <ele>7.455863</ele>
        <time>2022-07-31T10:03:36.000Z</time>
      </trkpt>
      <trkpt lat="49.58969" lon="-1.28507">
        <ele>7.454157</ele>
        <time>2022-07-31T10:03:37.000Z</time>
      </trkpt>
      <trkpt lat="49.5897" lon="-1.28512">
        <ele>7.452464</ele>
        <time>2022-07-31T10:03:38.000Z</time>
      </trkpt>
      <trkpt lat="49.5897" lon="-1.28516">
        <ele>7.450698</ele>
        <time>2022-07-31T10:03:39.000Z</time>
      </trkpt>
      <trkpt lat="49.58971" lon="-1.28521">
        <ele>7.449063</ele>
        <time>2022-07-31T10:03:40.000Z</time>
      </trkpt>
      <trkpt lat="49.58972" lon="-1.28525">
        <ele>7.447442</ele>
        <time>2022-07-31T10:03:41.000Z</time>
      </trkpt>
      <trkpt lat="49.58972" lon="-1.28529">
        <ele>7.445843</ele>
        <time>2022-07-31T10:03:42.000Z</time>
      </trkpt>
      <trkpt lat="49.58973" lon="-1.28533">
        <ele>7.444286</ele>
        <time>2022-07-31T10:03:43.000Z</time>
      </trkpt>
      <trkpt lat="49.58973" lon="-1.28537">
        <ele>7.44269</ele>
        <time>2022-07-31T10:03:44.000Z</time>
      </trkpt>
      <trkpt lat="49.58974" lon="-1.28542">
        <ele>7.441125</ele>
        <time>2022-07-31T10:03:45.000Z</time>
      </trkpt>
      <trkpt lat="49.58974" lon="-1.28546">
        <ele>7.439611</ele>
        <time>2022-07-31T10:03:46.000Z</time>
      </trkpt>
      <trkpt lat="49.58976" lon="-1.2855">
        <ele>7.437896</ele>
        <time>2022-07-31T10:03:47.000Z</time>
      </trkpt>
      <trkpt lat="49.58976" lon="-1.28554">
        <ele>7.436375</ele>
        <time>2022-07-31T10:03:48.000Z</time>
      </trkpt>
      <trkpt lat="49.58977" lon="-1.28558">
        <ele>7.434789</ele>
        <time>2022-07-31T10:03:49.000Z</time>
      </trkpt>
      <trkpt lat="49.58978" lon="-1.28562">
        <ele>7.43314</ele>
        <time>2022-07-31T10:03:50.000Z</time>
      </trkpt>
      <trkpt lat="49.58978" lon="-1.28567">
        <ele>7.431472</ele>
        <time>2022-07-31T10:03:51.000Z</time>
      </trkpt>
      <trkpt lat="49.58978" lon="-1.28571">
        <ele>7.429998</ele>
        <time>2022-07-31T10:03:52.000Z</time>
      </trkpt>
      <trkpt lat="49.58978" lon="-1.28575">
        <ele>7.428477</ele>
        <time>2022-07-31T10:03:53.000Z</time>
      </trkpt>
      <trkpt lat="49.58979" lon="-1.28579">
        <ele>7.426839</ele>
        <time>2022-07-31T10:03:54.000Z</time>
      </trkpt>
      <trkpt lat="49.5898" lon="-1.28584">
        <ele>7.425068</ele>
        <time>2022-07-31T10:03:55.000Z</time>
      </trkpt>
      <trkpt lat="49.5898" lon="-1.28588">
        <ele>7.423362</ele>
        <time>2022-07-31T10:03:56.000Z</time>
      </trkpt>
      <trkpt lat="49.58981" lon="-1.28593">
        <ele>7.421523</ele>
        <time>2022-07-31T10:03:57.000Z</time>
      </trkpt>
      <trkpt lat="49.58982" lon="-1.28598">
        <ele>7.419606</ele>
        <time>2022-07-31T10:03:58.000Z</time>
      </trkpt>
      <trkpt lat="49.58983" lon="-1.28603">
        <ele>7.417731</ele>
        <time>2022-07-31T10:03:59.000Z</time>
      </trkpt>
      <trkpt lat="49.58984" lon="-1.28608">
        <ele>7.41367</ele>
        <time>2022-07-31T10:04:00.000Z</time>
      </trkpt>
      <trkpt lat="49.58984" lon="-1.28612">
        <ele>7.406144</ele>
        <time>2022-07-31T10:04:01.000Z</time>
      </trkpt>
      <trkpt lat="49.58984" lon="-1.28617">
        <ele>7.398272</ele>
        <time>2022-07-31T10:04:02.000Z</time>
      </trkpt>
      <trkpt lat="49.58985" lon="-1.28621">
        <ele>7.390487</ele>
        <time>2022-07-31T10:04:03.000Z</time>
      </trkpt>
      <trkpt lat="49.58986" lon="-1.28625">
        <ele>7.38385</ele>
        <time>2022-07-31T10:04:04.000Z</time>
      </trkpt>
      <trkpt lat="49.58987" lon="-1.28628">
        <ele>7.378138</ele>
        <time>2022-07-31T10:04:05.000Z</time>
      </trkpt>
      <trkpt lat="49.58988" lon="-1.28631">
        <ele>7.372386</ele>
        <time>2022-07-31T10:04:06.000Z</time>
      </trkpt>
      <trkpt lat="49.58988" lon="-1.28634">
        <ele>7.366178</ele>
        <time>2022-07-31T10:04:07.000Z</time>
      </trkpt>
      <trkpt lat="49.58989" lon="-1.28638">
        <ele>7.359134</ele>
        <time>2022-07-31T10:04:08.000Z</time>
      </trkpt>
      <trkpt lat="49.5899" lon="-1.28642">
        <ele>7.352092</ele>
        <time>2022-07-31T10:04:09.000Z</time>
      </trkpt>
      <trkpt lat="49.58991" lon="-1.28646">
        <ele>7.344063</ele>
        <time>2022-07-31T10:04:10.000Z</time>
      </trkpt>
      <trkpt lat="49.58992" lon="-1.28651">
        <ele>7.335491</ele>
        <time>2022-07-31T10:04:11.000Z</time>
      </trkpt>
      <trkpt lat="49.58993" lon="-1.28655">
        <ele>7.327235</ele>
        <time>2022-07-31T10:04:12.000Z</time>
      </trkpt>
      <trkpt lat="49.58994" lon="-1.28659">
        <ele>7.319581</ele>
        <time>2022-07-31T10:04:13.000Z</time>
      </trkpt>
      <trkpt lat="49.58995" lon="-1.28664">
        <ele>7.311697</ele>
        <time>2022-07-31T10:04:14.000Z</time>
      </trkpt>
      <trkpt lat="49.58995" lon="-1.28668">
        <ele>7.304383</ele>
        <time>2022-07-31T10:04:15.000Z</time>
      </trkpt>
      <trkpt lat="49.58995" lon="-1.28672">
        <ele>7.2969</ele>
        <time>2022-07-31T10:04:16.000Z</time>
      </trkpt>
      <trkpt lat="49.58994" lon="-1.28676">
        <ele>7.289341</ele>
        <time>2022-07-31T10:04:17.000Z</time>
      </trkpt>
      <trkpt lat="49.58994" lon="-1.28681">
        <ele>7.282032</ele>
        <time>2022-07-31T10:04:18.000Z</time>
      </trkpt>
      <trkpt lat="49.58994" lon="-1.28685">
        <ele>7.275072</ele>
        <time>2022-07-31T10:04:19.000Z</time>
      </trkpt>
      <trkpt lat="49.58995" lon="-1.28689">
        <ele>7.267123</ele>
        <time>2022-07-31T10:04:20.000Z</time>
      </trkpt>
      <trkpt lat="49.58996" lon="-1.28693">
        <ele>7.25901</ele>
        <time>2022-07-31T10:04:21.000Z</time>
      </trkpt>
      <trkpt lat="49.58997" lon="-1.28697">
        <ele>7.251642</ele>
        <time>2022-07-31T10:04:22.000Z</time>
      </trkpt>
      <trkpt lat="49.58997" lon="-1.28701">
        <ele>7.244981</ele>
        <time>2022-07-31T10:04:23.000Z</time>
      </trkpt>
      <trkpt lat="49.58998" lon="-1.28705">
        <ele>7.237435</ele>
        <time>2022-07-31T10:04:24.000Z</time>
      </trkpt>
      <trkpt lat="49.58999" lon="-1.28709">
        <ele>7.229493</ele>
        <time>2022-07-31T10:04:25.000Z</time>
      </trkpt>
      <trkpt lat="49.59" lon="-1.28714">
        <ele>7.221669</ele>
        <time>2022-07-31T10:04:26.000Z</time>
      </trkpt>
      <trkpt lat="49.59001" lon="-1.28718">
        <ele>7.213504</ele>
        <time>2022-07-31T10:04:27.000Z</time>
      </trkpt>
      <trkpt lat="49.59002" lon="-1.28723">
        <ele>7.204931</ele>
        <time>2022-07-31T10:04:28.000Z</time>
      </trkpt>
      <trkpt lat="49.59004" lon="-1.28727">
        <ele>7.196153</ele>
        <time>2022-07-31T10:04:29.000Z</time>
      </trkpt>
      <trkpt lat="49.59005" lon="-1.28731">
        <ele>7.187524</ele>
        <time>2022-07-31T10:04:30.000Z</time>
      </trkpt>
      <trkpt lat="49.59007" lon="-1.28735">
        <ele>7.179405</ele>
        <time>2022-07-31T10:04:31.000Z</time>
      </trkpt>
      <trkpt lat="49.59009" lon="-1.28738">
        <ele>7.171462</ele>
        <time>2022-07-31T10:04:32.000Z</time>
      </trkpt>
      <trkpt lat="49.59012" lon="-1.28742">
        <ele>7.163225</ele>
        <time>2022-07-31T10:04:33.000Z</time>
      </trkpt>
      <trkpt lat="49.59013" lon="-1.28745">
        <ele>7.155674</ele>
        <time>2022-07-31T10:04:34.000Z</time>
      </trkpt>
      <trkpt lat="49.59016" lon="-1.28747">
        <ele>7.14802</ele>
        <time>2022-07-31T10:04:35.000Z</time>
      </trkpt>
      <trkpt lat="49.59018" lon="-1.28749">
        <ele>7.140539</ele>
        <time>2022-07-31T10:04:36.000Z</time>
      </trkpt>
      <trkpt lat="49.5902" lon="-1.2875">
        <ele>7.134839</ele>
        <time>2022-07-31T10:04:37.000Z</time>
      </trkpt>
      <trkpt lat="49.59022" lon="-1.28751">
        <ele>7.12887</ele>
        <time>2022-07-31T10:04:38.000Z</time>
      </trkpt>
      <trkpt lat="49.59025" lon="-1.28751">
        <ele>7.121857</ele>
        <time>2022-07-31T10:04:39.000Z</time>
      </trkpt>
      <trkpt lat="49.59027" lon="-1.28752">
        <ele>7.11586</ele>
        <time>2022-07-31T10:04:40.000Z</time>
      </trkpt>
      <trkpt lat="49.59029" lon="-1.28754">
        <ele>7.109782</ele>
        <time>2022-07-31T10:04:41.000Z</time>
      </trkpt>
      <trkpt lat="49.5903" lon="-1.28757">
        <ele>7.103357</ele>
        <time>2022-07-31T10:04:42.000Z</time>
      </trkpt>
      <trkpt lat="49.59032" lon="-1.2876">
        <ele>7.096786</ele>
        <time>2022-07-31T10:04:43.000Z</time>
      </trkpt>
      <trkpt lat="49.59033" lon="-1.28764">
        <ele>7.089463</ele>
        <time>2022-07-31T10:04:44.000Z</time>
      </trkpt>
      <trkpt lat="49.59033" lon="-1.28768">
        <ele>7.082456</ele>
        <time>2022-07-31T10:04:45.000Z</time>
      </trkpt>
      <trkpt lat="49.59034" lon="-1.28772">
        <ele>7.074931</ele>
        <time>2022-07-31T10:04:46.000Z</time>
      </trkpt>
      <trkpt lat="49.59034" lon="-1.28776">
        <ele>7.067578</ele>
        <time>2022-07-31T10:04:47.000Z</time>
      </trkpt>
      <trkpt lat="49.59034" lon="-1.28781">
        <ele>7.059707</ele>
        <time>2022-07-31T10:04:48.000Z</time>
      </trkpt>
      <trkpt lat="49.59034" lon="-1.28785">
        <ele>7.051876</ele>
        <time>2022-07-31T10:04:49.000Z</time>
      </trkpt>
      <trkpt lat="49.59036" lon="-1.2879">
        <ele>7.04362</ele>
        <time>2022-07-31T10:04:50.000Z</time>
      </trkpt>
      <trkpt lat="49.59037" lon="-1.28794">
        <ele>7.035835</ele>
        <time>2022-07-31T10:04:51.000Z</time>
      </trkpt>
      <trkpt lat="49.59037" lon="-1.28798">
        <ele>7.027972</ele>
        <time>2022-07-31T10:04:52.000Z</time>
      </trkpt>
      <trkpt lat="49.59038" lon="-1.28802">
        <ele>7.020023</ele>
        <time>2022-07-31T10:04:53.000Z</time>
      </trkpt>
      <trkpt lat="49.5904" lon="-1.28807">
        <ele>7.010786</ele>
        <time>2022-07-31T10:04:54.000Z</time>
      </trkpt>
      <trkpt lat="49.59042" lon="-1.28812">
        <ele>7.001441</ele>
        <time>2022-07-31T10:04:55.000Z</time>
      </trkpt>
      <trkpt lat="49.59044" lon="-1.28816">
        <ele>6.992096</ele>
        <time>2022-07-31T10:04:56.000Z</time>
      </trkpt>
      <trkpt lat="49.59046" lon="-1.2882">
        <ele>6.982396</ele>
        <time>2022-07-31T10:04:57.000Z</time>
      </trkpt>
      <trkpt lat="49.59048" lon="-1.28825">
        <ele>6.973</ele>
        <time>2022-07-31T10:04:58.000Z</time>
      </trkpt>
      <trkpt lat="49.59051" lon="-1.28828">
        <ele>6.962786</ele>
        <time>2022-07-31T10:04:59.000Z</time>
      </trkpt>
      <trkpt lat="49.59054" lon="-1.28832">
        <ele>6.953215</ele>
        <time>2022-07-31T10:05:00.000Z</time>
      </trkpt>
      <trkpt lat="49.59057" lon="-1.28834">
        <ele>6.943587</ele>
        <time>2022-07-31T10:05:01.000Z</time>
      </trkpt>
      <trkpt lat="49.5906" lon="-1.28836">
        <ele>6.93506</ele>
        <time>2022-07-31T10:05:02.000Z</time>
      </trkpt>
      <trkpt lat="49.59063" lon="-1.28838">
        <ele>6.942938</ele>
        <time>2022-07-31T10:05:03.000Z</time>
      </trkpt>
      <trkpt lat="49.59066" lon="-1.28841">
        <ele>6.952179</ele>
        <time>2022-07-31T10:05:04.000Z</time>
      </trkpt>
      <trkpt lat="49.59068" lon="-1.28843">
        <ele>6.960881</ele>
        <time>2022-07-31T10:05:05.000Z</time>
      </trkpt>
      <trkpt lat="49.5907" lon="-1.28846">
        <ele>6.969513</ele>
        <time>2022-07-31T10:05:06.000Z</time>
      </trkpt>
      <trkpt lat="49.59071" lon="-1.28849">
        <ele>6.976939</ele>
        <time>2022-07-31T10:05:07.000Z</time>
      </trkpt>
      <trkpt lat="49.59072" lon="-1.28853">
        <ele>6.984613</ele>
        <time>2022-07-31T10:05:08.000Z</time>
      </trkpt>
      <trkpt lat="49.59072" lon="-1.28856">
        <ele>6.992434</ele>
        <time>2022-07-31T10:05:09.000Z</time>
      </trkpt>
      <trkpt lat="49.59072" lon="-1.28861">
        <ele>7.001489</ele>
        <time>2022-07-31T10:05:10.000Z</time>
      </trkpt>
      <trkpt lat="49.59072" lon="-1.28865">
        <ele>7.010338</ele>
        <time>2022-07-31T10:05:11.000Z</time>
      </trkpt>
      <trkpt lat="49.59072" lon="-1.2887">
        <ele>7.020011</ele>
        <time>2022-07-31T10:05:12.000Z</time>
      </trkpt>
      <trkpt lat="49.59072" lon="-1.28874">
        <ele>7.029478</ele>
        <time>2022-07-31T10:05:13.000Z</time>
      </trkpt>
      <trkpt lat="49.59072" lon="-1.28879">
        <ele>7.039768</ele>
        <time>2022-07-31T10:05:14.000Z</time>
      </trkpt>
      <trkpt lat="49.59072" lon="-1.28885">
        <ele>7.050512</ele>
        <time>2022-07-31T10:05:15.000Z</time>
      </trkpt>
      <trkpt lat="49.59072" lon="-1.2889">
        <ele>7.061461</ele>
        <time>2022-07-31T10:05:16.000Z</time>
      </trkpt>
      <trkpt lat="49.59072" lon="-1.28895">
        <ele>7.071545</ele>
        <time>2022-07-31T10:05:17.000Z</time>
      </trkpt>
      <trkpt lat="49.59072" lon="-1.289">
        <ele>7.081424</ele>
        <time>2022-07-31T10:05:18.000Z</time>
      </trkpt>
      <trkpt lat="49.59073" lon="-1.28905">
        <ele>7.092103</ele>
        <time>2022-07-31T10:05:19.000Z</time>
      </trkpt>
      <trkpt lat="49.59073" lon="-1.2891">
        <ele>7.10404</ele>
        <time>2022-07-31T10:05:20.000Z</time>
      </trkpt>
      <trkpt lat="49.59073" lon="-1.28916">
        <ele>7.11577</ele>
        <time>2022-07-31T10:05:21.000Z</time>
      </trkpt>
      <trkpt lat="49.59073" lon="-1.28922">
        <ele>7.127089</ele>
        <time>2022-07-31T10:05:22.000Z</time>
      </trkpt>
      <trkpt lat="49.59073" lon="-1.28927">
        <ele>7.13882</ele>
        <time>2022-07-31T10:05:23.000Z</time>
      </trkpt>
      <trkpt lat="49.59073" lon="-1.28933">
        <ele>7.150345</ele>
        <time>2022-07-31T10:05:24.000Z</time>
      </trkpt>
      <trkpt lat="49.59073" lon="-1.28939">
        <ele>7.162487</ele>
        <time>2022-07-31T10:05:25.000Z</time>
      </trkpt>
      <trkpt lat="49.59073" lon="-1.28945">
        <ele>7.174424</ele>
        <time>2022-07-31T10:05:26.000Z</time>
      </trkpt>
      <trkpt lat="49.59073" lon="-1.2895">
        <ele>7.18636</ele>
        <time>2022-07-31T10:05:27.000Z</time>
      </trkpt>
      <trkpt lat="49.59072" lon="-1.28956">
        <ele>7.198651</ele>
        <time>2022-07-31T10:05:28.000Z</time>
      </trkpt>
      <trkpt lat="49.59072" lon="-1.28962">
        <ele>7.210176</ele>
        <time>2022-07-31T10:05:29.000Z</time>
      </trkpt>
      <trkpt lat="49.59073" lon="-1.28968">
        <ele>7.22206</ele>
        <time>2022-07-31T10:05:30.000Z</time>
      </trkpt>
      <trkpt lat="49.59073" lon="-1.28973">
        <ele>7.233791</ele>
        <time>2022-07-31T10:05:31.000Z</time>
      </trkpt>
      <trkpt lat="49.59072" lon="-1.28979">
        <ele>7.244863</ele>
        <time>2022-07-31T10:05:32.000Z</time>
      </trkpt>
      <trkpt lat="49.59072" lon="-1.28984">
        <ele>7.255607</ele>
        <time>2022-07-31T10:05:33.000Z</time>
      </trkpt>
      <trkpt lat="49.59071" lon="-1.28988">
        <ele>7.265332</ele>
        <time>2022-07-31T10:05:34.000Z</time>
      </trkpt>
      <trkpt lat="49.59069" lon="-1.28993">
        <ele>7.275894</ele>
        <time>2022-07-31T10:05:35.000Z</time>
      </trkpt>
      <trkpt lat="49.59068" lon="-1.28997">
        <ele>7.285567</ele>
        <time>2022-07-31T10:05:36.000Z</time>
      </trkpt>
      <trkpt lat="49.59066" lon="-1.29001">
        <ele>7.295282</ele>
        <time>2022-07-31T10:05:37.000Z</time>
      </trkpt>
      <trkpt lat="49.59064" lon="-1.29004">
        <ele>7.304365</ele>
        <time>2022-07-31T10:05:38.000Z</time>
      </trkpt>
      <trkpt lat="49.59062" lon="-1.29007">
        <ele>7.313687</ele>
        <time>2022-07-31T10:05:39.000Z</time>
      </trkpt>
      <trkpt lat="49.5906" lon="-1.2901">
        <ele>7.322125</ele>
        <time>2022-07-31T10:05:40.000Z</time>
      </trkpt>
      <trkpt lat="49.59058" lon="-1.29013">
        <ele>7.330756</ele>
        <time>2022-07-31T10:05:41.000Z</time>
      </trkpt>
      <trkpt lat="49.59056" lon="-1.29016">
        <ele>7.33957</ele>
        <time>2022-07-31T10:05:42.000Z</time>
      </trkpt>
      <trkpt lat="49.59055" lon="-1.2902">
        <ele>7.34732</ele>
        <time>2022-07-31T10:05:43.000Z</time>
      </trkpt>
      <trkpt lat="49.59055" lon="-1.29023">
        <ele>7.354934</ele>
        <time>2022-07-31T10:05:44.000Z</time>
      </trkpt>
      <trkpt lat="49.59055" lon="-1.29027">
        <ele>7.362755</ele>
        <time>2022-07-31T10:05:45.000Z</time>
      </trkpt>
      <trkpt lat="49.59056" lon="-1.29031">
        <ele>7.370021</ele>
        <time>2022-07-31T10:05:46.000Z</time>
      </trkpt>
      <trkpt lat="49.59056" lon="-1.29034">
        <ele>7.376878</ele>
        <time>2022-07-31T10:05:47.000Z</time>
      </trkpt>
      <trkpt lat="49.59056" lon="-1.29037">
        <ele>7.38394</ele>
        <time>2022-07-31T10:05:48.000Z</time>
      </trkpt>
      <trkpt lat="49.59057" lon="-1.29041">
        <ele>7.391812</ele>
        <time>2022-07-31T10:05:49.000Z</time>
      </trkpt>
      <trkpt lat="49.59058" lon="-1.29044">
        <ele>7.399263</ele>
        <time>2022-07-31T10:05:50.000Z</time>
      </trkpt>
      <trkpt lat="49.59059" lon="-1.29048">
        <ele>7.407134</ele>
        <time>2022-07-31T10:05:51.000Z</time>
      </trkpt>
      <trkpt lat="49.5906" lon="-1.29051">
        <ele>7.414784</ele>
        <time>2022-07-31T10:05:52.000Z</time>
      </trkpt>
      <trkpt lat="49.5906" lon="-1.29055">
        <ele>7.423311</ele>
        <time>2022-07-31T10:05:53.000Z</time>
      </trkpt>
      <trkpt lat="49.59061" lon="-1.29059">
        <ele>7.43176</ele>
        <time>2022-07-31T10:05:54.000Z</time>
      </trkpt>
      <trkpt lat="49.59061" lon="-1.29064">
        <ele>7.440612</ele>
        <time>2022-07-31T10:05:55.000Z</time>
      </trkpt>
      <trkpt lat="49.59062" lon="-1.29068">
        <ele>7.449736</ele>
        <time>2022-07-31T10:05:56.000Z</time>
      </trkpt>
      <trkpt lat="49.59063" lon="-1.29072">
        <ele>7.459314</ele>
        <time>2022-07-31T10:05:57.000Z</time>
      </trkpt>
      <trkpt lat="49.59064" lon="-1.29076">
        <ele>7.468215</ele>
        <time>2022-07-31T10:05:58.000Z</time>
      </trkpt>
      <trkpt lat="49.59065" lon="-1.29081">
        <ele>7.47771</ele>
        <time>2022-07-31T10:05:59.000Z</time>
      </trkpt>
      <trkpt lat="49.59065" lon="-1.29085">
        <ele>7.48604</ele>
        <time>2022-07-31T10:06:00.000Z</time>
      </trkpt>
      <trkpt lat="49.59066" lon="-1.29089">
        <ele>7.495495</ele>
        <time>2022-07-31T10:06:01.000Z</time>
      </trkpt>
      <trkpt lat="49.59066" lon="-1.29093">
        <ele>7.503986</ele>
        <time>2022-07-31T10:06:02.000Z</time>
      </trkpt>
      <trkpt lat="49.59067" lon="-1.29098">
        <ele>7.512189</ele>
        <time>2022-07-31T10:06:03.000Z</time>
      </trkpt>
      <trkpt lat="49.59068" lon="-1.29102">
        <ele>7.519852</ele>
        <time>2022-07-31T10:06:04.000Z</time>
      </trkpt>
      <trkpt lat="49.59069" lon="-1.29106">
        <ele>7.527647</ele>
        <time>2022-07-31T10:06:05.000Z</time>
      </trkpt>
      <trkpt lat="49.59069" lon="-1.29111">
        <ele>7.535992</ele>
        <time>2022-07-31T10:06:06.000Z</time>
      </trkpt>
      <trkpt lat="49.5907" lon="-1.29115">
        <ele>7.543717</ele>
        <time>2022-07-31T10:06:07.000Z</time>
      </trkpt>
      <trkpt lat="49.59071" lon="-1.29119">
        <ele>7.551983</ele>
        <time>2022-07-31T10:06:08.000Z</time>
      </trkpt>
      <trkpt lat="49.59072" lon="-1.29124">
        <ele>7.56067</ele>
        <time>2022-07-31T10:06:09.000Z</time>
      </trkpt>
      <trkpt lat="49.59073" lon="-1.29129">
        <ele>7.569123</ele>
        <time>2022-07-31T10:06:10.000Z</time>
      </trkpt>
      <trkpt lat="49.59074" lon="-1.29134">
        <ele>7.577811</ele>
        <time>2022-07-31T10:06:11.000Z</time>
      </trkpt>
      <trkpt lat="49.59075" lon="-1.29139">
        <ele>7.586927</ele>
        <time>2022-07-31T10:06:12.000Z</time>
      </trkpt>
      <trkpt lat="49.59075" lon="-1.29144">
        <ele>7.595957</ele>
        <time>2022-07-31T10:06:13.000Z</time>
      </trkpt>
      <trkpt lat="49.59076" lon="-1.29149">
        <ele>7.605159</ele>
        <time>2022-07-31T10:06:14.000Z</time>
      </trkpt>
      <trkpt lat="49.59077" lon="-1.29154">
        <ele>7.614776</ele>
        <time>2022-07-31T10:06:15.000Z</time>
      </trkpt>
      <trkpt lat="49.59077" lon="-1.2916">
        <ele>7.624218</ele>
        <time>2022-07-31T10:06:16.000Z</time>
      </trkpt>
      <trkpt lat="49.59078" lon="-1.29165">
        <ele>7.633983</ele>
        <time>2022-07-31T10:06:17.000Z</time>
      </trkpt>
      <trkpt lat="49.59079" lon="-1.29171">
        <ele>7.644093</ele>
        <time>2022-07-31T10:06:18.000Z</time>
      </trkpt>
      <trkpt lat="49.5908" lon="-1.29177">
        <ele>7.654549</ele>
        <time>2022-07-31T10:06:19.000Z</time>
      </trkpt>
      <trkpt lat="49.59081" lon="-1.29182">
        <ele>7.665077</ele>
        <time>2022-07-31T10:06:20.000Z</time>
      </trkpt>
      <trkpt lat="49.59082" lon="-1.29188">
        <ele>7.675309</ele>
        <time>2022-07-31T10:06:21.000Z</time>
      </trkpt>
      <trkpt lat="49.59084" lon="-1.29194">
        <ele>7.685812</ele>
        <time>2022-07-31T10:06:22.000Z</time>
      </trkpt>
      <trkpt lat="49.59085" lon="-1.29199">
        <ele>7.695998</ele>
        <time>2022-07-31T10:06:23.000Z</time>
      </trkpt>
      <trkpt lat="49.59086" lon="-1.29205">
        <ele>7.706285</ele>
        <time>2022-07-31T10:06:24.000Z</time>
      </trkpt>
      <trkpt lat="49.59087" lon="-1.2921">
        <ele>7.716506</ele>
        <time>2022-07-31T10:06:25.000Z</time>
      </trkpt>
      <trkpt lat="49.59088" lon="-1.29215">
        <ele>7.725588</ele>
        <time>2022-07-31T10:06:26.000Z</time>
      </trkpt>
      <trkpt lat="49.59089" lon="-1.29221">
        <ele>7.734965</ele>
        <time>2022-07-31T10:06:27.000Z</time>
      </trkpt>
      <trkpt lat="49.5909" lon="-1.29226">
        <ele>7.744415</ele>
        <time>2022-07-31T10:06:28.000Z</time>
      </trkpt>
      <trkpt lat="49.5909" lon="-1.29231">
        <ele>7.754031</ele>
        <time>2022-07-31T10:06:29.000Z</time>
      </trkpt>
      <trkpt lat="49.59091" lon="-1.29237">
        <ele>7.76423</ele>
        <time>2022-07-31T10:06:30.000Z</time>
      </trkpt>
      <trkpt lat="49.59093" lon="-1.29242">
        <ele>7.774429</ele>
        <time>2022-07-31T10:06:31.000Z</time>
      </trkpt>
      <trkpt lat="49.59093" lon="-1.29247">
        <ele>7.783459</ele>
        <time>2022-07-31T10:06:32.000Z</time>
      </trkpt>
      <trkpt lat="49.59094" lon="-1.29253">
        <ele>7.793224</ele>
        <time>2022-07-31T10:06:33.000Z</time>
      </trkpt>
      <trkpt lat="49.59095" lon="-1.29258">
        <ele>7.802601</ele>
        <time>2022-07-31T10:06:34.000Z</time>
      </trkpt>
      <trkpt lat="49.59095" lon="-1.29263">
        <ele>7.812024</ele>
        <time>2022-07-31T10:06:35.000Z</time>
      </trkpt>
      <trkpt lat="49.59096" lon="-1.29269">
        <ele>7.821569</ele>
        <time>2022-07-31T10:06:36.000Z</time>
      </trkpt>
      <trkpt lat="49.59098" lon="-1.29274">
        <ele>7.831755</ele>
        <time>2022-07-31T10:06:37.000Z</time>
      </trkpt>
      <trkpt lat="49.59098" lon="-1.29279">
        <ele>7.841023</ele>
        <time>2022-07-31T10:06:38.000Z</time>
      </trkpt>
      <trkpt lat="49.59099" lon="-1.29285">
        <ele>7.850473</ele>
        <time>2022-07-31T10:06:39.000Z</time>
      </trkpt>
      <trkpt lat="49.591" lon="-1.2929">
        <ele>7.860018</ele>
        <time>2022-07-31T10:06:40.000Z</time>
      </trkpt>
      <trkpt lat="49.59101" lon="-1.29295">
        <ele>7.869802</ele>
        <time>2022-07-31T10:06:41.000Z</time>
      </trkpt>
      <trkpt lat="49.59101" lon="-1.293">
        <ele>7.878833</ele>
        <time>2022-07-31T10:06:42.000Z</time>
      </trkpt>
      <trkpt lat="49.59102" lon="-1.29305">
        <ele>7.887451</ele>
        <time>2022-07-31T10:06:43.000Z</time>
      </trkpt>
      <trkpt lat="49.59103" lon="-1.29309">
        <ele>7.894943</ele>
        <time>2022-07-31T10:06:44.000Z</time>
      </trkpt>
      <trkpt lat="49.59104" lon="-1.29314">
        <ele>7.903006</ele>
        <time>2022-07-31T10:06:45.000Z</time>
      </trkpt>
      <trkpt lat="49.59105" lon="-1.29318">
        <ele>7.910547</ele>
        <time>2022-07-31T10:06:46.000Z</time>
      </trkpt>
      <trkpt lat="49.59105" lon="-1.29323">
        <ele>7.919151</ele>
        <time>2022-07-31T10:06:47.000Z</time>
      </trkpt>
      <trkpt lat="49.59106" lon="-1.29327">
        <ele>7.927522</ele>
        <time>2022-07-31T10:06:48.000Z</time>
      </trkpt>
      <trkpt lat="49.59107" lon="-1.29332">
        <ele>7.936472</ele>
        <time>2022-07-31T10:06:49.000Z</time>
      </trkpt>
      <trkpt lat="49.59107" lon="-1.29337">
        <ele>7.944527</ele>
        <time>2022-07-31T10:06:50.000Z</time>
      </trkpt>
      <trkpt lat="49.59109" lon="-1.29341">
        <ele>7.95311</ele>
        <time>2022-07-31T10:06:51.000Z</time>
      </trkpt>
      <trkpt lat="49.59109" lon="-1.29346">
        <ele>7.961298</ele>
        <time>2022-07-31T10:06:52.000Z</time>
      </trkpt>
      <trkpt lat="49.59109" lon="-1.29351">
        <ele>7.969643</ele>
        <time>2022-07-31T10:06:53.000Z</time>
      </trkpt>
      <trkpt lat="49.5911" lon="-1.29356">
        <ele>7.978706</ele>
        <time>2022-07-31T10:06:54.000Z</time>
      </trkpt>
      <trkpt lat="49.59111" lon="-1.2936">
        <ele>7.987223</ele>
        <time>2022-07-31T10:06:55.000Z</time>
      </trkpt>
      <trkpt lat="49.59112" lon="-1.29365">
        <ele>8.016979</ele>
        <time>2022-07-31T10:06:56.000Z</time>
      </trkpt>
      <trkpt lat="49.59113" lon="-1.2937">
        <ele>8.048149</ele>
        <time>2022-07-31T10:06:57.000Z</time>
      </trkpt>
      <trkpt lat="49.59113" lon="-1.29374">
        <ele>8.080713</ele>
        <time>2022-07-31T10:06:58.000Z</time>
      </trkpt>
      <trkpt lat="49.59114" lon="-1.29379">
        <ele>8.112418</ele>
        <time>2022-07-31T10:06:59.000Z</time>
      </trkpt>
      <trkpt lat="49.59115" lon="-1.29384">
        <ele>8.145788</ele>
        <time>2022-07-31T10:07:00.000Z</time>
      </trkpt>
      <trkpt lat="49.59116" lon="-1.29389">
        <ele>8.178794</ele>
        <time>2022-07-31T10:07:01.000Z</time>
      </trkpt>
      <trkpt lat="49.59117" lon="-1.29393">
        <ele>8.212008</ele>
        <time>2022-07-31T10:07:02.000Z</time>
      </trkpt>
      <trkpt lat="49.59118" lon="-1.29398">
        <ele>8.24664</ele>
        <time>2022-07-31T10:07:03.000Z</time>
      </trkpt>
      <trkpt lat="49.59119" lon="-1.29403">
        <ele>8.280349</ele>
        <time>2022-07-31T10:07:04.000Z</time>
      </trkpt>
      <trkpt lat="49.59119" lon="-1.29408">
        <ele>8.314206</ele>
        <time>2022-07-31T10:07:05.000Z</time>
      </trkpt>
      <trkpt lat="49.5912" lon="-1.29413">
        <ele>8.347278</ele>
        <time>2022-07-31T10:07:06.000Z</time>
      </trkpt>
      <trkpt lat="49.59121" lon="-1.29418">
        <ele>8.379196</ele>
        <time>2022-07-31T10:07:07.000Z</time>
      </trkpt>
      <trkpt lat="49.59122" lon="-1.29422">
        <ele>8.410253</ele>
        <time>2022-07-31T10:07:08.000Z</time>
      </trkpt>
      <trkpt lat="49.59123" lon="-1.29427">
        <ele>8.444254</ele>
        <time>2022-07-31T10:07:09.000Z</time>
      </trkpt>
      <trkpt lat="49.59123" lon="-1.29432">
        <ele>8.47531</ele>
        <time>2022-07-31T10:07:10.000Z</time>
      </trkpt>
      <trkpt lat="49.59124" lon="-1.29437">
        <ele>8.508315</ele>
        <time>2022-07-31T10:07:11.000Z</time>
      </trkpt>
      <trkpt lat="49.59125" lon="-1.29442">
        <ele>8.541685</ele>
        <time>2022-07-31T10:07:12.000Z</time>
      </trkpt>
      <trkpt lat="49.59125" lon="-1.29447">
        <ele>8.57492</ele>
        <time>2022-07-31T10:07:13.000Z</time>
      </trkpt>
      <trkpt lat="49.59126" lon="-1.29451">
        <ele>8.606839</ele>
        <time>2022-07-31T10:07:14.000Z</time>
      </trkpt>
      <trkpt lat="49.59126" lon="-1.29456">
        <ele>8.637895</ele>
        <time>2022-07-31T10:07:15.000Z</time>
      </trkpt>
      <trkpt lat="49.59127" lon="-1.29461">
        <ele>8.669601</ele>
        <time>2022-07-31T10:07:16.000Z</time>
      </trkpt>
      <trkpt lat="49.59128" lon="-1.29465">
        <ele>8.701519</ele>
        <time>2022-07-31T10:07:17.000Z</time>
      </trkpt>
      <trkpt lat="49.59129" lon="-1.2947">
        <ele>8.734733</ele>
        <time>2022-07-31T10:07:18.000Z</time>
      </trkpt>
      <trkpt lat="49.5913" lon="-1.29474">
        <ele>8.765112</ele>
        <time>2022-07-31T10:07:19.000Z</time>
      </trkpt>
      <trkpt lat="49.59131" lon="-1.29478">
        <ele>8.792256</ele>
        <time>2022-07-31T10:07:20.000Z</time>
      </trkpt>
      <trkpt lat="49.59133" lon="-1.29482">
        <ele>8.821694</ele>
        <time>2022-07-31T10:07:21.000Z</time>
      </trkpt>
      <trkpt lat="49.59135" lon="-1.29485">
        <ele>8.850908</ele>
        <time>2022-07-31T10:07:22.000Z</time>
      </trkpt>
      <trkpt lat="49.59136" lon="-1.29488">
        <ele>8.878716</ele>
        <time>2022-07-31T10:07:23.000Z</time>
      </trkpt>
      <trkpt lat="49.59138" lon="-1.29492">
        <ele>8.907929</ele>
        <time>2022-07-31T10:07:24.000Z</time>
      </trkpt>
      <trkpt lat="49.59141" lon="-1.29494">
        <ele>8.937844</ele>
        <time>2022-07-31T10:07:25.000Z</time>
      </trkpt>
      <trkpt lat="49.59143" lon="-1.29497">
        <ele>8.969004</ele>
        <time>2022-07-31T10:07:26.000Z</time>
      </trkpt>
      <trkpt lat="49.59145" lon="-1.29499">
        <ele>8.995337</ele>
        <time>2022-07-31T10:07:27.000Z</time>
      </trkpt>
      <trkpt lat="49.59148" lon="-1.295">
        <ele>9.019896</ele>
        <time>2022-07-31T10:07:28.000Z</time>
      </trkpt>
      <trkpt lat="49.5915" lon="-1.29501">
        <ele>9.047255</ele>
        <time>2022-07-31T10:07:29.000Z</time>
      </trkpt>
      <trkpt lat="49.59152" lon="-1.29502">
        <ele>9.067201</ele>
        <time>2022-07-31T10:07:30.000Z</time>
      </trkpt>
      <trkpt lat="49.59155" lon="-1.29503">
        <ele>9.09491</ele>
        <time>2022-07-31T10:07:32.000Z</time>
      </trkpt>
      <trkpt lat="49.59157" lon="-1.29508">
        <ele>9.134136</ele>
        <time>2022-07-31T10:07:34.000Z</time>
      </trkpt>
      <trkpt lat="49.59158" lon="-1.2951">
        <ele>9.153579</ele>
        <time>2022-07-31T10:07:35.000Z</time>
      </trkpt>
      <trkpt lat="49.59159" lon="-1.29515">
        <ele>9.185934</ele>
        <time>2022-07-31T10:07:37.000Z</time>
      </trkpt>
      <trkpt lat="49.59157" lon="-1.2952">
        <ele>9.22284</ele>
        <time>2022-07-31T10:07:39.000Z</time>
      </trkpt>
      <trkpt lat="49.59156" lon="-1.29523">
        <ele>9.246093</ele>
        <time>2022-07-31T10:07:40.000Z</time>
      </trkpt>
      <trkpt lat="49.59154" lon="-1.29525">
        <ele>9.267305</ele>
        <time>2022-07-31T10:07:41.000Z</time>
      </trkpt>
      <trkpt lat="49.59153" lon="-1.29528">
        <ele>9.29201</ele>
        <time>2022-07-31T10:07:42.000Z</time>
      </trkpt>
      <trkpt lat="49.59151" lon="-1.29531">
        <ele>9.319818</ele>
        <time>2022-07-31T10:07:43.000Z</time>
      </trkpt>
      <trkpt lat="49.59149" lon="-1.29535">
        <ele>9.351582</ele>
        <time>2022-07-31T10:07:44.000Z</time>
      </trkpt>
      <trkpt lat="49.59148" lon="-1.29539">
        <ele>9.383825</ele>
        <time>2022-07-31T10:07:45.000Z</time>
      </trkpt>
      <trkpt lat="49.59146" lon="-1.29543">
        <ele>9.414034</ele>
        <time>2022-07-31T10:07:46.000Z</time>
      </trkpt>
      <trkpt lat="49.59145" lon="-1.29548">
        <ele>9.444572</ele>
        <time>2022-07-31T10:07:47.000Z</time>
      </trkpt>
      <trkpt lat="49.59145" lon="-1.29552">
        <ele>9.474513</ele>
        <time>2022-07-31T10:07:48.000Z</time>
      </trkpt>
      <trkpt lat="49.59145" lon="-1.29557">
        <ele>9.506544</ele>
        <time>2022-07-31T10:07:49.000Z</time>
      </trkpt>
      <trkpt lat="49.59145" lon="-1.29562">
        <ele>9.537174</ele>
        <time>2022-07-31T10:07:50.000Z</time>
      </trkpt>
      <trkpt lat="49.59146" lon="-1.29566">
        <ele>9.570246</ele>
        <time>2022-07-31T10:07:51.000Z</time>
      </trkpt>
      <trkpt lat="49.59147" lon="-1.29571">
        <ele>9.600875</ele>
        <time>2022-07-31T10:07:52.000Z</time>
      </trkpt>
      <trkpt lat="49.59148" lon="-1.29575">
        <ele>9.63168</ele>
        <time>2022-07-31T10:07:53.000Z</time>
      </trkpt>
      <trkpt lat="49.59149" lon="-1.2958">
        <ele>9.662088</ele>
        <time>2022-07-31T10:07:54.000Z</time>
      </trkpt>
      <trkpt lat="49.59149" lon="-1.29584">
        <ele>9.692495</ele>
        <time>2022-07-31T10:07:55.000Z</time>
      </trkpt>
      <trkpt lat="49.5915" lon="-1.29588">
        <ele>9.722732</ele>
        <time>2022-07-31T10:07:56.000Z</time>
      </trkpt>
      <trkpt lat="49.59151" lon="-1.29593">
        <ele>9.753139</ele>
        <time>2022-07-31T10:07:57.000Z</time>
      </trkpt>
      <trkpt lat="49.59152" lon="-1.29598">
        <ele>9.78588</ele>
        <time>2022-07-31T10:07:58.000Z</time>
      </trkpt>
      <trkpt lat="49.59153" lon="-1.29602">
        <ele>9.81862</ele>
        <time>2022-07-31T10:07:59.000Z</time>
      </trkpt>
      <trkpt lat="49.59154" lon="-1.29607">
        <ele>9.855372</ele>
        <time>2022-07-31T10:08:00.000Z</time>
      </trkpt>
      <trkpt lat="49.59155" lon="-1.29612">
        <ele>9.891946</ele>
        <time>2022-07-31T10:08:01.000Z</time>
      </trkpt>
      <trkpt lat="49.59156" lon="-1.29616">
        <ele>9.92902</ele>
        <time>2022-07-31T10:08:02.000Z</time>
      </trkpt>
      <trkpt lat="49.59157" lon="-1.29621">
        <ele>9.969173</ele>
        <time>2022-07-31T10:08:03.000Z</time>
      </trkpt>
      <trkpt lat="49.59157" lon="-1.29626">
        <ele>10.007255</ele>
        <time>2022-07-31T10:08:04.000Z</time>
      </trkpt>
      <trkpt lat="49.59158" lon="-1.29631">
        <ele>10.047665</ele>
        <time>2022-07-31T10:08:05.000Z</time>
      </trkpt>
      <trkpt lat="49.59159" lon="-1.29637">
        <ele>10.089215</ele>
        <time>2022-07-31T10:08:06.000Z</time>
      </trkpt>
      <trkpt lat="49.5916" lon="-1.29642">
        <ele>10.132192</ele>
        <time>2022-07-31T10:08:07.000Z</time>
      </trkpt>
      <trkpt lat="49.59161" lon="-1.29647">
        <ele>10.172995</ele>
        <time>2022-07-31T10:08:08.000Z</time>
      </trkpt>
      <trkpt lat="49.59161" lon="-1.29653">
        <ele>10.215504</ele>
        <time>2022-07-31T10:08:09.000Z</time>
      </trkpt>
      <trkpt lat="49.59163" lon="-1.29658">
        <ele>10.259902</ele>
        <time>2022-07-31T10:08:10.000Z</time>
      </trkpt>
      <trkpt lat="49.59163" lon="-1.29664">
        <ele>10.301006</ele>
        <time>2022-07-31T10:08:11.000Z</time>
      </trkpt>
      <trkpt lat="49.59164" lon="-1.29669">
        <ele>10.341809</ele>
        <time>2022-07-31T10:08:12.000Z</time>
      </trkpt>
      <trkpt lat="49.59165" lon="-1.29674">
        <ele>10.381493</ele>
        <time>2022-07-31T10:08:13.000Z</time>
      </trkpt>
      <trkpt lat="49.59165" lon="-1.29679">
        <ele>10.420848</ele>
        <time>2022-07-31T10:08:14.000Z</time>
      </trkpt>
      <trkpt lat="49.59166" lon="-1.29684">
        <ele>10.460531</ele>
        <time>2022-07-31T10:08:15.000Z</time>
      </trkpt>
      <trkpt lat="49.59167" lon="-1.29689">
        <ele>10.500215</ele>
        <time>2022-07-31T10:08:16.000Z</time>
      </trkpt>
      <trkpt lat="49.59168" lon="-1.29694">
        <ele>10.540272</ele>
        <time>2022-07-31T10:08:17.000Z</time>
      </trkpt>
      <trkpt lat="49.59169" lon="-1.29699">
        <ele>10.575114</ele>
        <time>2022-07-31T10:08:18.000Z</time>
      </trkpt>
      <trkpt lat="49.59169" lon="-1.29703">
        <ele>10.605809</ele>
        <time>2022-07-31T10:08:19.000Z</time>
      </trkpt>
      <trkpt lat="49.5917" lon="-1.29706">
        <ele>10.635837</ele>
        <time>2022-07-31T10:08:20.000Z</time>
      </trkpt>
      <trkpt lat="49.59171" lon="-1.29709">
        <ele>10.659065</ele>
        <time>2022-07-31T10:08:21.000Z</time>
      </trkpt>
      <trkpt lat="49.59172" lon="-1.29714">
        <ele>10.699151</ele>
        <time>2022-07-31T10:08:23.000Z</time>
      </trkpt>
      <trkpt lat="49.59172" lon="-1.29718">
        <ele>10.72342</ele>
        <time>2022-07-31T10:08:24.000Z</time>
      </trkpt>
      <trkpt lat="49.59172" lon="-1.29721">
        <ele>10.749753</ele>
        <time>2022-07-31T10:08:25.000Z</time>
      </trkpt>
      <trkpt lat="49.59172" lon="-1.29725">
        <ele>10.777814</ele>
        <time>2022-07-31T10:08:26.000Z</time>
      </trkpt>
      <trkpt lat="49.59173" lon="-1.29729">
        <ele>10.808352</ele>
        <time>2022-07-31T10:08:27.000Z</time>
      </trkpt>
      <trkpt lat="49.59173" lon="-1.29733">
        <ele>10.8419</ele>
        <time>2022-07-31T10:08:28.000Z</time>
      </trkpt>
      <trkpt lat="49.59174" lon="-1.29737">
        <ele>10.877977</ele>
        <time>2022-07-31T10:08:29.000Z</time>
      </trkpt>
      <trkpt lat="49.59175" lon="-1.29742">
        <ele>10.91282</ele>
        <time>2022-07-31T10:08:30.000Z</time>
      </trkpt>
      <trkpt lat="49.59175" lon="-1.29746">
        <ele>10.947267</ele>
        <time>2022-07-31T10:08:31.000Z</time>
      </trkpt>
      <trkpt lat="49.59176" lon="-1.29751">
        <ele>10.983708</ele>
        <time>2022-07-31T10:08:32.000Z</time>
      </trkpt>
      <trkpt lat="49.59177" lon="-1.29755">
        <ele>11.018804</ele>
        <time>2022-07-31T10:08:33.000Z</time>
      </trkpt>
      <trkpt lat="49.59178" lon="-1.2976">
        <ele>11.053796</ele>
        <time>2022-07-31T10:08:34.000Z</time>
      </trkpt>
      <trkpt lat="49.59179" lon="-1.29764">
        <ele>11.087419</ele>
        <time>2022-07-31T10:08:35.000Z</time>
      </trkpt>
      <trkpt lat="49.59179" lon="-1.29768">
        <ele>11.118557</ele>
        <time>2022-07-31T10:08:36.000Z</time>
      </trkpt>
      <trkpt lat="49.5918" lon="-1.29772">
        <ele>11.15249</ele>
        <time>2022-07-31T10:08:37.000Z</time>
      </trkpt>
      <trkpt lat="49.59181" lon="-1.29776">
        <ele>11.179947</ele>
        <time>2022-07-31T10:08:38.000Z</time>
      </trkpt>
      <trkpt lat="49.59181" lon="-1.2978">
        <ele>11.208979</ele>
        <time>2022-07-31T10:08:39.000Z</time>
      </trkpt>
      <trkpt lat="49.59181" lon="-1.29783">
        <ele>11.235754</ele>
        <time>2022-07-31T10:08:40.000Z</time>
      </trkpt>
      <trkpt lat="49.59182" lon="-1.29787">
        <ele>11.264761</ele>
        <time>2022-07-31T10:08:41.000Z</time>
      </trkpt>
      <trkpt lat="49.59183" lon="-1.2979">
        <ele>11.290025</ele>
        <time>2022-07-31T10:08:42.000Z</time>
      </trkpt>
      <trkpt lat="49.59184" lon="-1.29795">
        <ele>11.330434</ele>
        <time>2022-07-31T10:08:44.000Z</time>
      </trkpt>
      <trkpt lat="49.59185" lon="-1.29798">
        <ele>11.35352</ele>
        <time>2022-07-31T10:08:45.000Z</time>
      </trkpt>
      <trkpt lat="49.59185" lon="-1.29801">
        <ele>11.37628</ele>
        <time>2022-07-31T10:08:46.000Z</time>
      </trkpt>
      <trkpt lat="49.59186" lon="-1.29803">
        <ele>11.398645</ele>
        <time>2022-07-31T10:08:47.000Z</time>
      </trkpt>
      <trkpt lat="49.59186" lon="-1.29806">
        <ele>11.421666</ele>
        <time>2022-07-31T10:08:48.000Z</time>
      </trkpt>
      <trkpt lat="49.59187" lon="-1.29809">
        <ele>11.445847</ele>
        <time>2022-07-31T10:08:49.000Z</time>
      </trkpt>
      <trkpt lat="49.59187" lon="-1.29812">
        <ele>11.468868</ele>
        <time>2022-07-31T10:08:50.000Z</time>
      </trkpt>
      <trkpt lat="49.59188" lon="-1.29816">
        <ele>11.497184</ele>
        <time>2022-07-31T10:08:51.000Z</time>
      </trkpt>
      <trkpt lat="49.59189" lon="-1.2982">
        <ele>11.526845</ele>
        <time>2022-07-31T10:08:52.000Z</time>
      </trkpt>
      <trkpt lat="49.59189" lon="-1.29824">
        <ele>11.557181</ele>
        <time>2022-07-31T10:08:53.000Z</time>
      </trkpt>
      <trkpt lat="49.59189" lon="-1.29828">
        <ele>11.58998</ele>
        <time>2022-07-31T10:08:54.000Z</time>
      </trkpt>
      <trkpt lat="49.5919" lon="-1.29832">
        <ele>11.623914</ele>
        <time>2022-07-31T10:08:55.000Z</time>
      </trkpt>
      <trkpt lat="49.59191" lon="-1.29836">
        <ele>11.657272</ele>
        <time>2022-07-31T10:08:56.000Z</time>
      </trkpt>
      <trkpt lat="49.59192" lon="-1.29841">
        <ele>11.693944</ele>
        <time>2022-07-31T10:08:57.000Z</time>
      </trkpt>
      <trkpt lat="49.59193" lon="-1.29845">
        <ele>11.728786</ele>
        <time>2022-07-31T10:08:58.000Z</time>
      </trkpt>
      <trkpt lat="49.59193" lon="-1.2985">
        <ele>11.766099</ele>
        <time>2022-07-31T10:08:59.000Z</time>
      </trkpt>
      <trkpt lat="49.59194" lon="-1.29855">
        <ele>11.803266</ele>
        <time>2022-07-31T10:09:00.000Z</time>
      </trkpt>
      <trkpt lat="49.59195" lon="-1.29859">
        <ele>11.840062</ele>
        <time>2022-07-31T10:09:01.000Z</time>
      </trkpt>
      <trkpt lat="49.59196" lon="-1.29864">
        <ele>11.877577</ele>
        <time>2022-07-31T10:09:02.000Z</time>
      </trkpt>
      <trkpt lat="49.59197" lon="-1.29869">
        <ele>11.913906</ele>
        <time>2022-07-31T10:09:03.000Z</time>
      </trkpt>
      <trkpt lat="49.59198" lon="-1.29873">
        <ele>11.956551</ele>
        <time>2022-07-31T10:09:04.000Z</time>
      </trkpt>
      <trkpt lat="49.59198" lon="-1.29878">
        <ele>12.001269</ele>
        <time>2022-07-31T10:09:05.000Z</time>
      </trkpt>
      <trkpt lat="49.59199" lon="-1.29883">
        <ele>12.0439</ele>
        <time>2022-07-31T10:09:06.000Z</time>
      </trkpt>
      <trkpt lat="49.592" lon="-1.29887">
        <ele>12.085947</ele>
        <time>2022-07-31T10:09:07.000Z</time>
      </trkpt>
      <trkpt lat="49.592" lon="-1.29892">
        <ele>12.127688</ele>
        <time>2022-07-31T10:09:08.000Z</time>
      </trkpt>
      <trkpt lat="49.59201" lon="-1.29897">
        <ele>12.170597</ele>
        <time>2022-07-31T10:09:09.000Z</time>
      </trkpt>
      <trkpt lat="49.59201" lon="-1.29901">
        <ele>12.215298</ele>
        <time>2022-07-31T10:09:10.000Z</time>
      </trkpt>
      <trkpt lat="49.59202" lon="-1.29906">
        <ele>12.258821</ele>
        <time>2022-07-31T10:09:11.000Z</time>
      </trkpt>
      <trkpt lat="49.59203" lon="-1.29911">
        <ele>12.303765</ele>
        <time>2022-07-31T10:09:12.000Z</time>
      </trkpt>
      <trkpt lat="49.59203" lon="-1.29915">
        <ele>12.344866</ele>
        <time>2022-07-31T10:09:13.000Z</time>
      </trkpt>
      <trkpt lat="49.59204" lon="-1.2992">
        <ele>12.386373</ele>
        <time>2022-07-31T10:09:14.000Z</time>
      </trkpt>
      <trkpt lat="49.59205" lon="-1.29924">
        <ele>12.42916</ele>
        <time>2022-07-31T10:09:15.000Z</time>
      </trkpt>
      <trkpt lat="49.59206" lon="-1.29929">
        <ele>12.472381</ele>
        <time>2022-07-31T10:09:16.000Z</time>
      </trkpt>
      <trkpt lat="49.59207" lon="-1.29933">
        <ele>12.512344</ele>
        <time>2022-07-31T10:09:17.000Z</time>
      </trkpt>
      <trkpt lat="49.59207" lon="-1.29937">
        <ele>12.550735</ele>
        <time>2022-07-31T10:09:18.000Z</time>
      </trkpt>
      <trkpt lat="49.59208" lon="-1.29941">
        <ele>12.584014</ele>
        <time>2022-07-31T10:09:19.000Z</time>
      </trkpt>
      <trkpt lat="49.59209" lon="-1.29946">
        <ele>12.632914</ele>
        <time>2022-07-31T10:09:21.000Z</time>
      </trkpt>
      <trkpt lat="49.5921" lon="-1.29949">
        <ele>12.668499</ele>
        <time>2022-07-31T10:09:22.000Z</time>
      </trkpt>
      <trkpt lat="49.5921" lon="-1.29954">
        <ele>12.709351</ele>
        <time>2022-07-31T10:09:23.000Z</time>
      </trkpt>
      <trkpt lat="49.59211" lon="-1.29958">
        <ele>12.752281</ele>
        <time>2022-07-31T10:09:24.000Z</time>
      </trkpt>
      <trkpt lat="49.59212" lon="-1.29964">
        <ele>12.801182</ele>
        <time>2022-07-31T10:09:25.000Z</time>
      </trkpt>
      <trkpt lat="49.59213" lon="-1.29968">
        <ele>12.845883</ele>
        <time>2022-07-31T10:09:26.000Z</time>
      </trkpt>
      <trkpt lat="49.59214" lon="-1.29973">
        <ele>12.893987</ele>
        <time>2022-07-31T10:09:27.000Z</time>
      </trkpt>
      <trkpt lat="49.59214" lon="-1.29978">
        <ele>12.939609</ele>
        <time>2022-07-31T10:09:28.000Z</time>
      </trkpt>
      <trkpt lat="49.59215" lon="-1.29983">
        <ele>12.985008</ele>
        <time>2022-07-31T10:09:29.000Z</time>
      </trkpt>
      <trkpt lat="49.59216" lon="-1.29988">
        <ele>13.033954</ele>
        <time>2022-07-31T10:09:30.000Z</time>
      </trkpt>
      <trkpt lat="49.59217" lon="-1.29993">
        <ele>13.078655</ele>
        <time>2022-07-31T10:09:31.000Z</time>
      </trkpt>
      <trkpt lat="49.59218" lon="-1.29998">
        <ele>13.125802</ele>
        <time>2022-07-31T10:09:32.000Z</time>
      </trkpt>
      <trkpt lat="49.59219" lon="-1.30003">
        <ele>13.169617</ele>
        <time>2022-07-31T10:09:33.000Z</time>
      </trkpt>
      <trkpt lat="49.5922" lon="-1.30007">
        <ele>13.214144</ele>
        <time>2022-07-31T10:09:34.000Z</time>
      </trkpt>
      <trkpt lat="49.5922" lon="-1.30012">
        <ele>13.256149</ele>
        <time>2022-07-31T10:09:35.000Z</time>
      </trkpt>
      <trkpt lat="49.59221" lon="-1.30016">
        <ele>13.29555</ele>
        <time>2022-07-31T10:09:36.000Z</time>
      </trkpt>
      <trkpt lat="49.59221" lon="-1.30021">
        <ele>13.339072</ele>
        <time>2022-07-31T10:09:37.000Z</time>
      </trkpt>
      <trkpt lat="49.59222" lon="-1.30025">
        <ele>13.381118</ele>
        <time>2022-07-31T10:09:38.000Z</time>
      </trkpt>
      <trkpt lat="49.59223" lon="-1.3003">
        <ele>13.424774</ele>
        <time>2022-07-31T10:09:39.000Z</time>
      </trkpt>
      <trkpt lat="49.59224" lon="-1.30034">
        <ele>13.470612</ele>
        <time>2022-07-31T10:09:40.000Z</time>
      </trkpt>
      <trkpt lat="49.59226" lon="-1.30039">
        <ele>13.515373</ele>
        <time>2022-07-31T10:09:41.000Z</time>
      </trkpt>
      <trkpt lat="49.59227" lon="-1.30043">
        <ele>13.55688</ele>
        <time>2022-07-31T10:09:42.000Z</time>
      </trkpt>
      <trkpt lat="49.59228" lon="-1.30047">
        <ele>13.596925</ele>
        <time>2022-07-31T10:09:43.000Z</time>
      </trkpt>
      <trkpt lat="49.59229" lon="-1.30051">
        <ele>13.630204</ele>
        <time>2022-07-31T10:09:44.000Z</time>
      </trkpt>
      <trkpt lat="49.59229" lon="-1.30054">
        <ele>13.657784</ele>
        <time>2022-07-31T10:09:45.000Z</time>
      </trkpt>
      <trkpt lat="49.59229" lon="-1.30059">
        <ele>13.705215</ele>
        <time>2022-07-31T10:09:47.000Z</time>
      </trkpt>
      <trkpt lat="49.5923" lon="-1.30061">
        <ele>13.731906</ele>
        <time>2022-07-31T10:09:48.000Z</time>
      </trkpt>
      <trkpt lat="49.59231" lon="-1.30064">
        <ele>13.7613</ele>
        <time>2022-07-31T10:09:49.000Z</time>
      </trkpt>
      <trkpt lat="49.59231" lon="-1.30068">
        <ele>13.793376</ele>
        <time>2022-07-31T10:09:50.000Z</time>
      </trkpt>
      <trkpt lat="49.59232" lon="-1.30072">
        <ele>13.829798</ele>
        <time>2022-07-31T10:09:51.000Z</time>
      </trkpt>
      <trkpt lat="49.59232" lon="-1.30075">
        <ele>13.864578</ele>
        <time>2022-07-31T10:09:52.000Z</time>
      </trkpt>
      <trkpt lat="49.59232" lon="-1.3008">
        <ele>13.902738</ele>
        <time>2022-07-31T10:09:53.000Z</time>
      </trkpt>
      <trkpt lat="49.59233" lon="-1.30084">
        <ele>13.939323</ele>
        <time>2022-07-31T10:09:54.000Z</time>
      </trkpt>
      <trkpt lat="49.59233" lon="-1.30088">
        <ele>13.976095</ele>
        <time>2022-07-31T10:09:55.000Z</time>
      </trkpt>
      <trkpt lat="49.59234" lon="-1.30091">
        <ele>14.010748</ele>
        <time>2022-07-31T10:09:56.000Z</time>
      </trkpt>
      <trkpt lat="49.59234" lon="-1.30095">
        <ele>14.043725</ele>
        <time>2022-07-31T10:09:57.000Z</time>
      </trkpt>
      <trkpt lat="49.59234" lon="-1.30099">
        <ele>14.077342</ele>
        <time>2022-07-31T10:09:58.000Z</time>
      </trkpt>
      <trkpt lat="49.59234" lon="-1.30103">
        <ele>14.115501</ele>
        <time>2022-07-31T10:09:59.000Z</time>
      </trkpt>
      <trkpt lat="49.59234" lon="-1.30108">
        <ele>14.159314</ele>
        <time>2022-07-31T10:10:00.000Z</time>
      </trkpt>
      <trkpt lat="49.59234" lon="-1.30113">
        <ele>14.204937</ele>
        <time>2022-07-31T10:10:01.000Z</time>
      </trkpt>
      <trkpt lat="49.59234" lon="-1.30118">
        <ele>14.25309</ele>
        <time>2022-07-31T10:10:02.000Z</time>
      </trkpt>
      <trkpt lat="49.59234" lon="-1.30124">
        <ele>14.304878</ele>
        <time>2022-07-31T10:10:03.000Z</time>
      </trkpt>
      <trkpt lat="49.59234" lon="-1.3013">
        <ele>14.359392</ele>
        <time>2022-07-31T10:10:04.000Z</time>
      </trkpt>
      <trkpt lat="49.59234" lon="-1.30135">
        <ele>14.412088</ele>
        <time>2022-07-31T10:10:05.000Z</time>
      </trkpt>
      <trkpt lat="49.59234" lon="-1.30141">
        <ele>14.461395</ele>
        <time>2022-07-31T10:10:06.000Z</time>
      </trkpt>
      <trkpt lat="49.59234" lon="-1.30147">
        <ele>14.497842</ele>
        <time>2022-07-31T10:10:07.000Z</time>
      </trkpt>
      <trkpt lat="49.59234" lon="-1.30152">
        <ele>14.531117</ele>
        <time>2022-07-31T10:10:08.000Z</time>
      </trkpt>
      <trkpt lat="49.59232" lon="-1.30155">
        <ele>14.558425</ele>
        <time>2022-07-31T10:10:09.000Z</time>
      </trkpt>
      <trkpt lat="49.59232" lon="-1.30159">
        <ele>14.582944</ele>
        <time>2022-07-31T10:10:13.000Z</time>
      </trkpt>
      <trkpt lat="49.59232" lon="-1.30164">
        <ele>14.61409</ele>
        <time>2022-07-31T10:10:15.000Z</time>
      </trkpt>
      <trkpt lat="49.59232" lon="-1.3017">
        <ele>14.653011</ele>
        <time>2022-07-31T10:10:17.000Z</time>
      </trkpt>
      <trkpt lat="49.59232" lon="-1.30173">
        <ele>14.674879</ele>
        <time>2022-07-31T10:10:18.000Z</time>
      </trkpt>
      <trkpt lat="49.59232" lon="-1.30176">
        <ele>14.698275</ele>
        <time>2022-07-31T10:10:19.000Z</time>
      </trkpt>
      <trkpt lat="49.59232" lon="-1.3018">
        <ele>14.7243</ele>
        <time>2022-07-31T10:10:20.000Z</time>
      </trkpt>
      <trkpt lat="49.59234" lon="-1.30184">
        <ele>14.753952</ele>
        <time>2022-07-31T10:10:21.000Z</time>
      </trkpt>
      <trkpt lat="49.59235" lon="-1.30188">
        <ele>14.780684</ele>
        <time>2022-07-31T10:10:22.000Z</time>
      </trkpt>
      <trkpt lat="49.59236" lon="-1.30191">
        <ele>14.806273</ele>
        <time>2022-07-31T10:10:23.000Z</time>
      </trkpt>
      <trkpt lat="49.59238" lon="-1.30194">
        <ele>14.831009</ele>
        <time>2022-07-31T10:10:24.000Z</time>
      </trkpt>
      <trkpt lat="49.59239" lon="-1.30198">
        <ele>14.858425</ele>
        <time>2022-07-31T10:10:26.000Z</time>
      </trkpt>
      <trkpt lat="49.59235" lon="-1.30232">
        <ele>15.092161</ele>
        <time>2022-07-31T10:15:30.000Z</time>
      </trkpt>
      <trkpt lat="49.59236" lon="-1.30236">
        <ele>15.117113</ele>
        <time>2022-07-31T10:15:32.000Z</time>
      </trkpt>
      <trkpt lat="49.59234" lon="-1.30222">
        <ele>15.21125</ele>
        <time>2022-07-31T10:19:43.000Z</time>
      </trkpt>
      <trkpt lat="49.59235" lon="-1.30219">
        <ele>15.232435</ele>
        <time>2022-07-31T10:19:46.000Z</time>
      </trkpt>
      <trkpt lat="49.59237" lon="-1.30217">
        <ele>15.257125</ele>
        <time>2022-07-31T10:19:48.000Z</time>
      </trkpt>
      <trkpt lat="49.59237" lon="-1.30214">
        <ele>15.276039</ele>
        <time>2022-07-31T10:19:50.000Z</time>
      </trkpt>
      <trkpt lat="49.59237" lon="-1.3021">
        <ele>15.301957</ele>
        <time>2022-07-31T10:19:53.000Z</time>
      </trkpt>
      <trkpt lat="49.59236" lon="-1.30207">
        <ele>15.328521</ele>
        <time>2022-07-31T10:19:55.000Z</time>
      </trkpt>
      <trkpt lat="49.59235" lon="-1.30203">
        <ele>15.35471</ele>
        <time>2022-07-31T10:19:57.000Z</time>
      </trkpt>
      <trkpt lat="49.59235" lon="-1.302">
        <ele>15.373265</ele>
        <time>2022-07-31T10:19:59.000Z</time>
      </trkpt>
      <trkpt lat="49.59235" lon="-1.30196">
        <ele>15.397784</ele>
        <time>2022-07-31T10:20:01.000Z</time>
      </trkpt>
      <trkpt lat="49.59235" lon="-1.30192">
        <ele>15.426443</ele>
        <time>2022-07-31T10:20:03.000Z</time>
      </trkpt>
      <trkpt lat="49.59234" lon="-1.30188">
        <ele>15.453899</ele>
        <time>2022-07-31T10:20:05.000Z</time>
      </trkpt>
      <trkpt lat="49.59234" lon="-1.30185">
        <ele>15.475104</ele>
        <time>2022-07-31T10:20:07.000Z</time>
      </trkpt>
      <trkpt lat="49.59236" lon="-1.30183">
        <ele>15.495349</ele>
        <time>2022-07-31T10:20:09.000Z</time>
      </trkpt>
      <trkpt lat="49.59237" lon="-1.30182">
        <ele>15.516337</ele>
        <time>2022-07-31T10:20:11.000Z</time>
      </trkpt>
      <trkpt lat="49.59239" lon="-1.30185">
        <ele>15.54025</ele>
        <time>2022-07-31T10:20:14.000Z</time>
      </trkpt>
      <trkpt lat="49.59239" lon="-1.30188">
        <ele>15.560365</ele>
        <time>2022-07-31T10:20:16.000Z</time>
      </trkpt>
      <trkpt lat="49.59239" lon="-1.30192">
        <ele>15.585075</ele>
        <time>2022-07-31T10:20:18.000Z</time>
      </trkpt>
      <trkpt lat="49.59228" lon="-1.30196">
        <ele>15.702907</ele>
        <time>2022-07-31T10:22:59.000Z</time>
      </trkpt>
      <trkpt lat="49.59218" lon="-1.30191">
        <ele>15.80587</ele>
        <time>2022-07-31T10:26:33.000Z</time>
      </trkpt>
      <trkpt lat="49.59217" lon="-1.30187">
        <ele>15.835522</ele>
        <time>2022-07-31T10:26:35.000Z</time>
      </trkpt>
      <trkpt lat="49.59215" lon="-1.30185">
        <ele>15.855383</ele>
        <time>2022-07-31T10:26:37.000Z</time>
      </trkpt>
      <trkpt lat="49.59212" lon="-1.30177">
        <ele>15.916215</ele>
        <time>2022-07-31T10:26:48.000Z</time>
      </trkpt>
      <trkpt lat="49.5921" lon="-1.30177">
        <ele>15.942927</ele>
        <time>2022-07-31T10:26:49.000Z</time>
      </trkpt>
      <trkpt lat="49.59206" lon="-1.30177">
        <ele>15.97564</ele>
        <time>2022-07-31T10:26:50.000Z</time>
      </trkpt>
      <trkpt lat="49.59203" lon="-1.30178">
        <ele>16.008681</ele>
        <time>2022-07-31T10:26:51.000Z</time>
      </trkpt>
      <trkpt lat="49.592" lon="-1.30178">
        <ele>16.038394</ele>
        <time>2022-07-31T10:26:52.000Z</time>
      </trkpt>
      <trkpt lat="49.59197" lon="-1.30179">
        <ele>16.07206</ele>
        <time>2022-07-31T10:26:53.000Z</time>
      </trkpt>
      <trkpt lat="49.59194" lon="-1.3018">
        <ele>16.102754</ele>
        <time>2022-07-31T10:26:54.000Z</time>
      </trkpt>
      <trkpt lat="49.5919" lon="-1.30181">
        <ele>16.141962</ele>
        <time>2022-07-31T10:26:55.000Z</time>
      </trkpt>
      <trkpt lat="49.59187" lon="-1.30181">
        <ele>16.18086</ele>
        <time>2022-07-31T10:26:56.000Z</time>
      </trkpt>
      <trkpt lat="49.59182" lon="-1.30182">
        <ele>16.223878</ele>
        <time>2022-07-31T10:26:57.000Z</time>
      </trkpt>
      <trkpt lat="49.59178" lon="-1.30182">
        <ele>16.266819</ele>
        <time>2022-07-31T10:26:58.000Z</time>
      </trkpt>
      <trkpt lat="49.59174" lon="-1.30183">
        <ele>16.288386</ele>
        <time>2022-07-31T10:26:59.000Z</time>
      </trkpt>
      <trkpt lat="49.5917" lon="-1.30184">
        <ele>16.28795</ele>
        <time>2022-07-31T10:27:00.000Z</time>
      </trkpt>
      <trkpt lat="49.59166" lon="-1.30184">
        <ele>16.28758</ele>
        <time>2022-07-31T10:27:01.000Z</time>
      </trkpt>
      <trkpt lat="49.59162" lon="-1.30186">
        <ele>16.287138</ele>
        <time>2022-07-31T10:27:02.000Z</time>
      </trkpt>
      <trkpt lat="49.59157" lon="-1.30187">
        <ele>16.286725</ele>
        <time>2022-07-31T10:27:03.000Z</time>
      </trkpt>
      <trkpt lat="49.59153" lon="-1.30188">
        <ele>16.286322</ele>
        <time>2022-07-31T10:27:04.000Z</time>
      </trkpt>
      <trkpt lat="49.59149" lon="-1.3019">
        <ele>16.285936</ele>
        <time>2022-07-31T10:27:05.000Z</time>
      </trkpt>
      <trkpt lat="49.59146" lon="-1.30191">
        <ele>16.285558</ele>
        <time>2022-07-31T10:27:06.000Z</time>
      </trkpt>
      <trkpt lat="49.59142" lon="-1.30193">
        <ele>16.285211</ele>
        <time>2022-07-31T10:27:07.000Z</time>
      </trkpt>
      <trkpt lat="49.59138" lon="-1.30194">
        <ele>16.284826</ele>
        <time>2022-07-31T10:27:08.000Z</time>
      </trkpt>
      <trkpt lat="49.59135" lon="-1.30195">
        <ele>16.284481</ele>
        <time>2022-07-31T10:27:09.000Z</time>
      </trkpt>
      <trkpt lat="49.59131" lon="-1.30196">
        <ele>16.284111</ele>
        <time>2022-07-31T10:27:10.000Z</time>
      </trkpt>
      <trkpt lat="49.59128" lon="-1.30197">
        <ele>16.283791</ele>
        <time>2022-07-31T10:27:11.000Z</time>
      </trkpt>
      <trkpt lat="49.59125" lon="-1.30198">
        <ele>16.283476</ele>
        <time>2022-07-31T10:27:12.000Z</time>
      </trkpt>
      <trkpt lat="49.59121" lon="-1.30199">
        <ele>16.283133</ele>
        <time>2022-07-31T10:27:13.000Z</time>
      </trkpt>
      <trkpt lat="49.59117" lon="-1.302">
        <ele>16.282754</ele>
        <time>2022-07-31T10:27:14.000Z</time>
      </trkpt>
      <trkpt lat="49.59113" lon="-1.30201">
        <ele>16.282379</ele>
        <time>2022-07-31T10:27:15.000Z</time>
      </trkpt>
      <trkpt lat="49.59109" lon="-1.30203">
        <ele>16.281993</ele>
        <time>2022-07-31T10:27:16.000Z</time>
      </trkpt>
      <trkpt lat="49.59106" lon="-1.30204">
        <ele>16.281623</ele>
        <time>2022-07-31T10:27:17.000Z</time>
      </trkpt>
      <trkpt lat="49.59102" lon="-1.30205">
        <ele>16.281252</ele>
        <time>2022-07-31T10:27:18.000Z</time>
      </trkpt>
      <trkpt lat="49.59098" lon="-1.30205">
        <ele>16.280873</ele>
        <time>2022-07-31T10:27:19.000Z</time>
      </trkpt>
      <trkpt lat="49.59095" lon="-1.30207">
        <ele>16.280552</ele>
        <time>2022-07-31T10:27:20.000Z</time>
      </trkpt>
      <trkpt lat="49.59091" lon="-1.30208">
        <ele>16.280177</ele>
        <time>2022-07-31T10:27:21.000Z</time>
      </trkpt>
      <trkpt lat="49.59087" lon="-1.30209">
        <ele>16.279792</ele>
        <time>2022-07-31T10:27:22.000Z</time>
      </trkpt>
      <trkpt lat="49.59083" lon="-1.30211">
        <ele>16.279416</ele>
        <time>2022-07-31T10:27:23.000Z</time>
      </trkpt>
      <trkpt lat="49.59079" lon="-1.30212">
        <ele>16.279044</ele>
        <time>2022-07-31T10:27:24.000Z</time>
      </trkpt>
      <trkpt lat="49.59076" lon="-1.30213">
        <ele>16.27866</ele>
        <time>2022-07-31T10:27:25.000Z</time>
      </trkpt>
      <trkpt lat="49.59072" lon="-1.30214">
        <ele>16.278288</ele>
        <time>2022-07-31T10:27:26.000Z</time>
      </trkpt>
      <trkpt lat="49.59068" lon="-1.30215">
        <ele>16.277909</ele>
        <time>2022-07-31T10:27:27.000Z</time>
      </trkpt>
      <trkpt lat="49.59064" lon="-1.30216">
        <ele>16.277538</ele>
        <time>2022-07-31T10:27:28.000Z</time>
      </trkpt>
      <trkpt lat="49.5906" lon="-1.30217">
        <ele>16.277126</ele>
        <time>2022-07-31T10:27:29.000Z</time>
      </trkpt>
      <trkpt lat="49.59055" lon="-1.30218">
        <ele>16.276698</ele>
        <time>2022-07-31T10:27:30.000Z</time>
      </trkpt>
      <trkpt lat="49.59051" lon="-1.30219">
        <ele>16.276285</ele>
        <time>2022-07-31T10:27:31.000Z</time>
      </trkpt>
      <trkpt lat="49.59046" lon="-1.30221">
        <ele>16.275814</ele>
        <time>2022-07-31T10:27:32.000Z</time>
      </trkpt>
      <trkpt lat="49.59042" lon="-1.30222">
        <ele>16.275375</ele>
        <time>2022-07-31T10:27:33.000Z</time>
      </trkpt>
      <trkpt lat="49.59037" lon="-1.30223">
        <ele>16.274908</ele>
        <time>2022-07-31T10:27:34.000Z</time>
      </trkpt>
      <trkpt lat="49.59032" lon="-1.30224">
        <ele>16.27444</ele>
        <time>2022-07-31T10:27:35.000Z</time>
      </trkpt>
      <trkpt lat="49.59028" lon="-1.30226">
        <ele>16.273968</ele>
        <time>2022-07-31T10:27:36.000Z</time>
      </trkpt>
      <trkpt lat="49.59022" lon="-1.30227">
        <ele>16.273467</ele>
        <time>2022-07-31T10:27:37.000Z</time>
      </trkpt>
      <trkpt lat="49.59018" lon="-1.30229">
        <ele>16.273024</ele>
        <time>2022-07-31T10:27:38.000Z</time>
      </trkpt>
      <trkpt lat="49.59013" lon="-1.3023">
        <ele>16.272554</ele>
        <time>2022-07-31T10:27:39.000Z</time>
      </trkpt>
      <trkpt lat="49.59008" lon="-1.30231">
        <ele>16.272055</ele>
        <time>2022-07-31T10:27:40.000Z</time>
      </trkpt>
      <trkpt lat="49.59003" lon="-1.30232">
        <ele>16.271588</ele>
        <time>2022-07-31T10:27:41.000Z</time>
      </trkpt>
      <trkpt lat="49.58998" lon="-1.30233">
        <ele>16.264784</ele>
        <time>2022-07-31T10:27:42.000Z</time>
      </trkpt>
      <trkpt lat="49.58992" lon="-1.30234">
        <ele>16.242711</ele>
        <time>2022-07-31T10:27:43.000Z</time>
      </trkpt>
      <trkpt lat="49.58988" lon="-1.30235">
        <ele>16.224683</ele>
        <time>2022-07-31T10:27:44.000Z</time>
      </trkpt>
      <trkpt lat="49.58983" lon="-1.30236">
        <ele>16.204275</ele>
        <time>2022-07-31T10:27:45.000Z</time>
      </trkpt>
      <trkpt lat="49.58978" lon="-1.30237">
        <ele>16.18375</ele>
        <time>2022-07-31T10:27:46.000Z</time>
      </trkpt>
      <trkpt lat="49.58972" lon="-1.30238">
        <ele>16.161925</ele>
        <time>2022-07-31T10:27:47.000Z</time>
      </trkpt>
      <trkpt lat="49.58967" lon="-1.30239">
        <ele>16.139948</ele>
        <time>2022-07-31T10:27:48.000Z</time>
      </trkpt>
      <trkpt lat="49.58962" lon="-1.30239">
        <ele>16.119594</ele>
        <time>2022-07-31T10:27:49.000Z</time>
      </trkpt>
      <trkpt lat="49.58956" lon="-1.30239">
        <ele>16.09807</ele>
        <time>2022-07-31T10:27:50.000Z</time>
      </trkpt>
      <trkpt lat="49.58951" lon="-1.30239">
        <ele>16.076147</ele>
        <time>2022-07-31T10:27:51.000Z</time>
      </trkpt>
      <trkpt lat="49.58945" lon="-1.3024">
        <ele>16.053422</ele>
        <time>2022-07-31T10:27:52.000Z</time>
      </trkpt>
      <trkpt lat="49.5894" lon="-1.3024">
        <ele>16.032689</ele>
        <time>2022-07-31T10:27:53.000Z</time>
      </trkpt>
      <trkpt lat="49.58934" lon="-1.3024">
        <ele>16.011166</ele>
        <time>2022-07-31T10:27:54.000Z</time>
      </trkpt>
      <trkpt lat="49.58929" lon="-1.3024">
        <ele>15.989636</ele>
        <time>2022-07-31T10:27:55.000Z</time>
      </trkpt>
      <trkpt lat="49.58923" lon="-1.3024">
        <ele>15.966482</ele>
        <time>2022-07-31T10:27:56.000Z</time>
      </trkpt>
      <trkpt lat="49.58918" lon="-1.3024">
        <ele>15.94614</ele>
        <time>2022-07-31T10:27:57.000Z</time>
      </trkpt>
      <trkpt lat="49.58913" lon="-1.30241">
        <ele>15.924193</ele>
        <time>2022-07-31T10:27:58.000Z</time>
      </trkpt>
      <trkpt lat="49.58907" lon="-1.30241">
        <ele>15.902656</ele>
        <time>2022-07-31T10:27:59.000Z</time>
      </trkpt>
      <trkpt lat="49.58901" lon="-1.30242">
        <ele>15.879502</ele>
        <time>2022-07-31T10:28:00.000Z</time>
      </trkpt>
      <trkpt lat="49.58896" lon="-1.30242">
        <ele>15.859133</ele>
        <time>2022-07-31T10:28:01.000Z</time>
      </trkpt>
      <trkpt lat="49.58891" lon="-1.30243">
        <ele>15.83632</ele>
        <time>2022-07-31T10:28:02.000Z</time>
      </trkpt>
      <trkpt lat="49.58885" lon="-1.30244">
        <ele>15.813132</ele>
        <time>2022-07-31T10:28:03.000Z</time>
      </trkpt>
      <trkpt lat="49.58879" lon="-1.30244">
        <ele>15.790001</ele>
        <time>2022-07-31T10:28:04.000Z</time>
      </trkpt>
      <trkpt lat="49.58874" lon="-1.30244">
        <ele>15.768476</ele>
        <time>2022-07-31T10:28:05.000Z</time>
      </trkpt>
      <trkpt lat="49.58868" lon="-1.30244">
        <ele>15.746951</ele>
        <time>2022-07-31T10:28:06.000Z</time>
      </trkpt>
      <trkpt lat="49.58863" lon="-1.30244">
        <ele>15.726218</ele>
        <time>2022-07-31T10:28:07.000Z</time>
      </trkpt>
      <trkpt lat="49.58857" lon="-1.30245">
        <ele>15.703427</ele>
        <time>2022-07-31T10:28:08.000Z</time>
      </trkpt>
      <trkpt lat="49.58852" lon="-1.30246">
        <ele>15.682936</ele>
        <time>2022-07-31T10:28:09.000Z</time>
      </trkpt>
      <trkpt lat="49.58846" lon="-1.30247">
        <ele>15.659451</ele>
        <time>2022-07-31T10:28:10.000Z</time>
      </trkpt>
      <trkpt lat="49.58841" lon="-1.30249">
        <ele>15.637375</ele>
        <time>2022-07-31T10:28:11.000Z</time>
      </trkpt>
      <trkpt lat="49.58836" lon="-1.30251">
        <ele>15.614852</ele>
        <time>2022-07-31T10:28:12.000Z</time>
      </trkpt>
      <trkpt lat="49.5883" lon="-1.30253">
        <ele>15.591662</ele>
        <time>2022-07-31T10:28:13.000Z</time>
      </trkpt>
      <trkpt lat="49.58824" lon="-1.30255">
        <ele>15.567973</ele>
        <time>2022-07-31T10:28:14.000Z</time>
      </trkpt>
      <trkpt lat="49.58819" lon="-1.30257">
        <ele>15.551988</ele>
        <time>2022-07-31T10:28:15.000Z</time>
      </trkpt>
      <trkpt lat="49.58813" lon="-1.30259">
        <ele>15.54469</ele>
        <time>2022-07-31T10:28:16.000Z</time>
      </trkpt>
      <trkpt lat="49.58808" lon="-1.3026">
        <ele>15.53752</ele>
        <time>2022-07-31T10:28:17.000Z</time>
      </trkpt>
      <trkpt lat="49.58803" lon="-1.30262">
        <ele>15.530331</ele>
        <time>2022-07-31T10:28:18.000Z</time>
      </trkpt>
      <trkpt lat="49.58797" lon="-1.30265">
        <ele>15.522935</ele>
        <time>2022-07-31T10:28:19.000Z</time>
      </trkpt>
      <trkpt lat="49.58792" lon="-1.30267">
        <ele>15.515937</ele>
        <time>2022-07-31T10:28:20.000Z</time>
      </trkpt>
      <trkpt lat="49.58787" lon="-1.3027">
        <ele>15.509215</ele>
        <time>2022-07-31T10:28:21.000Z</time>
      </trkpt>
      <trkpt lat="49.58782" lon="-1.30273">
        <ele>15.501736</ele>
        <time>2022-07-31T10:28:22.000Z</time>
      </trkpt>
      <trkpt lat="49.58777" lon="-1.30276">
        <ele>15.495046</ele>
        <time>2022-07-31T10:28:23.000Z</time>
      </trkpt>
      <trkpt lat="49.58772" lon="-1.30279">
        <ele>15.488324</ele>
        <time>2022-07-31T10:28:24.000Z</time>
      </trkpt>
      <trkpt lat="49.58768" lon="-1.30282">
        <ele>15.481927</ele>
        <time>2022-07-31T10:28:25.000Z</time>
      </trkpt>
      <trkpt lat="49.58763" lon="-1.30286">
        <ele>15.475496</ele>
        <time>2022-07-31T10:28:26.000Z</time>
      </trkpt>
      <trkpt lat="49.58758" lon="-1.30288">
        <ele>15.46847</ele>
        <time>2022-07-31T10:28:27.000Z</time>
      </trkpt>
      <trkpt lat="49.58754" lon="-1.30291">
        <ele>15.462107</ele>
        <time>2022-07-31T10:28:28.000Z</time>
      </trkpt>
      <trkpt lat="49.58749" lon="-1.30294">
        <ele>15.455777</ele>
        <time>2022-07-31T10:28:29.000Z</time>
      </trkpt>
      <trkpt lat="49.58744" lon="-1.30297">
        <ele>15.449023</ele>
        <time>2022-07-31T10:28:30.000Z</time>
      </trkpt>
      <trkpt lat="49.5874" lon="-1.303">
        <ele>15.442661</ele>
        <time>2022-07-31T10:28:31.000Z</time>
      </trkpt>
      <trkpt lat="49.58736" lon="-1.30303">
        <ele>15.436771</ele>
        <time>2022-07-31T10:28:32.000Z</time>
      </trkpt>
      <trkpt lat="49.58731" lon="-1.30306">
        <ele>15.430441</ele>
        <time>2022-07-31T10:28:33.000Z</time>
      </trkpt>
      <trkpt lat="49.58727" lon="-1.30309">
        <ele>15.424598</ele>
        <time>2022-07-31T10:28:34.000Z</time>
      </trkpt>
      <trkpt lat="49.58723" lon="-1.30311">
        <ele>15.418568</ele>
        <time>2022-07-31T10:28:35.000Z</time>
      </trkpt>
      <trkpt lat="49.58718" lon="-1.30313">
        <ele>15.412416</ele>
        <time>2022-07-31T10:28:36.000Z</time>
      </trkpt>
      <trkpt lat="49.58714" lon="-1.30315">
        <ele>15.40671</ele>
        <time>2022-07-31T10:28:37.000Z</time>
      </trkpt>
      <trkpt lat="49.5871" lon="-1.30317">
        <ele>15.401129</ele>
        <time>2022-07-31T10:28:38.000Z</time>
      </trkpt>
      <trkpt lat="49.58706" lon="-1.30319">
        <ele>15.395494</ele>
        <time>2022-07-31T10:28:39.000Z</time>
      </trkpt>
      <trkpt lat="49.58702" lon="-1.3032">
        <ele>15.390442</ele>
        <time>2022-07-31T10:28:40.000Z</time>
      </trkpt>
      <trkpt lat="49.58698" lon="-1.30322">
        <ele>15.385245</ele>
        <time>2022-07-31T10:28:41.000Z</time>
      </trkpt>
      <trkpt lat="49.58694" lon="-1.30324">
        <ele>15.380456</ele>
        <time>2022-07-31T10:28:42.000Z</time>
      </trkpt>
      <trkpt lat="49.58691" lon="-1.30326">
        <ele>15.375551</ele>
        <time>2022-07-31T10:28:43.000Z</time>
      </trkpt>
      <trkpt lat="49.58688" lon="-1.30328">
        <ele>15.37178</ele>
        <time>2022-07-31T10:28:44.000Z</time>
      </trkpt>
      <trkpt lat="49.58686" lon="-1.3033">
        <ele>15.368085</ele>
        <time>2022-07-31T10:28:45.000Z</time>
      </trkpt>
      <trkpt lat="49.58683" lon="-1.30332">
        <ele>15.363635</ele>
        <time>2022-07-31T10:28:46.000Z</time>
      </trkpt>
      <trkpt lat="49.5868" lon="-1.30333">
        <ele>15.360032</ele>
        <time>2022-07-31T10:28:47.000Z</time>
      </trkpt>
      <trkpt lat="49.58677" lon="-1.30334">
        <ele>15.355777</ele>
        <time>2022-07-31T10:28:48.000Z</time>
      </trkpt>
      <trkpt lat="49.58674" lon="-1.30336">
        <ele>15.351833</ele>
        <time>2022-07-31T10:28:49.000Z</time>
      </trkpt>
      <trkpt lat="49.58671" lon="-1.30337">
        <ele>15.347976</ele>
        <time>2022-07-31T10:28:50.000Z</time>
      </trkpt>
      <trkpt lat="49.58669" lon="-1.30338">
        <ele>15.344602</ele>
        <time>2022-07-31T10:28:51.000Z</time>
      </trkpt>
      <trkpt lat="49.58666" lon="-1.30339">
        <ele>15.341124</ele>
        <time>2022-07-31T10:28:52.000Z</time>
      </trkpt>
      <trkpt lat="49.58664" lon="-1.3034">
        <ele>15.338208</ele>
        <time>2022-07-31T10:28:53.000Z</time>
      </trkpt>
      <trkpt lat="49.58661" lon="-1.30341">
        <ele>15.334731</ele>
        <time>2022-07-31T10:28:54.000Z</time>
      </trkpt>
      <trkpt lat="49.58659" lon="-1.30341">
        <ele>15.331797</ele>
        <time>2022-07-31T10:28:55.000Z</time>
      </trkpt>
      <trkpt lat="49.58657" lon="-1.30342">
        <ele>15.328695</ele>
        <time>2022-07-31T10:28:57.000Z</time>
      </trkpt>
      <trkpt lat="49.58653" lon="-1.3034">
        <ele>15.323758</ele>
        <time>2022-07-31T10:30:12.000Z</time>
      </trkpt>
      <trkpt lat="49.5865" lon="-1.3034">
        <ele>15.322938</ele>
        <time>2022-07-31T10:30:13.000Z</time>
      </trkpt>
      <trkpt lat="49.58647" lon="-1.30341">
        <ele>15.333759</ele>
        <time>2022-07-31T10:30:14.000Z</time>
      </trkpt>
      <trkpt lat="49.58643" lon="-1.30341">
        <ele>15.34458</ele>
        <time>2022-07-31T10:30:15.000Z</time>
      </trkpt>
      <trkpt lat="49.5864" lon="-1.30342">
        <ele>15.354482</ele>
        <time>2022-07-31T10:30:16.000Z</time>
      </trkpt>
      <trkpt lat="49.58636" lon="-1.30342">
        <ele>15.366223</ele>
        <time>2022-07-31T10:30:17.000Z</time>
      </trkpt>
      <trkpt lat="49.58633" lon="-1.30343">
        <ele>15.377351</ele>
        <time>2022-07-31T10:30:18.000Z</time>
      </trkpt>
      <trkpt lat="49.58629" lon="-1.30344">
        <ele>15.389218</ele>
        <time>2022-07-31T10:30:19.000Z</time>
      </trkpt>
      <trkpt lat="49.58626" lon="-1.30345">
        <ele>15.397633</ele>
        <time>2022-07-31T10:30:20.000Z</time>
      </trkpt>
      <trkpt lat="49.58623" lon="-1.30346">
        <ele>15.406399</ele>
        <time>2022-07-31T10:30:21.000Z</time>
      </trkpt>
      <trkpt lat="49.58621" lon="-1.30347">
        <ele>15.414649</ele>
        <time>2022-07-31T10:30:22.000Z</time>
      </trkpt>
      <trkpt lat="49.58619" lon="-1.30348">
        <ele>15.421709</ele>
        <time>2022-07-31T10:30:23.000Z</time>
      </trkpt>
      <trkpt lat="49.58615" lon="-1.30349">
        <ele>15.431723</ele>
        <time>2022-07-31T10:30:24.000Z</time>
      </trkpt>
      <trkpt lat="49.58613" lon="-1.3035">
        <ele>15.439973</ele>
        <time>2022-07-31T10:30:25.000Z</time>
      </trkpt>
      <trkpt lat="49.5861" lon="-1.30351">
        <ele>15.449042</ele>
        <time>2022-07-31T10:30:26.000Z</time>
      </trkpt>
      <trkpt lat="49.58607" lon="-1.30351">
        <ele>15.459022</ele>
        <time>2022-07-31T10:30:27.000Z</time>
      </trkpt>
      <trkpt lat="49.58604" lon="-1.30352">
        <ele>15.466973</ele>
        <time>2022-07-31T10:30:28.000Z</time>
      </trkpt>
      <trkpt lat="49.58601" lon="-1.30353">
        <ele>15.47601</ele>
        <time>2022-07-31T10:30:29.000Z</time>
      </trkpt>
      <trkpt lat="49.58599" lon="-1.30354">
        <ele>15.483268</ele>
        <time>2022-07-31T10:30:30.000Z</time>
      </trkpt>
      <trkpt lat="49.58597" lon="-1.30355">
        <ele>15.490275</ele>
        <time>2022-07-31T10:30:31.000Z</time>
      </trkpt>
      <trkpt lat="49.58594" lon="-1.30356">
        <ele>15.498525</ele>
        <time>2022-07-31T10:30:32.000Z</time>
      </trkpt>
      <trkpt lat="49.58591" lon="-1.30357">
        <ele>15.507373</ele>
        <time>2022-07-31T10:30:33.000Z</time>
      </trkpt>
      <trkpt lat="49.58589" lon="-1.30358">
        <ele>15.515622</ele>
        <time>2022-07-31T10:30:34.000Z</time>
      </trkpt>
      <trkpt lat="49.58586" lon="-1.30359">
        <ele>15.525674</ele>
        <time>2022-07-31T10:30:35.000Z</time>
      </trkpt>
      <trkpt lat="49.58583" lon="-1.3036">
        <ele>15.533923</ele>
        <time>2022-07-31T10:30:36.000Z</time>
      </trkpt>
      <trkpt lat="49.58581" lon="-1.30361">
        <ele>15.541874</ele>
        <time>2022-07-31T10:30:37.000Z</time>
      </trkpt>
      <trkpt lat="49.58577" lon="-1.30361">
        <ele>15.551776</ele>
        <time>2022-07-31T10:30:38.000Z</time>
      </trkpt>
      <trkpt lat="49.58574" lon="-1.30362">
        <ele>15.560784</ele>
        <time>2022-07-31T10:30:39.000Z</time>
      </trkpt>
      <trkpt lat="49.58572" lon="-1.30363">
        <ele>15.569821</ele>
        <time>2022-07-31T10:30:40.000Z</time>
      </trkpt>
      <trkpt lat="49.58569" lon="-1.30364">
        <ele>15.577943</ele>
        <time>2022-07-31T10:30:41.000Z</time>
      </trkpt>
      <trkpt lat="49.58566" lon="-1.30365">
        <ele>15.588183</ele>
        <time>2022-07-31T10:30:42.000Z</time>
      </trkpt>
      <trkpt lat="49.58563" lon="-1.30367">
        <ele>15.59748</ele>
        <time>2022-07-31T10:30:43.000Z</time>
      </trkpt>
      <trkpt lat="49.5856" lon="-1.30368">
        <ele>15.607776</ele>
        <time>2022-07-31T10:30:44.000Z</time>
      </trkpt>
      <trkpt lat="49.58557" lon="-1.30369">
        <ele>15.617074</ele>
        <time>2022-07-31T10:30:45.000Z</time>
      </trkpt>
      <trkpt lat="49.58554" lon="-1.30371">
        <ele>15.627493</ele>
        <time>2022-07-31T10:30:46.000Z</time>
      </trkpt>
      <trkpt lat="49.58551" lon="-1.30372">
        <ele>15.635907</ele>
        <time>2022-07-31T10:30:47.000Z</time>
      </trkpt>
      <trkpt lat="49.58548" lon="-1.30374">
        <ele>15.646327</ele>
        <time>2022-07-31T10:30:48.000Z</time>
      </trkpt>
      <trkpt lat="49.58545" lon="-1.30375">
        <ele>15.654449</ele>
        <time>2022-07-31T10:30:49.000Z</time>
      </trkpt>
      <trkpt lat="49.58542" lon="-1.30377">
        <ele>15.664</ele>
        <time>2022-07-31T10:30:50.000Z</time>
      </trkpt>
      <trkpt lat="49.58539" lon="-1.30379">
        <ele>15.674296</ele>
        <time>2022-07-31T10:30:51.000Z</time>
      </trkpt>
      <trkpt lat="49.58536" lon="-1.3038">
        <ele>15.684715</ele>
        <time>2022-07-31T10:30:52.000Z</time>
      </trkpt>
      <trkpt lat="49.58533" lon="-1.30382">
        <ele>15.695071</ele>
        <time>2022-07-31T10:30:53.000Z</time>
      </trkpt>
      <trkpt lat="49.58529" lon="-1.30383">
        <ele>15.706203</ele>
        <time>2022-07-31T10:30:54.000Z</time>
      </trkpt>
      <trkpt lat="49.58526" lon="-1.30385">
        <ele>15.71639</ele>
        <time>2022-07-31T10:30:55.000Z</time>
      </trkpt>
      <trkpt lat="49.58523" lon="-1.30386">
        <ele>15.725941</ele>
        <time>2022-07-31T10:30:56.000Z</time>
      </trkpt>
      <trkpt lat="49.58521" lon="-1.30388">
        <ele>15.734487</ele>
        <time>2022-07-31T10:30:57.000Z</time>
      </trkpt>
      <trkpt lat="49.58517" lon="-1.30389">
        <ele>15.744675</ele>
        <time>2022-07-31T10:30:58.000Z</time>
      </trkpt>
      <trkpt lat="49.58515" lon="-1.30391">
        <ele>15.753938</ele>
        <time>2022-07-31T10:30:59.000Z</time>
      </trkpt>
      <trkpt lat="49.58511" lon="-1.30392">
        <ele>15.764235</ele>
        <time>2022-07-31T10:31:00.000Z</time>
      </trkpt>
      <trkpt lat="49.58509" lon="-1.30394">
        <ele>15.77278</ele>
        <time>2022-07-31T10:31:01.000Z</time>
      </trkpt>
      <trkpt lat="49.58505" lon="-1.30395">
        <ele>15.784907</ele>
        <time>2022-07-31T10:31:02.000Z</time>
      </trkpt>
      <trkpt lat="49.58502" lon="-1.30397">
        <ele>15.795463</ele>
        <time>2022-07-31T10:31:03.000Z</time>
      </trkpt>
      <trkpt lat="49.58498" lon="-1.30399">
        <ele>15.807114</ele>
        <time>2022-07-31T10:31:04.000Z</time>
      </trkpt>
      <trkpt lat="49.58495" lon="-1.30401">
        <ele>15.816378</ele>
        <time>2022-07-31T10:31:05.000Z</time>
      </trkpt>
      <trkpt lat="49.58492" lon="-1.30403">
        <ele>15.827007</ele>
        <time>2022-07-31T10:31:06.000Z</time>
      </trkpt>
      <trkpt lat="49.58489" lon="-1.30404">
        <ele>15.836489</ele>
        <time>2022-07-31T10:31:07.000Z</time>
      </trkpt>
      <trkpt lat="49.58486" lon="-1.30406">
        <ele>15.847045</ele>
        <time>2022-07-31T10:31:08.000Z</time>
      </trkpt>
      <trkpt lat="49.58483" lon="-1.30408">
        <ele>15.856527</ele>
        <time>2022-07-31T10:31:09.000Z</time>
      </trkpt>
      <trkpt lat="49.5848" lon="-1.3041">
        <ele>15.867083</ele>
        <time>2022-07-31T10:31:10.000Z</time>
      </trkpt>
      <trkpt lat="49.58477" lon="-1.30412">
        <ele>15.869558</ele>
        <time>2022-07-31T10:31:11.000Z</time>
      </trkpt>
      <trkpt lat="49.58473" lon="-1.30414">
        <ele>15.856125</ele>
        <time>2022-07-31T10:31:12.000Z</time>
      </trkpt>
      <trkpt lat="49.5847" lon="-1.30416">
        <ele>15.842691</ele>
        <time>2022-07-31T10:31:13.000Z</time>
      </trkpt>
      <trkpt lat="49.58466" lon="-1.30418">
        <ele>15.82626</ele>
        <time>2022-07-31T10:31:14.000Z</time>
      </trkpt>
      <trkpt lat="49.58463" lon="-1.30421">
        <ele>15.812525</ele>
        <time>2022-07-31T10:31:15.000Z</time>
      </trkpt>
      <trkpt lat="49.5846" lon="-1.30423">
        <ele>15.799092</ele>
        <time>2022-07-31T10:31:16.000Z</time>
      </trkpt>
      <trkpt lat="49.58457" lon="-1.30425">
        <ele>15.786866</ele>
        <time>2022-07-31T10:31:17.000Z</time>
      </trkpt>
      <trkpt lat="49.58453" lon="-1.30427">
        <ele>15.771892</ele>
        <time>2022-07-31T10:31:18.000Z</time>
      </trkpt>
      <trkpt lat="49.5845" lon="-1.30429">
        <ele>15.757188</ele>
        <time>2022-07-31T10:31:19.000Z</time>
      </trkpt>
      <trkpt lat="49.58446" lon="-1.30431">
        <ele>15.742666</ele>
        <time>2022-07-31T10:31:20.000Z</time>
      </trkpt>
      <trkpt lat="49.58444" lon="-1.30433">
        <ele>15.730307</ele>
        <time>2022-07-31T10:31:21.000Z</time>
      </trkpt>
      <trkpt lat="49.5844" lon="-1.30435">
        <ele>15.715953</ele>
        <time>2022-07-31T10:31:22.000Z</time>
      </trkpt>
      <trkpt lat="49.58436" lon="-1.30437">
        <ele>15.700412</ele>
        <time>2022-07-31T10:31:23.000Z</time>
      </trkpt>
      <trkpt lat="49.58432" lon="-1.30439">
        <ele>15.684422</ele>
        <time>2022-07-31T10:31:24.000Z</time>
      </trkpt>
      <trkpt lat="49.58429" lon="-1.30441">
        <ele>15.6699</ele>
        <time>2022-07-31T10:31:25.000Z</time>
      </trkpt>
      <trkpt lat="49.58425" lon="-1.30443">
        <ele>15.654894</ele>
        <time>2022-07-31T10:31:26.000Z</time>
      </trkpt>
      <trkpt lat="49.58421" lon="-1.30446">
        <ele>15.63645</ele>
        <time>2022-07-31T10:31:27.000Z</time>
      </trkpt>
      <trkpt lat="49.58417" lon="-1.30448">
        <ele>15.621649</ele>
        <time>2022-07-31T10:31:28.000Z</time>
      </trkpt>
      <trkpt lat="49.58413" lon="-1.3045">
        <ele>15.605312</ele>
        <time>2022-07-31T10:31:29.000Z</time>
      </trkpt>
      <trkpt lat="49.5841" lon="-1.30452">
        <ele>15.589608</ele>
        <time>2022-07-31T10:31:30.000Z</time>
      </trkpt>
      <trkpt lat="49.58406" lon="-1.30454">
        <ele>15.573987</ele>
        <time>2022-07-31T10:31:31.000Z</time>
      </trkpt>
      <trkpt lat="49.58402" lon="-1.30456">
        <ele>15.557997</ele>
        <time>2022-07-31T10:31:32.000Z</time>
      </trkpt>
      <trkpt lat="49.58398" lon="-1.30458">
        <ele>15.543475</ele>
        <time>2022-07-31T10:31:33.000Z</time>
      </trkpt>
      <trkpt lat="49.58395" lon="-1.3046">
        <ele>15.527934</ele>
        <time>2022-07-31T10:31:34.000Z</time>
      </trkpt>
      <trkpt lat="49.58391" lon="-1.30462">
        <ele>15.511863</ele>
        <time>2022-07-31T10:31:35.000Z</time>
      </trkpt>
      <trkpt lat="49.58387" lon="-1.30464">
        <ele>15.496321</ele>
        <time>2022-07-31T10:31:36.000Z</time>
      </trkpt>
      <trkpt lat="49.58383" lon="-1.30466">
        <ele>15.480483</ele>
        <time>2022-07-31T10:31:37.000Z</time>
      </trkpt>
      <trkpt lat="49.5838" lon="-1.30468">
        <ele>15.466129</ele>
        <time>2022-07-31T10:31:38.000Z</time>
      </trkpt>
      <trkpt lat="49.58376" lon="-1.3047">
        <ele>15.450508</ele>
        <time>2022-07-31T10:31:39.000Z</time>
      </trkpt>
      <trkpt lat="49.58372" lon="-1.30472">
        <ele>15.43474</ele>
        <time>2022-07-31T10:31:40.000Z</time>
      </trkpt>
      <trkpt lat="49.58368" lon="-1.30473">
        <ele>15.419275</ele>
        <time>2022-07-31T10:31:41.000Z</time>
      </trkpt>
      <trkpt lat="49.58364" lon="-1.30475">
        <ele>15.403881</ele>
        <time>2022-07-31T10:31:42.000Z</time>
      </trkpt>
      <trkpt lat="49.5836" lon="-1.30477">
        <ele>15.388043</ele>
        <time>2022-07-31T10:31:43.000Z</time>
      </trkpt>
      <trkpt lat="49.58357" lon="-1.30479">
        <ele>15.372501</ele>
        <time>2022-07-31T10:31:44.000Z</time>
      </trkpt>
      <trkpt lat="49.58353" lon="-1.30481">
        <ele>15.356512</ele>
        <time>2022-07-31T10:31:45.000Z</time>
      </trkpt>
      <trkpt lat="49.58349" lon="-1.30482">
        <ele>15.342309</ele>
        <time>2022-07-31T10:31:46.000Z</time>
      </trkpt>
      <trkpt lat="49.58346" lon="-1.30484">
        <ele>15.329297</ele>
        <time>2022-07-31T10:31:47.000Z</time>
      </trkpt>
      <trkpt lat="49.58342" lon="-1.30486">
        <ele>15.313755</ele>
        <time>2022-07-31T10:31:48.000Z</time>
      </trkpt>
      <trkpt lat="49.58338" lon="-1.30487">
        <ele>15.298055</ele>
        <time>2022-07-31T10:31:49.000Z</time>
      </trkpt>
      <trkpt lat="49.58335" lon="-1.30489">
        <ele>15.283922</ele>
        <time>2022-07-31T10:31:50.000Z</time>
      </trkpt>
      <trkpt lat="49.58331" lon="-1.3049">
        <ele>15.268661</ele>
        <time>2022-07-31T10:31:51.000Z</time>
      </trkpt>
      <trkpt lat="49.58327" lon="-1.30492">
        <ele>15.254385</ele>
        <time>2022-07-31T10:31:52.000Z</time>
      </trkpt>
      <trkpt lat="49.58324" lon="-1.30494">
        <ele>15.241373</ele>
        <time>2022-07-31T10:31:53.000Z</time>
      </trkpt>
      <trkpt lat="49.5832" lon="-1.30495">
        <ele>15.225605</ele>
        <time>2022-07-31T10:31:54.000Z</time>
      </trkpt>
      <trkpt lat="49.58317" lon="-1.30497">
        <ele>15.209984</ele>
        <time>2022-07-31T10:31:55.000Z</time>
      </trkpt>
      <trkpt lat="49.58312" lon="-1.30499">
        <ele>15.192882</ele>
        <time>2022-07-31T10:31:56.000Z</time>
      </trkpt>
      <trkpt lat="49.58308" lon="-1.30501">
        <ele>15.176152</ele>
        <time>2022-07-31T10:31:57.000Z</time>
      </trkpt>
      <trkpt lat="49.58304" lon="-1.30503">
        <ele>15.249917</ele>
        <time>2022-07-31T10:31:58.000Z</time>
      </trkpt>
      <trkpt lat="49.583" lon="-1.30505">
        <ele>15.315029</ele>
        <time>2022-07-31T10:31:59.000Z</time>
      </trkpt>
      <trkpt lat="49.58296" lon="-1.30507">
        <ele>15.397727</ele>
        <time>2022-07-31T10:32:00.000Z</time>
      </trkpt>
      <trkpt lat="49.58293" lon="-1.3051">
        <ele>15.458845</ele>
        <time>2022-07-31T10:32:01.000Z</time>
      </trkpt>
      <trkpt lat="49.58289" lon="-1.30512">
        <ele>15.531682</ele>
        <time>2022-07-31T10:32:02.000Z</time>
      </trkpt>
      <trkpt lat="49.58285" lon="-1.30514">
        <ele>15.602488</ele>
        <time>2022-07-31T10:32:03.000Z</time>
      </trkpt>
      <trkpt lat="49.58281" lon="-1.30516">
        <ele>15.673294</ele>
        <time>2022-07-31T10:32:04.000Z</time>
      </trkpt>
      <trkpt lat="49.58277" lon="-1.30518">
        <ele>15.739312</ele>
        <time>2022-07-31T10:32:05.000Z</time>
      </trkpt>
      <trkpt lat="49.58274" lon="-1.3052">
        <ele>15.805244</ele>
        <time>2022-07-31T10:32:06.000Z</time>
      </trkpt>
      <trkpt lat="49.58271" lon="-1.30523">
        <ele>15.86683</ele>
        <time>2022-07-31T10:32:07.000Z</time>
      </trkpt>
      <trkpt lat="49.58267" lon="-1.30525">
        <ele>15.936873</ele>
        <time>2022-07-31T10:32:08.000Z</time>
      </trkpt>
      <trkpt lat="49.58264" lon="-1.30526">
        <ele>15.996293</ele>
        <time>2022-07-31T10:32:09.000Z</time>
      </trkpt>
      <trkpt lat="49.58261" lon="-1.30529">
        <ele>16.058365</ele>
        <time>2022-07-31T10:32:10.000Z</time>
      </trkpt>
      <trkpt lat="49.58258" lon="-1.30532">
        <ele>16.11928</ele>
        <time>2022-07-31T10:32:11.000Z</time>
      </trkpt>
      <trkpt lat="49.58256" lon="-1.30536">
        <ele>16.178134</ele>
        <time>2022-07-31T10:32:12.000Z</time>
      </trkpt>
      <trkpt lat="49.58255" lon="-1.30541">
        <ele>16.235989</ele>
        <time>2022-07-31T10:32:13.000Z</time>
      </trkpt>
      <trkpt lat="49.58255" lon="-1.30546">
        <ele>16.296161</ele>
        <time>2022-07-31T10:32:14.000Z</time>
      </trkpt>
      <trkpt lat="49.58255" lon="-1.30552">
        <ele>16.355207</ele>
        <time>2022-07-31T10:32:15.000Z</time>
      </trkpt>
      <trkpt lat="49.58256" lon="-1.30557">
        <ele>16.418601</ele>
        <time>2022-07-31T10:32:16.000Z</time>
      </trkpt>
      <trkpt lat="49.58256" lon="-1.30562">
        <ele>16.478773</ele>
        <time>2022-07-31T10:32:17.000Z</time>
      </trkpt>
      <trkpt lat="49.58257" lon="-1.30568">
        <ele>16.540739</ele>
        <time>2022-07-31T10:32:18.000Z</time>
      </trkpt>
      <trkpt lat="49.58257" lon="-1.30573">
        <ele>16.598842</ele>
        <time>2022-07-31T10:32:19.000Z</time>
      </trkpt>
      <trkpt lat="49.58258" lon="-1.30578">
        <ele>16.658579</ele>
        <time>2022-07-31T10:32:20.000Z</time>
      </trkpt>
      <trkpt lat="49.58258" lon="-1.30583">
        <ele>16.717625</ele>
        <time>2022-07-31T10:32:21.000Z</time>
      </trkpt>
      <trkpt lat="49.58259" lon="-1.30588">
        <ele>16.776586</ele>
        <time>2022-07-31T10:32:22.000Z</time>
      </trkpt>
      <trkpt lat="49.58259" lon="-1.30593">
        <ele>16.832986</ele>
        <time>2022-07-31T10:32:23.000Z</time>
      </trkpt>
      <trkpt lat="49.58261" lon="-1.30598">
        <ele>16.891821</ele>
        <time>2022-07-31T10:32:24.000Z</time>
      </trkpt>
      <trkpt lat="49.58261" lon="-1.30603">
        <ele>16.946362</ele>
        <time>2022-07-31T10:32:25.000Z</time>
      </trkpt>
      <trkpt lat="49.58261" lon="-1.30608">
        <ele>17.003874</ele>
        <time>2022-07-31T10:32:26.000Z</time>
      </trkpt>
      <trkpt lat="49.58262" lon="-1.30613">
        <ele>17.057488</ele>
        <time>2022-07-31T10:32:27.000Z</time>
      </trkpt>
      <trkpt lat="49.58262" lon="-1.30617">
        <ele>17.111667</ele>
        <time>2022-07-31T10:32:28.000Z</time>
      </trkpt>
      <trkpt lat="49.58263" lon="-1.30622">
        <ele>17.16547</ele>
        <time>2022-07-31T10:32:29.000Z</time>
      </trkpt>
      <trkpt lat="49.58264" lon="-1.30626">
        <ele>17.214427</ele>
        <time>2022-07-31T10:32:30.000Z</time>
      </trkpt>
      <trkpt lat="49.58264" lon="-1.30631">
        <ele>17.273241</ele>
        <time>2022-07-31T10:32:31.000Z</time>
      </trkpt>
      <trkpt lat="49.58264" lon="-1.30636">
        <ele>17.330752</ele>
        <time>2022-07-31T10:32:32.000Z</time>
      </trkpt>
      <trkpt lat="49.58264" lon="-1.30641">
        <ele>17.382713</ele>
        <time>2022-07-31T10:32:33.000Z</time>
      </trkpt>
      <trkpt lat="49.58265" lon="-1.30645">
        <ele>17.431628</ele>
        <time>2022-07-31T10:32:34.000Z</time>
      </trkpt>
      <trkpt lat="49.58265" lon="-1.3065">
        <ele>17.487486</ele>
        <time>2022-07-31T10:32:35.000Z</time>
      </trkpt>
      <trkpt lat="49.58265" lon="-1.30655">
        <ele>17.545405</ele>
        <time>2022-07-31T10:32:36.000Z</time>
      </trkpt>
      <trkpt lat="49.58266" lon="-1.3066">
        <ele>17.606704</ele>
        <time>2022-07-31T10:32:37.000Z</time>
      </trkpt>
      <trkpt lat="49.58266" lon="-1.30666">
        <ele>17.670042</ele>
        <time>2022-07-31T10:32:38.000Z</time>
      </trkpt>
      <trkpt lat="49.58265" lon="-1.30672">
        <ele>17.735354</ele>
        <time>2022-07-31T10:32:39.000Z</time>
      </trkpt>
      <trkpt lat="49.58264" lon="-1.30677">
        <ele>17.798748</ele>
        <time>2022-07-31T10:32:40.000Z</time>
      </trkpt>
      <trkpt lat="49.58263" lon="-1.30683">
        <ele>17.867088</ele>
        <time>2022-07-31T10:32:41.000Z</time>
      </trkpt>
      <trkpt lat="49.58262" lon="-1.30688">
        <ele>17.930169</ele>
        <time>2022-07-31T10:32:42.000Z</time>
      </trkpt>
      <trkpt lat="49.58261" lon="-1.30693">
        <ele>17.992149</ele>
        <time>2022-07-31T10:32:43.000Z</time>
      </trkpt>
      <trkpt lat="49.5826" lon="-1.30698">
        <ele>18.053078</ele>
        <time>2022-07-31T10:32:44.000Z</time>
      </trkpt>
      <trkpt lat="49.58259" lon="-1.30703">
        <ele>18.111769</ele>
        <time>2022-07-31T10:32:45.000Z</time>
      </trkpt>
      <trkpt lat="49.58258" lon="-1.30708">
        <ele>18.171649</ele>
        <time>2022-07-31T10:32:46.000Z</time>
      </trkpt>
      <trkpt lat="49.58256" lon="-1.30713">
        <ele>18.229696</ele>
        <time>2022-07-31T10:32:47.000Z</time>
      </trkpt>
      <trkpt lat="49.58255" lon="-1.30717">
        <ele>18.283499</ele>
        <time>2022-07-31T10:32:48.000Z</time>
      </trkpt>
      <trkpt lat="49.58253" lon="-1.30722">
        <ele>18.378369</ele>
        <time>2022-07-31T10:32:49.000Z</time>
      </trkpt>
      <trkpt lat="49.58253" lon="-1.30726">
        <ele>18.500048</ele>
        <time>2022-07-31T10:32:50.000Z</time>
      </trkpt>
      <trkpt lat="49.58251" lon="-1.3073">
        <ele>18.625594</ele>
        <time>2022-07-31T10:32:51.000Z</time>
      </trkpt>
      <trkpt lat="49.58251" lon="-1.30734">
        <ele>18.743897</ele>
        <time>2022-07-31T10:32:52.000Z</time>
      </trkpt>
      <trkpt lat="49.58249" lon="-1.30739">
        <ele>18.879414</ele>
        <time>2022-07-31T10:32:53.000Z</time>
      </trkpt>
      <trkpt lat="49.58249" lon="-1.30743">
        <ele>18.990178</ele>
        <time>2022-07-31T10:32:54.000Z</time>
      </trkpt>
      <trkpt lat="49.58248" lon="-1.30746">
        <ele>19.10299</ele>
        <time>2022-07-31T10:32:55.000Z</time>
      </trkpt>
      <trkpt lat="49.58247" lon="-1.3075">
        <ele>19.213257</ele>
        <time>2022-07-31T10:32:56.000Z</time>
      </trkpt>
      <trkpt lat="49.58246" lon="-1.30754">
        <ele>19.324543</ele>
        <time>2022-07-31T10:32:57.000Z</time>
      </trkpt>
      <trkpt lat="49.58245" lon="-1.30757">
        <ele>19.425296</ele>
        <time>2022-07-31T10:32:58.000Z</time>
      </trkpt>
      <trkpt lat="49.58245" lon="-1.30761">
        <ele>19.524882</ele>
        <time>2022-07-31T10:32:59.000Z</time>
      </trkpt>
      <trkpt lat="49.58245" lon="-1.30764">
        <ele>19.621997</ele>
        <time>2022-07-31T10:33:00.000Z</time>
      </trkpt>
      <trkpt lat="49.58244" lon="-1.30768">
        <ele>19.720125</ele>
        <time>2022-07-31T10:33:01.000Z</time>
      </trkpt>
      <trkpt lat="49.58243" lon="-1.30771">
        <ele>19.809118</ele>
        <time>2022-07-31T10:33:02.000Z</time>
      </trkpt>
      <trkpt lat="49.58243" lon="-1.30774">
        <ele>19.898058</ele>
        <time>2022-07-31T10:33:03.000Z</time>
      </trkpt>
      <trkpt lat="49.58243" lon="-1.30777">
        <ele>19.986998</ele>
        <time>2022-07-31T10:33:04.000Z</time>
      </trkpt>
      <trkpt lat="49.58242" lon="-1.3078">
        <ele>20.082244</ele>
        <time>2022-07-31T10:33:05.000Z</time>
      </trkpt>
      <trkpt lat="49.58241" lon="-1.30784">
        <ele>20.171184</ele>
        <time>2022-07-31T10:33:06.000Z</time>
      </trkpt>
      <trkpt lat="49.58241" lon="-1.30787">
        <ele>20.264084</ele>
        <time>2022-07-31T10:33:07.000Z</time>
      </trkpt>
      <trkpt lat="49.5824" lon="-1.3079">
        <ele>20.362564</ele>
        <time>2022-07-31T10:33:08.000Z</time>
      </trkpt>
      <trkpt lat="49.58239" lon="-1.30794">
        <ele>20.463317</ele>
        <time>2022-07-31T10:33:09.000Z</time>
      </trkpt>
      <trkpt lat="49.58239" lon="-1.30797">
        <ele>20.545841</ele>
        <time>2022-07-31T10:33:10.000Z</time>
      </trkpt>
      <trkpt lat="49.58239" lon="-1.308">
        <ele>20.633865</ele>
        <time>2022-07-31T10:33:11.000Z</time>
      </trkpt>
      <trkpt lat="49.58239" lon="-1.30803">
        <ele>20.719139</ele>
        <time>2022-07-31T10:33:12.000Z</time>
      </trkpt>
      <trkpt lat="49.58238" lon="-1.30806">
        <ele>20.81509</ele>
        <time>2022-07-31T10:33:13.000Z</time>
      </trkpt>
      <trkpt lat="49.58238" lon="-1.30809">
        <ele>20.90403</ele>
        <time>2022-07-31T10:33:14.000Z</time>
      </trkpt>
      <trkpt lat="49.58237" lon="-1.30813">
        <ele>20.99954</ele>
        <time>2022-07-31T10:33:15.000Z</time>
      </trkpt>
      <trkpt lat="49.58237" lon="-1.30816">
        <ele>21.082064</ele>
        <time>2022-07-31T10:33:16.000Z</time>
      </trkpt>
      <trkpt lat="49.58237" lon="-1.30819">
        <ele>21.173727</ele>
        <time>2022-07-31T10:33:17.000Z</time>
      </trkpt>
      <trkpt lat="49.58236" lon="-1.30822">
        <ele>21.25224</ele>
        <time>2022-07-31T10:33:18.000Z</time>
      </trkpt>
      <trkpt lat="49.58236" lon="-1.30827">
        <ele>21.398031</ele>
        <time>2022-07-31T10:33:20.000Z</time>
      </trkpt>
      <trkpt lat="49.58236" lon="-1.3083">
        <ele>21.485736</ele>
        <time>2022-07-31T10:33:21.000Z</time>
      </trkpt>
      <trkpt lat="49.58236" lon="-1.30835">
        <ele>21.629341</ele>
        <time>2022-07-31T10:33:23.000Z</time>
      </trkpt>
      <trkpt lat="49.58236" lon="-1.3084">
        <ele>21.759253</ele>
        <time>2022-07-31T10:33:25.000Z</time>
      </trkpt>
      <trkpt lat="49.58234" lon="-1.30844">
        <ele>21.90043</ele>
        <time>2022-07-31T10:33:27.000Z</time>
      </trkpt>
      <trkpt lat="49.58231" lon="-1.30848">
        <ele>22.04554</ele>
        <time>2022-07-31T10:33:29.000Z</time>
      </trkpt>
      <trkpt lat="49.5823" lon="-1.30849">
        <ele>22.124979</ele>
        <time>2022-07-31T10:33:30.000Z</time>
      </trkpt>
      <trkpt lat="49.58228" lon="-1.30851">
        <ele>22.218164</ele>
        <time>2022-07-31T10:33:31.000Z</time>
      </trkpt>
      <trkpt lat="49.58226" lon="-1.30852">
        <ele>22.303339</ele>
        <time>2022-07-31T10:33:32.000Z</time>
      </trkpt>
      <trkpt lat="49.58224" lon="-1.30853">
        <ele>22.400648</ele>
        <time>2022-07-31T10:33:33.000Z</time>
      </trkpt>
      <trkpt lat="49.58221" lon="-1.30854">
        <ele>22.504576</ele>
        <time>2022-07-31T10:33:34.000Z</time>
      </trkpt>
      <trkpt lat="49.58219" lon="-1.30855">
        <ele>22.603581</ele>
        <time>2022-07-31T10:33:35.000Z</time>
      </trkpt>
      <trkpt lat="49.58217" lon="-1.30856">
        <ele>22.701702</ele>
        <time>2022-07-31T10:33:36.000Z</time>
      </trkpt>
      <trkpt lat="49.58215" lon="-1.30857">
        <ele>22.803088</ele>
        <time>2022-07-31T10:33:37.000Z</time>
      </trkpt>
      <trkpt lat="49.58212" lon="-1.30858">
        <ele>22.929164</ele>
        <time>2022-07-31T10:33:38.000Z</time>
      </trkpt>
      <trkpt lat="49.5821" lon="-1.3086">
        <ele>23.028168</ele>
        <time>2022-07-31T10:33:39.000Z</time>
      </trkpt>
      <trkpt lat="49.58207" lon="-1.30861">
        <ele>23.130221</ele>
        <time>2022-07-31T10:33:40.000Z</time>
      </trkpt>
      <trkpt lat="49.58205" lon="-1.30863">
        <ele>23.247996</ele>
        <time>2022-07-31T10:33:41.000Z</time>
      </trkpt>
      <trkpt lat="49.58202" lon="-1.30864">
        <ele>23.375386</ele>
        <time>2022-07-31T10:33:42.000Z</time>
      </trkpt>
      <trkpt lat="49.58199" lon="-1.30865">
        <ele>23.48732</ele>
        <time>2022-07-31T10:33:43.000Z</time>
      </trkpt>
      <trkpt lat="49.58197" lon="-1.30867">
        <ele>23.593267</ele>
        <time>2022-07-31T10:33:44.000Z</time>
      </trkpt>
      <trkpt lat="49.58194" lon="-1.30868">
        <ele>23.720657</ele>
        <time>2022-07-31T10:33:45.000Z</time>
      </trkpt>
      <trkpt lat="49.58192" lon="-1.30869">
        <ele>23.80676</ele>
        <time>2022-07-31T10:33:46.000Z</time>
      </trkpt>
      <trkpt lat="49.5819" lon="-1.3087">
        <ele>23.907732</ele>
        <time>2022-07-31T10:33:47.000Z</time>
      </trkpt>
      <trkpt lat="49.58188" lon="-1.30871">
        <ele>24.009118</ele>
        <time>2022-07-31T10:33:48.000Z</time>
      </trkpt>
      <trkpt lat="49.58185" lon="-1.30873">
        <ele>24.121051</ele>
        <time>2022-07-31T10:33:49.000Z</time>
      </trkpt>
      <trkpt lat="49.58182" lon="-1.30874">
        <ele>24.253679</ele>
        <time>2022-07-31T10:33:50.000Z</time>
      </trkpt>
      <trkpt lat="49.5818" lon="-1.30876">
        <ele>24.362026</ele>
        <time>2022-07-31T10:33:51.000Z</time>
      </trkpt>
      <trkpt lat="49.58178" lon="-1.30878">
        <ele>24.48184</ele>
        <time>2022-07-31T10:33:52.000Z</time>
      </trkpt>
      <trkpt lat="49.58174" lon="-1.3088">
        <ele>24.625434</ele>
        <time>2022-07-31T10:33:53.000Z</time>
      </trkpt>
      <trkpt lat="49.58172" lon="-1.30882">
        <ele>24.746348</ele>
        <time>2022-07-31T10:33:54.000Z</time>
      </trkpt>
      <trkpt lat="49.58169" lon="-1.30883">
        <ele>24.860159</ele>
        <time>2022-07-31T10:33:55.000Z</time>
      </trkpt>
      <trkpt lat="49.58166" lon="-1.30885">
        <ele>24.989932</ele>
        <time>2022-07-31T10:33:56.000Z</time>
      </trkpt>
      <trkpt lat="49.58164" lon="-1.30886">
        <ele>25.110845</ele>
        <time>2022-07-31T10:33:57.000Z</time>
      </trkpt>
      <trkpt lat="49.58161" lon="-1.30888">
        <ele>25.223688</ele>
        <time>2022-07-31T10:33:58.000Z</time>
      </trkpt>
      <trkpt lat="49.58158" lon="-1.30889">
        <ele>25.365587</ele>
        <time>2022-07-31T10:33:59.000Z</time>
      </trkpt>
      <trkpt lat="49.58156" lon="-1.30891">
        <ele>25.483362</ele>
        <time>2022-07-31T10:34:00.000Z</time>
      </trkpt>
      <trkpt lat="49.58153" lon="-1.30892">
        <ele>25.614035</ele>
        <time>2022-07-31T10:34:01.000Z</time>
      </trkpt>
      <trkpt lat="49.5815" lon="-1.30894">
        <ele>25.741704</ele>
        <time>2022-07-31T10:34:02.000Z</time>
      </trkpt>
      <trkpt lat="49.58148" lon="-1.30896">
        <ele>25.856529</ele>
        <time>2022-07-31T10:34:03.000Z</time>
      </trkpt>
      <trkpt lat="49.58145" lon="-1.30898">
        <ele>25.939228</ele>
        <time>2022-07-31T10:34:04.000Z</time>
      </trkpt>
      <trkpt lat="49.58142" lon="-1.309">
        <ele>25.928531</ele>
        <time>2022-07-31T10:34:05.000Z</time>
      </trkpt>
      <trkpt lat="49.58139" lon="-1.30902">
        <ele>25.915508</ele>
        <time>2022-07-31T10:34:06.000Z</time>
      </trkpt>
      <trkpt lat="49.58136" lon="-1.30904">
        <ele>25.904684</ele>
        <time>2022-07-31T10:34:07.000Z</time>
      </trkpt>
      <trkpt lat="49.58134" lon="-1.30906">
        <ele>25.894206</ele>
        <time>2022-07-31T10:34:08.000Z</time>
      </trkpt>
      <trkpt lat="49.58131" lon="-1.30908">
        <ele>25.881183</ele>
        <time>2022-07-31T10:34:09.000Z</time>
      </trkpt>
      <trkpt lat="49.58128" lon="-1.3091">
        <ele>25.871032</ele>
        <time>2022-07-31T10:34:10.000Z</time>
      </trkpt>
      <trkpt lat="49.58126" lon="-1.30912">
        <ele>25.8601</ele>
        <time>2022-07-31T10:34:11.000Z</time>
      </trkpt>
      <trkpt lat="49.58124" lon="-1.30914">
        <ele>25.849821</ele>
        <time>2022-07-31T10:34:12.000Z</time>
      </trkpt>
      <trkpt lat="49.58121" lon="-1.30916">
        <ele>25.839009</ele>
        <time>2022-07-31T10:34:13.000Z</time>
      </trkpt>
      <trkpt lat="49.58118" lon="-1.30919">
        <ele>25.827746</ele>
        <time>2022-07-31T10:34:14.000Z</time>
      </trkpt>
      <trkpt lat="49.58116" lon="-1.30921">
        <ele>25.816711</ele>
        <time>2022-07-31T10:34:15.000Z</time>
      </trkpt>
      <trkpt lat="49.58113" lon="-1.30923">
        <ele>25.804663</ele>
        <time>2022-07-31T10:34:16.000Z</time>
      </trkpt>
      <trkpt lat="49.5811" lon="-1.30925">
        <ele>25.793399</ele>
        <time>2022-07-31T10:34:17.000Z</time>
      </trkpt>
      <trkpt lat="49.58108" lon="-1.30927">
        <ele>25.782365</ele>
        <time>2022-07-31T10:34:18.000Z</time>
      </trkpt>
      <trkpt lat="49.58105" lon="-1.30929">
        <ele>25.770645</ele>
        <time>2022-07-31T10:34:19.000Z</time>
      </trkpt>
      <trkpt lat="49.58103" lon="-1.30931">
        <ele>25.760366</ele>
        <time>2022-07-31T10:34:20.000Z</time>
      </trkpt>
      <trkpt lat="49.58101" lon="-1.30934">
        <ele>25.74984</ele>
        <time>2022-07-31T10:34:21.000Z</time>
      </trkpt>
      <trkpt lat="49.58098" lon="-1.30936">
        <ele>25.739293</ele>
        <time>2022-07-31T10:34:22.000Z</time>
      </trkpt>
      <trkpt lat="49.58096" lon="-1.30938">
        <ele>25.728481</ele>
        <time>2022-07-31T10:34:23.000Z</time>
      </trkpt>
      <trkpt lat="49.58093" lon="-1.3094">
        <ele>25.715458</ele>
        <time>2022-07-31T10:34:24.000Z</time>
      </trkpt>
      <trkpt lat="49.5809" lon="-1.30942">
        <ele>25.70376</ele>
        <time>2022-07-31T10:34:25.000Z</time>
      </trkpt>
      <trkpt lat="49.58086" lon="-1.30943">
        <ele>25.690028</ele>
        <time>2022-07-31T10:34:26.000Z</time>
      </trkpt>
      <trkpt lat="49.58083" lon="-1.30945">
        <ele>25.678558</ele>
        <time>2022-07-31T10:34:27.000Z</time>
      </trkpt>
      <trkpt lat="49.5808" lon="-1.30946">
        <ele>25.66605</ele>
        <time>2022-07-31T10:34:28.000Z</time>
      </trkpt>
      <trkpt lat="49.58077" lon="-1.30947">
        <ele>25.652484</ele>
        <time>2022-07-31T10:34:29.000Z</time>
      </trkpt>
      <trkpt lat="49.58073" lon="-1.30947">
        <ele>25.639155</ele>
        <time>2022-07-31T10:34:30.000Z</time>
      </trkpt>
      <trkpt lat="49.5807" lon="-1.30947">
        <ele>25.627001</ele>
        <time>2022-07-31T10:34:31.000Z</time>
      </trkpt>
      <trkpt lat="49.58067" lon="-1.30947">
        <ele>25.614848</ele>
        <time>2022-07-31T10:34:32.000Z</time>
      </trkpt>
      <trkpt lat="49.58063" lon="-1.30947">
        <ele>25.601175</ele>
        <time>2022-07-31T10:34:33.000Z</time>
      </trkpt>
      <trkpt lat="49.5806" lon="-1.30947">
        <ele>25.59047</ele>
        <time>2022-07-31T10:34:34.000Z</time>
      </trkpt>
      <trkpt lat="49.58057" lon="-1.30946">
        <ele>25.578069</ele>
        <time>2022-07-31T10:34:35.000Z</time>
      </trkpt>
      <trkpt lat="49.58053" lon="-1.30945">
        <ele>25.564218</ele>
        <time>2022-07-31T10:34:36.000Z</time>
      </trkpt>
      <trkpt lat="49.5805" lon="-1.30944">
        <ele>25.551817</ele>
        <time>2022-07-31T10:34:37.000Z</time>
      </trkpt>
      <trkpt lat="49.58047" lon="-1.30943">
        <ele>25.539417</ele>
        <time>2022-07-31T10:34:38.000Z</time>
      </trkpt>
      <trkpt lat="49.58044" lon="-1.30942">
        <ele>25.525744</ele>
        <time>2022-07-31T10:34:39.000Z</time>
      </trkpt>
      <trkpt lat="49.5804" lon="-1.30941">
        <ele>25.512225</ele>
        <time>2022-07-31T10:34:40.000Z</time>
      </trkpt>
      <trkpt lat="49.58037" lon="-1.3094">
        <ele>25.499913</ele>
        <time>2022-07-31T10:34:41.000Z</time>
      </trkpt>
      <trkpt lat="49.58033" lon="-1.30939">
        <ele>25.485272</ele>
        <time>2022-07-31T10:34:42.000Z</time>
      </trkpt>
      <trkpt lat="49.58029" lon="-1.30938">
        <ele>25.471379</ele>
        <time>2022-07-31T10:34:43.000Z</time>
      </trkpt>
      <trkpt lat="49.58025" lon="-1.30937">
        <ele>25.45565</ele>
        <time>2022-07-31T10:34:44.000Z</time>
      </trkpt>
      <trkpt lat="49.58022" lon="-1.30936">
        <ele>25.443435</ele>
        <time>2022-07-31T10:34:45.000Z</time>
      </trkpt>
      <trkpt lat="49.58018" lon="-1.30937">
        <ele>25.428614</ele>
        <time>2022-07-31T10:34:46.000Z</time>
      </trkpt>
      <trkpt lat="49.58014" lon="-1.30937">
        <ele>25.411887</ele>
        <time>2022-07-31T10:34:47.000Z</time>
      </trkpt>
      <trkpt lat="49.5801" lon="-1.30938">
        <ele>25.395843</ele>
        <time>2022-07-31T10:34:48.000Z</time>
      </trkpt>
      <trkpt lat="49.58005" lon="-1.30939">
        <ele>25.379702</ele>
        <time>2022-07-31T10:34:49.000Z</time>
      </trkpt>
      <trkpt lat="49.58001" lon="-1.3094">
        <ele>25.362811</ele>
        <time>2022-07-31T10:34:50.000Z</time>
      </trkpt>
      <trkpt lat="49.57996" lon="-1.30941">
        <ele>25.342803</ele>
        <time>2022-07-31T10:34:51.000Z</time>
      </trkpt>
      <trkpt lat="49.57991" lon="-1.30942">
        <ele>25.325689</ele>
        <time>2022-07-31T10:34:52.000Z</time>
      </trkpt>
      <trkpt lat="49.57987" lon="-1.30944">
        <ele>25.307969</ele>
        <time>2022-07-31T10:34:53.000Z</time>
      </trkpt>
      <trkpt lat="49.57982" lon="-1.30946">
        <ele>25.29043</ele>
        <time>2022-07-31T10:34:54.000Z</time>
      </trkpt>
      <trkpt lat="49.57978" lon="-1.30948">
        <ele>25.271609</ele>
        <time>2022-07-31T10:34:55.000Z</time>
      </trkpt>
      <trkpt lat="49.57973" lon="-1.30949">
        <ele>25.212919</ele>
        <time>2022-07-31T10:34:56.000Z</time>
      </trkpt>
      <trkpt lat="49.57968" lon="-1.30951">
        <ele>25.093525</ele>
        <time>2022-07-31T10:34:57.000Z</time>
      </trkpt>
      <trkpt lat="49.57964" lon="-1.30954">
        <ele>24.985971</ele>
        <time>2022-07-31T10:34:58.000Z</time>
      </trkpt>
      <trkpt lat="49.57959" lon="-1.30956">
        <ele>24.875371</ele>
        <time>2022-07-31T10:34:59.000Z</time>
      </trkpt>
      <trkpt lat="49.57955" lon="-1.30958">
        <ele>24.768859</ele>
        <time>2022-07-31T10:35:00.000Z</time>
      </trkpt>
      <trkpt lat="49.57951" lon="-1.3096">
        <ele>24.655503</ele>
        <time>2022-07-31T10:35:01.000Z</time>
      </trkpt>
      <trkpt lat="49.57947" lon="-1.30962">
        <ele>24.558573</ele>
        <time>2022-07-31T10:35:02.000Z</time>
      </trkpt>
      <trkpt lat="49.57943" lon="-1.30965">
        <ele>24.458855</ele>
        <time>2022-07-31T10:35:03.000Z</time>
      </trkpt>
      <trkpt lat="49.57939" lon="-1.30967">
        <ele>24.351803</ele>
        <time>2022-07-31T10:35:04.000Z</time>
      </trkpt>
      <trkpt lat="49.57935" lon="-1.3097">
        <ele>24.25154</ele>
        <time>2022-07-31T10:35:05.000Z</time>
      </trkpt>
      <trkpt lat="49.57932" lon="-1.30972">
        <ele>24.160184</ele>
        <time>2022-07-31T10:35:06.000Z</time>
      </trkpt>
      <trkpt lat="49.57927" lon="-1.30974">
        <ele>24.054316</ele>
        <time>2022-07-31T10:35:07.000Z</time>
      </trkpt>
      <trkpt lat="49.57924" lon="-1.30977">
        <ele>23.954598</ele>
        <time>2022-07-31T10:35:08.000Z</time>
      </trkpt>
      <trkpt lat="49.5792" lon="-1.30979">
        <ele>23.857132</ele>
        <time>2022-07-31T10:35:09.000Z</time>
      </trkpt>
      <trkpt lat="49.57916" lon="-1.30981">
        <ele>23.756869</ele>
        <time>2022-07-31T10:35:10.000Z</time>
      </trkpt>
      <trkpt lat="49.57912" lon="-1.30983">
        <ele>23.652106</ele>
        <time>2022-07-31T10:35:11.000Z</time>
      </trkpt>
      <trkpt lat="49.57908" lon="-1.30986">
        <ele>23.551276</ele>
        <time>2022-07-31T10:35:12.000Z</time>
      </trkpt>
      <trkpt lat="49.57904" lon="-1.30988">
        <ele>23.445408</ele>
        <time>2022-07-31T10:35:13.000Z</time>
      </trkpt>
      <trkpt lat="49.579" lon="-1.3099">
        <ele>23.339387</ele>
        <time>2022-07-31T10:35:14.000Z</time>
      </trkpt>
      <trkpt lat="49.57896" lon="-1.30992">
        <ele>23.242971</ele>
        <time>2022-07-31T10:35:15.000Z</time>
      </trkpt>
      <trkpt lat="49.57892" lon="-1.30994">
        <ele>23.137868</ele>
        <time>2022-07-31T10:35:16.000Z</time>
      </trkpt>
      <trkpt lat="49.57887" lon="-1.30996">
        <ele>23.035504</ele>
        <time>2022-07-31T10:35:17.000Z</time>
      </trkpt>
      <trkpt lat="49.57883" lon="-1.30998">
        <ele>22.928481</ele>
        <time>2022-07-31T10:35:18.000Z</time>
      </trkpt>
      <trkpt lat="49.57879" lon="-1.31001">
        <ele>22.826672</ele>
        <time>2022-07-31T10:35:19.000Z</time>
      </trkpt>
      <trkpt lat="49.57876" lon="-1.31004">
        <ele>22.725255</ele>
        <time>2022-07-31T10:35:20.000Z</time>
      </trkpt>
      <trkpt lat="49.57871" lon="-1.31006">
        <ele>22.620492</ele>
        <time>2022-07-31T10:35:21.000Z</time>
      </trkpt>
      <trkpt lat="49.57867" lon="-1.31009">
        <ele>22.512387</ele>
        <time>2022-07-31T10:35:22.000Z</time>
      </trkpt>
      <trkpt lat="49.57863" lon="-1.31011">
        <ele>22.397532</ele>
        <time>2022-07-31T10:35:23.000Z</time>
      </trkpt>
      <trkpt lat="49.57858" lon="-1.31013">
        <ele>22.284175</ele>
        <time>2022-07-31T10:35:24.000Z</time>
      </trkpt>
      <trkpt lat="49.57854" lon="-1.31015">
        <ele>22.174025</ele>
        <time>2022-07-31T10:35:25.000Z</time>
      </trkpt>
      <trkpt lat="49.57849" lon="-1.31017">
        <ele>22.061129</ele>
        <time>2022-07-31T10:35:26.000Z</time>
      </trkpt>
      <trkpt lat="49.57844" lon="-1.3102">
        <ele>21.933963</ele>
        <time>2022-07-31T10:35:27.000Z</time>
      </trkpt>
      <trkpt lat="49.5784" lon="-1.31021">
        <ele>21.822711</ele>
        <time>2022-07-31T10:35:28.000Z</time>
      </trkpt>
      <trkpt lat="49.57835" lon="-1.31023">
        <ele>21.698039</ele>
        <time>2022-07-31T10:35:29.000Z</time>
      </trkpt>
      <trkpt lat="49.5783" lon="-1.31024">
        <ele>21.588632</ele>
        <time>2022-07-31T10:35:30.000Z</time>
      </trkpt>
      <trkpt lat="49.57826" lon="-1.31025">
        <ele>21.478079</ele>
        <time>2022-07-31T10:35:31.000Z</time>
      </trkpt>
      <trkpt lat="49.57821" lon="-1.31027">
        <ele>21.353689</ele>
        <time>2022-07-31T10:35:32.000Z</time>
      </trkpt>
      <trkpt lat="49.57815" lon="-1.31028">
        <ele>21.221033</ele>
        <time>2022-07-31T10:35:33.000Z</time>
      </trkpt>
      <trkpt lat="49.5781" lon="-1.31028">
        <ele>21.097935</ele>
        <time>2022-07-31T10:35:34.000Z</time>
      </trkpt>
      <trkpt lat="49.57804" lon="-1.31029">
        <ele>20.960921</ele>
        <time>2022-07-31T10:35:35.000Z</time>
      </trkpt>
      <trkpt lat="49.57798" lon="-1.31028">
        <ele>20.757151</ele>
        <time>2022-07-31T10:35:36.000Z</time>
      </trkpt>
      <trkpt lat="49.57791" lon="-1.31028">
        <ele>20.523923</ele>
        <time>2022-07-31T10:35:37.000Z</time>
      </trkpt>
      <trkpt lat="49.57785" lon="-1.31029">
        <ele>20.301093</ele>
        <time>2022-07-31T10:35:38.000Z</time>
      </trkpt>
      <trkpt lat="49.57779" lon="-1.31029">
        <ele>20.088752</ele>
        <time>2022-07-31T10:35:39.000Z</time>
      </trkpt>
      <trkpt lat="49.57773" lon="-1.31029">
        <ele>19.876363</ele>
        <time>2022-07-31T10:35:40.000Z</time>
      </trkpt>
      <trkpt lat="49.57767" lon="-1.31029">
        <ele>19.674011</ele>
        <time>2022-07-31T10:35:41.000Z</time>
      </trkpt>
      <trkpt lat="49.57762" lon="-1.3103">
        <ele>19.506679</ele>
        <time>2022-07-31T10:35:42.000Z</time>
      </trkpt>
      <trkpt lat="49.57758" lon="-1.31029">
        <ele>19.363672</ele>
        <time>2022-07-31T10:35:43.000Z</time>
      </trkpt>
      <trkpt lat="49.57755" lon="-1.31028">
        <ele>19.247248</ele>
        <time>2022-07-31T10:35:44.000Z</time>
      </trkpt>
      <trkpt lat="49.57752" lon="-1.31026">
        <ele>19.148041</ele>
        <time>2022-07-31T10:35:45.000Z</time>
      </trkpt>
      <trkpt lat="49.5775" lon="-1.31025">
        <ele>19.064309</ele>
        <time>2022-07-31T10:35:46.000Z</time>
      </trkpt>
      <trkpt lat="49.57747" lon="-1.31024">
        <ele>18.962731</ele>
        <time>2022-07-31T10:35:47.000Z</time>
      </trkpt>
      <trkpt lat="49.57745" lon="-1.31024">
        <ele>18.886149</ele>
        <time>2022-07-31T10:35:48.000Z</time>
      </trkpt>
      <trkpt lat="49.57742" lon="-1.31025">
        <ele>18.794942</ele>
        <time>2022-07-31T10:35:49.000Z</time>
      </trkpt>
      <trkpt lat="49.5774" lon="-1.31025">
        <ele>18.69239</ele>
        <time>2022-07-31T10:35:50.000Z</time>
      </trkpt>
      <trkpt lat="49.57736" lon="-1.31027">
        <ele>18.555848</ele>
        <time>2022-07-31T10:35:51.000Z</time>
      </trkpt>
      <trkpt lat="49.57732" lon="-1.31029">
        <ele>18.426685</ele>
        <time>2022-07-31T10:35:52.000Z</time>
      </trkpt>
      <trkpt lat="49.57728" lon="-1.31031">
        <ele>18.263025</ele>
        <time>2022-07-31T10:35:53.000Z</time>
      </trkpt>
      <trkpt lat="49.57724" lon="-1.31033">
        <ele>18.116857</ele>
        <time>2022-07-31T10:35:54.000Z</time>
      </trkpt>
      <trkpt lat="49.57721" lon="-1.31036">
        <ele>17.993962</ele>
        <time>2022-07-31T10:35:55.000Z</time>
      </trkpt>
      <trkpt lat="49.57717" lon="-1.31038">
        <ele>17.85267</ele>
        <time>2022-07-31T10:35:56.000Z</time>
      </trkpt>
      <trkpt lat="49.57713" lon="-1.3104">
        <ele>17.697524</ele>
        <time>2022-07-31T10:35:57.000Z</time>
      </trkpt>
      <trkpt lat="49.57709" lon="-1.31042">
        <ele>17.546411</ele>
        <time>2022-07-31T10:35:58.000Z</time>
      </trkpt>
      <trkpt lat="49.57704" lon="-1.31045">
        <ele>17.389696</ele>
        <time>2022-07-31T10:35:59.000Z</time>
      </trkpt>
      <trkpt lat="49.577" lon="-1.31048">
        <ele>17.220782</ele>
        <time>2022-07-31T10:36:00.000Z</time>
      </trkpt>
      <trkpt lat="49.57696" lon="-1.31051">
        <ele>17.05427</ele>
        <time>2022-07-31T10:36:01.000Z</time>
      </trkpt>
      <trkpt lat="49.57692" lon="-1.31056">
        <ele>16.877525</ele>
        <time>2022-07-31T10:36:02.000Z</time>
      </trkpt>
      <trkpt lat="49.57687" lon="-1.3106">
        <ele>16.707426</ele>
        <time>2022-07-31T10:36:03.000Z</time>
      </trkpt>
      <trkpt lat="49.57683" lon="-1.31064">
        <ele>16.533178</ele>
        <time>2022-07-31T10:36:04.000Z</time>
      </trkpt>
      <trkpt lat="49.57679" lon="-1.31068">
        <ele>16.35893</ele>
        <time>2022-07-31T10:36:05.000Z</time>
      </trkpt>
      <trkpt lat="49.57675" lon="-1.31073">
        <ele>16.175146</ele>
        <time>2022-07-31T10:36:06.000Z</time>
      </trkpt>
      <trkpt lat="49.5767" lon="-1.31078">
        <ele>15.984683</ele>
        <time>2022-07-31T10:36:07.000Z</time>
      </trkpt>
      <trkpt lat="49.57666" lon="-1.31082">
        <ele>15.802711</ele>
        <time>2022-07-31T10:36:08.000Z</time>
      </trkpt>
      <trkpt lat="49.57662" lon="-1.31087">
        <ele>15.624879</ele>
        <time>2022-07-31T10:36:09.000Z</time>
      </trkpt>
      <trkpt lat="49.57657" lon="-1.31091">
        <ele>15.444077</ele>
        <time>2022-07-31T10:36:10.000Z</time>
      </trkpt>
      <trkpt lat="49.57653" lon="-1.31095">
        <ele>15.277895</ele>
        <time>2022-07-31T10:36:11.000Z</time>
      </trkpt>
      <trkpt lat="49.57648" lon="-1.31098">
        <ele>15.097607</ele>
        <time>2022-07-31T10:36:12.000Z</time>
      </trkpt>
      <trkpt lat="49.57644" lon="-1.311">
        <ele>14.918965</ele>
        <time>2022-07-31T10:36:13.000Z</time>
      </trkpt>
      <trkpt lat="49.57638" lon="-1.31103">
        <ele>14.731264</ele>
        <time>2022-07-31T10:36:14.000Z</time>
      </trkpt>
      <trkpt lat="49.57634" lon="-1.31106">
        <ele>14.672739</ele>
        <time>2022-07-31T10:36:15.000Z</time>
      </trkpt>
      <trkpt lat="49.57629" lon="-1.31108">
        <ele>14.662641</ele>
        <time>2022-07-31T10:36:16.000Z</time>
      </trkpt>
      <trkpt lat="49.57624" lon="-1.31111">
        <ele>14.650657</ele>
        <time>2022-07-31T10:36:17.000Z</time>
      </trkpt>
      <trkpt lat="49.57618" lon="-1.31113">
        <ele>14.638627</ele>
        <time>2022-07-31T10:36:18.000Z</time>
      </trkpt>
      <trkpt lat="49.57614" lon="-1.31115">
        <ele>14.628819</ele>
        <time>2022-07-31T10:36:19.000Z</time>
      </trkpt>
      <trkpt lat="49.57609" lon="-1.31118">
        <ele>14.618853</ele>
        <time>2022-07-31T10:36:20.000Z</time>
      </trkpt>
      <trkpt lat="49.57604" lon="-1.3112">
        <ele>14.607743</ele>
        <time>2022-07-31T10:36:21.000Z</time>
      </trkpt>
      <trkpt lat="49.576" lon="-1.31122">
        <ele>14.597735</ele>
        <time>2022-07-31T10:36:22.000Z</time>
      </trkpt>
      <trkpt lat="49.57595" lon="-1.31125">
        <ele>14.587542</ele>
        <time>2022-07-31T10:36:23.000Z</time>
      </trkpt>
      <trkpt lat="49.5759" lon="-1.31127">
        <ele>14.576846</ele>
        <time>2022-07-31T10:36:24.000Z</time>
      </trkpt>
      <trkpt lat="49.57586" lon="-1.3113">
        <ele>14.566748</ele>
        <time>2022-07-31T10:36:25.000Z</time>
      </trkpt>
      <trkpt lat="49.57581" lon="-1.31132">
        <ele>14.556651</ele>
        <time>2022-07-31T10:36:26.000Z</time>
      </trkpt>
      <trkpt lat="49.57577" lon="-1.31134">
        <ele>14.54744</ele>
        <time>2022-07-31T10:36:27.000Z</time>
      </trkpt>
      <trkpt lat="49.57573" lon="-1.31137">
        <ele>14.537343</ele>
        <time>2022-07-31T10:36:28.000Z</time>
      </trkpt>
      <trkpt lat="49.57569" lon="-1.31139">
        <ele>14.527887</ele>
        <time>2022-07-31T10:36:29.000Z</time>
      </trkpt>
      <trkpt lat="49.57565" lon="-1.31141">
        <ele>14.520901</ele>
        <time>2022-07-31T10:36:30.000Z</time>
      </trkpt>
      <trkpt lat="49.57562" lon="-1.31142">
        <ele>14.513332</ele>
        <time>2022-07-31T10:36:31.000Z</time>
      </trkpt>
      <trkpt lat="49.57559" lon="-1.31143">
        <ele>14.50623</ele>
        <time>2022-07-31T10:36:32.000Z</time>
      </trkpt>
      <trkpt lat="49.57556" lon="-1.31145">
        <ele>14.500284</ele>
        <time>2022-07-31T10:36:33.000Z</time>
      </trkpt>
      <trkpt lat="49.57554" lon="-1.31148">
        <ele>14.494023</ele>
        <time>2022-07-31T10:36:34.000Z</time>
      </trkpt>
      <trkpt lat="49.57551" lon="-1.3115">
        <ele>14.48701</ele>
        <time>2022-07-31T10:36:35.000Z</time>
      </trkpt>
      <trkpt lat="49.57548" lon="-1.31152">
        <ele>14.481064</ele>
        <time>2022-07-31T10:36:36.000Z</time>
      </trkpt>
      <trkpt lat="49.57546" lon="-1.31154">
        <ele>14.475679</ele>
        <time>2022-07-31T10:36:37.000Z</time>
      </trkpt>
      <trkpt lat="49.57544" lon="-1.31155">
        <ele>14.471291</ele>
        <time>2022-07-31T10:36:38.000Z</time>
      </trkpt>
      <trkpt lat="49.57542" lon="-1.31156">
        <ele>14.467133</ele>
        <time>2022-07-31T10:36:39.000Z</time>
      </trkpt>
      <trkpt lat="49.57539" lon="-1.31155">
        <ele>14.460241</ele>
        <time>2022-07-31T10:36:41.000Z</time>
      </trkpt>
      <trkpt lat="49.57537" lon="-1.3115">
        <ele>14.452189</ele>
        <time>2022-07-31T10:36:43.000Z</time>
      </trkpt>
      <trkpt lat="49.57538" lon="-1.31147">
        <ele>14.447664</ele>
        <time>2022-07-31T10:36:44.000Z</time>
      </trkpt>
      <trkpt lat="49.5754" lon="-1.31145">
        <ele>14.44195</ele>
        <time>2022-07-31T10:36:45.000Z</time>
      </trkpt>
      <trkpt lat="49.57543" lon="-1.31143">
        <ele>14.436287</ele>
        <time>2022-07-31T10:36:46.000Z</time>
      </trkpt>
      <trkpt lat="49.57546" lon="-1.31141">
        <ele>14.42854</ele>
        <time>2022-07-31T10:36:47.000Z</time>
      </trkpt>
      <trkpt lat="49.5755" lon="-1.31139">
        <ele>14.419219</ele>
        <time>2022-07-31T10:36:48.000Z</time>
      </trkpt>
      <trkpt lat="49.57555" lon="-1.31138">
        <ele>14.410052</ele>
        <time>2022-07-31T10:36:49.000Z</time>
      </trkpt>
      <trkpt lat="49.5756" lon="-1.31136">
        <ele>14.398943</ele>
        <time>2022-07-31T10:36:50.000Z</time>
      </trkpt>
      <trkpt lat="49.57564" lon="-1.31134">
        <ele>14.389056</ele>
        <time>2022-07-31T10:36:51.000Z</time>
      </trkpt>
      <trkpt lat="49.57568" lon="-1.31131">
        <ele>14.379749</ele>
        <time>2022-07-31T10:36:52.000Z</time>
      </trkpt>
      <trkpt lat="49.57573" lon="-1.31129">
        <ele>14.370244</ele>
        <time>2022-07-31T10:36:53.000Z</time>
      </trkpt>
      <trkpt lat="49.57578" lon="-1.31126">
        <ele>14.358861</ele>
        <time>2022-07-31T10:36:54.000Z</time>
      </trkpt>
      <trkpt lat="49.57582" lon="-1.31123">
        <ele>14.348716</ele>
        <time>2022-07-31T10:36:55.000Z</time>
      </trkpt>
      <trkpt lat="49.57587" lon="-1.31121">
        <ele>14.338523</ele>
        <time>2022-07-31T10:36:56.000Z</time>
      </trkpt>
      <trkpt lat="49.57591" lon="-1.31119">
        <ele>14.328026</ele>
        <time>2022-07-31T10:36:57.000Z</time>
      </trkpt>
      <trkpt lat="49.57596" lon="-1.31117">
        <ele>14.318513</ele>
        <time>2022-07-31T10:36:58.000Z</time>
      </trkpt>
      <trkpt lat="49.57601" lon="-1.31116">
        <ele>14.308334</ele>
        <time>2022-07-31T10:36:59.000Z</time>
      </trkpt>
      <trkpt lat="49.57605" lon="-1.31117">
        <ele>14.303554</ele>
        <time>2022-07-31T10:37:00.000Z</time>
      </trkpt>
      <trkpt lat="49.57608" lon="-1.31119">
        <ele>14.314964</ele>
        <time>2022-07-31T10:37:01.000Z</time>
      </trkpt>
      <trkpt lat="49.57611" lon="-1.31123">
        <ele>14.325127</ele>
        <time>2022-07-31T10:37:02.000Z</time>
      </trkpt>
      <trkpt lat="49.57612" lon="-1.31126">
        <ele>14.334589</ele>
        <time>2022-07-31T10:37:03.000Z</time>
      </trkpt>
      <trkpt lat="49.57613" lon="-1.3113">
        <ele>14.342734</ele>
        <time>2022-07-31T10:37:04.000Z</time>
      </trkpt>
      <trkpt lat="49.57612" lon="-1.31134">
        <ele>14.350667</ele>
        <time>2022-07-31T10:37:05.000Z</time>
      </trkpt>
      <trkpt lat="49.57612" lon="-1.31138">
        <ele>14.360719</ele>
        <time>2022-07-31T10:37:06.000Z</time>
      </trkpt>
      <trkpt lat="49.57611" lon="-1.31143">
        <ele>14.370738</ele>
        <time>2022-07-31T10:37:07.000Z</time>
      </trkpt>
      <trkpt lat="49.5761" lon="-1.31148">
        <ele>14.381456</ele>
        <time>2022-07-31T10:37:08.000Z</time>
      </trkpt>
      <trkpt lat="49.5761" lon="-1.31153">
        <ele>14.39252</ele>
        <time>2022-07-31T10:37:09.000Z</time>
      </trkpt>
      <trkpt lat="49.57609" lon="-1.31158">
        <ele>14.402538</ele>
        <time>2022-07-31T10:37:10.000Z</time>
      </trkpt>
      <trkpt lat="49.57608" lon="-1.31162">
        <ele>14.412058</ele>
        <time>2022-07-31T10:37:11.000Z</time>
      </trkpt>
      <trkpt lat="49.57607" lon="-1.31165">
        <ele>14.420783</ele>
        <time>2022-07-31T10:37:12.000Z</time>
      </trkpt>
      <trkpt lat="49.57605" lon="-1.3117">
        <ele>14.431146</ele>
        <time>2022-07-31T10:37:13.000Z</time>
      </trkpt>
      <trkpt lat="49.57605" lon="-1.31174">
        <ele>14.440557</ele>
        <time>2022-07-31T10:37:14.000Z</time>
      </trkpt>
      <trkpt lat="49.57604" lon="-1.31178">
        <ele>14.450182</ele>
        <time>2022-07-31T10:37:15.000Z</time>
      </trkpt>
      <trkpt lat="49.57605" lon="-1.31183">
        <ele>14.460018</ele>
        <time>2022-07-31T10:37:16.000Z</time>
      </trkpt>
      <trkpt lat="49.57605" lon="-1.31188">
        <ele>14.470627</ele>
        <time>2022-07-31T10:37:17.000Z</time>
      </trkpt>
      <trkpt lat="49.57605" lon="-1.31193">
        <ele>14.48131</ele>
        <time>2022-07-31T10:37:18.000Z</time>
      </trkpt>
      <trkpt lat="49.57606" lon="-1.31198">
        <ele>14.491606</ele>
        <time>2022-07-31T10:37:19.000Z</time>
      </trkpt>
      <trkpt lat="49.57606" lon="-1.31202">
        <ele>14.501818</ele>
        <time>2022-07-31T10:37:20.000Z</time>
      </trkpt>
      <trkpt lat="49.57605" lon="-1.31207">
        <ele>14.512325</ele>
        <time>2022-07-31T10:37:21.000Z</time>
      </trkpt>
      <trkpt lat="49.57605" lon="-1.31212">
        <ele>14.522537</ele>
        <time>2022-07-31T10:37:22.000Z</time>
      </trkpt>
      <trkpt lat="49.57605" lon="-1.31217">
        <ele>14.533221</ele>
        <time>2022-07-31T10:37:23.000Z</time>
      </trkpt>
      <trkpt lat="49.57605" lon="-1.31222">
        <ele>14.543268</ele>
        <time>2022-07-31T10:37:24.000Z</time>
      </trkpt>
      <trkpt lat="49.57606" lon="-1.31226">
        <ele>14.553389</ele>
        <time>2022-07-31T10:37:25.000Z</time>
      </trkpt>
      <trkpt lat="49.57607" lon="-1.3123">
        <ele>14.562331</ele>
        <time>2022-07-31T10:37:26.000Z</time>
      </trkpt>
      <trkpt lat="49.57607" lon="-1.31234">
        <ele>14.570732</ele>
        <time>2022-07-31T10:37:27.000Z</time>
      </trkpt>
      <trkpt lat="49.57607" lon="-1.31237">
        <ele>14.577114</ele>
        <time>2022-07-31T10:37:28.000Z</time>
      </trkpt>
      <trkpt lat="49.57607" lon="-1.3124">
        <ele>14.583071</ele>
        <time>2022-07-31T10:37:29.000Z</time>
      </trkpt>
      <trkpt lat="49.57607" lon="-1.31243">
        <ele>14.589587</ele>
        <time>2022-07-31T10:37:32.000Z</time>
      </trkpt>
      <trkpt lat="49.57594" lon="-1.31255">
        <ele>14.638191</ele>
        <time>2022-07-31T11:31:51.000Z</time>
      </trkpt>
      <trkpt lat="49.57595" lon="-1.31259">
        <ele>14.646802</ele>
        <time>2022-07-31T11:31:52.000Z</time>
      </trkpt>
      <trkpt lat="49.57595" lon="-1.31263">
        <ele>14.655951</ele>
        <time>2022-07-31T11:31:53.000Z</time>
      </trkpt>
      <trkpt lat="49.57594" lon="-1.31268">
        <ele>14.666036</ele>
        <time>2022-07-31T11:31:54.000Z</time>
      </trkpt>
      <trkpt lat="49.57594" lon="-1.31272">
        <ele>14.676035</ele>
        <time>2022-07-31T11:31:55.000Z</time>
      </trkpt>
      <trkpt lat="49.57594" lon="-1.31276">
        <ele>14.684813</ele>
        <time>2022-07-31T11:31:56.000Z</time>
      </trkpt>
      <trkpt lat="49.57593" lon="-1.3128">
        <ele>14.692928</ele>
        <time>2022-07-31T11:31:57.000Z</time>
      </trkpt>
      <trkpt lat="49.57591" lon="-1.31283">
        <ele>14.70155</ele>
        <time>2022-07-31T11:31:58.000Z</time>
      </trkpt>
      <trkpt lat="49.57589" lon="-1.31285">
        <ele>14.712349</ele>
        <time>2022-07-31T11:31:59.000Z</time>
      </trkpt>
      <trkpt lat="49.57586" lon="-1.31286">
        <ele>14.720002</ele>
        <time>2022-07-31T11:32:00.000Z</time>
      </trkpt>
      <trkpt lat="49.57584" lon="-1.31286">
        <ele>14.72823</ele>
        <time>2022-07-31T11:32:01.000Z</time>
      </trkpt>
      <trkpt lat="49.57581" lon="-1.31284">
        <ele>14.738138</ele>
        <time>2022-07-31T11:32:02.000Z</time>
      </trkpt>
      <trkpt lat="49.57579" lon="-1.31283">
        <ele>14.745947</ele>
        <time>2022-07-31T11:32:03.000Z</time>
      </trkpt>
      <trkpt lat="49.57576" lon="-1.31282">
        <ele>14.754793</ele>
        <time>2022-07-31T11:32:04.000Z</time>
      </trkpt>
      <trkpt lat="49.57573" lon="-1.31281">
        <ele>14.763585</ele>
        <time>2022-07-31T11:32:05.000Z</time>
      </trkpt>
      <trkpt lat="49.57572" lon="-1.3128">
        <ele>14.770321</ele>
        <time>2022-07-31T11:32:06.000Z</time>
      </trkpt>
      <trkpt lat="49.5757" lon="-1.31278">
        <ele>14.777325</ele>
        <time>2022-07-31T11:32:07.000Z</time>
      </trkpt>
      <trkpt lat="49.57568" lon="-1.31276">
        <ele>14.783699</ele>
        <time>2022-07-31T11:32:08.000Z</time>
      </trkpt>
      <trkpt lat="49.57566" lon="-1.31276">
        <ele>14.790162</ele>
        <time>2022-07-31T11:32:09.000Z</time>
      </trkpt>
      <trkpt lat="49.57564" lon="-1.31276">
        <ele>14.798716</ele>
        <time>2022-07-31T11:32:11.000Z</time>
      </trkpt>
      <trkpt lat="49.57561" lon="-1.31277">
        <ele>14.807307</ele>
        <time>2022-07-31T11:32:13.000Z</time>
      </trkpt>
      <trkpt lat="49.57559" lon="-1.31274">
        <ele>14.816791</ele>
        <time>2022-07-31T11:32:15.000Z</time>
      </trkpt>
      <trkpt lat="49.57558" lon="-1.31271">
        <ele>14.823249</ele>
        <time>2022-07-31T11:32:16.000Z</time>
      </trkpt>
      <trkpt lat="49.57558" lon="-1.31268">
        <ele>14.83157</ele>
        <time>2022-07-31T11:32:17.000Z</time>
      </trkpt>
      <trkpt lat="49.57558" lon="-1.31264">
        <ele>14.839442</ele>
        <time>2022-07-31T11:32:18.000Z</time>
      </trkpt>
      <trkpt lat="49.57557" lon="-1.3126">
        <ele>14.848263</ele>
        <time>2022-07-31T11:32:19.000Z</time>
      </trkpt>
      <trkpt lat="49.57557" lon="-1.31254">
        <ele>14.859919</ele>
        <time>2022-07-31T11:32:20.000Z</time>
      </trkpt>
      <trkpt lat="49.57557" lon="-1.31249">
        <ele>14.871238</ele>
        <time>2022-07-31T11:32:21.000Z</time>
      </trkpt>
      <trkpt lat="49.57556" lon="-1.31244">
        <ele>14.882981</ele>
        <time>2022-07-31T11:32:22.000Z</time>
      </trkpt>
      <trkpt lat="49.57556" lon="-1.31238">
        <ele>14.912408</ele>
        <time>2022-07-31T11:32:23.000Z</time>
      </trkpt>
      <trkpt lat="49.57555" lon="-1.31233">
        <ele>14.972345</ele>
        <time>2022-07-31T11:32:24.000Z</time>
      </trkpt>
      <trkpt lat="49.57554" lon="-1.31229">
        <ele>15.020201</ele>
        <time>2022-07-31T11:32:25.000Z</time>
      </trkpt>
      <trkpt lat="49.57554" lon="-1.31224">
        <ele>15.075901</ele>
        <time>2022-07-31T11:32:26.000Z</time>
      </trkpt>
      <trkpt lat="49.57553" lon="-1.31219">
        <ele>15.135838</ele>
        <time>2022-07-31T11:32:27.000Z</time>
      </trkpt>
      <trkpt lat="49.57552" lon="-1.31214">
        <ele>15.199446</ele>
        <time>2022-07-31T11:32:28.000Z</time>
      </trkpt>
      <trkpt lat="49.57551" lon="-1.31209">
        <ele>15.262743</ele>
        <time>2022-07-31T11:32:29.000Z</time>
      </trkpt>
      <trkpt lat="49.5755" lon="-1.31204">
        <ele>15.324909</ele>
        <time>2022-07-31T11:32:30.000Z</time>
      </trkpt>
      <trkpt lat="49.57549" lon="-1.31198">
        <ele>15.390361</ele>
        <time>2022-07-31T11:32:31.000Z</time>
      </trkpt>
      <trkpt lat="49.57548" lon="-1.31193">
        <ele>15.454783</ele>
        <time>2022-07-31T11:32:32.000Z</time>
      </trkpt>
      <trkpt lat="49.57547" lon="-1.31188">
        <ele>15.519156</ele>
        <time>2022-07-31T11:32:33.000Z</time>
      </trkpt>
      <trkpt lat="49.57546" lon="-1.31182">
        <ele>15.585135</ele>
        <time>2022-07-31T11:32:34.000Z</time>
      </trkpt>
      <trkpt lat="49.57546" lon="-1.31176">
        <ele>15.65119</ele>
        <time>2022-07-31T11:32:35.000Z</time>
      </trkpt>
      <trkpt lat="49.57544" lon="-1.31171">
        <ele>15.714487</ele>
        <time>2022-07-31T11:32:36.000Z</time>
      </trkpt>
      <trkpt lat="49.57544" lon="-1.31167">
        <ele>15.76559</ele>
        <time>2022-07-31T11:32:37.000Z</time>
      </trkpt>
      <trkpt lat="49.57543" lon="-1.31163">
        <ele>15.809768</ele>
        <time>2022-07-31T11:32:38.000Z</time>
      </trkpt>
      <trkpt lat="49.57543" lon="-1.3116">
        <ele>15.84483</ele>
        <time>2022-07-31T11:32:39.000Z</time>
      </trkpt>
      <trkpt lat="49.57541" lon="-1.31156">
        <ele>15.909926</ele>
        <time>2022-07-31T11:32:41.000Z</time>
      </trkpt>
      <trkpt lat="49.57537" lon="-1.31154">
        <ele>15.981812</ele>
        <time>2022-07-31T11:32:43.000Z</time>
      </trkpt>
      <trkpt lat="49.57535" lon="-1.31155">
        <ele>16.016359</ele>
        <time>2022-07-31T11:32:44.000Z</time>
      </trkpt>
      <trkpt lat="49.57532" lon="-1.31156">
        <ele>16.062365</ele>
        <time>2022-07-31T11:32:45.000Z</time>
      </trkpt>
      <trkpt lat="49.5753" lon="-1.31157">
        <ele>16.106411</ele>
        <time>2022-07-31T11:32:46.000Z</time>
      </trkpt>
      <trkpt lat="49.57527" lon="-1.31158">
        <ele>16.159344</ele>
        <time>2022-07-31T11:32:47.000Z</time>
      </trkpt>
      <trkpt lat="49.57525" lon="-1.31159">
        <ele>16.20535</ele>
        <time>2022-07-31T11:32:48.000Z</time>
      </trkpt>
      <trkpt lat="49.57522" lon="-1.3116">
        <ele>16.247348</ele>
        <time>2022-07-31T11:32:49.000Z</time>
      </trkpt>
      <trkpt lat="49.57519" lon="-1.31161">
        <ele>16.305094</ele>
        <time>2022-07-31T11:32:50.000Z</time>
      </trkpt>
      <trkpt lat="49.57517" lon="-1.31162">
        <ele>16.350354</ele>
        <time>2022-07-31T11:32:51.000Z</time>
      </trkpt>
      <trkpt lat="49.57514" lon="-1.31163">
        <ele>16.398086</ele>
        <time>2022-07-31T11:32:52.000Z</time>
      </trkpt>
      <trkpt lat="49.57511" lon="-1.31164">
        <ele>16.456246</ele>
        <time>2022-07-31T11:32:53.000Z</time>
      </trkpt>
      <trkpt lat="49.57508" lon="-1.31165">
        <ele>16.509179</ele>
        <time>2022-07-31T11:32:54.000Z</time>
      </trkpt>
      <trkpt lat="49.57505" lon="-1.31166">
        <ele>16.568125</ele>
        <time>2022-07-31T11:32:55.000Z</time>
      </trkpt>
      <trkpt lat="49.57501" lon="-1.31167">
        <ele>16.632534</ele>
        <time>2022-07-31T11:32:56.000Z</time>
      </trkpt>
      <trkpt lat="49.57498" lon="-1.31168">
        <ele>16.690694</ele>
        <time>2022-07-31T11:32:57.000Z</time>
      </trkpt>
      <trkpt lat="49.57494" lon="-1.31169">
        <ele>16.75372</ele>
        <time>2022-07-31T11:32:58.000Z</time>
      </trkpt>
      <trkpt lat="49.57491" lon="-1.3117">
        <ele>16.816587</ele>
        <time>2022-07-31T11:32:59.000Z</time>
      </trkpt>
      <trkpt lat="49.57487" lon="-1.31171">
        <ele>16.88721</ele>
        <time>2022-07-31T11:33:00.000Z</time>
      </trkpt>
      <trkpt lat="49.57484" lon="-1.31172">
        <ele>16.951077</ele>
        <time>2022-07-31T11:33:01.000Z</time>
      </trkpt>
      <trkpt lat="49.5748" lon="-1.31173">
        <ele>17.015205</ele>
        <time>2022-07-31T11:33:02.000Z</time>
      </trkpt>
      <trkpt lat="49.57477" lon="-1.31175">
        <ele>17.079614</ele>
        <time>2022-07-31T11:33:03.000Z</time>
      </trkpt>
      <trkpt lat="49.57473" lon="-1.31176">
        <ele>17.150688</ele>
        <time>2022-07-31T11:33:04.000Z</time>
      </trkpt>
      <trkpt lat="49.57469" lon="-1.31177">
        <ele>17.214816</ele>
        <time>2022-07-31T11:33:05.000Z</time>
      </trkpt>
      <trkpt lat="49.57465" lon="-1.31179">
        <ele>17.28391</ele>
        <time>2022-07-31T11:33:06.000Z</time>
      </trkpt>
      <trkpt lat="49.57462" lon="-1.3118">
        <ele>17.342572</ele>
        <time>2022-07-31T11:33:07.000Z</time>
      </trkpt>
      <trkpt lat="49.57459" lon="-1.31181">
        <ele>17.405979</ele>
        <time>2022-07-31T11:33:08.000Z</time>
      </trkpt>
      <trkpt lat="49.57455" lon="-1.31182">
        <ele>17.477577</ele>
        <time>2022-07-31T11:33:09.000Z</time>
      </trkpt>
      <trkpt lat="49.57451" lon="-1.31184">
        <ele>17.542285</ele>
        <time>2022-07-31T11:33:10.000Z</time>
      </trkpt>
      <trkpt lat="49.57448" lon="-1.31185">
        <ele>17.606413</ele>
        <time>2022-07-31T11:33:11.000Z</time>
      </trkpt>
      <trkpt lat="49.57444" lon="-1.31187">
        <ele>17.672134</ele>
        <time>2022-07-31T11:33:12.000Z</time>
      </trkpt>
      <trkpt lat="49.5744" lon="-1.31189">
        <ele>17.744988</ele>
        <time>2022-07-31T11:33:13.000Z</time>
      </trkpt>
      <trkpt lat="49.57437" lon="-1.31191">
        <ele>17.811886</ele>
        <time>2022-07-31T11:33:14.000Z</time>
      </trkpt>
      <trkpt lat="49.57433" lon="-1.31193">
        <ele>17.877251</ele>
        <time>2022-07-31T11:33:15.000Z</time>
      </trkpt>
      <trkpt lat="49.57429" lon="-1.31194">
        <ele>17.949443</ele>
        <time>2022-07-31T11:33:16.000Z</time>
      </trkpt>
      <trkpt lat="49.57426" lon="-1.31196">
        <ele>18.014151</ele>
        <time>2022-07-31T11:33:17.000Z</time>
      </trkpt>
      <trkpt lat="49.57423" lon="-1.31198">
        <ele>18.075656</ele>
        <time>2022-07-31T11:33:18.000Z</time>
      </trkpt>
      <trkpt lat="49.57419" lon="-1.312">
        <ele>18.228876</ele>
        <time>2022-07-31T11:33:19.000Z</time>
      </trkpt>
      <trkpt lat="49.57416" lon="-1.31201">
        <ele>18.416711</ele>
        <time>2022-07-31T11:33:20.000Z</time>
      </trkpt>
      <trkpt lat="49.57413" lon="-1.31203">
        <ele>18.593454</ele>
        <time>2022-07-31T11:33:21.000Z</time>
      </trkpt>
      <trkpt lat="49.57409" lon="-1.31205">
        <ele>18.785694</ele>
        <time>2022-07-31T11:33:22.000Z</time>
      </trkpt>
      <trkpt lat="49.57405" lon="-1.31207">
        <ele>18.981565</ele>
        <time>2022-07-31T11:33:23.000Z</time>
      </trkpt>
      <trkpt lat="49.57402" lon="-1.3121">
        <ele>19.175034</ele>
        <time>2022-07-31T11:33:24.000Z</time>
      </trkpt>
      <trkpt lat="49.57399" lon="-1.31212">
        <ele>19.337647</ele>
        <time>2022-07-31T11:33:25.000Z</time>
      </trkpt>
      <trkpt lat="49.57396" lon="-1.31213">
        <ele>19.526505</ele>
        <time>2022-07-31T11:33:26.000Z</time>
      </trkpt>
      <trkpt lat="49.57392" lon="-1.31216">
        <ele>19.719974</ele>
        <time>2022-07-31T11:33:27.000Z</time>
      </trkpt>
      <trkpt lat="49.57389" lon="-1.31218">
        <ele>19.899317</ele>
        <time>2022-07-31T11:33:28.000Z</time>
      </trkpt>
      <trkpt lat="49.57385" lon="-1.31219">
        <ele>20.100951</ele>
        <time>2022-07-31T11:33:29.000Z</time>
      </trkpt>
      <trkpt lat="49.57382" lon="-1.31221">
        <ele>20.277694</ele>
        <time>2022-07-31T11:33:30.000Z</time>
      </trkpt>
      <trkpt lat="49.57378" lon="-1.31223">
        <ele>20.470417</ele>
        <time>2022-07-31T11:33:31.000Z</time>
      </trkpt>
      <trkpt lat="49.57375" lon="-1.31225">
        <ele>20.631275</ele>
        <time>2022-07-31T11:33:32.000Z</time>
      </trkpt>
      <trkpt lat="49.57372" lon="-1.31227">
        <ele>20.809292</ele>
        <time>2022-07-31T11:33:33.000Z</time>
      </trkpt>
      <trkpt lat="49.57369" lon="-1.3123">
        <ele>20.988634</ele>
        <time>2022-07-31T11:33:34.000Z</time>
      </trkpt>
      <trkpt lat="49.57366" lon="-1.31232">
        <ele>21.167977</ele>
        <time>2022-07-31T11:33:35.000Z</time>
      </trkpt>
      <trkpt lat="49.57362" lon="-1.31234">
        <ele>21.364997</ele>
        <time>2022-07-31T11:33:36.000Z</time>
      </trkpt>
      <trkpt lat="49.57359" lon="-1.31236">
        <ele>21.528976</ele>
        <time>2022-07-31T11:33:37.000Z</time>
      </trkpt>
      <trkpt lat="49.57356" lon="-1.31238">
        <ele>21.739358</ele>
        <time>2022-07-31T11:33:38.000Z</time>
      </trkpt>
      <trkpt lat="49.57353" lon="-1.3124">
        <ele>21.880589</ele>
        <time>2022-07-31T11:33:39.000Z</time>
      </trkpt>
      <trkpt lat="49.57349" lon="-1.31242">
        <ele>22.088971</ele>
        <time>2022-07-31T11:33:40.000Z</time>
      </trkpt>
      <trkpt lat="49.57346" lon="-1.31244">
        <ele>22.26222</ele>
        <time>2022-07-31T11:33:41.000Z</time>
      </trkpt>
      <trkpt lat="49.57342" lon="-1.31245">
        <ele>22.448168</ele>
        <time>2022-07-31T11:33:42.000Z</time>
      </trkpt>
      <trkpt lat="49.57339" lon="-1.31247">
        <ele>22.61937</ele>
        <time>2022-07-31T11:33:43.000Z</time>
      </trkpt>
      <trkpt lat="49.57336" lon="-1.31248">
        <ele>22.803651</ele>
        <time>2022-07-31T11:33:44.000Z</time>
      </trkpt>
      <trkpt lat="49.57333" lon="-1.31249">
        <ele>22.974853</ele>
        <time>2022-07-31T11:33:45.000Z</time>
      </trkpt>
      <trkpt lat="49.57329" lon="-1.31251">
        <ele>23.148102</ele>
        <time>2022-07-31T11:33:46.000Z</time>
      </trkpt>
      <trkpt lat="49.57326" lon="-1.31254">
        <ele>23.318168</ele>
        <time>2022-07-31T11:33:47.000Z</time>
      </trkpt>
      <trkpt lat="49.57324" lon="-1.31256">
        <ele>23.491571</ele>
        <time>2022-07-31T11:33:48.000Z</time>
      </trkpt>
      <trkpt lat="49.57321" lon="-1.31259">
        <ele>23.672194</ele>
        <time>2022-07-31T11:33:49.000Z</time>
      </trkpt>
      <trkpt lat="49.57318" lon="-1.31263">
        <ele>23.838826</ele>
        <time>2022-07-31T11:33:50.000Z</time>
      </trkpt>
      <trkpt lat="49.57316" lon="-1.31267">
        <ele>24.000626</ele>
        <time>2022-07-31T11:33:51.000Z</time>
      </trkpt>
      <trkpt lat="49.57314" lon="-1.3127">
        <ele>24.163081</ele>
        <time>2022-07-31T11:33:52.000Z</time>
      </trkpt>
      <trkpt lat="49.57312" lon="-1.31274">
        <ele>24.319744</ele>
        <time>2022-07-31T11:33:53.000Z</time>
      </trkpt>
      <trkpt lat="49.5731" lon="-1.31277">
        <ele>24.46623</ele>
        <time>2022-07-31T11:33:54.000Z</time>
      </trkpt>
      <trkpt lat="49.57309" lon="-1.31281">
        <ele>24.605676</ele>
        <time>2022-07-31T11:33:55.000Z</time>
      </trkpt>
      <trkpt lat="49.57308" lon="-1.31284">
        <ele>24.72822</ele>
        <time>2022-07-31T11:33:56.000Z</time>
      </trkpt>
      <trkpt lat="49.57306" lon="-1.31287">
        <ele>24.84799</ele>
        <time>2022-07-31T11:33:57.000Z</time>
      </trkpt>
      <trkpt lat="49.57305" lon="-1.31289">
        <ele>24.964585</ele>
        <time>2022-07-31T11:33:58.000Z</time>
      </trkpt>
      <trkpt lat="49.57303" lon="-1.31292">
        <ele>25.067831</ele>
        <time>2022-07-31T11:33:59.000Z</time>
      </trkpt>
      <trkpt lat="49.57302" lon="-1.31294">
        <ele>25.182087</ele>
        <time>2022-07-31T11:34:00.000Z</time>
      </trkpt>
      <trkpt lat="49.573" lon="-1.31297">
        <ele>25.301067</ele>
        <time>2022-07-31T11:34:01.000Z</time>
      </trkpt>
      <trkpt lat="49.57299" lon="-1.313">
        <ele>25.430003</ele>
        <time>2022-07-31T11:34:02.000Z</time>
      </trkpt>
      <trkpt lat="49.57297" lon="-1.31303">
        <ele>25.582379</ele>
        <time>2022-07-31T11:34:03.000Z</time>
      </trkpt>
      <trkpt lat="49.57295" lon="-1.31306">
        <ele>25.723969</ele>
        <time>2022-07-31T11:34:04.000Z</time>
      </trkpt>
      <trkpt lat="49.57293" lon="-1.3131">
        <ele>25.854987</ele>
        <time>2022-07-31T11:34:05.000Z</time>
      </trkpt>
      <trkpt lat="49.57292" lon="-1.31313">
        <ele>26.001473</ele>
        <time>2022-07-31T11:34:06.000Z</time>
      </trkpt>
      <trkpt lat="49.5729" lon="-1.31317">
        <ele>26.152988</ele>
        <time>2022-07-31T11:34:07.000Z</time>
      </trkpt>
      <trkpt lat="49.57288" lon="-1.3132">
        <ele>26.295134</ele>
        <time>2022-07-31T11:34:08.000Z</time>
      </trkpt>
      <trkpt lat="49.57286" lon="-1.31324">
        <ele>26.456936</ele>
        <time>2022-07-31T11:34:09.000Z</time>
      </trkpt>
      <trkpt lat="49.57284" lon="-1.31327">
        <ele>26.611786</ele>
        <time>2022-07-31T11:34:10.000Z</time>
      </trkpt>
      <trkpt lat="49.57282" lon="-1.31331">
        <ele>26.771066</ele>
        <time>2022-07-31T11:34:11.000Z</time>
      </trkpt>
      <trkpt lat="49.5728" lon="-1.31335">
        <ele>26.932759</ele>
        <time>2022-07-31T11:34:12.000Z</time>
      </trkpt>
      <trkpt lat="49.57279" lon="-1.31339">
        <ele>27.073302</ele>
        <time>2022-07-31T11:34:13.000Z</time>
      </trkpt>
      <trkpt lat="49.57278" lon="-1.31343">
        <ele>27.227785</ele>
        <time>2022-07-31T11:34:14.000Z</time>
      </trkpt>
      <trkpt lat="49.57277" lon="-1.31347">
        <ele>27.425463</ele>
        <time>2022-07-31T11:34:15.000Z</time>
      </trkpt>
      <trkpt lat="49.57276" lon="-1.31352">
        <ele>27.650888</ele>
        <time>2022-07-31T11:34:16.000Z</time>
      </trkpt>
      <trkpt lat="49.57274" lon="-1.31356">
        <ele>27.880275</ele>
        <time>2022-07-31T11:34:17.000Z</time>
      </trkpt>
      <trkpt lat="49.57273" lon="-1.3136">
        <ele>28.102179</ele>
        <time>2022-07-31T11:34:18.000Z</time>
      </trkpt>
      <trkpt lat="49.57272" lon="-1.31364">
        <ele>28.309452</ele>
        <time>2022-07-31T11:34:19.000Z</time>
      </trkpt>
      <trkpt lat="49.57271" lon="-1.31369">
        <ele>28.547638</ele>
        <time>2022-07-31T11:34:20.000Z</time>
      </trkpt>
      <trkpt lat="49.57269" lon="-1.31373">
        <ele>28.768299</ele>
        <time>2022-07-31T11:34:21.000Z</time>
      </trkpt>
      <trkpt lat="49.57268" lon="-1.31377">
        <ele>28.98139</ele>
        <time>2022-07-31T11:34:22.000Z</time>
      </trkpt>
      <trkpt lat="49.57267" lon="-1.31381">
        <ele>29.206404</ele>
        <time>2022-07-31T11:34:23.000Z</time>
      </trkpt>
      <trkpt lat="49.57266" lon="-1.31385">
        <ele>29.413677</ele>
        <time>2022-07-31T11:34:24.000Z</time>
      </trkpt>
      <trkpt lat="49.57264" lon="-1.31389">
        <ele>29.640908</ele>
        <time>2022-07-31T11:34:25.000Z</time>
      </trkpt>
      <trkpt lat="49.57263" lon="-1.31393">
        <ele>29.865922</ele>
        <time>2022-07-31T11:34:26.000Z</time>
      </trkpt>
      <trkpt lat="49.57262" lon="-1.31397">
        <ele>30.064428</ele>
        <time>2022-07-31T11:34:27.000Z</time>
      </trkpt>
      <trkpt lat="49.57261" lon="-1.31401">
        <ele>30.295788</ele>
        <time>2022-07-31T11:34:28.000Z</time>
      </trkpt>
      <trkpt lat="49.5726" lon="-1.31406">
        <ele>30.520802</ele>
        <time>2022-07-31T11:34:29.000Z</time>
      </trkpt>
      <trkpt lat="49.57258" lon="-1.31409">
        <ele>30.739862</ele>
        <time>2022-07-31T11:34:30.000Z</time>
      </trkpt>
      <trkpt lat="49.57256" lon="-1.31414">
        <ele>30.983765</ele>
        <time>2022-07-31T11:34:31.000Z</time>
      </trkpt>
      <trkpt lat="49.57255" lon="-1.31418">
        <ele>31.221952</ele>
        <time>2022-07-31T11:34:32.000Z</time>
      </trkpt>
      <trkpt lat="49.57254" lon="-1.31423">
        <ele>31.457204</ele>
        <time>2022-07-31T11:34:33.000Z</time>
      </trkpt>
      <trkpt lat="49.57252" lon="-1.31427">
        <ele>31.705336</ele>
        <time>2022-07-31T11:34:34.000Z</time>
      </trkpt>
      <trkpt lat="49.57251" lon="-1.31432">
        <ele>31.934723</ele>
        <time>2022-07-31T11:34:35.000Z</time>
      </trkpt>
      <trkpt lat="49.5725" lon="-1.31436">
        <ele>32.164111</ele>
        <time>2022-07-31T11:34:36.000Z</time>
      </trkpt>
      <trkpt lat="49.57248" lon="-1.3144">
        <ele>32.411709</ele>
        <time>2022-07-31T11:34:37.000Z</time>
      </trkpt>
      <trkpt lat="49.57246" lon="-1.31444">
        <ele>32.651407</ele>
        <time>2022-07-31T11:34:38.000Z</time>
      </trkpt>
      <trkpt lat="49.57245" lon="-1.31449">
        <ele>32.895311</ele>
        <time>2022-07-31T11:34:39.000Z</time>
      </trkpt>
      <trkpt lat="49.57243" lon="-1.31453">
        <ele>33.126672</ele>
        <time>2022-07-31T11:34:40.000Z</time>
      </trkpt>
      <trkpt lat="49.57241" lon="-1.31457">
        <ele>33.370575</ele>
        <time>2022-07-31T11:34:41.000Z</time>
      </trkpt>
      <trkpt lat="49.5724" lon="-1.31462">
        <ele>33.591445</ele>
        <time>2022-07-31T11:34:42.000Z</time>
      </trkpt>
      <trkpt lat="49.57239" lon="-1.31466">
        <ele>33.820833</ele>
        <time>2022-07-31T11:34:43.000Z</time>
      </trkpt>
      <trkpt lat="49.57238" lon="-1.3147">
        <ele>34.042739</ele>
        <time>2022-07-31T11:34:44.000Z</time>
      </trkpt>
      <trkpt lat="49.57237" lon="-1.31474">
        <ele>34.267754</ele>
        <time>2022-07-31T11:34:45.000Z</time>
      </trkpt>
      <trkpt lat="49.57235" lon="-1.31479">
        <ele>34.505942</ele>
        <time>2022-07-31T11:34:46.000Z</time>
      </trkpt>
      <trkpt lat="49.57234" lon="-1.31483">
        <ele>34.740517</ele>
        <time>2022-07-31T11:34:47.000Z</time>
      </trkpt>
      <trkpt lat="49.57233" lon="-1.31488">
        <ele>34.984421</ele>
        <time>2022-07-31T11:34:48.000Z</time>
      </trkpt>
      <trkpt lat="49.57231" lon="-1.31492">
        <ele>35.224119</ele>
        <time>2022-07-31T11:34:49.000Z</time>
      </trkpt>
      <trkpt lat="49.5723" lon="-1.31496">
        <ele>35.437989</ele>
        <time>2022-07-31T11:34:50.000Z</time>
      </trkpt>
      <trkpt lat="49.57229" lon="-1.315">
        <ele>35.657049</ele>
        <time>2022-07-31T11:34:51.000Z</time>
      </trkpt>
      <trkpt lat="49.57227" lon="-1.31504">
        <ele>35.884282</ele>
        <time>2022-07-31T11:34:52.000Z</time>
      </trkpt>
      <trkpt lat="49.57225" lon="-1.31508">
        <ele>36.119799</ele>
        <time>2022-07-31T11:34:53.000Z</time>
      </trkpt>
      <trkpt lat="49.57224" lon="-1.31512">
        <ele>36.327073</ele>
        <time>2022-07-31T11:34:54.000Z</time>
      </trkpt>
      <trkpt lat="49.57223" lon="-1.31516">
        <ele>36.547736</ele>
        <time>2022-07-31T11:34:55.000Z</time>
      </trkpt>
      <trkpt lat="49.57222" lon="-1.31521">
        <ele>36.769642</ele>
        <time>2022-07-31T11:34:56.000Z</time>
      </trkpt>
      <trkpt lat="49.5722" lon="-1.31524">
        <ele>36.984664</ele>
        <time>2022-07-31T11:34:57.000Z</time>
      </trkpt>
      <trkpt lat="49.57219" lon="-1.31528">
        <ele>37.192393</ele>
        <time>2022-07-31T11:34:58.000Z</time>
      </trkpt>
      <trkpt lat="49.57217" lon="-1.31532">
        <ele>37.407415</ele>
        <time>2022-07-31T11:34:59.000Z</time>
      </trkpt>
      <trkpt lat="49.57216" lon="-1.31536">
        <ele>37.615145</ele>
        <time>2022-07-31T11:35:00.000Z</time>
      </trkpt>
      <trkpt lat="49.57214" lon="-1.31539">
        <ele>37.834206</ele>
        <time>2022-07-31T11:35:01.000Z</time>
      </trkpt>
      <trkpt lat="49.57213" lon="-1.31543">
        <ele>38.061439</ele>
        <time>2022-07-31T11:35:02.000Z</time>
      </trkpt>
      <trkpt lat="49.57212" lon="-1.31547">
        <ele>38.268713</ele>
        <time>2022-07-31T11:35:03.000Z</time>
      </trkpt>
      <trkpt lat="49.5721" lon="-1.31551">
        <ele>38.495946</ele>
        <time>2022-07-31T11:35:04.000Z</time>
      </trkpt>
      <trkpt lat="49.57209" lon="-1.31556">
        <ele>38.726735</ele>
        <time>2022-07-31T11:35:05.000Z</time>
      </trkpt>
      <trkpt lat="49.57208" lon="-1.3156">
        <ele>38.947606</ele>
        <time>2022-07-31T11:35:06.000Z</time>
      </trkpt>
      <trkpt lat="49.57206" lon="-1.31564">
        <ele>39.183124</ele>
        <time>2022-07-31T11:35:07.000Z</time>
      </trkpt>
      <trkpt lat="49.57205" lon="-1.31568">
        <ele>39.399454</ele>
        <time>2022-07-31T11:35:08.000Z</time>
      </trkpt>
      <trkpt lat="49.57204" lon="-1.31572">
        <ele>39.630816</ele>
        <time>2022-07-31T11:35:09.000Z</time>
      </trkpt>
      <trkpt lat="49.57203" lon="-1.31577">
        <ele>39.844687</ele>
        <time>2022-07-31T11:35:10.000Z</time>
      </trkpt>
      <trkpt lat="49.57201" lon="-1.31581">
        <ele>40.074076</ele>
        <time>2022-07-31T11:35:11.000Z</time>
      </trkpt>
      <trkpt lat="49.572" lon="-1.31585">
        <ele>40.299505</ele>
        <time>2022-07-31T11:35:12.000Z</time>
      </trkpt>
      <trkpt lat="49.57199" lon="-1.3159">
        <ele>40.528894</ele>
        <time>2022-07-31T11:35:13.000Z</time>
      </trkpt>
      <trkpt lat="49.57198" lon="-1.31594">
        <ele>40.741237</ele>
        <time>2022-07-31T11:35:14.000Z</time>
      </trkpt>
      <trkpt lat="49.57197" lon="-1.31598">
        <ele>40.961142</ele>
        <time>2022-07-31T11:35:15.000Z</time>
      </trkpt>
      <trkpt lat="49.57195" lon="-1.31602">
        <ele>41.175015</ele>
        <time>2022-07-31T11:35:16.000Z</time>
      </trkpt>
      <trkpt lat="49.57194" lon="-1.31606">
        <ele>41.39887</ele>
        <time>2022-07-31T11:35:17.000Z</time>
      </trkpt>
      <trkpt lat="49.57192" lon="-1.3161">
        <ele>41.608605</ele>
        <time>2022-07-31T11:35:18.000Z</time>
      </trkpt>
      <trkpt lat="49.57191" lon="-1.31615">
        <ele>41.830809</ele>
        <time>2022-07-31T11:35:19.000Z</time>
      </trkpt>
      <trkpt lat="49.57189" lon="-1.31619">
        <ele>42.058638</ele>
        <time>2022-07-31T11:35:20.000Z</time>
      </trkpt>
      <trkpt lat="49.57188" lon="-1.31623">
        <ele>42.269556</ele>
        <time>2022-07-31T11:35:21.000Z</time>
      </trkpt>
      <trkpt lat="49.57187" lon="-1.31628">
        <ele>42.497385</ele>
        <time>2022-07-31T11:35:22.000Z</time>
      </trkpt>
      <trkpt lat="49.57185" lon="-1.31631">
        <ele>42.694828</ele>
        <time>2022-07-31T11:35:23.000Z</time>
      </trkpt>
      <trkpt lat="49.57184" lon="-1.31635">
        <ele>42.887558</ele>
        <time>2022-07-31T11:35:24.000Z</time>
      </trkpt>
      <trkpt lat="49.57184" lon="-1.31638">
        <ele>43.036231</ele>
        <time>2022-07-31T11:35:25.000Z</time>
      </trkpt>
      <trkpt lat="49.57181" lon="-1.31649">
        <ele>43.556955</ele>
        <time>2022-07-31T11:35:54.000Z</time>
      </trkpt>
      <trkpt lat="49.57179" lon="-1.31653">
        <ele>43.792293</ele>
        <time>2022-07-31T11:35:55.000Z</time>
      </trkpt>
      <trkpt lat="49.57177" lon="-1.31657">
        <ele>44.028068</ele>
        <time>2022-07-31T11:35:56.000Z</time>
      </trkpt>
      <trkpt lat="49.57175" lon="-1.31661">
        <ele>44.271002</ele>
        <time>2022-07-31T11:35:57.000Z</time>
      </trkpt>
      <trkpt lat="49.57173" lon="-1.31666">
        <ele>44.506848</ele>
        <time>2022-07-31T11:35:58.000Z</time>
      </trkpt>
      <trkpt lat="49.57171" lon="-1.3167">
        <ele>44.745971</ele>
        <time>2022-07-31T11:35:59.000Z</time>
      </trkpt>
      <trkpt lat="49.5717" lon="-1.31674">
        <ele>44.9738</ele>
        <time>2022-07-31T11:36:00.000Z</time>
      </trkpt>
      <trkpt lat="49.57168" lon="-1.31679">
        <ele>45.209139</ele>
        <time>2022-07-31T11:36:01.000Z</time>
      </trkpt>
      <trkpt lat="49.57167" lon="-1.31682">
        <ele>45.393353</ele>
        <time>2022-07-31T11:36:02.000Z</time>
      </trkpt>
      <trkpt lat="49.57165" lon="-1.31686">
        <ele>45.593921</ele>
        <time>2022-07-31T11:36:03.000Z</time>
      </trkpt>
      <trkpt lat="49.57164" lon="-1.3169">
        <ele>45.806004</ele>
        <time>2022-07-31T11:36:04.000Z</time>
      </trkpt>
      <trkpt lat="49.57162" lon="-1.31694">
        <ele>46.011622</ele>
        <time>2022-07-31T11:36:05.000Z</time>
      </trkpt>
      <trkpt lat="49.57161" lon="-1.31697">
        <ele>46.21219</ele>
        <time>2022-07-31T11:36:06.000Z</time>
      </trkpt>
      <trkpt lat="49.57159" lon="-1.31701">
        <ele>46.416565</ele>
        <time>2022-07-31T11:36:07.000Z</time>
      </trkpt>
      <trkpt lat="49.57157" lon="-1.31704">
        <ele>46.60592</ele>
        <time>2022-07-31T11:36:08.000Z</time>
      </trkpt>
      <trkpt lat="49.57156" lon="-1.31708">
        <ele>46.798977</ele>
        <time>2022-07-31T11:36:09.000Z</time>
      </trkpt>
      <trkpt lat="49.57155" lon="-1.31711">
        <ele>46.972847</ele>
        <time>2022-07-31T11:36:10.000Z</time>
      </trkpt>
      <trkpt lat="49.57153" lon="-1.31715">
        <ele>47.177223</ele>
        <time>2022-07-31T11:36:11.000Z</time>
      </trkpt>
      <trkpt lat="49.57152" lon="-1.31719">
        <ele>47.382841</ele>
        <time>2022-07-31T11:36:12.000Z</time>
      </trkpt>
      <trkpt lat="49.5715" lon="-1.31723">
        <ele>47.588459</ele>
        <time>2022-07-31T11:36:13.000Z</time>
      </trkpt>
      <trkpt lat="49.57149" lon="-1.31726">
        <ele>47.801768</ele>
        <time>2022-07-31T11:36:14.000Z</time>
      </trkpt>
      <trkpt lat="49.57147" lon="-1.31731">
        <ele>48.025624</ele>
        <time>2022-07-31T11:36:15.000Z</time>
      </trkpt>
      <trkpt lat="49.57145" lon="-1.31735">
        <ele>48.241605</ele>
        <time>2022-07-31T11:36:16.000Z</time>
      </trkpt>
      <trkpt lat="49.57143" lon="-1.31739">
        <ele>48.480729</ele>
        <time>2022-07-31T11:36:17.000Z</time>
      </trkpt>
      <trkpt lat="49.57141" lon="-1.31743">
        <ele>48.709226</ele>
        <time>2022-07-31T11:36:18.000Z</time>
      </trkpt>
      <trkpt lat="49.5714" lon="-1.31746">
        <ele>48.909795</ele>
        <time>2022-07-31T11:36:19.000Z</time>
      </trkpt>
      <trkpt lat="49.57139" lon="-1.3175">
        <ele>49.099913</ele>
        <time>2022-07-31T11:36:20.000Z</time>
      </trkpt>
      <trkpt lat="49.57137" lon="-1.31754">
        <ele>49.332033</ele>
        <time>2022-07-31T11:36:21.000Z</time>
      </trkpt>
      <trkpt lat="49.57135" lon="-1.31758">
        <ele>49.548925</ele>
        <time>2022-07-31T11:36:22.000Z</time>
      </trkpt>
      <trkpt lat="49.57133" lon="-1.31761">
        <ele>49.75869</ele>
        <time>2022-07-31T11:36:23.000Z</time>
      </trkpt>
      <trkpt lat="49.57131" lon="-1.31764">
        <ele>49.954715</ele>
        <time>2022-07-31T11:36:24.000Z</time>
      </trkpt>
      <trkpt lat="49.57129" lon="-1.31768">
        <ele>50.174244</ele>
        <time>2022-07-31T11:36:25.000Z</time>
      </trkpt>
      <trkpt lat="49.57127" lon="-1.31771">
        <ele>50.35994</ele>
        <time>2022-07-31T11:36:26.000Z</time>
      </trkpt>
      <trkpt lat="49.57125" lon="-1.31774">
        <ele>50.569705</ele>
        <time>2022-07-31T11:36:27.000Z</time>
      </trkpt>
      <trkpt lat="49.57123" lon="-1.31778">
        <ele>50.77947</ele>
        <time>2022-07-31T11:36:28.000Z</time>
      </trkpt>
      <trkpt lat="49.57122" lon="-1.31781">
        <ele>50.976265</ele>
        <time>2022-07-31T11:36:29.000Z</time>
      </trkpt>
      <trkpt lat="49.57119" lon="-1.31785">
        <ele>51.20027</ele>
        <time>2022-07-31T11:36:30.000Z</time>
      </trkpt>
      <trkpt lat="49.57117" lon="-1.31788">
        <ele>51.401229</ele>
        <time>2022-07-31T11:36:31.000Z</time>
      </trkpt>
      <trkpt lat="49.57115" lon="-1.31792">
        <ele>51.631922</ele>
        <time>2022-07-31T11:36:32.000Z</time>
      </trkpt>
      <trkpt lat="49.57113" lon="-1.31795">
        <ele>51.841688</ele>
        <time>2022-07-31T11:36:33.000Z</time>
      </trkpt>
      <trkpt lat="49.57111" lon="-1.31798">
        <ele>52.044491</ele>
        <time>2022-07-31T11:36:34.000Z</time>
      </trkpt>
      <trkpt lat="49.57109" lon="-1.31801">
        <ele>52.242218</ele>
        <time>2022-07-31T11:36:35.000Z</time>
      </trkpt>
      <trkpt lat="49.57107" lon="-1.31804">
        <ele>52.435884</ele>
        <time>2022-07-31T11:36:36.000Z</time>
      </trkpt>
      <trkpt lat="49.57105" lon="-1.31807">
        <ele>52.658021</ele>
        <time>2022-07-31T11:36:37.000Z</time>
      </trkpt>
      <trkpt lat="49.57103" lon="-1.3181">
        <ele>52.860824</ele>
        <time>2022-07-31T11:36:38.000Z</time>
      </trkpt>
      <trkpt lat="49.571" lon="-1.31813">
        <ele>53.105767</ele>
        <time>2022-07-31T11:36:39.000Z</time>
      </trkpt>
      <trkpt lat="49.57098" lon="-1.31816">
        <ele>53.277273</ele>
        <time>2022-07-31T11:36:40.000Z</time>
      </trkpt>
      <trkpt lat="49.57097" lon="-1.31819">
        <ele>53.439261</ele>
        <time>2022-07-31T11:36:41.000Z</time>
      </trkpt>
      <trkpt lat="49.57095" lon="-1.31822">
        <ele>53.709359</ele>
        <time>2022-07-31T11:36:42.000Z</time>
      </trkpt>
      <trkpt lat="49.57093" lon="-1.31825">
        <ele>53.976786</ele>
        <time>2022-07-31T11:36:43.000Z</time>
      </trkpt>
      <trkpt lat="49.57091" lon="-1.31828">
        <ele>54.232995</ele>
        <time>2022-07-31T11:36:44.000Z</time>
      </trkpt>
      <trkpt lat="49.57089" lon="-1.31832">
        <ele>54.476311</ele>
        <time>2022-07-31T11:36:45.000Z</time>
      </trkpt>
      <trkpt lat="49.57087" lon="-1.31834">
        <ele>54.696268</ele>
        <time>2022-07-31T11:36:46.000Z</time>
      </trkpt>
      <trkpt lat="49.57085" lon="-1.31836">
        <ele>54.952508</ele>
        <time>2022-07-31T11:36:47.000Z</time>
      </trkpt>
      <trkpt lat="49.57082" lon="-1.31839">
        <ele>55.246808</ele>
        <time>2022-07-31T11:36:48.000Z</time>
      </trkpt>
      <trkpt lat="49.5708" lon="-1.31841">
        <ele>55.466765</ele>
        <time>2022-07-31T11:36:49.000Z</time>
      </trkpt>
      <trkpt lat="49.57078" lon="-1.31844">
        <ele>55.710201</ele>
        <time>2022-07-31T11:36:50.000Z</time>
      </trkpt>
      <trkpt lat="49.57077" lon="-1.31847">
        <ele>55.928205</ele>
        <time>2022-07-31T11:36:51.000Z</time>
      </trkpt>
      <trkpt lat="49.57076" lon="-1.3185">
        <ele>56.166818</ele>
        <time>2022-07-31T11:36:52.000Z</time>
      </trkpt>
      <trkpt lat="49.57074" lon="-1.31853">
        <ele>56.414445</ele>
        <time>2022-07-31T11:36:53.000Z</time>
      </trkpt>
      <trkpt lat="49.57072" lon="-1.31856">
        <ele>56.670653</ele>
        <time>2022-07-31T11:36:54.000Z</time>
      </trkpt>
      <trkpt lat="49.57069" lon="-1.3186">
        <ele>56.95673</ele>
        <time>2022-07-31T11:36:55.000Z</time>
      </trkpt>
      <trkpt lat="49.57067" lon="-1.31862">
        <ele>57.198763</ele>
        <time>2022-07-31T11:36:56.000Z</time>
      </trkpt>
      <trkpt lat="49.57065" lon="-1.31864">
        <ele>57.447616</ele>
        <time>2022-07-31T11:36:57.000Z</time>
      </trkpt>
      <trkpt lat="49.57062" lon="-1.31867">
        <ele>57.743316</ele>
        <time>2022-07-31T11:36:58.000Z</time>
      </trkpt>
      <trkpt lat="49.5706" lon="-1.31871">
        <ele>58.03975</ele>
        <time>2022-07-31T11:36:59.000Z</time>
      </trkpt>
      <trkpt lat="49.57058" lon="-1.31874">
        <ele>58.321838</ele>
        <time>2022-07-31T11:37:00.000Z</time>
      </trkpt>
      <trkpt lat="49.57056" lon="-1.31877">
        <ele>58.569464</ele>
        <time>2022-07-31T11:37:01.000Z</time>
      </trkpt>
      <trkpt lat="49.57054" lon="-1.3188">
        <ele>58.82135</ele>
        <time>2022-07-31T11:37:02.000Z</time>
      </trkpt>
      <trkpt lat="49.57052" lon="-1.31883">
        <ele>59.091889</ele>
        <time>2022-07-31T11:37:03.000Z</time>
      </trkpt>
      <trkpt lat="49.5705" lon="-1.31886">
        <ele>59.351645</ele>
        <time>2022-07-31T11:37:04.000Z</time>
      </trkpt>
      <trkpt lat="49.57048" lon="-1.31889">
        <ele>59.599271</ele>
        <time>2022-07-31T11:37:05.000Z</time>
      </trkpt>
      <trkpt lat="49.57045" lon="-1.31892">
        <ele>59.873588</ele>
        <time>2022-07-31T11:37:06.000Z</time>
      </trkpt>
      <trkpt lat="49.57044" lon="-1.31895">
        <ele>60.112202</ele>
        <time>2022-07-31T11:37:07.000Z</time>
      </trkpt>
      <trkpt lat="49.57042" lon="-1.31898">
        <ele>60.364088</ele>
        <time>2022-07-31T11:37:08.000Z</time>
      </trkpt>
      <trkpt lat="49.5704" lon="-1.31901">
        <ele>60.593463</ele>
        <time>2022-07-31T11:37:09.000Z</time>
      </trkpt>
      <trkpt lat="49.57038" lon="-1.31905">
        <ele>60.849672</ele>
        <time>2022-07-31T11:37:10.000Z</time>
      </trkpt>
      <trkpt lat="49.57037" lon="-1.31907">
        <ele>61.088992</ele>
        <time>2022-07-31T11:37:11.000Z</time>
      </trkpt>
      <trkpt lat="49.57035" lon="-1.3191">
        <ele>61.336619</ele>
        <time>2022-07-31T11:37:12.000Z</time>
      </trkpt>
      <trkpt lat="49.57032" lon="-1.31914">
        <ele>61.618708</ele>
        <time>2022-07-31T11:37:13.000Z</time>
      </trkpt>
      <trkpt lat="49.57031" lon="-1.31917">
        <ele>61.862026</ele>
        <time>2022-07-31T11:37:14.000Z</time>
      </trkpt>
      <trkpt lat="49.57029" lon="-1.3192">
        <ele>62.095106</ele>
        <time>2022-07-31T11:37:15.000Z</time>
      </trkpt>
      <trkpt lat="49.57028" lon="-1.31924">
        <ele>62.338425</ele>
        <time>2022-07-31T11:37:16.000Z</time>
      </trkpt>
      <trkpt lat="49.57026" lon="-1.31927">
        <ele>62.57704</ele>
        <time>2022-07-31T11:37:17.000Z</time>
      </trkpt>
      <trkpt lat="49.57024" lon="-1.3193">
        <ele>62.86488</ele>
        <time>2022-07-31T11:37:18.000Z</time>
      </trkpt>
      <trkpt lat="49.57022" lon="-1.31934">
        <ele>63.134423</ele>
        <time>2022-07-31T11:37:19.000Z</time>
      </trkpt>
      <trkpt lat="49.5702" lon="-1.31937">
        <ele>63.403966</ele>
        <time>2022-07-31T11:37:20.000Z</time>
      </trkpt>
      <trkpt lat="49.57018" lon="-1.31941">
        <ele>63.679442</ele>
        <time>2022-07-31T11:37:21.000Z</time>
      </trkpt>
      <trkpt lat="49.57016" lon="-1.31944">
        <ele>63.950819</ele>
        <time>2022-07-31T11:37:22.000Z</time>
      </trkpt>
      <trkpt lat="49.57014" lon="-1.31947">
        <ele>64.220362</ele>
        <time>2022-07-31T11:37:23.000Z</time>
      </trkpt>
      <trkpt lat="49.57012" lon="-1.3195">
        <ele>64.4638</ele>
        <time>2022-07-31T11:37:24.000Z</time>
      </trkpt>
      <trkpt lat="49.5701" lon="-1.31954">
        <ele>64.730529</ele>
        <time>2022-07-31T11:37:25.000Z</time>
      </trkpt>
      <trkpt lat="49.57008" lon="-1.31957">
        <ele>64.978157</ele>
        <time>2022-07-31T11:37:26.000Z</time>
      </trkpt>
      <trkpt lat="49.57006" lon="-1.3196">
        <ele>65.234367</ele>
        <time>2022-07-31T11:37:27.000Z</time>
      </trkpt>
      <trkpt lat="49.57004" lon="-1.31963">
        <ele>65.505745</ele>
        <time>2022-07-31T11:37:28.000Z</time>
      </trkpt>
      <trkpt lat="49.57002" lon="-1.31966">
        <ele>65.799996</ele>
        <time>2022-07-31T11:37:29.000Z</time>
      </trkpt>
      <trkpt lat="49.57" lon="-1.3197">
        <ele>66.038612</ele>
        <time>2022-07-31T11:37:30.000Z</time>
      </trkpt>
      <trkpt lat="49.56998" lon="-1.31973">
        <ele>66.314008</ele>
        <time>2022-07-31T11:37:31.000Z</time>
      </trkpt>
      <trkpt lat="49.56996" lon="-1.31976">
        <ele>66.592176</ele>
        <time>2022-07-31T11:37:32.000Z</time>
      </trkpt>
      <trkpt lat="49.56994" lon="-1.31979">
        <ele>66.848387</ele>
        <time>2022-07-31T11:37:33.000Z</time>
      </trkpt>
      <trkpt lat="49.56992" lon="-1.31982">
        <ele>67.104598</ele>
        <time>2022-07-31T11:37:34.000Z</time>
      </trkpt>
      <trkpt lat="49.5699" lon="-1.31986">
        <ele>67.357476</ele>
        <time>2022-07-31T11:37:35.000Z</time>
      </trkpt>
      <trkpt lat="49.56989" lon="-1.31989">
        <ele>67.62702</ele>
        <time>2022-07-31T11:37:36.000Z</time>
      </trkpt>
      <trkpt lat="49.56987" lon="-1.31992">
        <ele>67.866341</ele>
        <time>2022-07-31T11:37:37.000Z</time>
      </trkpt>
      <trkpt lat="49.56985" lon="-1.31995">
        <ele>68.108395</ele>
        <time>2022-07-31T11:37:38.000Z</time>
      </trkpt>
      <trkpt lat="49.56983" lon="-1.31998">
        <ele>68.356024</ele>
        <time>2022-07-31T11:37:39.000Z</time>
      </trkpt>
      <trkpt lat="49.56981" lon="-1.32001">
        <ele>68.616621</ele>
        <time>2022-07-31T11:37:40.000Z</time>
      </trkpt>
      <trkpt lat="49.56979" lon="-1.32005">
        <ele>68.886165</ele>
        <time>2022-07-31T11:37:41.000Z</time>
      </trkpt>
      <trkpt lat="49.56977" lon="-1.32008">
        <ele>69.172244</ele>
        <time>2022-07-31T11:37:42.000Z</time>
      </trkpt>
      <trkpt lat="49.56974" lon="-1.32011">
        <ele>69.439675</ele>
        <time>2022-07-31T11:37:43.000Z</time>
      </trkpt>
      <trkpt lat="49.56973" lon="-1.32014">
        <ele>69.674955</ele>
        <time>2022-07-31T11:37:44.000Z</time>
      </trkpt>
      <trkpt lat="49.5697" lon="-1.32016">
        <ele>69.884409</ele>
        <time>2022-07-31T11:37:45.000Z</time>
      </trkpt>
      <trkpt lat="49.56968" lon="-1.32019">
        <ele>69.988852</ele>
        <time>2022-07-31T11:37:46.000Z</time>
      </trkpt>
      <trkpt lat="49.56965" lon="-1.32021">
        <ele>70.10396</ele>
        <time>2022-07-31T11:37:47.000Z</time>
      </trkpt>
      <trkpt lat="49.56963" lon="-1.32025">
        <ele>70.219659</ele>
        <time>2022-07-31T11:37:48.000Z</time>
      </trkpt>
      <trkpt lat="49.56961" lon="-1.32028">
        <ele>70.341394</ele>
        <time>2022-07-31T11:37:49.000Z</time>
      </trkpt>
      <trkpt lat="49.56958" lon="-1.32031">
        <ele>70.4576</ele>
        <time>2022-07-31T11:37:50.000Z</time>
      </trkpt>
      <trkpt lat="49.56955" lon="-1.32034">
        <ele>70.584695</ele>
        <time>2022-07-31T11:37:51.000Z</time>
      </trkpt>
      <trkpt lat="49.56953" lon="-1.32037">
        <ele>70.702495</ele>
        <time>2022-07-31T11:37:52.000Z</time>
      </trkpt>
      <trkpt lat="49.5695" lon="-1.3204">
        <ele>70.826316</ele>
        <time>2022-07-31T11:37:53.000Z</time>
      </trkpt>
      <trkpt lat="49.56948" lon="-1.32043">
        <ele>70.939786</ele>
        <time>2022-07-31T11:37:54.000Z</time>
      </trkpt>
      <trkpt lat="49.56946" lon="-1.32047">
        <ele>71.044301</ele>
        <time>2022-07-31T11:37:55.000Z</time>
      </trkpt>
      <trkpt lat="49.56943" lon="-1.32049">
        <ele>71.159074</ele>
        <time>2022-07-31T11:37:56.000Z</time>
      </trkpt>
      <trkpt lat="49.56941" lon="-1.32052">
        <ele>71.270974</ele>
        <time>2022-07-31T11:37:57.000Z</time>
      </trkpt>
      <trkpt lat="49.56939" lon="-1.32055">
        <ele>71.372487</ele>
        <time>2022-07-31T11:37:58.000Z</time>
      </trkpt>
      <trkpt lat="49.56937" lon="-1.32057">
        <ele>71.477014</ele>
        <time>2022-07-31T11:37:59.000Z</time>
      </trkpt>
      <trkpt lat="49.56934" lon="-1.3206">
        <ele>71.578527</ele>
        <time>2022-07-31T11:38:00.000Z</time>
      </trkpt>
      <trkpt lat="49.56933" lon="-1.32063">
        <ele>71.674502</ele>
        <time>2022-07-31T11:38:01.000Z</time>
      </trkpt>
      <trkpt lat="49.5693" lon="-1.32065">
        <ele>71.788318</ele>
        <time>2022-07-31T11:38:02.000Z</time>
      </trkpt>
      <trkpt lat="49.56927" lon="-1.32067">
        <ele>71.909452</ele>
        <time>2022-07-31T11:38:03.000Z</time>
      </trkpt>
      <trkpt lat="49.56925" lon="-1.3207">
        <ele>72.018841</ele>
        <time>2022-07-31T11:38:04.000Z</time>
      </trkpt>
      <trkpt lat="49.56922" lon="-1.32073">
        <ele>72.139464</ele>
        <time>2022-07-31T11:38:05.000Z</time>
      </trkpt>
      <trkpt lat="49.56919" lon="-1.32075">
        <ele>72.26407</ele>
        <time>2022-07-31T11:38:06.000Z</time>
      </trkpt>
      <trkpt lat="49.56916" lon="-1.32078">
        <ele>72.384254</ele>
        <time>2022-07-31T11:38:07.000Z</time>
      </trkpt>
      <trkpt lat="49.56913" lon="-1.3208">
        <ele>72.517504</ele>
        <time>2022-07-31T11:38:08.000Z</time>
      </trkpt>
      <trkpt lat="49.56909" lon="-1.32083">
        <ele>72.663189</ele>
        <time>2022-07-31T11:38:09.000Z</time>
      </trkpt>
      <trkpt lat="49.56907" lon="-1.32085">
        <ele>72.783373</ele>
        <time>2022-07-31T11:38:10.000Z</time>
      </trkpt>
      <trkpt lat="49.56903" lon="-1.32088">
        <ele>72.928119</ele>
        <time>2022-07-31T11:38:11.000Z</time>
      </trkpt>
      <trkpt lat="49.56899" lon="-1.3209">
        <ele>73.083535</ele>
        <time>2022-07-31T11:38:12.000Z</time>
      </trkpt>
      <trkpt lat="49.56896" lon="-1.32093">
        <ele>73.232279</ele>
        <time>2022-07-31T11:38:13.000Z</time>
      </trkpt>
      <trkpt lat="49.56892" lon="-1.32096">
        <ele>73.381023</ele>
        <time>2022-07-31T11:38:14.000Z</time>
      </trkpt>
      <trkpt lat="49.56888" lon="-1.32099">
        <ele>73.563129</ele>
        <time>2022-07-31T11:38:15.000Z</time>
      </trkpt>
      <trkpt lat="49.56884" lon="-1.32102">
        <ele>73.713058</ele>
        <time>2022-07-31T11:38:16.000Z</time>
      </trkpt>
      <trkpt lat="49.5688" lon="-1.32105">
        <ele>73.895165</ele>
        <time>2022-07-31T11:38:17.000Z</time>
      </trkpt>
      <trkpt lat="49.56876" lon="-1.32108">
        <ele>74.055995</ele>
        <time>2022-07-31T11:38:18.000Z</time>
      </trkpt>
      <trkpt lat="49.56871" lon="-1.32111">
        <ele>74.234698</ele>
        <time>2022-07-31T11:38:19.000Z</time>
      </trkpt>
      <trkpt lat="49.56867" lon="-1.32114">
        <ele>74.404665</ele>
        <time>2022-07-31T11:38:20.000Z</time>
      </trkpt>
      <trkpt lat="49.56863" lon="-1.32117">
        <ele>74.5766</ele>
        <time>2022-07-31T11:38:21.000Z</time>
      </trkpt>
      <trkpt lat="49.56859" lon="-1.3212">
        <ele>74.742202</ele>
        <time>2022-07-31T11:38:22.000Z</time>
      </trkpt>
      <trkpt lat="49.56855" lon="-1.32123">
        <ele>74.914137</ele>
        <time>2022-07-31T11:38:23.000Z</time>
      </trkpt>
      <trkpt lat="49.56851" lon="-1.32126">
        <ele>75.073826</ele>
        <time>2022-07-31T11:38:24.000Z</time>
      </trkpt>
      <trkpt lat="49.56847" lon="-1.32129">
        <ele>75.245761</ele>
        <time>2022-07-31T11:38:25.000Z</time>
      </trkpt>
      <trkpt lat="49.56843" lon="-1.32132">
        <ele>75.411363</ele>
        <time>2022-07-31T11:38:26.000Z</time>
      </trkpt>
      <trkpt lat="49.56838" lon="-1.32134">
        <ele>75.589034</ele>
        <time>2022-07-31T11:38:27.000Z</time>
      </trkpt>
      <trkpt lat="49.56835" lon="-1.32137">
        <ele>75.735498</ele>
        <time>2022-07-31T11:38:28.000Z</time>
      </trkpt>
      <trkpt lat="49.56831" lon="-1.3214">
        <ele>75.896329</ele>
        <time>2022-07-31T11:38:29.000Z</time>
      </trkpt>
      <trkpt lat="49.56827" lon="-1.32143">
        <ele>76.056018</ele>
        <time>2022-07-31T11:38:30.000Z</time>
      </trkpt>
      <trkpt lat="49.56823" lon="-1.32146">
        <ele>76.220117</ele>
        <time>2022-07-31T11:38:31.000Z</time>
      </trkpt>
      <trkpt lat="49.5682" lon="-1.32149">
        <ele>76.371261</ele>
        <time>2022-07-31T11:38:32.000Z</time>
      </trkpt>
      <trkpt lat="49.56816" lon="-1.32152">
        <ele>76.519687</ele>
        <time>2022-07-31T11:38:33.000Z</time>
      </trkpt>
      <trkpt lat="49.56813" lon="-1.32155">
        <ele>76.63867</ele>
        <time>2022-07-31T11:38:34.000Z</time>
      </trkpt>
      <trkpt lat="49.56809" lon="-1.32158">
        <ele>76.768166</ele>
        <time>2022-07-31T11:38:35.000Z</time>
      </trkpt>
      <trkpt lat="49.56806" lon="-1.32162">
        <ele>76.897511</ele>
        <time>2022-07-31T11:38:36.000Z</time>
      </trkpt>
      <trkpt lat="49.56803" lon="-1.32166">
        <ele>77.028125</ele>
        <time>2022-07-31T11:38:37.000Z</time>
      </trkpt>
      <trkpt lat="49.568" lon="-1.3217">
        <ele>77.16134</ele>
        <time>2022-07-31T11:38:38.000Z</time>
      </trkpt>
      <trkpt lat="49.56796" lon="-1.32173">
        <ele>77.299767</ele>
        <time>2022-07-31T11:38:39.000Z</time>
      </trkpt>
      <trkpt lat="49.56793" lon="-1.32177">
        <ele>77.431671</ele>
        <time>2022-07-31T11:38:40.000Z</time>
      </trkpt>
      <trkpt lat="49.5679" lon="-1.32181">
        <ele>77.562286</ele>
        <time>2022-07-31T11:38:41.000Z</time>
      </trkpt>
      <trkpt lat="49.56786" lon="-1.32185">
        <ele>77.699913</ele>
        <time>2022-07-31T11:38:42.000Z</time>
      </trkpt>
      <trkpt lat="49.56783" lon="-1.32188">
        <ele>77.813881</ele>
        <time>2022-07-31T11:38:43.000Z</time>
      </trkpt>
      <trkpt lat="49.5678" lon="-1.32191">
        <ele>77.939553</ele>
        <time>2022-07-31T11:38:44.000Z</time>
      </trkpt>
      <trkpt lat="49.56778" lon="-1.32195">
        <ele>78.052557</ele>
        <time>2022-07-31T11:38:45.000Z</time>
      </trkpt>
      <trkpt lat="49.56774" lon="-1.32199">
        <ele>78.181902</ele>
        <time>2022-07-31T11:38:46.000Z</time>
      </trkpt>
      <trkpt lat="49.56772" lon="-1.32202">
        <ele>78.293516</ele>
        <time>2022-07-31T11:38:47.000Z</time>
      </trkpt>
      <trkpt lat="49.56769" lon="-1.32205">
        <ele>78.39994</ele>
        <time>2022-07-31T11:38:48.000Z</time>
      </trkpt>
      <trkpt lat="49.56766" lon="-1.32209">
        <ele>78.517751</ele>
        <time>2022-07-31T11:38:49.000Z</time>
      </trkpt>
      <trkpt lat="49.56764" lon="-1.32212">
        <ele>78.630683</ele>
        <time>2022-07-31T11:38:50.000Z</time>
      </trkpt>
      <trkpt lat="49.56761" lon="-1.32215">
        <ele>78.749776</ele>
        <time>2022-07-31T11:38:51.000Z</time>
      </trkpt>
      <trkpt lat="49.56758" lon="-1.32219">
        <ele>78.86634</ele>
        <time>2022-07-31T11:38:52.000Z</time>
      </trkpt>
      <trkpt lat="49.56755" lon="-1.32222">
        <ele>78.972624</ele>
        <time>2022-07-31T11:38:53.000Z</time>
      </trkpt>
      <trkpt lat="49.56752" lon="-1.32225">
        <ele>79.090436</ele>
        <time>2022-07-31T11:38:54.000Z</time>
      </trkpt>
      <trkpt lat="49.5675" lon="-1.32229">
        <ele>79.19686</ele>
        <time>2022-07-31T11:38:55.000Z</time>
      </trkpt>
      <trkpt lat="49.56747" lon="-1.32232">
        <ele>79.305761</ele>
        <time>2022-07-31T11:38:56.000Z</time>
      </trkpt>
      <trkpt lat="49.56744" lon="-1.32236">
        <ele>79.430201</ele>
        <time>2022-07-31T11:38:57.000Z</time>
      </trkpt>
      <trkpt lat="49.56742" lon="-1.32239">
        <ele>79.54082</ele>
        <time>2022-07-31T11:38:58.000Z</time>
      </trkpt>
      <trkpt lat="49.56739" lon="-1.32243">
        <ele>79.651066</ele>
        <time>2022-07-31T11:38:59.000Z</time>
      </trkpt>
      <trkpt lat="49.56736" lon="-1.32246">
        <ele>79.77794</ele>
        <time>2022-07-31T11:39:00.000Z</time>
      </trkpt>
      <trkpt lat="49.56734" lon="-1.3225">
        <ele>79.877195</ele>
        <time>2022-07-31T11:39:01.000Z</time>
      </trkpt>
      <trkpt lat="49.56731" lon="-1.32253">
        <ele>79.992516</ele>
        <time>2022-07-31T11:39:02.000Z</time>
      </trkpt>
      <trkpt lat="49.56729" lon="-1.32256">
        <ele>80.091305</ele>
        <time>2022-07-31T11:39:03.000Z</time>
      </trkpt>
      <trkpt lat="49.56726" lon="-1.32259">
        <ele>80.192475</ele>
        <time>2022-07-31T11:39:04.000Z</time>
      </trkpt>
      <trkpt lat="49.56724" lon="-1.32261">
        <ele>80.2847</ele>
        <time>2022-07-31T11:39:05.000Z</time>
      </trkpt>
      <trkpt lat="49.56722" lon="-1.32264">
        <ele>80.378299</ele>
        <time>2022-07-31T11:39:06.000Z</time>
      </trkpt>
      <trkpt lat="49.56719" lon="-1.32267">
        <ele>80.467937</ele>
        <time>2022-07-31T11:39:07.000Z</time>
      </trkpt>
      <trkpt lat="49.56717" lon="-1.32269">
        <ele>80.565932</ele>
        <time>2022-07-31T11:39:08.000Z</time>
      </trkpt>
      <trkpt lat="49.56715" lon="-1.32272">
        <ele>80.644048</ele>
        <time>2022-07-31T11:39:09.000Z</time>
      </trkpt>
      <trkpt lat="49.56712" lon="-1.32274">
        <ele>80.745418</ele>
        <time>2022-07-31T11:39:10.000Z</time>
      </trkpt>
      <trkpt lat="49.5671" lon="-1.32277">
        <ele>80.830411</ele>
        <time>2022-07-31T11:39:11.000Z</time>
      </trkpt>
      <trkpt lat="49.56708" lon="-1.3228">
        <ele>80.92134</ele>
        <time>2022-07-31T11:39:12.000Z</time>
      </trkpt>
      <trkpt lat="49.56706" lon="-1.32282">
        <ele>81.021554</ele>
        <time>2022-07-31T11:39:13.000Z</time>
      </trkpt>
      <trkpt lat="49.56703" lon="-1.32285">
        <ele>81.133332</ele>
        <time>2022-07-31T11:39:14.000Z</time>
      </trkpt>
      <trkpt lat="49.567" lon="-1.32288">
        <ele>81.230848</ele>
        <time>2022-07-31T11:39:15.000Z</time>
      </trkpt>
      <trkpt lat="49.56698" lon="-1.32291">
        <ele>81.32827</ele>
        <time>2022-07-31T11:39:16.000Z</time>
      </trkpt>
      <trkpt lat="49.56695" lon="-1.32294">
        <ele>81.437821</ele>
        <time>2022-07-31T11:39:17.000Z</time>
      </trkpt>
      <trkpt lat="49.56693" lon="-1.32296">
        <ele>81.536526</ele>
        <time>2022-07-31T11:39:18.000Z</time>
      </trkpt>
      <trkpt lat="49.5669" lon="-1.32299">
        <ele>81.635614</ele>
        <time>2022-07-31T11:39:19.000Z</time>
      </trkpt>
      <trkpt lat="49.56688" lon="-1.32301">
        <ele>81.725253</ele>
        <time>2022-07-31T11:39:20.000Z</time>
      </trkpt>
      <trkpt lat="49.56685" lon="-1.32304">
        <ele>81.829025</ele>
        <time>2022-07-31T11:39:21.000Z</time>
      </trkpt>
      <trkpt lat="49.56683" lon="-1.32307">
        <ele>81.925403</ele>
        <time>2022-07-31T11:39:22.000Z</time>
      </trkpt>
      <trkpt lat="49.56681" lon="-1.3231">
        <ele>82.022824</ele>
        <time>2022-07-31T11:39:23.000Z</time>
      </trkpt>
      <trkpt lat="49.56678" lon="-1.32314">
        <ele>82.120629</ele>
        <time>2022-07-31T11:39:24.000Z</time>
      </trkpt>
      <trkpt lat="49.56676" lon="-1.32317">
        <ele>82.218434</ele>
        <time>2022-07-31T11:39:25.000Z</time>
      </trkpt>
      <trkpt lat="49.56674" lon="-1.32319">
        <ele>82.31066</ele>
        <time>2022-07-31T11:39:26.000Z</time>
      </trkpt>
      <trkpt lat="49.56671" lon="-1.32322">
        <ele>82.374742</ele>
        <time>2022-07-31T11:39:27.000Z</time>
      </trkpt>
      <trkpt lat="49.56669" lon="-1.32325">
        <ele>82.421925</ele>
        <time>2022-07-31T11:39:28.000Z</time>
      </trkpt>
      <trkpt lat="49.56666" lon="-1.32329">
        <ele>82.468719</ele>
        <time>2022-07-31T11:39:29.000Z</time>
      </trkpt>
      <trkpt lat="49.56664" lon="-1.32332">
        <ele>82.512462</ele>
        <time>2022-07-31T11:39:30.000Z</time>
      </trkpt>
      <trkpt lat="49.56661" lon="-1.32334">
        <ele>82.563425</ele>
        <time>2022-07-31T11:39:31.000Z</time>
      </trkpt>
      <trkpt lat="49.56659" lon="-1.32337">
        <ele>82.607168</ele>
        <time>2022-07-31T11:39:32.000Z</time>
      </trkpt>
      <trkpt lat="49.56656" lon="-1.32341">
        <ele>82.656717</ele>
        <time>2022-07-31T11:39:33.000Z</time>
      </trkpt>
      <trkpt lat="49.56654" lon="-1.32344">
        <ele>82.703799</ele>
        <time>2022-07-31T11:39:34.000Z</time>
      </trkpt>
      <trkpt lat="49.56651" lon="-1.32348">
        <ele>82.759862</ele>
        <time>2022-07-31T11:39:35.000Z</time>
      </trkpt>
      <trkpt lat="49.56649" lon="-1.32352">
        <ele>82.809067</ele>
        <time>2022-07-31T11:39:36.000Z</time>
      </trkpt>
      <trkpt lat="49.56646" lon="-1.32355">
        <ele>82.861765</ele>
        <time>2022-07-31T11:39:37.000Z</time>
      </trkpt>
      <trkpt lat="49.56643" lon="-1.32359">
        <ele>82.921923</ele>
        <time>2022-07-31T11:39:38.000Z</time>
      </trkpt>
      <trkpt lat="49.56641" lon="-1.32363">
        <ele>82.974829</ele>
        <time>2022-07-31T11:39:39.000Z</time>
      </trkpt>
      <trkpt lat="49.56639" lon="-1.32368">
        <ele>83.031704</ele>
        <time>2022-07-31T11:39:40.000Z</time>
      </trkpt>
      <trkpt lat="49.56637" lon="-1.32373">
        <ele>83.086024</ele>
        <time>2022-07-31T11:39:41.000Z</time>
      </trkpt>
      <trkpt lat="49.56635" lon="-1.32377">
        <ele>83.14046</ele>
        <time>2022-07-31T11:39:42.000Z</time>
      </trkpt>
      <trkpt lat="49.56633" lon="-1.32382">
        <ele>83.190033</ele>
        <time>2022-07-31T11:39:43.000Z</time>
      </trkpt>
      <trkpt lat="49.56631" lon="-1.32387">
        <ele>83.243026</ele>
        <time>2022-07-31T11:39:44.000Z</time>
      </trkpt>
      <trkpt lat="49.5663" lon="-1.32392">
        <ele>83.296346</ele>
        <time>2022-07-31T11:39:45.000Z</time>
      </trkpt>
      <trkpt lat="49.56629" lon="-1.32398">
        <ele>83.352893</ele>
        <time>2022-07-31T11:39:46.000Z</time>
      </trkpt>
      <trkpt lat="49.56629" lon="-1.32403">
        <ele>83.406769</ele>
        <time>2022-07-31T11:39:47.000Z</time>
      </trkpt>
      <trkpt lat="49.56628" lon="-1.32409">
        <ele>83.463809</ele>
        <time>2022-07-31T11:39:48.000Z</time>
      </trkpt>
      <trkpt lat="49.56628" lon="-1.32414">
        <ele>83.516938</ele>
        <time>2022-07-31T11:39:49.000Z</time>
      </trkpt>
      <trkpt lat="49.56629" lon="-1.3242">
        <ele>83.572115</ele>
        <time>2022-07-31T11:39:50.000Z</time>
      </trkpt>
      <trkpt lat="49.56629" lon="-1.32425">
        <ele>83.622184</ele>
        <time>2022-07-31T11:39:51.000Z</time>
      </trkpt>
      <trkpt lat="49.56629" lon="-1.3243">
        <ele>83.672614</ele>
        <time>2022-07-31T11:39:52.000Z</time>
      </trkpt>
      <trkpt lat="49.56629" lon="-1.32435">
        <ele>83.722845</ele>
        <time>2022-07-31T11:39:53.000Z</time>
      </trkpt>
      <trkpt lat="49.5663" lon="-1.3244">
        <ele>83.772256</ele>
        <time>2022-07-31T11:39:54.000Z</time>
      </trkpt>
      <trkpt lat="49.56631" lon="-1.32445">
        <ele>83.817581</ele>
        <time>2022-07-31T11:39:55.000Z</time>
      </trkpt>
      <trkpt lat="49.56631" lon="-1.32449">
        <ele>83.86128</ele>
        <time>2022-07-31T11:39:56.000Z</time>
      </trkpt>
      <trkpt lat="49.56632" lon="-1.32454">
        <ele>83.904498</ele>
        <time>2022-07-31T11:39:57.000Z</time>
      </trkpt>
      <trkpt lat="49.56632" lon="-1.32458">
        <ele>83.946036</ele>
        <time>2022-07-31T11:39:58.000Z</time>
      </trkpt>
      <trkpt lat="49.56632" lon="-1.32462">
        <ele>83.984932</ele>
        <time>2022-07-31T11:39:59.000Z</time>
      </trkpt>
      <trkpt lat="49.56633" lon="-1.32466">
        <ele>84.025749</ele>
        <time>2022-07-31T11:40:00.000Z</time>
      </trkpt>
      <trkpt lat="49.56633" lon="-1.3247">
        <ele>84.066755</ele>
        <time>2022-07-31T11:40:01.000Z</time>
      </trkpt>
      <trkpt lat="49.56633" lon="-1.32474">
        <ele>84.106612</ele>
        <time>2022-07-31T11:40:02.000Z</time>
      </trkpt>
      <trkpt lat="49.56634" lon="-1.32479">
        <ele>84.14934</ele>
        <time>2022-07-31T11:40:03.000Z</time>
      </trkpt>
      <trkpt lat="49.56635" lon="-1.32483">
        <ele>84.189361</ele>
        <time>2022-07-31T11:40:04.000Z</time>
      </trkpt>
      <trkpt lat="49.56636" lon="-1.32487">
        <ele>84.229021</ele>
        <time>2022-07-31T11:40:05.000Z</time>
      </trkpt>
      <trkpt lat="49.56636" lon="-1.32491">
        <ele>84.269042</ele>
        <time>2022-07-31T11:40:06.000Z</time>
      </trkpt>
      <trkpt lat="49.56637" lon="-1.32495">
        <ele>84.307939</ele>
        <time>2022-07-31T11:40:07.000Z</time>
      </trkpt>
      <trkpt lat="49.56637" lon="-1.32498">
        <ele>84.342042</ele>
        <time>2022-07-31T11:40:08.000Z</time>
      </trkpt>
      <trkpt lat="49.56637" lon="-1.32502">
        <ele>84.375851</ele>
        <time>2022-07-31T11:40:09.000Z</time>
      </trkpt>
      <trkpt lat="49.56637" lon="-1.32505">
        <ele>84.407729</ele>
        <time>2022-07-31T11:40:10.000Z</time>
      </trkpt>
      <trkpt lat="49.56637" lon="-1.3251">
        <ele>84.458158</ele>
        <time>2022-07-31T11:40:12.000Z</time>
      </trkpt>
      <trkpt lat="49.56636" lon="-1.32515">
        <ele>84.503647</ele>
        <time>2022-07-31T11:40:14.000Z</time>
      </trkpt>
      <trkpt lat="49.56635" lon="-1.32517">
        <ele>84.531</ele>
        <time>2022-07-31T11:40:15.000Z</time>
      </trkpt>
      <trkpt lat="49.56634" lon="-1.32519">
        <ele>84.56047</ele>
        <time>2022-07-31T11:40:16.000Z</time>
      </trkpt>
      <trkpt lat="49.56633" lon="-1.32521">
        <ele>84.588843</ele>
        <time>2022-07-31T11:40:17.000Z</time>
      </trkpt>
      <trkpt lat="49.56631" lon="-1.32524">
        <ele>84.618117</ele>
        <time>2022-07-31T11:40:18.000Z</time>
      </trkpt>
      <trkpt lat="49.5663" lon="-1.32526">
        <ele>84.645469</ele>
        <time>2022-07-31T11:40:19.000Z</time>
      </trkpt>
      <trkpt lat="49.56628" lon="-1.32527">
        <ele>84.687164</ele>
        <time>2022-07-31T11:40:20.000Z</time>
      </trkpt>
      <trkpt lat="49.56626" lon="-1.32529">
        <ele>84.719882</ele>
        <time>2022-07-31T11:40:21.000Z</time>
      </trkpt>
      <trkpt lat="49.56623" lon="-1.32531">
        <ele>84.75571</ele>
        <time>2022-07-31T11:40:22.000Z</time>
      </trkpt>
      <trkpt lat="49.56621" lon="-1.32532">
        <ele>84.791875</ele>
        <time>2022-07-31T11:40:23.000Z</time>
      </trkpt>
      <trkpt lat="49.56619" lon="-1.32533">
        <ele>84.830596</ele>
        <time>2022-07-31T11:40:24.000Z</time>
      </trkpt>
      <trkpt lat="49.56616" lon="-1.32534">
        <ele>84.875318</ele>
        <time>2022-07-31T11:40:25.000Z</time>
      </trkpt>
      <trkpt lat="49.56613" lon="-1.32535">
        <ele>84.919578</ele>
        <time>2022-07-31T11:40:26.000Z</time>
      </trkpt>
      <trkpt lat="49.5661" lon="-1.32536">
        <ele>84.968208</ele>
        <time>2022-07-31T11:40:27.000Z</time>
      </trkpt>
      <trkpt lat="49.56607" lon="-1.32537">
        <ele>85.013</ele>
        <time>2022-07-31T11:40:28.000Z</time>
      </trkpt>
      <trkpt lat="49.56604" lon="-1.32539">
        <ele>85.02288</ele>
        <time>2022-07-31T11:40:29.000Z</time>
      </trkpt>
      <trkpt lat="49.56601" lon="-1.3254">
        <ele>85.035366</ele>
        <time>2022-07-31T11:40:30.000Z</time>
      </trkpt>
      <trkpt lat="49.56598" lon="-1.32541">
        <ele>85.047687</ele>
        <time>2022-07-31T11:40:31.000Z</time>
      </trkpt>
      <trkpt lat="49.56595" lon="-1.32542">
        <ele>85.059017</ele>
        <time>2022-07-31T11:40:32.000Z</time>
      </trkpt>
      <trkpt lat="49.56591" lon="-1.32543">
        <ele>85.072601</ele>
        <time>2022-07-31T11:40:33.000Z</time>
      </trkpt>
      <trkpt lat="49.56589" lon="-1.32544">
        <ele>85.083763</ele>
        <time>2022-07-31T11:40:34.000Z</time>
      </trkpt>
      <trkpt lat="49.56585" lon="-1.32545">
        <ele>85.097114</ele>
        <time>2022-07-31T11:40:35.000Z</time>
      </trkpt>
      <trkpt lat="49.56581" lon="-1.32546">
        <ele>85.111012</ele>
        <time>2022-07-31T11:40:36.000Z</time>
      </trkpt>
      <trkpt lat="49.56578" lon="-1.32547">
        <ele>85.12449</ele>
        <time>2022-07-31T11:40:37.000Z</time>
      </trkpt>
      <trkpt lat="49.56574" lon="-1.32549">
        <ele>85.138198</ele>
        <time>2022-07-31T11:40:38.000Z</time>
      </trkpt>
      <trkpt lat="49.56571" lon="-1.32551">
        <ele>85.153128</ele>
        <time>2022-07-31T11:40:39.000Z</time>
      </trkpt>
      <trkpt lat="49.56567" lon="-1.32552">
        <ele>85.168421</ele>
        <time>2022-07-31T11:40:40.000Z</time>
      </trkpt>
      <trkpt lat="49.56563" lon="-1.32554">
        <ele>85.183222</ele>
        <time>2022-07-31T11:40:41.000Z</time>
      </trkpt>
      <trkpt lat="49.56559" lon="-1.32556">
        <ele>85.199671</ele>
        <time>2022-07-31T11:40:42.000Z</time>
      </trkpt>
      <trkpt lat="49.56555" lon="-1.32558">
        <ele>85.214822</ele>
        <time>2022-07-31T11:40:43.000Z</time>
      </trkpt>
      <trkpt lat="49.56551" lon="-1.32559">
        <ele>85.231207</ele>
        <time>2022-07-31T11:40:44.000Z</time>
      </trkpt>
      <trkpt lat="49.56547" lon="-1.32561">
        <ele>85.247433</ele>
        <time>2022-07-31T11:40:45.000Z</time>
      </trkpt>
      <trkpt lat="49.56542" lon="-1.32563">
        <ele>85.266195</ele>
        <time>2022-07-31T11:40:46.000Z</time>
      </trkpt>
      <trkpt lat="49.56538" lon="-1.32565">
        <ele>85.282463</ele>
        <time>2022-07-31T11:40:47.000Z</time>
      </trkpt>
      <trkpt lat="49.56533" lon="-1.32566">
        <ele>85.300993</ele>
        <time>2022-07-31T11:40:48.000Z</time>
      </trkpt>
      <trkpt lat="49.56528" lon="-1.32568">
        <ele>85.319577</ele>
        <time>2022-07-31T11:40:49.000Z</time>
      </trkpt>
      <trkpt lat="49.56524" lon="-1.3257">
        <ele>85.337119</ele>
        <time>2022-07-31T11:40:50.000Z</time>
      </trkpt>
      <trkpt lat="49.56519" lon="-1.32572">
        <ele>85.3535</ele>
        <time>2022-07-31T11:40:51.000Z</time>
      </trkpt>
      <trkpt lat="49.56515" lon="-1.32574">
        <ele>85.371171</ele>
        <time>2022-07-31T11:40:52.000Z</time>
      </trkpt>
      <trkpt lat="49.5651" lon="-1.32576">
        <ele>85.388714</ele>
        <time>2022-07-31T11:40:53.000Z</time>
      </trkpt>
      <trkpt lat="49.56506" lon="-1.32578">
        <ele>85.405099</ele>
        <time>2022-07-31T11:40:54.000Z</time>
      </trkpt>
      <trkpt lat="49.56502" lon="-1.32579">
        <ele>85.421184</ele>
        <time>2022-07-31T11:40:55.000Z</time>
      </trkpt>
      <trkpt lat="49.56498" lon="-1.32581">
        <ele>85.436294</ele>
        <time>2022-07-31T11:40:56.000Z</time>
      </trkpt>
      <trkpt lat="49.56494" lon="-1.32582">
        <ele>85.451158</ele>
        <time>2022-07-31T11:40:57.000Z</time>
      </trkpt>
      <trkpt lat="49.56491" lon="-1.32584">
        <ele>85.466231</ele>
        <time>2022-07-31T11:40:58.000Z</time>
      </trkpt>
      <trkpt lat="49.56487" lon="-1.32586">
        <ele>85.480512</ele>
        <time>2022-07-31T11:40:59.000Z</time>
      </trkpt>
      <trkpt lat="49.56484" lon="-1.32588">
        <ele>85.494774</ele>
        <time>2022-07-31T11:41:00.000Z</time>
      </trkpt>
      <trkpt lat="49.56479" lon="-1.3259">
        <ele>85.51086</ele>
        <time>2022-07-31T11:41:01.000Z</time>
      </trkpt>
      <trkpt lat="49.56476" lon="-1.32592">
        <ele>85.526027</ele>
        <time>2022-07-31T11:41:02.000Z</time>
      </trkpt>
      <trkpt lat="49.56472" lon="-1.32594">
        <ele>85.541178</ele>
        <time>2022-07-31T11:41:03.000Z</time>
      </trkpt>
      <trkpt lat="49.56468" lon="-1.32595">
        <ele>85.556471</ele>
        <time>2022-07-31T11:41:04.000Z</time>
      </trkpt>
      <trkpt lat="49.56464" lon="-1.32597">
        <ele>85.571471</ele>
        <time>2022-07-31T11:41:05.000Z</time>
      </trkpt>
      <trkpt lat="49.5646" lon="-1.32599">
        <ele>85.586471</ele>
        <time>2022-07-31T11:41:06.000Z</time>
      </trkpt>
      <trkpt lat="49.56456" lon="-1.32601">
        <ele>85.602987</ele>
        <time>2022-07-31T11:41:07.000Z</time>
      </trkpt>
      <trkpt lat="49.56452" lon="-1.32603">
        <ele>85.618138</ele>
        <time>2022-07-31T11:41:08.000Z</time>
      </trkpt>
      <trkpt lat="49.56448" lon="-1.32605">
        <ele>85.634725</ele>
        <time>2022-07-31T11:41:09.000Z</time>
      </trkpt>
      <trkpt lat="49.56444" lon="-1.32606">
        <ele>85.649526</ele>
        <time>2022-07-31T11:41:10.000Z</time>
      </trkpt>
      <trkpt lat="49.5644" lon="-1.32608">
        <ele>85.664582</ele>
        <time>2022-07-31T11:41:11.000Z</time>
      </trkpt>
      <trkpt lat="49.56436" lon="-1.32609">
        <ele>85.680329</ele>
        <time>2022-07-31T11:41:12.000Z</time>
      </trkpt>
      <trkpt lat="49.56432" lon="-1.3261">
        <ele>85.672957</ele>
        <time>2022-07-31T11:41:13.000Z</time>
      </trkpt>
      <trkpt lat="49.56428" lon="-1.32612">
        <ele>85.596263</ele>
        <time>2022-07-31T11:41:14.000Z</time>
      </trkpt>
      <trkpt lat="49.56424" lon="-1.32614">
        <ele>85.51876</ele>
        <time>2022-07-31T11:41:15.000Z</time>
      </trkpt>
      <trkpt lat="49.5642" lon="-1.32615">
        <ele>85.436283</ele>
        <time>2022-07-31T11:41:16.000Z</time>
      </trkpt>
      <trkpt lat="49.56415" lon="-1.32617">
        <ele>85.353284</ele>
        <time>2022-07-31T11:41:17.000Z</time>
      </trkpt>
      <trkpt lat="49.56411" lon="-1.32619">
        <ele>85.277226</ele>
        <time>2022-07-31T11:41:18.000Z</time>
      </trkpt>
      <trkpt lat="49.56407" lon="-1.3262">
        <ele>85.206201</ele>
        <time>2022-07-31T11:41:19.000Z</time>
      </trkpt>
      <trkpt lat="49.56403" lon="-1.32621">
        <ele>85.126526</ele>
        <time>2022-07-31T11:41:20.000Z</time>
      </trkpt>
      <trkpt lat="49.56398" lon="-1.32622">
        <ele>85.044715</ele>
        <time>2022-07-31T11:41:21.000Z</time>
      </trkpt>
      <trkpt lat="49.56394" lon="-1.32624">
        <ele>84.967483</ele>
        <time>2022-07-31T11:41:22.000Z</time>
      </trkpt>
      <trkpt lat="49.56389" lon="-1.32625">
        <ele>84.874009</ele>
        <time>2022-07-31T11:41:23.000Z</time>
      </trkpt>
      <trkpt lat="49.56384" lon="-1.32627">
        <ele>84.790726</ele>
        <time>2022-07-31T11:41:24.000Z</time>
      </trkpt>
      <trkpt lat="49.5638" lon="-1.32629">
        <ele>84.707727</ele>
        <time>2022-07-31T11:41:25.000Z</time>
      </trkpt>
      <trkpt lat="49.56375" lon="-1.3263">
        <ele>84.614492</ele>
        <time>2022-07-31T11:41:26.000Z</time>
      </trkpt>
      <trkpt lat="49.5637" lon="-1.32632">
        <ele>84.530595</ele>
        <time>2022-07-31T11:41:27.000Z</time>
      </trkpt>
      <trkpt lat="49.56365" lon="-1.32634">
        <ele>84.436323</ele>
        <time>2022-07-31T11:41:28.000Z</time>
      </trkpt>
      <trkpt lat="49.56361" lon="-1.32636">
        <ele>84.352426</ele>
        <time>2022-07-31T11:41:29.000Z</time>
      </trkpt>
      <trkpt lat="49.56356" lon="-1.32639">
        <ele>84.256902</ele>
        <time>2022-07-31T11:41:30.000Z</time>
      </trkpt>
      <trkpt lat="49.56351" lon="-1.32641">
        <ele>84.166857</ele>
        <time>2022-07-31T11:41:31.000Z</time>
      </trkpt>
      <trkpt lat="49.56346" lon="-1.32644">
        <ele>84.080353</ele>
        <time>2022-07-31T11:41:32.000Z</time>
      </trkpt>
      <trkpt lat="49.56341" lon="-1.32646">
        <ele>83.984125</ele>
        <time>2022-07-31T11:41:33.000Z</time>
      </trkpt>
      <trkpt lat="49.56336" lon="-1.32649">
        <ele>83.89177</ele>
        <time>2022-07-31T11:41:34.000Z</time>
      </trkpt>
      <trkpt lat="49.56332" lon="-1.32652">
        <ele>83.799833</ele>
        <time>2022-07-31T11:41:35.000Z</time>
      </trkpt>
      <trkpt lat="49.56327" lon="-1.32655">
        <ele>83.705682</ele>
        <time>2022-07-31T11:41:36.000Z</time>
      </trkpt>
      <trkpt lat="49.56323" lon="-1.32659">
        <ele>83.622283</ele>
        <time>2022-07-31T11:41:37.000Z</time>
      </trkpt>
      <trkpt lat="49.56318" lon="-1.32662">
        <ele>83.529498</ele>
        <time>2022-07-31T11:41:38.000Z</time>
      </trkpt>
      <trkpt lat="49.56313" lon="-1.32665">
        <ele>83.44167</ele>
        <time>2022-07-31T11:41:39.000Z</time>
      </trkpt>
      <trkpt lat="49.56309" lon="-1.32667">
        <ele>83.355982</ele>
        <time>2022-07-31T11:41:40.000Z</time>
      </trkpt>
      <trkpt lat="49.56304" lon="-1.3267">
        <ele>83.270293</ele>
        <time>2022-07-31T11:41:41.000Z</time>
      </trkpt>
      <trkpt lat="49.56299" lon="-1.32673">
        <ele>83.173311</ele>
        <time>2022-07-31T11:41:42.000Z</time>
      </trkpt>
      <trkpt lat="49.56295" lon="-1.32675">
        <ele>83.086379</ele>
        <time>2022-07-31T11:41:43.000Z</time>
      </trkpt>
      <trkpt lat="49.5629" lon="-1.32678">
        <ele>82.988592</ele>
        <time>2022-07-31T11:41:44.000Z</time>
      </trkpt>
      <trkpt lat="49.56285" lon="-1.32681">
        <ele>82.895807</ele>
        <time>2022-07-31T11:41:45.000Z</time>
      </trkpt>
      <trkpt lat="49.5628" lon="-1.32684">
        <ele>82.803451</ele>
        <time>2022-07-31T11:41:46.000Z</time>
      </trkpt>
      <trkpt lat="49.56275" lon="-1.32687">
        <ele>82.710666</ele>
        <time>2022-07-31T11:41:47.000Z</time>
      </trkpt>
      <trkpt lat="49.5627" lon="-1.3269">
        <ele>82.60744</ele>
        <time>2022-07-31T11:41:48.000Z</time>
      </trkpt>
      <trkpt lat="49.56265" lon="-1.32694">
        <ele>82.50714</ele>
        <time>2022-07-31T11:41:49.000Z</time>
      </trkpt>
      <trkpt lat="49.56259" lon="-1.32697">
        <ele>82.371465</ele>
        <time>2022-07-31T11:41:50.000Z</time>
      </trkpt>
      <trkpt lat="49.56254" lon="-1.327">
        <ele>82.225863</ele>
        <time>2022-07-31T11:41:51.000Z</time>
      </trkpt>
      <trkpt lat="49.56248" lon="-1.32703">
        <ele>82.062381</ele>
        <time>2022-07-31T11:41:52.000Z</time>
      </trkpt>
      <trkpt lat="49.56243" lon="-1.32707">
        <ele>81.915451</ele>
        <time>2022-07-31T11:41:53.000Z</time>
      </trkpt>
      <trkpt lat="49.56237" lon="-1.3271">
        <ele>81.751969</ele>
        <time>2022-07-31T11:41:54.000Z</time>
      </trkpt>
      <trkpt lat="49.56232" lon="-1.32713">
        <ele>81.592701</ele>
        <time>2022-07-31T11:41:55.000Z</time>
      </trkpt>
      <trkpt lat="49.56226" lon="-1.32716">
        <ele>81.429805</ele>
        <time>2022-07-31T11:41:56.000Z</time>
      </trkpt>
      <trkpt lat="49.5622" lon="-1.3272">
        <ele>81.257692</ele>
        <time>2022-07-31T11:41:57.000Z</time>
      </trkpt>
      <trkpt lat="49.56214" lon="-1.32723">
        <ele>81.09545</ele>
        <time>2022-07-31T11:41:58.000Z</time>
      </trkpt>
      <trkpt lat="49.56208" lon="-1.32727">
        <ele>80.9153</ele>
        <time>2022-07-31T11:41:59.000Z</time>
      </trkpt>
      <trkpt lat="49.56202" lon="-1.32731">
        <ele>80.747976</ele>
        <time>2022-07-31T11:42:00.000Z</time>
      </trkpt>
      <trkpt lat="49.56196" lon="-1.32735">
        <ele>80.582369</ele>
        <time>2022-07-31T11:42:01.000Z</time>
      </trkpt>
      <trkpt lat="49.56191" lon="-1.32739">
        <ele>80.417719</ele>
        <time>2022-07-31T11:42:02.000Z</time>
      </trkpt>
      <trkpt lat="49.56186" lon="-1.32743">
        <ele>80.279498</ele>
        <time>2022-07-31T11:42:03.000Z</time>
      </trkpt>
      <trkpt lat="49.56182" lon="-1.32748">
        <ele>80.142652</ele>
        <time>2022-07-31T11:42:04.000Z</time>
      </trkpt>
      <trkpt lat="49.56178" lon="-1.32752">
        <ele>80.012108</ele>
        <time>2022-07-31T11:42:05.000Z</time>
      </trkpt>
      <trkpt lat="49.56174" lon="-1.32756">
        <ele>79.887461</ele>
        <time>2022-07-31T11:42:06.000Z</time>
      </trkpt>
      <trkpt lat="49.5617" lon="-1.3276">
        <ele>79.763596</ele>
        <time>2022-07-31T11:42:07.000Z</time>
      </trkpt>
      <trkpt lat="49.56166" lon="-1.32764">
        <ele>79.648388</ele>
        <time>2022-07-31T11:42:08.000Z</time>
      </trkpt>
      <trkpt lat="49.56163" lon="-1.32768">
        <ele>79.536168</ele>
        <time>2022-07-31T11:42:09.000Z</time>
      </trkpt>
      <trkpt lat="49.56159" lon="-1.32771">
        <ele>79.427681</ele>
        <time>2022-07-31T11:42:10.000Z</time>
      </trkpt>
      <trkpt lat="49.56155" lon="-1.32774">
        <ele>79.2944</ele>
        <time>2022-07-31T11:42:11.000Z</time>
      </trkpt>
      <trkpt lat="49.56151" lon="-1.32778">
        <ele>79.170516</ele>
        <time>2022-07-31T11:42:12.000Z</time>
      </trkpt>
      <trkpt lat="49.56146" lon="-1.3278">
        <ele>79.042195</ele>
        <time>2022-07-31T11:42:13.000Z</time>
      </trkpt>
      <trkpt lat="49.56142" lon="-1.32783">
        <ele>78.916967</ele>
        <time>2022-07-31T11:42:14.000Z</time>
      </trkpt>
      <trkpt lat="49.56137" lon="-1.32785">
        <ele>78.773914</ele>
        <time>2022-07-31T11:42:15.000Z</time>
      </trkpt>
      <trkpt lat="49.56132" lon="-1.32787">
        <ele>78.642869</ele>
        <time>2022-07-31T11:42:16.000Z</time>
      </trkpt>
      <trkpt lat="49.56127" lon="-1.32789">
        <ele>78.503714</ele>
        <time>2022-07-31T11:42:17.000Z</time>
      </trkpt>
      <trkpt lat="49.56122" lon="-1.32791">
        <ele>78.364558</ele>
        <time>2022-07-31T11:42:18.000Z</time>
      </trkpt>
      <trkpt lat="49.56116" lon="-1.32793">
        <ele>78.207014</ele>
        <time>2022-07-31T11:42:19.000Z</time>
      </trkpt>
      <trkpt lat="49.5611" lon="-1.32795">
        <ele>78.061273</ele>
        <time>2022-07-31T11:42:20.000Z</time>
      </trkpt>
      <trkpt lat="49.56105" lon="-1.32797">
        <ele>77.904825</ele>
        <time>2022-07-31T11:42:21.000Z</time>
      </trkpt>
      <trkpt lat="49.56099" lon="-1.32799">
        <ele>77.750243</ele>
        <time>2022-07-31T11:42:22.000Z</time>
      </trkpt>
      <trkpt lat="49.56093" lon="-1.32801">
        <ele>77.581557</ele>
        <time>2022-07-31T11:42:23.000Z</time>
      </trkpt>
      <trkpt lat="49.56087" lon="-1.32804">
        <ele>77.420582</ele>
        <time>2022-07-31T11:42:24.000Z</time>
      </trkpt>
      <trkpt lat="49.56081" lon="-1.32806">
        <ele>77.253978</ele>
        <time>2022-07-31T11:42:25.000Z</time>
      </trkpt>
      <trkpt lat="49.56075" lon="-1.32809">
        <ele>77.084786</ele>
        <time>2022-07-31T11:42:26.000Z</time>
      </trkpt>
      <trkpt lat="49.56069" lon="-1.32811">
        <ele>76.922874</ele>
        <time>2022-07-31T11:42:27.000Z</time>
      </trkpt>
      <trkpt lat="49.56064" lon="-1.32814">
        <ele>76.776553</ele>
        <time>2022-07-31T11:42:28.000Z</time>
      </trkpt>
      <trkpt lat="49.56058" lon="-1.32817">
        <ele>76.597243</ele>
        <time>2022-07-31T11:42:29.000Z</time>
      </trkpt>
      <trkpt lat="49.56052" lon="-1.32821">
        <ele>76.440221</ele>
        <time>2022-07-31T11:42:30.000Z</time>
      </trkpt>
      <trkpt lat="49.56046" lon="-1.32824">
        <ele>76.258765</ele>
        <time>2022-07-31T11:42:31.000Z</time>
      </trkpt>
      <trkpt lat="49.5604" lon="-1.32827">
        <ele>76.101791</ele>
        <time>2022-07-31T11:42:32.000Z</time>
      </trkpt>
      <trkpt lat="49.56034" lon="-1.32831">
        <ele>75.92907</ele>
        <time>2022-07-31T11:42:33.000Z</time>
      </trkpt>
      <trkpt lat="49.56028" lon="-1.32834">
        <ele>75.748173</ele>
        <time>2022-07-31T11:42:34.000Z</time>
      </trkpt>
      <trkpt lat="49.56022" lon="-1.32837">
        <ele>75.577988</ele>
        <time>2022-07-31T11:42:35.000Z</time>
      </trkpt>
      <trkpt lat="49.56015" lon="-1.3284">
        <ele>75.397091</ele>
        <time>2022-07-31T11:42:36.000Z</time>
      </trkpt>
      <trkpt lat="49.56009" lon="-1.32843">
        <ele>75.225459</ele>
        <time>2022-07-31T11:42:37.000Z</time>
      </trkpt>
      <trkpt lat="49.56003" lon="-1.32847">
        <ele>75.04343</ele>
        <time>2022-07-31T11:42:38.000Z</time>
      </trkpt>
      <trkpt lat="49.55997" lon="-1.3285">
        <ele>74.861974</ele>
        <time>2022-07-31T11:42:39.000Z</time>
      </trkpt>
      <trkpt lat="49.5599" lon="-1.32853">
        <ele>74.674463</ele>
        <time>2022-07-31T11:42:40.000Z</time>
      </trkpt>
      <trkpt lat="49.55983" lon="-1.32857">
        <ele>74.492433</ele>
        <time>2022-07-31T11:42:41.000Z</time>
      </trkpt>
      <trkpt lat="49.55978" lon="-1.32861">
        <ele>74.322816</ele>
        <time>2022-07-31T11:42:42.000Z</time>
      </trkpt>
      <trkpt lat="49.55972" lon="-1.32865">
        <ele>74.14302</ele>
        <time>2022-07-31T11:42:43.000Z</time>
      </trkpt>
      <trkpt lat="49.55966" lon="-1.3287">
        <ele>73.978476</ele>
        <time>2022-07-31T11:42:44.000Z</time>
      </trkpt>
      <trkpt lat="49.5596" lon="-1.32874">
        <ele>73.802834</ele>
        <time>2022-07-31T11:42:45.000Z</time>
      </trkpt>
      <trkpt lat="49.55955" lon="-1.32879">
        <ele>73.644447</ele>
        <time>2022-07-31T11:42:46.000Z</time>
      </trkpt>
      <trkpt lat="49.5595" lon="-1.32884">
        <ele>73.480544</ele>
        <time>2022-07-31T11:42:47.000Z</time>
      </trkpt>
      <trkpt lat="49.55946" lon="-1.3289">
        <ele>73.32661</ele>
        <time>2022-07-31T11:42:48.000Z</time>
      </trkpt>
      <trkpt lat="49.55941" lon="-1.32895">
        <ele>73.176617</ele>
        <time>2022-07-31T11:42:49.000Z</time>
      </trkpt>
      <trkpt lat="49.55937" lon="-1.32901">
        <ele>73.024774</ele>
        <time>2022-07-31T11:42:50.000Z</time>
      </trkpt>
      <trkpt lat="49.55933" lon="-1.32906">
        <ele>72.882533</ele>
        <time>2022-07-31T11:42:51.000Z</time>
      </trkpt>
      <trkpt lat="49.55929" lon="-1.32913">
        <ele>72.743461</ele>
        <time>2022-07-31T11:42:52.000Z</time>
      </trkpt>
      <trkpt lat="49.55925" lon="-1.32919">
        <ele>72.599099</ele>
        <time>2022-07-31T11:42:53.000Z</time>
      </trkpt>
      <trkpt lat="49.55922" lon="-1.32926">
        <ele>72.458842</ele>
        <time>2022-07-31T11:42:54.000Z</time>
      </trkpt>
      <trkpt lat="49.55918" lon="-1.32932">
        <ele>72.316175</ele>
        <time>2022-07-31T11:42:55.000Z</time>
      </trkpt>
      <trkpt lat="49.55915" lon="-1.32939">
        <ele>72.180935</ele>
        <time>2022-07-31T11:42:56.000Z</time>
      </trkpt>
      <trkpt lat="49.55911" lon="-1.32945">
        <ele>72.047891</ele>
        <time>2022-07-31T11:42:57.000Z</time>
      </trkpt>
      <trkpt lat="49.55908" lon="-1.32952">
        <ele>71.90854</ele>
        <time>2022-07-31T11:42:58.000Z</time>
      </trkpt>
      <trkpt lat="49.55904" lon="-1.32958">
        <ele>71.773299</ele>
        <time>2022-07-31T11:42:59.000Z</time>
      </trkpt>
      <trkpt lat="49.55901" lon="-1.32964">
        <ele>71.646014</ele>
        <time>2022-07-31T11:43:00.000Z</time>
      </trkpt>
      <trkpt lat="49.55898" lon="-1.3297">
        <ele>71.509293</ele>
        <time>2022-07-31T11:43:01.000Z</time>
      </trkpt>
      <trkpt lat="49.55894" lon="-1.32976">
        <ele>71.37773</ele>
        <time>2022-07-31T11:43:02.000Z</time>
      </trkpt>
      <trkpt lat="49.55891" lon="-1.32982">
        <ele>71.244949</ele>
        <time>2022-07-31T11:43:03.000Z</time>
      </trkpt>
      <trkpt lat="49.55887" lon="-1.32989">
        <ele>71.1132</ele>
        <time>2022-07-31T11:43:04.000Z</time>
      </trkpt>
      <trkpt lat="49.55884" lon="-1.32995">
        <ele>70.978741</ele>
        <time>2022-07-31T11:43:05.000Z</time>
      </trkpt>
      <trkpt lat="49.5588" lon="-1.33001">
        <ele>70.84202</ele>
        <time>2022-07-31T11:43:06.000Z</time>
      </trkpt>
      <trkpt lat="49.55876" lon="-1.33007">
        <ele>70.702947</ele>
        <time>2022-07-31T11:43:07.000Z</time>
      </trkpt>
      <trkpt lat="49.55872" lon="-1.33014">
        <ele>70.556174</ele>
        <time>2022-07-31T11:43:08.000Z</time>
      </trkpt>
      <trkpt lat="49.55869" lon="-1.33021">
        <ele>70.409835</ele>
        <time>2022-07-31T11:43:09.000Z</time>
      </trkpt>
      <trkpt lat="49.55865" lon="-1.33028">
        <ele>70.259386</ele>
        <time>2022-07-31T11:43:10.000Z</time>
      </trkpt>
      <trkpt lat="49.55861" lon="-1.33035">
        <ele>70.119761</ele>
        <time>2022-07-31T11:43:11.000Z</time>
      </trkpt>
      <trkpt lat="49.55858" lon="-1.33042">
        <ele>69.967154</ele>
        <time>2022-07-31T11:43:12.000Z</time>
      </trkpt>
      <trkpt lat="49.55854" lon="-1.33049">
        <ele>69.81199</ele>
        <time>2022-07-31T11:43:13.000Z</time>
      </trkpt>
      <trkpt lat="49.5585" lon="-1.33057">
        <ele>69.648825</ele>
        <time>2022-07-31T11:43:14.000Z</time>
      </trkpt>
      <trkpt lat="49.55846" lon="-1.33065">
        <ele>69.491496</ele>
        <time>2022-07-31T11:43:15.000Z</time>
      </trkpt>
      <trkpt lat="49.55843" lon="-1.33073">
        <ele>69.333749</ele>
        <time>2022-07-31T11:43:16.000Z</time>
      </trkpt>
      <trkpt lat="49.55839" lon="-1.3308">
        <ele>69.184236</ele>
        <time>2022-07-31T11:43:17.000Z</time>
      </trkpt>
      <trkpt lat="49.55835" lon="-1.33087">
        <ele>69.039129</ele>
        <time>2022-07-31T11:43:18.000Z</time>
      </trkpt>
      <trkpt lat="49.55832" lon="-1.33093">
        <ele>68.913176</ele>
        <time>2022-07-31T11:43:19.000Z</time>
      </trkpt>
      <trkpt lat="49.55829" lon="-1.33099">
        <ele>68.781611</ele>
        <time>2022-07-31T11:43:20.000Z</time>
      </trkpt>
      <trkpt lat="49.55825" lon="-1.33106">
        <ele>68.642537</ele>
        <time>2022-07-31T11:43:21.000Z</time>
      </trkpt>
      <trkpt lat="49.55822" lon="-1.33112">
        <ele>68.51589</ele>
        <time>2022-07-31T11:43:22.000Z</time>
      </trkpt>
      <trkpt lat="49.55818" lon="-1.33117">
        <ele>68.385007</ele>
        <time>2022-07-31T11:43:23.000Z</time>
      </trkpt>
      <trkpt lat="49.55814" lon="-1.33123">
        <ele>68.248917</ele>
        <time>2022-07-31T11:43:24.000Z</time>
      </trkpt>
      <trkpt lat="49.55811" lon="-1.33129">
        <ele>68.11803</ele>
        <time>2022-07-31T11:43:25.000Z</time>
      </trkpt>
      <trkpt lat="49.55807" lon="-1.33135">
        <ele>67.983648</ele>
        <time>2022-07-31T11:43:26.000Z</time>
      </trkpt>
      <trkpt lat="49.55803" lon="-1.3314">
        <ele>67.849851</ele>
        <time>2022-07-31T11:43:27.000Z</time>
      </trkpt>
      <trkpt lat="49.55799" lon="-1.33145">
        <ele>67.724043</ele>
        <time>2022-07-31T11:43:28.000Z</time>
      </trkpt>
      <trkpt lat="49.55795" lon="-1.3315">
        <ele>67.601198</ele>
        <time>2022-07-31T11:43:29.000Z</time>
      </trkpt>
      <trkpt lat="49.55791" lon="-1.33155">
        <ele>67.481378</ele>
        <time>2022-07-31T11:43:30.000Z</time>
      </trkpt>
      <trkpt lat="49.55788" lon="-1.33159">
        <ele>67.375229</ele>
        <time>2022-07-31T11:43:31.000Z</time>
      </trkpt>
      <trkpt lat="49.55785" lon="-1.33163">
        <ele>67.262336</ele>
        <time>2022-07-31T11:43:32.000Z</time>
      </trkpt>
      <trkpt lat="49.55781" lon="-1.33167">
        <ele>67.158016</ele>
        <time>2022-07-31T11:43:33.000Z</time>
      </trkpt>
      <trkpt lat="49.55778" lon="-1.3317">
        <ele>67.053696</ele>
        <time>2022-07-31T11:43:34.000Z</time>
      </trkpt>
      <trkpt lat="49.55774" lon="-1.33173">
        <ele>66.951105</ele>
        <time>2022-07-31T11:43:35.000Z</time>
      </trkpt>
      <trkpt lat="49.5577" lon="-1.33177">
        <ele>66.82507</ele>
        <time>2022-07-31T11:43:36.000Z</time>
      </trkpt>
      <trkpt lat="49.55766" lon="-1.3318">
        <ele>66.715204</ele>
        <time>2022-07-31T11:43:37.000Z</time>
      </trkpt>
      <trkpt lat="49.55762" lon="-1.33184">
        <ele>66.608777</ele>
        <time>2022-07-31T11:43:38.000Z</time>
      </trkpt>
      <trkpt lat="49.55758" lon="-1.33187">
        <ele>66.497247</ele>
        <time>2022-07-31T11:43:39.000Z</time>
      </trkpt>
      <trkpt lat="49.55755" lon="-1.33191">
        <ele>66.382188</ele>
        <time>2022-07-31T11:43:40.000Z</time>
      </trkpt>
      <trkpt lat="49.5575" lon="-1.33196">
        <ele>66.257003</ele>
        <time>2022-07-31T11:43:41.000Z</time>
      </trkpt>
      <trkpt lat="49.55747" lon="-1.332">
        <ele>66.141943</ele>
        <time>2022-07-31T11:43:42.000Z</time>
      </trkpt>
      <trkpt lat="49.55742" lon="-1.33204">
        <ele>66.018494</ele>
        <time>2022-07-31T11:43:43.000Z</time>
      </trkpt>
      <trkpt lat="49.55738" lon="-1.33207">
        <ele>65.884299</ele>
        <time>2022-07-31T11:43:44.000Z</time>
      </trkpt>
      <trkpt lat="49.55733" lon="-1.33211">
        <ele>65.757525</ele>
        <time>2022-07-31T11:43:45.000Z</time>
      </trkpt>
      <trkpt lat="49.55729" lon="-1.33214">
        <ele>65.631489</ele>
        <time>2022-07-31T11:43:46.000Z</time>
      </trkpt>
      <trkpt lat="49.55724" lon="-1.33218">
        <ele>65.498713</ele>
        <time>2022-07-31T11:43:47.000Z</time>
      </trkpt>
      <trkpt lat="49.55719" lon="-1.33221">
        <ele>65.367944</ele>
        <time>2022-07-31T11:43:48.000Z</time>
      </trkpt>
      <trkpt lat="49.55715" lon="-1.33224">
        <ele>65.24629</ele>
        <time>2022-07-31T11:43:49.000Z</time>
      </trkpt>
      <trkpt lat="49.5571" lon="-1.33226">
        <ele>65.121524</ele>
        <time>2022-07-31T11:43:50.000Z</time>
      </trkpt>
      <trkpt lat="49.55706" lon="-1.33229">
        <ele>65.007734</ele>
        <time>2022-07-31T11:43:51.000Z</time>
      </trkpt>
      <trkpt lat="49.55702" lon="-1.33232">
        <ele>64.902417</ele>
        <time>2022-07-31T11:43:52.000Z</time>
      </trkpt>
      <trkpt lat="49.55698" lon="-1.33234">
        <ele>64.7968</ele>
        <time>2022-07-31T11:43:53.000Z</time>
      </trkpt>
      <trkpt lat="49.55695" lon="-1.33237">
        <ele>64.714495</ele>
        <time>2022-07-31T11:43:54.000Z</time>
      </trkpt>
      <trkpt lat="49.55693" lon="-1.33239">
        <ele>64.650629</ele>
        <time>2022-07-31T11:43:55.000Z</time>
      </trkpt>
      <trkpt lat="49.5569" lon="-1.33241">
        <ele>64.57936</ele>
        <time>2022-07-31T11:43:56.000Z</time>
      </trkpt>
      <trkpt lat="49.55688" lon="-1.33242">
        <ele>64.523595</ele>
        <time>2022-07-31T11:43:58.000Z</time>
      </trkpt>
      <trkpt lat="49.55684" lon="-1.33245">
        <ele>64.397413</ele>
        <time>2022-07-31T11:45:16.000Z</time>
      </trkpt>
      <trkpt lat="49.5568" lon="-1.33246">
        <ele>64.313291</ele>
        <time>2022-07-31T11:45:17.000Z</time>
      </trkpt>
      <trkpt lat="49.55677" lon="-1.33249">
        <ele>64.23247</ele>
        <time>2022-07-31T11:45:18.000Z</time>
      </trkpt>
      <trkpt lat="49.55674" lon="-1.33251">
        <ele>64.144856</ele>
        <time>2022-07-31T11:45:19.000Z</time>
      </trkpt>
      <trkpt lat="49.55671" lon="-1.33253">
        <ele>64.056568</ele>
        <time>2022-07-31T11:45:20.000Z</time>
      </trkpt>
      <trkpt lat="49.55667" lon="-1.33256">
        <ele>63.953255</ele>
        <time>2022-07-31T11:45:21.000Z</time>
      </trkpt>
      <trkpt lat="49.55663" lon="-1.33258">
        <ele>63.849498</ele>
        <time>2022-07-31T11:45:22.000Z</time>
      </trkpt>
      <trkpt lat="49.55659" lon="-1.3326">
        <ele>63.72453</ele>
        <time>2022-07-31T11:45:23.000Z</time>
      </trkpt>
      <trkpt lat="49.55656" lon="-1.33263">
        <ele>63.616466</ele>
        <time>2022-07-31T11:45:24.000Z</time>
      </trkpt>
      <trkpt lat="49.55652" lon="-1.33266">
        <ele>63.494479</ele>
        <time>2022-07-31T11:45:25.000Z</time>
      </trkpt>
      <trkpt lat="49.55648" lon="-1.3327">
        <ele>63.365074</ele>
        <time>2022-07-31T11:45:26.000Z</time>
      </trkpt>
      <trkpt lat="49.55644" lon="-1.33273">
        <ele>63.242235</ele>
        <time>2022-07-31T11:45:27.000Z</time>
      </trkpt>
      <trkpt lat="49.5564" lon="-1.33277">
        <ele>63.111058</ele>
        <time>2022-07-31T11:45:28.000Z</time>
      </trkpt>
      <trkpt lat="49.55636" lon="-1.3328">
        <ele>62.986455</ele>
        <time>2022-07-31T11:45:29.000Z</time>
      </trkpt>
      <trkpt lat="49.55632" lon="-1.33284">
        <ele>62.857051</ele>
        <time>2022-07-31T11:45:30.000Z</time>
      </trkpt>
      <trkpt lat="49.55628" lon="-1.33287">
        <ele>62.725224</ele>
        <time>2022-07-31T11:45:31.000Z</time>
      </trkpt>
      <trkpt lat="49.55623" lon="-1.33291">
        <ele>62.593133</ele>
        <time>2022-07-31T11:45:32.000Z</time>
      </trkpt>
      <trkpt lat="49.55619" lon="-1.33295">
        <ele>62.458667</ele>
        <time>2022-07-31T11:45:33.000Z</time>
      </trkpt>
      <trkpt lat="49.55615" lon="-1.33299">
        <ele>62.317848</ele>
        <time>2022-07-31T11:45:34.000Z</time>
      </trkpt>
      <trkpt lat="49.55611" lon="-1.33302">
        <ele>62.18667</ele>
        <time>2022-07-31T11:45:35.000Z</time>
      </trkpt>
      <trkpt lat="49.55606" lon="-1.33306">
        <ele>62.044999</ele>
        <time>2022-07-31T11:45:36.000Z</time>
      </trkpt>
      <trkpt lat="49.55602" lon="-1.3331">
        <ele>61.906769</ele>
        <time>2022-07-31T11:45:37.000Z</time>
      </trkpt>
      <trkpt lat="49.55598" lon="-1.33314">
        <ele>61.77183</ele>
        <time>2022-07-31T11:45:38.000Z</time>
      </trkpt>
      <trkpt lat="49.55594" lon="-1.33319">
        <ele>61.633599</ele>
        <time>2022-07-31T11:45:39.000Z</time>
      </trkpt>
      <trkpt lat="49.55589" lon="-1.33322">
        <ele>61.499134</ele>
        <time>2022-07-31T11:45:40.000Z</time>
      </trkpt>
      <trkpt lat="49.55585" lon="-1.33327">
        <ele>61.346738</ele>
        <time>2022-07-31T11:45:41.000Z</time>
      </trkpt>
      <trkpt lat="49.55581" lon="-1.33331">
        <ele>61.209816</ele>
        <time>2022-07-31T11:45:42.000Z</time>
      </trkpt>
      <trkpt lat="49.55576" lon="-1.33335">
        <ele>61.064567</ele>
        <time>2022-07-31T11:45:43.000Z</time>
      </trkpt>
      <trkpt lat="49.55572" lon="-1.33339">
        <ele>60.92114</ele>
        <time>2022-07-31T11:45:44.000Z</time>
      </trkpt>
      <trkpt lat="49.55567" lon="-1.33343">
        <ele>60.77215</ele>
        <time>2022-07-31T11:45:45.000Z</time>
      </trkpt>
      <trkpt lat="49.55562" lon="-1.33347">
        <ele>60.629609</ele>
        <time>2022-07-31T11:45:46.000Z</time>
      </trkpt>
      <trkpt lat="49.55557" lon="-1.3335">
        <ele>60.474731</ele>
        <time>2022-07-31T11:45:47.000Z</time>
      </trkpt>
      <trkpt lat="49.55552" lon="-1.33354">
        <ele>60.330334</ele>
        <time>2022-07-31T11:45:48.000Z</time>
      </trkpt>
      <trkpt lat="49.55547" lon="-1.33357">
        <ele>60.170596</ele>
        <time>2022-07-31T11:45:49.000Z</time>
      </trkpt>
      <trkpt lat="49.55541" lon="-1.3336">
        <ele>60.001099</ele>
        <time>2022-07-31T11:45:50.000Z</time>
      </trkpt>
      <trkpt lat="49.55536" lon="-1.33363">
        <ele>59.846957</ele>
        <time>2022-07-31T11:45:51.000Z</time>
      </trkpt>
      <trkpt lat="49.5553" lon="-1.33367">
        <ele>59.67224</ele>
        <time>2022-07-31T11:45:52.000Z</time>
      </trkpt>
      <trkpt lat="49.55525" lon="-1.33371">
        <ele>59.502159</ele>
        <time>2022-07-31T11:45:53.000Z</time>
      </trkpt>
      <trkpt lat="49.55518" lon="-1.33375">
        <ele>59.321161</ele>
        <time>2022-07-31T11:45:54.000Z</time>
      </trkpt>
      <trkpt lat="49.55512" lon="-1.33378">
        <ele>59.141444</ele>
        <time>2022-07-31T11:45:55.000Z</time>
      </trkpt>
      <trkpt lat="49.55506" lon="-1.33382">
        <ele>58.960446</ele>
        <time>2022-07-31T11:45:56.000Z</time>
      </trkpt>
      <trkpt lat="49.555" lon="-1.33386">
        <ele>58.785014</ele>
        <time>2022-07-31T11:45:57.000Z</time>
      </trkpt>
      <trkpt lat="49.55494" lon="-1.3339">
        <ele>58.610584</ele>
        <time>2022-07-31T11:45:58.000Z</time>
      </trkpt>
      <trkpt lat="49.55488" lon="-1.33394">
        <ele>58.427491</ele>
        <time>2022-07-31T11:45:59.000Z</time>
      </trkpt>
      <trkpt lat="49.55482" lon="-1.33398">
        <ele>58.251744</ele>
        <time>2022-07-31T11:46:00.000Z</time>
      </trkpt>
      <trkpt lat="49.55476" lon="-1.33402">
        <ele>58.075997</ele>
        <time>2022-07-31T11:46:01.000Z</time>
      </trkpt>
      <trkpt lat="49.55469" lon="-1.33406">
        <ele>57.900249</ele>
        <time>2022-07-31T11:46:02.000Z</time>
      </trkpt>
      <trkpt lat="49.55463" lon="-1.33409">
        <ele>57.728921</ele>
        <time>2022-07-31T11:46:03.000Z</time>
      </trkpt>
      <trkpt lat="49.55457" lon="-1.33413">
        <ele>57.553174</ele>
        <time>2022-07-31T11:46:04.000Z</time>
      </trkpt>
      <trkpt lat="49.55451" lon="-1.33417">
        <ele>57.377426</ele>
        <time>2022-07-31T11:46:05.000Z</time>
      </trkpt>
      <trkpt lat="49.55445" lon="-1.33421">
        <ele>57.200998</ele>
        <time>2022-07-31T11:46:06.000Z</time>
      </trkpt>
      <trkpt lat="49.55439" lon="-1.33426">
        <ele>57.031214</ele>
        <time>2022-07-31T11:46:07.000Z</time>
      </trkpt>
      <trkpt lat="49.55433" lon="-1.3343">
        <ele>56.852661</ele>
        <time>2022-07-31T11:46:08.000Z</time>
      </trkpt>
      <trkpt lat="49.55427" lon="-1.33435">
        <ele>56.67483</ele>
        <time>2022-07-31T11:46:09.000Z</time>
      </trkpt>
      <trkpt lat="49.55421" lon="-1.33439">
        <ele>56.504939</ele>
        <time>2022-07-31T11:46:10.000Z</time>
      </trkpt>
      <trkpt lat="49.55416" lon="-1.33443">
        <ele>56.338178</ele>
        <time>2022-07-31T11:46:11.000Z</time>
      </trkpt>
      <trkpt lat="49.5541" lon="-1.33447">
        <ele>56.16243</ele>
        <time>2022-07-31T11:46:12.000Z</time>
      </trkpt>
      <trkpt lat="49.55404" lon="-1.33451">
        <ele>55.985307</ele>
        <time>2022-07-31T11:46:13.000Z</time>
      </trkpt>
      <trkpt lat="49.55398" lon="-1.33455">
        <ele>55.819266</ele>
        <time>2022-07-31T11:46:14.000Z</time>
      </trkpt>
      <trkpt lat="49.55392" lon="-1.33459">
        <ele>55.643518</ele>
        <time>2022-07-31T11:46:15.000Z</time>
      </trkpt>
      <trkpt lat="49.55386" lon="-1.33463">
        <ele>55.475061</ele>
        <time>2022-07-31T11:46:16.000Z</time>
      </trkpt>
      <trkpt lat="49.5538" lon="-1.33467">
        <ele>55.300631</ele>
        <time>2022-07-31T11:46:17.000Z</time>
      </trkpt>
      <trkpt lat="49.55374" lon="-1.33471">
        <ele>55.13666</ele>
        <time>2022-07-31T11:46:18.000Z</time>
      </trkpt>
      <trkpt lat="49.55368" lon="-1.33475">
        <ele>54.959537</ele>
        <time>2022-07-31T11:46:19.000Z</time>
      </trkpt>
      <trkpt lat="49.55362" lon="-1.33479">
        <ele>54.791079</ele>
        <time>2022-07-31T11:46:20.000Z</time>
      </trkpt>
      <trkpt lat="49.55356" lon="-1.33483">
        <ele>54.60925</ele>
        <time>2022-07-31T11:46:21.000Z</time>
      </trkpt>
      <trkpt lat="49.5535" lon="-1.33486">
        <ele>54.437922</ele>
        <time>2022-07-31T11:46:22.000Z</time>
      </trkpt>
      <trkpt lat="49.55344" lon="-1.33491">
        <ele>54.26009</ele>
        <time>2022-07-31T11:46:23.000Z</time>
      </trkpt>
      <trkpt lat="49.55338" lon="-1.33496">
        <ele>54.11677</ele>
        <time>2022-07-31T11:46:24.000Z</time>
      </trkpt>
      <trkpt lat="49.55332" lon="-1.33503">
        <ele>54.053516</ele>
        <time>2022-07-31T11:46:25.000Z</time>
      </trkpt>
      <trkpt lat="49.55328" lon="-1.33512">
        <ele>53.990197</ele>
        <time>2022-07-31T11:46:26.000Z</time>
      </trkpt>
      <trkpt lat="49.55326" lon="-1.33522">
        <ele>53.926953</ele>
        <time>2022-07-31T11:46:27.000Z</time>
      </trkpt>
      <trkpt lat="49.55325" lon="-1.33532">
        <ele>53.865417</ele>
        <time>2022-07-31T11:46:28.000Z</time>
      </trkpt>
      <trkpt lat="49.55326" lon="-1.33543">
        <ele>53.80541</ele>
        <time>2022-07-31T11:46:29.000Z</time>
      </trkpt>
      <trkpt lat="49.55328" lon="-1.33551">
        <ele>53.750236</ele>
        <time>2022-07-31T11:46:30.000Z</time>
      </trkpt>
      <trkpt lat="49.55331" lon="-1.3356">
        <ele>53.695786</ele>
        <time>2022-07-31T11:46:31.000Z</time>
      </trkpt>
      <trkpt lat="49.55333" lon="-1.33568">
        <ele>53.643308</ele>
        <time>2022-07-31T11:46:32.000Z</time>
      </trkpt>
      <trkpt lat="49.55336" lon="-1.33576">
        <ele>53.592649</ele>
        <time>2022-07-31T11:46:33.000Z</time>
      </trkpt>
      <trkpt lat="49.55338" lon="-1.33583">
        <ele>53.544494</ele>
        <time>2022-07-31T11:46:34.000Z</time>
      </trkpt>
      <trkpt lat="49.5534" lon="-1.33591">
        <ele>53.495961</ele>
        <time>2022-07-31T11:46:35.000Z</time>
      </trkpt>
      <trkpt lat="49.55342" lon="-1.33598">
        <ele>53.449944</ele>
        <time>2022-07-31T11:46:36.000Z</time>
      </trkpt>
      <trkpt lat="49.55344" lon="-1.33605">
        <ele>53.404439</ele>
        <time>2022-07-31T11:46:37.000Z</time>
      </trkpt>
      <trkpt lat="49.55347" lon="-1.33612">
        <ele>53.360092</ele>
        <time>2022-07-31T11:46:38.000Z</time>
      </trkpt>
      <trkpt lat="49.55349" lon="-1.33618">
        <ele>53.318382</ele>
        <time>2022-07-31T11:46:39.000Z</time>
      </trkpt>
      <trkpt lat="49.55351" lon="-1.33625">
        <ele>53.27549</ele>
        <time>2022-07-31T11:46:40.000Z</time>
      </trkpt>
      <trkpt lat="49.55353" lon="-1.33631">
        <ele>53.233247</ele>
        <time>2022-07-31T11:46:41.000Z</time>
      </trkpt>
      <trkpt lat="49.55355" lon="-1.33638">
        <ele>53.191687</ele>
        <time>2022-07-31T11:46:42.000Z</time>
      </trkpt>
      <trkpt lat="49.55357" lon="-1.33644">
        <ele>53.149977</ele>
        <time>2022-07-31T11:46:43.000Z</time>
      </trkpt>
      <trkpt lat="49.55358" lon="-1.33651">
        <ele>53.109332</ele>
        <time>2022-07-31T11:46:44.000Z</time>
      </trkpt>
      <trkpt lat="49.5536" lon="-1.33657">
        <ele>53.068687</ele>
        <time>2022-07-31T11:46:45.000Z</time>
      </trkpt>
      <trkpt lat="49.55362" lon="-1.33663">
        <ele>53.026977</ele>
        <time>2022-07-31T11:46:46.000Z</time>
      </trkpt>
      <trkpt lat="49.55364" lon="-1.3367">
        <ele>52.982764</ele>
        <time>2022-07-31T11:46:47.000Z</time>
      </trkpt>
      <trkpt lat="49.55366" lon="-1.33677">
        <ele>52.941054</ele>
        <time>2022-07-31T11:46:48.000Z</time>
      </trkpt>
      <trkpt lat="49.55368" lon="-1.33684">
        <ele>52.898736</ele>
        <time>2022-07-31T11:46:49.000Z</time>
      </trkpt>
      <trkpt lat="49.55369" lon="-1.3369">
        <ele>52.856418</ele>
        <time>2022-07-31T11:46:50.000Z</time>
      </trkpt>
      <trkpt lat="49.5537" lon="-1.33697">
        <ele>52.815243</ele>
        <time>2022-07-31T11:46:51.000Z</time>
      </trkpt>
      <trkpt lat="49.55372" lon="-1.33704">
        <ele>52.773769</ele>
        <time>2022-07-31T11:46:52.000Z</time>
      </trkpt>
      <trkpt lat="49.55372" lon="-1.33711">
        <ele>52.733894</ele>
        <time>2022-07-31T11:46:53.000Z</time>
      </trkpt>
      <trkpt lat="49.55372" lon="-1.33718">
        <ele>52.692783</ele>
        <time>2022-07-31T11:46:54.000Z</time>
      </trkpt>
      <trkpt lat="49.55372" lon="-1.33725">
        <ele>52.65342</ele>
        <time>2022-07-31T11:46:55.000Z</time>
      </trkpt>
      <trkpt lat="49.5537" lon="-1.33731">
        <ele>52.614384</ele>
        <time>2022-07-31T11:46:56.000Z</time>
      </trkpt>
      <trkpt lat="49.55368" lon="-1.33736">
        <ele>52.576083</ele>
        <time>2022-07-31T11:46:57.000Z</time>
      </trkpt>
      <trkpt lat="49.55365" lon="-1.33741">
        <ele>52.538594</ele>
        <time>2022-07-31T11:46:58.000Z</time>
      </trkpt>
      <trkpt lat="49.55362" lon="-1.33746">
        <ele>52.502056</ele>
        <time>2022-07-31T11:46:59.000Z</time>
      </trkpt>
      <trkpt lat="49.55359" lon="-1.33749">
        <ele>52.469084</ele>
        <time>2022-07-31T11:47:00.000Z</time>
      </trkpt>
      <trkpt lat="49.55356" lon="-1.33753">
        <ele>52.434695</ele>
        <time>2022-07-31T11:47:01.000Z</time>
      </trkpt>
      <trkpt lat="49.55352" lon="-1.33756">
        <ele>52.399257</ele>
        <time>2022-07-31T11:47:02.000Z</time>
      </trkpt>
      <trkpt lat="49.55348" lon="-1.33759">
        <ele>52.362841</ele>
        <time>2022-07-31T11:47:03.000Z</time>
      </trkpt>
      <trkpt lat="49.55344" lon="-1.33762">
        <ele>52.324961</ele>
        <time>2022-07-31T11:47:04.000Z</time>
      </trkpt>
      <trkpt lat="49.55339" lon="-1.33765">
        <ele>52.284548</ele>
        <time>2022-07-31T11:47:05.000Z</time>
      </trkpt>
      <trkpt lat="49.55335" lon="-1.33768">
        <ele>52.243921</ele>
        <time>2022-07-31T11:47:06.000Z</time>
      </trkpt>
      <trkpt lat="49.5533" lon="-1.33772">
        <ele>52.200379</ele>
        <time>2022-07-31T11:47:07.000Z</time>
      </trkpt>
      <trkpt lat="49.55325" lon="-1.33775">
        <ele>52.155384</ele>
        <time>2022-07-31T11:47:08.000Z</time>
      </trkpt>
      <trkpt lat="49.5532" lon="-1.33778">
        <ele>52.112488</ele>
        <time>2022-07-31T11:47:09.000Z</time>
      </trkpt>
      <trkpt lat="49.55315" lon="-1.33781">
        <ele>52.067681</ele>
        <time>2022-07-31T11:47:10.000Z</time>
      </trkpt>
      <trkpt lat="49.5531" lon="-1.33784">
        <ele>52.027269</ele>
        <time>2022-07-31T11:47:11.000Z</time>
      </trkpt>
      <trkpt lat="49.55306" lon="-1.33787">
        <ele>51.983947</ele>
        <time>2022-07-31T11:47:12.000Z</time>
      </trkpt>
      <trkpt lat="49.55301" lon="-1.3379">
        <ele>51.940841</ele>
        <time>2022-07-31T11:47:13.000Z</time>
      </trkpt>
      <trkpt lat="49.55296" lon="-1.33793">
        <ele>51.900428</ele>
        <time>2022-07-31T11:47:14.000Z</time>
      </trkpt>
      <trkpt lat="49.55292" lon="-1.33797">
        <ele>51.859353</ele>
        <time>2022-07-31T11:47:15.000Z</time>
      </trkpt>
      <trkpt lat="49.55287" lon="-1.338">
        <ele>51.815585</ele>
        <time>2022-07-31T11:47:16.000Z</time>
      </trkpt>
      <trkpt lat="49.55283" lon="-1.33804">
        <ele>51.77559</ele>
        <time>2022-07-31T11:47:17.000Z</time>
      </trkpt>
      <trkpt lat="49.55279" lon="-1.33808">
        <ele>51.73403</ele>
        <time>2022-07-31T11:47:18.000Z</time>
      </trkpt>
      <trkpt lat="49.55275" lon="-1.33813">
        <ele>51.696463</ele>
        <time>2022-07-31T11:47:19.000Z</time>
      </trkpt>
      <trkpt lat="49.55272" lon="-1.33818">
        <ele>51.659284</ele>
        <time>2022-07-31T11:47:20.000Z</time>
      </trkpt>
      <trkpt lat="49.55269" lon="-1.33823">
        <ele>51.621726</ele>
        <time>2022-07-31T11:47:21.000Z</time>
      </trkpt>
      <trkpt lat="49.55266" lon="-1.33828">
        <ele>51.586652</ele>
        <time>2022-07-31T11:47:22.000Z</time>
      </trkpt>
      <trkpt lat="49.55263" lon="-1.33832">
        <ele>51.550948</ele>
        <time>2022-07-31T11:47:23.000Z</time>
      </trkpt>
      <trkpt lat="49.55259" lon="-1.33836">
        <ele>51.513019</ele>
        <time>2022-07-31T11:47:24.000Z</time>
      </trkpt>
      <trkpt lat="49.55255" lon="-1.3384">
        <ele>51.471753</ele>
        <time>2022-07-31T11:47:25.000Z</time>
      </trkpt>
      <trkpt lat="49.55251" lon="-1.33845">
        <ele>51.430266</ele>
        <time>2022-07-31T11:47:26.000Z</time>
      </trkpt>
      <trkpt lat="49.55246" lon="-1.33849">
        <ele>51.386626</ele>
        <time>2022-07-31T11:47:27.000Z</time>
      </trkpt>
      <trkpt lat="49.55241" lon="-1.33853">
        <ele>51.336498</ele>
        <time>2022-07-31T11:47:28.000Z</time>
      </trkpt>
      <trkpt lat="49.55235" lon="-1.33857">
        <ele>51.28419</ele>
        <time>2022-07-31T11:47:29.000Z</time>
      </trkpt>
      <trkpt lat="49.55229" lon="-1.33862">
        <ele>51.227492</ele>
        <time>2022-07-31T11:47:30.000Z</time>
      </trkpt>
      <trkpt lat="49.55222" lon="-1.33868">
        <ele>51.166833</ele>
        <time>2022-07-31T11:47:31.000Z</time>
      </trkpt>
      <trkpt lat="49.55216" lon="-1.33874">
        <ele>51.101862</ele>
        <time>2022-07-31T11:47:32.000Z</time>
      </trkpt>
      <trkpt lat="49.5521" lon="-1.33882">
        <ele>51.038207</ele>
        <time>2022-07-31T11:47:33.000Z</time>
      </trkpt>
      <trkpt lat="49.55204" lon="-1.3389">
        <ele>50.828633</ele>
        <time>2022-07-31T11:47:34.000Z</time>
      </trkpt>
      <trkpt lat="49.55199" lon="-1.33899">
        <ele>50.60895</ele>
        <time>2022-07-31T11:47:35.000Z</time>
      </trkpt>
      <trkpt lat="49.55196" lon="-1.33909">
        <ele>50.399156</ele>
        <time>2022-07-31T11:47:36.000Z</time>
      </trkpt>
      <trkpt lat="49.55194" lon="-1.33919">
        <ele>50.208762</ele>
        <time>2022-07-31T11:47:37.000Z</time>
      </trkpt>
      <trkpt lat="49.55192" lon="-1.33929">
        <ele>50.023226</ele>
        <time>2022-07-31T11:47:38.000Z</time>
      </trkpt>
      <trkpt lat="49.55189" lon="-1.33938">
        <ele>49.834147</ele>
        <time>2022-07-31T11:47:39.000Z</time>
      </trkpt>
      <trkpt lat="49.55187" lon="-1.33947">
        <ele>49.653169</ele>
        <time>2022-07-31T11:47:40.000Z</time>
      </trkpt>
      <trkpt lat="49.55183" lon="-1.33955">
        <ele>49.470175</ele>
        <time>2022-07-31T11:47:41.000Z</time>
      </trkpt>
      <trkpt lat="49.55179" lon="-1.33963">
        <ele>49.279934</ele>
        <time>2022-07-31T11:47:42.000Z</time>
      </trkpt>
      <trkpt lat="49.55175" lon="-1.33971">
        <ele>49.091127</ele>
        <time>2022-07-31T11:47:43.000Z</time>
      </trkpt>
      <trkpt lat="49.5517" lon="-1.33979">
        <ele>48.892815</ele>
        <time>2022-07-31T11:47:44.000Z</time>
      </trkpt>
      <trkpt lat="49.55165" lon="-1.33986">
        <ele>48.700679</ele>
        <time>2022-07-31T11:47:45.000Z</time>
      </trkpt>
      <trkpt lat="49.5516" lon="-1.33993">
        <ele>48.494797</ele>
        <time>2022-07-31T11:47:46.000Z</time>
      </trkpt>
      <trkpt lat="49.55155" lon="-1.34">
        <ele>48.300217</ele>
        <time>2022-07-31T11:47:47.000Z</time>
      </trkpt>
      <trkpt lat="49.55149" lon="-1.34008">
        <ele>48.086857</ele>
        <time>2022-07-31T11:47:48.000Z</time>
      </trkpt>
      <trkpt lat="49.55143" lon="-1.34015">
        <ele>47.873497</ele>
        <time>2022-07-31T11:47:49.000Z</time>
      </trkpt>
      <trkpt lat="49.55137" lon="-1.34022">
        <ele>47.661151</ele>
        <time>2022-07-31T11:47:50.000Z</time>
      </trkpt>
      <trkpt lat="49.55131" lon="-1.34029">
        <ele>47.443351</ele>
        <time>2022-07-31T11:47:51.000Z</time>
      </trkpt>
      <trkpt lat="49.55125" lon="-1.34037">
        <ele>47.224432</ele>
        <time>2022-07-31T11:47:52.000Z</time>
      </trkpt>
      <trkpt lat="49.55119" lon="-1.34044">
        <ele>46.997572</ele>
        <time>2022-07-31T11:47:53.000Z</time>
      </trkpt>
      <trkpt lat="49.55112" lon="-1.34052">
        <ele>46.766236</ele>
        <time>2022-07-31T11:47:54.000Z</time>
      </trkpt>
      <trkpt lat="49.55106" lon="-1.34059">
        <ele>46.537157</ele>
        <time>2022-07-31T11:47:55.000Z</time>
      </trkpt>
      <trkpt lat="49.55099" lon="-1.34066">
        <ele>46.296339</ele>
        <time>2022-07-31T11:47:56.000Z</time>
      </trkpt>
      <trkpt lat="49.55092" lon="-1.34073">
        <ele>46.0518</ele>
        <time>2022-07-31T11:47:57.000Z</time>
      </trkpt>
      <trkpt lat="49.55084" lon="-1.34079">
        <ele>45.694966</ele>
        <time>2022-07-31T11:47:58.000Z</time>
      </trkpt>
      <trkpt lat="49.55076" lon="-1.34084">
        <ele>45.223303</ele>
        <time>2022-07-31T11:47:59.000Z</time>
      </trkpt>
      <trkpt lat="49.55067" lon="-1.34087">
        <ele>44.755219</ele>
        <time>2022-07-31T11:48:00.000Z</time>
      </trkpt>
      <trkpt lat="49.55059" lon="-1.34089">
        <ele>44.27495</ele>
        <time>2022-07-31T11:48:01.000Z</time>
      </trkpt>
      <trkpt lat="49.55051" lon="-1.3409">
        <ele>43.830523</ele>
        <time>2022-07-31T11:48:02.000Z</time>
      </trkpt>
      <trkpt lat="49.55043" lon="-1.34092">
        <ele>43.402943</ele>
        <time>2022-07-31T11:48:03.000Z</time>
      </trkpt>
      <trkpt lat="49.55036" lon="-1.34093">
        <ele>42.993701</ele>
        <time>2022-07-31T11:48:04.000Z</time>
      </trkpt>
      <trkpt lat="49.55028" lon="-1.34094">
        <ele>42.551521</ele>
        <time>2022-07-31T11:48:05.000Z</time>
      </trkpt>
      <trkpt lat="49.5502" lon="-1.34094">
        <ele>42.126939</ele>
        <time>2022-07-31T11:48:06.000Z</time>
      </trkpt>
      <trkpt lat="49.55012" lon="-1.34095">
        <ele>41.685974</ele>
        <time>2022-07-31T11:48:07.000Z</time>
      </trkpt>
      <trkpt lat="49.55004" lon="-1.34095">
        <ele>41.266897</ele>
        <time>2022-07-31T11:48:08.000Z</time>
      </trkpt>
      <trkpt lat="49.54996" lon="-1.34096">
        <ele>40.826033</ele>
        <time>2022-07-31T11:48:09.000Z</time>
      </trkpt>
      <trkpt lat="49.54988" lon="-1.34096">
        <ele>40.362381</ele>
        <time>2022-07-31T11:48:10.000Z</time>
      </trkpt>
      <trkpt lat="49.54979" lon="-1.34098">
        <ele>39.886656</ele>
        <time>2022-07-31T11:48:11.000Z</time>
      </trkpt>
      <trkpt lat="49.54971" lon="-1.34099">
        <ele>39.408519</ele>
        <time>2022-07-31T11:48:12.000Z</time>
      </trkpt>
      <trkpt lat="49.54962" lon="-1.34103">
        <ele>38.930059</ele>
        <time>2022-07-31T11:48:13.000Z</time>
      </trkpt>
      <trkpt lat="49.54955" lon="-1.34108">
        <ele>38.473402</ele>
        <time>2022-07-31T11:48:14.000Z</time>
      </trkpt>
      <trkpt lat="49.54948" lon="-1.34115">
        <ele>38.014764</ele>
        <time>2022-07-31T11:48:15.000Z</time>
      </trkpt>
      <trkpt lat="49.54941" lon="-1.34123">
        <ele>37.553973</ele>
        <time>2022-07-31T11:48:16.000Z</time>
      </trkpt>
      <trkpt lat="49.54935" lon="-1.34132">
        <ele>37.099283</ele>
        <time>2022-07-31T11:48:17.000Z</time>
      </trkpt>
      <trkpt lat="49.5493" lon="-1.34142">
        <ele>36.619849</ele>
        <time>2022-07-31T11:48:18.000Z</time>
      </trkpt>
      <trkpt lat="49.54925" lon="-1.34152">
        <ele>36.165207</ele>
        <time>2022-07-31T11:48:19.000Z</time>
      </trkpt>
      <trkpt lat="49.54919" lon="-1.34162">
        <ele>35.890178</ele>
        <time>2022-07-31T11:48:20.000Z</time>
      </trkpt>
      <trkpt lat="49.54914" lon="-1.34172">
        <ele>35.733964</ele>
        <time>2022-07-31T11:48:21.000Z</time>
      </trkpt>
      <trkpt lat="49.54909" lon="-1.34182">
        <ele>35.583162</ele>
        <time>2022-07-31T11:48:22.000Z</time>
      </trkpt>
      <trkpt lat="49.54904" lon="-1.34192">
        <ele>35.430658</ele>
        <time>2022-07-31T11:48:23.000Z</time>
      </trkpt>
      <trkpt lat="49.549" lon="-1.34202">
        <ele>35.284208</ele>
        <time>2022-07-31T11:48:24.000Z</time>
      </trkpt>
      <trkpt lat="49.54897" lon="-1.34211">
        <ele>35.167132</ele>
        <time>2022-07-31T11:48:25.000Z</time>
      </trkpt>
      <trkpt lat="49.54895" lon="-1.34218">
        <ele>35.070171</ele>
        <time>2022-07-31T11:48:26.000Z</time>
      </trkpt>
      <trkpt lat="49.54894" lon="-1.34224">
        <ele>34.990517</ele>
        <time>2022-07-31T11:48:27.000Z</time>
      </trkpt>
      <trkpt lat="49.54894" lon="-1.3423">
        <ele>34.925652</ele>
        <time>2022-07-31T11:48:28.000Z</time>
      </trkpt>
      <trkpt lat="49.54894" lon="-1.34234">
        <ele>34.866701</ele>
        <time>2022-07-31T11:48:29.000Z</time>
      </trkpt>
      <trkpt lat="49.54894" lon="-1.34239">
        <ele>34.808979</ele>
        <time>2022-07-31T11:48:30.000Z</time>
      </trkpt>
      <trkpt lat="49.54894" lon="-1.34244">
        <ele>34.752558</ele>
        <time>2022-07-31T11:48:31.000Z</time>
      </trkpt>
      <trkpt lat="49.54895" lon="-1.34248">
        <ele>34.693335</ele>
        <time>2022-07-31T11:48:32.000Z</time>
      </trkpt>
      <trkpt lat="49.54895" lon="-1.34253">
        <ele>34.631715</ele>
        <time>2022-07-31T11:48:33.000Z</time>
      </trkpt>
      <trkpt lat="49.54896" lon="-1.34259">
        <ele>34.564432</ele>
        <time>2022-07-31T11:48:34.000Z</time>
      </trkpt>
      <trkpt lat="49.54897" lon="-1.34264">
        <ele>34.498006</ele>
        <time>2022-07-31T11:48:35.000Z</time>
      </trkpt>
      <trkpt lat="49.54898" lon="-1.34269">
        <ele>34.430721</ele>
        <time>2022-07-31T11:48:36.000Z</time>
      </trkpt>
      <trkpt lat="49.54899" lon="-1.34275">
        <ele>34.361134</ele>
        <time>2022-07-31T11:48:37.000Z</time>
      </trkpt>
      <trkpt lat="49.549" lon="-1.3428">
        <ele>34.293851</ele>
        <time>2022-07-31T11:48:38.000Z</time>
      </trkpt>
      <trkpt lat="49.54901" lon="-1.34285">
        <ele>34.225411</ele>
        <time>2022-07-31T11:48:39.000Z</time>
      </trkpt>
      <trkpt lat="49.54903" lon="-1.3429">
        <ele>34.159135</ele>
        <time>2022-07-31T11:48:40.000Z</time>
      </trkpt>
      <trkpt lat="49.54904" lon="-1.34295">
        <ele>34.091765</ele>
        <time>2022-07-31T11:48:41.000Z</time>
      </trkpt>
      <trkpt lat="49.54906" lon="-1.343">
        <ele>34.027885</ele>
        <time>2022-07-31T11:48:42.000Z</time>
      </trkpt>
      <trkpt lat="49.54907" lon="-1.34304">
        <ele>33.967388</ele>
        <time>2022-07-31T11:48:43.000Z</time>
      </trkpt>
      <trkpt lat="49.54909" lon="-1.34309">
        <ele>33.904368</ele>
        <time>2022-07-31T11:48:44.000Z</time>
      </trkpt>
      <trkpt lat="49.5491" lon="-1.34313">
        <ele>33.843871</ele>
        <time>2022-07-31T11:48:45.000Z</time>
      </trkpt>
      <trkpt lat="49.54911" lon="-1.34317">
        <ele>33.782993</ele>
        <time>2022-07-31T11:48:46.000Z</time>
      </trkpt>
      <trkpt lat="49.54913" lon="-1.34321">
        <ele>33.725282</ele>
        <time>2022-07-31T11:48:47.000Z</time>
      </trkpt>
      <trkpt lat="49.54914" lon="-1.34325">
        <ele>33.671159</ele>
        <time>2022-07-31T11:48:48.000Z</time>
      </trkpt>
      <trkpt lat="49.54915" lon="-1.34329">
        <ele>33.618513</ele>
        <time>2022-07-31T11:48:49.000Z</time>
      </trkpt>
      <trkpt lat="49.54917" lon="-1.34333">
        <ele>33.570045</ele>
        <time>2022-07-31T11:48:50.000Z</time>
      </trkpt>
      <trkpt lat="49.54918" lon="-1.34335">
        <ele>33.52195</ele>
        <time>2022-07-31T11:48:51.000Z</time>
      </trkpt>
      <trkpt lat="49.54919" lon="-1.3434">
        <ele>33.463533</ele>
        <time>2022-07-31T11:48:53.000Z</time>
      </trkpt>
      <trkpt lat="49.54918" lon="-1.34343">
        <ele>33.413916</ele>
        <time>2022-07-31T11:48:55.000Z</time>
      </trkpt>
      <trkpt lat="49.54915" lon="-1.34347">
        <ele>33.341865</ele>
        <time>2022-07-31T11:48:57.000Z</time>
      </trkpt>
      <trkpt lat="49.54913" lon="-1.3435">
        <ele>33.291248</ele>
        <time>2022-07-31T11:48:58.000Z</time>
      </trkpt>
      <trkpt lat="49.54912" lon="-1.34354">
        <ele>33.238489</ele>
        <time>2022-07-31T11:48:59.000Z</time>
      </trkpt>
      <trkpt lat="49.5491" lon="-1.34358">
        <ele>33.181338</ele>
        <time>2022-07-31T11:49:00.000Z</time>
      </trkpt>
      <trkpt lat="49.54909" lon="-1.34362">
        <ele>33.120842</ele>
        <time>2022-07-31T11:49:01.000Z</time>
      </trkpt>
      <trkpt lat="49.54907" lon="-1.34367">
        <ele>33.056948</ele>
        <time>2022-07-31T11:49:02.000Z</time>
      </trkpt>
      <trkpt lat="49.54906" lon="-1.34371">
        <ele>32.993928</ele>
        <time>2022-07-31T11:49:03.000Z</time>
      </trkpt>
      <trkpt lat="49.54904" lon="-1.34376">
        <ele>32.930047</ele>
        <time>2022-07-31T11:49:04.000Z</time>
      </trkpt>
      <trkpt lat="49.54903" lon="-1.34381">
        <ele>32.863894</ele>
        <time>2022-07-31T11:49:05.000Z</time>
      </trkpt>
      <trkpt lat="49.54902" lon="-1.34386">
        <ele>32.79842</ele>
        <time>2022-07-31T11:49:06.000Z</time>
      </trkpt>
      <trkpt lat="49.54901" lon="-1.34391">
        <ele>32.731811</ele>
        <time>2022-07-31T11:49:07.000Z</time>
      </trkpt>
      <trkpt lat="49.549" lon="-1.34396">
        <ele>32.665202</ele>
        <time>2022-07-31T11:49:08.000Z</time>
      </trkpt>
      <trkpt lat="49.549" lon="-1.34401">
        <ele>32.603534</ele>
        <time>2022-07-31T11:49:09.000Z</time>
      </trkpt>
      <trkpt lat="49.54899" lon="-1.34407">
        <ele>32.605371</ele>
        <time>2022-07-31T11:49:10.000Z</time>
      </trkpt>
      <trkpt lat="49.54899" lon="-1.34412">
        <ele>32.616939</ele>
        <time>2022-07-31T11:49:11.000Z</time>
      </trkpt>
      <trkpt lat="49.54899" lon="-1.34417">
        <ele>32.62781</ele>
        <time>2022-07-31T11:49:12.000Z</time>
      </trkpt>
      <trkpt lat="49.54899" lon="-1.34422">
        <ele>32.638681</ele>
        <time>2022-07-31T11:49:13.000Z</time>
      </trkpt>
      <trkpt lat="49.54899" lon="-1.34427">
        <ele>32.650032</ele>
        <time>2022-07-31T11:49:14.000Z</time>
      </trkpt>
      <trkpt lat="49.54898" lon="-1.34432">
        <ele>32.661579</ele>
        <time>2022-07-31T11:49:15.000Z</time>
      </trkpt>
      <trkpt lat="49.54897" lon="-1.34437">
        <ele>32.672208</ele>
        <time>2022-07-31T11:49:16.000Z</time>
      </trkpt>
      <trkpt lat="49.54897" lon="-1.34442">
        <ele>32.682904</ele>
        <time>2022-07-31T11:49:17.000Z</time>
      </trkpt>
      <trkpt lat="49.54895" lon="-1.34447">
        <ele>32.694445</ele>
        <time>2022-07-31T11:49:18.000Z</time>
      </trkpt>
      <trkpt lat="49.54893" lon="-1.34451">
        <ele>32.705602</ele>
        <time>2022-07-31T11:49:19.000Z</time>
      </trkpt>
      <trkpt lat="49.54892" lon="-1.34455">
        <ele>32.716734</ele>
        <time>2022-07-31T11:49:20.000Z</time>
      </trkpt>
      <trkpt lat="49.54889" lon="-1.34459">
        <ele>32.727808</ele>
        <time>2022-07-31T11:49:21.000Z</time>
      </trkpt>
      <trkpt lat="49.54887" lon="-1.34462">
        <ele>32.739095</ele>
        <time>2022-07-31T11:49:22.000Z</time>
      </trkpt>
      <trkpt lat="49.54884" lon="-1.34465">
        <ele>32.751647</ele>
        <time>2022-07-31T11:49:23.000Z</time>
      </trkpt>
      <trkpt lat="49.54881" lon="-1.34468">
        <ele>32.763232</ele>
        <time>2022-07-31T11:49:24.000Z</time>
      </trkpt>
      <trkpt lat="49.54877" lon="-1.3447">
        <ele>32.774887</ele>
        <time>2022-07-31T11:49:25.000Z</time>
      </trkpt>
      <trkpt lat="49.54874" lon="-1.34472">
        <ele>32.787396</ele>
        <time>2022-07-31T11:49:26.000Z</time>
      </trkpt>
      <trkpt lat="49.54871" lon="-1.34474">
        <ele>32.798605</ele>
        <time>2022-07-31T11:49:27.000Z</time>
      </trkpt>
      <trkpt lat="49.54868" lon="-1.34475">
        <ele>32.809753</ele>
        <time>2022-07-31T11:49:28.000Z</time>
      </trkpt>
      <trkpt lat="49.54864" lon="-1.34477">
        <ele>32.821818</ele>
        <time>2022-07-31T11:49:29.000Z</time>
      </trkpt>
      <trkpt lat="49.54861" lon="-1.34478">
        <ele>32.832908</ele>
        <time>2022-07-31T11:49:30.000Z</time>
      </trkpt>
      <trkpt lat="49.54857" lon="-1.34479">
        <ele>32.844924</ele>
        <time>2022-07-31T11:49:31.000Z</time>
      </trkpt>
      <trkpt lat="49.54853" lon="-1.3448">
        <ele>32.858252</ele>
        <time>2022-07-31T11:49:32.000Z</time>
      </trkpt>
      <trkpt lat="49.5485" lon="-1.34481">
        <ele>32.870222</ele>
        <time>2022-07-31T11:49:33.000Z</time>
      </trkpt>
      <trkpt lat="49.54847" lon="-1.34483">
        <ele>32.881431</ele>
        <time>2022-07-31T11:49:34.000Z</time>
      </trkpt>
      <trkpt lat="49.54843" lon="-1.34484">
        <ele>32.893549</ele>
        <time>2022-07-31T11:49:35.000Z</time>
      </trkpt>
      <trkpt lat="49.54839" lon="-1.34485">
        <ele>32.906468</ele>
        <time>2022-07-31T11:49:36.000Z</time>
      </trkpt>
      <trkpt lat="49.54836" lon="-1.34486">
        <ele>32.919717</ele>
        <time>2022-07-31T11:49:37.000Z</time>
      </trkpt>
      <trkpt lat="49.54831" lon="-1.34487">
        <ele>32.933567</ele>
        <time>2022-07-31T11:49:38.000Z</time>
      </trkpt>
      <trkpt lat="49.54828" lon="-1.34488">
        <ele>32.946752</ele>
        <time>2022-07-31T11:49:39.000Z</time>
      </trkpt>
      <trkpt lat="49.54823" lon="-1.34489">
        <ele>32.96063</ele>
        <time>2022-07-31T11:49:40.000Z</time>
      </trkpt>
      <trkpt lat="49.5482" lon="-1.34489">
        <ele>32.973745</ele>
        <time>2022-07-31T11:49:41.000Z</time>
      </trkpt>
      <trkpt lat="49.54816" lon="-1.3449">
        <ele>32.986526</ele>
        <time>2022-07-31T11:49:42.000Z</time>
      </trkpt>
      <trkpt lat="49.54812" lon="-1.3449">
        <ele>32.999598</ele>
        <time>2022-07-31T11:49:43.000Z</time>
      </trkpt>
      <trkpt lat="49.54808" lon="-1.3449">
        <ele>33.012379</ele>
        <time>2022-07-31T11:49:44.000Z</time>
      </trkpt>
      <trkpt lat="49.54805" lon="-1.34491">
        <ele>33.024206</ele>
        <time>2022-07-31T11:49:45.000Z</time>
      </trkpt>
      <trkpt lat="49.54801" lon="-1.34492">
        <ele>33.03507</ele>
        <time>2022-07-31T11:49:46.000Z</time>
      </trkpt>
      <trkpt lat="49.54798" lon="-1.34493">
        <ele>33.044907</ele>
        <time>2022-07-31T11:49:47.000Z</time>
      </trkpt>
      <trkpt lat="49.54796" lon="-1.34493">
        <ele>33.052293</ele>
        <time>2022-07-31T11:49:48.000Z</time>
      </trkpt>
      <trkpt lat="49.54794" lon="-1.34493">
        <ele>33.06</ele>
        <time>2022-07-31T11:49:50.000Z</time>
      </trkpt>
      <trkpt lat="49.54786" lon="-1.34492">
        <ele>33.085896</ele>
        <time>2022-07-31T11:50:22.000Z</time>
      </trkpt>
      <trkpt lat="49.54781" lon="-1.34492">
        <ele>33.105003</ele>
        <time>2022-07-31T11:50:23.000Z</time>
      </trkpt>
      <trkpt lat="49.54775" lon="-1.34491">
        <ele>33.124451</ele>
        <time>2022-07-31T11:50:24.000Z</time>
      </trkpt>
      <trkpt lat="49.54768" lon="-1.34491">
        <ele>33.146921</ele>
        <time>2022-07-31T11:50:25.000Z</time>
      </trkpt>
      <trkpt lat="49.54761" lon="-1.34491">
        <ele>33.171729</ele>
        <time>2022-07-31T11:50:26.000Z</time>
      </trkpt>
      <trkpt lat="49.54753" lon="-1.3449">
        <ele>33.197206</ele>
        <time>2022-07-31T11:50:27.000Z</time>
      </trkpt>
      <trkpt lat="49.54745" lon="-1.3449">
        <ele>33.102354</ele>
        <time>2022-07-31T11:50:28.000Z</time>
      </trkpt>
      <trkpt lat="49.54736" lon="-1.3449">
        <ele>32.995004</ele>
        <time>2022-07-31T11:50:29.000Z</time>
      </trkpt>
      <trkpt lat="49.54728" lon="-1.3449">
        <ele>32.89255</ele>
        <time>2022-07-31T11:50:30.000Z</time>
      </trkpt>
      <trkpt lat="49.54719" lon="-1.34491">
        <ele>32.781407</ele>
        <time>2022-07-31T11:50:31.000Z</time>
      </trkpt>
      <trkpt lat="49.5471" lon="-1.34492">
        <ele>32.674712</ele>
        <time>2022-07-31T11:50:32.000Z</time>
      </trkpt>
      <trkpt lat="49.54702" lon="-1.34494">
        <ele>32.567284</ele>
        <time>2022-07-31T11:50:33.000Z</time>
      </trkpt>
      <trkpt lat="49.54693" lon="-1.34499">
        <ele>32.451266</ele>
        <time>2022-07-31T11:50:34.000Z</time>
      </trkpt>
      <trkpt lat="49.54685" lon="-1.34505">
        <ele>32.341498</ele>
        <time>2022-07-31T11:50:35.000Z</time>
      </trkpt>
      <trkpt lat="49.54677" lon="-1.34512">
        <ele>32.22513</ele>
        <time>2022-07-31T11:50:36.000Z</time>
      </trkpt>
      <trkpt lat="49.5467" lon="-1.3452">
        <ele>32.122957</ele>
        <time>2022-07-31T11:50:37.000Z</time>
      </trkpt>
      <trkpt lat="49.54664" lon="-1.34529">
        <ele>32.01767</ele>
        <time>2022-07-31T11:50:38.000Z</time>
      </trkpt>
      <trkpt lat="49.54657" lon="-1.34538">
        <ele>31.910605</ele>
        <time>2022-07-31T11:50:39.000Z</time>
      </trkpt>
      <trkpt lat="49.54652" lon="-1.34546">
        <ele>31.813499</ele>
        <time>2022-07-31T11:50:40.000Z</time>
      </trkpt>
      <trkpt lat="49.54646" lon="-1.34553">
        <ele>31.723077</ele>
        <time>2022-07-31T11:50:41.000Z</time>
      </trkpt>
      <trkpt lat="49.54641" lon="-1.3456">
        <ele>31.637895</ele>
        <time>2022-07-31T11:50:42.000Z</time>
      </trkpt>
      <trkpt lat="49.54635" lon="-1.34566">
        <ele>31.55336</ele>
        <time>2022-07-31T11:50:43.000Z</time>
      </trkpt>
      <trkpt lat="49.54631" lon="-1.34572">
        <ele>31.479947</ele>
        <time>2022-07-31T11:50:44.000Z</time>
      </trkpt>
      <trkpt lat="49.54627" lon="-1.34577">
        <ele>31.415936</ele>
        <time>2022-07-31T11:50:45.000Z</time>
      </trkpt>
      <trkpt lat="49.54623" lon="-1.34582">
        <ele>31.355345</ele>
        <time>2022-07-31T11:50:46.000Z</time>
      </trkpt>
      <trkpt lat="49.54619" lon="-1.34586">
        <ele>31.297652</ele>
        <time>2022-07-31T11:50:47.000Z</time>
      </trkpt>
      <trkpt lat="49.54615" lon="-1.34589">
        <ele>31.243141</ele>
        <time>2022-07-31T11:50:48.000Z</time>
      </trkpt>
      <trkpt lat="49.54611" lon="-1.34592">
        <ele>31.191845</ele>
        <time>2022-07-31T11:50:49.000Z</time>
      </trkpt>
      <trkpt lat="49.54607" lon="-1.34594">
        <ele>31.140869</ele>
        <time>2022-07-31T11:50:50.000Z</time>
      </trkpt>
      <trkpt lat="49.54604" lon="-1.34597">
        <ele>31.093089</ele>
        <time>2022-07-31T11:50:51.000Z</time>
      </trkpt>
      <trkpt lat="49.54601" lon="-1.34599">
        <ele>31.058336</ele>
        <time>2022-07-31T11:50:52.000Z</time>
      </trkpt>
      <trkpt lat="49.54599" lon="-1.346">
        <ele>31.023171</ele>
        <time>2022-07-31T11:50:53.000Z</time>
      </trkpt>
      <trkpt lat="49.54597" lon="-1.34602">
        <ele>30.992056</ele>
        <time>2022-07-31T11:50:54.000Z</time>
      </trkpt>
      <trkpt lat="49.54594" lon="-1.34604">
        <ele>31.046235</ele>
        <time>2022-07-31T11:50:55.000Z</time>
      </trkpt>
      <trkpt lat="49.54591" lon="-1.34606">
        <ele>31.14932</ele>
        <time>2022-07-31T11:50:56.000Z</time>
      </trkpt>
      <trkpt lat="49.54589" lon="-1.34608">
        <ele>31.23926</ele>
        <time>2022-07-31T11:50:57.000Z</time>
      </trkpt>
      <trkpt lat="49.54587" lon="-1.34609">
        <ele>31.341381</ele>
        <time>2022-07-31T11:50:58.000Z</time>
      </trkpt>
      <trkpt lat="49.54585" lon="-1.34612">
        <ele>31.446164</ele>
        <time>2022-07-31T11:50:59.000Z</time>
      </trkpt>
      <trkpt lat="49.54582" lon="-1.34613">
        <ele>31.555172</ele>
        <time>2022-07-31T11:51:00.000Z</time>
      </trkpt>
      <trkpt lat="49.5458" lon="-1.34614">
        <ele>31.648461</ele>
        <time>2022-07-31T11:51:01.000Z</time>
      </trkpt>
      <trkpt lat="49.54577" lon="-1.34616">
        <ele>31.747997</ele>
        <time>2022-07-31T11:51:02.000Z</time>
      </trkpt>
      <trkpt lat="49.54575" lon="-1.34617">
        <ele>31.840415</ele>
        <time>2022-07-31T11:51:03.000Z</time>
      </trkpt>
      <trkpt lat="49.54572" lon="-1.34619">
        <ele>31.943499</ele>
        <time>2022-07-31T11:51:04.000Z</time>
      </trkpt>
      <trkpt lat="49.5457" lon="-1.34621">
        <ele>32.045619</ele>
        <time>2022-07-31T11:51:05.000Z</time>
      </trkpt>
      <trkpt lat="49.54567" lon="-1.34623">
        <ele>32.149716</ele>
        <time>2022-07-31T11:51:06.000Z</time>
      </trkpt>
      <trkpt lat="49.54565" lon="-1.34624">
        <ele>32.245945</ele>
        <time>2022-07-31T11:51:07.000Z</time>
      </trkpt>
      <trkpt lat="49.54563" lon="-1.34626">
        <ele>32.336699</ele>
        <time>2022-07-31T11:51:08.000Z</time>
      </trkpt>
      <trkpt lat="49.5456" lon="-1.34627">
        <ele>32.442314</ele>
        <time>2022-07-31T11:51:09.000Z</time>
      </trkpt>
      <trkpt lat="49.54558" lon="-1.34629">
        <ele>32.535156</ele>
        <time>2022-07-31T11:51:10.000Z</time>
      </trkpt>
      <trkpt lat="49.54556" lon="-1.34631">
        <ele>32.629372</ele>
        <time>2022-07-31T11:51:11.000Z</time>
      </trkpt>
      <trkpt lat="49.54554" lon="-1.34632">
        <ele>32.722214</ele>
        <time>2022-07-31T11:51:12.000Z</time>
      </trkpt>
      <trkpt lat="49.54551" lon="-1.34634">
        <ele>32.813986</ele>
        <time>2022-07-31T11:51:13.000Z</time>
      </trkpt>
      <trkpt lat="49.54549" lon="-1.34636">
        <ele>32.912431</ele>
        <time>2022-07-31T11:51:14.000Z</time>
      </trkpt>
      <trkpt lat="49.54547" lon="-1.34638">
        <ele>33.003575</ele>
        <time>2022-07-31T11:51:15.000Z</time>
      </trkpt>
      <trkpt lat="49.54545" lon="-1.3464">
        <ele>33.102509</ele>
        <time>2022-07-31T11:51:16.000Z</time>
      </trkpt>
      <trkpt lat="49.54542" lon="-1.34642">
        <ele>33.210036</ele>
        <time>2022-07-31T11:51:17.000Z</time>
      </trkpt>
      <trkpt lat="49.5454" lon="-1.34644">
        <ele>33.304001</ele>
        <time>2022-07-31T11:51:18.000Z</time>
      </trkpt>
      <trkpt lat="49.54538" lon="-1.34646">
        <ele>33.402446</ele>
        <time>2022-07-31T11:51:19.000Z</time>
      </trkpt>
      <trkpt lat="49.54536" lon="-1.34648">
        <ele>33.498804</ele>
        <time>2022-07-31T11:51:20.000Z</time>
      </trkpt>
      <trkpt lat="49.54533" lon="-1.3465">
        <ele>33.602235</ele>
        <time>2022-07-31T11:51:21.000Z</time>
      </trkpt>
      <trkpt lat="49.54531" lon="-1.34653">
        <ele>33.709872</ele>
        <time>2022-07-31T11:51:22.000Z</time>
      </trkpt>
      <trkpt lat="49.54529" lon="-1.34656">
        <ele>33.815966</ele>
        <time>2022-07-31T11:51:23.000Z</time>
      </trkpt>
      <trkpt lat="49.54526" lon="-1.34659">
        <ele>33.947728</ele>
        <time>2022-07-31T11:51:24.000Z</time>
      </trkpt>
      <trkpt lat="49.54524" lon="-1.34662">
        <ele>34.066275</ele>
        <time>2022-07-31T11:51:25.000Z</time>
      </trkpt>
      <trkpt lat="49.54521" lon="-1.34665">
        <ele>34.206319</ele>
        <time>2022-07-31T11:51:26.000Z</time>
      </trkpt>
      <trkpt lat="49.54518" lon="-1.34668">
        <ele>34.322134</ele>
        <time>2022-07-31T11:51:27.000Z</time>
      </trkpt>
      <trkpt lat="49.54516" lon="-1.34671">
        <ele>34.441792</ele>
        <time>2022-07-31T11:51:28.000Z</time>
      </trkpt>
      <trkpt lat="49.54513" lon="-1.34674">
        <ele>34.567574</ele>
        <time>2022-07-31T11:51:29.000Z</time>
      </trkpt>
      <trkpt lat="49.5451" lon="-1.34678">
        <ele>34.706529</ele>
        <time>2022-07-31T11:51:30.000Z</time>
      </trkpt>
      <trkpt lat="49.54508" lon="-1.34681">
        <ele>34.838292</ele>
        <time>2022-07-31T11:51:31.000Z</time>
      </trkpt>
      <trkpt lat="49.54504" lon="-1.34684">
        <ele>34.979592</ele>
        <time>2022-07-31T11:51:32.000Z</time>
      </trkpt>
      <trkpt lat="49.54502" lon="-1.34687">
        <ele>35.100641</ele>
        <time>2022-07-31T11:51:33.000Z</time>
      </trkpt>
      <trkpt lat="49.54499" lon="-1.3469">
        <ele>35.229276</ele>
        <time>2022-07-31T11:51:34.000Z</time>
      </trkpt>
      <trkpt lat="49.54496" lon="-1.34694">
        <ele>35.369754</ele>
        <time>2022-07-31T11:51:35.000Z</time>
      </trkpt>
      <trkpt lat="49.54494" lon="-1.34697">
        <ele>35.495536</ele>
        <time>2022-07-31T11:51:36.000Z</time>
      </trkpt>
      <trkpt lat="49.54491" lon="-1.34701">
        <ele>35.625768</ele>
        <time>2022-07-31T11:51:37.000Z</time>
      </trkpt>
      <trkpt lat="49.54488" lon="-1.34704">
        <ele>35.773799</ele>
        <time>2022-07-31T11:51:38.000Z</time>
      </trkpt>
      <trkpt lat="49.54485" lon="-1.34708">
        <ele>35.904031</ele>
        <time>2022-07-31T11:51:39.000Z</time>
      </trkpt>
      <trkpt lat="49.54483" lon="-1.34711">
        <ele>36.041592</ele>
        <time>2022-07-31T11:51:40.000Z</time>
      </trkpt>
      <trkpt lat="49.5448" lon="-1.34715">
        <ele>36.171824</ele>
        <time>2022-07-31T11:51:41.000Z</time>
      </trkpt>
      <trkpt lat="49.54477" lon="-1.34718">
        <ele>36.329221</ele>
        <time>2022-07-31T11:51:42.000Z</time>
      </trkpt>
      <trkpt lat="49.54474" lon="-1.34722">
        <ele>36.468176</ele>
        <time>2022-07-31T11:51:43.000Z</time>
      </trkpt>
      <trkpt lat="49.5447" lon="-1.34725">
        <ele>36.616207</ele>
        <time>2022-07-31T11:51:44.000Z</time>
      </trkpt>
      <trkpt lat="49.54467" lon="-1.34729">
        <ele>36.772285</ele>
        <time>2022-07-31T11:51:45.000Z</time>
      </trkpt>
      <trkpt lat="49.54464" lon="-1.34732">
        <ele>36.911241</ele>
        <time>2022-07-31T11:51:46.000Z</time>
      </trkpt>
      <trkpt lat="49.54461" lon="-1.34736">
        <ele>37.068638</ele>
        <time>2022-07-31T11:51:47.000Z</time>
      </trkpt>
      <trkpt lat="49.54458" lon="-1.3474">
        <ele>37.212238</ele>
        <time>2022-07-31T11:51:48.000Z</time>
      </trkpt>
      <trkpt lat="49.54454" lon="-1.34744">
        <ele>37.367673</ele>
        <time>2022-07-31T11:51:49.000Z</time>
      </trkpt>
      <trkpt lat="49.54452" lon="-1.34748">
        <ele>37.517801</ele>
        <time>2022-07-31T11:51:50.000Z</time>
      </trkpt>
      <trkpt lat="49.54448" lon="-1.34752">
        <ele>37.6702</ele>
        <time>2022-07-31T11:51:51.000Z</time>
      </trkpt>
      <trkpt lat="49.54445" lon="-1.34755">
        <ele>37.715303</ele>
        <time>2022-07-31T11:51:52.000Z</time>
      </trkpt>
      <trkpt lat="49.54442" lon="-1.34759">
        <ele>37.608661</ele>
        <time>2022-07-31T11:51:53.000Z</time>
      </trkpt>
      <trkpt lat="49.54439" lon="-1.34764">
        <ele>37.493488</ele>
        <time>2022-07-31T11:51:54.000Z</time>
      </trkpt>
      <trkpt lat="49.54436" lon="-1.34768">
        <ele>37.385433</ele>
        <time>2022-07-31T11:51:55.000Z</time>
      </trkpt>
      <trkpt lat="49.54433" lon="-1.34773">
        <ele>37.260567</ele>
        <time>2022-07-31T11:51:56.000Z</time>
      </trkpt>
      <trkpt lat="49.54431" lon="-1.34779">
        <ele>37.148469</ele>
        <time>2022-07-31T11:51:57.000Z</time>
      </trkpt>
      <trkpt lat="49.54429" lon="-1.34785">
        <ele>37.029764</ele>
        <time>2022-07-31T11:51:58.000Z</time>
      </trkpt>
      <trkpt lat="49.54428" lon="-1.34791">
        <ele>36.912224</ele>
        <time>2022-07-31T11:51:59.000Z</time>
      </trkpt>
      <trkpt lat="49.54427" lon="-1.34798">
        <ele>36.792068</ele>
        <time>2022-07-31T11:52:00.000Z</time>
      </trkpt>
      <trkpt lat="49.54425" lon="-1.34804">
        <ele>36.674528</ele>
        <time>2022-07-31T11:52:01.000Z</time>
      </trkpt>
      <trkpt lat="49.54424" lon="-1.3481">
        <ele>36.555292</ele>
        <time>2022-07-31T11:52:02.000Z</time>
      </trkpt>
      <trkpt lat="49.54422" lon="-1.34816">
        <ele>36.439956</ele>
        <time>2022-07-31T11:52:03.000Z</time>
      </trkpt>
      <trkpt lat="49.54421" lon="-1.34822">
        <ele>36.322973</ele>
        <time>2022-07-31T11:52:04.000Z</time>
      </trkpt>
      <trkpt lat="49.54419" lon="-1.34828">
        <ele>36.20044</ele>
        <time>2022-07-31T11:52:05.000Z</time>
      </trkpt>
      <trkpt lat="49.54416" lon="-1.34834">
        <ele>36.076535</ele>
        <time>2022-07-31T11:52:06.000Z</time>
      </trkpt>
      <trkpt lat="49.54414" lon="-1.3484">
        <ele>35.95421</ele>
        <time>2022-07-31T11:52:07.000Z</time>
      </trkpt>
      <trkpt lat="49.54411" lon="-1.34845">
        <ele>35.825491</ele>
        <time>2022-07-31T11:52:08.000Z</time>
      </trkpt>
      <trkpt lat="49.54407" lon="-1.34851">
        <ele>35.695465</ele>
        <time>2022-07-31T11:52:09.000Z</time>
      </trkpt>
      <trkpt lat="49.54405" lon="-1.34856">
        <ele>35.574896</ele>
        <time>2022-07-31T11:52:10.000Z</time>
      </trkpt>
      <trkpt lat="49.54401" lon="-1.34861">
        <ele>35.437927</ele>
        <time>2022-07-31T11:52:11.000Z</time>
      </trkpt>
      <trkpt lat="49.54397" lon="-1.34867">
        <ele>35.284579</ele>
        <time>2022-07-31T11:52:12.000Z</time>
      </trkpt>
      <trkpt lat="49.54393" lon="-1.34872">
        <ele>35.144143</ele>
        <time>2022-07-31T11:52:13.000Z</time>
      </trkpt>
      <trkpt lat="49.54389" lon="-1.34878">
        <ele>34.996864</ele>
        <time>2022-07-31T11:52:14.000Z</time>
      </trkpt>
      <trkpt lat="49.54385" lon="-1.34884">
        <ele>34.839468</ele>
        <time>2022-07-31T11:52:15.000Z</time>
      </trkpt>
      <trkpt lat="49.54381" lon="-1.34891">
        <ele>34.67637</ele>
        <time>2022-07-31T11:52:16.000Z</time>
      </trkpt>
      <trkpt lat="49.54377" lon="-1.34897">
        <ele>34.515771</ele>
        <time>2022-07-31T11:52:17.000Z</time>
      </trkpt>
      <trkpt lat="49.54372" lon="-1.34904">
        <ele>34.34628</ele>
        <time>2022-07-31T11:52:18.000Z</time>
      </trkpt>
      <trkpt lat="49.54368" lon="-1.3491">
        <ele>34.17606</ele>
        <time>2022-07-31T11:52:19.000Z</time>
      </trkpt>
      <trkpt lat="49.54363" lon="-1.34917">
        <ele>34.002119</ele>
        <time>2022-07-31T11:52:20.000Z</time>
      </trkpt>
      <trkpt lat="49.54359" lon="-1.34924">
        <ele>33.826919</ele>
        <time>2022-07-31T11:52:21.000Z</time>
      </trkpt>
      <trkpt lat="49.54354" lon="-1.34931">
        <ele>33.638597</ele>
        <time>2022-07-31T11:52:22.000Z</time>
      </trkpt>
      <trkpt lat="49.54349" lon="-1.34938">
        <ele>33.451461</ele>
        <time>2022-07-31T11:52:23.000Z</time>
      </trkpt>
      <trkpt lat="49.54343" lon="-1.34945">
        <ele>33.252842</ele>
        <time>2022-07-31T11:52:24.000Z</time>
      </trkpt>
      <trkpt lat="49.54337" lon="-1.34952">
        <ele>33.058545</ele>
        <time>2022-07-31T11:52:25.000Z</time>
      </trkpt>
      <trkpt lat="49.54332" lon="-1.34958">
        <ele>32.8739</ele>
        <time>2022-07-31T11:52:26.000Z</time>
      </trkpt>
      <trkpt lat="49.54326" lon="-1.34963">
        <ele>32.764855</ele>
        <time>2022-07-31T11:52:27.000Z</time>
      </trkpt>
      <trkpt lat="49.54321" lon="-1.34968">
        <ele>32.674805</ele>
        <time>2022-07-31T11:52:28.000Z</time>
      </trkpt>
      <trkpt lat="49.54317" lon="-1.34972">
        <ele>32.598602</ele>
        <time>2022-07-31T11:52:29.000Z</time>
      </trkpt>
      <trkpt lat="49.54312" lon="-1.34975">
        <ele>32.525905</ele>
        <time>2022-07-31T11:52:30.000Z</time>
      </trkpt>
      <trkpt lat="49.54308" lon="-1.34978">
        <ele>32.46412</ele>
        <time>2022-07-31T11:52:31.000Z</time>
      </trkpt>
      <trkpt lat="49.54305" lon="-1.3498">
        <ele>32.416706</ele>
        <time>2022-07-31T11:52:32.000Z</time>
      </trkpt>
      <trkpt lat="49.54303" lon="-1.34981">
        <ele>32.377815</ele>
        <time>2022-07-31T11:52:33.000Z</time>
      </trkpt>
      <trkpt lat="49.54301" lon="-1.3498">
        <ele>32.349159</ele>
        <time>2022-07-31T11:52:34.000Z</time>
      </trkpt>
      <trkpt lat="49.543" lon="-1.34978">
        <ele>32.322214</ele>
        <time>2022-07-31T11:52:35.000Z</time>
      </trkpt>
      <trkpt lat="49.54299" lon="-1.34975">
        <ele>32.295202</ele>
        <time>2022-07-31T11:52:36.000Z</time>
      </trkpt>
      <trkpt lat="49.543" lon="-1.34972">
        <ele>32.262582</ele>
        <time>2022-07-31T11:52:37.000Z</time>
      </trkpt>
      <trkpt lat="49.54301" lon="-1.34968">
        <ele>32.224432</ele>
        <time>2022-07-31T11:52:38.000Z</time>
      </trkpt>
      <trkpt lat="49.54301" lon="-1.34964">
        <ele>32.183503</ele>
        <time>2022-07-31T11:52:39.000Z</time>
      </trkpt>
      <trkpt lat="49.54301" lon="-1.34959">
        <ele>32.140671</ele>
        <time>2022-07-31T11:52:40.000Z</time>
      </trkpt>
      <trkpt lat="49.543" lon="-1.34954">
        <ele>32.09178</ele>
        <time>2022-07-31T11:52:41.000Z</time>
      </trkpt>
      <trkpt lat="49.54299" lon="-1.3495">
        <ele>32.04712</ele>
        <time>2022-07-31T11:52:42.000Z</time>
      </trkpt>
      <trkpt lat="49.54298" lon="-1.34945">
        <ele>31.996733</ele>
        <time>2022-07-31T11:52:43.000Z</time>
      </trkpt>
      <trkpt lat="49.54296" lon="-1.3494">
        <ele>31.945631</ele>
        <time>2022-07-31T11:52:44.000Z</time>
      </trkpt>
      <trkpt lat="49.54294" lon="-1.34936">
        <ele>31.89373</ele>
        <time>2022-07-31T11:52:45.000Z</time>
      </trkpt>
      <trkpt lat="49.54293" lon="-1.34931">
        <ele>31.845099</ele>
        <time>2022-07-31T11:52:46.000Z</time>
      </trkpt>
      <trkpt lat="49.54291" lon="-1.34926">
        <ele>31.792392</ele>
        <time>2022-07-31T11:52:47.000Z</time>
      </trkpt>
      <trkpt lat="49.54289" lon="-1.34922">
        <ele>31.735597</ele>
        <time>2022-07-31T11:52:48.000Z</time>
      </trkpt>
      <trkpt lat="49.54286" lon="-1.34917">
        <ele>31.677752</ele>
        <time>2022-07-31T11:52:49.000Z</time>
      </trkpt>
      <trkpt lat="49.54284" lon="-1.34912">
        <ele>31.623228</ele>
        <time>2022-07-31T11:52:50.000Z</time>
      </trkpt>
      <trkpt lat="49.54281" lon="-1.34908">
        <ele>31.566841</ele>
        <time>2022-07-31T11:52:51.000Z</time>
      </trkpt>
      <trkpt lat="49.54278" lon="-1.34904">
        <ele>31.507583</ele>
        <time>2022-07-31T11:52:52.000Z</time>
      </trkpt>
      <trkpt lat="49.54275" lon="-1.34901">
        <ele>31.454704</ele>
        <time>2022-07-31T11:52:53.000Z</time>
      </trkpt>
      <trkpt lat="49.54272" lon="-1.34897">
        <ele>31.393502</ele>
        <time>2022-07-31T11:52:54.000Z</time>
      </trkpt>
      <trkpt lat="49.54269" lon="-1.34894">
        <ele>31.341182</ele>
        <time>2022-07-31T11:52:55.000Z</time>
      </trkpt>
      <trkpt lat="49.54266" lon="-1.34891">
        <ele>31.283622</ele>
        <time>2022-07-31T11:52:56.000Z</time>
      </trkpt>
      <trkpt lat="49.54262" lon="-1.34887">
        <ele>31.221363</ele>
        <time>2022-07-31T11:52:57.000Z</time>
      </trkpt>
      <trkpt lat="49.54259" lon="-1.34884">
        <ele>31.168484</ele>
        <time>2022-07-31T11:52:58.000Z</time>
      </trkpt>
      <trkpt lat="49.54256" lon="-1.3488">
        <ele>31.112528</ele>
        <time>2022-07-31T11:52:59.000Z</time>
      </trkpt>
      <trkpt lat="49.54253" lon="-1.34877">
        <ele>31.059649</ele>
        <time>2022-07-31T11:53:00.000Z</time>
      </trkpt>
      <trkpt lat="49.5425" lon="-1.34874">
        <ele>31.003169</ele>
        <time>2022-07-31T11:53:01.000Z</time>
      </trkpt>
      <trkpt lat="49.54246" lon="-1.3487">
        <ele>30.939814</ele>
        <time>2022-07-31T11:53:02.000Z</time>
      </trkpt>
      <trkpt lat="49.54244" lon="-1.34866">
        <ele>30.882724</ele>
        <time>2022-07-31T11:53:03.000Z</time>
      </trkpt>
      <trkpt lat="49.5424" lon="-1.34862">
        <ele>30.817066</ele>
        <time>2022-07-31T11:53:04.000Z</time>
      </trkpt>
      <trkpt lat="49.54237" lon="-1.34857">
        <ele>30.756699</ele>
        <time>2022-07-31T11:53:05.000Z</time>
      </trkpt>
      <trkpt lat="49.54234" lon="-1.34852">
        <ele>30.691855</ele>
        <time>2022-07-31T11:53:06.000Z</time>
      </trkpt>
      <trkpt lat="49.54231" lon="-1.34848">
        <ele>30.629429</ele>
        <time>2022-07-31T11:53:07.000Z</time>
      </trkpt>
      <trkpt lat="49.54228" lon="-1.34843">
        <ele>30.564585</ele>
        <time>2022-07-31T11:53:08.000Z</time>
      </trkpt>
      <trkpt lat="49.54225" lon="-1.34838">
        <ele>30.497059</ele>
        <time>2022-07-31T11:53:09.000Z</time>
      </trkpt>
      <trkpt lat="49.54222" lon="-1.34832">
        <ele>30.430519</ele>
        <time>2022-07-31T11:53:10.000Z</time>
      </trkpt>
      <trkpt lat="49.54219" lon="-1.34826">
        <ele>30.357326</ele>
        <time>2022-07-31T11:53:11.000Z</time>
      </trkpt>
      <trkpt lat="49.54216" lon="-1.3482">
        <ele>30.285348</ele>
        <time>2022-07-31T11:53:12.000Z</time>
      </trkpt>
      <trkpt lat="49.54213" lon="-1.34814">
        <ele>30.209943</ele>
        <time>2022-07-31T11:53:13.000Z</time>
      </trkpt>
      <trkpt lat="49.5421" lon="-1.34808">
        <ele>30.119086</ele>
        <time>2022-07-31T11:53:14.000Z</time>
      </trkpt>
      <trkpt lat="49.54206" lon="-1.34802">
        <ele>30.024805</ele>
        <time>2022-07-31T11:53:15.000Z</time>
      </trkpt>
      <trkpt lat="49.54203" lon="-1.34796">
        <ele>29.923034</ele>
        <time>2022-07-31T11:53:16.000Z</time>
      </trkpt>
      <trkpt lat="49.542" lon="-1.3479">
        <ele>29.826852</ele>
        <time>2022-07-31T11:53:17.000Z</time>
      </trkpt>
      <trkpt lat="49.54196" lon="-1.34782">
        <ele>29.707827</ele>
        <time>2022-07-31T11:53:18.000Z</time>
      </trkpt>
      <trkpt lat="49.54194" lon="-1.34778">
        <ele>29.637058</ele>
        <time>2022-07-31T11:53:19.000Z</time>
      </trkpt>
      <trkpt lat="49.54189" lon="-1.3477">
        <ele>29.512486</ele>
        <time>2022-07-31T11:53:20.000Z</time>
      </trkpt>
      <trkpt lat="49.54187" lon="-1.34765">
        <ele>29.430695</ele>
        <time>2022-07-31T11:53:21.000Z</time>
      </trkpt>
      <trkpt lat="49.54184" lon="-1.34759">
        <ele>29.336045</ele>
        <time>2022-07-31T11:53:22.000Z</time>
      </trkpt>
      <trkpt lat="49.5418" lon="-1.34751">
        <ele>29.212127</ele>
        <time>2022-07-31T11:53:23.000Z</time>
      </trkpt>
      <trkpt lat="49.54177" lon="-1.34745">
        <ele>29.124576</ele>
        <time>2022-07-31T11:53:24.000Z</time>
      </trkpt>
      <trkpt lat="49.54174" lon="-1.34738">
        <ele>29.017517</ele>
        <time>2022-07-31T11:53:25.000Z</time>
      </trkpt>
      <trkpt lat="49.54171" lon="-1.34731">
        <ele>28.907094</ele>
        <time>2022-07-31T11:53:26.000Z</time>
      </trkpt>
      <trkpt lat="49.54166" lon="-1.34722">
        <ele>28.76931</ele>
        <time>2022-07-31T11:53:27.000Z</time>
      </trkpt>
      <trkpt lat="49.54163" lon="-1.34717">
        <ele>28.677827</ele>
        <time>2022-07-31T11:53:28.000Z</time>
      </trkpt>
      <trkpt lat="49.54159" lon="-1.3471">
        <ele>28.559758</ele>
        <time>2022-07-31T11:53:29.000Z</time>
      </trkpt>
      <trkpt lat="49.54154" lon="-1.34701">
        <ele>28.418335</ele>
        <time>2022-07-31T11:53:30.000Z</time>
      </trkpt>
      <trkpt lat="49.5415" lon="-1.34694">
        <ele>28.307912</ele>
        <time>2022-07-31T11:53:31.000Z</time>
      </trkpt>
      <trkpt lat="49.54147" lon="-1.34687">
        <ele>28.194887</ele>
        <time>2022-07-31T11:53:32.000Z</time>
      </trkpt>
      <trkpt lat="49.54144" lon="-1.34681">
        <ele>28.108601</ele>
        <time>2022-07-31T11:53:33.000Z</time>
      </trkpt>
      <trkpt lat="49.54141" lon="-1.34674">
        <ele>27.996195</ele>
        <time>2022-07-31T11:53:34.000Z</time>
      </trkpt>
      <trkpt lat="49.54137" lon="-1.34667">
        <ele>27.884783</ele>
        <time>2022-07-31T11:53:35.000Z</time>
      </trkpt>
      <trkpt lat="49.54133" lon="-1.34658">
        <ele>27.752472</ele>
        <time>2022-07-31T11:53:36.000Z</time>
      </trkpt>
      <trkpt lat="49.5413" lon="-1.34652">
        <ele>27.659819</ele>
        <time>2022-07-31T11:53:37.000Z</time>
      </trkpt>
      <trkpt lat="49.54126" lon="-1.34645">
        <ele>27.541978</ele>
        <time>2022-07-31T11:53:38.000Z</time>
      </trkpt>
      <trkpt lat="49.54122" lon="-1.34637">
        <ele>27.41929</ele>
        <time>2022-07-31T11:53:39.000Z</time>
      </trkpt>
      <trkpt lat="49.54117" lon="-1.34628">
        <ele>27.268496</ele>
        <time>2022-07-31T11:53:40.000Z</time>
      </trkpt>
      <trkpt lat="49.54114" lon="-1.34621">
        <ele>27.170806</ele>
        <time>2022-07-31T11:53:41.000Z</time>
      </trkpt>
      <trkpt lat="49.54109" lon="-1.34613">
        <ele>27.039689</ele>
        <time>2022-07-31T11:53:42.000Z</time>
      </trkpt>
      <trkpt lat="49.54105" lon="-1.34605">
        <ele>26.909815</ele>
        <time>2022-07-31T11:53:43.000Z</time>
      </trkpt>
      <trkpt lat="49.541" lon="-1.34598">
        <ele>26.77047</ele>
        <time>2022-07-31T11:53:44.000Z</time>
      </trkpt>
      <trkpt lat="49.54094" lon="-1.3459">
        <ele>26.606576</ele>
        <time>2022-07-31T11:53:45.000Z</time>
      </trkpt>
      <trkpt lat="49.54087" lon="-1.34581">
        <ele>26.39432</ele>
        <time>2022-07-31T11:53:46.000Z</time>
      </trkpt>
      <trkpt lat="49.54083" lon="-1.34575">
        <ele>26.253778</ele>
        <time>2022-07-31T11:53:47.000Z</time>
      </trkpt>
      <trkpt lat="49.54077" lon="-1.34567">
        <ele>26.074546</ele>
        <time>2022-07-31T11:53:48.000Z</time>
      </trkpt>
      <trkpt lat="49.54071" lon="-1.34557">
        <ele>25.860178</ele>
        <time>2022-07-31T11:53:49.000Z</time>
      </trkpt>
      <trkpt lat="49.54067" lon="-1.3455">
        <ele>25.716414</ele>
        <time>2022-07-31T11:53:50.000Z</time>
      </trkpt>
      <trkpt lat="49.54062" lon="-1.3454">
        <ele>25.530132</ele>
        <time>2022-07-31T11:53:51.000Z</time>
      </trkpt>
      <trkpt lat="49.54056" lon="-1.34528">
        <ele>25.310626</ele>
        <time>2022-07-31T11:53:52.000Z</time>
      </trkpt>
      <trkpt lat="49.54053" lon="-1.3452">
        <ele>25.162337</ele>
        <time>2022-07-31T11:53:53.000Z</time>
      </trkpt>
      <trkpt lat="49.54048" lon="-1.34508">
        <ele>24.945484</ele>
        <time>2022-07-31T11:53:54.000Z</time>
      </trkpt>
      <trkpt lat="49.54045" lon="-1.345">
        <ele>24.804389</ele>
        <time>2022-07-31T11:53:55.000Z</time>
      </trkpt>
      <trkpt lat="49.54041" lon="-1.34489">
        <ele>24.626689</ele>
        <time>2022-07-31T11:53:56.000Z</time>
      </trkpt>
      <trkpt lat="49.54038" lon="-1.34479">
        <ele>24.451024</ele>
        <time>2022-07-31T11:53:57.000Z</time>
      </trkpt>
      <trkpt lat="49.54034" lon="-1.34467">
        <ele>24.24103</ele>
        <time>2022-07-31T11:53:58.000Z</time>
      </trkpt>
      <trkpt lat="49.54031" lon="-1.34459">
        <ele>24.103896</ele>
        <time>2022-07-31T11:53:59.000Z</time>
      </trkpt>
      <trkpt lat="49.54027" lon="-1.3445">
        <ele>23.941465</ele>
        <time>2022-07-31T11:54:00.000Z</time>
      </trkpt>
      <trkpt lat="49.54024" lon="-1.3444">
        <ele>23.776412</ele>
        <time>2022-07-31T11:54:01.000Z</time>
      </trkpt>
      <trkpt lat="49.54021" lon="-1.34431">
        <ele>23.62052</ele>
        <time>2022-07-31T11:54:02.000Z</time>
      </trkpt>
      <trkpt lat="49.54017" lon="-1.34422">
        <ele>23.459394</ele>
        <time>2022-07-31T11:54:03.000Z</time>
      </trkpt>
      <trkpt lat="49.54013" lon="-1.34411">
        <ele>23.269161</ele>
        <time>2022-07-31T11:54:04.000Z</time>
      </trkpt>
      <trkpt lat="49.54011" lon="-1.34404">
        <ele>23.153006</ele>
        <time>2022-07-31T11:54:05.000Z</time>
      </trkpt>
      <trkpt lat="49.54007" lon="-1.34396">
        <ele>23.003452</ele>
        <time>2022-07-31T11:54:06.000Z</time>
      </trkpt>
      <trkpt lat="49.54004" lon="-1.34387">
        <ele>22.857586</ele>
        <time>2022-07-31T11:54:07.000Z</time>
      </trkpt>
      <trkpt lat="49.54001" lon="-1.34378">
        <ele>22.695867</ele>
        <time>2022-07-31T11:54:08.000Z</time>
      </trkpt>
      <trkpt lat="49.53999" lon="-1.34371">
        <ele>22.588543</ele>
        <time>2022-07-31T11:54:09.000Z</time>
      </trkpt>
      <trkpt lat="49.53997" lon="-1.34363">
        <ele>22.7847</ele>
        <time>2022-07-31T11:54:10.000Z</time>
      </trkpt>
      <trkpt lat="49.53995" lon="-1.34356">
        <ele>22.991297</ele>
        <time>2022-07-31T11:54:11.000Z</time>
      </trkpt>
      <trkpt lat="49.53992" lon="-1.34347">
        <ele>23.250068</ele>
        <time>2022-07-31T11:54:12.000Z</time>
      </trkpt>
      <trkpt lat="49.53991" lon="-1.34341">
        <ele>23.411825</ele>
        <time>2022-07-31T11:54:13.000Z</time>
      </trkpt>
      <trkpt lat="49.5399" lon="-1.34334">
        <ele>23.608131</ele>
        <time>2022-07-31T11:54:14.000Z</time>
      </trkpt>
      <trkpt lat="49.53989" lon="-1.34327">
        <ele>23.796402</ele>
        <time>2022-07-31T11:54:15.000Z</time>
      </trkpt>
      <trkpt lat="49.53988" lon="-1.3432">
        <ele>23.983845</ele>
        <time>2022-07-31T11:54:16.000Z</time>
      </trkpt>
      <trkpt lat="49.53988" lon="-1.34313">
        <ele>24.155346</ele>
        <time>2022-07-31T11:54:17.000Z</time>
      </trkpt>
      <trkpt lat="49.53988" lon="-1.34307">
        <ele>24.315575</ele>
        <time>2022-07-31T11:54:18.000Z</time>
      </trkpt>
      <trkpt lat="49.53989" lon="-1.34301">
        <ele>24.478292</ele>
        <time>2022-07-31T11:54:19.000Z</time>
      </trkpt>
      <trkpt lat="49.53989" lon="-1.34295">
        <ele>24.633267</ele>
        <time>2022-07-31T11:54:20.000Z</time>
      </trkpt>
      <trkpt lat="49.5399" lon="-1.3429">
        <ele>24.783298</ele>
        <time>2022-07-31T11:54:21.000Z</time>
      </trkpt>
      <trkpt lat="49.5399" lon="-1.34285">
        <ele>24.91686</ele>
        <time>2022-07-31T11:54:22.000Z</time>
      </trkpt>
      <trkpt lat="49.53992" lon="-1.3428">
        <ele>25.053482</ele>
        <time>2022-07-31T11:54:23.000Z</time>
      </trkpt>
      <trkpt lat="49.53993" lon="-1.34275">
        <ele>25.194966</ele>
        <time>2022-07-31T11:54:24.000Z</time>
      </trkpt>
      <trkpt lat="49.53994" lon="-1.3427">
        <ele>25.326205</ele>
        <time>2022-07-31T11:54:25.000Z</time>
      </trkpt>
      <trkpt lat="49.53995" lon="-1.34265">
        <ele>25.465254</ele>
        <time>2022-07-31T11:54:26.000Z</time>
      </trkpt>
      <trkpt lat="49.53997" lon="-1.34261">
        <ele>25.602345</ele>
        <time>2022-07-31T11:54:27.000Z</time>
      </trkpt>
      <trkpt lat="49.53998" lon="-1.34256">
        <ele>25.727284</ele>
        <time>2022-07-31T11:54:28.000Z</time>
      </trkpt>
      <trkpt lat="49.53999" lon="-1.34252">
        <ele>25.866696</ele>
        <time>2022-07-31T11:54:29.000Z</time>
      </trkpt>
      <trkpt lat="49.54001" lon="-1.34247">
        <ele>26.006107</ele>
        <time>2022-07-31T11:54:30.000Z</time>
      </trkpt>
      <trkpt lat="49.54002" lon="-1.34243">
        <ele>26.119796</ele>
        <time>2022-07-31T11:54:31.000Z</time>
      </trkpt>
      <trkpt lat="49.54004" lon="-1.34238">
        <ele>26.254577</ele>
        <time>2022-07-31T11:54:32.000Z</time>
      </trkpt>
      <trkpt lat="49.54005" lon="-1.34234">
        <ele>26.389358</ele>
        <time>2022-07-31T11:54:33.000Z</time>
      </trkpt>
      <trkpt lat="49.54006" lon="-1.34229">
        <ele>26.514297</ele>
        <time>2022-07-31T11:54:34.000Z</time>
      </trkpt>
      <trkpt lat="49.54008" lon="-1.34225">
        <ele>26.659748</ele>
        <time>2022-07-31T11:54:35.000Z</time>
      </trkpt>
      <trkpt lat="49.5401" lon="-1.3422">
        <ele>26.789946</ele>
        <time>2022-07-31T11:54:36.000Z</time>
      </trkpt>
      <trkpt lat="49.54011" lon="-1.34216">
        <ele>26.922429</ele>
        <time>2022-07-31T11:54:37.000Z</time>
      </trkpt>
      <trkpt lat="49.54013" lon="-1.34211">
        <ele>27.05721</ele>
        <time>2022-07-31T11:54:38.000Z</time>
      </trkpt>
      <trkpt lat="49.54014" lon="-1.34207">
        <ele>27.186595</ele>
        <time>2022-07-31T11:54:39.000Z</time>
      </trkpt>
      <trkpt lat="49.54016" lon="-1.34202">
        <ele>27.321376</ele>
        <time>2022-07-31T11:54:40.000Z</time>
      </trkpt>
      <trkpt lat="49.54017" lon="-1.34198">
        <ele>27.458466</ele>
        <time>2022-07-31T11:54:41.000Z</time>
      </trkpt>
      <trkpt lat="49.54019" lon="-1.34193">
        <ele>27.590949</ele>
        <time>2022-07-31T11:54:42.000Z</time>
      </trkpt>
      <trkpt lat="49.5402" lon="-1.34189">
        <ele>27.720334</ele>
        <time>2022-07-31T11:54:43.000Z</time>
      </trkpt>
      <trkpt lat="49.54022" lon="-1.34184">
        <ele>27.855115</ele>
        <time>2022-07-31T11:54:44.000Z</time>
      </trkpt>
      <trkpt lat="49.54023" lon="-1.3418">
        <ele>27.98534</ele>
        <time>2022-07-31T11:54:45.000Z</time>
      </trkpt>
      <trkpt lat="49.54025" lon="-1.34175">
        <ele>28.12012</ele>
        <time>2022-07-31T11:54:46.000Z</time>
      </trkpt>
      <trkpt lat="49.54026" lon="-1.34171">
        <ele>28.250041</ele>
        <time>2022-07-31T11:54:47.000Z</time>
      </trkpt>
      <trkpt lat="49.54027" lon="-1.34166">
        <ele>28.391782</ele>
        <time>2022-07-31T11:54:48.000Z</time>
      </trkpt>
      <trkpt lat="49.54029" lon="-1.34161">
        <ele>28.530831</ele>
        <time>2022-07-31T11:54:49.000Z</time>
      </trkpt>
      <trkpt lat="49.54029" lon="-1.34156">
        <ele>28.659229</ele>
        <time>2022-07-31T11:54:50.000Z</time>
      </trkpt>
      <trkpt lat="49.5403" lon="-1.34151">
        <ele>28.791648</ele>
        <time>2022-07-31T11:54:51.000Z</time>
      </trkpt>
      <trkpt lat="49.54031" lon="-1.34146">
        <ele>28.93301</ele>
        <time>2022-07-31T11:54:52.000Z</time>
      </trkpt>
      <trkpt lat="49.54031" lon="-1.34141">
        <ele>29.072223</ele>
        <time>2022-07-31T11:54:53.000Z</time>
      </trkpt>
      <trkpt lat="49.54031" lon="-1.34136">
        <ele>29.209766</ele>
        <time>2022-07-31T11:54:54.000Z</time>
      </trkpt>
      <trkpt lat="49.54032" lon="-1.3413">
        <ele>29.349509</ele>
        <time>2022-07-31T11:54:55.000Z</time>
      </trkpt>
      <trkpt lat="49.54032" lon="-1.34125">
        <ele>29.493976</ele>
        <time>2022-07-31T11:54:56.000Z</time>
      </trkpt>
      <trkpt lat="49.54031" lon="-1.3412">
        <ele>29.631101</ele>
        <time>2022-07-31T11:54:57.000Z</time>
      </trkpt>
      <trkpt lat="49.54031" lon="-1.34114">
        <ele>29.771253</ele>
        <time>2022-07-31T11:54:58.000Z</time>
      </trkpt>
      <trkpt lat="49.54031" lon="-1.34109">
        <ele>29.866338</ele>
        <time>2022-07-31T11:54:59.000Z</time>
      </trkpt>
      <trkpt lat="49.5403" lon="-1.34104">
        <ele>29.891599</ele>
        <time>2022-07-31T11:55:00.000Z</time>
      </trkpt>
      <trkpt lat="49.54029" lon="-1.34099">
        <ele>29.914734</ele>
        <time>2022-07-31T11:55:01.000Z</time>
      </trkpt>
      <trkpt lat="49.54029" lon="-1.34094">
        <ele>29.93818</ele>
        <time>2022-07-31T11:55:02.000Z</time>
      </trkpt>
      <trkpt lat="49.54028" lon="-1.34089">
        <ele>29.962306</ele>
        <time>2022-07-31T11:55:03.000Z</time>
      </trkpt>
      <trkpt lat="49.54027" lon="-1.34084">
        <ele>29.98446</ele>
        <time>2022-07-31T11:55:04.000Z</time>
      </trkpt>
      <trkpt lat="49.54026" lon="-1.34079">
        <ele>30.008145</ele>
        <time>2022-07-31T11:55:05.000Z</time>
      </trkpt>
      <trkpt lat="49.54025" lon="-1.34074">
        <ele>30.032712</ele>
        <time>2022-07-31T11:55:06.000Z</time>
      </trkpt>
      <trkpt lat="49.54023" lon="-1.34069">
        <ele>30.057293</ele>
        <time>2022-07-31T11:55:07.000Z</time>
      </trkpt>
      <trkpt lat="49.54023" lon="-1.34064">
        <ele>30.080879</ele>
        <time>2022-07-31T11:55:08.000Z</time>
      </trkpt>
      <trkpt lat="49.54021" lon="-1.34059">
        <ele>30.106574</ele>
        <time>2022-07-31T11:55:09.000Z</time>
      </trkpt>
      <trkpt lat="49.54021" lon="-1.34055">
        <ele>30.127758</ele>
        <time>2022-07-31T11:55:10.000Z</time>
      </trkpt>
      <trkpt lat="49.5402" lon="-1.3405">
        <ele>30.151316</ele>
        <time>2022-07-31T11:55:11.000Z</time>
      </trkpt>
      <trkpt lat="49.54019" lon="-1.34045">
        <ele>30.173029</ele>
        <time>2022-07-31T11:55:12.000Z</time>
      </trkpt>
      <trkpt lat="49.54018" lon="-1.34041">
        <ele>30.195399</ele>
        <time>2022-07-31T11:55:13.000Z</time>
      </trkpt>
      <trkpt lat="49.54017" lon="-1.34036">
        <ele>30.219084</ele>
        <time>2022-07-31T11:55:14.000Z</time>
      </trkpt>
      <trkpt lat="49.54015" lon="-1.34031">
        <ele>30.241945</ele>
        <time>2022-07-31T11:55:15.000Z</time>
      </trkpt>
      <trkpt lat="49.54014" lon="-1.34026">
        <ele>30.266355</ele>
        <time>2022-07-31T11:55:16.000Z</time>
      </trkpt>
      <trkpt lat="49.54013" lon="-1.34022">
        <ele>30.288287</ele>
        <time>2022-07-31T11:55:17.000Z</time>
      </trkpt>
      <trkpt lat="49.54012" lon="-1.34017">
        <ele>30.311422</ele>
        <time>2022-07-31T11:55:18.000Z</time>
      </trkpt>
      <trkpt lat="49.54011" lon="-1.34013">
        <ele>30.329904</ele>
        <time>2022-07-31T11:55:19.000Z</time>
      </trkpt>
      <trkpt lat="49.5401" lon="-1.3401">
        <ele>30.347538</ele>
        <time>2022-07-31T11:55:20.000Z</time>
      </trkpt>
      <trkpt lat="49.5401" lon="-1.34006">
        <ele>30.364677</ele>
        <time>2022-07-31T11:55:22.000Z</time>
      </trkpt>
      <trkpt lat="49.54008" lon="-1.33996">
        <ele>30.413961</ele>
        <time>2022-07-31T11:55:35.000Z</time>
      </trkpt>
      <trkpt lat="49.54008" lon="-1.33992">
        <ele>30.432528</ele>
        <time>2022-07-31T11:55:36.000Z</time>
      </trkpt>
      <trkpt lat="49.54007" lon="-1.33988">
        <ele>30.45247</ele>
        <time>2022-07-31T11:55:37.000Z</time>
      </trkpt>
      <trkpt lat="49.54006" lon="-1.33983">
        <ele>30.475183</ele>
        <time>2022-07-31T11:55:38.000Z</time>
      </trkpt>
      <trkpt lat="49.54005" lon="-1.33978">
        <ele>30.50002</ele>
        <time>2022-07-31T11:55:39.000Z</time>
      </trkpt>
      <trkpt lat="49.54003" lon="-1.33973">
        <ele>30.526974</ele>
        <time>2022-07-31T11:55:40.000Z</time>
      </trkpt>
      <trkpt lat="49.54002" lon="-1.33967">
        <ele>30.555705</ele>
        <time>2022-07-31T11:55:41.000Z</time>
      </trkpt>
      <trkpt lat="49.54001" lon="-1.33961">
        <ele>30.585451</ele>
        <time>2022-07-31T11:55:42.000Z</time>
      </trkpt>
      <trkpt lat="49.54" lon="-1.33954">
        <ele>30.617696</ele>
        <time>2022-07-31T11:55:43.000Z</time>
      </trkpt>
      <trkpt lat="49.53998" lon="-1.33947">
        <ele>30.651049</ele>
        <time>2022-07-31T11:55:44.000Z</time>
      </trkpt>
      <trkpt lat="49.53997" lon="-1.3394">
        <ele>30.68551</ele>
        <time>2022-07-31T11:55:45.000Z</time>
      </trkpt>
      <trkpt lat="49.53995" lon="-1.33933">
        <ele>30.720498</ele>
        <time>2022-07-31T11:55:46.000Z</time>
      </trkpt>
      <trkpt lat="49.53994" lon="-1.33926">
        <ele>30.754071</ele>
        <time>2022-07-31T11:55:47.000Z</time>
      </trkpt>
      <trkpt lat="49.53992" lon="-1.33919">
        <ele>30.789059</ele>
        <time>2022-07-31T11:55:48.000Z</time>
      </trkpt>
      <trkpt lat="49.5399" lon="-1.33912">
        <ele>30.823076</ele>
        <time>2022-07-31T11:55:49.000Z</time>
      </trkpt>
      <trkpt lat="49.53989" lon="-1.33905">
        <ele>30.857537</ele>
        <time>2022-07-31T11:55:50.000Z</time>
      </trkpt>
      <trkpt lat="49.53988" lon="-1.33898">
        <ele>30.89111</ele>
        <time>2022-07-31T11:55:51.000Z</time>
      </trkpt>
      <trkpt lat="49.53986" lon="-1.33891">
        <ele>30.925332</ele>
        <time>2022-07-31T11:55:52.000Z</time>
      </trkpt>
      <trkpt lat="49.53985" lon="-1.33884">
        <ele>30.957826</ele>
        <time>2022-07-31T11:55:53.000Z</time>
      </trkpt>
      <trkpt lat="49.53983" lon="-1.33877">
        <ele>30.991832</ele>
        <time>2022-07-31T11:55:54.000Z</time>
      </trkpt>
      <trkpt lat="49.53981" lon="-1.3387">
        <ele>31.025548</ele>
        <time>2022-07-31T11:55:55.000Z</time>
      </trkpt>
      <trkpt lat="49.53979" lon="-1.33864">
        <ele>31.058842</ele>
        <time>2022-07-31T11:55:56.000Z</time>
      </trkpt>
      <trkpt lat="49.53978" lon="-1.33857">
        <ele>31.092629</ele>
        <time>2022-07-31T11:55:57.000Z</time>
      </trkpt>
      <trkpt lat="49.53976" lon="-1.3385">
        <ele>31.125922</ele>
        <time>2022-07-31T11:55:58.000Z</time>
      </trkpt>
      <trkpt lat="49.53974" lon="-1.33844">
        <ele>31.096644</ele>
        <time>2022-07-31T11:55:59.000Z</time>
      </trkpt>
      <trkpt lat="49.53973" lon="-1.33837">
        <ele>31.043987</ele>
        <time>2022-07-31T11:56:00.000Z</time>
      </trkpt>
      <trkpt lat="49.53972" lon="-1.3383">
        <ele>30.990024</ele>
        <time>2022-07-31T11:56:01.000Z</time>
      </trkpt>
      <trkpt lat="49.53971" lon="-1.33824">
        <ele>30.93762</ele>
        <time>2022-07-31T11:56:02.000Z</time>
      </trkpt>
      <trkpt lat="49.5397" lon="-1.33817">
        <ele>30.886455</ele>
        <time>2022-07-31T11:56:03.000Z</time>
      </trkpt>
      <trkpt lat="49.53969" lon="-1.33811">
        <ele>30.836544</ele>
        <time>2022-07-31T11:56:04.000Z</time>
      </trkpt>
      <trkpt lat="49.53969" lon="-1.33804">
        <ele>30.786634</ele>
        <time>2022-07-31T11:56:05.000Z</time>
      </trkpt>
      <trkpt lat="49.53969" lon="-1.33797">
        <ele>30.735317</ele>
        <time>2022-07-31T11:56:06.000Z</time>
      </trkpt>
      <trkpt lat="49.53969" lon="-1.33791">
        <ele>30.684766</ele>
        <time>2022-07-31T11:56:07.000Z</time>
      </trkpt>
      <trkpt lat="49.53968" lon="-1.33784">
        <ele>30.632789</ele>
        <time>2022-07-31T11:56:08.000Z</time>
      </trkpt>
      <trkpt lat="49.53968" lon="-1.33778">
        <ele>30.583004</ele>
        <time>2022-07-31T11:56:09.000Z</time>
      </trkpt>
      <trkpt lat="49.53968" lon="-1.33771">
        <ele>30.533219</ele>
        <time>2022-07-31T11:56:10.000Z</time>
      </trkpt>
      <trkpt lat="49.53968" lon="-1.33765">
        <ele>30.484837</ele>
        <time>2022-07-31T11:56:11.000Z</time>
      </trkpt>
      <trkpt lat="49.53968" lon="-1.33758">
        <ele>30.434926</ele>
        <time>2022-07-31T11:56:12.000Z</time>
      </trkpt>
      <trkpt lat="49.53968" lon="-1.33752">
        <ele>30.385779</ele>
        <time>2022-07-31T11:56:13.000Z</time>
      </trkpt>
      <trkpt lat="49.53968" lon="-1.33745">
        <ele>30.335995</ele>
        <time>2022-07-31T11:56:14.000Z</time>
      </trkpt>
      <trkpt lat="49.53968" lon="-1.33739">
        <ele>30.28621</ele>
        <time>2022-07-31T11:56:15.000Z</time>
      </trkpt>
      <trkpt lat="49.53968" lon="-1.33732">
        <ele>30.234127</ele>
        <time>2022-07-31T11:56:16.000Z</time>
      </trkpt>
      <trkpt lat="49.53968" lon="-1.33725">
        <ele>30.182811</ele>
        <time>2022-07-31T11:56:17.000Z</time>
      </trkpt>
      <trkpt lat="49.53968" lon="-1.33719">
        <ele>30.132136</ele>
        <time>2022-07-31T11:56:18.000Z</time>
      </trkpt>
      <trkpt lat="49.53968" lon="-1.33712">
        <ele>30.080819</ele>
        <time>2022-07-31T11:56:19.000Z</time>
      </trkpt>
      <trkpt lat="49.53968" lon="-1.33705">
        <ele>30.028737</ele>
        <time>2022-07-31T11:56:20.000Z</time>
      </trkpt>
      <trkpt lat="49.53968" lon="-1.33698">
        <ele>29.975006</ele>
        <time>2022-07-31T11:56:21.000Z</time>
      </trkpt>
      <trkpt lat="49.53968" lon="-1.33691">
        <ele>29.919859</ele>
        <time>2022-07-31T11:56:22.000Z</time>
      </trkpt>
      <trkpt lat="49.53968" lon="-1.33684">
        <ele>29.8646</ele>
        <time>2022-07-31T11:56:23.000Z</time>
      </trkpt>
      <trkpt lat="49.53969" lon="-1.33677">
        <ele>29.80808</ele>
        <time>2022-07-31T11:56:24.000Z</time>
      </trkpt>
      <trkpt lat="49.53969" lon="-1.33669">
        <ele>29.752821</ele>
        <time>2022-07-31T11:56:25.000Z</time>
      </trkpt>
      <trkpt lat="49.5397" lon="-1.33662">
        <ele>29.698325</ele>
        <time>2022-07-31T11:56:26.000Z</time>
      </trkpt>
      <trkpt lat="49.5397" lon="-1.33655">
        <ele>29.643179</ele>
        <time>2022-07-31T11:56:27.000Z</time>
      </trkpt>
      <trkpt lat="49.5397" lon="-1.33648">
        <ele>29.589448</ele>
        <time>2022-07-31T11:56:28.000Z</time>
      </trkpt>
      <trkpt lat="49.53971" lon="-1.33641">
        <ele>29.532928</ele>
        <time>2022-07-31T11:56:29.000Z</time>
      </trkpt>
      <trkpt lat="49.53971" lon="-1.33633">
        <ele>29.47505</ele>
        <time>2022-07-31T11:56:30.000Z</time>
      </trkpt>
      <trkpt lat="49.53972" lon="-1.33626">
        <ele>29.41979</ele>
        <time>2022-07-31T11:56:31.000Z</time>
      </trkpt>
      <trkpt lat="49.53972" lon="-1.33618">
        <ele>29.360238</ele>
        <time>2022-07-31T11:56:32.000Z</time>
      </trkpt>
      <trkpt lat="49.53973" lon="-1.33611">
        <ele>29.301067</ele>
        <time>2022-07-31T11:56:33.000Z</time>
      </trkpt>
      <trkpt lat="49.53974" lon="-1.33603">
        <ele>29.240922</ele>
        <time>2022-07-31T11:56:34.000Z</time>
      </trkpt>
      <trkpt lat="49.53975" lon="-1.33595">
        <ele>29.180997</ele>
        <time>2022-07-31T11:56:35.000Z</time>
      </trkpt>
      <trkpt lat="49.53976" lon="-1.33587">
        <ele>29.119169</ele>
        <time>2022-07-31T11:56:36.000Z</time>
      </trkpt>
      <trkpt lat="49.53976" lon="-1.33579">
        <ele>29.057029</ele>
        <time>2022-07-31T11:56:37.000Z</time>
      </trkpt>
      <trkpt lat="49.53977" lon="-1.33571">
        <ele>28.999445</ele>
        <time>2022-07-31T11:56:38.000Z</time>
      </trkpt>
      <trkpt lat="49.53977" lon="-1.33563">
        <ele>28.959602</ele>
        <time>2022-07-31T11:56:39.000Z</time>
      </trkpt>
      <trkpt lat="49.53977" lon="-1.33554">
        <ele>28.917423</ele>
        <time>2022-07-31T11:56:40.000Z</time>
      </trkpt>
      <trkpt lat="49.53977" lon="-1.33545">
        <ele>28.87423</ele>
        <time>2022-07-31T11:56:41.000Z</time>
      </trkpt>
      <trkpt lat="49.53976" lon="-1.33536">
        <ele>28.830505</ele>
        <time>2022-07-31T11:56:42.000Z</time>
      </trkpt>
      <trkpt lat="49.53974" lon="-1.33528">
        <ele>28.78832</ele>
        <time>2022-07-31T11:56:43.000Z</time>
      </trkpt>
      <trkpt lat="49.5397" lon="-1.3352">
        <ele>28.744374</ele>
        <time>2022-07-31T11:56:44.000Z</time>
      </trkpt>
      <trkpt lat="49.53966" lon="-1.33514">
        <ele>28.70127</ele>
        <time>2022-07-31T11:56:45.000Z</time>
      </trkpt>
      <trkpt lat="49.53961" lon="-1.33509">
        <ele>28.658476</ele>
        <time>2022-07-31T11:56:46.000Z</time>
      </trkpt>
      <trkpt lat="49.53956" lon="-1.33506">
        <ele>28.617621</ele>
        <time>2022-07-31T11:56:47.000Z</time>
      </trkpt>
      <trkpt lat="49.53951" lon="-1.33503">
        <ele>28.580633</ele>
        <time>2022-07-31T11:56:48.000Z</time>
      </trkpt>
      <trkpt lat="49.53946" lon="-1.33502">
        <ele>28.539728</ele>
        <time>2022-07-31T11:56:49.000Z</time>
      </trkpt>
      <trkpt lat="49.53941" lon="-1.33501">
        <ele>28.499556</ele>
        <time>2022-07-31T11:56:50.000Z</time>
      </trkpt>
      <trkpt lat="49.53935" lon="-1.33501">
        <ele>28.461777</ele>
        <time>2022-07-31T11:56:51.000Z</time>
      </trkpt>
      <trkpt lat="49.5393" lon="-1.335">
        <ele>28.423128</ele>
        <time>2022-07-31T11:56:52.000Z</time>
      </trkpt>
      <trkpt lat="49.53925" lon="-1.33499">
        <ele>28.387558</ele>
        <time>2022-07-31T11:56:53.000Z</time>
      </trkpt>
      <trkpt lat="49.5392" lon="-1.33499">
        <ele>28.349841</ele>
        <time>2022-07-31T11:56:54.000Z</time>
      </trkpt>
      <trkpt lat="49.53916" lon="-1.33498">
        <ele>28.314271</ele>
        <time>2022-07-31T11:56:55.000Z</time>
      </trkpt>
      <trkpt lat="49.53911" lon="-1.33498">
        <ele>28.278659</ele>
        <time>2022-07-31T11:56:56.000Z</time>
      </trkpt>
      <trkpt lat="49.53906" lon="-1.33497">
        <ele>28.243177</ele>
        <time>2022-07-31T11:56:57.000Z</time>
      </trkpt>
      <trkpt lat="49.53901" lon="-1.33497">
        <ele>28.209853</ele>
        <time>2022-07-31T11:56:58.000Z</time>
      </trkpt>
      <trkpt lat="49.53897" lon="-1.33496">
        <ele>28.174241</ele>
        <time>2022-07-31T11:56:59.000Z</time>
      </trkpt>
      <trkpt lat="49.53893" lon="-1.33495">
        <ele>28.143773</ele>
        <time>2022-07-31T11:57:00.000Z</time>
      </trkpt>
      <trkpt lat="49.53888" lon="-1.33495">
        <ele>28.110412</ele>
        <time>2022-07-31T11:57:01.000Z</time>
      </trkpt>
      <trkpt lat="49.53884" lon="-1.33494">
        <ele>28.07668</ele>
        <time>2022-07-31T11:57:02.000Z</time>
      </trkpt>
      <trkpt lat="49.53879" lon="-1.33492">
        <ele>28.042341</ele>
        <time>2022-07-31T11:57:03.000Z</time>
      </trkpt>
      <trkpt lat="49.53875" lon="-1.3349">
        <ele>28.012834</ele>
        <time>2022-07-31T11:57:04.000Z</time>
      </trkpt>
      <trkpt lat="49.53872" lon="-1.33487">
        <ele>27.986114</ele>
        <time>2022-07-31T11:57:05.000Z</time>
      </trkpt>
      <trkpt lat="49.53869" lon="-1.33483">
        <ele>27.953349</ele>
        <time>2022-07-31T11:57:06.000Z</time>
      </trkpt>
      <trkpt lat="49.53866" lon="-1.33479">
        <ele>27.925179</ele>
        <time>2022-07-31T11:57:07.000Z</time>
      </trkpt>
      <trkpt lat="49.53864" lon="-1.33474">
        <ele>27.896619</ele>
        <time>2022-07-31T11:57:08.000Z</time>
      </trkpt>
      <trkpt lat="49.53862" lon="-1.33469">
        <ele>27.868432</ele>
        <time>2022-07-31T11:57:09.000Z</time>
      </trkpt>
      <trkpt lat="49.53861" lon="-1.33464">
        <ele>27.841723</ele>
        <time>2022-07-31T11:57:10.000Z</time>
      </trkpt>
      <trkpt lat="49.53859" lon="-1.33458">
        <ele>27.815013</ele>
        <time>2022-07-31T11:57:11.000Z</time>
      </trkpt>
      <trkpt lat="49.53859" lon="-1.33453">
        <ele>27.790945</ele>
        <time>2022-07-31T11:57:12.000Z</time>
      </trkpt>
      <trkpt lat="49.53859" lon="-1.33448">
        <ele>27.764013</ele>
        <time>2022-07-31T11:57:13.000Z</time>
      </trkpt>
      <trkpt lat="49.53858" lon="-1.33442">
        <ele>27.735579</ele>
        <time>2022-07-31T11:57:14.000Z</time>
      </trkpt>
      <trkpt lat="49.53858" lon="-1.33436">
        <ele>27.708738</ele>
        <time>2022-07-31T11:57:15.000Z</time>
      </trkpt>
      <trkpt lat="49.53858" lon="-1.33431">
        <ele>27.682063</ele>
        <time>2022-07-31T11:57:16.000Z</time>
      </trkpt>
      <trkpt lat="49.53858" lon="-1.33425">
        <ele>27.648459</ele>
        <time>2022-07-31T11:57:17.000Z</time>
      </trkpt>
      <trkpt lat="49.53858" lon="-1.33419">
        <ele>27.612578</ele>
        <time>2022-07-31T11:57:18.000Z</time>
      </trkpt>
      <trkpt lat="49.53858" lon="-1.33412">
        <ele>27.576696</ele>
        <time>2022-07-31T11:57:19.000Z</time>
      </trkpt>
      <trkpt lat="49.53858" lon="-1.33406">
        <ele>27.539676</ele>
        <time>2022-07-31T11:57:20.000Z</time>
      </trkpt>
      <trkpt lat="49.53858" lon="-1.334">
        <ele>27.504364</ele>
        <time>2022-07-31T11:57:21.000Z</time>
      </trkpt>
      <trkpt lat="49.53858" lon="-1.33394">
        <ele>27.47009</ele>
        <time>2022-07-31T11:57:22.000Z</time>
      </trkpt>
      <trkpt lat="49.53858" lon="-1.33387">
        <ele>27.434778</ele>
        <time>2022-07-31T11:57:23.000Z</time>
      </trkpt>
      <trkpt lat="49.53858" lon="-1.33381">
        <ele>27.400035</ele>
        <time>2022-07-31T11:57:24.000Z</time>
      </trkpt>
      <trkpt lat="49.53858" lon="-1.33375">
        <ele>27.365863</ele>
        <time>2022-07-31T11:57:25.000Z</time>
      </trkpt>
      <trkpt lat="49.53858" lon="-1.33369">
        <ele>27.33169</ele>
        <time>2022-07-31T11:57:26.000Z</time>
      </trkpt>
      <trkpt lat="49.53858" lon="-1.33363">
        <ele>27.295144</ele>
        <time>2022-07-31T11:57:27.000Z</time>
      </trkpt>
      <trkpt lat="49.53858" lon="-1.33357">
        <ele>27.260401</ele>
        <time>2022-07-31T11:57:28.000Z</time>
      </trkpt>
      <trkpt lat="49.53858" lon="-1.3335">
        <ele>27.22395</ele>
        <time>2022-07-31T11:57:29.000Z</time>
      </trkpt>
      <trkpt lat="49.53858" lon="-1.33344">
        <ele>27.188069</ele>
        <time>2022-07-31T11:57:30.000Z</time>
      </trkpt>
      <trkpt lat="49.53858" lon="-1.33338">
        <ele>27.151048</ele>
        <time>2022-07-31T11:57:31.000Z</time>
      </trkpt>
      <trkpt lat="49.53858" lon="-1.33331">
        <ele>27.115167</ele>
        <time>2022-07-31T11:57:32.000Z</time>
      </trkpt>
      <trkpt lat="49.53858" lon="-1.33325">
        <ele>27.077007</ele>
        <time>2022-07-31T11:57:33.000Z</time>
      </trkpt>
      <trkpt lat="49.53858" lon="-1.33318">
        <ele>27.038278</ele>
        <time>2022-07-31T11:57:34.000Z</time>
      </trkpt>
      <trkpt lat="49.53858" lon="-1.33311">
        <ele>26.99727</ele>
        <time>2022-07-31T11:57:35.000Z</time>
      </trkpt>
      <trkpt lat="49.53858" lon="-1.33303">
        <ele>26.955693</ele>
        <time>2022-07-31T11:57:36.000Z</time>
      </trkpt>
      <trkpt lat="49.53858" lon="-1.33296">
        <ele>26.913547</ele>
        <time>2022-07-31T11:57:37.000Z</time>
      </trkpt>
      <trkpt lat="49.53858" lon="-1.33288">
        <ele>26.870831</ele>
        <time>2022-07-31T11:57:38.000Z</time>
      </trkpt>
      <trkpt lat="49.53858" lon="-1.33281">
        <ele>26.830393</ele>
        <time>2022-07-31T11:57:39.000Z</time>
      </trkpt>
      <trkpt lat="49.53859" lon="-1.33274">
        <ele>26.787533</ele>
        <time>2022-07-31T11:57:40.000Z</time>
      </trkpt>
      <trkpt lat="49.53859" lon="-1.33266">
        <ele>26.744736</ele>
        <time>2022-07-31T11:57:41.000Z</time>
      </trkpt>
      <trkpt lat="49.53859" lon="-1.33259">
        <ele>26.703644</ele>
        <time>2022-07-31T11:57:42.000Z</time>
      </trkpt>
      <trkpt lat="49.53859" lon="-1.33252">
        <ele>26.664825</ele>
        <time>2022-07-31T11:57:43.000Z</time>
      </trkpt>
      <trkpt lat="49.53859" lon="-1.33245">
        <ele>26.622028</ele>
        <time>2022-07-31T11:57:44.000Z</time>
      </trkpt>
      <trkpt lat="49.53859" lon="-1.33237">
        <ele>26.579882</ele>
        <time>2022-07-31T11:57:45.000Z</time>
      </trkpt>
      <trkpt lat="49.53858" lon="-1.3323">
        <ele>26.536454</ele>
        <time>2022-07-31T11:57:46.000Z</time>
      </trkpt>
      <trkpt lat="49.53858" lon="-1.33222">
        <ele>26.493738</ele>
        <time>2022-07-31T11:57:47.000Z</time>
      </trkpt>
      <trkpt lat="49.53858" lon="-1.33215">
        <ele>26.45273</ele>
        <time>2022-07-31T11:57:48.000Z</time>
      </trkpt>
      <trkpt lat="49.53859" lon="-1.33208">
        <ele>26.411006</ele>
        <time>2022-07-31T11:57:49.000Z</time>
      </trkpt>
      <trkpt lat="49.53859" lon="-1.332">
        <ele>26.368859</ele>
        <time>2022-07-31T11:57:50.000Z</time>
      </trkpt>
      <trkpt lat="49.53858" lon="-1.33193">
        <ele>26.328269</ele>
        <time>2022-07-31T11:57:51.000Z</time>
      </trkpt>
      <trkpt lat="49.53858" lon="-1.33186">
        <ele>26.287262</ele>
        <time>2022-07-31T11:57:52.000Z</time>
      </trkpt>
      <trkpt lat="49.53858" lon="-1.33179">
        <ele>26.247393</ele>
        <time>2022-07-31T11:57:53.000Z</time>
      </trkpt>
      <trkpt lat="49.53858" lon="-1.33172">
        <ele>26.208664</ele>
        <time>2022-07-31T11:57:54.000Z</time>
      </trkpt>
      <trkpt lat="49.53858" lon="-1.33165">
        <ele>26.169365</ele>
        <time>2022-07-31T11:57:55.000Z</time>
      </trkpt>
      <trkpt lat="49.53859" lon="-1.33159">
        <ele>26.131612</ele>
        <time>2022-07-31T11:57:56.000Z</time>
      </trkpt>
      <trkpt lat="49.53859" lon="-1.33152">
        <ele>26.091799</ele>
        <time>2022-07-31T11:57:57.000Z</time>
      </trkpt>
      <trkpt lat="49.53859" lon="-1.33146">
        <ele>26.045965</ele>
        <time>2022-07-31T11:57:58.000Z</time>
      </trkpt>
      <trkpt lat="49.53859" lon="-1.3314">
        <ele>26.000725</ele>
        <time>2022-07-31T11:57:59.000Z</time>
      </trkpt>
      <trkpt lat="49.53859" lon="-1.33133">
        <ele>25.956199</ele>
        <time>2022-07-31T11:58:00.000Z</time>
      </trkpt>
      <trkpt lat="49.53859" lon="-1.33127">
        <ele>25.912513</ele>
        <time>2022-07-31T11:58:01.000Z</time>
      </trkpt>
      <trkpt lat="49.53859" lon="-1.33121">
        <ele>25.870259</ele>
        <time>2022-07-31T11:58:02.000Z</time>
      </trkpt>
      <trkpt lat="49.53859" lon="-1.33116">
        <ele>25.83087</ele>
        <time>2022-07-31T11:58:03.000Z</time>
      </trkpt>
      <trkpt lat="49.53859" lon="-1.3311">
        <ele>25.790765</ele>
        <time>2022-07-31T11:58:04.000Z</time>
      </trkpt>
      <trkpt lat="49.53859" lon="-1.33105">
        <ele>25.752092</ele>
        <time>2022-07-31T11:58:05.000Z</time>
      </trkpt>
      <trkpt lat="49.5386" lon="-1.33099">
        <ele>25.711186</ele>
        <time>2022-07-31T11:58:06.000Z</time>
      </trkpt>
      <trkpt lat="49.53861" lon="-1.33094">
        <ele>25.671658</ele>
        <time>2022-07-31T11:58:07.000Z</time>
      </trkpt>
      <trkpt lat="49.53861" lon="-1.33088">
        <ele>25.632268</ele>
        <time>2022-07-31T11:58:08.000Z</time>
      </trkpt>
      <trkpt lat="49.53861" lon="-1.33082">
        <ele>25.589298</ele>
        <time>2022-07-31T11:58:09.000Z</time>
      </trkpt>
      <trkpt lat="49.5386" lon="-1.33076">
        <ele>25.545487</ele>
        <time>2022-07-31T11:58:10.000Z</time>
      </trkpt>
      <trkpt lat="49.5386" lon="-1.3307">
        <ele>25.500866</ele>
        <time>2022-07-31T11:58:11.000Z</time>
      </trkpt>
      <trkpt lat="49.5386" lon="-1.33064">
        <ele>25.456245</ele>
        <time>2022-07-31T11:58:12.000Z</time>
      </trkpt>
      <trkpt lat="49.53861" lon="-1.33058">
        <ele>25.412433</ele>
        <time>2022-07-31T11:58:13.000Z</time>
      </trkpt>
      <trkpt lat="49.53861" lon="-1.33052">
        <ele>25.368031</ele>
        <time>2022-07-31T11:58:14.000Z</time>
      </trkpt>
      <trkpt lat="49.53861" lon="-1.33045">
        <ele>25.323628</ele>
        <time>2022-07-31T11:58:15.000Z</time>
      </trkpt>
      <trkpt lat="49.5386" lon="-1.3304">
        <ele>25.283387</ele>
        <time>2022-07-31T11:58:16.000Z</time>
      </trkpt>
      <trkpt lat="49.53861" lon="-1.33034">
        <ele>25.243859</ele>
        <time>2022-07-31T11:58:17.000Z</time>
      </trkpt>
      <trkpt lat="49.53861" lon="-1.33028">
        <ele>25.201605</ele>
        <time>2022-07-31T11:58:18.000Z</time>
      </trkpt>
      <trkpt lat="49.53861" lon="-1.33023">
        <ele>25.162077</ele>
        <time>2022-07-31T11:58:19.000Z</time>
      </trkpt>
      <trkpt lat="49.53861" lon="-1.33017">
        <ele>25.118391</ele>
        <time>2022-07-31T11:58:20.000Z</time>
      </trkpt>
      <trkpt lat="49.53861" lon="-1.3301">
        <ele>25.072437</ele>
        <time>2022-07-31T11:58:21.000Z</time>
      </trkpt>
      <trkpt lat="49.53861" lon="-1.33004">
        <ele>25.025054</ele>
        <time>2022-07-31T11:58:22.000Z</time>
      </trkpt>
      <trkpt lat="49.53861" lon="-1.32997">
        <ele>24.975638</ele>
        <time>2022-07-31T11:58:23.000Z</time>
      </trkpt>
      <trkpt lat="49.53861" lon="-1.3299">
        <ele>24.925397</ele>
        <time>2022-07-31T11:58:24.000Z</time>
      </trkpt>
      <trkpt lat="49.53861" lon="-1.32983">
        <ele>24.876586</ele>
        <time>2022-07-31T11:58:25.000Z</time>
      </trkpt>
      <trkpt lat="49.53861" lon="-1.32976">
        <ele>24.827886</ele>
        <time>2022-07-31T11:58:26.000Z</time>
      </trkpt>
      <trkpt lat="49.53861" lon="-1.32969">
        <ele>24.77836</ele>
        <time>2022-07-31T11:58:27.000Z</time>
      </trkpt>
      <trkpt lat="49.53861" lon="-1.32963">
        <ele>24.731093</ele>
        <time>2022-07-31T11:58:28.000Z</time>
      </trkpt>
      <trkpt lat="49.53861" lon="-1.32956">
        <ele>24.681678</ele>
        <time>2022-07-31T11:58:29.000Z</time>
      </trkpt>
      <trkpt lat="49.5386" lon="-1.32949">
        <ele>24.632866</ele>
        <time>2022-07-31T11:58:30.000Z</time>
      </trkpt>
      <trkpt lat="49.5386" lon="-1.32942">
        <ele>24.583967</ele>
        <time>2022-07-31T11:58:31.000Z</time>
      </trkpt>
      <trkpt lat="49.5386" lon="-1.32935">
        <ele>24.534551</ele>
        <time>2022-07-31T11:58:32.000Z</time>
      </trkpt>
      <trkpt lat="49.5386" lon="-1.32928">
        <ele>24.48442</ele>
        <time>2022-07-31T11:58:33.000Z</time>
      </trkpt>
      <trkpt lat="49.5386" lon="-1.32921">
        <ele>24.434094</ele>
        <time>2022-07-31T11:58:34.000Z</time>
      </trkpt>
      <trkpt lat="49.53861" lon="-1.32914">
        <ele>24.383139</ele>
        <time>2022-07-31T11:58:35.000Z</time>
      </trkpt>
      <trkpt lat="49.5386" lon="-1.32907">
        <ele>24.331468</ele>
        <time>2022-07-31T11:58:36.000Z</time>
      </trkpt>
      <trkpt lat="49.5386" lon="-1.329">
        <ele>24.279904</ele>
        <time>2022-07-31T11:58:37.000Z</time>
      </trkpt>
      <trkpt lat="49.5386" lon="-1.32893">
        <ele>24.227624</ele>
        <time>2022-07-31T11:58:38.000Z</time>
      </trkpt>
      <trkpt lat="49.5386" lon="-1.32885">
        <ele>24.17606</ele>
        <time>2022-07-31T11:58:39.000Z</time>
      </trkpt>
      <trkpt lat="49.5386" lon="-1.32878">
        <ele>24.122348</ele>
        <time>2022-07-31T11:58:40.000Z</time>
      </trkpt>
      <trkpt lat="49.5386" lon="-1.3287">
        <ele>24.010538</ele>
        <time>2022-07-31T11:58:41.000Z</time>
      </trkpt>
      <trkpt lat="49.5386" lon="-1.32863">
        <ele>23.903674</ele>
        <time>2022-07-31T11:58:42.000Z</time>
      </trkpt>
      <trkpt lat="49.5386" lon="-1.32855">
        <ele>23.790995</ele>
        <time>2022-07-31T11:58:43.000Z</time>
      </trkpt>
      <trkpt lat="49.5386" lon="-1.32847">
        <ele>23.6743</ele>
        <time>2022-07-31T11:58:44.000Z</time>
      </trkpt>
      <trkpt lat="49.5386" lon="-1.32839">
        <ele>23.553229</ele>
        <time>2022-07-31T11:58:45.000Z</time>
      </trkpt>
      <trkpt lat="49.5386" lon="-1.32829">
        <ele>23.408538</ele>
        <time>2022-07-31T11:58:46.000Z</time>
      </trkpt>
      <trkpt lat="49.5386" lon="-1.32822">
        <ele>23.309347</ele>
        <time>2022-07-31T11:58:47.000Z</time>
      </trkpt>
      <trkpt lat="49.53859" lon="-1.32814">
        <ele>23.187527</ele>
        <time>2022-07-31T11:58:48.000Z</time>
      </trkpt>
      <trkpt lat="49.53859" lon="-1.32806">
        <ele>23.067914</ele>
        <time>2022-07-31T11:58:49.000Z</time>
      </trkpt>
      <trkpt lat="49.53859" lon="-1.32797">
        <ele>22.941008</ele>
        <time>2022-07-31T11:58:50.000Z</time>
      </trkpt>
      <trkpt lat="49.5386" lon="-1.32786">
        <ele>22.787252</ele>
        <time>2022-07-31T11:58:51.000Z</time>
      </trkpt>
      <trkpt lat="49.5386" lon="-1.32777">
        <ele>22.655662</ele>
        <time>2022-07-31T11:58:52.000Z</time>
      </trkpt>
      <trkpt lat="49.5386" lon="-1.3277">
        <ele>22.553554</ele>
        <time>2022-07-31T11:58:53.000Z</time>
      </trkpt>
      <trkpt lat="49.5386" lon="-1.3276">
        <ele>22.395759</ele>
        <time>2022-07-31T11:58:54.000Z</time>
      </trkpt>
      <trkpt lat="49.53859" lon="-1.32751">
        <ele>22.263786</ele>
        <time>2022-07-31T11:58:55.000Z</time>
      </trkpt>
      <trkpt lat="49.53859" lon="-1.32743">
        <ele>22.157301</ele>
        <time>2022-07-31T11:58:56.000Z</time>
      </trkpt>
      <trkpt lat="49.53859" lon="-1.32734">
        <ele>22.026019</ele>
        <time>2022-07-31T11:58:57.000Z</time>
      </trkpt>
      <trkpt lat="49.53859" lon="-1.32723">
        <ele>21.867021</ele>
        <time>2022-07-31T11:58:58.000Z</time>
      </trkpt>
      <trkpt lat="49.53859" lon="-1.32716">
        <ele>21.760323</ele>
        <time>2022-07-31T11:58:59.000Z</time>
      </trkpt>
      <trkpt lat="49.53859" lon="-1.32707">
        <ele>21.631781</ele>
        <time>2022-07-31T11:59:00.000Z</time>
      </trkpt>
      <trkpt lat="49.53859" lon="-1.32699">
        <ele>21.507792</ele>
        <time>2022-07-31T11:59:01.000Z</time>
      </trkpt>
      <trkpt lat="49.53859" lon="-1.3269">
        <ele>21.37651</ele>
        <time>2022-07-31T11:59:02.000Z</time>
      </trkpt>
      <trkpt lat="49.53859" lon="-1.32681">
        <ele>21.245054</ele>
        <time>2022-07-31T11:59:03.000Z</time>
      </trkpt>
      <trkpt lat="49.53859" lon="-1.32672">
        <ele>21.120882</ele>
        <time>2022-07-31T11:59:04.000Z</time>
      </trkpt>
      <trkpt lat="49.53861" lon="-1.32664">
        <ele>20.990655</ele>
        <time>2022-07-31T11:59:05.000Z</time>
      </trkpt>
      <trkpt lat="49.53862" lon="-1.32655">
        <ele>20.867525</ele>
        <time>2022-07-31T11:59:06.000Z</time>
      </trkpt>
      <trkpt lat="49.53863" lon="-1.32648">
        <ele>20.751962</ele>
        <time>2022-07-31T11:59:07.000Z</time>
      </trkpt>
      <trkpt lat="49.53864" lon="-1.3264">
        <ele>20.638725</ele>
        <time>2022-07-31T11:59:08.000Z</time>
      </trkpt>
      <trkpt lat="49.53865" lon="-1.32633">
        <ele>20.528304</ele>
        <time>2022-07-31T11:59:09.000Z</time>
      </trkpt>
      <trkpt lat="49.53867" lon="-1.32626">
        <ele>20.420047</ele>
        <time>2022-07-31T11:59:10.000Z</time>
      </trkpt>
      <trkpt lat="49.53868" lon="-1.32619">
        <ele>20.318039</ele>
        <time>2022-07-31T11:59:11.000Z</time>
      </trkpt>
      <trkpt lat="49.53869" lon="-1.32613">
        <ele>20.23105</ele>
        <time>2022-07-31T11:59:12.000Z</time>
      </trkpt>
      <trkpt lat="49.5387" lon="-1.32608">
        <ele>20.152479</ele>
        <time>2022-07-31T11:59:13.000Z</time>
      </trkpt>
      <trkpt lat="49.53871" lon="-1.32604">
        <ele>20.089748</ele>
        <time>2022-07-31T11:59:14.000Z</time>
      </trkpt>
      <trkpt lat="49.53872" lon="-1.326">
        <ele>20.011344</ele>
        <time>2022-07-31T11:59:15.000Z</time>
      </trkpt>
      <trkpt lat="49.53874" lon="-1.32597">
        <ele>19.930772</ele>
        <time>2022-07-31T11:59:16.000Z</time>
      </trkpt>
      <trkpt lat="49.53874" lon="-1.32593">
        <ele>19.857741</ele>
        <time>2022-07-31T11:59:17.000Z</time>
      </trkpt>
      <trkpt lat="49.53875" lon="-1.32589">
        <ele>19.784509</ele>
        <time>2022-07-31T11:59:18.000Z</time>
      </trkpt>
      <trkpt lat="49.53876" lon="-1.32586">
        <ele>19.713334</ele>
        <time>2022-07-31T11:59:19.000Z</time>
      </trkpt>
      <trkpt lat="49.53876" lon="-1.32582">
        <ele>19.64528</ele>
        <time>2022-07-31T11:59:20.000Z</time>
      </trkpt>
      <trkpt lat="49.53877" lon="-1.32579">
        <ele>19.573876</ele>
        <time>2022-07-31T11:59:21.000Z</time>
      </trkpt>
      <trkpt lat="49.53877" lon="-1.32575">
        <ele>19.510092</ele>
        <time>2022-07-31T11:59:22.000Z</time>
      </trkpt>
      <trkpt lat="49.53878" lon="-1.32573">
        <ele>19.453854</ele>
        <time>2022-07-31T11:59:23.000Z</time>
      </trkpt>
      <trkpt lat="49.5388" lon="-1.32569">
        <ele>19.357378</ele>
        <time>2022-07-31T11:59:25.000Z</time>
      </trkpt>
      <trkpt lat="49.53881" lon="-1.32565">
        <ele>19.280625</ele>
        <time>2022-07-31T11:59:27.000Z</time>
      </trkpt>
      <trkpt lat="49.53882" lon="-1.32563">
        <ele>19.222167</ele>
        <time>2022-07-31T11:59:29.000Z</time>
      </trkpt>
      <trkpt lat="49.53886" lon="-1.32552">
        <ele>18.977666</ele>
        <time>2022-07-31T11:59:42.000Z</time>
      </trkpt>
      <trkpt lat="49.53886" lon="-1.32548">
        <ele>18.912039</ele>
        <time>2022-07-31T11:59:43.000Z</time>
      </trkpt>
      <trkpt lat="49.53888" lon="-1.32543">
        <ele>18.805329</ele>
        <time>2022-07-31T11:59:44.000Z</time>
      </trkpt>
      <trkpt lat="49.53889" lon="-1.32538">
        <ele>18.71149</ele>
        <time>2022-07-31T11:59:45.000Z</time>
      </trkpt>
      <trkpt lat="49.5389" lon="-1.32534">
        <ele>18.624107</ele>
        <time>2022-07-31T11:59:46.000Z</time>
      </trkpt>
      <trkpt lat="49.53892" lon="-1.32529">
        <ele>18.508687</ele>
        <time>2022-07-31T11:59:47.000Z</time>
      </trkpt>
      <trkpt lat="49.53893" lon="-1.32522">
        <ele>18.378439</ele>
        <time>2022-07-31T11:59:48.000Z</time>
      </trkpt>
      <trkpt lat="49.53894" lon="-1.32515">
        <ele>18.238127</ele>
        <time>2022-07-31T11:59:49.000Z</time>
      </trkpt>
      <trkpt lat="49.53896" lon="-1.32508">
        <ele>18.087512</ele>
        <time>2022-07-31T11:59:50.000Z</time>
      </trkpt>
      <trkpt lat="49.53898" lon="-1.32501">
        <ele>17.936331</ele>
        <time>2022-07-31T11:59:51.000Z</time>
      </trkpt>
      <trkpt lat="49.539" lon="-1.32493">
        <ele>17.774011</ele>
        <time>2022-07-31T11:59:52.000Z</time>
      </trkpt>
      <trkpt lat="49.53902" lon="-1.32483">
        <ele>17.579051</ele>
        <time>2022-07-31T11:59:53.000Z</time>
      </trkpt>
      <trkpt lat="49.53904" lon="-1.32476">
        <ele>17.438739</ele>
        <time>2022-07-31T11:59:54.000Z</time>
      </trkpt>
      <trkpt lat="49.53906" lon="-1.32468">
        <ele>17.264772</ele>
        <time>2022-07-31T11:59:55.000Z</time>
      </trkpt>
      <trkpt lat="49.53908" lon="-1.32459">
        <ele>17.088992</ele>
        <time>2022-07-31T11:59:56.000Z</time>
      </trkpt>
      <trkpt lat="49.5391" lon="-1.32451">
        <ele>16.91264</ele>
        <time>2022-07-31T11:59:57.000Z</time>
      </trkpt>
      <trkpt lat="49.53912" lon="-1.3244">
        <ele>16.697705</ele>
        <time>2022-07-31T11:59:58.000Z</time>
      </trkpt>
      <trkpt lat="49.53914" lon="-1.32433">
        <ele>16.547091</ele>
        <time>2022-07-31T11:59:59.000Z</time>
      </trkpt>
      <trkpt lat="49.53917" lon="-1.32423">
        <ele>16.356508</ele>
        <time>2022-07-31T12:00:00.000Z</time>
      </trkpt>
      <trkpt lat="49.53919" lon="-1.32414">
        <ele>16.163354</ele>
        <time>2022-07-31T12:00:01.000Z</time>
      </trkpt>
      <trkpt lat="49.53922" lon="-1.32402">
        <ele>15.927095</ele>
        <time>2022-07-31T12:00:02.000Z</time>
      </trkpt>
      <trkpt lat="49.53924" lon="-1.32393">
        <ele>15.730329</ele>
        <time>2022-07-31T12:00:03.000Z</time>
      </trkpt>
      <trkpt lat="49.53925" lon="-1.32385">
        <ele>15.575506</ele>
        <time>2022-07-31T12:00:04.000Z</time>
      </trkpt>
      <trkpt lat="49.53927" lon="-1.32375">
        <ele>15.384254</ele>
        <time>2022-07-31T12:00:05.000Z</time>
      </trkpt>
      <trkpt lat="49.5393" lon="-1.32364">
        <ele>15.15834</ele>
        <time>2022-07-31T12:00:06.000Z</time>
      </trkpt>
      <trkpt lat="49.53931" lon="-1.32357">
        <ele>15.01547</ele>
        <time>2022-07-31T12:00:07.000Z</time>
      </trkpt>
      <trkpt lat="49.53933" lon="-1.32348">
        <ele>14.834237</ele>
        <time>2022-07-31T12:00:08.000Z</time>
      </trkpt>
      <trkpt lat="49.53934" lon="-1.32339">
        <ele>14.732525</ele>
        <time>2022-07-31T12:00:09.000Z</time>
      </trkpt>
      <trkpt lat="49.53936" lon="-1.3233">
        <ele>14.673158</ele>
        <time>2022-07-31T12:00:10.000Z</time>
      </trkpt>
      <trkpt lat="49.53937" lon="-1.32322">
        <ele>14.616313</ele>
        <time>2022-07-31T12:00:11.000Z</time>
      </trkpt>
      <trkpt lat="49.53939" lon="-1.32312">
        <ele>14.549164</ele>
        <time>2022-07-31T12:00:12.000Z</time>
      </trkpt>
      <trkpt lat="49.5394" lon="-1.32306">
        <ele>14.505307</ele>
        <time>2022-07-31T12:00:13.000Z</time>
      </trkpt>
      <trkpt lat="49.53942" lon="-1.32298">
        <ele>14.450348</ele>
        <time>2022-07-31T12:00:14.000Z</time>
      </trkpt>
      <trkpt lat="49.53944" lon="-1.3229">
        <ele>14.395035</ele>
        <time>2022-07-31T12:00:15.000Z</time>
      </trkpt>
      <trkpt lat="49.53945" lon="-1.3228">
        <ele>14.330599</ele>
        <time>2022-07-31T12:00:16.000Z</time>
      </trkpt>
      <trkpt lat="49.53947" lon="-1.32273">
        <ele>14.277729</ele>
        <time>2022-07-31T12:00:17.000Z</time>
      </trkpt>
      <trkpt lat="49.53948" lon="-1.32267">
        <ele>14.236509</ele>
        <time>2022-07-31T12:00:18.000Z</time>
      </trkpt>
      <trkpt lat="49.53949" lon="-1.32259">
        <ele>14.185544</ele>
        <time>2022-07-31T12:00:19.000Z</time>
      </trkpt>
      <trkpt lat="49.53951" lon="-1.3225">
        <ele>14.12326</ele>
        <time>2022-07-31T12:00:20.000Z</time>
      </trkpt>
      <trkpt lat="49.53953" lon="-1.32243">
        <ele>14.069177</ele>
        <time>2022-07-31T12:00:21.000Z</time>
      </trkpt>
      <trkpt lat="49.53954" lon="-1.32235">
        <ele>14.017812</ele>
        <time>2022-07-31T12:00:22.000Z</time>
      </trkpt>
      <trkpt lat="49.53955" lon="-1.32228">
        <ele>13.973955</ele>
        <time>2022-07-31T12:00:23.000Z</time>
      </trkpt>
      <trkpt lat="49.53956" lon="-1.32221">
        <ele>13.921757</ele>
        <time>2022-07-31T12:00:24.000Z</time>
      </trkpt>
      <trkpt lat="49.53957" lon="-1.32213">
        <ele>13.869129</ele>
        <time>2022-07-31T12:00:25.000Z</time>
      </trkpt>
      <trkpt lat="49.53959" lon="-1.32204">
        <ele>13.806674</ele>
        <time>2022-07-31T12:00:26.000Z</time>
      </trkpt>
      <trkpt lat="49.5396" lon="-1.32198">
        <ele>13.764964</ele>
        <time>2022-07-31T12:00:27.000Z</time>
      </trkpt>
      <trkpt lat="49.53962" lon="-1.3219">
        <ele>13.712729</ele>
        <time>2022-07-31T12:00:28.000Z</time>
      </trkpt>
      <trkpt lat="49.53963" lon="-1.32182">
        <ele>13.661818</ele>
        <time>2022-07-31T12:00:29.000Z</time>
      </trkpt>
      <trkpt lat="49.53964" lon="-1.32175">
        <ele>13.61061</ele>
        <time>2022-07-31T12:00:30.000Z</time>
      </trkpt>
      <trkpt lat="49.53965" lon="-1.32166">
        <ele>13.552859</ele>
        <time>2022-07-31T12:00:31.000Z</time>
      </trkpt>
      <trkpt lat="49.53966" lon="-1.32161">
        <ele>13.514094</ele>
        <time>2022-07-31T12:00:32.000Z</time>
      </trkpt>
      <trkpt lat="49.53968" lon="-1.32154">
        <ele>13.466607</ele>
        <time>2022-07-31T12:00:33.000Z</time>
      </trkpt>
      <trkpt lat="49.5397" lon="-1.32147">
        <ele>13.419736</ele>
        <time>2022-07-31T12:00:34.000Z</time>
      </trkpt>
      <trkpt lat="49.53971" lon="-1.32141">
        <ele>13.37588</ele>
        <time>2022-07-31T12:00:35.000Z</time>
      </trkpt>
      <trkpt lat="49.53972" lon="-1.32134">
        <ele>13.328347</ele>
        <time>2022-07-31T12:00:36.000Z</time>
      </trkpt>
      <trkpt lat="49.53972" lon="-1.32127">
        <ele>13.282213</ele>
        <time>2022-07-31T12:00:37.000Z</time>
      </trkpt>
      <trkpt lat="49.53972" lon="-1.3212">
        <ele>13.23757</ele>
        <time>2022-07-31T12:00:38.000Z</time>
      </trkpt>
      <trkpt lat="49.53971" lon="-1.32113">
        <ele>13.192543</ele>
        <time>2022-07-31T12:00:39.000Z</time>
      </trkpt>
      <trkpt lat="49.53968" lon="-1.32108">
        <ele>13.147029</ele>
        <time>2022-07-31T12:00:40.000Z</time>
      </trkpt>
      <trkpt lat="49.53964" lon="-1.32105">
        <ele>13.099627</ele>
        <time>2022-07-31T12:00:41.000Z</time>
      </trkpt>
      <trkpt lat="49.53958" lon="-1.32103">
        <ele>13.047099</ele>
        <time>2022-07-31T12:00:42.000Z</time>
      </trkpt>
      <trkpt lat="49.53954" lon="-1.32103">
        <ele>12.998254</ele>
        <time>2022-07-31T12:00:43.000Z</time>
      </trkpt>
      <trkpt lat="49.53948" lon="-1.32102">
        <ele>12.958643</ele>
        <time>2022-07-31T12:00:44.000Z</time>
      </trkpt>
      <trkpt lat="49.53942" lon="-1.32101">
        <ele>13.007153</ele>
        <time>2022-07-31T12:00:45.000Z</time>
      </trkpt>
      <trkpt lat="49.53936" lon="-1.321">
        <ele>13.05424</ele>
        <time>2022-07-31T12:00:46.000Z</time>
      </trkpt>
      <trkpt lat="49.53931" lon="-1.321">
        <ele>13.097961</ele>
        <time>2022-07-31T12:00:47.000Z</time>
      </trkpt>
      <trkpt lat="49.53925" lon="-1.32099">
        <ele>13.147354</ele>
        <time>2022-07-31T12:00:48.000Z</time>
      </trkpt>
      <trkpt lat="49.53918" lon="-1.32098">
        <ele>13.196639</ele>
        <time>2022-07-31T12:00:49.000Z</time>
      </trkpt>
      <trkpt lat="49.53913" lon="-1.32097">
        <ele>13.243854</ele>
        <time>2022-07-31T12:00:50.000Z</time>
      </trkpt>
      <trkpt lat="49.53907" lon="-1.32096">
        <ele>13.290507</ele>
        <time>2022-07-31T12:00:51.000Z</time>
      </trkpt>
      <trkpt lat="49.53902" lon="-1.32094">
        <ele>13.332606</ele>
        <time>2022-07-31T12:00:52.000Z</time>
      </trkpt>
      <trkpt lat="49.53897" lon="-1.32093">
        <ele>13.375109</ele>
        <time>2022-07-31T12:00:53.000Z</time>
      </trkpt>
      <trkpt lat="49.53892" lon="-1.32091">
        <ele>13.414342</ele>
        <time>2022-07-31T12:00:54.000Z</time>
      </trkpt>
      <trkpt lat="49.53887" lon="-1.32091">
        <ele>13.455701</ele>
        <time>2022-07-31T12:00:55.000Z</time>
      </trkpt>
      <trkpt lat="49.53882" lon="-1.32089">
        <ele>13.494934</ele>
        <time>2022-07-31T12:00:56.000Z</time>
      </trkpt>
      <trkpt lat="49.53877" lon="-1.32088">
        <ele>13.536413</ele>
        <time>2022-07-31T12:00:57.000Z</time>
      </trkpt>
      <trkpt lat="49.53872" lon="-1.32087">
        <ele>13.573173</ele>
        <time>2022-07-31T12:00:58.000Z</time>
      </trkpt>
      <trkpt lat="49.53867" lon="-1.32086">
        <ele>13.614798</ele>
        <time>2022-07-31T12:00:59.000Z</time>
      </trkpt>
      <trkpt lat="49.53863" lon="-1.32085">
        <ele>13.651643</ele>
        <time>2022-07-31T12:01:00.000Z</time>
      </trkpt>
      <trkpt lat="49.53858" lon="-1.32084">
        <ele>13.688085</ele>
        <time>2022-07-31T12:01:01.000Z</time>
      </trkpt>
      <trkpt lat="49.53853" lon="-1.32083">
        <ele>13.732104</ele>
        <time>2022-07-31T12:01:02.000Z</time>
      </trkpt>
      <trkpt lat="49.53849" lon="-1.32082">
        <ele>13.766392</ele>
        <time>2022-07-31T12:01:03.000Z</time>
      </trkpt>
      <trkpt lat="49.53845" lon="-1.32081">
        <ele>13.799735</ele>
        <time>2022-07-31T12:01:04.000Z</time>
      </trkpt>
      <trkpt lat="49.53839" lon="-1.32081">
        <ele>13.841045</ele>
        <time>2022-07-31T12:01:05.000Z</time>
      </trkpt>
      <trkpt lat="49.53835" lon="-1.3208">
        <ele>13.877445</ele>
        <time>2022-07-31T12:01:06.000Z</time>
      </trkpt>
      <trkpt lat="49.5383" lon="-1.3208">
        <ele>13.913786</ele>
        <time>2022-07-31T12:01:07.000Z</time>
      </trkpt>
      <trkpt lat="49.53826" lon="-1.3208">
        <ele>13.952516</ele>
        <time>2022-07-31T12:01:08.000Z</time>
      </trkpt>
      <trkpt lat="49.53821" lon="-1.3208">
        <ele>13.988826</ele>
        <time>2022-07-31T12:01:09.000Z</time>
      </trkpt>
      <trkpt lat="49.53816" lon="-1.3208">
        <ele>14.027556</ele>
        <time>2022-07-31T12:01:10.000Z</time>
      </trkpt>
      <trkpt lat="49.53812" lon="-1.3208">
        <ele>14.060635</ele>
        <time>2022-07-31T12:01:11.000Z</time>
      </trkpt>
      <trkpt lat="49.53807" lon="-1.3208">
        <ele>14.099419</ele>
        <time>2022-07-31T12:01:12.000Z</time>
      </trkpt>
      <trkpt lat="49.53803" lon="-1.3208">
        <ele>14.133308</ele>
        <time>2022-07-31T12:01:13.000Z</time>
      </trkpt>
      <trkpt lat="49.53799" lon="-1.32081">
        <ele>14.167211</ele>
        <time>2022-07-31T12:01:14.000Z</time>
      </trkpt>
      <trkpt lat="49.53795" lon="-1.3208">
        <ele>14.200306</ele>
        <time>2022-07-31T12:01:15.000Z</time>
      </trkpt>
      <trkpt lat="49.53791" lon="-1.32081">
        <ele>14.234293</ele>
        <time>2022-07-31T12:01:16.000Z</time>
      </trkpt>
      <trkpt lat="49.53787" lon="-1.32082">
        <ele>14.268292</ele>
        <time>2022-07-31T12:01:17.000Z</time>
      </trkpt>
      <trkpt lat="49.53782" lon="-1.32084">
        <ele>14.308276</ele>
        <time>2022-07-31T12:01:18.000Z</time>
      </trkpt>
      <trkpt lat="49.53777" lon="-1.32086">
        <ele>14.34621</ele>
        <time>2022-07-31T12:01:19.000Z</time>
      </trkpt>
      <trkpt lat="49.53773" lon="-1.32088">
        <ele>14.383855</ele>
        <time>2022-07-31T12:01:20.000Z</time>
      </trkpt>
      <trkpt lat="49.53768" lon="-1.3209">
        <ele>14.383156</ele>
        <time>2022-07-31T12:01:21.000Z</time>
      </trkpt>
      <trkpt lat="49.53764" lon="-1.32091">
        <ele>14.354683</ele>
        <time>2022-07-31T12:01:22.000Z</time>
      </trkpt>
      <trkpt lat="49.5376" lon="-1.32092">
        <ele>14.326595</ele>
        <time>2022-07-31T12:01:23.000Z</time>
      </trkpt>
      <trkpt lat="49.53755" lon="-1.32094">
        <ele>14.295255</ele>
        <time>2022-07-31T12:01:24.000Z</time>
      </trkpt>
      <trkpt lat="49.53752" lon="-1.32096">
        <ele>14.271153</ele>
        <time>2022-07-31T12:01:25.000Z</time>
      </trkpt>
      <trkpt lat="49.53748" lon="-1.32097">
        <ele>14.242416</ele>
        <time>2022-07-31T12:01:26.000Z</time>
      </trkpt>
      <trkpt lat="49.53743" lon="-1.32098">
        <ele>14.214676</ele>
        <time>2022-07-31T12:01:27.000Z</time>
      </trkpt>
      <trkpt lat="49.5374" lon="-1.321">
        <ele>14.188168</ele>
        <time>2022-07-31T12:01:28.000Z</time>
      </trkpt>
      <trkpt lat="49.53736" lon="-1.321">
        <ele>14.162658</ele>
        <time>2022-07-31T12:01:29.000Z</time>
      </trkpt>
      <trkpt lat="49.53732" lon="-1.32101">
        <ele>14.134633</ele>
        <time>2022-07-31T12:01:30.000Z</time>
      </trkpt>
      <trkpt lat="49.53728" lon="-1.32101">
        <ele>14.111304</ele>
        <time>2022-07-31T12:01:31.000Z</time>
      </trkpt>
      <trkpt lat="49.53725" lon="-1.32099">
        <ele>14.089352</ele>
        <time>2022-07-31T12:01:32.000Z</time>
      </trkpt>
      <trkpt lat="49.53722" lon="-1.32096">
        <ele>14.06607</ele>
        <time>2022-07-31T12:01:33.000Z</time>
      </trkpt>
      <trkpt lat="49.5372" lon="-1.32092">
        <ele>14.043568</ele>
        <time>2022-07-31T12:01:34.000Z</time>
      </trkpt>
      <trkpt lat="49.53719" lon="-1.32087">
        <ele>14.022424</ele>
        <time>2022-07-31T12:01:35.000Z</time>
      </trkpt>
      <trkpt lat="49.53719" lon="-1.32082">
        <ele>14.001228</ele>
        <time>2022-07-31T12:01:36.000Z</time>
      </trkpt>
      <trkpt lat="49.5372" lon="-1.32078">
        <ele>13.980446</ele>
        <time>2022-07-31T12:01:37.000Z</time>
      </trkpt>
      <trkpt lat="49.53721" lon="-1.32074">
        <ele>13.961094</ele>
        <time>2022-07-31T12:01:38.000Z</time>
      </trkpt>
      <trkpt lat="49.53722" lon="-1.3207">
        <ele>13.942781</ele>
        <time>2022-07-31T12:01:39.000Z</time>
      </trkpt>
      <trkpt lat="49.53723" lon="-1.32066">
        <ele>13.925444</ele>
        <time>2022-07-31T12:01:40.000Z</time>
      </trkpt>
      <trkpt lat="49.53724" lon="-1.32063">
        <ele>13.912689</ele>
        <time>2022-07-31T12:01:41.000Z</time>
      </trkpt>
      <trkpt lat="49.53725" lon="-1.32043">
        <ele>13.827215</ele>
        <time>2022-07-31T12:03:56.000Z</time>
      </trkpt>
      <trkpt lat="49.53725" lon="-1.32039">
        <ele>13.809368</ele>
        <time>2022-07-31T12:03:57.000Z</time>
      </trkpt>
      <trkpt lat="49.53726" lon="-1.32034">
        <ele>13.787665</ele>
        <time>2022-07-31T12:03:58.000Z</time>
      </trkpt>
      <trkpt lat="49.53727" lon="-1.32029">
        <ele>13.764199</ele>
        <time>2022-07-31T12:03:59.000Z</time>
      </trkpt>
      <trkpt lat="49.53728" lon="-1.32024">
        <ele>13.739492</ele>
        <time>2022-07-31T12:04:00.000Z</time>
      </trkpt>
      <trkpt lat="49.53729" lon="-1.32018">
        <ele>13.713115</ele>
        <time>2022-07-31T12:04:01.000Z</time>
      </trkpt>
      <trkpt lat="49.5373" lon="-1.32012">
        <ele>13.686056</ele>
        <time>2022-07-31T12:04:02.000Z</time>
      </trkpt>
      <trkpt lat="49.53731" lon="-1.32005">
        <ele>13.65716</ele>
        <time>2022-07-31T12:04:03.000Z</time>
      </trkpt>
      <trkpt lat="49.53731" lon="-1.31999">
        <ele>13.629404</ele>
        <time>2022-07-31T12:04:04.000Z</time>
      </trkpt>
      <trkpt lat="49.53732" lon="-1.31992">
        <ele>13.601005</ele>
        <time>2022-07-31T12:04:05.000Z</time>
      </trkpt>
      <trkpt lat="49.53733" lon="-1.31986">
        <ele>13.571688</ele>
        <time>2022-07-31T12:04:06.000Z</time>
      </trkpt>
      <trkpt lat="49.53734" lon="-1.31979">
        <ele>13.542793</ele>
        <time>2022-07-31T12:04:07.000Z</time>
      </trkpt>
      <trkpt lat="49.53735" lon="-1.31973">
        <ele>13.513197</ele>
        <time>2022-07-31T12:04:08.000Z</time>
      </trkpt>
      <trkpt lat="49.53735" lon="-1.31966">
        <ele>13.483415</ele>
        <time>2022-07-31T12:04:09.000Z</time>
      </trkpt>
      <trkpt lat="49.53736" lon="-1.31959">
        <ele>13.454159</ele>
        <time>2022-07-31T12:04:10.000Z</time>
      </trkpt>
      <trkpt lat="49.53737" lon="-1.31952">
        <ele>13.423999</ele>
        <time>2022-07-31T12:04:11.000Z</time>
      </trkpt>
      <trkpt lat="49.53738" lon="-1.31945">
        <ele>13.393457</ele>
        <time>2022-07-31T12:04:12.000Z</time>
      </trkpt>
      <trkpt lat="49.53739" lon="-1.31938">
        <ele>13.361963</ele>
        <time>2022-07-31T12:04:13.000Z</time>
      </trkpt>
      <trkpt lat="49.5374" lon="-1.31931">
        <ele>13.328971</ele>
        <time>2022-07-31T12:04:14.000Z</time>
      </trkpt>
      <trkpt lat="49.53741" lon="-1.31923">
        <ele>13.29581</ele>
        <time>2022-07-31T12:04:15.000Z</time>
      </trkpt>
      <trkpt lat="49.53742" lon="-1.31916">
        <ele>13.262606</ele>
        <time>2022-07-31T12:04:16.000Z</time>
      </trkpt>
      <trkpt lat="49.53743" lon="-1.31908">
        <ele>13.227089</ele>
        <time>2022-07-31T12:04:17.000Z</time>
      </trkpt>
      <trkpt lat="49.53744" lon="-1.319">
        <ele>13.143009</ele>
        <time>2022-07-31T12:04:18.000Z</time>
      </trkpt>
      <trkpt lat="49.53745" lon="-1.31892">
        <ele>12.935506</ele>
        <time>2022-07-31T12:04:19.000Z</time>
      </trkpt>
      <trkpt lat="49.53746" lon="-1.31884">
        <ele>12.740376</ele>
        <time>2022-07-31T12:04:20.000Z</time>
      </trkpt>
      <trkpt lat="49.53747" lon="-1.31876">
        <ele>12.540187</ele>
        <time>2022-07-31T12:04:21.000Z</time>
      </trkpt>
      <trkpt lat="49.53748" lon="-1.31869">
        <ele>12.355045</ele>
        <time>2022-07-31T12:04:22.000Z</time>
      </trkpt>
      <trkpt lat="49.53749" lon="-1.31862">
        <ele>12.182066</ele>
        <time>2022-07-31T12:04:23.000Z</time>
      </trkpt>
      <trkpt lat="49.53749" lon="-1.31857">
        <ele>12.03429</ele>
        <time>2022-07-31T12:04:24.000Z</time>
      </trkpt>
      <trkpt lat="49.53749" lon="-1.31851">
        <ele>11.887894</ele>
        <time>2022-07-31T12:04:25.000Z</time>
      </trkpt>
      <trkpt lat="49.5375" lon="-1.31845">
        <ele>11.729553</ele>
        <time>2022-07-31T12:04:26.000Z</time>
      </trkpt>
      <trkpt lat="49.53751" lon="-1.31838">
        <ele>11.557401</ele>
        <time>2022-07-31T12:04:27.000Z</time>
      </trkpt>
      <trkpt lat="49.53752" lon="-1.31831">
        <ele>11.369679</ele>
        <time>2022-07-31T12:04:28.000Z</time>
      </trkpt>
      <trkpt lat="49.53753" lon="-1.31823">
        <ele>11.164692</ele>
        <time>2022-07-31T12:04:29.000Z</time>
      </trkpt>
      <trkpt lat="49.53754" lon="-1.31814">
        <ele>10.947996</ele>
        <time>2022-07-31T12:04:30.000Z</time>
      </trkpt>
      <trkpt lat="49.53755" lon="-1.31805">
        <ele>10.711092</ele>
        <time>2022-07-31T12:04:31.000Z</time>
      </trkpt>
      <trkpt lat="49.53757" lon="-1.31795">
        <ele>10.464345</ele>
        <time>2022-07-31T12:04:32.000Z</time>
      </trkpt>
      <trkpt lat="49.53757" lon="-1.31785">
        <ele>10.205342</ele>
        <time>2022-07-31T12:04:33.000Z</time>
      </trkpt>
      <trkpt lat="49.53759" lon="-1.31775">
        <ele>9.94131</ele>
        <time>2022-07-31T12:04:34.000Z</time>
      </trkpt>
      <trkpt lat="49.53761" lon="-1.31764">
        <ele>9.662582</ele>
        <time>2022-07-31T12:04:35.000Z</time>
      </trkpt>
      <trkpt lat="49.53762" lon="-1.31753">
        <ele>9.378126</ele>
        <time>2022-07-31T12:04:36.000Z</time>
      </trkpt>
      <trkpt lat="49.53763" lon="-1.31742">
        <ele>9.087119</ele>
        <time>2022-07-31T12:04:37.000Z</time>
      </trkpt>
      <trkpt lat="49.53765" lon="-1.3173">
        <ele>8.791194</ele>
        <time>2022-07-31T12:04:38.000Z</time>
      </trkpt>
      <trkpt lat="49.53766" lon="-1.31719">
        <ele>8.49527</ele>
        <time>2022-07-31T12:04:39.000Z</time>
      </trkpt>
      <trkpt lat="49.53768" lon="-1.31707">
        <ele>8.194124</ele>
        <time>2022-07-31T12:04:40.000Z</time>
      </trkpt>
      <trkpt lat="49.53769" lon="-1.31695">
        <ele>7.885887</ele>
        <time>2022-07-31T12:04:41.000Z</time>
      </trkpt>
      <trkpt lat="49.53771" lon="-1.31683">
        <ele>7.572719</ele>
        <time>2022-07-31T12:04:42.000Z</time>
      </trkpt>
      <trkpt lat="49.53772" lon="-1.3167">
        <ele>7.263781</ele>
        <time>2022-07-31T12:04:43.000Z</time>
      </trkpt>
      <trkpt lat="49.53773" lon="-1.31658">
        <ele>6.943211</ele>
        <time>2022-07-31T12:04:44.000Z</time>
      </trkpt>
      <trkpt lat="49.53775" lon="-1.31646">
        <ele>6.627577</ele>
        <time>2022-07-31T12:04:45.000Z</time>
      </trkpt>
      <trkpt lat="49.53777" lon="-1.31633">
        <ele>6.311943</ele>
        <time>2022-07-31T12:04:46.000Z</time>
      </trkpt>
      <trkpt lat="49.53778" lon="-1.31621">
        <ele>6.108068</ele>
        <time>2022-07-31T12:04:47.000Z</time>
      </trkpt>
      <trkpt lat="49.53779" lon="-1.31608">
        <ele>5.944736</ele>
        <time>2022-07-31T12:04:48.000Z</time>
      </trkpt>
      <trkpt lat="49.53781" lon="-1.31595">
        <ele>5.775288</ele>
        <time>2022-07-31T12:04:49.000Z</time>
      </trkpt>
      <trkpt lat="49.53782" lon="-1.31583">
        <ele>5.609641</ele>
        <time>2022-07-31T12:04:50.000Z</time>
      </trkpt>
      <trkpt lat="49.53784" lon="-1.3157">
        <ele>5.443761</ele>
        <time>2022-07-31T12:04:51.000Z</time>
      </trkpt>
      <trkpt lat="49.53785" lon="-1.31557">
        <ele>5.276847</ele>
        <time>2022-07-31T12:04:52.000Z</time>
      </trkpt>
      <trkpt lat="49.53787" lon="-1.31545">
        <ele>5.107437</ele>
        <time>2022-07-31T12:04:53.000Z</time>
      </trkpt>
      <trkpt lat="49.53789" lon="-1.31532">
        <ele>4.935512</ele>
        <time>2022-07-31T12:04:54.000Z</time>
      </trkpt>
      <trkpt lat="49.53791" lon="-1.31516">
        <ele>4.730469</ele>
        <time>2022-07-31T12:04:55.000Z</time>
      </trkpt>
      <trkpt lat="49.53792" lon="-1.31506">
        <ele>4.593825</ele>
        <time>2022-07-31T12:04:56.000Z</time>
      </trkpt>
      <trkpt lat="49.53794" lon="-1.31493">
        <ele>4.426671</ele>
        <time>2022-07-31T12:04:57.000Z</time>
      </trkpt>
      <trkpt lat="49.53795" lon="-1.3148">
        <ele>4.26229</ele>
        <time>2022-07-31T12:04:58.000Z</time>
      </trkpt>
      <trkpt lat="49.53797" lon="-1.31468">
        <ele>4.097909</ele>
        <time>2022-07-31T12:04:59.000Z</time>
      </trkpt>
      <trkpt lat="49.53798" lon="-1.31455">
        <ele>3.933529</ele>
        <time>2022-07-31T12:05:00.000Z</time>
      </trkpt>
      <trkpt lat="49.538" lon="-1.31443">
        <ele>3.771471</ele>
        <time>2022-07-31T12:05:01.000Z</time>
      </trkpt>
      <trkpt lat="49.53801" lon="-1.31431">
        <ele>3.615941</ele>
        <time>2022-07-31T12:05:02.000Z</time>
      </trkpt>
      <trkpt lat="49.53803" lon="-1.31419">
        <ele>3.458976</ele>
        <time>2022-07-31T12:05:03.000Z</time>
      </trkpt>
      <trkpt lat="49.53804" lon="-1.31408">
        <ele>3.313372</ele>
        <time>2022-07-31T12:05:04.000Z</time>
      </trkpt>
      <trkpt lat="49.53805" lon="-1.31397">
        <ele>3.16793</ele>
        <time>2022-07-31T12:05:05.000Z</time>
      </trkpt>
      <trkpt lat="49.53807" lon="-1.31386">
        <ele>3.025005</ele>
        <time>2022-07-31T12:05:06.000Z</time>
      </trkpt>
      <trkpt lat="49.53808" lon="-1.31375">
        <ele>2.884254</ele>
        <time>2022-07-31T12:05:07.000Z</time>
      </trkpt>
      <trkpt lat="49.53809" lon="-1.31365">
        <ele>2.745049</ele>
        <time>2022-07-31T12:05:08.000Z</time>
      </trkpt>
      <trkpt lat="49.5381" lon="-1.31354">
        <ele>2.639803</ele>
        <time>2022-07-31T12:05:09.000Z</time>
      </trkpt>
      <trkpt lat="49.53811" lon="-1.31344">
        <ele>2.598456</ele>
        <time>2022-07-31T12:05:10.000Z</time>
      </trkpt>
      <trkpt lat="49.53812" lon="-1.31334">
        <ele>2.558669</ele>
        <time>2022-07-31T12:05:11.000Z</time>
      </trkpt>
      <trkpt lat="49.53813" lon="-1.31324">
        <ele>2.518511</ele>
        <time>2022-07-31T12:05:12.000Z</time>
      </trkpt>
      <trkpt lat="49.53814" lon="-1.31315">
        <ele>2.479113</ele>
        <time>2022-07-31T12:05:13.000Z</time>
      </trkpt>
      <trkpt lat="49.53815" lon="-1.31305">
        <ele>2.440832</ele>
        <time>2022-07-31T12:05:14.000Z</time>
      </trkpt>
      <trkpt lat="49.53817" lon="-1.31296">
        <ele>2.401792</ele>
        <time>2022-07-31T12:05:15.000Z</time>
      </trkpt>
      <trkpt lat="49.53819" lon="-1.31286">
        <ele>2.362752</ele>
        <time>2022-07-31T12:05:16.000Z</time>
      </trkpt>
      <trkpt lat="49.5382" lon="-1.31277">
        <ele>2.324564</ele>
        <time>2022-07-31T12:05:17.000Z</time>
      </trkpt>
      <trkpt lat="49.53821" lon="-1.31267">
        <ele>2.285945</ele>
        <time>2022-07-31T12:05:18.000Z</time>
      </trkpt>
      <trkpt lat="49.53821" lon="-1.31258">
        <ele>2.24877</ele>
        <time>2022-07-31T12:05:19.000Z</time>
      </trkpt>
      <trkpt lat="49.53822" lon="-1.31249">
        <ele>2.211666</ele>
        <time>2022-07-31T12:05:20.000Z</time>
      </trkpt>
      <trkpt lat="49.53823" lon="-1.31239">
        <ele>2.174169</ele>
        <time>2022-07-31T12:05:21.000Z</time>
      </trkpt>
      <trkpt lat="49.53825" lon="-1.3123">
        <ele>2.135672</ele>
        <time>2022-07-31T12:05:22.000Z</time>
      </trkpt>
      <trkpt lat="49.53826" lon="-1.31221">
        <ele>2.099352</ele>
        <time>2022-07-31T12:05:23.000Z</time>
      </trkpt>
      <trkpt lat="49.53827" lon="-1.31212">
        <ele>2.062677</ele>
        <time>2022-07-31T12:05:24.000Z</time>
      </trkpt>
      <trkpt lat="49.53828" lon="-1.31202">
        <ele>2.024447</ele>
        <time>2022-07-31T12:05:25.000Z</time>
      </trkpt>
      <trkpt lat="49.53829" lon="-1.31193">
        <ele>1.988226</ele>
        <time>2022-07-31T12:05:26.000Z</time>
      </trkpt>
      <trkpt lat="49.5383" lon="-1.31185">
        <ele>1.952327</ele>
        <time>2022-07-31T12:05:27.000Z</time>
      </trkpt>
      <trkpt lat="49.53831" lon="-1.31176">
        <ele>1.917965</ele>
        <time>2022-07-31T12:05:28.000Z</time>
      </trkpt>
      <trkpt lat="49.53833" lon="-1.31168">
        <ele>1.882762</ele>
        <time>2022-07-31T12:05:29.000Z</time>
      </trkpt>
      <trkpt lat="49.53834" lon="-1.31159">
        <ele>1.847719</ele>
        <time>2022-07-31T12:05:30.000Z</time>
      </trkpt>
      <trkpt lat="49.53835" lon="-1.3115">
        <ele>1.812983</ele>
        <time>2022-07-31T12:05:31.000Z</time>
      </trkpt>
      <trkpt lat="49.53837" lon="-1.31142">
        <ele>1.777397</ele>
        <time>2022-07-31T12:05:32.000Z</time>
      </trkpt>
      <trkpt lat="49.53838" lon="-1.31133">
        <ele>1.74266</ele>
        <time>2022-07-31T12:05:33.000Z</time>
      </trkpt>
      <trkpt lat="49.53839" lon="-1.31125">
        <ele>1.708403</ele>
        <time>2022-07-31T12:05:34.000Z</time>
      </trkpt>
      <trkpt lat="49.5384" lon="-1.31116">
        <ele>1.673259</ele>
        <time>2022-07-31T12:05:35.000Z</time>
      </trkpt>
      <trkpt lat="49.53841" lon="-1.31107">
        <ele>1.637723</ele>
        <time>2022-07-31T12:05:36.000Z</time>
      </trkpt>
      <trkpt lat="49.53842" lon="-1.31098">
        <ele>1.601566</ele>
        <time>2022-07-31T12:05:37.000Z</time>
      </trkpt>
      <trkpt lat="49.53843" lon="-1.3109">
        <ele>1.56709</ele>
        <time>2022-07-31T12:05:38.000Z</time>
      </trkpt>
      <trkpt lat="49.53845" lon="-1.31081">
        <ele>1.554821</ele>
        <time>2022-07-31T12:05:39.000Z</time>
      </trkpt>
      <trkpt lat="49.53845" lon="-1.31072">
        <ele>1.56278</ele>
        <time>2022-07-31T12:05:40.000Z</time>
      </trkpt>
      <trkpt lat="49.53846" lon="-1.31063">
        <ele>1.571073</ele>
        <time>2022-07-31T12:05:41.000Z</time>
      </trkpt>
      <trkpt lat="49.53847" lon="-1.31054">
        <ele>1.579286</ele>
        <time>2022-07-31T12:05:42.000Z</time>
      </trkpt>
      <trkpt lat="49.53849" lon="-1.31045">
        <ele>1.587727</ele>
        <time>2022-07-31T12:05:43.000Z</time>
      </trkpt>
      <trkpt lat="49.53849" lon="-1.31036">
        <ele>1.595969</ele>
        <time>2022-07-31T12:05:44.000Z</time>
      </trkpt>
      <trkpt lat="49.53851" lon="-1.31027">
        <ele>1.604263</ele>
        <time>2022-07-31T12:05:45.000Z</time>
      </trkpt>
      <trkpt lat="49.53851" lon="-1.31018">
        <ele>1.61258</ele>
        <time>2022-07-31T12:05:46.000Z</time>
      </trkpt>
      <trkpt lat="49.53853" lon="-1.31008">
        <ele>1.621147</ele>
        <time>2022-07-31T12:05:47.000Z</time>
      </trkpt>
      <trkpt lat="49.53854" lon="-1.30999">
        <ele>1.629449</ele>
        <time>2022-07-31T12:05:48.000Z</time>
      </trkpt>
      <trkpt lat="49.53855" lon="-1.3099">
        <ele>1.637639</ele>
        <time>2022-07-31T12:05:49.000Z</time>
      </trkpt>
      <trkpt lat="49.53855" lon="-1.30981">
        <ele>1.645703</ele>
        <time>2022-07-31T12:05:50.000Z</time>
      </trkpt>
      <trkpt lat="49.53857" lon="-1.30973">
        <ele>1.653791</ele>
        <time>2022-07-31T12:05:51.000Z</time>
      </trkpt>
      <trkpt lat="49.53858" lon="-1.30963">
        <ele>1.662261</ele>
        <time>2022-07-31T12:05:52.000Z</time>
      </trkpt>
      <trkpt lat="49.53859" lon="-1.30954">
        <ele>1.670414</ele>
        <time>2022-07-31T12:05:53.000Z</time>
      </trkpt>
      <trkpt lat="49.5386" lon="-1.30946">
        <ele>1.678502</ele>
        <time>2022-07-31T12:05:54.000Z</time>
      </trkpt>
      <trkpt lat="49.53861" lon="-1.30937">
        <ele>1.686715</ele>
        <time>2022-07-31T12:05:55.000Z</time>
      </trkpt>
      <trkpt lat="49.53862" lon="-1.30928">
        <ele>1.694833</ele>
        <time>2022-07-31T12:05:56.000Z</time>
      </trkpt>
      <trkpt lat="49.53863" lon="-1.30919">
        <ele>1.703024</ele>
        <time>2022-07-31T12:05:57.000Z</time>
      </trkpt>
      <trkpt lat="49.53864" lon="-1.3091">
        <ele>1.711317</ele>
        <time>2022-07-31T12:05:58.000Z</time>
      </trkpt>
      <trkpt lat="49.53865" lon="-1.30901">
        <ele>1.719381</ele>
        <time>2022-07-31T12:05:59.000Z</time>
      </trkpt>
      <trkpt lat="49.53866" lon="-1.30892">
        <ele>1.727469</ele>
        <time>2022-07-31T12:06:00.000Z</time>
      </trkpt>
      <trkpt lat="49.53867" lon="-1.30884">
        <ele>1.735062</ele>
        <time>2022-07-31T12:06:01.000Z</time>
      </trkpt>
      <trkpt lat="49.53869" lon="-1.30876">
        <ele>1.742764</ele>
        <time>2022-07-31T12:06:02.000Z</time>
      </trkpt>
      <trkpt lat="49.5387" lon="-1.30867">
        <ele>1.750357</ele>
        <time>2022-07-31T12:06:03.000Z</time>
      </trkpt>
      <trkpt lat="49.53871" lon="-1.30859">
        <ele>1.75766</ele>
        <time>2022-07-31T12:06:04.000Z</time>
      </trkpt>
      <trkpt lat="49.53872" lon="-1.30852">
        <ele>1.764904</ele>
        <time>2022-07-31T12:06:05.000Z</time>
      </trkpt>
      <trkpt lat="49.53873" lon="-1.30844">
        <ele>1.772164</ele>
        <time>2022-07-31T12:06:06.000Z</time>
      </trkpt>
      <trkpt lat="49.53874" lon="-1.30836">
        <ele>1.779468</ele>
        <time>2022-07-31T12:06:07.000Z</time>
      </trkpt>
      <trkpt lat="49.53875" lon="-1.30828">
        <ele>1.78655</ele>
        <time>2022-07-31T12:06:08.000Z</time>
      </trkpt>
      <trkpt lat="49.53875" lon="-1.3082">
        <ele>1.793704</ele>
        <time>2022-07-31T12:06:09.000Z</time>
      </trkpt>
      <trkpt lat="49.53877" lon="-1.30812">
        <ele>1.803853</ele>
        <time>2022-07-31T12:06:10.000Z</time>
      </trkpt>
      <trkpt lat="49.53877" lon="-1.30805">
        <ele>1.829343</ele>
        <time>2022-07-31T12:06:11.000Z</time>
      </trkpt>
      <trkpt lat="49.53878" lon="-1.30797">
        <ele>1.855494</ele>
        <time>2022-07-31T12:06:12.000Z</time>
      </trkpt>
      <trkpt lat="49.53879" lon="-1.30789">
        <ele>1.880332</ele>
        <time>2022-07-31T12:06:13.000Z</time>
      </trkpt>
      <trkpt lat="49.5388" lon="-1.30782">
        <ele>1.906166</ele>
        <time>2022-07-31T12:06:14.000Z</time>
      </trkpt>
      <trkpt lat="49.53881" lon="-1.30774">
        <ele>1.930745</ele>
        <time>2022-07-31T12:06:15.000Z</time>
      </trkpt>
      <trkpt lat="49.53882" lon="-1.30767">
        <ele>1.956138</ele>
        <time>2022-07-31T12:06:16.000Z</time>
      </trkpt>
      <trkpt lat="49.53883" lon="-1.30759">
        <ele>1.982593</ele>
        <time>2022-07-31T12:06:17.000Z</time>
      </trkpt>
      <trkpt lat="49.53884" lon="-1.30751">
        <ele>2.007757</ele>
        <time>2022-07-31T12:06:18.000Z</time>
      </trkpt>
      <trkpt lat="49.53884" lon="-1.30744">
        <ele>2.032662</ele>
        <time>2022-07-31T12:06:19.000Z</time>
      </trkpt>
      <trkpt lat="49.53885" lon="-1.30736">
        <ele>2.057409</ele>
        <time>2022-07-31T12:06:20.000Z</time>
      </trkpt>
      <trkpt lat="49.53886" lon="-1.30729">
        <ele>2.081656</ele>
        <time>2022-07-31T12:06:21.000Z</time>
      </trkpt>
      <trkpt lat="49.53887" lon="-1.30722">
        <ele>2.104538</ele>
        <time>2022-07-31T12:06:22.000Z</time>
      </trkpt>
      <trkpt lat="49.53888" lon="-1.30716">
        <ele>2.126267</ele>
        <time>2022-07-31T12:06:23.000Z</time>
      </trkpt>
      <trkpt lat="49.53889" lon="-1.3071">
        <ele>2.146304</ele>
        <time>2022-07-31T12:06:24.000Z</time>
      </trkpt>
      <trkpt lat="49.5389" lon="-1.30704">
        <ele>2.166545</ele>
        <time>2022-07-31T12:06:25.000Z</time>
      </trkpt>
      <trkpt lat="49.53891" lon="-1.30698">
        <ele>2.18723</ele>
        <time>2022-07-31T12:06:26.000Z</time>
      </trkpt>
      <trkpt lat="49.53891" lon="-1.30692">
        <ele>2.207993</ele>
        <time>2022-07-31T12:06:27.000Z</time>
      </trkpt>
      <trkpt lat="49.53892" lon="-1.30685">
        <ele>2.230223</ele>
        <time>2022-07-31T12:06:28.000Z</time>
      </trkpt>
      <trkpt lat="49.53892" lon="-1.30678">
        <ele>2.252625</ele>
        <time>2022-07-31T12:06:29.000Z</time>
      </trkpt>
      <trkpt lat="49.53892" lon="-1.30671">
        <ele>2.275027</ele>
        <time>2022-07-31T12:06:30.000Z</time>
      </trkpt>
      <trkpt lat="49.5389" lon="-1.30665">
        <ele>2.29757</ele>
        <time>2022-07-31T12:06:31.000Z</time>
      </trkpt>
      <trkpt lat="49.53887" lon="-1.30659">
        <ele>2.321119</ele>
        <time>2022-07-31T12:06:32.000Z</time>
      </trkpt>
      <trkpt lat="49.53884" lon="-1.30655">
        <ele>2.341374</ele>
        <time>2022-07-31T12:06:33.000Z</time>
      </trkpt>
      <trkpt lat="49.5388" lon="-1.30651">
        <ele>2.365103</ele>
        <time>2022-07-31T12:06:34.000Z</time>
      </trkpt>
      <trkpt lat="49.53877" lon="-1.30647">
        <ele>2.388412</ele>
        <time>2022-07-31T12:06:35.000Z</time>
      </trkpt>
      <trkpt lat="49.53874" lon="-1.30643">
        <ele>2.407693</ele>
        <time>2022-07-31T12:06:36.000Z</time>
      </trkpt>
      <trkpt lat="49.5387" lon="-1.30639">
        <ele>2.429763</ele>
        <time>2022-07-31T12:06:37.000Z</time>
      </trkpt>
      <trkpt lat="49.53867" lon="-1.30635">
        <ele>2.451834</ele>
        <time>2022-07-31T12:06:38.000Z</time>
      </trkpt>
      <trkpt lat="49.53863" lon="-1.30631">
        <ele>2.475205</ele>
        <time>2022-07-31T12:06:39.000Z</time>
      </trkpt>
      <trkpt lat="49.53859" lon="-1.30628">
        <ele>2.497461</ele>
        <time>2022-07-31T12:06:40.000Z</time>
      </trkpt>
      <trkpt lat="49.53855" lon="-1.30624">
        <ele>2.518594</ele>
        <time>2022-07-31T12:06:41.000Z</time>
      </trkpt>
      <trkpt lat="49.53851" lon="-1.30621">
        <ele>2.542779</ele>
        <time>2022-07-31T12:06:42.000Z</time>
      </trkpt>
      <trkpt lat="49.53848" lon="-1.30617">
        <ele>2.562846</ele>
        <time>2022-07-31T12:06:43.000Z</time>
      </trkpt>
      <trkpt lat="49.53844" lon="-1.30614">
        <ele>2.585269</ele>
        <time>2022-07-31T12:06:44.000Z</time>
      </trkpt>
      <trkpt lat="49.5384" lon="-1.3061">
        <ele>2.608129</ele>
        <time>2022-07-31T12:06:45.000Z</time>
      </trkpt>
      <trkpt lat="49.53836" lon="-1.30607">
        <ele>2.631117</ele>
        <time>2022-07-31T12:06:46.000Z</time>
      </trkpt>
      <trkpt lat="49.53832" lon="-1.30604">
        <ele>2.653977</ele>
        <time>2022-07-31T12:06:47.000Z</time>
      </trkpt>
      <trkpt lat="49.53829" lon="-1.306">
        <ele>2.6764</ele>
        <time>2022-07-31T12:06:48.000Z</time>
      </trkpt>
      <trkpt lat="49.53825" lon="-1.30597">
        <ele>2.698779</ele>
        <time>2022-07-31T12:06:49.000Z</time>
      </trkpt>
      <trkpt lat="49.53821" lon="-1.30594">
        <ele>2.700025</ele>
        <time>2022-07-31T12:06:50.000Z</time>
      </trkpt>
      <trkpt lat="49.53817" lon="-1.30591">
        <ele>2.677132</ele>
        <time>2022-07-31T12:06:51.000Z</time>
      </trkpt>
      <trkpt lat="49.53813" lon="-1.30587">
        <ele>2.652746</ele>
        <time>2022-07-31T12:06:52.000Z</time>
      </trkpt>
      <trkpt lat="49.5381" lon="-1.30584">
        <ele>2.630531</ele>
        <time>2022-07-31T12:06:53.000Z</time>
      </trkpt>
      <trkpt lat="49.53806" lon="-1.3058">
        <ele>2.609637</ele>
        <time>2022-07-31T12:06:54.000Z</time>
      </trkpt>
      <trkpt lat="49.53803" lon="-1.30577">
        <ele>2.586903</ele>
        <time>2022-07-31T12:06:55.000Z</time>
      </trkpt>
      <trkpt lat="49.53799" lon="-1.30574">
        <ele>2.56731</ele>
        <time>2022-07-31T12:06:56.000Z</time>
      </trkpt>
      <trkpt lat="49.53797" lon="-1.30572">
        <ele>2.54927</ele>
        <time>2022-07-31T12:06:57.000Z</time>
      </trkpt>
      <trkpt lat="49.53795" lon="-1.3057">
        <ele>2.537394</ele>
        <time>2022-07-31T12:06:58.000Z</time>
      </trkpt>
      <trkpt lat="49.53793" lon="-1.30568">
        <ele>2.527422</ele>
        <time>2022-07-31T12:06:59.000Z</time>
      </trkpt>
      <trkpt lat="49.5379" lon="-1.30567">
        <ele>2.5094</ele>
        <time>2022-07-31T12:07:01.000Z</time>
      </trkpt>
      <trkpt lat="49.53788" lon="-1.30566">
        <ele>2.498729</ele>
        <time>2022-07-31T12:07:03.000Z</time>
      </trkpt>
      <trkpt lat="49.53787" lon="-1.30554">
        <ele>2.457143</ele>
        <time>2022-07-31T12:08:20.000Z</time>
      </trkpt>
      <trkpt lat="49.53786" lon="-1.30551">
        <ele>2.445489</ele>
        <time>2022-07-31T12:08:21.000Z</time>
      </trkpt>
      <trkpt lat="49.53785" lon="-1.30549">
        <ele>2.433895</ele>
        <time>2022-07-31T12:08:22.000Z</time>
      </trkpt>
      <trkpt lat="49.53784" lon="-1.30546">
        <ele>2.423849</ele>
        <time>2022-07-31T12:08:23.000Z</time>
      </trkpt>
      <trkpt lat="49.53783" lon="-1.30543">
        <ele>2.412508</ele>
        <time>2022-07-31T12:08:24.000Z</time>
      </trkpt>
      <trkpt lat="49.53781" lon="-1.3054">
        <ele>2.396741</ele>
        <time>2022-07-31T12:08:26.000Z</time>
      </trkpt>
      <trkpt lat="49.53779" lon="-1.30536">
        <ele>2.379891</ele>
        <time>2022-07-31T12:08:28.000Z</time>
      </trkpt>
      <trkpt lat="49.53778" lon="-1.30534">
        <ele>2.369919</ele>
        <time>2022-07-31T12:08:29.000Z</time>
      </trkpt>
      <trkpt lat="49.53776" lon="-1.30533">
        <ele>2.359112</ele>
        <time>2022-07-31T12:08:30.000Z</time>
      </trkpt>
      <trkpt lat="49.53773" lon="-1.30533">
        <ele>2.346629</ele>
        <time>2022-07-31T12:08:31.000Z</time>
      </trkpt>
      <trkpt lat="49.53772" lon="-1.30532">
        <ele>2.336228</ele>
        <time>2022-07-31T12:08:32.000Z</time>
      </trkpt>
      <trkpt lat="49.53769" lon="-1.30531">
        <ele>2.324192</ele>
        <time>2022-07-31T12:08:33.000Z</time>
      </trkpt>
      <trkpt lat="49.53767" lon="-1.30531">
        <ele>2.31031</ele>
        <time>2022-07-31T12:08:34.000Z</time>
      </trkpt>
      <trkpt lat="49.53765" lon="-1.30531">
        <ele>2.298596</ele>
        <time>2022-07-31T12:08:35.000Z</time>
      </trkpt>
      <trkpt lat="49.53762" lon="-1.30531">
        <ele>2.283151</ele>
        <time>2022-07-31T12:08:36.000Z</time>
      </trkpt>
      <trkpt lat="49.53759" lon="-1.30531">
        <ele>2.271432</ele>
        <time>2022-07-31T12:08:37.000Z</time>
      </trkpt>
      <trkpt lat="49.53757" lon="-1.3053">
        <ele>2.259065</ele>
        <time>2022-07-31T12:08:38.000Z</time>
      </trkpt>
      <trkpt lat="49.53755" lon="-1.30529">
        <ele>2.248375</ele>
        <time>2022-07-31T12:08:39.000Z</time>
      </trkpt>
      <trkpt lat="49.53753" lon="-1.30527">
        <ele>2.234947</ele>
        <time>2022-07-31T12:08:40.000Z</time>
      </trkpt>
      <trkpt lat="49.53751" lon="-1.30525">
        <ele>2.222252</ele>
        <time>2022-07-31T12:08:41.000Z</time>
      </trkpt>
      <trkpt lat="49.53749" lon="-1.30523">
        <ele>2.208473</ele>
        <time>2022-07-31T12:08:42.000Z</time>
      </trkpt>
      <trkpt lat="49.53747" lon="-1.30521">
        <ele>2.193918</ele>
        <time>2022-07-31T12:08:43.000Z</time>
      </trkpt>
      <trkpt lat="49.53744" lon="-1.30519">
        <ele>2.178597</ele>
        <time>2022-07-31T12:08:44.000Z</time>
      </trkpt>
      <trkpt lat="49.53742" lon="-1.30517">
        <ele>2.165788</ele>
        <time>2022-07-31T12:08:45.000Z</time>
      </trkpt>
      <trkpt lat="49.53739" lon="-1.30516">
        <ele>2.151234</ele>
        <time>2022-07-31T12:08:46.000Z</time>
      </trkpt>
      <trkpt lat="49.53737" lon="-1.30514">
        <ele>2.139536</ele>
        <time>2022-07-31T12:08:47.000Z</time>
      </trkpt>
      <trkpt lat="49.53735" lon="-1.30513">
        <ele>2.128007</ele>
        <time>2022-07-31T12:08:48.000Z</time>
      </trkpt>
      <trkpt lat="49.53733" lon="-1.30511">
        <ele>2.113225</ele>
        <time>2022-07-31T12:08:49.000Z</time>
      </trkpt>
      <trkpt lat="49.5373" lon="-1.3051">
        <ele>2.098187</ele>
        <time>2022-07-31T12:08:50.000Z</time>
      </trkpt>
      <trkpt lat="49.53728" lon="-1.30508">
        <ele>2.085378</ele>
        <time>2022-07-31T12:08:51.000Z</time>
      </trkpt>
      <trkpt lat="49.53726" lon="-1.30507">
        <ele>2.072832</ele>
        <time>2022-07-31T12:08:52.000Z</time>
      </trkpt>
      <trkpt lat="49.53724" lon="-1.30505">
        <ele>2.059534</ele>
        <time>2022-07-31T12:08:53.000Z</time>
      </trkpt>
      <trkpt lat="49.53721" lon="-1.30503">
        <ele>2.046106</ele>
        <time>2022-07-31T12:08:54.000Z</time>
      </trkpt>
      <trkpt lat="49.53719" lon="-1.30501">
        <ele>2.032045</ele>
        <time>2022-07-31T12:08:55.000Z</time>
      </trkpt>
      <trkpt lat="49.53717" lon="-1.30499">
        <ele>2.017283</ele>
        <time>2022-07-31T12:08:56.000Z</time>
      </trkpt>
      <trkpt lat="49.53714" lon="-1.30496">
        <ele>1.99959</ele>
        <time>2022-07-31T12:08:57.000Z</time>
      </trkpt>
      <trkpt lat="49.53712" lon="-1.30494">
        <ele>1.985625</ele>
        <time>2022-07-31T12:08:58.000Z</time>
      </trkpt>
      <trkpt lat="49.53709" lon="-1.30492">
        <ele>1.97189</ele>
        <time>2022-07-31T12:08:59.000Z</time>
      </trkpt>
      <trkpt lat="49.53708" lon="-1.3049">
        <ele>1.95983</ele>
        <time>2022-07-31T12:09:00.000Z</time>
      </trkpt>
      <trkpt lat="49.53705" lon="-1.30488">
        <ele>1.946051</ele>
        <time>2022-07-31T12:09:01.000Z</time>
      </trkpt>
      <trkpt lat="49.53703" lon="-1.30486">
        <ele>1.931637</ele>
        <time>2022-07-31T12:09:02.000Z</time>
      </trkpt>
      <trkpt lat="49.53701" lon="-1.30483">
        <ele>1.917876</ele>
        <time>2022-07-31T12:09:03.000Z</time>
      </trkpt>
      <trkpt lat="49.53699" lon="-1.30481">
        <ele>1.903114</ele>
        <time>2022-07-31T12:09:04.000Z</time>
      </trkpt>
      <trkpt lat="49.53697" lon="-1.30478">
        <ele>1.890033</ele>
        <time>2022-07-31T12:09:05.000Z</time>
      </trkpt>
      <trkpt lat="49.53695" lon="-1.30476">
        <ele>1.877338</ele>
        <time>2022-07-31T12:09:06.000Z</time>
      </trkpt>
      <trkpt lat="49.53693" lon="-1.30474">
        <ele>1.86234</ele>
        <time>2022-07-31T12:09:07.000Z</time>
      </trkpt>
      <trkpt lat="49.5369" lon="-1.30472">
        <ele>1.847152</ele>
        <time>2022-07-31T12:09:08.000Z</time>
      </trkpt>
      <trkpt lat="49.53688" lon="-1.30469">
        <ele>1.832165</ele>
        <time>2022-07-31T12:09:09.000Z</time>
      </trkpt>
      <trkpt lat="49.53687" lon="-1.30465">
        <ele>1.81912</ele>
        <time>2022-07-31T12:09:10.000Z</time>
      </trkpt>
      <trkpt lat="49.53685" lon="-1.30463">
        <ele>1.805122</ele>
        <time>2022-07-31T12:09:11.000Z</time>
      </trkpt>
      <trkpt lat="49.53684" lon="-1.3046">
        <ele>1.792488</ele>
        <time>2022-07-31T12:09:12.000Z</time>
      </trkpt>
      <trkpt lat="49.53681" lon="-1.30457">
        <ele>1.777934</ele>
        <time>2022-07-31T12:09:13.000Z</time>
      </trkpt>
      <trkpt lat="49.53679" lon="-1.30455">
        <ele>1.765069</ele>
        <time>2022-07-31T12:09:14.000Z</time>
      </trkpt>
      <trkpt lat="49.53677" lon="-1.30453">
        <ele>1.753161</ele>
        <time>2022-07-31T12:09:15.000Z</time>
      </trkpt>
      <trkpt lat="49.53675" lon="-1.3045">
        <ele>1.7545</ele>
        <time>2022-07-31T12:09:16.000Z</time>
      </trkpt>
      <trkpt lat="49.53672" lon="-1.30448">
        <ele>1.755834</ele>
        <time>2022-07-31T12:09:17.000Z</time>
      </trkpt>
      <trkpt lat="49.5367" lon="-1.30446">
        <ele>1.757077</ele>
        <time>2022-07-31T12:09:18.000Z</time>
      </trkpt>
      <trkpt lat="49.53667" lon="-1.30443">
        <ele>1.758455</ele>
        <time>2022-07-31T12:09:19.000Z</time>
      </trkpt>
      <trkpt lat="49.53665" lon="-1.30441">
        <ele>1.759863</ele>
        <time>2022-07-31T12:09:20.000Z</time>
      </trkpt>
      <trkpt lat="49.53662" lon="-1.30438">
        <ele>1.761202</ele>
        <time>2022-07-31T12:09:21.000Z</time>
      </trkpt>
      <trkpt lat="49.5366" lon="-1.30436">
        <ele>1.762536</ele>
        <time>2022-07-31T12:09:22.000Z</time>
      </trkpt>
      <trkpt lat="49.53656" lon="-1.30435">
        <ele>1.764057</ele>
        <time>2022-07-31T12:09:23.000Z</time>
      </trkpt>
      <trkpt lat="49.53654" lon="-1.30432">
        <ele>1.765396</ele>
        <time>2022-07-31T12:09:24.000Z</time>
      </trkpt>
      <trkpt lat="49.53651" lon="-1.3043">
        <ele>1.766965</ele>
        <time>2022-07-31T12:09:25.000Z</time>
      </trkpt>
      <trkpt lat="49.53648" lon="-1.30428">
        <ele>1.768358</ele>
        <time>2022-07-31T12:09:26.000Z</time>
      </trkpt>
      <trkpt lat="49.53645" lon="-1.30425">
        <ele>1.769751</ele>
        <time>2022-07-31T12:09:27.000Z</time>
      </trkpt>
      <trkpt lat="49.53643" lon="-1.30423">
        <ele>1.771222</ele>
        <time>2022-07-31T12:09:28.000Z</time>
      </trkpt>
      <trkpt lat="49.5364" lon="-1.30421">
        <ele>1.772585</ele>
        <time>2022-07-31T12:09:29.000Z</time>
      </trkpt>
      <trkpt lat="49.53637" lon="-1.30418">
        <ele>1.773948</ele>
        <time>2022-07-31T12:09:30.000Z</time>
      </trkpt>
      <trkpt lat="49.53635" lon="-1.30416">
        <ele>1.775418</ele>
        <time>2022-07-31T12:09:31.000Z</time>
      </trkpt>
      <trkpt lat="49.53632" lon="-1.30413">
        <ele>1.776733</ele>
        <time>2022-07-31T12:09:32.000Z</time>
      </trkpt>
      <trkpt lat="49.5363" lon="-1.30411">
        <ele>1.778041</ele>
        <time>2022-07-31T12:09:33.000Z</time>
      </trkpt>
      <trkpt lat="49.53628" lon="-1.30409">
        <ele>1.779288</ele>
        <time>2022-07-31T12:09:34.000Z</time>
      </trkpt>
      <trkpt lat="49.53625" lon="-1.30407">
        <ele>1.780732</ele>
        <time>2022-07-31T12:09:35.000Z</time>
      </trkpt>
      <trkpt lat="49.53622" lon="-1.30404">
        <ele>1.781924</ele>
        <time>2022-07-31T12:09:36.000Z</time>
      </trkpt>
      <trkpt lat="49.5362" lon="-1.30402">
        <ele>1.783085</ele>
        <time>2022-07-31T12:09:37.000Z</time>
      </trkpt>
      <trkpt lat="49.53618" lon="-1.304">
        <ele>1.7843</ele>
        <time>2022-07-31T12:09:38.000Z</time>
      </trkpt>
      <trkpt lat="49.53616" lon="-1.30398">
        <ele>1.78538</ele>
        <time>2022-07-31T12:09:39.000Z</time>
      </trkpt>
      <trkpt lat="49.53614" lon="-1.30396">
        <ele>1.786512</ele>
        <time>2022-07-31T12:09:40.000Z</time>
      </trkpt>
      <trkpt lat="49.53611" lon="-1.30394">
        <ele>1.787945</ele>
        <time>2022-07-31T12:09:41.000Z</time>
      </trkpt>
      <trkpt lat="49.53609" lon="-1.30392">
        <ele>1.788991</ele>
        <time>2022-07-31T12:09:42.000Z</time>
      </trkpt>
      <trkpt lat="49.53607" lon="-1.30391">
        <ele>1.790002</ele>
        <time>2022-07-31T12:09:43.000Z</time>
      </trkpt>
      <trkpt lat="49.53605" lon="-1.30389">
        <ele>1.790972</ele>
        <time>2022-07-31T12:09:44.000Z</time>
      </trkpt>
      <trkpt lat="49.53603" lon="-1.30387">
        <ele>1.792327</ele>
        <time>2022-07-31T12:09:46.000Z</time>
      </trkpt>
      <trkpt lat="49.53597" lon="-1.30382">
        <ele>1.79544</ele>
        <time>2022-07-31T12:10:15.000Z</time>
      </trkpt>
      <trkpt lat="49.53594" lon="-1.3038">
        <ele>1.796909</ele>
        <time>2022-07-31T12:10:16.000Z</time>
      </trkpt>
      <trkpt lat="49.53591" lon="-1.30378">
        <ele>1.798366</ele>
        <time>2022-07-31T12:10:17.000Z</time>
      </trkpt>
      <trkpt lat="49.53588" lon="-1.30375">
        <ele>1.799862</ele>
        <time>2022-07-31T12:10:18.000Z</time>
      </trkpt>
      <trkpt lat="49.53585" lon="-1.30373">
        <ele>1.801493</ele>
        <time>2022-07-31T12:10:19.000Z</time>
      </trkpt>
      <trkpt lat="49.53582" lon="-1.3037">
        <ele>1.802864</ele>
        <time>2022-07-31T12:10:20.000Z</time>
      </trkpt>
      <trkpt lat="49.53579" lon="-1.30367">
        <ele>1.804566</ele>
        <time>2022-07-31T12:10:21.000Z</time>
      </trkpt>
      <trkpt lat="49.53575" lon="-1.30365">
        <ele>1.80632</ele>
        <time>2022-07-31T12:10:22.000Z</time>
      </trkpt>
      <trkpt lat="49.53573" lon="-1.30363">
        <ele>1.807641</ele>
        <time>2022-07-31T12:10:23.000Z</time>
      </trkpt>
      <trkpt lat="49.5357" lon="-1.3036">
        <ele>1.809151</ele>
        <time>2022-07-31T12:10:24.000Z</time>
      </trkpt>
      <trkpt lat="49.53567" lon="-1.30357">
        <ele>1.810722</ele>
        <time>2022-07-31T12:10:25.000Z</time>
      </trkpt>
      <trkpt lat="49.53565" lon="-1.30354">
        <ele>1.812118</ele>
        <time>2022-07-31T12:10:26.000Z</time>
      </trkpt>
      <trkpt lat="49.53562" lon="-1.30351">
        <ele>1.81363</ele>
        <time>2022-07-31T12:10:27.000Z</time>
      </trkpt>
      <trkpt lat="49.53559" lon="-1.30348">
        <ele>1.815198</ele>
        <time>2022-07-31T12:10:28.000Z</time>
      </trkpt>
      <trkpt lat="49.53557" lon="-1.30344">
        <ele>1.816667</ele>
        <time>2022-07-31T12:10:29.000Z</time>
      </trkpt>
      <trkpt lat="49.53555" lon="-1.30341">
        <ele>1.818104</ele>
        <time>2022-07-31T12:10:30.000Z</time>
      </trkpt>
      <trkpt lat="49.53553" lon="-1.30337">
        <ele>1.819616</ele>
        <time>2022-07-31T12:10:31.000Z</time>
      </trkpt>
      <trkpt lat="49.5355" lon="-1.30334">
        <ele>1.821151</ele>
        <time>2022-07-31T12:10:32.000Z</time>
      </trkpt>
      <trkpt lat="49.53547" lon="-1.3033">
        <ele>1.822789</ele>
        <time>2022-07-31T12:10:33.000Z</time>
      </trkpt>
      <trkpt lat="49.53545" lon="-1.30327">
        <ele>1.824266</ele>
        <time>2022-07-31T12:10:34.000Z</time>
      </trkpt>
      <trkpt lat="49.53541" lon="-1.30324">
        <ele>1.825953</ele>
        <time>2022-07-31T12:10:35.000Z</time>
      </trkpt>
      <trkpt lat="49.53539" lon="-1.30322">
        <ele>1.827196</ele>
        <time>2022-07-31T12:10:36.000Z</time>
      </trkpt>
      <trkpt lat="49.53537" lon="-1.30319">
        <ele>1.828589</ele>
        <time>2022-07-31T12:10:37.000Z</time>
      </trkpt>
      <trkpt lat="49.53534" lon="-1.30317">
        <ele>1.829849</ele>
        <time>2022-07-31T12:10:38.000Z</time>
      </trkpt>
      <trkpt lat="49.53532" lon="-1.30315">
        <ele>1.831293</ele>
        <time>2022-07-31T12:10:39.000Z</time>
      </trkpt>
      <trkpt lat="49.53529" lon="-1.30313">
        <ele>1.832485</ele>
        <time>2022-07-31T12:10:40.000Z</time>
      </trkpt>
      <trkpt lat="49.53527" lon="-1.3031">
        <ele>1.833716</ele>
        <time>2022-07-31T12:10:41.000Z</time>
      </trkpt>
      <trkpt lat="49.53525" lon="-1.30308">
        <ele>1.83447</ele>
        <time>2022-07-31T12:10:42.000Z</time>
      </trkpt>
      <trkpt lat="49.53523" lon="-1.30306">
        <ele>1.82973</ele>
        <time>2022-07-31T12:10:43.000Z</time>
      </trkpt>
      <trkpt lat="49.53521" lon="-1.30304">
        <ele>1.824508</ele>
        <time>2022-07-31T12:10:44.000Z</time>
      </trkpt>
      <trkpt lat="49.53519" lon="-1.30301">
        <ele>1.819629</ele>
        <time>2022-07-31T12:10:45.000Z</time>
      </trkpt>
      <trkpt lat="49.53517" lon="-1.30298">
        <ele>1.814407</ele>
        <time>2022-07-31T12:10:46.000Z</time>
      </trkpt>
      <trkpt lat="49.53515" lon="-1.30295">
        <ele>1.809528</ele>
        <time>2022-07-31T12:10:47.000Z</time>
      </trkpt>
      <trkpt lat="49.53513" lon="-1.30293">
        <ele>1.805468</ele>
        <time>2022-07-31T12:10:48.000Z</time>
      </trkpt>
      <trkpt lat="49.53512" lon="-1.30291">
        <ele>1.80172</ele>
        <time>2022-07-31T12:10:49.000Z</time>
      </trkpt>
      <trkpt lat="49.5351" lon="-1.30288">
        <ele>1.796586</ele>
        <time>2022-07-31T12:10:51.000Z</time>
      </trkpt>
      <trkpt lat="49.53508" lon="-1.30285">
        <ele>1.791236</ele>
        <time>2022-07-31T12:10:53.000Z</time>
      </trkpt>
      <trkpt lat="49.53507" lon="-1.30282">
        <ele>1.786992</ele>
        <time>2022-07-31T12:10:55.000Z</time>
      </trkpt>
      <trkpt lat="49.53504" lon="-1.3028">
        <ele>1.781316</ele>
        <time>2022-07-31T12:10:57.000Z</time>
      </trkpt>
      <trkpt lat="49.53501" lon="-1.30281">
        <ele>1.776455</ele>
        <time>2022-07-31T12:10:59.000Z</time>
      </trkpt>
      <trkpt lat="49.53498" lon="-1.30282">
        <ele>1.770344</ele>
        <time>2022-07-31T12:11:01.000Z</time>
      </trkpt>
      <trkpt lat="49.53496" lon="-1.30286">
        <ele>1.764212</ele>
        <time>2022-07-31T12:11:03.000Z</time>
      </trkpt>
      <trkpt lat="49.53495" lon="-1.30289">
        <ele>1.760373</ele>
        <time>2022-07-31T12:11:04.000Z</time>
      </trkpt>
      <trkpt lat="49.53495" lon="-1.30292">
        <ele>1.75636</ele>
        <time>2022-07-31T12:11:05.000Z</time>
      </trkpt>
      <trkpt lat="49.53494" lon="-1.30296">
        <ele>1.751602</ele>
        <time>2022-07-31T12:11:06.000Z</time>
      </trkpt>
      <trkpt lat="49.53493" lon="-1.30299">
        <ele>1.746967</ele>
        <time>2022-07-31T12:11:07.000Z</time>
      </trkpt>
      <trkpt lat="49.53493" lon="-1.30303">
        <ele>1.742476</ele>
        <time>2022-07-31T12:11:08.000Z</time>
      </trkpt>
      <trkpt lat="49.53492" lon="-1.30307">
        <ele>1.737304</ele>
        <time>2022-07-31T12:11:09.000Z</time>
      </trkpt>
      <trkpt lat="49.53491" lon="-1.30311">
        <ele>1.732477</ele>
        <time>2022-07-31T12:11:10.000Z</time>
      </trkpt>
      <trkpt lat="49.5349" lon="-1.30315">
        <ele>1.727305</ele>
        <time>2022-07-31T12:11:11.000Z</time>
      </trkpt>
      <trkpt lat="49.53489" lon="-1.30318">
        <ele>1.722771</ele>
        <time>2022-07-31T12:11:12.000Z</time>
      </trkpt>
      <trkpt lat="49.53487" lon="-1.30321">
        <ele>1.717811</ele>
        <time>2022-07-31T12:11:13.000Z</time>
      </trkpt>
      <trkpt lat="49.53486" lon="-1.30325">
        <ele>1.712754</ele>
        <time>2022-07-31T12:11:14.000Z</time>
      </trkpt>
      <trkpt lat="49.53485" lon="-1.30329">
        <ele>1.707816</ele>
        <time>2022-07-31T12:11:15.000Z</time>
      </trkpt>
      <trkpt lat="49.53483" lon="-1.30332">
        <ele>1.702361</ele>
        <time>2022-07-31T12:11:16.000Z</time>
      </trkpt>
      <trkpt lat="49.53482" lon="-1.30336">
        <ele>1.697007</ele>
        <time>2022-07-31T12:11:17.000Z</time>
      </trkpt>
      <trkpt lat="49.5348" lon="-1.3034">
        <ele>1.691653</ele>
        <time>2022-07-31T12:11:18.000Z</time>
      </trkpt>
      <trkpt lat="49.53479" lon="-1.30343">
        <ele>1.686692</ele>
        <time>2022-07-31T12:11:19.000Z</time>
      </trkpt>
      <trkpt lat="49.53477" lon="-1.30347">
        <ele>1.681011</ele>
        <time>2022-07-31T12:11:20.000Z</time>
      </trkpt>
      <trkpt lat="49.53475" lon="-1.30351">
        <ele>1.675657</ele>
        <time>2022-07-31T12:11:21.000Z</time>
      </trkpt>
      <trkpt lat="49.53474" lon="-1.30354">
        <ele>1.670403</ele>
        <time>2022-07-31T12:11:22.000Z</time>
      </trkpt>
      <trkpt lat="49.53473" lon="-1.30358">
        <ele>1.665576</ele>
        <time>2022-07-31T12:11:23.000Z</time>
      </trkpt>
      <trkpt lat="49.53471" lon="-1.30362">
        <ele>1.660421</ele>
        <time>2022-07-31T12:11:24.000Z</time>
      </trkpt>
      <trkpt lat="49.5347" lon="-1.30365">
        <ele>1.655866</ele>
        <time>2022-07-31T12:11:25.000Z</time>
      </trkpt>
      <trkpt lat="49.53469" lon="-1.30368">
        <ele>1.651522</ele>
        <time>2022-07-31T12:11:26.000Z</time>
      </trkpt>
      <trkpt lat="49.53467" lon="-1.30371">
        <ele>1.647119</ele>
        <time>2022-07-31T12:11:27.000Z</time>
      </trkpt>
      <trkpt lat="49.53466" lon="-1.30373">
        <ele>1.643071</ele>
        <time>2022-07-31T12:11:28.000Z</time>
      </trkpt>
      <trkpt lat="49.53465" lon="-1.30378">
        <ele>1.636771</ele>
        <time>2022-07-31T12:11:30.000Z</time>
      </trkpt>
      <trkpt lat="49.53464" lon="-1.30383">
        <ele>1.630522</ele>
        <time>2022-07-31T12:11:32.000Z</time>
      </trkpt>
      <trkpt lat="49.53462" lon="-1.30389">
        <ele>1.623265</ele>
        <time>2022-07-31T12:11:34.000Z</time>
      </trkpt>
      <trkpt lat="49.53461" lon="-1.30392">
        <ele>1.619426</ele>
        <time>2022-07-31T12:11:35.000Z</time>
      </trkpt>
      <trkpt lat="49.53459" lon="-1.30396">
        <ele>1.612832</ele>
        <time>2022-07-31T12:11:37.000Z</time>
      </trkpt>
      <trkpt lat="49.53457" lon="-1.30397">
        <ele>1.60786</ele>
        <time>2022-07-31T12:11:39.000Z</time>
      </trkpt>
      <trkpt lat="49.53455" lon="-1.30396">
        <ele>1.604002</ele>
        <time>2022-07-31T12:11:40.000Z</time>
      </trkpt>
      <trkpt lat="49.53452" lon="-1.30391">
        <ele>1.596451</ele>
        <time>2022-07-31T12:11:42.000Z</time>
      </trkpt>
      <trkpt lat="49.5345" lon="-1.30389">
        <ele>1.592136</ele>
        <time>2022-07-31T12:11:43.000Z</time>
      </trkpt>
      <trkpt lat="49.53449" lon="-1.30386">
        <ele>1.587908</ele>
        <time>2022-07-31T12:11:44.000Z</time>
      </trkpt>
      <trkpt lat="49.53446" lon="-1.30383">
        <ele>1.582029</ele>
        <time>2022-07-31T12:11:45.000Z</time>
      </trkpt>
      <trkpt lat="49.53444" lon="-1.30381">
        <ele>1.576211</ele>
        <time>2022-07-31T12:11:46.000Z</time>
      </trkpt>
      <trkpt lat="49.53441" lon="-1.30378">
        <ele>1.570546</ele>
        <time>2022-07-31T12:11:47.000Z</time>
      </trkpt>
      <trkpt lat="49.53438" lon="-1.30375">
        <ele>1.563889</ele>
        <time>2022-07-31T12:11:48.000Z</time>
      </trkpt>
      <trkpt lat="49.53435" lon="-1.30373">
        <ele>1.557837</ele>
        <time>2022-07-31T12:11:49.000Z</time>
      </trkpt>
      <trkpt lat="49.53431" lon="-1.30371">
        <ele>1.550824</ele>
        <time>2022-07-31T12:11:50.000Z</time>
      </trkpt>
      <trkpt lat="49.53429" lon="-1.30368">
        <ele>1.545137</ele>
        <time>2022-07-31T12:11:51.000Z</time>
      </trkpt>
      <trkpt lat="49.53426" lon="-1.30366">
        <ele>1.538683</ele>
        <time>2022-07-31T12:11:52.000Z</time>
      </trkpt>
      <trkpt lat="49.53423" lon="-1.30364">
        <ele>1.53306</ele>
        <time>2022-07-31T12:11:53.000Z</time>
      </trkpt>
      <trkpt lat="49.5342" lon="-1.30362">
        <ele>1.526508</ele>
        <time>2022-07-31T12:11:54.000Z</time>
      </trkpt>
      <trkpt lat="49.53417" lon="-1.30359">
        <ele>1.521166</ele>
        <time>2022-07-31T12:11:55.000Z</time>
      </trkpt>
      <trkpt lat="49.53414" lon="-1.30357">
        <ele>1.514614</ele>
        <time>2022-07-31T12:11:56.000Z</time>
      </trkpt>
      <trkpt lat="49.53412" lon="-1.30355">
        <ele>1.508928</ele>
        <time>2022-07-31T12:11:57.000Z</time>
      </trkpt>
      <trkpt lat="49.53409" lon="-1.30352">
        <ele>1.503525</ele>
        <time>2022-07-31T12:11:58.000Z</time>
      </trkpt>
      <trkpt lat="49.53406" lon="-1.3035">
        <ele>1.499896</ele>
        <time>2022-07-31T12:11:59.000Z</time>
      </trkpt>
      <trkpt lat="49.53404" lon="-1.30347">
        <ele>1.497855</ele>
        <time>2022-07-31T12:12:00.000Z</time>
      </trkpt>
      <trkpt lat="49.53401" lon="-1.30344">
        <ele>1.495889</ele>
        <time>2022-07-31T12:12:01.000Z</time>
      </trkpt>
      <trkpt lat="49.53398" lon="-1.30341">
        <ele>1.493668</ele>
        <time>2022-07-31T12:12:02.000Z</time>
      </trkpt>
      <trkpt lat="49.53396" lon="-1.30338">
        <ele>1.491602</ele>
        <time>2022-07-31T12:12:03.000Z</time>
      </trkpt>
      <trkpt lat="49.53394" lon="-1.30335">
        <ele>1.489733</ele>
        <time>2022-07-31T12:12:04.000Z</time>
      </trkpt>
      <trkpt lat="49.53391" lon="-1.30332">
        <ele>1.487919</ele>
        <time>2022-07-31T12:12:05.000Z</time>
      </trkpt>
      <trkpt lat="49.53389" lon="-1.30329">
        <ele>1.486172</ele>
        <time>2022-07-31T12:12:06.000Z</time>
      </trkpt>
      <trkpt lat="49.53388" lon="-1.30326">
        <ele>1.484442</ele>
        <time>2022-07-31T12:12:07.000Z</time>
      </trkpt>
      <trkpt lat="49.53385" lon="-1.30324">
        <ele>1.482678</ele>
        <time>2022-07-31T12:12:08.000Z</time>
      </trkpt>
      <trkpt lat="49.53383" lon="-1.30321">
        <ele>1.481035</ele>
        <time>2022-07-31T12:12:09.000Z</time>
      </trkpt>
      <trkpt lat="49.53381" lon="-1.30319">
        <ele>1.479397</ele>
        <time>2022-07-31T12:12:10.000Z</time>
      </trkpt>
      <trkpt lat="49.5338" lon="-1.30317">
        <ele>1.477933</ele>
        <time>2022-07-31T12:12:11.000Z</time>
      </trkpt>
      <trkpt lat="49.53378" lon="-1.30314">
        <ele>1.476569</ele>
        <time>2022-07-31T12:12:12.000Z</time>
      </trkpt>
      <trkpt lat="49.53376" lon="-1.30311">
        <ele>1.474809</ele>
        <time>2022-07-31T12:12:14.000Z</time>
      </trkpt>
      <trkpt lat="49.53374" lon="-1.30308">
        <ele>1.473076</ele>
        <time>2022-07-31T12:12:16.000Z</time>
      </trkpt>
      <trkpt lat="49.53372" lon="-1.30304">
        <ele>1.471035</ele>
        <time>2022-07-31T12:12:18.000Z</time>
      </trkpt>
      <trkpt lat="49.53371" lon="-1.30302">
        <ele>1.469724</ele>
        <time>2022-07-31T12:12:19.000Z</time>
      </trkpt>
      <trkpt lat="49.53369" lon="-1.303">
        <ele>1.468496</ele>
        <time>2022-07-31T12:12:20.000Z</time>
      </trkpt>
      <trkpt lat="49.53368" lon="-1.30298">
        <ele>1.467237</ele>
        <time>2022-07-31T12:12:21.000Z</time>
      </trkpt>
      <trkpt lat="49.53366" lon="-1.30296">
        <ele>1.465726</ele>
        <time>2022-07-31T12:12:22.000Z</time>
      </trkpt>
      <trkpt lat="49.53365" lon="-1.30293">
        <ele>1.464277</ele>
        <time>2022-07-31T12:12:23.000Z</time>
      </trkpt>
      <trkpt lat="49.53363" lon="-1.3029">
        <ele>1.462767</ele>
        <time>2022-07-31T12:12:24.000Z</time>
      </trkpt>
      <trkpt lat="49.53361" lon="-1.30288">
        <ele>1.461289</ele>
        <time>2022-07-31T12:12:25.000Z</time>
      </trkpt>
      <trkpt lat="49.5336" lon="-1.30285">
        <ele>1.459839</ele>
        <time>2022-07-31T12:12:26.000Z</time>
      </trkpt>
      <trkpt lat="49.53358" lon="-1.30283">
        <ele>1.458195</ele>
        <time>2022-07-31T12:12:27.000Z</time>
      </trkpt>
      <trkpt lat="49.53356" lon="-1.3028">
        <ele>1.456593</ele>
        <time>2022-07-31T12:12:28.000Z</time>
      </trkpt>
      <trkpt lat="49.53355" lon="-1.30277">
        <ele>1.455083</ele>
        <time>2022-07-31T12:12:29.000Z</time>
      </trkpt>
      <trkpt lat="49.53353" lon="-1.30274">
        <ele>1.453419</ele>
        <time>2022-07-31T12:12:30.000Z</time>
      </trkpt>
      <trkpt lat="49.53351" lon="-1.30272">
        <ele>1.45183</ele>
        <time>2022-07-31T12:12:31.000Z</time>
      </trkpt>
      <trkpt lat="49.53349" lon="-1.30269">
        <ele>1.450129</ele>
        <time>2022-07-31T12:12:32.000Z</time>
      </trkpt>
      <trkpt lat="49.53347" lon="-1.30265">
        <ele>1.448246</ele>
        <time>2022-07-31T12:12:33.000Z</time>
      </trkpt>
      <trkpt lat="49.53346" lon="-1.30262">
        <ele>1.446652</ele>
        <time>2022-07-31T12:12:34.000Z</time>
      </trkpt>
      <trkpt lat="49.53344" lon="-1.30259">
        <ele>1.44498</ele>
        <time>2022-07-31T12:12:35.000Z</time>
      </trkpt>
      <trkpt lat="49.53342" lon="-1.30256">
        <ele>1.44319</ele>
        <time>2022-07-31T12:12:36.000Z</time>
      </trkpt>
      <trkpt lat="49.5334" lon="-1.30253">
        <ele>1.441356</ele>
        <time>2022-07-31T12:12:37.000Z</time>
      </trkpt>
      <trkpt lat="49.53338" lon="-1.3025">
        <ele>1.439626</ele>
        <time>2022-07-31T12:12:38.000Z</time>
      </trkpt>
      <trkpt lat="49.53336" lon="-1.30247">
        <ele>1.437805</ele>
        <time>2022-07-31T12:12:39.000Z</time>
      </trkpt>
      <trkpt lat="49.53334" lon="-1.30243">
        <ele>1.435984</ele>
        <time>2022-07-31T12:12:40.000Z</time>
      </trkpt>
      <trkpt lat="49.53333" lon="-1.3024">
        <ele>1.434382</ele>
        <time>2022-07-31T12:12:41.000Z</time>
      </trkpt>
      <trkpt lat="49.5333" lon="-1.30238">
        <ele>1.432543</ele>
        <time>2022-07-31T12:12:42.000Z</time>
      </trkpt>
      <trkpt lat="49.53329" lon="-1.30235">
        <ele>1.431033</ele>
        <time>2022-07-31T12:12:43.000Z</time>
      </trkpt>
      <trkpt lat="49.53327" lon="-1.30232">
        <ele>1.429555</ele>
        <time>2022-07-31T12:12:44.000Z</time>
      </trkpt>
      <trkpt lat="49.53325" lon="-1.3023">
        <ele>1.427911</ele>
        <time>2022-07-31T12:12:45.000Z</time>
      </trkpt>
      <trkpt lat="49.53324" lon="-1.30227">
        <ele>1.426519</ele>
        <time>2022-07-31T12:12:46.000Z</time>
      </trkpt>
      <trkpt lat="49.53322" lon="-1.30225">
        <ele>1.42493</ele>
        <time>2022-07-31T12:12:47.000Z</time>
      </trkpt>
      <trkpt lat="49.53319" lon="-1.30222">
        <ele>1.422981</ele>
        <time>2022-07-31T12:12:48.000Z</time>
      </trkpt>
      <trkpt lat="49.53318" lon="-1.30219">
        <ele>1.421561</ele>
        <time>2022-07-31T12:12:49.000Z</time>
      </trkpt>
      <trkpt lat="49.53316" lon="-1.30217">
        <ele>1.419897</ele>
        <time>2022-07-31T12:12:50.000Z</time>
      </trkpt>
      <trkpt lat="49.53314" lon="-1.30215">
        <ele>1.418385</ele>
        <time>2022-07-31T12:12:51.000Z</time>
      </trkpt>
      <trkpt lat="49.53311" lon="-1.30214">
        <ele>1.416512</ele>
        <time>2022-07-31T12:12:52.000Z</time>
      </trkpt>
      <trkpt lat="49.53309" lon="-1.30214">
        <ele>1.415303</ele>
        <time>2022-07-31T12:12:53.000Z</time>
      </trkpt>
      <trkpt lat="49.53307" lon="-1.30215">
        <ele>1.414012</ele>
        <time>2022-07-31T12:12:54.000Z</time>
      </trkpt>
      <trkpt lat="49.53305" lon="-1.30217">
        <ele>1.412572</ele>
        <time>2022-07-31T12:12:55.000Z</time>
      </trkpt>
      <trkpt lat="49.53304" lon="-1.30219">
        <ele>1.411217</ele>
        <time>2022-07-31T12:12:56.000Z</time>
      </trkpt>
      <trkpt lat="49.53302" lon="-1.30223">
        <ele>1.409427</ele>
        <time>2022-07-31T12:12:57.000Z</time>
      </trkpt>
      <trkpt lat="49.533" lon="-1.30226">
        <ele>1.407543</ele>
        <time>2022-07-31T12:12:58.000Z</time>
      </trkpt>
      <trkpt lat="49.53298" lon="-1.3023">
        <ele>1.405556</ele>
        <time>2022-07-31T12:12:59.000Z</time>
      </trkpt>
      <trkpt lat="49.53297" lon="-1.30234">
        <ele>1.403616</ele>
        <time>2022-07-31T12:13:00.000Z</time>
      </trkpt>
      <trkpt lat="49.53295" lon="-1.30238">
        <ele>1.401641</ele>
        <time>2022-07-31T12:13:01.000Z</time>
      </trkpt>
      <trkpt lat="49.53294" lon="-1.30242">
        <ele>1.399737</ele>
        <time>2022-07-31T12:13:02.000Z</time>
      </trkpt>
      <trkpt lat="49.53293" lon="-1.30246">
        <ele>1.397762</ele>
        <time>2022-07-31T12:13:03.000Z</time>
      </trkpt>
      <trkpt lat="49.53291" lon="-1.30251">
        <ele>1.395752</ele>
        <time>2022-07-31T12:13:04.000Z</time>
      </trkpt>
      <trkpt lat="49.53289" lon="-1.30255">
        <ele>1.393813</ele>
        <time>2022-07-31T12:13:05.000Z</time>
      </trkpt>
      <trkpt lat="49.53287" lon="-1.30258">
        <ele>1.391833</ele>
        <time>2022-07-31T12:13:06.000Z</time>
      </trkpt>
      <trkpt lat="49.53285" lon="-1.30262">
        <ele>1.389781</ele>
        <time>2022-07-31T12:13:07.000Z</time>
      </trkpt>
      <trkpt lat="49.53284" lon="-1.30266">
        <ele>1.388081</ele>
        <time>2022-07-31T12:13:08.000Z</time>
      </trkpt>
      <trkpt lat="49.53282" lon="-1.30269">
        <ele>1.38715</ele>
        <time>2022-07-31T12:13:09.000Z</time>
      </trkpt>
      <trkpt lat="49.5328" lon="-1.30271">
        <ele>1.391205</ele>
        <time>2022-07-31T12:13:10.000Z</time>
      </trkpt>
      <trkpt lat="49.53277" lon="-1.30273">
        <ele>1.395788</ele>
        <time>2022-07-31T12:13:11.000Z</time>
      </trkpt>
      <trkpt lat="49.53275" lon="-1.30274">
        <ele>1.399979</ele>
        <time>2022-07-31T12:13:12.000Z</time>
      </trkpt>
      <trkpt lat="49.53273" lon="-1.30274">
        <ele>1.403712</ele>
        <time>2022-07-31T12:13:13.000Z</time>
      </trkpt>
      <trkpt lat="49.5327" lon="-1.30273">
        <ele>1.407855</ele>
        <time>2022-07-31T12:13:14.000Z</time>
      </trkpt>
      <trkpt lat="49.53267" lon="-1.30272">
        <ele>1.412819</ele>
        <time>2022-07-31T12:13:15.000Z</time>
      </trkpt>
      <trkpt lat="49.53265" lon="-1.3027">
        <ele>1.417402</ele>
        <time>2022-07-31T12:13:16.000Z</time>
      </trkpt>
      <trkpt lat="49.53262" lon="-1.30268">
        <ele>1.42135</ele>
        <time>2022-07-31T12:13:17.000Z</time>
      </trkpt>
      <trkpt lat="49.5326" lon="-1.30266">
        <ele>1.426463</ele>
        <time>2022-07-31T12:13:18.000Z</time>
      </trkpt>
      <trkpt lat="49.53257" lon="-1.30264">
        <ele>1.431034</ele>
        <time>2022-07-31T12:13:19.000Z</time>
      </trkpt>
      <trkpt lat="49.53254" lon="-1.30262">
        <ele>1.435899</ele>
        <time>2022-07-31T12:13:20.000Z</time>
      </trkpt>
      <trkpt lat="49.53252" lon="-1.30259">
        <ele>1.441397</ele>
        <time>2022-07-31T12:13:21.000Z</time>
      </trkpt>
      <trkpt lat="49.53249" lon="-1.30257">
        <ele>1.446122</ele>
        <time>2022-07-31T12:13:22.000Z</time>
      </trkpt>
      <trkpt lat="49.53246" lon="-1.30255">
        <ele>1.450935</ele>
        <time>2022-07-31T12:13:23.000Z</time>
      </trkpt>
      <trkpt lat="49.53243" lon="-1.30253">
        <ele>1.456538</ele>
        <time>2022-07-31T12:13:24.000Z</time>
      </trkpt>
      <trkpt lat="49.5324" lon="-1.30251">
        <ele>1.461694</ele>
        <time>2022-07-31T12:13:25.000Z</time>
      </trkpt>
      <trkpt lat="49.53237" lon="-1.30248">
        <ele>1.467564</ele>
        <time>2022-07-31T12:13:26.000Z</time>
      </trkpt>
      <trkpt lat="49.53235" lon="-1.30246">
        <ele>1.4724</ele>
        <time>2022-07-31T12:13:27.000Z</time>
      </trkpt>
      <trkpt lat="49.53232" lon="-1.30243">
        <ele>1.47801</ele>
        <time>2022-07-31T12:13:28.000Z</time>
      </trkpt>
      <trkpt lat="49.53229" lon="-1.3024">
        <ele>1.483157</ele>
        <time>2022-07-31T12:13:29.000Z</time>
      </trkpt>
      <trkpt lat="49.53227" lon="-1.30237">
        <ele>1.488172</ele>
        <time>2022-07-31T12:13:30.000Z</time>
      </trkpt>
      <trkpt lat="49.53224" lon="-1.30234">
        <ele>1.493782</ele>
        <time>2022-07-31T12:13:31.000Z</time>
      </trkpt>
      <trkpt lat="49.53221" lon="-1.30232">
        <ele>1.498411</ele>
        <time>2022-07-31T12:13:32.000Z</time>
      </trkpt>
      <trkpt lat="49.53219" lon="-1.30229">
        <ele>1.503247</ele>
        <time>2022-07-31T12:13:33.000Z</time>
      </trkpt>
      <trkpt lat="49.53216" lon="-1.30227">
        <ele>1.50822</ele>
        <time>2022-07-31T12:13:34.000Z</time>
      </trkpt>
      <trkpt lat="49.53213" lon="-1.30224">
        <ele>1.513612</ele>
        <time>2022-07-31T12:13:35.000Z</time>
      </trkpt>
      <trkpt lat="49.53211" lon="-1.30222">
        <ele>1.518176</ele>
        <time>2022-07-31T12:13:36.000Z</time>
      </trkpt>
      <trkpt lat="49.53209" lon="-1.30219">
        <ele>1.52274</ele>
        <time>2022-07-31T12:13:37.000Z</time>
      </trkpt>
      <trkpt lat="49.53206" lon="-1.30216">
        <ele>1.528011</ele>
        <time>2022-07-31T12:13:38.000Z</time>
      </trkpt>
      <trkpt lat="49.53204" lon="-1.30213">
        <ele>1.533281</ele>
        <time>2022-07-31T12:13:39.000Z</time>
      </trkpt>
      <trkpt lat="49.53201" lon="-1.3021">
        <ele>1.538296</ele>
        <time>2022-07-31T12:13:40.000Z</time>
      </trkpt>
      <trkpt lat="49.53199" lon="-1.30207">
        <ele>1.543567</ele>
        <time>2022-07-31T12:13:41.000Z</time>
      </trkpt>
      <trkpt lat="49.53197" lon="-1.30204">
        <ele>1.548334</ele>
        <time>2022-07-31T12:13:42.000Z</time>
      </trkpt>
      <trkpt lat="49.53195" lon="-1.30201">
        <ele>1.552749</ele>
        <time>2022-07-31T12:13:43.000Z</time>
      </trkpt>
      <trkpt lat="49.53193" lon="-1.30198">
        <ele>1.557134</ele>
        <time>2022-07-31T12:13:44.000Z</time>
      </trkpt>
      <trkpt lat="49.5319" lon="-1.30196">
        <ele>1.561913</ele>
        <time>2022-07-31T12:13:45.000Z</time>
      </trkpt>
      <trkpt lat="49.53189" lon="-1.30193">
        <ele>1.565611</ele>
        <time>2022-07-31T12:13:46.000Z</time>
      </trkpt>
      <trkpt lat="49.53187" lon="-1.30191">
        <ele>1.569236</ele>
        <time>2022-07-31T12:13:47.000Z</time>
      </trkpt>
      <trkpt lat="49.53186" lon="-1.30187">
        <ele>1.573483</ele>
        <time>2022-07-31T12:13:48.000Z</time>
      </trkpt>
      <trkpt lat="49.53186" lon="-1.30183">
        <ele>1.577515</ele>
        <time>2022-07-31T12:13:49.000Z</time>
      </trkpt>
      <trkpt lat="49.53186" lon="-1.30179">
        <ele>1.581727</ele>
        <time>2022-07-31T12:13:50.000Z</time>
      </trkpt>
      <trkpt lat="49.53187" lon="-1.30175">
        <ele>1.586439</ele>
        <time>2022-07-31T12:13:51.000Z</time>
      </trkpt>
      <trkpt lat="49.53187" lon="-1.30171">
        <ele>1.590968</ele>
        <time>2022-07-31T12:13:52.000Z</time>
      </trkpt>
      <trkpt lat="49.53188" lon="-1.30167">
        <ele>1.595394</ele>
        <time>2022-07-31T12:13:53.000Z</time>
      </trkpt>
      <trkpt lat="49.53189" lon="-1.30163">
        <ele>1.599825</ele>
        <time>2022-07-31T12:13:54.000Z</time>
      </trkpt>
      <trkpt lat="49.5319" lon="-1.3016">
        <ele>1.603682</ele>
        <time>2022-07-31T12:13:55.000Z</time>
      </trkpt>
      <trkpt lat="49.53191" lon="-1.30156">
        <ele>1.607574</ele>
        <time>2022-07-31T12:13:56.000Z</time>
      </trkpt>
      <trkpt lat="49.53192" lon="-1.30153">
        <ele>1.611601</ele>
        <time>2022-07-31T12:13:57.000Z</time>
      </trkpt>
      <trkpt lat="49.53193" lon="-1.3015">
        <ele>1.615667</ele>
        <time>2022-07-31T12:13:58.000Z</time>
      </trkpt>
      <trkpt lat="49.53195" lon="-1.30146">
        <ele>1.619921</ele>
        <time>2022-07-31T12:13:59.000Z</time>
      </trkpt>
      <trkpt lat="49.53196" lon="-1.30142">
        <ele>1.624379</ele>
        <time>2022-07-31T12:14:00.000Z</time>
      </trkpt>
      <trkpt lat="49.53197" lon="-1.30138">
        <ele>1.628894</ele>
        <time>2022-07-31T12:14:01.000Z</time>
      </trkpt>
      <trkpt lat="49.53197" lon="-1.30134">
        <ele>1.633239</ele>
        <time>2022-07-31T12:14:02.000Z</time>
      </trkpt>
      <trkpt lat="49.53197" lon="-1.3013">
        <ele>1.637689</ele>
        <time>2022-07-31T12:14:03.000Z</time>
      </trkpt>
      <trkpt lat="49.53197" lon="-1.30126">
        <ele>1.642243</ele>
        <time>2022-07-31T12:14:04.000Z</time>
      </trkpt>
      <trkpt lat="49.53197" lon="-1.30122">
        <ele>1.646693</ele>
        <time>2022-07-31T12:14:05.000Z</time>
      </trkpt>
      <trkpt lat="49.53197" lon="-1.30118">
        <ele>1.650934</ele>
        <time>2022-07-31T12:14:06.000Z</time>
      </trkpt>
      <trkpt lat="49.53196" lon="-1.30114">
        <ele>1.655252</ele>
        <time>2022-07-31T12:14:07.000Z</time>
      </trkpt>
      <trkpt lat="49.53195" lon="-1.3011">
        <ele>1.659413</ele>
        <time>2022-07-31T12:14:08.000Z</time>
      </trkpt>
      <trkpt lat="49.53193" lon="-1.30107">
        <ele>1.663503</ele>
        <time>2022-07-31T12:14:09.000Z</time>
      </trkpt>
      <trkpt lat="49.53191" lon="-1.30104">
        <ele>1.668181</ele>
        <time>2022-07-31T12:14:10.000Z</time>
      </trkpt>
      <trkpt lat="49.53189" lon="-1.30101">
        <ele>1.672811</ele>
        <time>2022-07-31T12:14:11.000Z</time>
      </trkpt>
      <trkpt lat="49.53187" lon="-1.30099">
        <ele>1.677125</ele>
        <time>2022-07-31T12:14:12.000Z</time>
      </trkpt>
      <trkpt lat="49.53184" lon="-1.30097">
        <ele>1.69028</ele>
        <time>2022-07-31T12:14:13.000Z</time>
      </trkpt>
      <trkpt lat="49.53182" lon="-1.30094">
        <ele>1.704855</ele>
        <time>2022-07-31T12:14:14.000Z</time>
      </trkpt>
      <trkpt lat="49.53179" lon="-1.30092">
        <ele>1.72147</ele>
        <time>2022-07-31T12:14:15.000Z</time>
      </trkpt>
      <trkpt lat="49.53177" lon="-1.30089">
        <ele>1.736456</ele>
        <time>2022-07-31T12:14:16.000Z</time>
      </trkpt>
      <trkpt lat="49.53175" lon="-1.30088">
        <ele>1.750598</ele>
        <time>2022-07-31T12:14:17.000Z</time>
      </trkpt>
      <trkpt lat="49.53172" lon="-1.30086">
        <ele>1.767367</ele>
        <time>2022-07-31T12:14:18.000Z</time>
      </trkpt>
      <trkpt lat="49.53169" lon="-1.30085">
        <ele>1.782075</ele>
        <time>2022-07-31T12:14:19.000Z</time>
      </trkpt>
      <trkpt lat="49.53167" lon="-1.30083">
        <ele>1.797558</ele>
        <time>2022-07-31T12:14:20.000Z</time>
      </trkpt>
      <trkpt lat="49.53164" lon="-1.30081">
        <ele>1.812266</ele>
        <time>2022-07-31T12:14:21.000Z</time>
      </trkpt>
      <trkpt lat="49.53162" lon="-1.3008">
        <ele>1.826408</ele>
        <time>2022-07-31T12:14:22.000Z</time>
      </trkpt>
      <trkpt lat="49.53159" lon="-1.30077">
        <ele>1.842191</ele>
        <time>2022-07-31T12:14:23.000Z</time>
      </trkpt>
      <trkpt lat="49.53157" lon="-1.30075">
        <ele>1.855262</ele>
        <time>2022-07-31T12:14:24.000Z</time>
      </trkpt>
      <trkpt lat="49.53156" lon="-1.30073">
        <ele>1.86808</ele>
        <time>2022-07-31T12:14:25.000Z</time>
      </trkpt>
      <trkpt lat="49.53153" lon="-1.30071">
        <ele>1.883522</ele>
        <time>2022-07-31T12:14:26.000Z</time>
      </trkpt>
      <trkpt lat="49.5315" lon="-1.3007">
        <ele>1.899006</ele>
        <time>2022-07-31T12:14:27.000Z</time>
      </trkpt>
      <trkpt lat="49.53149" lon="-1.30068">
        <ele>1.910301</ele>
        <time>2022-07-31T12:14:28.000Z</time>
      </trkpt>
      <trkpt lat="49.53146" lon="-1.30066">
        <ele>1.927718</ele>
        <time>2022-07-31T12:14:29.000Z</time>
      </trkpt>
      <trkpt lat="49.53144" lon="-1.30064">
        <ele>1.941722</ele>
        <time>2022-07-31T12:14:30.000Z</time>
      </trkpt>
      <trkpt lat="49.53141" lon="-1.30062">
        <ele>1.955864</ele>
        <time>2022-07-31T12:14:31.000Z</time>
      </trkpt>
      <trkpt lat="49.53139" lon="-1.3006">
        <ele>1.969052</ele>
        <time>2022-07-31T12:14:32.000Z</time>
      </trkpt>
      <trkpt lat="49.53137" lon="-1.30058">
        <ele>1.983055</ele>
        <time>2022-07-31T12:14:33.000Z</time>
      </trkpt>
      <trkpt lat="49.53134" lon="-1.30056">
        <ele>2.001101</ele>
        <time>2022-07-31T12:14:34.000Z</time>
      </trkpt>
      <trkpt lat="49.53132" lon="-1.30054">
        <ele>2.015758</ele>
        <time>2022-07-31T12:14:35.000Z</time>
      </trkpt>
      <trkpt lat="49.5313" lon="-1.30052">
        <ele>2.030136</ele>
        <time>2022-07-31T12:14:36.000Z</time>
      </trkpt>
      <trkpt lat="49.53127" lon="-1.3005">
        <ele>2.045619</ele>
        <time>2022-07-31T12:14:37.000Z</time>
      </trkpt>
      <trkpt lat="49.53124" lon="-1.30048">
        <ele>2.06187</ele>
        <time>2022-07-31T12:14:38.000Z</time>
      </trkpt>
      <trkpt lat="49.53122" lon="-1.30047">
        <ele>2.07709</ele>
        <time>2022-07-31T12:14:39.000Z</time>
      </trkpt>
      <trkpt lat="49.53119" lon="-1.30045">
        <ele>2.093021</ele>
        <time>2022-07-31T12:14:40.000Z</time>
      </trkpt>
      <trkpt lat="49.53116" lon="-1.30043">
        <ele>2.10994</ele>
        <time>2022-07-31T12:14:41.000Z</time>
      </trkpt>
      <trkpt lat="49.53114" lon="-1.30041">
        <ele>2.126033</ele>
        <time>2022-07-31T12:14:42.000Z</time>
      </trkpt>
      <trkpt lat="49.53111" lon="-1.30039">
        <ele>2.142294</ele>
        <time>2022-07-31T12:14:43.000Z</time>
      </trkpt>
      <trkpt lat="49.53108" lon="-1.30036">
        <ele>2.162294</ele>
        <time>2022-07-31T12:14:44.000Z</time>
      </trkpt>
      <trkpt lat="49.53105" lon="-1.30033">
        <ele>2.179238</ele>
        <time>2022-07-31T12:14:45.000Z</time>
      </trkpt>
      <trkpt lat="49.53102" lon="-1.3003">
        <ele>2.200857</ele>
        <time>2022-07-31T12:14:46.000Z</time>
      </trkpt>
      <trkpt lat="49.53099" lon="-1.30027">
        <ele>2.221209</ele>
        <time>2022-07-31T12:14:47.000Z</time>
      </trkpt>
      <trkpt lat="49.53095" lon="-1.30025">
        <ele>2.241041</ele>
        <time>2022-07-31T12:14:48.000Z</time>
      </trkpt>
      <trkpt lat="49.53092" lon="-1.30022">
        <ele>2.261576</ele>
        <time>2022-07-31T12:14:49.000Z</time>
      </trkpt>
      <trkpt lat="49.53089" lon="-1.30019">
        <ele>2.284013</ele>
        <time>2022-07-31T12:14:50.000Z</time>
      </trkpt>
      <trkpt lat="49.53086" lon="-1.30016">
        <ele>2.302709</ele>
        <time>2022-07-31T12:14:51.000Z</time>
      </trkpt>
      <trkpt lat="49.53083" lon="-1.30013">
        <ele>2.323061</ele>
        <time>2022-07-31T12:14:52.000Z</time>
      </trkpt>
      <trkpt lat="49.53079" lon="-1.3001">
        <ele>2.34273</ele>
        <time>2022-07-31T12:14:53.000Z</time>
      </trkpt>
      <trkpt lat="49.53076" lon="-1.30008">
        <ele>2.364094</ele>
        <time>2022-07-31T12:14:54.000Z</time>
      </trkpt>
      <trkpt lat="49.53072" lon="-1.30006">
        <ele>2.385243</ele>
        <time>2022-07-31T12:14:55.000Z</time>
      </trkpt>
      <trkpt lat="49.53069" lon="-1.30003">
        <ele>2.404005</ele>
        <time>2022-07-31T12:14:56.000Z</time>
      </trkpt>
      <trkpt lat="49.53066" lon="-1.3">
        <ele>2.42579</ele>
        <time>2022-07-31T12:14:57.000Z</time>
      </trkpt>
      <trkpt lat="49.53062" lon="-1.29997">
        <ele>2.446939</ele>
        <time>2022-07-31T12:14:58.000Z</time>
      </trkpt>
      <trkpt lat="49.53059" lon="-1.29995">
        <ele>2.468558</ele>
        <time>2022-07-31T12:14:59.000Z</time>
      </trkpt>
      <trkpt lat="49.53056" lon="-1.29992">
        <ele>2.488559</ele>
        <time>2022-07-31T12:15:00.000Z</time>
      </trkpt>
      <trkpt lat="49.53052" lon="-1.29989">
        <ele>2.510178</ele>
        <time>2022-07-31T12:15:01.000Z</time>
      </trkpt>
      <trkpt lat="49.53049" lon="-1.29986">
        <ele>2.530352</ele>
        <time>2022-07-31T12:15:02.000Z</time>
      </trkpt>
      <trkpt lat="49.53046" lon="-1.29983">
        <ele>2.550887</ele>
        <time>2022-07-31T12:15:03.000Z</time>
      </trkpt>
      <trkpt lat="49.53043" lon="-1.2998">
        <ele>2.571421</ele>
        <time>2022-07-31T12:15:04.000Z</time>
      </trkpt>
      <trkpt lat="49.5304" lon="-1.29977">
        <ele>2.590374</ele>
        <time>2022-07-31T12:15:05.000Z</time>
      </trkpt>
      <trkpt lat="49.53036" lon="-1.29975">
        <ele>2.611994</ele>
        <time>2022-07-31T12:15:06.000Z</time>
      </trkpt>
      <trkpt lat="49.53033" lon="-1.29972">
        <ele>2.634101</ele>
        <time>2022-07-31T12:15:07.000Z</time>
      </trkpt>
      <trkpt lat="49.5303" lon="-1.29969">
        <ele>2.651842</ele>
        <time>2022-07-31T12:15:08.000Z</time>
      </trkpt>
      <trkpt lat="49.53026" lon="-1.29967">
        <ele>2.661639</ele>
        <time>2022-07-31T12:15:09.000Z</time>
      </trkpt>
      <trkpt lat="49.53023" lon="-1.29964">
        <ele>2.655622</ele>
        <time>2022-07-31T12:15:10.000Z</time>
      </trkpt>
      <trkpt lat="49.5302" lon="-1.29961">
        <ele>2.649553</ele>
        <time>2022-07-31T12:15:11.000Z</time>
      </trkpt>
      <trkpt lat="49.53017" lon="-1.29959">
        <ele>2.643635</ele>
        <time>2022-07-31T12:15:12.000Z</time>
      </trkpt>
      <trkpt lat="49.53013" lon="-1.29956">
        <ele>2.63718</ele>
        <time>2022-07-31T12:15:13.000Z</time>
      </trkpt>
      <trkpt lat="49.5301" lon="-1.29953">
        <ele>2.631358</ele>
        <time>2022-07-31T12:15:14.000Z</time>
      </trkpt>
      <trkpt lat="49.53007" lon="-1.29949">
        <ele>2.624476</ele>
        <time>2022-07-31T12:15:15.000Z</time>
      </trkpt>
      <trkpt lat="49.53004" lon="-1.29945">
        <ele>2.618128</ele>
        <time>2022-07-31T12:15:16.000Z</time>
      </trkpt>
      <trkpt lat="49.53001" lon="-1.29942">
        <ele>2.611593</ele>
        <time>2022-07-31T12:15:17.000Z</time>
      </trkpt>
      <trkpt lat="49.52997" lon="-1.29938">
        <ele>2.604797</ele>
        <time>2022-07-31T12:15:18.000Z</time>
      </trkpt>
      <trkpt lat="49.52995" lon="-1.29933">
        <ele>2.5982</ele>
        <time>2022-07-31T12:15:19.000Z</time>
      </trkpt>
      <trkpt lat="49.52992" lon="-1.29929">
        <ele>2.592064</ele>
        <time>2022-07-31T12:15:20.000Z</time>
      </trkpt>
      <trkpt lat="49.52989" lon="-1.29925">
        <ele>2.58499</ele>
        <time>2022-07-31T12:15:21.000Z</time>
      </trkpt>
      <trkpt lat="49.52986" lon="-1.29921">
        <ele>2.578571</ele>
        <time>2022-07-31T12:15:22.000Z</time>
      </trkpt>
      <trkpt lat="49.52983" lon="-1.29917">
        <ele>2.572036</ele>
        <time>2022-07-31T12:15:23.000Z</time>
      </trkpt>
      <trkpt lat="49.5298" lon="-1.29913">
        <ele>2.56524</ele>
        <time>2022-07-31T12:15:24.000Z</time>
      </trkpt>
      <trkpt lat="49.52976" lon="-1.29909">
        <ele>2.55851</ele>
        <time>2022-07-31T12:15:25.000Z</time>
      </trkpt>
      <trkpt lat="49.52973" lon="-1.29906">
        <ele>2.551975</ele>
        <time>2022-07-31T12:15:26.000Z</time>
      </trkpt>
      <trkpt lat="49.52969" lon="-1.29902">
        <ele>2.544561</ele>
        <time>2022-07-31T12:15:27.000Z</time>
      </trkpt>
      <trkpt lat="49.52966" lon="-1.29899">
        <ele>2.538089</ele>
        <time>2022-07-31T12:15:28.000Z</time>
      </trkpt>
      <trkpt lat="49.52963" lon="-1.29896">
        <ele>2.531483</ele>
        <time>2022-07-31T12:15:29.000Z</time>
      </trkpt>
      <trkpt lat="49.52959" lon="-1.29893">
        <ele>2.524832</ele>
        <time>2022-07-31T12:15:30.000Z</time>
      </trkpt>
      <trkpt lat="49.52955" lon="-1.2989">
        <ele>2.51779</ele>
        <time>2022-07-31T12:15:31.000Z</time>
      </trkpt>
      <trkpt lat="49.52952" lon="-1.29887">
        <ele>2.511184</ele>
        <time>2022-07-31T12:15:32.000Z</time>
      </trkpt>
      <trkpt lat="49.52948" lon="-1.29884">
        <ele>2.503897</ele>
        <time>2022-07-31T12:15:33.000Z</time>
      </trkpt>
      <trkpt lat="49.52944" lon="-1.2988">
        <ele>2.497185</ele>
        <time>2022-07-31T12:15:34.000Z</time>
      </trkpt>
      <trkpt lat="49.52941" lon="-1.29877">
        <ele>2.490142</ele>
        <time>2022-07-31T12:15:35.000Z</time>
      </trkpt>
      <trkpt lat="49.52937" lon="-1.29874">
        <ele>2.482953</ele>
        <time>2022-07-31T12:15:36.000Z</time>
      </trkpt>
      <trkpt lat="49.52933" lon="-1.29872">
        <ele>2.476449</ele>
        <time>2022-07-31T12:15:37.000Z</time>
      </trkpt>
      <trkpt lat="49.52929" lon="-1.29869">
        <ele>2.469502</ele>
        <time>2022-07-31T12:15:38.000Z</time>
      </trkpt>
      <trkpt lat="49.52926" lon="-1.29866">
        <ele>2.462947</ele>
        <time>2022-07-31T12:15:39.000Z</time>
      </trkpt>
      <trkpt lat="49.52922" lon="-1.29863">
        <ele>2.455709</ele>
        <time>2022-07-31T12:15:40.000Z</time>
      </trkpt>
      <trkpt lat="49.52919" lon="-1.2986">
        <ele>2.449418</ele>
        <time>2022-07-31T12:15:41.000Z</time>
      </trkpt>
      <trkpt lat="49.52915" lon="-1.29856">
        <ele>2.442275</ele>
        <time>2022-07-31T12:15:42.000Z</time>
      </trkpt>
      <trkpt lat="49.52911" lon="-1.29853">
        <ele>2.435037</ele>
        <time>2022-07-31T12:15:43.000Z</time>
      </trkpt>
      <trkpt lat="49.52907" lon="-1.2985">
        <ele>2.42779</ele>
        <time>2022-07-31T12:15:44.000Z</time>
      </trkpt>
      <trkpt lat="49.52904" lon="-1.29847">
        <ele>2.421131</ele>
        <time>2022-07-31T12:15:45.000Z</time>
      </trkpt>
      <trkpt lat="49.529" lon="-1.29844">
        <ele>2.414526</ele>
        <time>2022-07-31T12:15:46.000Z</time>
      </trkpt>
      <trkpt lat="49.52897" lon="-1.29841">
        <ele>2.407826</ele>
        <time>2022-07-31T12:15:47.000Z</time>
      </trkpt>
      <trkpt lat="49.52893" lon="-1.29838">
        <ele>2.400968</ele>
        <time>2022-07-31T12:15:48.000Z</time>
      </trkpt>
      <trkpt lat="49.52889" lon="-1.29835">
        <ele>2.394414</ele>
        <time>2022-07-31T12:15:49.000Z</time>
      </trkpt>
      <trkpt lat="49.52886" lon="-1.29833">
        <ele>2.38791</ele>
        <time>2022-07-31T12:15:50.000Z</time>
      </trkpt>
      <trkpt lat="49.52882" lon="-1.2983">
        <ele>2.380813</ele>
        <time>2022-07-31T12:15:51.000Z</time>
      </trkpt>
      <trkpt lat="49.52879" lon="-1.29827">
        <ele>2.37469</ele>
        <time>2022-07-31T12:15:52.000Z</time>
      </trkpt>
      <trkpt lat="49.52875" lon="-1.29824">
        <ele>2.368085</ele>
        <time>2022-07-31T12:15:53.000Z</time>
      </trkpt>
      <trkpt lat="49.52872" lon="-1.29821">
        <ele>2.377121</ele>
        <time>2022-07-31T12:15:54.000Z</time>
      </trkpt>
      <trkpt lat="49.52868" lon="-1.29818">
        <ele>2.387749</ele>
        <time>2022-07-31T12:15:55.000Z</time>
      </trkpt>
      <trkpt lat="49.52865" lon="-1.29816">
        <ele>2.395908</ele>
        <time>2022-07-31T12:15:56.000Z</time>
      </trkpt>
      <trkpt lat="49.52861" lon="-1.29812">
        <ele>2.406175</ele>
        <time>2022-07-31T12:15:57.000Z</time>
      </trkpt>
      <trkpt lat="49.52858" lon="-1.2981">
        <ele>2.415917</ele>
        <time>2022-07-31T12:15:58.000Z</time>
      </trkpt>
      <trkpt lat="49.52855" lon="-1.29807">
        <ele>2.424286</ele>
        <time>2022-07-31T12:15:59.000Z</time>
      </trkpt>
      <trkpt lat="49.52852" lon="-1.29804">
        <ele>2.433884</ele>
        <time>2022-07-31T12:16:00.000Z</time>
      </trkpt>
      <trkpt lat="49.52849" lon="-1.29802">
        <ele>2.441247</ele>
        <time>2022-07-31T12:16:01.000Z</time>
      </trkpt>
      <trkpt lat="49.52846" lon="-1.298">
        <ele>2.449777</ele>
        <time>2022-07-31T12:16:02.000Z</time>
      </trkpt>
      <trkpt lat="49.52843" lon="-1.29798">
        <ele>2.456885</ele>
        <time>2022-07-31T12:16:03.000Z</time>
      </trkpt>
      <trkpt lat="49.5284" lon="-1.29796">
        <ele>2.464734</ele>
        <time>2022-07-31T12:16:04.000Z</time>
      </trkpt>
      <trkpt lat="49.52837" lon="-1.29794">
        <ele>2.472649</ele>
        <time>2022-07-31T12:16:05.000Z</time>
      </trkpt>
      <trkpt lat="49.52835" lon="-1.29792">
        <ele>2.478959</ele>
        <time>2022-07-31T12:16:06.000Z</time>
      </trkpt>
      <trkpt lat="49.52832" lon="-1.2979">
        <ele>2.486743</ele>
        <time>2022-07-31T12:16:07.000Z</time>
      </trkpt>
      <trkpt lat="49.5283" lon="-1.29788">
        <ele>2.493559</ele>
        <time>2022-07-31T12:16:08.000Z</time>
      </trkpt>
      <trkpt lat="49.52828" lon="-1.29786">
        <ele>2.499932</ele>
        <time>2022-07-31T12:16:09.000Z</time>
      </trkpt>
      <trkpt lat="49.52825" lon="-1.29784">
        <ele>2.507716</ele>
        <time>2022-07-31T12:16:10.000Z</time>
      </trkpt>
      <trkpt lat="49.52822" lon="-1.29783">
        <ele>2.514533</ele>
        <time>2022-07-31T12:16:11.000Z</time>
      </trkpt>
      <trkpt lat="49.5282" lon="-1.29781">
        <ele>2.521056</ele>
        <time>2022-07-31T12:16:12.000Z</time>
      </trkpt>
      <trkpt lat="49.52817" lon="-1.29778">
        <ele>2.528168</ele>
        <time>2022-07-31T12:16:13.000Z</time>
      </trkpt>
      <trkpt lat="49.52815" lon="-1.29776">
        <ele>2.535574</ele>
        <time>2022-07-31T12:16:14.000Z</time>
      </trkpt>
      <trkpt lat="49.52813" lon="-1.29773">
        <ele>2.542522</ele>
        <time>2022-07-31T12:16:15.000Z</time>
      </trkpt>
      <trkpt lat="49.5281" lon="-1.29771">
        <ele>2.549475</ele>
        <time>2022-07-31T12:16:16.000Z</time>
      </trkpt>
      <trkpt lat="49.52808" lon="-1.29768">
        <ele>2.555647</ele>
        <time>2022-07-31T12:16:17.000Z</time>
      </trkpt>
      <trkpt lat="49.52806" lon="-1.29766">
        <ele>2.561331</ele>
        <time>2022-07-31T12:16:18.000Z</time>
      </trkpt>
      <trkpt lat="49.52804" lon="-1.29764">
        <ele>2.567724</ele>
        <time>2022-07-31T12:16:19.000Z</time>
      </trkpt>
      <trkpt lat="49.52802" lon="-1.29763">
        <ele>2.573366</ele>
        <time>2022-07-31T12:16:20.000Z</time>
      </trkpt>
      <trkpt lat="49.52801" lon="-1.29761">
        <ele>2.577834</ele>
        <time>2022-07-31T12:16:21.000Z</time>
      </trkpt>
      <trkpt lat="49.52799" lon="-1.29754">
        <ele>2.589852</ele>
        <time>2022-07-31T12:21:57.000Z</time>
      </trkpt>
      <trkpt lat="49.52796" lon="-1.29752">
        <ele>2.59806</ele>
        <time>2022-07-31T12:21:58.000Z</time>
      </trkpt>
      <trkpt lat="49.52792" lon="-1.29749">
        <ele>2.607659</ele>
        <time>2022-07-31T12:21:59.000Z</time>
      </trkpt>
      <trkpt lat="49.52789" lon="-1.29747">
        <ele>2.615867</ele>
        <time>2022-07-31T12:22:00.000Z</time>
      </trkpt>
      <trkpt lat="49.52786" lon="-1.29744">
        <ele>2.625038</ele>
        <time>2022-07-31T12:22:01.000Z</time>
      </trkpt>
      <trkpt lat="49.52783" lon="-1.29741">
        <ele>2.634779</ele>
        <time>2022-07-31T12:22:02.000Z</time>
      </trkpt>
      <trkpt lat="49.5278" lon="-1.29738">
        <ele>2.644032</ele>
        <time>2022-07-31T12:22:03.000Z</time>
      </trkpt>
      <trkpt lat="49.52776" lon="-1.29735">
        <ele>2.653926</ele>
        <time>2022-07-31T12:22:04.000Z</time>
      </trkpt>
      <trkpt lat="49.52773" lon="-1.29732">
        <ele>2.663979</ele>
        <time>2022-07-31T12:22:05.000Z</time>
      </trkpt>
      <trkpt lat="49.52769" lon="-1.29729">
        <ele>2.674115</ele>
        <time>2022-07-31T12:22:06.000Z</time>
      </trkpt>
      <trkpt lat="49.52766" lon="-1.29726">
        <ele>2.683368</ele>
        <time>2022-07-31T12:22:07.000Z</time>
      </trkpt>
      <trkpt lat="49.52762" lon="-1.29722">
        <ele>2.694058</ele>
        <time>2022-07-31T12:22:08.000Z</time>
      </trkpt>
      <trkpt lat="49.52759" lon="-1.29718">
        <ele>2.704365</ele>
        <time>2022-07-31T12:22:09.000Z</time>
      </trkpt>
      <trkpt lat="49.52755" lon="-1.29715">
        <ele>2.715301</ele>
        <time>2022-07-31T12:22:10.000Z</time>
      </trkpt>
      <trkpt lat="49.52751" lon="-1.29711">
        <ele>2.726875</ele>
        <time>2022-07-31T12:22:11.000Z</time>
      </trkpt>
      <trkpt lat="49.52748" lon="-1.29707">
        <ele>2.736855</ele>
        <time>2022-07-31T12:22:12.000Z</time>
      </trkpt>
      <trkpt lat="49.52744" lon="-1.29703">
        <ele>2.748223</ele>
        <time>2022-07-31T12:22:13.000Z</time>
      </trkpt>
      <trkpt lat="49.52741" lon="-1.29699">
        <ele>2.759182</ele>
        <time>2022-07-31T12:22:14.000Z</time>
      </trkpt>
      <trkpt lat="49.52737" lon="-1.29695">
        <ele>2.770755</ele>
        <time>2022-07-31T12:22:15.000Z</time>
      </trkpt>
      <trkpt lat="49.52733" lon="-1.29691">
        <ele>2.781946</ele>
        <time>2022-07-31T12:22:16.000Z</time>
      </trkpt>
      <trkpt lat="49.52729" lon="-1.29687">
        <ele>2.793136</ele>
        <time>2022-07-31T12:22:17.000Z</time>
      </trkpt>
      <trkpt lat="49.52726" lon="-1.29683">
        <ele>2.803215</ele>
        <time>2022-07-31T12:22:18.000Z</time>
      </trkpt>
      <trkpt lat="49.52722" lon="-1.29679">
        <ele>2.815092</ele>
        <time>2022-07-31T12:22:19.000Z</time>
      </trkpt>
      <trkpt lat="49.52718" lon="-1.29675">
        <ele>2.826685</ele>
        <time>2022-07-31T12:22:20.000Z</time>
      </trkpt>
      <trkpt lat="49.52715" lon="-1.29671">
        <ele>2.838278</ele>
        <time>2022-07-31T12:22:21.000Z</time>
      </trkpt>
      <trkpt lat="49.52711" lon="-1.29667">
        <ele>2.84987</ele>
        <time>2022-07-31T12:22:22.000Z</time>
      </trkpt>
      <trkpt lat="49.52708" lon="-1.29663">
        <ele>2.862334</ele>
        <time>2022-07-31T12:22:23.000Z</time>
      </trkpt>
      <trkpt lat="49.52704" lon="-1.29659">
        <ele>2.873517</ele>
        <time>2022-07-31T12:22:24.000Z</time>
      </trkpt>
      <trkpt lat="49.52701" lon="-1.29655">
        <ele>2.885319</ele>
        <time>2022-07-31T12:22:25.000Z</time>
      </trkpt>
      <trkpt lat="49.52697" lon="-1.29651">
        <ele>2.896912</ele>
        <time>2022-07-31T12:22:26.000Z</time>
      </trkpt>
      <trkpt lat="49.52694" lon="-1.29647">
        <ele>2.907874</ele>
        <time>2022-07-31T12:22:27.000Z</time>
      </trkpt>
      <trkpt lat="49.52691" lon="-1.29642">
        <ele>2.920001</ele>
        <time>2022-07-31T12:22:28.000Z</time>
      </trkpt>
      <trkpt lat="49.52687" lon="-1.29638">
        <ele>2.932334</ele>
        <time>2022-07-31T12:22:29.000Z</time>
      </trkpt>
      <trkpt lat="49.52684" lon="-1.29633">
        <ele>2.944461</ele>
        <time>2022-07-31T12:22:30.000Z</time>
      </trkpt>
      <trkpt lat="49.5268" lon="-1.29629">
        <ele>2.957317</ele>
        <time>2022-07-31T12:22:31.000Z</time>
      </trkpt>
      <trkpt lat="49.52676" lon="-1.29624">
        <ele>2.971332</ele>
        <time>2022-07-31T12:22:32.000Z</time>
      </trkpt>
      <trkpt lat="49.52672" lon="-1.29619">
        <ele>2.984082</ele>
        <time>2022-07-31T12:22:33.000Z</time>
      </trkpt>
      <trkpt lat="49.52668" lon="-1.29615">
        <ele>2.997044</ele>
        <time>2022-07-31T12:22:34.000Z</time>
      </trkpt>
      <trkpt lat="49.52664" lon="-1.29611">
        <ele>3.008953</ele>
        <time>2022-07-31T12:22:35.000Z</time>
      </trkpt>
      <trkpt lat="49.52661" lon="-1.29606">
        <ele>3.021304</ele>
        <time>2022-07-31T12:22:36.000Z</time>
      </trkpt>
      <trkpt lat="49.52657" lon="-1.29601">
        <ele>3.034054</ele>
        <time>2022-07-31T12:22:37.000Z</time>
      </trkpt>
      <trkpt lat="49.52653" lon="-1.29597">
        <ele>3.045964</ele>
        <time>2022-07-31T12:22:38.000Z</time>
      </trkpt>
      <trkpt lat="49.5265" lon="-1.29593">
        <ele>3.05811</ele>
        <time>2022-07-31T12:22:39.000Z</time>
      </trkpt>
      <trkpt lat="49.52645" lon="-1.29589">
        <ele>3.071337</ele>
        <time>2022-07-31T12:22:40.000Z</time>
      </trkpt>
      <trkpt lat="49.52642" lon="-1.29585">
        <ele>3.083139</ele>
        <time>2022-07-31T12:22:41.000Z</time>
      </trkpt>
      <trkpt lat="49.52638" lon="-1.29581">
        <ele>3.096531</ele>
        <time>2022-07-31T12:22:42.000Z</time>
      </trkpt>
      <trkpt lat="49.52635" lon="-1.29577">
        <ele>3.107493</ele>
        <time>2022-07-31T12:22:43.000Z</time>
      </trkpt>
      <trkpt lat="49.5263" lon="-1.29573">
        <ele>3.121314</ele>
        <time>2022-07-31T12:22:44.000Z</time>
      </trkpt>
      <trkpt lat="49.52627" lon="-1.29569">
        <ele>3.132907</ele>
        <time>2022-07-31T12:22:45.000Z</time>
      </trkpt>
      <trkpt lat="49.52622" lon="-1.29564">
        <ele>3.146994</ele>
        <time>2022-07-31T12:22:46.000Z</time>
      </trkpt>
      <trkpt lat="49.52618" lon="-1.2956">
        <ele>3.160314</ele>
        <time>2022-07-31T12:22:47.000Z</time>
      </trkpt>
      <trkpt lat="49.52614" lon="-1.29556">
        <ele>3.172365</ele>
        <time>2022-07-31T12:22:48.000Z</time>
      </trkpt>
      <trkpt lat="49.5261" lon="-1.29553">
        <ele>3.185236</ele>
        <time>2022-07-31T12:22:49.000Z</time>
      </trkpt>
      <trkpt lat="49.52606" lon="-1.29549">
        <ele>3.197542</ele>
        <time>2022-07-31T12:22:50.000Z</time>
      </trkpt>
      <trkpt lat="49.52602" lon="-1.29546">
        <ele>3.209463</ele>
        <time>2022-07-31T12:22:51.000Z</time>
      </trkpt>
      <trkpt lat="49.52597" lon="-1.29542">
        <ele>3.222873</ele>
        <time>2022-07-31T12:22:52.000Z</time>
      </trkpt>
      <trkpt lat="49.52594" lon="-1.29539">
        <ele>3.23474</ele>
        <time>2022-07-31T12:22:53.000Z</time>
      </trkpt>
      <trkpt lat="49.52589" lon="-1.29535">
        <ele>3.247443</ele>
        <time>2022-07-31T12:22:54.000Z</time>
      </trkpt>
      <trkpt lat="49.52585" lon="-1.29532">
        <ele>3.260083</ele>
        <time>2022-07-31T12:22:55.000Z</time>
      </trkpt>
      <trkpt lat="49.52581" lon="-1.29528">
        <ele>3.27304</ele>
        <time>2022-07-31T12:22:56.000Z</time>
      </trkpt>
      <trkpt lat="49.52577" lon="-1.29524">
        <ele>3.284818</ele>
        <time>2022-07-31T12:22:57.000Z</time>
      </trkpt>
      <trkpt lat="49.52573" lon="-1.29521">
        <ele>3.290794</ele>
        <time>2022-07-31T12:22:58.000Z</time>
      </trkpt>
      <trkpt lat="49.5257" lon="-1.29517">
        <ele>3.291204</ele>
        <time>2022-07-31T12:22:59.000Z</time>
      </trkpt>
      <trkpt lat="49.52566" lon="-1.29513">
        <ele>3.291587</ele>
        <time>2022-07-31T12:23:00.000Z</time>
      </trkpt>
      <trkpt lat="49.52563" lon="-1.2951">
        <ele>3.291974</ele>
        <time>2022-07-31T12:23:01.000Z</time>
      </trkpt>
      <trkpt lat="49.5256" lon="-1.29506">
        <ele>3.292317</ele>
        <time>2022-07-31T12:23:02.000Z</time>
      </trkpt>
      <trkpt lat="49.52556" lon="-1.29502">
        <ele>3.292697</ele>
        <time>2022-07-31T12:23:03.000Z</time>
      </trkpt>
      <trkpt lat="49.52553" lon="-1.29499">
        <ele>3.293079</ele>
        <time>2022-07-31T12:23:04.000Z</time>
      </trkpt>
      <trkpt lat="49.52549" lon="-1.29496">
        <ele>3.29342</ele>
        <time>2022-07-31T12:23:05.000Z</time>
      </trkpt>
      <trkpt lat="49.52547" lon="-1.29493">
        <ele>3.293731</ele>
        <time>2022-07-31T12:23:06.000Z</time>
      </trkpt>
      <trkpt lat="49.52543" lon="-1.2949">
        <ele>3.294063</ele>
        <time>2022-07-31T12:23:07.000Z</time>
      </trkpt>
      <trkpt lat="49.5254" lon="-1.29488">
        <ele>3.294385</ele>
        <time>2022-07-31T12:23:08.000Z</time>
      </trkpt>
      <trkpt lat="49.52537" lon="-1.29486">
        <ele>3.294682</ele>
        <time>2022-07-31T12:23:09.000Z</time>
      </trkpt>
      <trkpt lat="49.52534" lon="-1.29483">
        <ele>3.295009</ele>
        <time>2022-07-31T12:23:10.000Z</time>
      </trkpt>
      <trkpt lat="49.52531" lon="-1.2948">
        <ele>3.295371</ele>
        <time>2022-07-31T12:23:11.000Z</time>
      </trkpt>
      <trkpt lat="49.52528" lon="-1.29477">
        <ele>3.295671</ele>
        <time>2022-07-31T12:23:12.000Z</time>
      </trkpt>
      <trkpt lat="49.52525" lon="-1.29474">
        <ele>3.296012</ele>
        <time>2022-07-31T12:23:13.000Z</time>
      </trkpt>
      <trkpt lat="49.52522" lon="-1.29471">
        <ele>3.296353</ele>
        <time>2022-07-31T12:23:14.000Z</time>
      </trkpt>
      <trkpt lat="49.52518" lon="-1.29468">
        <ele>3.296695</ele>
        <time>2022-07-31T12:23:15.000Z</time>
      </trkpt>
      <trkpt lat="49.52515" lon="-1.29465">
        <ele>3.297065</ele>
        <time>2022-07-31T12:23:16.000Z</time>
      </trkpt>
      <trkpt lat="49.52512" lon="-1.29462">
        <ele>3.297394</ele>
        <time>2022-07-31T12:23:17.000Z</time>
      </trkpt>
      <trkpt lat="49.52509" lon="-1.29458">
        <ele>3.297748</ele>
        <time>2022-07-31T12:23:18.000Z</time>
      </trkpt>
      <trkpt lat="49.52506" lon="-1.29455">
        <ele>3.298099</ele>
        <time>2022-07-31T12:23:19.000Z</time>
      </trkpt>
      <trkpt lat="49.52503" lon="-1.29452">
        <ele>3.298417</ele>
        <time>2022-07-31T12:23:20.000Z</time>
      </trkpt>
      <trkpt lat="49.525" lon="-1.29449">
        <ele>3.298742</ele>
        <time>2022-07-31T12:23:21.000Z</time>
      </trkpt>
      <trkpt lat="49.52496" lon="-1.29446">
        <ele>3.299102</ele>
        <time>2022-07-31T12:23:22.000Z</time>
      </trkpt>
      <trkpt lat="49.52493" lon="-1.29443">
        <ele>3.299476</ele>
        <time>2022-07-31T12:23:23.000Z</time>
      </trkpt>
      <trkpt lat="49.5249" lon="-1.29439">
        <ele>3.299808</ele>
        <time>2022-07-31T12:23:24.000Z</time>
      </trkpt>
      <trkpt lat="49.52487" lon="-1.29436">
        <ele>3.300152</ele>
        <time>2022-07-31T12:23:25.000Z</time>
      </trkpt>
      <trkpt lat="49.52484" lon="-1.29433">
        <ele>3.30047</ele>
        <time>2022-07-31T12:23:26.000Z</time>
      </trkpt>
      <trkpt lat="49.52481" lon="-1.29431">
        <ele>3.300803</ele>
        <time>2022-07-31T12:23:27.000Z</time>
      </trkpt>
      <trkpt lat="49.52478" lon="-1.29427">
        <ele>3.301099</ele>
        <time>2022-07-31T12:23:28.000Z</time>
      </trkpt>
      <trkpt lat="49.52475" lon="-1.29424">
        <ele>3.301443</ele>
        <time>2022-07-31T12:23:29.000Z</time>
      </trkpt>
      <trkpt lat="49.52472" lon="-1.29421">
        <ele>3.301762</ele>
        <time>2022-07-31T12:23:30.000Z</time>
      </trkpt>
      <trkpt lat="49.52469" lon="-1.29418">
        <ele>3.302116</ele>
        <time>2022-07-31T12:23:31.000Z</time>
      </trkpt>
      <trkpt lat="49.52466" lon="-1.29415">
        <ele>3.302398</ele>
        <time>2022-07-31T12:23:32.000Z</time>
      </trkpt>
      <trkpt lat="49.52464" lon="-1.29413">
        <ele>3.302676</ele>
        <time>2022-07-31T12:23:33.000Z</time>
      </trkpt>
      <trkpt lat="49.52461" lon="-1.2941">
        <ele>3.302962</ele>
        <time>2022-07-31T12:23:34.000Z</time>
      </trkpt>
      <trkpt lat="49.52458" lon="-1.29407">
        <ele>3.303274</ele>
        <time>2022-07-31T12:23:35.000Z</time>
      </trkpt>
      <trkpt lat="49.52456" lon="-1.29404">
        <ele>3.303552</ele>
        <time>2022-07-31T12:23:36.000Z</time>
      </trkpt>
      <trkpt lat="49.52453" lon="-1.29402">
        <ele>3.303858</ele>
        <time>2022-07-31T12:23:37.000Z</time>
      </trkpt>
      <trkpt lat="49.5245" lon="-1.29399">
        <ele>3.304143</ele>
        <time>2022-07-31T12:23:38.000Z</time>
      </trkpt>
      <trkpt lat="49.52447" lon="-1.29397">
        <ele>3.304438</ele>
        <time>2022-07-31T12:23:39.000Z</time>
      </trkpt>
      <trkpt lat="49.52445" lon="-1.29394">
        <ele>3.304724</ele>
        <time>2022-07-31T12:23:40.000Z</time>
      </trkpt>
      <trkpt lat="49.52442" lon="-1.29391">
        <ele>3.305013</ele>
        <time>2022-07-31T12:23:41.000Z</time>
      </trkpt>
      <trkpt lat="49.52439" lon="-1.29389">
        <ele>3.305308</ele>
        <time>2022-07-31T12:23:42.000Z</time>
      </trkpt>
      <trkpt lat="49.52437" lon="-1.29386">
        <ele>3.305578</ele>
        <time>2022-07-31T12:23:43.000Z</time>
      </trkpt>
      <trkpt lat="49.52434" lon="-1.29385">
        <ele>3.305859</ele>
        <time>2022-07-31T12:23:44.000Z</time>
      </trkpt>
      <trkpt lat="49.52431" lon="-1.29383">
        <ele>3.306167</ele>
        <time>2022-07-31T12:23:45.000Z</time>
      </trkpt>
      <trkpt lat="49.52427" lon="-1.29382">
        <ele>3.306498</ele>
        <time>2022-07-31T12:23:46.000Z</time>
      </trkpt>
      <trkpt lat="49.52424" lon="-1.2938">
        <ele>3.3068</ele>
        <time>2022-07-31T12:23:47.000Z</time>
      </trkpt>
      <trkpt lat="49.52421" lon="-1.29379">
        <ele>3.308031</ele>
        <time>2022-07-31T12:23:48.000Z</time>
      </trkpt>
      <trkpt lat="49.52417" lon="-1.29377">
        <ele>3.310066</ele>
        <time>2022-07-31T12:23:49.000Z</time>
      </trkpt>
      <trkpt lat="49.52413" lon="-1.29375">
        <ele>3.31223</ele>
        <time>2022-07-31T12:23:50.000Z</time>
      </trkpt>
      <trkpt lat="49.5241" lon="-1.29373">
        <ele>3.314211</ele>
        <time>2022-07-31T12:23:51.000Z</time>
      </trkpt>
      <trkpt lat="49.52407" lon="-1.29371">
        <ele>3.316348</ele>
        <time>2022-07-31T12:23:52.000Z</time>
      </trkpt>
      <trkpt lat="49.52403" lon="-1.29368">
        <ele>3.318545</ele>
        <time>2022-07-31T12:23:53.000Z</time>
      </trkpt>
      <trkpt lat="49.524" lon="-1.29365">
        <ele>3.320562</ele>
        <time>2022-07-31T12:23:54.000Z</time>
      </trkpt>
      <trkpt lat="49.52397" lon="-1.29362">
        <ele>3.322739</ele>
        <time>2022-07-31T12:23:55.000Z</time>
      </trkpt>
      <trkpt lat="49.52394" lon="-1.29359">
        <ele>3.324755</ele>
        <time>2022-07-31T12:23:56.000Z</time>
      </trkpt>
      <trkpt lat="49.52391" lon="-1.29356">
        <ele>3.326873</ele>
        <time>2022-07-31T12:23:57.000Z</time>
      </trkpt>
      <trkpt lat="49.52389" lon="-1.29353">
        <ele>3.328665</ele>
        <time>2022-07-31T12:23:58.000Z</time>
      </trkpt>
      <trkpt lat="49.52385" lon="-1.2935">
        <ele>3.330745</ele>
        <time>2022-07-31T12:23:59.000Z</time>
      </trkpt>
      <trkpt lat="49.52383" lon="-1.29347">
        <ele>3.33256</ele>
        <time>2022-07-31T12:24:00.000Z</time>
      </trkpt>
      <trkpt lat="49.5238" lon="-1.29344">
        <ele>3.334606</ele>
        <time>2022-07-31T12:24:01.000Z</time>
      </trkpt>
      <trkpt lat="49.52376" lon="-1.29342">
        <ele>3.336634</ele>
        <time>2022-07-31T12:24:02.000Z</time>
      </trkpt>
      <trkpt lat="49.52373" lon="-1.29339">
        <ele>3.338847</ele>
        <time>2022-07-31T12:24:03.000Z</time>
      </trkpt>
      <trkpt lat="49.5237" lon="-1.29336">
        <ele>3.340965</ele>
        <time>2022-07-31T12:24:04.000Z</time>
      </trkpt>
      <trkpt lat="49.52366" lon="-1.29333">
        <ele>3.343431</ele>
        <time>2022-07-31T12:24:05.000Z</time>
      </trkpt>
      <trkpt lat="49.52363" lon="-1.29329">
        <ele>3.345491</ele>
        <time>2022-07-31T12:24:06.000Z</time>
      </trkpt>
      <trkpt lat="49.52359" lon="-1.29326">
        <ele>3.347756</ele>
        <time>2022-07-31T12:24:07.000Z</time>
      </trkpt>
      <trkpt lat="49.52356" lon="-1.29323">
        <ele>3.350088</ele>
        <time>2022-07-31T12:24:08.000Z</time>
      </trkpt>
      <trkpt lat="49.52353" lon="-1.2932">
        <ele>3.352285</ele>
        <time>2022-07-31T12:24:09.000Z</time>
      </trkpt>
      <trkpt lat="49.52349" lon="-1.29317">
        <ele>3.35455</ele>
        <time>2022-07-31T12:24:10.000Z</time>
      </trkpt>
      <trkpt lat="49.52346" lon="-1.29314">
        <ele>3.356746</ele>
        <time>2022-07-31T12:24:11.000Z</time>
      </trkpt>
      <trkpt lat="49.52342" lon="-1.29311">
        <ele>3.359011</ele>
        <time>2022-07-31T12:24:12.000Z</time>
      </trkpt>
      <trkpt lat="49.52339" lon="-1.29308">
        <ele>3.361028</ele>
        <time>2022-07-31T12:24:13.000Z</time>
      </trkpt>
      <trkpt lat="49.52336" lon="-1.29305">
        <ele>3.363329</ele>
        <time>2022-07-31T12:24:14.000Z</time>
      </trkpt>
      <trkpt lat="49.52332" lon="-1.29302">
        <ele>3.365593</ele>
        <time>2022-07-31T12:24:15.000Z</time>
      </trkpt>
      <trkpt lat="49.52329" lon="-1.29299">
        <ele>3.367925</ele>
        <time>2022-07-31T12:24:16.000Z</time>
      </trkpt>
      <trkpt lat="49.52325" lon="-1.29296">
        <ele>3.370226</ele>
        <time>2022-07-31T12:24:17.000Z</time>
      </trkpt>
      <trkpt lat="49.52322" lon="-1.29292">
        <ele>3.372527</ele>
        <time>2022-07-31T12:24:18.000Z</time>
      </trkpt>
      <trkpt lat="49.52318" lon="-1.29289">
        <ele>3.374847</ele>
        <time>2022-07-31T12:24:19.000Z</time>
      </trkpt>
      <trkpt lat="49.52315" lon="-1.29286">
        <ele>3.377024</ele>
        <time>2022-07-31T12:24:20.000Z</time>
      </trkpt>
      <trkpt lat="49.52311" lon="-1.29282">
        <ele>3.379383</ele>
        <time>2022-07-31T12:24:21.000Z</time>
      </trkpt>
      <trkpt lat="49.52308" lon="-1.29279">
        <ele>3.381581</ele>
        <time>2022-07-31T12:24:22.000Z</time>
      </trkpt>
      <trkpt lat="49.52305" lon="-1.29275">
        <ele>3.383663</ele>
        <time>2022-07-31T12:24:23.000Z</time>
      </trkpt>
      <trkpt lat="49.52302" lon="-1.29272">
        <ele>3.385882</ele>
        <time>2022-07-31T12:24:24.000Z</time>
      </trkpt>
      <trkpt lat="49.52299" lon="-1.29268">
        <ele>3.388101</ele>
        <time>2022-07-31T12:24:25.000Z</time>
      </trkpt>
      <trkpt lat="49.52296" lon="-1.29265">
        <ele>3.390219</ele>
        <time>2022-07-31T12:24:26.000Z</time>
      </trkpt>
      <trkpt lat="49.52292" lon="-1.29262">
        <ele>3.392501</ele>
        <time>2022-07-31T12:24:27.000Z</time>
      </trkpt>
      <trkpt lat="49.5229" lon="-1.29259">
        <ele>3.394383</ele>
        <time>2022-07-31T12:24:28.000Z</time>
      </trkpt>
      <trkpt lat="49.52286" lon="-1.29256">
        <ele>3.396501</ele>
        <time>2022-07-31T12:24:29.000Z</time>
      </trkpt>
      <trkpt lat="49.52284" lon="-1.29253">
        <ele>3.398337</ele>
        <time>2022-07-31T12:24:30.000Z</time>
      </trkpt>
      <trkpt lat="49.52281" lon="-1.2925">
        <ele>3.400085</ele>
        <time>2022-07-31T12:24:31.000Z</time>
      </trkpt>
      <trkpt lat="49.52278" lon="-1.29248">
        <ele>3.402097</ele>
        <time>2022-07-31T12:24:32.000Z</time>
      </trkpt>
      <trkpt lat="49.52275" lon="-1.29246">
        <ele>3.403864</ele>
        <time>2022-07-31T12:24:33.000Z</time>
      </trkpt>
      <trkpt lat="49.52272" lon="-1.29244">
        <ele>3.405661</ele>
        <time>2022-07-31T12:24:34.000Z</time>
      </trkpt>
      <trkpt lat="49.5227" lon="-1.29242">
        <ele>3.407346</ele>
        <time>2022-07-31T12:24:35.000Z</time>
      </trkpt>
      <trkpt lat="49.52267" lon="-1.29239">
        <ele>3.408231</ele>
        <time>2022-07-31T12:24:36.000Z</time>
      </trkpt>
      <trkpt lat="49.52264" lon="-1.29236">
        <ele>3.406535</ele>
        <time>2022-07-31T12:24:37.000Z</time>
      </trkpt>
      <trkpt lat="49.52262" lon="-1.29234">
        <ele>3.405028</ele>
        <time>2022-07-31T12:24:38.000Z</time>
      </trkpt>
      <trkpt lat="49.52259" lon="-1.29232">
        <ele>3.403529</ele>
        <time>2022-07-31T12:24:39.000Z</time>
      </trkpt>
      <trkpt lat="49.52256" lon="-1.2923">
        <ele>3.401923</ele>
        <time>2022-07-31T12:24:40.000Z</time>
      </trkpt>
      <trkpt lat="49.52254" lon="-1.29228">
        <ele>3.400499</ele>
        <time>2022-07-31T12:24:41.000Z</time>
      </trkpt>
      <trkpt lat="49.52251" lon="-1.29226">
        <ele>3.399058</ele>
        <time>2022-07-31T12:24:42.000Z</time>
      </trkpt>
      <trkpt lat="49.52248" lon="-1.29224">
        <ele>3.397424</ele>
        <time>2022-07-31T12:24:43.000Z</time>
      </trkpt>
      <trkpt lat="49.52246" lon="-1.29222">
        <ele>3.396165</ele>
        <time>2022-07-31T12:24:44.000Z</time>
      </trkpt>
      <trkpt lat="49.52244" lon="-1.2922">
        <ele>3.394696</ele>
        <time>2022-07-31T12:24:45.000Z</time>
      </trkpt>
      <trkpt lat="49.52241" lon="-1.29218">
        <ele>3.393405</ele>
        <time>2022-07-31T12:24:46.000Z</time>
      </trkpt>
      <trkpt lat="49.52238" lon="-1.29216">
        <ele>3.391799</ele>
        <time>2022-07-31T12:24:47.000Z</time>
      </trkpt>
      <trkpt lat="49.52236" lon="-1.29214">
        <ele>3.390372</ele>
        <time>2022-07-31T12:24:48.000Z</time>
      </trkpt>
      <trkpt lat="49.52233" lon="-1.29212">
        <ele>3.38865</ele>
        <time>2022-07-31T12:24:49.000Z</time>
      </trkpt>
      <trkpt lat="49.5223" lon="-1.2921">
        <ele>3.38709</ele>
        <time>2022-07-31T12:24:50.000Z</time>
      </trkpt>
      <trkpt lat="49.52227" lon="-1.29208">
        <ele>3.385319</ele>
        <time>2022-07-31T12:24:51.000Z</time>
      </trkpt>
      <trkpt lat="49.52224" lon="-1.29206">
        <ele>3.383685</ele>
        <time>2022-07-31T12:24:52.000Z</time>
      </trkpt>
      <trkpt lat="49.52221" lon="-1.29203">
        <ele>3.381856</ele>
        <time>2022-07-31T12:24:53.000Z</time>
      </trkpt>
      <trkpt lat="49.52217" lon="-1.29201">
        <ele>3.379878</ele>
        <time>2022-07-31T12:24:54.000Z</time>
      </trkpt>
      <trkpt lat="49.52214" lon="-1.29198">
        <ele>3.378018</ele>
        <time>2022-07-31T12:24:55.000Z</time>
      </trkpt>
      <trkpt lat="49.5221" lon="-1.29195">
        <ele>3.376035</ele>
        <time>2022-07-31T12:24:56.000Z</time>
      </trkpt>
      <trkpt lat="49.52206" lon="-1.29193">
        <ele>3.373946</ele>
        <time>2022-07-31T12:24:57.000Z</time>
      </trkpt>
      <trkpt lat="49.52203" lon="-1.29191">
        <ele>3.372048</ele>
        <time>2022-07-31T12:24:58.000Z</time>
      </trkpt>
      <trkpt lat="49.52199" lon="-1.29189">
        <ele>3.36997</ele>
        <time>2022-07-31T12:24:59.000Z</time>
      </trkpt>
      <trkpt lat="49.52196" lon="-1.29186">
        <ele>3.368171</ele>
        <time>2022-07-31T12:25:00.000Z</time>
      </trkpt>
      <trkpt lat="49.52192" lon="-1.29184">
        <ele>3.366248</ele>
        <time>2022-07-31T12:25:01.000Z</time>
      </trkpt>
      <trkpt lat="49.52189" lon="-1.29182">
        <ele>3.364218</ele>
        <time>2022-07-31T12:25:02.000Z</time>
      </trkpt>
      <trkpt lat="49.52185" lon="-1.29181">
        <ele>3.362382</ele>
        <time>2022-07-31T12:25:03.000Z</time>
      </trkpt>
      <trkpt lat="49.52181" lon="-1.29179">
        <ele>3.360365</ele>
        <time>2022-07-31T12:25:04.000Z</time>
      </trkpt>
      <trkpt lat="49.52178" lon="-1.29178">
        <ele>3.358715</ele>
        <time>2022-07-31T12:25:05.000Z</time>
      </trkpt>
      <trkpt lat="49.52174" lon="-1.29177">
        <ele>3.356592</ele>
        <time>2022-07-31T12:25:06.000Z</time>
      </trkpt>
      <trkpt lat="49.5217" lon="-1.29176">
        <ele>3.354604</ele>
        <time>2022-07-31T12:25:07.000Z</time>
      </trkpt>
      <trkpt lat="49.52166" lon="-1.29175">
        <ele>3.352669</ele>
        <time>2022-07-31T12:25:08.000Z</time>
      </trkpt>
      <trkpt lat="49.52162" lon="-1.29175">
        <ele>3.350691</ele>
        <time>2022-07-31T12:25:09.000Z</time>
      </trkpt>
      <trkpt lat="49.52158" lon="-1.29174">
        <ele>3.348764</ele>
        <time>2022-07-31T12:25:10.000Z</time>
      </trkpt>
      <trkpt lat="49.52155" lon="-1.29174">
        <ele>3.346833</ele>
        <time>2022-07-31T12:25:11.000Z</time>
      </trkpt>
      <trkpt lat="49.52151" lon="-1.29173">
        <ele>3.345006</ele>
        <time>2022-07-31T12:25:12.000Z</time>
      </trkpt>
      <trkpt lat="49.52148" lon="-1.29173">
        <ele>3.343232</ele>
        <time>2022-07-31T12:25:13.000Z</time>
      </trkpt>
      <trkpt lat="49.52144" lon="-1.29172">
        <ele>3.341603</ele>
        <time>2022-07-31T12:25:14.000Z</time>
      </trkpt>
      <trkpt lat="49.52141" lon="-1.29171">
        <ele>3.339809</ele>
        <time>2022-07-31T12:25:15.000Z</time>
      </trkpt>
      <trkpt lat="49.52138" lon="-1.2917">
        <ele>3.338159</ele>
        <time>2022-07-31T12:25:16.000Z</time>
      </trkpt>
      <trkpt lat="49.52134" lon="-1.29169">
        <ele>3.336502</ele>
        <time>2022-07-31T12:25:17.000Z</time>
      </trkpt>
      <trkpt lat="49.52131" lon="-1.29168">
        <ele>3.334665</ele>
        <time>2022-07-31T12:25:18.000Z</time>
      </trkpt>
      <trkpt lat="49.52127" lon="-1.29166">
        <ele>3.332779</ele>
        <time>2022-07-31T12:25:19.000Z</time>
      </trkpt>
      <trkpt lat="49.52124" lon="-1.29164">
        <ele>3.331033</ele>
        <time>2022-07-31T12:25:20.000Z</time>
      </trkpt>
      <trkpt lat="49.5212" lon="-1.29162">
        <ele>3.329001</ele>
        <time>2022-07-31T12:25:21.000Z</time>
      </trkpt>
      <trkpt lat="49.52117" lon="-1.29161">
        <ele>3.327146</ele>
        <time>2022-07-31T12:25:22.000Z</time>
      </trkpt>
      <trkpt lat="49.52113" lon="-1.29159">
        <ele>3.32526</ele>
        <time>2022-07-31T12:25:23.000Z</time>
      </trkpt>
      <trkpt lat="49.52109" lon="-1.29157">
        <ele>3.323202</ele>
        <time>2022-07-31T12:25:24.000Z</time>
      </trkpt>
      <trkpt lat="49.52106" lon="-1.29155">
        <ele>3.321431</ele>
        <time>2022-07-31T12:25:25.000Z</time>
      </trkpt>
      <trkpt lat="49.52103" lon="-1.29152">
        <ele>3.31952</ele>
        <time>2022-07-31T12:25:26.000Z</time>
      </trkpt>
      <trkpt lat="49.52099" lon="-1.2915">
        <ele>3.317044</ele>
        <time>2022-07-31T12:25:27.000Z</time>
      </trkpt>
      <trkpt lat="49.52095" lon="-1.29148">
        <ele>3.312275</ele>
        <time>2022-07-31T12:25:28.000Z</time>
      </trkpt>
      <trkpt lat="49.52092" lon="-1.29145">
        <ele>3.307869</ele>
        <time>2022-07-31T12:25:29.000Z</time>
      </trkpt>
      <trkpt lat="49.52088" lon="-1.29143">
        <ele>3.303206</ele>
        <time>2022-07-31T12:25:30.000Z</time>
      </trkpt>
      <trkpt lat="49.52084" lon="-1.29141">
        <ele>3.298463</ele>
        <time>2022-07-31T12:25:31.000Z</time>
      </trkpt>
      <trkpt lat="49.5208" lon="-1.29138">
        <ele>3.293427</ele>
        <time>2022-07-31T12:25:32.000Z</time>
      </trkpt>
      <trkpt lat="49.52076" lon="-1.29136">
        <ele>3.288448</ele>
        <time>2022-07-31T12:25:33.000Z</time>
      </trkpt>
      <trkpt lat="49.52071" lon="-1.29134">
        <ele>3.283536</ele>
        <time>2022-07-31T12:25:34.000Z</time>
      </trkpt>
      <trkpt lat="49.52068" lon="-1.29132">
        <ele>3.279166</ele>
        <time>2022-07-31T12:25:35.000Z</time>
      </trkpt>
      <trkpt lat="49.52064" lon="-1.2913">
        <ele>3.274386</ele>
        <time>2022-07-31T12:25:36.000Z</time>
      </trkpt>
      <trkpt lat="49.5206" lon="-1.29128">
        <ele>3.2698</ele>
        <time>2022-07-31T12:25:37.000Z</time>
      </trkpt>
      <trkpt lat="49.52057" lon="-1.29126">
        <ele>3.265934</ele>
        <time>2022-07-31T12:25:38.000Z</time>
      </trkpt>
      <trkpt lat="49.52053" lon="-1.29124">
        <ele>3.261344</ele>
        <time>2022-07-31T12:25:39.000Z</time>
      </trkpt>
      <trkpt lat="49.52049" lon="-1.29123">
        <ele>3.256845</ele>
        <time>2022-07-31T12:25:40.000Z</time>
      </trkpt>
      <trkpt lat="49.52046" lon="-1.29121">
        <ele>3.252581</ele>
        <time>2022-07-31T12:25:41.000Z</time>
      </trkpt>
      <trkpt lat="49.52042" lon="-1.29119">
        <ele>3.24791</ele>
        <time>2022-07-31T12:25:42.000Z</time>
      </trkpt>
      <trkpt lat="49.52039" lon="-1.29117">
        <ele>3.244019</ele>
        <time>2022-07-31T12:25:43.000Z</time>
      </trkpt>
      <trkpt lat="49.52035" lon="-1.29115">
        <ele>3.239805</ele>
        <time>2022-07-31T12:25:44.000Z</time>
      </trkpt>
      <trkpt lat="49.52031" lon="-1.29113">
        <ele>3.235242</ele>
        <time>2022-07-31T12:25:45.000Z</time>
      </trkpt>
      <trkpt lat="49.52028" lon="-1.29112">
        <ele>3.23092</ele>
        <time>2022-07-31T12:25:46.000Z</time>
      </trkpt>
      <trkpt lat="49.52025" lon="-1.2911">
        <ele>3.227482</ele>
        <time>2022-07-31T12:25:47.000Z</time>
      </trkpt>
      <trkpt lat="49.52021" lon="-1.29109">
        <ele>3.223354</ele>
        <time>2022-07-31T12:25:48.000Z</time>
      </trkpt>
      <trkpt lat="49.52018" lon="-1.2911">
        <ele>3.219302</ele>
        <time>2022-07-31T12:25:49.000Z</time>
      </trkpt>
      <trkpt lat="49.52015" lon="-1.29112">
        <ele>3.215673</ele>
        <time>2022-07-31T12:25:50.000Z</time>
      </trkpt>
      <trkpt lat="49.52012" lon="-1.29115">
        <ele>3.211235</ele>
        <time>2022-07-31T12:25:51.000Z</time>
      </trkpt>
      <trkpt lat="49.52008" lon="-1.29117">
        <ele>3.206829</ele>
        <time>2022-07-31T12:25:52.000Z</time>
      </trkpt>
      <trkpt lat="49.52004" lon="-1.2912">
        <ele>3.20211</ele>
        <time>2022-07-31T12:25:53.000Z</time>
      </trkpt>
      <trkpt lat="49.52001" lon="-1.29123">
        <ele>3.197943</ele>
        <time>2022-07-31T12:25:54.000Z</time>
      </trkpt>
      <trkpt lat="49.51997" lon="-1.29125">
        <ele>3.1932</ele>
        <time>2022-07-31T12:25:55.000Z</time>
      </trkpt>
      <trkpt lat="49.51994" lon="-1.29127">
        <ele>3.188936</ele>
        <time>2022-07-31T12:25:56.000Z</time>
      </trkpt>
      <trkpt lat="49.5199" lon="-1.29128">
        <ele>3.184456</ele>
        <time>2022-07-31T12:25:57.000Z</time>
      </trkpt>
      <trkpt lat="49.51986" lon="-1.2913">
        <ele>3.180134</ele>
        <time>2022-07-31T12:25:58.000Z</time>
      </trkpt>
      <trkpt lat="49.51982" lon="-1.29132">
        <ele>3.175547</ele>
        <time>2022-07-31T12:25:59.000Z</time>
      </trkpt>
      <trkpt lat="49.51979" lon="-1.29134">
        <ele>3.171515</ele>
        <time>2022-07-31T12:26:00.000Z</time>
      </trkpt>
      <trkpt lat="49.51976" lon="-1.29138">
        <ele>3.166866</ele>
        <time>2022-07-31T12:26:01.000Z</time>
      </trkpt>
      <trkpt lat="49.51973" lon="-1.29141">
        <ele>3.162773</ele>
        <time>2022-07-31T12:26:02.000Z</time>
      </trkpt>
      <trkpt lat="49.5197" lon="-1.29145">
        <ele>3.158327</ele>
        <time>2022-07-31T12:26:03.000Z</time>
      </trkpt>
      <trkpt lat="49.51968" lon="-1.29149">
        <ele>3.154264</ele>
        <time>2022-07-31T12:26:04.000Z</time>
      </trkpt>
      <trkpt lat="49.51965" lon="-1.29153">
        <ele>3.14951</ele>
        <time>2022-07-31T12:26:05.000Z</time>
      </trkpt>
      <trkpt lat="49.51962" lon="-1.29158">
        <ele>3.144964</ele>
        <time>2022-07-31T12:26:06.000Z</time>
      </trkpt>
      <trkpt lat="49.51959" lon="-1.29162">
        <ele>3.140963</ele>
        <time>2022-07-31T12:26:07.000Z</time>
      </trkpt>
      <trkpt lat="49.51957" lon="-1.29166">
        <ele>3.136467</ele>
        <time>2022-07-31T12:26:08.000Z</time>
      </trkpt>
      <trkpt lat="49.51954" lon="-1.2917">
        <ele>3.132561</ele>
        <time>2022-07-31T12:26:09.000Z</time>
      </trkpt>
      <trkpt lat="49.51952" lon="-1.29173">
        <ele>3.128801</ele>
        <time>2022-07-31T12:26:10.000Z</time>
      </trkpt>
      <trkpt lat="49.51949" lon="-1.29176">
        <ele>3.124811</ele>
        <time>2022-07-31T12:26:11.000Z</time>
      </trkpt>
      <trkpt lat="49.51946" lon="-1.29179">
        <ele>3.120941</ele>
        <time>2022-07-31T12:26:12.000Z</time>
      </trkpt>
      <trkpt lat="49.51943" lon="-1.29181">
        <ele>3.11779</ele>
        <time>2022-07-31T12:26:13.000Z</time>
      </trkpt>
      <trkpt lat="49.5194" lon="-1.29182">
        <ele>3.11397</ele>
        <time>2022-07-31T12:26:14.000Z</time>
      </trkpt>
      <trkpt lat="49.51937" lon="-1.29183">
        <ele>3.093518</ele>
        <time>2022-07-31T12:26:15.000Z</time>
      </trkpt>
      <trkpt lat="49.51934" lon="-1.29184">
        <ele>3.063175</ele>
        <time>2022-07-31T12:26:16.000Z</time>
      </trkpt>
      <trkpt lat="49.51931" lon="-1.29185">
        <ele>3.030497</ele>
        <time>2022-07-31T12:26:17.000Z</time>
      </trkpt>
      <trkpt lat="49.51928" lon="-1.29185">
        <ele>2.997879</ele>
        <time>2022-07-31T12:26:18.000Z</time>
      </trkpt>
      <trkpt lat="49.51924" lon="-1.29185">
        <ele>2.962319</ele>
        <time>2022-07-31T12:26:19.000Z</time>
      </trkpt>
      <trkpt lat="49.51921" lon="-1.29185">
        <ele>2.929781</ele>
        <time>2022-07-31T12:26:20.000Z</time>
      </trkpt>
      <trkpt lat="49.51918" lon="-1.29185">
        <ele>2.897103</ele>
        <time>2022-07-31T12:26:21.000Z</time>
      </trkpt>
      <trkpt lat="49.51914" lon="-1.29184">
        <ele>2.857431</ele>
        <time>2022-07-31T12:26:22.000Z</time>
      </trkpt>
      <trkpt lat="49.51911" lon="-1.29184">
        <ele>2.82492</ele>
        <time>2022-07-31T12:26:23.000Z</time>
      </trkpt>
      <trkpt lat="49.51907" lon="-1.29184">
        <ele>2.786307</ele>
        <time>2022-07-31T12:26:24.000Z</time>
      </trkpt>
      <trkpt lat="49.51903" lon="-1.29185">
        <ele>2.746662</ele>
        <time>2022-07-31T12:26:25.000Z</time>
      </trkpt>
      <trkpt lat="49.51899" lon="-1.29185">
        <ele>2.707696</ele>
        <time>2022-07-31T12:26:26.000Z</time>
      </trkpt>
      <trkpt lat="49.51896" lon="-1.29186">
        <ele>2.677503</ele>
        <time>2022-07-31T12:26:27.000Z</time>
      </trkpt>
      <trkpt lat="49.51893" lon="-1.29188">
        <ele>2.640593</ele>
        <time>2022-07-31T12:26:28.000Z</time>
      </trkpt>
      <trkpt lat="49.51889" lon="-1.29189">
        <ele>2.601183</ele>
        <time>2022-07-31T12:26:29.000Z</time>
      </trkpt>
      <trkpt lat="49.51885" lon="-1.29191">
        <ele>2.556891</ele>
        <time>2022-07-31T12:26:30.000Z</time>
      </trkpt>
      <trkpt lat="49.51881" lon="-1.29192">
        <ele>2.517037</ele>
        <time>2022-07-31T12:26:31.000Z</time>
      </trkpt>
      <trkpt lat="49.51877" lon="-1.29193">
        <ele>2.474117</ele>
        <time>2022-07-31T12:26:32.000Z</time>
      </trkpt>
      <trkpt lat="49.51873" lon="-1.29193">
        <ele>2.435487</ele>
        <time>2022-07-31T12:26:33.000Z</time>
      </trkpt>
      <trkpt lat="49.51869" lon="-1.29193">
        <ele>2.392735</ele>
        <time>2022-07-31T12:26:34.000Z</time>
      </trkpt>
      <trkpt lat="49.51865" lon="-1.29193">
        <ele>2.350018</ele>
        <time>2022-07-31T12:26:35.000Z</time>
      </trkpt>
      <trkpt lat="49.51861" lon="-1.29192">
        <ele>2.308316</ele>
        <time>2022-07-31T12:26:36.000Z</time>
      </trkpt>
      <trkpt lat="49.51856" lon="-1.29192">
        <ele>2.265517</ele>
        <time>2022-07-31T12:26:37.000Z</time>
      </trkpt>
      <trkpt lat="49.51852" lon="-1.29191">
        <ele>2.216532</ele>
        <time>2022-07-31T12:26:38.000Z</time>
      </trkpt>
      <trkpt lat="49.51847" lon="-1.29191">
        <ele>2.170695</ele>
        <time>2022-07-31T12:26:39.000Z</time>
      </trkpt>
      <trkpt lat="49.51843" lon="-1.2919">
        <ele>2.12587</ele>
        <time>2022-07-31T12:26:40.000Z</time>
      </trkpt>
      <trkpt lat="49.51838" lon="-1.2919">
        <ele>2.080108</ele>
        <time>2022-07-31T12:26:41.000Z</time>
      </trkpt>
      <trkpt lat="49.51833" lon="-1.2919">
        <ele>2.028277</ele>
        <time>2022-07-31T12:26:42.000Z</time>
      </trkpt>
      <trkpt lat="49.51829" lon="-1.29189">
        <ele>1.982539</ele>
        <time>2022-07-31T12:26:43.000Z</time>
      </trkpt>
      <trkpt lat="49.51824" lon="-1.29189">
        <ele>1.939863</ele>
        <time>2022-07-31T12:26:44.000Z</time>
      </trkpt>
      <trkpt lat="49.5182" lon="-1.29189">
        <ele>1.891078</ele>
        <time>2022-07-31T12:26:45.000Z</time>
      </trkpt>
      <trkpt lat="49.51815" lon="-1.2919">
        <ele>1.84524</ele>
        <time>2022-07-31T12:26:46.000Z</time>
      </trkpt>
      <trkpt lat="49.51811" lon="-1.2919">
        <ele>1.80333</ele>
        <time>2022-07-31T12:26:47.000Z</time>
      </trkpt>
      <trkpt lat="49.51806" lon="-1.29191">
        <ele>1.75744</ele>
        <time>2022-07-31T12:26:48.000Z</time>
      </trkpt>
      <trkpt lat="49.51802" lon="-1.29192">
        <ele>1.708035</ele>
        <time>2022-07-31T12:26:49.000Z</time>
      </trkpt>
      <trkpt lat="49.51797" lon="-1.29194">
        <ele>1.664232</ele>
        <time>2022-07-31T12:26:50.000Z</time>
      </trkpt>
      <trkpt lat="49.51793" lon="-1.29195">
        <ele>1.621418</ele>
        <time>2022-07-31T12:26:51.000Z</time>
      </trkpt>
      <trkpt lat="49.51789" lon="-1.29197">
        <ele>1.580579</ele>
        <time>2022-07-31T12:26:52.000Z</time>
      </trkpt>
      <trkpt lat="49.51785" lon="-1.29198">
        <ele>1.53805</ele>
        <time>2022-07-31T12:26:53.000Z</time>
      </trkpt>
      <trkpt lat="49.51781" lon="-1.29199">
        <ele>1.494247</ele>
        <time>2022-07-31T12:26:54.000Z</time>
      </trkpt>
      <trkpt lat="49.51777" lon="-1.29201">
        <ele>1.450748</ele>
        <time>2022-07-31T12:26:55.000Z</time>
      </trkpt>
      <trkpt lat="49.51772" lon="-1.29203">
        <ele>1.400228</ele>
        <time>2022-07-31T12:26:56.000Z</time>
      </trkpt>
      <trkpt lat="49.51768" lon="-1.29205">
        <ele>1.355565</ele>
        <time>2022-07-31T12:26:57.000Z</time>
      </trkpt>
      <trkpt lat="49.51764" lon="-1.29207">
        <ele>1.308643</ele>
        <time>2022-07-31T12:26:58.000Z</time>
      </trkpt>
      <trkpt lat="49.51759" lon="-1.29209">
        <ele>1.296961</ele>
        <time>2022-07-31T12:26:59.000Z</time>
      </trkpt>
      <trkpt lat="49.51755" lon="-1.29211">
        <ele>1.325329</ele>
        <time>2022-07-31T12:27:00.000Z</time>
      </trkpt>
      <trkpt lat="49.51751" lon="-1.29214">
        <ele>1.352559</ele>
        <time>2022-07-31T12:27:01.000Z</time>
      </trkpt>
      <trkpt lat="49.51746" lon="-1.29217">
        <ele>1.382876</ele>
        <time>2022-07-31T12:27:02.000Z</time>
      </trkpt>
      <trkpt lat="49.51742" lon="-1.29219">
        <ele>1.407599</ele>
        <time>2022-07-31T12:27:03.000Z</time>
      </trkpt>
      <trkpt lat="49.51738" lon="-1.29222">
        <ele>1.434829</ele>
        <time>2022-07-31T12:27:04.000Z</time>
      </trkpt>
      <trkpt lat="49.51734" lon="-1.29224">
        <ele>1.460681</ele>
        <time>2022-07-31T12:27:05.000Z</time>
      </trkpt>
      <trkpt lat="49.5173" lon="-1.29226">
        <ele>1.485956</ele>
        <time>2022-07-31T12:27:06.000Z</time>
      </trkpt>
      <trkpt lat="49.51726" lon="-1.29229">
        <ele>1.512339</ele>
        <time>2022-07-31T12:27:07.000Z</time>
      </trkpt>
      <trkpt lat="49.51722" lon="-1.29231">
        <ele>1.535966</ele>
        <time>2022-07-31T12:27:08.000Z</time>
      </trkpt>
      <trkpt lat="49.51718" lon="-1.29234">
        <ele>1.561943</ele>
        <time>2022-07-31T12:27:09.000Z</time>
      </trkpt>
      <trkpt lat="49.51715" lon="-1.29236">
        <ele>1.584561</ele>
        <time>2022-07-31T12:27:10.000Z</time>
      </trkpt>
      <trkpt lat="49.51711" lon="-1.29238">
        <ele>1.60788</ele>
        <time>2022-07-31T12:27:11.000Z</time>
      </trkpt>
      <trkpt lat="49.51707" lon="-1.2924">
        <ele>1.632169</ele>
        <time>2022-07-31T12:27:12.000Z</time>
      </trkpt>
      <trkpt lat="49.51704" lon="-1.29243">
        <ele>1.655252</ele>
        <time>2022-07-31T12:27:13.000Z</time>
      </trkpt>
      <trkpt lat="49.517" lon="-1.29246">
        <ele>1.67885</ele>
        <time>2022-07-31T12:27:14.000Z</time>
      </trkpt>
      <trkpt lat="49.51696" lon="-1.29248">
        <ele>1.704124</ele>
        <time>2022-07-31T12:27:15.000Z</time>
      </trkpt>
      <trkpt lat="49.51693" lon="-1.2925">
        <ele>1.725091</ele>
        <time>2022-07-31T12:27:16.000Z</time>
      </trkpt>
      <trkpt lat="49.51689" lon="-1.29252">
        <ele>1.748878</ele>
        <time>2022-07-31T12:27:17.000Z</time>
      </trkpt>
      <trkpt lat="49.51686" lon="-1.29254">
        <ele>1.771214</ele>
        <time>2022-07-31T12:27:18.000Z</time>
      </trkpt>
      <trkpt lat="49.51682" lon="-1.29256">
        <ele>1.794533</ele>
        <time>2022-07-31T12:27:19.000Z</time>
      </trkpt>
      <trkpt lat="49.51679" lon="-1.29259">
        <ele>1.817616</ele>
        <time>2022-07-31T12:27:20.000Z</time>
      </trkpt>
      <trkpt lat="49.51676" lon="-1.29262">
        <ele>1.837891</ele>
        <time>2022-07-31T12:27:21.000Z</time>
      </trkpt>
      <trkpt lat="49.51673" lon="-1.29265">
        <ele>1.860304</ele>
        <time>2022-07-31T12:27:22.000Z</time>
      </trkpt>
      <trkpt lat="49.5167" lon="-1.29267">
        <ele>1.87738</ele>
        <time>2022-07-31T12:27:23.000Z</time>
      </trkpt>
      <trkpt lat="49.51668" lon="-1.2927">
        <ele>1.896141</ele>
        <time>2022-07-31T12:27:24.000Z</time>
      </trkpt>
      <trkpt lat="49.51666" lon="-1.29273">
        <ele>1.912499</ele>
        <time>2022-07-31T12:27:25.000Z</time>
      </trkpt>
      <trkpt lat="49.51664" lon="-1.29276">
        <ele>1.928779</ele>
        <time>2022-07-31T12:27:26.000Z</time>
      </trkpt>
      <trkpt lat="49.51662" lon="-1.29279">
        <ele>1.946501</ele>
        <time>2022-07-31T12:27:27.000Z</time>
      </trkpt>
      <trkpt lat="49.5166" lon="-1.29283">
        <ele>1.965203</ele>
        <time>2022-07-31T12:27:28.000Z</time>
      </trkpt>
      <trkpt lat="49.51658" lon="-1.29286">
        <ele>1.982925</ele>
        <time>2022-07-31T12:27:29.000Z</time>
      </trkpt>
      <trkpt lat="49.51655" lon="-1.2929">
        <ele>2.004968</ele>
        <time>2022-07-31T12:27:30.000Z</time>
      </trkpt>
      <trkpt lat="49.51653" lon="-1.29293">
        <ele>2.024173</ele>
        <time>2022-07-31T12:27:31.000Z</time>
      </trkpt>
      <trkpt lat="49.5165" lon="-1.29297">
        <ele>2.047464</ele>
        <time>2022-07-31T12:27:32.000Z</time>
      </trkpt>
      <trkpt lat="49.51647" lon="-1.29302">
        <ele>2.072651</ele>
        <time>2022-07-31T12:27:33.000Z</time>
      </trkpt>
      <trkpt lat="49.51645" lon="-1.29307">
        <ele>2.096555</ele>
        <time>2022-07-31T12:27:34.000Z</time>
      </trkpt>
      <trkpt lat="49.51642" lon="-1.29312">
        <ele>2.121439</ele>
        <time>2022-07-31T12:27:35.000Z</time>
      </trkpt>
      <trkpt lat="49.51639" lon="-1.29317">
        <ele>2.148662</ele>
        <time>2022-07-31T12:27:36.000Z</time>
      </trkpt>
      <trkpt lat="49.51637" lon="-1.29323">
        <ele>2.17411</ele>
        <time>2022-07-31T12:27:37.000Z</time>
      </trkpt>
      <trkpt lat="49.51634" lon="-1.29328">
        <ele>2.199914</ele>
        <time>2022-07-31T12:27:38.000Z</time>
      </trkpt>
      <trkpt lat="49.51631" lon="-1.29334">
        <ele>2.228044</ele>
        <time>2022-07-31T12:27:39.000Z</time>
      </trkpt>
      <trkpt lat="49.51629" lon="-1.29339">
        <ele>2.254765</ele>
        <time>2022-07-31T12:27:40.000Z</time>
      </trkpt>
      <trkpt lat="49.51626" lon="-1.29345">
        <ele>2.280178</ele>
        <time>2022-07-31T12:27:41.000Z</time>
      </trkpt>
      <trkpt lat="49.51624" lon="-1.2935">
        <ele>2.306577</ele>
        <time>2022-07-31T12:27:42.000Z</time>
      </trkpt>
      <trkpt lat="49.51622" lon="-1.29356">
        <ele>2.330778</ele>
        <time>2022-07-31T12:27:43.000Z</time>
      </trkpt>
      <trkpt lat="49.51619" lon="-1.29361">
        <ele>2.356822</ele>
        <time>2022-07-31T12:27:44.000Z</time>
      </trkpt>
      <trkpt lat="49.51616" lon="-1.29366">
        <ele>2.358655</ele>
        <time>2022-07-31T12:27:45.000Z</time>
      </trkpt>
      <trkpt lat="49.51614" lon="-1.2937">
        <ele>2.355918</ele>
        <time>2022-07-31T12:27:46.000Z</time>
      </trkpt>
      <trkpt lat="49.51611" lon="-1.29375">
        <ele>2.353085</ele>
        <time>2022-07-31T12:27:47.000Z</time>
      </trkpt>
      <trkpt lat="49.51608" lon="-1.29378">
        <ele>2.350628</ele>
        <time>2022-07-31T12:27:48.000Z</time>
      </trkpt>
      <trkpt lat="49.51606" lon="-1.2938">
        <ele>2.348578</ele>
        <time>2022-07-31T12:27:49.000Z</time>
      </trkpt>
      <trkpt lat="49.51603" lon="-1.29381">
        <ele>2.346297</ele>
        <time>2022-07-31T12:27:50.000Z</time>
      </trkpt>
      <trkpt lat="49.51599" lon="-1.29379">
        <ele>2.343887</ele>
        <time>2022-07-31T12:27:51.000Z</time>
      </trkpt>
      <trkpt lat="49.51596" lon="-1.29376">
        <ele>2.341312</ele>
        <time>2022-07-31T12:27:52.000Z</time>
      </trkpt>
      <trkpt lat="49.51593" lon="-1.29373">
        <ele>2.338597</ele>
        <time>2022-07-31T12:27:53.000Z</time>
      </trkpt>
      <trkpt lat="49.51589" lon="-1.29369">
        <ele>2.335491</ele>
        <time>2022-07-31T12:27:54.000Z</time>
      </trkpt>
      <trkpt lat="49.51586" lon="-1.29365">
        <ele>2.332587</ele>
        <time>2022-07-31T12:27:55.000Z</time>
      </trkpt>
      <trkpt lat="49.51583" lon="-1.29361">
        <ele>2.329485</ele>
        <time>2022-07-31T12:27:56.000Z</time>
      </trkpt>
      <trkpt lat="49.51579" lon="-1.29357">
        <ele>2.326383</ele>
        <time>2022-07-31T12:27:57.000Z</time>
      </trkpt>
      <trkpt lat="49.51576" lon="-1.29353">
        <ele>2.323361</ele>
        <time>2022-07-31T12:27:58.000Z</time>
      </trkpt>
      <trkpt lat="49.51573" lon="-1.29349">
        <ele>2.320485</ele>
        <time>2022-07-31T12:27:59.000Z</time>
      </trkpt>
      <trkpt lat="49.51569" lon="-1.29346">
        <ele>2.317334</ele>
        <time>2022-07-31T12:28:00.000Z</time>
      </trkpt>
      <trkpt lat="49.51566" lon="-1.29342">
        <ele>2.314652</ele>
        <time>2022-07-31T12:28:01.000Z</time>
      </trkpt>
      <trkpt lat="49.51563" lon="-1.29337">
        <ele>2.311466</ele>
        <time>2022-07-31T12:28:02.000Z</time>
      </trkpt>
      <trkpt lat="49.5156" lon="-1.29333">
        <ele>2.308717</ele>
        <time>2022-07-31T12:28:03.000Z</time>
      </trkpt>
      <trkpt lat="49.51557" lon="-1.29329">
        <ele>2.305946</ele>
        <time>2022-07-31T12:28:04.000Z</time>
      </trkpt>
      <trkpt lat="49.51555" lon="-1.29325">
        <ele>2.30329</ele>
        <time>2022-07-31T12:28:05.000Z</time>
      </trkpt>
      <trkpt lat="49.51552" lon="-1.29321">
        <ele>2.30058</ele>
        <time>2022-07-31T12:28:06.000Z</time>
      </trkpt>
      <trkpt lat="49.51549" lon="-1.29318">
        <ele>2.297958</ele>
        <time>2022-07-31T12:28:07.000Z</time>
      </trkpt>
      <trkpt lat="49.51546" lon="-1.29315">
        <ele>2.295404</ele>
        <time>2022-07-31T12:28:08.000Z</time>
      </trkpt>
      <trkpt lat="49.51543" lon="-1.29314">
        <ele>2.293394</ele>
        <time>2022-07-31T12:28:09.000Z</time>
      </trkpt>
      <trkpt lat="49.51541" lon="-1.29312">
        <ele>2.29143</ele>
        <time>2022-07-31T12:28:10.000Z</time>
      </trkpt>
      <trkpt lat="49.51539" lon="-1.29309">
        <ele>2.289426</ele>
        <time>2022-07-31T12:28:11.000Z</time>
      </trkpt>
      <trkpt lat="49.51537" lon="-1.29304">
        <ele>2.286982</ele>
        <time>2022-07-31T12:28:12.000Z</time>
      </trkpt>
      <trkpt lat="49.51535" lon="-1.29299">
        <ele>2.284345</ele>
        <time>2022-07-31T12:28:13.000Z</time>
      </trkpt>
      <trkpt lat="49.51535" lon="-1.29293">
        <ele>2.281528</ele>
        <time>2022-07-31T12:28:14.000Z</time>
      </trkpt>
      <trkpt lat="49.51535" lon="-1.29287">
        <ele>2.278617</ele>
        <time>2022-07-31T12:28:15.000Z</time>
      </trkpt>
      <trkpt lat="49.51534" lon="-1.2928">
        <ele>2.275681</ele>
        <time>2022-07-31T12:28:16.000Z</time>
      </trkpt>
      <trkpt lat="49.51533" lon="-1.29275">
        <ele>2.272986</ele>
        <time>2022-07-31T12:28:17.000Z</time>
      </trkpt>
      <trkpt lat="49.51533" lon="-1.29269">
        <ele>2.270306</ele>
        <time>2022-07-31T12:28:18.000Z</time>
      </trkpt>
      <trkpt lat="49.51533" lon="-1.29263">
        <ele>2.267774</ele>
        <time>2022-07-31T12:28:19.000Z</time>
      </trkpt>
      <trkpt lat="49.51532" lon="-1.29259">
        <ele>2.265445</ele>
        <time>2022-07-31T12:28:20.000Z</time>
      </trkpt>
      <trkpt lat="49.51531" lon="-1.29254">
        <ele>2.263232</ele>
        <time>2022-07-31T12:28:21.000Z</time>
      </trkpt>
      <trkpt lat="49.5153" lon="-1.2925">
        <ele>2.261123</ele>
        <time>2022-07-31T12:28:22.000Z</time>
      </trkpt>
      <trkpt lat="49.51529" lon="-1.29245">
        <ele>2.258992</ele>
        <time>2022-07-31T12:28:23.000Z</time>
      </trkpt>
      <trkpt lat="49.51527" lon="-1.29241">
        <ele>2.256821</ele>
        <time>2022-07-31T12:28:24.000Z</time>
      </trkpt>
      <trkpt lat="49.51526" lon="-1.29238">
        <ele>2.255011</ele>
        <time>2022-07-31T12:28:25.000Z</time>
      </trkpt>
      <trkpt lat="49.51525" lon="-1.29234">
        <ele>2.25288</ele>
        <time>2022-07-31T12:28:26.000Z</time>
      </trkpt>
      <trkpt lat="49.51523" lon="-1.2923">
        <ele>2.250589</ele>
        <time>2022-07-31T12:28:27.000Z</time>
      </trkpt>
      <trkpt lat="49.51522" lon="-1.29225">
        <ele>2.248299</ele>
        <time>2022-07-31T12:28:28.000Z</time>
      </trkpt>
      <trkpt lat="49.5152" lon="-1.29221">
        <ele>2.245969</ele>
        <time>2022-07-31T12:28:29.000Z</time>
      </trkpt>
      <trkpt lat="49.51518" lon="-1.29216">
        <ele>2.243598</ele>
        <time>2022-07-31T12:28:30.000Z</time>
      </trkpt>
      <trkpt lat="49.51517" lon="-1.29212">
        <ele>2.241118</ele>
        <time>2022-07-31T12:28:31.000Z</time>
      </trkpt>
      <trkpt lat="49.51515" lon="-1.29208">
        <ele>2.238714</ele>
        <time>2022-07-31T12:28:32.000Z</time>
      </trkpt>
      <trkpt lat="49.51513" lon="-1.29203">
        <ele>2.236308</ele>
        <time>2022-07-31T12:28:33.000Z</time>
      </trkpt>
      <trkpt lat="49.51511" lon="-1.29199">
        <ele>2.234017</ele>
        <time>2022-07-31T12:28:34.000Z</time>
      </trkpt>
      <trkpt lat="49.51509" lon="-1.29195">
        <ele>2.237563</ele>
        <time>2022-07-31T12:28:35.000Z</time>
      </trkpt>
      <trkpt lat="49.51507" lon="-1.2919">
        <ele>2.243557</ele>
        <time>2022-07-31T12:28:36.000Z</time>
      </trkpt>
      <trkpt lat="49.51505" lon="-1.29186">
        <ele>2.25049</ele>
        <time>2022-07-31T12:28:37.000Z</time>
      </trkpt>
      <trkpt lat="49.51503" lon="-1.29182">
        <ele>2.257</ele>
        <time>2022-07-31T12:28:38.000Z</time>
      </trkpt>
      <trkpt lat="49.51501" lon="-1.29177">
        <ele>2.264479</ele>
        <time>2022-07-31T12:28:39.000Z</time>
      </trkpt>
      <trkpt lat="49.51499" lon="-1.29172">
        <ele>2.271189</ele>
        <time>2022-07-31T12:28:40.000Z</time>
      </trkpt>
      <trkpt lat="49.51497" lon="-1.29168">
        <ele>2.278105</ele>
        <time>2022-07-31T12:28:41.000Z</time>
      </trkpt>
      <trkpt lat="49.51494" lon="-1.29163">
        <ele>2.28521</ele>
        <time>2022-07-31T12:28:42.000Z</time>
      </trkpt>
      <trkpt lat="49.51492" lon="-1.29159">
        <ele>2.291816</ele>
        <time>2022-07-31T12:28:43.000Z</time>
      </trkpt>
      <trkpt lat="49.5149" lon="-1.29154">
        <ele>2.29906</ele>
        <time>2022-07-31T12:28:44.000Z</time>
      </trkpt>
      <trkpt lat="49.51488" lon="-1.29149">
        <ele>2.306192</ele>
        <time>2022-07-31T12:28:45.000Z</time>
      </trkpt>
      <trkpt lat="49.51485" lon="-1.29145">
        <ele>2.313338</ele>
        <time>2022-07-31T12:28:46.000Z</time>
      </trkpt>
      <trkpt lat="49.51484" lon="-1.2914">
        <ele>2.320362</ele>
        <time>2022-07-31T12:28:47.000Z</time>
      </trkpt>
      <trkpt lat="49.51481" lon="-1.29135">
        <ele>2.327394</ele>
        <time>2022-07-31T12:28:48.000Z</time>
      </trkpt>
      <trkpt lat="49.51479" lon="-1.29131">
        <ele>2.334209</ele>
        <time>2022-07-31T12:28:49.000Z</time>
      </trkpt>
      <trkpt lat="49.51478" lon="-1.29125">
        <ele>2.341067</ele>
        <time>2022-07-31T12:28:50.000Z</time>
      </trkpt>
      <trkpt lat="49.51477" lon="-1.2912">
        <ele>2.348215</ele>
        <time>2022-07-31T12:28:51.000Z</time>
      </trkpt>
      <trkpt lat="49.51476" lon="-1.29115">
        <ele>2.355076</ele>
        <time>2022-07-31T12:28:52.000Z</time>
      </trkpt>
      <trkpt lat="49.51474" lon="-1.2911">
        <ele>2.361591</ele>
        <time>2022-07-31T12:28:53.000Z</time>
      </trkpt>
      <trkpt lat="49.51474" lon="-1.29106">
        <ele>2.366914</ele>
        <time>2022-07-31T12:28:54.000Z</time>
      </trkpt>
      <trkpt lat="49.51473" lon="-1.29102">
        <ele>2.371967</ele>
        <time>2022-07-31T12:28:55.000Z</time>
      </trkpt>
      <trkpt lat="49.51472" lon="-1.29098">
        <ele>2.377243</ele>
        <time>2022-07-31T12:28:56.000Z</time>
      </trkpt>
      <trkpt lat="49.51472" lon="-1.29093">
        <ele>2.382566</ele>
        <time>2022-07-31T12:28:57.000Z</time>
      </trkpt>
      <trkpt lat="49.51471" lon="-1.29089">
        <ele>2.388461</ele>
        <time>2022-07-31T12:28:58.000Z</time>
      </trkpt>
      <trkpt lat="49.51471" lon="-1.29084">
        <ele>2.394662</ele>
        <time>2022-07-31T12:28:59.000Z</time>
      </trkpt>
      <trkpt lat="49.51471" lon="-1.29079">
        <ele>2.400816</ele>
        <time>2022-07-31T12:29:00.000Z</time>
      </trkpt>
      <trkpt lat="49.51471" lon="-1.29073">
        <ele>2.407609</ele>
        <time>2022-07-31T12:29:01.000Z</time>
      </trkpt>
      <trkpt lat="49.5147" lon="-1.29067">
        <ele>2.414716</ele>
        <time>2022-07-31T12:29:02.000Z</time>
      </trkpt>
      <trkpt lat="49.5147" lon="-1.29062">
        <ele>2.42087</ele>
        <time>2022-07-31T12:29:03.000Z</time>
      </trkpt>
      <trkpt lat="49.5147" lon="-1.29057">
        <ele>2.427051</ele>
        <time>2022-07-31T12:29:04.000Z</time>
      </trkpt>
      <trkpt lat="49.51469" lon="-1.29052">
        <ele>2.433862</ele>
        <time>2022-07-31T12:29:05.000Z</time>
      </trkpt>
      <trkpt lat="49.51469" lon="-1.29046">
        <ele>2.440656</ele>
        <time>2022-07-31T12:29:06.000Z</time>
      </trkpt>
      <trkpt lat="49.51469" lon="-1.29041">
        <ele>2.447572</ele>
        <time>2022-07-31T12:29:07.000Z</time>
      </trkpt>
      <trkpt lat="49.51468" lon="-1.29035">
        <ele>2.454776</ele>
        <time>2022-07-31T12:29:08.000Z</time>
      </trkpt>
      <trkpt lat="49.51467" lon="-1.2903">
        <ele>2.461814</ele>
        <time>2022-07-31T12:29:09.000Z</time>
      </trkpt>
      <trkpt lat="49.51466" lon="-1.29024">
        <ele>2.468844</ele>
        <time>2022-07-31T12:29:10.000Z</time>
      </trkpt>
      <trkpt lat="49.51466" lon="-1.29019">
        <ele>2.475613</ele>
        <time>2022-07-31T12:29:11.000Z</time>
      </trkpt>
      <trkpt lat="49.51466" lon="-1.29013">
        <ele>2.482039</ele>
        <time>2022-07-31T12:29:12.000Z</time>
      </trkpt>
      <trkpt lat="49.51466" lon="-1.29008">
        <ele>2.488219</ele>
        <time>2022-07-31T12:29:13.000Z</time>
      </trkpt>
      <trkpt lat="49.51465" lon="-1.29003">
        <ele>2.494399</ele>
        <time>2022-07-31T12:29:14.000Z</time>
      </trkpt>
      <trkpt lat="49.51465" lon="-1.28998">
        <ele>2.500702</ele>
        <time>2022-07-31T12:29:15.000Z</time>
      </trkpt>
      <trkpt lat="49.51464" lon="-1.28993">
        <ele>2.507238</ele>
        <time>2022-07-31T12:29:16.000Z</time>
      </trkpt>
      <trkpt lat="49.51464" lon="-1.28988">
        <ele>2.513664</ele>
        <time>2022-07-31T12:29:17.000Z</time>
      </trkpt>
      <trkpt lat="49.51463" lon="-1.28983">
        <ele>2.520043</ele>
        <time>2022-07-31T12:29:18.000Z</time>
      </trkpt>
      <trkpt lat="49.51463" lon="-1.28978">
        <ele>2.526197</ele>
        <time>2022-07-31T12:29:19.000Z</time>
      </trkpt>
      <trkpt lat="49.51463" lon="-1.28973">
        <ele>2.532398</ele>
        <time>2022-07-31T12:29:20.000Z</time>
      </trkpt>
      <trkpt lat="49.51462" lon="-1.28968">
        <ele>2.538193</ele>
        <time>2022-07-31T12:29:21.000Z</time>
      </trkpt>
      <trkpt lat="49.51462" lon="-1.28964">
        <ele>2.543394</ele>
        <time>2022-07-31T12:29:22.000Z</time>
      </trkpt>
      <trkpt lat="49.51462" lon="-1.2896">
        <ele>2.548563</ele>
        <time>2022-07-31T12:29:23.000Z</time>
      </trkpt>
      <trkpt lat="49.51461" lon="-1.28956">
        <ele>2.553544</ele>
        <time>2022-07-31T12:29:24.000Z</time>
      </trkpt>
      <trkpt lat="49.51461" lon="-1.28952">
        <ele>2.55789</ele>
        <time>2022-07-31T12:29:25.000Z</time>
      </trkpt>
      <trkpt lat="49.51461" lon="-1.28949">
        <ele>2.561991</ele>
        <time>2022-07-31T12:29:26.000Z</time>
      </trkpt>
      <trkpt lat="49.5146" lon="-1.28945">
        <ele>2.566685</ele>
        <time>2022-07-31T12:29:27.000Z</time>
      </trkpt>
      <trkpt lat="49.51461" lon="-1.28942">
        <ele>2.57114</ele>
        <time>2022-07-31T12:29:28.000Z</time>
      </trkpt>
      <trkpt lat="49.51461" lon="-1.28938">
        <ele>2.576667</ele>
        <time>2022-07-31T12:29:29.000Z</time>
      </trkpt>
      <trkpt lat="49.51461" lon="-1.28934">
        <ele>2.584169</ele>
        <time>2022-07-31T12:29:30.000Z</time>
      </trkpt>
      <trkpt lat="49.51462" lon="-1.2893">
        <ele>2.59247</ele>
        <time>2022-07-31T12:29:31.000Z</time>
      </trkpt>
      <trkpt lat="49.51462" lon="-1.28925">
        <ele>2.601647</ele>
        <time>2022-07-31T12:29:32.000Z</time>
      </trkpt>
      <trkpt lat="49.51463" lon="-1.2892">
        <ele>2.610778</ele>
        <time>2022-07-31T12:29:33.000Z</time>
      </trkpt>
      <trkpt lat="49.51463" lon="-1.28915">
        <ele>2.619803</ele>
        <time>2022-07-31T12:29:34.000Z</time>
      </trkpt>
      <trkpt lat="49.51464" lon="-1.2891">
        <ele>2.628199</ele>
        <time>2022-07-31T12:29:35.000Z</time>
      </trkpt>
      <trkpt lat="49.51465" lon="-1.28906">
        <ele>2.6372</ele>
        <time>2022-07-31T12:29:36.000Z</time>
      </trkpt>
      <trkpt lat="49.51467" lon="-1.28901">
        <ele>2.647061</ele>
        <time>2022-07-31T12:29:37.000Z</time>
      </trkpt>
      <trkpt lat="49.51468" lon="-1.28896">
        <ele>2.656566</ele>
        <time>2022-07-31T12:29:38.000Z</time>
      </trkpt>
      <trkpt lat="49.51469" lon="-1.28891">
        <ele>2.666402</ele>
        <time>2022-07-31T12:29:39.000Z</time>
      </trkpt>
      <trkpt lat="49.5147" lon="-1.28886">
        <ele>2.676313</ele>
        <time>2022-07-31T12:29:40.000Z</time>
      </trkpt>
      <trkpt lat="49.51471" lon="-1.28881">
        <ele>2.686325</ele>
        <time>2022-07-31T12:29:41.000Z</time>
      </trkpt>
      <trkpt lat="49.51472" lon="-1.28875">
        <ele>2.696568</ele>
        <time>2022-07-31T12:29:42.000Z</time>
      </trkpt>
      <trkpt lat="49.51473" lon="-1.2887">
        <ele>2.707265</ele>
        <time>2022-07-31T12:29:43.000Z</time>
      </trkpt>
      <trkpt lat="49.51474" lon="-1.28864">
        <ele>2.717277</ele>
        <time>2022-07-31T12:29:44.000Z</time>
      </trkpt>
      <trkpt lat="49.51476" lon="-1.28859">
        <ele>2.727464</ele>
        <time>2022-07-31T12:29:45.000Z</time>
      </trkpt>
      <trkpt lat="49.51477" lon="-1.28854">
        <ele>2.737981</ele>
        <time>2022-07-31T12:29:46.000Z</time>
      </trkpt>
      <trkpt lat="49.51478" lon="-1.28848">
        <ele>2.748771</ele>
        <time>2022-07-31T12:29:47.000Z</time>
      </trkpt>
      <trkpt lat="49.51479" lon="-1.28843">
        <ele>2.759468</ele>
        <time>2022-07-31T12:29:48.000Z</time>
      </trkpt>
      <trkpt lat="49.51481" lon="-1.28837">
        <ele>2.770072</ele>
        <time>2022-07-31T12:29:49.000Z</time>
      </trkpt>
      <trkpt lat="49.51482" lon="-1.28832">
        <ele>2.780769</ele>
        <time>2022-07-31T12:29:50.000Z</time>
      </trkpt>
      <trkpt lat="49.51483" lon="-1.28827">
        <ele>2.791123</ele>
        <time>2022-07-31T12:29:51.000Z</time>
      </trkpt>
      <trkpt lat="49.51485" lon="-1.28821">
        <ele>2.80164</ele>
        <time>2022-07-31T12:29:52.000Z</time>
      </trkpt>
      <trkpt lat="49.51486" lon="-1.28816">
        <ele>2.811483</ele>
        <time>2022-07-31T12:29:53.000Z</time>
      </trkpt>
      <trkpt lat="49.51487" lon="-1.28811">
        <ele>2.821496</ele>
        <time>2022-07-31T12:29:54.000Z</time>
      </trkpt>
      <trkpt lat="49.51489" lon="-1.28806">
        <ele>2.831582</ele>
        <time>2022-07-31T12:29:55.000Z</time>
      </trkpt>
      <trkpt lat="49.51489" lon="-1.28801">
        <ele>2.84093</ele>
        <time>2022-07-31T12:29:56.000Z</time>
      </trkpt>
      <trkpt lat="49.51489" lon="-1.28796">
        <ele>2.849519</ele>
        <time>2022-07-31T12:29:57.000Z</time>
      </trkpt>
      <trkpt lat="49.51489" lon="-1.28792">
        <ele>2.857976</ele>
        <time>2022-07-31T12:29:58.000Z</time>
      </trkpt>
      <trkpt lat="49.51488" lon="-1.28787">
        <ele>2.866581</ele>
        <time>2022-07-31T12:29:59.000Z</time>
      </trkpt>
      <trkpt lat="49.51487" lon="-1.28784">
        <ele>2.873215</ele>
        <time>2022-07-31T12:30:00.000Z</time>
      </trkpt>
      <trkpt lat="49.51488" lon="-1.2878">
        <ele>2.879654</ele>
        <time>2022-07-31T12:30:01.000Z</time>
      </trkpt>
      <trkpt lat="49.51489" lon="-1.28777">
        <ele>2.886398</ele>
        <time>2022-07-31T12:30:02.000Z</time>
      </trkpt>
      <trkpt lat="49.51491" lon="-1.28774">
        <ele>2.894323</ele>
        <time>2022-07-31T12:30:03.000Z</time>
      </trkpt>
      <trkpt lat="49.51493" lon="-1.28771">
        <ele>2.902841</ele>
        <time>2022-07-31T12:30:04.000Z</time>
      </trkpt>
      <trkpt lat="49.51496" lon="-1.28767">
        <ele>2.912606</ele>
        <time>2022-07-31T12:30:05.000Z</time>
      </trkpt>
      <trkpt lat="49.51498" lon="-1.28762">
        <ele>2.923194</ele>
        <time>2022-07-31T12:30:06.000Z</time>
      </trkpt>
      <trkpt lat="49.51499" lon="-1.28756">
        <ele>2.933891</ele>
        <time>2022-07-31T12:30:07.000Z</time>
      </trkpt>
      <trkpt lat="49.515" lon="-1.28751">
        <ele>2.944434</ele>
        <time>2022-07-31T12:30:08.000Z</time>
      </trkpt>
      <trkpt lat="49.51501" lon="-1.28745">
        <ele>2.95582</ele>
        <time>2022-07-31T12:30:09.000Z</time>
      </trkpt>
      <trkpt lat="49.51502" lon="-1.28739">
        <ele>2.966063</ele>
        <time>2022-07-31T12:30:10.000Z</time>
      </trkpt>
      <trkpt lat="49.51503" lon="-1.28734">
        <ele>2.976667</ele>
        <time>2022-07-31T12:30:11.000Z</time>
      </trkpt>
      <trkpt lat="49.51504" lon="-1.28728">
        <ele>2.987105</ele>
        <time>2022-07-31T12:30:12.000Z</time>
      </trkpt>
      <trkpt lat="49.51506" lon="-1.28723">
        <ele>2.997457</ele>
        <time>2022-07-31T12:30:13.000Z</time>
      </trkpt>
      <trkpt lat="49.51507" lon="-1.28718">
        <ele>3.007973</ele>
        <time>2022-07-31T12:30:14.000Z</time>
      </trkpt>
      <trkpt lat="49.51509" lon="-1.28713">
        <ele>3.018328</ele>
        <time>2022-07-31T12:30:15.000Z</time>
      </trkpt>
      <trkpt lat="49.51509" lon="-1.28708">
        <ele>3.02762</ele>
        <time>2022-07-31T12:30:16.000Z</time>
      </trkpt>
      <trkpt lat="49.5151" lon="-1.28703">
        <ele>3.036968</ele>
        <time>2022-07-31T12:30:17.000Z</time>
      </trkpt>
      <trkpt lat="49.51511" lon="-1.28698">
        <ele>3.047054</ele>
        <time>2022-07-31T12:30:18.000Z</time>
      </trkpt>
      <trkpt lat="49.51511" lon="-1.28693">
        <ele>3.055643</ele>
        <time>2022-07-31T12:30:19.000Z</time>
      </trkpt>
      <trkpt lat="49.51511" lon="-1.2869">
        <ele>3.061733</ele>
        <time>2022-07-31T12:30:20.000Z</time>
      </trkpt>
      <trkpt lat="49.5151" lon="-1.28686">
        <ele>3.068106</ele>
        <time>2022-07-31T12:30:21.000Z</time>
      </trkpt>
      <trkpt lat="49.51509" lon="-1.28683">
        <ele>3.074762</ele>
        <time>2022-07-31T12:30:22.000Z</time>
      </trkpt>
      <trkpt lat="49.51508" lon="-1.28679">
        <ele>3.086399</ele>
        <time>2022-07-31T12:30:23.000Z</time>
      </trkpt>
      <trkpt lat="49.51507" lon="-1.28675">
        <ele>3.109746</ele>
        <time>2022-07-31T12:30:24.000Z</time>
      </trkpt>
      <trkpt lat="49.51507" lon="-1.28671">
        <ele>3.133629</ele>
        <time>2022-07-31T12:30:25.000Z</time>
      </trkpt>
      <trkpt lat="49.51508" lon="-1.28667">
        <ele>3.157085</ele>
        <time>2022-07-31T12:30:26.000Z</time>
      </trkpt>
      <trkpt lat="49.51509" lon="-1.28664">
        <ele>3.18043</ele>
        <time>2022-07-31T12:30:27.000Z</time>
      </trkpt>
      <trkpt lat="49.51509" lon="-1.2866">
        <ele>3.202151</ele>
        <time>2022-07-31T12:30:28.000Z</time>
      </trkpt>
      <trkpt lat="49.51509" lon="-1.28657">
        <ele>3.220408</ele>
        <time>2022-07-31T12:30:29.000Z</time>
      </trkpt>
      <trkpt lat="49.51508" lon="-1.28654">
        <ele>3.239536</ele>
        <time>2022-07-31T12:30:30.000Z</time>
      </trkpt>
      <trkpt lat="49.51507" lon="-1.2865">
        <ele>3.265853</ele>
        <time>2022-07-31T12:30:32.000Z</time>
      </trkpt>
      <trkpt lat="49.51509" lon="-1.28647">
        <ele>3.290266</ele>
        <time>2022-07-31T12:30:35.000Z</time>
      </trkpt>
      <trkpt lat="49.51498" lon="-1.28787">
        <ele>4.116251</ele>
        <time>2022-07-31T12:49:45.000Z</time>
      </trkpt>
      <trkpt lat="49.51494" lon="-1.28791">
        <ele>4.153377</ele>
        <time>2022-07-31T12:51:56.000Z</time>
      </trkpt>
      <trkpt lat="49.51492" lon="-1.28792">
        <ele>4.172533</ele>
        <time>2022-07-31T12:51:57.000Z</time>
      </trkpt>
      <trkpt lat="49.5149" lon="-1.28794">
        <ele>4.194514</ele>
        <time>2022-07-31T12:51:58.000Z</time>
      </trkpt>
      <trkpt lat="49.51488" lon="-1.28794">
        <ele>4.21433</ele>
        <time>2022-07-31T12:51:59.000Z</time>
      </trkpt>
      <trkpt lat="49.51485" lon="-1.28793">
        <ele>4.23526</ele>
        <time>2022-07-31T12:52:00.000Z</time>
      </trkpt>
      <trkpt lat="49.51484" lon="-1.28792">
        <ele>4.254415</ele>
        <time>2022-07-31T12:52:01.000Z</time>
      </trkpt>
      <trkpt lat="49.51482" lon="-1.2879">
        <ele>4.273659</ele>
        <time>2022-07-31T12:52:02.000Z</time>
      </trkpt>
      <trkpt lat="49.51481" lon="-1.28787">
        <ele>4.290987</ele>
        <time>2022-07-31T12:52:03.000Z</time>
      </trkpt>
      <trkpt lat="49.51479" lon="-1.28785">
        <ele>4.306851</ele>
        <time>2022-07-31T12:52:04.000Z</time>
      </trkpt>
      <trkpt lat="49.51478" lon="-1.28784">
        <ele>4.324627</ele>
        <time>2022-07-31T12:52:05.000Z</time>
      </trkpt>
      <trkpt lat="49.51476" lon="-1.28782">
        <ele>4.342404</ele>
        <time>2022-07-31T12:52:06.000Z</time>
      </trkpt>
      <trkpt lat="49.51474" lon="-1.2878">
        <ele>4.364455</ele>
        <time>2022-07-31T12:52:07.000Z</time>
      </trkpt>
      <trkpt lat="49.51473" lon="-1.28777">
        <ele>4.382565</ele>
        <time>2022-07-31T12:52:08.000Z</time>
      </trkpt>
      <trkpt lat="49.51471" lon="-1.28774">
        <ele>4.403859</ele>
        <time>2022-07-31T12:52:09.000Z</time>
      </trkpt>
      <trkpt lat="49.5147" lon="-1.28772">
        <ele>4.423911</ele>
        <time>2022-07-31T12:52:10.000Z</time>
      </trkpt>
      <trkpt lat="49.51469" lon="-1.28769">
        <ele>4.444921</ele>
        <time>2022-07-31T12:52:11.000Z</time>
      </trkpt>
      <trkpt lat="49.51467" lon="-1.28766">
        <ele>4.468514</ele>
        <time>2022-07-31T12:52:12.000Z</time>
      </trkpt>
      <trkpt lat="49.51465" lon="-1.28763">
        <ele>4.492514</ele>
        <time>2022-07-31T12:52:13.000Z</time>
      </trkpt>
      <trkpt lat="49.51463" lon="-1.2876">
        <ele>4.516505</ele>
        <time>2022-07-31T12:52:14.000Z</time>
      </trkpt>
      <trkpt lat="49.51462" lon="-1.28756">
        <ele>4.539994</ele>
        <time>2022-07-31T12:52:15.000Z</time>
      </trkpt>
      <trkpt lat="49.51461" lon="-1.28752">
        <ele>4.564501</ele>
        <time>2022-07-31T12:52:16.000Z</time>
      </trkpt>
      <trkpt lat="49.51459" lon="-1.28749">
        <ele>4.589914</ele>
        <time>2022-07-31T12:52:17.000Z</time>
      </trkpt>
      <trkpt lat="49.51457" lon="-1.28745">
        <ele>4.619733</ele>
        <time>2022-07-31T12:52:18.000Z</time>
      </trkpt>
      <trkpt lat="49.51455" lon="-1.28741">
        <ele>4.648604</ele>
        <time>2022-07-31T12:52:19.000Z</time>
      </trkpt>
      <trkpt lat="49.51453" lon="-1.28737">
        <ele>4.677099</ele>
        <time>2022-07-31T12:52:20.000Z</time>
      </trkpt>
      <trkpt lat="49.51452" lon="-1.28733">
        <ele>4.691269</ele>
        <time>2022-07-31T12:52:21.000Z</time>
      </trkpt>
      <trkpt lat="49.5145" lon="-1.28728">
        <ele>4.684529</ele>
        <time>2022-07-31T12:52:22.000Z</time>
      </trkpt>
      <trkpt lat="49.51448" lon="-1.28724">
        <ele>4.677896</ele>
        <time>2022-07-31T12:52:23.000Z</time>
      </trkpt>
      <trkpt lat="49.51445" lon="-1.2872">
        <ele>4.671164</ele>
        <time>2022-07-31T12:52:24.000Z</time>
      </trkpt>
      <trkpt lat="49.51443" lon="-1.28717">
        <ele>4.663801</ele>
        <time>2022-07-31T12:52:25.000Z</time>
      </trkpt>
      <trkpt lat="49.5144" lon="-1.28713">
        <ele>4.657069</ele>
        <time>2022-07-31T12:52:26.000Z</time>
      </trkpt>
      <trkpt lat="49.51438" lon="-1.28709">
        <ele>4.650374</ele>
        <time>2022-07-31T12:52:27.000Z</time>
      </trkpt>
      <trkpt lat="49.51436" lon="-1.28705">
        <ele>4.643451</ele>
        <time>2022-07-31T12:52:28.000Z</time>
      </trkpt>
      <trkpt lat="49.51434" lon="-1.28701">
        <ele>4.636357</ele>
        <time>2022-07-31T12:52:29.000Z</time>
      </trkpt>
      <trkpt lat="49.51431" lon="-1.28697">
        <ele>4.629465</ele>
        <time>2022-07-31T12:52:30.000Z</time>
      </trkpt>
      <trkpt lat="49.51429" lon="-1.28694">
        <ele>4.622894</ele>
        <time>2022-07-31T12:52:31.000Z</time>
      </trkpt>
      <trkpt lat="49.51426" lon="-1.2869">
        <ele>4.616002</ele>
        <time>2022-07-31T12:52:32.000Z</time>
      </trkpt>
      <trkpt lat="49.51424" lon="-1.28686">
        <ele>4.609307</ele>
        <time>2022-07-31T12:52:33.000Z</time>
      </trkpt>
      <trkpt lat="49.51421" lon="-1.28682">
        <ele>4.601881</ele>
        <time>2022-07-31T12:52:34.000Z</time>
      </trkpt>
      <trkpt lat="49.51418" lon="-1.28678">
        <ele>4.593056</ele>
        <time>2022-07-31T12:52:35.000Z</time>
      </trkpt>
      <trkpt lat="49.51415" lon="-1.28673">
        <ele>4.584141</ele>
        <time>2022-07-31T12:52:36.000Z</time>
      </trkpt>
      <trkpt lat="49.51412" lon="-1.28667">
        <ele>4.574571</ele>
        <time>2022-07-31T12:52:37.000Z</time>
      </trkpt>
      <trkpt lat="49.51408" lon="-1.28661">
        <ele>4.564119</ele>
        <time>2022-07-31T12:52:38.000Z</time>
      </trkpt>
      <trkpt lat="49.51405" lon="-1.28655">
        <ele>4.553276</ele>
        <time>2022-07-31T12:52:39.000Z</time>
      </trkpt>
      <trkpt lat="49.51401" lon="-1.28649">
        <ele>4.542911</ele>
        <time>2022-07-31T12:52:40.000Z</time>
      </trkpt>
      <trkpt lat="49.51397" lon="-1.28642">
        <ele>4.531443</ele>
        <time>2022-07-31T12:52:41.000Z</time>
      </trkpt>
      <trkpt lat="49.51394" lon="-1.28636">
        <ele>4.520699</ele>
        <time>2022-07-31T12:52:42.000Z</time>
      </trkpt>
      <trkpt lat="49.5139" lon="-1.28629">
        <ele>4.50946</ele>
        <time>2022-07-31T12:52:43.000Z</time>
      </trkpt>
      <trkpt lat="49.51386" lon="-1.28623">
        <ele>4.498367</ele>
        <time>2022-07-31T12:52:44.000Z</time>
      </trkpt>
      <trkpt lat="49.51382" lon="-1.28617">
        <ele>4.487506</ele>
        <time>2022-07-31T12:52:45.000Z</time>
      </trkpt>
      <trkpt lat="49.51379" lon="-1.28611">
        <ele>4.476644</ele>
        <time>2022-07-31T12:52:46.000Z</time>
      </trkpt>
      <trkpt lat="49.51374" lon="-1.28606">
        <ele>4.465472</ele>
        <time>2022-07-31T12:52:47.000Z</time>
      </trkpt>
      <trkpt lat="49.5137" lon="-1.286">
        <ele>4.454007</ele>
        <time>2022-07-31T12:52:48.000Z</time>
      </trkpt>
      <trkpt lat="49.51365" lon="-1.28595">
        <ele>4.442541</ele>
        <time>2022-07-31T12:52:49.000Z</time>
      </trkpt>
      <trkpt lat="49.5136" lon="-1.28589">
        <ele>4.430262</ele>
        <time>2022-07-31T12:52:50.000Z</time>
      </trkpt>
      <trkpt lat="49.51356" lon="-1.28584">
        <ele>4.418797</ele>
        <time>2022-07-31T12:52:51.000Z</time>
      </trkpt>
      <trkpt lat="49.51351" lon="-1.28578">
        <ele>4.4067</ele>
        <time>2022-07-31T12:52:52.000Z</time>
      </trkpt>
      <trkpt lat="49.51347" lon="-1.28573">
        <ele>4.395391</ele>
        <time>2022-07-31T12:52:53.000Z</time>
      </trkpt>
      <trkpt lat="49.51342" lon="-1.28567">
        <ele>4.383762</ele>
        <time>2022-07-31T12:52:54.000Z</time>
      </trkpt>
      <trkpt lat="49.51337" lon="-1.28561">
        <ele>4.371744</ele>
        <time>2022-07-31T12:52:55.000Z</time>
      </trkpt>
      <trkpt lat="49.51333" lon="-1.28556">
        <ele>4.360279</ele>
        <time>2022-07-31T12:52:56.000Z</time>
      </trkpt>
      <trkpt lat="49.51328" lon="-1.2855">
        <ele>4.348893</ele>
        <time>2022-07-31T12:52:57.000Z</time>
      </trkpt>
      <trkpt lat="49.51324" lon="-1.28545">
        <ele>4.337743</ele>
        <time>2022-07-31T12:52:58.000Z</time>
      </trkpt>
      <trkpt lat="49.51319" lon="-1.2854">
        <ele>4.357232</ele>
        <time>2022-07-31T12:52:59.000Z</time>
      </trkpt>
      <trkpt lat="49.51315" lon="-1.28535">
        <ele>4.383824</ele>
        <time>2022-07-31T12:53:00.000Z</time>
      </trkpt>
      <trkpt lat="49.5131" lon="-1.28529">
        <ele>4.410474</ele>
        <time>2022-07-31T12:53:01.000Z</time>
      </trkpt>
      <trkpt lat="49.51306" lon="-1.28523">
        <ele>4.439012</ele>
        <time>2022-07-31T12:53:02.000Z</time>
      </trkpt>
      <trkpt lat="49.51301" lon="-1.28517">
        <ele>4.467348</ele>
        <time>2022-07-31T12:53:03.000Z</time>
      </trkpt>
      <trkpt lat="49.51297" lon="-1.2851">
        <ele>4.495138</ele>
        <time>2022-07-31T12:53:04.000Z</time>
      </trkpt>
      <trkpt lat="49.51293" lon="-1.28504">
        <ele>4.522621</ele>
        <time>2022-07-31T12:53:05.000Z</time>
      </trkpt>
      <trkpt lat="49.51289" lon="-1.28498">
        <ele>4.551781</ele>
        <time>2022-07-31T12:53:06.000Z</time>
      </trkpt>
      <trkpt lat="49.51285" lon="-1.28491">
        <ele>4.580015</ele>
        <time>2022-07-31T12:53:07.000Z</time>
      </trkpt>
      <trkpt lat="49.5128" lon="-1.28485">
        <ele>4.608142</ele>
        <time>2022-07-31T12:53:08.000Z</time>
      </trkpt>
      <trkpt lat="49.51276" lon="-1.28478">
        <ele>4.636153</ele>
        <time>2022-07-31T12:53:09.000Z</time>
      </trkpt>
      <trkpt lat="49.51272" lon="-1.28472">
        <ele>4.665104</ele>
        <time>2022-07-31T12:53:10.000Z</time>
      </trkpt>
      <trkpt lat="49.51268" lon="-1.28466">
        <ele>4.691959</ele>
        <time>2022-07-31T12:53:11.000Z</time>
      </trkpt>
      <trkpt lat="49.51263" lon="-1.2846">
        <ele>4.720294</ele>
        <time>2022-07-31T12:53:12.000Z</time>
      </trkpt>
      <trkpt lat="49.51259" lon="-1.28454">
        <ele>4.747649</ele>
        <time>2022-07-31T12:53:13.000Z</time>
      </trkpt>
      <trkpt lat="49.51254" lon="-1.28448">
        <ele>4.775984</ele>
        <time>2022-07-31T12:53:14.000Z</time>
      </trkpt>
      <trkpt lat="49.5125" lon="-1.28442">
        <ele>4.804728</ele>
        <time>2022-07-31T12:53:15.000Z</time>
      </trkpt>
      <trkpt lat="49.51246" lon="-1.28436">
        <ele>4.831866</ele>
        <time>2022-07-31T12:53:16.000Z</time>
      </trkpt>
      <trkpt lat="49.51241" lon="-1.2843">
        <ele>4.86061</ele>
        <time>2022-07-31T12:53:17.000Z</time>
      </trkpt>
      <trkpt lat="49.51237" lon="-1.28423">
        <ele>4.888306</ele>
        <time>2022-07-31T12:53:18.000Z</time>
      </trkpt>
      <trkpt lat="49.51233" lon="-1.28417">
        <ele>4.915878</ele>
        <time>2022-07-31T12:53:19.000Z</time>
      </trkpt>
      <trkpt lat="49.51229" lon="-1.28411">
        <ele>4.944622</ele>
        <time>2022-07-31T12:53:20.000Z</time>
      </trkpt>
      <trkpt lat="49.51224" lon="-1.28405">
        <ele>4.97316</ele>
        <time>2022-07-31T12:53:21.000Z</time>
      </trkpt>
      <trkpt lat="49.5122" lon="-1.28399">
        <ele>5.000856</ele>
        <time>2022-07-31T12:53:22.000Z</time>
      </trkpt>
      <trkpt lat="49.51216" lon="-1.28392">
        <ele>5.028428</ele>
        <time>2022-07-31T12:53:23.000Z</time>
      </trkpt>
      <trkpt lat="49.51212" lon="-1.28386">
        <ele>5.056773</ele>
        <time>2022-07-31T12:53:24.000Z</time>
      </trkpt>
      <trkpt lat="49.51207" lon="-1.2838">
        <ele>5.084128</ele>
        <time>2022-07-31T12:53:25.000Z</time>
      </trkpt>
      <trkpt lat="49.51203" lon="-1.28373">
        <ele>5.112872</ele>
        <time>2022-07-31T12:53:26.000Z</time>
      </trkpt>
      <trkpt lat="49.51199" lon="-1.28368">
        <ele>5.139318</ele>
        <time>2022-07-31T12:53:27.000Z</time>
      </trkpt>
      <trkpt lat="49.51194" lon="-1.28362">
        <ele>5.167056</ele>
        <time>2022-07-31T12:53:28.000Z</time>
      </trkpt>
      <trkpt lat="49.5119" lon="-1.28356">
        <ele>5.191461</ele>
        <time>2022-07-31T12:53:29.000Z</time>
      </trkpt>
      <trkpt lat="49.51186" lon="-1.28351">
        <ele>5.192157</ele>
        <time>2022-07-31T12:53:30.000Z</time>
      </trkpt>
      <trkpt lat="49.51181" lon="-1.28345">
        <ele>5.192848</ele>
        <time>2022-07-31T12:53:31.000Z</time>
      </trkpt>
      <trkpt lat="49.51176" lon="-1.2834">
        <ele>5.19357</ele>
        <time>2022-07-31T12:53:32.000Z</time>
      </trkpt>
      <trkpt lat="49.51171" lon="-1.28335">
        <ele>5.194236</ele>
        <time>2022-07-31T12:53:33.000Z</time>
      </trkpt>
      <trkpt lat="49.51166" lon="-1.28331">
        <ele>5.194922</ele>
        <time>2022-07-31T12:53:34.000Z</time>
      </trkpt>
      <trkpt lat="49.51161" lon="-1.28326">
        <ele>5.195627</ele>
        <time>2022-07-31T12:53:35.000Z</time>
      </trkpt>
      <trkpt lat="49.51156" lon="-1.28322">
        <ele>5.19637</ele>
        <time>2022-07-31T12:53:36.000Z</time>
      </trkpt>
      <trkpt lat="49.5115" lon="-1.28317">
        <ele>5.197087</ele>
        <time>2022-07-31T12:53:37.000Z</time>
      </trkpt>
      <trkpt lat="49.51145" lon="-1.28312">
        <ele>5.1978</ele>
        <time>2022-07-31T12:53:38.000Z</time>
      </trkpt>
      <trkpt lat="49.5114" lon="-1.28307">
        <ele>5.198539</ele>
        <time>2022-07-31T12:53:39.000Z</time>
      </trkpt>
      <trkpt lat="49.51134" lon="-1.28303">
        <ele>5.199271</ele>
        <time>2022-07-31T12:53:40.000Z</time>
      </trkpt>
      <trkpt lat="49.5113" lon="-1.28298">
        <ele>5.199958</ele>
        <time>2022-07-31T12:53:41.000Z</time>
      </trkpt>
      <trkpt lat="49.51124" lon="-1.28293">
        <ele>5.200702</ele>
        <time>2022-07-31T12:53:42.000Z</time>
      </trkpt>
      <trkpt lat="49.51119" lon="-1.28288">
        <ele>5.201389</ele>
        <time>2022-07-31T12:53:43.000Z</time>
      </trkpt>
      <trkpt lat="49.51114" lon="-1.28283">
        <ele>5.202147</ele>
        <time>2022-07-31T12:53:44.000Z</time>
      </trkpt>
      <trkpt lat="49.51109" lon="-1.28278">
        <ele>5.202864</ele>
        <time>2022-07-31T12:53:45.000Z</time>
      </trkpt>
      <trkpt lat="49.51104" lon="-1.28273">
        <ele>5.203565</ele>
        <time>2022-07-31T12:53:46.000Z</time>
      </trkpt>
      <trkpt lat="49.51099" lon="-1.28269">
        <ele>5.20427</ele>
        <time>2022-07-31T12:53:47.000Z</time>
      </trkpt>
      <trkpt lat="49.51093" lon="-1.28264">
        <ele>5.205047</ele>
        <time>2022-07-31T12:53:48.000Z</time>
      </trkpt>
      <trkpt lat="49.51088" lon="-1.28259">
        <ele>5.205718</ele>
        <time>2022-07-31T12:53:49.000Z</time>
      </trkpt>
      <trkpt lat="49.51083" lon="-1.28255">
        <ele>5.206454</ele>
        <time>2022-07-31T12:53:50.000Z</time>
      </trkpt>
      <trkpt lat="49.51077" lon="-1.2825">
        <ele>5.2072</ele>
        <time>2022-07-31T12:53:51.000Z</time>
      </trkpt>
      <trkpt lat="49.51072" lon="-1.28245">
        <ele>5.207887</ele>
        <time>2022-07-31T12:53:52.000Z</time>
      </trkpt>
      <trkpt lat="49.51067" lon="-1.2824">
        <ele>5.208616</ele>
        <time>2022-07-31T12:53:53.000Z</time>
      </trkpt>
      <trkpt lat="49.51062" lon="-1.28236">
        <ele>5.209317</ele>
        <time>2022-07-31T12:53:54.000Z</time>
      </trkpt>
      <trkpt lat="49.51056" lon="-1.28231">
        <ele>5.21007</ele>
        <time>2022-07-31T12:53:55.000Z</time>
      </trkpt>
      <trkpt lat="49.51051" lon="-1.28226">
        <ele>5.210771</ele>
        <time>2022-07-31T12:53:56.000Z</time>
      </trkpt>
      <trkpt lat="49.51046" lon="-1.28221">
        <ele>5.211489</ele>
        <time>2022-07-31T12:53:57.000Z</time>
      </trkpt>
      <trkpt lat="49.51041" lon="-1.28216">
        <ele>5.212202</ele>
        <time>2022-07-31T12:53:58.000Z</time>
      </trkpt>
      <trkpt lat="49.51037" lon="-1.28211">
        <ele>5.207378</ele>
        <time>2022-07-31T12:53:59.000Z</time>
      </trkpt>
      <trkpt lat="49.51031" lon="-1.28207">
        <ele>5.172681</ele>
        <time>2022-07-31T12:54:00.000Z</time>
      </trkpt>
      <trkpt lat="49.51026" lon="-1.28202">
        <ele>5.141684</ele>
        <time>2022-07-31T12:54:01.000Z</time>
      </trkpt>
      <trkpt lat="49.51021" lon="-1.28198">
        <ele>5.109261</ele>
        <time>2022-07-31T12:54:02.000Z</time>
      </trkpt>
      <trkpt lat="49.51016" lon="-1.28193">
        <ele>5.077884</ele>
        <time>2022-07-31T12:54:03.000Z</time>
      </trkpt>
      <trkpt lat="49.51012" lon="-1.28188">
        <ele>5.046314</ele>
        <time>2022-07-31T12:54:04.000Z</time>
      </trkpt>
      <trkpt lat="49.51007" lon="-1.28184">
        <ele>5.015316</ele>
        <time>2022-07-31T12:54:05.000Z</time>
      </trkpt>
      <trkpt lat="49.51002" lon="-1.28179">
        <ele>4.986103</ele>
        <time>2022-07-31T12:54:06.000Z</time>
      </trkpt>
      <trkpt lat="49.50997" lon="-1.28175">
        <ele>4.954201</ele>
        <time>2022-07-31T12:54:07.000Z</time>
      </trkpt>
      <trkpt lat="49.50992" lon="-1.28171">
        <ele>4.920667</ele>
        <time>2022-07-31T12:54:08.000Z</time>
      </trkpt>
      <trkpt lat="49.50987" lon="-1.28166">
        <ele>4.888901</ele>
        <time>2022-07-31T12:54:09.000Z</time>
      </trkpt>
      <trkpt lat="49.50982" lon="-1.28161">
        <ele>4.859107</ele>
        <time>2022-07-31T12:54:10.000Z</time>
      </trkpt>
      <trkpt lat="49.50977" lon="-1.28157">
        <ele>4.827205</ele>
        <time>2022-07-31T12:54:11.000Z</time>
      </trkpt>
      <trkpt lat="49.50973" lon="-1.28153">
        <ele>4.797433</ele>
        <time>2022-07-31T12:54:12.000Z</time>
      </trkpt>
      <trkpt lat="49.50967" lon="-1.28149">
        <ele>4.763881</ele>
        <time>2022-07-31T12:54:13.000Z</time>
      </trkpt>
      <trkpt lat="49.50962" lon="-1.28145">
        <ele>4.73051</ele>
        <time>2022-07-31T12:54:14.000Z</time>
      </trkpt>
      <trkpt lat="49.50957" lon="-1.28141">
        <ele>4.698437</ele>
        <time>2022-07-31T12:54:15.000Z</time>
      </trkpt>
      <trkpt lat="49.50951" lon="-1.28136">
        <ele>4.664082</ele>
        <time>2022-07-31T12:54:16.000Z</time>
      </trkpt>
      <trkpt lat="49.50946" lon="-1.28132">
        <ele>4.631836</ele>
        <time>2022-07-31T12:54:17.000Z</time>
      </trkpt>
      <trkpt lat="49.50941" lon="-1.28128">
        <ele>4.60173</ele>
        <time>2022-07-31T12:54:18.000Z</time>
      </trkpt>
      <trkpt lat="49.50936" lon="-1.28124">
        <ele>4.568196</ele>
        <time>2022-07-31T12:54:19.000Z</time>
      </trkpt>
      <trkpt lat="49.50931" lon="-1.28119">
        <ele>4.536123</ele>
        <time>2022-07-31T12:54:20.000Z</time>
      </trkpt>
      <trkpt lat="49.50925" lon="-1.28115">
        <ele>4.501768</ele>
        <time>2022-07-31T12:54:21.000Z</time>
      </trkpt>
      <trkpt lat="49.5092" lon="-1.2811">
        <ele>4.469521</ele>
        <time>2022-07-31T12:54:22.000Z</time>
      </trkpt>
      <trkpt lat="49.50915" lon="-1.28106">
        <ele>4.439416</ele>
        <time>2022-07-31T12:54:23.000Z</time>
      </trkpt>
      <trkpt lat="49.5091" lon="-1.28102">
        <ele>4.40768</ele>
        <time>2022-07-31T12:54:24.000Z</time>
      </trkpt>
      <trkpt lat="49.50905" lon="-1.28098">
        <ele>4.375434</ele>
        <time>2022-07-31T12:54:25.000Z</time>
      </trkpt>
      <trkpt lat="49.509" lon="-1.28094">
        <ele>4.341409</ele>
        <time>2022-07-31T12:54:26.000Z</time>
      </trkpt>
      <trkpt lat="49.50894" lon="-1.2809">
        <ele>4.309838</ele>
        <time>2022-07-31T12:54:27.000Z</time>
      </trkpt>
      <trkpt lat="49.5089" lon="-1.28085">
        <ele>4.279385</ele>
        <time>2022-07-31T12:54:28.000Z</time>
      </trkpt>
      <trkpt lat="49.50885" lon="-1.28081">
        <ele>4.246962</ele>
        <time>2022-07-31T12:54:29.000Z</time>
      </trkpt>
      <trkpt lat="49.5088" lon="-1.28077">
        <ele>4.226296</ele>
        <time>2022-07-31T12:54:30.000Z</time>
      </trkpt>
      <trkpt lat="49.50874" lon="-1.28072">
        <ele>4.27218</ele>
        <time>2022-07-31T12:54:31.000Z</time>
      </trkpt>
      <trkpt lat="49.50869" lon="-1.28068">
        <ele>4.315665</ele>
        <time>2022-07-31T12:54:32.000Z</time>
      </trkpt>
      <trkpt lat="49.50864" lon="-1.28064">
        <ele>4.360886</ele>
        <time>2022-07-31T12:54:33.000Z</time>
      </trkpt>
      <trkpt lat="49.50859" lon="-1.28059">
        <ele>4.404138</ele>
        <time>2022-07-31T12:54:34.000Z</time>
      </trkpt>
      <trkpt lat="49.50854" lon="-1.28055">
        <ele>4.445939</ele>
        <time>2022-07-31T12:54:35.000Z</time>
      </trkpt>
      <trkpt lat="49.50849" lon="-1.2805">
        <ele>4.491288</ele>
        <time>2022-07-31T12:54:36.000Z</time>
      </trkpt>
      <trkpt lat="49.50844" lon="-1.28045">
        <ele>4.534395</ele>
        <time>2022-07-31T12:54:37.000Z</time>
      </trkpt>
      <trkpt lat="49.50839" lon="-1.2804">
        <ele>4.57536</ele>
        <time>2022-07-31T12:54:38.000Z</time>
      </trkpt>
      <trkpt lat="49.50835" lon="-1.28034">
        <ele>4.620449</ele>
        <time>2022-07-31T12:54:39.000Z</time>
      </trkpt>
      <trkpt lat="49.5083" lon="-1.28028">
        <ele>4.662092</ele>
        <time>2022-07-31T12:54:40.000Z</time>
      </trkpt>
      <trkpt lat="49.50826" lon="-1.28023">
        <ele>4.703417</ele>
        <time>2022-07-31T12:54:41.000Z</time>
      </trkpt>
      <trkpt lat="49.50822" lon="-1.28017">
        <ele>4.746162</ele>
        <time>2022-07-31T12:54:42.000Z</time>
      </trkpt>
      <trkpt lat="49.50818" lon="-1.2801">
        <ele>4.789775</ele>
        <time>2022-07-31T12:54:43.000Z</time>
      </trkpt>
      <trkpt lat="49.50814" lon="-1.28004">
        <ele>4.832745</ele>
        <time>2022-07-31T12:54:44.000Z</time>
      </trkpt>
      <trkpt lat="49.5081" lon="-1.27997">
        <ele>4.876359</ele>
        <time>2022-07-31T12:54:45.000Z</time>
      </trkpt>
      <trkpt lat="49.50806" lon="-1.2799">
        <ele>4.918652</ele>
        <time>2022-07-31T12:54:46.000Z</time>
      </trkpt>
      <trkpt lat="49.50803" lon="-1.27983">
        <ele>4.961327</ele>
        <time>2022-07-31T12:54:47.000Z</time>
      </trkpt>
      <trkpt lat="49.508" lon="-1.27976">
        <ele>5.002677</ele>
        <time>2022-07-31T12:54:48.000Z</time>
      </trkpt>
      <trkpt lat="49.50797" lon="-1.27969">
        <ele>5.044028</ele>
        <time>2022-07-31T12:54:49.000Z</time>
      </trkpt>
      <trkpt lat="49.50793" lon="-1.27962">
        <ele>5.086703</ele>
        <time>2022-07-31T12:54:50.000Z</time>
      </trkpt>
      <trkpt lat="49.5079" lon="-1.27955">
        <ele>5.12845</ele>
        <time>2022-07-31T12:54:51.000Z</time>
      </trkpt>
      <trkpt lat="49.50786" lon="-1.27949">
        <ele>5.170456</ele>
        <time>2022-07-31T12:54:52.000Z</time>
      </trkpt>
      <trkpt lat="49.50783" lon="-1.27942">
        <ele>5.211021</ele>
        <time>2022-07-31T12:54:53.000Z</time>
      </trkpt>
      <trkpt lat="49.50779" lon="-1.27935">
        <ele>5.253991</ele>
        <time>2022-07-31T12:54:54.000Z</time>
      </trkpt>
      <trkpt lat="49.50776" lon="-1.27929">
        <ele>5.292627</ele>
        <time>2022-07-31T12:54:55.000Z</time>
      </trkpt>
      <trkpt lat="49.50773" lon="-1.27922">
        <ele>5.332802</ele>
        <time>2022-07-31T12:54:56.000Z</time>
      </trkpt>
      <trkpt lat="49.5077" lon="-1.27916">
        <ele>5.370103</ele>
        <time>2022-07-31T12:54:57.000Z</time>
      </trkpt>
      <trkpt lat="49.50767" lon="-1.27909">
        <ele>5.410278</ele>
        <time>2022-07-31T12:54:58.000Z</time>
      </trkpt>
      <trkpt lat="49.50764" lon="-1.27903">
        <ele>5.447187</ele>
        <time>2022-07-31T12:54:59.000Z</time>
      </trkpt>
      <trkpt lat="49.50761" lon="-1.27897">
        <ele>5.485823</ele>
        <time>2022-07-31T12:55:00.000Z</time>
      </trkpt>
      <trkpt lat="49.50757" lon="-1.2789">
        <ele>5.524458</ele>
        <time>2022-07-31T12:55:01.000Z</time>
      </trkpt>
      <trkpt lat="49.50754" lon="-1.27884">
        <ele>5.57122</ele>
        <time>2022-07-31T12:55:02.000Z</time>
      </trkpt>
      <trkpt lat="49.50751" lon="-1.27878">
        <ele>5.668616</ele>
        <time>2022-07-31T12:55:03.000Z</time>
      </trkpt>
      <trkpt lat="49.50748" lon="-1.27872">
        <ele>5.762412</ele>
        <time>2022-07-31T12:55:04.000Z</time>
      </trkpt>
      <trkpt lat="49.50745" lon="-1.27865">
        <ele>5.865711</ele>
        <time>2022-07-31T12:55:05.000Z</time>
      </trkpt>
      <trkpt lat="49.50741" lon="-1.27859">
        <ele>5.962144</ele>
        <time>2022-07-31T12:55:06.000Z</time>
      </trkpt>
      <trkpt lat="49.50739" lon="-1.27853">
        <ele>6.054924</ele>
        <time>2022-07-31T12:55:07.000Z</time>
      </trkpt>
      <trkpt lat="49.50735" lon="-1.27847">
        <ele>6.156385</ele>
        <time>2022-07-31T12:55:08.000Z</time>
      </trkpt>
      <trkpt lat="49.50732" lon="-1.27841">
        <ele>6.250182</ele>
        <time>2022-07-31T12:55:09.000Z</time>
      </trkpt>
      <trkpt lat="49.50729" lon="-1.27835">
        <ele>6.344708</ele>
        <time>2022-07-31T12:55:10.000Z</time>
      </trkpt>
      <trkpt lat="49.50725" lon="-1.27829">
        <ele>6.445261</ele>
        <time>2022-07-31T12:55:11.000Z</time>
      </trkpt>
      <trkpt lat="49.50723" lon="-1.27824">
        <ele>6.530121</ele>
        <time>2022-07-31T12:55:12.000Z</time>
      </trkpt>
      <trkpt lat="49.50719" lon="-1.27819">
        <ele>6.627114</ele>
        <time>2022-07-31T12:55:13.000Z</time>
      </trkpt>
      <trkpt lat="49.50716" lon="-1.27813">
        <ele>6.720999</ele>
        <time>2022-07-31T12:55:14.000Z</time>
      </trkpt>
      <trkpt lat="49.50712" lon="-1.27808">
        <ele>6.809979</ele>
        <time>2022-07-31T12:55:15.000Z</time>
      </trkpt>
      <trkpt lat="49.50709" lon="-1.27803">
        <ele>6.907209</ele>
        <time>2022-07-31T12:55:16.000Z</time>
      </trkpt>
      <trkpt lat="49.50705" lon="-1.27798">
        <ele>7.006695</ele>
        <time>2022-07-31T12:55:17.000Z</time>
      </trkpt>
      <trkpt lat="49.50701" lon="-1.27792">
        <ele>7.100581</ele>
        <time>2022-07-31T12:55:18.000Z</time>
      </trkpt>
      <trkpt lat="49.50697" lon="-1.27787">
        <ele>7.200612</ele>
        <time>2022-07-31T12:55:19.000Z</time>
      </trkpt>
      <trkpt lat="49.50693" lon="-1.27782">
        <ele>7.297673</ele>
        <time>2022-07-31T12:55:20.000Z</time>
      </trkpt>
      <trkpt lat="49.50689" lon="-1.27777">
        <ele>7.396937</ele>
        <time>2022-07-31T12:55:21.000Z</time>
      </trkpt>
      <trkpt lat="49.50685" lon="-1.27773">
        <ele>7.496974</ele>
        <time>2022-07-31T12:55:22.000Z</time>
      </trkpt>
      <trkpt lat="49.50681" lon="-1.27768">
        <ele>7.596276</ele>
        <time>2022-07-31T12:55:23.000Z</time>
      </trkpt>
      <trkpt lat="49.50677" lon="-1.27763">
        <ele>7.688725</ele>
        <time>2022-07-31T12:55:24.000Z</time>
      </trkpt>
      <trkpt lat="49.50673" lon="-1.27758">
        <ele>7.789508</ele>
        <time>2022-07-31T12:55:25.000Z</time>
      </trkpt>
      <trkpt lat="49.50669" lon="-1.27754">
        <ele>7.888016</ele>
        <time>2022-07-31T12:55:26.000Z</time>
      </trkpt>
      <trkpt lat="49.50664" lon="-1.27749">
        <ele>7.992717</ele>
        <time>2022-07-31T12:55:27.000Z</time>
      </trkpt>
      <trkpt lat="49.5066" lon="-1.27744">
        <ele>8.093499</ele>
        <time>2022-07-31T12:55:28.000Z</time>
      </trkpt>
      <trkpt lat="49.50655" lon="-1.27739">
        <ele>8.196634</ele>
        <time>2022-07-31T12:55:29.000Z</time>
      </trkpt>
      <trkpt lat="49.50651" lon="-1.27734">
        <ele>8.300633</ele>
        <time>2022-07-31T12:55:30.000Z</time>
      </trkpt>
      <trkpt lat="49.50646" lon="-1.27729">
        <ele>8.411472</ele>
        <time>2022-07-31T12:55:31.000Z</time>
      </trkpt>
      <trkpt lat="49.50642" lon="-1.27725">
        <ele>8.514779</ele>
        <time>2022-07-31T12:55:32.000Z</time>
      </trkpt>
      <trkpt lat="49.50637" lon="-1.2772">
        <ele>8.625618</ele>
        <time>2022-07-31T12:55:33.000Z</time>
      </trkpt>
      <trkpt lat="49.50632" lon="-1.27714">
        <ele>8.739316</ele>
        <time>2022-07-31T12:55:34.000Z</time>
      </trkpt>
      <trkpt lat="49.50628" lon="-1.27709">
        <ele>8.8492</ele>
        <time>2022-07-31T12:55:35.000Z</time>
      </trkpt>
      <trkpt lat="49.50622" lon="-1.27704">
        <ele>8.965509</ele>
        <time>2022-07-31T12:55:36.000Z</time>
      </trkpt>
      <trkpt lat="49.50618" lon="-1.27698">
        <ele>8.980212</ele>
        <time>2022-07-31T12:55:37.000Z</time>
      </trkpt>
      <trkpt lat="49.50613" lon="-1.27693">
        <ele>8.95175</ele>
        <time>2022-07-31T12:55:38.000Z</time>
      </trkpt>
      <trkpt lat="49.50608" lon="-1.27688">
        <ele>8.924627</ele>
        <time>2022-07-31T12:55:39.000Z</time>
      </trkpt>
      <trkpt lat="49.50604" lon="-1.27683">
        <ele>8.898831</ele>
        <time>2022-07-31T12:55:40.000Z</time>
      </trkpt>
      <trkpt lat="49.50599" lon="-1.27678">
        <ele>8.87268</ele>
        <time>2022-07-31T12:55:41.000Z</time>
      </trkpt>
      <trkpt lat="49.50594" lon="-1.27673">
        <ele>8.844857</ele>
        <time>2022-07-31T12:55:42.000Z</time>
      </trkpt>
      <trkpt lat="49.50589" lon="-1.27668">
        <ele>8.817733</ele>
        <time>2022-07-31T12:55:43.000Z</time>
      </trkpt>
      <trkpt lat="49.50584" lon="-1.27663">
        <ele>8.789757</ele>
        <time>2022-07-31T12:55:44.000Z</time>
      </trkpt>
      <trkpt lat="49.5058" lon="-1.27658">
        <ele>8.762633</ele>
        <time>2022-07-31T12:55:45.000Z</time>
      </trkpt>
      <trkpt lat="49.50574" lon="-1.27653">
        <ele>8.733836</ele>
        <time>2022-07-31T12:55:46.000Z</time>
      </trkpt>
      <trkpt lat="49.5057" lon="-1.27648">
        <ele>8.707863</ele>
        <time>2022-07-31T12:55:47.000Z</time>
      </trkpt>
      <trkpt lat="49.50565" lon="-1.27643">
        <ele>8.679235</ele>
        <time>2022-07-31T12:55:48.000Z</time>
      </trkpt>
      <trkpt lat="49.5056" lon="-1.27637">
        <ele>8.651766</ele>
        <time>2022-07-31T12:55:49.000Z</time>
      </trkpt>
      <trkpt lat="49.50556" lon="-1.27632">
        <ele>8.625793</ele>
        <time>2022-07-31T12:55:50.000Z</time>
      </trkpt>
      <trkpt lat="49.5055" lon="-1.27627">
        <ele>8.597496</ele>
        <time>2022-07-31T12:55:51.000Z</time>
      </trkpt>
      <trkpt lat="49.50546" lon="-1.27622">
        <ele>8.5702</ele>
        <time>2022-07-31T12:55:52.000Z</time>
      </trkpt>
      <trkpt lat="49.50541" lon="-1.27617">
        <ele>8.541232</ele>
        <time>2022-07-31T12:55:53.000Z</time>
      </trkpt>
      <trkpt lat="49.50536" lon="-1.27612">
        <ele>8.515259</ele>
        <time>2022-07-31T12:55:54.000Z</time>
      </trkpt>
      <trkpt lat="49.50531" lon="-1.27607">
        <ele>8.486461</ele>
        <time>2022-07-31T12:55:55.000Z</time>
      </trkpt>
      <trkpt lat="49.50526" lon="-1.27601">
        <ele>8.459571</ele>
        <time>2022-07-31T12:55:56.000Z</time>
      </trkpt>
      <trkpt lat="49.50522" lon="-1.27596">
        <ele>8.432448</ele>
        <time>2022-07-31T12:55:57.000Z</time>
      </trkpt>
      <trkpt lat="49.50517" lon="-1.27591">
        <ele>8.404472</ele>
        <time>2022-07-31T12:55:58.000Z</time>
      </trkpt>
      <trkpt lat="49.50512" lon="-1.27586">
        <ele>8.379248</ele>
        <time>2022-07-31T12:55:59.000Z</time>
      </trkpt>
      <trkpt lat="49.50507" lon="-1.27581">
        <ele>8.350619</ele>
        <time>2022-07-31T12:56:00.000Z</time>
      </trkpt>
      <trkpt lat="49.50503" lon="-1.27576">
        <ele>8.324467</ele>
        <time>2022-07-31T12:56:01.000Z</time>
      </trkpt>
      <trkpt lat="49.50498" lon="-1.27571">
        <ele>8.298134</ele>
        <time>2022-07-31T12:56:02.000Z</time>
      </trkpt>
      <trkpt lat="49.50494" lon="-1.27566">
        <ele>8.272896</ele>
        <time>2022-07-31T12:56:03.000Z</time>
      </trkpt>
      <trkpt lat="49.50489" lon="-1.27561">
        <ele>8.244362</ele>
        <time>2022-07-31T12:56:04.000Z</time>
      </trkpt>
      <trkpt lat="49.50485" lon="-1.27556">
        <ele>8.219307</ele>
        <time>2022-07-31T12:56:05.000Z</time>
      </trkpt>
      <trkpt lat="49.50479" lon="-1.27551">
        <ele>8.191331</ele>
        <time>2022-07-31T12:56:06.000Z</time>
      </trkpt>
      <trkpt lat="49.50475" lon="-1.27546">
        <ele>8.166483</ele>
        <time>2022-07-31T12:56:07.000Z</time>
      </trkpt>
      <trkpt lat="49.50471" lon="-1.27541">
        <ele>8.085156</ele>
        <time>2022-07-31T12:56:08.000Z</time>
      </trkpt>
      <trkpt lat="49.50466" lon="-1.27536">
        <ele>7.972316</ele>
        <time>2022-07-31T12:56:09.000Z</time>
      </trkpt>
      <trkpt lat="49.50462" lon="-1.27531">
        <ele>7.864407</ele>
        <time>2022-07-31T12:56:10.000Z</time>
      </trkpt>
      <trkpt lat="49.50457" lon="-1.27526">
        <ele>7.744248</ele>
        <time>2022-07-31T12:56:11.000Z</time>
      </trkpt>
      <trkpt lat="49.50453" lon="-1.2752">
        <ele>7.629059</ele>
        <time>2022-07-31T12:56:12.000Z</time>
      </trkpt>
      <trkpt lat="49.50449" lon="-1.27515">
        <ele>7.520368</ele>
        <time>2022-07-31T12:56:13.000Z</time>
      </trkpt>
      <trkpt lat="49.50444" lon="-1.2751">
        <ele>7.408409</ele>
        <time>2022-07-31T12:56:14.000Z</time>
      </trkpt>
      <trkpt lat="49.50439" lon="-1.27505">
        <ele>7.287481</ele>
        <time>2022-07-31T12:56:15.000Z</time>
      </trkpt>
      <trkpt lat="49.50435" lon="-1.275">
        <ele>7.175403</ele>
        <time>2022-07-31T12:56:16.000Z</time>
      </trkpt>
      <trkpt lat="49.5043" lon="-1.27495">
        <ele>7.06179</ele>
        <time>2022-07-31T12:56:17.000Z</time>
      </trkpt>
      <trkpt lat="49.50425" lon="-1.2749">
        <ele>6.938006</ele>
        <time>2022-07-31T12:56:18.000Z</time>
      </trkpt>
      <trkpt lat="49.50421" lon="-1.27485">
        <ele>6.827668</ele>
        <time>2022-07-31T12:56:19.000Z</time>
      </trkpt>
      <trkpt lat="49.50417" lon="-1.2748">
        <ele>6.720589</ele>
        <time>2022-07-31T12:56:20.000Z</time>
      </trkpt>
      <trkpt lat="49.50413" lon="-1.27475">
        <ele>6.611897</ele>
        <time>2022-07-31T12:56:21.000Z</time>
      </trkpt>
      <trkpt lat="49.50409" lon="-1.2747">
        <ele>6.504811</ele>
        <time>2022-07-31T12:56:22.000Z</time>
      </trkpt>
      <trkpt lat="49.50405" lon="-1.27465">
        <ele>6.402476</ele>
        <time>2022-07-31T12:56:23.000Z</time>
      </trkpt>
      <trkpt lat="49.50401" lon="-1.27461">
        <ele>6.297718</ele>
        <time>2022-07-31T12:56:24.000Z</time>
      </trkpt>
      <trkpt lat="49.50397" lon="-1.27456">
        <ele>6.197928</ele>
        <time>2022-07-31T12:56:25.000Z</time>
      </trkpt>
      <trkpt lat="49.50393" lon="-1.27452">
        <ele>6.095396</ele>
        <time>2022-07-31T12:56:26.000Z</time>
      </trkpt>
      <trkpt lat="49.50389" lon="-1.27449">
        <ele>6.005111</ele>
        <time>2022-07-31T12:56:27.000Z</time>
      </trkpt>
      <trkpt lat="49.50385" lon="-1.27448">
        <ele>5.923413</ele>
        <time>2022-07-31T12:56:28.000Z</time>
      </trkpt>
      <trkpt lat="49.50381" lon="-1.27449">
        <ele>5.838955</ele>
        <time>2022-07-31T12:56:29.000Z</time>
      </trkpt>
      <trkpt lat="49.50377" lon="-1.27451">
        <ele>5.75345</ele>
        <time>2022-07-31T12:56:30.000Z</time>
      </trkpt>
      <trkpt lat="49.50373" lon="-1.27455">
        <ele>5.661779</ele>
        <time>2022-07-31T12:56:31.000Z</time>
      </trkpt>
      <trkpt lat="49.5037" lon="-1.27461">
        <ele>5.558548</ele>
        <time>2022-07-31T12:56:32.000Z</time>
      </trkpt>
      <trkpt lat="49.50368" lon="-1.27468">
        <ele>5.457675</ele>
        <time>2022-07-31T12:56:33.000Z</time>
      </trkpt>
      <trkpt lat="49.50366" lon="-1.27476">
        <ele>5.348255</ele>
        <time>2022-07-31T12:56:34.000Z</time>
      </trkpt>
      <trkpt lat="49.50364" lon="-1.27484">
        <ele>5.237992</ele>
        <time>2022-07-31T12:56:35.000Z</time>
      </trkpt>
      <trkpt lat="49.50362" lon="-1.27491">
        <ele>5.133426</ele>
        <time>2022-07-31T12:56:36.000Z</time>
      </trkpt>
      <trkpt lat="49.5036" lon="-1.27498">
        <ele>5.024006</ele>
        <time>2022-07-31T12:56:37.000Z</time>
      </trkpt>
      <trkpt lat="49.50358" lon="-1.27506">
        <ele>4.916968</ele>
        <time>2022-07-31T12:56:38.000Z</time>
      </trkpt>
      <trkpt lat="49.50356" lon="-1.27513">
        <ele>4.810283</ele>
        <time>2022-07-31T12:56:39.000Z</time>
      </trkpt>
      <trkpt lat="49.50353" lon="-1.2752">
        <ele>4.703281</ele>
        <time>2022-07-31T12:56:40.000Z</time>
      </trkpt>
      <trkpt lat="49.50351" lon="-1.27527">
        <ele>4.598975</ele>
        <time>2022-07-31T12:56:41.000Z</time>
      </trkpt>
      <trkpt lat="49.50349" lon="-1.27535">
        <ele>4.493177</ele>
        <time>2022-07-31T12:56:42.000Z</time>
      </trkpt>
      <trkpt lat="49.50346" lon="-1.27542">
        <ele>4.419904</ele>
        <time>2022-07-31T12:56:43.000Z</time>
      </trkpt>
      <trkpt lat="49.50343" lon="-1.2755">
        <ele>4.354268</ele>
        <time>2022-07-31T12:56:44.000Z</time>
      </trkpt>
      <trkpt lat="49.50341" lon="-1.27557">
        <ele>4.287421</ele>
        <time>2022-07-31T12:56:45.000Z</time>
      </trkpt>
      <trkpt lat="49.50338" lon="-1.27565">
        <ele>4.216431</ele>
        <time>2022-07-31T12:56:46.000Z</time>
      </trkpt>
      <trkpt lat="49.50335" lon="-1.27573">
        <ele>4.150937</ele>
        <time>2022-07-31T12:56:47.000Z</time>
      </trkpt>
      <trkpt lat="49.50332" lon="-1.27581">
        <ele>4.081236</ele>
        <time>2022-07-31T12:56:48.000Z</time>
      </trkpt>
      <trkpt lat="49.50329" lon="-1.27589">
        <ele>4.011946</ele>
        <time>2022-07-31T12:56:49.000Z</time>
      </trkpt>
      <trkpt lat="49.50326" lon="-1.27597">
        <ele>3.942091</ele>
        <time>2022-07-31T12:56:50.000Z</time>
      </trkpt>
      <trkpt lat="49.50323" lon="-1.27604">
        <ele>3.87239</ele>
        <time>2022-07-31T12:56:51.000Z</time>
      </trkpt>
      <trkpt lat="49.50319" lon="-1.27612">
        <ele>3.801974</ele>
        <time>2022-07-31T12:56:52.000Z</time>
      </trkpt>
      <trkpt lat="49.50316" lon="-1.27619">
        <ele>3.730865</ele>
        <time>2022-07-31T12:56:53.000Z</time>
      </trkpt>
      <trkpt lat="49.50312" lon="-1.27626">
        <ele>3.660716</ele>
        <time>2022-07-31T12:56:54.000Z</time>
      </trkpt>
      <trkpt lat="49.50308" lon="-1.27633">
        <ele>3.589715</ele>
        <time>2022-07-31T12:56:55.000Z</time>
      </trkpt>
      <trkpt lat="49.50304" lon="-1.2764">
        <ele>3.520627</ele>
        <time>2022-07-31T12:56:56.000Z</time>
      </trkpt>
      <trkpt lat="49.503" lon="-1.27646">
        <ele>3.454815</ele>
        <time>2022-07-31T12:56:57.000Z</time>
      </trkpt>
      <trkpt lat="49.50296" lon="-1.27652">
        <ele>3.38788</ele>
        <time>2022-07-31T12:56:58.000Z</time>
      </trkpt>
      <trkpt lat="49.50292" lon="-1.27658">
        <ele>3.319571</ele>
        <time>2022-07-31T12:56:59.000Z</time>
      </trkpt>
      <trkpt lat="49.50287" lon="-1.27664">
        <ele>3.247936</ele>
        <time>2022-07-31T12:57:00.000Z</time>
      </trkpt>
      <trkpt lat="49.50283" lon="-1.2767">
        <ele>3.182052</ele>
        <time>2022-07-31T12:57:01.000Z</time>
      </trkpt>
      <trkpt lat="49.50278" lon="-1.27675">
        <ele>3.117321</ele>
        <time>2022-07-31T12:57:02.000Z</time>
      </trkpt>
      <trkpt lat="49.50274" lon="-1.2768">
        <ele>3.054523</ele>
        <time>2022-07-31T12:57:03.000Z</time>
      </trkpt>
      <trkpt lat="49.5027" lon="-1.27686">
        <ele>2.98967</ele>
        <time>2022-07-31T12:57:04.000Z</time>
      </trkpt>
      <trkpt lat="49.50266" lon="-1.27692">
        <ele>2.923434</ele>
        <time>2022-07-31T12:57:05.000Z</time>
      </trkpt>
      <trkpt lat="49.50262" lon="-1.27697">
        <ele>2.859593</ele>
        <time>2022-07-31T12:57:06.000Z</time>
      </trkpt>
      <trkpt lat="49.50257" lon="-1.27703">
        <ele>2.787485</ele>
        <time>2022-07-31T12:57:07.000Z</time>
      </trkpt>
      <trkpt lat="49.50253" lon="-1.27709">
        <ele>2.719556</ele>
        <time>2022-07-31T12:57:08.000Z</time>
      </trkpt>
      <trkpt lat="49.50248" lon="-1.27715">
        <ele>2.653827</ele>
        <time>2022-07-31T12:57:09.000Z</time>
      </trkpt>
      <trkpt lat="49.50244" lon="-1.2772">
        <ele>2.586374</ele>
        <time>2022-07-31T12:57:10.000Z</time>
      </trkpt>
      <trkpt lat="49.5024" lon="-1.27726">
        <ele>2.522533</ele>
        <time>2022-07-31T12:57:11.000Z</time>
      </trkpt>
      <trkpt lat="49.50236" lon="-1.27731">
        <ele>2.456804</ele>
        <time>2022-07-31T12:57:12.000Z</time>
      </trkpt>
      <trkpt lat="49.50231" lon="-1.27737">
        <ele>2.388874</ele>
        <time>2022-07-31T12:57:13.000Z</time>
      </trkpt>
      <trkpt lat="49.50227" lon="-1.27743">
        <ele>2.360475</ele>
        <time>2022-07-31T12:57:14.000Z</time>
      </trkpt>
      <trkpt lat="49.50222" lon="-1.27749">
        <ele>2.356796</ele>
        <time>2022-07-31T12:57:15.000Z</time>
      </trkpt>
      <trkpt lat="49.50218" lon="-1.27754">
        <ele>2.353219</ele>
        <time>2022-07-31T12:57:16.000Z</time>
      </trkpt>
      <trkpt lat="49.50214" lon="-1.27759">
        <ele>2.349866</ele>
        <time>2022-07-31T12:57:17.000Z</time>
      </trkpt>
      <trkpt lat="49.50209" lon="-1.27765">
        <ele>2.346187</ele>
        <time>2022-07-31T12:57:18.000Z</time>
      </trkpt>
      <trkpt lat="49.50206" lon="-1.2777">
        <ele>2.343</ele>
        <time>2022-07-31T12:57:19.000Z</time>
      </trkpt>
      <trkpt lat="49.50201" lon="-1.27776">
        <ele>2.339372</ele>
        <time>2022-07-31T12:57:20.000Z</time>
      </trkpt>
      <trkpt lat="49.50197" lon="-1.27781">
        <ele>2.335891</ele>
        <time>2022-07-31T12:57:21.000Z</time>
      </trkpt>
      <trkpt lat="49.50193" lon="-1.27787">
        <ele>2.332542</ele>
        <time>2022-07-31T12:57:22.000Z</time>
      </trkpt>
      <trkpt lat="49.50189" lon="-1.27792">
        <ele>2.328965</ele>
        <time>2022-07-31T12:57:23.000Z</time>
      </trkpt>
      <trkpt lat="49.50185" lon="-1.27798">
        <ele>2.325672</ele>
        <time>2022-07-31T12:57:24.000Z</time>
      </trkpt>
      <trkpt lat="49.50181" lon="-1.27804">
        <ele>2.322138</ele>
        <time>2022-07-31T12:57:25.000Z</time>
      </trkpt>
      <trkpt lat="49.50177" lon="-1.27809">
        <ele>2.318576</ele>
        <time>2022-07-31T12:57:26.000Z</time>
      </trkpt>
      <trkpt lat="49.50172" lon="-1.27815">
        <ele>2.314945</ele>
        <time>2022-07-31T12:57:27.000Z</time>
      </trkpt>
      <trkpt lat="49.50168" lon="-1.27821">
        <ele>2.311328</ele>
        <time>2022-07-31T12:57:28.000Z</time>
      </trkpt>
      <trkpt lat="49.50164" lon="-1.27827">
        <ele>2.307516</ele>
        <time>2022-07-31T12:57:29.000Z</time>
      </trkpt>
      <trkpt lat="49.5016" lon="-1.27833">
        <ele>2.304195</ele>
        <time>2022-07-31T12:57:30.000Z</time>
      </trkpt>
      <trkpt lat="49.50156" lon="-1.27839">
        <ele>2.300978</ele>
        <time>2022-07-31T12:57:31.000Z</time>
      </trkpt>
      <trkpt lat="49.50152" lon="-1.27844">
        <ele>2.297639</ele>
        <time>2022-07-31T12:57:32.000Z</time>
      </trkpt>
      <trkpt lat="49.50149" lon="-1.2785">
        <ele>2.29429</ele>
        <time>2022-07-31T12:57:33.000Z</time>
      </trkpt>
      <trkpt lat="49.50144" lon="-1.27856">
        <ele>2.290728</ele>
        <time>2022-07-31T12:57:34.000Z</time>
      </trkpt>
      <trkpt lat="49.5014" lon="-1.27861">
        <ele>2.287049</ele>
        <time>2022-07-31T12:57:35.000Z</time>
      </trkpt>
      <trkpt lat="49.50136" lon="-1.27867">
        <ele>2.283669</ele>
        <time>2022-07-31T12:57:36.000Z</time>
      </trkpt>
      <trkpt lat="49.50132" lon="-1.27872">
        <ele>2.280188</ele>
        <time>2022-07-31T12:57:37.000Z</time>
      </trkpt>
      <trkpt lat="49.50127" lon="-1.27878">
        <ele>2.276483</ele>
        <time>2022-07-31T12:57:38.000Z</time>
      </trkpt>
      <trkpt lat="49.50123" lon="-1.27883">
        <ele>2.27305</ele>
        <time>2022-07-31T12:57:39.000Z</time>
      </trkpt>
      <trkpt lat="49.50119" lon="-1.27889">
        <ele>2.269569</ele>
        <time>2022-07-31T12:57:40.000Z</time>
      </trkpt>
      <trkpt lat="49.50115" lon="-1.27894">
        <ele>2.266266</ele>
        <time>2022-07-31T12:57:41.000Z</time>
      </trkpt>
      <trkpt lat="49.5011" lon="-1.27899">
        <ele>2.262988</ele>
        <time>2022-07-31T12:57:42.000Z</time>
      </trkpt>
      <trkpt lat="49.50106" lon="-1.27903">
        <ele>2.259482</ele>
        <time>2022-07-31T12:57:43.000Z</time>
      </trkpt>
      <trkpt lat="49.50101" lon="-1.27907">
        <ele>2.256261</ele>
        <time>2022-07-31T12:57:44.000Z</time>
      </trkpt>
      <trkpt lat="49.50097" lon="-1.2791">
        <ele>2.253078</ele>
        <time>2022-07-31T12:57:45.000Z</time>
      </trkpt>
      <trkpt lat="49.50091" lon="-1.27914">
        <ele>2.249379</ele>
        <time>2022-07-31T12:57:46.000Z</time>
      </trkpt>
      <trkpt lat="49.50086" lon="-1.27916">
        <ele>2.263102</ele>
        <time>2022-07-31T12:57:47.000Z</time>
      </trkpt>
      <trkpt lat="49.50081" lon="-1.27919">
        <ele>2.27777</ele>
        <time>2022-07-31T12:57:48.000Z</time>
      </trkpt>
      <trkpt lat="49.50077" lon="-1.27922">
        <ele>2.291719</ele>
        <time>2022-07-31T12:57:49.000Z</time>
      </trkpt>
      <trkpt lat="49.50072" lon="-1.27926">
        <ele>2.307603</ele>
        <time>2022-07-31T12:57:50.000Z</time>
      </trkpt>
      <trkpt lat="49.50067" lon="-1.2793">
        <ele>2.322384</ele>
        <time>2022-07-31T12:57:51.000Z</time>
      </trkpt>
      <trkpt lat="49.50063" lon="-1.27934">
        <ele>2.337258</ele>
        <time>2022-07-31T12:57:52.000Z</time>
      </trkpt>
      <trkpt lat="49.50058" lon="-1.27938">
        <ele>2.352697</ele>
        <time>2022-07-31T12:57:53.000Z</time>
      </trkpt>
      <trkpt lat="49.50054" lon="-1.27942">
        <ele>2.36702</ele>
        <time>2022-07-31T12:57:54.000Z</time>
      </trkpt>
      <trkpt lat="49.50049" lon="-1.27947">
        <ele>2.382805</ele>
        <time>2022-07-31T12:57:55.000Z</time>
      </trkpt>
      <trkpt lat="49.50045" lon="-1.27953">
        <ele>2.39849</ele>
        <time>2022-07-31T12:57:56.000Z</time>
      </trkpt>
      <trkpt lat="49.50041" lon="-1.27958">
        <ele>2.413483</ele>
        <time>2022-07-31T12:57:57.000Z</time>
      </trkpt>
      <trkpt lat="49.50037" lon="-1.27963">
        <ele>2.429488</ele>
        <time>2022-07-31T12:57:58.000Z</time>
      </trkpt>
      <trkpt lat="49.50032" lon="-1.27968">
        <ele>2.444367</ele>
        <time>2022-07-31T12:57:59.000Z</time>
      </trkpt>
      <trkpt lat="49.50029" lon="-1.27973">
        <ele>2.458829</ele>
        <time>2022-07-31T12:58:00.000Z</time>
      </trkpt>
      <trkpt lat="49.50024" lon="-1.27979">
        <ele>2.474513</ele>
        <time>2022-07-31T12:58:01.000Z</time>
      </trkpt>
      <trkpt lat="49.50021" lon="-1.27985">
        <ele>2.488331</ele>
        <time>2022-07-31T12:58:02.000Z</time>
      </trkpt>
      <trkpt lat="49.50019" lon="-1.27991">
        <ele>2.502434</ele>
        <time>2022-07-31T12:58:03.000Z</time>
      </trkpt>
      <trkpt lat="49.50016" lon="-1.27997">
        <ele>2.516069</ele>
        <time>2022-07-31T12:58:04.000Z</time>
      </trkpt>
      <trkpt lat="49.50013" lon="-1.28003">
        <ele>2.529859</ele>
        <time>2022-07-31T12:58:05.000Z</time>
      </trkpt>
      <trkpt lat="49.5001" lon="-1.2801">
        <ele>2.544781</ele>
        <time>2022-07-31T12:58:06.000Z</time>
      </trkpt>
      <trkpt lat="49.50007" lon="-1.28016">
        <ele>2.559346</ele>
        <time>2022-07-31T12:58:07.000Z</time>
      </trkpt>
      <trkpt lat="49.50004" lon="-1.28023">
        <ele>2.574711</ele>
        <time>2022-07-31T12:58:08.000Z</time>
      </trkpt>
      <trkpt lat="49.50001" lon="-1.2803">
        <ele>2.591207</ele>
        <time>2022-07-31T12:58:09.000Z</time>
      </trkpt>
      <trkpt lat="49.49998" lon="-1.28037">
        <ele>2.606082</ele>
        <time>2022-07-31T12:58:10.000Z</time>
      </trkpt>
      <trkpt lat="49.49995" lon="-1.28044">
        <ele>2.621746</ele>
        <time>2022-07-31T12:58:11.000Z</time>
      </trkpt>
      <trkpt lat="49.49991" lon="-1.28051">
        <ele>2.637712</ele>
        <time>2022-07-31T12:58:12.000Z</time>
      </trkpt>
      <trkpt lat="49.49988" lon="-1.28058">
        <ele>2.653831</ele>
        <time>2022-07-31T12:58:13.000Z</time>
      </trkpt>
      <trkpt lat="49.49986" lon="-1.28065">
        <ele>2.669051</ele>
        <time>2022-07-31T12:58:14.000Z</time>
      </trkpt>
      <trkpt lat="49.49983" lon="-1.28073">
        <ele>2.685177</ele>
        <time>2022-07-31T12:58:15.000Z</time>
      </trkpt>
      <trkpt lat="49.4998" lon="-1.2808">
        <ele>2.701303</ele>
        <time>2022-07-31T12:58:16.000Z</time>
      </trkpt>
      <trkpt lat="49.49978" lon="-1.28088">
        <ele>2.716675</ele>
        <time>2022-07-31T12:58:17.000Z</time>
      </trkpt>
      <trkpt lat="49.49975" lon="-1.28095">
        <ele>2.732643</ele>
        <time>2022-07-31T12:58:18.000Z</time>
      </trkpt>
      <trkpt lat="49.49973" lon="-1.28103">
        <ele>2.748353</ele>
        <time>2022-07-31T12:58:19.000Z</time>
      </trkpt>
      <trkpt lat="49.49971" lon="-1.28111">
        <ele>2.757562</ele>
        <time>2022-07-31T12:58:20.000Z</time>
      </trkpt>
      <trkpt lat="49.49968" lon="-1.28119">
        <ele>2.742307</ele>
        <time>2022-07-31T12:58:21.000Z</time>
      </trkpt>
      <trkpt lat="49.49966" lon="-1.28127">
        <ele>2.726826</ele>
        <time>2022-07-31T12:58:22.000Z</time>
      </trkpt>
      <trkpt lat="49.49963" lon="-1.28135">
        <ele>2.711154</ele>
        <time>2022-07-31T12:58:23.000Z</time>
      </trkpt>
      <trkpt lat="49.49961" lon="-1.28143">
        <ele>2.69558</ele>
        <time>2022-07-31T12:58:24.000Z</time>
      </trkpt>
      <trkpt lat="49.49959" lon="-1.28151">
        <ele>2.680727</ele>
        <time>2022-07-31T12:58:25.000Z</time>
      </trkpt>
      <trkpt lat="49.49956" lon="-1.28159">
        <ele>2.665246</ele>
        <time>2022-07-31T12:58:26.000Z</time>
      </trkpt>
      <trkpt lat="49.49954" lon="-1.28167">
        <ele>2.649335</ele>
        <time>2022-07-31T12:58:27.000Z</time>
      </trkpt>
      <trkpt lat="49.49951" lon="-1.28175">
        <ele>2.63358</ele>
        <time>2022-07-31T12:58:28.000Z</time>
      </trkpt>
      <trkpt lat="49.49949" lon="-1.28183">
        <ele>2.618256</ele>
        <time>2022-07-31T12:58:29.000Z</time>
      </trkpt>
      <trkpt lat="49.49946" lon="-1.28191">
        <ele>2.603335</ele>
        <time>2022-07-31T12:58:30.000Z</time>
      </trkpt>
      <trkpt lat="49.49942" lon="-1.28198">
        <ele>2.588409</ele>
        <time>2022-07-31T12:58:31.000Z</time>
      </trkpt>
      <trkpt lat="49.49939" lon="-1.28204">
        <ele>2.573766</ele>
        <time>2022-07-31T12:58:32.000Z</time>
      </trkpt>
      <trkpt lat="49.49935" lon="-1.28211">
        <ele>2.557901</ele>
        <time>2022-07-31T12:58:33.000Z</time>
      </trkpt>
      <trkpt lat="49.49931" lon="-1.28217">
        <ele>2.543535</ele>
        <time>2022-07-31T12:58:34.000Z</time>
      </trkpt>
      <trkpt lat="49.49927" lon="-1.28222">
        <ele>2.529065</ele>
        <time>2022-07-31T12:58:35.000Z</time>
      </trkpt>
      <trkpt lat="49.49923" lon="-1.28226">
        <ele>2.515445</ele>
        <time>2022-07-31T12:58:36.000Z</time>
      </trkpt>
      <trkpt lat="49.49918" lon="-1.28231">
        <ele>2.501133</ele>
        <time>2022-07-31T12:58:37.000Z</time>
      </trkpt>
      <trkpt lat="49.49914" lon="-1.28235">
        <ele>2.487094</ele>
        <time>2022-07-31T12:58:38.000Z</time>
      </trkpt>
      <trkpt lat="49.49909" lon="-1.28239">
        <ele>2.471566</ele>
        <time>2022-07-31T12:58:39.000Z</time>
      </trkpt>
      <trkpt lat="49.49904" lon="-1.28243">
        <ele>2.457616</ele>
        <time>2022-07-31T12:58:40.000Z</time>
      </trkpt>
      <trkpt lat="49.499" lon="-1.28247">
        <ele>2.443125</ele>
        <time>2022-07-31T12:58:41.000Z</time>
      </trkpt>
      <trkpt lat="49.49895" lon="-1.28251">
        <ele>2.428712</ele>
        <time>2022-07-31T12:58:42.000Z</time>
      </trkpt>
      <trkpt lat="49.4989" lon="-1.28254">
        <ele>2.41533</ele>
        <time>2022-07-31T12:58:43.000Z</time>
      </trkpt>
      <trkpt lat="49.49885" lon="-1.28257">
        <ele>2.400672</ele>
        <time>2022-07-31T12:58:44.000Z</time>
      </trkpt>
      <trkpt lat="49.49881" lon="-1.2826">
        <ele>2.3887</ele>
        <time>2022-07-31T12:58:45.000Z</time>
      </trkpt>
      <trkpt lat="49.49877" lon="-1.28262">
        <ele>2.37597</ele>
        <time>2022-07-31T12:58:46.000Z</time>
      </trkpt>
      <trkpt lat="49.49872" lon="-1.28264">
        <ele>2.363942</ele>
        <time>2022-07-31T12:58:47.000Z</time>
      </trkpt>
      <trkpt lat="49.49867" lon="-1.28267">
        <ele>2.349674</ele>
        <time>2022-07-31T12:58:48.000Z</time>
      </trkpt>
      <trkpt lat="49.49862" lon="-1.28269">
        <ele>2.336177</ele>
        <time>2022-07-31T12:58:49.000Z</time>
      </trkpt>
      <trkpt lat="49.49857" lon="-1.28271">
        <ele>2.321179</ele>
        <time>2022-07-31T12:58:50.000Z</time>
      </trkpt>
      <trkpt lat="49.49851" lon="-1.28273">
        <ele>2.305142</ele>
        <time>2022-07-31T12:58:51.000Z</time>
      </trkpt>
      <trkpt lat="49.49845" lon="-1.28275">
        <ele>2.289145</ele>
        <time>2022-07-31T12:58:52.000Z</time>
      </trkpt>
      <trkpt lat="49.4984" lon="-1.28277">
        <ele>2.278098</ele>
        <time>2022-07-31T12:58:53.000Z</time>
      </trkpt>
      <trkpt lat="49.49835" lon="-1.2828">
        <ele>2.279679</ele>
        <time>2022-07-31T12:58:54.000Z</time>
      </trkpt>
      <trkpt lat="49.49829" lon="-1.28284">
        <ele>2.28133</ele>
        <time>2022-07-31T12:58:55.000Z</time>
      </trkpt>
      <trkpt lat="49.49823" lon="-1.28288">
        <ele>2.282934</ele>
        <time>2022-07-31T12:58:56.000Z</time>
      </trkpt>
      <trkpt lat="49.49819" lon="-1.28292">
        <ele>2.284407</ele>
        <time>2022-07-31T12:58:57.000Z</time>
      </trkpt>
      <trkpt lat="49.49813" lon="-1.28296">
        <ele>2.285971</ele>
        <time>2022-07-31T12:58:58.000Z</time>
      </trkpt>
      <trkpt lat="49.49809" lon="-1.28301">
        <ele>2.287452</ele>
        <time>2022-07-31T12:58:59.000Z</time>
      </trkpt>
      <trkpt lat="49.49804" lon="-1.28305">
        <ele>2.288994</ele>
        <time>2022-07-31T12:59:00.000Z</time>
      </trkpt>
      <trkpt lat="49.49799" lon="-1.2831">
        <ele>2.290349</ele>
        <time>2022-07-31T12:59:01.000Z</time>
      </trkpt>
      <trkpt lat="49.49794" lon="-1.28315">
        <ele>2.291974</ele>
        <time>2022-07-31T12:59:02.000Z</time>
      </trkpt>
      <trkpt lat="49.4979" lon="-1.2832">
        <ele>2.293394</ele>
        <time>2022-07-31T12:59:03.000Z</time>
      </trkpt>
      <trkpt lat="49.49786" lon="-1.28326">
        <ele>2.294889</ele>
        <time>2022-07-31T12:59:04.000Z</time>
      </trkpt>
      <trkpt lat="49.49782" lon="-1.28332">
        <ele>2.296332</ele>
        <time>2022-07-31T12:59:05.000Z</time>
      </trkpt>
      <trkpt lat="49.49779" lon="-1.28338">
        <ele>2.297737</ele>
        <time>2022-07-31T12:59:06.000Z</time>
      </trkpt>
      <trkpt lat="49.49776" lon="-1.28345">
        <ele>2.299197</ele>
        <time>2022-07-31T12:59:07.000Z</time>
      </trkpt>
      <trkpt lat="49.49773" lon="-1.28352">
        <ele>2.300569</ele>
        <time>2022-07-31T12:59:08.000Z</time>
      </trkpt>
      <trkpt lat="49.49769" lon="-1.28358">
        <ele>2.301957</ele>
        <time>2022-07-31T12:59:09.000Z</time>
      </trkpt>
      <trkpt lat="49.49765" lon="-1.28363">
        <ele>2.30336</ele>
        <time>2022-07-31T12:59:10.000Z</time>
      </trkpt>
      <trkpt lat="49.49761" lon="-1.28368">
        <ele>2.304799</ele>
        <time>2022-07-31T12:59:11.000Z</time>
      </trkpt>
      <trkpt lat="49.49756" lon="-1.28372">
        <ele>2.306311</ele>
        <time>2022-07-31T12:59:12.000Z</time>
      </trkpt>
      <trkpt lat="49.49751" lon="-1.28375">
        <ele>2.307678</ele>
        <time>2022-07-31T12:59:13.000Z</time>
      </trkpt>
      <trkpt lat="49.49746" lon="-1.28377">
        <ele>2.309163</ele>
        <time>2022-07-31T12:59:14.000Z</time>
      </trkpt>
      <trkpt lat="49.49741" lon="-1.28379">
        <ele>2.310567</ele>
        <time>2022-07-31T12:59:15.000Z</time>
      </trkpt>
      <trkpt lat="49.49736" lon="-1.28382">
        <ele>2.311916</ele>
        <time>2022-07-31T12:59:16.000Z</time>
      </trkpt>
      <trkpt lat="49.49731" lon="-1.28385">
        <ele>2.313397</ele>
        <time>2022-07-31T12:59:17.000Z</time>
      </trkpt>
      <trkpt lat="49.49726" lon="-1.28389">
        <ele>2.314774</ele>
        <time>2022-07-31T12:59:18.000Z</time>
      </trkpt>
      <trkpt lat="49.49722" lon="-1.28394">
        <ele>2.316182</ele>
        <time>2022-07-31T12:59:19.000Z</time>
      </trkpt>
      <trkpt lat="49.49718" lon="-1.284">
        <ele>2.317625</ele>
        <time>2022-07-31T12:59:20.000Z</time>
      </trkpt>
      <trkpt lat="49.49714" lon="-1.28407">
        <ele>2.319111</ele>
        <time>2022-07-31T12:59:21.000Z</time>
      </trkpt>
      <trkpt lat="49.49711" lon="-1.28413">
        <ele>2.320565</ele>
        <time>2022-07-31T12:59:22.000Z</time>
      </trkpt>
      <trkpt lat="49.49708" lon="-1.2842">
        <ele>2.321923</ele>
        <time>2022-07-31T12:59:23.000Z</time>
      </trkpt>
      <trkpt lat="49.49704" lon="-1.28426">
        <ele>2.323417</ele>
        <time>2022-07-31T12:59:24.000Z</time>
      </trkpt>
      <trkpt lat="49.49702" lon="-1.28433">
        <ele>2.324792</ele>
        <time>2022-07-31T12:59:25.000Z</time>
      </trkpt>
      <trkpt lat="49.49699" lon="-1.2844">
        <ele>2.331497</ele>
        <time>2022-07-31T12:59:26.000Z</time>
      </trkpt>
      <trkpt lat="49.49696" lon="-1.28448">
        <ele>2.343338</ele>
        <time>2022-07-31T12:59:27.000Z</time>
      </trkpt>
      <trkpt lat="49.49693" lon="-1.28456">
        <ele>2.354835</ele>
        <time>2022-07-31T12:59:28.000Z</time>
      </trkpt>
      <trkpt lat="49.49692" lon="-1.28464">
        <ele>2.366449</ele>
        <time>2022-07-31T12:59:29.000Z</time>
      </trkpt>
      <trkpt lat="49.49691" lon="-1.28472">
        <ele>2.378132</ele>
        <time>2022-07-31T12:59:30.000Z</time>
      </trkpt>
      <trkpt lat="49.49692" lon="-1.28481">
        <ele>2.390135</ele>
        <time>2022-07-31T12:59:31.000Z</time>
      </trkpt>
      <trkpt lat="49.49693" lon="-1.2849">
        <ele>2.40212</ele>
        <time>2022-07-31T12:59:32.000Z</time>
      </trkpt>
      <trkpt lat="49.49694" lon="-1.28498">
        <ele>2.413864</ele>
        <time>2022-07-31T12:59:33.000Z</time>
      </trkpt>
      <trkpt lat="49.49696" lon="-1.28506">
        <ele>2.425165</ele>
        <time>2022-07-31T12:59:34.000Z</time>
      </trkpt>
      <trkpt lat="49.49698" lon="-1.28514">
        <ele>2.436338</ele>
        <time>2022-07-31T12:59:35.000Z</time>
      </trkpt>
      <trkpt lat="49.497" lon="-1.28521">
        <ele>2.447259</ele>
        <time>2022-07-31T12:59:36.000Z</time>
      </trkpt>
      <trkpt lat="49.49702" lon="-1.28529">
        <ele>2.458508</ele>
        <time>2022-07-31T12:59:37.000Z</time>
      </trkpt>
      <trkpt lat="49.49704" lon="-1.28536">
        <ele>2.469428</ele>
        <time>2022-07-31T12:59:38.000Z</time>
      </trkpt>
      <trkpt lat="49.49706" lon="-1.28543">
        <ele>2.479845</ele>
        <time>2022-07-31T12:59:39.000Z</time>
      </trkpt>
      <trkpt lat="49.49708" lon="-1.28551">
        <ele>2.490765</ele>
        <time>2022-07-31T12:59:40.000Z</time>
      </trkpt>
      <trkpt lat="49.49709" lon="-1.28559">
        <ele>2.502215</ele>
        <time>2022-07-31T12:59:41.000Z</time>
      </trkpt>
      <trkpt lat="49.49711" lon="-1.28567">
        <ele>2.513389</ele>
        <time>2022-07-31T12:59:42.000Z</time>
      </trkpt>
      <trkpt lat="49.49713" lon="-1.28574">
        <ele>2.524436</ele>
        <time>2022-07-31T12:59:43.000Z</time>
      </trkpt>
      <trkpt lat="49.49714" lon="-1.28582">
        <ele>2.535622</ele>
        <time>2022-07-31T12:59:44.000Z</time>
      </trkpt>
      <trkpt lat="49.49714" lon="-1.28591">
        <ele>2.547017</ele>
        <time>2022-07-31T12:59:45.000Z</time>
      </trkpt>
      <trkpt lat="49.49712" lon="-1.28599">
        <ele>2.558761</ele>
        <time>2022-07-31T12:59:46.000Z</time>
      </trkpt>
      <trkpt lat="49.4971" lon="-1.28607">
        <ele>2.569925</ele>
        <time>2022-07-31T12:59:47.000Z</time>
      </trkpt>
      <trkpt lat="49.49706" lon="-1.28613">
        <ele>2.581731</ele>
        <time>2022-07-31T12:59:48.000Z</time>
      </trkpt>
      <trkpt lat="49.49702" lon="-1.28619">
        <ele>2.593917</ele>
        <time>2022-07-31T12:59:49.000Z</time>
      </trkpt>
      <trkpt lat="49.49696" lon="-1.28625">
        <ele>2.607995</ele>
        <time>2022-07-31T12:59:50.000Z</time>
      </trkpt>
      <trkpt lat="49.49692" lon="-1.28631">
        <ele>2.620517</ele>
        <time>2022-07-31T12:59:51.000Z</time>
      </trkpt>
      <trkpt lat="49.49687" lon="-1.28638">
        <ele>2.634326</ele>
        <time>2022-07-31T12:59:52.000Z</time>
      </trkpt>
      <trkpt lat="49.49684" lon="-1.28645">
        <ele>2.646385</ele>
        <time>2022-07-31T12:59:53.000Z</time>
      </trkpt>
      <trkpt lat="49.4968" lon="-1.28653">
        <ele>2.658913</ele>
        <time>2022-07-31T12:59:54.000Z</time>
      </trkpt>
      <trkpt lat="49.49677" lon="-1.2866">
        <ele>2.671551</ele>
        <time>2022-07-31T12:59:55.000Z</time>
      </trkpt>
      <trkpt lat="49.49674" lon="-1.28668">
        <ele>2.683611</ele>
        <time>2022-07-31T12:59:56.000Z</time>
      </trkpt>
      <trkpt lat="49.4967" lon="-1.28675">
        <ele>2.695919</ele>
        <time>2022-07-31T12:59:57.000Z</time>
      </trkpt>
      <trkpt lat="49.49667" lon="-1.28682">
        <ele>2.704427</ele>
        <time>2022-07-31T12:59:58.000Z</time>
      </trkpt>
      <trkpt lat="49.49664" lon="-1.28689">
        <ele>2.710227</ele>
        <time>2022-07-31T12:59:59.000Z</time>
      </trkpt>
      <trkpt lat="49.4966" lon="-1.28695">
        <ele>2.715641</ele>
        <time>2022-07-31T13:00:00.000Z</time>
      </trkpt>
      <trkpt lat="49.49657" lon="-1.28701">
        <ele>2.720742</ele>
        <time>2022-07-31T13:00:01.000Z</time>
      </trkpt>
      <trkpt lat="49.49652" lon="-1.28704">
        <ele>2.725956</ele>
        <time>2022-07-31T13:00:02.000Z</time>
      </trkpt>
      <trkpt lat="49.49648" lon="-1.28706">
        <ele>2.730778</ele>
        <time>2022-07-31T13:00:03.000Z</time>
      </trkpt>
      <trkpt lat="49.49643" lon="-1.28706">
        <ele>2.73574</ele>
        <time>2022-07-31T13:00:04.000Z</time>
      </trkpt>
      <trkpt lat="49.49638" lon="-1.28706">
        <ele>2.740704</ele>
        <time>2022-07-31T13:00:05.000Z</time>
      </trkpt>
      <trkpt lat="49.49633" lon="-1.28706">
        <ele>2.745977</ele>
        <time>2022-07-31T13:00:06.000Z</time>
      </trkpt>
      <trkpt lat="49.49628" lon="-1.28707">
        <ele>2.75096</ele>
        <time>2022-07-31T13:00:07.000Z</time>
      </trkpt>
      <trkpt lat="49.49623" lon="-1.28708">
        <ele>2.756427</ele>
        <time>2022-07-31T13:00:08.000Z</time>
      </trkpt>
      <trkpt lat="49.49619" lon="-1.28711">
        <ele>2.761348</ele>
        <time>2022-07-31T13:00:09.000Z</time>
      </trkpt>
      <trkpt lat="49.49614" lon="-1.28715">
        <ele>2.766452</ele>
        <time>2022-07-31T13:00:10.000Z</time>
      </trkpt>
      <trkpt lat="49.4961" lon="-1.28719">
        <ele>2.771702</ele>
        <time>2022-07-31T13:00:11.000Z</time>
      </trkpt>
      <trkpt lat="49.49606" lon="-1.28724">
        <ele>2.776906</ele>
        <time>2022-07-31T13:00:12.000Z</time>
      </trkpt>
      <trkpt lat="49.49601" lon="-1.28728">
        <ele>2.782714</ele>
        <time>2022-07-31T13:00:13.000Z</time>
      </trkpt>
      <trkpt lat="49.49597" lon="-1.28732">
        <ele>2.787853</ele>
        <time>2022-07-31T13:00:14.000Z</time>
      </trkpt>
      <trkpt lat="49.49592" lon="-1.28736">
        <ele>2.793259</ele>
        <time>2022-07-31T13:00:15.000Z</time>
      </trkpt>
      <trkpt lat="49.49588" lon="-1.28738">
        <ele>2.798435</ele>
        <time>2022-07-31T13:00:16.000Z</time>
      </trkpt>
      <trkpt lat="49.49582" lon="-1.28738">
        <ele>2.803716</ele>
        <time>2022-07-31T13:00:17.000Z</time>
      </trkpt>
      <trkpt lat="49.49577" lon="-1.28737">
        <ele>2.80903</ele>
        <time>2022-07-31T13:00:18.000Z</time>
      </trkpt>
      <trkpt lat="49.49573" lon="-1.28735">
        <ele>2.814205</ele>
        <time>2022-07-31T13:00:19.000Z</time>
      </trkpt>
      <trkpt lat="49.49567" lon="-1.28733">
        <ele>2.819698</ele>
        <time>2022-07-31T13:00:20.000Z</time>
      </trkpt>
      <trkpt lat="49.49563" lon="-1.2873">
        <ele>2.825027</ele>
        <time>2022-07-31T13:00:21.000Z</time>
      </trkpt>
      <trkpt lat="49.49558" lon="-1.28726">
        <ele>2.830545</ele>
        <time>2022-07-31T13:00:22.000Z</time>
      </trkpt>
      <trkpt lat="49.49554" lon="-1.28722">
        <ele>2.835613</ele>
        <time>2022-07-31T13:00:23.000Z</time>
      </trkpt>
      <trkpt lat="49.49549" lon="-1.28718">
        <ele>2.840984</ele>
        <time>2022-07-31T13:00:24.000Z</time>
      </trkpt>
      <trkpt lat="49.49545" lon="-1.28714">
        <ele>2.846388</ele>
        <time>2022-07-31T13:00:25.000Z</time>
      </trkpt>
      <trkpt lat="49.49541" lon="-1.2871">
        <ele>2.851591</ele>
        <time>2022-07-31T13:00:26.000Z</time>
      </trkpt>
      <trkpt lat="49.49536" lon="-1.28705">
        <ele>2.857101</ele>
        <time>2022-07-31T13:00:27.000Z</time>
      </trkpt>
      <trkpt lat="49.49532" lon="-1.28701">
        <ele>2.86224</ele>
        <time>2022-07-31T13:00:28.000Z</time>
      </trkpt>
      <trkpt lat="49.49527" lon="-1.28697">
        <ele>2.867662</ele>
        <time>2022-07-31T13:00:29.000Z</time>
      </trkpt>
      <trkpt lat="49.49523" lon="-1.28693">
        <ele>2.872967</ele>
        <time>2022-07-31T13:00:30.000Z</time>
      </trkpt>
      <trkpt lat="49.49518" lon="-1.2869">
        <ele>2.878609</ele>
        <time>2022-07-31T13:00:31.000Z</time>
      </trkpt>
      <trkpt lat="49.49513" lon="-1.28688">
        <ele>2.883804</ele>
        <time>2022-07-31T13:00:32.000Z</time>
      </trkpt>
      <trkpt lat="49.49508" lon="-1.28686">
        <ele>2.896452</ele>
        <time>2022-07-31T13:00:33.000Z</time>
      </trkpt>
      <trkpt lat="49.49503" lon="-1.28686">
        <ele>2.914955</ele>
        <time>2022-07-31T13:00:34.000Z</time>
      </trkpt>
      <trkpt lat="49.49498" lon="-1.28687">
        <ele>2.934813</ele>
        <time>2022-07-31T13:00:35.000Z</time>
      </trkpt>
      <trkpt lat="49.49493" lon="-1.2869">
        <ele>2.954317</ele>
        <time>2022-07-31T13:00:36.000Z</time>
      </trkpt>
      <trkpt lat="49.49488" lon="-1.28693">
        <ele>2.97445</ele>
        <time>2022-07-31T13:00:37.000Z</time>
      </trkpt>
      <trkpt lat="49.49484" lon="-1.28697">
        <ele>2.994204</ele>
        <time>2022-07-31T13:00:38.000Z</time>
      </trkpt>
      <trkpt lat="49.49479" lon="-1.28701">
        <ele>3.01459</ele>
        <time>2022-07-31T13:00:39.000Z</time>
      </trkpt>
      <trkpt lat="49.49475" lon="-1.28706">
        <ele>3.035639</ele>
        <time>2022-07-31T13:00:40.000Z</time>
      </trkpt>
      <trkpt lat="49.49471" lon="-1.28711">
        <ele>3.054134</ele>
        <time>2022-07-31T13:00:41.000Z</time>
      </trkpt>
      <trkpt lat="49.49467" lon="-1.28716">
        <ele>3.073538</ele>
        <time>2022-07-31T13:00:42.000Z</time>
      </trkpt>
      <trkpt lat="49.49463" lon="-1.28721">
        <ele>3.093106</ele>
        <time>2022-07-31T13:00:43.000Z</time>
      </trkpt>
      <trkpt lat="49.4946" lon="-1.28726">
        <ele>3.111768</ele>
        <time>2022-07-31T13:00:44.000Z</time>
      </trkpt>
      <trkpt lat="49.49456" lon="-1.28731">
        <ele>3.130489</ele>
        <time>2022-07-31T13:00:45.000Z</time>
      </trkpt>
      <trkpt lat="49.49453" lon="-1.28737">
        <ele>3.150225</ele>
        <time>2022-07-31T13:00:46.000Z</time>
      </trkpt>
      <trkpt lat="49.49449" lon="-1.28742">
        <ele>3.16925</ele>
        <time>2022-07-31T13:00:47.000Z</time>
      </trkpt>
      <trkpt lat="49.49446" lon="-1.28748">
        <ele>3.18886</ele>
        <time>2022-07-31T13:00:48.000Z</time>
      </trkpt>
      <trkpt lat="49.49442" lon="-1.28754">
        <ele>3.209281</ele>
        <time>2022-07-31T13:00:49.000Z</time>
      </trkpt>
      <trkpt lat="49.49439" lon="-1.28759">
        <ele>3.228177</ele>
        <time>2022-07-31T13:00:50.000Z</time>
      </trkpt>
      <trkpt lat="49.49435" lon="-1.28765">
        <ele>3.248153</ele>
        <time>2022-07-31T13:00:51.000Z</time>
      </trkpt>
      <trkpt lat="49.49432" lon="-1.28771">
        <ele>3.267946</ele>
        <time>2022-07-31T13:00:52.000Z</time>
      </trkpt>
      <trkpt lat="49.49428" lon="-1.28777">
        <ele>3.287738</ele>
        <time>2022-07-31T13:00:53.000Z</time>
      </trkpt>
      <trkpt lat="49.49424" lon="-1.28783">
        <ele>3.309288</ele>
        <time>2022-07-31T13:00:54.000Z</time>
      </trkpt>
      <trkpt lat="49.49421" lon="-1.28788">
        <ele>3.329081</ele>
        <time>2022-07-31T13:00:55.000Z</time>
      </trkpt>
      <trkpt lat="49.49417" lon="-1.28794">
        <ele>3.350302</ele>
        <time>2022-07-31T13:00:56.000Z</time>
      </trkpt>
      <trkpt lat="49.49413" lon="-1.288">
        <ele>3.369518</ele>
        <time>2022-07-31T13:00:57.000Z</time>
      </trkpt>
      <trkpt lat="49.4941" lon="-1.28806">
        <ele>3.390114</ele>
        <time>2022-07-31T13:00:58.000Z</time>
      </trkpt>
      <trkpt lat="49.49406" lon="-1.28812">
        <ele>3.409907</ele>
        <time>2022-07-31T13:00:59.000Z</time>
      </trkpt>
      <trkpt lat="49.49402" lon="-1.28818">
        <ele>3.430952</ele>
        <time>2022-07-31T13:01:00.000Z</time>
      </trkpt>
      <trkpt lat="49.49399" lon="-1.28823">
        <ele>3.450202</ele>
        <time>2022-07-31T13:01:01.000Z</time>
      </trkpt>
      <trkpt lat="49.49395" lon="-1.28829">
        <ele>3.470449</ele>
        <time>2022-07-31T13:01:02.000Z</time>
      </trkpt>
      <trkpt lat="49.49392" lon="-1.28834">
        <ele>3.488357</ele>
        <time>2022-07-31T13:01:03.000Z</time>
      </trkpt>
      <trkpt lat="49.49388" lon="-1.2884">
        <ele>3.507607</ele>
        <time>2022-07-31T13:01:04.000Z</time>
      </trkpt>
      <trkpt lat="49.49385" lon="-1.28845">
        <ele>3.527128</ele>
        <time>2022-07-31T13:01:05.000Z</time>
      </trkpt>
      <trkpt lat="49.49381" lon="-1.28851">
        <ele>3.547724</ele>
        <time>2022-07-31T13:01:06.000Z</time>
      </trkpt>
      <trkpt lat="49.49378" lon="-1.28856">
        <ele>3.566184</ele>
        <time>2022-07-31T13:01:07.000Z</time>
      </trkpt>
      <trkpt lat="49.49373" lon="-1.28862">
        <ele>3.577663</ele>
        <time>2022-07-31T13:01:08.000Z</time>
      </trkpt>
      <trkpt lat="49.49369" lon="-1.28867">
        <ele>3.573862</ele>
        <time>2022-07-31T13:01:09.000Z</time>
      </trkpt>
      <trkpt lat="49.49366" lon="-1.28873">
        <ele>3.570295</ele>
        <time>2022-07-31T13:01:10.000Z</time>
      </trkpt>
      <trkpt lat="49.49362" lon="-1.28879">
        <ele>3.566342</ele>
        <time>2022-07-31T13:01:11.000Z</time>
      </trkpt>
      <trkpt lat="49.49358" lon="-1.28884">
        <ele>3.56254</ele>
        <time>2022-07-31T13:01:12.000Z</time>
      </trkpt>
      <trkpt lat="49.49354" lon="-1.2889">
        <ele>3.558459</ele>
        <time>2022-07-31T13:01:13.000Z</time>
      </trkpt>
      <trkpt lat="49.49351" lon="-1.28895">
        <ele>3.554913</ele>
        <time>2022-07-31T13:01:14.000Z</time>
      </trkpt>
      <trkpt lat="49.49347" lon="-1.28901">
        <ele>3.551176</ele>
        <time>2022-07-31T13:01:15.000Z</time>
      </trkpt>
      <trkpt lat="49.49343" lon="-1.28906">
        <ele>3.547695</ele>
        <time>2022-07-31T13:01:16.000Z</time>
      </trkpt>
      <trkpt lat="49.4934" lon="-1.28911">
        <ele>3.543935</ele>
        <time>2022-07-31T13:01:17.000Z</time>
      </trkpt>
      <trkpt lat="49.49336" lon="-1.28916">
        <ele>3.540577</ele>
        <time>2022-07-31T13:01:18.000Z</time>
      </trkpt>
      <trkpt lat="49.49333" lon="-1.28921">
        <ele>3.536871</ele>
        <time>2022-07-31T13:01:19.000Z</time>
      </trkpt>
      <trkpt lat="49.49329" lon="-1.28926">
        <ele>3.533172</ele>
        <time>2022-07-31T13:01:20.000Z</time>
      </trkpt>
      <trkpt lat="49.49325" lon="-1.28931">
        <ele>3.529755</ele>
        <time>2022-07-31T13:01:21.000Z</time>
      </trkpt>
      <trkpt lat="49.49321" lon="-1.28935">
        <ele>3.526085</ele>
        <time>2022-07-31T13:01:22.000Z</time>
      </trkpt>
      <trkpt lat="49.49317" lon="-1.2894">
        <ele>3.522615</ele>
        <time>2022-07-31T13:01:23.000Z</time>
      </trkpt>
      <trkpt lat="49.49313" lon="-1.28944">
        <ele>3.519121</ele>
        <time>2022-07-31T13:01:24.000Z</time>
      </trkpt>
      <trkpt lat="49.49309" lon="-1.28949">
        <ele>3.515568</ele>
        <time>2022-07-31T13:01:25.000Z</time>
      </trkpt>
      <trkpt lat="49.49306" lon="-1.28953">
        <ele>3.512158</ele>
        <time>2022-07-31T13:01:26.000Z</time>
      </trkpt>
      <trkpt lat="49.49302" lon="-1.28957">
        <ele>3.508776</ele>
        <time>2022-07-31T13:01:27.000Z</time>
      </trkpt>
      <trkpt lat="49.49298" lon="-1.28961">
        <ele>3.505125</ele>
        <time>2022-07-31T13:01:28.000Z</time>
      </trkpt>
      <trkpt lat="49.49294" lon="-1.28965">
        <ele>3.501822</ele>
        <time>2022-07-31T13:01:29.000Z</time>
      </trkpt>
      <trkpt lat="49.49291" lon="-1.28969">
        <ele>3.498757</ele>
        <time>2022-07-31T13:01:30.000Z</time>
      </trkpt>
      <trkpt lat="49.49287" lon="-1.28973">
        <ele>3.495287</ele>
        <time>2022-07-31T13:01:31.000Z</time>
      </trkpt>
      <trkpt lat="49.49283" lon="-1.28977">
        <ele>3.491905</ele>
        <time>2022-07-31T13:01:32.000Z</time>
      </trkpt>
      <trkpt lat="49.49279" lon="-1.28982">
        <ele>3.488436</ele>
        <time>2022-07-31T13:01:33.000Z</time>
      </trkpt>
      <trkpt lat="49.49276" lon="-1.28986">
        <ele>3.485258</ele>
        <time>2022-07-31T13:01:34.000Z</time>
      </trkpt>
      <trkpt lat="49.49272" lon="-1.2899">
        <ele>3.481821</ele>
        <time>2022-07-31T13:01:35.000Z</time>
      </trkpt>
      <trkpt lat="49.49269" lon="-1.28994">
        <ele>3.478755</ele>
        <time>2022-07-31T13:01:36.000Z</time>
      </trkpt>
      <trkpt lat="49.49265" lon="-1.28999">
        <ele>3.475145</ele>
        <time>2022-07-31T13:01:37.000Z</time>
      </trkpt>
      <trkpt lat="49.49261" lon="-1.29003">
        <ele>3.471791</ele>
        <time>2022-07-31T13:01:38.000Z</time>
      </trkpt>
      <trkpt lat="49.49258" lon="-1.29008">
        <ele>3.468342</ele>
        <time>2022-07-31T13:01:39.000Z</time>
      </trkpt>
      <trkpt lat="49.49255" lon="-1.29013">
        <ele>3.465307</ele>
        <time>2022-07-31T13:01:40.000Z</time>
      </trkpt>
      <trkpt lat="49.49251" lon="-1.29018">
        <ele>3.461921</ele>
        <time>2022-07-31T13:01:41.000Z</time>
      </trkpt>
      <trkpt lat="49.49249" lon="-1.29022">
        <ele>3.458998</ele>
        <time>2022-07-31T13:01:42.000Z</time>
      </trkpt>
      <trkpt lat="49.49245" lon="-1.29027">
        <ele>3.455807</ele>
        <time>2022-07-31T13:01:43.000Z</time>
      </trkpt>
      <trkpt lat="49.49242" lon="-1.29032">
        <ele>3.452422</ele>
        <time>2022-07-31T13:01:44.000Z</time>
      </trkpt>
      <trkpt lat="49.49239" lon="-1.29037">
        <ele>3.449248</ele>
        <time>2022-07-31T13:01:45.000Z</time>
      </trkpt>
      <trkpt lat="49.49236" lon="-1.29042">
        <ele>3.451239</ele>
        <time>2022-07-31T13:01:46.000Z</time>
      </trkpt>
      <trkpt lat="49.49233" lon="-1.29046">
        <ele>3.454941</ele>
        <time>2022-07-31T13:01:47.000Z</time>
      </trkpt>
      <trkpt lat="49.49229" lon="-1.29051">
        <ele>3.45879</ele>
        <time>2022-07-31T13:01:48.000Z</time>
      </trkpt>
      <trkpt lat="49.49226" lon="-1.29056">
        <ele>3.462874</ele>
        <time>2022-07-31T13:01:49.000Z</time>
      </trkpt>
      <trkpt lat="49.49223" lon="-1.2906">
        <ele>3.466414</ele>
        <time>2022-07-31T13:01:50.000Z</time>
      </trkpt>
      <trkpt lat="49.4922" lon="-1.29064">
        <ele>3.470423</ele>
        <time>2022-07-31T13:01:51.000Z</time>
      </trkpt>
      <trkpt lat="49.49216" lon="-1.29069">
        <ele>3.474325</ele>
        <time>2022-07-31T13:01:52.000Z</time>
      </trkpt>
      <trkpt lat="49.49213" lon="-1.29073">
        <ele>3.478023</ele>
        <time>2022-07-31T13:01:53.000Z</time>
      </trkpt>
      <trkpt lat="49.49209" lon="-1.29077">
        <ele>3.48189</ele>
        <time>2022-07-31T13:01:54.000Z</time>
      </trkpt>
      <trkpt lat="49.49206" lon="-1.29081">
        <ele>3.485863</ele>
        <time>2022-07-31T13:01:55.000Z</time>
      </trkpt>
      <trkpt lat="49.49202" lon="-1.29085">
        <ele>3.489766</ele>
        <time>2022-07-31T13:01:56.000Z</time>
      </trkpt>
      <trkpt lat="49.49199" lon="-1.29089">
        <ele>3.493164</ele>
        <time>2022-07-31T13:01:57.000Z</time>
      </trkpt>
      <trkpt lat="49.49196" lon="-1.29094">
        <ele>3.497206</ele>
        <time>2022-07-31T13:01:58.000Z</time>
      </trkpt>
      <trkpt lat="49.49192" lon="-1.29098">
        <ele>3.501215</ele>
        <time>2022-07-31T13:01:59.000Z</time>
      </trkpt>
      <trkpt lat="49.49189" lon="-1.29102">
        <ele>3.504839</ele>
        <time>2022-07-31T13:02:00.000Z</time>
      </trkpt>
      <trkpt lat="49.49186" lon="-1.29106">
        <ele>3.508706</ele>
        <time>2022-07-31T13:02:01.000Z</time>
      </trkpt>
      <trkpt lat="49.49182" lon="-1.29111">
        <ele>3.512517</ele>
        <time>2022-07-31T13:02:02.000Z</time>
      </trkpt>
      <trkpt lat="49.49179" lon="-1.29116">
        <ele>3.516875</ele>
        <time>2022-07-31T13:02:03.000Z</time>
      </trkpt>
      <trkpt lat="49.49176" lon="-1.29121">
        <ele>3.520746</ele>
        <time>2022-07-31T13:02:04.000Z</time>
      </trkpt>
      <trkpt lat="49.49172" lon="-1.29126">
        <ele>3.525023</ele>
        <time>2022-07-31T13:02:05.000Z</time>
      </trkpt>
      <trkpt lat="49.49169" lon="-1.29131">
        <ele>3.528938</ele>
        <time>2022-07-31T13:02:06.000Z</time>
      </trkpt>
      <trkpt lat="49.49165" lon="-1.29136">
        <ele>3.533437</ele>
        <time>2022-07-31T13:02:07.000Z</time>
      </trkpt>
      <trkpt lat="49.49162" lon="-1.29141">
        <ele>3.537795</ele>
        <time>2022-07-31T13:02:08.000Z</time>
      </trkpt>
      <trkpt lat="49.49158" lon="-1.29146">
        <ele>3.542032</ele>
        <time>2022-07-31T13:02:09.000Z</time>
      </trkpt>
      <trkpt lat="49.49154" lon="-1.29152">
        <ele>3.546683</ele>
        <time>2022-07-31T13:02:10.000Z</time>
      </trkpt>
      <trkpt lat="49.49151" lon="-1.29157">
        <ele>3.55104</ele>
        <time>2022-07-31T13:02:11.000Z</time>
      </trkpt>
      <trkpt lat="49.49148" lon="-1.29163">
        <ele>3.555257</ele>
        <time>2022-07-31T13:02:12.000Z</time>
      </trkpt>
      <trkpt lat="49.49143" lon="-1.29168">
        <ele>3.559964</ele>
        <time>2022-07-31T13:02:13.000Z</time>
      </trkpt>
      <trkpt lat="49.49139" lon="-1.29173">
        <ele>3.564843</ele>
        <time>2022-07-31T13:02:14.000Z</time>
      </trkpt>
      <trkpt lat="49.49135" lon="-1.29178">
        <ele>3.56912</ele>
        <time>2022-07-31T13:02:15.000Z</time>
      </trkpt>
      <trkpt lat="49.49132" lon="-1.29184">
        <ele>3.573694</ele>
        <time>2022-07-31T13:02:16.000Z</time>
      </trkpt>
      <trkpt lat="49.49127" lon="-1.29189">
        <ele>3.578676</ele>
        <time>2022-07-31T13:02:17.000Z</time>
      </trkpt>
      <trkpt lat="49.49124" lon="-1.29194">
        <ele>3.583033</ele>
        <time>2022-07-31T13:02:18.000Z</time>
      </trkpt>
      <trkpt lat="49.4912" lon="-1.292">
        <ele>3.587541</ele>
        <time>2022-07-31T13:02:19.000Z</time>
      </trkpt>
      <trkpt lat="49.49116" lon="-1.29205">
        <ele>3.592115</ele>
        <time>2022-07-31T13:02:20.000Z</time>
      </trkpt>
      <trkpt lat="49.49112" lon="-1.29211">
        <ele>3.59678</ele>
        <time>2022-07-31T13:02:21.000Z</time>
      </trkpt>
      <trkpt lat="49.49108" lon="-1.29216">
        <ele>3.601366</ele>
        <time>2022-07-31T13:02:22.000Z</time>
      </trkpt>
      <trkpt lat="49.49104" lon="-1.29221">
        <ele>3.60594</ele>
        <time>2022-07-31T13:02:23.000Z</time>
      </trkpt>
      <trkpt lat="49.491" lon="-1.29226">
        <ele>3.587294</ele>
        <time>2022-07-31T13:02:24.000Z</time>
      </trkpt>
      <trkpt lat="49.49096" lon="-1.29231">
        <ele>3.566257</ele>
        <time>2022-07-31T13:02:25.000Z</time>
      </trkpt>
      <trkpt lat="49.49091" lon="-1.29235">
        <ele>3.543757</ele>
        <time>2022-07-31T13:02:26.000Z</time>
      </trkpt>
      <trkpt lat="49.49087" lon="-1.2924">
        <ele>3.523174</ele>
        <time>2022-07-31T13:02:27.000Z</time>
      </trkpt>
      <trkpt lat="49.49083" lon="-1.29243">
        <ele>3.502986</ele>
        <time>2022-07-31T13:02:28.000Z</time>
      </trkpt>
      <trkpt lat="49.49078" lon="-1.29247">
        <ele>3.482317</ele>
        <time>2022-07-31T13:02:29.000Z</time>
      </trkpt>
      <trkpt lat="49.49073" lon="-1.2925">
        <ele>3.461018</ele>
        <time>2022-07-31T13:02:30.000Z</time>
      </trkpt>
      <trkpt lat="49.49069" lon="-1.29253">
        <ele>3.44115</ele>
        <time>2022-07-31T13:02:31.000Z</time>
      </trkpt>
      <trkpt lat="49.49064" lon="-1.29256">
        <ele>3.420161</ele>
        <time>2022-07-31T13:02:32.000Z</time>
      </trkpt>
      <trkpt lat="49.49059" lon="-1.29259">
        <ele>3.399172</ele>
        <time>2022-07-31T13:02:33.000Z</time>
      </trkpt>
      <trkpt lat="49.49055" lon="-1.29262">
        <ele>3.379304</ele>
        <time>2022-07-31T13:02:34.000Z</time>
      </trkpt>
      <trkpt lat="49.4905" lon="-1.29266">
        <ele>3.358995</ele>
        <time>2022-07-31T13:02:35.000Z</time>
      </trkpt>
      <trkpt lat="49.49045" lon="-1.29269">
        <ele>3.337905</ele>
        <time>2022-07-31T13:02:36.000Z</time>
      </trkpt>
      <trkpt lat="49.49041" lon="-1.29272">
        <ele>3.316916</ele>
        <time>2022-07-31T13:02:37.000Z</time>
      </trkpt>
      <trkpt lat="49.49036" lon="-1.29275">
        <ele>3.294603</ele>
        <time>2022-07-31T13:02:38.000Z</time>
      </trkpt>
      <trkpt lat="49.49031" lon="-1.29278">
        <ele>3.274408</ele>
        <time>2022-07-31T13:02:39.000Z</time>
      </trkpt>
      <trkpt lat="49.49027" lon="-1.29282">
        <ele>3.254462</ele>
        <time>2022-07-31T13:02:40.000Z</time>
      </trkpt>
      <trkpt lat="49.49021" lon="-1.29284">
        <ele>3.232311</ele>
        <time>2022-07-31T13:02:41.000Z</time>
      </trkpt>
      <trkpt lat="49.49017" lon="-1.29286">
        <ele>3.213931</ele>
        <time>2022-07-31T13:02:42.000Z</time>
      </trkpt>
      <trkpt lat="49.49012" lon="-1.29286">
        <ele>3.192856</ele>
        <time>2022-07-31T13:02:43.000Z</time>
      </trkpt>
      <trkpt lat="49.49007" lon="-1.29285">
        <ele>3.174477</ele>
        <time>2022-07-31T13:02:44.000Z</time>
      </trkpt>
      <trkpt lat="49.49004" lon="-1.29281">
        <ele>3.156446</ele>
        <time>2022-07-31T13:02:45.000Z</time>
      </trkpt>
      <trkpt lat="49.49" lon="-1.29277">
        <ele>3.139063</ele>
        <time>2022-07-31T13:02:46.000Z</time>
      </trkpt>
      <trkpt lat="49.48997" lon="-1.29272">
        <ele>3.12059</ele>
        <time>2022-07-31T13:02:47.000Z</time>
      </trkpt>
      <trkpt lat="49.48994" lon="-1.29267">
        <ele>3.101944</ele>
        <time>2022-07-31T13:02:48.000Z</time>
      </trkpt>
      <trkpt lat="49.48989" lon="-1.29263">
        <ele>3.081653</ele>
        <time>2022-07-31T13:02:49.000Z</time>
      </trkpt>
      <trkpt lat="49.48985" lon="-1.2926">
        <ele>3.063586</ele>
        <time>2022-07-31T13:02:50.000Z</time>
      </trkpt>
      <trkpt lat="49.48981" lon="-1.29259">
        <ele>3.043924</ele>
        <time>2022-07-31T13:02:51.000Z</time>
      </trkpt>
      <trkpt lat="49.48975" lon="-1.29259">
        <ele>3.023254</ele>
        <time>2022-07-31T13:02:52.000Z</time>
      </trkpt>
      <trkpt lat="49.48971" lon="-1.29261">
        <ele>3.00528</ele>
        <time>2022-07-31T13:02:53.000Z</time>
      </trkpt>
      <trkpt lat="49.48967" lon="-1.29265">
        <ele>2.986629</ele>
        <time>2022-07-31T13:02:54.000Z</time>
      </trkpt>
      <trkpt lat="49.48963" lon="-1.2927">
        <ele>2.965745</ele>
        <time>2022-07-31T13:02:55.000Z</time>
      </trkpt>
      <trkpt lat="49.48959" lon="-1.29275">
        <ele>2.943908</ele>
        <time>2022-07-31T13:02:56.000Z</time>
      </trkpt>
      <trkpt lat="49.48955" lon="-1.2928">
        <ele>2.922386</ele>
        <time>2022-07-31T13:02:57.000Z</time>
      </trkpt>
      <trkpt lat="49.48951" lon="-1.29286">
        <ele>2.900045</ele>
        <time>2022-07-31T13:02:58.000Z</time>
      </trkpt>
      <trkpt lat="49.48946" lon="-1.29291">
        <ele>2.877099</ele>
        <time>2022-07-31T13:02:59.000Z</time>
      </trkpt>
      <trkpt lat="49.48942" lon="-1.29297">
        <ele>2.865452</ele>
        <time>2022-07-31T13:03:00.000Z</time>
      </trkpt>
      <trkpt lat="49.48938" lon="-1.29302">
        <ele>2.85339</ele>
        <time>2022-07-31T13:03:01.000Z</time>
      </trkpt>
      <trkpt lat="49.48933" lon="-1.29307">
        <ele>2.841756</ele>
        <time>2022-07-31T13:03:02.000Z</time>
      </trkpt>
      <trkpt lat="49.48929" lon="-1.29313">
        <ele>2.829522</ele>
        <time>2022-07-31T13:03:03.000Z</time>
      </trkpt>
      <trkpt lat="49.48925" lon="-1.29319">
        <ele>2.816392</ele>
        <time>2022-07-31T13:03:04.000Z</time>
      </trkpt>
      <trkpt lat="49.4892" lon="-1.29325">
        <ele>2.803168</ele>
        <time>2022-07-31T13:03:05.000Z</time>
      </trkpt>
      <trkpt lat="49.48916" lon="-1.29331">
        <ele>2.790225</ele>
        <time>2022-07-31T13:03:06.000Z</time>
      </trkpt>
      <trkpt lat="49.48911" lon="-1.29338">
        <ele>2.776905</ele>
        <time>2022-07-31T13:03:07.000Z</time>
      </trkpt>
      <trkpt lat="49.48906" lon="-1.29345">
        <ele>2.762919</ele>
        <time>2022-07-31T13:03:08.000Z</time>
      </trkpt>
      <trkpt lat="49.48902" lon="-1.29351">
        <ele>2.749756</ele>
        <time>2022-07-31T13:03:09.000Z</time>
      </trkpt>
      <trkpt lat="49.48897" lon="-1.29357">
        <ele>2.736626</ele>
        <time>2022-07-31T13:03:10.000Z</time>
      </trkpt>
      <trkpt lat="49.48893" lon="-1.29364">
        <ele>2.724066</ele>
        <time>2022-07-31T13:03:11.000Z</time>
      </trkpt>
      <trkpt lat="49.48889" lon="-1.2937">
        <ele>2.712113</ele>
        <time>2022-07-31T13:03:12.000Z</time>
      </trkpt>
      <trkpt lat="49.48885" lon="-1.29376">
        <ele>2.699455</ele>
        <time>2022-07-31T13:03:13.000Z</time>
      </trkpt>
      <trkpt lat="49.48881" lon="-1.29383">
        <ele>2.686135</ele>
        <time>2022-07-31T13:03:14.000Z</time>
      </trkpt>
      <trkpt lat="49.48877" lon="-1.29389">
        <ele>2.673873</ele>
        <time>2022-07-31T13:03:15.000Z</time>
      </trkpt>
      <trkpt lat="49.48873" lon="-1.29396">
        <ele>2.662035</ele>
        <time>2022-07-31T13:03:16.000Z</time>
      </trkpt>
      <trkpt lat="49.48869" lon="-1.29402">
        <ele>2.649316</ele>
        <time>2022-07-31T13:03:17.000Z</time>
      </trkpt>
      <trkpt lat="49.48866" lon="-1.29409">
        <ele>2.636632</ele>
        <time>2022-07-31T13:03:18.000Z</time>
      </trkpt>
      <trkpt lat="49.48862" lon="-1.29416">
        <ele>2.62384</ele>
        <time>2022-07-31T13:03:19.000Z</time>
      </trkpt>
      <trkpt lat="49.48858" lon="-1.29423">
        <ele>2.61154</ele>
        <time>2022-07-31T13:03:20.000Z</time>
      </trkpt>
      <trkpt lat="49.48855" lon="-1.2943">
        <ele>2.59893</ele>
        <time>2022-07-31T13:03:21.000Z</time>
      </trkpt>
      <trkpt lat="49.48852" lon="-1.29437">
        <ele>2.58717</ele>
        <time>2022-07-31T13:03:22.000Z</time>
      </trkpt>
      <trkpt lat="49.48849" lon="-1.29444">
        <ele>2.575762</ele>
        <time>2022-07-31T13:03:23.000Z</time>
      </trkpt>
      <trkpt lat="49.48846" lon="-1.29451">
        <ele>2.564356</ele>
        <time>2022-07-31T13:03:24.000Z</time>
      </trkpt>
      <trkpt lat="49.48843" lon="-1.29458">
        <ele>2.552582</ele>
        <time>2022-07-31T13:03:25.000Z</time>
      </trkpt>
      <trkpt lat="49.4884" lon="-1.29464">
        <ele>2.541879</ele>
        <time>2022-07-31T13:03:26.000Z</time>
      </trkpt>
      <trkpt lat="49.48837" lon="-1.29471">
        <ele>2.530355</ele>
        <time>2022-07-31T13:03:27.000Z</time>
      </trkpt>
      <trkpt lat="49.48834" lon="-1.29478">
        <ele>2.519141</ele>
        <time>2022-07-31T13:03:28.000Z</time>
      </trkpt>
      <trkpt lat="49.48832" lon="-1.29484">
        <ele>2.508549</ele>
        <time>2022-07-31T13:03:29.000Z</time>
      </trkpt>
      <trkpt lat="49.48829" lon="-1.2949">
        <ele>2.497335</ele>
        <time>2022-07-31T13:03:30.000Z</time>
      </trkpt>
      <trkpt lat="49.48826" lon="-1.29497">
        <ele>2.493683</ele>
        <time>2022-07-31T13:03:31.000Z</time>
      </trkpt>
      <trkpt lat="49.48823" lon="-1.29503">
        <ele>2.512761</ele>
        <time>2022-07-31T13:03:32.000Z</time>
      </trkpt>
      <trkpt lat="49.4882" lon="-1.29509">
        <ele>2.532138</ele>
        <time>2022-07-31T13:03:33.000Z</time>
      </trkpt>
      <trkpt lat="49.48817" lon="-1.29515">
        <ele>2.551791</ele>
        <time>2022-07-31T13:03:34.000Z</time>
      </trkpt>
      <trkpt lat="49.48813" lon="-1.29522">
        <ele>2.572538</ele>
        <time>2022-07-31T13:03:35.000Z</time>
      </trkpt>
      <trkpt lat="49.4881" lon="-1.29528">
        <ele>2.591916</ele>
        <time>2022-07-31T13:03:36.000Z</time>
      </trkpt>
      <trkpt lat="49.48807" lon="-1.29535">
        <ele>2.613429</ele>
        <time>2022-07-31T13:03:37.000Z</time>
      </trkpt>
      <trkpt lat="49.48804" lon="-1.29542">
        <ele>2.633419</ele>
        <time>2022-07-31T13:03:38.000Z</time>
      </trkpt>
      <trkpt lat="49.48801" lon="-1.29549">
        <ele>2.653855</ele>
        <time>2022-07-31T13:03:39.000Z</time>
      </trkpt>
      <trkpt lat="49.48797" lon="-1.29556">
        <ele>2.675176</ele>
        <time>2022-07-31T13:03:40.000Z</time>
      </trkpt>
      <trkpt lat="49.48794" lon="-1.29562">
        <ele>2.69496</ele>
        <time>2022-07-31T13:03:41.000Z</time>
      </trkpt>
      <trkpt lat="49.48791" lon="-1.29569">
        <ele>2.715595</ele>
        <time>2022-07-31T13:03:42.000Z</time>
      </trkpt>
      <trkpt lat="49.48789" lon="-1.29576">
        <ele>2.734796</ele>
        <time>2022-07-31T13:03:43.000Z</time>
      </trkpt>
      <trkpt lat="49.48785" lon="-1.29583">
        <ele>2.756235</ele>
        <time>2022-07-31T13:03:44.000Z</time>
      </trkpt>
      <trkpt lat="49.48783" lon="-1.29591">
        <ele>2.776616</ele>
        <time>2022-07-31T13:03:45.000Z</time>
      </trkpt>
      <trkpt lat="49.48781" lon="-1.29598">
        <ele>2.79777</ele>
        <time>2022-07-31T13:03:46.000Z</time>
      </trkpt>
      <trkpt lat="49.48778" lon="-1.29606">
        <ele>2.818151</ele>
        <time>2022-07-31T13:03:47.000Z</time>
      </trkpt>
      <trkpt lat="49.48776" lon="-1.29614">
        <ele>2.838623</ele>
        <time>2022-07-31T13:03:48.000Z</time>
      </trkpt>
      <trkpt lat="49.48774" lon="-1.29621">
        <ele>2.858864</ele>
        <time>2022-07-31T13:03:49.000Z</time>
      </trkpt>
      <trkpt lat="49.48773" lon="-1.29629">
        <ele>2.879434</ele>
        <time>2022-07-31T13:03:50.000Z</time>
      </trkpt>
      <trkpt lat="49.48771" lon="-1.29637">
        <ele>2.90024</ele>
        <time>2022-07-31T13:03:51.000Z</time>
      </trkpt>
      <trkpt lat="49.4877" lon="-1.29645">
        <ele>2.92026</ele>
        <time>2022-07-31T13:03:52.000Z</time>
      </trkpt>
      <trkpt lat="49.48769" lon="-1.29653">
        <ele>2.93997</ele>
        <time>2022-07-31T13:03:53.000Z</time>
      </trkpt>
      <trkpt lat="49.48769" lon="-1.29661">
        <ele>2.958834</ele>
        <time>2022-07-31T13:03:54.000Z</time>
      </trkpt>
      <trkpt lat="49.48768" lon="-1.29669">
        <ele>2.977892</ele>
        <time>2022-07-31T13:03:55.000Z</time>
      </trkpt>
      <trkpt lat="49.48768" lon="-1.29676">
        <ele>2.996322</ele>
        <time>2022-07-31T13:03:56.000Z</time>
      </trkpt>
      <trkpt lat="49.48767" lon="-1.29684">
        <ele>3.015619</ele>
        <time>2022-07-31T13:03:57.000Z</time>
      </trkpt>
      <trkpt lat="49.48767" lon="-1.29691">
        <ele>3.03433</ele>
        <time>2022-07-31T13:03:58.000Z</time>
      </trkpt>
      <trkpt lat="49.48766" lon="-1.29699">
        <ele>3.053876</ele>
        <time>2022-07-31T13:03:59.000Z</time>
      </trkpt>
      <trkpt lat="49.48765" lon="-1.29707">
        <ele>3.07274</ele>
        <time>2022-07-31T13:04:00.000Z</time>
      </trkpt>
      <trkpt lat="49.48765" lon="-1.29714">
        <ele>3.09131</ele>
        <time>2022-07-31T13:04:01.000Z</time>
      </trkpt>
      <trkpt lat="49.48764" lon="-1.29722">
        <ele>3.110368</ele>
        <time>2022-07-31T13:04:02.000Z</time>
      </trkpt>
      <trkpt lat="49.48764" lon="-1.2973">
        <ele>3.129718</ele>
        <time>2022-07-31T13:04:03.000Z</time>
      </trkpt>
      <trkpt lat="49.48763" lon="-1.29738">
        <ele>3.148675</ele>
        <time>2022-07-31T13:04:04.000Z</time>
      </trkpt>
      <trkpt lat="49.48763" lon="-1.29745">
        <ele>3.167977</ele>
        <time>2022-07-31T13:04:05.000Z</time>
      </trkpt>
      <trkpt lat="49.48762" lon="-1.29753">
        <ele>3.302123</ele>
        <time>2022-07-31T13:04:06.000Z</time>
      </trkpt>
      <trkpt lat="49.48761" lon="-1.29761">
        <ele>3.448534</ele>
        <time>2022-07-31T13:04:07.000Z</time>
      </trkpt>
      <trkpt lat="49.48759" lon="-1.29769">
        <ele>3.597991</ele>
        <time>2022-07-31T13:04:08.000Z</time>
      </trkpt>
      <trkpt lat="49.48759" lon="-1.29776">
        <ele>3.739268</ele>
        <time>2022-07-31T13:04:09.000Z</time>
      </trkpt>
      <trkpt lat="49.48758" lon="-1.29784">
        <ele>3.889423</ele>
        <time>2022-07-31T13:04:10.000Z</time>
      </trkpt>
      <trkpt lat="49.48757" lon="-1.29792">
        <ele>4.032179</ele>
        <time>2022-07-31T13:04:11.000Z</time>
      </trkpt>
      <trkpt lat="49.48757" lon="-1.29799">
        <ele>4.173076</ele>
        <time>2022-07-31T13:04:12.000Z</time>
      </trkpt>
      <trkpt lat="49.48756" lon="-1.29806">
        <ele>4.312182</ele>
        <time>2022-07-31T13:04:13.000Z</time>
      </trkpt>
      <trkpt lat="49.48755" lon="-1.29814">
        <ele>4.456781</ele>
        <time>2022-07-31T13:04:14.000Z</time>
      </trkpt>
      <trkpt lat="49.48754" lon="-1.29822">
        <ele>4.603597</ele>
        <time>2022-07-31T13:04:15.000Z</time>
      </trkpt>
      <trkpt lat="49.48754" lon="-1.29829">
        <ele>4.744494</ele>
        <time>2022-07-31T13:04:16.000Z</time>
      </trkpt>
      <trkpt lat="49.48753" lon="-1.29837">
        <ele>4.8846</ele>
        <time>2022-07-31T13:04:17.000Z</time>
      </trkpt>
      <trkpt lat="49.48753" lon="-1.29845">
        <ele>5.033264</ele>
        <time>2022-07-31T13:04:18.000Z</time>
      </trkpt>
      <trkpt lat="49.48752" lon="-1.29852">
        <ele>5.175231</ele>
        <time>2022-07-31T13:04:19.000Z</time>
      </trkpt>
      <trkpt lat="49.48752" lon="-1.2986">
        <ele>5.325385</ele>
        <time>2022-07-31T13:04:20.000Z</time>
      </trkpt>
      <trkpt lat="49.48751" lon="-1.29868">
        <ele>5.474049</ele>
        <time>2022-07-31T13:04:21.000Z</time>
      </trkpt>
      <trkpt lat="49.48751" lon="-1.29876">
        <ele>5.623461</ele>
        <time>2022-07-31T13:04:22.000Z</time>
      </trkpt>
      <trkpt lat="49.48751" lon="-1.29884">
        <ele>5.765167</ele>
        <time>2022-07-31T13:04:23.000Z</time>
      </trkpt>
      <trkpt lat="49.4875" lon="-1.29892">
        <ele>5.912718</ele>
        <time>2022-07-31T13:04:24.000Z</time>
      </trkpt>
      <trkpt lat="49.48749" lon="-1.299">
        <ele>6.066449</ele>
        <time>2022-07-31T13:04:25.000Z</time>
      </trkpt>
      <trkpt lat="49.48749" lon="-1.29908">
        <ele>6.216604</ele>
        <time>2022-07-31T13:04:26.000Z</time>
      </trkpt>
      <trkpt lat="49.48749" lon="-1.29916">
        <ele>6.360433</ele>
        <time>2022-07-31T13:04:27.000Z</time>
      </trkpt>
      <trkpt lat="49.48748" lon="-1.29923">
        <ele>6.506122</ele>
        <time>2022-07-31T13:04:28.000Z</time>
      </trkpt>
      <trkpt lat="49.48747" lon="-1.29931">
        <ele>6.652533</ele>
        <time>2022-07-31T13:04:29.000Z</time>
      </trkpt>
      <trkpt lat="49.48747" lon="-1.29939">
        <ele>6.793431</ele>
        <time>2022-07-31T13:04:30.000Z</time>
      </trkpt>
      <trkpt lat="49.48745" lon="-1.29946">
        <ele>6.932768</ele>
        <time>2022-07-31T13:04:31.000Z</time>
      </trkpt>
      <trkpt lat="49.48744" lon="-1.29953">
        <ele>7.07289</ele>
        <time>2022-07-31T13:04:32.000Z</time>
      </trkpt>
      <trkpt lat="49.48743" lon="-1.2996">
        <ele>7.203104</ele>
        <time>2022-07-31T13:04:33.000Z</time>
      </trkpt>
      <trkpt lat="49.48742" lon="-1.29967">
        <ele>7.334488</ele>
        <time>2022-07-31T13:04:34.000Z</time>
      </trkpt>
      <trkpt lat="49.48741" lon="-1.29974">
        <ele>7.468126</ele>
        <time>2022-07-31T13:04:35.000Z</time>
      </trkpt>
      <trkpt lat="49.4874" lon="-1.29981">
        <ele>7.603873</ele>
        <time>2022-07-31T13:04:36.000Z</time>
      </trkpt>
      <trkpt lat="49.48739" lon="-1.29988">
        <ele>7.736924</ele>
        <time>2022-07-31T13:04:37.000Z</time>
      </trkpt>
      <trkpt lat="49.48737" lon="-1.29995">
        <ele>7.878058</ele>
        <time>2022-07-31T13:04:38.000Z</time>
      </trkpt>
      <trkpt lat="49.48736" lon="-1.30002">
        <ele>8.01534</ele>
        <time>2022-07-31T13:04:39.000Z</time>
      </trkpt>
      <trkpt lat="49.48735" lon="-1.30009">
        <ele>8.148391</ele>
        <time>2022-07-31T13:04:40.000Z</time>
      </trkpt>
      <trkpt lat="49.48735" lon="-1.30016">
        <ele>8.279414</ele>
        <time>2022-07-31T13:04:41.000Z</time>
      </trkpt>
      <trkpt lat="49.48735" lon="-1.30023">
        <ele>8.546745</ele>
        <time>2022-07-31T13:04:42.000Z</time>
      </trkpt>
      <trkpt lat="49.48735" lon="-1.3003">
        <ele>8.881368</ele>
        <time>2022-07-31T13:04:43.000Z</time>
      </trkpt>
      <trkpt lat="49.48735" lon="-1.30036">
        <ele>9.20488</ele>
        <time>2022-07-31T13:04:44.000Z</time>
      </trkpt>
      <trkpt lat="49.48735" lon="-1.30042">
        <ele>9.540157</ele>
        <time>2022-07-31T13:04:45.000Z</time>
      </trkpt>
      <trkpt lat="49.48736" lon="-1.30049">
        <ele>9.866385</ele>
        <time>2022-07-31T13:04:46.000Z</time>
      </trkpt>
      <trkpt lat="49.48737" lon="-1.30054">
        <ele>10.174533</ele>
        <time>2022-07-31T13:04:47.000Z</time>
      </trkpt>
      <trkpt lat="49.48739" lon="-1.3006">
        <ele>10.475078</ele>
        <time>2022-07-31T13:04:48.000Z</time>
      </trkpt>
      <trkpt lat="49.4874" lon="-1.30065">
        <ele>10.779856</ele>
        <time>2022-07-31T13:04:49.000Z</time>
      </trkpt>
      <trkpt lat="49.48741" lon="-1.3007">
        <ele>11.036402</ele>
        <time>2022-07-31T13:04:50.000Z</time>
      </trkpt>
      <trkpt lat="49.48743" lon="-1.30075">
        <ele>11.313442</ele>
        <time>2022-07-31T13:04:51.000Z</time>
      </trkpt>
      <trkpt lat="49.48744" lon="-1.3008">
        <ele>11.595061</ele>
        <time>2022-07-31T13:04:52.000Z</time>
      </trkpt>
      <trkpt lat="49.48745" lon="-1.30084">
        <ele>11.844151</ele>
        <time>2022-07-31T13:04:53.000Z</time>
      </trkpt>
      <trkpt lat="49.48746" lon="-1.3009">
        <ele>12.130428</ele>
        <time>2022-07-31T13:04:54.000Z</time>
      </trkpt>
      <trkpt lat="49.48746" lon="-1.30095">
        <ele>12.392317</ele>
        <time>2022-07-31T13:04:55.000Z</time>
      </trkpt>
      <trkpt lat="49.48745" lon="-1.30099">
        <ele>12.655745</ele>
        <time>2022-07-31T13:04:56.000Z</time>
      </trkpt>
      <trkpt lat="49.48742" lon="-1.30103">
        <ele>12.931411</ele>
        <time>2022-07-31T13:04:57.000Z</time>
      </trkpt>
      <trkpt lat="49.48739" lon="-1.30105">
        <ele>13.168455</ele>
        <time>2022-07-31T13:04:58.000Z</time>
      </trkpt>
      <trkpt lat="49.48736" lon="-1.30105">
        <ele>13.445172</ele>
        <time>2022-07-31T13:04:59.000Z</time>
      </trkpt>
      <trkpt lat="49.48733" lon="-1.30104">
        <ele>13.675846</ele>
        <time>2022-07-31T13:05:00.000Z</time>
      </trkpt>
      <trkpt lat="49.48729" lon="-1.30103">
        <ele>13.959295</ele>
        <time>2022-07-31T13:05:01.000Z</time>
      </trkpt>
      <trkpt lat="49.48725" lon="-1.30103">
        <ele>14.268651</ele>
        <time>2022-07-31T13:05:02.000Z</time>
      </trkpt>
      <trkpt lat="49.48722" lon="-1.30103">
        <ele>14.545511</ele>
        <time>2022-07-31T13:05:03.000Z</time>
      </trkpt>
      <trkpt lat="49.48719" lon="-1.30102">
        <ele>14.799298</ele>
        <time>2022-07-31T13:05:04.000Z</time>
      </trkpt>
      <trkpt lat="49.48715" lon="-1.30102">
        <ele>15.101258</ele>
        <time>2022-07-31T13:05:05.000Z</time>
      </trkpt>
      <trkpt lat="49.48711" lon="-1.30101">
        <ele>15.415645</ele>
        <time>2022-07-31T13:05:06.000Z</time>
      </trkpt>
      <trkpt lat="49.48707" lon="-1.301">
        <ele>15.743786</ele>
        <time>2022-07-31T13:05:07.000Z</time>
      </trkpt>
      <trkpt lat="49.48703" lon="-1.30099">
        <ele>16.052459</ele>
        <time>2022-07-31T13:05:08.000Z</time>
      </trkpt>
      <trkpt lat="49.48699" lon="-1.301">
        <ele>16.355639</ele>
        <time>2022-07-31T13:05:09.000Z</time>
      </trkpt>
      <trkpt lat="49.48695" lon="-1.30101">
        <ele>16.663352</ele>
        <time>2022-07-31T13:05:10.000Z</time>
      </trkpt>
      <trkpt lat="49.48692" lon="-1.30104">
        <ele>16.96953</ele>
        <time>2022-07-31T13:05:11.000Z</time>
      </trkpt>
      <trkpt lat="49.48689" lon="-1.30107">
        <ele>17.265704</ele>
        <time>2022-07-31T13:05:12.000Z</time>
      </trkpt>
      <trkpt lat="49.48685" lon="-1.3011">
        <ele>17.587494</ele>
        <time>2022-07-31T13:05:13.000Z</time>
      </trkpt>
      <trkpt lat="49.48682" lon="-1.30113">
        <ele>17.886371</ele>
        <time>2022-07-31T13:05:14.000Z</time>
      </trkpt>
      <trkpt lat="49.48679" lon="-1.30116">
        <ele>18.177669</ele>
        <time>2022-07-31T13:05:15.000Z</time>
      </trkpt>
      <trkpt lat="49.48676" lon="-1.3012">
        <ele>18.462787</ele>
        <time>2022-07-31T13:05:16.000Z</time>
      </trkpt>
      <trkpt lat="49.48674" lon="-1.30123">
        <ele>18.732462</ele>
        <time>2022-07-31T13:05:17.000Z</time>
      </trkpt>
      <trkpt lat="49.48671" lon="-1.30127">
        <ele>18.998841</ele>
        <time>2022-07-31T13:05:18.000Z</time>
      </trkpt>
      <trkpt lat="49.48668" lon="-1.3013">
        <ele>19.2776</ele>
        <time>2022-07-31T13:05:19.000Z</time>
      </trkpt>
      <trkpt lat="49.48665" lon="-1.30133">
        <ele>19.565757</ele>
        <time>2022-07-31T13:05:20.000Z</time>
      </trkpt>
      <trkpt lat="49.48663" lon="-1.30136">
        <ele>19.825724</ele>
        <time>2022-07-31T13:05:21.000Z</time>
      </trkpt>
      <trkpt lat="49.4866" lon="-1.30139">
        <ele>20.067132</ele>
        <time>2022-07-31T13:05:22.000Z</time>
      </trkpt>
      <trkpt lat="49.48658" lon="-1.30142">
        <ele>20.315053</ele>
        <time>2022-07-31T13:05:23.000Z</time>
      </trkpt>
      <trkpt lat="49.48655" lon="-1.30144">
        <ele>20.534301</ele>
        <time>2022-07-31T13:05:24.000Z</time>
      </trkpt>
      <trkpt lat="49.48653" lon="-1.30147">
        <ele>20.751492</ele>
        <time>2022-07-31T13:05:25.000Z</time>
      </trkpt>
      <trkpt lat="49.48651" lon="-1.3015">
        <ele>20.97074</ele>
        <time>2022-07-31T13:05:26.000Z</time>
      </trkpt>
      <trkpt lat="49.48649" lon="-1.30153">
        <ele>21.193152</ele>
        <time>2022-07-31T13:05:27.000Z</time>
      </trkpt>
      <trkpt lat="49.48646" lon="-1.30156">
        <ele>21.450006</ele>
        <time>2022-07-31T13:05:28.000Z</time>
      </trkpt>
      <trkpt lat="49.48644" lon="-1.30159">
        <ele>21.689269</ele>
        <time>2022-07-31T13:05:29.000Z</time>
      </trkpt>
      <trkpt lat="49.48642" lon="-1.30162">
        <ele>21.93781</ele>
        <time>2022-07-31T13:05:30.000Z</time>
      </trkpt>
      <trkpt lat="49.4864" lon="-1.30165">
        <ele>22.170139</ele>
        <time>2022-07-31T13:05:31.000Z</time>
      </trkpt>
      <trkpt lat="49.48637" lon="-1.30168">
        <ele>22.408443</ele>
        <time>2022-07-31T13:05:32.000Z</time>
      </trkpt>
      <trkpt lat="49.48635" lon="-1.30171">
        <ele>22.588844</ele>
        <time>2022-07-31T13:05:33.000Z</time>
      </trkpt>
      <trkpt lat="49.48633" lon="-1.30175">
        <ele>22.687079</ele>
        <time>2022-07-31T13:05:34.000Z</time>
      </trkpt>
      <trkpt lat="49.4863" lon="-1.30178">
        <ele>22.788673</ele>
        <time>2022-07-31T13:05:35.000Z</time>
      </trkpt>
      <trkpt lat="49.48629" lon="-1.30182">
        <ele>22.878003</ele>
        <time>2022-07-31T13:05:36.000Z</time>
      </trkpt>
      <trkpt lat="49.48627" lon="-1.30186">
        <ele>22.960387</ele>
        <time>2022-07-31T13:05:37.000Z</time>
      </trkpt>
      <trkpt lat="49.48626" lon="-1.3019">
        <ele>23.052387</ele>
        <time>2022-07-31T13:05:38.000Z</time>
      </trkpt>
      <trkpt lat="49.48624" lon="-1.30193">
        <ele>23.136499</ele>
        <time>2022-07-31T13:05:39.000Z</time>
      </trkpt>
      <trkpt lat="49.48623" lon="-1.30198">
        <ele>23.227616</ele>
        <time>2022-07-31T13:05:40.000Z</time>
      </trkpt>
      <trkpt lat="49.48622" lon="-1.30202">
        <ele>23.316095</ele>
        <time>2022-07-31T13:05:41.000Z</time>
      </trkpt>
      <trkpt lat="49.48621" lon="-1.30207">
        <ele>23.416686</ele>
        <time>2022-07-31T13:05:42.000Z</time>
      </trkpt>
      <trkpt lat="49.4862" lon="-1.30212">
        <ele>23.523984</ele>
        <time>2022-07-31T13:05:43.000Z</time>
      </trkpt>
      <trkpt lat="49.48619" lon="-1.30217">
        <ele>23.62742</ele>
        <time>2022-07-31T13:05:44.000Z</time>
      </trkpt>
      <trkpt lat="49.48618" lon="-1.30222">
        <ele>23.727466</ele>
        <time>2022-07-31T13:05:45.000Z</time>
      </trkpt>
      <trkpt lat="49.48616" lon="-1.30227">
        <ele>23.833127</ele>
        <time>2022-07-31T13:05:46.000Z</time>
      </trkpt>
      <trkpt lat="49.48615" lon="-1.30231">
        <ele>23.925342</ele>
        <time>2022-07-31T13:05:47.000Z</time>
      </trkpt>
      <trkpt lat="49.48614" lon="-1.30236">
        <ele>24.025389</ele>
        <time>2022-07-31T13:05:48.000Z</time>
      </trkpt>
      <trkpt lat="49.48613" lon="-1.3024">
        <ele>24.125858</ele>
        <time>2022-07-31T13:05:49.000Z</time>
      </trkpt>
      <trkpt lat="49.48611" lon="-1.30245">
        <ele>24.224106</ele>
        <time>2022-07-31T13:05:50.000Z</time>
      </trkpt>
      <trkpt lat="49.4861" lon="-1.30249">
        <ele>24.324575</ele>
        <time>2022-07-31T13:05:51.000Z</time>
      </trkpt>
      <trkpt lat="49.48608" lon="-1.30254">
        <ele>24.415693</ele>
        <time>2022-07-31T13:05:52.000Z</time>
      </trkpt>
      <trkpt lat="49.48606" lon="-1.30258">
        <ele>24.520805</ele>
        <time>2022-07-31T13:05:53.000Z</time>
      </trkpt>
      <trkpt lat="49.48605" lon="-1.30263">
        <ele>24.625917</ele>
        <time>2022-07-31T13:05:54.000Z</time>
      </trkpt>
      <trkpt lat="49.48603" lon="-1.30267">
        <ele>24.727767</ele>
        <time>2022-07-31T13:05:55.000Z</time>
      </trkpt>
      <trkpt lat="49.48601" lon="-1.30271">
        <ele>24.815364</ele>
        <time>2022-07-31T13:05:56.000Z</time>
      </trkpt>
      <trkpt lat="49.486" lon="-1.30275">
        <ele>24.907365</ele>
        <time>2022-07-31T13:05:57.000Z</time>
      </trkpt>
      <trkpt lat="49.48598" lon="-1.30279">
        <ele>25.002839</ele>
        <time>2022-07-31T13:05:58.000Z</time>
      </trkpt>
      <trkpt lat="49.48596" lon="-1.30283">
        <ele>25.091527</ele>
        <time>2022-07-31T13:05:59.000Z</time>
      </trkpt>
      <trkpt lat="49.48594" lon="-1.30286">
        <ele>25.185797</ele>
        <time>2022-07-31T13:06:00.000Z</time>
      </trkpt>
      <trkpt lat="49.48593" lon="-1.3029">
        <ele>25.269616</ele>
        <time>2022-07-31T13:06:01.000Z</time>
      </trkpt>
      <trkpt lat="49.48591" lon="-1.30293">
        <ele>25.358947</ele>
        <time>2022-07-31T13:06:02.000Z</time>
      </trkpt>
      <trkpt lat="49.48589" lon="-1.30297">
        <ele>25.448278</ele>
        <time>2022-07-31T13:06:03.000Z</time>
      </trkpt>
      <trkpt lat="49.48587" lon="-1.303">
        <ele>25.534639</ele>
        <time>2022-07-31T13:06:04.000Z</time>
      </trkpt>
      <trkpt lat="49.48586" lon="-1.30304">
        <ele>25.613601</ele>
        <time>2022-07-31T13:06:05.000Z</time>
      </trkpt>
      <trkpt lat="49.48583" lon="-1.30307">
        <ele>25.708984</ele>
        <time>2022-07-31T13:06:06.000Z</time>
      </trkpt>
      <trkpt lat="49.48582" lon="-1.30311">
        <ele>25.797672</ele>
        <time>2022-07-31T13:06:07.000Z</time>
      </trkpt>
      <trkpt lat="49.4858" lon="-1.30315">
        <ele>25.888011</ele>
        <time>2022-07-31T13:06:08.000Z</time>
      </trkpt>
      <trkpt lat="49.48578" lon="-1.30318">
        <ele>25.976401</ele>
        <time>2022-07-31T13:06:09.000Z</time>
      </trkpt>
      <trkpt lat="49.48576" lon="-1.30321">
        <ele>26.061307</ele>
        <time>2022-07-31T13:06:10.000Z</time>
      </trkpt>
      <trkpt lat="49.48575" lon="-1.30324">
        <ele>26.13885</ele>
        <time>2022-07-31T13:06:11.000Z</time>
      </trkpt>
      <trkpt lat="49.48573" lon="-1.30328">
        <ele>26.226687</ele>
        <time>2022-07-31T13:06:12.000Z</time>
      </trkpt>
      <trkpt lat="49.48572" lon="-1.30331">
        <ele>26.305649</ele>
        <time>2022-07-31T13:06:13.000Z</time>
      </trkpt>
      <trkpt lat="49.4857" lon="-1.30335">
        <ele>26.39498</ele>
        <time>2022-07-31T13:06:14.000Z</time>
      </trkpt>
      <trkpt lat="49.48568" lon="-1.30338">
        <ele>26.470566</ele>
        <time>2022-07-31T13:06:15.000Z</time>
      </trkpt>
      <trkpt lat="49.48566" lon="-1.30341">
        <ele>26.552623</ele>
        <time>2022-07-31T13:06:16.000Z</time>
      </trkpt>
      <trkpt lat="49.48565" lon="-1.30344">
        <ele>26.638985</ele>
        <time>2022-07-31T13:06:17.000Z</time>
      </trkpt>
      <trkpt lat="49.48563" lon="-1.30348">
        <ele>26.72121</ele>
        <time>2022-07-31T13:06:18.000Z</time>
      </trkpt>
      <trkpt lat="49.48562" lon="-1.30351">
        <ele>26.788998</ele>
        <time>2022-07-31T13:06:19.000Z</time>
      </trkpt>
      <trkpt lat="49.48561" lon="-1.30354">
        <ele>26.862916</ele>
        <time>2022-07-31T13:06:20.000Z</time>
      </trkpt>
      <trkpt lat="49.4856" lon="-1.30357">
        <ele>26.930031</ele>
        <time>2022-07-31T13:06:21.000Z</time>
      </trkpt>
      <trkpt lat="49.48559" lon="-1.3036">
        <ele>27.000659</ele>
        <time>2022-07-31T13:06:22.000Z</time>
      </trkpt>
      <trkpt lat="49.48558" lon="-1.30364">
        <ele>27.074382</ele>
        <time>2022-07-31T13:06:23.000Z</time>
      </trkpt>
      <trkpt lat="49.48557" lon="-1.30367">
        <ele>27.149268</ele>
        <time>2022-07-31T13:06:24.000Z</time>
      </trkpt>
      <trkpt lat="49.48556" lon="-1.30371">
        <ele>27.214499</ele>
        <time>2022-07-31T13:06:25.000Z</time>
      </trkpt>
      <trkpt lat="49.48556" lon="-1.30374">
        <ele>27.27693</ele>
        <time>2022-07-31T13:06:26.000Z</time>
      </trkpt>
      <trkpt lat="49.48554" lon="-1.30376">
        <ele>27.336639</ele>
        <time>2022-07-31T13:06:27.000Z</time>
      </trkpt>
      <trkpt lat="49.48552" lon="-1.30377">
        <ele>27.400145</ele>
        <time>2022-07-31T13:06:28.000Z</time>
      </trkpt>
      <trkpt lat="49.4855" lon="-1.30374">
        <ele>27.487466</ele>
        <time>2022-07-31T13:06:30.000Z</time>
      </trkpt>
      <trkpt lat="49.48548" lon="-1.3037">
        <ele>27.584515</ele>
        <time>2022-07-31T13:06:32.000Z</time>
      </trkpt>
      <trkpt lat="49.48548" lon="-1.30367">
        <ele>27.646416</ele>
        <time>2022-07-31T13:06:33.000Z</time>
      </trkpt>
      <trkpt lat="49.48547" lon="-1.30364">
        <ele>27.71471</ele>
        <time>2022-07-31T13:06:34.000Z</time>
      </trkpt>
      <trkpt lat="49.48545" lon="-1.30361">
        <ele>27.796767</ele>
        <time>2022-07-31T13:06:35.000Z</time>
      </trkpt>
      <trkpt lat="49.48543" lon="-1.30359">
        <ele>27.870877</ele>
        <time>2022-07-31T13:06:36.000Z</time>
      </trkpt>
      <trkpt lat="49.48541" lon="-1.30356">
        <ele>27.94752</ele>
        <time>2022-07-31T13:06:37.000Z</time>
      </trkpt>
      <trkpt lat="49.48539" lon="-1.30354">
        <ele>27.955198</ele>
        <time>2022-07-31T13:06:38.000Z</time>
      </trkpt>
      <trkpt lat="49.48538" lon="-1.30352">
        <ele>27.935053</ele>
        <time>2022-07-31T13:06:39.000Z</time>
      </trkpt>
      <trkpt lat="49.48536" lon="-1.3035">
        <ele>27.90856</ele>
        <time>2022-07-31T13:06:40.000Z</time>
      </trkpt>
      <trkpt lat="49.48534" lon="-1.30347">
        <ele>27.880219</ele>
        <time>2022-07-31T13:06:41.000Z</time>
      </trkpt>
      <trkpt lat="49.48532" lon="-1.30345">
        <ele>27.850158</ele>
        <time>2022-07-31T13:06:42.000Z</time>
      </trkpt>
      <trkpt lat="49.48529" lon="-1.30342">
        <ele>27.817482</ele>
        <time>2022-07-31T13:06:43.000Z</time>
      </trkpt>
      <trkpt lat="49.48527" lon="-1.3034">
        <ele>27.786622</ele>
        <time>2022-07-31T13:06:44.000Z</time>
      </trkpt>
      <trkpt lat="49.48525" lon="-1.30337">
        <ele>27.75679</ele>
        <time>2022-07-31T13:06:45.000Z</time>
      </trkpt>
      <trkpt lat="49.48523" lon="-1.30333">
        <ele>27.723615</ele>
        <time>2022-07-31T13:06:46.000Z</time>
      </trkpt>
      <trkpt lat="49.4852" lon="-1.30331">
        <ele>27.688837</ele>
        <time>2022-07-31T13:06:47.000Z</time>
      </trkpt>
      <trkpt lat="49.48518" lon="-1.30328">
        <ele>27.658865</ele>
        <time>2022-07-31T13:06:48.000Z</time>
      </trkpt>
      <trkpt lat="49.48515" lon="-1.30325">
        <ele>27.621345</ele>
        <time>2022-07-31T13:06:49.000Z</time>
      </trkpt>
      <trkpt lat="49.48513" lon="-1.30322">
        <ele>27.589132</ele>
        <time>2022-07-31T13:06:50.000Z</time>
      </trkpt>
      <trkpt lat="49.4851" lon="-1.30319">
        <ele>27.553518</ele>
        <time>2022-07-31T13:06:51.000Z</time>
      </trkpt>
      <trkpt lat="49.48507" lon="-1.30316">
        <ele>27.511693</ele>
        <time>2022-07-31T13:06:52.000Z</time>
      </trkpt>
      <trkpt lat="49.48505" lon="-1.30313">
        <ele>27.475207</ele>
        <time>2022-07-31T13:06:53.000Z</time>
      </trkpt>
      <trkpt lat="49.48501" lon="-1.30309">
        <ele>27.431766</ele>
        <time>2022-07-31T13:06:54.000Z</time>
      </trkpt>
      <trkpt lat="49.48499" lon="-1.30306">
        <ele>27.392233</ele>
        <time>2022-07-31T13:06:55.000Z</time>
      </trkpt>
      <trkpt lat="49.48495" lon="-1.30302">
        <ele>27.348367</ele>
        <time>2022-07-31T13:06:56.000Z</time>
      </trkpt>
      <trkpt lat="49.48492" lon="-1.30298">
        <ele>27.30407</ele>
        <time>2022-07-31T13:06:57.000Z</time>
      </trkpt>
      <trkpt lat="49.48489" lon="-1.30295">
        <ele>27.260205</ele>
        <time>2022-07-31T13:06:58.000Z</time>
      </trkpt>
      <trkpt lat="49.48485" lon="-1.30291">
        <ele>27.211542</ele>
        <time>2022-07-31T13:06:59.000Z</time>
      </trkpt>
      <trkpt lat="49.48483" lon="-1.30286">
        <ele>27.168192</ele>
        <time>2022-07-31T13:07:00.000Z</time>
      </trkpt>
      <trkpt lat="49.48479" lon="-1.30282">
        <ele>27.117364</ele>
        <time>2022-07-31T13:07:01.000Z</time>
      </trkpt>
      <trkpt lat="49.48476" lon="-1.30277">
        <ele>27.067381</ele>
        <time>2022-07-31T13:07:02.000Z</time>
      </trkpt>
      <trkpt lat="49.48472" lon="-1.30273">
        <ele>27.013953</ele>
        <time>2022-07-31T13:07:03.000Z</time>
      </trkpt>
      <trkpt lat="49.48468" lon="-1.30268">
        <ele>26.95704</ele>
        <time>2022-07-31T13:07:04.000Z</time>
      </trkpt>
      <trkpt lat="49.48463" lon="-1.30263">
        <ele>26.899709</ele>
        <time>2022-07-31T13:07:05.000Z</time>
      </trkpt>
      <trkpt lat="49.48459" lon="-1.30258">
        <ele>26.840184</ele>
        <time>2022-07-31T13:07:06.000Z</time>
      </trkpt>
      <trkpt lat="49.48455" lon="-1.30252">
        <ele>26.779746</ele>
        <time>2022-07-31T13:07:07.000Z</time>
      </trkpt>
      <trkpt lat="49.48451" lon="-1.30246">
        <ele>26.719194</ele>
        <time>2022-07-31T13:07:08.000Z</time>
      </trkpt>
      <trkpt lat="49.48446" lon="-1.30241">
        <ele>26.65577</ele>
        <time>2022-07-31T13:07:09.000Z</time>
      </trkpt>
      <trkpt lat="49.48442" lon="-1.30235">
        <ele>26.590185</ele>
        <time>2022-07-31T13:07:10.000Z</time>
      </trkpt>
      <trkpt lat="49.48437" lon="-1.3023">
        <ele>26.531109</ele>
        <time>2022-07-31T13:07:11.000Z</time>
      </trkpt>
      <trkpt lat="49.48433" lon="-1.30224">
        <ele>26.464663</ele>
        <time>2022-07-31T13:07:12.000Z</time>
      </trkpt>
      <trkpt lat="49.48428" lon="-1.30219">
        <ele>26.398005</ele>
        <time>2022-07-31T13:07:13.000Z</time>
      </trkpt>
      <trkpt lat="49.48422" lon="-1.30214">
        <ele>26.331733</ele>
        <time>2022-07-31T13:07:14.000Z</time>
      </trkpt>
      <trkpt lat="49.48418" lon="-1.30209">
        <ele>26.26657</ele>
        <time>2022-07-31T13:07:15.000Z</time>
      </trkpt>
      <trkpt lat="49.48415" lon="-1.30202">
        <ele>26.20865</ele>
        <time>2022-07-31T13:07:16.000Z</time>
      </trkpt>
      <trkpt lat="49.48413" lon="-1.30195">
        <ele>26.152441</ele>
        <time>2022-07-31T13:07:17.000Z</time>
      </trkpt>
      <trkpt lat="49.48413" lon="-1.30188">
        <ele>26.104022</ele>
        <time>2022-07-31T13:07:18.000Z</time>
      </trkpt>
      <trkpt lat="49.48414" lon="-1.30182">
        <ele>26.058535</ele>
        <time>2022-07-31T13:07:19.000Z</time>
      </trkpt>
      <trkpt lat="49.48417" lon="-1.30176">
        <ele>26.006421</ele>
        <time>2022-07-31T13:07:20.000Z</time>
      </trkpt>
      <trkpt lat="49.48421" lon="-1.30169">
        <ele>25.881483</ele>
        <time>2022-07-31T13:07:21.000Z</time>
      </trkpt>
      <trkpt lat="49.48426" lon="-1.30163">
        <ele>25.733518</ele>
        <time>2022-07-31T13:07:22.000Z</time>
      </trkpt>
      <trkpt lat="49.48431" lon="-1.30156">
        <ele>25.579308</ele>
        <time>2022-07-31T13:07:23.000Z</time>
      </trkpt>
      <trkpt lat="49.48436" lon="-1.30148">
        <ele>25.411849</ele>
        <time>2022-07-31T13:07:24.000Z</time>
      </trkpt>
      <trkpt lat="49.48441" lon="-1.30141">
        <ele>25.238764</ele>
        <time>2022-07-31T13:07:25.000Z</time>
      </trkpt>
      <trkpt lat="49.48447" lon="-1.30132">
        <ele>25.056754</ele>
        <time>2022-07-31T13:07:26.000Z</time>
      </trkpt>
      <trkpt lat="49.48452" lon="-1.30123">
        <ele>24.877185</ele>
        <time>2022-07-31T13:07:27.000Z</time>
      </trkpt>
      <trkpt lat="49.48458" lon="-1.30114">
        <ele>24.684429</ele>
        <time>2022-07-31T13:07:28.000Z</time>
      </trkpt>
      <trkpt lat="49.48464" lon="-1.30105">
        <ele>24.488867</ele>
        <time>2022-07-31T13:07:29.000Z</time>
      </trkpt>
      <trkpt lat="49.48469" lon="-1.30095">
        <ele>24.299069</ele>
        <time>2022-07-31T13:07:30.000Z</time>
      </trkpt>
      <trkpt lat="49.48475" lon="-1.30086">
        <ele>24.109973</ele>
        <time>2022-07-31T13:07:31.000Z</time>
      </trkpt>
      <trkpt lat="49.4848" lon="-1.30076">
        <ele>23.915608</ele>
        <time>2022-07-31T13:07:32.000Z</time>
      </trkpt>
      <trkpt lat="49.48485" lon="-1.30066">
        <ele>23.729147</ele>
        <time>2022-07-31T13:07:33.000Z</time>
      </trkpt>
      <trkpt lat="49.48491" lon="-1.30056">
        <ele>23.528704</ele>
        <time>2022-07-31T13:07:34.000Z</time>
      </trkpt>
      <trkpt lat="49.48496" lon="-1.30046">
        <ele>23.332027</ele>
        <time>2022-07-31T13:07:35.000Z</time>
      </trkpt>
      <trkpt lat="49.485" lon="-1.30035">
        <ele>23.15218</ele>
        <time>2022-07-31T13:07:36.000Z</time>
      </trkpt>
      <trkpt lat="49.48503" lon="-1.30023">
        <ele>22.943682</ele>
        <time>2022-07-31T13:07:37.000Z</time>
      </trkpt>
      <trkpt lat="49.48503" lon="-1.30011">
        <ele>22.769267</ele>
        <time>2022-07-31T13:07:38.000Z</time>
      </trkpt>
      <trkpt lat="49.48501" lon="-1.3">
        <ele>22.593267</ele>
        <time>2022-07-31T13:07:39.000Z</time>
      </trkpt>
      <trkpt lat="49.48496" lon="-1.2999">
        <ele>22.407881</ele>
        <time>2022-07-31T13:07:40.000Z</time>
      </trkpt>
      <trkpt lat="49.48491" lon="-1.29981">
        <ele>22.222582</ele>
        <time>2022-07-31T13:07:41.000Z</time>
      </trkpt>
      <trkpt lat="49.48486" lon="-1.2997">
        <ele>22.019388</ele>
        <time>2022-07-31T13:07:42.000Z</time>
      </trkpt>
      <trkpt lat="49.4848" lon="-1.2996">
        <ele>21.825766</ele>
        <time>2022-07-31T13:07:43.000Z</time>
      </trkpt>
      <trkpt lat="49.48475" lon="-1.29951">
        <ele>21.623181</ele>
        <time>2022-07-31T13:07:44.000Z</time>
      </trkpt>
      <trkpt lat="49.48469" lon="-1.29942">
        <ele>21.417708</ele>
        <time>2022-07-31T13:07:45.000Z</time>
      </trkpt>
      <trkpt lat="49.48464" lon="-1.29933">
        <ele>21.220314</ele>
        <time>2022-07-31T13:07:46.000Z</time>
      </trkpt>
      <trkpt lat="49.48459" lon="-1.29922">
        <ele>21.016222</ele>
        <time>2022-07-31T13:07:47.000Z</time>
      </trkpt>
      <trkpt lat="49.48454" lon="-1.29912">
        <ele>20.81322</ele>
        <time>2022-07-31T13:07:48.000Z</time>
      </trkpt>
      <trkpt lat="49.48449" lon="-1.29902">
        <ele>20.612091</ele>
        <time>2022-07-31T13:07:49.000Z</time>
      </trkpt>
      <trkpt lat="49.48445" lon="-1.29893">
        <ele>20.436378</ele>
        <time>2022-07-31T13:07:50.000Z</time>
      </trkpt>
      <trkpt lat="49.48441" lon="-1.29885">
        <ele>20.258671</ele>
        <time>2022-07-31T13:07:51.000Z</time>
      </trkpt>
      <trkpt lat="49.48437" lon="-1.29877">
        <ele>20.09662</ele>
        <time>2022-07-31T13:07:52.000Z</time>
      </trkpt>
      <trkpt lat="49.48431" lon="-1.29869">
        <ele>19.915087</ele>
        <time>2022-07-31T13:07:53.000Z</time>
      </trkpt>
      <trkpt lat="49.48427" lon="-1.29862">
        <ele>19.743086</ele>
        <time>2022-07-31T13:07:54.000Z</time>
      </trkpt>
      <trkpt lat="49.48421" lon="-1.29855">
        <ele>19.563174</ele>
        <time>2022-07-31T13:07:55.000Z</time>
      </trkpt>
      <trkpt lat="49.48415" lon="-1.29848">
        <ele>19.377296</ele>
        <time>2022-07-31T13:07:56.000Z</time>
      </trkpt>
      <trkpt lat="49.48409" lon="-1.29841">
        <ele>19.198005</ele>
        <time>2022-07-31T13:07:57.000Z</time>
      </trkpt>
      <trkpt lat="49.48402" lon="-1.29836">
        <ele>19.003619</ele>
        <time>2022-07-31T13:07:58.000Z</time>
      </trkpt>
      <trkpt lat="49.48395" lon="-1.29831">
        <ele>18.817458</ele>
        <time>2022-07-31T13:07:59.000Z</time>
      </trkpt>
      <trkpt lat="49.48388" lon="-1.29827">
        <ele>18.623918</ele>
        <time>2022-07-31T13:08:00.000Z</time>
      </trkpt>
      <trkpt lat="49.48381" lon="-1.29824">
        <ele>18.44838</ele>
        <time>2022-07-31T13:08:01.000Z</time>
      </trkpt>
      <trkpt lat="49.48375" lon="-1.2982">
        <ele>18.291596</ele>
        <time>2022-07-31T13:08:02.000Z</time>
      </trkpt>
      <trkpt lat="49.4837" lon="-1.29815">
        <ele>18.138549</ele>
        <time>2022-07-31T13:08:03.000Z</time>
      </trkpt>
      <trkpt lat="49.48365" lon="-1.2981">
        <ele>17.995653</ele>
        <time>2022-07-31T13:08:04.000Z</time>
      </trkpt>
      <trkpt lat="49.4836" lon="-1.29805">
        <ele>17.846224</ele>
        <time>2022-07-31T13:08:05.000Z</time>
      </trkpt>
      <trkpt lat="49.48356" lon="-1.29799">
        <ele>17.697763</ele>
        <time>2022-07-31T13:08:06.000Z</time>
      </trkpt>
      <trkpt lat="49.4835" lon="-1.29793">
        <ele>17.53347</ele>
        <time>2022-07-31T13:08:07.000Z</time>
      </trkpt>
      <trkpt lat="49.48344" lon="-1.29787">
        <ele>17.370516</ele>
        <time>2022-07-31T13:08:08.000Z</time>
      </trkpt>
      <trkpt lat="49.48338" lon="-1.29782">
        <ele>17.320662</ele>
        <time>2022-07-31T13:08:09.000Z</time>
      </trkpt>
      <trkpt lat="49.48332" lon="-1.29776">
        <ele>17.269256</ele>
        <time>2022-07-31T13:08:10.000Z</time>
      </trkpt>
      <trkpt lat="49.48324" lon="-1.29769">
        <ele>17.211845</ele>
        <time>2022-07-31T13:08:11.000Z</time>
      </trkpt>
      <trkpt lat="49.48317" lon="-1.29763">
        <ele>17.152951</ele>
        <time>2022-07-31T13:08:12.000Z</time>
      </trkpt>
      <trkpt lat="49.4831" lon="-1.29756">
        <ele>17.096168</ele>
        <time>2022-07-31T13:08:13.000Z</time>
      </trkpt>
      <trkpt lat="49.48302" lon="-1.29749">
        <ele>17.036113</ele>
        <time>2022-07-31T13:08:14.000Z</time>
      </trkpt>
      <trkpt lat="49.48296" lon="-1.29741">
        <ele>16.979802</ele>
        <time>2022-07-31T13:08:15.000Z</time>
      </trkpt>
      <trkpt lat="49.48289" lon="-1.29734">
        <ele>16.923233</ele>
        <time>2022-07-31T13:08:16.000Z</time>
      </trkpt>
      <trkpt lat="49.48283" lon="-1.29727">
        <ele>16.870386</ele>
        <time>2022-07-31T13:08:17.000Z</time>
      </trkpt>
      <trkpt lat="49.48276" lon="-1.29722">
        <ele>16.819663</ele>
        <time>2022-07-31T13:08:18.000Z</time>
      </trkpt>
      <trkpt lat="49.48269" lon="-1.29719">
        <ele>16.769156</ele>
        <time>2022-07-31T13:08:19.000Z</time>
      </trkpt>
      <trkpt lat="49.48263" lon="-1.29719">
        <ele>16.725196</ele>
        <time>2022-07-31T13:08:20.000Z</time>
      </trkpt>
      <trkpt lat="49.48258" lon="-1.29722">
        <ele>16.689983</ele>
        <time>2022-07-31T13:08:21.000Z</time>
      </trkpt>
      <trkpt lat="49.48254" lon="-1.29725">
        <ele>16.661592</ele>
        <time>2022-07-31T13:08:22.000Z</time>
      </trkpt>
      <trkpt lat="49.48252" lon="-1.29727">
        <ele>16.641653</ele>
        <time>2022-07-31T13:08:23.000Z</time>
      </trkpt>
      <trkpt lat="49.48249" lon="-1.29729">
        <ele>16.623551</ele>
        <time>2022-07-31T13:08:25.000Z</time>
      </trkpt>
      <trkpt lat="49.48243" lon="-1.2973">
        <ele>16.579323</ele>
        <time>2022-07-31T13:08:59.000Z</time>
      </trkpt>
      <trkpt lat="49.48239" lon="-1.2973">
        <ele>16.555276</ele>
        <time>2022-07-31T13:09:00.000Z</time>
      </trkpt>
      <trkpt lat="49.48236" lon="-1.2973">
        <ele>16.533306</ele>
        <time>2022-07-31T13:09:01.000Z</time>
      </trkpt>
      <trkpt lat="49.48232" lon="-1.2973">
        <ele>16.506549</ele>
        <time>2022-07-31T13:09:02.000Z</time>
      </trkpt>
      <trkpt lat="49.48228" lon="-1.29729">
        <ele>16.478138</ele>
        <time>2022-07-31T13:09:03.000Z</time>
      </trkpt>
      <trkpt lat="49.48223" lon="-1.29728">
        <ele>16.445018</ele>
        <time>2022-07-31T13:09:04.000Z</time>
      </trkpt>
      <trkpt lat="49.48219" lon="-1.29726">
        <ele>16.415227</ele>
        <time>2022-07-31T13:09:05.000Z</time>
      </trkpt>
      <trkpt lat="49.48214" lon="-1.29724">
        <ele>16.381114</ele>
        <time>2022-07-31T13:09:06.000Z</time>
      </trkpt>
      <trkpt lat="49.4821" lon="-1.29721">
        <ele>16.347474</ele>
        <time>2022-07-31T13:09:07.000Z</time>
      </trkpt>
      <trkpt lat="49.48205" lon="-1.29719">
        <ele>16.312712</ele>
        <time>2022-07-31T13:09:08.000Z</time>
      </trkpt>
      <trkpt lat="49.48201" lon="-1.29716">
        <ele>16.279893</ele>
        <time>2022-07-31T13:09:09.000Z</time>
      </trkpt>
      <trkpt lat="49.48196" lon="-1.29714">
        <ele>16.247719</ele>
        <time>2022-07-31T13:09:10.000Z</time>
      </trkpt>
      <trkpt lat="49.48191" lon="-1.29711">
        <ele>16.20825</ele>
        <time>2022-07-31T13:09:11.000Z</time>
      </trkpt>
      <trkpt lat="49.48186" lon="-1.29709">
        <ele>16.171533</ele>
        <time>2022-07-31T13:09:12.000Z</time>
      </trkpt>
      <trkpt lat="49.48181" lon="-1.29706">
        <ele>16.182712</ele>
        <time>2022-07-31T13:09:13.000Z</time>
      </trkpt>
      <trkpt lat="49.48176" lon="-1.29703">
        <ele>16.449236</ele>
        <time>2022-07-31T13:09:14.000Z</time>
      </trkpt>
      <trkpt lat="49.48171" lon="-1.29701">
        <ele>16.698685</ele>
        <time>2022-07-31T13:09:15.000Z</time>
      </trkpt>
      <trkpt lat="49.48166" lon="-1.29698">
        <ele>16.961067</ele>
        <time>2022-07-31T13:09:16.000Z</time>
      </trkpt>
      <trkpt lat="49.48161" lon="-1.29696">
        <ele>17.209476</ele>
        <time>2022-07-31T13:09:17.000Z</time>
      </trkpt>
      <trkpt lat="49.48156" lon="-1.29693">
        <ele>17.476534</ele>
        <time>2022-07-31T13:09:18.000Z</time>
      </trkpt>
      <trkpt lat="49.48151" lon="-1.29691">
        <ele>17.706455</ele>
        <time>2022-07-31T13:09:19.000Z</time>
      </trkpt>
      <trkpt lat="49.48147" lon="-1.29688">
        <ele>17.940982</ele>
        <time>2022-07-31T13:09:20.000Z</time>
      </trkpt>
      <trkpt lat="49.48143" lon="-1.29686">
        <ele>18.164108</ele>
        <time>2022-07-31T13:09:21.000Z</time>
      </trkpt>
      <trkpt lat="49.48138" lon="-1.29683">
        <ele>18.414632</ele>
        <time>2022-07-31T13:09:22.000Z</time>
      </trkpt>
      <trkpt lat="49.48134" lon="-1.2968">
        <ele>18.630817</ele>
        <time>2022-07-31T13:09:23.000Z</time>
      </trkpt>
      <trkpt lat="49.4813" lon="-1.29678">
        <ele>18.851567</ele>
        <time>2022-07-31T13:09:24.000Z</time>
      </trkpt>
      <trkpt lat="49.48126" lon="-1.29675">
        <ele>19.055425</ele>
        <time>2022-07-31T13:09:25.000Z</time>
      </trkpt>
      <trkpt lat="49.48122" lon="-1.29672">
        <ele>19.281083</ele>
        <time>2022-07-31T13:09:26.000Z</time>
      </trkpt>
      <trkpt lat="49.48118" lon="-1.29669">
        <ele>19.477468</ele>
        <time>2022-07-31T13:09:27.000Z</time>
      </trkpt>
      <trkpt lat="49.48114" lon="-1.29667">
        <ele>19.688428</ele>
        <time>2022-07-31T13:09:28.000Z</time>
      </trkpt>
      <trkpt lat="49.48111" lon="-1.29664">
        <ele>19.8504</ele>
        <time>2022-07-31T13:09:29.000Z</time>
      </trkpt>
      <trkpt lat="49.48108" lon="-1.29661">
        <ele>20.044008</ele>
        <time>2022-07-31T13:09:30.000Z</time>
      </trkpt>
      <trkpt lat="49.48105" lon="-1.29659">
        <ele>20.195329</ele>
        <time>2022-07-31T13:09:31.000Z</time>
      </trkpt>
      <trkpt lat="49.48102" lon="-1.29657">
        <ele>20.364637</ele>
        <time>2022-07-31T13:09:32.000Z</time>
      </trkpt>
      <trkpt lat="49.48099" lon="-1.29656">
        <ele>20.501902</ele>
        <time>2022-07-31T13:09:33.000Z</time>
      </trkpt>
      <trkpt lat="49.48097" lon="-1.29654">
        <ele>20.627156</ele>
        <time>2022-07-31T13:09:34.000Z</time>
      </trkpt>
      <trkpt lat="49.48094" lon="-1.29652">
        <ele>20.781662</ele>
        <time>2022-07-31T13:09:35.000Z</time>
      </trkpt>
      <trkpt lat="49.48092" lon="-1.2965">
        <ele>20.921417</ele>
        <time>2022-07-31T13:09:36.000Z</time>
      </trkpt>
      <trkpt lat="49.48089" lon="-1.29648">
        <ele>21.059537</ele>
        <time>2022-07-31T13:09:37.000Z</time>
      </trkpt>
      <trkpt lat="49.48086" lon="-1.29646">
        <ele>21.204983</ele>
        <time>2022-07-31T13:09:38.000Z</time>
      </trkpt>
      <trkpt lat="49.48084" lon="-1.29644">
        <ele>21.327121</ele>
        <time>2022-07-31T13:09:39.000Z</time>
      </trkpt>
      <trkpt lat="49.48082" lon="-1.29642">
        <ele>21.4656</ele>
        <time>2022-07-31T13:09:40.000Z</time>
      </trkpt>
      <trkpt lat="49.48079" lon="-1.29641">
        <ele>21.602866</ele>
        <time>2022-07-31T13:09:41.000Z</time>
      </trkpt>
      <trkpt lat="49.48077" lon="-1.29639">
        <ele>21.739545</ele>
        <time>2022-07-31T13:09:42.000Z</time>
      </trkpt>
      <trkpt lat="49.48074" lon="-1.29637">
        <ele>21.87064</ele>
        <time>2022-07-31T13:09:43.000Z</time>
      </trkpt>
      <trkpt lat="49.48072" lon="-1.29635">
        <ele>22.008759</ele>
        <time>2022-07-31T13:09:44.000Z</time>
      </trkpt>
      <trkpt lat="49.48069" lon="-1.29633">
        <ele>22.144875</ele>
        <time>2022-07-31T13:09:45.000Z</time>
      </trkpt>
      <trkpt lat="49.48066" lon="-1.29632">
        <ele>22.29485</ele>
        <time>2022-07-31T13:09:46.000Z</time>
      </trkpt>
      <trkpt lat="49.48064" lon="-1.2963">
        <ele>22.426386</ele>
        <time>2022-07-31T13:09:47.000Z</time>
      </trkpt>
      <trkpt lat="49.48061" lon="-1.29629">
        <ele>22.551462</ele>
        <time>2022-07-31T13:09:48.000Z</time>
      </trkpt>
      <trkpt lat="49.48059" lon="-1.29627">
        <ele>22.700213</ele>
        <time>2022-07-31T13:09:49.000Z</time>
      </trkpt>
      <trkpt lat="49.48056" lon="-1.29625">
        <ele>22.841305</ele>
        <time>2022-07-31T13:09:50.000Z</time>
      </trkpt>
      <trkpt lat="49.48053" lon="-1.29623">
        <ele>22.981061</ele>
        <time>2022-07-31T13:09:51.000Z</time>
      </trkpt>
      <trkpt lat="49.48051" lon="-1.29621">
        <ele>23.128614</ele>
        <time>2022-07-31T13:09:52.000Z</time>
      </trkpt>
      <trkpt lat="49.48048" lon="-1.2962">
        <ele>23.281901</ele>
        <time>2022-07-31T13:09:53.000Z</time>
      </trkpt>
      <trkpt lat="49.48045" lon="-1.29618">
        <ele>23.42038</ele>
        <time>2022-07-31T13:09:54.000Z</time>
      </trkpt>
      <trkpt lat="49.48042" lon="-1.29616">
        <ele>23.590913</ele>
        <time>2022-07-31T13:09:55.000Z</time>
      </trkpt>
      <trkpt lat="49.48038" lon="-1.29613">
        <ele>23.782832</ele>
        <time>2022-07-31T13:09:56.000Z</time>
      </trkpt>
      <trkpt lat="49.48036" lon="-1.29611">
        <ele>23.942758</ele>
        <time>2022-07-31T13:09:57.000Z</time>
      </trkpt>
      <trkpt lat="49.48032" lon="-1.29609">
        <ele>24.114565</ele>
        <time>2022-07-31T13:09:58.000Z</time>
      </trkpt>
      <trkpt lat="49.48029" lon="-1.29606">
        <ele>24.273057</ele>
        <time>2022-07-31T13:09:59.000Z</time>
      </trkpt>
      <trkpt lat="49.48026" lon="-1.29604">
        <ele>24.442366</ele>
        <time>2022-07-31T13:10:00.000Z</time>
      </trkpt>
      <trkpt lat="49.48023" lon="-1.29602">
        <ele>24.626517</ele>
        <time>2022-07-31T13:10:01.000Z</time>
      </trkpt>
      <trkpt lat="49.4802" lon="-1.296">
        <ele>24.785009</ele>
        <time>2022-07-31T13:10:02.000Z</time>
      </trkpt>
      <trkpt lat="49.48016" lon="-1.29598">
        <ele>24.960493</ele>
        <time>2022-07-31T13:10:03.000Z</time>
      </trkpt>
      <trkpt lat="49.48013" lon="-1.29596">
        <ele>24.97344</ele>
        <time>2022-07-31T13:10:04.000Z</time>
      </trkpt>
      <trkpt lat="49.4801" lon="-1.29593">
        <ele>24.987922</ele>
        <time>2022-07-31T13:10:05.000Z</time>
      </trkpt>
      <trkpt lat="49.48007" lon="-1.2959">
        <ele>25.000899</ele>
        <time>2022-07-31T13:10:06.000Z</time>
      </trkpt>
      <trkpt lat="49.48004" lon="-1.29588">
        <ele>25.016467</ele>
        <time>2022-07-31T13:10:07.000Z</time>
      </trkpt>
      <trkpt lat="49.48001" lon="-1.29585">
        <ele>25.031075</ele>
        <time>2022-07-31T13:10:08.000Z</time>
      </trkpt>
      <trkpt lat="49.47998" lon="-1.29582">
        <ele>25.044187</ele>
        <time>2022-07-31T13:10:09.000Z</time>
      </trkpt>
      <trkpt lat="49.47994" lon="-1.2958">
        <ele>25.059968</ele>
        <time>2022-07-31T13:10:10.000Z</time>
      </trkpt>
      <trkpt lat="49.47991" lon="-1.29577">
        <ele>25.074209</ele>
        <time>2022-07-31T13:10:11.000Z</time>
      </trkpt>
      <trkpt lat="49.47988" lon="-1.29575">
        <ele>25.086928</ele>
        <time>2022-07-31T13:10:12.000Z</time>
      </trkpt>
      <trkpt lat="49.47985" lon="-1.29573">
        <ele>25.10028</ele>
        <time>2022-07-31T13:10:13.000Z</time>
      </trkpt>
      <trkpt lat="49.47982" lon="-1.29572">
        <ele>25.111299</ele>
        <time>2022-07-31T13:10:14.000Z</time>
      </trkpt>
      <trkpt lat="49.47981" lon="-1.2957">
        <ele>25.119773</ele>
        <time>2022-07-31T13:10:15.000Z</time>
      </trkpt>
      <trkpt lat="49.47978" lon="-1.29569">
        <ele>25.129588</ele>
        <time>2022-07-31T13:10:16.000Z</time>
      </trkpt>
      <trkpt lat="49.47977" lon="-1.29567">
        <ele>25.137023</ele>
        <time>2022-07-31T13:10:17.000Z</time>
      </trkpt>
      <trkpt lat="49.47975" lon="-1.29566">
        <ele>25.144457</ele>
        <time>2022-07-31T13:10:18.000Z</time>
      </trkpt>
      <trkpt lat="49.47973" lon="-1.29563">
        <ele>25.155786</ele>
        <time>2022-07-31T13:10:20.000Z</time>
      </trkpt>
      <trkpt lat="49.47971" lon="-1.29561">
        <ele>25.16464</ele>
        <time>2022-07-31T13:10:22.000Z</time>
      </trkpt>
      <trkpt lat="49.47969" lon="-1.2956">
        <ele>25.174057</ele>
        <time>2022-07-31T13:10:24.000Z</time>
      </trkpt>
      <trkpt lat="49.47967" lon="-1.29559">
        <ele>25.182113</ele>
        <time>2022-07-31T13:10:28.000Z</time>
      </trkpt>
      <trkpt lat="49.47974" lon="-1.29562">
        <ele>25.211075</ele>
        <time>2022-07-31T13:10:36.000Z</time>
      </trkpt>
      <trkpt lat="49.47976" lon="-1.29564">
        <ele>25.22021</ele>
        <time>2022-07-31T13:10:37.000Z</time>
      </trkpt>
      <trkpt lat="49.47978" lon="-1.29566">
        <ele>25.23035</ele>
        <time>2022-07-31T13:10:38.000Z</time>
      </trkpt>
      <trkpt lat="49.47981" lon="-1.29568">
        <ele>25.241885</ele>
        <time>2022-07-31T13:10:39.000Z</time>
      </trkpt>
      <trkpt lat="49.47983" lon="-1.2957">
        <ele>25.252731</ele>
        <time>2022-07-31T13:10:40.000Z</time>
      </trkpt>
      <trkpt lat="49.47986" lon="-1.29571">
        <ele>25.26514</ele>
        <time>2022-07-31T13:10:41.000Z</time>
      </trkpt>
      <trkpt lat="49.47988" lon="-1.29574">
        <ele>25.276167</ele>
        <time>2022-07-31T13:10:42.000Z</time>
      </trkpt>
      <trkpt lat="49.4799" lon="-1.29576">
        <ele>25.286087</ele>
        <time>2022-07-31T13:10:43.000Z</time>
      </trkpt>
      <trkpt lat="49.47992" lon="-1.29579">
        <ele>25.296641</ele>
        <time>2022-07-31T13:10:44.000Z</time>
      </trkpt>
      <trkpt lat="49.47995" lon="-1.2958">
        <ele>25.307851</ele>
        <time>2022-07-31T13:10:45.000Z</time>
      </trkpt>
      <trkpt lat="49.47998" lon="-1.29582">
        <ele>25.319992</ele>
        <time>2022-07-31T13:10:46.000Z</time>
      </trkpt>
      <trkpt lat="49.48001" lon="-1.29583">
        <ele>25.331844</ele>
        <time>2022-07-31T13:10:47.000Z</time>
      </trkpt>
      <trkpt lat="49.48003" lon="-1.29585">
        <ele>25.342203</ele>
        <time>2022-07-31T13:10:48.000Z</time>
      </trkpt>
      <trkpt lat="49.48006" lon="-1.29588">
        <ele>25.35515</ele>
        <time>2022-07-31T13:10:49.000Z</time>
      </trkpt>
      <trkpt lat="49.48008" lon="-1.2959">
        <ele>25.366316</ele>
        <time>2022-07-31T13:10:50.000Z</time>
      </trkpt>
      <trkpt lat="49.4801" lon="-1.29593">
        <ele>25.377168</ele>
        <time>2022-07-31T13:10:51.000Z</time>
      </trkpt>
      <trkpt lat="49.48013" lon="-1.29595">
        <ele>25.390874</ele>
        <time>2022-07-31T13:10:52.000Z</time>
      </trkpt>
      <trkpt lat="49.48016" lon="-1.29596">
        <ele>25.401893</ele>
        <time>2022-07-31T13:10:53.000Z</time>
      </trkpt>
      <trkpt lat="49.48019" lon="-1.29598">
        <ele>25.413005</ele>
        <time>2022-07-31T13:10:54.000Z</time>
      </trkpt>
      <trkpt lat="49.48021" lon="-1.296">
        <ele>25.423145</ele>
        <time>2022-07-31T13:10:55.000Z</time>
      </trkpt>
      <trkpt lat="49.48023" lon="-1.29602">
        <ele>25.434919</ele>
        <time>2022-07-31T13:10:56.000Z</time>
      </trkpt>
      <trkpt lat="49.48026" lon="-1.29604">
        <ele>25.444806</ele>
        <time>2022-07-31T13:10:57.000Z</time>
      </trkpt>
      <trkpt lat="49.48028" lon="-1.29605">
        <ele>25.455737</ele>
        <time>2022-07-31T13:10:58.000Z</time>
      </trkpt>
      <trkpt lat="49.4803" lon="-1.29606">
        <ele>25.463793</ele>
        <time>2022-07-31T13:10:59.000Z</time>
      </trkpt>
      <trkpt lat="49.48033" lon="-1.29608">
        <ele>25.474185</ele>
        <time>2022-07-31T13:11:01.000Z</time>
      </trkpt>
      <trkpt lat="49.48035" lon="-1.29608">
        <ele>25.482122</ele>
        <time>2022-07-31T13:11:04.000Z</time>
      </trkpt>
      <trkpt lat="49.48041" lon="-1.29612">
        <ele>25.508387</ele>
        <time>2022-07-31T13:11:09.000Z</time>
      </trkpt>
      <trkpt lat="49.48043" lon="-1.29613">
        <ele>25.519318</ele>
        <time>2022-07-31T13:11:10.000Z</time>
      </trkpt>
      <trkpt lat="49.48046" lon="-1.29615">
        <ele>25.53043</ele>
        <time>2022-07-31T13:11:11.000Z</time>
      </trkpt>
      <trkpt lat="49.48048" lon="-1.29616">
        <ele>25.539878</ele>
        <time>2022-07-31T13:11:12.000Z</time>
      </trkpt>
      <trkpt lat="49.4805" lon="-1.29618">
        <ele>25.548129</ele>
        <time>2022-07-31T13:11:13.000Z</time>
      </trkpt>
      <trkpt lat="49.48052" lon="-1.29619">
        <ele>25.555309</ele>
        <time>2022-07-31T13:11:14.000Z</time>
      </trkpt>
      <trkpt lat="49.48054" lon="-1.2962">
        <ele>25.567226</ele>
        <time>2022-07-31T13:11:16.000Z</time>
      </trkpt>
      <trkpt lat="49.48057" lon="-1.29621">
        <ele>25.576197</ele>
        <time>2022-07-31T13:11:18.000Z</time>
      </trkpt>
      <trkpt lat="49.48052" lon="-1.29619">
        <ele>25.596</ele>
        <time>2022-07-31T13:11:32.000Z</time>
      </trkpt>
      <trkpt lat="49.4805" lon="-1.29617">
        <ele>25.603434</ele>
        <time>2022-07-31T13:11:33.000Z</time>
      </trkpt>
      <trkpt lat="49.48048" lon="-1.29615">
        <ele>25.614286</ele>
        <time>2022-07-31T13:11:35.000Z</time>
      </trkpt>
      <trkpt lat="49.48041" lon="-1.29611">
        <ele>25.645163</ele>
        <time>2022-07-31T13:11:50.000Z</time>
      </trkpt>
      <trkpt lat="49.48039" lon="-1.2961">
        <ele>25.653132</ele>
        <time>2022-07-31T13:11:51.000Z</time>
      </trkpt>
      <trkpt lat="49.48037" lon="-1.29609">
        <ele>25.661282</ele>
        <time>2022-07-31T13:11:52.000Z</time>
      </trkpt>
      <trkpt lat="49.48035" lon="-1.29608">
        <ele>25.668462</ele>
        <time>2022-07-31T13:11:53.000Z</time>
      </trkpt>
      <trkpt lat="49.48033" lon="-1.29606">
        <ele>25.687455</ele>
        <time>2022-07-31T13:11:54.000Z</time>
      </trkpt>
      <trkpt lat="49.48031" lon="-1.29605">
        <ele>25.732331</ele>
        <time>2022-07-31T13:11:55.000Z</time>
      </trkpt>
      <trkpt lat="49.48029" lon="-1.29605">
        <ele>25.770397</ele>
        <time>2022-07-31T13:11:56.000Z</time>
      </trkpt>
      <trkpt lat="49.48026" lon="-1.29604">
        <ele>25.815046</ele>
        <time>2022-07-31T13:11:57.000Z</time>
      </trkpt>
      <trkpt lat="49.48023" lon="-1.29602">
        <ele>25.86107</ele>
        <time>2022-07-31T13:11:58.000Z</time>
      </trkpt>
      <trkpt lat="49.48021" lon="-1.296">
        <ele>25.914582</ele>
        <time>2022-07-31T13:11:59.000Z</time>
      </trkpt>
      <trkpt lat="49.48018" lon="-1.29598">
        <ele>25.96077</ele>
        <time>2022-07-31T13:12:00.000Z</time>
      </trkpt>
      <trkpt lat="49.48016" lon="-1.29596">
        <ele>26.004949</ele>
        <time>2022-07-31T13:12:01.000Z</time>
      </trkpt>
      <trkpt lat="49.48013" lon="-1.29593">
        <ele>26.064421</ele>
        <time>2022-07-31T13:12:02.000Z</time>
      </trkpt>
      <trkpt lat="49.4801" lon="-1.29592">
        <ele>26.111177</ele>
        <time>2022-07-31T13:12:03.000Z</time>
      </trkpt>
      <trkpt lat="49.48008" lon="-1.2959">
        <ele>26.159671</ele>
        <time>2022-07-31T13:12:04.000Z</time>
      </trkpt>
      <trkpt lat="49.48005" lon="-1.29587">
        <ele>26.205858</ele>
        <time>2022-07-31T13:12:05.000Z</time>
      </trkpt>
      <trkpt lat="49.48003" lon="-1.29585">
        <ele>26.258797</ele>
        <time>2022-07-31T13:12:06.000Z</time>
      </trkpt>
      <trkpt lat="49.48" lon="-1.29583">
        <ele>26.307743</ele>
        <time>2022-07-31T13:12:07.000Z</time>
      </trkpt>
      <trkpt lat="49.47997" lon="-1.29581">
        <ele>26.357705</ele>
        <time>2022-07-31T13:12:08.000Z</time>
      </trkpt>
      <trkpt lat="49.47995" lon="-1.29579">
        <ele>26.404182</ele>
        <time>2022-07-31T13:12:09.000Z</time>
      </trkpt>
      <trkpt lat="49.47992" lon="-1.29577">
        <ele>26.451751</ele>
        <time>2022-07-31T13:12:10.000Z</time>
      </trkpt>
      <trkpt lat="49.4799" lon="-1.29576">
        <ele>26.497344</ele>
        <time>2022-07-31T13:12:11.000Z</time>
      </trkpt>
      <trkpt lat="49.47987" lon="-1.29574">
        <ele>26.550418</ele>
        <time>2022-07-31T13:12:12.000Z</time>
      </trkpt>
      <trkpt lat="49.47985" lon="-1.29572">
        <ele>26.593868</ele>
        <time>2022-07-31T13:12:13.000Z</time>
      </trkpt>
      <trkpt lat="49.47983" lon="-1.2957">
        <ele>26.634573</ele>
        <time>2022-07-31T13:12:14.000Z</time>
      </trkpt>
      <trkpt lat="49.47981" lon="-1.29567">
        <ele>26.679981</ele>
        <time>2022-07-31T13:12:15.000Z</time>
      </trkpt>
      <trkpt lat="49.47979" lon="-1.29565">
        <ele>26.720686</ele>
        <time>2022-07-31T13:12:16.000Z</time>
      </trkpt>
      <trkpt lat="49.47977" lon="-1.29563">
        <ele>26.762082</ele>
        <time>2022-07-31T13:12:17.000Z</time>
      </trkpt>
      <trkpt lat="49.47975" lon="-1.29561">
        <ele>26.801471</ele>
        <time>2022-07-31T13:12:18.000Z</time>
      </trkpt>
      <trkpt lat="49.47973" lon="-1.29559">
        <ele>26.845651</ele>
        <time>2022-07-31T13:12:19.000Z</time>
      </trkpt>
      <trkpt lat="49.4797" lon="-1.29557">
        <ele>26.893658</ele>
        <time>2022-07-31T13:12:20.000Z</time>
      </trkpt>
      <trkpt lat="49.47967" lon="-1.29555">
        <ele>26.946733</ele>
        <time>2022-07-31T13:12:21.000Z</time>
      </trkpt>
      <trkpt lat="49.47964" lon="-1.29553">
        <ele>26.999183</ele>
        <time>2022-07-31T13:12:22.000Z</time>
      </trkpt>
      <trkpt lat="49.47961" lon="-1.2955">
        <ele>27.059126</ele>
        <time>2022-07-31T13:12:23.000Z</time>
      </trkpt>
      <trkpt lat="49.47958" lon="-1.29548">
        <ele>27.116773</ele>
        <time>2022-07-31T13:12:24.000Z</time>
      </trkpt>
      <trkpt lat="49.47955" lon="-1.29545">
        <ele>27.178759</ele>
        <time>2022-07-31T13:12:25.000Z</time>
      </trkpt>
      <trkpt lat="49.47952" lon="-1.29542">
        <ele>27.238846</ele>
        <time>2022-07-31T13:12:26.000Z</time>
      </trkpt>
      <trkpt lat="49.47949" lon="-1.29539">
        <ele>27.300831</ele>
        <time>2022-07-31T13:12:27.000Z</time>
      </trkpt>
      <trkpt lat="49.47945" lon="-1.29536">
        <ele>27.367767</ele>
        <time>2022-07-31T13:12:28.000Z</time>
      </trkpt>
      <trkpt lat="49.47941" lon="-1.29534">
        <ele>27.43699</ele>
        <time>2022-07-31T13:12:29.000Z</time>
      </trkpt>
      <trkpt lat="49.47938" lon="-1.29533">
        <ele>27.497144</ele>
        <time>2022-07-31T13:12:30.000Z</time>
      </trkpt>
      <trkpt lat="49.47934" lon="-1.29532">
        <ele>27.561283</ele>
        <time>2022-07-31T13:12:31.000Z</time>
      </trkpt>
      <trkpt lat="49.47931" lon="-1.29533">
        <ele>27.620716</ele>
        <time>2022-07-31T13:12:32.000Z</time>
      </trkpt>
      <trkpt lat="49.47927" lon="-1.29535">
        <ele>27.679733</ele>
        <time>2022-07-31T13:12:33.000Z</time>
      </trkpt>
      <trkpt lat="49.47925" lon="-1.29538">
        <ele>27.726761</ele>
        <time>2022-07-31T13:12:34.000Z</time>
      </trkpt>
      <trkpt lat="49.47924" lon="-1.29541">
        <ele>27.772598</ele>
        <time>2022-07-31T13:12:35.000Z</time>
      </trkpt>
      <trkpt lat="49.47923" lon="-1.29545">
        <ele>27.811754</ele>
        <time>2022-07-31T13:12:36.000Z</time>
      </trkpt>
      <trkpt lat="49.47921" lon="-1.29547">
        <ele>27.852552</ele>
        <time>2022-07-31T13:12:37.000Z</time>
      </trkpt>
      <trkpt lat="49.4792" lon="-1.2955">
        <ele>27.886555</ele>
        <time>2022-07-31T13:12:38.000Z</time>
      </trkpt>
      <trkpt lat="49.47917" lon="-1.29554">
        <ele>27.948459</ele>
        <time>2022-07-31T13:12:40.000Z</time>
      </trkpt>
      <trkpt lat="49.47915" lon="-1.29559">
        <ele>28.015766</ele>
        <time>2022-07-31T13:12:42.000Z</time>
      </trkpt>
      <trkpt lat="49.47913" lon="-1.29561">
        <ele>28.053921</ele>
        <time>2022-07-31T13:12:43.000Z</time>
      </trkpt>
      <trkpt lat="49.4791" lon="-1.29561">
        <ele>28.098044</ele>
        <time>2022-07-31T13:12:45.000Z</time>
      </trkpt>
      <trkpt lat="49.47909" lon="-1.2956">
        <ele>28.129591</ele>
        <time>2022-07-31T13:12:49.000Z</time>
      </trkpt>
      <trkpt lat="49.47912" lon="-1.29564">
        <ele>28.205004</ele>
        <time>2022-07-31T13:14:50.000Z</time>
      </trkpt>
      <trkpt lat="49.47911" lon="-1.29567">
        <ele>28.238205</ele>
        <time>2022-07-31T13:14:51.000Z</time>
      </trkpt>
      <trkpt lat="49.4791" lon="-1.29569">
        <ele>28.271262</ele>
        <time>2022-07-31T13:14:52.000Z</time>
      </trkpt>
      <trkpt lat="49.47909" lon="-1.29572">
        <ele>28.308152</ele>
        <time>2022-07-31T13:14:53.000Z</time>
      </trkpt>
      <trkpt lat="49.47909" lon="-1.29575">
        <ele>28.341451</ele>
        <time>2022-07-31T13:14:54.000Z</time>
      </trkpt>
      <trkpt lat="49.47908" lon="-1.29578">
        <ele>28.373709</ele>
        <time>2022-07-31T13:14:55.000Z</time>
      </trkpt>
      <trkpt lat="49.47907" lon="-1.29581">
        <ele>28.410477</ele>
        <time>2022-07-31T13:14:56.000Z</time>
      </trkpt>
      <trkpt lat="49.47905" lon="-1.29584">
        <ele>28.453793</ele>
        <time>2022-07-31T13:14:57.000Z</time>
      </trkpt>
      <trkpt lat="49.47904" lon="-1.29587">
        <ele>28.497971</ele>
        <time>2022-07-31T13:14:58.000Z</time>
      </trkpt>
      <trkpt lat="49.47902" lon="-1.2959">
        <ele>28.540194</ele>
        <time>2022-07-31T13:14:59.000Z</time>
      </trkpt>
      <trkpt lat="49.47901" lon="-1.29593">
        <ele>28.585254</ele>
        <time>2022-07-31T13:15:00.000Z</time>
      </trkpt>
      <trkpt lat="49.47899" lon="-1.29596">
        <ele>28.626051</ele>
        <time>2022-07-31T13:15:01.000Z</time>
      </trkpt>
      <trkpt lat="49.47897" lon="-1.29599">
        <ele>28.670347</ele>
        <time>2022-07-31T13:15:02.000Z</time>
      </trkpt>
      <trkpt lat="49.47895" lon="-1.29602">
        <ele>28.70656</ele>
        <time>2022-07-31T13:15:03.000Z</time>
      </trkpt>
      <trkpt lat="49.47893" lon="-1.29604">
        <ele>28.720271</ele>
        <time>2022-07-31T13:15:04.000Z</time>
      </trkpt>
      <trkpt lat="49.47891" lon="-1.29606">
        <ele>28.735782</ele>
        <time>2022-07-31T13:15:05.000Z</time>
      </trkpt>
      <trkpt lat="49.47888" lon="-1.29609">
        <ele>28.754213</ele>
        <time>2022-07-31T13:15:06.000Z</time>
      </trkpt>
      <trkpt lat="49.47886" lon="-1.29612">
        <ele>28.771536</ele>
        <time>2022-07-31T13:15:07.000Z</time>
      </trkpt>
      <trkpt lat="49.47884" lon="-1.29615">
        <ele>28.788169</ele>
        <time>2022-07-31T13:15:08.000Z</time>
      </trkpt>
      <trkpt lat="49.47881" lon="-1.29618">
        <ele>28.804599</ele>
        <time>2022-07-31T13:15:09.000Z</time>
      </trkpt>
      <trkpt lat="49.47879" lon="-1.2962">
        <ele>28.821988</ele>
        <time>2022-07-31T13:15:10.000Z</time>
      </trkpt>
      <trkpt lat="49.47877" lon="-1.29623">
        <ele>28.837073</ele>
        <time>2022-07-31T13:15:11.000Z</time>
      </trkpt>
      <trkpt lat="49.47875" lon="-1.29624">
        <ele>28.849727</ele>
        <time>2022-07-31T13:15:12.000Z</time>
      </trkpt>
      <trkpt lat="49.47873" lon="-1.29626">
        <ele>28.86219</ele>
        <time>2022-07-31T13:15:13.000Z</time>
      </trkpt>
      <trkpt lat="49.4787" lon="-1.29626">
        <ele>28.874717</ele>
        <time>2022-07-31T13:15:14.000Z</time>
      </trkpt>
      <trkpt lat="49.47869" lon="-1.29625">
        <ele>28.885798</ele>
        <time>2022-07-31T13:15:15.000Z</time>
      </trkpt>
      <trkpt lat="49.47867" lon="-1.29624">
        <ele>28.897039</ele>
        <time>2022-07-31T13:15:16.000Z</time>
      </trkpt>
      <trkpt lat="49.47866" lon="-1.29621">
        <ele>28.90884</ele>
        <time>2022-07-31T13:15:17.000Z</time>
      </trkpt>
      <trkpt lat="49.47866" lon="-1.29616">
        <ele>28.928372</ele>
        <time>2022-07-31T13:15:19.000Z</time>
      </trkpt>
      <trkpt lat="49.47867" lon="-1.29611">
        <ele>28.946954</ele>
        <time>2022-07-31T13:15:21.000Z</time>
      </trkpt>
      <trkpt lat="49.47867" lon="-1.29621">
        <ele>28.983478</ele>
        <time>2022-07-31T13:15:59.000Z</time>
      </trkpt>
      <trkpt lat="49.47866" lon="-1.29625">
        <ele>28.999273</ele>
        <time>2022-07-31T13:16:00.000Z</time>
      </trkpt>
      <trkpt lat="49.47864" lon="-1.29629">
        <ele>29.016944</ele>
        <time>2022-07-31T13:16:01.000Z</time>
      </trkpt>
      <trkpt lat="49.47862" lon="-1.29633">
        <ele>29.034886</ele>
        <time>2022-07-31T13:16:02.000Z</time>
      </trkpt>
      <trkpt lat="49.4786" lon="-1.29637">
        <ele>29.055223</ele>
        <time>2022-07-31T13:16:03.000Z</time>
      </trkpt>
      <trkpt lat="49.47857" lon="-1.29641">
        <ele>29.074896</ele>
        <time>2022-07-31T13:16:04.000Z</time>
      </trkpt>
      <trkpt lat="49.47855" lon="-1.29644">
        <ele>29.094011</ele>
        <time>2022-07-31T13:16:05.000Z</time>
      </trkpt>
      <trkpt lat="49.47852" lon="-1.29647">
        <ele>29.114467</ele>
        <time>2022-07-31T13:16:06.000Z</time>
      </trkpt>
      <trkpt lat="49.4785" lon="-1.2965">
        <ele>29.130897</ele>
        <time>2022-07-31T13:16:07.000Z</time>
      </trkpt>
      <trkpt lat="49.47848" lon="-1.29653">
        <ele>29.145487</ele>
        <time>2022-07-31T13:16:08.000Z</time>
      </trkpt>
      <trkpt lat="49.47846" lon="-1.29657">
        <ele>29.162295</ele>
        <time>2022-07-31T13:16:09.000Z</time>
      </trkpt>
      <trkpt lat="49.47845" lon="-1.29661">
        <ele>29.178778</ele>
        <time>2022-07-31T13:16:10.000Z</time>
      </trkpt>
      <trkpt lat="49.47843" lon="-1.29665">
        <ele>29.196742</ele>
        <time>2022-07-31T13:16:11.000Z</time>
      </trkpt>
      <trkpt lat="49.47841" lon="-1.29669">
        <ele>29.215881</ele>
        <time>2022-07-31T13:16:12.000Z</time>
      </trkpt>
      <trkpt lat="49.47839" lon="-1.29673">
        <ele>29.235659</ele>
        <time>2022-07-31T13:16:13.000Z</time>
      </trkpt>
      <trkpt lat="49.47836" lon="-1.29678">
        <ele>29.257479</ele>
        <time>2022-07-31T13:16:14.000Z</time>
      </trkpt>
      <trkpt lat="49.47834" lon="-1.29682">
        <ele>29.278579</ele>
        <time>2022-07-31T13:16:15.000Z</time>
      </trkpt>
      <trkpt lat="49.47832" lon="-1.29687">
        <ele>29.300227</ele>
        <time>2022-07-31T13:16:16.000Z</time>
      </trkpt>
      <trkpt lat="49.47829" lon="-1.29692">
        <ele>29.322504</ele>
        <time>2022-07-31T13:16:17.000Z</time>
      </trkpt>
      <trkpt lat="49.47827" lon="-1.29697">
        <ele>29.345175</ele>
        <time>2022-07-31T13:16:18.000Z</time>
      </trkpt>
      <trkpt lat="49.47824" lon="-1.29702">
        <ele>29.368777</ele>
        <time>2022-07-31T13:16:19.000Z</time>
      </trkpt>
      <trkpt lat="49.47822" lon="-1.29707">
        <ele>29.391645</ele>
        <time>2022-07-31T13:16:20.000Z</time>
      </trkpt>
      <trkpt lat="49.4782" lon="-1.29712">
        <ele>29.416711</ele>
        <time>2022-07-31T13:16:21.000Z</time>
      </trkpt>
      <trkpt lat="49.47817" lon="-1.29718">
        <ele>29.439889</ele>
        <time>2022-07-31T13:16:22.000Z</time>
      </trkpt>
      <trkpt lat="49.47815" lon="-1.29723">
        <ele>29.463994</ele>
        <time>2022-07-31T13:16:23.000Z</time>
      </trkpt>
      <trkpt lat="49.47813" lon="-1.29729">
        <ele>29.488745</ele>
        <time>2022-07-31T13:16:24.000Z</time>
      </trkpt>
      <trkpt lat="49.4781" lon="-1.29735">
        <ele>29.516009</ele>
        <time>2022-07-31T13:16:25.000Z</time>
      </trkpt>
      <trkpt lat="49.47808" lon="-1.29741">
        <ele>29.541399</ele>
        <time>2022-07-31T13:16:26.000Z</time>
      </trkpt>
      <trkpt lat="49.47805" lon="-1.29747">
        <ele>29.568285</ele>
        <time>2022-07-31T13:16:27.000Z</time>
      </trkpt>
      <trkpt lat="49.47802" lon="-1.29753">
        <ele>29.596439</ele>
        <time>2022-07-31T13:16:28.000Z</time>
      </trkpt>
      <trkpt lat="49.47799" lon="-1.29759">
        <ele>29.624569</ele>
        <time>2022-07-31T13:16:29.000Z</time>
      </trkpt>
      <trkpt lat="49.47796" lon="-1.29766">
        <ele>29.655214</ele>
        <time>2022-07-31T13:16:30.000Z</time>
      </trkpt>
      <trkpt lat="49.47794" lon="-1.29773">
        <ele>29.684291</ele>
        <time>2022-07-31T13:16:31.000Z</time>
      </trkpt>
      <trkpt lat="49.47791" lon="-1.2978">
        <ele>29.713687</ele>
        <time>2022-07-31T13:16:32.000Z</time>
      </trkpt>
      <trkpt lat="49.47788" lon="-1.29787">
        <ele>29.696937</ele>
        <time>2022-07-31T13:16:33.000Z</time>
      </trkpt>
      <trkpt lat="49.47785" lon="-1.29794">
        <ele>29.66455</ele>
        <time>2022-07-31T13:16:34.000Z</time>
      </trkpt>
      <trkpt lat="49.47782" lon="-1.29801">
        <ele>29.630178</ele>
        <time>2022-07-31T13:16:35.000Z</time>
      </trkpt>
      <trkpt lat="49.47779" lon="-1.29808">
        <ele>29.596517</ele>
        <time>2022-07-31T13:16:36.000Z</time>
      </trkpt>
      <trkpt lat="49.47776" lon="-1.29814">
        <ele>29.561975</ele>
        <time>2022-07-31T13:16:37.000Z</time>
      </trkpt>
      <trkpt lat="49.47772" lon="-1.29821">
        <ele>29.526162</ele>
        <time>2022-07-31T13:16:38.000Z</time>
      </trkpt>
      <trkpt lat="49.47769" lon="-1.29829">
        <ele>29.491815</ele>
        <time>2022-07-31T13:16:39.000Z</time>
      </trkpt>
      <trkpt lat="49.47766" lon="-1.29836">
        <ele>29.455356</ele>
        <time>2022-07-31T13:16:40.000Z</time>
      </trkpt>
      <trkpt lat="49.47763" lon="-1.29843">
        <ele>29.420321</ele>
        <time>2022-07-31T13:16:41.000Z</time>
      </trkpt>
      <trkpt lat="49.4776" lon="-1.2985">
        <ele>29.387001</ele>
        <time>2022-07-31T13:16:42.000Z</time>
      </trkpt>
      <trkpt lat="49.47756" lon="-1.29856">
        <ele>29.352459</ele>
        <time>2022-07-31T13:16:43.000Z</time>
      </trkpt>
      <trkpt lat="49.47753" lon="-1.29863">
        <ele>29.318137</ele>
        <time>2022-07-31T13:16:44.000Z</time>
      </trkpt>
      <trkpt lat="49.47749" lon="-1.29869">
        <ele>29.28474</ele>
        <time>2022-07-31T13:16:45.000Z</time>
      </trkpt>
      <trkpt lat="49.47745" lon="-1.29873">
        <ele>29.252095</ele>
        <time>2022-07-31T13:16:46.000Z</time>
      </trkpt>
      <trkpt lat="49.4774" lon="-1.29877">
        <ele>29.221371</ele>
        <time>2022-07-31T13:16:47.000Z</time>
      </trkpt>
      <trkpt lat="49.47735" lon="-1.29879">
        <ele>29.190231</ele>
        <time>2022-07-31T13:16:48.000Z</time>
      </trkpt>
      <trkpt lat="49.4773" lon="-1.29881">
        <ele>29.156784</ele>
        <time>2022-07-31T13:16:49.000Z</time>
      </trkpt>
      <trkpt lat="49.47726" lon="-1.29883">
        <ele>29.128266</ele>
        <time>2022-07-31T13:16:50.000Z</time>
      </trkpt>
      <trkpt lat="49.47721" lon="-1.29885">
        <ele>29.095006</ele>
        <time>2022-07-31T13:16:51.000Z</time>
      </trkpt>
      <trkpt lat="49.47716" lon="-1.29887">
        <ele>29.066377</ele>
        <time>2022-07-31T13:16:52.000Z</time>
      </trkpt>
      <trkpt lat="49.47712" lon="-1.29888">
        <ele>29.037462</ele>
        <time>2022-07-31T13:16:53.000Z</time>
      </trkpt>
      <trkpt lat="49.47708" lon="-1.2989">
        <ele>29.010556</ele>
        <time>2022-07-31T13:16:54.000Z</time>
      </trkpt>
      <trkpt lat="49.47704" lon="-1.29892">
        <ele>28.985495</ele>
        <time>2022-07-31T13:16:55.000Z</time>
      </trkpt>
      <trkpt lat="49.47701" lon="-1.29894">
        <ele>28.963942</ele>
        <time>2022-07-31T13:16:56.000Z</time>
      </trkpt>
      <trkpt lat="49.47698" lon="-1.29896">
        <ele>28.947457</ele>
        <time>2022-07-31T13:16:57.000Z</time>
      </trkpt>
      <trkpt lat="49.47697" lon="-1.29897">
        <ele>28.93555</ele>
        <time>2022-07-31T13:16:58.000Z</time>
      </trkpt>
      <trkpt lat="49.47695" lon="-1.29899">
        <ele>28.923859</ele>
        <time>2022-07-31T13:16:59.000Z</time>
      </trkpt>
      <trkpt lat="49.47693" lon="-1.299">
        <ele>28.911043</ele>
        <time>2022-07-31T13:17:00.000Z</time>
      </trkpt>
      <trkpt lat="49.47691" lon="-1.29901">
        <ele>28.898512</ele>
        <time>2022-07-31T13:17:01.000Z</time>
      </trkpt>
      <trkpt lat="49.47689" lon="-1.29902">
        <ele>28.886484</ele>
        <time>2022-07-31T13:17:02.000Z</time>
      </trkpt>
      <trkpt lat="49.47687" lon="-1.29901">
        <ele>28.871989</ele>
        <time>2022-07-31T13:17:03.000Z</time>
      </trkpt>
      <trkpt lat="49.47685" lon="-1.299">
        <ele>28.857882</ele>
        <time>2022-07-31T13:17:04.000Z</time>
      </trkpt>
      <trkpt lat="49.47682" lon="-1.299">
        <ele>28.841531</ele>
        <time>2022-07-31T13:17:05.000Z</time>
      </trkpt>
      <trkpt lat="49.47679" lon="-1.299">
        <ele>28.824054</ele>
        <time>2022-07-31T13:17:06.000Z</time>
      </trkpt>
      <trkpt lat="49.47677" lon="-1.299">
        <ele>28.807748</ele>
        <time>2022-07-31T13:17:07.000Z</time>
      </trkpt>
      <trkpt lat="49.47674" lon="-1.29901">
        <ele>28.791342</ele>
        <time>2022-07-31T13:17:08.000Z</time>
      </trkpt>
      <trkpt lat="49.47671" lon="-1.29902">
        <ele>28.773492</ele>
        <time>2022-07-31T13:17:09.000Z</time>
      </trkpt>
      <trkpt lat="49.47669" lon="-1.29902">
        <ele>28.755233</ele>
        <time>2022-07-31T13:17:10.000Z</time>
      </trkpt>
      <trkpt lat="49.47665" lon="-1.29903">
        <ele>28.733332</ele>
        <time>2022-07-31T13:17:11.000Z</time>
      </trkpt>
      <trkpt lat="49.47661" lon="-1.29903">
        <ele>28.710775</ele>
        <time>2022-07-31T13:17:12.000Z</time>
      </trkpt>
      <trkpt lat="49.47658" lon="-1.29904">
        <ele>28.690545</ele>
        <time>2022-07-31T13:17:13.000Z</time>
      </trkpt>
      <trkpt lat="49.47655" lon="-1.29905">
        <ele>28.670314</ele>
        <time>2022-07-31T13:17:14.000Z</time>
      </trkpt>
      <trkpt lat="49.47652" lon="-1.29906">
        <ele>28.648289</ele>
        <time>2022-07-31T13:17:15.000Z</time>
      </trkpt>
      <trkpt lat="49.47648" lon="-1.29906">
        <ele>28.628059</ele>
        <time>2022-07-31T13:17:16.000Z</time>
      </trkpt>
      <trkpt lat="49.47645" lon="-1.29907">
        <ele>28.605845</ele>
        <time>2022-07-31T13:17:17.000Z</time>
      </trkpt>
      <trkpt lat="49.47642" lon="-1.29908">
        <ele>28.597941</ele>
        <time>2022-07-31T13:17:18.000Z</time>
      </trkpt>
      <trkpt lat="49.47639" lon="-1.29909">
        <ele>28.59531</ele>
        <time>2022-07-31T13:17:19.000Z</time>
      </trkpt>
      <trkpt lat="49.47636" lon="-1.2991">
        <ele>28.593008</ele>
        <time>2022-07-31T13:17:20.000Z</time>
      </trkpt>
      <trkpt lat="49.47633" lon="-1.29911">
        <ele>28.590378</ele>
        <time>2022-07-31T13:17:21.000Z</time>
      </trkpt>
      <trkpt lat="49.4763" lon="-1.29912">
        <ele>28.5878</ele>
        <time>2022-07-31T13:17:22.000Z</time>
      </trkpt>
      <trkpt lat="49.47627" lon="-1.29913">
        <ele>28.584931</ele>
        <time>2022-07-31T13:17:23.000Z</time>
      </trkpt>
      <trkpt lat="49.47625" lon="-1.29914">
        <ele>28.582558</ele>
        <time>2022-07-31T13:17:24.000Z</time>
      </trkpt>
      <trkpt lat="49.47621" lon="-1.29914">
        <ele>28.579688</ele>
        <time>2022-07-31T13:17:25.000Z</time>
      </trkpt>
      <trkpt lat="49.47619" lon="-1.29915">
        <ele>28.577416</ele>
        <time>2022-07-31T13:17:26.000Z</time>
      </trkpt>
      <trkpt lat="49.47616" lon="-1.29916">
        <ele>28.574513</ele>
        <time>2022-07-31T13:17:27.000Z</time>
      </trkpt>
      <trkpt lat="49.47613" lon="-1.29918">
        <ele>28.571855</ele>
        <time>2022-07-31T13:17:28.000Z</time>
      </trkpt>
      <trkpt lat="49.4761" lon="-1.29918">
        <ele>28.568985</ele>
        <time>2022-07-31T13:17:29.000Z</time>
      </trkpt>
      <trkpt lat="49.47607" lon="-1.2992">
        <ele>28.566327</ele>
        <time>2022-07-31T13:17:30.000Z</time>
      </trkpt>
      <trkpt lat="49.47603" lon="-1.29921">
        <ele>28.563176</ele>
        <time>2022-07-31T13:17:31.000Z</time>
      </trkpt>
      <trkpt lat="49.476" lon="-1.29922">
        <ele>28.560502</ele>
        <time>2022-07-31T13:17:32.000Z</time>
      </trkpt>
      <trkpt lat="49.47597" lon="-1.29924">
        <ele>28.557505</ele>
        <time>2022-07-31T13:17:33.000Z</time>
      </trkpt>
      <trkpt lat="49.47594" lon="-1.29925">
        <ele>28.554318</ele>
        <time>2022-07-31T13:17:34.000Z</time>
      </trkpt>
      <trkpt lat="49.47591" lon="-1.29926">
        <ele>28.55188</ele>
        <time>2022-07-31T13:17:35.000Z</time>
      </trkpt>
      <trkpt lat="49.47588" lon="-1.29927">
        <ele>28.548718</ele>
        <time>2022-07-31T13:17:36.000Z</time>
      </trkpt>
      <trkpt lat="49.47585" lon="-1.29928">
        <ele>28.546087</ele>
        <time>2022-07-31T13:17:37.000Z</time>
      </trkpt>
      <trkpt lat="49.47581" lon="-1.29929">
        <ele>28.542936</ele>
        <time>2022-07-31T13:17:38.000Z</time>
      </trkpt>
      <trkpt lat="49.47578" lon="-1.2993">
        <ele>28.540056</ele>
        <time>2022-07-31T13:17:39.000Z</time>
      </trkpt>
      <trkpt lat="49.47575" lon="-1.29931">
        <ele>28.537448</ele>
        <time>2022-07-31T13:17:40.000Z</time>
      </trkpt>
      <trkpt lat="49.47572" lon="-1.29932">
        <ele>28.534578</ele>
        <time>2022-07-31T13:17:41.000Z</time>
      </trkpt>
      <trkpt lat="49.47569" lon="-1.29933">
        <ele>28.531717</ele>
        <time>2022-07-31T13:17:42.000Z</time>
      </trkpt>
      <trkpt lat="49.47565" lon="-1.29934">
        <ele>28.528827</ele>
        <time>2022-07-31T13:17:43.000Z</time>
      </trkpt>
      <trkpt lat="49.47562" lon="-1.29935">
        <ele>28.525676</ele>
        <time>2022-07-31T13:17:44.000Z</time>
      </trkpt>
      <trkpt lat="49.47559" lon="-1.29935">
        <ele>28.523068</ele>
        <time>2022-07-31T13:17:45.000Z</time>
      </trkpt>
      <trkpt lat="49.47556" lon="-1.29936">
        <ele>28.519926</ele>
        <time>2022-07-31T13:17:46.000Z</time>
      </trkpt>
      <trkpt lat="49.47553" lon="-1.29937">
        <ele>28.517343</ele>
        <time>2022-07-31T13:17:47.000Z</time>
      </trkpt>
      <trkpt lat="49.47549" lon="-1.29937">
        <ele>28.514226</ele>
        <time>2022-07-31T13:17:48.000Z</time>
      </trkpt>
      <trkpt lat="49.47546" lon="-1.29938">
        <ele>28.511085</ele>
        <time>2022-07-31T13:17:49.000Z</time>
      </trkpt>
      <trkpt lat="49.47542" lon="-1.29939">
        <ele>28.507672</ele>
        <time>2022-07-31T13:17:50.000Z</time>
      </trkpt>
      <trkpt lat="49.47538" lon="-1.2994">
        <ele>28.504434</ele>
        <time>2022-07-31T13:17:51.000Z</time>
      </trkpt>
      <trkpt lat="49.47535" lon="-1.29941">
        <ele>28.501302</ele>
        <time>2022-07-31T13:17:52.000Z</time>
      </trkpt>
      <trkpt lat="49.4753" lon="-1.29942">
        <ele>28.497308</ele>
        <time>2022-07-31T13:17:53.000Z</time>
      </trkpt>
      <trkpt lat="49.47526" lon="-1.29942">
        <ele>28.493656</ele>
        <time>2022-07-31T13:17:54.000Z</time>
      </trkpt>
      <trkpt lat="49.47522" lon="-1.29943">
        <ele>28.490146</ele>
        <time>2022-07-31T13:17:55.000Z</time>
      </trkpt>
      <trkpt lat="49.47518" lon="-1.29945">
        <ele>28.486191</ele>
        <time>2022-07-31T13:17:56.000Z</time>
      </trkpt>
      <trkpt lat="49.47514" lon="-1.29946">
        <ele>28.482409</ele>
        <time>2022-07-31T13:17:57.000Z</time>
      </trkpt>
      <trkpt lat="49.47509" lon="-1.29947">
        <ele>28.478376</ele>
        <time>2022-07-31T13:17:58.000Z</time>
      </trkpt>
      <trkpt lat="49.47505" lon="-1.29948">
        <ele>28.474658</ele>
        <time>2022-07-31T13:17:59.000Z</time>
      </trkpt>
      <trkpt lat="49.47501" lon="-1.2995">
        <ele>28.470512</ele>
        <time>2022-07-31T13:18:00.000Z</time>
      </trkpt>
      <trkpt lat="49.47496" lon="-1.29953">
        <ele>28.466526</ele>
        <time>2022-07-31T13:18:01.000Z</time>
      </trkpt>
      <trkpt lat="49.47492" lon="-1.29956">
        <ele>28.46243</ele>
        <time>2022-07-31T13:18:02.000Z</time>
      </trkpt>
      <trkpt lat="49.47488" lon="-1.2996">
        <ele>28.458202</ele>
        <time>2022-07-31T13:18:03.000Z</time>
      </trkpt>
      <trkpt lat="49.47484" lon="-1.29964">
        <ele>28.454061</ele>
        <time>2022-07-31T13:18:04.000Z</time>
      </trkpt>
      <trkpt lat="49.47481" lon="-1.29968">
        <ele>28.450374</ele>
        <time>2022-07-31T13:18:05.000Z</time>
      </trkpt>
      <trkpt lat="49.47478" lon="-1.29973">
        <ele>28.446459</ele>
        <time>2022-07-31T13:18:06.000Z</time>
      </trkpt>
      <trkpt lat="49.47476" lon="-1.29978">
        <ele>28.442685</ele>
        <time>2022-07-31T13:18:07.000Z</time>
      </trkpt>
      <trkpt lat="49.47473" lon="-1.29984">
        <ele>28.41131</ele>
        <time>2022-07-31T13:18:08.000Z</time>
      </trkpt>
      <trkpt lat="49.47471" lon="-1.29989">
        <ele>28.358955</ele>
        <time>2022-07-31T13:18:09.000Z</time>
      </trkpt>
      <trkpt lat="49.47469" lon="-1.29995">
        <ele>28.301938</ele>
        <time>2022-07-31T13:18:10.000Z</time>
      </trkpt>
      <trkpt lat="49.47467" lon="-1.30001">
        <ele>28.24739</ele>
        <time>2022-07-31T13:18:11.000Z</time>
      </trkpt>
      <trkpt lat="49.47464" lon="-1.30008">
        <ele>28.187084</ele>
        <time>2022-07-31T13:18:12.000Z</time>
      </trkpt>
      <trkpt lat="49.47462" lon="-1.30014">
        <ele>28.131062</ele>
        <time>2022-07-31T13:18:13.000Z</time>
      </trkpt>
      <trkpt lat="49.4746" lon="-1.3002">
        <ele>28.073424</ele>
        <time>2022-07-31T13:18:14.000Z</time>
      </trkpt>
      <trkpt lat="49.47458" lon="-1.30027">
        <ele>28.012073</ele>
        <time>2022-07-31T13:18:15.000Z</time>
      </trkpt>
      <trkpt lat="49.47455" lon="-1.30033">
        <ele>27.946281</ele>
        <time>2022-07-31T13:18:16.000Z</time>
      </trkpt>
      <trkpt lat="49.47453" lon="-1.3004">
        <ele>27.8842</ele>
        <time>2022-07-31T13:18:17.000Z</time>
      </trkpt>
      <trkpt lat="49.4745" lon="-1.30047">
        <ele>27.821548</ele>
        <time>2022-07-31T13:18:18.000Z</time>
      </trkpt>
      <trkpt lat="49.47448" lon="-1.30054">
        <ele>27.758</ele>
        <time>2022-07-31T13:18:19.000Z</time>
      </trkpt>
      <trkpt lat="49.47446" lon="-1.30061">
        <ele>27.695186</ele>
        <time>2022-07-31T13:18:20.000Z</time>
      </trkpt>
      <trkpt lat="49.47443" lon="-1.30067">
        <ele>27.630073</ele>
        <time>2022-07-31T13:18:21.000Z</time>
      </trkpt>
      <trkpt lat="49.4744" lon="-1.30074">
        <ele>27.564886</ele>
        <time>2022-07-31T13:18:22.000Z</time>
      </trkpt>
      <trkpt lat="49.47438" lon="-1.30081">
        <ele>27.501034</ele>
        <time>2022-07-31T13:18:23.000Z</time>
      </trkpt>
      <trkpt lat="49.47436" lon="-1.30088">
        <ele>27.440776</ele>
        <time>2022-07-31T13:18:24.000Z</time>
      </trkpt>
      <trkpt lat="49.47433" lon="-1.30094">
        <ele>27.376358</ele>
        <time>2022-07-31T13:18:25.000Z</time>
      </trkpt>
      <trkpt lat="49.47431" lon="-1.30101">
        <ele>27.31298</ele>
        <time>2022-07-31T13:18:26.000Z</time>
      </trkpt>
      <trkpt lat="49.47429" lon="-1.30108">
        <ele>27.252358</ele>
        <time>2022-07-31T13:18:27.000Z</time>
      </trkpt>
      <trkpt lat="49.47426" lon="-1.30115">
        <ele>27.187171</ele>
        <time>2022-07-31T13:18:28.000Z</time>
      </trkpt>
      <trkpt lat="49.47424" lon="-1.30122">
        <ele>27.125089</ele>
        <time>2022-07-31T13:18:29.000Z</time>
      </trkpt>
      <trkpt lat="49.47421" lon="-1.30128">
        <ele>27.060608</ele>
        <time>2022-07-31T13:18:30.000Z</time>
      </trkpt>
      <trkpt lat="49.47419" lon="-1.30135">
        <ele>26.99706</ele>
        <time>2022-07-31T13:18:31.000Z</time>
      </trkpt>
      <trkpt lat="49.47416" lon="-1.30142">
        <ele>26.933282</ele>
        <time>2022-07-31T13:18:32.000Z</time>
      </trkpt>
      <trkpt lat="49.47414" lon="-1.30149">
        <ele>26.870139</ele>
        <time>2022-07-31T13:18:33.000Z</time>
      </trkpt>
      <trkpt lat="49.47411" lon="-1.30155">
        <ele>26.807061</ele>
        <time>2022-07-31T13:18:34.000Z</time>
      </trkpt>
      <trkpt lat="49.47409" lon="-1.30162">
        <ele>26.741166</ele>
        <time>2022-07-31T13:18:35.000Z</time>
      </trkpt>
      <trkpt lat="49.47406" lon="-1.30169">
        <ele>26.676601</ele>
        <time>2022-07-31T13:18:36.000Z</time>
      </trkpt>
      <trkpt lat="49.47404" lon="-1.30176">
        <ele>26.615394</ele>
        <time>2022-07-31T13:18:37.000Z</time>
      </trkpt>
      <trkpt lat="49.47401" lon="-1.30183">
        <ele>26.550829</ele>
        <time>2022-07-31T13:18:38.000Z</time>
      </trkpt>
      <trkpt lat="49.47399" lon="-1.3019">
        <ele>26.484222</ele>
        <time>2022-07-31T13:18:39.000Z</time>
      </trkpt>
      <trkpt lat="49.47397" lon="-1.30197">
        <ele>26.420674</ele>
        <time>2022-07-31T13:18:40.000Z</time>
      </trkpt>
      <trkpt lat="49.47394" lon="-1.30204">
        <ele>26.353354</ele>
        <time>2022-07-31T13:18:41.000Z</time>
      </trkpt>
      <trkpt lat="49.47391" lon="-1.30211">
        <ele>26.285507</ele>
        <time>2022-07-31T13:18:42.000Z</time>
      </trkpt>
      <trkpt lat="49.47389" lon="-1.30218">
        <ele>26.220227</ele>
        <time>2022-07-31T13:18:43.000Z</time>
      </trkpt>
      <trkpt lat="49.47386" lon="-1.30225">
        <ele>26.152052</ele>
        <time>2022-07-31T13:18:44.000Z</time>
      </trkpt>
      <trkpt lat="49.47383" lon="-1.30233">
        <ele>26.079792</ele>
        <time>2022-07-31T13:18:45.000Z</time>
      </trkpt>
      <trkpt lat="49.47381" lon="-1.3024">
        <ele>26.011832</ele>
        <time>2022-07-31T13:18:46.000Z</time>
      </trkpt>
      <trkpt lat="49.47378" lon="-1.30247">
        <ele>25.940786</ele>
        <time>2022-07-31T13:18:47.000Z</time>
      </trkpt>
      <trkpt lat="49.47375" lon="-1.30255">
        <ele>25.869195</ele>
        <time>2022-07-31T13:18:48.000Z</time>
      </trkpt>
      <trkpt lat="49.47373" lon="-1.30262">
        <ele>25.79889</ele>
        <time>2022-07-31T13:18:49.000Z</time>
      </trkpt>
      <trkpt lat="49.4737" lon="-1.30269">
        <ele>25.727349</ele>
        <time>2022-07-31T13:18:50.000Z</time>
      </trkpt>
      <trkpt lat="49.47367" lon="-1.30276">
        <ele>25.657659</ele>
        <time>2022-07-31T13:18:51.000Z</time>
      </trkpt>
      <trkpt lat="49.47365" lon="-1.30284">
        <ele>25.586612</ele>
        <time>2022-07-31T13:18:52.000Z</time>
      </trkpt>
      <trkpt lat="49.47362" lon="-1.30291">
        <ele>25.517783</ele>
        <time>2022-07-31T13:18:53.000Z</time>
      </trkpt>
      <trkpt lat="49.47359" lon="-1.30298">
        <ele>25.442713</ele>
        <time>2022-07-31T13:18:54.000Z</time>
      </trkpt>
      <trkpt lat="49.47357" lon="-1.30305">
        <ele>25.374513</ele>
        <time>2022-07-31T13:18:55.000Z</time>
      </trkpt>
      <trkpt lat="49.47354" lon="-1.30313">
        <ele>25.302972</ele>
        <time>2022-07-31T13:18:56.000Z</time>
      </trkpt>
      <trkpt lat="49.47351" lon="-1.3032">
        <ele>25.235012</ele>
        <time>2022-07-31T13:18:57.000Z</time>
      </trkpt>
      <trkpt lat="49.47349" lon="-1.30327">
        <ele>25.165446</ele>
        <time>2022-07-31T13:18:58.000Z</time>
      </trkpt>
      <trkpt lat="49.47346" lon="-1.30334">
        <ele>25.091776</ele>
        <time>2022-07-31T13:18:59.000Z</time>
      </trkpt>
      <trkpt lat="49.47343" lon="-1.30341">
        <ele>25.023682</ele>
        <time>2022-07-31T13:19:00.000Z</time>
      </trkpt>
      <trkpt lat="49.47341" lon="-1.30348">
        <ele>24.956223</ele>
        <time>2022-07-31T13:19:01.000Z</time>
      </trkpt>
      <trkpt lat="49.47338" lon="-1.30355">
        <ele>24.886112</ele>
        <time>2022-07-31T13:19:02.000Z</time>
      </trkpt>
      <trkpt lat="49.47335" lon="-1.30362">
        <ele>24.81968</ele>
        <time>2022-07-31T13:19:03.000Z</time>
      </trkpt>
      <trkpt lat="49.47333" lon="-1.30369">
        <ele>24.751586</ele>
        <time>2022-07-31T13:19:04.000Z</time>
      </trkpt>
      <trkpt lat="49.4733" lon="-1.30377">
        <ele>24.677915</ele>
        <time>2022-07-31T13:19:05.000Z</time>
      </trkpt>
      <trkpt lat="49.47327" lon="-1.30383">
        <ele>24.611282</ele>
        <time>2022-07-31T13:19:06.000Z</time>
      </trkpt>
      <trkpt lat="49.47325" lon="-1.3039">
        <ele>24.544562</ele>
        <time>2022-07-31T13:19:07.000Z</time>
      </trkpt>
      <trkpt lat="49.47322" lon="-1.30398">
        <ele>24.472301</ele>
        <time>2022-07-31T13:19:08.000Z</time>
      </trkpt>
      <trkpt lat="49.47319" lon="-1.30405">
        <ele>24.402805</ele>
        <time>2022-07-31T13:19:09.000Z</time>
      </trkpt>
      <trkpt lat="49.47317" lon="-1.30412">
        <ele>24.331263</ele>
        <time>2022-07-31T13:19:10.000Z</time>
      </trkpt>
      <trkpt lat="49.47314" lon="-1.3042">
        <ele>24.259003</ele>
        <time>2022-07-31T13:19:11.000Z</time>
      </trkpt>
      <trkpt lat="49.47311" lon="-1.30427">
        <ele>24.183839</ele>
        <time>2022-07-31T13:19:12.000Z</time>
      </trkpt>
      <trkpt lat="49.47308" lon="-1.30435">
        <ele>24.107943</ele>
        <time>2022-07-31T13:19:13.000Z</time>
      </trkpt>
      <trkpt lat="49.47305" lon="-1.30443">
        <ele>24.031202</ele>
        <time>2022-07-31T13:19:14.000Z</time>
      </trkpt>
      <trkpt lat="49.47302" lon="-1.30451">
        <ele>23.953296</ele>
        <time>2022-07-31T13:19:15.000Z</time>
      </trkpt>
      <trkpt lat="49.47299" lon="-1.30459">
        <ele>23.878133</ele>
        <time>2022-07-31T13:19:16.000Z</time>
      </trkpt>
      <trkpt lat="49.47296" lon="-1.30467">
        <ele>23.824096</ele>
        <time>2022-07-31T13:19:17.000Z</time>
      </trkpt>
      <trkpt lat="49.47293" lon="-1.30474">
        <ele>23.793135</ele>
        <time>2022-07-31T13:19:18.000Z</time>
      </trkpt>
      <trkpt lat="49.47291" lon="-1.30482">
        <ele>23.761784</ele>
        <time>2022-07-31T13:19:19.000Z</time>
      </trkpt>
      <trkpt lat="49.47288" lon="-1.3049">
        <ele>23.728605</ele>
        <time>2022-07-31T13:19:20.000Z</time>
      </trkpt>
      <trkpt lat="49.47285" lon="-1.30499">
        <ele>23.695633</ele>
        <time>2022-07-31T13:19:21.000Z</time>
      </trkpt>
      <trkpt lat="49.47282" lon="-1.30507">
        <ele>23.66328</ele>
        <time>2022-07-31T13:19:22.000Z</time>
      </trkpt>
      <trkpt lat="49.47279" lon="-1.30515">
        <ele>23.630308</ele>
        <time>2022-07-31T13:19:23.000Z</time>
      </trkpt>
      <trkpt lat="49.47277" lon="-1.30523">
        <ele>23.599627</ele>
        <time>2022-07-31T13:19:24.000Z</time>
      </trkpt>
      <trkpt lat="49.47274" lon="-1.30531">
        <ele>23.567274</ele>
        <time>2022-07-31T13:19:25.000Z</time>
      </trkpt>
      <trkpt lat="49.47271" lon="-1.30539">
        <ele>23.535922</ele>
        <time>2022-07-31T13:19:26.000Z</time>
      </trkpt>
      <trkpt lat="49.47269" lon="-1.30547">
        <ele>23.504331</ele>
        <time>2022-07-31T13:19:27.000Z</time>
      </trkpt>
      <trkpt lat="49.47266" lon="-1.30555">
        <ele>23.471977</ele>
        <time>2022-07-31T13:19:28.000Z</time>
      </trkpt>
      <trkpt lat="49.47264" lon="-1.30563">
        <ele>23.441297</ele>
        <time>2022-07-31T13:19:29.000Z</time>
      </trkpt>
      <trkpt lat="49.47261" lon="-1.30571">
        <ele>23.411045</ele>
        <time>2022-07-31T13:19:30.000Z</time>
      </trkpt>
      <trkpt lat="49.4726" lon="-1.30579">
        <ele>23.380962</ele>
        <time>2022-07-31T13:19:31.000Z</time>
      </trkpt>
      <trkpt lat="49.47257" lon="-1.30587">
        <ele>23.350282</ele>
        <time>2022-07-31T13:19:32.000Z</time>
      </trkpt>
      <trkpt lat="49.47255" lon="-1.30594">
        <ele>23.32003</ele>
        <time>2022-07-31T13:19:33.000Z</time>
      </trkpt>
      <trkpt lat="49.47253" lon="-1.30603">
        <ele>23.289283</ele>
        <time>2022-07-31T13:19:34.000Z</time>
      </trkpt>
      <trkpt lat="49.47251" lon="-1.30611">
        <ele>23.2592</ele>
        <time>2022-07-31T13:19:35.000Z</time>
      </trkpt>
      <trkpt lat="49.47249" lon="-1.30619">
        <ele>23.22852</ele>
        <time>2022-07-31T13:19:36.000Z</time>
      </trkpt>
      <trkpt lat="49.47247" lon="-1.30627">
        <ele>23.198957</ele>
        <time>2022-07-31T13:19:37.000Z</time>
      </trkpt>
      <trkpt lat="49.47245" lon="-1.30635">
        <ele>23.166438</ele>
        <time>2022-07-31T13:19:38.000Z</time>
      </trkpt>
      <trkpt lat="49.47243" lon="-1.30643">
        <ele>23.135358</ele>
        <time>2022-07-31T13:19:39.000Z</time>
      </trkpt>
      <trkpt lat="49.47242" lon="-1.30651">
        <ele>23.107479</ele>
        <time>2022-07-31T13:19:40.000Z</time>
      </trkpt>
      <trkpt lat="49.4724" lon="-1.30659">
        <ele>23.078389</ele>
        <time>2022-07-31T13:19:41.000Z</time>
      </trkpt>
      <trkpt lat="49.47237" lon="-1.30666">
        <ele>23.049099</ele>
        <time>2022-07-31T13:19:42.000Z</time>
      </trkpt>
      <trkpt lat="49.47236" lon="-1.30674">
        <ele>23.020668</ele>
        <time>2022-07-31T13:19:43.000Z</time>
      </trkpt>
      <trkpt lat="49.47233" lon="-1.30681">
        <ele>22.99096</ele>
        <time>2022-07-31T13:19:44.000Z</time>
      </trkpt>
      <trkpt lat="49.47232" lon="-1.30689">
        <ele>22.962072</ele>
        <time>2022-07-31T13:19:45.000Z</time>
      </trkpt>
      <trkpt lat="49.47229" lon="-1.30697">
        <ele>22.932141</ele>
        <time>2022-07-31T13:19:46.000Z</time>
      </trkpt>
      <trkpt lat="49.47228" lon="-1.30704">
        <ele>22.904368</ele>
        <time>2022-07-31T13:19:47.000Z</time>
      </trkpt>
      <trkpt lat="49.47226" lon="-1.30712">
        <ele>22.875816</ele>
        <time>2022-07-31T13:19:48.000Z</time>
      </trkpt>
      <trkpt lat="49.47224" lon="-1.3072">
        <ele>22.851977</ele>
        <time>2022-07-31T13:19:49.000Z</time>
      </trkpt>
      <trkpt lat="49.47222" lon="-1.30727">
        <ele>22.833314</ele>
        <time>2022-07-31T13:19:50.000Z</time>
      </trkpt>
      <trkpt lat="49.4722" lon="-1.30735">
        <ele>22.813427</ele>
        <time>2022-07-31T13:19:51.000Z</time>
      </trkpt>
      <trkpt lat="49.47218" lon="-1.30743">
        <ele>22.793161</ele>
        <time>2022-07-31T13:19:52.000Z</time>
      </trkpt>
      <trkpt lat="49.47216" lon="-1.3075">
        <ele>22.773908</ele>
        <time>2022-07-31T13:19:53.000Z</time>
      </trkpt>
      <trkpt lat="49.47214" lon="-1.30758">
        <ele>22.754876</ele>
        <time>2022-07-31T13:19:54.000Z</time>
      </trkpt>
      <trkpt lat="49.47213" lon="-1.30766">
        <ele>22.735403</ele>
        <time>2022-07-31T13:19:55.000Z</time>
      </trkpt>
      <trkpt lat="49.47211" lon="-1.30773">
        <ele>22.71593</ele>
        <time>2022-07-31T13:19:56.000Z</time>
      </trkpt>
      <trkpt lat="49.47209" lon="-1.30781">
        <ele>22.696544</ele>
        <time>2022-07-31T13:19:57.000Z</time>
      </trkpt>
      <trkpt lat="49.47206" lon="-1.30789">
        <ele>22.676656</ele>
        <time>2022-07-31T13:19:58.000Z</time>
      </trkpt>
      <trkpt lat="49.47205" lon="-1.30796">
        <ele>22.657847</ele>
        <time>2022-07-31T13:19:59.000Z</time>
      </trkpt>
      <trkpt lat="49.47204" lon="-1.30804">
        <ele>22.639632</ele>
        <time>2022-07-31T13:20:00.000Z</time>
      </trkpt>
      <trkpt lat="49.47202" lon="-1.3081">
        <ele>22.6231</ele>
        <time>2022-07-31T13:20:01.000Z</time>
      </trkpt>
      <trkpt lat="49.47201" lon="-1.30817">
        <ele>22.607388</ele>
        <time>2022-07-31T13:20:02.000Z</time>
      </trkpt>
      <trkpt lat="49.47199" lon="-1.30822">
        <ele>22.594099</ele>
        <time>2022-07-31T13:20:03.000Z</time>
      </trkpt>
      <trkpt lat="49.47196" lon="-1.30826">
        <ele>22.578797</ele>
        <time>2022-07-31T13:20:04.000Z</time>
      </trkpt>
      <trkpt lat="49.47193" lon="-1.30828">
        <ele>22.566927</ele>
        <time>2022-07-31T13:20:05.000Z</time>
      </trkpt>
      <trkpt lat="49.47189" lon="-1.30829">
        <ele>22.552541</ele>
        <time>2022-07-31T13:20:06.000Z</time>
      </trkpt>
      <trkpt lat="49.47186" lon="-1.30829">
        <ele>22.538697</ele>
        <time>2022-07-31T13:20:07.000Z</time>
      </trkpt>
      <trkpt lat="49.47181" lon="-1.30827">
        <ele>22.523062</ele>
        <time>2022-07-31T13:20:08.000Z</time>
      </trkpt>
      <trkpt lat="49.47177" lon="-1.30825">
        <ele>22.504969</ele>
        <time>2022-07-31T13:20:09.000Z</time>
      </trkpt>
      <trkpt lat="49.47172" lon="-1.30822">
        <ele>22.487459</ele>
        <time>2022-07-31T13:20:10.000Z</time>
      </trkpt>
      <trkpt lat="49.47168" lon="-1.3082">
        <ele>22.470052</ele>
        <time>2022-07-31T13:20:11.000Z</time>
      </trkpt>
      <trkpt lat="49.47163" lon="-1.30817">
        <ele>22.45035</ele>
        <time>2022-07-31T13:20:12.000Z</time>
      </trkpt>
      <trkpt lat="49.47158" lon="-1.30814">
        <ele>22.431501</ele>
        <time>2022-07-31T13:20:13.000Z</time>
      </trkpt>
      <trkpt lat="49.47153" lon="-1.30811">
        <ele>22.411124</ele>
        <time>2022-07-31T13:20:14.000Z</time>
      </trkpt>
      <trkpt lat="49.47148" lon="-1.30808">
        <ele>22.392275</ele>
        <time>2022-07-31T13:20:15.000Z</time>
      </trkpt>
      <trkpt lat="49.47143" lon="-1.30805">
        <ele>22.372727</ele>
        <time>2022-07-31T13:20:16.000Z</time>
      </trkpt>
      <trkpt lat="49.47138" lon="-1.30802">
        <ele>22.353694</ele>
        <time>2022-07-31T13:20:17.000Z</time>
      </trkpt>
      <trkpt lat="49.47133" lon="-1.30799">
        <ele>22.332962</ele>
        <time>2022-07-31T13:20:18.000Z</time>
      </trkpt>
      <trkpt lat="49.47128" lon="-1.30796">
        <ele>22.315211</ele>
        <time>2022-07-31T13:20:19.000Z</time>
      </trkpt>
      <trkpt lat="49.47123" lon="-1.30794">
        <ele>22.29551</ele>
        <time>2022-07-31T13:20:20.000Z</time>
      </trkpt>
      <trkpt lat="49.47118" lon="-1.30791">
        <ele>22.276916</ele>
        <time>2022-07-31T13:20:21.000Z</time>
      </trkpt>
      <trkpt lat="49.47113" lon="-1.30788">
        <ele>22.255981</ele>
        <time>2022-07-31T13:20:22.000Z</time>
      </trkpt>
      <trkpt lat="49.47108" lon="-1.30785">
        <ele>22.237132</ele>
        <time>2022-07-31T13:20:23.000Z</time>
      </trkpt>
      <trkpt lat="49.47103" lon="-1.30782">
        <ele>22.21735</ele>
        <time>2022-07-31T13:20:24.000Z</time>
      </trkpt>
      <trkpt lat="49.47098" lon="-1.3078">
        <ele>22.234669</ele>
        <time>2022-07-31T13:20:25.000Z</time>
      </trkpt>
      <trkpt lat="49.47093" lon="-1.30777">
        <ele>22.282688</ele>
        <time>2022-07-31T13:20:26.000Z</time>
      </trkpt>
      <trkpt lat="49.47088" lon="-1.30775">
        <ele>22.330507</ele>
        <time>2022-07-31T13:20:27.000Z</time>
      </trkpt>
      <trkpt lat="49.47083" lon="-1.30772">
        <ele>22.381016</ele>
        <time>2022-07-31T13:20:28.000Z</time>
      </trkpt>
      <trkpt lat="49.47078" lon="-1.30769">
        <ele>22.429677</ele>
        <time>2022-07-31T13:20:29.000Z</time>
      </trkpt>
      <trkpt lat="49.47073" lon="-1.30767">
        <ele>22.480375</ele>
        <time>2022-07-31T13:20:30.000Z</time>
      </trkpt>
      <trkpt lat="49.47069" lon="-1.30765">
        <ele>22.527301</ele>
        <time>2022-07-31T13:20:31.000Z</time>
      </trkpt>
      <trkpt lat="49.47063" lon="-1.30764">
        <ele>22.575816</ele>
        <time>2022-07-31T13:20:32.000Z</time>
      </trkpt>
      <trkpt lat="49.47058" lon="-1.30764">
        <ele>22.624901</ele>
        <time>2022-07-31T13:20:33.000Z</time>
      </trkpt>
      <trkpt lat="49.47053" lon="-1.30765">
        <ele>22.673683</ele>
        <time>2022-07-31T13:20:34.000Z</time>
      </trkpt>
      <trkpt lat="49.47048" lon="-1.30767">
        <ele>22.720162</ele>
        <time>2022-07-31T13:20:35.000Z</time>
      </trkpt>
      <trkpt lat="49.47043" lon="-1.30769">
        <ele>22.769827</ele>
        <time>2022-07-31T13:20:36.000Z</time>
      </trkpt>
      <trkpt lat="49.47039" lon="-1.30771">
        <ele>22.814572</ele>
        <time>2022-07-31T13:20:37.000Z</time>
      </trkpt>
      <trkpt lat="49.47034" lon="-1.30773">
        <ele>22.865081</ele>
        <time>2022-07-31T13:20:38.000Z</time>
      </trkpt>
      <trkpt lat="49.47029" lon="-1.30775">
        <ele>22.908806</ele>
        <time>2022-07-31T13:20:39.000Z</time>
      </trkpt>
      <trkpt lat="49.47024" lon="-1.30776">
        <ele>22.957181</ele>
        <time>2022-07-31T13:20:40.000Z</time>
      </trkpt>
      <trkpt lat="49.47019" lon="-1.30776">
        <ele>23.00258</ele>
        <time>2022-07-31T13:20:41.000Z</time>
      </trkpt>
      <trkpt lat="49.47014" lon="-1.30777">
        <ele>23.050803</ele>
        <time>2022-07-31T13:20:42.000Z</time>
      </trkpt>
      <trkpt lat="49.47009" lon="-1.30777">
        <ele>23.096202</ele>
        <time>2022-07-31T13:20:43.000Z</time>
      </trkpt>
      <trkpt lat="49.47004" lon="-1.30779">
        <ele>23.144887</ele>
        <time>2022-07-31T13:20:44.000Z</time>
      </trkpt>
      <trkpt lat="49.46999" lon="-1.30779">
        <ele>23.190447</ele>
        <time>2022-07-31T13:20:45.000Z</time>
      </trkpt>
      <trkpt lat="49.46994" lon="-1.3078">
        <ele>23.242406</ele>
        <time>2022-07-31T13:20:46.000Z</time>
      </trkpt>
      <trkpt lat="49.46989" lon="-1.3078">
        <ele>23.290567</ele>
        <time>2022-07-31T13:20:47.000Z</time>
      </trkpt>
      <trkpt lat="49.46983" lon="-1.3078">
        <ele>23.341557</ele>
        <time>2022-07-31T13:20:48.000Z</time>
      </trkpt>
      <trkpt lat="49.46978" lon="-1.3078">
        <ele>23.39349</ele>
        <time>2022-07-31T13:20:49.000Z</time>
      </trkpt>
      <trkpt lat="49.46973" lon="-1.3078">
        <ele>23.441632</ele>
        <time>2022-07-31T13:20:50.000Z</time>
      </trkpt>
      <trkpt lat="49.46967" lon="-1.3078">
        <ele>23.492622</ele>
        <time>2022-07-31T13:20:51.000Z</time>
      </trkpt>
      <trkpt lat="49.46962" lon="-1.3078">
        <ele>23.544523</ele>
        <time>2022-07-31T13:20:52.000Z</time>
      </trkpt>
      <trkpt lat="49.46957" lon="-1.3078">
        <ele>23.59548</ele>
        <time>2022-07-31T13:20:53.000Z</time>
      </trkpt>
      <trkpt lat="49.46951" lon="-1.30779">
        <ele>23.643641</ele>
        <time>2022-07-31T13:20:54.000Z</time>
      </trkpt>
      <trkpt lat="49.46946" lon="-1.30779">
        <ele>23.698427</ele>
        <time>2022-07-31T13:20:55.000Z</time>
      </trkpt>
      <trkpt lat="49.4694" lon="-1.30779">
        <ele>23.749417</ele>
        <time>2022-07-31T13:20:56.000Z</time>
      </trkpt>
      <trkpt lat="49.46934" lon="-1.30779">
        <ele>23.804149</ele>
        <time>2022-07-31T13:20:57.000Z</time>
      </trkpt>
      <trkpt lat="49.46929" lon="-1.30778">
        <ele>23.858911</ele>
        <time>2022-07-31T13:20:58.000Z</time>
      </trkpt>
      <trkpt lat="49.46923" lon="-1.30778">
        <ele>23.91726</ele>
        <time>2022-07-31T13:20:59.000Z</time>
      </trkpt>
      <trkpt lat="49.46917" lon="-1.30777">
        <ele>23.978396</ele>
        <time>2022-07-31T13:21:00.000Z</time>
      </trkpt>
      <trkpt lat="49.46911" lon="-1.30777">
        <ele>24.041642</ele>
        <time>2022-07-31T13:21:01.000Z</time>
      </trkpt>
      <trkpt lat="49.46906" lon="-1.30776">
        <ele>24.105909</ele>
        <time>2022-07-31T13:21:02.000Z</time>
      </trkpt>
      <trkpt lat="49.469" lon="-1.30776">
        <ele>24.170261</ele>
        <time>2022-07-31T13:21:03.000Z</time>
      </trkpt>
      <trkpt lat="49.46894" lon="-1.30776">
        <ele>24.233405</ele>
        <time>2022-07-31T13:21:04.000Z</time>
      </trkpt>
      <trkpt lat="49.46889" lon="-1.30775">
        <ele>24.294439</ele>
        <time>2022-07-31T13:21:05.000Z</time>
      </trkpt>
      <trkpt lat="49.46884" lon="-1.30775">
        <ele>24.35105</ele>
        <time>2022-07-31T13:21:06.000Z</time>
      </trkpt>
      <trkpt lat="49.46878" lon="-1.30774">
        <ele>24.411026</ele>
        <time>2022-07-31T13:21:07.000Z</time>
      </trkpt>
      <trkpt lat="49.46873" lon="-1.30774">
        <ele>24.47206</ele>
        <time>2022-07-31T13:21:08.000Z</time>
      </trkpt>
      <trkpt lat="49.46868" lon="-1.30773">
        <ele>24.528781</ele>
        <time>2022-07-31T13:21:09.000Z</time>
      </trkpt>
      <trkpt lat="49.46862" lon="-1.30773">
        <ele>24.58864</ele>
        <time>2022-07-31T13:21:10.000Z</time>
      </trkpt>
      <trkpt lat="49.46857" lon="-1.30773">
        <ele>24.649585</ele>
        <time>2022-07-31T13:21:11.000Z</time>
      </trkpt>
      <trkpt lat="49.46851" lon="-1.30772">
        <ele>24.709423</ele>
        <time>2022-07-31T13:21:12.000Z</time>
      </trkpt>
      <trkpt lat="49.46846" lon="-1.30772">
        <ele>24.766034</ele>
        <time>2022-07-31T13:21:13.000Z</time>
      </trkpt>
      <trkpt lat="49.46841" lon="-1.30771">
        <ele>24.827475</ele>
        <time>2022-07-31T13:21:14.000Z</time>
      </trkpt>
      <trkpt lat="49.46835" lon="-1.3077">
        <ele>24.887507</ele>
        <time>2022-07-31T13:21:15.000Z</time>
      </trkpt>
      <trkpt lat="49.46829" lon="-1.30769">
        <ele>24.955326</ele>
        <time>2022-07-31T13:21:16.000Z</time>
      </trkpt>
      <trkpt lat="49.46824" lon="-1.30768">
        <ele>25.012193</ele>
        <time>2022-07-31T13:21:17.000Z</time>
      </trkpt>
      <trkpt lat="49.46819" lon="-1.30767">
        <ele>25.072535</ele>
        <time>2022-07-31T13:21:18.000Z</time>
      </trkpt>
      <trkpt lat="49.46813" lon="-1.30766">
        <ele>25.133887</ele>
        <time>2022-07-31T13:21:19.000Z</time>
      </trkpt>
      <trkpt lat="49.46808" lon="-1.30765">
        <ele>25.191041</ele>
        <time>2022-07-31T13:21:20.000Z</time>
      </trkpt>
      <trkpt lat="49.46803" lon="-1.30764">
        <ele>25.251589</ele>
        <time>2022-07-31T13:21:21.000Z</time>
      </trkpt>
      <trkpt lat="49.46797" lon="-1.30762">
        <ele>25.313344</ele>
        <time>2022-07-31T13:21:22.000Z</time>
      </trkpt>
      <trkpt lat="49.46792" lon="-1.30761">
        <ele>25.374131</ele>
        <time>2022-07-31T13:21:23.000Z</time>
      </trkpt>
      <trkpt lat="49.46787" lon="-1.30759">
        <ele>25.431791</ele>
        <time>2022-07-31T13:21:24.000Z</time>
      </trkpt>
      <trkpt lat="49.46781" lon="-1.30757">
        <ele>25.491533</ele>
        <time>2022-07-31T13:21:25.000Z</time>
      </trkpt>
      <trkpt lat="49.46777" lon="-1.30754">
        <ele>25.548399</ele>
        <time>2022-07-31T13:21:26.000Z</time>
      </trkpt>
      <trkpt lat="49.46772" lon="-1.30751">
        <ele>25.60997</ele>
        <time>2022-07-31T13:21:27.000Z</time>
      </trkpt>
      <trkpt lat="49.46767" lon="-1.30747">
        <ele>25.669124</ele>
        <time>2022-07-31T13:21:28.000Z</time>
      </trkpt>
      <trkpt lat="49.46761" lon="-1.30743">
        <ele>25.735205</ele>
        <time>2022-07-31T13:21:29.000Z</time>
      </trkpt>
      <trkpt lat="49.46757" lon="-1.30739">
        <ele>25.796022</ele>
        <time>2022-07-31T13:21:30.000Z</time>
      </trkpt>
      <trkpt lat="49.46751" lon="-1.30735">
        <ele>25.860101</ele>
        <time>2022-07-31T13:21:31.000Z</time>
      </trkpt>
      <trkpt lat="49.46747" lon="-1.30731">
        <ele>25.923667</ele>
        <time>2022-07-31T13:21:32.000Z</time>
      </trkpt>
      <trkpt lat="49.46741" lon="-1.30726">
        <ele>25.995234</ele>
        <time>2022-07-31T13:21:33.000Z</time>
      </trkpt>
      <trkpt lat="49.46737" lon="-1.30722">
        <ele>26.062218</ele>
        <time>2022-07-31T13:21:34.000Z</time>
      </trkpt>
      <trkpt lat="49.46732" lon="-1.30718">
        <ele>26.132351</ele>
        <time>2022-07-31T13:21:35.000Z</time>
      </trkpt>
      <trkpt lat="49.46727" lon="-1.30713">
        <ele>26.199732</ele>
        <time>2022-07-31T13:21:36.000Z</time>
      </trkpt>
      <trkpt lat="49.46722" lon="-1.30709">
        <ele>26.270632</ele>
        <time>2022-07-31T13:21:37.000Z</time>
      </trkpt>
      <trkpt lat="49.46717" lon="-1.30705">
        <ele>26.33684</ele>
        <time>2022-07-31T13:21:38.000Z</time>
      </trkpt>
      <trkpt lat="49.46712" lon="-1.30701">
        <ele>26.406601</ele>
        <time>2022-07-31T13:21:39.000Z</time>
      </trkpt>
      <trkpt lat="49.46707" lon="-1.30696">
        <ele>26.473193</ele>
        <time>2022-07-31T13:21:40.000Z</time>
      </trkpt>
      <trkpt lat="49.46702" lon="-1.30692">
        <ele>26.542587</ele>
        <time>2022-07-31T13:21:41.000Z</time>
      </trkpt>
      <trkpt lat="49.46697" lon="-1.30688">
        <ele>26.609968</ele>
        <time>2022-07-31T13:21:42.000Z</time>
      </trkpt>
      <trkpt lat="49.46692" lon="-1.30684">
        <ele>26.681162</ele>
        <time>2022-07-31T13:21:43.000Z</time>
      </trkpt>
      <trkpt lat="49.46687" lon="-1.30679">
        <ele>26.748145</ele>
        <time>2022-07-31T13:21:44.000Z</time>
      </trkpt>
      <trkpt lat="49.46682" lon="-1.30675">
        <ele>26.818659</ele>
        <time>2022-07-31T13:21:45.000Z</time>
      </trkpt>
      <trkpt lat="49.46677" lon="-1.30671">
        <ele>26.882541</ele>
        <time>2022-07-31T13:21:46.000Z</time>
      </trkpt>
      <trkpt lat="49.46672" lon="-1.30666">
        <ele>26.952675</ele>
        <time>2022-07-31T13:21:47.000Z</time>
      </trkpt>
      <trkpt lat="49.46668" lon="-1.30662">
        <ele>27.021289</ele>
        <time>2022-07-31T13:21:48.000Z</time>
      </trkpt>
      <trkpt lat="49.46662" lon="-1.30657">
        <ele>27.09105</ele>
        <time>2022-07-31T13:21:49.000Z</time>
      </trkpt>
      <trkpt lat="49.46658" lon="-1.30653">
        <ele>27.159246</ele>
        <time>2022-07-31T13:21:50.000Z</time>
      </trkpt>
      <trkpt lat="49.46653" lon="-1.30648">
        <ele>27.22976</ele>
        <time>2022-07-31T13:21:51.000Z</time>
      </trkpt>
      <trkpt lat="49.46648" lon="-1.30644">
        <ele>27.296744</ele>
        <time>2022-07-31T13:21:52.000Z</time>
      </trkpt>
      <trkpt lat="49.46643" lon="-1.3064">
        <ele>27.366504</ele>
        <time>2022-07-31T13:21:53.000Z</time>
      </trkpt>
      <trkpt lat="49.46638" lon="-1.30636">
        <ele>27.432336</ele>
        <time>2022-07-31T13:21:54.000Z</time>
      </trkpt>
      <trkpt lat="49.46633" lon="-1.30632">
        <ele>27.502801</ele>
        <time>2022-07-31T13:21:55.000Z</time>
      </trkpt>
      <trkpt lat="49.46628" lon="-1.30627">
        <ele>27.570182</ele>
        <time>2022-07-31T13:21:56.000Z</time>
      </trkpt>
      <trkpt lat="49.46623" lon="-1.30623">
        <ele>27.640316</ele>
        <time>2022-07-31T13:21:57.000Z</time>
      </trkpt>
      <trkpt lat="49.46618" lon="-1.30619">
        <ele>27.70504</ele>
        <time>2022-07-31T13:21:58.000Z</time>
      </trkpt>
      <trkpt lat="49.46613" lon="-1.30614">
        <ele>27.772023</ele>
        <time>2022-07-31T13:21:59.000Z</time>
      </trkpt>
      <trkpt lat="49.46608" lon="-1.3061">
        <ele>27.842924</ele>
        <time>2022-07-31T13:22:00.000Z</time>
      </trkpt>
      <trkpt lat="49.46604" lon="-1.30606">
        <ele>27.908756</ele>
        <time>2022-07-31T13:22:01.000Z</time>
      </trkpt>
      <trkpt lat="49.46598" lon="-1.30602">
        <ele>27.978517</ele>
        <time>2022-07-31T13:22:02.000Z</time>
      </trkpt>
      <trkpt lat="49.46593" lon="-1.30597">
        <ele>28.051844</ele>
        <time>2022-07-31T13:22:03.000Z</time>
      </trkpt>
      <trkpt lat="49.46588" lon="-1.30593">
        <ele>28.152976</ele>
        <time>2022-07-31T13:22:04.000Z</time>
      </trkpt>
      <trkpt lat="49.46583" lon="-1.30588">
        <ele>28.268129</ele>
        <time>2022-07-31T13:22:05.000Z</time>
      </trkpt>
      <trkpt lat="49.46579" lon="-1.30584">
        <ele>28.369131</ele>
        <time>2022-07-31T13:22:06.000Z</time>
      </trkpt>
      <trkpt lat="49.46574" lon="-1.3058">
        <ele>28.476842</ele>
        <time>2022-07-31T13:22:07.000Z</time>
      </trkpt>
      <trkpt lat="49.46569" lon="-1.30576">
        <ele>28.583323</ele>
        <time>2022-07-31T13:22:08.000Z</time>
      </trkpt>
      <trkpt lat="49.46565" lon="-1.30572">
        <ele>28.686651</ele>
        <time>2022-07-31T13:22:09.000Z</time>
      </trkpt>
      <trkpt lat="49.4656" lon="-1.30567">
        <ele>28.789316</ele>
        <time>2022-07-31T13:22:10.000Z</time>
      </trkpt>
      <trkpt lat="49.46555" lon="-1.30563">
        <ele>28.896407</ele>
        <time>2022-07-31T13:22:11.000Z</time>
      </trkpt>
      <trkpt lat="49.46551" lon="-1.30559">
        <ele>28.99778</ele>
        <time>2022-07-31T13:22:12.000Z</time>
      </trkpt>
      <trkpt lat="49.46546" lon="-1.30555">
        <ele>29.100445</ele>
        <time>2022-07-31T13:22:13.000Z</time>
      </trkpt>
      <trkpt lat="49.46541" lon="-1.30551">
        <ele>29.213884</ele>
        <time>2022-07-31T13:22:14.000Z</time>
      </trkpt>
      <trkpt lat="49.46537" lon="-1.30546">
        <ele>29.318572</ele>
        <time>2022-07-31T13:22:15.000Z</time>
      </trkpt>
      <trkpt lat="49.46532" lon="-1.30542">
        <ele>29.420934</ele>
        <time>2022-07-31T13:22:16.000Z</time>
      </trkpt>
      <trkpt lat="49.46527" lon="-1.30537">
        <ele>29.530576</ele>
        <time>2022-07-31T13:22:17.000Z</time>
      </trkpt>
      <trkpt lat="49.46523" lon="-1.30533">
        <ele>29.63596</ele>
        <time>2022-07-31T13:22:18.000Z</time>
      </trkpt>
      <trkpt lat="49.46518" lon="-1.30528">
        <ele>29.739963</ele>
        <time>2022-07-31T13:22:19.000Z</time>
      </trkpt>
      <trkpt lat="49.46513" lon="-1.30524">
        <ele>29.855278</ele>
        <time>2022-07-31T13:22:20.000Z</time>
      </trkpt>
      <trkpt lat="49.46509" lon="-1.30519">
        <ele>29.96626</ele>
        <time>2022-07-31T13:22:21.000Z</time>
      </trkpt>
      <trkpt lat="49.46504" lon="-1.30514">
        <ele>30.077242</ele>
        <time>2022-07-31T13:22:22.000Z</time>
      </trkpt>
      <trkpt lat="49.46499" lon="-1.3051">
        <ele>30.182626</ele>
        <time>2022-07-31T13:22:23.000Z</time>
      </trkpt>
      <trkpt lat="49.46494" lon="-1.30505">
        <ele>30.293608</ele>
        <time>2022-07-31T13:22:24.000Z</time>
      </trkpt>
      <trkpt lat="49.4649" lon="-1.305">
        <ele>30.40459</ele>
        <time>2022-07-31T13:22:25.000Z</time>
      </trkpt>
      <trkpt lat="49.46485" lon="-1.30496">
        <ele>30.514897</ele>
        <time>2022-07-31T13:22:26.000Z</time>
      </trkpt>
      <trkpt lat="49.46481" lon="-1.30491">
        <ele>30.618483</ele>
        <time>2022-07-31T13:22:27.000Z</time>
      </trkpt>
      <trkpt lat="49.46476" lon="-1.30486">
        <ele>30.731552</ele>
        <time>2022-07-31T13:22:28.000Z</time>
      </trkpt>
      <trkpt lat="49.46471" lon="-1.30481">
        <ele>30.839776</ele>
        <time>2022-07-31T13:22:29.000Z</time>
      </trkpt>
      <trkpt lat="49.46467" lon="-1.30475">
        <ele>30.949553</ele>
        <time>2022-07-31T13:22:30.000Z</time>
      </trkpt>
      <trkpt lat="49.46463" lon="-1.3047">
        <ele>31.053139</ele>
        <time>2022-07-31T13:22:31.000Z</time>
      </trkpt>
      <trkpt lat="49.46458" lon="-1.30466">
        <ele>31.164806</ele>
        <time>2022-07-31T13:22:32.000Z</time>
      </trkpt>
      <trkpt lat="49.46454" lon="-1.30461">
        <ele>31.265301</ele>
        <time>2022-07-31T13:22:33.000Z</time>
      </trkpt>
      <trkpt lat="49.4645" lon="-1.30456">
        <ele>31.368887</ele>
        <time>2022-07-31T13:22:34.000Z</time>
      </trkpt>
      <trkpt lat="49.46445" lon="-1.30451">
        <ele>31.477161</ele>
        <time>2022-07-31T13:22:35.000Z</time>
      </trkpt>
      <trkpt lat="49.46441" lon="-1.30445">
        <ele>31.580715</ele>
        <time>2022-07-31T13:22:36.000Z</time>
      </trkpt>
      <trkpt lat="49.46437" lon="-1.3044">
        <ele>31.655784</ele>
        <time>2022-07-31T13:22:37.000Z</time>
      </trkpt>
      <trkpt lat="49.46433" lon="-1.30435">
        <ele>31.731421</ele>
        <time>2022-07-31T13:22:38.000Z</time>
      </trkpt>
      <trkpt lat="49.46428" lon="-1.3043">
        <ele>31.808168</ele>
        <time>2022-07-31T13:22:39.000Z</time>
      </trkpt>
      <trkpt lat="49.46424" lon="-1.30425">
        <ele>31.882676</ele>
        <time>2022-07-31T13:22:40.000Z</time>
      </trkpt>
      <trkpt lat="49.4642" lon="-1.3042">
        <ele>31.956082</ele>
        <time>2022-07-31T13:22:41.000Z</time>
      </trkpt>
      <trkpt lat="49.46416" lon="-1.30415">
        <ele>32.028922</ele>
        <time>2022-07-31T13:22:42.000Z</time>
      </trkpt>
      <trkpt lat="49.46412" lon="-1.3041">
        <ele>32.100735</ele>
        <time>2022-07-31T13:22:43.000Z</time>
      </trkpt>
      <trkpt lat="49.46408" lon="-1.30405">
        <ele>32.173575</ele>
        <time>2022-07-31T13:22:44.000Z</time>
      </trkpt>
      <trkpt lat="49.46403" lon="-1.30401">
        <ele>32.250401</ele>
        <time>2022-07-31T13:22:45.000Z</time>
      </trkpt>
      <trkpt lat="49.46399" lon="-1.30395">
        <ele>32.326039</ele>
        <time>2022-07-31T13:22:46.000Z</time>
      </trkpt>
      <trkpt lat="49.46394" lon="-1.3039">
        <ele>32.407883</ele>
        <time>2022-07-31T13:22:47.000Z</time>
      </trkpt>
      <trkpt lat="49.4639" lon="-1.30385">
        <ele>32.482433</ele>
        <time>2022-07-31T13:22:48.000Z</time>
      </trkpt>
      <trkpt lat="49.46386" lon="-1.3038">
        <ele>32.561394</ele>
        <time>2022-07-31T13:22:49.000Z</time>
      </trkpt>
      <trkpt lat="49.46381" lon="-1.30375">
        <ele>32.640907</ele>
        <time>2022-07-31T13:22:50.000Z</time>
      </trkpt>
      <trkpt lat="49.46377" lon="-1.30369">
        <ele>32.717226</ele>
        <time>2022-07-31T13:22:51.000Z</time>
      </trkpt>
      <trkpt lat="49.46373" lon="-1.30364">
        <ele>32.796187</ele>
        <time>2022-07-31T13:22:52.000Z</time>
      </trkpt>
      <trkpt lat="49.46368" lon="-1.30359">
        <ele>32.874604</ele>
        <time>2022-07-31T13:22:53.000Z</time>
      </trkpt>
      <trkpt lat="49.46364" lon="-1.30354">
        <ele>32.949113</ele>
        <time>2022-07-31T13:22:54.000Z</time>
      </trkpt>
      <trkpt lat="49.4636" lon="-1.30349">
        <ele>33.019266</ele>
        <time>2022-07-31T13:22:55.000Z</time>
      </trkpt>
      <trkpt lat="49.46356" lon="-1.30344">
        <ele>33.09322</ele>
        <time>2022-07-31T13:22:56.000Z</time>
      </trkpt>
      <trkpt lat="49.46352" lon="-1.30339">
        <ele>33.162202</ele>
        <time>2022-07-31T13:22:57.000Z</time>
      </trkpt>
      <trkpt lat="49.46348" lon="-1.30335">
        <ele>33.228385</ele>
        <time>2022-07-31T13:22:58.000Z</time>
      </trkpt>
      <trkpt lat="49.46345" lon="-1.30331">
        <ele>33.291774</ele>
        <time>2022-07-31T13:22:59.000Z</time>
      </trkpt>
      <trkpt lat="49.46341" lon="-1.30326">
        <ele>33.351384</ele>
        <time>2022-07-31T13:23:00.000Z</time>
      </trkpt>
      <trkpt lat="49.46338" lon="-1.30322">
        <ele>33.413661</ele>
        <time>2022-07-31T13:23:01.000Z</time>
      </trkpt>
      <trkpt lat="49.46335" lon="-1.30318">
        <ele>33.470376</ele>
        <time>2022-07-31T13:23:02.000Z</time>
      </trkpt>
      <trkpt lat="49.46332" lon="-1.30315">
        <ele>33.525463</ele>
        <time>2022-07-31T13:23:03.000Z</time>
      </trkpt>
      <trkpt lat="49.46328" lon="-1.30311">
        <ele>33.580026</ele>
        <time>2022-07-31T13:23:04.000Z</time>
      </trkpt>
      <trkpt lat="49.46325" lon="-1.30308">
        <ele>33.639951</ele>
        <time>2022-07-31T13:23:05.000Z</time>
      </trkpt>
      <trkpt lat="49.46321" lon="-1.30306">
        <ele>33.697925</ele>
        <time>2022-07-31T13:23:06.000Z</time>
      </trkpt>
      <trkpt lat="49.46317" lon="-1.30304">
        <ele>33.755911</ele>
        <time>2022-07-31T13:23:07.000Z</time>
      </trkpt>
      <trkpt lat="49.46314" lon="-1.303">
        <ele>33.810997</ele>
        <time>2022-07-31T13:23:08.000Z</time>
      </trkpt>
      <trkpt lat="49.4631" lon="-1.30296">
        <ele>33.870012</ele>
        <time>2022-07-31T13:23:09.000Z</time>
      </trkpt>
      <trkpt lat="49.46308" lon="-1.30291">
        <ele>33.930565</ele>
        <time>2022-07-31T13:23:10.000Z</time>
      </trkpt>
      <trkpt lat="49.46304" lon="-1.30285">
        <ele>34.000757</ele>
        <time>2022-07-31T13:23:11.000Z</time>
      </trkpt>
      <trkpt lat="49.46301" lon="-1.3028">
        <ele>34.070302</ele>
        <time>2022-07-31T13:23:12.000Z</time>
      </trkpt>
      <trkpt lat="49.46297" lon="-1.30274">
        <ele>34.077352</ele>
        <time>2022-07-31T13:23:13.000Z</time>
      </trkpt>
      <trkpt lat="49.46293" lon="-1.30269">
        <ele>34.04202</ele>
        <time>2022-07-31T13:23:14.000Z</time>
      </trkpt>
      <trkpt lat="49.46288" lon="-1.30264">
        <ele>34.003833</ele>
        <time>2022-07-31T13:23:15.000Z</time>
      </trkpt>
      <trkpt lat="49.46283" lon="-1.30258">
        <ele>33.96414</ele>
        <time>2022-07-31T13:23:16.000Z</time>
      </trkpt>
      <trkpt lat="49.46278" lon="-1.30252">
        <ele>33.925982</ele>
        <time>2022-07-31T13:23:17.000Z</time>
      </trkpt>
      <trkpt lat="49.46273" lon="-1.30246">
        <ele>33.883953</ele>
        <time>2022-07-31T13:23:18.000Z</time>
      </trkpt>
      <trkpt lat="49.46269" lon="-1.30241">
        <ele>33.846854</ele>
        <time>2022-07-31T13:23:19.000Z</time>
      </trkpt>
      <trkpt lat="49.46264" lon="-1.30235">
        <ele>33.806899</ele>
        <time>2022-07-31T13:23:20.000Z</time>
      </trkpt>
      <trkpt lat="49.46259" lon="-1.3023">
        <ele>33.766127</ele>
        <time>2022-07-31T13:23:21.000Z</time>
      </trkpt>
      <trkpt lat="49.46254" lon="-1.30224">
        <ele>33.728505</ele>
        <time>2022-07-31T13:23:22.000Z</time>
      </trkpt>
      <trkpt lat="49.46249" lon="-1.30219">
        <ele>33.687733</ele>
        <time>2022-07-31T13:23:23.000Z</time>
      </trkpt>
      <trkpt lat="49.46245" lon="-1.30213">
        <ele>33.649576</ele>
        <time>2022-07-31T13:23:24.000Z</time>
      </trkpt>
      <trkpt lat="49.4624" lon="-1.30208">
        <ele>33.610396</ele>
        <time>2022-07-31T13:23:25.000Z</time>
      </trkpt>
      <trkpt lat="49.46235" lon="-1.30202">
        <ele>33.56913</ele>
        <time>2022-07-31T13:23:26.000Z</time>
      </trkpt>
      <trkpt lat="49.4623" lon="-1.30196">
        <ele>33.529175</ele>
        <time>2022-07-31T13:23:27.000Z</time>
      </trkpt>
      <trkpt lat="49.46225" lon="-1.30191">
        <ele>33.489996</ele>
        <time>2022-07-31T13:23:28.000Z</time>
      </trkpt>
      <trkpt lat="49.46221" lon="-1.30185">
        <ele>33.451566</ele>
        <time>2022-07-31T13:23:29.000Z</time>
      </trkpt>
      <trkpt lat="49.46216" lon="-1.30179">
        <ele>33.410794</ele>
        <time>2022-07-31T13:23:30.000Z</time>
      </trkpt>
      <trkpt lat="49.46211" lon="-1.30174">
        <ele>33.369528</ele>
        <time>2022-07-31T13:23:31.000Z</time>
      </trkpt>
      <trkpt lat="49.46206" lon="-1.30168">
        <ele>33.329835</ele>
        <time>2022-07-31T13:23:32.000Z</time>
      </trkpt>
      <trkpt lat="49.46201" lon="-1.30162">
        <ele>33.289348</ele>
        <time>2022-07-31T13:23:33.000Z</time>
      </trkpt>
      <trkpt lat="49.46196" lon="-1.30156">
        <ele>33.247303</ele>
        <time>2022-07-31T13:23:34.000Z</time>
      </trkpt>
      <trkpt lat="49.46191" lon="-1.30151">
        <ele>33.208123</ele>
        <time>2022-07-31T13:23:35.000Z</time>
      </trkpt>
      <trkpt lat="49.46187" lon="-1.30145">
        <ele>33.170468</ele>
        <time>2022-07-31T13:23:36.000Z</time>
      </trkpt>
      <trkpt lat="49.46182" lon="-1.3014">
        <ele>33.13228</ele>
        <time>2022-07-31T13:23:37.000Z</time>
      </trkpt>
      <trkpt lat="49.46177" lon="-1.30135">
        <ele>33.095943</ele>
        <time>2022-07-31T13:23:38.000Z</time>
      </trkpt>
      <trkpt lat="49.46173" lon="-1.3013">
        <ele>33.0591</ele>
        <time>2022-07-31T13:23:39.000Z</time>
      </trkpt>
      <trkpt lat="49.46169" lon="-1.30125">
        <ele>33.024336</ele>
        <time>2022-07-31T13:23:40.000Z</time>
      </trkpt>
      <trkpt lat="49.46165" lon="-1.3012">
        <ele>32.990086</ele>
        <time>2022-07-31T13:23:41.000Z</time>
      </trkpt>
      <trkpt lat="49.46161" lon="-1.30115">
        <ele>32.957655</ele>
        <time>2022-07-31T13:23:42.000Z</time>
      </trkpt>
      <trkpt lat="49.46156" lon="-1.3011">
        <ele>32.923068</ele>
        <time>2022-07-31T13:23:43.000Z</time>
      </trkpt>
      <trkpt lat="49.46152" lon="-1.30105">
        <ele>32.897938</ele>
        <time>2022-07-31T13:23:44.000Z</time>
      </trkpt>
      <trkpt lat="49.46147" lon="-1.301">
        <ele>32.872482</ele>
        <time>2022-07-31T13:23:45.000Z</time>
      </trkpt>
      <trkpt lat="49.46142" lon="-1.30095">
        <ele>32.844505</ele>
        <time>2022-07-31T13:23:46.000Z</time>
      </trkpt>
      <trkpt lat="49.46138" lon="-1.30089">
        <ele>32.819048</ele>
        <time>2022-07-31T13:23:47.000Z</time>
      </trkpt>
      <trkpt lat="49.46133" lon="-1.30084">
        <ele>32.791811</ele>
        <time>2022-07-31T13:23:48.000Z</time>
      </trkpt>
      <trkpt lat="49.46127" lon="-1.30078">
        <ele>32.762721</ele>
        <time>2022-07-31T13:23:49.000Z</time>
      </trkpt>
      <trkpt lat="49.46122" lon="-1.30073">
        <ele>32.734375</ele>
        <time>2022-07-31T13:23:50.000Z</time>
      </trkpt>
      <trkpt lat="49.46118" lon="-1.30067">
        <ele>32.70891</ele>
        <time>2022-07-31T13:23:51.000Z</time>
      </trkpt>
      <trkpt lat="49.46113" lon="-1.30062">
        <ele>32.682025</ele>
        <time>2022-07-31T13:23:52.000Z</time>
      </trkpt>
      <trkpt lat="49.46108" lon="-1.30056">
        <ele>32.65368</ele>
        <time>2022-07-31T13:23:53.000Z</time>
      </trkpt>
      <trkpt lat="49.46103" lon="-1.30051">
        <ele>32.628578</ele>
        <time>2022-07-31T13:23:54.000Z</time>
      </trkpt>
      <trkpt lat="49.46098" lon="-1.30046">
        <ele>32.600719</ele>
        <time>2022-07-31T13:23:55.000Z</time>
      </trkpt>
      <trkpt lat="49.46094" lon="-1.3004">
        <ele>32.576285</ele>
        <time>2022-07-31T13:23:56.000Z</time>
      </trkpt>
      <trkpt lat="49.46089" lon="-1.30034">
        <ele>32.549047</ele>
        <time>2022-07-31T13:23:57.000Z</time>
      </trkpt>
      <trkpt lat="49.46085" lon="-1.30029">
        <ele>32.524647</ele>
        <time>2022-07-31T13:23:58.000Z</time>
      </trkpt>
      <trkpt lat="49.4608" lon="-1.30024">
        <ele>32.498276</ele>
        <time>2022-07-31T13:23:59.000Z</time>
      </trkpt>
      <trkpt lat="49.46076" lon="-1.30019">
        <ele>32.47317</ele>
        <time>2022-07-31T13:24:00.000Z</time>
      </trkpt>
      <trkpt lat="49.46071" lon="-1.30014">
        <ele>32.448247</ele>
        <time>2022-07-31T13:24:01.000Z</time>
      </trkpt>
      <trkpt lat="49.46066" lon="-1.30009">
        <ele>32.420702</ele>
        <time>2022-07-31T13:24:02.000Z</time>
      </trkpt>
      <trkpt lat="49.46061" lon="-1.30004">
        <ele>32.394664</ele>
        <time>2022-07-31T13:24:03.000Z</time>
      </trkpt>
      <trkpt lat="49.46057" lon="-1.29999">
        <ele>32.368625</ele>
        <time>2022-07-31T13:24:04.000Z</time>
      </trkpt>
      <trkpt lat="49.46052" lon="-1.29994">
        <ele>32.342586</ele>
        <time>2022-07-31T13:24:05.000Z</time>
      </trkpt>
      <trkpt lat="49.46047" lon="-1.29989">
        <ele>32.315421</ele>
        <time>2022-07-31T13:24:06.000Z</time>
      </trkpt>
      <trkpt lat="49.46042" lon="-1.29984">
        <ele>32.290487</ele>
        <time>2022-07-31T13:24:07.000Z</time>
      </trkpt>
      <trkpt lat="49.46038" lon="-1.29978">
        <ele>32.265385</ele>
        <time>2022-07-31T13:24:08.000Z</time>
      </trkpt>
      <trkpt lat="49.46033" lon="-1.29973">
        <ele>32.238501</ele>
        <time>2022-07-31T13:24:09.000Z</time>
      </trkpt>
      <trkpt lat="49.46029" lon="-1.29967">
        <ele>32.212317</ele>
        <time>2022-07-31T13:24:10.000Z</time>
      </trkpt>
      <trkpt lat="49.46024" lon="-1.29961">
        <ele>32.186572</ele>
        <time>2022-07-31T13:24:11.000Z</time>
      </trkpt>
      <trkpt lat="49.4602" lon="-1.29955">
        <ele>32.160542</ele>
        <time>2022-07-31T13:24:12.000Z</time>
      </trkpt>
      <trkpt lat="49.46016" lon="-1.29948">
        <ele>32.133624</ele>
        <time>2022-07-31T13:24:13.000Z</time>
      </trkpt>
      <trkpt lat="49.46012" lon="-1.29941">
        <ele>32.096629</ele>
        <time>2022-07-31T13:24:14.000Z</time>
      </trkpt>
      <trkpt lat="49.46008" lon="-1.29934">
        <ele>32.03735</ele>
        <time>2022-07-31T13:24:15.000Z</time>
      </trkpt>
      <trkpt lat="49.46004" lon="-1.29927">
        <ele>31.979638</ele>
        <time>2022-07-31T13:24:16.000Z</time>
      </trkpt>
      <trkpt lat="49.46" lon="-1.29919">
        <ele>31.920838</ele>
        <time>2022-07-31T13:24:17.000Z</time>
      </trkpt>
      <trkpt lat="49.45997" lon="-1.29912">
        <ele>31.863126</ele>
        <time>2022-07-31T13:24:18.000Z</time>
      </trkpt>
      <trkpt lat="49.45993" lon="-1.29905">
        <ele>31.804805</ele>
        <time>2022-07-31T13:24:19.000Z</time>
      </trkpt>
      <trkpt lat="49.45989" lon="-1.29898">
        <ele>31.747575</ele>
        <time>2022-07-31T13:24:20.000Z</time>
      </trkpt>
      <trkpt lat="49.45985" lon="-1.29891">
        <ele>31.688296</ele>
        <time>2022-07-31T13:24:21.000Z</time>
      </trkpt>
      <trkpt lat="49.45981" lon="-1.29884">
        <ele>31.631544</ele>
        <time>2022-07-31T13:24:22.000Z</time>
      </trkpt>
      <trkpt lat="49.45977" lon="-1.29877">
        <ele>31.57272</ele>
        <time>2022-07-31T13:24:23.000Z</time>
      </trkpt>
      <trkpt lat="49.45973" lon="-1.2987">
        <ele>31.51549</ele>
        <time>2022-07-31T13:24:24.000Z</time>
      </trkpt>
      <trkpt lat="49.45969" lon="-1.29863">
        <ele>31.458738</ele>
        <time>2022-07-31T13:24:25.000Z</time>
      </trkpt>
      <trkpt lat="49.45965" lon="-1.29856">
        <ele>31.401368</ele>
        <time>2022-07-31T13:24:26.000Z</time>
      </trkpt>
      <trkpt lat="49.45961" lon="-1.29849">
        <ele>31.343195</ele>
        <time>2022-07-31T13:24:27.000Z</time>
      </trkpt>
      <trkpt lat="49.45957" lon="-1.29842">
        <ele>31.286764</ele>
        <time>2022-07-31T13:24:28.000Z</time>
      </trkpt>
      <trkpt lat="49.45953" lon="-1.29835">
        <ele>31.231432</ele>
        <time>2022-07-31T13:24:29.000Z</time>
      </trkpt>
      <trkpt lat="49.45949" lon="-1.29829">
        <ele>31.175928</ele>
        <time>2022-07-31T13:24:30.000Z</time>
      </trkpt>
      <trkpt lat="49.45946" lon="-1.29822">
        <ele>31.121527</ele>
        <time>2022-07-31T13:24:31.000Z</time>
      </trkpt>
      <trkpt lat="49.45942" lon="-1.29815">
        <ele>31.068782</ele>
        <time>2022-07-31T13:24:32.000Z</time>
      </trkpt>
      <trkpt lat="49.45939" lon="-1.29809">
        <ele>31.01298</ele>
        <time>2022-07-31T13:24:33.000Z</time>
      </trkpt>
      <trkpt lat="49.45935" lon="-1.29802">
        <ele>30.95561</ele>
        <time>2022-07-31T13:24:34.000Z</time>
      </trkpt>
      <trkpt lat="49.45931" lon="-1.29795">
        <ele>30.896975</ele>
        <time>2022-07-31T13:24:35.000Z</time>
      </trkpt>
      <trkpt lat="49.45927" lon="-1.29787">
        <ele>30.84045</ele>
        <time>2022-07-31T13:24:36.000Z</time>
      </trkpt>
      <trkpt lat="49.45923" lon="-1.2978">
        <ele>30.781816</ele>
        <time>2022-07-31T13:24:37.000Z</time>
      </trkpt>
      <trkpt lat="49.45919" lon="-1.29773">
        <ele>30.726366</ele>
        <time>2022-07-31T13:24:38.000Z</time>
      </trkpt>
      <trkpt lat="49.45916" lon="-1.29766">
        <ele>30.670822</ele>
        <time>2022-07-31T13:24:39.000Z</time>
      </trkpt>
      <trkpt lat="49.45913" lon="-1.29759">
        <ele>30.616546</ele>
        <time>2022-07-31T13:24:40.000Z</time>
      </trkpt>
      <trkpt lat="49.45909" lon="-1.29752">
        <ele>30.561591</ele>
        <time>2022-07-31T13:24:41.000Z</time>
      </trkpt>
      <trkpt lat="49.45906" lon="-1.29745">
        <ele>30.505145</ele>
        <time>2022-07-31T13:24:42.000Z</time>
      </trkpt>
      <trkpt lat="49.45903" lon="-1.29738">
        <ele>30.452437</ele>
        <time>2022-07-31T13:24:43.000Z</time>
      </trkpt>
      <trkpt lat="49.45899" lon="-1.2973">
        <ele>30.39649</ele>
        <time>2022-07-31T13:24:44.000Z</time>
      </trkpt>
      <trkpt lat="49.45896" lon="-1.29723">
        <ele>30.450814</ele>
        <time>2022-07-31T13:24:45.000Z</time>
      </trkpt>
      <trkpt lat="49.45893" lon="-1.29716">
        <ele>30.516048</ele>
        <time>2022-07-31T13:24:46.000Z</time>
      </trkpt>
      <trkpt lat="49.4589" lon="-1.29708">
        <ele>30.582504</ele>
        <time>2022-07-31T13:24:47.000Z</time>
      </trkpt>
      <trkpt lat="49.45886" lon="-1.297">
        <ele>30.650825</ele>
        <time>2022-07-31T13:24:48.000Z</time>
      </trkpt>
      <trkpt lat="49.45883" lon="-1.29693">
        <ele>30.716164</ele>
        <time>2022-07-31T13:24:49.000Z</time>
      </trkpt>
      <trkpt lat="49.45881" lon="-1.29684">
        <ele>30.782505</ele>
        <time>2022-07-31T13:24:50.000Z</time>
      </trkpt>
      <trkpt lat="49.45878" lon="-1.29676">
        <ele>30.848573</ele>
        <time>2022-07-31T13:24:51.000Z</time>
      </trkpt>
      <trkpt lat="49.45876" lon="-1.29668">
        <ele>30.91218</ele>
        <time>2022-07-31T13:24:52.000Z</time>
      </trkpt>
      <trkpt lat="49.45873" lon="-1.29661">
        <ele>30.972675</ele>
        <time>2022-07-31T13:24:53.000Z</time>
      </trkpt>
      <trkpt lat="49.45871" lon="-1.29653">
        <ele>31.035618</ele>
        <time>2022-07-31T13:24:54.000Z</time>
      </trkpt>
      <trkpt lat="49.45869" lon="-1.29645">
        <ele>31.097444</ele>
        <time>2022-07-31T13:24:55.000Z</time>
      </trkpt>
      <trkpt lat="49.45866" lon="-1.29637">
        <ele>31.162784</ele>
        <time>2022-07-31T13:24:56.000Z</time>
      </trkpt>
      <trkpt lat="49.45864" lon="-1.29629">
        <ele>31.225278</ele>
        <time>2022-07-31T13:24:57.000Z</time>
      </trkpt>
      <trkpt lat="49.45861" lon="-1.29622">
        <ele>31.286237</ele>
        <time>2022-07-31T13:24:58.000Z</time>
      </trkpt>
      <trkpt lat="49.45859" lon="-1.29614">
        <ele>31.347396</ele>
        <time>2022-07-31T13:24:59.000Z</time>
      </trkpt>
      <trkpt lat="49.45856" lon="-1.29606">
        <ele>31.412736</ele>
        <time>2022-07-31T13:25:00.000Z</time>
      </trkpt>
      <trkpt lat="49.45854" lon="-1.29598">
        <ele>31.47523</ele>
        <time>2022-07-31T13:25:01.000Z</time>
      </trkpt>
      <trkpt lat="49.45852" lon="-1.29591">
        <ele>31.536189</ele>
        <time>2022-07-31T13:25:02.000Z</time>
      </trkpt>
      <trkpt lat="49.4585" lon="-1.29583">
        <ele>31.59602</ele>
        <time>2022-07-31T13:25:03.000Z</time>
      </trkpt>
      <trkpt lat="49.45848" lon="-1.29576">
        <ele>31.653875</ele>
        <time>2022-07-31T13:25:04.000Z</time>
      </trkpt>
      <trkpt lat="49.45845" lon="-1.29568">
        <ele>31.714175</ele>
        <time>2022-07-31T13:25:05.000Z</time>
      </trkpt>
      <trkpt lat="49.45844" lon="-1.29561">
        <ele>31.771354</ele>
        <time>2022-07-31T13:25:06.000Z</time>
      </trkpt>
      <trkpt lat="49.45841" lon="-1.29553">
        <ele>31.832514</ele>
        <time>2022-07-31T13:25:07.000Z</time>
      </trkpt>
      <trkpt lat="49.45839" lon="-1.29546">
        <ele>31.893473</ele>
        <time>2022-07-31T13:25:08.000Z</time>
      </trkpt>
      <trkpt lat="49.45837" lon="-1.29538">
        <ele>31.956059</ele>
        <time>2022-07-31T13:25:09.000Z</time>
      </trkpt>
      <trkpt lat="49.45834" lon="-1.29531">
        <ele>32.015047</ele>
        <time>2022-07-31T13:25:10.000Z</time>
      </trkpt>
      <trkpt lat="49.45832" lon="-1.29523">
        <ele>32.074217</ele>
        <time>2022-07-31T13:25:11.000Z</time>
      </trkpt>
      <trkpt lat="49.4583" lon="-1.29516">
        <ele>32.134049</ele>
        <time>2022-07-31T13:25:12.000Z</time>
      </trkpt>
      <trkpt lat="49.45828" lon="-1.29508">
        <ele>32.195008</ele>
        <time>2022-07-31T13:25:13.000Z</time>
      </trkpt>
      <trkpt lat="49.45825" lon="-1.29501">
        <ele>32.256168</ele>
        <time>2022-07-31T13:25:14.000Z</time>
      </trkpt>
      <trkpt lat="49.45823" lon="-1.29493">
        <ele>32.318449</ele>
        <time>2022-07-31T13:25:15.000Z</time>
      </trkpt>
      <trkpt lat="49.45821" lon="-1.29485">
        <ele>32.382339</ele>
        <time>2022-07-31T13:25:16.000Z</time>
      </trkpt>
      <trkpt lat="49.45818" lon="-1.29477">
        <ele>32.396778</ele>
        <time>2022-07-31T13:25:17.000Z</time>
      </trkpt>
      <trkpt lat="49.45816" lon="-1.29469">
        <ele>32.384947</ele>
        <time>2022-07-31T13:25:18.000Z</time>
      </trkpt>
      <trkpt lat="49.45814" lon="-1.29461">
        <ele>32.373244</ele>
        <time>2022-07-31T13:25:19.000Z</time>
      </trkpt>
      <trkpt lat="49.45812" lon="-1.29454">
        <ele>32.361579</ele>
        <time>2022-07-31T13:25:20.000Z</time>
      </trkpt>
      <trkpt lat="49.45809" lon="-1.29446">
        <ele>32.349197</ele>
        <time>2022-07-31T13:25:21.000Z</time>
      </trkpt>
      <trkpt lat="49.45806" lon="-1.29439">
        <ele>32.338001</ele>
        <time>2022-07-31T13:25:22.000Z</time>
      </trkpt>
      <trkpt lat="49.45804" lon="-1.29431">
        <ele>32.326552</ele>
        <time>2022-07-31T13:25:23.000Z</time>
      </trkpt>
      <trkpt lat="49.45802" lon="-1.29423">
        <ele>32.314507</ele>
        <time>2022-07-31T13:25:24.000Z</time>
      </trkpt>
      <trkpt lat="49.458" lon="-1.29415">
        <ele>32.302421</ele>
        <time>2022-07-31T13:25:25.000Z</time>
      </trkpt>
      <trkpt lat="49.45797" lon="-1.29408">
        <ele>32.290756</ele>
        <time>2022-07-31T13:25:26.000Z</time>
      </trkpt>
      <trkpt lat="49.45795" lon="-1.294">
        <ele>32.278797</ele>
        <time>2022-07-31T13:25:27.000Z</time>
      </trkpt>
      <trkpt lat="49.45793" lon="-1.29392">
        <ele>32.2666</ele>
        <time>2022-07-31T13:25:28.000Z</time>
      </trkpt>
      <trkpt lat="49.4579" lon="-1.29384">
        <ele>32.254897</ele>
        <time>2022-07-31T13:25:29.000Z</time>
      </trkpt>
      <trkpt lat="49.45788" lon="-1.29377">
        <ele>32.243321</ele>
        <time>2022-07-31T13:25:30.000Z</time>
      </trkpt>
      <trkpt lat="49.45786" lon="-1.29369">
        <ele>32.23153</ele>
        <time>2022-07-31T13:25:31.000Z</time>
      </trkpt>
      <trkpt lat="49.45784" lon="-1.29361">
        <ele>32.219827</ele>
        <time>2022-07-31T13:25:32.000Z</time>
      </trkpt>
      <trkpt lat="49.45781" lon="-1.29354">
        <ele>32.208789</ele>
        <time>2022-07-31T13:25:33.000Z</time>
      </trkpt>
      <trkpt lat="49.45779" lon="-1.29347">
        <ele>32.197114</ele>
        <time>2022-07-31T13:25:34.000Z</time>
      </trkpt>
      <trkpt lat="49.45776" lon="-1.2934">
        <ele>32.185532</ele>
        <time>2022-07-31T13:25:35.000Z</time>
      </trkpt>
      <trkpt lat="49.45774" lon="-1.29332">
        <ele>32.17421</ele>
        <time>2022-07-31T13:25:36.000Z</time>
      </trkpt>
      <trkpt lat="49.45772" lon="-1.29325">
        <ele>32.163172</ele>
        <time>2022-07-31T13:25:37.000Z</time>
      </trkpt>
      <trkpt lat="49.45769" lon="-1.29317">
        <ele>32.150946</ele>
        <time>2022-07-31T13:25:38.000Z</time>
      </trkpt>
      <trkpt lat="49.45767" lon="-1.2931">
        <ele>32.139407</ele>
        <time>2022-07-31T13:25:39.000Z</time>
      </trkpt>
      <trkpt lat="49.45764" lon="-1.29302">
        <ele>32.127679</ele>
        <time>2022-07-31T13:25:40.000Z</time>
      </trkpt>
      <trkpt lat="49.45762" lon="-1.29295">
        <ele>32.116399</ele>
        <time>2022-07-31T13:25:41.000Z</time>
      </trkpt>
      <trkpt lat="49.4576" lon="-1.29288">
        <ele>32.105581</ele>
        <time>2022-07-31T13:25:42.000Z</time>
      </trkpt>
      <trkpt lat="49.45758" lon="-1.29281">
        <ele>32.094636</ele>
        <time>2022-07-31T13:25:43.000Z</time>
      </trkpt>
      <trkpt lat="49.45755" lon="-1.29274">
        <ele>32.083436</ele>
        <time>2022-07-31T13:25:44.000Z</time>
      </trkpt>
      <trkpt lat="49.45752" lon="-1.29268">
        <ele>32.072816</ele>
        <time>2022-07-31T13:25:45.000Z</time>
      </trkpt>
      <trkpt lat="49.45749" lon="-1.29262">
        <ele>32.061599</ele>
        <time>2022-07-31T13:25:46.000Z</time>
      </trkpt>
      <trkpt lat="49.45746" lon="-1.29256">
        <ele>32.051635</ele>
        <time>2022-07-31T13:25:47.000Z</time>
      </trkpt>
      <trkpt lat="49.45742" lon="-1.29252">
        <ele>32.04137</ele>
        <time>2022-07-31T13:25:48.000Z</time>
      </trkpt>
      <trkpt lat="49.45738" lon="-1.29249">
        <ele>32.031842</ele>
        <time>2022-07-31T13:25:49.000Z</time>
      </trkpt>
      <trkpt lat="49.45734" lon="-1.29246">
        <ele>32.022401</ele>
        <time>2022-07-31T13:25:50.000Z</time>
      </trkpt>
      <trkpt lat="49.4573" lon="-1.29244">
        <ele>31.970632</ele>
        <time>2022-07-31T13:25:51.000Z</time>
      </trkpt>
      <trkpt lat="49.45725" lon="-1.29242">
        <ele>31.897802</ele>
        <time>2022-07-31T13:25:52.000Z</time>
      </trkpt>
      <trkpt lat="49.45721" lon="-1.29241">
        <ele>31.832712</ele>
        <time>2022-07-31T13:25:53.000Z</time>
      </trkpt>
      <trkpt lat="49.45717" lon="-1.2924">
        <ele>31.767026</ele>
        <time>2022-07-31T13:25:54.000Z</time>
      </trkpt>
      <trkpt lat="49.45713" lon="-1.29239">
        <ele>31.701441</ele>
        <time>2022-07-31T13:25:55.000Z</time>
      </trkpt>
      <trkpt lat="49.45709" lon="-1.29238">
        <ele>31.636896</ele>
        <time>2022-07-31T13:25:56.000Z</time>
      </trkpt>
      <trkpt lat="49.45704" lon="-1.29237">
        <ele>31.566201</ele>
        <time>2022-07-31T13:25:57.000Z</time>
      </trkpt>
      <trkpt lat="49.45699" lon="-1.29236">
        <ele>31.490589</ele>
        <time>2022-07-31T13:25:58.000Z</time>
      </trkpt>
      <trkpt lat="49.45695" lon="-1.29235">
        <ele>31.423976</ele>
        <time>2022-07-31T13:25:59.000Z</time>
      </trkpt>
      <trkpt lat="49.45691" lon="-1.29234">
        <ele>31.35943</ele>
        <time>2022-07-31T13:26:00.000Z</time>
      </trkpt>
      <trkpt lat="49.45687" lon="-1.29233">
        <ele>31.293496</ele>
        <time>2022-07-31T13:26:01.000Z</time>
      </trkpt>
      <trkpt lat="49.45682" lon="-1.29232">
        <ele>31.222304</ele>
        <time>2022-07-31T13:26:02.000Z</time>
      </trkpt>
      <trkpt lat="49.45678" lon="-1.2923">
        <ele>31.156777</ele>
        <time>2022-07-31T13:26:03.000Z</time>
      </trkpt>
      <trkpt lat="49.45674" lon="-1.29229">
        <ele>31.085585</ele>
        <time>2022-07-31T13:26:04.000Z</time>
      </trkpt>
      <trkpt lat="49.45669" lon="-1.29228">
        <ele>31.01526</ele>
        <time>2022-07-31T13:26:05.000Z</time>
      </trkpt>
      <trkpt lat="49.45664" lon="-1.29228">
        <ele>30.940456</ele>
        <time>2022-07-31T13:26:06.000Z</time>
      </trkpt>
      <trkpt lat="49.4566" lon="-1.29227">
        <ele>30.865141</ele>
        <time>2022-07-31T13:26:07.000Z</time>
      </trkpt>
      <trkpt lat="49.45655" lon="-1.29226">
        <ele>30.790071</ele>
        <time>2022-07-31T13:26:08.000Z</time>
      </trkpt>
      <trkpt lat="49.45649" lon="-1.29225">
        <ele>30.705503</ele>
        <time>2022-07-31T13:26:09.000Z</time>
      </trkpt>
      <trkpt lat="49.45644" lon="-1.29223">
        <ele>30.618823</ele>
        <time>2022-07-31T13:26:10.000Z</time>
      </trkpt>
      <trkpt lat="49.45639" lon="-1.29222">
        <ele>30.53875</ele>
        <time>2022-07-31T13:26:11.000Z</time>
      </trkpt>
      <trkpt lat="49.45633" lon="-1.29221">
        <ele>30.443366</ele>
        <time>2022-07-31T13:26:12.000Z</time>
      </trkpt>
      <trkpt lat="49.45627" lon="-1.29221">
        <ele>30.354457</ele>
        <time>2022-07-31T13:26:13.000Z</time>
      </trkpt>
      <trkpt lat="49.45621" lon="-1.2922">
        <ele>30.263711</ele>
        <time>2022-07-31T13:26:14.000Z</time>
      </trkpt>
      <trkpt lat="49.45615" lon="-1.29218">
        <ele>30.174258</ele>
        <time>2022-07-31T13:26:15.000Z</time>
      </trkpt>
      <trkpt lat="49.45609" lon="-1.29217">
        <ele>30.078207</ele>
        <time>2022-07-31T13:26:16.000Z</time>
      </trkpt>
      <trkpt lat="49.45603" lon="-1.29215">
        <ele>29.982157</ele>
        <time>2022-07-31T13:26:17.000Z</time>
      </trkpt>
      <trkpt lat="49.45597" lon="-1.29214">
        <ele>29.886106</ele>
        <time>2022-07-31T13:26:18.000Z</time>
      </trkpt>
      <trkpt lat="49.45591" lon="-1.29213">
        <ele>29.785732</ele>
        <time>2022-07-31T13:26:19.000Z</time>
      </trkpt>
      <trkpt lat="49.45585" lon="-1.29211">
        <ele>29.68998</ele>
        <time>2022-07-31T13:26:20.000Z</time>
      </trkpt>
      <trkpt lat="49.45578" lon="-1.2921">
        <ele>29.584707</ele>
        <time>2022-07-31T13:26:21.000Z</time>
      </trkpt>
      <trkpt lat="49.45572" lon="-1.29208">
        <ele>29.487936</ele>
        <time>2022-07-31T13:26:22.000Z</time>
      </trkpt>
      <trkpt lat="49.45566" lon="-1.29206">
        <ele>29.393253</ele>
        <time>2022-07-31T13:26:23.000Z</time>
      </trkpt>
      <trkpt lat="49.45559" lon="-1.29205">
        <ele>29.292269</ele>
        <time>2022-07-31T13:26:24.000Z</time>
      </trkpt>
      <trkpt lat="49.45553" lon="-1.29203">
        <ele>29.219996</ele>
        <time>2022-07-31T13:26:25.000Z</time>
      </trkpt>
      <trkpt lat="49.45547" lon="-1.29202">
        <ele>29.209071</ele>
        <time>2022-07-31T13:26:26.000Z</time>
      </trkpt>
      <trkpt lat="49.45541" lon="-1.29201">
        <ele>29.198191</ele>
        <time>2022-07-31T13:26:27.000Z</time>
      </trkpt>
      <trkpt lat="49.45535" lon="-1.29199">
        <ele>29.187247</ele>
        <time>2022-07-31T13:26:28.000Z</time>
      </trkpt>
      <trkpt lat="49.45529" lon="-1.29198">
        <ele>29.177003</ele>
        <time>2022-07-31T13:26:29.000Z</time>
      </trkpt>
      <trkpt lat="49.45523" lon="-1.29197">
        <ele>29.166136</ele>
        <time>2022-07-31T13:26:30.000Z</time>
      </trkpt>
      <trkpt lat="49.45517" lon="-1.29195">
        <ele>29.155736</ele>
        <time>2022-07-31T13:26:31.000Z</time>
      </trkpt>
      <trkpt lat="49.45512" lon="-1.29194">
        <ele>29.145559</ele>
        <time>2022-07-31T13:26:32.000Z</time>
      </trkpt>
      <trkpt lat="49.45506" lon="-1.29193">
        <ele>29.134633</ele>
        <time>2022-07-31T13:26:33.000Z</time>
      </trkpt>
      <trkpt lat="49.455" lon="-1.29192">
        <ele>29.124984</ele>
        <time>2022-07-31T13:26:34.000Z</time>
      </trkpt>
      <trkpt lat="49.45494" lon="-1.2919">
        <ele>29.114524</ele>
        <time>2022-07-31T13:26:35.000Z</time>
      </trkpt>
      <trkpt lat="49.45488" lon="-1.29189">
        <ele>29.103615</ele>
        <time>2022-07-31T13:26:36.000Z</time>
      </trkpt>
      <trkpt lat="49.45483" lon="-1.29187">
        <ele>29.093894</ele>
        <time>2022-07-31T13:26:37.000Z</time>
      </trkpt>
      <trkpt lat="49.45477" lon="-1.29187">
        <ele>29.083058</ele>
        <time>2022-07-31T13:26:38.000Z</time>
      </trkpt>
      <trkpt lat="49.45471" lon="-1.29186">
        <ele>29.072719</ele>
        <time>2022-07-31T13:26:39.000Z</time>
      </trkpt>
      <trkpt lat="49.45466" lon="-1.29185">
        <ele>29.063638</ele>
        <time>2022-07-31T13:26:40.000Z</time>
      </trkpt>
      <trkpt lat="49.4546" lon="-1.29184">
        <ele>29.053487</ele>
        <time>2022-07-31T13:26:41.000Z</time>
      </trkpt>
      <trkpt lat="49.45454" lon="-1.29183">
        <ele>29.043197</ele>
        <time>2022-07-31T13:26:42.000Z</time>
      </trkpt>
      <trkpt lat="49.45449" lon="-1.29183">
        <ele>29.033586</ele>
        <time>2022-07-31T13:26:43.000Z</time>
      </trkpt>
      <trkpt lat="49.45443" lon="-1.29182">
        <ele>29.02328</ele>
        <time>2022-07-31T13:26:44.000Z</time>
      </trkpt>
      <trkpt lat="49.45438" lon="-1.29182">
        <ele>29.013708</ele>
        <time>2022-07-31T13:26:45.000Z</time>
      </trkpt>
      <trkpt lat="49.45432" lon="-1.29182">
        <ele>29.003433</ele>
        <time>2022-07-31T13:26:46.000Z</time>
      </trkpt>
      <trkpt lat="49.45427" lon="-1.29182">
        <ele>28.993865</ele>
        <time>2022-07-31T13:26:47.000Z</time>
      </trkpt>
      <trkpt lat="49.45421" lon="-1.29182">
        <ele>28.984121</ele>
        <time>2022-07-31T13:26:48.000Z</time>
      </trkpt>
      <trkpt lat="49.45415" lon="-1.29181">
        <ele>28.974007</ele>
        <time>2022-07-31T13:26:49.000Z</time>
      </trkpt>
      <trkpt lat="49.4541" lon="-1.29181">
        <ele>28.964778</ele>
        <time>2022-07-31T13:26:50.000Z</time>
      </trkpt>
      <trkpt lat="49.45405" lon="-1.2918">
        <ele>28.955201</ele>
        <time>2022-07-31T13:26:51.000Z</time>
      </trkpt>
      <trkpt lat="49.45399" lon="-1.2918">
        <ele>28.945635</ele>
        <time>2022-07-31T13:26:52.000Z</time>
      </trkpt>
      <trkpt lat="49.45395" lon="-1.2918">
        <ele>28.937131</ele>
        <time>2022-07-31T13:26:53.000Z</time>
      </trkpt>
      <trkpt lat="49.45389" lon="-1.2918">
        <ele>28.927907</ele>
        <time>2022-07-31T13:26:54.000Z</time>
      </trkpt>
      <trkpt lat="49.45384" lon="-1.2918">
        <ele>28.918872</ele>
        <time>2022-07-31T13:26:55.000Z</time>
      </trkpt>
      <trkpt lat="49.45379" lon="-1.29179">
        <ele>28.909819</ele>
        <time>2022-07-31T13:26:56.000Z</time>
      </trkpt>
      <trkpt lat="49.45374" lon="-1.29179">
        <ele>28.911797</ele>
        <time>2022-07-31T13:26:57.000Z</time>
      </trkpt>
      <trkpt lat="49.45369" lon="-1.29179">
        <ele>28.933514</ele>
        <time>2022-07-31T13:26:58.000Z</time>
      </trkpt>
      <trkpt lat="49.45364" lon="-1.29178">
        <ele>28.956957</ele>
        <time>2022-07-31T13:26:59.000Z</time>
      </trkpt>
      <trkpt lat="49.45359" lon="-1.29177">
        <ele>28.975779</ele>
        <time>2022-07-31T13:27:00.000Z</time>
      </trkpt>
      <trkpt lat="49.45355" lon="-1.29177">
        <ele>28.99625</ele>
        <time>2022-07-31T13:27:01.000Z</time>
      </trkpt>
      <trkpt lat="49.45349" lon="-1.29176">
        <ele>29.018419</ele>
        <time>2022-07-31T13:27:02.000Z</time>
      </trkpt>
      <trkpt lat="49.45344" lon="-1.29176">
        <ele>29.040164</ele>
        <time>2022-07-31T13:27:03.000Z</time>
      </trkpt>
      <trkpt lat="49.45339" lon="-1.29176">
        <ele>29.061881</ele>
        <time>2022-07-31T13:27:04.000Z</time>
      </trkpt>
      <trkpt lat="49.45334" lon="-1.29175">
        <ele>29.082352</ele>
        <time>2022-07-31T13:27:05.000Z</time>
      </trkpt>
      <trkpt lat="49.45329" lon="-1.29175">
        <ele>29.104068</ele>
        <time>2022-07-31T13:27:06.000Z</time>
      </trkpt>
      <trkpt lat="49.45325" lon="-1.29174">
        <ele>29.124679</ele>
        <time>2022-07-31T13:27:07.000Z</time>
      </trkpt>
      <trkpt lat="49.45319" lon="-1.29173">
        <ele>29.146522</ele>
        <time>2022-07-31T13:27:08.000Z</time>
      </trkpt>
      <trkpt lat="49.45315" lon="-1.29172">
        <ele>29.167132</ele>
        <time>2022-07-31T13:27:09.000Z</time>
      </trkpt>
      <trkpt lat="49.45309" lon="-1.29171">
        <ele>29.189369</ele>
        <time>2022-07-31T13:27:10.000Z</time>
      </trkpt>
      <trkpt lat="49.45305" lon="-1.2917">
        <ele>29.20998</ele>
        <time>2022-07-31T13:27:11.000Z</time>
      </trkpt>
      <trkpt lat="49.453" lon="-1.29169">
        <ele>29.231976</ele>
        <time>2022-07-31T13:27:12.000Z</time>
      </trkpt>
      <trkpt lat="49.45295" lon="-1.29167">
        <ele>29.251511</ele>
        <time>2022-07-31T13:27:13.000Z</time>
      </trkpt>
      <trkpt lat="49.4529" lon="-1.29166">
        <ele>29.273605</ele>
        <time>2022-07-31T13:27:14.000Z</time>
      </trkpt>
      <trkpt lat="49.45285" lon="-1.29164">
        <ele>29.293197</ele>
        <time>2022-07-31T13:27:15.000Z</time>
      </trkpt>
      <trkpt lat="49.45281" lon="-1.29163">
        <ele>29.312435</ele>
        <time>2022-07-31T13:27:16.000Z</time>
      </trkpt>
      <trkpt lat="49.45276" lon="-1.29161">
        <ele>29.335177</ele>
        <time>2022-07-31T13:27:17.000Z</time>
      </trkpt>
      <trkpt lat="49.45271" lon="-1.29159">
        <ele>29.3547</ele>
        <time>2022-07-31T13:27:18.000Z</time>
      </trkpt>
      <trkpt lat="49.45267" lon="-1.29157">
        <ele>29.37463</ele>
        <time>2022-07-31T13:27:19.000Z</time>
      </trkpt>
      <trkpt lat="49.45262" lon="-1.29155">
        <ele>29.395791</ele>
        <time>2022-07-31T13:27:20.000Z</time>
      </trkpt>
      <trkpt lat="49.45258" lon="-1.29153">
        <ele>29.414342</ele>
        <time>2022-07-31T13:27:21.000Z</time>
      </trkpt>
      <trkpt lat="49.45254" lon="-1.29151">
        <ele>29.432819</ele>
        <time>2022-07-31T13:27:22.000Z</time>
      </trkpt>
      <trkpt lat="49.4525" lon="-1.29148">
        <ele>29.450797</ele>
        <time>2022-07-31T13:27:23.000Z</time>
      </trkpt>
      <trkpt lat="49.45246" lon="-1.29146">
        <ele>29.467886</ele>
        <time>2022-07-31T13:27:24.000Z</time>
      </trkpt>
      <trkpt lat="49.45242" lon="-1.29145">
        <ele>29.485061</ele>
        <time>2022-07-31T13:27:25.000Z</time>
      </trkpt>
      <trkpt lat="49.45238" lon="-1.29143">
        <ele>29.5019</ele>
        <time>2022-07-31T13:27:26.000Z</time>
      </trkpt>
      <trkpt lat="49.45235" lon="-1.29142">
        <ele>29.515915</ele>
        <time>2022-07-31T13:27:27.000Z</time>
      </trkpt>
      <trkpt lat="49.45232" lon="-1.29141">
        <ele>29.529998</ele>
        <time>2022-07-31T13:27:28.000Z</time>
      </trkpt>
      <trkpt lat="49.45229" lon="-1.29139">
        <ele>29.54408</ele>
        <time>2022-07-31T13:27:29.000Z</time>
      </trkpt>
      <trkpt lat="49.45226" lon="-1.29138">
        <ele>29.556101</ele>
        <time>2022-07-31T13:27:30.000Z</time>
      </trkpt>
      <trkpt lat="49.45223" lon="-1.29136">
        <ele>29.571804</ele>
        <time>2022-07-31T13:27:31.000Z</time>
      </trkpt>
      <trkpt lat="49.4522" lon="-1.29135">
        <ele>29.582796</ele>
        <time>2022-07-31T13:27:32.000Z</time>
      </trkpt>
      <trkpt lat="49.45218" lon="-1.29134">
        <ele>29.593914</ele>
        <time>2022-07-31T13:27:33.000Z</time>
      </trkpt>
      <trkpt lat="49.45215" lon="-1.29134">
        <ele>29.606254</ele>
        <time>2022-07-31T13:27:34.000Z</time>
      </trkpt>
      <trkpt lat="49.45212" lon="-1.29134">
        <ele>29.616981</ele>
        <time>2022-07-31T13:27:35.000Z</time>
      </trkpt>
      <trkpt lat="49.4521" lon="-1.29133">
        <ele>29.628384</ele>
        <time>2022-07-31T13:27:36.000Z</time>
      </trkpt>
      <trkpt lat="49.45207" lon="-1.29132">
        <ele>29.641094</ele>
        <time>2022-07-31T13:27:37.000Z</time>
      </trkpt>
      <trkpt lat="49.45204" lon="-1.29131">
        <ele>29.652237</ele>
        <time>2022-07-31T13:27:38.000Z</time>
      </trkpt>
      <trkpt lat="49.45202" lon="-1.29129">
        <ele>29.66196</ele>
        <time>2022-07-31T13:27:39.000Z</time>
      </trkpt>
      <trkpt lat="49.452" lon="-1.29128">
        <ele>29.669963</ele>
        <time>2022-07-31T13:27:40.000Z</time>
      </trkpt>
      <trkpt lat="49.45198" lon="-1.29126">
        <ele>29.671937</ele>
        <time>2022-07-31T13:27:41.000Z</time>
      </trkpt>
      <trkpt lat="49.45196" lon="-1.29126">
        <ele>29.67411</ele>
        <time>2022-07-31T13:27:42.000Z</time>
      </trkpt>
      <trkpt lat="49.45194" lon="-1.29124">
        <ele>29.676173</ele>
        <time>2022-07-31T13:27:43.000Z</time>
      </trkpt>
      <trkpt lat="49.45192" lon="-1.29123">
        <ele>29.678775</ele>
        <time>2022-07-31T13:27:44.000Z</time>
      </trkpt>
      <trkpt lat="49.45189" lon="-1.29121">
        <ele>29.681227</ele>
        <time>2022-07-31T13:27:45.000Z</time>
      </trkpt>
      <trkpt lat="49.45187" lon="-1.2912">
        <ele>29.684038</ele>
        <time>2022-07-31T13:27:46.000Z</time>
      </trkpt>
      <trkpt lat="49.45184" lon="-1.29119">
        <ele>29.686599</ele>
        <time>2022-07-31T13:27:47.000Z</time>
      </trkpt>
      <trkpt lat="49.45181" lon="-1.29119">
        <ele>29.689674</ele>
        <time>2022-07-31T13:27:48.000Z</time>
      </trkpt>
      <trkpt lat="49.45178" lon="-1.29119">
        <ele>29.692464</ele>
        <time>2022-07-31T13:27:49.000Z</time>
      </trkpt>
      <trkpt lat="49.45175" lon="-1.29119">
        <ele>29.695539</ele>
        <time>2022-07-31T13:27:50.000Z</time>
      </trkpt>
      <trkpt lat="49.45172" lon="-1.29119">
        <ele>29.698333</ele>
        <time>2022-07-31T13:27:51.000Z</time>
      </trkpt>
      <trkpt lat="49.45169" lon="-1.29119">
        <ele>29.701024</ele>
        <time>2022-07-31T13:27:52.000Z</time>
      </trkpt>
      <trkpt lat="49.45166" lon="-1.29119">
        <ele>29.703812</ele>
        <time>2022-07-31T13:27:53.000Z</time>
      </trkpt>
      <trkpt lat="49.45163" lon="-1.29119">
        <ele>29.70689</ele>
        <time>2022-07-31T13:27:54.000Z</time>
      </trkpt>
      <trkpt lat="49.4516" lon="-1.29118">
        <ele>29.710028</ele>
        <time>2022-07-31T13:27:55.000Z</time>
      </trkpt>
      <trkpt lat="49.45156" lon="-1.29117">
        <ele>29.713428</ele>
        <time>2022-07-31T13:27:56.000Z</time>
      </trkpt>
      <trkpt lat="49.45153" lon="-1.29116">
        <ele>29.716902</ele>
        <time>2022-07-31T13:27:57.000Z</time>
      </trkpt>
      <trkpt lat="49.45149" lon="-1.29115">
        <ele>29.720597</ele>
        <time>2022-07-31T13:27:58.000Z</time>
      </trkpt>
      <trkpt lat="49.45145" lon="-1.29115">
        <ele>29.724262</ele>
        <time>2022-07-31T13:27:59.000Z</time>
      </trkpt>
      <trkpt lat="49.45141" lon="-1.29114">
        <ele>29.728023</ele>
        <time>2022-07-31T13:28:00.000Z</time>
      </trkpt>
      <trkpt lat="49.45137" lon="-1.29114">
        <ele>29.73168</ele>
        <time>2022-07-31T13:28:01.000Z</time>
      </trkpt>
      <trkpt lat="49.45133" lon="-1.29113">
        <ele>29.735739</ele>
        <time>2022-07-31T13:28:02.000Z</time>
      </trkpt>
      <trkpt lat="49.45129" lon="-1.29113">
        <ele>29.739405</ele>
        <time>2022-07-31T13:28:03.000Z</time>
      </trkpt>
      <trkpt lat="49.45125" lon="-1.29112">
        <ele>29.743166</ele>
        <time>2022-07-31T13:28:04.000Z</time>
      </trkpt>
      <trkpt lat="49.45121" lon="-1.29112">
        <ele>29.747124</ele>
        <time>2022-07-31T13:28:05.000Z</time>
      </trkpt>
      <trkpt lat="49.45117" lon="-1.29111">
        <ele>29.750897</ele>
        <time>2022-07-31T13:28:06.000Z</time>
      </trkpt>
      <trkpt lat="49.45113" lon="-1.29111">
        <ele>29.754849</ele>
        <time>2022-07-31T13:28:07.000Z</time>
      </trkpt>
      <trkpt lat="49.45109" lon="-1.2911">
        <ele>29.758623</ele>
        <time>2022-07-31T13:28:08.000Z</time>
      </trkpt>
      <trkpt lat="49.45106" lon="-1.29109">
        <ele>29.762288</ele>
        <time>2022-07-31T13:28:09.000Z</time>
      </trkpt>
      <trkpt lat="49.45102" lon="-1.29109">
        <ele>29.765666</ele>
        <time>2022-07-31T13:28:10.000Z</time>
      </trkpt>
      <trkpt lat="49.45098" lon="-1.29108">
        <ele>29.769433</ele>
        <time>2022-07-31T13:28:11.000Z</time>
      </trkpt>
      <trkpt lat="49.45094" lon="-1.29108">
        <ele>29.773673</ele>
        <time>2022-07-31T13:28:12.000Z</time>
      </trkpt>
      <trkpt lat="49.4509" lon="-1.29107">
        <ele>29.777146</ele>
        <time>2022-07-31T13:28:13.000Z</time>
      </trkpt>
      <trkpt lat="49.45086" lon="-1.29107">
        <ele>29.780812</ele>
        <time>2022-07-31T13:28:14.000Z</time>
      </trkpt>
      <trkpt lat="49.45082" lon="-1.29106">
        <ele>29.784871</ele>
        <time>2022-07-31T13:28:15.000Z</time>
      </trkpt>
      <trkpt lat="49.45078" lon="-1.29105">
        <ele>29.788557</ele>
        <time>2022-07-31T13:28:16.000Z</time>
      </trkpt>
      <trkpt lat="49.45074" lon="-1.29105">
        <ele>29.792617</ele>
        <time>2022-07-31T13:28:17.000Z</time>
      </trkpt>
      <trkpt lat="49.4507" lon="-1.29104">
        <ele>29.796868</ele>
        <time>2022-07-31T13:28:18.000Z</time>
      </trkpt>
      <trkpt lat="49.45066" lon="-1.29104">
        <ele>29.800621</ele>
        <time>2022-07-31T13:28:19.000Z</time>
      </trkpt>
      <trkpt lat="49.45062" lon="-1.29103">
        <ele>29.804585</ele>
        <time>2022-07-31T13:28:20.000Z</time>
      </trkpt>
      <trkpt lat="49.45058" lon="-1.29102">
        <ele>29.808634</ele>
        <time>2022-07-31T13:28:21.000Z</time>
      </trkpt>
      <trkpt lat="49.45053" lon="-1.29102">
        <ele>29.812682</ele>
        <time>2022-07-31T13:28:22.000Z</time>
      </trkpt>
      <trkpt lat="49.45049" lon="-1.29102">
        <ele>29.816622</ele>
        <time>2022-07-31T13:28:23.000Z</time>
      </trkpt>
      <trkpt lat="49.45045" lon="-1.29101">
        <ele>29.82067</ele>
        <time>2022-07-31T13:28:24.000Z</time>
      </trkpt>
      <trkpt lat="49.45041" lon="-1.29101">
        <ele>29.824336</ele>
        <time>2022-07-31T13:28:25.000Z</time>
      </trkpt>
      <trkpt lat="49.45037" lon="-1.29101">
        <ele>29.828088</ele>
        <time>2022-07-31T13:28:26.000Z</time>
      </trkpt>
      <trkpt lat="49.45034" lon="-1.291">
        <ele>29.831766</ele>
        <time>2022-07-31T13:28:27.000Z</time>
      </trkpt>
      <trkpt lat="49.4503" lon="-1.29099">
        <ele>29.835167</ele>
        <time>2022-07-31T13:28:28.000Z</time>
      </trkpt>
      <trkpt lat="49.45027" lon="-1.29098">
        <ele>29.838305</ele>
        <time>2022-07-31T13:28:29.000Z</time>
      </trkpt>
      <trkpt lat="49.45023" lon="-1.29098">
        <ele>29.841683</ele>
        <time>2022-07-31T13:28:30.000Z</time>
      </trkpt>
      <trkpt lat="49.45019" lon="-1.29097">
        <ele>29.826997</ele>
        <time>2022-07-31T13:28:31.000Z</time>
      </trkpt>
      <trkpt lat="49.45015" lon="-1.29097">
        <ele>29.808947</ele>
        <time>2022-07-31T13:28:32.000Z</time>
      </trkpt>
      <trkpt lat="49.45011" lon="-1.29096">
        <ele>29.789009</ele>
        <time>2022-07-31T13:28:33.000Z</time>
      </trkpt>
      <trkpt lat="49.45007" lon="-1.29095">
        <ele>29.770763</ele>
        <time>2022-07-31T13:28:34.000Z</time>
      </trkpt>
      <trkpt lat="49.45003" lon="-1.29094">
        <ele>29.750733</ele>
        <time>2022-07-31T13:28:35.000Z</time>
      </trkpt>
      <trkpt lat="49.44999" lon="-1.29094">
        <ele>29.73262</ele>
        <time>2022-07-31T13:28:36.000Z</time>
      </trkpt>
      <trkpt lat="49.44995" lon="-1.29093">
        <ele>29.711213</ele>
        <time>2022-07-31T13:28:37.000Z</time>
      </trkpt>
      <trkpt lat="49.44991" lon="-1.29092">
        <ele>29.692663</ele>
        <time>2022-07-31T13:28:38.000Z</time>
      </trkpt>
      <trkpt lat="49.44986" lon="-1.29091">
        <ele>29.669738</ele>
        <time>2022-07-31T13:28:39.000Z</time>
      </trkpt>
      <trkpt lat="49.44982" lon="-1.2909">
        <ele>29.650137</ele>
        <time>2022-07-31T13:28:40.000Z</time>
      </trkpt>
      <trkpt lat="49.44978" lon="-1.2909">
        <ele>29.628697</ele>
        <time>2022-07-31T13:28:41.000Z</time>
      </trkpt>
      <trkpt lat="49.44973" lon="-1.29089">
        <ele>29.607258</ele>
        <time>2022-07-31T13:28:42.000Z</time>
      </trkpt>
      <trkpt lat="49.44968" lon="-1.29088">
        <ele>29.584372</ele>
        <time>2022-07-31T13:28:43.000Z</time>
      </trkpt>
      <trkpt lat="49.44964" lon="-1.29087">
        <ele>29.562853</ele>
        <time>2022-07-31T13:28:44.000Z</time>
      </trkpt>
      <trkpt lat="49.44959" lon="-1.29086">
        <ele>29.541802</ele>
        <time>2022-07-31T13:28:45.000Z</time>
      </trkpt>
      <trkpt lat="49.44954" lon="-1.29085">
        <ele>29.517</ele>
        <time>2022-07-31T13:28:46.000Z</time>
      </trkpt>
      <trkpt lat="49.44949" lon="-1.29084">
        <ele>29.494074</ele>
        <time>2022-07-31T13:28:47.000Z</time>
      </trkpt>
      <trkpt lat="49.44944" lon="-1.29083">
        <ele>29.46845</ele>
        <time>2022-07-31T13:28:48.000Z</time>
      </trkpt>
      <trkpt lat="49.44939" lon="-1.29083">
        <ele>29.442863</ele>
        <time>2022-07-31T13:28:49.000Z</time>
      </trkpt>
      <trkpt lat="49.44934" lon="-1.29082">
        <ele>29.419938</ele>
        <time>2022-07-31T13:28:50.000Z</time>
      </trkpt>
      <trkpt lat="49.44929" lon="-1.2908">
        <ele>29.394898</ele>
        <time>2022-07-31T13:28:51.000Z</time>
      </trkpt>
      <trkpt lat="49.44924" lon="-1.29079">
        <ele>29.371717</ele>
        <time>2022-07-31T13:28:52.000Z</time>
      </trkpt>
      <trkpt lat="49.44919" lon="-1.29077">
        <ele>29.347142</ele>
        <time>2022-07-31T13:28:53.000Z</time>
      </trkpt>
      <trkpt lat="49.44914" lon="-1.29076">
        <ele>29.324173</ele>
        <time>2022-07-31T13:28:54.000Z</time>
      </trkpt>
      <trkpt lat="49.44909" lon="-1.29076">
        <ele>29.29994</ele>
        <time>2022-07-31T13:28:55.000Z</time>
      </trkpt>
      <trkpt lat="49.44904" lon="-1.29075">
        <ele>29.275753</ele>
        <time>2022-07-31T13:28:56.000Z</time>
      </trkpt>
      <trkpt lat="49.44898" lon="-1.29074">
        <ele>29.248218</ele>
        <time>2022-07-31T13:28:57.000Z</time>
      </trkpt>
      <trkpt lat="49.44893" lon="-1.29073">
        <ele>29.222476</ele>
        <time>2022-07-31T13:28:58.000Z</time>
      </trkpt>
      <trkpt lat="49.44887" lon="-1.29072">
        <ele>29.196226</ele>
        <time>2022-07-31T13:28:59.000Z</time>
      </trkpt>
      <trkpt lat="49.44881" lon="-1.29071">
        <ele>29.167504</ele>
        <time>2022-07-31T13:29:00.000Z</time>
      </trkpt>
      <trkpt lat="49.44875" lon="-1.2907">
        <ele>29.139882</ele>
        <time>2022-07-31T13:29:01.000Z</time>
      </trkpt>
      <trkpt lat="49.44869" lon="-1.29069">
        <ele>29.110814</ele>
        <time>2022-07-31T13:29:02.000Z</time>
      </trkpt>
      <trkpt lat="49.44863" lon="-1.29067">
        <ele>29.083495</ele>
        <time>2022-07-31T13:29:03.000Z</time>
      </trkpt>
      <trkpt lat="49.44857" lon="-1.29066">
        <ele>29.054258</ele>
        <time>2022-07-31T13:29:04.000Z</time>
      </trkpt>
      <trkpt lat="49.44851" lon="-1.29064">
        <ele>29.025021</ele>
        <time>2022-07-31T13:29:05.000Z</time>
      </trkpt>
      <trkpt lat="49.44845" lon="-1.29063">
        <ele>28.994542</ele>
        <time>2022-07-31T13:29:06.000Z</time>
      </trkpt>
      <trkpt lat="49.44839" lon="-1.29062">
        <ele>28.947587</ele>
        <time>2022-07-31T13:29:07.000Z</time>
      </trkpt>
      <trkpt lat="49.44833" lon="-1.2906">
        <ele>28.901375</ele>
        <time>2022-07-31T13:29:08.000Z</time>
      </trkpt>
      <trkpt lat="49.44827" lon="-1.29058">
        <ele>28.851939</ele>
        <time>2022-07-31T13:29:09.000Z</time>
      </trkpt>
      <trkpt lat="49.44821" lon="-1.29057">
        <ele>28.804946</ele>
        <time>2022-07-31T13:29:10.000Z</time>
      </trkpt>
      <trkpt lat="49.44815" lon="-1.29055">
        <ele>28.758734</ele>
        <time>2022-07-31T13:29:11.000Z</time>
      </trkpt>
      <trkpt lat="49.4481" lon="-1.29053">
        <ele>28.711835</ele>
        <time>2022-07-31T13:29:12.000Z</time>
      </trkpt>
      <trkpt lat="49.44804" lon="-1.29052">
        <ele>28.66816</ele>
        <time>2022-07-31T13:29:13.000Z</time>
      </trkpt>
      <trkpt lat="49.44798" lon="-1.2905">
        <ele>28.620852</ele>
        <time>2022-07-31T13:29:14.000Z</time>
      </trkpt>
      <trkpt lat="49.44793" lon="-1.29048">
        <ele>28.573859</ele>
        <time>2022-07-31T13:29:15.000Z</time>
      </trkpt>
      <trkpt lat="49.44787" lon="-1.29046">
        <ele>28.527647</ele>
        <time>2022-07-31T13:29:16.000Z</time>
      </trkpt>
      <trkpt lat="49.44781" lon="-1.29045">
        <ele>28.483358</ele>
        <time>2022-07-31T13:29:17.000Z</time>
      </trkpt>
      <trkpt lat="49.44775" lon="-1.29044">
        <ele>28.435201</ele>
        <time>2022-07-31T13:29:18.000Z</time>
      </trkpt>
      <trkpt lat="49.4477" lon="-1.29043">
        <ele>28.388689</ele>
        <time>2022-07-31T13:29:19.000Z</time>
      </trkpt>
      <trkpt lat="49.44764" lon="-1.29042">
        <ele>28.342237</ele>
        <time>2022-07-31T13:29:20.000Z</time>
      </trkpt>
      <trkpt lat="49.44758" lon="-1.29041">
        <ele>28.294081</ele>
        <time>2022-07-31T13:29:21.000Z</time>
      </trkpt>
      <trkpt lat="49.44752" lon="-1.29039">
        <ele>28.247502</ele>
        <time>2022-07-31T13:29:22.000Z</time>
      </trkpt>
      <trkpt lat="49.44746" lon="-1.29039">
        <ele>28.198776</ele>
        <time>2022-07-31T13:29:23.000Z</time>
      </trkpt>
      <trkpt lat="49.4474" lon="-1.29038">
        <ele>28.14995</ele>
        <time>2022-07-31T13:29:24.000Z</time>
      </trkpt>
      <trkpt lat="49.44734" lon="-1.29036">
        <ele>28.104088</ele>
        <time>2022-07-31T13:29:25.000Z</time>
      </trkpt>
      <trkpt lat="49.44728" lon="-1.29035">
        <ele>28.057277</ele>
        <time>2022-07-31T13:29:26.000Z</time>
      </trkpt>
      <trkpt lat="49.44722" lon="-1.29033">
        <ele>28.00811</ele>
        <time>2022-07-31T13:29:27.000Z</time>
      </trkpt>
      <trkpt lat="49.44717" lon="-1.29032">
        <ele>27.96424</ele>
        <time>2022-07-31T13:29:28.000Z</time>
      </trkpt>
      <trkpt lat="49.4471" lon="-1.2903">
        <ele>27.912457</ele>
        <time>2022-07-31T13:29:29.000Z</time>
      </trkpt>
      <trkpt lat="49.44705" lon="-1.29028">
        <ele>27.868587</ele>
        <time>2022-07-31T13:29:30.000Z</time>
      </trkpt>
      <trkpt lat="49.44699" lon="-1.29026">
        <ele>27.821494</ele>
        <time>2022-07-31T13:29:31.000Z</time>
      </trkpt>
      <trkpt lat="49.44693" lon="-1.29024">
        <ele>27.771853</ele>
        <time>2022-07-31T13:29:32.000Z</time>
      </trkpt>
      <trkpt lat="49.44687" lon="-1.29022">
        <ele>27.722212</ele>
        <time>2022-07-31T13:29:33.000Z</time>
      </trkpt>
      <trkpt lat="49.44681" lon="-1.2902">
        <ele>27.675176</ele>
        <time>2022-07-31T13:29:34.000Z</time>
      </trkpt>
      <trkpt lat="49.44676" lon="-1.29017">
        <ele>27.626473</ele>
        <time>2022-07-31T13:29:35.000Z</time>
      </trkpt>
      <trkpt lat="49.4467" lon="-1.29014">
        <ele>27.578353</ele>
        <time>2022-07-31T13:29:36.000Z</time>
      </trkpt>
      <trkpt lat="49.44664" lon="-1.2901">
        <ele>27.5218</ele>
        <time>2022-07-31T13:29:37.000Z</time>
      </trkpt>
      <trkpt lat="49.44659" lon="-1.29007">
        <ele>27.458114</ele>
        <time>2022-07-31T13:29:38.000Z</time>
      </trkpt>
      <trkpt lat="49.44653" lon="-1.29004">
        <ele>27.393205</ele>
        <time>2022-07-31T13:29:39.000Z</time>
      </trkpt>
      <trkpt lat="49.44647" lon="-1.29001">
        <ele>27.332511</ele>
        <time>2022-07-31T13:29:40.000Z</time>
      </trkpt>
      <trkpt lat="49.44642" lon="-1.28998">
        <ele>27.270822</ele>
        <time>2022-07-31T13:29:41.000Z</time>
      </trkpt>
      <trkpt lat="49.44636" lon="-1.28996">
        <ele>27.207774</ele>
        <time>2022-07-31T13:29:42.000Z</time>
      </trkpt>
      <trkpt lat="49.4463" lon="-1.28993">
        <ele>27.140479</ele>
        <time>2022-07-31T13:29:43.000Z</time>
      </trkpt>
      <trkpt lat="49.44625" lon="-1.28989">
        <ele>27.077817</ele>
        <time>2022-07-31T13:29:44.000Z</time>
      </trkpt>
      <trkpt lat="49.44619" lon="-1.28986">
        <ele>27.013906</ele>
        <time>2022-07-31T13:29:45.000Z</time>
      </trkpt>
      <trkpt lat="49.44613" lon="-1.28983">
        <ele>26.948291</ele>
        <time>2022-07-31T13:29:46.000Z</time>
      </trkpt>
      <trkpt lat="49.44607" lon="-1.2898">
        <ele>26.880591</ele>
        <time>2022-07-31T13:29:47.000Z</time>
      </trkpt>
      <trkpt lat="49.44602" lon="-1.28977">
        <ele>26.82262</ele>
        <time>2022-07-31T13:29:48.000Z</time>
      </trkpt>
      <trkpt lat="49.44596" lon="-1.28974">
        <ele>26.758476</ele>
        <time>2022-07-31T13:29:49.000Z</time>
      </trkpt>
      <trkpt lat="49.4459" lon="-1.2897">
        <ele>26.693103</ele>
        <time>2022-07-31T13:29:50.000Z</time>
      </trkpt>
      <trkpt lat="49.44585" lon="-1.28967">
        <ele>26.62724</ele>
        <time>2022-07-31T13:29:51.000Z</time>
      </trkpt>
      <trkpt lat="49.44579" lon="-1.28963">
        <ele>26.56236</ele>
        <time>2022-07-31T13:29:52.000Z</time>
      </trkpt>
      <trkpt lat="49.44573" lon="-1.2896">
        <ele>26.496497</ele>
        <time>2022-07-31T13:29:53.000Z</time>
      </trkpt>
      <trkpt lat="49.44567" lon="-1.28956">
        <ele>26.431617</ele>
        <time>2022-07-31T13:29:54.000Z</time>
      </trkpt>
      <trkpt lat="49.44562" lon="-1.28953">
        <ele>26.371614</ele>
        <time>2022-07-31T13:29:55.000Z</time>
      </trkpt>
      <trkpt lat="49.44557" lon="-1.28949">
        <ele>26.306986</ele>
        <time>2022-07-31T13:29:56.000Z</time>
      </trkpt>
      <trkpt lat="49.44551" lon="-1.28946">
        <ele>26.245297</ele>
        <time>2022-07-31T13:29:57.000Z</time>
      </trkpt>
      <trkpt lat="49.44545" lon="-1.28944">
        <ele>26.182042</ele>
        <time>2022-07-31T13:29:58.000Z</time>
      </trkpt>
      <trkpt lat="49.4454" lon="-1.28941">
        <ele>26.124321</ele>
        <time>2022-07-31T13:29:59.000Z</time>
      </trkpt>
      <trkpt lat="49.44535" lon="-1.28937">
        <ele>26.0614</ele>
        <time>2022-07-31T13:30:00.000Z</time>
      </trkpt>
      <trkpt lat="49.44529" lon="-1.28934">
        <ele>25.999974</ele>
        <time>2022-07-31T13:30:01.000Z</time>
      </trkpt>
      <trkpt lat="49.44524" lon="-1.2893">
        <ele>25.934359</ele>
        <time>2022-07-31T13:30:02.000Z</time>
      </trkpt>
      <trkpt lat="49.44518" lon="-1.28927">
        <ele>25.876389</ele>
        <time>2022-07-31T13:30:03.000Z</time>
      </trkpt>
      <trkpt lat="49.44513" lon="-1.28924">
        <ele>25.811702</ele>
        <time>2022-07-31T13:30:04.000Z</time>
      </trkpt>
      <trkpt lat="49.44507" lon="-1.28921">
        <ele>25.750527</ele>
        <time>2022-07-31T13:30:05.000Z</time>
      </trkpt>
      <trkpt lat="49.44502" lon="-1.28918">
        <ele>25.689833</ele>
        <time>2022-07-31T13:30:06.000Z</time>
      </trkpt>
      <trkpt lat="49.44496" lon="-1.28915">
        <ele>25.642864</ele>
        <time>2022-07-31T13:30:07.000Z</time>
      </trkpt>
      <trkpt lat="49.44491" lon="-1.28912">
        <ele>25.614316</ele>
        <time>2022-07-31T13:30:08.000Z</time>
      </trkpt>
      <trkpt lat="49.44485" lon="-1.28909">
        <ele>25.584327</ele>
        <time>2022-07-31T13:30:09.000Z</time>
      </trkpt>
      <trkpt lat="49.44479" lon="-1.28906">
        <ele>25.555779</ele>
        <time>2022-07-31T13:30:10.000Z</time>
      </trkpt>
      <trkpt lat="49.44474" lon="-1.28902">
        <ele>25.526292</ele>
        <time>2022-07-31T13:30:11.000Z</time>
      </trkpt>
      <trkpt lat="49.44469" lon="-1.28899">
        <ele>25.49912</ele>
        <time>2022-07-31T13:30:12.000Z</time>
      </trkpt>
      <trkpt lat="49.44463" lon="-1.28896">
        <ele>25.470455</ele>
        <time>2022-07-31T13:30:13.000Z</time>
      </trkpt>
      <trkpt lat="49.44458" lon="-1.28893">
        <ele>25.440057</ele>
        <time>2022-07-31T13:30:14.000Z</time>
      </trkpt>
      <trkpt lat="49.44452" lon="-1.28889">
        <ele>25.409549</ele>
        <time>2022-07-31T13:30:15.000Z</time>
      </trkpt>
      <trkpt lat="49.44446" lon="-1.28886">
        <ele>25.37939</ele>
        <time>2022-07-31T13:30:16.000Z</time>
      </trkpt>
      <trkpt lat="49.4444" lon="-1.28883">
        <ele>25.349202</ele>
        <time>2022-07-31T13:30:17.000Z</time>
      </trkpt>
      <trkpt lat="49.44435" lon="-1.28879">
        <ele>25.320294</ele>
        <time>2022-07-31T13:30:18.000Z</time>
      </trkpt>
      <trkpt lat="49.44429" lon="-1.28876">
        <ele>25.289558</ele>
        <time>2022-07-31T13:30:19.000Z</time>
      </trkpt>
      <trkpt lat="49.44423" lon="-1.28873">
        <ele>25.259513</ele>
        <time>2022-07-31T13:30:20.000Z</time>
      </trkpt>
      <trkpt lat="49.44418" lon="-1.28869">
        <ele>25.228413</ele>
        <time>2022-07-31T13:30:21.000Z</time>
      </trkpt>
      <trkpt lat="49.44412" lon="-1.28865">
        <ele>25.197185</ele>
        <time>2022-07-31T13:30:22.000Z</time>
      </trkpt>
      <trkpt lat="49.44406" lon="-1.28861">
        <ele>25.167477</ele>
        <time>2022-07-31T13:30:23.000Z</time>
      </trkpt>
      <trkpt lat="49.44401" lon="-1.28857">
        <ele>25.139379</ele>
        <time>2022-07-31T13:30:24.000Z</time>
      </trkpt>
      <trkpt lat="49.44396" lon="-1.28853">
        <ele>25.109366</ele>
        <time>2022-07-31T13:30:25.000Z</time>
      </trkpt>
      <trkpt lat="49.4439" lon="-1.28849">
        <ele>25.079369</ele>
        <time>2022-07-31T13:30:26.000Z</time>
      </trkpt>
      <trkpt lat="49.44386" lon="-1.28844">
        <ele>25.053401</ele>
        <time>2022-07-31T13:30:27.000Z</time>
      </trkpt>
      <trkpt lat="49.44381" lon="-1.2884">
        <ele>25.024396</ele>
        <time>2022-07-31T13:30:28.000Z</time>
      </trkpt>
      <trkpt lat="49.44376" lon="-1.28836">
        <ele>24.995704</ele>
        <time>2022-07-31T13:30:29.000Z</time>
      </trkpt>
      <trkpt lat="49.4437" lon="-1.28831">
        <ele>24.964971</ele>
        <time>2022-07-31T13:30:30.000Z</time>
      </trkpt>
      <trkpt lat="49.44365" lon="-1.28827">
        <ele>24.934973</ele>
        <time>2022-07-31T13:30:31.000Z</time>
      </trkpt>
      <trkpt lat="49.4436" lon="-1.28822">
        <ele>24.905968</ele>
        <time>2022-07-31T13:30:32.000Z</time>
      </trkpt>
      <trkpt lat="49.44355" lon="-1.28818">
        <ele>24.876638</ele>
        <time>2022-07-31T13:30:33.000Z</time>
      </trkpt>
      <trkpt lat="49.4435" lon="-1.28813">
        <ele>24.848906</ele>
        <time>2022-07-31T13:30:34.000Z</time>
      </trkpt>
      <trkpt lat="49.44345" lon="-1.28808">
        <ele>24.819152</ele>
        <time>2022-07-31T13:30:35.000Z</time>
      </trkpt>
      <trkpt lat="49.4434" lon="-1.28804">
        <ele>24.790146</ele>
        <time>2022-07-31T13:30:36.000Z</time>
      </trkpt>
      <trkpt lat="49.44334" lon="-1.28799">
        <ele>24.760395</ele>
        <time>2022-07-31T13:30:37.000Z</time>
      </trkpt>
      <trkpt lat="49.4433" lon="-1.28795">
        <ele>24.733269</ele>
        <time>2022-07-31T13:30:38.000Z</time>
      </trkpt>
      <trkpt lat="49.44325" lon="-1.28791">
        <ele>24.703391</ele>
        <time>2022-07-31T13:30:39.000Z</time>
      </trkpt>
      <trkpt lat="49.4432" lon="-1.28787">
        <ele>24.675378</ele>
        <time>2022-07-31T13:30:40.000Z</time>
      </trkpt>
      <trkpt lat="49.44316" lon="-1.28783">
        <ele>24.649668</ele>
        <time>2022-07-31T13:30:41.000Z</time>
      </trkpt>
      <trkpt lat="49.44311" lon="-1.28778">
        <ele>24.619014</ele>
        <time>2022-07-31T13:30:42.000Z</time>
      </trkpt>
      <trkpt lat="49.44306" lon="-1.28774">
        <ele>24.590359</ele>
        <time>2022-07-31T13:30:43.000Z</time>
      </trkpt>
      <trkpt lat="49.44301" lon="-1.2877">
        <ele>24.560481</ele>
        <time>2022-07-31T13:30:44.000Z</time>
      </trkpt>
      <trkpt lat="49.44296" lon="-1.28766">
        <ele>24.532149</ele>
        <time>2022-07-31T13:30:45.000Z</time>
      </trkpt>
      <trkpt lat="49.44292" lon="-1.28763">
        <ele>24.505356</ele>
        <time>2022-07-31T13:30:46.000Z</time>
      </trkpt>
      <trkpt lat="49.44287" lon="-1.28759">
        <ele>24.477181</ele>
        <time>2022-07-31T13:30:47.000Z</time>
      </trkpt>
      <trkpt lat="49.44283" lon="-1.28755">
        <ele>24.451327</ele>
        <time>2022-07-31T13:30:48.000Z</time>
      </trkpt>
      <trkpt lat="49.44278" lon="-1.28752">
        <ele>24.426556</ele>
        <time>2022-07-31T13:30:49.000Z</time>
      </trkpt>
      <trkpt lat="49.44274" lon="-1.28749">
        <ele>24.401942</ele>
        <time>2022-07-31T13:30:50.000Z</time>
      </trkpt>
      <trkpt lat="49.44269" lon="-1.28746">
        <ele>24.374901</ele>
        <time>2022-07-31T13:30:51.000Z</time>
      </trkpt>
      <trkpt lat="49.44265" lon="-1.28743">
        <ele>24.351488</ele>
        <time>2022-07-31T13:30:52.000Z</time>
      </trkpt>
      <trkpt lat="49.44261" lon="-1.2874">
        <ele>24.327731</ele>
        <time>2022-07-31T13:30:53.000Z</time>
      </trkpt>
      <trkpt lat="49.44256" lon="-1.28738">
        <ele>24.301591</ele>
        <time>2022-07-31T13:30:54.000Z</time>
      </trkpt>
      <trkpt lat="49.44252" lon="-1.28735">
        <ele>24.275142</ele>
        <time>2022-07-31T13:30:55.000Z</time>
      </trkpt>
      <trkpt lat="49.44247" lon="-1.28733">
        <ele>24.24835</ele>
        <time>2022-07-31T13:30:56.000Z</time>
      </trkpt>
      <trkpt lat="49.44243" lon="-1.28729">
        <ele>24.224354</ele>
        <time>2022-07-31T13:30:57.000Z</time>
      </trkpt>
      <trkpt lat="49.44239" lon="-1.28727">
        <ele>24.201891</ele>
        <time>2022-07-31T13:30:58.000Z</time>
      </trkpt>
      <trkpt lat="49.44235" lon="-1.28724">
        <ele>24.178195</ele>
        <time>2022-07-31T13:30:59.000Z</time>
      </trkpt>
      <trkpt lat="49.44231" lon="-1.28721">
        <ele>24.155732</ele>
        <time>2022-07-31T13:31:00.000Z</time>
      </trkpt>
      <trkpt lat="49.44227" lon="-1.28718">
        <ele>24.13344</ele>
        <time>2022-07-31T13:31:01.000Z</time>
      </trkpt>
      <trkpt lat="49.44224" lon="-1.28715">
        <ele>24.11606</ele>
        <time>2022-07-31T13:31:02.000Z</time>
      </trkpt>
      <trkpt lat="49.44221" lon="-1.28712">
        <ele>24.095625</ele>
        <time>2022-07-31T13:31:03.000Z</time>
      </trkpt>
      <trkpt lat="49.44218" lon="-1.2871">
        <ele>24.077598</ele>
        <time>2022-07-31T13:31:04.000Z</time>
      </trkpt>
      <trkpt lat="49.44214" lon="-1.28709">
        <ele>24.057281</ele>
        <time>2022-07-31T13:31:05.000Z</time>
      </trkpt>
      <trkpt lat="49.4421" lon="-1.28707">
        <ele>24.034921</ele>
        <time>2022-07-31T13:31:06.000Z</time>
      </trkpt>
      <trkpt lat="49.44206" lon="-1.28706">
        <ele>24.014675</ele>
        <time>2022-07-31T13:31:07.000Z</time>
      </trkpt>
      <trkpt lat="49.44202" lon="-1.28705">
        <ele>23.992627</ele>
        <time>2022-07-31T13:31:08.000Z</time>
      </trkpt>
      <trkpt lat="49.44197" lon="-1.28705">
        <ele>23.97054</ele>
        <time>2022-07-31T13:31:09.000Z</time>
      </trkpt>
      <trkpt lat="49.44193" lon="-1.28704">
        <ele>23.947416</ele>
        <time>2022-07-31T13:31:10.000Z</time>
      </trkpt>
      <trkpt lat="49.44188" lon="-1.28703">
        <ele>23.922328</ele>
        <time>2022-07-31T13:31:11.000Z</time>
      </trkpt>
      <trkpt lat="49.44184" lon="-1.28703">
        <ele>23.898841</ele>
        <time>2022-07-31T13:31:12.000Z</time>
      </trkpt>
      <trkpt lat="49.44179" lon="-1.28703">
        <ele>23.87378</ele>
        <time>2022-07-31T13:31:13.000Z</time>
      </trkpt>
      <trkpt lat="49.44174" lon="-1.28703">
        <ele>23.847109</ele>
        <time>2022-07-31T13:31:14.000Z</time>
      </trkpt>
      <trkpt lat="49.44169" lon="-1.28702">
        <ele>23.827816</ele>
        <time>2022-07-31T13:31:15.000Z</time>
      </trkpt>
      <trkpt lat="49.44165" lon="-1.28701">
        <ele>23.81573</ele>
        <time>2022-07-31T13:31:16.000Z</time>
      </trkpt>
      <trkpt lat="49.4416" lon="-1.28701">
        <ele>23.802085</ele>
        <time>2022-07-31T13:31:17.000Z</time>
      </trkpt>
      <trkpt lat="49.44155" lon="-1.28701">
        <ele>23.790039</ele>
        <time>2022-07-31T13:31:18.000Z</time>
      </trkpt>
      <trkpt lat="49.4415" lon="-1.28701">
        <ele>23.777191</ele>
        <time>2022-07-31T13:31:19.000Z</time>
      </trkpt>
      <trkpt lat="49.44146" lon="-1.287">
        <ele>23.765905</ele>
        <time>2022-07-31T13:31:20.000Z</time>
      </trkpt>
      <trkpt lat="49.44142" lon="-1.287">
        <ele>23.754112</ele>
        <time>2022-07-31T13:31:21.000Z</time>
      </trkpt>
      <trkpt lat="49.44138" lon="-1.287">
        <ele>23.744466</ele>
        <time>2022-07-31T13:31:22.000Z</time>
      </trkpt>
      <trkpt lat="49.44134" lon="-1.28699">
        <ele>23.734292</ele>
        <time>2022-07-31T13:31:23.000Z</time>
      </trkpt>
      <trkpt lat="49.44131" lon="-1.28699">
        <ele>23.724125</ele>
        <time>2022-07-31T13:31:24.000Z</time>
      </trkpt>
      <trkpt lat="49.44127" lon="-1.28699">
        <ele>23.71545</ele>
        <time>2022-07-31T13:31:25.000Z</time>
      </trkpt>
      <trkpt lat="49.44124" lon="-1.28696">
        <ele>23.705847</ele>
        <time>2022-07-31T13:31:26.000Z</time>
      </trkpt>
      <trkpt lat="49.44122" lon="-1.28692">
        <ele>23.69625</ele>
        <time>2022-07-31T13:31:27.000Z</time>
      </trkpt>
      <trkpt lat="49.44119" lon="-1.28687">
        <ele>23.685747</ele>
        <time>2022-07-31T13:31:28.000Z</time>
      </trkpt>
      <trkpt lat="49.44117" lon="-1.28682">
        <ele>23.673155</ele>
        <time>2022-07-31T13:31:29.000Z</time>
      </trkpt>
      <trkpt lat="49.44113" lon="-1.28676">
        <ele>23.659654</ele>
        <time>2022-07-31T13:31:30.000Z</time>
      </trkpt>
      <trkpt lat="49.4411" lon="-1.2867">
        <ele>23.646015</ele>
        <time>2022-07-31T13:31:31.000Z</time>
      </trkpt>
      <trkpt lat="49.44106" lon="-1.28664">
        <ele>23.631142</ele>
        <time>2022-07-31T13:31:32.000Z</time>
      </trkpt>
      <trkpt lat="49.44102" lon="-1.28659">
        <ele>23.61718</ele>
        <time>2022-07-31T13:31:33.000Z</time>
      </trkpt>
      <trkpt lat="49.44098" lon="-1.28653">
        <ele>23.602192</ele>
        <time>2022-07-31T13:31:34.000Z</time>
      </trkpt>
      <trkpt lat="49.44093" lon="-1.28647">
        <ele>23.587205</ele>
        <time>2022-07-31T13:31:35.000Z</time>
      </trkpt>
      <trkpt lat="49.44089" lon="-1.28642">
        <ele>23.571189</ele>
        <time>2022-07-31T13:31:36.000Z</time>
      </trkpt>
      <trkpt lat="49.44085" lon="-1.28636">
        <ele>23.556632</ele>
        <time>2022-07-31T13:31:37.000Z</time>
      </trkpt>
      <trkpt lat="49.4408" lon="-1.28631">
        <ele>23.541759</ele>
        <time>2022-07-31T13:31:38.000Z</time>
      </trkpt>
      <trkpt lat="49.44077" lon="-1.28625">
        <ele>23.527187</ele>
        <time>2022-07-31T13:31:39.000Z</time>
      </trkpt>
      <trkpt lat="49.44073" lon="-1.28619">
        <ele>23.512179</ele>
        <time>2022-07-31T13:31:40.000Z</time>
      </trkpt>
      <trkpt lat="49.44069" lon="-1.28612">
        <ele>23.496711</ele>
        <time>2022-07-31T13:31:41.000Z</time>
      </trkpt>
      <trkpt lat="49.44066" lon="-1.28605">
        <ele>23.482271</ele>
        <time>2022-07-31T13:31:42.000Z</time>
      </trkpt>
      <trkpt lat="49.44063" lon="-1.28597">
        <ele>23.46694</ele>
        <time>2022-07-31T13:31:43.000Z</time>
      </trkpt>
      <trkpt lat="49.44061" lon="-1.28589">
        <ele>23.451654</ele>
        <time>2022-07-31T13:31:44.000Z</time>
      </trkpt>
      <trkpt lat="49.44059" lon="-1.28581">
        <ele>23.436836</ele>
        <time>2022-07-31T13:31:45.000Z</time>
      </trkpt>
      <trkpt lat="49.44058" lon="-1.28573">
        <ele>23.421637</ele>
        <time>2022-07-31T13:31:46.000Z</time>
      </trkpt>
      <trkpt lat="49.44056" lon="-1.28564">
        <ele>23.405669</ele>
        <time>2022-07-31T13:31:47.000Z</time>
      </trkpt>
      <trkpt lat="49.44054" lon="-1.28556">
        <ele>23.390032</ele>
        <time>2022-07-31T13:31:48.000Z</time>
      </trkpt>
      <trkpt lat="49.44052" lon="-1.28547">
        <ele>23.373692</ele>
        <time>2022-07-31T13:31:49.000Z</time>
      </trkpt>
      <trkpt lat="49.4405" lon="-1.28538">
        <ele>23.35789</ele>
        <time>2022-07-31T13:31:50.000Z</time>
      </trkpt>
      <trkpt lat="49.44047" lon="-1.2853">
        <ele>23.402332</ele>
        <time>2022-07-31T13:31:51.000Z</time>
      </trkpt>
      <trkpt lat="49.44044" lon="-1.28522">
        <ele>23.493765</ele>
        <time>2022-07-31T13:31:52.000Z</time>
      </trkpt>
      <trkpt lat="49.44041" lon="-1.28515">
        <ele>23.58687</ele>
        <time>2022-07-31T13:31:53.000Z</time>
      </trkpt>
      <trkpt lat="49.44037" lon="-1.28508">
        <ele>23.675002</ele>
        <time>2022-07-31T13:31:54.000Z</time>
      </trkpt>
      <trkpt lat="49.44034" lon="-1.28502">
        <ele>23.755443</ele>
        <time>2022-07-31T13:31:55.000Z</time>
      </trkpt>
      <trkpt lat="49.4403" lon="-1.28496">
        <ele>23.838401</ele>
        <time>2022-07-31T13:31:56.000Z</time>
      </trkpt>
      <trkpt lat="49.44026" lon="-1.28491">
        <ele>23.923309</ele>
        <time>2022-07-31T13:31:57.000Z</time>
      </trkpt>
      <trkpt lat="49.44022" lon="-1.28486">
        <ele>24.003482</ele>
        <time>2022-07-31T13:31:58.000Z</time>
      </trkpt>
      <trkpt lat="49.44018" lon="-1.2848">
        <ele>24.08618</ele>
        <time>2022-07-31T13:31:59.000Z</time>
      </trkpt>
      <trkpt lat="49.44014" lon="-1.28475">
        <ele>24.169235</ele>
        <time>2022-07-31T13:32:00.000Z</time>
      </trkpt>
      <trkpt lat="49.4401" lon="-1.2847">
        <ele>24.249903</ele>
        <time>2022-07-31T13:32:01.000Z</time>
      </trkpt>
      <trkpt lat="49.44006" lon="-1.28465">
        <ele>24.330077</ele>
        <time>2022-07-31T13:32:02.000Z</time>
      </trkpt>
      <trkpt lat="49.44003" lon="-1.28459">
        <ele>24.41025</ele>
        <time>2022-07-31T13:32:03.000Z</time>
      </trkpt>
      <trkpt lat="49.43999" lon="-1.28454">
        <ele>24.492264</ele>
        <time>2022-07-31T13:32:04.000Z</time>
      </trkpt>
      <trkpt lat="49.43995" lon="-1.28449">
        <ele>24.571087</ele>
        <time>2022-07-31T13:32:05.000Z</time>
      </trkpt>
      <trkpt lat="49.43991" lon="-1.28444">
        <ele>24.654095</ele>
        <time>2022-07-31T13:32:06.000Z</time>
      </trkpt>
      <trkpt lat="49.43987" lon="-1.28439">
        <ele>24.728752</ele>
        <time>2022-07-31T13:32:07.000Z</time>
      </trkpt>
      <trkpt lat="49.43983" lon="-1.28434">
        <ele>24.80993</ele>
        <time>2022-07-31T13:32:08.000Z</time>
      </trkpt>
      <trkpt lat="49.43979" lon="-1.28429">
        <ele>24.886141</ele>
        <time>2022-07-31T13:32:09.000Z</time>
      </trkpt>
      <trkpt lat="49.43975" lon="-1.28425">
        <ele>24.968939</ele>
        <time>2022-07-31T13:32:10.000Z</time>
      </trkpt>
      <trkpt lat="49.43971" lon="-1.2842">
        <ele>25.048858</ele>
        <time>2022-07-31T13:32:11.000Z</time>
      </trkpt>
      <trkpt lat="49.43967" lon="-1.28415">
        <ele>25.12821</ele>
        <time>2022-07-31T13:32:12.000Z</time>
      </trkpt>
      <trkpt lat="49.43963" lon="-1.28411">
        <ele>25.207526</ele>
        <time>2022-07-31T13:32:13.000Z</time>
      </trkpt>
      <trkpt lat="49.43959" lon="-1.28406">
        <ele>25.284961</ele>
        <time>2022-07-31T13:32:14.000Z</time>
      </trkpt>
      <trkpt lat="49.43955" lon="-1.28402">
        <ele>25.356928</ele>
        <time>2022-07-31T13:32:15.000Z</time>
      </trkpt>
      <trkpt lat="49.43951" lon="-1.28398">
        <ele>25.435224</ele>
        <time>2022-07-31T13:32:16.000Z</time>
      </trkpt>
      <trkpt lat="49.43947" lon="-1.28393">
        <ele>25.510178</ele>
        <time>2022-07-31T13:32:17.000Z</time>
      </trkpt>
      <trkpt lat="49.43943" lon="-1.28389">
        <ele>25.580189</ele>
        <time>2022-07-31T13:32:18.000Z</time>
      </trkpt>
      <trkpt lat="49.4394" lon="-1.28385">
        <ele>25.654598</ele>
        <time>2022-07-31T13:32:19.000Z</time>
      </trkpt>
      <trkpt lat="49.43936" lon="-1.28381">
        <ele>25.726565</ele>
        <time>2022-07-31T13:32:20.000Z</time>
      </trkpt>
      <trkpt lat="49.43932" lon="-1.28377">
        <ele>25.800396</ele>
        <time>2022-07-31T13:32:21.000Z</time>
      </trkpt>
      <trkpt lat="49.43928" lon="-1.28373">
        <ele>25.873531</ele>
        <time>2022-07-31T13:32:22.000Z</time>
      </trkpt>
      <trkpt lat="49.43925" lon="-1.28368">
        <ele>25.942912</ele>
        <time>2022-07-31T13:32:23.000Z</time>
      </trkpt>
      <trkpt lat="49.43921" lon="-1.28364">
        <ele>26.017909</ele>
        <time>2022-07-31T13:32:24.000Z</time>
      </trkpt>
      <trkpt lat="49.43917" lon="-1.2836">
        <ele>26.089206</ele>
        <time>2022-07-31T13:32:25.000Z</time>
      </trkpt>
      <trkpt lat="49.43914" lon="-1.28355">
        <ele>26.162117</ele>
        <time>2022-07-31T13:32:26.000Z</time>
      </trkpt>
      <trkpt lat="49.4391" lon="-1.2835">
        <ele>26.168789</ele>
        <time>2022-07-31T13:32:27.000Z</time>
      </trkpt>
      <trkpt lat="49.43907" lon="-1.28345">
        <ele>26.174624</ele>
        <time>2022-07-31T13:32:28.000Z</time>
      </trkpt>
      <trkpt lat="49.43903" lon="-1.28341">
        <ele>26.181184</ele>
        <time>2022-07-31T13:32:29.000Z</time>
      </trkpt>
      <trkpt lat="49.43899" lon="-1.28336">
        <ele>26.187322</ele>
        <time>2022-07-31T13:32:30.000Z</time>
      </trkpt>
      <trkpt lat="49.43895" lon="-1.28332">
        <ele>26.193775</ele>
        <time>2022-07-31T13:32:31.000Z</time>
      </trkpt>
      <trkpt lat="49.43892" lon="-1.28327">
        <ele>26.200336</ele>
        <time>2022-07-31T13:32:32.000Z</time>
      </trkpt>
      <trkpt lat="49.43888" lon="-1.28323">
        <ele>26.206843</ele>
        <time>2022-07-31T13:32:33.000Z</time>
      </trkpt>
      <trkpt lat="49.43884" lon="-1.28318">
        <ele>26.213403</ele>
        <time>2022-07-31T13:32:34.000Z</time>
      </trkpt>
      <trkpt lat="49.4388" lon="-1.28314">
        <ele>26.219856</ele>
        <time>2022-07-31T13:32:35.000Z</time>
      </trkpt>
      <trkpt lat="49.43876" lon="-1.28309">
        <ele>26.226309</ele>
        <time>2022-07-31T13:32:36.000Z</time>
      </trkpt>
      <trkpt lat="49.43872" lon="-1.28305">
        <ele>26.233298</ele>
        <time>2022-07-31T13:32:37.000Z</time>
      </trkpt>
      <trkpt lat="49.43868" lon="-1.283">
        <ele>26.239915</ele>
        <time>2022-07-31T13:32:38.000Z</time>
      </trkpt>
      <trkpt lat="49.43864" lon="-1.28295">
        <ele>26.246904</ele>
        <time>2022-07-31T13:32:39.000Z</time>
      </trkpt>
      <trkpt lat="49.4386" lon="-1.2829">
        <ele>26.253465</ele>
        <time>2022-07-31T13:32:40.000Z</time>
      </trkpt>
      <trkpt lat="49.43856" lon="-1.28285">
        <ele>26.260353</ele>
        <time>2022-07-31T13:32:41.000Z</time>
      </trkpt>
      <trkpt lat="49.43852" lon="-1.28281">
        <ele>26.267234</ele>
        <time>2022-07-31T13:32:42.000Z</time>
      </trkpt>
      <trkpt lat="49.43848" lon="-1.28276">
        <ele>26.273901</ele>
        <time>2022-07-31T13:32:43.000Z</time>
      </trkpt>
      <trkpt lat="49.43845" lon="-1.28271">
        <ele>26.279915</ele>
        <time>2022-07-31T13:32:44.000Z</time>
      </trkpt>
      <trkpt lat="49.43841" lon="-1.28266">
        <ele>26.286818</ele>
        <time>2022-07-31T13:32:45.000Z</time>
      </trkpt>
      <trkpt lat="49.43837" lon="-1.2826">
        <ele>26.293879</ele>
        <time>2022-07-31T13:32:46.000Z</time>
      </trkpt>
      <trkpt lat="49.43834" lon="-1.28255">
        <ele>26.300665</ele>
        <time>2022-07-31T13:32:47.000Z</time>
      </trkpt>
      <trkpt lat="49.4383" lon="-1.2825">
        <ele>26.307093</ele>
        <time>2022-07-31T13:32:48.000Z</time>
      </trkpt>
      <trkpt lat="49.43827" lon="-1.28245">
        <ele>26.313826</ele>
        <time>2022-07-31T13:32:49.000Z</time>
      </trkpt>
      <trkpt lat="49.43823" lon="-1.28239">
        <ele>26.321065</ele>
        <time>2022-07-31T13:32:50.000Z</time>
      </trkpt>
      <trkpt lat="49.4382" lon="-1.28233">
        <ele>26.327855</ele>
        <time>2022-07-31T13:32:51.000Z</time>
      </trkpt>
      <trkpt lat="49.43816" lon="-1.28227">
        <ele>26.334778</ele>
        <time>2022-07-31T13:32:52.000Z</time>
      </trkpt>
      <trkpt lat="49.43812" lon="-1.28221">
        <ele>26.342491</ele>
        <time>2022-07-31T13:32:53.000Z</time>
      </trkpt>
      <trkpt lat="49.43808" lon="-1.28215">
        <ele>26.350011</ele>
        <time>2022-07-31T13:32:54.000Z</time>
      </trkpt>
      <trkpt lat="49.43805" lon="-1.28208">
        <ele>26.357261</ele>
        <time>2022-07-31T13:32:55.000Z</time>
      </trkpt>
      <trkpt lat="49.43801" lon="-1.28202">
        <ele>26.364908</ele>
        <time>2022-07-31T13:32:56.000Z</time>
      </trkpt>
      <trkpt lat="49.43798" lon="-1.28195">
        <ele>26.372041</ele>
        <time>2022-07-31T13:32:57.000Z</time>
      </trkpt>
      <trkpt lat="49.43794" lon="-1.28188">
        <ele>26.379782</ele>
        <time>2022-07-31T13:32:58.000Z</time>
      </trkpt>
      <trkpt lat="49.43791" lon="-1.28181">
        <ele>26.387577</ele>
        <time>2022-07-31T13:32:59.000Z</time>
      </trkpt>
      <trkpt lat="49.43788" lon="-1.28174">
        <ele>26.394839</ele>
        <time>2022-07-31T13:33:00.000Z</time>
      </trkpt>
      <trkpt lat="49.43784" lon="-1.28167">
        <ele>26.402565</ele>
        <time>2022-07-31T13:33:01.000Z</time>
      </trkpt>
      <trkpt lat="49.43781" lon="-1.2816">
        <ele>26.397455</ele>
        <time>2022-07-31T13:33:02.000Z</time>
      </trkpt>
      <trkpt lat="49.43777" lon="-1.28153">
        <ele>26.389229</ele>
        <time>2022-07-31T13:33:03.000Z</time>
      </trkpt>
      <trkpt lat="49.43773" lon="-1.28147">
        <ele>26.381162</ele>
        <time>2022-07-31T13:33:04.000Z</time>
      </trkpt>
      <trkpt lat="49.43769" lon="-1.2814">
        <ele>26.372958</ele>
        <time>2022-07-31T13:33:05.000Z</time>
      </trkpt>
      <trkpt lat="49.43765" lon="-1.28133">
        <ele>26.364519</ele>
        <time>2022-07-31T13:33:06.000Z</time>
      </trkpt>
      <trkpt lat="49.43761" lon="-1.28126">
        <ele>26.356176</ele>
        <time>2022-07-31T13:33:07.000Z</time>
      </trkpt>
      <trkpt lat="49.43758" lon="-1.28119">
        <ele>26.348477</ele>
        <time>2022-07-31T13:33:08.000Z</time>
      </trkpt>
      <trkpt lat="49.43754" lon="-1.28112">
        <ele>26.340183</ele>
        <time>2022-07-31T13:33:09.000Z</time>
      </trkpt>
      <trkpt lat="49.4375" lon="-1.28105">
        <ele>26.332116</ele>
        <time>2022-07-31T13:33:10.000Z</time>
      </trkpt>
      <trkpt lat="49.43747" lon="-1.28098">
        <ele>26.324243</ele>
        <time>2022-07-31T13:33:11.000Z</time>
      </trkpt>
      <trkpt lat="49.43743" lon="-1.28091">
        <ele>26.316142</ele>
        <time>2022-07-31T13:33:12.000Z</time>
      </trkpt>
      <trkpt lat="49.4374" lon="-1.28084">
        <ele>26.308594</ele>
        <time>2022-07-31T13:33:13.000Z</time>
      </trkpt>
      <trkpt lat="49.43737" lon="-1.28077">
        <ele>26.300564</ele>
        <time>2022-07-31T13:33:14.000Z</time>
      </trkpt>
      <trkpt lat="49.43733" lon="-1.2807">
        <ele>26.292831</ele>
        <time>2022-07-31T13:33:15.000Z</time>
      </trkpt>
      <trkpt lat="49.4373" lon="-1.28064">
        <ele>26.28578</ele>
        <time>2022-07-31T13:33:16.000Z</time>
      </trkpt>
      <trkpt lat="49.43726" lon="-1.28058">
        <ele>26.278244</ele>
        <time>2022-07-31T13:33:17.000Z</time>
      </trkpt>
      <trkpt lat="49.43723" lon="-1.28051">
        <ele>26.27098</ele>
        <time>2022-07-31T13:33:18.000Z</time>
      </trkpt>
      <trkpt lat="49.43719" lon="-1.28045">
        <ele>26.263525</ele>
        <time>2022-07-31T13:33:19.000Z</time>
      </trkpt>
      <trkpt lat="49.43717" lon="-1.28039">
        <ele>26.256887</ele>
        <time>2022-07-31T13:33:20.000Z</time>
      </trkpt>
      <trkpt lat="49.43714" lon="-1.28033">
        <ele>26.250548</ele>
        <time>2022-07-31T13:33:21.000Z</time>
      </trkpt>
      <trkpt lat="49.43712" lon="-1.28028">
        <ele>26.244891</ele>
        <time>2022-07-31T13:33:22.000Z</time>
      </trkpt>
      <trkpt lat="49.43709" lon="-1.28023">
        <ele>26.239191</ele>
        <time>2022-07-31T13:33:23.000Z</time>
      </trkpt>
      <trkpt lat="49.43707" lon="-1.28019">
        <ele>26.234477</ele>
        <time>2022-07-31T13:33:24.000Z</time>
      </trkpt>
      <trkpt lat="49.43705" lon="-1.28016">
        <ele>26.230375</ele>
        <time>2022-07-31T13:33:25.000Z</time>
      </trkpt>
      <trkpt lat="49.43703" lon="-1.28013">
        <ele>26.226381</ele>
        <time>2022-07-31T13:33:26.000Z</time>
      </trkpt>
      <trkpt lat="49.43702" lon="-1.2801">
        <ele>26.22381</ele>
        <time>2022-07-31T13:33:27.000Z</time>
      </trkpt>
      <trkpt lat="49.43701" lon="-1.28008">
        <ele>26.221135</ele>
        <time>2022-07-31T13:33:28.000Z</time>
      </trkpt>
      <trkpt lat="49.437" lon="-1.28005">
        <ele>26.217664</ele>
        <time>2022-07-31T13:33:30.000Z</time>
      </trkpt>
      <trkpt lat="49.43705" lon="-1.28001">
        <ele>26.209043</ele>
        <time>2022-07-31T13:33:59.000Z</time>
      </trkpt>
      <trkpt lat="49.43708" lon="-1.28">
        <ele>26.20481</ele>
        <time>2022-07-31T13:34:00.000Z</time>
      </trkpt>
      <trkpt lat="49.43711" lon="-1.27997">
        <ele>26.200417</ele>
        <time>2022-07-31T13:34:01.000Z</time>
      </trkpt>
      <trkpt lat="49.43714" lon="-1.27994">
        <ele>26.195278</ele>
        <time>2022-07-31T13:34:02.000Z</time>
      </trkpt>
      <trkpt lat="49.43717" lon="-1.27991">
        <ele>26.189947</ele>
        <time>2022-07-31T13:34:03.000Z</time>
      </trkpt>
      <trkpt lat="49.43721" lon="-1.27988">
        <ele>26.184054</ele>
        <time>2022-07-31T13:34:04.000Z</time>
      </trkpt>
      <trkpt lat="49.43725" lon="-1.27984">
        <ele>26.17802</ele>
        <time>2022-07-31T13:34:05.000Z</time>
      </trkpt>
      <trkpt lat="49.43728" lon="-1.27979">
        <ele>26.171384</ele>
        <time>2022-07-31T13:34:06.000Z</time>
      </trkpt>
      <trkpt lat="49.43732" lon="-1.27974">
        <ele>26.164895</ele>
        <time>2022-07-31T13:34:07.000Z</time>
      </trkpt>
      <trkpt lat="49.43735" lon="-1.27969">
        <ele>26.158647</ele>
        <time>2022-07-31T13:34:08.000Z</time>
      </trkpt>
      <trkpt lat="49.43739" lon="-1.27965">
        <ele>26.208009</ele>
        <time>2022-07-31T13:34:09.000Z</time>
      </trkpt>
      <trkpt lat="49.43742" lon="-1.2796">
        <ele>26.319183</ele>
        <time>2022-07-31T13:34:10.000Z</time>
      </trkpt>
      <trkpt lat="49.43746" lon="-1.27955">
        <ele>26.435858</ele>
        <time>2022-07-31T13:34:11.000Z</time>
      </trkpt>
      <trkpt lat="49.43749" lon="-1.27951">
        <ele>26.540662</ele>
        <time>2022-07-31T13:34:12.000Z</time>
      </trkpt>
      <trkpt lat="49.43753" lon="-1.27946">
        <ele>26.656391</ele>
        <time>2022-07-31T13:34:13.000Z</time>
      </trkpt>
      <trkpt lat="49.43757" lon="-1.27942">
        <ele>26.771142</ele>
        <time>2022-07-31T13:34:14.000Z</time>
      </trkpt>
      <trkpt lat="49.4376" lon="-1.27937">
        <ele>26.880293</ele>
        <time>2022-07-31T13:34:15.000Z</time>
      </trkpt>
      <trkpt lat="49.43764" lon="-1.27933">
        <ele>26.999809</ele>
        <time>2022-07-31T13:34:16.000Z</time>
      </trkpt>
      <trkpt lat="49.43768" lon="-1.27928">
        <ele>27.119464</ele>
        <time>2022-07-31T13:34:17.000Z</time>
      </trkpt>
      <trkpt lat="49.43772" lon="-1.27923">
        <ele>27.231667</ele>
        <time>2022-07-31T13:34:18.000Z</time>
      </trkpt>
      <trkpt lat="49.43775" lon="-1.27918">
        <ele>27.340819</ele>
        <time>2022-07-31T13:34:19.000Z</time>
      </trkpt>
      <trkpt lat="49.43779" lon="-1.27913">
        <ele>27.462303</ele>
        <time>2022-07-31T13:34:20.000Z</time>
      </trkpt>
      <trkpt lat="49.43782" lon="-1.27908">
        <ele>27.5766</ele>
        <time>2022-07-31T13:34:21.000Z</time>
      </trkpt>
      <trkpt lat="49.43786" lon="-1.27903">
        <ele>27.684644</ele>
        <time>2022-07-31T13:34:22.000Z</time>
      </trkpt>
      <trkpt lat="49.43789" lon="-1.27898">
        <ele>27.793792</ele>
        <time>2022-07-31T13:34:23.000Z</time>
      </trkpt>
      <trkpt lat="49.43793" lon="-1.27893">
        <ele>27.914465</ele>
        <time>2022-07-31T13:34:24.000Z</time>
      </trkpt>
      <trkpt lat="49.43797" lon="-1.27888">
        <ele>28.035948</ele>
        <time>2022-07-31T13:34:25.000Z</time>
      </trkpt>
      <trkpt lat="49.438" lon="-1.27883">
        <ele>28.15974</ele>
        <time>2022-07-31T13:34:26.000Z</time>
      </trkpt>
      <trkpt lat="49.43804" lon="-1.27878">
        <ele>28.282226</ele>
        <time>2022-07-31T13:34:27.000Z</time>
      </trkpt>
      <trkpt lat="49.43808" lon="-1.27873">
        <ele>28.401881</ele>
        <time>2022-07-31T13:34:28.000Z</time>
      </trkpt>
      <trkpt lat="49.43812" lon="-1.27868">
        <ele>28.528961</ele>
        <time>2022-07-31T13:34:29.000Z</time>
      </trkpt>
      <trkpt lat="49.43816" lon="-1.27863">
        <ele>28.648616</ele>
        <time>2022-07-31T13:34:30.000Z</time>
      </trkpt>
      <trkpt lat="49.4382" lon="-1.27858">
        <ele>28.770317</ele>
        <time>2022-07-31T13:34:31.000Z</time>
      </trkpt>
      <trkpt lat="49.43824" lon="-1.27852">
        <ele>28.900306</ele>
        <time>2022-07-31T13:34:32.000Z</time>
      </trkpt>
      <trkpt lat="49.43828" lon="-1.27847">
        <ele>29.022008</ele>
        <time>2022-07-31T13:34:33.000Z</time>
      </trkpt>
      <trkpt lat="49.43832" lon="-1.27842">
        <ele>29.143491</ele>
        <time>2022-07-31T13:34:34.000Z</time>
      </trkpt>
      <trkpt lat="49.43836" lon="-1.27837">
        <ele>29.265192</ele>
        <time>2022-07-31T13:34:35.000Z</time>
      </trkpt>
      <trkpt lat="49.43839" lon="-1.27832">
        <ele>29.382715</ele>
        <time>2022-07-31T13:34:36.000Z</time>
      </trkpt>
      <trkpt lat="49.43842" lon="-1.27826">
        <ele>29.495236</ele>
        <time>2022-07-31T13:34:37.000Z</time>
      </trkpt>
      <trkpt lat="49.43846" lon="-1.27821">
        <ele>29.618861</ele>
        <time>2022-07-31T13:34:38.000Z</time>
      </trkpt>
      <trkpt lat="49.43849" lon="-1.27814">
        <ele>29.746599</ele>
        <time>2022-07-31T13:34:39.000Z</time>
      </trkpt>
      <trkpt lat="49.43852" lon="-1.27808">
        <ele>29.858779</ele>
        <time>2022-07-31T13:34:40.000Z</time>
      </trkpt>
      <trkpt lat="49.43855" lon="-1.27802">
        <ele>29.98562</ele>
        <time>2022-07-31T13:34:41.000Z</time>
      </trkpt>
      <trkpt lat="49.43858" lon="-1.27795">
        <ele>30.108261</ele>
        <time>2022-07-31T13:34:42.000Z</time>
      </trkpt>
      <trkpt lat="49.43861" lon="-1.27789">
        <ele>30.22965</ele>
        <time>2022-07-31T13:34:43.000Z</time>
      </trkpt>
      <trkpt lat="49.43864" lon="-1.27782">
        <ele>30.35649</ele>
        <time>2022-07-31T13:34:44.000Z</time>
      </trkpt>
      <trkpt lat="49.43867" lon="-1.27775">
        <ele>30.464925</ele>
        <time>2022-07-31T13:34:45.000Z</time>
      </trkpt>
      <trkpt lat="49.43869" lon="-1.27768">
        <ele>30.492203</ele>
        <time>2022-07-31T13:34:46.000Z</time>
      </trkpt>
      <trkpt lat="49.43872" lon="-1.27762">
        <ele>30.520286</ele>
        <time>2022-07-31T13:34:47.000Z</time>
      </trkpt>
      <trkpt lat="49.43876" lon="-1.27755">
        <ele>30.549273</ele>
        <time>2022-07-31T13:34:48.000Z</time>
      </trkpt>
      <trkpt lat="49.43878" lon="-1.27748">
        <ele>30.577113</ele>
        <time>2022-07-31T13:34:49.000Z</time>
      </trkpt>
      <trkpt lat="49.43881" lon="-1.27741">
        <ele>30.606662</ele>
        <time>2022-07-31T13:34:50.000Z</time>
      </trkpt>
      <trkpt lat="49.43884" lon="-1.27734">
        <ele>30.635035</ele>
        <time>2022-07-31T13:34:51.000Z</time>
      </trkpt>
      <trkpt lat="49.43887" lon="-1.27727">
        <ele>30.663711</ele>
        <time>2022-07-31T13:34:52.000Z</time>
      </trkpt>
      <trkpt lat="49.4389" lon="-1.2772">
        <ele>30.692958</ele>
        <time>2022-07-31T13:34:53.000Z</time>
      </trkpt>
      <trkpt lat="49.43893" lon="-1.27713">
        <ele>30.721041</ele>
        <time>2022-07-31T13:34:54.000Z</time>
      </trkpt>
      <trkpt lat="49.43895" lon="-1.27706">
        <ele>30.74789</ele>
        <time>2022-07-31T13:34:55.000Z</time>
      </trkpt>
      <trkpt lat="49.43897" lon="-1.27699">
        <ele>30.774667</ele>
        <time>2022-07-31T13:34:56.000Z</time>
      </trkpt>
      <trkpt lat="49.439" lon="-1.27692">
        <ele>30.801516</ele>
        <time>2022-07-31T13:34:57.000Z</time>
      </trkpt>
      <trkpt lat="49.43902" lon="-1.27685">
        <ele>30.830259</ele>
        <time>2022-07-31T13:34:58.000Z</time>
      </trkpt>
      <trkpt lat="49.43905" lon="-1.27678">
        <ele>30.857236</ele>
        <time>2022-07-31T13:34:59.000Z</time>
      </trkpt>
      <trkpt lat="49.43907" lon="-1.27671">
        <ele>30.885075</ele>
        <time>2022-07-31T13:35:00.000Z</time>
      </trkpt>
      <trkpt lat="49.4391" lon="-1.27664">
        <ele>30.91202</ele>
        <time>2022-07-31T13:35:01.000Z</time>
      </trkpt>
      <trkpt lat="49.43912" lon="-1.27657">
        <ele>30.938248</ele>
        <time>2022-07-31T13:35:02.000Z</time>
      </trkpt>
      <trkpt lat="49.43915" lon="-1.27651">
        <ele>30.964602</ele>
        <time>2022-07-31T13:35:03.000Z</time>
      </trkpt>
      <trkpt lat="49.43917" lon="-1.27644">
        <ele>30.990522</ele>
        <time>2022-07-31T13:35:04.000Z</time>
      </trkpt>
      <trkpt lat="49.43919" lon="-1.27637">
        <ele>31.017467</ele>
        <time>2022-07-31T13:35:05.000Z</time>
      </trkpt>
      <trkpt lat="49.43922" lon="-1.27631">
        <ele>31.043079</ele>
        <time>2022-07-31T13:35:06.000Z</time>
      </trkpt>
      <trkpt lat="49.43925" lon="-1.27624">
        <ele>31.071451</ele>
        <time>2022-07-31T13:35:07.000Z</time>
      </trkpt>
      <trkpt lat="49.43927" lon="-1.27617">
        <ele>31.097829</ele>
        <time>2022-07-31T13:35:08.000Z</time>
      </trkpt>
      <trkpt lat="49.4393" lon="-1.27611">
        <ele>31.124773</ele>
        <time>2022-07-31T13:35:09.000Z</time>
      </trkpt>
      <trkpt lat="49.43932" lon="-1.27604">
        <ele>31.150693</ele>
        <time>2022-07-31T13:35:10.000Z</time>
      </trkpt>
      <trkpt lat="49.43934" lon="-1.27597">
        <ele>31.177342</ele>
        <time>2022-07-31T13:35:11.000Z</time>
      </trkpt>
      <trkpt lat="49.43937" lon="-1.2759">
        <ele>31.206589</ele>
        <time>2022-07-31T13:35:12.000Z</time>
      </trkpt>
      <trkpt lat="49.4394" lon="-1.27583">
        <ele>31.234169</ele>
        <time>2022-07-31T13:35:13.000Z</time>
      </trkpt>
      <trkpt lat="49.43943" lon="-1.27576">
        <ele>31.262831</ele>
        <time>2022-07-31T13:35:14.000Z</time>
      </trkpt>
      <trkpt lat="49.43945" lon="-1.27569">
        <ele>31.290534</ele>
        <time>2022-07-31T13:35:15.000Z</time>
      </trkpt>
      <trkpt lat="49.43948" lon="-1.27561">
        <ele>31.319946</ele>
        <time>2022-07-31T13:35:16.000Z</time>
      </trkpt>
      <trkpt lat="49.43949" lon="-1.27554">
        <ele>31.347743</ele>
        <time>2022-07-31T13:35:17.000Z</time>
      </trkpt>
      <trkpt lat="49.43952" lon="-1.27546">
        <ele>31.377579</ele>
        <time>2022-07-31T13:35:18.000Z</time>
      </trkpt>
      <trkpt lat="49.43954" lon="-1.27539">
        <ele>31.405376</ele>
        <time>2022-07-31T13:35:19.000Z</time>
      </trkpt>
      <trkpt lat="49.43957" lon="-1.27532">
        <ele>31.387126</ele>
        <time>2022-07-31T13:35:20.000Z</time>
      </trkpt>
      <trkpt lat="49.43959" lon="-1.27524">
        <ele>31.348353</ele>
        <time>2022-07-31T13:35:21.000Z</time>
      </trkpt>
      <trkpt lat="49.43961" lon="-1.27517">
        <ele>31.309277</ele>
        <time>2022-07-31T13:35:22.000Z</time>
      </trkpt>
      <trkpt lat="49.43963" lon="-1.27509">
        <ele>31.272224</ele>
        <time>2022-07-31T13:35:23.000Z</time>
      </trkpt>
      <trkpt lat="49.43965" lon="-1.27502">
        <ele>31.234735</ele>
        <time>2022-07-31T13:35:24.000Z</time>
      </trkpt>
      <trkpt lat="49.43967" lon="-1.27495">
        <ele>31.198119</ele>
        <time>2022-07-31T13:35:25.000Z</time>
      </trkpt>
      <trkpt lat="49.43969" lon="-1.27488">
        <ele>31.160739</ele>
        <time>2022-07-31T13:35:26.000Z</time>
      </trkpt>
      <trkpt lat="49.43971" lon="-1.27481">
        <ele>31.124123</ele>
        <time>2022-07-31T13:35:27.000Z</time>
      </trkpt>
      <trkpt lat="49.43973" lon="-1.27474">
        <ele>31.087485</ele>
        <time>2022-07-31T13:35:28.000Z</time>
      </trkpt>
      <trkpt lat="49.43976" lon="-1.27466">
        <ele>31.049683</ele>
        <time>2022-07-31T13:35:29.000Z</time>
      </trkpt>
      <trkpt lat="49.43977" lon="-1.27459">
        <ele>31.013382</ele>
        <time>2022-07-31T13:35:30.000Z</time>
      </trkpt>
      <trkpt lat="49.4398" lon="-1.27452">
        <ele>30.975467</ele>
        <time>2022-07-31T13:35:31.000Z</time>
      </trkpt>
      <trkpt lat="49.43981" lon="-1.27444">
        <ele>30.935774</ele>
        <time>2022-07-31T13:35:32.000Z</time>
      </trkpt>
      <trkpt lat="49.43983" lon="-1.27436">
        <ele>30.896263</ele>
        <time>2022-07-31T13:35:33.000Z</time>
      </trkpt>
      <trkpt lat="49.43986" lon="-1.27428">
        <ele>30.856198</ele>
        <time>2022-07-31T13:35:34.000Z</time>
      </trkpt>
      <trkpt lat="49.43988" lon="-1.2742">
        <ele>30.815177</ele>
        <time>2022-07-31T13:35:35.000Z</time>
      </trkpt>
      <trkpt lat="49.4399" lon="-1.27412">
        <ele>30.771191</ele>
        <time>2022-07-31T13:35:36.000Z</time>
      </trkpt>
      <trkpt lat="49.43993" lon="-1.27403">
        <ele>30.728079</ele>
        <time>2022-07-31T13:35:37.000Z</time>
      </trkpt>
      <trkpt lat="49.43995" lon="-1.27395">
        <ele>30.685483</ele>
        <time>2022-07-31T13:35:38.000Z</time>
      </trkpt>
      <trkpt lat="49.43997" lon="-1.27387">
        <ele>30.644018</ele>
        <time>2022-07-31T13:35:39.000Z</time>
      </trkpt>
      <trkpt lat="49.43999" lon="-1.27378">
        <ele>30.601781</ele>
        <time>2022-07-31T13:35:40.000Z</time>
      </trkpt>
      <trkpt lat="49.44001" lon="-1.2737">
        <ele>30.559871</ele>
        <time>2022-07-31T13:35:41.000Z</time>
      </trkpt>
      <trkpt lat="49.44003" lon="-1.27362">
        <ele>30.518159</ele>
        <time>2022-07-31T13:35:42.000Z</time>
      </trkpt>
      <trkpt lat="49.44005" lon="-1.27353">
        <ele>30.474171</ele>
        <time>2022-07-31T13:35:43.000Z</time>
      </trkpt>
      <trkpt lat="49.44006" lon="-1.27344">
        <ele>30.432019</ele>
        <time>2022-07-31T13:35:44.000Z</time>
      </trkpt>
      <trkpt lat="49.44009" lon="-1.27336">
        <ele>30.388031</ele>
        <time>2022-07-31T13:35:45.000Z</time>
      </trkpt>
      <trkpt lat="49.4401" lon="-1.27327">
        <ele>30.346332</ele>
        <time>2022-07-31T13:35:46.000Z</time>
      </trkpt>
      <trkpt lat="49.44012" lon="-1.27319">
        <ele>30.303735</ele>
        <time>2022-07-31T13:35:47.000Z</time>
      </trkpt>
      <trkpt lat="49.44014" lon="-1.2731">
        <ele>30.26138</ele>
        <time>2022-07-31T13:35:48.000Z</time>
      </trkpt>
      <trkpt lat="49.44015" lon="-1.27302">
        <ele>30.220232</ele>
        <time>2022-07-31T13:35:49.000Z</time>
      </trkpt>
      <trkpt lat="49.44017" lon="-1.27293">
        <ele>30.179438</ele>
        <time>2022-07-31T13:35:50.000Z</time>
      </trkpt>
      <trkpt lat="49.44019" lon="-1.27285">
        <ele>30.137739</ele>
        <time>2022-07-31T13:35:51.000Z</time>
      </trkpt>
      <trkpt lat="49.4402" lon="-1.27276">
        <ele>30.091486</ele>
        <time>2022-07-31T13:35:52.000Z</time>
      </trkpt>
      <trkpt lat="49.44021" lon="-1.27268">
        <ele>30.038027</ele>
        <time>2022-07-31T13:35:53.000Z</time>
      </trkpt>
      <trkpt lat="49.44022" lon="-1.27259">
        <ele>29.985143</ele>
        <time>2022-07-31T13:35:54.000Z</time>
      </trkpt>
      <trkpt lat="49.44023" lon="-1.2725">
        <ele>29.930605</ele>
        <time>2022-07-31T13:35:55.000Z</time>
      </trkpt>
      <trkpt lat="49.44024" lon="-1.27241">
        <ele>29.875309</ele>
        <time>2022-07-31T13:35:56.000Z</time>
      </trkpt>
      <trkpt lat="49.44025" lon="-1.27233">
        <ele>29.821138</ele>
        <time>2022-07-31T13:35:57.000Z</time>
      </trkpt>
      <trkpt lat="49.44026" lon="-1.27224">
        <ele>29.764695</ele>
        <time>2022-07-31T13:35:58.000Z</time>
      </trkpt>
      <trkpt lat="49.44027" lon="-1.27215">
        <ele>29.709202</ele>
        <time>2022-07-31T13:35:59.000Z</time>
      </trkpt>
      <trkpt lat="49.44027" lon="-1.27205">
        <ele>29.652595</ele>
        <time>2022-07-31T13:36:00.000Z</time>
      </trkpt>
      <trkpt lat="49.44028" lon="-1.27196">
        <ele>29.596092</ele>
        <time>2022-07-31T13:36:01.000Z</time>
      </trkpt>
      <trkpt lat="49.44029" lon="-1.27187">
        <ele>29.537923</ele>
        <time>2022-07-31T13:36:02.000Z</time>
      </trkpt>
      <trkpt lat="49.4403" lon="-1.27178">
        <ele>29.481822</ele>
        <time>2022-07-31T13:36:03.000Z</time>
      </trkpt>
      <trkpt lat="49.4403" lon="-1.27168">
        <ele>29.423996</ele>
        <time>2022-07-31T13:36:04.000Z</time>
      </trkpt>
      <trkpt lat="49.44031" lon="-1.27159">
        <ele>29.367998</ele>
        <time>2022-07-31T13:36:05.000Z</time>
      </trkpt>
      <trkpt lat="49.44032" lon="-1.2715">
        <ele>29.309684</ele>
        <time>2022-07-31T13:36:06.000Z</time>
      </trkpt>
      <trkpt lat="49.44033" lon="-1.2714">
        <ele>29.251249</ele>
        <time>2022-07-31T13:36:07.000Z</time>
      </trkpt>
      <trkpt lat="49.44033" lon="-1.27131">
        <ele>29.194188</ele>
        <time>2022-07-31T13:36:08.000Z</time>
      </trkpt>
      <trkpt lat="49.44034" lon="-1.27121">
        <ele>29.134201</ele>
        <time>2022-07-31T13:36:09.000Z</time>
      </trkpt>
      <trkpt lat="49.44035" lon="-1.27112">
        <ele>29.075059</ele>
        <time>2022-07-31T13:36:10.000Z</time>
      </trkpt>
      <trkpt lat="49.44035" lon="-1.27103">
        <ele>29.018664</ele>
        <time>2022-07-31T13:36:11.000Z</time>
      </trkpt>
      <trkpt lat="49.44035" lon="-1.27093">
        <ele>28.962269</ele>
        <time>2022-07-31T13:36:12.000Z</time>
      </trkpt>
      <trkpt lat="49.44036" lon="-1.27084">
        <ele>28.904559</ele>
        <time>2022-07-31T13:36:13.000Z</time>
      </trkpt>
      <trkpt lat="49.44037" lon="-1.27075">
        <ele>28.846329</ele>
        <time>2022-07-31T13:36:14.000Z</time>
      </trkpt>
      <trkpt lat="49.44037" lon="-1.27065">
        <ele>28.789934</ele>
        <time>2022-07-31T13:36:15.000Z</time>
      </trkpt>
      <trkpt lat="49.44037" lon="-1.27056">
        <ele>28.73415</ele>
        <time>2022-07-31T13:36:16.000Z</time>
      </trkpt>
      <trkpt lat="49.44038" lon="-1.27047">
        <ele>28.676225</ele>
        <time>2022-07-31T13:36:17.000Z</time>
      </trkpt>
      <trkpt lat="49.44038" lon="-1.27038">
        <ele>28.620227</ele>
        <time>2022-07-31T13:36:18.000Z</time>
      </trkpt>
      <trkpt lat="49.44039" lon="-1.27028">
        <ele>28.562402</ele>
        <time>2022-07-31T13:36:19.000Z</time>
      </trkpt>
      <trkpt lat="49.44041" lon="-1.27019">
        <ele>28.503506</ele>
        <time>2022-07-31T13:36:20.000Z</time>
      </trkpt>
      <trkpt lat="49.44042" lon="-1.2701">
        <ele>28.445867</ele>
        <time>2022-07-31T13:36:21.000Z</time>
      </trkpt>
      <trkpt lat="49.44043" lon="-1.27001">
        <ele>28.358179</ele>
        <time>2022-07-31T13:36:22.000Z</time>
      </trkpt>
      <trkpt lat="49.44045" lon="-1.26992">
        <ele>28.236008</ele>
        <time>2022-07-31T13:36:23.000Z</time>
      </trkpt>
      <trkpt lat="49.44046" lon="-1.26983">
        <ele>28.113838</ele>
        <time>2022-07-31T13:36:24.000Z</time>
      </trkpt>
      <trkpt lat="49.44048" lon="-1.26974">
        <ele>27.991668</ele>
        <time>2022-07-31T13:36:25.000Z</time>
      </trkpt>
      <trkpt lat="49.4405" lon="-1.26965">
        <ele>27.867767</ele>
        <time>2022-07-31T13:36:26.000Z</time>
      </trkpt>
      <trkpt lat="49.44052" lon="-1.26956">
        <ele>27.743581</ele>
        <time>2022-07-31T13:36:27.000Z</time>
      </trkpt>
      <trkpt lat="49.44055" lon="-1.26948">
        <ele>27.618815</ele>
        <time>2022-07-31T13:36:28.000Z</time>
      </trkpt>
      <trkpt lat="49.44058" lon="-1.26939">
        <ele>27.489636</ele>
        <time>2022-07-31T13:36:29.000Z</time>
      </trkpt>
      <trkpt lat="49.4406" lon="-1.2693">
        <ele>27.360575</ele>
        <time>2022-07-31T13:36:30.000Z</time>
      </trkpt>
      <trkpt lat="49.44062" lon="-1.26921">
        <ele>27.234678</ele>
        <time>2022-07-31T13:36:31.000Z</time>
      </trkpt>
      <trkpt lat="49.44064" lon="-1.26912">
        <ele>27.110778</ele>
        <time>2022-07-31T13:36:32.000Z</time>
      </trkpt>
      <trkpt lat="49.44066" lon="-1.26903">
        <ele>26.993087</ele>
        <time>2022-07-31T13:36:33.000Z</time>
      </trkpt>
      <trkpt lat="49.44068" lon="-1.26894">
        <ele>26.86607</ele>
        <time>2022-07-31T13:36:34.000Z</time>
      </trkpt>
      <trkpt lat="49.44071" lon="-1.26884">
        <ele>26.731877</ele>
        <time>2022-07-31T13:36:35.000Z</time>
      </trkpt>
      <trkpt lat="49.44073" lon="-1.26875">
        <ele>26.595455</ele>
        <time>2022-07-31T13:36:36.000Z</time>
      </trkpt>
      <trkpt lat="49.44076" lon="-1.26865">
        <ele>26.455364</ele>
        <time>2022-07-31T13:36:37.000Z</time>
      </trkpt>
      <trkpt lat="49.44079" lon="-1.26855">
        <ele>26.315081</ele>
        <time>2022-07-31T13:36:38.000Z</time>
      </trkpt>
      <trkpt lat="49.44082" lon="-1.26845">
        <ele>26.175289</ele>
        <time>2022-07-31T13:36:39.000Z</time>
      </trkpt>
      <trkpt lat="49.44084" lon="-1.26836">
        <ele>26.039537</ele>
        <time>2022-07-31T13:36:40.000Z</time>
      </trkpt>
      <trkpt lat="49.44086" lon="-1.26826">
        <ele>25.902545</ele>
        <time>2022-07-31T13:36:41.000Z</time>
      </trkpt>
      <trkpt lat="49.44088" lon="-1.26816">
        <ele>25.766794</ele>
        <time>2022-07-31T13:36:42.000Z</time>
      </trkpt>
      <trkpt lat="49.4409" lon="-1.26806">
        <ele>25.63038</ele>
        <time>2022-07-31T13:36:43.000Z</time>
      </trkpt>
      <trkpt lat="49.44092" lon="-1.26796">
        <ele>25.491492</ele>
        <time>2022-07-31T13:36:44.000Z</time>
      </trkpt>
      <trkpt lat="49.44094" lon="-1.26785">
        <ele>25.351557</ele>
        <time>2022-07-31T13:36:45.000Z</time>
      </trkpt>
      <trkpt lat="49.44096" lon="-1.26775">
        <ele>25.208848</ele>
        <time>2022-07-31T13:36:46.000Z</time>
      </trkpt>
      <trkpt lat="49.44098" lon="-1.26764">
        <ele>25.066139</ele>
        <time>2022-07-31T13:36:47.000Z</time>
      </trkpt>
      <trkpt lat="49.44099" lon="-1.26754">
        <ele>24.930023</ele>
        <time>2022-07-31T13:36:48.000Z</time>
      </trkpt>
      <trkpt lat="49.44101" lon="-1.26744">
        <ele>24.789314</ele>
        <time>2022-07-31T13:36:49.000Z</time>
      </trkpt>
      <trkpt lat="49.44102" lon="-1.26733">
        <ele>24.564746</ele>
        <time>2022-07-31T13:36:50.000Z</time>
      </trkpt>
      <trkpt lat="49.44104" lon="-1.26723">
        <ele>24.340533</ele>
        <time>2022-07-31T13:36:51.000Z</time>
      </trkpt>
      <trkpt lat="49.44106" lon="-1.26712">
        <ele>24.115965</ele>
        <time>2022-07-31T13:36:52.000Z</time>
      </trkpt>
      <trkpt lat="49.44108" lon="-1.26701">
        <ele>23.883448</ele>
        <time>2022-07-31T13:36:53.000Z</time>
      </trkpt>
      <trkpt lat="49.4411" lon="-1.26691">
        <ele>23.652072</ele>
        <time>2022-07-31T13:36:54.000Z</time>
      </trkpt>
      <trkpt lat="49.44112" lon="-1.2668">
        <ele>23.423533</ele>
        <time>2022-07-31T13:36:55.000Z</time>
      </trkpt>
      <trkpt lat="49.44114" lon="-1.26669">
        <ele>23.186406</ele>
        <time>2022-07-31T13:36:56.000Z</time>
      </trkpt>
      <trkpt lat="49.44116" lon="-1.26658">
        <ele>22.946366</ele>
        <time>2022-07-31T13:36:57.000Z</time>
      </trkpt>
      <trkpt lat="49.44118" lon="-1.26646">
        <ele>22.70135</ele>
        <time>2022-07-31T13:36:58.000Z</time>
      </trkpt>
      <trkpt lat="49.4412" lon="-1.26635">
        <ele>22.460863</ele>
        <time>2022-07-31T13:36:59.000Z</time>
      </trkpt>
      <trkpt lat="49.44122" lon="-1.26624">
        <ele>22.220376</ele>
        <time>2022-07-31T13:37:00.000Z</time>
      </trkpt>
      <trkpt lat="49.44125" lon="-1.26612">
        <ele>21.97444</ele>
        <time>2022-07-31T13:37:01.000Z</time>
      </trkpt>
      <trkpt lat="49.44126" lon="-1.26601">
        <ele>21.729962</ele>
        <time>2022-07-31T13:37:02.000Z</time>
      </trkpt>
      <trkpt lat="49.44128" lon="-1.26589">
        <ele>21.483486</ele>
        <time>2022-07-31T13:37:03.000Z</time>
      </trkpt>
      <trkpt lat="49.44131" lon="-1.26577">
        <ele>21.227692</ele>
        <time>2022-07-31T13:37:04.000Z</time>
      </trkpt>
      <trkpt lat="49.44133" lon="-1.26566">
        <ele>20.977218</ele>
        <time>2022-07-31T13:37:05.000Z</time>
      </trkpt>
      <trkpt lat="49.44134" lon="-1.26554">
        <ele>20.722743</ele>
        <time>2022-07-31T13:37:06.000Z</time>
      </trkpt>
      <trkpt lat="49.44136" lon="-1.26542">
        <ele>20.468267</ele>
        <time>2022-07-31T13:37:07.000Z</time>
      </trkpt>
      <trkpt lat="49.44138" lon="-1.26529">
        <ele>20.209786</ele>
        <time>2022-07-31T13:37:08.000Z</time>
      </trkpt>
      <trkpt lat="49.44141" lon="-1.26517">
        <ele>19.952017</ele>
        <time>2022-07-31T13:37:09.000Z</time>
      </trkpt>
      <trkpt lat="49.44143" lon="-1.26505">
        <ele>19.686492</ele>
        <time>2022-07-31T13:37:10.000Z</time>
      </trkpt>
      <trkpt lat="49.44145" lon="-1.26493">
        <ele>19.418826</ele>
        <time>2022-07-31T13:37:11.000Z</time>
      </trkpt>
      <trkpt lat="49.44148" lon="-1.2648">
        <ele>19.155981</ele>
        <time>2022-07-31T13:37:12.000Z</time>
      </trkpt>
      <trkpt lat="49.44149" lon="-1.26467">
        <ele>18.920851</ele>
        <time>2022-07-31T13:37:13.000Z</time>
      </trkpt>
      <trkpt lat="49.4415" lon="-1.26454">
        <ele>18.693909</ele>
        <time>2022-07-31T13:37:14.000Z</time>
      </trkpt>
      <trkpt lat="49.44152" lon="-1.26441">
        <ele>18.465273</ele>
        <time>2022-07-31T13:37:15.000Z</time>
      </trkpt>
      <trkpt lat="49.44152" lon="-1.26427">
        <ele>18.230652</ele>
        <time>2022-07-31T13:37:16.000Z</time>
      </trkpt>
      <trkpt lat="49.44151" lon="-1.26413">
        <ele>17.990186</ele>
        <time>2022-07-31T13:37:17.000Z</time>
      </trkpt>
      <trkpt lat="49.4415" lon="-1.26399">
        <ele>17.744146</ele>
        <time>2022-07-31T13:37:18.000Z</time>
      </trkpt>
      <trkpt lat="49.44149" lon="-1.26385">
        <ele>17.495142</ele>
        <time>2022-07-31T13:37:19.000Z</time>
      </trkpt>
      <trkpt lat="49.44149" lon="-1.2637">
        <ele>17.237166</ele>
        <time>2022-07-31T13:37:20.000Z</time>
      </trkpt>
      <trkpt lat="49.44148" lon="-1.26355">
        <ele>16.979622</ele>
        <time>2022-07-31T13:37:21.000Z</time>
      </trkpt>
      <trkpt lat="49.44148" lon="-1.26339">
        <ele>16.719313</ele>
        <time>2022-07-31T13:37:22.000Z</time>
      </trkpt>
      <trkpt lat="49.44149" lon="-1.26324">
        <ele>16.451667</ele>
        <time>2022-07-31T13:37:23.000Z</time>
      </trkpt>
      <trkpt lat="49.44152" lon="-1.26309">
        <ele>16.184158</ele>
        <time>2022-07-31T13:37:24.000Z</time>
      </trkpt>
      <trkpt lat="49.44154" lon="-1.26294">
        <ele>15.91565</ele>
        <time>2022-07-31T13:37:25.000Z</time>
      </trkpt>
      <trkpt lat="49.44158" lon="-1.26278">
        <ele>15.637001</ele>
        <time>2022-07-31T13:37:26.000Z</time>
      </trkpt>
      <trkpt lat="49.4416" lon="-1.26263">
        <ele>15.366978</ele>
        <time>2022-07-31T13:37:27.000Z</time>
      </trkpt>
      <trkpt lat="49.44162" lon="-1.26247">
        <ele>15.096856</ele>
        <time>2022-07-31T13:37:28.000Z</time>
      </trkpt>
      <trkpt lat="49.44163" lon="-1.26232">
        <ele>14.830107</ele>
        <time>2022-07-31T13:37:29.000Z</time>
      </trkpt>
      <trkpt lat="49.44163" lon="-1.26217">
        <ele>14.571511</ele>
        <time>2022-07-31T13:37:30.000Z</time>
      </trkpt>
      <trkpt lat="49.44162" lon="-1.26202">
        <ele>14.295354</ele>
        <time>2022-07-31T13:37:31.000Z</time>
      </trkpt>
      <trkpt lat="49.44162" lon="-1.26187">
        <ele>13.932678</ele>
        <time>2022-07-31T13:37:32.000Z</time>
      </trkpt>
      <trkpt lat="49.44162" lon="-1.26172">
        <ele>13.579739</ele>
        <time>2022-07-31T13:37:33.000Z</time>
      </trkpt>
      <trkpt lat="49.44163" lon="-1.26158">
        <ele>13.22966</ele>
        <time>2022-07-31T13:37:34.000Z</time>
      </trkpt>
      <trkpt lat="49.44164" lon="-1.26144">
        <ele>12.895438</ele>
        <time>2022-07-31T13:37:35.000Z</time>
      </trkpt>
      <trkpt lat="49.44165" lon="-1.26131">
        <ele>12.562295</ele>
        <time>2022-07-31T13:37:36.000Z</time>
      </trkpt>
      <trkpt lat="49.44166" lon="-1.26117">
        <ele>12.231571</ele>
        <time>2022-07-31T13:37:37.000Z</time>
      </trkpt>
      <trkpt lat="49.44167" lon="-1.26104">
        <ele>11.90125</ele>
        <time>2022-07-31T13:37:38.000Z</time>
      </trkpt>
      <trkpt lat="49.44168" lon="-1.2609">
        <ele>11.570526</ele>
        <time>2022-07-31T13:37:39.000Z</time>
      </trkpt>
      <trkpt lat="49.44168" lon="-1.26077">
        <ele>11.253301</ele>
        <time>2022-07-31T13:37:40.000Z</time>
      </trkpt>
      <trkpt lat="49.44169" lon="-1.26064">
        <ele>10.937084</ele>
        <time>2022-07-31T13:37:41.000Z</time>
      </trkpt>
      <trkpt lat="49.4417" lon="-1.26052">
        <ele>10.630186</ele>
        <time>2022-07-31T13:37:42.000Z</time>
      </trkpt>
      <trkpt lat="49.4417" lon="-1.26039">
        <ele>10.325722</ele>
        <time>2022-07-31T13:37:43.000Z</time>
      </trkpt>
      <trkpt lat="49.44171" lon="-1.26027">
        <ele>10.021585</ele>
        <time>2022-07-31T13:37:44.000Z</time>
      </trkpt>
      <trkpt lat="49.44172" lon="-1.26015">
        <ele>9.720306</ele>
        <time>2022-07-31T13:37:45.000Z</time>
      </trkpt>
      <trkpt lat="49.44173" lon="-1.26002">
        <ele>9.421001</ele>
        <time>2022-07-31T13:37:46.000Z</time>
      </trkpt>
      <trkpt lat="49.44173" lon="-1.2599">
        <ele>9.128051</ele>
        <time>2022-07-31T13:37:47.000Z</time>
      </trkpt>
      <trkpt lat="49.44174" lon="-1.25978">
        <ele>8.83558</ele>
        <time>2022-07-31T13:37:48.000Z</time>
      </trkpt>
      <trkpt lat="49.44174" lon="-1.25967">
        <ele>8.553006</ele>
        <time>2022-07-31T13:37:49.000Z</time>
      </trkpt>
      <trkpt lat="49.44175" lon="-1.25955">
        <ele>8.266235</ele>
        <time>2022-07-31T13:37:50.000Z</time>
      </trkpt>
      <trkpt lat="49.44176" lon="-1.25944">
        <ele>7.992364</ele>
        <time>2022-07-31T13:37:51.000Z</time>
      </trkpt>
      <trkpt lat="49.44177" lon="-1.25933">
        <ele>7.713043</ele>
        <time>2022-07-31T13:37:52.000Z</time>
      </trkpt>
      <trkpt lat="49.44178" lon="-1.25921">
        <ele>7.617119</ele>
        <time>2022-07-31T13:37:53.000Z</time>
      </trkpt>
      <trkpt lat="49.44179" lon="-1.2591">
        <ele>7.605511</ele>
        <time>2022-07-31T13:37:54.000Z</time>
      </trkpt>
      <trkpt lat="49.4418" lon="-1.25898">
        <ele>7.593972</ele>
        <time>2022-07-31T13:37:55.000Z</time>
      </trkpt>
      <trkpt lat="49.44181" lon="-1.25887">
        <ele>7.58265</ele>
        <time>2022-07-31T13:37:56.000Z</time>
      </trkpt>
      <trkpt lat="49.44182" lon="-1.25875">
        <ele>7.571164</ele>
        <time>2022-07-31T13:37:57.000Z</time>
      </trkpt>
      <trkpt lat="49.44182" lon="-1.25864">
        <ele>7.559718</ele>
        <time>2022-07-31T13:37:58.000Z</time>
      </trkpt>
      <trkpt lat="49.44183" lon="-1.25853">
        <ele>7.548542</ele>
        <time>2022-07-31T13:37:59.000Z</time>
      </trkpt>
      <trkpt lat="49.44183" lon="-1.25842">
        <ele>7.537801</ele>
        <time>2022-07-31T13:38:00.000Z</time>
      </trkpt>
      <trkpt lat="49.44183" lon="-1.25831">
        <ele>7.527151</ele>
        <time>2022-07-31T13:38:01.000Z</time>
      </trkpt>
      <trkpt lat="49.44183" lon="-1.25821">
        <ele>7.516988</ele>
        <time>2022-07-31T13:38:02.000Z</time>
      </trkpt>
      <trkpt lat="49.44184" lon="-1.25811">
        <ele>7.506902</ele>
        <time>2022-07-31T13:38:03.000Z</time>
      </trkpt>
      <trkpt lat="49.44185" lon="-1.25801">
        <ele>7.49684</ele>
        <time>2022-07-31T13:38:04.000Z</time>
      </trkpt>
      <trkpt lat="49.44186" lon="-1.25791">
        <ele>7.487348</ele>
        <time>2022-07-31T13:38:05.000Z</time>
      </trkpt>
      <trkpt lat="49.44187" lon="-1.25782">
        <ele>7.477791</ele>
        <time>2022-07-31T13:38:06.000Z</time>
      </trkpt>
      <trkpt lat="49.44187" lon="-1.25773">
        <ele>7.469027</ele>
        <time>2022-07-31T13:38:07.000Z</time>
      </trkpt>
      <trkpt lat="49.44188" lon="-1.25764">
        <ele>7.460327</ele>
        <time>2022-07-31T13:38:08.000Z</time>
      </trkpt>
      <trkpt lat="49.44189" lon="-1.25756">
        <ele>7.45203</ele>
        <time>2022-07-31T13:38:09.000Z</time>
      </trkpt>
      <trkpt lat="49.4419" lon="-1.25748">
        <ele>7.444101</ele>
        <time>2022-07-31T13:38:10.000Z</time>
      </trkpt>
      <trkpt lat="49.44191" lon="-1.2574">
        <ele>7.435936</ele>
        <time>2022-07-31T13:38:11.000Z</time>
      </trkpt>
      <trkpt lat="49.44191" lon="-1.25732">
        <ele>7.427956</ele>
        <time>2022-07-31T13:38:12.000Z</time>
      </trkpt>
      <trkpt lat="49.44191" lon="-1.25725">
        <ele>7.420498</ele>
        <time>2022-07-31T13:38:13.000Z</time>
      </trkpt>
      <trkpt lat="49.44192" lon="-1.25718">
        <ele>7.413223</ele>
        <time>2022-07-31T13:38:14.000Z</time>
      </trkpt>
      <trkpt lat="49.44193" lon="-1.25711">
        <ele>7.406127</ele>
        <time>2022-07-31T13:38:15.000Z</time>
      </trkpt>
      <trkpt lat="49.44193" lon="-1.25704">
        <ele>7.399575</ele>
        <time>2022-07-31T13:38:16.000Z</time>
      </trkpt>
      <trkpt lat="49.44194" lon="-1.25699">
        <ele>7.394086</ele>
        <time>2022-07-31T13:38:17.000Z</time>
      </trkpt>
      <trkpt lat="49.44194" lon="-1.25693">
        <ele>7.388894</ele>
        <time>2022-07-31T13:38:18.000Z</time>
      </trkpt>
      <trkpt lat="49.44194" lon="-1.25689">
        <ele>7.384917</ele>
        <time>2022-07-31T13:38:19.000Z</time>
      </trkpt>
      <trkpt lat="49.44194" lon="-1.25686">
        <ele>7.3818</ele>
        <time>2022-07-31T13:38:20.000Z</time>
      </trkpt>
      <trkpt lat="49.44193" lon="-1.25681">
        <ele>7.376806</ele>
        <time>2022-07-31T13:38:22.000Z</time>
      </trkpt>
      <trkpt lat="49.44193" lon="-1.25677">
        <ele>7.372604</ele>
        <time>2022-07-31T13:38:24.000Z</time>
      </trkpt>
      <trkpt lat="49.44193" lon="-1.25673">
        <ele>7.368427</ele>
        <time>2022-07-31T13:38:26.000Z</time>
      </trkpt>
      <trkpt lat="49.44194" lon="-1.25669">
        <ele>7.364218</ele>
        <time>2022-07-31T13:38:28.000Z</time>
      </trkpt>
      <trkpt lat="49.44195" lon="-1.25666">
        <ele>7.361214</ele>
        <time>2022-07-31T13:38:29.000Z</time>
      </trkpt>
      <trkpt lat="49.44196" lon="-1.25663">
        <ele>7.35771</ele>
        <time>2022-07-31T13:38:30.000Z</time>
      </trkpt>
      <trkpt lat="49.44196" lon="-1.25659">
        <ele>7.353706</ele>
        <time>2022-07-31T13:38:31.000Z</time>
      </trkpt>
      <trkpt lat="49.44196" lon="-1.25654">
        <ele>7.35013</ele>
        <time>2022-07-31T13:38:32.000Z</time>
      </trkpt>
      <trkpt lat="49.44197" lon="-1.25649">
        <ele>7.350982</ele>
        <time>2022-07-31T13:38:33.000Z</time>
      </trkpt>
      <trkpt lat="49.44198" lon="-1.25644">
        <ele>7.351877</ele>
        <time>2022-07-31T13:38:34.000Z</time>
      </trkpt>
      <trkpt lat="49.44199" lon="-1.2564">
        <ele>7.352713</ele>
        <time>2022-07-31T13:38:35.000Z</time>
      </trkpt>
      <trkpt lat="49.44199" lon="-1.25635">
        <ele>7.353553</ele>
        <time>2022-07-31T13:38:36.000Z</time>
      </trkpt>
      <trkpt lat="49.44201" lon="-1.2563">
        <ele>7.354449</ele>
        <time>2022-07-31T13:38:37.000Z</time>
      </trkpt>
      <trkpt lat="49.44201" lon="-1.25626">
        <ele>7.355289</ele>
        <time>2022-07-31T13:38:38.000Z</time>
      </trkpt>
      <trkpt lat="49.44203" lon="-1.25621">
        <ele>7.356147</ele>
        <time>2022-07-31T13:38:39.000Z</time>
      </trkpt>
      <trkpt lat="49.44204" lon="-1.25617">
        <ele>7.356934</ele>
        <time>2022-07-31T13:38:40.000Z</time>
      </trkpt>
      <trkpt lat="49.44205" lon="-1.25612">
        <ele>7.357792</ele>
        <time>2022-07-31T13:38:41.000Z</time>
      </trkpt>
      <trkpt lat="49.44206" lon="-1.25608">
        <ele>7.35865</ele>
        <time>2022-07-31T13:38:42.000Z</time>
      </trkpt>
      <trkpt lat="49.44207" lon="-1.25603">
        <ele>7.35947</ele>
        <time>2022-07-31T13:38:43.000Z</time>
      </trkpt>
      <trkpt lat="49.44208" lon="-1.25598">
        <ele>7.360365</ele>
        <time>2022-07-31T13:38:44.000Z</time>
      </trkpt>
      <trkpt lat="49.44209" lon="-1.25594">
        <ele>7.36121</ele>
        <time>2022-07-31T13:38:45.000Z</time>
      </trkpt>
      <trkpt lat="49.4421" lon="-1.25589">
        <ele>7.362097</ele>
        <time>2022-07-31T13:38:46.000Z</time>
      </trkpt>
      <trkpt lat="49.44211" lon="-1.25584">
        <ele>7.363003</ele>
        <time>2022-07-31T13:38:47.000Z</time>
      </trkpt>
      <trkpt lat="49.44213" lon="-1.25579">
        <ele>7.363941</ele>
        <time>2022-07-31T13:38:48.000Z</time>
      </trkpt>
      <trkpt lat="49.44213" lon="-1.25574">
        <ele>7.364775</ele>
        <time>2022-07-31T13:38:49.000Z</time>
      </trkpt>
      <trkpt lat="49.44214" lon="-1.2557">
        <ele>7.365681</ele>
        <time>2022-07-31T13:38:50.000Z</time>
      </trkpt>
      <trkpt lat="49.44215" lon="-1.25565">
        <ele>7.366543</ele>
        <time>2022-07-31T13:38:51.000Z</time>
      </trkpt>
      <trkpt lat="49.44217" lon="-1.2556">
        <ele>7.36739</ele>
        <time>2022-07-31T13:38:52.000Z</time>
      </trkpt>
      <trkpt lat="49.44218" lon="-1.25556">
        <ele>7.368268</ele>
        <time>2022-07-31T13:38:53.000Z</time>
      </trkpt>
      <trkpt lat="49.44219" lon="-1.25551">
        <ele>7.369158</ele>
        <time>2022-07-31T13:38:54.000Z</time>
      </trkpt>
      <trkpt lat="49.44221" lon="-1.25546">
        <ele>7.370097</ele>
        <time>2022-07-31T13:38:55.000Z</time>
      </trkpt>
      <trkpt lat="49.44221" lon="-1.25542">
        <ele>7.370918</ele>
        <time>2022-07-31T13:38:56.000Z</time>
      </trkpt>
      <trkpt lat="49.44223" lon="-1.25537">
        <ele>7.371842</ele>
        <time>2022-07-31T13:38:57.000Z</time>
      </trkpt>
      <trkpt lat="49.44224" lon="-1.25532">
        <ele>7.3727</ele>
        <time>2022-07-31T13:38:58.000Z</time>
      </trkpt>
      <trkpt lat="49.44226" lon="-1.25528">
        <ele>7.373606</ele>
        <time>2022-07-31T13:38:59.000Z</time>
      </trkpt>
      <trkpt lat="49.44227" lon="-1.25523">
        <ele>7.374469</ele>
        <time>2022-07-31T13:39:00.000Z</time>
      </trkpt>
      <trkpt lat="49.44229" lon="-1.25519">
        <ele>7.375326</ele>
        <time>2022-07-31T13:39:01.000Z</time>
      </trkpt>
      <trkpt lat="49.44229" lon="-1.25514">
        <ele>7.37613</ele>
        <time>2022-07-31T13:39:02.000Z</time>
      </trkpt>
      <trkpt lat="49.44231" lon="-1.25511">
        <ele>7.37689</ele>
        <time>2022-07-31T13:39:03.000Z</time>
      </trkpt>
      <trkpt lat="49.44232" lon="-1.25507">
        <ele>7.377622</ele>
        <time>2022-07-31T13:39:04.000Z</time>
      </trkpt>
      <trkpt lat="49.44233" lon="-1.25504">
        <ele>7.378164</ele>
        <time>2022-07-31T13:39:05.000Z</time>
      </trkpt>
      <trkpt lat="49.44235" lon="-1.25502">
        <ele>7.378775</ele>
        <time>2022-07-31T13:39:06.000Z</time>
      </trkpt>
      <trkpt lat="49.44237" lon="-1.25499">
        <ele>7.379574</ele>
        <time>2022-07-31T13:39:08.000Z</time>
      </trkpt>
      <trkpt lat="49.44239" lon="-1.255">
        <ele>7.380215</ele>
        <time>2022-07-31T13:39:11.000Z</time>
      </trkpt>
      <trkpt lat="49.44239" lon="-1.25503">
        <ele>7.380737</ele>
        <time>2022-07-31T13:39:13.000Z</time>
      </trkpt>
      <trkpt lat="49.44237" lon="-1.25504">
        <ele>7.381258</ele>
        <time>2022-07-31T13:39:15.000Z</time>
      </trkpt>
      <trkpt lat="49.44231" lon="-1.25495">
        <ele>7.383666</ele>
        <time>2022-07-31T13:39:38.000Z</time>
      </trkpt>
      <trkpt lat="49.44228" lon="-1.25491">
        <ele>7.384718</ele>
        <time>2022-07-31T13:39:39.000Z</time>
      </trkpt>
      <trkpt lat="49.44224" lon="-1.25487">
        <ele>7.38579</ele>
        <time>2022-07-31T13:39:40.000Z</time>
      </trkpt>
      <trkpt lat="49.44221" lon="-1.25483">
        <ele>7.387108</ele>
        <time>2022-07-31T13:39:41.000Z</time>
      </trkpt>
      <trkpt lat="49.44217" lon="-1.25477">
        <ele>7.388549</ele>
        <time>2022-07-31T13:39:42.000Z</time>
      </trkpt>
      <trkpt lat="49.44213" lon="-1.25471">
        <ele>7.389993</ele>
        <time>2022-07-31T13:39:43.000Z</time>
      </trkpt>
      <trkpt lat="49.44209" lon="-1.25464">
        <ele>7.391516</ele>
        <time>2022-07-31T13:39:44.000Z</time>
      </trkpt>
      <trkpt lat="49.44205" lon="-1.25457">
        <ele>7.393095</ele>
        <time>2022-07-31T13:39:45.000Z</time>
      </trkpt>
      <trkpt lat="49.44202" lon="-1.25451">
        <ele>7.394526</ele>
        <time>2022-07-31T13:39:46.000Z</time>
      </trkpt>
      <trkpt lat="49.44199" lon="-1.25445">
        <ele>7.395871</ele>
        <time>2022-07-31T13:39:47.000Z</time>
      </trkpt>
      <trkpt lat="49.44196" lon="-1.25439">
        <ele>7.397301</ele>
        <time>2022-07-31T13:39:48.000Z</time>
      </trkpt>
      <trkpt lat="49.44192" lon="-1.25432">
        <ele>7.439995</ele>
        <time>2022-07-31T13:39:49.000Z</time>
      </trkpt>
      <trkpt lat="49.44189" lon="-1.25425">
        <ele>7.529868</ele>
        <time>2022-07-31T13:39:50.000Z</time>
      </trkpt>
      <trkpt lat="49.44185" lon="-1.25419">
        <ele>7.624595</ele>
        <time>2022-07-31T13:39:51.000Z</time>
      </trkpt>
      <trkpt lat="49.44181" lon="-1.25413">
        <ele>7.719688</ele>
        <time>2022-07-31T13:39:52.000Z</time>
      </trkpt>
      <trkpt lat="49.44177" lon="-1.25407">
        <ele>7.812651</ele>
        <time>2022-07-31T13:39:53.000Z</time>
      </trkpt>
      <trkpt lat="49.44172" lon="-1.25402">
        <ele>7.920409</ele>
        <time>2022-07-31T13:39:54.000Z</time>
      </trkpt>
      <trkpt lat="49.44166" lon="-1.25398">
        <ele>8.024533</ele>
        <time>2022-07-31T13:39:55.000Z</time>
      </trkpt>
      <trkpt lat="49.4416" lon="-1.25394">
        <ele>8.133691</ele>
        <time>2022-07-31T13:39:56.000Z</time>
      </trkpt>
      <trkpt lat="49.44155" lon="-1.25389">
        <ele>8.236281</ele>
        <time>2022-07-31T13:39:57.000Z</time>
      </trkpt>
      <trkpt lat="49.44149" lon="-1.25385">
        <ele>8.340881</ele>
        <time>2022-07-31T13:39:58.000Z</time>
      </trkpt>
      <trkpt lat="49.44144" lon="-1.2538">
        <ele>8.441677</ele>
        <time>2022-07-31T13:39:59.000Z</time>
      </trkpt>
      <trkpt lat="49.4414" lon="-1.25375">
        <ele>8.539963</ele>
        <time>2022-07-31T13:40:00.000Z</time>
      </trkpt>
      <trkpt lat="49.44135" lon="-1.2537">
        <ele>8.63473</ele>
        <time>2022-07-31T13:40:01.000Z</time>
      </trkpt>
      <trkpt lat="49.44131" lon="-1.25365">
        <ele>8.723196</ele>
        <time>2022-07-31T13:40:02.000Z</time>
      </trkpt>
      <trkpt lat="49.44128" lon="-1.25359">
        <ele>8.808029</ele>
        <time>2022-07-31T13:40:03.000Z</time>
      </trkpt>
      <trkpt lat="49.44124" lon="-1.25353">
        <ele>8.896068</ele>
        <time>2022-07-31T13:40:04.000Z</time>
      </trkpt>
      <trkpt lat="49.44121" lon="-1.25348">
        <ele>8.972427</ele>
        <time>2022-07-31T13:40:05.000Z</time>
      </trkpt>
      <trkpt lat="49.44118" lon="-1.25343">
        <ele>9.052155</ele>
        <time>2022-07-31T13:40:06.000Z</time>
      </trkpt>
      <trkpt lat="49.44115" lon="-1.25338">
        <ele>9.127673</ele>
        <time>2022-07-31T13:40:07.000Z</time>
      </trkpt>
      <trkpt lat="49.44112" lon="-1.25333">
        <ele>9.201184</ele>
        <time>2022-07-31T13:40:08.000Z</time>
      </trkpt>
      <trkpt lat="49.44109" lon="-1.25329">
        <ele>9.271027</ele>
        <time>2022-07-31T13:40:09.000Z</time>
      </trkpt>
      <trkpt lat="49.44106" lon="-1.25324">
        <ele>9.340869</ele>
        <time>2022-07-31T13:40:10.000Z</time>
      </trkpt>
      <trkpt lat="49.44104" lon="-1.2532">
        <ele>9.406115</ele>
        <time>2022-07-31T13:40:11.000Z</time>
      </trkpt>
      <trkpt lat="49.44101" lon="-1.25315">
        <ele>9.477436</ele>
        <time>2022-07-31T13:40:12.000Z</time>
      </trkpt>
      <trkpt lat="49.44098" lon="-1.25311">
        <ele>9.544219</ele>
        <time>2022-07-31T13:40:13.000Z</time>
      </trkpt>
      <trkpt lat="49.44095" lon="-1.25307">
        <ele>9.61026</ele>
        <time>2022-07-31T13:40:14.000Z</time>
      </trkpt>
      <trkpt lat="49.44092" lon="-1.25304">
        <ele>9.672757</ele>
        <time>2022-07-31T13:40:15.000Z</time>
      </trkpt>
      <trkpt lat="49.44089" lon="-1.25301">
        <ele>9.737468</ele>
        <time>2022-07-31T13:40:16.000Z</time>
      </trkpt>
      <trkpt lat="49.44086" lon="-1.25297">
        <ele>9.796609</ele>
        <time>2022-07-31T13:40:17.000Z</time>
      </trkpt>
      <trkpt lat="49.44083" lon="-1.25294">
        <ele>9.860145</ele>
        <time>2022-07-31T13:40:18.000Z</time>
      </trkpt>
      <trkpt lat="49.44079" lon="-1.25292">
        <ele>9.922562</ele>
        <time>2022-07-31T13:40:19.000Z</time>
      </trkpt>
      <trkpt lat="49.44076" lon="-1.25289">
        <ele>9.984441</ele>
        <time>2022-07-31T13:40:20.000Z</time>
      </trkpt>
      <trkpt lat="49.44073" lon="-1.25287">
        <ele>10.043424</ele>
        <time>2022-07-31T13:40:21.000Z</time>
      </trkpt>
      <trkpt lat="49.4407" lon="-1.25285">
        <ele>10.097306</ele>
        <time>2022-07-31T13:40:22.000Z</time>
      </trkpt>
      <trkpt lat="49.44067" lon="-1.25283">
        <ele>10.155459</ele>
        <time>2022-07-31T13:40:23.000Z</time>
      </trkpt>
      <trkpt lat="49.44064" lon="-1.25281">
        <ele>10.207692</ele>
        <time>2022-07-31T13:40:24.000Z</time>
      </trkpt>
      <trkpt lat="49.44061" lon="-1.25279">
        <ele>10.265846</ele>
        <time>2022-07-31T13:40:25.000Z</time>
      </trkpt>
      <trkpt lat="49.44058" lon="-1.25278">
        <ele>10.316484</ele>
        <time>2022-07-31T13:40:26.000Z</time>
      </trkpt>
      <trkpt lat="49.44055" lon="-1.25277">
        <ele>10.372324</ele>
        <time>2022-07-31T13:40:27.000Z</time>
      </trkpt>
      <trkpt lat="49.44051" lon="-1.25276">
        <ele>10.438321</ele>
        <time>2022-07-31T13:40:28.000Z</time>
      </trkpt>
      <trkpt lat="49.44048" lon="-1.25274">
        <ele>10.515312</ele>
        <time>2022-07-31T13:40:29.000Z</time>
      </trkpt>
      <trkpt lat="49.44043" lon="-1.25273">
        <ele>10.627358</ele>
        <time>2022-07-31T13:40:30.000Z</time>
      </trkpt>
      <trkpt lat="49.4404" lon="-1.25271">
        <ele>10.717163</ele>
        <time>2022-07-31T13:40:31.000Z</time>
      </trkpt>
      <trkpt lat="49.44036" lon="-1.2527">
        <ele>10.81499</ele>
        <time>2022-07-31T13:40:32.000Z</time>
      </trkpt>
      <trkpt lat="49.44032" lon="-1.25268">
        <ele>10.90225</ele>
        <time>2022-07-31T13:40:33.000Z</time>
      </trkpt>
      <trkpt lat="49.44029" lon="-1.25268">
        <ele>10.980264</ele>
        <time>2022-07-31T13:40:34.000Z</time>
      </trkpt>
      <trkpt lat="49.44027" lon="-1.25268">
        <ele>11.034009</ele>
        <time>2022-07-31T13:40:35.000Z</time>
      </trkpt>
      <trkpt lat="49.44025" lon="-1.25267">
        <ele>11.080675</ele>
        <time>2022-07-31T13:40:36.000Z</time>
      </trkpt>
      <trkpt lat="49.44023" lon="-1.25267">
        <ele>11.129574</ele>
        <time>2022-07-31T13:40:37.000Z</time>
      </trkpt>
      <trkpt lat="49.44021" lon="-1.25267">
        <ele>11.176052</ele>
        <time>2022-07-31T13:40:38.000Z</time>
      </trkpt>
      <trkpt lat="49.44019" lon="-1.25266">
        <ele>11.22996</ele>
        <time>2022-07-31T13:40:39.000Z</time>
      </trkpt>
      <trkpt lat="49.44017" lon="-1.25266">
        <ele>11.285929</ele>
        <time>2022-07-31T13:40:40.000Z</time>
      </trkpt>
      <trkpt lat="49.44014" lon="-1.25267">
        <ele>11.348409</ele>
        <time>2022-07-31T13:40:41.000Z</time>
      </trkpt>
      <trkpt lat="49.44011" lon="-1.25268">
        <ele>11.419614</ele>
        <time>2022-07-31T13:40:42.000Z</time>
      </trkpt>
      <trkpt lat="49.44009" lon="-1.25268">
        <ele>11.473522</ele>
        <time>2022-07-31T13:40:43.000Z</time>
      </trkpt>
      <trkpt lat="49.44007" lon="-1.25267">
        <ele>11.524231</ele>
        <time>2022-07-31T13:40:44.000Z</time>
      </trkpt>
      <trkpt lat="49.44005" lon="-1.25266">
        <ele>11.573098</ele>
        <time>2022-07-31T13:40:45.000Z</time>
      </trkpt>
      <trkpt lat="49.44004" lon="-1.25265">
        <ele>11.617133</ele>
        <time>2022-07-31T13:40:46.000Z</time>
      </trkpt>
      <trkpt lat="49.44001" lon="-1.25262">
        <ele>11.691471</ele>
        <time>2022-07-31T13:40:48.000Z</time>
      </trkpt>
      <trkpt lat="49.43998" lon="-1.25262">
        <ele>11.762199</ele>
        <time>2022-07-31T13:40:50.000Z</time>
      </trkpt>
      <trkpt lat="49.43996" lon="-1.25263">
        <ele>11.811067</ele>
        <time>2022-07-31T13:40:51.000Z</time>
      </trkpt>
      <trkpt lat="49.43993" lon="-1.25263">
        <ele>11.889081</ele>
        <time>2022-07-31T13:40:53.000Z</time>
      </trkpt>
      <trkpt lat="49.43991" lon="-1.2526">
        <ele>11.950475</ele>
        <time>2022-07-31T13:40:55.000Z</time>
      </trkpt>
      <trkpt lat="49.43993" lon="-1.25257">
        <ele>12.004865</ele>
        <time>2022-07-31T13:40:57.000Z</time>
      </trkpt>
      <trkpt lat="49.43996" lon="-1.25257">
        <ele>12.075594</ele>
        <time>2022-07-31T13:40:59.000Z</time>
      </trkpt>
      <trkpt lat="49.43999" lon="-1.25257">
        <ele>12.160896</ele>
        <time>2022-07-31T13:41:01.000Z</time>
      </trkpt>
      <trkpt lat="49.44001" lon="-1.2526">
        <ele>12.231127</ele>
        <time>2022-07-31T13:41:03.000Z</time>
      </trkpt>
      <trkpt lat="49.44" lon="-1.25264">
        <ele>12.299732</ele>
        <time>2022-07-31T13:41:05.000Z</time>
      </trkpt>
      <trkpt lat="49.43997" lon="-1.25266">
        <ele>12.374186</ele>
        <time>2022-07-31T13:41:07.000Z</time>
      </trkpt>
      <trkpt lat="49.43995" lon="-1.25264">
        <ele>12.440703</ele>
        <time>2022-07-31T13:41:09.000Z</time>
      </trkpt>
      <trkpt lat="49.43993" lon="-1.25262">
        <ele>12.495006</ele>
        <time>2022-07-31T13:41:10.000Z</time>
      </trkpt>
      <trkpt lat="49.43991" lon="-1.2526">
        <ele>12.54518</ele>
        <time>2022-07-31T13:41:11.000Z</time>
      </trkpt>
      <trkpt lat="49.43989" lon="-1.25258">
        <ele>12.609476</ele>
        <time>2022-07-31T13:41:12.000Z</time>
      </trkpt>
      <trkpt lat="49.43987" lon="-1.25256">
        <ele>12.664626</ele>
        <time>2022-07-31T13:41:13.000Z</time>
      </trkpt>
      <trkpt lat="49.43985" lon="-1.25255">
        <ele>12.723186</ele>
        <time>2022-07-31T13:41:14.000Z</time>
      </trkpt>
      <trkpt lat="49.43983" lon="-1.25253">
        <ele>12.778046</ele>
        <time>2022-07-31T13:41:15.000Z</time>
      </trkpt>
      <trkpt lat="49.43981" lon="-1.25252">
        <ele>12.843347</ele>
        <time>2022-07-31T13:41:16.000Z</time>
      </trkpt>
      <trkpt lat="49.43978" lon="-1.2525">
        <ele>12.904141</ele>
        <time>2022-07-31T13:41:17.000Z</time>
      </trkpt>
      <trkpt lat="49.43975" lon="-1.25249">
        <ele>12.985547</ele>
        <time>2022-07-31T13:41:18.000Z</time>
      </trkpt>
      <trkpt lat="49.43972" lon="-1.25247">
        <ele>13.0588</ele>
        <time>2022-07-31T13:41:19.000Z</time>
      </trkpt>
      <trkpt lat="49.43969" lon="-1.25245">
        <ele>13.142854</ele>
        <time>2022-07-31T13:41:20.000Z</time>
      </trkpt>
      <trkpt lat="49.43965" lon="-1.25243">
        <ele>13.237716</ele>
        <time>2022-07-31T13:41:21.000Z</time>
      </trkpt>
      <trkpt lat="49.43962" lon="-1.2524">
        <ele>13.325057</ele>
        <time>2022-07-31T13:41:22.000Z</time>
      </trkpt>
      <trkpt lat="49.43959" lon="-1.25238">
        <ele>13.420342</ele>
        <time>2022-07-31T13:41:23.000Z</time>
      </trkpt>
      <trkpt lat="49.43955" lon="-1.25235">
        <ele>13.520918</ele>
        <time>2022-07-31T13:41:24.000Z</time>
      </trkpt>
      <trkpt lat="49.43951" lon="-1.25233">
        <ele>13.622004</ele>
        <time>2022-07-31T13:41:25.000Z</time>
      </trkpt>
      <trkpt lat="49.43947" lon="-1.2523">
        <ele>13.72258</ele>
        <time>2022-07-31T13:41:26.000Z</time>
      </trkpt>
      <trkpt lat="49.43943" lon="-1.25228">
        <ele>13.825116</ele>
        <time>2022-07-31T13:41:27.000Z</time>
      </trkpt>
      <trkpt lat="49.4394" lon="-1.25225">
        <ele>13.929851</ele>
        <time>2022-07-31T13:41:28.000Z</time>
      </trkpt>
      <trkpt lat="49.43936" lon="-1.25222">
        <ele>14.031714</ele>
        <time>2022-07-31T13:41:29.000Z</time>
      </trkpt>
      <trkpt lat="49.43932" lon="-1.25219">
        <ele>14.13579</ele>
        <time>2022-07-31T13:41:30.000Z</time>
      </trkpt>
      <trkpt lat="49.43928" lon="-1.25217">
        <ele>14.238326</ele>
        <time>2022-07-31T13:41:31.000Z</time>
      </trkpt>
      <trkpt lat="49.43925" lon="-1.25214">
        <ele>14.335831</ele>
        <time>2022-07-31T13:41:32.000Z</time>
      </trkpt>
      <trkpt lat="49.43921" lon="-1.2521">
        <ele>14.445712</ele>
        <time>2022-07-31T13:41:33.000Z</time>
      </trkpt>
      <trkpt lat="49.43916" lon="-1.25206">
        <ele>14.576367</ele>
        <time>2022-07-31T13:41:34.000Z</time>
      </trkpt>
      <trkpt lat="49.43912" lon="-1.25203">
        <ele>14.690478</ele>
        <time>2022-07-31T13:41:35.000Z</time>
      </trkpt>
      <trkpt lat="49.43907" lon="-1.25199">
        <ele>14.81319</ele>
        <time>2022-07-31T13:41:36.000Z</time>
      </trkpt>
      <trkpt lat="49.43903" lon="-1.25196">
        <ele>14.896355</ele>
        <time>2022-07-31T13:41:37.000Z</time>
      </trkpt>
      <trkpt lat="49.43899" lon="-1.25192">
        <ele>14.974568</ele>
        <time>2022-07-31T13:41:38.000Z</time>
      </trkpt>
      <trkpt lat="49.43895" lon="-1.25189">
        <ele>15.050434</ele>
        <time>2022-07-31T13:41:39.000Z</time>
      </trkpt>
      <trkpt lat="49.43891" lon="-1.25185">
        <ele>15.129722</ele>
        <time>2022-07-31T13:41:40.000Z</time>
      </trkpt>
      <trkpt lat="49.43887" lon="-1.25181">
        <ele>15.203768</ele>
        <time>2022-07-31T13:41:41.000Z</time>
      </trkpt>
      <trkpt lat="49.43884" lon="-1.25177">
        <ele>15.280773</ele>
        <time>2022-07-31T13:41:42.000Z</time>
      </trkpt>
      <trkpt lat="49.4388" lon="-1.25174">
        <ele>15.353033</ele>
        <time>2022-07-31T13:41:43.000Z</time>
      </trkpt>
      <trkpt lat="49.43876" lon="-1.25171">
        <ele>15.419864</ele>
        <time>2022-07-31T13:41:44.000Z</time>
      </trkpt>
      <trkpt lat="49.43872" lon="-1.25168">
        <ele>15.494109</ele>
        <time>2022-07-31T13:41:45.000Z</time>
      </trkpt>
      <trkpt lat="49.43869" lon="-1.25164">
        <ele>15.557773</ele>
        <time>2022-07-31T13:41:46.000Z</time>
      </trkpt>
      <trkpt lat="49.43866" lon="-1.25161">
        <ele>15.622035</ele>
        <time>2022-07-31T13:41:47.000Z</time>
      </trkpt>
      <trkpt lat="49.43862" lon="-1.25158">
        <ele>15.69051</ele>
        <time>2022-07-31T13:41:48.000Z</time>
      </trkpt>
      <trkpt lat="49.43859" lon="-1.25155">
        <ele>15.754174</ele>
        <time>2022-07-31T13:41:49.000Z</time>
      </trkpt>
      <trkpt lat="49.43856" lon="-1.25151">
        <ele>15.817839</ele>
        <time>2022-07-31T13:41:50.000Z</time>
      </trkpt>
      <trkpt lat="49.43853" lon="-1.25148">
        <ele>15.886313</ele>
        <time>2022-07-31T13:41:51.000Z</time>
      </trkpt>
      <trkpt lat="49.43849" lon="-1.25144">
        <ele>15.955093</ele>
        <time>2022-07-31T13:41:52.000Z</time>
      </trkpt>
      <trkpt lat="49.43846" lon="-1.2514">
        <ele>16.023873</ele>
        <time>2022-07-31T13:41:53.000Z</time>
      </trkpt>
      <trkpt lat="49.43843" lon="-1.25136">
        <ele>16.095332</ele>
        <time>2022-07-31T13:41:54.000Z</time>
      </trkpt>
      <trkpt lat="49.4384" lon="-1.25133">
        <ele>16.158181</ele>
        <time>2022-07-31T13:41:55.000Z</time>
      </trkpt>
      <trkpt lat="49.43837" lon="-1.25129">
        <ele>16.226961</ele>
        <time>2022-07-31T13:41:56.000Z</time>
      </trkpt>
      <trkpt lat="49.43833" lon="-1.25124">
        <ele>16.297129</ele>
        <time>2022-07-31T13:41:57.000Z</time>
      </trkpt>
      <trkpt lat="49.4383" lon="-1.2512">
        <ele>16.370513</ele>
        <time>2022-07-31T13:41:58.000Z</time>
      </trkpt>
      <trkpt lat="49.43827" lon="-1.25115">
        <ele>16.445832</ele>
        <time>2022-07-31T13:41:59.000Z</time>
      </trkpt>
      <trkpt lat="49.43823" lon="-1.25111">
        <ele>16.525871</ele>
        <time>2022-07-31T13:42:00.000Z</time>
      </trkpt>
      <trkpt lat="49.4382" lon="-1.25107">
        <ele>16.594585</ele>
        <time>2022-07-31T13:42:01.000Z</time>
      </trkpt>
      <trkpt lat="49.43817" lon="-1.25102">
        <ele>16.665462</ele>
        <time>2022-07-31T13:42:02.000Z</time>
      </trkpt>
      <trkpt lat="49.43814" lon="-1.25098">
        <ele>16.733012</ele>
        <time>2022-07-31T13:42:03.000Z</time>
      </trkpt>
      <trkpt lat="49.43811" lon="-1.25093">
        <ele>16.804608</ele>
        <time>2022-07-31T13:42:04.000Z</time>
      </trkpt>
      <trkpt lat="49.43808" lon="-1.25089">
        <ele>16.868292</ele>
        <time>2022-07-31T13:42:05.000Z</time>
      </trkpt>
      <trkpt lat="49.43805" lon="-1.25084">
        <ele>16.945792</ele>
        <time>2022-07-31T13:42:06.000Z</time>
      </trkpt>
      <trkpt lat="49.43801" lon="-1.25079">
        <ele>17.03048</ele>
        <time>2022-07-31T13:42:07.000Z</time>
      </trkpt>
      <trkpt lat="49.43797" lon="-1.25074">
        <ele>17.10892</ele>
        <time>2022-07-31T13:42:08.000Z</time>
      </trkpt>
      <trkpt lat="49.43794" lon="-1.25069">
        <ele>17.194485</ele>
        <time>2022-07-31T13:42:09.000Z</time>
      </trkpt>
      <trkpt lat="49.4379" lon="-1.25063">
        <ele>17.274529</ele>
        <time>2022-07-31T13:42:10.000Z</time>
      </trkpt>
      <trkpt lat="49.43787" lon="-1.25058">
        <ele>17.357992</ele>
        <time>2022-07-31T13:42:11.000Z</time>
      </trkpt>
      <trkpt lat="49.43783" lon="-1.25052">
        <ele>17.446251</ele>
        <time>2022-07-31T13:42:12.000Z</time>
      </trkpt>
      <trkpt lat="49.43779" lon="-1.25047">
        <ele>17.533527</ele>
        <time>2022-07-31T13:42:13.000Z</time>
      </trkpt>
      <trkpt lat="49.43776" lon="-1.25042">
        <ele>17.611177</ele>
        <time>2022-07-31T13:42:14.000Z</time>
      </trkpt>
      <trkpt lat="49.43772" lon="-1.25037">
        <ele>17.694492</ele>
        <time>2022-07-31T13:42:15.000Z</time>
      </trkpt>
      <trkpt lat="49.43768" lon="-1.25032">
        <ele>17.777906</ele>
        <time>2022-07-31T13:42:16.000Z</time>
      </trkpt>
      <trkpt lat="49.43765" lon="-1.25027">
        <ele>17.834628</ele>
        <time>2022-07-31T13:42:17.000Z</time>
      </trkpt>
      <trkpt lat="49.43761" lon="-1.25023">
        <ele>17.86076</ele>
        <time>2022-07-31T13:42:18.000Z</time>
      </trkpt>
      <trkpt lat="49.43757" lon="-1.25018">
        <ele>17.885926</ele>
        <time>2022-07-31T13:42:19.000Z</time>
      </trkpt>
      <trkpt lat="49.43754" lon="-1.25013">
        <ele>17.909215</ele>
        <time>2022-07-31T13:42:20.000Z</time>
      </trkpt>
      <trkpt lat="49.4375" lon="-1.25008">
        <ele>17.93438</ele>
        <time>2022-07-31T13:42:21.000Z</time>
      </trkpt>
      <trkpt lat="49.43747" lon="-1.25004">
        <ele>17.958859</ele>
        <time>2022-07-31T13:42:22.000Z</time>
      </trkpt>
      <trkpt lat="49.43743" lon="-1.24999">
        <ele>17.985203</ele>
        <time>2022-07-31T13:42:23.000Z</time>
      </trkpt>
      <trkpt lat="49.43739" lon="-1.24995">
        <ele>18.010288</ele>
        <time>2022-07-31T13:42:24.000Z</time>
      </trkpt>
      <trkpt lat="49.43735" lon="-1.24991">
        <ele>18.034771</ele>
        <time>2022-07-31T13:42:25.000Z</time>
      </trkpt>
      <trkpt lat="49.43732" lon="-1.24986">
        <ele>18.059221</ele>
        <time>2022-07-31T13:42:26.000Z</time>
      </trkpt>
      <trkpt lat="49.43727" lon="-1.24982">
        <ele>18.086939</ele>
        <time>2022-07-31T13:42:27.000Z</time>
      </trkpt>
      <trkpt lat="49.43724" lon="-1.24977">
        <ele>18.113498</ele>
        <time>2022-07-31T13:42:28.000Z</time>
      </trkpt>
      <trkpt lat="49.43719" lon="-1.24973">
        <ele>18.140279</ele>
        <time>2022-07-31T13:42:29.000Z</time>
      </trkpt>
      <trkpt lat="49.43715" lon="-1.24968">
        <ele>18.167299</ele>
        <time>2022-07-31T13:42:30.000Z</time>
      </trkpt>
      <trkpt lat="49.43711" lon="-1.24964">
        <ele>18.194515</ele>
        <time>2022-07-31T13:42:31.000Z</time>
      </trkpt>
      <trkpt lat="49.43707" lon="-1.24959">
        <ele>18.221912</ele>
        <time>2022-07-31T13:42:32.000Z</time>
      </trkpt>
      <trkpt lat="49.43703" lon="-1.24954">
        <ele>18.249734</ele>
        <time>2022-07-31T13:42:33.000Z</time>
      </trkpt>
      <trkpt lat="49.43699" lon="-1.24949">
        <ele>18.277342</ele>
        <time>2022-07-31T13:42:34.000Z</time>
      </trkpt>
      <trkpt lat="49.43694" lon="-1.24945">
        <ele>18.305164</ele>
        <time>2022-07-31T13:42:35.000Z</time>
      </trkpt>
      <trkpt lat="49.4369" lon="-1.2494">
        <ele>18.335989</ele>
        <time>2022-07-31T13:42:36.000Z</time>
      </trkpt>
      <trkpt lat="49.43685" lon="-1.24935">
        <ele>18.364528</ele>
        <time>2022-07-31T13:42:37.000Z</time>
      </trkpt>
      <trkpt lat="49.4368" lon="-1.24931">
        <ele>18.394417</ele>
        <time>2022-07-31T13:42:38.000Z</time>
      </trkpt>
      <trkpt lat="49.43676" lon="-1.24926">
        <ele>18.423953</ele>
        <time>2022-07-31T13:42:39.000Z</time>
      </trkpt>
      <trkpt lat="49.43671" lon="-1.24922">
        <ele>18.450734</ele>
        <time>2022-07-31T13:42:40.000Z</time>
      </trkpt>
      <trkpt lat="49.43667" lon="-1.24917">
        <ele>18.479087</ele>
        <time>2022-07-31T13:42:41.000Z</time>
      </trkpt>
      <trkpt lat="49.43662" lon="-1.24913">
        <ele>18.509684</ele>
        <time>2022-07-31T13:42:42.000Z</time>
      </trkpt>
      <trkpt lat="49.43657" lon="-1.24909">
        <ele>18.537671</ele>
        <time>2022-07-31T13:42:43.000Z</time>
      </trkpt>
      <trkpt lat="49.43653" lon="-1.24905">
        <ele>18.567034</ele>
        <time>2022-07-31T13:42:44.000Z</time>
      </trkpt>
      <trkpt lat="49.43648" lon="-1.24901">
        <ele>18.595738</ele>
        <time>2022-07-31T13:42:45.000Z</time>
      </trkpt>
      <trkpt lat="49.43643" lon="-1.24897">
        <ele>18.623034</ele>
        <time>2022-07-31T13:42:46.000Z</time>
      </trkpt>
      <trkpt lat="49.43639" lon="-1.24893">
        <ele>18.64967</ele>
        <time>2022-07-31T13:42:47.000Z</time>
      </trkpt>
      <trkpt lat="49.43635" lon="-1.24889">
        <ele>18.676847</ele>
        <time>2022-07-31T13:42:48.000Z</time>
      </trkpt>
      <trkpt lat="49.4363" lon="-1.24885">
        <ele>18.705873</ele>
        <time>2022-07-31T13:42:49.000Z</time>
      </trkpt>
      <trkpt lat="49.43626" lon="-1.24881">
        <ele>18.730798</ele>
        <time>2022-07-31T13:42:50.000Z</time>
      </trkpt>
      <trkpt lat="49.43622" lon="-1.24877">
        <ele>18.75625</ele>
        <time>2022-07-31T13:42:51.000Z</time>
      </trkpt>
      <trkpt lat="49.43618" lon="-1.24873">
        <ele>18.782037</ele>
        <time>2022-07-31T13:42:52.000Z</time>
      </trkpt>
      <trkpt lat="49.43613" lon="-1.24869">
        <ele>18.801973</ele>
        <time>2022-07-31T13:42:53.000Z</time>
      </trkpt>
      <trkpt lat="49.43609" lon="-1.24866">
        <ele>18.82221</ele>
        <time>2022-07-31T13:42:54.000Z</time>
      </trkpt>
      <trkpt lat="49.43605" lon="-1.24862">
        <ele>18.840841</ele>
        <time>2022-07-31T13:42:55.000Z</time>
      </trkpt>
      <trkpt lat="49.43601" lon="-1.24858">
        <ele>18.860434</ele>
        <time>2022-07-31T13:42:56.000Z</time>
      </trkpt>
      <trkpt lat="49.43596" lon="-1.24854">
        <ele>18.882341</ele>
        <time>2022-07-31T13:42:57.000Z</time>
      </trkpt>
      <trkpt lat="49.43592" lon="-1.2485">
        <ele>18.902006</ele>
        <time>2022-07-31T13:42:58.000Z</time>
      </trkpt>
      <trkpt lat="49.43588" lon="-1.24846">
        <ele>18.921941</ele>
        <time>2022-07-31T13:42:59.000Z</time>
      </trkpt>
      <trkpt lat="49.43584" lon="-1.24842">
        <ele>18.941968</ele>
        <time>2022-07-31T13:43:00.000Z</time>
      </trkpt>
      <trkpt lat="49.4358" lon="-1.24838">
        <ele>18.961766</ele>
        <time>2022-07-31T13:43:01.000Z</time>
      </trkpt>
      <trkpt lat="49.43575" lon="-1.24834">
        <ele>18.98136</ele>
        <time>2022-07-31T13:43:02.000Z</time>
      </trkpt>
      <trkpt lat="49.43571" lon="-1.2483">
        <ele>19.002911</ele>
        <time>2022-07-31T13:43:03.000Z</time>
      </trkpt>
      <trkpt lat="49.43567" lon="-1.24827">
        <ele>19.019959</ele>
        <time>2022-07-31T13:43:04.000Z</time>
      </trkpt>
      <trkpt lat="49.43563" lon="-1.24823">
        <ele>19.037833</ele>
        <time>2022-07-31T13:43:05.000Z</time>
      </trkpt>
      <trkpt lat="49.43558" lon="-1.24821">
        <ele>19.05855</ele>
        <time>2022-07-31T13:43:06.000Z</time>
      </trkpt>
      <trkpt lat="49.43555" lon="-1.24817">
        <ele>19.074098</ele>
        <time>2022-07-31T13:43:07.000Z</time>
      </trkpt>
      <trkpt lat="49.43551" lon="-1.24814">
        <ele>19.091335</ele>
        <time>2022-07-31T13:43:08.000Z</time>
      </trkpt>
      <trkpt lat="49.43548" lon="-1.24812">
        <ele>19.107498</ele>
        <time>2022-07-31T13:43:09.000Z</time>
      </trkpt>
      <trkpt lat="49.43544" lon="-1.24809">
        <ele>19.122756</ele>
        <time>2022-07-31T13:43:10.000Z</time>
      </trkpt>
      <trkpt lat="49.43542" lon="-1.24807">
        <ele>19.134128</ele>
        <time>2022-07-31T13:43:11.000Z</time>
      </trkpt>
      <trkpt lat="49.43539" lon="-1.24806">
        <ele>19.147877</ele>
        <time>2022-07-31T13:43:12.000Z</time>
      </trkpt>
      <trkpt lat="49.43535" lon="-1.24804">
        <ele>19.161627</ele>
        <time>2022-07-31T13:43:13.000Z</time>
      </trkpt>
      <trkpt lat="49.43532" lon="-1.24802">
        <ele>19.178217</ele>
        <time>2022-07-31T13:43:14.000Z</time>
      </trkpt>
      <trkpt lat="49.43528" lon="-1.248">
        <ele>19.194342</ele>
        <time>2022-07-31T13:43:15.000Z</time>
      </trkpt>
      <trkpt lat="49.43524" lon="-1.24799">
        <ele>19.21163</ele>
        <time>2022-07-31T13:43:16.000Z</time>
      </trkpt>
      <trkpt lat="49.4352" lon="-1.24797">
        <ele>19.2276</ele>
        <time>2022-07-31T13:43:17.000Z</time>
      </trkpt>
      <trkpt lat="49.43515" lon="-1.24795">
        <ele>19.247537</ele>
        <time>2022-07-31T13:43:18.000Z</time>
      </trkpt>
      <trkpt lat="49.43511" lon="-1.24793">
        <ele>19.26528</ele>
        <time>2022-07-31T13:43:19.000Z</time>
      </trkpt>
      <trkpt lat="49.43506" lon="-1.24791">
        <ele>19.284415</ele>
        <time>2022-07-31T13:43:20.000Z</time>
      </trkpt>
      <trkpt lat="49.43502" lon="-1.24788">
        <ele>19.303344</ele>
        <time>2022-07-31T13:43:21.000Z</time>
      </trkpt>
      <trkpt lat="49.43497" lon="-1.24786">
        <ele>19.323712</ele>
        <time>2022-07-31T13:43:22.000Z</time>
      </trkpt>
      <trkpt lat="49.43493" lon="-1.24783">
        <ele>19.34311</ele>
        <time>2022-07-31T13:43:23.000Z</time>
      </trkpt>
      <trkpt lat="49.43488" lon="-1.24781">
        <ele>19.363735</ele>
        <time>2022-07-31T13:43:24.000Z</time>
      </trkpt>
      <trkpt lat="49.43483" lon="-1.24778">
        <ele>19.384643</ele>
        <time>2022-07-31T13:43:25.000Z</time>
      </trkpt>
      <trkpt lat="49.43478" lon="-1.24775">
        <ele>19.405552</ele>
        <time>2022-07-31T13:43:26.000Z</time>
      </trkpt>
      <trkpt lat="49.43473" lon="-1.24771">
        <ele>19.426663</ele>
        <time>2022-07-31T13:43:27.000Z</time>
      </trkpt>
      <trkpt lat="49.43469" lon="-1.24768">
        <ele>19.448449</ele>
        <time>2022-07-31T13:43:28.000Z</time>
      </trkpt>
      <trkpt lat="49.43464" lon="-1.24763">
        <ele>19.468666</ele>
        <time>2022-07-31T13:43:29.000Z</time>
      </trkpt>
      <trkpt lat="49.4346" lon="-1.24759">
        <ele>19.490046</ele>
        <time>2022-07-31T13:43:30.000Z</time>
      </trkpt>
      <trkpt lat="49.43455" lon="-1.24755">
        <ele>19.482193</ele>
        <time>2022-07-31T13:43:31.000Z</time>
      </trkpt>
      <trkpt lat="49.4345" lon="-1.2475">
        <ele>19.396472</ele>
        <time>2022-07-31T13:43:32.000Z</time>
      </trkpt>
      <trkpt lat="49.43445" lon="-1.24745">
        <ele>19.308067</ele>
        <time>2022-07-31T13:43:33.000Z</time>
      </trkpt>
      <trkpt lat="49.43441" lon="-1.2474">
        <ele>19.218536</ele>
        <time>2022-07-31T13:43:34.000Z</time>
      </trkpt>
      <trkpt lat="49.43436" lon="-1.24735">
        <ele>19.124675</ele>
        <time>2022-07-31T13:43:35.000Z</time>
      </trkpt>
      <trkpt lat="49.43431" lon="-1.24729">
        <ele>19.032199</ele>
        <time>2022-07-31T13:43:36.000Z</time>
      </trkpt>
      <trkpt lat="49.43426" lon="-1.24723">
        <ele>18.935476</ele>
        <time>2022-07-31T13:43:37.000Z</time>
      </trkpt>
      <trkpt lat="49.43421" lon="-1.24718">
        <ele>18.847824</ele>
        <time>2022-07-31T13:43:38.000Z</time>
      </trkpt>
      <trkpt lat="49.43416" lon="-1.24712">
        <ele>18.749058</ele>
        <time>2022-07-31T13:43:39.000Z</time>
      </trkpt>
      <trkpt lat="49.43411" lon="-1.24706">
        <ele>18.652921</ele>
        <time>2022-07-31T13:43:40.000Z</time>
      </trkpt>
      <trkpt lat="49.43405" lon="-1.247">
        <ele>18.550094</ele>
        <time>2022-07-31T13:43:41.000Z</time>
      </trkpt>
      <trkpt lat="49.434" lon="-1.24694">
        <ele>18.447923</ele>
        <time>2022-07-31T13:43:42.000Z</time>
      </trkpt>
      <trkpt lat="49.43395" lon="-1.24688">
        <ele>18.350006</ele>
        <time>2022-07-31T13:43:43.000Z</time>
      </trkpt>
      <trkpt lat="49.43389" lon="-1.24682">
        <ele>18.24775</ele>
        <time>2022-07-31T13:43:44.000Z</time>
      </trkpt>
      <trkpt lat="49.43383" lon="-1.24677">
        <ele>18.143528</ele>
        <time>2022-07-31T13:43:45.000Z</time>
      </trkpt>
      <trkpt lat="49.43378" lon="-1.24671">
        <ele>18.040701</ele>
        <time>2022-07-31T13:43:46.000Z</time>
      </trkpt>
      <trkpt lat="49.43373" lon="-1.24665">
        <ele>17.941935</ele>
        <time>2022-07-31T13:43:47.000Z</time>
      </trkpt>
      <trkpt lat="49.43367" lon="-1.2466">
        <ele>17.84695</ele>
        <time>2022-07-31T13:43:48.000Z</time>
      </trkpt>
      <trkpt lat="49.43362" lon="-1.24654">
        <ele>17.745815</ele>
        <time>2022-07-31T13:43:49.000Z</time>
      </trkpt>
      <trkpt lat="49.43357" lon="-1.24648">
        <ele>17.647049</ele>
        <time>2022-07-31T13:43:50.000Z</time>
      </trkpt>
      <trkpt lat="49.43351" lon="-1.24643">
        <ele>17.550325</ele>
        <time>2022-07-31T13:43:51.000Z</time>
      </trkpt>
      <trkpt lat="49.43347" lon="-1.24637">
        <ele>17.459047</ele>
        <time>2022-07-31T13:43:52.000Z</time>
      </trkpt>
      <trkpt lat="49.43342" lon="-1.24632">
        <ele>17.369515</ele>
        <time>2022-07-31T13:43:53.000Z</time>
      </trkpt>
      <trkpt lat="49.43337" lon="-1.24626">
        <ele>17.278237</ele>
        <time>2022-07-31T13:43:54.000Z</time>
      </trkpt>
      <trkpt lat="49.43333" lon="-1.24621">
        <ele>17.192158</ele>
        <time>2022-07-31T13:43:55.000Z</time>
      </trkpt>
      <trkpt lat="49.43329" lon="-1.24615">
        <ele>17.111212</ele>
        <time>2022-07-31T13:43:56.000Z</time>
      </trkpt>
      <trkpt lat="49.43325" lon="-1.2461">
        <ele>17.029608</ele>
        <time>2022-07-31T13:43:57.000Z</time>
      </trkpt>
      <trkpt lat="49.4332" lon="-1.24605">
        <ele>16.945528</ele>
        <time>2022-07-31T13:43:58.000Z</time>
      </trkpt>
      <trkpt lat="49.43317" lon="-1.246">
        <ele>16.874016</ele>
        <time>2022-07-31T13:43:59.000Z</time>
      </trkpt>
      <trkpt lat="49.43313" lon="-1.24595">
        <ele>16.799654</ele>
        <time>2022-07-31T13:44:00.000Z</time>
      </trkpt>
      <trkpt lat="49.43309" lon="-1.24591">
        <ele>16.770796</ele>
        <time>2022-07-31T13:44:01.000Z</time>
      </trkpt>
      <trkpt lat="49.43306" lon="-1.24587">
        <ele>16.783155</ele>
        <time>2022-07-31T13:44:02.000Z</time>
      </trkpt>
      <trkpt lat="49.43302" lon="-1.24582">
        <ele>16.796517</ele>
        <time>2022-07-31T13:44:03.000Z</time>
      </trkpt>
      <trkpt lat="49.43298" lon="-1.24578">
        <ele>16.810323</ele>
        <time>2022-07-31T13:44:04.000Z</time>
      </trkpt>
      <trkpt lat="49.43294" lon="-1.24573">
        <ele>16.823619</ele>
        <time>2022-07-31T13:44:05.000Z</time>
      </trkpt>
      <trkpt lat="49.43291" lon="-1.24568">
        <ele>16.837432</ele>
        <time>2022-07-31T13:44:06.000Z</time>
      </trkpt>
      <trkpt lat="49.43287" lon="-1.24563">
        <ele>16.85051</ele>
        <time>2022-07-31T13:44:07.000Z</time>
      </trkpt>
      <trkpt lat="49.43284" lon="-1.24558">
        <ele>16.86426</ele>
        <time>2022-07-31T13:44:08.000Z</time>
      </trkpt>
      <trkpt lat="49.4328" lon="-1.24553">
        <ele>16.87819</ele>
        <time>2022-07-31T13:44:09.000Z</time>
      </trkpt>
      <trkpt lat="49.43277" lon="-1.24548">
        <ele>16.891609</ele>
        <time>2022-07-31T13:44:10.000Z</time>
      </trkpt>
      <trkpt lat="49.43273" lon="-1.24543">
        <ele>16.904166</ele>
        <time>2022-07-31T13:44:11.000Z</time>
      </trkpt>
      <trkpt lat="49.43269" lon="-1.24538">
        <ele>16.918084</ele>
        <time>2022-07-31T13:44:12.000Z</time>
      </trkpt>
      <trkpt lat="49.43266" lon="-1.24534">
        <ele>16.9309</ele>
        <time>2022-07-31T13:44:13.000Z</time>
      </trkpt>
      <trkpt lat="49.43262" lon="-1.2453">
        <ele>16.943483</ele>
        <time>2022-07-31T13:44:14.000Z</time>
      </trkpt>
      <trkpt lat="49.4326" lon="-1.24526">
        <ele>16.953814</ele>
        <time>2022-07-31T13:44:15.000Z</time>
      </trkpt>
      <trkpt lat="49.43257" lon="-1.24522">
        <ele>16.965171</ele>
        <time>2022-07-31T13:44:16.000Z</time>
      </trkpt>
      <trkpt lat="49.43254" lon="-1.24518">
        <ele>16.974546</ele>
        <time>2022-07-31T13:44:17.000Z</time>
      </trkpt>
      <trkpt lat="49.43252" lon="-1.24515">
        <ele>16.984016</ele>
        <time>2022-07-31T13:44:18.000Z</time>
      </trkpt>
      <trkpt lat="49.43249" lon="-1.24512">
        <ele>16.994042</ele>
        <time>2022-07-31T13:44:19.000Z</time>
      </trkpt>
      <trkpt lat="49.43246" lon="-1.24508">
        <ele>17.003539</ele>
        <time>2022-07-31T13:44:20.000Z</time>
      </trkpt>
      <trkpt lat="49.43244" lon="-1.24506">
        <ele>17.012455</ele>
        <time>2022-07-31T13:44:21.000Z</time>
      </trkpt>
      <trkpt lat="49.43241" lon="-1.24502">
        <ele>17.022482</ele>
        <time>2022-07-31T13:44:22.000Z</time>
      </trkpt>
      <trkpt lat="49.43238" lon="-1.24499">
        <ele>17.030863</ele>
        <time>2022-07-31T13:44:23.000Z</time>
      </trkpt>
      <trkpt lat="49.43237" lon="-1.24496">
        <ele>17.039192</ele>
        <time>2022-07-31T13:44:24.000Z</time>
      </trkpt>
      <trkpt lat="49.43235" lon="-1.24492">
        <ele>17.047381</ele>
        <time>2022-07-31T13:44:25.000Z</time>
      </trkpt>
      <trkpt lat="49.43233" lon="-1.24489">
        <ele>17.055892</ele>
        <time>2022-07-31T13:44:26.000Z</time>
      </trkpt>
      <trkpt lat="49.43231" lon="-1.24486">
        <ele>17.063673</ele>
        <time>2022-07-31T13:44:27.000Z</time>
      </trkpt>
      <trkpt lat="49.43228" lon="-1.24483">
        <ele>17.07205</ele>
        <time>2022-07-31T13:44:28.000Z</time>
      </trkpt>
      <trkpt lat="49.43226" lon="-1.24481">
        <ele>17.079176</ele>
        <time>2022-07-31T13:44:29.000Z</time>
      </trkpt>
      <trkpt lat="49.43225" lon="-1.24479">
        <ele>17.084745</ele>
        <time>2022-07-31T13:44:30.000Z</time>
      </trkpt>
      <trkpt lat="49.43223" lon="-1.24477">
        <ele>17.090897</ele>
        <time>2022-07-31T13:44:31.000Z</time>
      </trkpt>
      <trkpt lat="49.43222" lon="-1.24474">
        <ele>17.096631</ele>
        <time>2022-07-31T13:44:32.000Z</time>
      </trkpt>
      <trkpt lat="49.43222" lon="-1.24471">
        <ele>17.101843</ele>
        <time>2022-07-31T13:44:33.000Z</time>
      </trkpt>
      <trkpt lat="49.43221" lon="-1.24468">
        <ele>17.108128</ele>
        <time>2022-07-31T13:44:34.000Z</time>
      </trkpt>
      <trkpt lat="49.43219" lon="-1.24465">
        <ele>17.115075</ele>
        <time>2022-07-31T13:44:35.000Z</time>
      </trkpt>
      <trkpt lat="49.43217" lon="-1.24463">
        <ele>17.121647</ele>
        <time>2022-07-31T13:44:36.000Z</time>
      </trkpt>
      <trkpt lat="49.43215" lon="-1.2446">
        <ele>17.129369</ele>
        <time>2022-07-31T13:44:37.000Z</time>
      </trkpt>
      <trkpt lat="49.43213" lon="-1.24457">
        <ele>17.139243</ele>
        <time>2022-07-31T13:44:38.000Z</time>
      </trkpt>
      <trkpt lat="49.43211" lon="-1.24453">
        <ele>17.148</ele>
        <time>2022-07-31T13:44:39.000Z</time>
      </trkpt>
      <trkpt lat="49.43209" lon="-1.24449">
        <ele>17.157509</ele>
        <time>2022-07-31T13:44:40.000Z</time>
      </trkpt>
      <trkpt lat="49.43206" lon="-1.24444">
        <ele>17.168236</ele>
        <time>2022-07-31T13:44:41.000Z</time>
      </trkpt>
      <trkpt lat="49.43204" lon="-1.24439">
        <ele>17.178815</ele>
        <time>2022-07-31T13:44:42.000Z</time>
      </trkpt>
      <trkpt lat="49.43202" lon="-1.24434">
        <ele>17.190797</ele>
        <time>2022-07-31T13:44:43.000Z</time>
      </trkpt>
      <trkpt lat="49.43199" lon="-1.24429">
        <ele>17.203172</ele>
        <time>2022-07-31T13:44:44.000Z</time>
      </trkpt>
      <trkpt lat="49.43196" lon="-1.24423">
        <ele>17.215281</ele>
        <time>2022-07-31T13:44:45.000Z</time>
      </trkpt>
      <trkpt lat="49.43193" lon="-1.24418">
        <ele>17.229175</ele>
        <time>2022-07-31T13:44:46.000Z</time>
      </trkpt>
      <trkpt lat="49.4319" lon="-1.24412">
        <ele>17.242831</ele>
        <time>2022-07-31T13:44:47.000Z</time>
      </trkpt>
      <trkpt lat="49.43187" lon="-1.24405">
        <ele>17.257968</ele>
        <time>2022-07-31T13:44:48.000Z</time>
      </trkpt>
      <trkpt lat="49.43183" lon="-1.24398">
        <ele>17.238205</ele>
        <time>2022-07-31T13:44:49.000Z</time>
      </trkpt>
      <trkpt lat="49.43179" lon="-1.24391">
        <ele>17.13884</ele>
        <time>2022-07-31T13:44:50.000Z</time>
      </trkpt>
      <trkpt lat="49.43175" lon="-1.24383">
        <ele>17.034438</ele>
        <time>2022-07-31T13:44:51.000Z</time>
      </trkpt>
      <trkpt lat="49.43172" lon="-1.24375">
        <ele>16.931047</ele>
        <time>2022-07-31T13:44:52.000Z</time>
      </trkpt>
      <trkpt lat="49.43167" lon="-1.24367">
        <ele>16.820631</ele>
        <time>2022-07-31T13:44:53.000Z</time>
      </trkpt>
      <trkpt lat="49.43163" lon="-1.24359">
        <ele>16.70756</ele>
        <time>2022-07-31T13:44:54.000Z</time>
      </trkpt>
      <trkpt lat="49.43158" lon="-1.24351">
        <ele>16.594392</ele>
        <time>2022-07-31T13:44:55.000Z</time>
      </trkpt>
      <trkpt lat="49.43153" lon="-1.24342">
        <ele>16.470957</ele>
        <time>2022-07-31T13:44:56.000Z</time>
      </trkpt>
      <trkpt lat="49.43148" lon="-1.24333">
        <ele>16.340806</ele>
        <time>2022-07-31T13:44:57.000Z</time>
      </trkpt>
      <trkpt lat="49.43142" lon="-1.24324">
        <ele>16.215005</ele>
        <time>2022-07-31T13:44:58.000Z</time>
      </trkpt>
      <trkpt lat="49.43137" lon="-1.24315">
        <ele>16.083617</ele>
        <time>2022-07-31T13:44:59.000Z</time>
      </trkpt>
      <trkpt lat="49.43132" lon="-1.24305">
        <ele>15.955166</ele>
        <time>2022-07-31T13:45:00.000Z</time>
      </trkpt>
      <trkpt lat="49.43128" lon="-1.24295">
        <ele>15.828738</ele>
        <time>2022-07-31T13:45:01.000Z</time>
      </trkpt>
      <trkpt lat="49.43124" lon="-1.24285">
        <ele>15.707199</ele>
        <time>2022-07-31T13:45:02.000Z</time>
      </trkpt>
      <trkpt lat="49.43121" lon="-1.24275">
        <ele>15.584996</ele>
        <time>2022-07-31T13:45:03.000Z</time>
      </trkpt>
      <trkpt lat="49.43118" lon="-1.24264">
        <ele>15.464697</ele>
        <time>2022-07-31T13:45:04.000Z</time>
      </trkpt>
      <trkpt lat="49.43116" lon="-1.24254">
        <ele>15.350403</ele>
        <time>2022-07-31T13:45:05.000Z</time>
      </trkpt>
      <trkpt lat="49.43115" lon="-1.24244">
        <ele>15.240879</ele>
        <time>2022-07-31T13:45:06.000Z</time>
      </trkpt>
      <trkpt lat="49.43113" lon="-1.24233">
        <ele>15.129277</ele>
        <time>2022-07-31T13:45:07.000Z</time>
      </trkpt>
      <trkpt lat="49.43111" lon="-1.24223">
        <ele>15.01746</ele>
        <time>2022-07-31T13:45:08.000Z</time>
      </trkpt>
      <trkpt lat="49.43109" lon="-1.24214">
        <ele>14.912227</ele>
        <time>2022-07-31T13:45:09.000Z</time>
      </trkpt>
      <trkpt lat="49.43107" lon="-1.24205">
        <ele>14.81777</ele>
        <time>2022-07-31T13:45:10.000Z</time>
      </trkpt>
      <trkpt lat="49.43104" lon="-1.24198">
        <ele>14.720486</ele>
        <time>2022-07-31T13:45:11.000Z</time>
      </trkpt>
      <trkpt lat="49.43101" lon="-1.24191">
        <ele>14.635532</ele>
        <time>2022-07-31T13:45:12.000Z</time>
      </trkpt>
      <trkpt lat="49.43098" lon="-1.24185">
        <ele>14.552116</ele>
        <time>2022-07-31T13:45:13.000Z</time>
      </trkpt>
      <trkpt lat="49.43096" lon="-1.24179">
        <ele>14.484068</ele>
        <time>2022-07-31T13:45:14.000Z</time>
      </trkpt>
      <trkpt lat="49.43093" lon="-1.24173">
        <ele>14.412476</ele>
        <time>2022-07-31T13:45:15.000Z</time>
      </trkpt>
      <trkpt lat="49.43091" lon="-1.24168">
        <ele>14.336628</ele>
        <time>2022-07-31T13:45:16.000Z</time>
      </trkpt>
      <trkpt lat="49.43089" lon="-1.24163">
        <ele>14.249369</ele>
        <time>2022-07-31T13:45:17.000Z</time>
      </trkpt>
      <trkpt lat="49.43086" lon="-1.24159">
        <ele>14.159099</ele>
        <time>2022-07-31T13:45:18.000Z</time>
      </trkpt>
      <trkpt lat="49.43084" lon="-1.24154">
        <ele>14.074192</ele>
        <time>2022-07-31T13:45:19.000Z</time>
      </trkpt>
      <trkpt lat="49.43081" lon="-1.24149">
        <ele>13.98586</ele>
        <time>2022-07-31T13:45:20.000Z</time>
      </trkpt>
      <trkpt lat="49.43079" lon="-1.24145">
        <ele>13.903266</ele>
        <time>2022-07-31T13:45:21.000Z</time>
      </trkpt>
      <trkpt lat="49.43077" lon="-1.24141">
        <ele>13.820966</ele>
        <time>2022-07-31T13:45:22.000Z</time>
      </trkpt>
      <trkpt lat="49.43074" lon="-1.24137">
        <ele>13.733864</ele>
        <time>2022-07-31T13:45:23.000Z</time>
      </trkpt>
      <trkpt lat="49.43071" lon="-1.24133">
        <ele>13.652627</ele>
        <time>2022-07-31T13:45:24.000Z</time>
      </trkpt>
      <trkpt lat="49.43069" lon="-1.2413">
        <ele>13.580869</ele>
        <time>2022-07-31T13:45:25.000Z</time>
      </trkpt>
      <trkpt lat="49.43067" lon="-1.24127">
        <ele>13.515724</ele>
        <time>2022-07-31T13:45:26.000Z</time>
      </trkpt>
      <trkpt lat="49.43065" lon="-1.24124">
        <ele>13.45232</ele>
        <time>2022-07-31T13:45:27.000Z</time>
      </trkpt>
      <trkpt lat="49.43062" lon="-1.24122">
        <ele>13.383474</ele>
        <time>2022-07-31T13:45:28.000Z</time>
      </trkpt>
      <trkpt lat="49.4306" lon="-1.24119">
        <ele>13.319224</ele>
        <time>2022-07-31T13:45:29.000Z</time>
      </trkpt>
      <trkpt lat="49.43057" lon="-1.24117">
        <ele>13.245367</ele>
        <time>2022-07-31T13:45:30.000Z</time>
      </trkpt>
      <trkpt lat="49.43054" lon="-1.24114">
        <ele>13.170243</ele>
        <time>2022-07-31T13:45:31.000Z</time>
      </trkpt>
      <trkpt lat="49.43052" lon="-1.24113">
        <ele>13.111374</ele>
        <time>2022-07-31T13:45:32.000Z</time>
      </trkpt>
      <trkpt lat="49.4305" lon="-1.24111">
        <ele>13.05521</ele>
        <time>2022-07-31T13:45:33.000Z</time>
      </trkpt>
      <trkpt lat="49.43047" lon="-1.2411">
        <ele>13.001449</ele>
        <time>2022-07-31T13:45:36.000Z</time>
      </trkpt>
      <trkpt lat="49.43053" lon="-1.24103">
        <ele>12.84772</ele>
        <time>2022-07-31T13:49:20.000Z</time>
      </trkpt>
      <trkpt lat="49.43055" lon="-1.24098">
        <ele>12.75533</ele>
        <time>2022-07-31T13:49:21.000Z</time>
      </trkpt>
      <trkpt lat="49.43057" lon="-1.24092">
        <ele>12.648149</ele>
        <time>2022-07-31T13:49:22.000Z</time>
      </trkpt>
      <trkpt lat="49.4306" lon="-1.24084">
        <ele>12.515978</ele>
        <time>2022-07-31T13:49:23.000Z</time>
      </trkpt>
      <trkpt lat="49.43063" lon="-1.24075">
        <ele>12.359229</ele>
        <time>2022-07-31T13:49:24.000Z</time>
      </trkpt>
      <trkpt lat="49.43067" lon="-1.24065">
        <ele>12.195221</ele>
        <time>2022-07-31T13:49:25.000Z</time>
      </trkpt>
      <trkpt lat="49.4307" lon="-1.24054">
        <ele>12.020183</ele>
        <time>2022-07-31T13:49:26.000Z</time>
      </trkpt>
      <trkpt lat="49.43074" lon="-1.24043">
        <ele>11.838513</ele>
        <time>2022-07-31T13:49:27.000Z</time>
      </trkpt>
      <trkpt lat="49.43078" lon="-1.24032">
        <ele>11.642849</ele>
        <time>2022-07-31T13:49:28.000Z</time>
      </trkpt>
      <trkpt lat="49.43082" lon="-1.2402">
        <ele>11.444378</ele>
        <time>2022-07-31T13:49:29.000Z</time>
      </trkpt>
      <trkpt lat="49.43086" lon="-1.24008">
        <ele>11.232424</ele>
        <time>2022-07-31T13:49:30.000Z</time>
      </trkpt>
      <trkpt lat="49.43091" lon="-1.23995">
        <ele>11.020471</ele>
        <time>2022-07-31T13:49:31.000Z</time>
      </trkpt>
      <trkpt lat="49.43096" lon="-1.23983">
        <ele>10.800315</ele>
        <time>2022-07-31T13:49:32.000Z</time>
      </trkpt>
      <trkpt lat="49.43103" lon="-1.23971">
        <ele>10.570089</ele>
        <time>2022-07-31T13:49:33.000Z</time>
      </trkpt>
      <trkpt lat="49.43109" lon="-1.23959">
        <ele>10.341008</ele>
        <time>2022-07-31T13:49:34.000Z</time>
      </trkpt>
      <trkpt lat="49.43116" lon="-1.23948">
        <ele>10.113609</ele>
        <time>2022-07-31T13:49:35.000Z</time>
      </trkpt>
      <trkpt lat="49.43123" lon="-1.23936">
        <ele>9.871558</ele>
        <time>2022-07-31T13:49:36.000Z</time>
      </trkpt>
      <trkpt lat="49.43129" lon="-1.23925">
        <ele>9.639387</ele>
        <time>2022-07-31T13:49:37.000Z</time>
      </trkpt>
      <trkpt lat="49.43136" lon="-1.23914">
        <ele>9.41316</ele>
        <time>2022-07-31T13:49:38.000Z</time>
      </trkpt>
      <trkpt lat="49.43142" lon="-1.23903">
        <ele>9.178817</ele>
        <time>2022-07-31T13:49:39.000Z</time>
      </trkpt>
      <trkpt lat="49.43148" lon="-1.23891">
        <ele>8.9578</ele>
        <time>2022-07-31T13:49:40.000Z</time>
      </trkpt>
      <trkpt lat="49.43153" lon="-1.23879">
        <ele>8.724996</ele>
        <time>2022-07-31T13:49:41.000Z</time>
      </trkpt>
      <trkpt lat="49.43159" lon="-1.23867">
        <ele>8.492328</ele>
        <time>2022-07-31T13:49:42.000Z</time>
      </trkpt>
      <trkpt lat="49.43164" lon="-1.23854">
        <ele>8.263739</ele>
        <time>2022-07-31T13:49:43.000Z</time>
      </trkpt>
      <trkpt lat="49.43169" lon="-1.23842">
        <ele>8.040113</ele>
        <time>2022-07-31T13:49:44.000Z</time>
      </trkpt>
      <trkpt lat="49.43173" lon="-1.23829">
        <ele>7.825205</ele>
        <time>2022-07-31T13:49:45.000Z</time>
      </trkpt>
      <trkpt lat="49.43178" lon="-1.23818">
        <ele>7.610795</ele>
        <time>2022-07-31T13:49:46.000Z</time>
      </trkpt>
      <trkpt lat="49.43183" lon="-1.23806">
        <ele>7.40404</ele>
        <time>2022-07-31T13:49:47.000Z</time>
      </trkpt>
      <trkpt lat="49.43187" lon="-1.23795">
        <ele>7.199919</ele>
        <time>2022-07-31T13:49:48.000Z</time>
      </trkpt>
      <trkpt lat="49.43192" lon="-1.23783">
        <ele>6.986814</ele>
        <time>2022-07-31T13:49:49.000Z</time>
      </trkpt>
      <trkpt lat="49.43197" lon="-1.23772">
        <ele>6.784006</ele>
        <time>2022-07-31T13:49:50.000Z</time>
      </trkpt>
      <trkpt lat="49.43201" lon="-1.23761">
        <ele>6.58467</ele>
        <time>2022-07-31T13:49:51.000Z</time>
      </trkpt>
      <trkpt lat="49.43205" lon="-1.2375">
        <ele>6.388168</ele>
        <time>2022-07-31T13:49:52.000Z</time>
      </trkpt>
      <trkpt lat="49.43209" lon="-1.23739">
        <ele>6.191667</ele>
        <time>2022-07-31T13:49:53.000Z</time>
      </trkpt>
      <trkpt lat="49.43214" lon="-1.23728">
        <ele>5.991422</ele>
        <time>2022-07-31T13:49:54.000Z</time>
      </trkpt>
      <trkpt lat="49.43218" lon="-1.23718">
        <ele>5.941894</ele>
        <time>2022-07-31T13:49:55.000Z</time>
      </trkpt>
      <trkpt lat="49.43222" lon="-1.23708">
        <ele>5.892973</ele>
        <time>2022-07-31T13:49:56.000Z</time>
      </trkpt>
      <trkpt lat="49.43227" lon="-1.23698">
        <ele>5.844386</ele>
        <time>2022-07-31T13:49:57.000Z</time>
      </trkpt>
      <trkpt lat="49.43232" lon="-1.23689">
        <ele>5.79509</ele>
        <time>2022-07-31T13:49:58.000Z</time>
      </trkpt>
      <trkpt lat="49.43237" lon="-1.2368">
        <ele>5.748797</ele>
        <time>2022-07-31T13:49:59.000Z</time>
      </trkpt>
      <trkpt lat="49.43242" lon="-1.23671">
        <ele>5.701337</ele>
        <time>2022-07-31T13:50:00.000Z</time>
      </trkpt>
      <trkpt lat="49.43246" lon="-1.23663">
        <ele>5.654813</ele>
        <time>2022-07-31T13:50:01.000Z</time>
      </trkpt>
      <trkpt lat="49.43252" lon="-1.23654">
        <ele>5.606938</ele>
        <time>2022-07-31T13:50:02.000Z</time>
      </trkpt>
      <trkpt lat="49.43257" lon="-1.23646">
        <ele>5.56195</ele>
        <time>2022-07-31T13:50:03.000Z</time>
      </trkpt>
      <trkpt lat="49.43262" lon="-1.23639">
        <ele>5.517246</ele>
        <time>2022-07-31T13:50:04.000Z</time>
      </trkpt>
      <trkpt lat="49.43267" lon="-1.23631">
        <ele>5.474337</ele>
        <time>2022-07-31T13:50:05.000Z</time>
      </trkpt>
      <trkpt lat="49.43272" lon="-1.23624">
        <ele>5.428083</ele>
        <time>2022-07-31T13:50:06.000Z</time>
      </trkpt>
      <trkpt lat="49.43277" lon="-1.23617">
        <ele>5.384946</ele>
        <time>2022-07-31T13:50:07.000Z</time>
      </trkpt>
      <trkpt lat="49.43282" lon="-1.2361">
        <ele>5.343745</ele>
        <time>2022-07-31T13:50:08.000Z</time>
      </trkpt>
      <trkpt lat="49.43287" lon="-1.23603">
        <ele>5.302821</ele>
        <time>2022-07-31T13:50:09.000Z</time>
      </trkpt>
      <trkpt lat="49.43292" lon="-1.23596">
        <ele>5.261898</ele>
        <time>2022-07-31T13:50:10.000Z</time>
      </trkpt>
      <trkpt lat="49.43297" lon="-1.23589">
        <ele>5.218563</ele>
        <time>2022-07-31T13:50:11.000Z</time>
      </trkpt>
      <trkpt lat="49.43302" lon="-1.23582">
        <ele>5.176517</ele>
        <time>2022-07-31T13:50:12.000Z</time>
      </trkpt>
      <trkpt lat="49.43306" lon="-1.23575">
        <ele>5.136229</ele>
        <time>2022-07-31T13:50:13.000Z</time>
      </trkpt>
      <trkpt lat="49.43311" lon="-1.23568">
        <ele>5.092624</ele>
        <time>2022-07-31T13:50:14.000Z</time>
      </trkpt>
      <trkpt lat="49.43316" lon="-1.2356">
        <ele>5.05141</ele>
        <time>2022-07-31T13:50:15.000Z</time>
      </trkpt>
      <trkpt lat="49.43319" lon="-1.23552">
        <ele>5.010313</ele>
        <time>2022-07-31T13:50:16.000Z</time>
      </trkpt>
      <trkpt lat="49.43323" lon="-1.23543">
        <ele>4.968252</ele>
        <time>2022-07-31T13:50:17.000Z</time>
      </trkpt>
      <trkpt lat="49.43327" lon="-1.23535">
        <ele>4.927571</ele>
        <time>2022-07-31T13:50:18.000Z</time>
      </trkpt>
      <trkpt lat="49.4333" lon="-1.23527">
        <ele>4.887234</ele>
        <time>2022-07-31T13:50:19.000Z</time>
      </trkpt>
      <trkpt lat="49.43334" lon="-1.23518">
        <ele>4.862976</ele>
        <time>2022-07-31T13:50:20.000Z</time>
      </trkpt>
      <trkpt lat="49.43338" lon="-1.2351">
        <ele>4.862294</ele>
        <time>2022-07-31T13:50:21.000Z</time>
      </trkpt>
      <trkpt lat="49.43342" lon="-1.23502">
        <ele>4.861619</ele>
        <time>2022-07-31T13:50:22.000Z</time>
      </trkpt>
      <trkpt lat="49.43345" lon="-1.23494">
        <ele>4.860962</ele>
        <time>2022-07-31T13:50:23.000Z</time>
      </trkpt>
      <trkpt lat="49.43349" lon="-1.23486">
        <ele>4.86031</ele>
        <time>2022-07-31T13:50:24.000Z</time>
      </trkpt>
      <trkpt lat="49.43353" lon="-1.23478">
        <ele>4.859652</ele>
        <time>2022-07-31T13:50:25.000Z</time>
      </trkpt>
      <trkpt lat="49.43356" lon="-1.2347">
        <ele>4.859039</ele>
        <time>2022-07-31T13:50:26.000Z</time>
      </trkpt>
      <trkpt lat="49.43359" lon="-1.23462">
        <ele>4.858392</ele>
        <time>2022-07-31T13:50:27.000Z</time>
      </trkpt>
      <trkpt lat="49.43363" lon="-1.23454">
        <ele>4.857723</ele>
        <time>2022-07-31T13:50:28.000Z</time>
      </trkpt>
      <trkpt lat="49.43366" lon="-1.23445">
        <ele>4.857088</ele>
        <time>2022-07-31T13:50:29.000Z</time>
      </trkpt>
      <trkpt lat="49.4337" lon="-1.23437">
        <ele>4.856464</ele>
        <time>2022-07-31T13:50:30.000Z</time>
      </trkpt>
      <trkpt lat="49.43373" lon="-1.23429">
        <ele>4.8558</ele>
        <time>2022-07-31T13:50:31.000Z</time>
      </trkpt>
      <trkpt lat="49.43377" lon="-1.23421">
        <ele>4.855143</ele>
        <time>2022-07-31T13:50:32.000Z</time>
      </trkpt>
      <trkpt lat="49.43381" lon="-1.23413">
        <ele>4.854491</ele>
        <time>2022-07-31T13:50:33.000Z</time>
      </trkpt>
      <trkpt lat="49.43384" lon="-1.23405">
        <ele>4.853844</ele>
        <time>2022-07-31T13:50:34.000Z</time>
      </trkpt>
      <trkpt lat="49.43388" lon="-1.23397">
        <ele>4.853231</ele>
        <time>2022-07-31T13:50:35.000Z</time>
      </trkpt>
      <trkpt lat="49.43391" lon="-1.23389">
        <ele>4.852596</ele>
        <time>2022-07-31T13:50:36.000Z</time>
      </trkpt>
      <trkpt lat="49.43395" lon="-1.23382">
        <ele>4.851971</ele>
        <time>2022-07-31T13:50:37.000Z</time>
      </trkpt>
      <trkpt lat="49.43398" lon="-1.23374">
        <ele>4.851375</ele>
        <time>2022-07-31T13:50:38.000Z</time>
      </trkpt>
      <trkpt lat="49.43401" lon="-1.23367">
        <ele>4.850762</ele>
        <time>2022-07-31T13:50:39.000Z</time>
      </trkpt>
      <trkpt lat="49.43405" lon="-1.23359">
        <ele>4.85013</ele>
        <time>2022-07-31T13:50:40.000Z</time>
      </trkpt>
      <trkpt lat="49.43409" lon="-1.23352">
        <ele>4.849533</ele>
        <time>2022-07-31T13:50:41.000Z</time>
      </trkpt>
      <trkpt lat="49.43412" lon="-1.23345">
        <ele>4.848924</ele>
        <time>2022-07-31T13:50:42.000Z</time>
      </trkpt>
      <trkpt lat="49.43416" lon="-1.23337">
        <ele>4.848316</ele>
        <time>2022-07-31T13:50:43.000Z</time>
      </trkpt>
      <trkpt lat="49.4342" lon="-1.2333">
        <ele>4.847684</ele>
        <time>2022-07-31T13:50:44.000Z</time>
      </trkpt>
      <trkpt lat="49.43423" lon="-1.23323">
        <ele>4.847092</ele>
        <time>2022-07-31T13:50:45.000Z</time>
      </trkpt>
      <trkpt lat="49.43427" lon="-1.23315">
        <ele>4.846459</ele>
        <time>2022-07-31T13:50:46.000Z</time>
      </trkpt>
      <trkpt lat="49.4343" lon="-1.23308">
        <ele>4.845873</ele>
        <time>2022-07-31T13:50:47.000Z</time>
      </trkpt>
      <trkpt lat="49.43434" lon="-1.23301">
        <ele>4.845252</ele>
        <time>2022-07-31T13:50:48.000Z</time>
      </trkpt>
      <trkpt lat="49.43438" lon="-1.23294">
        <ele>4.849168</ele>
        <time>2022-07-31T13:50:49.000Z</time>
      </trkpt>
      <trkpt lat="49.43441" lon="-1.23287">
        <ele>4.859188</ele>
        <time>2022-07-31T13:50:50.000Z</time>
      </trkpt>
      <trkpt lat="49.43445" lon="-1.2328">
        <ele>4.869789</ele>
        <time>2022-07-31T13:50:51.000Z</time>
      </trkpt>
      <trkpt lat="49.43448" lon="-1.23274">
        <ele>4.878693</ele>
        <time>2022-07-31T13:50:52.000Z</time>
      </trkpt>
      <trkpt lat="49.4345" lon="-1.23271">
        <ele>4.884083</ele>
        <time>2022-07-31T13:50:53.000Z</time>
      </trkpt>
      <trkpt lat="49.43455" lon="-1.23262">
        <ele>4.897483</ele>
        <time>2022-07-31T13:51:26.000Z</time>
      </trkpt>
      <trkpt lat="49.43457" lon="-1.23258">
        <ele>4.903796</ele>
        <time>2022-07-31T13:51:27.000Z</time>
      </trkpt>
      <trkpt lat="49.4346" lon="-1.23254">
        <ele>4.910529</ele>
        <time>2022-07-31T13:51:28.000Z</time>
      </trkpt>
      <trkpt lat="49.43462" lon="-1.23249">
        <ele>4.918378</ele>
        <time>2022-07-31T13:51:29.000Z</time>
      </trkpt>
      <trkpt lat="49.43465" lon="-1.23243">
        <ele>4.926418</ele>
        <time>2022-07-31T13:51:30.000Z</time>
      </trkpt>
      <trkpt lat="49.43468" lon="-1.23237">
        <ele>4.935054</ele>
        <time>2022-07-31T13:51:31.000Z</time>
      </trkpt>
      <trkpt lat="49.4347" lon="-1.23231">
        <ele>4.943579</ele>
        <time>2022-07-31T13:51:32.000Z</time>
      </trkpt>
      <trkpt lat="49.43473" lon="-1.23225">
        <ele>4.952705</ele>
        <time>2022-07-31T13:51:33.000Z</time>
      </trkpt>
      <trkpt lat="49.43477" lon="-1.2322">
        <ele>4.961431</ele>
        <time>2022-07-31T13:51:34.000Z</time>
      </trkpt>
      <trkpt lat="49.4348" lon="-1.23214">
        <ele>4.970334</ele>
        <time>2022-07-31T13:51:35.000Z</time>
      </trkpt>
      <trkpt lat="49.43483" lon="-1.23208">
        <ele>4.978798</ele>
        <time>2022-07-31T13:51:36.000Z</time>
      </trkpt>
      <trkpt lat="49.43486" lon="-1.23202">
        <ele>4.988157</ele>
        <time>2022-07-31T13:51:37.000Z</time>
      </trkpt>
      <trkpt lat="49.43488" lon="-1.23196">
        <ele>4.996783</ele>
        <time>2022-07-31T13:51:38.000Z</time>
      </trkpt>
      <trkpt lat="49.43491" lon="-1.2319">
        <ele>5.005406</ele>
        <time>2022-07-31T13:51:39.000Z</time>
      </trkpt>
      <trkpt lat="49.43494" lon="-1.23183">
        <ele>5.014952</ele>
        <time>2022-07-31T13:51:40.000Z</time>
      </trkpt>
      <trkpt lat="49.43498" lon="-1.23177">
        <ele>5.02493</ele>
        <time>2022-07-31T13:51:41.000Z</time>
      </trkpt>
      <trkpt lat="49.435" lon="-1.23171">
        <ele>5.033752</ele>
        <time>2022-07-31T13:51:42.000Z</time>
      </trkpt>
      <trkpt lat="49.43503" lon="-1.23164">
        <ele>5.04297</ele>
        <time>2022-07-31T13:51:43.000Z</time>
      </trkpt>
      <trkpt lat="49.43506" lon="-1.23158">
        <ele>5.05261</ele>
        <time>2022-07-31T13:51:44.000Z</time>
      </trkpt>
      <trkpt lat="49.4351" lon="-1.23151">
        <ele>5.062526</ele>
        <time>2022-07-31T13:51:45.000Z</time>
      </trkpt>
      <trkpt lat="49.43513" lon="-1.23145">
        <ele>5.072355</ele>
        <time>2022-07-31T13:51:46.000Z</time>
      </trkpt>
      <trkpt lat="49.43517" lon="-1.23138">
        <ele>5.082062</ele>
        <time>2022-07-31T13:51:47.000Z</time>
      </trkpt>
      <trkpt lat="49.4352" lon="-1.23132">
        <ele>5.091859</ele>
        <time>2022-07-31T13:51:48.000Z</time>
      </trkpt>
      <trkpt lat="49.43523" lon="-1.23126">
        <ele>5.101179</ele>
        <time>2022-07-31T13:51:49.000Z</time>
      </trkpt>
      <trkpt lat="49.43526" lon="-1.23119">
        <ele>5.111157</ele>
        <time>2022-07-31T13:51:50.000Z</time>
      </trkpt>
      <trkpt lat="49.4353" lon="-1.23113">
        <ele>5.120954</ele>
        <time>2022-07-31T13:51:51.000Z</time>
      </trkpt>
      <trkpt lat="49.43533" lon="-1.23106">
        <ele>5.130841</ele>
        <time>2022-07-31T13:51:52.000Z</time>
      </trkpt>
      <trkpt lat="49.43537" lon="-1.231">
        <ele>5.140955</ele>
        <time>2022-07-31T13:51:53.000Z</time>
      </trkpt>
      <trkpt lat="49.43541" lon="-1.23094">
        <ele>5.150842</ele>
        <time>2022-07-31T13:51:54.000Z</time>
      </trkpt>
      <trkpt lat="49.43544" lon="-1.23088">
        <ele>5.160639</ele>
        <time>2022-07-31T13:51:55.000Z</time>
      </trkpt>
      <trkpt lat="49.43548" lon="-1.23081">
        <ele>5.170801</ele>
        <time>2022-07-31T13:51:56.000Z</time>
      </trkpt>
      <trkpt lat="49.43551" lon="-1.23074">
        <ele>5.156439</ele>
        <time>2022-07-31T13:51:57.000Z</time>
      </trkpt>
      <trkpt lat="49.43555" lon="-1.23068">
        <ele>5.140074</ele>
        <time>2022-07-31T13:51:58.000Z</time>
      </trkpt>
      <trkpt lat="49.43558" lon="-1.23061">
        <ele>5.122228</ele>
        <time>2022-07-31T13:51:59.000Z</time>
      </trkpt>
      <trkpt lat="49.43562" lon="-1.23054">
        <ele>5.10423</ele>
        <time>2022-07-31T13:52:00.000Z</time>
      </trkpt>
      <trkpt lat="49.43565" lon="-1.23047">
        <ele>5.087053</ele>
        <time>2022-07-31T13:52:01.000Z</time>
      </trkpt>
      <trkpt lat="49.43569" lon="-1.2304">
        <ele>5.068702</ele>
        <time>2022-07-31T13:52:02.000Z</time>
      </trkpt>
      <trkpt lat="49.43573" lon="-1.23034">
        <ele>5.052655</ele>
        <time>2022-07-31T13:52:03.000Z</time>
      </trkpt>
      <trkpt lat="49.43576" lon="-1.23028">
        <ele>5.035714</ele>
        <time>2022-07-31T13:52:04.000Z</time>
      </trkpt>
      <trkpt lat="49.4358" lon="-1.23021">
        <ele>5.018463</ele>
        <time>2022-07-31T13:52:05.000Z</time>
      </trkpt>
      <trkpt lat="49.43583" lon="-1.23014">
        <ele>5.001522</ele>
        <time>2022-07-31T13:52:06.000Z</time>
      </trkpt>
      <trkpt lat="49.43586" lon="-1.23008">
        <ele>4.984673</ele>
        <time>2022-07-31T13:52:07.000Z</time>
      </trkpt>
      <trkpt lat="49.43589" lon="-1.23001">
        <ele>4.967824</ele>
        <time>2022-07-31T13:52:08.000Z</time>
      </trkpt>
      <trkpt lat="49.43593" lon="-1.22994">
        <ele>4.950377</ele>
        <time>2022-07-31T13:52:09.000Z</time>
      </trkpt>
      <trkpt lat="49.43597" lon="-1.22988">
        <ele>4.932832</ele>
        <time>2022-07-31T13:52:10.000Z</time>
      </trkpt>
      <trkpt lat="49.436" lon="-1.22981">
        <ele>4.917338</ele>
        <time>2022-07-31T13:52:11.000Z</time>
      </trkpt>
      <trkpt lat="49.43603" lon="-1.22975">
        <ele>4.900397</ele>
        <time>2022-07-31T13:52:12.000Z</time>
      </trkpt>
      <trkpt lat="49.43606" lon="-1.22968">
        <ele>4.884574</ele>
        <time>2022-07-31T13:52:13.000Z</time>
      </trkpt>
      <trkpt lat="49.43609" lon="-1.22962">
        <ele>4.868208</ele>
        <time>2022-07-31T13:52:14.000Z</time>
      </trkpt>
      <trkpt lat="49.43613" lon="-1.22956">
        <ele>4.851727</ele>
        <time>2022-07-31T13:52:15.000Z</time>
      </trkpt>
      <trkpt lat="49.43616" lon="-1.22949">
        <ele>4.835838</ele>
        <time>2022-07-31T13:52:16.000Z</time>
      </trkpt>
      <trkpt lat="49.43619" lon="-1.22943">
        <ele>4.819791</ele>
        <time>2022-07-31T13:52:17.000Z</time>
      </trkpt>
      <trkpt lat="49.43623" lon="-1.22937">
        <ele>4.803158</ele>
        <time>2022-07-31T13:52:18.000Z</time>
      </trkpt>
      <trkpt lat="49.43626" lon="-1.2293">
        <ele>4.786471</ele>
        <time>2022-07-31T13:52:19.000Z</time>
      </trkpt>
      <trkpt lat="49.43629" lon="-1.22923">
        <ele>4.76922</ele>
        <time>2022-07-31T13:52:20.000Z</time>
      </trkpt>
      <trkpt lat="49.43633" lon="-1.22917">
        <ele>4.753173</ele>
        <time>2022-07-31T13:52:21.000Z</time>
      </trkpt>
      <trkpt lat="49.43636" lon="-1.22911">
        <ele>4.736807</ele>
        <time>2022-07-31T13:52:22.000Z</time>
      </trkpt>
      <trkpt lat="49.43639" lon="-1.22904">
        <ele>4.72012</ele>
        <time>2022-07-31T13:52:23.000Z</time>
      </trkpt>
      <trkpt lat="49.43642" lon="-1.22897">
        <ele>4.704131</ele>
        <time>2022-07-31T13:52:24.000Z</time>
      </trkpt>
      <trkpt lat="49.43645" lon="-1.22891">
        <ele>4.68688</ele>
        <time>2022-07-31T13:52:25.000Z</time>
      </trkpt>
      <trkpt lat="49.43649" lon="-1.22884">
        <ele>4.670514</ele>
        <time>2022-07-31T13:52:26.000Z</time>
      </trkpt>
      <trkpt lat="49.43653" lon="-1.22877">
        <ele>4.652314</ele>
        <time>2022-07-31T13:52:27.000Z</time>
      </trkpt>
      <trkpt lat="49.43655" lon="-1.2287">
        <ele>4.635822</ele>
        <time>2022-07-31T13:52:28.000Z</time>
      </trkpt>
      <trkpt lat="49.43659" lon="-1.22863">
        <ele>4.618097</ele>
        <time>2022-07-31T13:52:29.000Z</time>
      </trkpt>
      <trkpt lat="49.43662" lon="-1.22857">
        <ele>4.633079</ele>
        <time>2022-07-31T13:52:30.000Z</time>
      </trkpt>
      <trkpt lat="49.43665" lon="-1.2285">
        <ele>4.6526</ele>
        <time>2022-07-31T13:52:31.000Z</time>
      </trkpt>
      <trkpt lat="49.43669" lon="-1.22843">
        <ele>4.671157</ele>
        <time>2022-07-31T13:52:32.000Z</time>
      </trkpt>
      <trkpt lat="49.43672" lon="-1.22836">
        <ele>4.690438</ele>
        <time>2022-07-31T13:52:33.000Z</time>
      </trkpt>
      <trkpt lat="49.43675" lon="-1.22829">
        <ele>4.709355</ele>
        <time>2022-07-31T13:52:34.000Z</time>
      </trkpt>
      <trkpt lat="49.43678" lon="-1.22822">
        <ele>4.728528</ele>
        <time>2022-07-31T13:52:35.000Z</time>
      </trkpt>
      <trkpt lat="49.43681" lon="-1.22815">
        <ele>4.746877</ele>
        <time>2022-07-31T13:52:36.000Z</time>
      </trkpt>
      <trkpt lat="49.43685" lon="-1.22808">
        <ele>4.766398</ele>
        <time>2022-07-31T13:52:37.000Z</time>
      </trkpt>
      <trkpt lat="49.43688" lon="-1.22801">
        <ele>4.784562</ele>
        <time>2022-07-31T13:52:38.000Z</time>
      </trkpt>
      <trkpt lat="49.43692" lon="-1.22794">
        <ele>4.804384</ele>
        <time>2022-07-31T13:52:39.000Z</time>
      </trkpt>
      <trkpt lat="49.43695" lon="-1.22787">
        <ele>4.822941</ele>
        <time>2022-07-31T13:52:40.000Z</time>
      </trkpt>
      <trkpt lat="49.43699" lon="-1.22781">
        <ele>4.842821</ele>
        <time>2022-07-31T13:52:41.000Z</time>
      </trkpt>
      <trkpt lat="49.43701" lon="-1.22774">
        <ele>4.860058</ele>
        <time>2022-07-31T13:52:42.000Z</time>
      </trkpt>
      <trkpt lat="49.43705" lon="-1.22768">
        <ele>4.878599</ele>
        <time>2022-07-31T13:52:43.000Z</time>
      </trkpt>
      <trkpt lat="49.43709" lon="-1.22761">
        <ele>4.897087</ele>
        <time>2022-07-31T13:52:44.000Z</time>
      </trkpt>
      <trkpt lat="49.43712" lon="-1.22755">
        <ele>4.915744</ele>
        <time>2022-07-31T13:52:45.000Z</time>
      </trkpt>
      <trkpt lat="49.43716" lon="-1.22748">
        <ele>4.934401</ele>
        <time>2022-07-31T13:52:46.000Z</time>
      </trkpt>
      <trkpt lat="49.43719" lon="-1.22742">
        <ele>4.953631</ele>
        <time>2022-07-31T13:52:47.000Z</time>
      </trkpt>
      <trkpt lat="49.43723" lon="-1.22736">
        <ele>4.972628</ele>
        <time>2022-07-31T13:52:48.000Z</time>
      </trkpt>
      <trkpt lat="49.43727" lon="-1.22729">
        <ele>4.992283</ele>
        <time>2022-07-31T13:52:49.000Z</time>
      </trkpt>
      <trkpt lat="49.43731" lon="-1.22723">
        <ele>5.011159</ele>
        <time>2022-07-31T13:52:50.000Z</time>
      </trkpt>
      <trkpt lat="49.43734" lon="-1.22716">
        <ele>5.030159</ele>
        <time>2022-07-31T13:52:51.000Z</time>
      </trkpt>
      <trkpt lat="49.43738" lon="-1.22709">
        <ele>5.049647</ele>
        <time>2022-07-31T13:52:52.000Z</time>
      </trkpt>
      <trkpt lat="49.43742" lon="-1.22702">
        <ele>5.069859</ele>
        <time>2022-07-31T13:52:53.000Z</time>
      </trkpt>
      <trkpt lat="49.43745" lon="-1.22696">
        <ele>5.088687</ele>
        <time>2022-07-31T13:52:54.000Z</time>
      </trkpt>
      <trkpt lat="49.43749" lon="-1.22689">
        <ele>5.107686</ele>
        <time>2022-07-31T13:52:55.000Z</time>
      </trkpt>
      <trkpt lat="49.43753" lon="-1.22683">
        <ele>5.12701</ele>
        <time>2022-07-31T13:52:56.000Z</time>
      </trkpt>
      <trkpt lat="49.43757" lon="-1.22676">
        <ele>5.14689</ele>
        <time>2022-07-31T13:52:57.000Z</time>
      </trkpt>
      <trkpt lat="49.4376" lon="-1.22669">
        <ele>5.166062</ele>
        <time>2022-07-31T13:52:58.000Z</time>
      </trkpt>
      <trkpt lat="49.43763" lon="-1.22662">
        <ele>5.184619</ele>
        <time>2022-07-31T13:52:59.000Z</time>
      </trkpt>
      <trkpt lat="49.43767" lon="-1.22656">
        <ele>5.203619</ele>
        <time>2022-07-31T13:53:00.000Z</time>
      </trkpt>
      <trkpt lat="49.4377" lon="-1.22649">
        <ele>5.222792</ele>
        <time>2022-07-31T13:53:01.000Z</time>
      </trkpt>
      <trkpt lat="49.43773" lon="-1.22642">
        <ele>5.233675</ele>
        <time>2022-07-31T13:53:02.000Z</time>
      </trkpt>
      <trkpt lat="49.43777" lon="-1.22635">
        <ele>5.241586</ele>
        <time>2022-07-31T13:53:03.000Z</time>
      </trkpt>
      <trkpt lat="49.4378" lon="-1.22628">
        <ele>5.249393</ele>
        <time>2022-07-31T13:53:04.000Z</time>
      </trkpt>
      <trkpt lat="49.43783" lon="-1.22621">
        <ele>5.256888</ele>
        <time>2022-07-31T13:53:05.000Z</time>
      </trkpt>
      <trkpt lat="49.43786" lon="-1.22614">
        <ele>5.264769</ele>
        <time>2022-07-31T13:53:06.000Z</time>
      </trkpt>
      <trkpt lat="49.43789" lon="-1.22606">
        <ele>5.272523</ele>
        <time>2022-07-31T13:53:07.000Z</time>
      </trkpt>
      <trkpt lat="49.43791" lon="-1.22599">
        <ele>5.279969</ele>
        <time>2022-07-31T13:53:08.000Z</time>
      </trkpt>
      <trkpt lat="49.43794" lon="-1.22592">
        <ele>5.28793</ele>
        <time>2022-07-31T13:53:09.000Z</time>
      </trkpt>
      <trkpt lat="49.43797" lon="-1.22584">
        <ele>5.295683</ele>
        <time>2022-07-31T13:53:10.000Z</time>
      </trkpt>
      <trkpt lat="49.43799" lon="-1.22577">
        <ele>5.303644</ele>
        <time>2022-07-31T13:53:11.000Z</time>
      </trkpt>
      <trkpt lat="49.43802" lon="-1.22569">
        <ele>5.311171</ele>
        <time>2022-07-31T13:53:12.000Z</time>
      </trkpt>
      <trkpt lat="49.43805" lon="-1.22562">
        <ele>5.318844</ele>
        <time>2022-07-31T13:53:13.000Z</time>
      </trkpt>
      <trkpt lat="49.43807" lon="-1.22555">
        <ele>5.326493</ele>
        <time>2022-07-31T13:53:14.000Z</time>
      </trkpt>
      <trkpt lat="49.4381" lon="-1.22547">
        <ele>5.334101</ele>
        <time>2022-07-31T13:53:15.000Z</time>
      </trkpt>
      <trkpt lat="49.43813" lon="-1.2254">
        <ele>5.341455</ele>
        <time>2022-07-31T13:53:16.000Z</time>
      </trkpt>
      <trkpt lat="49.43815" lon="-1.22533">
        <ele>5.34926</ele>
        <time>2022-07-31T13:53:17.000Z</time>
      </trkpt>
      <trkpt lat="49.43818" lon="-1.22526">
        <ele>5.356992</ele>
        <time>2022-07-31T13:53:18.000Z</time>
      </trkpt>
      <trkpt lat="49.43821" lon="-1.22518">
        <ele>5.364745</ele>
        <time>2022-07-31T13:53:19.000Z</time>
      </trkpt>
      <trkpt lat="49.43824" lon="-1.22511">
        <ele>5.372929</ele>
        <time>2022-07-31T13:53:20.000Z</time>
      </trkpt>
      <trkpt lat="49.43827" lon="-1.22503">
        <ele>5.380602</ele>
        <time>2022-07-31T13:53:21.000Z</time>
      </trkpt>
      <trkpt lat="49.43829" lon="-1.22496">
        <ele>5.388334</ele>
        <time>2022-07-31T13:53:22.000Z</time>
      </trkpt>
      <trkpt lat="49.43832" lon="-1.22489">
        <ele>5.396295</ele>
        <time>2022-07-31T13:53:23.000Z</time>
      </trkpt>
      <trkpt lat="49.43836" lon="-1.22481">
        <ele>5.404251</ele>
        <time>2022-07-31T13:53:24.000Z</time>
      </trkpt>
      <trkpt lat="49.43838" lon="-1.22474">
        <ele>5.411823</ele>
        <time>2022-07-31T13:53:25.000Z</time>
      </trkpt>
      <trkpt lat="49.43842" lon="-1.22467">
        <ele>5.419951</ele>
        <time>2022-07-31T13:53:26.000Z</time>
      </trkpt>
      <trkpt lat="49.43845" lon="-1.2246">
        <ele>5.428058</ele>
        <time>2022-07-31T13:53:27.000Z</time>
      </trkpt>
      <trkpt lat="49.43848" lon="-1.22453">
        <ele>5.43609</ele>
        <time>2022-07-31T13:53:28.000Z</time>
      </trkpt>
      <trkpt lat="49.43852" lon="-1.22445">
        <ele>5.444639</ele>
        <time>2022-07-31T13:53:29.000Z</time>
      </trkpt>
      <trkpt lat="49.43856" lon="-1.22438">
        <ele>5.452913</ele>
        <time>2022-07-31T13:53:30.000Z</time>
      </trkpt>
      <trkpt lat="49.43859" lon="-1.22431">
        <ele>5.460874</ele>
        <time>2022-07-31T13:53:31.000Z</time>
      </trkpt>
      <trkpt lat="49.43862" lon="-1.22423">
        <ele>5.469444</ele>
        <time>2022-07-31T13:53:32.000Z</time>
      </trkpt>
      <trkpt lat="49.43865" lon="-1.22416">
        <ele>5.477476</ele>
        <time>2022-07-31T13:53:33.000Z</time>
      </trkpt>
      <trkpt lat="49.43869" lon="-1.22408">
        <ele>5.480638</ele>
        <time>2022-07-31T13:53:34.000Z</time>
      </trkpt>
      <trkpt lat="49.43872" lon="-1.22401">
        <ele>5.480848</ele>
        <time>2022-07-31T13:53:35.000Z</time>
      </trkpt>
      <trkpt lat="49.43875" lon="-1.22394">
        <ele>5.481073</ele>
        <time>2022-07-31T13:53:36.000Z</time>
      </trkpt>
      <trkpt lat="49.43878" lon="-1.22387">
        <ele>5.481275</ele>
        <time>2022-07-31T13:53:37.000Z</time>
      </trkpt>
      <trkpt lat="49.43881" lon="-1.2238">
        <ele>5.481475</ele>
        <time>2022-07-31T13:53:38.000Z</time>
      </trkpt>
      <trkpt lat="49.43884" lon="-1.22373">
        <ele>5.481683</ele>
        <time>2022-07-31T13:53:39.000Z</time>
      </trkpt>
      <trkpt lat="49.43887" lon="-1.22366">
        <ele>5.481893</ele>
        <time>2022-07-31T13:53:40.000Z</time>
      </trkpt>
      <trkpt lat="49.4389" lon="-1.22358">
        <ele>5.482101</ele>
        <time>2022-07-31T13:53:41.000Z</time>
      </trkpt>
      <trkpt lat="49.43893" lon="-1.22351">
        <ele>5.482311</ele>
        <time>2022-07-31T13:53:42.000Z</time>
      </trkpt>
      <trkpt lat="49.43897" lon="-1.22344">
        <ele>5.482524</ele>
        <time>2022-07-31T13:53:43.000Z</time>
      </trkpt>
      <trkpt lat="49.439" lon="-1.22337">
        <ele>5.482742</ele>
        <time>2022-07-31T13:53:44.000Z</time>
      </trkpt>
      <trkpt lat="49.43903" lon="-1.22329">
        <ele>5.482969</ele>
        <time>2022-07-31T13:53:45.000Z</time>
      </trkpt>
      <trkpt lat="49.43907" lon="-1.22321">
        <ele>5.483191</ele>
        <time>2022-07-31T13:53:46.000Z</time>
      </trkpt>
      <trkpt lat="49.4391" lon="-1.22314">
        <ele>5.483411</ele>
        <time>2022-07-31T13:53:47.000Z</time>
      </trkpt>
      <trkpt lat="49.43913" lon="-1.22306">
        <ele>5.483634</ele>
        <time>2022-07-31T13:53:48.000Z</time>
      </trkpt>
      <trkpt lat="49.43917" lon="-1.22299">
        <ele>5.483851</ele>
        <time>2022-07-31T13:53:49.000Z</time>
      </trkpt>
      <trkpt lat="49.43921" lon="-1.22292">
        <ele>5.484082</ele>
        <time>2022-07-31T13:53:50.000Z</time>
      </trkpt>
      <trkpt lat="49.43924" lon="-1.22285">
        <ele>5.484294</ele>
        <time>2022-07-31T13:53:51.000Z</time>
      </trkpt>
      <trkpt lat="49.43928" lon="-1.22278">
        <ele>5.484519</ele>
        <time>2022-07-31T13:53:52.000Z</time>
      </trkpt>
      <trkpt lat="49.43932" lon="-1.22271">
        <ele>5.484748</ele>
        <time>2022-07-31T13:53:53.000Z</time>
      </trkpt>
      <trkpt lat="49.43936" lon="-1.22264">
        <ele>5.484976</ele>
        <time>2022-07-31T13:53:54.000Z</time>
      </trkpt>
      <trkpt lat="49.43941" lon="-1.22257">
        <ele>5.48521</ele>
        <time>2022-07-31T13:53:55.000Z</time>
      </trkpt>
      <trkpt lat="49.43945" lon="-1.22251">
        <ele>5.485431</ele>
        <time>2022-07-31T13:53:56.000Z</time>
      </trkpt>
      <trkpt lat="49.43949" lon="-1.22244">
        <ele>5.48565</ele>
        <time>2022-07-31T13:53:57.000Z</time>
      </trkpt>
      <trkpt lat="49.43953" lon="-1.22238">
        <ele>5.485868</ele>
        <time>2022-07-31T13:53:58.000Z</time>
      </trkpt>
      <trkpt lat="49.43957" lon="-1.22232">
        <ele>5.486083</ele>
        <time>2022-07-31T13:53:59.000Z</time>
      </trkpt>
      <trkpt lat="49.43961" lon="-1.22225">
        <ele>5.486299</ele>
        <time>2022-07-31T13:54:00.000Z</time>
      </trkpt>
      <trkpt lat="49.43965" lon="-1.22219">
        <ele>5.486504</ele>
        <time>2022-07-31T13:54:01.000Z</time>
      </trkpt>
      <trkpt lat="49.43969" lon="-1.22212">
        <ele>5.486726</ele>
        <time>2022-07-31T13:54:02.000Z</time>
      </trkpt>
      <trkpt lat="49.43973" lon="-1.22206">
        <ele>5.486945</ele>
        <time>2022-07-31T13:54:03.000Z</time>
      </trkpt>
      <trkpt lat="49.43976" lon="-1.22198">
        <ele>5.48717</ele>
        <time>2022-07-31T13:54:04.000Z</time>
      </trkpt>
      <trkpt lat="49.4398" lon="-1.22191">
        <ele>5.489097</ele>
        <time>2022-07-31T13:54:05.000Z</time>
      </trkpt>
      <trkpt lat="49.43984" lon="-1.22184">
        <ele>5.491723</ele>
        <time>2022-07-31T13:54:06.000Z</time>
      </trkpt>
      <trkpt lat="49.43988" lon="-1.22177">
        <ele>5.494338</ele>
        <time>2022-07-31T13:54:07.000Z</time>
      </trkpt>
      <trkpt lat="49.43991" lon="-1.22169">
        <ele>5.496907</ele>
        <time>2022-07-31T13:54:08.000Z</time>
      </trkpt>
      <trkpt lat="49.43995" lon="-1.22162">
        <ele>5.499548</ele>
        <time>2022-07-31T13:54:09.000Z</time>
      </trkpt>
      <trkpt lat="49.43998" lon="-1.22155">
        <ele>5.502175</ele>
        <time>2022-07-31T13:54:10.000Z</time>
      </trkpt>
      <trkpt lat="49.44002" lon="-1.22147">
        <ele>5.504744</ele>
        <time>2022-07-31T13:54:11.000Z</time>
      </trkpt>
      <trkpt lat="49.44005" lon="-1.2214">
        <ele>5.507285</ele>
        <time>2022-07-31T13:54:12.000Z</time>
      </trkpt>
      <trkpt lat="49.44009" lon="-1.22132">
        <ele>5.5099</ele>
        <time>2022-07-31T13:54:13.000Z</time>
      </trkpt>
      <trkpt lat="49.44012" lon="-1.22125">
        <ele>5.51244</ele>
        <time>2022-07-31T13:54:14.000Z</time>
      </trkpt>
      <trkpt lat="49.44015" lon="-1.22117">
        <ele>5.515029</ele>
        <time>2022-07-31T13:54:15.000Z</time>
      </trkpt>
      <trkpt lat="49.44018" lon="-1.2211">
        <ele>5.51757</ele>
        <time>2022-07-31T13:54:16.000Z</time>
      </trkpt>
      <trkpt lat="49.44022" lon="-1.22102">
        <ele>5.520256</ele>
        <time>2022-07-31T13:54:17.000Z</time>
      </trkpt>
      <trkpt lat="49.44025" lon="-1.22094">
        <ele>5.522731</ele>
        <time>2022-07-31T13:54:18.000Z</time>
      </trkpt>
      <trkpt lat="49.44029" lon="-1.22087">
        <ele>5.525429</ele>
        <time>2022-07-31T13:54:19.000Z</time>
      </trkpt>
      <trkpt lat="49.44032" lon="-1.2208">
        <ele>5.527998</ele>
        <time>2022-07-31T13:54:20.000Z</time>
      </trkpt>
      <trkpt lat="49.44035" lon="-1.22072">
        <ele>5.530468</ele>
        <time>2022-07-31T13:54:21.000Z</time>
      </trkpt>
      <trkpt lat="49.44039" lon="-1.22065">
        <ele>5.533037</ele>
        <time>2022-07-31T13:54:22.000Z</time>
      </trkpt>
      <trkpt lat="49.44042" lon="-1.22058">
        <ele>5.535578</ele>
        <time>2022-07-31T13:54:23.000Z</time>
      </trkpt>
      <trkpt lat="49.44046" lon="-1.2205">
        <ele>5.538254</ele>
        <time>2022-07-31T13:54:24.000Z</time>
      </trkpt>
      <trkpt lat="49.44049" lon="-1.22043">
        <ele>5.54068</ele>
        <time>2022-07-31T13:54:25.000Z</time>
      </trkpt>
      <trkpt lat="49.44052" lon="-1.22036">
        <ele>5.54323</ele>
        <time>2022-07-31T13:54:26.000Z</time>
      </trkpt>
      <trkpt lat="49.44055" lon="-1.22028">
        <ele>5.545655</ele>
        <time>2022-07-31T13:54:27.000Z</time>
      </trkpt>
      <trkpt lat="49.44058" lon="-1.22021">
        <ele>5.548102</ele>
        <time>2022-07-31T13:54:28.000Z</time>
      </trkpt>
      <trkpt lat="49.44062" lon="-1.22014">
        <ele>5.550675</ele>
        <time>2022-07-31T13:54:29.000Z</time>
      </trkpt>
      <trkpt lat="49.44064" lon="-1.22007">
        <ele>5.552987</ele>
        <time>2022-07-31T13:54:30.000Z</time>
      </trkpt>
      <trkpt lat="49.44068" lon="-1.22">
        <ele>5.55551</ele>
        <time>2022-07-31T13:54:31.000Z</time>
      </trkpt>
      <trkpt lat="49.44071" lon="-1.21993">
        <ele>5.557909</ele>
        <time>2022-07-31T13:54:32.000Z</time>
      </trkpt>
      <trkpt lat="49.44074" lon="-1.21985">
        <ele>5.560456</ele>
        <time>2022-07-31T13:54:33.000Z</time>
      </trkpt>
      <trkpt lat="49.44078" lon="-1.21978">
        <ele>5.563051</ele>
        <time>2022-07-31T13:54:34.000Z</time>
      </trkpt>
      <trkpt lat="49.44081" lon="-1.21971">
        <ele>5.565545</ele>
        <time>2022-07-31T13:54:35.000Z</time>
      </trkpt>
      <trkpt lat="49.44084" lon="-1.21963">
        <ele>5.579699</ele>
        <time>2022-07-31T13:54:36.000Z</time>
      </trkpt>
      <trkpt lat="49.44088" lon="-1.21956">
        <ele>5.594359</ele>
        <time>2022-07-31T13:54:37.000Z</time>
      </trkpt>
      <trkpt lat="49.44091" lon="-1.21949">
        <ele>5.608589</ele>
        <time>2022-07-31T13:54:38.000Z</time>
      </trkpt>
      <trkpt lat="49.44094" lon="-1.21941">
        <ele>5.623378</ele>
        <time>2022-07-31T13:54:39.000Z</time>
      </trkpt>
      <trkpt lat="49.44098" lon="-1.21934">
        <ele>5.637608</ele>
        <time>2022-07-31T13:54:40.000Z</time>
      </trkpt>
      <trkpt lat="49.44101" lon="-1.21927">
        <ele>5.652722</ele>
        <time>2022-07-31T13:54:41.000Z</time>
      </trkpt>
      <trkpt lat="49.44105" lon="-1.2192">
        <ele>5.666818</ele>
        <time>2022-07-31T13:54:42.000Z</time>
      </trkpt>
      <trkpt lat="49.44109" lon="-1.21912">
        <ele>5.681964</ele>
        <time>2022-07-31T13:54:43.000Z</time>
      </trkpt>
      <trkpt lat="49.44112" lon="-1.21905">
        <ele>5.696827</ele>
        <time>2022-07-31T13:54:44.000Z</time>
      </trkpt>
      <trkpt lat="49.44116" lon="-1.21898">
        <ele>5.711973</ele>
        <time>2022-07-31T13:54:45.000Z</time>
      </trkpt>
      <trkpt lat="49.4412" lon="-1.21891">
        <ele>5.726245</ele>
        <time>2022-07-31T13:54:46.000Z</time>
      </trkpt>
      <trkpt lat="49.44123" lon="-1.21884">
        <ele>5.740263</ele>
        <time>2022-07-31T13:54:47.000Z</time>
      </trkpt>
      <trkpt lat="49.44126" lon="-1.21877">
        <ele>5.753961</ele>
        <time>2022-07-31T13:54:48.000Z</time>
      </trkpt>
      <trkpt lat="49.4413" lon="-1.2187">
        <ele>5.7687</ele>
        <time>2022-07-31T13:54:49.000Z</time>
      </trkpt>
      <trkpt lat="49.44134" lon="-1.21864">
        <ele>5.783355</ele>
        <time>2022-07-31T13:54:50.000Z</time>
      </trkpt>
      <trkpt lat="49.44138" lon="-1.21857">
        <ele>5.797627</ele>
        <time>2022-07-31T13:54:51.000Z</time>
      </trkpt>
      <trkpt lat="49.44141" lon="-1.21849">
        <ele>5.812286</ele>
        <time>2022-07-31T13:54:52.000Z</time>
      </trkpt>
      <trkpt lat="49.44144" lon="-1.21842">
        <ele>5.826382</ele>
        <time>2022-07-31T13:54:53.000Z</time>
      </trkpt>
      <trkpt lat="49.44148" lon="-1.21835">
        <ele>5.840654</ele>
        <time>2022-07-31T13:54:54.000Z</time>
      </trkpt>
      <trkpt lat="49.44151" lon="-1.21828">
        <ele>5.855079</ele>
        <time>2022-07-31T13:54:55.000Z</time>
      </trkpt>
      <trkpt lat="49.44155" lon="-1.21821">
        <ele>5.869097</ele>
        <time>2022-07-31T13:54:56.000Z</time>
      </trkpt>
      <trkpt lat="49.44158" lon="-1.21814">
        <ele>5.883626</ele>
        <time>2022-07-31T13:54:57.000Z</time>
      </trkpt>
      <trkpt lat="49.44162" lon="-1.21807">
        <ele>5.898156</ele>
        <time>2022-07-31T13:54:58.000Z</time>
      </trkpt>
      <trkpt lat="49.44165" lon="-1.218">
        <ele>5.912119</ele>
        <time>2022-07-31T13:54:59.000Z</time>
      </trkpt>
      <trkpt lat="49.44169" lon="-1.21792">
        <ele>5.927514</ele>
        <time>2022-07-31T13:55:00.000Z</time>
      </trkpt>
      <trkpt lat="49.44173" lon="-1.21786">
        <ele>5.942006</ele>
        <time>2022-07-31T13:55:01.000Z</time>
      </trkpt>
      <trkpt lat="49.44177" lon="-1.21779">
        <ele>5.956134</ele>
        <time>2022-07-31T13:55:02.000Z</time>
      </trkpt>
      <trkpt lat="49.4418" lon="-1.21772">
        <ele>5.970559</ele>
        <time>2022-07-31T13:55:03.000Z</time>
      </trkpt>
      <trkpt lat="49.44184" lon="-1.21765">
        <ele>5.985088</ele>
        <time>2022-07-31T13:55:04.000Z</time>
      </trkpt>
      <trkpt lat="49.44188" lon="-1.21758">
        <ele>6.000202</ele>
        <time>2022-07-31T13:55:05.000Z</time>
      </trkpt>
      <trkpt lat="49.44191" lon="-1.2175">
        <ele>6.009631</ele>
        <time>2022-07-31T13:55:06.000Z</time>
      </trkpt>
      <trkpt lat="49.44195" lon="-1.21743">
        <ele>5.992659</ele>
        <time>2022-07-31T13:55:07.000Z</time>
      </trkpt>
      <trkpt lat="49.44199" lon="-1.21736">
        <ele>5.975829</ele>
        <time>2022-07-31T13:55:08.000Z</time>
      </trkpt>
      <trkpt lat="49.44203" lon="-1.21729">
        <ele>5.958816</ele>
        <time>2022-07-31T13:55:09.000Z</time>
      </trkpt>
      <trkpt lat="49.44206" lon="-1.21722">
        <ele>5.94272</ele>
        <time>2022-07-31T13:55:10.000Z</time>
      </trkpt>
      <trkpt lat="49.4421" lon="-1.21715">
        <ele>5.92589</ele>
        <time>2022-07-31T13:55:11.000Z</time>
      </trkpt>
      <trkpt lat="49.44214" lon="-1.21708">
        <ele>5.908595</ele>
        <time>2022-07-31T13:55:12.000Z</time>
      </trkpt>
      <trkpt lat="49.44218" lon="-1.21701">
        <ele>5.891623</ele>
        <time>2022-07-31T13:55:13.000Z</time>
      </trkpt>
      <trkpt lat="49.44221" lon="-1.21693">
        <ele>5.87422</ele>
        <time>2022-07-31T13:55:14.000Z</time>
      </trkpt>
      <trkpt lat="49.44225" lon="-1.21686">
        <ele>5.857066</ele>
        <time>2022-07-31T13:55:15.000Z</time>
      </trkpt>
      <trkpt lat="49.44229" lon="-1.21679">
        <ele>5.840177</ele>
        <time>2022-07-31T13:55:16.000Z</time>
      </trkpt>
      <trkpt lat="49.44233" lon="-1.21672">
        <ele>5.823205</ele>
        <time>2022-07-31T13:55:17.000Z</time>
      </trkpt>
      <trkpt lat="49.44236" lon="-1.21664">
        <ele>5.806649</ele>
        <time>2022-07-31T13:55:18.000Z</time>
      </trkpt>
      <trkpt lat="49.4424" lon="-1.21657">
        <ele>5.788925</ele>
        <time>2022-07-31T13:55:19.000Z</time>
      </trkpt>
      <trkpt lat="49.44244" lon="-1.21649">
        <ele>5.771522</ele>
        <time>2022-07-31T13:55:20.000Z</time>
      </trkpt>
      <trkpt lat="49.44247" lon="-1.21642">
        <ele>5.754783</ele>
        <time>2022-07-31T13:55:21.000Z</time>
      </trkpt>
      <trkpt lat="49.44251" lon="-1.21635">
        <ele>5.737578</ele>
        <time>2022-07-31T13:55:22.000Z</time>
      </trkpt>
      <trkpt lat="49.44254" lon="-1.21627">
        <ele>5.720838</ele>
        <time>2022-07-31T13:55:23.000Z</time>
      </trkpt>
      <trkpt lat="49.44257" lon="-1.2162">
        <ele>5.705046</ele>
        <time>2022-07-31T13:55:24.000Z</time>
      </trkpt>
      <trkpt lat="49.44261" lon="-1.21613">
        <ele>5.688216</ele>
        <time>2022-07-31T13:55:25.000Z</time>
      </trkpt>
      <trkpt lat="49.44265" lon="-1.21606">
        <ele>5.671625</ele>
        <time>2022-07-31T13:55:26.000Z</time>
      </trkpt>
      <trkpt lat="49.44268" lon="-1.21598">
        <ele>5.654121</ele>
        <time>2022-07-31T13:55:27.000Z</time>
      </trkpt>
      <trkpt lat="49.44272" lon="-1.21591">
        <ele>5.636863</ele>
        <time>2022-07-31T13:55:28.000Z</time>
      </trkpt>
      <trkpt lat="49.44275" lon="-1.21584">
        <ele>5.620307</ele>
        <time>2022-07-31T13:55:29.000Z</time>
      </trkpt>
      <trkpt lat="49.44279" lon="-1.21576">
        <ele>5.602759</ele>
        <time>2022-07-31T13:55:30.000Z</time>
      </trkpt>
      <trkpt lat="49.44283" lon="-1.21569">
        <ele>5.585996</ele>
        <time>2022-07-31T13:55:31.000Z</time>
      </trkpt>
      <trkpt lat="49.44286" lon="-1.21562">
        <ele>5.569552</ele>
        <time>2022-07-31T13:55:32.000Z</time>
      </trkpt>
      <trkpt lat="49.44289" lon="-1.21555">
        <ele>5.553456</ele>
        <time>2022-07-31T13:55:33.000Z</time>
      </trkpt>
      <trkpt lat="49.44293" lon="-1.21547">
        <ele>5.536865</ele>
        <time>2022-07-31T13:55:34.000Z</time>
      </trkpt>
      <trkpt lat="49.44297" lon="-1.2154">
        <ele>5.519317</ele>
        <time>2022-07-31T13:55:35.000Z</time>
      </trkpt>
      <trkpt lat="49.443" lon="-1.21532">
        <ele>5.502761</ele>
        <time>2022-07-31T13:55:36.000Z</time>
      </trkpt>
      <trkpt lat="49.44303" lon="-1.21525">
        <ele>5.549632</ele>
        <time>2022-07-31T13:55:37.000Z</time>
      </trkpt>
      <trkpt lat="49.44307" lon="-1.21518">
        <ele>5.601004</ele>
        <time>2022-07-31T13:55:38.000Z</time>
      </trkpt>
      <trkpt lat="49.4431" lon="-1.2151">
        <ele>5.652311</ele>
        <time>2022-07-31T13:55:39.000Z</time>
      </trkpt>
      <trkpt lat="49.44314" lon="-1.21503">
        <ele>5.70344</ele>
        <time>2022-07-31T13:55:40.000Z</time>
      </trkpt>
      <trkpt lat="49.44317" lon="-1.21496">
        <ele>5.751418</ele>
        <time>2022-07-31T13:55:41.000Z</time>
      </trkpt>
      <trkpt lat="49.44321" lon="-1.21489">
        <ele>5.80093</ele>
        <time>2022-07-31T13:55:42.000Z</time>
      </trkpt>
      <trkpt lat="49.44324" lon="-1.21482">
        <ele>5.848908</ele>
        <time>2022-07-31T13:55:43.000Z</time>
      </trkpt>
      <trkpt lat="49.44327" lon="-1.21475">
        <ele>5.897345</ele>
        <time>2022-07-31T13:55:44.000Z</time>
      </trkpt>
      <trkpt lat="49.44331" lon="-1.21468">
        <ele>5.948271</ele>
        <time>2022-07-31T13:55:45.000Z</time>
      </trkpt>
      <trkpt lat="49.44334" lon="-1.21461">
        <ele>5.996249</ele>
        <time>2022-07-31T13:55:46.000Z</time>
      </trkpt>
      <trkpt lat="49.44337" lon="-1.21454">
        <ele>6.043314</ele>
        <time>2022-07-31T13:55:47.000Z</time>
      </trkpt>
      <trkpt lat="49.44341" lon="-1.21447">
        <ele>6.092382</ele>
        <time>2022-07-31T13:55:48.000Z</time>
      </trkpt>
      <trkpt lat="49.44344" lon="-1.2144">
        <ele>6.142338</ele>
        <time>2022-07-31T13:55:49.000Z</time>
      </trkpt>
      <trkpt lat="49.44347" lon="-1.21433">
        <ele>6.188876</ele>
        <time>2022-07-31T13:55:50.000Z</time>
      </trkpt>
      <trkpt lat="49.4435" lon="-1.21427">
        <ele>6.237065</ele>
        <time>2022-07-31T13:55:51.000Z</time>
      </trkpt>
      <trkpt lat="49.44354" lon="-1.2142">
        <ele>6.286576</ele>
        <time>2022-07-31T13:55:52.000Z</time>
      </trkpt>
      <trkpt lat="49.44357" lon="-1.21413">
        <ele>6.334764</ele>
        <time>2022-07-31T13:55:53.000Z</time>
      </trkpt>
      <trkpt lat="49.44361" lon="-1.21406">
        <ele>6.383066</ele>
        <time>2022-07-31T13:55:54.000Z</time>
      </trkpt>
      <trkpt lat="49.44365" lon="-1.214">
        <ele>6.431255</ele>
        <time>2022-07-31T13:55:55.000Z</time>
      </trkpt>
      <trkpt lat="49.44368" lon="-1.21393">
        <ele>6.481104</ele>
        <time>2022-07-31T13:55:56.000Z</time>
      </trkpt>
      <trkpt lat="49.44372" lon="-1.21386">
        <ele>6.529731</ele>
        <time>2022-07-31T13:55:57.000Z</time>
      </trkpt>
      <trkpt lat="49.44375" lon="-1.21379">
        <ele>6.578897</ele>
        <time>2022-07-31T13:55:58.000Z</time>
      </trkpt>
      <trkpt lat="49.44379" lon="-1.21373">
        <ele>6.625509</ele>
        <time>2022-07-31T13:55:59.000Z</time>
      </trkpt>
      <trkpt lat="49.44382" lon="-1.21366">
        <ele>6.672121</ele>
        <time>2022-07-31T13:56:00.000Z</time>
      </trkpt>
      <trkpt lat="49.44385" lon="-1.21359">
        <ele>6.720747</ele>
        <time>2022-07-31T13:56:01.000Z</time>
      </trkpt>
      <trkpt lat="49.44389" lon="-1.21352">
        <ele>6.767812</ele>
        <time>2022-07-31T13:56:02.000Z</time>
      </trkpt>
      <trkpt lat="49.44392" lon="-1.21346">
        <ele>6.813525</ele>
        <time>2022-07-31T13:56:03.000Z</time>
      </trkpt>
      <trkpt lat="49.44395" lon="-1.21339">
        <ele>6.857724</ele>
        <time>2022-07-31T13:56:04.000Z</time>
      </trkpt>
      <trkpt lat="49.44398" lon="-1.21333">
        <ele>6.902919</ele>
        <time>2022-07-31T13:56:05.000Z</time>
      </trkpt>
      <trkpt lat="49.44401" lon="-1.21327">
        <ele>6.94643</ele>
        <time>2022-07-31T13:56:06.000Z</time>
      </trkpt>
      <trkpt lat="49.44404" lon="-1.21321">
        <ele>6.985915</ele>
        <time>2022-07-31T13:56:07.000Z</time>
      </trkpt>
      <trkpt lat="49.44405" lon="-1.21316">
        <ele>7.02124</ele>
        <time>2022-07-31T13:56:08.000Z</time>
      </trkpt>
      <trkpt lat="49.44406" lon="-1.21309">
        <ele>7.053752</ele>
        <time>2022-07-31T13:56:09.000Z</time>
      </trkpt>
      <trkpt lat="49.44407" lon="-1.21303">
        <ele>7.0591</ele>
        <time>2022-07-31T13:56:10.000Z</time>
      </trkpt>
      <trkpt lat="49.44406" lon="-1.21297">
        <ele>7.064435</ele>
        <time>2022-07-31T13:56:11.000Z</time>
      </trkpt>
      <trkpt lat="49.44405" lon="-1.21291">
        <ele>7.069882</ele>
        <time>2022-07-31T13:56:12.000Z</time>
      </trkpt>
      <trkpt lat="49.44402" lon="-1.21285">
        <ele>7.075374</ele>
        <time>2022-07-31T13:56:13.000Z</time>
      </trkpt>
      <trkpt lat="49.444" lon="-1.21281">
        <ele>7.080306</ele>
        <time>2022-07-31T13:56:14.000Z</time>
      </trkpt>
      <trkpt lat="49.44397" lon="-1.21276">
        <ele>7.086092</ele>
        <time>2022-07-31T13:56:15.000Z</time>
      </trkpt>
      <trkpt lat="49.44393" lon="-1.21272">
        <ele>7.091419</ele>
        <time>2022-07-31T13:56:16.000Z</time>
      </trkpt>
      <trkpt lat="49.4439" lon="-1.21269">
        <ele>7.096811</ele>
        <time>2022-07-31T13:56:17.000Z</time>
      </trkpt>
      <trkpt lat="49.44386" lon="-1.21265">
        <ele>7.102602</ele>
        <time>2022-07-31T13:56:18.000Z</time>
      </trkpt>
      <trkpt lat="49.44382" lon="-1.21263">
        <ele>7.108045</ele>
        <time>2022-07-31T13:56:19.000Z</time>
      </trkpt>
      <trkpt lat="49.44378" lon="-1.2126">
        <ele>7.113776</ele>
        <time>2022-07-31T13:56:20.000Z</time>
      </trkpt>
      <trkpt lat="49.44374" lon="-1.21259">
        <ele>7.119284</ele>
        <time>2022-07-31T13:56:21.000Z</time>
      </trkpt>
      <trkpt lat="49.4437" lon="-1.21257">
        <ele>7.124894</ele>
        <time>2022-07-31T13:56:22.000Z</time>
      </trkpt>
      <trkpt lat="49.44365" lon="-1.21255">
        <ele>7.130463</ele>
        <time>2022-07-31T13:56:23.000Z</time>
      </trkpt>
      <trkpt lat="49.44361" lon="-1.21254">
        <ele>7.13679</ele>
        <time>2022-07-31T13:56:24.000Z</time>
      </trkpt>
      <trkpt lat="49.44356" lon="-1.21253">
        <ele>7.142548</ele>
        <time>2022-07-31T13:56:25.000Z</time>
      </trkpt>
      <trkpt lat="49.44352" lon="-1.21252">
        <ele>7.148421</ele>
        <time>2022-07-31T13:56:26.000Z</time>
      </trkpt>
      <trkpt lat="49.44347" lon="-1.21251">
        <ele>7.154667</ele>
        <time>2022-07-31T13:56:27.000Z</time>
      </trkpt>
      <trkpt lat="49.44343" lon="-1.2125">
        <ele>7.160116</ele>
        <time>2022-07-31T13:56:28.000Z</time>
      </trkpt>
      <trkpt lat="49.44338" lon="-1.2125">
        <ele>7.165938</ele>
        <time>2022-07-31T13:56:29.000Z</time>
      </trkpt>
      <trkpt lat="49.44334" lon="-1.21249">
        <ele>7.171637</ele>
        <time>2022-07-31T13:56:30.000Z</time>
      </trkpt>
      <trkpt lat="49.4433" lon="-1.21249">
        <ele>7.177086</ele>
        <time>2022-07-31T13:56:31.000Z</time>
      </trkpt>
      <trkpt lat="49.44325" lon="-1.21248">
        <ele>7.183682</ele>
        <time>2022-07-31T13:56:32.000Z</time>
      </trkpt>
      <trkpt lat="49.4432" lon="-1.21248">
        <ele>7.189108</ele>
        <time>2022-07-31T13:56:33.000Z</time>
      </trkpt>
      <trkpt lat="49.44315" lon="-1.21248">
        <ele>7.195696</ele>
        <time>2022-07-31T13:56:34.000Z</time>
      </trkpt>
      <trkpt lat="49.44311" lon="-1.21248">
        <ele>7.201509</ele>
        <time>2022-07-31T13:56:35.000Z</time>
      </trkpt>
      <trkpt lat="49.44306" lon="-1.21249">
        <ele>7.207324</ele>
        <time>2022-07-31T13:56:36.000Z</time>
      </trkpt>
      <trkpt lat="49.44302" lon="-1.21249">
        <ele>7.213008</ele>
        <time>2022-07-31T13:56:37.000Z</time>
      </trkpt>
      <trkpt lat="49.44297" lon="-1.21249">
        <ele>7.219729</ele>
        <time>2022-07-31T13:56:38.000Z</time>
      </trkpt>
      <trkpt lat="49.44292" lon="-1.21249">
        <ele>7.225413</ele>
        <time>2022-07-31T13:56:39.000Z</time>
      </trkpt>
      <trkpt lat="49.44287" lon="-1.21249">
        <ele>7.232131</ele>
        <time>2022-07-31T13:56:40.000Z</time>
      </trkpt>
      <trkpt lat="49.44282" lon="-1.21249">
        <ele>7.238719</ele>
        <time>2022-07-31T13:56:41.000Z</time>
      </trkpt>
      <trkpt lat="49.44277" lon="-1.21248">
        <ele>7.245315</ele>
        <time>2022-07-31T13:56:42.000Z</time>
      </trkpt>
      <trkpt lat="49.44271" lon="-1.21248">
        <ele>7.252303</ele>
        <time>2022-07-31T13:56:43.000Z</time>
      </trkpt>
      <trkpt lat="49.44266" lon="-1.21248">
        <ele>7.259025</ele>
        <time>2022-07-31T13:56:44.000Z</time>
      </trkpt>
      <trkpt lat="49.44261" lon="-1.21247">
        <ele>7.266002</ele>
        <time>2022-07-31T13:56:45.000Z</time>
      </trkpt>
      <trkpt lat="49.44255" lon="-1.21247">
        <ele>7.272978</ele>
        <time>2022-07-31T13:56:46.000Z</time>
      </trkpt>
      <trkpt lat="49.4425" lon="-1.21247">
        <ele>7.280472</ele>
        <time>2022-07-31T13:56:47.000Z</time>
      </trkpt>
      <trkpt lat="49.44245" lon="-1.21247">
        <ele>7.283937</ele>
        <time>2022-07-31T13:56:48.000Z</time>
      </trkpt>
      <trkpt lat="49.44239" lon="-1.21247">
        <ele>7.274609</ele>
        <time>2022-07-31T13:56:49.000Z</time>
      </trkpt>
      <trkpt lat="49.44234" lon="-1.21247">
        <ele>7.26459</ele>
        <time>2022-07-31T13:56:50.000Z</time>
      </trkpt>
      <trkpt lat="49.44229" lon="-1.21248">
        <ele>7.256293</ele>
        <time>2022-07-31T13:56:51.000Z</time>
      </trkpt>
      <trkpt lat="49.44223" lon="-1.21248">
        <ele>7.246261</ele>
        <time>2022-07-31T13:56:52.000Z</time>
      </trkpt>
      <trkpt lat="49.44218" lon="-1.21249">
        <ele>7.236892</ele>
        <time>2022-07-31T13:56:53.000Z</time>
      </trkpt>
      <trkpt lat="49.44213" lon="-1.21249">
        <ele>7.228066</ele>
        <time>2022-07-31T13:56:54.000Z</time>
      </trkpt>
      <trkpt lat="49.44207" lon="-1.21249">
        <ele>7.219258</ele>
        <time>2022-07-31T13:56:55.000Z</time>
      </trkpt>
      <trkpt lat="49.44202" lon="-1.2125">
        <ele>7.209753</ele>
        <time>2022-07-31T13:56:56.000Z</time>
      </trkpt>
      <trkpt lat="49.44197" lon="-1.2125">
        <ele>7.20091</ele>
        <time>2022-07-31T13:56:57.000Z</time>
      </trkpt>
      <trkpt lat="49.44191" lon="-1.21251">
        <ele>7.191517</ele>
        <time>2022-07-31T13:56:58.000Z</time>
      </trkpt>
      <trkpt lat="49.44187" lon="-1.21252">
        <ele>7.183136</ele>
        <time>2022-07-31T13:56:59.000Z</time>
      </trkpt>
      <trkpt lat="49.44181" lon="-1.21253">
        <ele>7.173621</ele>
        <time>2022-07-31T13:57:00.000Z</time>
      </trkpt>
      <trkpt lat="49.44176" lon="-1.21253">
        <ele>7.164278</ele>
        <time>2022-07-31T13:57:01.000Z</time>
      </trkpt>
      <trkpt lat="49.44171" lon="-1.21254">
        <ele>7.15597</ele>
        <time>2022-07-31T13:57:02.000Z</time>
      </trkpt>
      <trkpt lat="49.44165" lon="-1.21255">
        <ele>7.146439</ele>
        <time>2022-07-31T13:57:03.000Z</time>
      </trkpt>
      <trkpt lat="49.4416" lon="-1.21256">
        <ele>7.13756</ele>
        <time>2022-07-31T13:57:04.000Z</time>
      </trkpt>
      <trkpt lat="49.44156" lon="-1.21256">
        <ele>7.129233</ele>
        <time>2022-07-31T13:57:05.000Z</time>
      </trkpt>
      <trkpt lat="49.4415" lon="-1.21257">
        <ele>7.120379</ele>
        <time>2022-07-31T13:57:06.000Z</time>
      </trkpt>
      <trkpt lat="49.44146" lon="-1.21258">
        <ele>7.112041</ele>
        <time>2022-07-31T13:57:07.000Z</time>
      </trkpt>
      <trkpt lat="49.44141" lon="-1.21259">
        <ele>7.103199</ele>
        <time>2022-07-31T13:57:08.000Z</time>
      </trkpt>
      <trkpt lat="49.44135" lon="-1.21259">
        <ele>7.094373</ele>
        <time>2022-07-31T13:57:09.000Z</time>
      </trkpt>
      <trkpt lat="49.4413" lon="-1.2126">
        <ele>7.085375</ele>
        <time>2022-07-31T13:57:10.000Z</time>
      </trkpt>
      <trkpt lat="49.44125" lon="-1.2126">
        <ele>7.076561</ele>
        <time>2022-07-31T13:57:11.000Z</time>
      </trkpt>
      <trkpt lat="49.4412" lon="-1.2126">
        <ele>7.06775</ele>
        <time>2022-07-31T13:57:12.000Z</time>
      </trkpt>
      <trkpt lat="49.44115" lon="-1.2126">
        <ele>7.059454</ele>
        <time>2022-07-31T13:57:13.000Z</time>
      </trkpt>
      <trkpt lat="49.4411" lon="-1.2126">
        <ele>7.050125</ele>
        <time>2022-07-31T13:57:14.000Z</time>
      </trkpt>
      <trkpt lat="49.44105" lon="-1.21259">
        <ele>7.041142</ele>
        <time>2022-07-31T13:57:15.000Z</time>
      </trkpt>
      <trkpt lat="49.441" lon="-1.21259">
        <ele>7.032852</ele>
        <time>2022-07-31T13:57:16.000Z</time>
      </trkpt>
      <trkpt lat="49.44095" lon="-1.21259">
        <ele>7.024041</ele>
        <time>2022-07-31T13:57:17.000Z</time>
      </trkpt>
      <trkpt lat="49.4409" lon="-1.21259">
        <ele>7.015748</ele>
        <time>2022-07-31T13:57:18.000Z</time>
      </trkpt>
      <trkpt lat="49.44085" lon="-1.21258">
        <ele>7.007957</ele>
        <time>2022-07-31T13:57:19.000Z</time>
      </trkpt>
      <trkpt lat="49.4408" lon="-1.21258">
        <ele>6.999148</ele>
        <time>2022-07-31T13:57:20.000Z</time>
      </trkpt>
      <trkpt lat="49.44076" lon="-1.21258">
        <ele>6.990856</ele>
        <time>2022-07-31T13:57:21.000Z</time>
      </trkpt>
      <trkpt lat="49.44071" lon="-1.21257">
        <ele>6.982529</ele>
        <time>2022-07-31T13:57:22.000Z</time>
      </trkpt>
      <trkpt lat="49.44066" lon="-1.21257">
        <ele>6.974571</ele>
        <time>2022-07-31T13:57:23.000Z</time>
      </trkpt>
      <trkpt lat="49.44061" lon="-1.21257">
        <ele>6.970379</ele>
        <time>2022-07-31T13:57:24.000Z</time>
      </trkpt>
      <trkpt lat="49.44056" lon="-1.21256">
        <ele>6.966439</ele>
        <time>2022-07-31T13:57:25.000Z</time>
      </trkpt>
      <trkpt lat="49.44051" lon="-1.21256">
        <ele>6.96225</ele>
        <time>2022-07-31T13:57:26.000Z</time>
      </trkpt>
      <trkpt lat="49.44046" lon="-1.21255">
        <ele>6.9583</ele>
        <time>2022-07-31T13:57:27.000Z</time>
      </trkpt>
      <trkpt lat="49.44041" lon="-1.21255">
        <ele>6.954109</ele>
        <time>2022-07-31T13:57:28.000Z</time>
      </trkpt>
      <trkpt lat="49.44036" lon="-1.21254">
        <ele>6.950154</ele>
        <time>2022-07-31T13:57:29.000Z</time>
      </trkpt>
      <trkpt lat="49.44032" lon="-1.21253">
        <ele>6.946438</ele>
        <time>2022-07-31T13:57:30.000Z</time>
      </trkpt>
      <trkpt lat="49.44026" lon="-1.21253">
        <ele>6.941922</ele>
        <time>2022-07-31T13:57:31.000Z</time>
      </trkpt>
      <trkpt lat="49.44021" lon="-1.21253">
        <ele>6.937739</ele>
        <time>2022-07-31T13:57:32.000Z</time>
      </trkpt>
      <trkpt lat="49.44017" lon="-1.21253">
        <ele>6.934048</ele>
        <time>2022-07-31T13:57:33.000Z</time>
      </trkpt>
      <trkpt lat="49.44012" lon="-1.21253">
        <ele>6.930111</ele>
        <time>2022-07-31T13:57:34.000Z</time>
      </trkpt>
      <trkpt lat="49.44006" lon="-1.21253">
        <ele>6.92568</ele>
        <time>2022-07-31T13:57:35.000Z</time>
      </trkpt>
      <trkpt lat="49.44001" lon="-1.21252">
        <ele>6.921496</ele>
        <time>2022-07-31T13:57:36.000Z</time>
      </trkpt>
      <trkpt lat="49.43997" lon="-1.21253">
        <ele>6.917557</ele>
        <time>2022-07-31T13:57:37.000Z</time>
      </trkpt>
      <trkpt lat="49.43991" lon="-1.21253">
        <ele>6.913358</ele>
        <time>2022-07-31T13:57:38.000Z</time>
      </trkpt>
      <trkpt lat="49.43987" lon="-1.21254">
        <ele>6.909411</ele>
        <time>2022-07-31T13:57:39.000Z</time>
      </trkpt>
      <trkpt lat="49.43982" lon="-1.21254">
        <ele>6.905717</ele>
        <time>2022-07-31T13:57:40.000Z</time>
      </trkpt>
      <trkpt lat="49.43977" lon="-1.21254">
        <ele>6.901531</ele>
        <time>2022-07-31T13:57:41.000Z</time>
      </trkpt>
      <trkpt lat="49.43972" lon="-1.21255">
        <ele>6.897588</ele>
        <time>2022-07-31T13:57:42.000Z</time>
      </trkpt>
      <trkpt lat="49.43968" lon="-1.21255">
        <ele>6.893888</ele>
        <time>2022-07-31T13:57:43.000Z</time>
      </trkpt>
      <trkpt lat="49.43963" lon="-1.21256">
        <ele>6.889927</ele>
        <time>2022-07-31T13:57:44.000Z</time>
      </trkpt>
      <trkpt lat="49.43959" lon="-1.21257">
        <ele>6.886456</ele>
        <time>2022-07-31T13:57:45.000Z</time>
      </trkpt>
      <trkpt lat="49.43954" lon="-1.21257">
        <ele>6.882272</ele>
        <time>2022-07-31T13:57:46.000Z</time>
      </trkpt>
      <trkpt lat="49.43949" lon="-1.21257">
        <ele>6.878333</ele>
        <time>2022-07-31T13:57:47.000Z</time>
      </trkpt>
      <trkpt lat="49.43943" lon="-1.21257">
        <ele>6.873901</ele>
        <time>2022-07-31T13:57:48.000Z</time>
      </trkpt>
      <trkpt lat="49.43939" lon="-1.21256">
        <ele>6.869961</ele>
        <time>2022-07-31T13:57:49.000Z</time>
      </trkpt>
      <trkpt lat="49.43933" lon="-1.21256">
        <ele>6.865687</ele>
        <time>2022-07-31T13:57:50.000Z</time>
      </trkpt>
      <trkpt lat="49.43928" lon="-1.21255">
        <ele>6.861226</ele>
        <time>2022-07-31T13:57:51.000Z</time>
      </trkpt>
      <trkpt lat="49.43923" lon="-1.21253">
        <ele>6.857209</ele>
        <time>2022-07-31T13:57:52.000Z</time>
      </trkpt>
      <trkpt lat="49.43918" lon="-1.21252">
        <ele>6.852929</ele>
        <time>2022-07-31T13:57:53.000Z</time>
      </trkpt>
      <trkpt lat="49.43913" lon="-1.2125">
        <ele>6.848889</ele>
        <time>2022-07-31T13:57:54.000Z</time>
      </trkpt>
      <trkpt lat="49.43908" lon="-1.21248">
        <ele>6.844619</ele>
        <time>2022-07-31T13:57:55.000Z</time>
      </trkpt>
      <trkpt lat="49.43903" lon="-1.21247">
        <ele>6.840612</ele>
        <time>2022-07-31T13:57:56.000Z</time>
      </trkpt>
      <trkpt lat="49.43899" lon="-1.21245">
        <ele>6.836835</ele>
        <time>2022-07-31T13:57:57.000Z</time>
      </trkpt>
      <trkpt lat="49.43894" lon="-1.21244">
        <ele>6.832818</ele>
        <time>2022-07-31T13:57:58.000Z</time>
      </trkpt>
      <trkpt lat="49.4389" lon="-1.21242">
        <ele>6.829004</ele>
        <time>2022-07-31T13:57:59.000Z</time>
      </trkpt>
      <trkpt lat="49.43885" lon="-1.2124">
        <ele>6.819292</ele>
        <time>2022-07-31T13:58:00.000Z</time>
      </trkpt>
      <trkpt lat="49.43881" lon="-1.21237">
        <ele>6.8061</ele>
        <time>2022-07-31T13:58:01.000Z</time>
      </trkpt>
      <trkpt lat="49.43876" lon="-1.21235">
        <ele>6.79123</ele>
        <time>2022-07-31T13:58:02.000Z</time>
      </trkpt>
      <trkpt lat="49.43872" lon="-1.21233">
        <ele>6.777376</ele>
        <time>2022-07-31T13:58:03.000Z</time>
      </trkpt>
      <trkpt lat="49.43866" lon="-1.21231">
        <ele>6.760783</ele>
        <time>2022-07-31T13:58:04.000Z</time>
      </trkpt>
      <trkpt lat="49.4386" lon="-1.21229">
        <ele>6.742703</ele>
        <time>2022-07-31T13:58:05.000Z</time>
      </trkpt>
      <trkpt lat="49.43854" lon="-1.21227">
        <ele>6.725163</ele>
        <time>2022-07-31T13:58:06.000Z</time>
      </trkpt>
      <trkpt lat="49.43848" lon="-1.21225">
        <ele>6.706675</ele>
        <time>2022-07-31T13:58:07.000Z</time>
      </trkpt>
      <trkpt lat="49.43843" lon="-1.21223">
        <ele>6.689293</ele>
        <time>2022-07-31T13:58:08.000Z</time>
      </trkpt>
      <trkpt lat="49.43836" lon="-1.21221">
        <ele>6.669854</ele>
        <time>2022-07-31T13:58:09.000Z</time>
      </trkpt>
      <trkpt lat="49.4383" lon="-1.21218">
        <ele>6.65012</ele>
        <time>2022-07-31T13:58:10.000Z</time>
      </trkpt>
      <trkpt lat="49.43824" lon="-1.21215">
        <ele>6.631292</ele>
        <time>2022-07-31T13:58:11.000Z</time>
      </trkpt>
      <trkpt lat="49.43818" lon="-1.21212">
        <ele>6.613899</ele>
        <time>2022-07-31T13:58:12.000Z</time>
      </trkpt>
      <trkpt lat="49.43813" lon="-1.21209">
        <ele>6.595885</ele>
        <time>2022-07-31T13:58:13.000Z</time>
      </trkpt>
      <trkpt lat="49.43807" lon="-1.21205">
        <ele>6.579124</ele>
        <time>2022-07-31T13:58:14.000Z</time>
      </trkpt>
      <trkpt lat="49.43802" lon="-1.21201">
        <ele>6.561927</ele>
        <time>2022-07-31T13:58:15.000Z</time>
      </trkpt>
      <trkpt lat="49.43797" lon="-1.21197">
        <ele>6.544199</ele>
        <time>2022-07-31T13:58:16.000Z</time>
      </trkpt>
      <trkpt lat="49.43792" lon="-1.21192">
        <ele>6.527672</ele>
        <time>2022-07-31T13:58:17.000Z</time>
      </trkpt>
      <trkpt lat="49.43787" lon="-1.21188">
        <ele>6.510469</ele>
        <time>2022-07-31T13:58:18.000Z</time>
      </trkpt>
      <trkpt lat="49.43782" lon="-1.21184">
        <ele>6.493078</ele>
        <time>2022-07-31T13:58:19.000Z</time>
      </trkpt>
      <trkpt lat="49.43777" lon="-1.21179">
        <ele>6.476451</ele>
        <time>2022-07-31T13:58:20.000Z</time>
      </trkpt>
      <trkpt lat="49.43772" lon="-1.21174">
        <ele>6.458612</ele>
        <time>2022-07-31T13:58:21.000Z</time>
      </trkpt>
      <trkpt lat="49.43767" lon="-1.2117">
        <ele>6.441221</ele>
        <time>2022-07-31T13:58:22.000Z</time>
      </trkpt>
      <trkpt lat="49.43762" lon="-1.21165">
        <ele>6.42383</ele>
        <time>2022-07-31T13:58:23.000Z</time>
      </trkpt>
      <trkpt lat="49.43757" lon="-1.21161">
        <ele>6.406145</ele>
        <time>2022-07-31T13:58:24.000Z</time>
      </trkpt>
      <trkpt lat="49.43752" lon="-1.21156">
        <ele>6.389315</ele>
        <time>2022-07-31T13:58:25.000Z</time>
      </trkpt>
      <trkpt lat="49.43746" lon="-1.21152">
        <ele>6.371237</ele>
        <time>2022-07-31T13:58:26.000Z</time>
      </trkpt>
      <trkpt lat="49.43741" lon="-1.21148">
        <ele>6.353592</ele>
        <time>2022-07-31T13:58:27.000Z</time>
      </trkpt>
      <trkpt lat="49.43736" lon="-1.21144">
        <ele>6.337796</ele>
        <time>2022-07-31T13:58:28.000Z</time>
      </trkpt>
      <trkpt lat="49.43731" lon="-1.21141">
        <ele>6.321278</ele>
        <time>2022-07-31T13:58:29.000Z</time>
      </trkpt>
      <trkpt lat="49.43725" lon="-1.21137">
        <ele>6.303673</ele>
        <time>2022-07-31T13:58:30.000Z</time>
      </trkpt>
      <trkpt lat="49.43721" lon="-1.21134">
        <ele>6.290948</ele>
        <time>2022-07-31T13:58:31.000Z</time>
      </trkpt>
      <trkpt lat="49.43715" lon="-1.21131">
        <ele>6.280556</ele>
        <time>2022-07-31T13:58:32.000Z</time>
      </trkpt>
      <trkpt lat="49.4371" lon="-1.21129">
        <ele>6.270794</ele>
        <time>2022-07-31T13:58:33.000Z</time>
      </trkpt>
      <trkpt lat="49.43705" lon="-1.21126">
        <ele>6.260368</ele>
        <time>2022-07-31T13:58:34.000Z</time>
      </trkpt>
      <trkpt lat="49.43699" lon="-1.21124">
        <ele>6.250211</ele>
        <time>2022-07-31T13:58:35.000Z</time>
      </trkpt>
      <trkpt lat="49.43693" lon="-1.21122">
        <ele>6.239317</ele>
        <time>2022-07-31T13:58:36.000Z</time>
      </trkpt>
      <trkpt lat="49.43688" lon="-1.2112">
        <ele>6.22857</ele>
        <time>2022-07-31T13:58:37.000Z</time>
      </trkpt>
      <trkpt lat="49.43682" lon="-1.21118">
        <ele>6.21829</ele>
        <time>2022-07-31T13:58:38.000Z</time>
      </trkpt>
      <trkpt lat="49.43677" lon="-1.21116">
        <ele>6.207745</ele>
        <time>2022-07-31T13:58:39.000Z</time>
      </trkpt>
      <trkpt lat="49.43671" lon="-1.21115">
        <ele>6.197101</ele>
        <time>2022-07-31T13:58:40.000Z</time>
      </trkpt>
      <trkpt lat="49.43665" lon="-1.21114">
        <ele>6.185871</ele>
        <time>2022-07-31T13:58:41.000Z</time>
      </trkpt>
      <trkpt lat="49.43659" lon="-1.21113">
        <ele>6.175379</ele>
        <time>2022-07-31T13:58:42.000Z</time>
      </trkpt>
      <trkpt lat="49.43653" lon="-1.21112">
        <ele>6.165265</ele>
        <time>2022-07-31T13:58:43.000Z</time>
      </trkpt>
      <trkpt lat="49.43648" lon="-1.21111">
        <ele>6.15536</ele>
        <time>2022-07-31T13:58:44.000Z</time>
      </trkpt>
      <trkpt lat="49.43643" lon="-1.2111">
        <ele>6.145984</ele>
        <time>2022-07-31T13:58:45.000Z</time>
      </trkpt>
      <trkpt lat="49.43637" lon="-1.21109">
        <ele>6.135884</ele>
        <time>2022-07-31T13:58:46.000Z</time>
      </trkpt>
      <trkpt lat="49.43632" lon="-1.21109">
        <ele>6.12603</ele>
        <time>2022-07-31T13:58:47.000Z</time>
      </trkpt>
      <trkpt lat="49.43627" lon="-1.21109">
        <ele>6.116176</ele>
        <time>2022-07-31T13:58:48.000Z</time>
      </trkpt>
      <trkpt lat="49.43621" lon="-1.21109">
        <ele>6.105599</ele>
        <time>2022-07-31T13:58:49.000Z</time>
      </trkpt>
      <trkpt lat="49.43615" lon="-1.21108">
        <ele>6.095733</ele>
        <time>2022-07-31T13:58:50.000Z</time>
      </trkpt>
      <trkpt lat="49.4361" lon="-1.21107">
        <ele>6.086144</ele>
        <time>2022-07-31T13:58:51.000Z</time>
      </trkpt>
      <trkpt lat="49.43605" lon="-1.21106">
        <ele>6.076768</ele>
        <time>2022-07-31T13:58:52.000Z</time>
      </trkpt>
      <trkpt lat="49.43599" lon="-1.21105">
        <ele>6.066306</ele>
        <time>2022-07-31T13:58:53.000Z</time>
      </trkpt>
      <trkpt lat="49.43594" lon="-1.21104">
        <ele>6.056159</ele>
        <time>2022-07-31T13:58:54.000Z</time>
      </trkpt>
      <trkpt lat="49.43588" lon="-1.21102">
        <ele>6.045497</ele>
        <time>2022-07-31T13:58:55.000Z</time>
      </trkpt>
      <trkpt lat="49.43582" lon="-1.21099">
        <ele>6.034512</ele>
        <time>2022-07-31T13:58:56.000Z</time>
      </trkpt>
      <trkpt lat="49.43578" lon="-1.21096">
        <ele>6.025614</ele>
        <time>2022-07-31T13:58:57.000Z</time>
      </trkpt>
      <trkpt lat="49.43572" lon="-1.21094">
        <ele>6.014953</ele>
        <time>2022-07-31T13:58:58.000Z</time>
      </trkpt>
      <trkpt lat="49.43567" lon="-1.21092">
        <ele>6.005178</ele>
        <time>2022-07-31T13:58:59.000Z</time>
      </trkpt>
      <trkpt lat="49.43562" lon="-1.21091">
        <ele>5.995101</ele>
        <time>2022-07-31T13:59:00.000Z</time>
      </trkpt>
      <trkpt lat="49.43557" lon="-1.21088">
        <ele>5.98534</ele>
        <time>2022-07-31T13:59:01.000Z</time>
      </trkpt>
      <trkpt lat="49.43551" lon="-1.21086">
        <ele>5.974355</ele>
        <time>2022-07-31T13:59:02.000Z</time>
      </trkpt>
      <trkpt lat="49.43546" lon="-1.21083">
        <ele>5.969438</ele>
        <time>2022-07-31T13:59:03.000Z</time>
      </trkpt>
      <trkpt lat="49.4354" lon="-1.2108">
        <ele>5.977716</ele>
        <time>2022-07-31T13:59:04.000Z</time>
      </trkpt>
      <trkpt lat="49.43534" lon="-1.21078">
        <ele>5.986231</ele>
        <time>2022-07-31T13:59:05.000Z</time>
      </trkpt>
      <trkpt lat="49.43528" lon="-1.21075">
        <ele>5.994562</ele>
        <time>2022-07-31T13:59:06.000Z</time>
      </trkpt>
      <trkpt lat="49.43523" lon="-1.21072">
        <ele>6.002347</ele>
        <time>2022-07-31T13:59:07.000Z</time>
      </trkpt>
      <trkpt lat="49.43517" lon="-1.21069">
        <ele>6.009844</ele>
        <time>2022-07-31T13:59:08.000Z</time>
      </trkpt>
      <trkpt lat="49.43512" lon="-1.21067">
        <ele>6.017452</ele>
        <time>2022-07-31T13:59:09.000Z</time>
      </trkpt>
      <trkpt lat="49.43506" lon="-1.21065">
        <ele>6.026011</ele>
        <time>2022-07-31T13:59:10.000Z</time>
      </trkpt>
      <trkpt lat="49.43501" lon="-1.21063">
        <ele>6.033598</ele>
        <time>2022-07-31T13:59:11.000Z</time>
      </trkpt>
      <trkpt lat="49.43495" lon="-1.21061">
        <ele>6.041718</ele>
        <time>2022-07-31T13:59:12.000Z</time>
      </trkpt>
      <trkpt lat="49.43489" lon="-1.21059">
        <ele>6.049704</ele>
        <time>2022-07-31T13:59:13.000Z</time>
      </trkpt>
      <trkpt lat="49.43483" lon="-1.21057">
        <ele>6.057769</ele>
        <time>2022-07-31T13:59:14.000Z</time>
      </trkpt>
      <trkpt lat="49.43478" lon="-1.21056">
        <ele>6.065199</ele>
        <time>2022-07-31T13:59:15.000Z</time>
      </trkpt>
      <trkpt lat="49.43472" lon="-1.21055">
        <ele>6.072775</ele>
        <time>2022-07-31T13:59:16.000Z</time>
      </trkpt>
      <trkpt lat="49.43466" lon="-1.21054">
        <ele>6.081243</ele>
        <time>2022-07-31T13:59:17.000Z</time>
      </trkpt>
      <trkpt lat="49.43461" lon="-1.21052">
        <ele>6.089174</ele>
        <time>2022-07-31T13:59:18.000Z</time>
      </trkpt>
      <trkpt lat="49.43455" lon="-1.2105">
        <ele>6.097294</ele>
        <time>2022-07-31T13:59:19.000Z</time>
      </trkpt>
      <trkpt lat="49.43449" lon="-1.21048">
        <ele>6.105814</ele>
        <time>2022-07-31T13:59:20.000Z</time>
      </trkpt>
      <trkpt lat="49.43443" lon="-1.21046">
        <ele>6.114164</ele>
        <time>2022-07-31T13:59:21.000Z</time>
      </trkpt>
      <trkpt lat="49.43437" lon="-1.21044">
        <ele>6.122283</ele>
        <time>2022-07-31T13:59:22.000Z</time>
      </trkpt>
      <trkpt lat="49.43431" lon="-1.21042">
        <ele>6.129871</ele>
        <time>2022-07-31T13:59:23.000Z</time>
      </trkpt>
      <trkpt lat="49.43425" lon="-1.2104">
        <ele>6.138355</ele>
        <time>2022-07-31T13:59:24.000Z</time>
      </trkpt>
      <trkpt lat="49.4342" lon="-1.21038">
        <ele>6.146475</ele>
        <time>2022-07-31T13:59:25.000Z</time>
      </trkpt>
      <trkpt lat="49.43414" lon="-1.21036">
        <ele>6.154042</ele>
        <time>2022-07-31T13:59:26.000Z</time>
      </trkpt>
      <trkpt lat="49.43408" lon="-1.21034">
        <ele>6.162161</ele>
        <time>2022-07-31T13:59:27.000Z</time>
      </trkpt>
      <trkpt lat="49.43403" lon="-1.21032">
        <ele>6.170167</ele>
        <time>2022-07-31T13:59:28.000Z</time>
      </trkpt>
      <trkpt lat="49.43397" lon="-1.2103">
        <ele>6.17793</ele>
        <time>2022-07-31T13:59:29.000Z</time>
      </trkpt>
      <trkpt lat="49.43391" lon="-1.21028">
        <ele>6.185917</ele>
        <time>2022-07-31T13:59:30.000Z</time>
      </trkpt>
      <trkpt lat="49.43385" lon="-1.21026">
        <ele>6.194385</ele>
        <time>2022-07-31T13:59:31.000Z</time>
      </trkpt>
      <trkpt lat="49.4338" lon="-1.21025">
        <ele>6.202434</ele>
        <time>2022-07-31T13:59:32.000Z</time>
      </trkpt>
      <trkpt lat="49.43374" lon="-1.21023">
        <ele>6.209562</ele>
        <time>2022-07-31T13:59:33.000Z</time>
      </trkpt>
      <trkpt lat="49.43369" lon="-1.21021">
        <ele>6.211723</ele>
        <time>2022-07-31T13:59:34.000Z</time>
      </trkpt>
      <trkpt lat="49.43363" lon="-1.2102">
        <ele>6.209524</ele>
        <time>2022-07-31T13:59:35.000Z</time>
      </trkpt>
      <trkpt lat="49.43358" lon="-1.21018">
        <ele>6.207341</ele>
        <time>2022-07-31T13:59:36.000Z</time>
      </trkpt>
      <trkpt lat="49.43353" lon="-1.21017">
        <ele>6.205236</ele>
        <time>2022-07-31T13:59:37.000Z</time>
      </trkpt>
      <trkpt lat="49.43347" lon="-1.21015">
        <ele>6.20292</ele>
        <time>2022-07-31T13:59:38.000Z</time>
      </trkpt>
      <trkpt lat="49.43341" lon="-1.21013">
        <ele>6.200571</ele>
        <time>2022-07-31T13:59:39.000Z</time>
      </trkpt>
      <trkpt lat="49.43335" lon="-1.21011">
        <ele>6.198261</ele>
        <time>2022-07-31T13:59:40.000Z</time>
      </trkpt>
      <trkpt lat="49.43329" lon="-1.2101">
        <ele>6.195799</ele>
        <time>2022-07-31T13:59:41.000Z</time>
      </trkpt>
      <trkpt lat="49.43323" lon="-1.21008">
        <ele>6.193332</ele>
        <time>2022-07-31T13:59:42.000Z</time>
      </trkpt>
      <trkpt lat="49.43317" lon="-1.21006">
        <ele>6.190955</ele>
        <time>2022-07-31T13:59:43.000Z</time>
      </trkpt>
      <trkpt lat="49.43312" lon="-1.21004">
        <ele>6.18861</ele>
        <time>2022-07-31T13:59:44.000Z</time>
      </trkpt>
      <trkpt lat="49.43306" lon="-1.21001">
        <ele>6.186227</ele>
        <time>2022-07-31T13:59:45.000Z</time>
      </trkpt>
      <trkpt lat="49.433" lon="-1.20999">
        <ele>6.183875</ele>
        <time>2022-07-31T13:59:46.000Z</time>
      </trkpt>
      <trkpt lat="49.43294" lon="-1.20997">
        <ele>6.181394</ele>
        <time>2022-07-31T13:59:47.000Z</time>
      </trkpt>
      <trkpt lat="49.43288" lon="-1.20995">
        <ele>6.179028</ele>
        <time>2022-07-31T13:59:48.000Z</time>
      </trkpt>
      <trkpt lat="49.43282" lon="-1.20993">
        <ele>6.176557</ele>
        <time>2022-07-31T13:59:49.000Z</time>
      </trkpt>
      <trkpt lat="49.43277" lon="-1.20991">
        <ele>6.174242</ele>
        <time>2022-07-31T13:59:50.000Z</time>
      </trkpt>
      <trkpt lat="49.4327" lon="-1.20989">
        <ele>6.171765</ele>
        <time>2022-07-31T13:59:51.000Z</time>
      </trkpt>
      <trkpt lat="49.43265" lon="-1.20988">
        <ele>6.169683</ele>
        <time>2022-07-31T13:59:52.000Z</time>
      </trkpt>
      <trkpt lat="49.43259" lon="-1.20986">
        <ele>6.167216</ele>
        <time>2022-07-31T13:59:53.000Z</time>
      </trkpt>
      <trkpt lat="49.43253" lon="-1.20984">
        <ele>6.164862</ele>
        <time>2022-07-31T13:59:54.000Z</time>
      </trkpt>
      <trkpt lat="49.43248" lon="-1.20982">
        <ele>6.162664</ele>
        <time>2022-07-31T13:59:55.000Z</time>
      </trkpt>
      <trkpt lat="49.43243" lon="-1.2098">
        <ele>6.160459</ele>
        <time>2022-07-31T13:59:56.000Z</time>
      </trkpt>
      <trkpt lat="49.43237" lon="-1.20979">
        <ele>6.158105</ele>
        <time>2022-07-31T13:59:57.000Z</time>
      </trkpt>
      <trkpt lat="49.43231" lon="-1.20977">
        <ele>6.155912</ele>
        <time>2022-07-31T13:59:58.000Z</time>
      </trkpt>
      <trkpt lat="49.43226" lon="-1.20975">
        <ele>6.153689</ele>
        <time>2022-07-31T13:59:59.000Z</time>
      </trkpt>
      <trkpt lat="49.4322" lon="-1.20973">
        <ele>6.151363</ele>
        <time>2022-07-31T14:00:00.000Z</time>
      </trkpt>
      <trkpt lat="49.43215" lon="-1.20971">
        <ele>6.149108</ele>
        <time>2022-07-31T14:00:01.000Z</time>
      </trkpt>
      <trkpt lat="49.43209" lon="-1.20969">
        <ele>6.146782</ele>
        <time>2022-07-31T14:00:02.000Z</time>
      </trkpt>
      <trkpt lat="49.43203" lon="-1.20968">
        <ele>6.144432</ele>
        <time>2022-07-31T14:00:03.000Z</time>
      </trkpt>
      <trkpt lat="49.43198" lon="-1.20966">
        <ele>6.14235</ele>
        <time>2022-07-31T14:00:04.000Z</time>
      </trkpt>
      <trkpt lat="49.43192" lon="-1.20964">
        <ele>6.126874</ele>
        <time>2022-07-31T14:00:05.000Z</time>
      </trkpt>
      <trkpt lat="49.43187" lon="-1.20962">
        <ele>6.105072</ele>
        <time>2022-07-31T14:00:06.000Z</time>
      </trkpt>
      <trkpt lat="49.43182" lon="-1.20961">
        <ele>6.084479</ele>
        <time>2022-07-31T14:00:07.000Z</time>
      </trkpt>
      <trkpt lat="49.43176" lon="-1.20959">
        <ele>6.061241</ele>
        <time>2022-07-31T14:00:08.000Z</time>
      </trkpt>
      <trkpt lat="49.43171" lon="-1.20957">
        <ele>6.039495</ele>
        <time>2022-07-31T14:00:09.000Z</time>
      </trkpt>
      <trkpt lat="49.43165" lon="-1.20955">
        <ele>6.016257</ele>
        <time>2022-07-31T14:00:10.000Z</time>
      </trkpt>
      <trkpt lat="49.43159" lon="-1.20954">
        <ele>5.99451</ele>
        <time>2022-07-31T14:00:11.000Z</time>
      </trkpt>
      <trkpt lat="49.43154" lon="-1.20951">
        <ele>5.972144</ele>
        <time>2022-07-31T14:00:12.000Z</time>
      </trkpt>
      <trkpt lat="49.43148" lon="-1.20949">
        <ele>5.949076</ele>
        <time>2022-07-31T14:00:13.000Z</time>
      </trkpt>
      <trkpt lat="49.43143" lon="-1.20947">
        <ele>5.926575</ele>
        <time>2022-07-31T14:00:14.000Z</time>
      </trkpt>
      <trkpt lat="49.43137" lon="-1.20945">
        <ele>5.903382</ele>
        <time>2022-07-31T14:00:15.000Z</time>
      </trkpt>
      <trkpt lat="49.43131" lon="-1.20943">
        <ele>5.880144</ele>
        <time>2022-07-31T14:00:16.000Z</time>
      </trkpt>
      <trkpt lat="49.43125" lon="-1.20941">
        <ele>5.856953</ele>
        <time>2022-07-31T14:00:17.000Z</time>
      </trkpt>
      <trkpt lat="49.4312" lon="-1.20939">
        <ele>5.835962</ele>
        <time>2022-07-31T14:00:18.000Z</time>
      </trkpt>
      <trkpt lat="49.43115" lon="-1.20937">
        <ele>5.81404</ele>
        <time>2022-07-31T14:00:19.000Z</time>
      </trkpt>
      <trkpt lat="49.43109" lon="-1.20935">
        <ele>5.791797</ele>
        <time>2022-07-31T14:00:20.000Z</time>
      </trkpt>
      <trkpt lat="49.43104" lon="-1.20933">
        <ele>5.768843</ele>
        <time>2022-07-31T14:00:21.000Z</time>
      </trkpt>
      <trkpt lat="49.43099" lon="-1.20931">
        <ele>5.748063</ele>
        <time>2022-07-31T14:00:22.000Z</time>
      </trkpt>
      <trkpt lat="49.43093" lon="-1.20928">
        <ele>5.72406</ele>
        <time>2022-07-31T14:00:23.000Z</time>
      </trkpt>
      <trkpt lat="49.43088" lon="-1.20925">
        <ele>5.702747</ele>
        <time>2022-07-31T14:00:24.000Z</time>
      </trkpt>
      <trkpt lat="49.43083" lon="-1.20922">
        <ele>5.681256</ele>
        <time>2022-07-31T14:00:25.000Z</time>
      </trkpt>
      <trkpt lat="49.43077" lon="-1.20919">
        <ele>5.656735</ele>
        <time>2022-07-31T14:00:26.000Z</time>
      </trkpt>
      <trkpt lat="49.43071" lon="-1.20915">
        <ele>5.633467</ele>
        <time>2022-07-31T14:00:27.000Z</time>
      </trkpt>
      <trkpt lat="49.43067" lon="-1.20911">
        <ele>5.611857</ele>
        <time>2022-07-31T14:00:28.000Z</time>
      </trkpt>
      <trkpt lat="49.43061" lon="-1.20906">
        <ele>5.588497</ele>
        <time>2022-07-31T14:00:29.000Z</time>
      </trkpt>
      <trkpt lat="49.43057" lon="-1.20902">
        <ele>5.566634</ele>
        <time>2022-07-31T14:00:30.000Z</time>
      </trkpt>
      <trkpt lat="49.43052" lon="-1.20898">
        <ele>5.543492</ele>
        <time>2022-07-31T14:00:31.000Z</time>
      </trkpt>
      <trkpt lat="49.43047" lon="-1.20893">
        <ele>5.522365</ele>
        <time>2022-07-31T14:00:32.000Z</time>
      </trkpt>
      <trkpt lat="49.43042" lon="-1.20889">
        <ele>5.499223</ele>
        <time>2022-07-31T14:00:33.000Z</time>
      </trkpt>
      <trkpt lat="49.43037" lon="-1.20884">
        <ele>5.477359</ele>
        <time>2022-07-31T14:00:34.000Z</time>
      </trkpt>
      <trkpt lat="49.43032" lon="-1.2088">
        <ele>5.454963</ele>
        <time>2022-07-31T14:00:35.000Z</time>
      </trkpt>
      <trkpt lat="49.43028" lon="-1.20875">
        <ele>5.433792</ele>
        <time>2022-07-31T14:00:36.000Z</time>
      </trkpt>
      <trkpt lat="49.43022" lon="-1.2087">
        <ele>5.438091</ele>
        <time>2022-07-31T14:00:37.000Z</time>
      </trkpt>
      <trkpt lat="49.43018" lon="-1.20866">
        <ele>5.442132</ele>
        <time>2022-07-31T14:00:38.000Z</time>
      </trkpt>
      <trkpt lat="49.43013" lon="-1.20861">
        <ele>5.446069</ele>
        <time>2022-07-31T14:00:39.000Z</time>
      </trkpt>
      <trkpt lat="49.43008" lon="-1.20856">
        <ele>5.450392</ele>
        <time>2022-07-31T14:00:40.000Z</time>
      </trkpt>
      <trkpt lat="49.43003" lon="-1.20851">
        <ele>5.454586</ele>
        <time>2022-07-31T14:00:41.000Z</time>
      </trkpt>
      <trkpt lat="49.42998" lon="-1.20846">
        <ele>5.458909</ele>
        <time>2022-07-31T14:00:42.000Z</time>
      </trkpt>
      <trkpt lat="49.42993" lon="-1.20841">
        <ele>5.463077</ele>
        <time>2022-07-31T14:00:43.000Z</time>
      </trkpt>
      <trkpt lat="49.42988" lon="-1.20836">
        <ele>5.467327</ele>
        <time>2022-07-31T14:00:44.000Z</time>
      </trkpt>
      <trkpt lat="49.42984" lon="-1.20831">
        <ele>5.471318</ele>
        <time>2022-07-31T14:00:45.000Z</time>
      </trkpt>
      <trkpt lat="49.42979" lon="-1.20827">
        <ele>5.475228</ele>
        <time>2022-07-31T14:00:46.000Z</time>
      </trkpt>
      <trkpt lat="49.42974" lon="-1.20822">
        <ele>5.47927</ele>
        <time>2022-07-31T14:00:47.000Z</time>
      </trkpt>
      <trkpt lat="49.4297" lon="-1.20818">
        <ele>5.483128</ele>
        <time>2022-07-31T14:00:48.000Z</time>
      </trkpt>
      <trkpt lat="49.42965" lon="-1.20813">
        <ele>5.487065</ele>
        <time>2022-07-31T14:00:49.000Z</time>
      </trkpt>
      <trkpt lat="49.42961" lon="-1.20808">
        <ele>5.491156</ele>
        <time>2022-07-31T14:00:50.000Z</time>
      </trkpt>
      <trkpt lat="49.42957" lon="-1.20803">
        <ele>5.494918</ele>
        <time>2022-07-31T14:00:51.000Z</time>
      </trkpt>
      <trkpt lat="49.42952" lon="-1.20798">
        <ele>5.498828</ele>
        <time>2022-07-31T14:00:52.000Z</time>
      </trkpt>
      <trkpt lat="49.42948" lon="-1.20794">
        <ele>5.502713</ele>
        <time>2022-07-31T14:00:53.000Z</time>
      </trkpt>
      <trkpt lat="49.42943" lon="-1.20789">
        <ele>5.506754</ele>
        <time>2022-07-31T14:00:54.000Z</time>
      </trkpt>
      <trkpt lat="49.42939" lon="-1.20784">
        <ele>5.510487</ele>
        <time>2022-07-31T14:00:55.000Z</time>
      </trkpt>
      <trkpt lat="49.42934" lon="-1.2078">
        <ele>5.514372</ele>
        <time>2022-07-31T14:00:56.000Z</time>
      </trkpt>
      <trkpt lat="49.4293" lon="-1.20774">
        <ele>5.518475</ele>
        <time>2022-07-31T14:00:57.000Z</time>
      </trkpt>
      <trkpt lat="49.42925" lon="-1.2077">
        <ele>5.522591</ele>
        <time>2022-07-31T14:00:58.000Z</time>
      </trkpt>
      <trkpt lat="49.4292" lon="-1.20765">
        <ele>5.526501</ele>
        <time>2022-07-31T14:00:59.000Z</time>
      </trkpt>
      <trkpt lat="49.42916" lon="-1.2076">
        <ele>5.530386</ele>
        <time>2022-07-31T14:01:00.000Z</time>
      </trkpt>
      <trkpt lat="49.42911" lon="-1.20755">
        <ele>5.534709</ele>
        <time>2022-07-31T14:01:01.000Z</time>
      </trkpt>
      <trkpt lat="49.42907" lon="-1.2075">
        <ele>5.538471</ele>
        <time>2022-07-31T14:01:02.000Z</time>
      </trkpt>
      <trkpt lat="49.42902" lon="-1.20745">
        <ele>5.542462</ele>
        <time>2022-07-31T14:01:03.000Z</time>
      </trkpt>
      <trkpt lat="49.42897" lon="-1.20741">
        <ele>5.546528</ele>
        <time>2022-07-31T14:01:04.000Z</time>
      </trkpt>
      <trkpt lat="49.42893" lon="-1.20736">
        <ele>5.550519</ele>
        <time>2022-07-31T14:01:05.000Z</time>
      </trkpt>
      <trkpt lat="49.42889" lon="-1.20731">
        <ele>5.554253</ele>
        <time>2022-07-31T14:01:06.000Z</time>
      </trkpt>
      <trkpt lat="49.42884" lon="-1.20726">
        <ele>5.558242</ele>
        <time>2022-07-31T14:01:07.000Z</time>
      </trkpt>
      <trkpt lat="49.42879" lon="-1.20721">
        <ele>5.562358</ele>
        <time>2022-07-31T14:01:08.000Z</time>
      </trkpt>
      <trkpt lat="49.42875" lon="-1.20716">
        <ele>5.571597</ele>
        <time>2022-07-31T14:01:09.000Z</time>
      </trkpt>
      <trkpt lat="49.42871" lon="-1.20712">
        <ele>5.582154</ele>
        <time>2022-07-31T14:01:10.000Z</time>
      </trkpt>
      <trkpt lat="49.42866" lon="-1.20707">
        <ele>5.592711</ele>
        <time>2022-07-31T14:01:11.000Z</time>
      </trkpt>
      <trkpt lat="49.42861" lon="-1.20702">
        <ele>5.603823</ele>
        <time>2022-07-31T14:01:12.000Z</time>
      </trkpt>
      <trkpt lat="49.42857" lon="-1.20697">
        <ele>5.61467</ele>
        <time>2022-07-31T14:01:13.000Z</time>
      </trkpt>
      <trkpt lat="49.42853" lon="-1.20692">
        <ele>5.625594</ele>
        <time>2022-07-31T14:01:14.000Z</time>
      </trkpt>
      <trkpt lat="49.42848" lon="-1.20686">
        <ele>5.636989</ele>
        <time>2022-07-31T14:01:15.000Z</time>
      </trkpt>
      <trkpt lat="49.42843" lon="-1.20681">
        <ele>5.64824</ele>
        <time>2022-07-31T14:01:16.000Z</time>
      </trkpt>
      <trkpt lat="49.42839" lon="-1.20676">
        <ele>5.658548</ele>
        <time>2022-07-31T14:01:17.000Z</time>
      </trkpt>
      <trkpt lat="49.42834" lon="-1.20671">
        <ele>5.670355</ele>
        <time>2022-07-31T14:01:18.000Z</time>
      </trkpt>
      <trkpt lat="49.42829" lon="-1.20666">
        <ele>5.680663</ele>
        <time>2022-07-31T14:01:19.000Z</time>
      </trkpt>
      <trkpt lat="49.42825" lon="-1.20661">
        <ele>5.690818</ele>
        <time>2022-07-31T14:01:20.000Z</time>
      </trkpt>
      <trkpt lat="49.42821" lon="-1.20656">
        <ele>5.701896</ele>
        <time>2022-07-31T14:01:21.000Z</time>
      </trkpt>
      <trkpt lat="49.42816" lon="-1.20651">
        <ele>5.712744</ele>
        <time>2022-07-31T14:01:22.000Z</time>
      </trkpt>
      <trkpt lat="49.42813" lon="-1.20646">
        <ele>5.722369</ele>
        <time>2022-07-31T14:01:23.000Z</time>
      </trkpt>
      <trkpt lat="49.42809" lon="-1.20641">
        <ele>5.732223</ele>
        <time>2022-07-31T14:01:24.000Z</time>
      </trkpt>
      <trkpt lat="49.42805" lon="-1.20636">
        <ele>5.742457</ele>
        <time>2022-07-31T14:01:25.000Z</time>
      </trkpt>
      <trkpt lat="49.42801" lon="-1.20631">
        <ele>5.752311</ele>
        <time>2022-07-31T14:01:26.000Z</time>
      </trkpt>
      <trkpt lat="49.42797" lon="-1.20626">
        <ele>5.762389</ele>
        <time>2022-07-31T14:01:27.000Z</time>
      </trkpt>
      <trkpt lat="49.42792" lon="-1.20621">
        <ele>5.77364</ele>
        <time>2022-07-31T14:01:28.000Z</time>
      </trkpt>
      <trkpt lat="49.42788" lon="-1.20616">
        <ele>5.783796</ele>
        <time>2022-07-31T14:01:29.000Z</time>
      </trkpt>
      <trkpt lat="49.42783" lon="-1.20611">
        <ele>5.794839</ele>
        <time>2022-07-31T14:01:30.000Z</time>
      </trkpt>
      <trkpt lat="49.42778" lon="-1.20607">
        <ele>5.805257</ele>
        <time>2022-07-31T14:01:31.000Z</time>
      </trkpt>
      <trkpt lat="49.42774" lon="-1.20602">
        <ele>5.815032</ele>
        <time>2022-07-31T14:01:32.000Z</time>
      </trkpt>
      <trkpt lat="49.4277" lon="-1.20598">
        <ele>5.824967</ele>
        <time>2022-07-31T14:01:33.000Z</time>
      </trkpt>
      <trkpt lat="49.42766" lon="-1.20593">
        <ele>5.834742</ele>
        <time>2022-07-31T14:01:34.000Z</time>
      </trkpt>
      <trkpt lat="49.42762" lon="-1.20589">
        <ele>5.844677</ele>
        <time>2022-07-31T14:01:35.000Z</time>
      </trkpt>
      <trkpt lat="49.42757" lon="-1.20584">
        <ele>5.855587</ele>
        <time>2022-07-31T14:01:36.000Z</time>
      </trkpt>
      <trkpt lat="49.42752" lon="-1.2058">
        <ele>5.866698</ele>
        <time>2022-07-31T14:01:37.000Z</time>
      </trkpt>
      <trkpt lat="49.42748" lon="-1.20575">
        <ele>5.877327</ele>
        <time>2022-07-31T14:01:38.000Z</time>
      </trkpt>
      <trkpt lat="49.42743" lon="-1.2057">
        <ele>5.887482</ele>
        <time>2022-07-31T14:01:39.000Z</time>
      </trkpt>
      <trkpt lat="49.42739" lon="-1.20564">
        <ele>5.898354</ele>
        <time>2022-07-31T14:01:40.000Z</time>
      </trkpt>
      <trkpt lat="49.42734" lon="-1.20559">
        <ele>5.909822</ele>
        <time>2022-07-31T14:01:41.000Z</time>
      </trkpt>
      <trkpt lat="49.4273" lon="-1.20554">
        <ele>5.946986</ele>
        <time>2022-07-31T14:01:42.000Z</time>
      </trkpt>
      <trkpt lat="49.42726" lon="-1.20549">
        <ele>5.99067</ele>
        <time>2022-07-31T14:01:43.000Z</time>
      </trkpt>
      <trkpt lat="49.42722" lon="-1.20544">
        <ele>6.036385</ele>
        <time>2022-07-31T14:01:44.000Z</time>
      </trkpt>
      <trkpt lat="49.42718" lon="-1.20539">
        <ele>6.081784</ele>
        <time>2022-07-31T14:01:45.000Z</time>
      </trkpt>
      <trkpt lat="49.42713" lon="-1.20534">
        <ele>6.129868</ele>
        <time>2022-07-31T14:01:46.000Z</time>
      </trkpt>
      <trkpt lat="49.42709" lon="-1.20529">
        <ele>6.178778</ele>
        <time>2022-07-31T14:01:47.000Z</time>
      </trkpt>
      <trkpt lat="49.42704" lon="-1.20524">
        <ele>6.225246</ele>
        <time>2022-07-31T14:01:48.000Z</time>
      </trkpt>
      <trkpt lat="49.427" lon="-1.2052">
        <ele>6.272028</ele>
        <time>2022-07-31T14:01:49.000Z</time>
      </trkpt>
      <trkpt lat="49.42695" lon="-1.20515">
        <ele>6.316729</ele>
        <time>2022-07-31T14:01:50.000Z</time>
      </trkpt>
      <trkpt lat="49.42691" lon="-1.2051">
        <ele>6.36143</ele>
        <time>2022-07-31T14:01:51.000Z</time>
      </trkpt>
      <trkpt lat="49.42687" lon="-1.20505">
        <ele>6.407898</ele>
        <time>2022-07-31T14:01:52.000Z</time>
      </trkpt>
      <trkpt lat="49.42683" lon="-1.205">
        <ele>6.452598</ele>
        <time>2022-07-31T14:01:53.000Z</time>
      </trkpt>
      <trkpt lat="49.42678" lon="-1.20495">
        <ele>6.500023</ele>
        <time>2022-07-31T14:01:54.000Z</time>
      </trkpt>
      <trkpt lat="49.42674" lon="-1.20491">
        <ele>6.545876</ele>
        <time>2022-07-31T14:01:55.000Z</time>
      </trkpt>
      <trkpt lat="49.42669" lon="-1.20486">
        <ele>6.590248</ele>
        <time>2022-07-31T14:01:56.000Z</time>
      </trkpt>
      <trkpt lat="49.42665" lon="-1.20481">
        <ele>6.639158</ele>
        <time>2022-07-31T14:01:57.000Z</time>
      </trkpt>
      <trkpt lat="49.4266" lon="-1.20476">
        <ele>6.686903</ele>
        <time>2022-07-31T14:01:58.000Z</time>
      </trkpt>
      <trkpt lat="49.42656" lon="-1.20471">
        <ele>6.734327</ele>
        <time>2022-07-31T14:01:59.000Z</time>
      </trkpt>
      <trkpt lat="49.42651" lon="-1.20466">
        <ele>6.783542</ele>
        <time>2022-07-31T14:02:00.000Z</time>
      </trkpt>
      <trkpt lat="49.42646" lon="-1.20461">
        <ele>6.833067</ele>
        <time>2022-07-31T14:02:01.000Z</time>
      </trkpt>
      <trkpt lat="49.42641" lon="-1.20456">
        <ele>6.884733</ele>
        <time>2022-07-31T14:02:02.000Z</time>
      </trkpt>
      <trkpt lat="49.42637" lon="-1.20451">
        <ele>6.932158</ele>
        <time>2022-07-31T14:02:03.000Z</time>
      </trkpt>
      <trkpt lat="49.42631" lon="-1.20446">
        <ele>6.98923</ele>
        <time>2022-07-31T14:02:04.000Z</time>
      </trkpt>
      <trkpt lat="49.42625" lon="-1.20441">
        <ele>7.043075</ele>
        <time>2022-07-31T14:02:05.000Z</time>
      </trkpt>
      <trkpt lat="49.4262" lon="-1.20436">
        <ele>7.094741</ele>
        <time>2022-07-31T14:02:06.000Z</time>
      </trkpt>
      <trkpt lat="49.42615" lon="-1.20431">
        <ele>7.148489</ele>
        <time>2022-07-31T14:02:07.000Z</time>
      </trkpt>
      <trkpt lat="49.4261" lon="-1.20427">
        <ele>7.195942</ele>
        <time>2022-07-31T14:02:08.000Z</time>
      </trkpt>
      <trkpt lat="49.42605" lon="-1.20423">
        <ele>7.245361</ele>
        <time>2022-07-31T14:02:09.000Z</time>
      </trkpt>
      <trkpt lat="49.42601" lon="-1.20419">
        <ele>7.286708</ele>
        <time>2022-07-31T14:02:10.000Z</time>
      </trkpt>
      <trkpt lat="49.42597" lon="-1.20415">
        <ele>7.326765</ele>
        <time>2022-07-31T14:02:11.000Z</time>
      </trkpt>
      <trkpt lat="49.42592" lon="-1.20412">
        <ele>7.369352</ele>
        <time>2022-07-31T14:02:12.000Z</time>
      </trkpt>
      <trkpt lat="49.42588" lon="-1.20409">
        <ele>7.411248</ele>
        <time>2022-07-31T14:02:13.000Z</time>
      </trkpt>
      <trkpt lat="49.42584" lon="-1.20406">
        <ele>7.446031</ele>
        <time>2022-07-31T14:02:14.000Z</time>
      </trkpt>
      <trkpt lat="49.4258" lon="-1.20403">
        <ele>7.415328</ele>
        <time>2022-07-31T14:02:15.000Z</time>
      </trkpt>
      <trkpt lat="49.42576" lon="-1.204">
        <ele>7.385356</ele>
        <time>2022-07-31T14:02:16.000Z</time>
      </trkpt>
      <trkpt lat="49.42572" lon="-1.20397">
        <ele>7.35635</ele>
        <time>2022-07-31T14:02:17.000Z</time>
      </trkpt>
      <trkpt lat="49.42568" lon="-1.20394">
        <ele>7.322224</ele>
        <time>2022-07-31T14:02:18.000Z</time>
      </trkpt>
      <trkpt lat="49.42564" lon="-1.20392">
        <ele>7.295681</ele>
        <time>2022-07-31T14:02:19.000Z</time>
      </trkpt>
      <trkpt lat="49.4256" lon="-1.20389">
        <ele>7.266004</ele>
        <time>2022-07-31T14:02:20.000Z</time>
      </trkpt>
      <trkpt lat="49.42557" lon="-1.20387">
        <ele>7.239113</ele>
        <time>2022-07-31T14:02:21.000Z</time>
      </trkpt>
      <trkpt lat="49.42553" lon="-1.20385">
        <ele>7.212734</ele>
        <time>2022-07-31T14:02:22.000Z</time>
      </trkpt>
      <trkpt lat="49.4255" lon="-1.20383">
        <ele>7.18602</ele>
        <time>2022-07-31T14:02:23.000Z</time>
      </trkpt>
      <trkpt lat="49.42547" lon="-1.20381">
        <ele>7.161065</ele>
        <time>2022-07-31T14:02:24.000Z</time>
      </trkpt>
      <trkpt lat="49.42543" lon="-1.20378">
        <ele>7.131555</ele>
        <time>2022-07-31T14:02:25.000Z</time>
      </trkpt>
      <trkpt lat="49.42539" lon="-1.20376">
        <ele>7.102869</ele>
        <time>2022-07-31T14:02:26.000Z</time>
      </trkpt>
      <trkpt lat="49.42535" lon="-1.20375">
        <ele>7.074676</ele>
        <time>2022-07-31T14:02:27.000Z</time>
      </trkpt>
      <trkpt lat="49.42531" lon="-1.20373">
        <ele>7.046446</ele>
        <time>2022-07-31T14:02:28.000Z</time>
      </trkpt>
      <trkpt lat="49.42527" lon="-1.20371">
        <ele>7.018355</ele>
        <time>2022-07-31T14:02:29.000Z</time>
      </trkpt>
      <trkpt lat="49.42524" lon="-1.20369">
        <ele>6.98931</ele>
        <time>2022-07-31T14:02:30.000Z</time>
      </trkpt>
      <trkpt lat="49.42519" lon="-1.20367">
        <ele>6.958922</ele>
        <time>2022-07-31T14:02:31.000Z</time>
      </trkpt>
      <trkpt lat="49.42516" lon="-1.20365">
        <ele>6.929573</ele>
        <time>2022-07-31T14:02:32.000Z</time>
      </trkpt>
      <trkpt lat="49.42511" lon="-1.20363">
        <ele>6.899185</ele>
        <time>2022-07-31T14:02:33.000Z</time>
      </trkpt>
      <trkpt lat="49.42508" lon="-1.20361">
        <ele>6.869675</ele>
        <time>2022-07-31T14:02:34.000Z</time>
      </trkpt>
      <trkpt lat="49.42503" lon="-1.20358">
        <ele>6.838514</ele>
        <time>2022-07-31T14:02:35.000Z</time>
      </trkpt>
      <trkpt lat="49.42499" lon="-1.20355">
        <ele>6.804218</ele>
        <time>2022-07-31T14:02:36.000Z</time>
      </trkpt>
      <trkpt lat="49.42495" lon="-1.20353">
        <ele>6.772057</ele>
        <time>2022-07-31T14:02:37.000Z</time>
      </trkpt>
      <trkpt lat="49.4249" lon="-1.2035">
        <ele>6.736253</ele>
        <time>2022-07-31T14:02:38.000Z</time>
      </trkpt>
      <trkpt lat="49.42486" lon="-1.20347">
        <ele>6.704559</ele>
        <time>2022-07-31T14:02:39.000Z</time>
      </trkpt>
      <trkpt lat="49.42482" lon="-1.20344">
        <ele>6.671443</ele>
        <time>2022-07-31T14:02:40.000Z</time>
      </trkpt>
      <trkpt lat="49.42478" lon="-1.20341">
        <ele>6.641264</ele>
        <time>2022-07-31T14:02:41.000Z</time>
      </trkpt>
      <trkpt lat="49.42474" lon="-1.20338">
        <ele>6.610034</ele>
        <time>2022-07-31T14:02:42.000Z</time>
      </trkpt>
      <trkpt lat="49.4247" lon="-1.20335">
        <ele>6.579855</ele>
        <time>2022-07-31T14:02:43.000Z</time>
      </trkpt>
      <trkpt lat="49.42466" lon="-1.20332">
        <ele>6.549446</ele>
        <time>2022-07-31T14:02:44.000Z</time>
      </trkpt>
      <trkpt lat="49.42462" lon="-1.20329">
        <ele>6.519872</ele>
        <time>2022-07-31T14:02:45.000Z</time>
      </trkpt>
      <trkpt lat="49.42459" lon="-1.20326">
        <ele>6.49265</ele>
        <time>2022-07-31T14:02:46.000Z</time>
      </trkpt>
      <trkpt lat="49.42455" lon="-1.20324">
        <ele>6.463449</ele>
        <time>2022-07-31T14:02:47.000Z</time>
      </trkpt>
      <trkpt lat="49.42452" lon="-1.20321">
        <ele>6.435542</ele>
        <time>2022-07-31T14:02:48.000Z</time>
      </trkpt>
      <trkpt lat="49.42448" lon="-1.20318">
        <ele>6.405363</ele>
        <time>2022-07-31T14:02:49.000Z</time>
      </trkpt>
      <trkpt lat="49.42445" lon="-1.20315">
        <ele>6.377053</ele>
        <time>2022-07-31T14:02:50.000Z</time>
      </trkpt>
      <trkpt lat="49.42441" lon="-1.20311">
        <ele>6.348766</ele>
        <time>2022-07-31T14:02:51.000Z</time>
      </trkpt>
      <trkpt lat="49.42438" lon="-1.20307">
        <ele>6.317956</ele>
        <time>2022-07-31T14:02:52.000Z</time>
      </trkpt>
      <trkpt lat="49.42435" lon="-1.20304">
        <ele>6.289943</ele>
        <time>2022-07-31T14:02:53.000Z</time>
      </trkpt>
      <trkpt lat="49.42432" lon="-1.203">
        <ele>6.263896</ele>
        <time>2022-07-31T14:02:54.000Z</time>
      </trkpt>
      <trkpt lat="49.42428" lon="-1.20297">
        <ele>6.235586</ele>
        <time>2022-07-31T14:02:55.000Z</time>
      </trkpt>
      <trkpt lat="49.42426" lon="-1.20295">
        <ele>6.21342</ele>
        <time>2022-07-31T14:02:56.000Z</time>
      </trkpt>
      <trkpt lat="49.42424" lon="-1.20292">
        <ele>6.195752</ele>
        <time>2022-07-31T14:02:57.000Z</time>
      </trkpt>
      <trkpt lat="49.42422" lon="-1.2029">
        <ele>6.180588</ele>
        <time>2022-07-31T14:02:58.000Z</time>
      </trkpt>
      <trkpt lat="49.42421" lon="-1.20288">
        <ele>6.171065</ele>
        <time>2022-07-31T14:03:00.000Z</time>
      </trkpt>
      <trkpt lat="49.42422" lon="-1.20277">
        <ele>6.139073</ele>
        <time>2022-07-31T14:04:00.000Z</time>
      </trkpt>
      <trkpt lat="49.42424" lon="-1.20271">
        <ele>6.119678</ele>
        <time>2022-07-31T14:04:01.000Z</time>
      </trkpt>
      <trkpt lat="49.42425" lon="-1.20264">
        <ele>6.09948</ele>
        <time>2022-07-31T14:04:02.000Z</time>
      </trkpt>
      <trkpt lat="49.42428" lon="-1.20257">
        <ele>6.076886</ele>
        <time>2022-07-31T14:04:03.000Z</time>
      </trkpt>
      <trkpt lat="49.42429" lon="-1.2025">
        <ele>6.054034</ele>
        <time>2022-07-31T14:04:04.000Z</time>
      </trkpt>
      <trkpt lat="49.42432" lon="-1.20243">
        <ele>6.030461</ele>
        <time>2022-07-31T14:04:05.000Z</time>
      </trkpt>
      <trkpt lat="49.42434" lon="-1.20235">
        <ele>6.006814</ele>
        <time>2022-07-31T14:04:06.000Z</time>
      </trkpt>
      <trkpt lat="49.42437" lon="-1.20228">
        <ele>5.983134</ele>
        <time>2022-07-31T14:04:07.000Z</time>
      </trkpt>
      <trkpt lat="49.42439" lon="-1.20222">
        <ele>5.960227</ele>
        <time>2022-07-31T14:04:08.000Z</time>
      </trkpt>
      <trkpt lat="49.42442" lon="-1.20215">
        <ele>5.937778</ele>
        <time>2022-07-31T14:04:09.000Z</time>
      </trkpt>
      <trkpt lat="49.42445" lon="-1.20209">
        <ele>5.914548</ele>
        <time>2022-07-31T14:04:10.000Z</time>
      </trkpt>
      <trkpt lat="49.42448" lon="-1.20202">
        <ele>5.891087</ele>
        <time>2022-07-31T14:04:11.000Z</time>
      </trkpt>
      <trkpt lat="49.42452" lon="-1.20196">
        <ele>5.867664</ele>
        <time>2022-07-31T14:04:12.000Z</time>
      </trkpt>
      <trkpt lat="49.42456" lon="-1.20191">
        <ele>5.84342</ele>
        <time>2022-07-31T14:04:13.000Z</time>
      </trkpt>
      <trkpt lat="49.4246" lon="-1.20185">
        <ele>5.819082</ele>
        <time>2022-07-31T14:04:14.000Z</time>
      </trkpt>
      <trkpt lat="49.42463" lon="-1.20178">
        <ele>5.795003</ele>
        <time>2022-07-31T14:04:15.000Z</time>
      </trkpt>
      <trkpt lat="49.42467" lon="-1.20172">
        <ele>5.769303</ele>
        <time>2022-07-31T14:04:16.000Z</time>
      </trkpt>
      <trkpt lat="49.4247" lon="-1.20165">
        <ele>5.744437</ele>
        <time>2022-07-31T14:04:17.000Z</time>
      </trkpt>
      <trkpt lat="49.42474" lon="-1.20158">
        <ele>5.718314</ele>
        <time>2022-07-31T14:04:18.000Z</time>
      </trkpt>
      <trkpt lat="49.42477" lon="-1.2015">
        <ele>5.692971</ele>
        <time>2022-07-31T14:04:19.000Z</time>
      </trkpt>
      <trkpt lat="49.4248" lon="-1.20143">
        <ele>5.667613</ele>
        <time>2022-07-31T14:04:20.000Z</time>
      </trkpt>
      <trkpt lat="49.42483" lon="-1.20135">
        <ele>5.640319</ele>
        <time>2022-07-31T14:04:21.000Z</time>
      </trkpt>
      <trkpt lat="49.42485" lon="-1.20127">
        <ele>5.614808</ele>
        <time>2022-07-31T14:04:22.000Z</time>
      </trkpt>
      <trkpt lat="49.42487" lon="-1.20119">
        <ele>5.588856</ele>
        <time>2022-07-31T14:04:23.000Z</time>
      </trkpt>
      <trkpt lat="49.4249" lon="-1.2011">
        <ele>5.562537</ele>
        <time>2022-07-31T14:04:24.000Z</time>
      </trkpt>
      <trkpt lat="49.42492" lon="-1.20102">
        <ele>5.535781</ele>
        <time>2022-07-31T14:04:25.000Z</time>
      </trkpt>
      <trkpt lat="49.42495" lon="-1.20094">
        <ele>5.509199</ele>
        <time>2022-07-31T14:04:26.000Z</time>
      </trkpt>
      <trkpt lat="49.42497" lon="-1.20085">
        <ele>5.482979</ele>
        <time>2022-07-31T14:04:27.000Z</time>
      </trkpt>
      <trkpt lat="49.42499" lon="-1.20077">
        <ele>5.456392</ele>
        <time>2022-07-31T14:04:28.000Z</time>
      </trkpt>
      <trkpt lat="49.42502" lon="-1.20068">
        <ele>5.429094</ele>
        <time>2022-07-31T14:04:29.000Z</time>
      </trkpt>
      <trkpt lat="49.42505" lon="-1.2006">
        <ele>5.400884</ele>
        <time>2022-07-31T14:04:30.000Z</time>
      </trkpt>
      <trkpt lat="49.42507" lon="-1.20051">
        <ele>5.373911</ele>
        <time>2022-07-31T14:04:31.000Z</time>
      </trkpt>
      <trkpt lat="49.42509" lon="-1.20043">
        <ele>5.37094</ele>
        <time>2022-07-31T14:04:32.000Z</time>
      </trkpt>
      <trkpt lat="49.42512" lon="-1.20034">
        <ele>5.367947</ele>
        <time>2022-07-31T14:04:33.000Z</time>
      </trkpt>
      <trkpt lat="49.42515" lon="-1.20026">
        <ele>5.364829</ele>
        <time>2022-07-31T14:04:34.000Z</time>
      </trkpt>
      <trkpt lat="49.42517" lon="-1.20017">
        <ele>5.36174</ele>
        <time>2022-07-31T14:04:35.000Z</time>
      </trkpt>
      <trkpt lat="49.4252" lon="-1.20008">
        <ele>5.35863</ele>
        <time>2022-07-31T14:04:36.000Z</time>
      </trkpt>
      <trkpt lat="49.42523" lon="-1.2">
        <ele>5.35549</ele>
        <time>2022-07-31T14:04:37.000Z</time>
      </trkpt>
      <trkpt lat="49.42525" lon="-1.19991">
        <ele>5.352479</ele>
        <time>2022-07-31T14:04:38.000Z</time>
      </trkpt>
      <trkpt lat="49.42527" lon="-1.19982">
        <ele>5.349386</ele>
        <time>2022-07-31T14:04:39.000Z</time>
      </trkpt>
      <trkpt lat="49.42529" lon="-1.19973">
        <ele>5.346436</ele>
        <time>2022-07-31T14:04:40.000Z</time>
      </trkpt>
      <trkpt lat="49.42531" lon="-1.19964">
        <ele>5.343325</ele>
        <time>2022-07-31T14:04:41.000Z</time>
      </trkpt>
      <trkpt lat="49.42533" lon="-1.19956">
        <ele>5.340206</ele>
        <time>2022-07-31T14:04:42.000Z</time>
      </trkpt>
      <trkpt lat="49.42535" lon="-1.19947">
        <ele>5.337116</ele>
        <time>2022-07-31T14:04:43.000Z</time>
      </trkpt>
      <trkpt lat="49.42538" lon="-1.19938">
        <ele>5.333997</ele>
        <time>2022-07-31T14:04:44.000Z</time>
      </trkpt>
      <trkpt lat="49.42541" lon="-1.19929">
        <ele>5.330828</ele>
        <time>2022-07-31T14:04:45.000Z</time>
      </trkpt>
      <trkpt lat="49.42543" lon="-1.1992">
        <ele>5.327766</ele>
        <time>2022-07-31T14:04:46.000Z</time>
      </trkpt>
      <trkpt lat="49.42545" lon="-1.19911">
        <ele>5.324685</ele>
        <time>2022-07-31T14:04:47.000Z</time>
      </trkpt>
      <trkpt lat="49.42547" lon="-1.19902">
        <ele>5.321642</ele>
        <time>2022-07-31T14:04:48.000Z</time>
      </trkpt>
      <trkpt lat="49.42549" lon="-1.19894">
        <ele>5.318523</ele>
        <time>2022-07-31T14:04:49.000Z</time>
      </trkpt>
      <trkpt lat="49.42552" lon="-1.19885">
        <ele>5.315443</ele>
        <time>2022-07-31T14:04:50.000Z</time>
      </trkpt>
      <trkpt lat="49.42554" lon="-1.19876">
        <ele>5.312353</ele>
        <time>2022-07-31T14:04:51.000Z</time>
      </trkpt>
      <trkpt lat="49.42557" lon="-1.19867">
        <ele>5.309214</ele>
        <time>2022-07-31T14:04:52.000Z</time>
      </trkpt>
      <trkpt lat="49.42559" lon="-1.19859">
        <ele>5.306182</ele>
        <time>2022-07-31T14:04:53.000Z</time>
      </trkpt>
      <trkpt lat="49.42561" lon="-1.1985">
        <ele>5.303131</ele>
        <time>2022-07-31T14:04:54.000Z</time>
      </trkpt>
      <trkpt lat="49.42564" lon="-1.19841">
        <ele>5.300008</ele>
        <time>2022-07-31T14:04:55.000Z</time>
      </trkpt>
      <trkpt lat="49.42566" lon="-1.19832">
        <ele>5.296861</ele>
        <time>2022-07-31T14:04:56.000Z</time>
      </trkpt>
      <trkpt lat="49.42569" lon="-1.19824">
        <ele>5.293829</ele>
        <time>2022-07-31T14:04:57.000Z</time>
      </trkpt>
      <trkpt lat="49.42571" lon="-1.19815">
        <ele>5.290719</ele>
        <time>2022-07-31T14:04:58.000Z</time>
      </trkpt>
      <trkpt lat="49.42573" lon="-1.19806">
        <ele>5.287748</ele>
        <time>2022-07-31T14:04:59.000Z</time>
      </trkpt>
      <trkpt lat="49.42576" lon="-1.19798">
        <ele>5.284728</ele>
        <time>2022-07-31T14:05:00.000Z</time>
      </trkpt>
      <trkpt lat="49.42579" lon="-1.19789">
        <ele>5.305355</ele>
        <time>2022-07-31T14:05:01.000Z</time>
      </trkpt>
      <trkpt lat="49.42581" lon="-1.1978">
        <ele>5.330803</ele>
        <time>2022-07-31T14:05:02.000Z</time>
      </trkpt>
      <trkpt lat="49.42584" lon="-1.19772">
        <ele>5.357198</ele>
        <time>2022-07-31T14:05:03.000Z</time>
      </trkpt>
      <trkpt lat="49.42587" lon="-1.19763">
        <ele>5.381606</ele>
        <time>2022-07-31T14:05:04.000Z</time>
      </trkpt>
      <trkpt lat="49.42589" lon="-1.19755">
        <ele>5.40683</ele>
        <time>2022-07-31T14:05:05.000Z</time>
      </trkpt>
      <trkpt lat="49.42591" lon="-1.19746">
        <ele>5.432447</ele>
        <time>2022-07-31T14:05:06.000Z</time>
      </trkpt>
      <trkpt lat="49.42594" lon="-1.19737">
        <ele>5.457406</ele>
        <time>2022-07-31T14:05:07.000Z</time>
      </trkpt>
      <trkpt lat="49.42597" lon="-1.19729">
        <ele>5.482538</ele>
        <time>2022-07-31T14:05:08.000Z</time>
      </trkpt>
      <trkpt lat="49.42599" lon="-1.1972">
        <ele>5.507497</ele>
        <time>2022-07-31T14:05:09.000Z</time>
      </trkpt>
      <trkpt lat="49.42602" lon="-1.19712">
        <ele>5.533178</ele>
        <time>2022-07-31T14:05:10.000Z</time>
      </trkpt>
      <trkpt lat="49.42605" lon="-1.19703">
        <ele>5.55831</ele>
        <time>2022-07-31T14:05:11.000Z</time>
      </trkpt>
      <trkpt lat="49.42607" lon="-1.19695">
        <ele>5.582786</ele>
        <time>2022-07-31T14:05:12.000Z</time>
      </trkpt>
      <trkpt lat="49.42609" lon="-1.19686">
        <ele>5.607918</ele>
        <time>2022-07-31T14:05:13.000Z</time>
      </trkpt>
      <trkpt lat="49.42612" lon="-1.19678">
        <ele>5.632391</ele>
        <time>2022-07-31T14:05:14.000Z</time>
      </trkpt>
      <trkpt lat="49.42614" lon="-1.1967">
        <ele>5.657039</ele>
        <time>2022-07-31T14:05:15.000Z</time>
      </trkpt>
      <trkpt lat="49.42617" lon="-1.19662">
        <ele>5.681447</ele>
        <time>2022-07-31T14:05:16.000Z</time>
      </trkpt>
      <trkpt lat="49.4262" lon="-1.19653">
        <ele>5.706463</ele>
        <time>2022-07-31T14:05:17.000Z</time>
      </trkpt>
      <trkpt lat="49.42623" lon="-1.19645">
        <ele>5.731907</ele>
        <time>2022-07-31T14:05:18.000Z</time>
      </trkpt>
      <trkpt lat="49.42626" lon="-1.19637">
        <ele>5.756581</ele>
        <time>2022-07-31T14:05:19.000Z</time>
      </trkpt>
      <trkpt lat="49.42629" lon="-1.19629">
        <ele>5.780387</ele>
        <time>2022-07-31T14:05:20.000Z</time>
      </trkpt>
      <trkpt lat="49.42632" lon="-1.19622">
        <ele>5.80461</ele>
        <time>2022-07-31T14:05:21.000Z</time>
      </trkpt>
      <trkpt lat="49.42635" lon="-1.19614">
        <ele>5.827955</ele>
        <time>2022-07-31T14:05:22.000Z</time>
      </trkpt>
      <trkpt lat="49.42638" lon="-1.19607">
        <ele>5.85173</ele>
        <time>2022-07-31T14:05:23.000Z</time>
      </trkpt>
      <trkpt lat="49.42641" lon="-1.196">
        <ele>5.874162</ele>
        <time>2022-07-31T14:05:24.000Z</time>
      </trkpt>
      <trkpt lat="49.42644" lon="-1.19593">
        <ele>5.896149</ele>
        <time>2022-07-31T14:05:25.000Z</time>
      </trkpt>
      <trkpt lat="49.42647" lon="-1.19586">
        <ele>5.917681</ele>
        <time>2022-07-31T14:05:26.000Z</time>
      </trkpt>
      <trkpt lat="49.4265" lon="-1.19579">
        <ele>5.940138</ele>
        <time>2022-07-31T14:05:27.000Z</time>
      </trkpt>
      <trkpt lat="49.42653" lon="-1.19573">
        <ele>5.96167</ele>
        <time>2022-07-31T14:05:28.000Z</time>
      </trkpt>
      <trkpt lat="49.42656" lon="-1.19566">
        <ele>5.98391</ele>
        <time>2022-07-31T14:05:29.000Z</time>
      </trkpt>
      <trkpt lat="49.42659" lon="-1.19559">
        <ele>6.00522</ele>
        <time>2022-07-31T14:05:30.000Z</time>
      </trkpt>
      <trkpt lat="49.42662" lon="-1.19552">
        <ele>6.028131</ele>
        <time>2022-07-31T14:05:31.000Z</time>
      </trkpt>
      <trkpt lat="49.42666" lon="-1.19546">
        <ele>6.04777</ele>
        <time>2022-07-31T14:05:32.000Z</time>
      </trkpt>
      <trkpt lat="49.42669" lon="-1.19539">
        <ele>6.067369</ele>
        <time>2022-07-31T14:05:33.000Z</time>
      </trkpt>
      <trkpt lat="49.42672" lon="-1.19532">
        <ele>6.088434</ele>
        <time>2022-07-31T14:05:34.000Z</time>
      </trkpt>
      <trkpt lat="49.42676" lon="-1.19525">
        <ele>6.10875</ele>
        <time>2022-07-31T14:05:35.000Z</time>
      </trkpt>
      <trkpt lat="49.42679" lon="-1.19518">
        <ele>6.128967</ele>
        <time>2022-07-31T14:05:36.000Z</time>
      </trkpt>
      <trkpt lat="49.42682" lon="-1.19511">
        <ele>6.14938</ele>
        <time>2022-07-31T14:05:37.000Z</time>
      </trkpt>
      <trkpt lat="49.42685" lon="-1.19504">
        <ele>6.170634</ele>
        <time>2022-07-31T14:05:38.000Z</time>
      </trkpt>
      <trkpt lat="49.42689" lon="-1.19497">
        <ele>6.191834</ele>
        <time>2022-07-31T14:05:39.000Z</time>
      </trkpt>
      <trkpt lat="49.42692" lon="-1.1949">
        <ele>6.211835</ele>
        <time>2022-07-31T14:05:40.000Z</time>
      </trkpt>
      <trkpt lat="49.42693" lon="-1.19483">
        <ele>6.230373</ele>
        <time>2022-07-31T14:05:41.000Z</time>
      </trkpt>
      <trkpt lat="49.42694" lon="-1.19476">
        <ele>6.246308</ele>
        <time>2022-07-31T14:05:42.000Z</time>
      </trkpt>
      <trkpt lat="49.42695" lon="-1.1947">
        <ele>6.259951</ele>
        <time>2022-07-31T14:05:43.000Z</time>
      </trkpt>
      <trkpt lat="49.42693" lon="-1.19466">
        <ele>6.271698</ele>
        <time>2022-07-31T14:05:44.000Z</time>
      </trkpt>
      <trkpt lat="49.42692" lon="-1.19462">
        <ele>6.283133</ele>
        <time>2022-07-31T14:05:45.000Z</time>
      </trkpt>
      <trkpt lat="49.42689" lon="-1.19459">
        <ele>6.294241</ele>
        <time>2022-07-31T14:05:46.000Z</time>
      </trkpt>
      <trkpt lat="49.42686" lon="-1.19456">
        <ele>6.306802</ele>
        <time>2022-07-31T14:05:47.000Z</time>
      </trkpt>
      <trkpt lat="49.42684" lon="-1.19453">
        <ele>6.31831</ele>
        <time>2022-07-31T14:05:48.000Z</time>
      </trkpt>
      <trkpt lat="49.42682" lon="-1.19451">
        <ele>6.328488</ele>
        <time>2022-07-31T14:05:49.000Z</time>
      </trkpt>
      <trkpt lat="49.42679" lon="-1.19448">
        <ele>6.338523</ele>
        <time>2022-07-31T14:05:50.000Z</time>
      </trkpt>
      <trkpt lat="49.42678" lon="-1.19447">
        <ele>6.345657</ele>
        <time>2022-07-31T14:05:51.000Z</time>
      </trkpt>
      <trkpt lat="49.42676" lon="-1.19445">
        <ele>6.353531</ele>
        <time>2022-07-31T14:05:54.000Z</time>
      </trkpt>
      <trkpt lat="49.42671" lon="-1.19439">
        <ele>6.375263</ele>
        <time>2022-07-31T14:07:00.000Z</time>
      </trkpt>
      <trkpt lat="49.42669" lon="-1.19436">
        <ele>6.388356</ele>
        <time>2022-07-31T14:07:01.000Z</time>
      </trkpt>
      <trkpt lat="49.42666" lon="-1.19433">
        <ele>6.400723</ele>
        <time>2022-07-31T14:07:02.000Z</time>
      </trkpt>
      <trkpt lat="49.42663" lon="-1.19429">
        <ele>6.41585</ele>
        <time>2022-07-31T14:07:03.000Z</time>
      </trkpt>
      <trkpt lat="49.4266" lon="-1.19425">
        <ele>6.430464</ele>
        <time>2022-07-31T14:07:04.000Z</time>
      </trkpt>
      <trkpt lat="49.42656" lon="-1.1942">
        <ele>6.446749</ele>
        <time>2022-07-31T14:07:05.000Z</time>
      </trkpt>
      <trkpt lat="49.42653" lon="-1.19416">
        <ele>6.463484</ele>
        <time>2022-07-31T14:07:06.000Z</time>
      </trkpt>
      <trkpt lat="49.4265" lon="-1.19411">
        <ele>6.479553</ele>
        <time>2022-07-31T14:07:07.000Z</time>
      </trkpt>
      <trkpt lat="49.42646" lon="-1.19407">
        <ele>6.496136</ele>
        <time>2022-07-31T14:07:08.000Z</time>
      </trkpt>
      <trkpt lat="49.42643" lon="-1.19402">
        <ele>6.512205</ele>
        <time>2022-07-31T14:07:09.000Z</time>
      </trkpt>
      <trkpt lat="49.4264" lon="-1.19397">
        <ele>6.528771</ele>
        <time>2022-07-31T14:07:10.000Z</time>
      </trkpt>
      <trkpt lat="49.42636" lon="-1.19392">
        <ele>6.547397</ele>
        <time>2022-07-31T14:07:11.000Z</time>
      </trkpt>
      <trkpt lat="49.42632" lon="-1.19387">
        <ele>6.565743</ele>
        <time>2022-07-31T14:07:12.000Z</time>
      </trkpt>
      <trkpt lat="49.42628" lon="-1.19382">
        <ele>6.585374</ele>
        <time>2022-07-31T14:07:13.000Z</time>
      </trkpt>
      <trkpt lat="49.42624" lon="-1.19377">
        <ele>6.604034</ele>
        <time>2022-07-31T14:07:14.000Z</time>
      </trkpt>
      <trkpt lat="49.4262" lon="-1.19372">
        <ele>6.622853</ele>
        <time>2022-07-31T14:07:15.000Z</time>
      </trkpt>
      <trkpt lat="49.42616" lon="-1.19366">
        <ele>6.642104</ele>
        <time>2022-07-31T14:07:16.000Z</time>
      </trkpt>
      <trkpt lat="49.42613" lon="-1.19361">
        <ele>6.66045</ele>
        <time>2022-07-31T14:07:17.000Z</time>
      </trkpt>
      <trkpt lat="49.42608" lon="-1.19357">
        <ele>6.680271</ele>
        <time>2022-07-31T14:07:18.000Z</time>
      </trkpt>
      <trkpt lat="49.42604" lon="-1.19352">
        <ele>6.70916</ele>
        <time>2022-07-31T14:07:19.000Z</time>
      </trkpt>
      <trkpt lat="49.426" lon="-1.19347">
        <ele>6.741769</ele>
        <time>2022-07-31T14:07:20.000Z</time>
      </trkpt>
      <trkpt lat="49.42596" lon="-1.19341">
        <ele>6.772999</ele>
        <time>2022-07-31T14:07:21.000Z</time>
      </trkpt>
      <trkpt lat="49.42592" lon="-1.19337">
        <ele>6.803174</ele>
        <time>2022-07-31T14:07:22.000Z</time>
      </trkpt>
      <trkpt lat="49.42589" lon="-1.19332">
        <ele>6.83362</ele>
        <time>2022-07-31T14:07:23.000Z</time>
      </trkpt>
      <trkpt lat="49.42584" lon="-1.19327">
        <ele>6.865746</ele>
        <time>2022-07-31T14:07:24.000Z</time>
      </trkpt>
      <trkpt lat="49.42581" lon="-1.19322">
        <ele>6.895937</ele>
        <time>2022-07-31T14:07:25.000Z</time>
      </trkpt>
      <trkpt lat="49.42577" lon="-1.19318">
        <ele>6.926357</ele>
        <time>2022-07-31T14:07:26.000Z</time>
      </trkpt>
      <trkpt lat="49.42573" lon="-1.19313">
        <ele>6.955686</ele>
        <time>2022-07-31T14:07:27.000Z</time>
      </trkpt>
      <trkpt lat="49.42569" lon="-1.19308">
        <ele>6.987322</ele>
        <time>2022-07-31T14:07:28.000Z</time>
      </trkpt>
      <trkpt lat="49.42565" lon="-1.19303">
        <ele>7.018241</ele>
        <time>2022-07-31T14:07:29.000Z</time>
      </trkpt>
      <trkpt lat="49.42561" lon="-1.19298">
        <ele>7.048432</ele>
        <time>2022-07-31T14:07:30.000Z</time>
      </trkpt>
      <trkpt lat="49.42557" lon="-1.19293">
        <ele>7.078852</ele>
        <time>2022-07-31T14:07:31.000Z</time>
      </trkpt>
      <trkpt lat="49.42554" lon="-1.19288">
        <ele>7.10686</ele>
        <time>2022-07-31T14:07:32.000Z</time>
      </trkpt>
      <trkpt lat="49.4255" lon="-1.19283">
        <ele>7.140687</ele>
        <time>2022-07-31T14:07:33.000Z</time>
      </trkpt>
      <trkpt lat="49.42546" lon="-1.19278">
        <ele>7.170469</ele>
        <time>2022-07-31T14:07:34.000Z</time>
      </trkpt>
      <trkpt lat="49.42542" lon="-1.19273">
        <ele>7.201698</ele>
        <time>2022-07-31T14:07:35.000Z</time>
      </trkpt>
      <trkpt lat="49.42538" lon="-1.19268">
        <ele>7.235782</ele>
        <time>2022-07-31T14:07:36.000Z</time>
      </trkpt>
      <trkpt lat="49.42534" lon="-1.19263">
        <ele>7.265661</ele>
        <time>2022-07-31T14:07:37.000Z</time>
      </trkpt>
      <trkpt lat="49.4253" lon="-1.19258">
        <ele>7.29998</ele>
        <time>2022-07-31T14:07:38.000Z</time>
      </trkpt>
      <trkpt lat="49.42526" lon="-1.19252">
        <ele>7.333122</ele>
        <time>2022-07-31T14:07:39.000Z</time>
      </trkpt>
      <trkpt lat="49.42522" lon="-1.19247">
        <ele>7.367251</ele>
        <time>2022-07-31T14:07:40.000Z</time>
      </trkpt>
      <trkpt lat="49.42518" lon="-1.19241">
        <ele>7.399017</ele>
        <time>2022-07-31T14:07:41.000Z</time>
      </trkpt>
      <trkpt lat="49.42513" lon="-1.19237">
        <ele>7.43219</ele>
        <time>2022-07-31T14:07:42.000Z</time>
      </trkpt>
      <trkpt lat="49.42509" lon="-1.19232">
        <ele>7.464928</ele>
        <time>2022-07-31T14:07:43.000Z</time>
      </trkpt>
      <trkpt lat="49.42504" lon="-1.19228">
        <ele>7.500635</ele>
        <time>2022-07-31T14:07:44.000Z</time>
      </trkpt>
      <trkpt lat="49.42499" lon="-1.19224">
        <ele>7.532952</ele>
        <time>2022-07-31T14:07:45.000Z</time>
      </trkpt>
      <trkpt lat="49.42495" lon="-1.1922">
        <ele>7.564092</ele>
        <time>2022-07-31T14:07:46.000Z</time>
      </trkpt>
      <trkpt lat="49.4249" lon="-1.19217">
        <ele>7.598378</ele>
        <time>2022-07-31T14:07:47.000Z</time>
      </trkpt>
      <trkpt lat="49.42485" lon="-1.19214">
        <ele>7.630038</ele>
        <time>2022-07-31T14:07:48.000Z</time>
      </trkpt>
      <trkpt lat="49.42479" lon="-1.19212">
        <ele>7.664436</ele>
        <time>2022-07-31T14:07:49.000Z</time>
      </trkpt>
      <trkpt lat="49.42474" lon="-1.1921">
        <ele>7.700925</ele>
        <time>2022-07-31T14:07:50.000Z</time>
      </trkpt>
      <trkpt lat="49.42468" lon="-1.19208">
        <ele>7.734845</ele>
        <time>2022-07-31T14:07:51.000Z</time>
      </trkpt>
      <trkpt lat="49.42462" lon="-1.19206">
        <ele>7.771335</ele>
        <time>2022-07-31T14:07:52.000Z</time>
      </trkpt>
      <trkpt lat="49.42457" lon="-1.19204">
        <ele>7.791568</ele>
        <time>2022-07-31T14:07:53.000Z</time>
      </trkpt>
      <trkpt lat="49.42451" lon="-1.19202">
        <ele>7.799124</ele>
        <time>2022-07-31T14:07:54.000Z</time>
      </trkpt>
      <trkpt lat="49.42445" lon="-1.192">
        <ele>7.806645</ele>
        <time>2022-07-31T14:07:55.000Z</time>
      </trkpt>
      <trkpt lat="49.4244" lon="-1.19198">
        <ele>7.814059</ele>
        <time>2022-07-31T14:07:56.000Z</time>
      </trkpt>
      <trkpt lat="49.42434" lon="-1.19196">
        <ele>7.821549</ele>
        <time>2022-07-31T14:07:57.000Z</time>
      </trkpt>
      <trkpt lat="49.42428" lon="-1.19194">
        <ele>7.828963</ele>
        <time>2022-07-31T14:07:58.000Z</time>
      </trkpt>
      <trkpt lat="49.42422" lon="-1.19192">
        <ele>7.836519</ele>
        <time>2022-07-31T14:07:59.000Z</time>
      </trkpt>
      <trkpt lat="49.42417" lon="-1.19191">
        <ele>7.84404</ele>
        <time>2022-07-31T14:08:00.000Z</time>
      </trkpt>
      <trkpt lat="49.42411" lon="-1.19189">
        <ele>7.851101</ele>
        <time>2022-07-31T14:08:01.000Z</time>
      </trkpt>
      <trkpt lat="49.42405" lon="-1.19186">
        <ele>7.858694</ele>
        <time>2022-07-31T14:08:02.000Z</time>
      </trkpt>
      <trkpt lat="49.424" lon="-1.19184">
        <ele>7.865775</ele>
        <time>2022-07-31T14:08:03.000Z</time>
      </trkpt>
      <trkpt lat="49.42395" lon="-1.19182">
        <ele>7.872876</ele>
        <time>2022-07-31T14:08:04.000Z</time>
      </trkpt>
      <trkpt lat="49.42389" lon="-1.1918">
        <ele>7.880432</ele>
        <time>2022-07-31T14:08:05.000Z</time>
      </trkpt>
      <trkpt lat="49.42383" lon="-1.19178">
        <ele>7.888025</ele>
        <time>2022-07-31T14:08:06.000Z</time>
      </trkpt>
      <trkpt lat="49.42378" lon="-1.19176">
        <ele>7.894306</ele>
        <time>2022-07-31T14:08:07.000Z</time>
      </trkpt>
      <trkpt lat="49.42373" lon="-1.19174">
        <ele>7.901062</ele>
        <time>2022-07-31T14:08:08.000Z</time>
      </trkpt>
      <trkpt lat="49.42368" lon="-1.19171">
        <ele>7.907504</ele>
        <time>2022-07-31T14:08:09.000Z</time>
      </trkpt>
      <trkpt lat="49.42363" lon="-1.19168">
        <ele>7.914416</ele>
        <time>2022-07-31T14:08:10.000Z</time>
      </trkpt>
      <trkpt lat="49.42358" lon="-1.19165">
        <ele>7.921034</ele>
        <time>2022-07-31T14:08:11.000Z</time>
      </trkpt>
      <trkpt lat="49.42354" lon="-1.19162">
        <ele>7.927407</ele>
        <time>2022-07-31T14:08:12.000Z</time>
      </trkpt>
      <trkpt lat="49.42349" lon="-1.19159">
        <ele>7.934349</ele>
        <time>2022-07-31T14:08:13.000Z</time>
      </trkpt>
      <trkpt lat="49.42344" lon="-1.19156">
        <ele>7.940967</ele>
        <time>2022-07-31T14:08:14.000Z</time>
      </trkpt>
      <trkpt lat="49.42339" lon="-1.19152">
        <ele>7.947684</ele>
        <time>2022-07-31T14:08:15.000Z</time>
      </trkpt>
      <trkpt lat="49.42335" lon="-1.19149">
        <ele>7.953757</ele>
        <time>2022-07-31T14:08:16.000Z</time>
      </trkpt>
      <trkpt lat="49.42331" lon="-1.19145">
        <ele>7.960054</ele>
        <time>2022-07-31T14:08:17.000Z</time>
      </trkpt>
      <trkpt lat="49.42326" lon="-1.19142">
        <ele>7.966581</ele>
        <time>2022-07-31T14:08:18.000Z</time>
      </trkpt>
      <trkpt lat="49.42321" lon="-1.19138">
        <ele>7.973444</ele>
        <time>2022-07-31T14:08:19.000Z</time>
      </trkpt>
      <trkpt lat="49.42317" lon="-1.19134">
        <ele>7.979597</ele>
        <time>2022-07-31T14:08:20.000Z</time>
      </trkpt>
      <trkpt lat="49.42313" lon="-1.1913">
        <ele>7.986084</ele>
        <time>2022-07-31T14:08:21.000Z</time>
      </trkpt>
      <trkpt lat="49.42308" lon="-1.19126">
        <ele>7.992624</ele>
        <time>2022-07-31T14:08:22.000Z</time>
      </trkpt>
      <trkpt lat="49.42304" lon="-1.19122">
        <ele>7.998904</ele>
        <time>2022-07-31T14:08:23.000Z</time>
      </trkpt>
      <trkpt lat="49.423" lon="-1.19118">
        <ele>8.005512</ele>
        <time>2022-07-31T14:08:24.000Z</time>
      </trkpt>
      <trkpt lat="49.42295" lon="-1.19114">
        <ele>8.012078</ele>
        <time>2022-07-31T14:08:25.000Z</time>
      </trkpt>
      <trkpt lat="49.42291" lon="-1.1911">
        <ele>8.016005</ele>
        <time>2022-07-31T14:08:26.000Z</time>
      </trkpt>
      <trkpt lat="49.42286" lon="-1.19106">
        <ele>8.014243</ele>
        <time>2022-07-31T14:08:27.000Z</time>
      </trkpt>
      <trkpt lat="49.42281" lon="-1.19102">
        <ele>8.012554</ele>
        <time>2022-07-31T14:08:28.000Z</time>
      </trkpt>
      <trkpt lat="49.42277" lon="-1.19098">
        <ele>8.010875</ele>
        <time>2022-07-31T14:08:29.000Z</time>
      </trkpt>
      <trkpt lat="49.42272" lon="-1.19093">
        <ele>8.00903</ele>
        <time>2022-07-31T14:08:30.000Z</time>
      </trkpt>
      <trkpt lat="49.42267" lon="-1.19089">
        <ele>8.007279</ele>
        <time>2022-07-31T14:08:31.000Z</time>
      </trkpt>
      <trkpt lat="49.42263" lon="-1.19085">
        <ele>8.005681</ele>
        <time>2022-07-31T14:08:32.000Z</time>
      </trkpt>
      <trkpt lat="49.42258" lon="-1.19081">
        <ele>8.003836</ele>
        <time>2022-07-31T14:08:33.000Z</time>
      </trkpt>
      <trkpt lat="49.42253" lon="-1.19077">
        <ele>8.002114</ele>
        <time>2022-07-31T14:08:34.000Z</time>
      </trkpt>
      <trkpt lat="49.42248" lon="-1.19073">
        <ele>8.000289</ele>
        <time>2022-07-31T14:08:35.000Z</time>
      </trkpt>
      <trkpt lat="49.42243" lon="-1.19069">
        <ele>7.998576</ele>
        <time>2022-07-31T14:08:36.000Z</time>
      </trkpt>
      <trkpt lat="49.42237" lon="-1.19066">
        <ele>7.99667</ele>
        <time>2022-07-31T14:08:37.000Z</time>
      </trkpt>
      <trkpt lat="49.42233" lon="-1.19062">
        <ele>7.994976</ele>
        <time>2022-07-31T14:08:38.000Z</time>
      </trkpt>
      <trkpt lat="49.42228" lon="-1.19059">
        <ele>7.993219</ele>
        <time>2022-07-31T14:08:39.000Z</time>
      </trkpt>
      <trkpt lat="49.42222" lon="-1.19056">
        <ele>7.991374</ele>
        <time>2022-07-31T14:08:40.000Z</time>
      </trkpt>
      <trkpt lat="49.42217" lon="-1.19053">
        <ele>7.989632</ele>
        <time>2022-07-31T14:08:41.000Z</time>
      </trkpt>
      <trkpt lat="49.42212" lon="-1.1905">
        <ele>7.987803</ele>
        <time>2022-07-31T14:08:42.000Z</time>
      </trkpt>
      <trkpt lat="49.42206" lon="-1.19048">
        <ele>7.986032</ele>
        <time>2022-07-31T14:08:43.000Z</time>
      </trkpt>
      <trkpt lat="49.42201" lon="-1.19046">
        <ele>7.984354</ele>
        <time>2022-07-31T14:08:44.000Z</time>
      </trkpt>
      <trkpt lat="49.42196" lon="-1.19045">
        <ele>7.982569</ele>
        <time>2022-07-31T14:08:45.000Z</time>
      </trkpt>
      <trkpt lat="49.4219" lon="-1.19043">
        <ele>7.980822</ele>
        <time>2022-07-31T14:08:46.000Z</time>
      </trkpt>
      <trkpt lat="49.42185" lon="-1.19041">
        <ele>7.979144</ele>
        <time>2022-07-31T14:08:47.000Z</time>
      </trkpt>
      <trkpt lat="49.42179" lon="-1.19039">
        <ele>7.977234</ele>
        <time>2022-07-31T14:08:48.000Z</time>
      </trkpt>
      <trkpt lat="49.42173" lon="-1.19037">
        <ele>7.975351</ele>
        <time>2022-07-31T14:08:49.000Z</time>
      </trkpt>
      <trkpt lat="49.42168" lon="-1.19036">
        <ele>7.973503</ele>
        <time>2022-07-31T14:08:50.000Z</time>
      </trkpt>
      <trkpt lat="49.42162" lon="-1.19034">
        <ele>7.971725</ele>
        <time>2022-07-31T14:08:51.000Z</time>
      </trkpt>
      <trkpt lat="49.42157" lon="-1.19033">
        <ele>7.970077</ele>
        <time>2022-07-31T14:08:52.000Z</time>
      </trkpt>
      <trkpt lat="49.42151" lon="-1.19031">
        <ele>7.968225</ele>
        <time>2022-07-31T14:08:53.000Z</time>
      </trkpt>
      <trkpt lat="49.42146" lon="-1.19029">
        <ele>7.966325</ele>
        <time>2022-07-31T14:08:54.000Z</time>
      </trkpt>
      <trkpt lat="49.4214" lon="-1.19027">
        <ele>7.964554</ele>
        <time>2022-07-31T14:08:55.000Z</time>
      </trkpt>
      <trkpt lat="49.42134" lon="-1.19025">
        <ele>7.962649</ele>
        <time>2022-07-31T14:08:56.000Z</time>
      </trkpt>
      <trkpt lat="49.42129" lon="-1.19023">
        <ele>7.960954</ele>
        <time>2022-07-31T14:08:57.000Z</time>
      </trkpt>
      <trkpt lat="49.42124" lon="-1.1902">
        <ele>7.958575</ele>
        <time>2022-07-31T14:08:58.000Z</time>
      </trkpt>
      <trkpt lat="49.42118" lon="-1.19017">
        <ele>7.940204</ele>
        <time>2022-07-31T14:08:59.000Z</time>
      </trkpt>
      <trkpt lat="49.42113" lon="-1.19014">
        <ele>7.920405</ele>
        <time>2022-07-31T14:09:00.000Z</time>
      </trkpt>
      <trkpt lat="49.42108" lon="-1.19012">
        <ele>7.903939</ele>
        <time>2022-07-31T14:09:01.000Z</time>
      </trkpt>
      <trkpt lat="49.42102" lon="-1.19009">
        <ele>7.884642</ele>
        <time>2022-07-31T14:09:02.000Z</time>
      </trkpt>
      <trkpt lat="49.42097" lon="-1.19006">
        <ele>7.865962</ele>
        <time>2022-07-31T14:09:03.000Z</time>
      </trkpt>
      <trkpt lat="49.42092" lon="-1.19003">
        <ele>7.848295</ele>
        <time>2022-07-31T14:09:04.000Z</time>
      </trkpt>
      <trkpt lat="49.42086" lon="-1.19001">
        <ele>7.829987</ele>
        <time>2022-07-31T14:09:05.000Z</time>
      </trkpt>
      <trkpt lat="49.42081" lon="-1.18998">
        <ele>7.811431</ele>
        <time>2022-07-31T14:09:06.000Z</time>
      </trkpt>
      <trkpt lat="49.42075" lon="-1.18996">
        <ele>7.793059</ele>
        <time>2022-07-31T14:09:07.000Z</time>
      </trkpt>
      <trkpt lat="49.4207" lon="-1.18993">
        <ele>7.775538</ele>
        <time>2022-07-31T14:09:08.000Z</time>
      </trkpt>
      <trkpt lat="49.42065" lon="-1.1899">
        <ele>7.757945</ele>
        <time>2022-07-31T14:09:09.000Z</time>
      </trkpt>
      <trkpt lat="49.4206" lon="-1.18988">
        <ele>7.740551</ele>
        <time>2022-07-31T14:09:10.000Z</time>
      </trkpt>
      <trkpt lat="49.42054" lon="-1.18985">
        <ele>7.722304</ele>
        <time>2022-07-31T14:09:11.000Z</time>
      </trkpt>
      <trkpt lat="49.42049" lon="-1.18983">
        <ele>7.703933</ele>
        <time>2022-07-31T14:09:12.000Z</time>
      </trkpt>
      <trkpt lat="49.42045" lon="-1.1898">
        <ele>7.688304</ele>
        <time>2022-07-31T14:09:13.000Z</time>
      </trkpt>
      <trkpt lat="49.42039" lon="-1.18977">
        <ele>7.669559</ele>
        <time>2022-07-31T14:09:14.000Z</time>
      </trkpt>
      <trkpt lat="49.42034" lon="-1.18974">
        <ele>7.652949</ele>
        <time>2022-07-31T14:09:15.000Z</time>
      </trkpt>
      <trkpt lat="49.42029" lon="-1.18971">
        <ele>7.634372</ele>
        <time>2022-07-31T14:09:16.000Z</time>
      </trkpt>
      <trkpt lat="49.42023" lon="-1.18968">
        <ele>7.615795</ele>
        <time>2022-07-31T14:09:17.000Z</time>
      </trkpt>
      <trkpt lat="49.42019" lon="-1.18965">
        <ele>7.599109</ele>
        <time>2022-07-31T14:09:18.000Z</time>
      </trkpt>
      <trkpt lat="49.42014" lon="-1.18962">
        <ele>7.582792</ele>
        <time>2022-07-31T14:09:19.000Z</time>
      </trkpt>
      <trkpt lat="49.42009" lon="-1.18958">
        <ele>7.564268</ele>
        <time>2022-07-31T14:09:20.000Z</time>
      </trkpt>
      <trkpt lat="49.42004" lon="-1.18954">
        <ele>7.546604</ele>
        <time>2022-07-31T14:09:21.000Z</time>
      </trkpt>
      <trkpt lat="49.41999" lon="-1.1895">
        <ele>7.528939</ele>
        <time>2022-07-31T14:09:22.000Z</time>
      </trkpt>
      <trkpt lat="49.41995" lon="-1.18946">
        <ele>7.512328</ele>
        <time>2022-07-31T14:09:23.000Z</time>
      </trkpt>
      <trkpt lat="49.4199" lon="-1.18942">
        <ele>7.49551</ele>
        <time>2022-07-31T14:09:24.000Z</time>
      </trkpt>
      <trkpt lat="49.41986" lon="-1.18938">
        <ele>7.477641</ele>
        <time>2022-07-31T14:09:25.000Z</time>
      </trkpt>
      <trkpt lat="49.41981" lon="-1.18934">
        <ele>7.461873</ele>
        <time>2022-07-31T14:09:26.000Z</time>
      </trkpt>
      <trkpt lat="49.41977" lon="-1.1893">
        <ele>7.445335</ele>
        <time>2022-07-31T14:09:27.000Z</time>
      </trkpt>
      <trkpt lat="49.41973" lon="-1.18926">
        <ele>7.42935</ele>
        <time>2022-07-31T14:09:28.000Z</time>
      </trkpt>
      <trkpt lat="49.41968" lon="-1.18922">
        <ele>7.411882</ele>
        <time>2022-07-31T14:09:29.000Z</time>
      </trkpt>
      <trkpt lat="49.41964" lon="-1.18918">
        <ele>7.396006</ele>
        <time>2022-07-31T14:09:30.000Z</time>
      </trkpt>
      <trkpt lat="49.41959" lon="-1.18915">
        <ele>7.379678</ele>
        <time>2022-07-31T14:09:31.000Z</time>
      </trkpt>
      <trkpt lat="49.41955" lon="-1.18911">
        <ele>7.37703</ele>
        <time>2022-07-31T14:09:32.000Z</time>
      </trkpt>
      <trkpt lat="49.4195" lon="-1.18907">
        <ele>7.376765</ele>
        <time>2022-07-31T14:09:33.000Z</time>
      </trkpt>
      <trkpt lat="49.41946" lon="-1.18903">
        <ele>7.376512</ele>
        <time>2022-07-31T14:09:34.000Z</time>
      </trkpt>
      <trkpt lat="49.41941" lon="-1.18899">
        <ele>7.376266</ele>
        <time>2022-07-31T14:09:35.000Z</time>
      </trkpt>
      <trkpt lat="49.41937" lon="-1.18895">
        <ele>7.37603</ele>
        <time>2022-07-31T14:09:36.000Z</time>
      </trkpt>
      <trkpt lat="49.41933" lon="-1.18892">
        <ele>7.375779</ele>
        <time>2022-07-31T14:09:37.000Z</time>
      </trkpt>
      <trkpt lat="49.41929" lon="-1.18888">
        <ele>7.375536</ele>
        <time>2022-07-31T14:09:38.000Z</time>
      </trkpt>
      <trkpt lat="49.41924" lon="-1.18884">
        <ele>7.375284</ele>
        <time>2022-07-31T14:09:39.000Z</time>
      </trkpt>
      <trkpt lat="49.4192" lon="-1.18879">
        <ele>7.375032</ele>
        <time>2022-07-31T14:09:40.000Z</time>
      </trkpt>
      <trkpt lat="49.41916" lon="-1.18875">
        <ele>7.374773</ele>
        <time>2022-07-31T14:09:41.000Z</time>
      </trkpt>
      <trkpt lat="49.41911" lon="-1.18871">
        <ele>7.374513</ele>
        <time>2022-07-31T14:09:42.000Z</time>
      </trkpt>
      <trkpt lat="49.41907" lon="-1.18866">
        <ele>7.374259</ele>
        <time>2022-07-31T14:09:43.000Z</time>
      </trkpt>
      <trkpt lat="49.41902" lon="-1.18861">
        <ele>7.373991</ele>
        <time>2022-07-31T14:09:44.000Z</time>
      </trkpt>
      <trkpt lat="49.41898" lon="-1.18856">
        <ele>7.373736</ele>
        <time>2022-07-31T14:09:45.000Z</time>
      </trkpt>
      <trkpt lat="49.41894" lon="-1.18852">
        <ele>7.373476</ele>
        <time>2022-07-31T14:09:46.000Z</time>
      </trkpt>
      <trkpt lat="49.41889" lon="-1.18847">
        <ele>7.37321</ele>
        <time>2022-07-31T14:09:47.000Z</time>
      </trkpt>
      <trkpt lat="49.41885" lon="-1.18842">
        <ele>7.37295</ele>
        <time>2022-07-31T14:09:48.000Z</time>
      </trkpt>
      <trkpt lat="49.41881" lon="-1.18838">
        <ele>7.372685</ele>
        <time>2022-07-31T14:09:49.000Z</time>
      </trkpt>
      <trkpt lat="49.41877" lon="-1.18833">
        <ele>7.372433</ele>
        <time>2022-07-31T14:09:50.000Z</time>
      </trkpt>
      <trkpt lat="49.41872" lon="-1.18829">
        <ele>7.372169</ele>
        <time>2022-07-31T14:09:51.000Z</time>
      </trkpt>
      <trkpt lat="49.41868" lon="-1.18824">
        <ele>7.371905</ele>
        <time>2022-07-31T14:09:52.000Z</time>
      </trkpt>
      <trkpt lat="49.41863" lon="-1.18819">
        <ele>7.371625</ele>
        <time>2022-07-31T14:09:53.000Z</time>
      </trkpt>
      <trkpt lat="49.41859" lon="-1.18815">
        <ele>7.371371</ele>
        <time>2022-07-31T14:09:54.000Z</time>
      </trkpt>
      <trkpt lat="49.41854" lon="-1.1881">
        <ele>7.371113</ele>
        <time>2022-07-31T14:09:55.000Z</time>
      </trkpt>
      <trkpt lat="49.4185" lon="-1.18805">
        <ele>7.370848</ele>
        <time>2022-07-31T14:09:56.000Z</time>
      </trkpt>
      <trkpt lat="49.41846" lon="-1.188">
        <ele>7.370583</ele>
        <time>2022-07-31T14:09:57.000Z</time>
      </trkpt>
      <trkpt lat="49.41842" lon="-1.18795">
        <ele>7.370327</ele>
        <time>2022-07-31T14:09:58.000Z</time>
      </trkpt>
      <trkpt lat="49.41837" lon="-1.1879">
        <ele>7.370047</ele>
        <time>2022-07-31T14:09:59.000Z</time>
      </trkpt>
      <trkpt lat="49.41833" lon="-1.18786">
        <ele>7.369793</ele>
        <time>2022-07-31T14:10:00.000Z</time>
      </trkpt>
      <trkpt lat="49.41829" lon="-1.18781">
        <ele>7.369538</ele>
        <time>2022-07-31T14:10:01.000Z</time>
      </trkpt>
      <trkpt lat="49.41824" lon="-1.18776">
        <ele>7.369274</ele>
        <time>2022-07-31T14:10:02.000Z</time>
      </trkpt>
      <trkpt lat="49.4182" lon="-1.18771">
        <ele>7.369017</ele>
        <time>2022-07-31T14:10:03.000Z</time>
      </trkpt>
      <trkpt lat="49.41816" lon="-1.18766">
        <ele>7.368755</ele>
        <time>2022-07-31T14:10:04.000Z</time>
      </trkpt>
      <trkpt lat="49.41812" lon="-1.18761">
        <ele>7.368515</ele>
        <time>2022-07-31T14:10:05.000Z</time>
      </trkpt>
      <trkpt lat="49.41808" lon="-1.18756">
        <ele>7.356463</ele>
        <time>2022-07-31T14:10:06.000Z</time>
      </trkpt>
      <trkpt lat="49.41805" lon="-1.18751">
        <ele>7.334058</ele>
        <time>2022-07-31T14:10:07.000Z</time>
      </trkpt>
      <trkpt lat="49.41801" lon="-1.18746">
        <ele>7.310925</ele>
        <time>2022-07-31T14:10:08.000Z</time>
      </trkpt>
      <trkpt lat="49.41797" lon="-1.18742">
        <ele>7.289074</ele>
        <time>2022-07-31T14:10:09.000Z</time>
      </trkpt>
      <trkpt lat="49.41793" lon="-1.18738">
        <ele>7.267754</ele>
        <time>2022-07-31T14:10:10.000Z</time>
      </trkpt>
      <trkpt lat="49.41789" lon="-1.18734">
        <ele>7.246397</ele>
        <time>2022-07-31T14:10:11.000Z</time>
      </trkpt>
      <trkpt lat="49.41785" lon="-1.1873">
        <ele>7.225417</ele>
        <time>2022-07-31T14:10:12.000Z</time>
      </trkpt>
      <trkpt lat="49.41782" lon="-1.18725">
        <ele>7.206249</ele>
        <time>2022-07-31T14:10:13.000Z</time>
      </trkpt>
      <trkpt lat="49.41778" lon="-1.18721">
        <ele>7.184892</ele>
        <time>2022-07-31T14:10:14.000Z</time>
      </trkpt>
      <trkpt lat="49.41774" lon="-1.18718">
        <ele>7.164242</ele>
        <time>2022-07-31T14:10:15.000Z</time>
      </trkpt>
      <trkpt lat="49.41771" lon="-1.18714">
        <ele>7.144722</ele>
        <time>2022-07-31T14:10:16.000Z</time>
      </trkpt>
      <trkpt lat="49.41767" lon="-1.1871">
        <ele>7.123528</ele>
        <time>2022-07-31T14:10:17.000Z</time>
      </trkpt>
      <trkpt lat="49.41764" lon="-1.18706">
        <ele>7.105638</ele>
        <time>2022-07-31T14:10:18.000Z</time>
      </trkpt>
      <trkpt lat="49.4176" lon="-1.18703">
        <ele>7.086618</ele>
        <time>2022-07-31T14:10:19.000Z</time>
      </trkpt>
      <trkpt lat="49.41757" lon="-1.18699">
        <ele>7.067597</ele>
        <time>2022-07-31T14:10:20.000Z</time>
      </trkpt>
      <trkpt lat="49.41754" lon="-1.18696">
        <ele>7.051161</ele>
        <time>2022-07-31T14:10:21.000Z</time>
      </trkpt>
      <trkpt lat="49.41751" lon="-1.18693">
        <ele>7.036342</ele>
        <time>2022-07-31T14:10:22.000Z</time>
      </trkpt>
      <trkpt lat="49.4175" lon="-1.1869">
        <ele>7.026857</ele>
        <time>2022-07-31T14:10:23.000Z</time>
      </trkpt>
      <trkpt lat="49.41749" lon="-1.18688">
        <ele>7.017906</ele>
        <time>2022-07-31T14:10:24.000Z</time>
      </trkpt>
      <trkpt lat="49.41751" lon="-1.18684">
        <ele>7.003991</ele>
        <time>2022-07-31T14:10:26.000Z</time>
      </trkpt>
      <trkpt lat="49.41752" lon="-1.18682">
        <ele>6.994597</ele>
        <time>2022-07-31T14:10:27.000Z</time>
      </trkpt>
      <trkpt lat="49.41754" lon="-1.18679">
        <ele>6.98281</ele>
        <time>2022-07-31T14:10:28.000Z</time>
      </trkpt>
      <trkpt lat="49.41756" lon="-1.18676">
        <ele>6.96966</ele>
        <time>2022-07-31T14:10:29.000Z</time>
      </trkpt>
      <trkpt lat="49.41758" lon="-1.18672">
        <ele>6.955457</ele>
        <time>2022-07-31T14:10:30.000Z</time>
      </trkpt>
      <trkpt lat="49.4176" lon="-1.18668">
        <ele>6.94078</ele>
        <time>2022-07-31T14:10:31.000Z</time>
      </trkpt>
      <trkpt lat="49.41761" lon="-1.18664">
        <ele>6.928057</ele>
        <time>2022-07-31T14:10:32.000Z</time>
      </trkpt>
      <trkpt lat="49.41763" lon="-1.1866">
        <ele>6.914142</ele>
        <time>2022-07-31T14:10:33.000Z</time>
      </trkpt>
      <trkpt lat="49.41765" lon="-1.18656">
        <ele>6.898982</ele>
        <time>2022-07-31T14:10:34.000Z</time>
      </trkpt>
      <trkpt lat="49.41767" lon="-1.18652">
        <ele>6.883822</ele>
        <time>2022-07-31T14:10:35.000Z</time>
      </trkpt>
      <trkpt lat="49.41769" lon="-1.18647">
        <ele>6.866406</ele>
        <time>2022-07-31T14:10:36.000Z</time>
      </trkpt>
      <trkpt lat="49.41771" lon="-1.18641">
        <ele>6.847279</ele>
        <time>2022-07-31T14:10:37.000Z</time>
      </trkpt>
      <trkpt lat="49.41773" lon="-1.18636">
        <ele>6.828825</ele>
        <time>2022-07-31T14:10:38.000Z</time>
      </trkpt>
      <trkpt lat="49.41775" lon="-1.1863">
        <ele>6.808677</ele>
        <time>2022-07-31T14:10:39.000Z</time>
      </trkpt>
      <trkpt lat="49.41778" lon="-1.18625">
        <ele>6.788445</ele>
        <time>2022-07-31T14:10:40.000Z</time>
      </trkpt>
      <trkpt lat="49.41781" lon="-1.1862">
        <ele>6.768297</ele>
        <time>2022-07-31T14:10:41.000Z</time>
      </trkpt>
      <trkpt lat="49.41783" lon="-1.18614">
        <ele>6.747887</ele>
        <time>2022-07-31T14:10:42.000Z</time>
      </trkpt>
      <trkpt lat="49.41786" lon="-1.18608">
        <ele>6.725736</ele>
        <time>2022-07-31T14:10:43.000Z</time>
      </trkpt>
      <trkpt lat="49.41788" lon="-1.18602">
        <ele>6.705607</ele>
        <time>2022-07-31T14:10:44.000Z</time>
      </trkpt>
      <trkpt lat="49.4179" lon="-1.18596">
        <ele>6.685455</ele>
        <time>2022-07-31T14:10:45.000Z</time>
      </trkpt>
      <trkpt lat="49.41794" lon="-1.1859">
        <ele>6.662918</ele>
        <time>2022-07-31T14:10:46.000Z</time>
      </trkpt>
      <trkpt lat="49.41796" lon="-1.18584">
        <ele>6.642045</ele>
        <time>2022-07-31T14:10:47.000Z</time>
      </trkpt>
      <trkpt lat="49.41799" lon="-1.18578">
        <ele>6.62093</ele>
        <time>2022-07-31T14:10:48.000Z</time>
      </trkpt>
      <trkpt lat="49.41801" lon="-1.18572">
        <ele>6.599263</ele>
        <time>2022-07-31T14:10:49.000Z</time>
      </trkpt>
      <trkpt lat="49.41804" lon="-1.18566">
        <ele>6.577381</ele>
        <time>2022-07-31T14:10:50.000Z</time>
      </trkpt>
      <trkpt lat="49.41806" lon="-1.18559">
        <ele>6.554769</ele>
        <time>2022-07-31T14:10:51.000Z</time>
      </trkpt>
      <trkpt lat="49.41809" lon="-1.18553">
        <ele>6.55929</ele>
        <time>2022-07-31T14:10:52.000Z</time>
      </trkpt>
      <trkpt lat="49.41812" lon="-1.18546">
        <ele>6.574221</ele>
        <time>2022-07-31T14:10:53.000Z</time>
      </trkpt>
      <trkpt lat="49.41814" lon="-1.1854">
        <ele>6.588675</ele>
        <time>2022-07-31T14:10:54.000Z</time>
      </trkpt>
      <trkpt lat="49.41816" lon="-1.18533">
        <ele>6.602555</ele>
        <time>2022-07-31T14:10:55.000Z</time>
      </trkpt>
      <trkpt lat="49.41819" lon="-1.18527">
        <ele>6.617171</ele>
        <time>2022-07-31T14:10:56.000Z</time>
      </trkpt>
      <trkpt lat="49.41822" lon="-1.1852">
        <ele>6.632101</ele>
        <time>2022-07-31T14:10:57.000Z</time>
      </trkpt>
      <trkpt lat="49.41824" lon="-1.18514">
        <ele>6.646405</ele>
        <time>2022-07-31T14:10:58.000Z</time>
      </trkpt>
      <trkpt lat="49.41827" lon="-1.18507">
        <ele>6.66151</ele>
        <time>2022-07-31T14:10:59.000Z</time>
      </trkpt>
      <trkpt lat="49.4183" lon="-1.185">
        <ele>6.677408</ele>
        <time>2022-07-31T14:11:00.000Z</time>
      </trkpt>
      <trkpt lat="49.41833" lon="-1.18493">
        <ele>6.692535</ele>
        <time>2022-07-31T14:11:01.000Z</time>
      </trkpt>
      <trkpt lat="49.41836" lon="-1.18486">
        <ele>6.707938</ele>
        <time>2022-07-31T14:11:02.000Z</time>
      </trkpt>
      <trkpt lat="49.41838" lon="-1.18479">
        <ele>6.723207</ele>
        <time>2022-07-31T14:11:03.000Z</time>
      </trkpt>
      <trkpt lat="49.41841" lon="-1.18472">
        <ele>6.738334</ele>
        <time>2022-07-31T14:11:04.000Z</time>
      </trkpt>
      <trkpt lat="49.41844" lon="-1.18466">
        <ele>6.753578</ele>
        <time>2022-07-31T14:11:05.000Z</time>
      </trkpt>
      <trkpt lat="49.41846" lon="-1.18459">
        <ele>6.767929</ele>
        <time>2022-07-31T14:11:06.000Z</time>
      </trkpt>
      <trkpt lat="49.41849" lon="-1.18452">
        <ele>6.782855</ele>
        <time>2022-07-31T14:11:07.000Z</time>
      </trkpt>
      <trkpt lat="49.41851" lon="-1.18446">
        <ele>6.797148</ele>
        <time>2022-07-31T14:11:08.000Z</time>
      </trkpt>
      <trkpt lat="49.41854" lon="-1.18439">
        <ele>6.811764</ele>
        <time>2022-07-31T14:11:09.000Z</time>
      </trkpt>
      <trkpt lat="49.41856" lon="-1.18432">
        <ele>6.82649</ele>
        <time>2022-07-31T14:11:10.000Z</time>
      </trkpt>
      <trkpt lat="49.41859" lon="-1.18425">
        <ele>6.841595</ele>
        <time>2022-07-31T14:11:11.000Z</time>
      </trkpt>
      <trkpt lat="49.41861" lon="-1.18418">
        <ele>6.856722</ele>
        <time>2022-07-31T14:11:12.000Z</time>
      </trkpt>
      <trkpt lat="49.41863" lon="-1.18412">
        <ele>6.870407</ele>
        <time>2022-07-31T14:11:13.000Z</time>
      </trkpt>
      <trkpt lat="49.41866" lon="-1.18406">
        <ele>6.883454</ele>
        <time>2022-07-31T14:11:14.000Z</time>
      </trkpt>
      <trkpt lat="49.41868" lon="-1.184">
        <ele>6.897427</ele>
        <time>2022-07-31T14:11:15.000Z</time>
      </trkpt>
      <trkpt lat="49.4187" lon="-1.18394">
        <ele>6.910639</ele>
        <time>2022-07-31T14:11:16.000Z</time>
      </trkpt>
      <trkpt lat="49.41872" lon="-1.18387">
        <ele>6.923965</ele>
        <time>2022-07-31T14:11:17.000Z</time>
      </trkpt>
      <trkpt lat="49.41875" lon="-1.18381">
        <ele>6.937321</ele>
        <time>2022-07-31T14:11:18.000Z</time>
      </trkpt>
      <trkpt lat="49.41877" lon="-1.18375">
        <ele>6.950818</ele>
        <time>2022-07-31T14:11:19.000Z</time>
      </trkpt>
      <trkpt lat="49.41879" lon="-1.18369">
        <ele>6.964668</ele>
        <time>2022-07-31T14:11:20.000Z</time>
      </trkpt>
      <trkpt lat="49.41882" lon="-1.18363">
        <ele>6.978213</ele>
        <time>2022-07-31T14:11:21.000Z</time>
      </trkpt>
      <trkpt lat="49.41884" lon="-1.18356">
        <ele>6.991758</ele>
        <time>2022-07-31T14:11:22.000Z</time>
      </trkpt>
      <trkpt lat="49.41886" lon="-1.1835">
        <ele>7.005731</ele>
        <time>2022-07-31T14:11:23.000Z</time>
      </trkpt>
      <trkpt lat="49.41889" lon="-1.18344">
        <ele>7.019704</ele>
        <time>2022-07-31T14:11:24.000Z</time>
      </trkpt>
      <trkpt lat="49.41891" lon="-1.18338">
        <ele>7.031638</ele>
        <time>2022-07-31T14:11:25.000Z</time>
      </trkpt>
      <trkpt lat="49.41893" lon="-1.18333">
        <ele>7.043434</ele>
        <time>2022-07-31T14:11:26.000Z</time>
      </trkpt>
      <trkpt lat="49.41895" lon="-1.18327">
        <ele>7.055835</ele>
        <time>2022-07-31T14:11:27.000Z</time>
      </trkpt>
      <trkpt lat="49.41897" lon="-1.18322">
        <ele>7.067606</ele>
        <time>2022-07-31T14:11:28.000Z</time>
      </trkpt>
      <trkpt lat="49.41898" lon="-1.18316">
        <ele>7.072809</ele>
        <time>2022-07-31T14:11:29.000Z</time>
      </trkpt>
      <trkpt lat="49.419" lon="-1.1831">
        <ele>7.072809</ele>
        <time>2022-07-31T14:11:30.000Z</time>
      </trkpt>
      <trkpt lat="49.41902" lon="-1.18304">
        <ele>7.072809</ele>
        <time>2022-07-31T14:11:31.000Z</time>
      </trkpt>
      <trkpt lat="49.41905" lon="-1.18298">
        <ele>7.072809</ele>
        <time>2022-07-31T14:11:32.000Z</time>
      </trkpt>
      <trkpt lat="49.41907" lon="-1.18291">
        <ele>7.072809</ele>
        <time>2022-07-31T14:11:33.000Z</time>
      </trkpt>
      <trkpt lat="49.41909" lon="-1.18284">
        <ele>7.072809</ele>
        <time>2022-07-31T14:11:34.000Z</time>
      </trkpt>
      <trkpt lat="49.41912" lon="-1.18277">
        <ele>7.072809</ele>
        <time>2022-07-31T14:11:35.000Z</time>
      </trkpt>
      <trkpt lat="49.41914" lon="-1.18271">
        <ele>7.072809</ele>
        <time>2022-07-31T14:11:36.000Z</time>
      </trkpt>
      <trkpt lat="49.41917" lon="-1.18265">
        <ele>7.072809</ele>
        <time>2022-07-31T14:11:37.000Z</time>
      </trkpt>
      <trkpt lat="49.41919" lon="-1.18259">
        <ele>7.072809</ele>
        <time>2022-07-31T14:11:38.000Z</time>
      </trkpt>
      <trkpt lat="49.41921" lon="-1.18254">
        <ele>7.072809</ele>
        <time>2022-07-31T14:11:39.000Z</time>
      </trkpt>
      <trkpt lat="49.41923" lon="-1.18248">
        <ele>7.072809</ele>
        <time>2022-07-31T14:11:40.000Z</time>
      </trkpt>
      <trkpt lat="49.41925" lon="-1.18244">
        <ele>7.072809</ele>
        <time>2022-07-31T14:11:41.000Z</time>
      </trkpt>
      <trkpt lat="49.41927" lon="-1.18239">
        <ele>7.072809</ele>
        <time>2022-07-31T14:11:42.000Z</time>
      </trkpt>
      <trkpt lat="49.41928" lon="-1.18235">
        <ele>7.072809</ele>
        <time>2022-07-31T14:11:43.000Z</time>
      </trkpt>
      <trkpt lat="49.4193" lon="-1.18231">
        <ele>7.072809</ele>
        <time>2022-07-31T14:11:44.000Z</time>
      </trkpt>
      <trkpt lat="49.41931" lon="-1.18227">
        <ele>7.072809</ele>
        <time>2022-07-31T14:11:45.000Z</time>
      </trkpt>
      <trkpt lat="49.41933" lon="-1.18223">
        <ele>7.072809</ele>
        <time>2022-07-31T14:11:46.000Z</time>
      </trkpt>
      <trkpt lat="49.41934" lon="-1.1822">
        <ele>7.072809</ele>
        <time>2022-07-31T14:11:47.000Z</time>
      </trkpt>
      <trkpt lat="49.41935" lon="-1.18217">
        <ele>7.072809</ele>
        <time>2022-07-31T14:11:48.000Z</time>
      </trkpt>
      <trkpt lat="49.41936" lon="-1.18214">
        <ele>7.072809</ele>
        <time>2022-07-31T14:11:49.000Z</time>
      </trkpt>
      <trkpt lat="49.41937" lon="-1.18211">
        <ele>7.072809</ele>
        <time>2022-07-31T14:11:50.000Z</time>
      </trkpt>
      <trkpt lat="49.41938" lon="-1.18208">
        <ele>7.072809</ele>
        <time>2022-07-31T14:11:51.000Z</time>
      </trkpt>
      <trkpt lat="49.41938" lon="-1.18205">
        <ele>7.072809</ele>
        <time>2022-07-31T14:11:52.000Z</time>
      </trkpt>
      <trkpt lat="49.41939" lon="-1.18202">
        <ele>7.072809</ele>
        <time>2022-07-31T14:11:53.000Z</time>
      </trkpt>
      <trkpt lat="49.41938" lon="-1.18199">
        <ele>7.072809</ele>
        <time>2022-07-31T14:11:54.000Z</time>
      </trkpt>
      <trkpt lat="49.41937" lon="-1.18195">
        <ele>7.072809</ele>
        <time>2022-07-31T14:11:56.000Z</time>
      </trkpt>
      <trkpt lat="49.41935" lon="-1.18192">
        <ele>7.072809</ele>
        <time>2022-07-31T14:11:58.000Z</time>
      </trkpt>
      <trkpt lat="49.41931" lon="-1.18192">
        <ele>7.072809</ele>
        <time>2022-07-31T14:12:00.000Z</time>
      </trkpt>
      <trkpt lat="49.41929" lon="-1.18192">
        <ele>7.072809</ele>
        <time>2022-07-31T14:12:01.000Z</time>
      </trkpt>
      <trkpt lat="49.41927" lon="-1.18192">
        <ele>7.072809</ele>
        <time>2022-07-31T14:12:02.000Z</time>
      </trkpt>
      <trkpt lat="49.41924" lon="-1.18192">
        <ele>7.072809</ele>
        <time>2022-07-31T14:12:04.000Z</time>
      </trkpt>
      <trkpt lat="49.41922" lon="-1.18189">
        <ele>7.072809</ele>
        <time>2022-07-31T14:12:06.000Z</time>
      </trkpt>
      <trkpt lat="49.41922" lon="-1.18186">
        <ele>7.072809</ele>
        <time>2022-07-31T14:12:08.000Z</time>
      </trkpt>
      <trkpt lat="49.41916" lon="-1.1818">
        <ele>7.072809</ele>
        <time>2022-07-31T14:19:15.000Z</time>
      </trkpt>
      <trkpt lat="49.41914" lon="-1.18178">
        <ele>7.072809</ele>
        <time>2022-07-31T14:19:17.000Z</time>
      </trkpt>
      <trkpt lat="49.41921" lon="-1.18257">
        <ele>2.918024</ele>
        <time>2022-08-01T12:27:44.000Z</time>
      </trkpt>
      <trkpt lat="49.41918" lon="-1.18268">
        <ele>2.918024</ele>
        <time>2022-08-01T12:27:52.000Z</time>
      </trkpt>
      <trkpt lat="49.41916" lon="-1.18272">
        <ele>2.918024</ele>
        <time>2022-08-01T12:27:53.000Z</time>
      </trkpt>
      <trkpt lat="49.41914" lon="-1.18277">
        <ele>2.918024</ele>
        <time>2022-08-01T12:27:54.000Z</time>
      </trkpt>
      <trkpt lat="49.41912" lon="-1.18281">
        <ele>2.918024</ele>
        <time>2022-08-01T12:27:55.000Z</time>
      </trkpt>
      <trkpt lat="49.4191" lon="-1.18288">
        <ele>2.918024</ele>
        <time>2022-08-01T12:27:56.000Z</time>
      </trkpt>
      <trkpt lat="49.41909" lon="-1.18293">
        <ele>2.918024</ele>
        <time>2022-08-01T12:27:57.000Z</time>
      </trkpt>
      <trkpt lat="49.41907" lon="-1.18298">
        <ele>2.918024</ele>
        <time>2022-08-01T12:27:58.000Z</time>
      </trkpt>
      <trkpt lat="49.41906" lon="-1.18303">
        <ele>2.918024</ele>
        <time>2022-08-01T12:27:59.000Z</time>
      </trkpt>
      <trkpt lat="49.41904" lon="-1.18309">
        <ele>2.918024</ele>
        <time>2022-08-01T12:28:00.000Z</time>
      </trkpt>
      <trkpt lat="49.41902" lon="-1.18314">
        <ele>2.918024</ele>
        <time>2022-08-01T12:28:01.000Z</time>
      </trkpt>
      <trkpt lat="49.41901" lon="-1.18317">
        <ele>2.918024</ele>
        <time>2022-08-01T12:28:02.000Z</time>
      </trkpt>
      <trkpt lat="49.419" lon="-1.18323">
        <ele>2.918024</ele>
        <time>2022-08-01T12:28:03.000Z</time>
      </trkpt>
      <trkpt lat="49.41898" lon="-1.18328">
        <ele>2.918024</ele>
        <time>2022-08-01T12:28:04.000Z</time>
      </trkpt>
      <trkpt lat="49.41897" lon="-1.18332">
        <ele>2.918024</ele>
        <time>2022-08-01T12:28:05.000Z</time>
      </trkpt>
      <trkpt lat="49.41895" lon="-1.18337">
        <ele>2.918024</ele>
        <time>2022-08-01T12:28:06.000Z</time>
      </trkpt>
      <trkpt lat="49.41893" lon="-1.18341">
        <ele>2.918024</ele>
        <time>2022-08-01T12:28:07.000Z</time>
      </trkpt>
      <trkpt lat="49.41892" lon="-1.18346">
        <ele>2.918024</ele>
        <time>2022-08-01T12:28:08.000Z</time>
      </trkpt>
      <trkpt lat="49.4189" lon="-1.18351">
        <ele>2.918024</ele>
        <time>2022-08-01T12:28:09.000Z</time>
      </trkpt>
      <trkpt lat="49.41888" lon="-1.18356">
        <ele>2.918024</ele>
        <time>2022-08-01T12:28:10.000Z</time>
      </trkpt>
      <trkpt lat="49.41886" lon="-1.1836">
        <ele>2.918024</ele>
        <time>2022-08-01T12:28:11.000Z</time>
      </trkpt>
      <trkpt lat="49.41884" lon="-1.18365">
        <ele>2.918024</ele>
        <time>2022-08-01T12:28:12.000Z</time>
      </trkpt>
      <trkpt lat="49.41882" lon="-1.18369">
        <ele>2.918024</ele>
        <time>2022-08-01T12:28:13.000Z</time>
      </trkpt>
      <trkpt lat="49.41881" lon="-1.18374">
        <ele>2.918024</ele>
        <time>2022-08-01T12:28:14.000Z</time>
      </trkpt>
      <trkpt lat="49.4188" lon="-1.18379">
        <ele>2.918024</ele>
        <time>2022-08-01T12:28:15.000Z</time>
      </trkpt>
      <trkpt lat="49.41878" lon="-1.18383">
        <ele>2.908655</ele>
        <time>2022-08-01T12:28:16.000Z</time>
      </trkpt>
      <trkpt lat="49.41877" lon="-1.18387">
        <ele>2.898345</ele>
        <time>2022-08-01T12:28:17.000Z</time>
      </trkpt>
      <trkpt lat="49.41876" lon="-1.18392">
        <ele>2.886354</ele>
        <time>2022-08-01T12:28:18.000Z</time>
      </trkpt>
      <trkpt lat="49.41874" lon="-1.18397">
        <ele>2.873846</ele>
        <time>2022-08-01T12:28:19.000Z</time>
      </trkpt>
      <trkpt lat="49.41872" lon="-1.18401">
        <ele>2.861719</ele>
        <time>2022-08-01T12:28:20.000Z</time>
      </trkpt>
      <trkpt lat="49.4187" lon="-1.18406">
        <ele>2.849018</ele>
        <time>2022-08-01T12:28:21.000Z</time>
      </trkpt>
      <trkpt lat="49.41868" lon="-1.18411">
        <ele>2.835542</ele>
        <time>2022-08-01T12:28:22.000Z</time>
      </trkpt>
      <trkpt lat="49.41866" lon="-1.18416">
        <ele>2.822452</ele>
        <time>2022-08-01T12:28:23.000Z</time>
      </trkpt>
      <trkpt lat="49.41864" lon="-1.18421">
        <ele>2.80897</ele>
        <time>2022-08-01T12:28:24.000Z</time>
      </trkpt>
      <trkpt lat="49.41861" lon="-1.18427">
        <ele>2.794191</ele>
        <time>2022-08-01T12:28:25.000Z</time>
      </trkpt>
      <trkpt lat="49.41859" lon="-1.18432">
        <ele>2.779209</ele>
        <time>2022-08-01T12:28:26.000Z</time>
      </trkpt>
      <trkpt lat="49.41856" lon="-1.18438">
        <ele>2.762312</ele>
        <time>2022-08-01T12:28:27.000Z</time>
      </trkpt>
      <trkpt lat="49.41853" lon="-1.18445">
        <ele>2.743932</ele>
        <time>2022-08-01T12:28:28.000Z</time>
      </trkpt>
      <trkpt lat="49.41851" lon="-1.18452">
        <ele>2.72574</ele>
        <time>2022-08-01T12:28:29.000Z</time>
      </trkpt>
      <trkpt lat="49.41848" lon="-1.18459">
        <ele>2.707171</ele>
        <time>2022-08-01T12:28:30.000Z</time>
      </trkpt>
      <trkpt lat="49.41844" lon="-1.18465">
        <ele>2.687923</ele>
        <time>2022-08-01T12:28:31.000Z</time>
      </trkpt>
      <trkpt lat="49.41842" lon="-1.18472">
        <ele>2.669702</ele>
        <time>2022-08-01T12:28:32.000Z</time>
      </trkpt>
      <trkpt lat="49.41839" lon="-1.18479">
        <ele>2.651132</ele>
        <time>2022-08-01T12:28:33.000Z</time>
      </trkpt>
      <trkpt lat="49.41836" lon="-1.18486">
        <ele>2.633081</ele>
        <time>2022-08-01T12:28:34.000Z</time>
      </trkpt>
      <trkpt lat="49.41834" lon="-1.18493">
        <ele>2.615251</ele>
        <time>2022-08-01T12:28:35.000Z</time>
      </trkpt>
      <trkpt lat="49.41831" lon="-1.185">
        <ele>2.59706</ele>
        <time>2022-08-01T12:28:36.000Z</time>
      </trkpt>
      <trkpt lat="49.41829" lon="-1.18506">
        <ele>2.580296</ele>
        <time>2022-08-01T12:28:37.000Z</time>
      </trkpt>
      <trkpt lat="49.41826" lon="-1.18514">
        <ele>2.561681</ele>
        <time>2022-08-01T12:28:38.000Z</time>
      </trkpt>
      <trkpt lat="49.41824" lon="-1.18521">
        <ele>2.5437</ele>
        <time>2022-08-01T12:28:39.000Z</time>
      </trkpt>
      <trkpt lat="49.41822" lon="-1.18528">
        <ele>2.525926</ele>
        <time>2022-08-01T12:28:40.000Z</time>
      </trkpt>
      <trkpt lat="49.41819" lon="-1.18535">
        <ele>2.506784</ele>
        <time>2022-08-01T12:28:41.000Z</time>
      </trkpt>
      <trkpt lat="49.41817" lon="-1.18542">
        <ele>2.489056</ele>
        <time>2022-08-01T12:28:42.000Z</time>
      </trkpt>
      <trkpt lat="49.41814" lon="-1.18549">
        <ele>2.471005</ele>
        <time>2022-08-01T12:28:43.000Z</time>
      </trkpt>
      <trkpt lat="49.41812" lon="-1.18556">
        <ele>2.453175</ele>
        <time>2022-08-01T12:28:44.000Z</time>
      </trkpt>
      <trkpt lat="49.41808" lon="-1.18563">
        <ele>2.434204</ele>
        <time>2022-08-01T12:28:45.000Z</time>
      </trkpt>
      <trkpt lat="49.41806" lon="-1.18569">
        <ele>2.417134</ele>
        <time>2022-08-01T12:28:46.000Z</time>
      </trkpt>
      <trkpt lat="49.41803" lon="-1.18576">
        <ele>2.399318</ele>
        <time>2022-08-01T12:28:47.000Z</time>
      </trkpt>
      <trkpt lat="49.418" lon="-1.18582">
        <ele>2.381501</ele>
        <time>2022-08-01T12:28:48.000Z</time>
      </trkpt>
      <trkpt lat="49.41797" lon="-1.18589">
        <ele>2.363684</ele>
        <time>2022-08-01T12:28:49.000Z</time>
      </trkpt>
      <trkpt lat="49.41795" lon="-1.18596">
        <ele>2.346224</ele>
        <time>2022-08-01T12:28:50.000Z</time>
      </trkpt>
      <trkpt lat="49.41792" lon="-1.18602">
        <ele>2.328407</ele>
        <time>2022-08-01T12:28:51.000Z</time>
      </trkpt>
      <trkpt lat="49.41789" lon="-1.18609">
        <ele>2.310216</ele>
        <time>2022-08-01T12:28:52.000Z</time>
      </trkpt>
      <trkpt lat="49.41786" lon="-1.18616">
        <ele>2.293288</ele>
        <time>2022-08-01T12:28:53.000Z</time>
      </trkpt>
      <trkpt lat="49.41784" lon="-1.18622">
        <ele>2.300554</ele>
        <time>2022-08-01T12:28:54.000Z</time>
      </trkpt>
      <trkpt lat="49.41781" lon="-1.18629">
        <ele>2.308041</ele>
        <time>2022-08-01T12:28:55.000Z</time>
      </trkpt>
      <trkpt lat="49.41778" lon="-1.18636">
        <ele>2.31514</ele>
        <time>2022-08-01T12:28:56.000Z</time>
      </trkpt>
      <trkpt lat="49.41776" lon="-1.18642">
        <ele>2.322205</ele>
        <time>2022-08-01T12:28:57.000Z</time>
      </trkpt>
      <trkpt lat="49.41774" lon="-1.18648">
        <ele>2.328612</ele>
        <time>2022-08-01T12:28:58.000Z</time>
      </trkpt>
      <trkpt lat="49.41771" lon="-1.18655">
        <ele>2.335975</ele>
        <time>2022-08-01T12:28:59.000Z</time>
      </trkpt>
      <trkpt lat="49.41768" lon="-1.18661">
        <ele>2.342454</ele>
        <time>2022-08-01T12:29:00.000Z</time>
      </trkpt>
      <trkpt lat="49.41766" lon="-1.18666">
        <ele>2.34862</ele>
        <time>2022-08-01T12:29:01.000Z</time>
      </trkpt>
      <trkpt lat="49.41764" lon="-1.18672">
        <ele>2.354547</ele>
        <time>2022-08-01T12:29:02.000Z</time>
      </trkpt>
      <trkpt lat="49.41762" lon="-1.18677">
        <ele>2.360341</ele>
        <time>2022-08-01T12:29:03.000Z</time>
      </trkpt>
      <trkpt lat="49.41759" lon="-1.18682">
        <ele>2.366061</ele>
        <time>2022-08-01T12:29:04.000Z</time>
      </trkpt>
      <trkpt lat="49.41757" lon="-1.18686">
        <ele>2.371321</ele>
        <time>2022-08-01T12:29:05.000Z</time>
      </trkpt>
      <trkpt lat="49.41754" lon="-1.18689">
        <ele>2.375915</ele>
        <time>2022-08-01T12:29:06.000Z</time>
      </trkpt>
      <trkpt lat="49.41751" lon="-1.18691">
        <ele>2.380855</ele>
        <time>2022-08-01T12:29:07.000Z</time>
      </trkpt>
      <trkpt lat="49.41748" lon="-1.18692">
        <ele>2.385964</ele>
        <time>2022-08-01T12:29:08.000Z</time>
      </trkpt>
      <trkpt lat="49.41745" lon="-1.18691">
        <ele>2.390149</ele>
        <time>2022-08-01T12:29:09.000Z</time>
      </trkpt>
      <trkpt lat="49.41741" lon="-1.18689">
        <ele>2.395489</ele>
        <time>2022-08-01T12:29:10.000Z</time>
      </trkpt>
      <trkpt lat="49.41738" lon="-1.18686">
        <ele>2.401219</ele>
        <time>2022-08-01T12:29:11.000Z</time>
      </trkpt>
      <trkpt lat="49.41734" lon="-1.18683">
        <ele>2.406679</ele>
        <time>2022-08-01T12:29:12.000Z</time>
      </trkpt>
      <trkpt lat="49.41731" lon="-1.1868">
        <ele>2.412321</ele>
        <time>2022-08-01T12:29:13.000Z</time>
      </trkpt>
      <trkpt lat="49.41727" lon="-1.18677">
        <ele>2.418517</ele>
        <time>2022-08-01T12:29:14.000Z</time>
      </trkpt>
      <trkpt lat="49.41724" lon="-1.18674">
        <ele>2.424294</ele>
        <time>2022-08-01T12:29:15.000Z</time>
      </trkpt>
      <trkpt lat="49.4172" lon="-1.18671">
        <ele>2.43049</ele>
        <time>2022-08-01T12:29:16.000Z</time>
      </trkpt>
      <trkpt lat="49.41717" lon="-1.18668">
        <ele>2.435949</ele>
        <time>2022-08-01T12:29:17.000Z</time>
      </trkpt>
      <trkpt lat="49.41713" lon="-1.18665">
        <ele>2.44168</ele>
        <time>2022-08-01T12:29:18.000Z</time>
      </trkpt>
      <trkpt lat="49.41709" lon="-1.18662">
        <ele>2.447329</ele>
        <time>2022-08-01T12:29:19.000Z</time>
      </trkpt>
      <trkpt lat="49.41706" lon="-1.1866">
        <ele>2.452506</ele>
        <time>2022-08-01T12:29:20.000Z</time>
      </trkpt>
      <trkpt lat="49.41702" lon="-1.18657">
        <ele>2.458381</ele>
        <time>2022-08-01T12:29:21.000Z</time>
      </trkpt>
      <trkpt lat="49.41699" lon="-1.18655">
        <ele>2.463824</ele>
        <time>2022-08-01T12:29:22.000Z</time>
      </trkpt>
      <trkpt lat="49.41695" lon="-1.18653">
        <ele>2.469765</ele>
        <time>2022-08-01T12:29:23.000Z</time>
      </trkpt>
      <trkpt lat="49.41692" lon="-1.18651">
        <ele>2.475105</ele>
        <time>2022-08-01T12:29:24.000Z</time>
      </trkpt>
      <trkpt lat="49.41688" lon="-1.1865">
        <ele>2.480254</ele>
        <time>2022-08-01T12:29:25.000Z</time>
      </trkpt>
      <trkpt lat="49.41685" lon="-1.18648">
        <ele>2.485594</ele>
        <time>2022-08-01T12:29:26.000Z</time>
      </trkpt>
      <trkpt lat="49.41681" lon="-1.18646">
        <ele>2.491343</ele>
        <time>2022-08-01T12:29:27.000Z</time>
      </trkpt>
      <trkpt lat="49.41677" lon="-1.18645">
        <ele>2.49728</ele>
        <time>2022-08-01T12:29:28.000Z</time>
      </trkpt>
      <trkpt lat="49.41672" lon="-1.18644">
        <ele>2.503782</ele>
        <time>2022-08-01T12:29:29.000Z</time>
      </trkpt>
      <trkpt lat="49.41668" lon="-1.18643">
        <ele>2.509349</ele>
        <time>2022-08-01T12:29:30.000Z</time>
      </trkpt>
      <trkpt lat="49.41664" lon="-1.18642">
        <ele>2.515427</ele>
        <time>2022-08-01T12:29:31.000Z</time>
      </trkpt>
      <trkpt lat="49.4166" lon="-1.1864">
        <ele>2.521573</ele>
        <time>2022-08-01T12:29:32.000Z</time>
      </trkpt>
      <trkpt lat="49.41655" lon="-1.18639">
        <ele>2.528039</ele>
        <time>2022-08-01T12:29:33.000Z</time>
      </trkpt>
      <trkpt lat="49.41651" lon="-1.18638">
        <ele>2.534148</ele>
        <time>2022-08-01T12:29:34.000Z</time>
      </trkpt>
      <trkpt lat="49.41647" lon="-1.18637">
        <ele>2.540617</ele>
        <time>2022-08-01T12:29:35.000Z</time>
      </trkpt>
      <trkpt lat="49.41642" lon="-1.18637">
        <ele>2.547481</ele>
        <time>2022-08-01T12:29:36.000Z</time>
      </trkpt>
      <trkpt lat="49.41638" lon="-1.18637">
        <ele>2.551716</ele>
        <time>2022-08-01T12:29:37.000Z</time>
      </trkpt>
      <trkpt lat="49.41634" lon="-1.18636">
        <ele>2.554566</ele>
        <time>2022-08-01T12:29:38.000Z</time>
      </trkpt>
      <trkpt lat="49.41629" lon="-1.18636">
        <ele>2.557617</ele>
        <time>2022-08-01T12:29:39.000Z</time>
      </trkpt>
      <trkpt lat="49.41625" lon="-1.18635">
        <ele>2.560413</ele>
        <time>2022-08-01T12:29:40.000Z</time>
      </trkpt>
      <trkpt lat="49.41621" lon="-1.18635">
        <ele>2.563475</ele>
        <time>2022-08-01T12:29:41.000Z</time>
      </trkpt>
      <trkpt lat="49.41616" lon="-1.18634">
        <ele>2.566338</ele>
        <time>2022-08-01T12:29:42.000Z</time>
      </trkpt>
      <trkpt lat="49.41613" lon="-1.18633">
        <ele>2.568932</ele>
        <time>2022-08-01T12:29:43.000Z</time>
      </trkpt>
      <trkpt lat="49.41608" lon="-1.18634">
        <ele>2.571998</ele>
        <time>2022-08-01T12:29:44.000Z</time>
      </trkpt>
      <trkpt lat="49.41604" lon="-1.18635">
        <ele>2.574866</ele>
        <time>2022-08-01T12:29:45.000Z</time>
      </trkpt>
      <trkpt lat="49.416" lon="-1.18635">
        <ele>2.577651</ele>
        <time>2022-08-01T12:29:46.000Z</time>
      </trkpt>
      <trkpt lat="49.41596" lon="-1.18635">
        <ele>2.580296</ele>
        <time>2022-08-01T12:29:47.000Z</time>
      </trkpt>
      <trkpt lat="49.41592" lon="-1.18635">
        <ele>2.58267</ele>
        <time>2022-08-01T12:29:48.000Z</time>
      </trkpt>
      <trkpt lat="49.41589" lon="-1.18635">
        <ele>2.58484</ele>
        <time>2022-08-01T12:29:49.000Z</time>
      </trkpt>
      <trkpt lat="49.41585" lon="-1.18636">
        <ele>2.587434</ele>
        <time>2022-08-01T12:29:50.000Z</time>
      </trkpt>
      <trkpt lat="49.41582" lon="-1.18636">
        <ele>2.589619</ele>
        <time>2022-08-01T12:29:51.000Z</time>
      </trkpt>
      <trkpt lat="49.4158" lon="-1.18637">
        <ele>2.591436</ele>
        <time>2022-08-01T12:29:52.000Z</time>
      </trkpt>
      <trkpt lat="49.41577" lon="-1.18638">
        <ele>2.592979</ele>
        <time>2022-08-01T12:29:53.000Z</time>
      </trkpt>
      <trkpt lat="49.41575" lon="-1.18639">
        <ele>2.594286</ele>
        <time>2022-08-01T12:29:54.000Z</time>
      </trkpt>
      <trkpt lat="49.41573" lon="-1.18639">
        <ele>2.595642</ele>
        <time>2022-08-01T12:29:55.000Z</time>
      </trkpt>
      <trkpt lat="49.41572" lon="-1.18639">
        <ele>2.59693</ele>
        <time>2022-08-01T12:29:57.000Z</time>
      </trkpt>
      <trkpt lat="49.41566" lon="-1.18638">
        <ele>2.600617</ele>
        <time>2022-08-01T12:31:07.000Z</time>
      </trkpt>
      <trkpt lat="49.41562" lon="-1.18638">
        <ele>2.603261</ele>
        <time>2022-08-01T12:31:08.000Z</time>
      </trkpt>
      <trkpt lat="49.41558" lon="-1.18638">
        <ele>2.606248</ele>
        <time>2022-08-01T12:31:09.000Z</time>
      </trkpt>
      <trkpt lat="49.41553" lon="-1.18639">
        <ele>2.609504</ele>
        <time>2022-08-01T12:31:10.000Z</time>
      </trkpt>
      <trkpt lat="49.41548" lon="-1.18639">
        <ele>2.61276</ele>
        <time>2022-08-01T12:31:11.000Z</time>
      </trkpt>
      <trkpt lat="49.41543" lon="-1.18639">
        <ele>2.616488</ele>
        <time>2022-08-01T12:31:12.000Z</time>
      </trkpt>
      <trkpt lat="49.41538" lon="-1.18638">
        <ele>2.61995</ele>
        <time>2022-08-01T12:31:13.000Z</time>
      </trkpt>
      <trkpt lat="49.41532" lon="-1.18638">
        <ele>2.623612</ele>
        <time>2022-08-01T12:31:14.000Z</time>
      </trkpt>
      <trkpt lat="49.41527" lon="-1.18637">
        <ele>2.62715</ele>
        <time>2022-08-01T12:31:15.000Z</time>
      </trkpt>
      <trkpt lat="49.41522" lon="-1.18637">
        <ele>2.630625</ele>
        <time>2022-08-01T12:31:16.000Z</time>
      </trkpt>
      <trkpt lat="49.41517" lon="-1.18636">
        <ele>2.634298</ele>
        <time>2022-08-01T12:31:17.000Z</time>
      </trkpt>
      <trkpt lat="49.41511" lon="-1.18635">
        <ele>2.638032</ele>
        <time>2022-08-01T12:31:18.000Z</time>
      </trkpt>
      <trkpt lat="49.41506" lon="-1.18635">
        <ele>2.641499</ele>
        <time>2022-08-01T12:31:19.000Z</time>
      </trkpt>
      <trkpt lat="49.41501" lon="-1.18634">
        <ele>2.644969</ele>
        <time>2022-08-01T12:31:20.000Z</time>
      </trkpt>
      <trkpt lat="49.41495" lon="-1.18633">
        <ele>2.648646</ele>
        <time>2022-08-01T12:31:21.000Z</time>
      </trkpt>
      <trkpt lat="49.4149" lon="-1.18632">
        <ele>2.652193</ele>
        <time>2022-08-01T12:31:22.000Z</time>
      </trkpt>
      <trkpt lat="49.41485" lon="-1.18632">
        <ele>2.655863</ele>
        <time>2022-08-01T12:31:23.000Z</time>
      </trkpt>
      <trkpt lat="49.41479" lon="-1.1863">
        <ele>2.659574</ele>
        <time>2022-08-01T12:31:24.000Z</time>
      </trkpt>
      <trkpt lat="49.41475" lon="-1.18629">
        <ele>2.662878</ele>
        <time>2022-08-01T12:31:25.000Z</time>
      </trkpt>
      <trkpt lat="49.41469" lon="-1.18628">
        <ele>2.66643</ele>
        <time>2022-08-01T12:31:26.000Z</time>
      </trkpt>
      <trkpt lat="49.41465" lon="-1.18626">
        <ele>2.669825</ele>
        <time>2022-08-01T12:31:27.000Z</time>
      </trkpt>
      <trkpt lat="49.4146" lon="-1.18624">
        <ele>2.668354</ele>
        <time>2022-08-01T12:31:28.000Z</time>
      </trkpt>
      <trkpt lat="49.41455" lon="-1.18622">
        <ele>2.657911</ele>
        <time>2022-08-01T12:31:29.000Z</time>
      </trkpt>
      <trkpt lat="49.4145" lon="-1.1862">
        <ele>2.646786</ele>
        <time>2022-08-01T12:31:30.000Z</time>
      </trkpt>
      <trkpt lat="49.41445" lon="-1.18618">
        <ele>2.636309</ele>
        <time>2022-08-01T12:31:31.000Z</time>
      </trkpt>
      <trkpt lat="49.41439" lon="-1.18617">
        <ele>2.62471</ele>
        <time>2022-08-01T12:31:32.000Z</time>
      </trkpt>
      <trkpt lat="49.41435" lon="-1.18616">
        <ele>2.614452</ele>
        <time>2022-08-01T12:31:33.000Z</time>
      </trkpt>
      <trkpt lat="49.41429" lon="-1.18615">
        <ele>2.603338</ele>
        <time>2022-08-01T12:31:34.000Z</time>
      </trkpt>
      <trkpt lat="49.41424" lon="-1.18613">
        <ele>2.592308</ele>
        <time>2022-08-01T12:31:35.000Z</time>
      </trkpt>
      <trkpt lat="49.41419" lon="-1.18611">
        <ele>2.581182</ele>
        <time>2022-08-01T12:31:36.000Z</time>
      </trkpt>
      <trkpt lat="49.41414" lon="-1.18609">
        <ele>2.569442</ele>
        <time>2022-08-01T12:31:37.000Z</time>
      </trkpt>
      <trkpt lat="49.41409" lon="-1.18607">
        <ele>2.558259</ele>
        <time>2022-08-01T12:31:38.000Z</time>
      </trkpt>
      <trkpt lat="49.41404" lon="-1.18606">
        <ele>2.547373</ele>
        <time>2022-08-01T12:31:39.000Z</time>
      </trkpt>
      <trkpt lat="49.41398" lon="-1.18605">
        <ele>2.535877</ele>
        <time>2022-08-01T12:31:40.000Z</time>
      </trkpt>
      <trkpt lat="49.41393" lon="-1.18604">
        <ele>2.525465</ele>
        <time>2022-08-01T12:31:41.000Z</time>
      </trkpt>
      <trkpt lat="49.41389" lon="-1.18602">
        <ele>2.515163</ele>
        <time>2022-08-01T12:31:42.000Z</time>
      </trkpt>
      <trkpt lat="49.41383" lon="-1.18601">
        <ele>2.503356</ele>
        <time>2022-08-01T12:31:43.000Z</time>
      </trkpt>
      <trkpt lat="49.41378" lon="-1.18599">
        <ele>2.492381</ele>
        <time>2022-08-01T12:31:44.000Z</time>
      </trkpt>
      <trkpt lat="49.41373" lon="-1.18597">
        <ele>2.481289</ele>
        <time>2022-08-01T12:31:45.000Z</time>
      </trkpt>
      <trkpt lat="49.41368" lon="-1.18596">
        <ele>2.470314</ele>
        <time>2022-08-01T12:31:46.000Z</time>
      </trkpt>
      <trkpt lat="49.41363" lon="-1.18595">
        <ele>2.460012</ele>
        <time>2022-08-01T12:31:47.000Z</time>
      </trkpt>
      <trkpt lat="49.41358" lon="-1.18593">
        <ele>2.448981</ele>
        <time>2022-08-01T12:31:48.000Z</time>
      </trkpt>
      <trkpt lat="49.41353" lon="-1.18591">
        <ele>2.438628</ele>
        <time>2022-08-01T12:31:49.000Z</time>
      </trkpt>
      <trkpt lat="49.41348" lon="-1.1859">
        <ele>2.426742</ele>
        <time>2022-08-01T12:31:50.000Z</time>
      </trkpt>
      <trkpt lat="49.41343" lon="-1.18588">
        <ele>2.416841</ele>
        <time>2022-08-01T12:31:51.000Z</time>
      </trkpt>
      <trkpt lat="49.41338" lon="-1.18586">
        <ele>2.40578</ele>
        <time>2022-08-01T12:31:52.000Z</time>
      </trkpt>
      <trkpt lat="49.41333" lon="-1.18584">
        <ele>2.395304</ele>
        <time>2022-08-01T12:31:53.000Z</time>
      </trkpt>
      <trkpt lat="49.41328" lon="-1.18581">
        <ele>2.383989</ele>
        <time>2022-08-01T12:31:54.000Z</time>
      </trkpt>
      <trkpt lat="49.41324" lon="-1.18579">
        <ele>2.373875</ele>
        <time>2022-08-01T12:31:55.000Z</time>
      </trkpt>
      <trkpt lat="49.41318" lon="-1.18576">
        <ele>2.36256</ele>
        <time>2022-08-01T12:31:56.000Z</time>
      </trkpt>
      <trkpt lat="49.41314" lon="-1.18574">
        <ele>2.352399</ele>
        <time>2022-08-01T12:31:57.000Z</time>
      </trkpt>
      <trkpt lat="49.41309" lon="-1.18571">
        <ele>2.342085</ele>
        <time>2022-08-01T12:31:58.000Z</time>
      </trkpt>
      <trkpt lat="49.41305" lon="-1.18568">
        <ele>2.331233</ele>
        <time>2022-08-01T12:31:59.000Z</time>
      </trkpt>
      <trkpt lat="49.413" lon="-1.18565">
        <ele>2.320174</ele>
        <time>2022-08-01T12:32:00.000Z</time>
      </trkpt>
      <trkpt lat="49.41295" lon="-1.18561">
        <ele>2.308312</ele>
        <time>2022-08-01T12:32:01.000Z</time>
      </trkpt>
      <trkpt lat="49.4129" lon="-1.18558">
        <ele>2.297944</ele>
        <time>2022-08-01T12:32:02.000Z</time>
      </trkpt>
      <trkpt lat="49.41285" lon="-1.18555">
        <ele>2.298332</ele>
        <time>2022-08-01T12:32:03.000Z</time>
      </trkpt>
      <trkpt lat="49.4128" lon="-1.18552">
        <ele>2.309554</ele>
        <time>2022-08-01T12:32:04.000Z</time>
      </trkpt>
      <trkpt lat="49.41275" lon="-1.18549">
        <ele>2.32117</ele>
        <time>2022-08-01T12:32:05.000Z</time>
      </trkpt>
      <trkpt lat="49.4127" lon="-1.18546">
        <ele>2.331987</ele>
        <time>2022-08-01T12:32:06.000Z</time>
      </trkpt>
      <trkpt lat="49.41266" lon="-1.18542">
        <ele>2.342682</ele>
        <time>2022-08-01T12:32:07.000Z</time>
      </trkpt>
      <trkpt lat="49.41262" lon="-1.18539">
        <ele>2.352674</ele>
        <time>2022-08-01T12:32:08.000Z</time>
      </trkpt>
      <trkpt lat="49.41257" lon="-1.18535">
        <ele>2.36485</ele>
        <time>2022-08-01T12:32:09.000Z</time>
      </trkpt>
      <trkpt lat="49.41252" lon="-1.18532">
        <ele>2.375476</ele>
        <time>2022-08-01T12:32:10.000Z</time>
      </trkpt>
      <trkpt lat="49.41248" lon="-1.18529">
        <ele>2.38617</ele>
        <time>2022-08-01T12:32:11.000Z</time>
      </trkpt>
      <trkpt lat="49.41243" lon="-1.18526">
        <ele>2.397284</ele>
        <time>2022-08-01T12:32:12.000Z</time>
      </trkpt>
      <trkpt lat="49.41239" lon="-1.18523">
        <ele>2.407218</ele>
        <time>2022-08-01T12:32:13.000Z</time>
      </trkpt>
      <trkpt lat="49.41235" lon="-1.1852">
        <ele>2.416958</ele>
        <time>2022-08-01T12:32:14.000Z</time>
      </trkpt>
      <trkpt lat="49.41231" lon="-1.18517">
        <ele>2.426132</ele>
        <time>2022-08-01T12:32:15.000Z</time>
      </trkpt>
      <trkpt lat="49.41227" lon="-1.18515">
        <ele>2.434141</ele>
        <time>2022-08-01T12:32:16.000Z</time>
      </trkpt>
      <trkpt lat="49.41225" lon="-1.18513">
        <ele>2.440098</ele>
        <time>2022-08-01T12:32:17.000Z</time>
      </trkpt>
      <trkpt lat="49.41222" lon="-1.18512">
        <ele>2.445153</ele>
        <time>2022-08-01T12:32:18.000Z</time>
      </trkpt>
      <trkpt lat="49.4122" lon="-1.18511">
        <ele>2.450209</ele>
        <time>2022-08-01T12:32:19.000Z</time>
      </trkpt>
      <trkpt lat="49.41218" lon="-1.18508">
        <ele>2.456172</ele>
        <time>2022-08-01T12:32:20.000Z</time>
      </trkpt>
      <trkpt lat="49.41215" lon="-1.18505">
        <ele>2.464211</ele>
        <time>2022-08-01T12:32:21.000Z</time>
      </trkpt>
      <trkpt lat="49.41211" lon="-1.18503">
        <ele>2.472489</ele>
        <time>2022-08-01T12:32:22.000Z</time>
      </trkpt>
      <trkpt lat="49.41208" lon="-1.18501">
        <ele>2.480066</ele>
        <time>2022-08-01T12:32:23.000Z</time>
      </trkpt>
      <trkpt lat="49.41205" lon="-1.18498">
        <ele>2.487643</ele>
        <time>2022-08-01T12:32:24.000Z</time>
      </trkpt>
      <trkpt lat="49.41201" lon="-1.18496">
        <ele>2.496043</ele>
        <time>2022-08-01T12:32:25.000Z</time>
      </trkpt>
      <trkpt lat="49.41197" lon="-1.18493">
        <ele>2.505217</ele>
        <time>2022-08-01T12:32:26.000Z</time>
      </trkpt>
      <trkpt lat="49.41194" lon="-1.1849">
        <ele>2.51368</ele>
        <time>2022-08-01T12:32:27.000Z</time>
      </trkpt>
      <trkpt lat="49.4119" lon="-1.18487">
        <ele>2.522487</ele>
        <time>2022-08-01T12:32:28.000Z</time>
      </trkpt>
      <trkpt lat="49.41187" lon="-1.18483">
        <ele>2.531918</ele>
        <time>2022-08-01T12:32:29.000Z</time>
      </trkpt>
      <trkpt lat="49.41182" lon="-1.1848">
        <ele>2.542036</ele>
        <time>2022-08-01T12:32:30.000Z</time>
      </trkpt>
      <trkpt lat="49.41179" lon="-1.18477">
        <ele>2.551538</ele>
        <time>2022-08-01T12:32:31.000Z</time>
      </trkpt>
      <trkpt lat="49.41175" lon="-1.18473">
        <ele>2.560674</ele>
        <time>2022-08-01T12:32:32.000Z</time>
      </trkpt>
      <trkpt lat="49.41172" lon="-1.1847">
        <ele>2.56963</ele>
        <time>2022-08-01T12:32:33.000Z</time>
      </trkpt>
      <trkpt lat="49.41168" lon="-1.18466">
        <ele>2.577819</ele>
        <time>2022-08-01T12:32:34.000Z</time>
      </trkpt>
      <trkpt lat="49.41165" lon="-1.18464">
        <ele>2.586858</ele>
        <time>2022-08-01T12:32:35.000Z</time>
      </trkpt>
      <trkpt lat="49.4116" lon="-1.18461">
        <ele>2.596622</ele>
        <time>2022-08-01T12:32:36.000Z</time>
      </trkpt>
      <trkpt lat="49.41157" lon="-1.18458">
        <ele>2.60585</ele>
        <time>2022-08-01T12:32:37.000Z</time>
      </trkpt>
      <trkpt lat="49.41153" lon="-1.18455">
        <ele>2.615142</ele>
        <time>2022-08-01T12:32:38.000Z</time>
      </trkpt>
      <trkpt lat="49.41149" lon="-1.18452">
        <ele>2.624882</ele>
        <time>2022-08-01T12:32:39.000Z</time>
      </trkpt>
      <trkpt lat="49.41144" lon="-1.18448">
        <ele>2.635197</ele>
        <time>2022-08-01T12:32:40.000Z</time>
      </trkpt>
      <trkpt lat="49.4114" lon="-1.18445">
        <ele>2.646014</ele>
        <time>2022-08-01T12:32:41.000Z</time>
      </trkpt>
      <trkpt lat="49.41136" lon="-1.18441">
        <ele>2.65497</ele>
        <time>2022-08-01T12:32:42.000Z</time>
      </trkpt>
      <trkpt lat="49.41132" lon="-1.18438">
        <ele>2.665917</ele>
        <time>2022-08-01T12:32:43.000Z</time>
      </trkpt>
      <trkpt lat="49.41128" lon="-1.18434">
        <ele>2.676114</ele>
        <time>2022-08-01T12:32:44.000Z</time>
      </trkpt>
      <trkpt lat="49.41124" lon="-1.1843">
        <ele>2.68089</ele>
        <time>2022-08-01T12:32:45.000Z</time>
      </trkpt>
      <trkpt lat="49.4112" lon="-1.18426">
        <ele>2.684709</ele>
        <time>2022-08-01T12:32:46.000Z</time>
      </trkpt>
      <trkpt lat="49.41115" lon="-1.18422">
        <ele>2.688856</ele>
        <time>2022-08-01T12:32:47.000Z</time>
      </trkpt>
      <trkpt lat="49.41111" lon="-1.18419">
        <ele>2.692833</ele>
        <time>2022-08-01T12:32:48.000Z</time>
      </trkpt>
      <trkpt lat="49.41106" lon="-1.18415">
        <ele>2.697072</ele>
        <time>2022-08-01T12:32:49.000Z</time>
      </trkpt>
      <trkpt lat="49.41102" lon="-1.18411">
        <ele>2.701002</ele>
        <time>2022-08-01T12:32:50.000Z</time>
      </trkpt>
      <trkpt lat="49.41098" lon="-1.18407">
        <ele>2.704943</ele>
        <time>2022-08-01T12:32:51.000Z</time>
      </trkpt>
      <trkpt lat="49.41093" lon="-1.18403">
        <ele>2.709015</ele>
        <time>2022-08-01T12:32:52.000Z</time>
      </trkpt>
      <trkpt lat="49.41089" lon="-1.184">
        <ele>2.713038</ele>
        <time>2022-08-01T12:32:53.000Z</time>
      </trkpt>
      <trkpt lat="49.41084" lon="-1.18396">
        <ele>2.717298</ele>
        <time>2022-08-01T12:32:54.000Z</time>
      </trkpt>
      <trkpt lat="49.41079" lon="-1.18393">
        <ele>2.721299</ele>
        <time>2022-08-01T12:32:55.000Z</time>
      </trkpt>
      <trkpt lat="49.41075" lon="-1.18389">
        <ele>2.725161</ele>
        <time>2022-08-01T12:32:56.000Z</time>
      </trkpt>
      <trkpt lat="49.4107" lon="-1.18385">
        <ele>2.729468</ele>
        <time>2022-08-01T12:32:57.000Z</time>
      </trkpt>
      <trkpt lat="49.41066" lon="-1.18381">
        <ele>2.733615</ele>
        <time>2022-08-01T12:32:58.000Z</time>
      </trkpt>
      <trkpt lat="49.41062" lon="-1.18378">
        <ele>2.737356</ele>
        <time>2022-08-01T12:32:59.000Z</time>
      </trkpt>
      <trkpt lat="49.41057" lon="-1.18374">
        <ele>2.741427</ele>
        <time>2022-08-01T12:33:00.000Z</time>
      </trkpt>
      <trkpt lat="49.41053" lon="-1.18371">
        <ele>2.74519</ele>
        <time>2022-08-01T12:33:01.000Z</time>
      </trkpt>
      <trkpt lat="49.41048" lon="-1.18367">
        <ele>2.749364</ele>
        <time>2022-08-01T12:33:02.000Z</time>
      </trkpt>
      <trkpt lat="49.41044" lon="-1.18364">
        <ele>2.753298</ele>
        <time>2022-08-01T12:33:03.000Z</time>
      </trkpt>
      <trkpt lat="49.41039" lon="-1.18361">
        <ele>2.757137</ele>
        <time>2022-08-01T12:33:04.000Z</time>
      </trkpt>
      <trkpt lat="49.41035" lon="-1.18358">
        <ele>2.761252</ele>
        <time>2022-08-01T12:33:05.000Z</time>
      </trkpt>
      <trkpt lat="49.4103" lon="-1.18356">
        <ele>2.765124</ele>
        <time>2022-08-01T12:33:06.000Z</time>
      </trkpt>
      <trkpt lat="49.41026" lon="-1.18353">
        <ele>2.768978</ele>
        <time>2022-08-01T12:33:07.000Z</time>
      </trkpt>
      <trkpt lat="49.41021" lon="-1.1835">
        <ele>2.772673</ele>
        <time>2022-08-01T12:33:08.000Z</time>
      </trkpt>
      <trkpt lat="49.41016" lon="-1.18347">
        <ele>2.776959</ele>
        <time>2022-08-01T12:33:09.000Z</time>
      </trkpt>
      <trkpt lat="49.41012" lon="-1.18345">
        <ele>2.780776</ele>
        <time>2022-08-01T12:33:10.000Z</time>
      </trkpt>
      <trkpt lat="49.41007" lon="-1.18342">
        <ele>2.785114</ele>
        <time>2022-08-01T12:33:11.000Z</time>
      </trkpt>
      <trkpt lat="49.41002" lon="-1.1834">
        <ele>2.789125</ele>
        <time>2022-08-01T12:33:12.000Z</time>
      </trkpt>
      <trkpt lat="49.40997" lon="-1.18337">
        <ele>2.793364</ele>
        <time>2022-08-01T12:33:13.000Z</time>
      </trkpt>
      <trkpt lat="49.40992" lon="-1.18335">
        <ele>2.797391</ele>
        <time>2022-08-01T12:33:14.000Z</time>
      </trkpt>
      <trkpt lat="49.40987" lon="-1.18333">
        <ele>2.80159</ele>
        <time>2022-08-01T12:33:15.000Z</time>
      </trkpt>
      <trkpt lat="49.40982" lon="-1.18331">
        <ele>2.805801</ele>
        <time>2022-08-01T12:33:16.000Z</time>
      </trkpt>
      <trkpt lat="49.40976" lon="-1.18329">
        <ele>2.81031</ele>
        <time>2022-08-01T12:33:17.000Z</time>
      </trkpt>
      <trkpt lat="49.40972" lon="-1.18327">
        <ele>2.814239</ele>
        <time>2022-08-01T12:33:18.000Z</time>
      </trkpt>
      <trkpt lat="49.40966" lon="-1.18326">
        <ele>2.8186</ele>
        <time>2022-08-01T12:33:19.000Z</time>
      </trkpt>
      <trkpt lat="49.40961" lon="-1.18325">
        <ele>2.816192</ele>
        <time>2022-08-01T12:33:20.000Z</time>
      </trkpt>
      <trkpt lat="49.40955" lon="-1.18324">
        <ele>2.803802</ele>
        <time>2022-08-01T12:33:21.000Z</time>
      </trkpt>
      <trkpt lat="49.4095" lon="-1.18322">
        <ele>2.792063</ele>
        <time>2022-08-01T12:33:22.000Z</time>
      </trkpt>
      <trkpt lat="49.40945" lon="-1.18321">
        <ele>2.779448</ele>
        <time>2022-08-01T12:33:23.000Z</time>
      </trkpt>
      <trkpt lat="49.40939" lon="-1.1832">
        <ele>2.76645</ele>
        <time>2022-08-01T12:33:24.000Z</time>
      </trkpt>
      <trkpt lat="49.40934" lon="-1.18319">
        <ele>2.754775</ele>
        <time>2022-08-01T12:33:25.000Z</time>
      </trkpt>
      <trkpt lat="49.40928" lon="-1.18318">
        <ele>2.74216</ele>
        <time>2022-08-01T12:33:26.000Z</time>
      </trkpt>
      <trkpt lat="49.40923" lon="-1.18317">
        <ele>2.729841</ele>
        <time>2022-08-01T12:33:27.000Z</time>
      </trkpt>
      <trkpt lat="49.40918" lon="-1.18316">
        <ele>2.718746</ele>
        <time>2022-08-01T12:33:28.000Z</time>
      </trkpt>
      <trkpt lat="49.40913" lon="-1.18315">
        <ele>2.70611</ele>
        <time>2022-08-01T12:33:29.000Z</time>
      </trkpt>
      <trkpt lat="49.40908" lon="-1.18314">
        <ele>2.694468</ele>
        <time>2022-08-01T12:33:30.000Z</time>
      </trkpt>
      <trkpt lat="49.40902" lon="-1.18313">
        <ele>2.682811</ele>
        <time>2022-08-01T12:33:31.000Z</time>
      </trkpt>
      <trkpt lat="49.40897" lon="-1.18312">
        <ele>2.671169</ele>
        <time>2022-08-01T12:33:32.000Z</time>
      </trkpt>
      <trkpt lat="49.40893" lon="-1.18311">
        <ele>2.66017</ele>
        <time>2022-08-01T12:33:33.000Z</time>
      </trkpt>
      <trkpt lat="49.40887" lon="-1.1831">
        <ele>2.647555</ele>
        <time>2022-08-01T12:33:34.000Z</time>
      </trkpt>
      <trkpt lat="49.40882" lon="-1.18308">
        <ele>2.635094</ele>
        <time>2022-08-01T12:33:35.000Z</time>
      </trkpt>
      <trkpt lat="49.40877" lon="-1.18307">
        <ele>2.623354</ele>
        <time>2022-08-01T12:33:36.000Z</time>
      </trkpt>
      <trkpt lat="49.40871" lon="-1.18306">
        <ele>2.610739</ele>
        <time>2022-08-01T12:33:37.000Z</time>
      </trkpt>
      <trkpt lat="49.40866" lon="-1.18305">
        <ele>2.599719</ele>
        <time>2022-08-01T12:33:38.000Z</time>
      </trkpt>
      <trkpt lat="49.40861" lon="-1.18303">
        <ele>2.587927</ele>
        <time>2022-08-01T12:33:39.000Z</time>
      </trkpt>
      <trkpt lat="49.40856" lon="-1.18303">
        <ele>2.576978</ele>
        <time>2022-08-01T12:33:40.000Z</time>
      </trkpt>
      <trkpt lat="49.40851" lon="-1.18302">
        <ele>2.565303</ele>
        <time>2022-08-01T12:33:41.000Z</time>
      </trkpt>
      <trkpt lat="49.40846" lon="-1.183">
        <ele>2.55426</ele>
        <time>2022-08-01T12:33:42.000Z</time>
      </trkpt>
      <trkpt lat="49.40842" lon="-1.18299">
        <ele>2.543106</ele>
        <time>2022-08-01T12:33:43.000Z</time>
      </trkpt>
      <trkpt lat="49.40837" lon="-1.18298">
        <ele>2.53139</ele>
        <time>2022-08-01T12:33:44.000Z</time>
      </trkpt>
      <trkpt lat="49.40831" lon="-1.18296">
        <ele>2.519674</ele>
        <time>2022-08-01T12:33:45.000Z</time>
      </trkpt>
      <trkpt lat="49.40827" lon="-1.18295">
        <ele>2.508606</ele>
        <time>2022-08-01T12:33:46.000Z</time>
      </trkpt>
      <trkpt lat="49.40821" lon="-1.18294">
        <ele>2.495991</ele>
        <time>2022-08-01T12:33:47.000Z</time>
      </trkpt>
      <trkpt lat="49.40816" lon="-1.18293">
        <ele>2.484252</ele>
        <time>2022-08-01T12:33:48.000Z</time>
      </trkpt>
      <trkpt lat="49.40811" lon="-1.18291">
        <ele>2.473128</ele>
        <time>2022-08-01T12:33:49.000Z</time>
      </trkpt>
      <trkpt lat="49.40806" lon="-1.1829">
        <ele>2.460667</ele>
        <time>2022-08-01T12:33:50.000Z</time>
      </trkpt>
      <trkpt lat="49.408" lon="-1.18288">
        <ele>2.447927</ele>
        <time>2022-08-01T12:33:51.000Z</time>
      </trkpt>
      <trkpt lat="49.40795" lon="-1.18286">
        <ele>2.436107</ele>
        <time>2022-08-01T12:33:52.000Z</time>
      </trkpt>
      <trkpt lat="49.4079" lon="-1.18284">
        <ele>2.423528</ele>
        <time>2022-08-01T12:33:53.000Z</time>
      </trkpt>
      <trkpt lat="49.40784" lon="-1.18283">
        <ele>2.412307</ele>
        <time>2022-08-01T12:33:54.000Z</time>
      </trkpt>
      <trkpt lat="49.40779" lon="-1.18281">
        <ele>2.40938</ele>
        <time>2022-08-01T12:33:55.000Z</time>
      </trkpt>
      <trkpt lat="49.40774" lon="-1.18279">
        <ele>2.406422</ele>
        <time>2022-08-01T12:33:56.000Z</time>
      </trkpt>
      <trkpt lat="49.40769" lon="-1.18278">
        <ele>2.403495</ele>
        <time>2022-08-01T12:33:57.000Z</time>
      </trkpt>
      <trkpt lat="49.40764" lon="-1.18277">
        <ele>2.400526</ele>
        <time>2022-08-01T12:33:58.000Z</time>
      </trkpt>
      <trkpt lat="49.40759" lon="-1.18275">
        <ele>2.397778</ele>
        <time>2022-08-01T12:33:59.000Z</time>
      </trkpt>
      <trkpt lat="49.40754" lon="-1.18274">
        <ele>2.395048</ele>
        <time>2022-08-01T12:34:00.000Z</time>
      </trkpt>
      <trkpt lat="49.4075" lon="-1.18273">
        <ele>2.392529</ele>
        <time>2022-08-01T12:34:01.000Z</time>
      </trkpt>
      <trkpt lat="49.40745" lon="-1.18272">
        <ele>2.389954</ele>
        <time>2022-08-01T12:34:02.000Z</time>
      </trkpt>
      <trkpt lat="49.4074" lon="-1.18271">
        <ele>2.387051</ele>
        <time>2022-08-01T12:34:03.000Z</time>
      </trkpt>
      <trkpt lat="49.40736" lon="-1.1827">
        <ele>2.384488</ele>
        <time>2022-08-01T12:34:04.000Z</time>
      </trkpt>
      <trkpt lat="49.40731" lon="-1.18269">
        <ele>2.381609</ele>
        <time>2022-08-01T12:34:05.000Z</time>
      </trkpt>
      <trkpt lat="49.40726" lon="-1.18269">
        <ele>2.378904</ele>
        <time>2022-08-01T12:34:06.000Z</time>
      </trkpt>
      <trkpt lat="49.40721" lon="-1.1827">
        <ele>2.375972</ele>
        <time>2022-08-01T12:34:07.000Z</time>
      </trkpt>
      <trkpt lat="49.40716" lon="-1.1827">
        <ele>2.373254</ele>
        <time>2022-08-01T12:34:08.000Z</time>
      </trkpt>
      <trkpt lat="49.40711" lon="-1.18271">
        <ele>2.370764</ele>
        <time>2022-08-01T12:34:09.000Z</time>
      </trkpt>
      <trkpt lat="49.40707" lon="-1.18272">
        <ele>2.368038</ele>
        <time>2022-08-01T12:34:10.000Z</time>
      </trkpt>
      <trkpt lat="49.40702" lon="-1.18273">
        <ele>2.365484</ele>
        <time>2022-08-01T12:34:11.000Z</time>
      </trkpt>
      <trkpt lat="49.40698" lon="-1.18274">
        <ele>2.362903</ele>
        <time>2022-08-01T12:34:12.000Z</time>
      </trkpt>
      <trkpt lat="49.40693" lon="-1.18276">
        <ele>2.359962</ele>
        <time>2022-08-01T12:34:13.000Z</time>
      </trkpt>
      <trkpt lat="49.40688" lon="-1.18277">
        <ele>2.357381</ele>
        <time>2022-08-01T12:34:14.000Z</time>
      </trkpt>
      <trkpt lat="49.40683" lon="-1.18278">
        <ele>2.354472</ele>
        <time>2022-08-01T12:34:15.000Z</time>
      </trkpt>
      <trkpt lat="49.40678" lon="-1.18279">
        <ele>2.351919</ele>
        <time>2022-08-01T12:34:16.000Z</time>
      </trkpt>
      <trkpt lat="49.40674" lon="-1.18279">
        <ele>2.349381</ele>
        <time>2022-08-01T12:34:17.000Z</time>
      </trkpt>
      <trkpt lat="49.40669" lon="-1.18279">
        <ele>2.346506</ele>
        <time>2022-08-01T12:34:18.000Z</time>
      </trkpt>
      <trkpt lat="49.40664" lon="-1.18279">
        <ele>2.3438</ele>
        <time>2022-08-01T12:34:19.000Z</time>
      </trkpt>
      <trkpt lat="49.40659" lon="-1.18279">
        <ele>2.341092</ele>
        <time>2022-08-01T12:34:20.000Z</time>
      </trkpt>
      <trkpt lat="49.40655" lon="-1.18278">
        <ele>2.338543</ele>
        <time>2022-08-01T12:34:21.000Z</time>
      </trkpt>
      <trkpt lat="49.4065" lon="-1.18277">
        <ele>2.33598</ele>
        <time>2022-08-01T12:34:22.000Z</time>
      </trkpt>
      <trkpt lat="49.40645" lon="-1.18276">
        <ele>2.333071</ele>
        <time>2022-08-01T12:34:23.000Z</time>
      </trkpt>
      <trkpt lat="49.4064" lon="-1.18275">
        <ele>2.330336</ele>
        <time>2022-08-01T12:34:24.000Z</time>
      </trkpt>
      <trkpt lat="49.40636" lon="-1.18273">
        <ele>2.327748</ele>
        <time>2022-08-01T12:34:25.000Z</time>
      </trkpt>
      <trkpt lat="49.40631" lon="-1.18272">
        <ele>2.324834</ele>
        <time>2022-08-01T12:34:26.000Z</time>
      </trkpt>
      <trkpt lat="49.40626" lon="-1.18271">
        <ele>2.322103</ele>
        <time>2022-08-01T12:34:27.000Z</time>
      </trkpt>
      <trkpt lat="49.40621" lon="-1.1827">
        <ele>2.319373</ele>
        <time>2022-08-01T12:34:28.000Z</time>
      </trkpt>
      <trkpt lat="49.40616" lon="-1.18269">
        <ele>2.316475</ele>
        <time>2022-08-01T12:34:29.000Z</time>
      </trkpt>
      <trkpt lat="49.40611" lon="-1.18268">
        <ele>2.313588</ele>
        <time>2022-08-01T12:34:30.000Z</time>
      </trkpt>
      <trkpt lat="49.40606" lon="-1.18268">
        <ele>2.309426</ele>
        <time>2022-08-01T12:34:31.000Z</time>
      </trkpt>
      <trkpt lat="49.40601" lon="-1.18268">
        <ele>2.298656</ele>
        <time>2022-08-01T12:34:32.000Z</time>
      </trkpt>
      <trkpt lat="49.40596" lon="-1.18267">
        <ele>2.288536</ele>
        <time>2022-08-01T12:34:33.000Z</time>
      </trkpt>
      <trkpt lat="49.40591" lon="-1.18268">
        <ele>2.277574</ele>
        <time>2022-08-01T12:34:34.000Z</time>
      </trkpt>
      <trkpt lat="49.40586" lon="-1.18268">
        <ele>2.267454</ele>
        <time>2022-08-01T12:34:35.000Z</time>
      </trkpt>
      <trkpt lat="49.40581" lon="-1.18268">
        <ele>2.256706</ele>
        <time>2022-08-01T12:34:36.000Z</time>
      </trkpt>
      <trkpt lat="49.40576" lon="-1.18268">
        <ele>2.24659</ele>
        <time>2022-08-01T12:34:37.000Z</time>
      </trkpt>
      <trkpt lat="49.40572" lon="-1.18268">
        <ele>2.236465</ele>
        <time>2022-08-01T12:34:38.000Z</time>
      </trkpt>
      <trkpt lat="49.40567" lon="-1.18269">
        <ele>2.22629</ele>
        <time>2022-08-01T12:34:39.000Z</time>
      </trkpt>
      <trkpt lat="49.40562" lon="-1.1827">
        <ele>2.216099</ele>
        <time>2022-08-01T12:34:40.000Z</time>
      </trkpt>
      <trkpt lat="49.40557" lon="-1.1827">
        <ele>2.206579</ele>
        <time>2022-08-01T12:34:41.000Z</time>
      </trkpt>
      <trkpt lat="49.40553" lon="-1.18271">
        <ele>2.196418</ele>
        <time>2022-08-01T12:34:42.000Z</time>
      </trkpt>
      <trkpt lat="49.40548" lon="-1.18272">
        <ele>2.185582</ele>
        <time>2022-08-01T12:34:43.000Z</time>
      </trkpt>
      <trkpt lat="49.40543" lon="-1.18273">
        <ele>2.175407</ele>
        <time>2022-08-01T12:34:44.000Z</time>
      </trkpt>
      <trkpt lat="49.40538" lon="-1.18274">
        <ele>2.165198</ele>
        <time>2022-08-01T12:34:45.000Z</time>
      </trkpt>
      <trkpt lat="49.40534" lon="-1.18275">
        <ele>2.156449</ele>
        <time>2022-08-01T12:34:46.000Z</time>
      </trkpt>
      <trkpt lat="49.40529" lon="-1.18276">
        <ele>2.146867</ele>
        <time>2022-08-01T12:34:47.000Z</time>
      </trkpt>
      <trkpt lat="49.40525" lon="-1.18277">
        <ele>2.137162</ele>
        <time>2022-08-01T12:34:48.000Z</time>
      </trkpt>
      <trkpt lat="49.4052" lon="-1.18278">
        <ele>2.126971</ele>
        <time>2022-08-01T12:34:49.000Z</time>
      </trkpt>
      <trkpt lat="49.40516" lon="-1.18279">
        <ele>2.117389</ele>
        <time>2022-08-01T12:34:50.000Z</time>
      </trkpt>
      <trkpt lat="49.40511" lon="-1.1828">
        <ele>2.108617</ele>
        <time>2022-08-01T12:34:51.000Z</time>
      </trkpt>
      <trkpt lat="49.40507" lon="-1.18281">
        <ele>2.099109</ele>
        <time>2022-08-01T12:34:52.000Z</time>
      </trkpt>
      <trkpt lat="49.40502" lon="-1.18281">
        <ele>2.088339</ele>
        <time>2022-08-01T12:34:53.000Z</time>
      </trkpt>
      <trkpt lat="49.40498" lon="-1.18282">
        <ele>2.079401</ele>
        <time>2022-08-01T12:34:54.000Z</time>
      </trkpt>
      <trkpt lat="49.40493" lon="-1.18283">
        <ele>2.069854</ele>
        <time>2022-08-01T12:34:55.000Z</time>
      </trkpt>
      <trkpt lat="49.40488" lon="-1.18284">
        <ele>2.059646</ele>
        <time>2022-08-01T12:34:56.000Z</time>
      </trkpt>
      <trkpt lat="49.40484" lon="-1.18285">
        <ele>2.050952</ele>
        <time>2022-08-01T12:34:57.000Z</time>
      </trkpt>
      <trkpt lat="49.4048" lon="-1.18286">
        <ele>2.041973</ele>
        <time>2022-08-01T12:34:58.000Z</time>
      </trkpt>
      <trkpt lat="49.40476" lon="-1.18287">
        <ele>2.03239</ele>
        <time>2022-08-01T12:34:59.000Z</time>
      </trkpt>
      <trkpt lat="49.40471" lon="-1.18287">
        <ele>2.023722</ele>
        <time>2022-08-01T12:35:00.000Z</time>
      </trkpt>
      <trkpt lat="49.40467" lon="-1.18288">
        <ele>2.013531</ele>
        <time>2022-08-01T12:35:01.000Z</time>
      </trkpt>
      <trkpt lat="49.40462" lon="-1.18289">
        <ele>2.004012</ele>
        <time>2022-08-01T12:35:02.000Z</time>
      </trkpt>
      <trkpt lat="49.40458" lon="-1.1829">
        <ele>1.994479</ele>
        <time>2022-08-01T12:35:03.000Z</time>
      </trkpt>
      <trkpt lat="49.40453" lon="-1.1829">
        <ele>1.984304</ele>
        <time>2022-08-01T12:35:04.000Z</time>
      </trkpt>
      <trkpt lat="49.40448" lon="-1.18291">
        <ele>1.974804</ele>
        <time>2022-08-01T12:35:05.000Z</time>
      </trkpt>
      <trkpt lat="49.40444" lon="-1.18291">
        <ele>1.965296</ele>
        <time>2022-08-01T12:35:06.000Z</time>
      </trkpt>
      <trkpt lat="49.40439" lon="-1.18292">
        <ele>1.954442</ele>
        <time>2022-08-01T12:35:07.000Z</time>
      </trkpt>
      <trkpt lat="49.40434" lon="-1.18293">
        <ele>1.944251</ele>
        <time>2022-08-01T12:35:08.000Z</time>
      </trkpt>
      <trkpt lat="49.40429" lon="-1.18294">
        <ele>1.932841</ele>
        <time>2022-08-01T12:35:09.000Z</time>
      </trkpt>
      <trkpt lat="49.40424" lon="-1.18294">
        <ele>1.929563</ele>
        <time>2022-08-01T12:35:10.000Z</time>
      </trkpt>
      <trkpt lat="49.40419" lon="-1.18294">
        <ele>1.926459</ele>
        <time>2022-08-01T12:35:11.000Z</time>
      </trkpt>
      <trkpt lat="49.40414" lon="-1.18294">
        <ele>1.923537</ele>
        <time>2022-08-01T12:35:12.000Z</time>
      </trkpt>
      <trkpt lat="49.40409" lon="-1.18294">
        <ele>1.92061</ele>
        <time>2022-08-01T12:35:13.000Z</time>
      </trkpt>
      <trkpt lat="49.40404" lon="-1.18295">
        <ele>1.917422</ele>
        <time>2022-08-01T12:35:14.000Z</time>
      </trkpt>
      <trkpt lat="49.40399" lon="-1.18296">
        <ele>1.914294</ele>
        <time>2022-08-01T12:35:15.000Z</time>
      </trkpt>
      <trkpt lat="49.40394" lon="-1.18297">
        <ele>1.911548</ele>
        <time>2022-08-01T12:35:16.000Z</time>
      </trkpt>
      <trkpt lat="49.40389" lon="-1.18297">
        <ele>1.908441</ele>
        <time>2022-08-01T12:35:17.000Z</time>
      </trkpt>
      <trkpt lat="49.40385" lon="-1.18298">
        <ele>1.905685</ele>
        <time>2022-08-01T12:35:18.000Z</time>
      </trkpt>
      <trkpt lat="49.4038" lon="-1.183">
        <ele>1.902705</ele>
        <time>2022-08-01T12:35:19.000Z</time>
      </trkpt>
      <trkpt lat="49.40375" lon="-1.18301">
        <ele>1.899577</ele>
        <time>2022-08-01T12:35:20.000Z</time>
      </trkpt>
      <trkpt lat="49.4037" lon="-1.183">
        <ele>1.896836</ele>
        <time>2022-08-01T12:35:21.000Z</time>
      </trkpt>
      <trkpt lat="49.40365" lon="-1.183">
        <ele>1.893732</ele>
        <time>2022-08-01T12:35:22.000Z</time>
      </trkpt>
      <trkpt lat="49.40361" lon="-1.183">
        <ele>1.89123</ele>
        <time>2022-08-01T12:35:23.000Z</time>
      </trkpt>
      <trkpt lat="49.40356" lon="-1.18299">
        <ele>1.888042</ele>
        <time>2022-08-01T12:35:24.000Z</time>
      </trkpt>
      <trkpt lat="49.4035" lon="-1.18298">
        <ele>1.884732</ele>
        <time>2022-08-01T12:35:25.000Z</time>
      </trkpt>
      <trkpt lat="49.40346" lon="-1.18296">
        <ele>1.881953</ele>
        <time>2022-08-01T12:35:26.000Z</time>
      </trkpt>
      <trkpt lat="49.40341" lon="-1.18295">
        <ele>1.879006</ele>
        <time>2022-08-01T12:35:27.000Z</time>
      </trkpt>
      <trkpt lat="49.40336" lon="-1.18294">
        <ele>1.875878</ele>
        <time>2022-08-01T12:35:28.000Z</time>
      </trkpt>
      <trkpt lat="49.40331" lon="-1.18294">
        <ele>1.872759</ele>
        <time>2022-08-01T12:35:29.000Z</time>
      </trkpt>
      <trkpt lat="49.40326" lon="-1.18292">
        <ele>1.8698</ele>
        <time>2022-08-01T12:35:30.000Z</time>
      </trkpt>
      <trkpt lat="49.40321" lon="-1.18291">
        <ele>1.866616</ele>
        <time>2022-08-01T12:35:31.000Z</time>
      </trkpt>
      <trkpt lat="49.40316" lon="-1.18289">
        <ele>1.86361</ele>
        <time>2022-08-01T12:35:32.000Z</time>
      </trkpt>
      <trkpt lat="49.40311" lon="-1.18287">
        <ele>1.860391</ele>
        <time>2022-08-01T12:35:33.000Z</time>
      </trkpt>
      <trkpt lat="49.40307" lon="-1.18286">
        <ele>1.857807</ele>
        <time>2022-08-01T12:35:34.000Z</time>
      </trkpt>
      <trkpt lat="49.40302" lon="-1.18284">
        <ele>1.854632</ele>
        <time>2022-08-01T12:35:35.000Z</time>
      </trkpt>
      <trkpt lat="49.40297" lon="-1.18283">
        <ele>1.851667</ele>
        <time>2022-08-01T12:35:36.000Z</time>
      </trkpt>
      <trkpt lat="49.40292" lon="-1.1828">
        <ele>1.848385</ele>
        <time>2022-08-01T12:35:37.000Z</time>
      </trkpt>
      <trkpt lat="49.40287" lon="-1.18278">
        <ele>1.845349</ele>
        <time>2022-08-01T12:35:38.000Z</time>
      </trkpt>
      <trkpt lat="49.40283" lon="-1.18277">
        <ele>1.842588</ele>
        <time>2022-08-01T12:35:39.000Z</time>
      </trkpt>
      <trkpt lat="49.40277" lon="-1.18276">
        <ele>1.8394</ele>
        <time>2022-08-01T12:35:40.000Z</time>
      </trkpt>
      <trkpt lat="49.40273" lon="-1.18274">
        <ele>1.836435</ele>
        <time>2022-08-01T12:35:41.000Z</time>
      </trkpt>
      <trkpt lat="49.40267" lon="-1.18273">
        <ele>1.833103</ele>
        <time>2022-08-01T12:35:42.000Z</time>
      </trkpt>
      <trkpt lat="49.40262" lon="-1.18271">
        <ele>1.829919</ele>
        <time>2022-08-01T12:35:43.000Z</time>
      </trkpt>
      <trkpt lat="49.40258" lon="-1.18269">
        <ele>1.827069</ele>
        <time>2022-08-01T12:35:44.000Z</time>
      </trkpt>
      <trkpt lat="49.40253" lon="-1.18267">
        <ele>1.824183</ele>
        <time>2022-08-01T12:35:45.000Z</time>
      </trkpt>
      <trkpt lat="49.40248" lon="-1.18265">
        <ele>1.81692</ele>
        <time>2022-08-01T12:35:46.000Z</time>
      </trkpt>
      <trkpt lat="49.40243" lon="-1.18264">
        <ele>1.807455</ele>
        <time>2022-08-01T12:35:47.000Z</time>
      </trkpt>
      <trkpt lat="49.40238" lon="-1.18263">
        <ele>1.79756</ele>
        <time>2022-08-01T12:35:48.000Z</time>
      </trkpt>
      <trkpt lat="49.40233" lon="-1.18263">
        <ele>1.787685</ele>
        <time>2022-08-01T12:35:49.000Z</time>
      </trkpt>
      <trkpt lat="49.40228" lon="-1.18263">
        <ele>1.777057</ele>
        <time>2022-08-01T12:35:50.000Z</time>
      </trkpt>
      <trkpt lat="49.40222" lon="-1.18262">
        <ele>1.767198</ele>
        <time>2022-08-01T12:35:51.000Z</time>
      </trkpt>
      <trkpt lat="49.40217" lon="-1.18262">
        <ele>1.757343</ele>
        <time>2022-08-01T12:35:52.000Z</time>
      </trkpt>
      <trkpt lat="49.40212" lon="-1.18263">
        <ele>1.746696</ele>
        <time>2022-08-01T12:35:53.000Z</time>
      </trkpt>
      <trkpt lat="49.40206" lon="-1.18263">
        <ele>1.736243</ele>
        <time>2022-08-01T12:35:54.000Z</time>
      </trkpt>
      <trkpt lat="49.40202" lon="-1.18264">
        <ele>1.728102</ele>
        <time>2022-08-01T12:35:55.000Z</time>
      </trkpt>
      <trkpt lat="49.40197" lon="-1.18264">
        <ele>1.718819</ele>
        <time>2022-08-01T12:35:56.000Z</time>
      </trkpt>
      <trkpt lat="49.40192" lon="-1.18263">
        <ele>1.708377</ele>
        <time>2022-08-01T12:35:57.000Z</time>
      </trkpt>
      <trkpt lat="49.40187" lon="-1.18264">
        <ele>1.697924</ele>
        <time>2022-08-01T12:35:58.000Z</time>
      </trkpt>
      <trkpt lat="49.40181" lon="-1.18265">
        <ele>1.687797</ele>
        <time>2022-08-01T12:35:59.000Z</time>
      </trkpt>
      <trkpt lat="49.40176" lon="-1.18265">
        <ele>1.677913</ele>
        <time>2022-08-01T12:36:00.000Z</time>
      </trkpt>
      <trkpt lat="49.40172" lon="-1.18266">
        <ele>1.668616</ele>
        <time>2022-08-01T12:36:01.000Z</time>
      </trkpt>
      <trkpt lat="49.40166" lon="-1.18267">
        <ele>1.658696</ele>
        <time>2022-08-01T12:36:02.000Z</time>
      </trkpt>
      <trkpt lat="49.40162" lon="-1.18267">
        <ele>1.64939</ele>
        <time>2022-08-01T12:36:03.000Z</time>
      </trkpt>
      <trkpt lat="49.40156" lon="-1.18268">
        <ele>1.638936</ele>
        <time>2022-08-01T12:36:04.000Z</time>
      </trkpt>
      <trkpt lat="49.40151" lon="-1.18268">
        <ele>1.629647</ele>
        <time>2022-08-01T12:36:05.000Z</time>
      </trkpt>
      <trkpt lat="49.40146" lon="-1.18269">
        <ele>1.61957</ele>
        <time>2022-08-01T12:36:06.000Z</time>
      </trkpt>
      <trkpt lat="49.40141" lon="-1.1827">
        <ele>1.610253</ele>
        <time>2022-08-01T12:36:07.000Z</time>
      </trkpt>
      <trkpt lat="49.40136" lon="-1.1827">
        <ele>1.600359</ele>
        <time>2022-08-01T12:36:08.000Z</time>
      </trkpt>
      <trkpt lat="49.40131" lon="-1.18271">
        <ele>1.589848</ele>
        <time>2022-08-01T12:36:09.000Z</time>
      </trkpt>
      <trkpt lat="49.40126" lon="-1.18272">
        <ele>1.580542</ele>
        <time>2022-08-01T12:36:10.000Z</time>
      </trkpt>
      <trkpt lat="49.40121" lon="-1.18272">
        <ele>1.570674</ele>
        <time>2022-08-01T12:36:11.000Z</time>
      </trkpt>
      <trkpt lat="49.40116" lon="-1.18273">
        <ele>1.560606</ele>
        <time>2022-08-01T12:36:12.000Z</time>
      </trkpt>
      <trkpt lat="49.40111" lon="-1.18273">
        <ele>1.550744</ele>
        <time>2022-08-01T12:36:13.000Z</time>
      </trkpt>
      <trkpt lat="49.40106" lon="-1.18274">
        <ele>1.541427</ele>
        <time>2022-08-01T12:36:14.000Z</time>
      </trkpt>
      <trkpt lat="49.40101" lon="-1.18274">
        <ele>1.530964</ele>
        <time>2022-08-01T12:36:15.000Z</time>
      </trkpt>
      <trkpt lat="49.40096" lon="-1.18275">
        <ele>1.522195</ele>
        <time>2022-08-01T12:36:16.000Z</time>
      </trkpt>
      <trkpt lat="49.40091" lon="-1.18276">
        <ele>1.512311</ele>
        <time>2022-08-01T12:36:17.000Z</time>
      </trkpt>
      <trkpt lat="49.40086" lon="-1.18277">
        <ele>1.502967</ele>
        <time>2022-08-01T12:36:18.000Z</time>
      </trkpt>
      <trkpt lat="49.40081" lon="-1.18277">
        <ele>1.493111</ele>
        <time>2022-08-01T12:36:19.000Z</time>
      </trkpt>
      <trkpt lat="49.40076" lon="-1.18277">
        <ele>1.483063</ele>
        <time>2022-08-01T12:36:20.000Z</time>
      </trkpt>
      <trkpt lat="49.40071" lon="-1.18277">
        <ele>1.477907</ele>
        <time>2022-08-01T12:36:21.000Z</time>
      </trkpt>
      <trkpt lat="49.40066" lon="-1.18276">
        <ele>1.493269</ele>
        <time>2022-08-01T12:36:22.000Z</time>
      </trkpt>
      <trkpt lat="49.40061" lon="-1.18275">
        <ele>1.509582</ele>
        <time>2022-08-01T12:36:23.000Z</time>
      </trkpt>
      <trkpt lat="49.40056" lon="-1.18274">
        <ele>1.525044</ele>
        <time>2022-08-01T12:36:24.000Z</time>
      </trkpt>
      <trkpt lat="49.40051" lon="-1.18273">
        <ele>1.541549</ele>
        <time>2022-08-01T12:36:25.000Z</time>
      </trkpt>
      <trkpt lat="49.40046" lon="-1.18272">
        <ele>1.557011</ele>
        <time>2022-08-01T12:36:26.000Z</time>
      </trkpt>
      <trkpt lat="49.40041" lon="-1.1827">
        <ele>1.573638</ele>
        <time>2022-08-01T12:36:27.000Z</time>
      </trkpt>
      <trkpt lat="49.40037" lon="-1.18268">
        <ele>1.588452</ele>
        <time>2022-08-01T12:36:28.000Z</time>
      </trkpt>
      <trkpt lat="49.40032" lon="-1.18266">
        <ele>1.605222</ele>
        <time>2022-08-01T12:36:29.000Z</time>
      </trkpt>
      <trkpt lat="49.40027" lon="-1.18264">
        <ele>1.620398</ele>
        <time>2022-08-01T12:36:30.000Z</time>
      </trkpt>
      <trkpt lat="49.40022" lon="-1.18262">
        <ele>1.636298</ele>
        <time>2022-08-01T12:36:31.000Z</time>
      </trkpt>
      <trkpt lat="49.40018" lon="-1.18259">
        <ele>1.65238</ele>
        <time>2022-08-01T12:36:32.000Z</time>
      </trkpt>
      <trkpt lat="49.40013" lon="-1.18257">
        <ele>1.667848</ele>
        <time>2022-08-01T12:36:33.000Z</time>
      </trkpt>
      <trkpt lat="49.40008" lon="-1.18254">
        <ele>1.684357</ele>
        <time>2022-08-01T12:36:34.000Z</time>
      </trkpt>
      <trkpt lat="49.40004" lon="-1.18251">
        <ele>1.700867</ele>
        <time>2022-08-01T12:36:35.000Z</time>
      </trkpt>
      <trkpt lat="49.39999" lon="-1.18247">
        <ele>1.717536</ele>
        <time>2022-08-01T12:36:36.000Z</time>
      </trkpt>
      <trkpt lat="49.39994" lon="-1.18245">
        <ele>1.734791</ele>
        <time>2022-08-01T12:36:37.000Z</time>
      </trkpt>
      <trkpt lat="49.39989" lon="-1.18242">
        <ele>1.750182</ele>
        <time>2022-08-01T12:36:38.000Z</time>
      </trkpt>
      <trkpt lat="49.39985" lon="-1.18239">
        <ele>1.765894</ele>
        <time>2022-08-01T12:36:39.000Z</time>
      </trkpt>
      <trkpt lat="49.3998" lon="-1.18236">
        <ele>1.782403</ele>
        <time>2022-08-01T12:36:40.000Z</time>
      </trkpt>
      <trkpt lat="49.39975" lon="-1.18233">
        <ele>1.798836</ele>
        <time>2022-08-01T12:36:41.000Z</time>
      </trkpt>
      <trkpt lat="49.3997" lon="-1.1823">
        <ele>1.816466</ele>
        <time>2022-08-01T12:36:42.000Z</time>
      </trkpt>
      <trkpt lat="49.39965" lon="-1.18226">
        <ele>1.83322</ele>
        <time>2022-08-01T12:36:43.000Z</time>
      </trkpt>
      <trkpt lat="49.3996" lon="-1.18223">
        <ele>1.850618</ele>
        <time>2022-08-01T12:36:44.000Z</time>
      </trkpt>
      <trkpt lat="49.39955" lon="-1.1822">
        <ele>1.867127</ele>
        <time>2022-08-01T12:36:45.000Z</time>
      </trkpt>
      <trkpt lat="49.3995" lon="-1.18217">
        <ele>1.884526</ele>
        <time>2022-08-01T12:36:46.000Z</time>
      </trkpt>
      <trkpt lat="49.39946" lon="-1.18214">
        <ele>1.900154</ele>
        <time>2022-08-01T12:36:47.000Z</time>
      </trkpt>
      <trkpt lat="49.39941" lon="-1.18211">
        <ele>1.915952</ele>
        <time>2022-08-01T12:36:48.000Z</time>
      </trkpt>
      <trkpt lat="49.39936" lon="-1.18208">
        <ele>1.932461</ele>
        <time>2022-08-01T12:36:49.000Z</time>
      </trkpt>
      <trkpt lat="49.39932" lon="-1.18205">
        <ele>1.949131</ele>
        <time>2022-08-01T12:36:50.000Z</time>
      </trkpt>
      <trkpt lat="49.39927" lon="-1.18202">
        <ele>1.964843</ele>
        <time>2022-08-01T12:36:51.000Z</time>
      </trkpt>
      <trkpt lat="49.39922" lon="-1.18199">
        <ele>1.982241</ele>
        <time>2022-08-01T12:36:52.000Z</time>
      </trkpt>
      <trkpt lat="49.39917" lon="-1.18196">
        <ele>1.998674</ele>
        <time>2022-08-01T12:36:53.000Z</time>
      </trkpt>
      <trkpt lat="49.39912" lon="-1.18193">
        <ele>2.015031</ele>
        <time>2022-08-01T12:36:54.000Z</time>
      </trkpt>
      <trkpt lat="49.39908" lon="-1.1819">
        <ele>2.030499</ele>
        <time>2022-08-01T12:36:55.000Z</time>
      </trkpt>
      <trkpt lat="49.39903" lon="-1.18188">
        <ele>2.045594</ele>
        <time>2022-08-01T12:36:56.000Z</time>
      </trkpt>
      <trkpt lat="49.39899" lon="-1.18185">
        <ele>2.044222</ele>
        <time>2022-08-01T12:36:57.000Z</time>
      </trkpt>
      <trkpt lat="49.39894" lon="-1.18183">
        <ele>2.039442</ele>
        <time>2022-08-01T12:36:58.000Z</time>
      </trkpt>
      <trkpt lat="49.39889" lon="-1.1818">
        <ele>2.034355</ele>
        <time>2022-08-01T12:36:59.000Z</time>
      </trkpt>
      <trkpt lat="49.39885" lon="-1.18178">
        <ele>2.029269</ele>
        <time>2022-08-01T12:37:00.000Z</time>
      </trkpt>
      <trkpt lat="49.3988" lon="-1.18176">
        <ele>2.02451</ele>
        <time>2022-08-01T12:37:01.000Z</time>
      </trkpt>
      <trkpt lat="49.39875" lon="-1.18174">
        <ele>2.019227</ele>
        <time>2022-08-01T12:37:02.000Z</time>
      </trkpt>
      <trkpt lat="49.3987" lon="-1.18172">
        <ele>2.014577</ele>
        <time>2022-08-01T12:37:03.000Z</time>
      </trkpt>
      <trkpt lat="49.39866" lon="-1.1817">
        <ele>2.009618</ele>
        <time>2022-08-01T12:37:04.000Z</time>
      </trkpt>
      <trkpt lat="49.39861" lon="-1.18168">
        <ele>2.004627</ele>
        <time>2022-08-01T12:37:05.000Z</time>
      </trkpt>
      <trkpt lat="49.39856" lon="-1.18167">
        <ele>1.999712</ele>
        <time>2022-08-01T12:37:06.000Z</time>
      </trkpt>
      <trkpt lat="49.39851" lon="-1.18165">
        <ele>1.994534</ele>
        <time>2022-08-01T12:37:07.000Z</time>
      </trkpt>
      <trkpt lat="49.39846" lon="-1.18164">
        <ele>1.989672</ele>
        <time>2022-08-01T12:37:08.000Z</time>
      </trkpt>
      <trkpt lat="49.39841" lon="-1.18163">
        <ele>1.984484</ele>
        <time>2022-08-01T12:37:09.000Z</time>
      </trkpt>
      <trkpt lat="49.39836" lon="-1.18162">
        <ele>1.979623</ele>
        <time>2022-08-01T12:37:10.000Z</time>
      </trkpt>
      <trkpt lat="49.39831" lon="-1.18161">
        <ele>1.974378</ele>
        <time>2022-08-01T12:37:11.000Z</time>
      </trkpt>
      <trkpt lat="49.39826" lon="-1.1816">
        <ele>1.969498</ele>
        <time>2022-08-01T12:37:12.000Z</time>
      </trkpt>
      <trkpt lat="49.39821" lon="-1.18159">
        <ele>1.96431</ele>
        <time>2022-08-01T12:37:13.000Z</time>
      </trkpt>
      <trkpt lat="49.39816" lon="-1.18158">
        <ele>1.959429</ele>
        <time>2022-08-01T12:37:14.000Z</time>
      </trkpt>
      <trkpt lat="49.39811" lon="-1.18156">
        <ele>1.954241</ele>
        <time>2022-08-01T12:37:15.000Z</time>
      </trkpt>
      <trkpt lat="49.39806" lon="-1.18155">
        <ele>1.949063</ele>
        <time>2022-08-01T12:37:16.000Z</time>
      </trkpt>
      <trkpt lat="49.39801" lon="-1.18154">
        <ele>1.943919</ele>
        <time>2022-08-01T12:37:17.000Z</time>
      </trkpt>
      <trkpt lat="49.39796" lon="-1.18153">
        <ele>1.938659</ele>
        <time>2022-08-01T12:37:18.000Z</time>
      </trkpt>
      <trkpt lat="49.3979" lon="-1.18152">
        <ele>1.933201</ele>
        <time>2022-08-01T12:37:19.000Z</time>
      </trkpt>
      <trkpt lat="49.39785" lon="-1.18151">
        <ele>1.927725</ele>
        <time>2022-08-01T12:37:20.000Z</time>
      </trkpt>
      <trkpt lat="49.3978" lon="-1.1815">
        <ele>1.922141</ele>
        <time>2022-08-01T12:37:21.000Z</time>
      </trkpt>
      <trkpt lat="49.39774" lon="-1.18148">
        <ele>1.916903</ele>
        <time>2022-08-01T12:37:22.000Z</time>
      </trkpt>
      <trkpt lat="49.39769" lon="-1.18146">
        <ele>1.911358</ele>
        <time>2022-08-01T12:37:23.000Z</time>
      </trkpt>
      <trkpt lat="49.39764" lon="-1.18144">
        <ele>1.905602</ele>
        <time>2022-08-01T12:37:24.000Z</time>
      </trkpt>
      <trkpt lat="49.39759" lon="-1.18141">
        <ele>1.900402</ele>
        <time>2022-08-01T12:37:25.000Z</time>
      </trkpt>
      <trkpt lat="49.39754" lon="-1.18137">
        <ele>1.895217</ele>
        <time>2022-08-01T12:37:26.000Z</time>
      </trkpt>
      <trkpt lat="49.3975" lon="-1.18132">
        <ele>1.889876</ele>
        <time>2022-08-01T12:37:27.000Z</time>
      </trkpt>
      <trkpt lat="49.39747" lon="-1.18126">
        <ele>1.884889</ele>
        <time>2022-08-01T12:37:28.000Z</time>
      </trkpt>
      <trkpt lat="49.39745" lon="-1.18118">
        <ele>1.879548</ele>
        <time>2022-08-01T12:37:29.000Z</time>
      </trkpt>
      <trkpt lat="49.39746" lon="-1.1811">
        <ele>1.874314</ele>
        <time>2022-08-01T12:37:30.000Z</time>
      </trkpt>
      <trkpt lat="49.39747" lon="-1.18102">
        <ele>1.868928</ele>
        <time>2022-08-01T12:37:31.000Z</time>
      </trkpt>
      <trkpt lat="49.39749" lon="-1.18094">
        <ele>1.865421</ele>
        <time>2022-08-01T12:37:32.000Z</time>
      </trkpt>
      <trkpt lat="49.39751" lon="-1.18086">
        <ele>1.862363</ele>
        <time>2022-08-01T12:37:33.000Z</time>
      </trkpt>
      <trkpt lat="49.39753" lon="-1.18078">
        <ele>1.859251</ele>
        <time>2022-08-01T12:37:34.000Z</time>
      </trkpt>
      <trkpt lat="49.39757" lon="-1.18071">
        <ele>1.855879</ele>
        <time>2022-08-01T12:37:35.000Z</time>
      </trkpt>
      <trkpt lat="49.39759" lon="-1.18063">
        <ele>1.85276</ele>
        <time>2022-08-01T12:37:36.000Z</time>
      </trkpt>
      <trkpt lat="49.39761" lon="-1.18055">
        <ele>1.849763</ele>
        <time>2022-08-01T12:37:37.000Z</time>
      </trkpt>
      <trkpt lat="49.39763" lon="-1.18047">
        <ele>1.84692</ele>
        <time>2022-08-01T12:37:38.000Z</time>
      </trkpt>
      <trkpt lat="49.39764" lon="-1.18039">
        <ele>1.844054</ele>
        <time>2022-08-01T12:37:39.000Z</time>
      </trkpt>
      <trkpt lat="49.39763" lon="-1.18031">
        <ele>1.841224</ele>
        <time>2022-08-01T12:37:40.000Z</time>
      </trkpt>
      <trkpt lat="49.39761" lon="-1.18024">
        <ele>1.83855</ele>
        <time>2022-08-01T12:37:41.000Z</time>
      </trkpt>
      <trkpt lat="49.39759" lon="-1.18019">
        <ele>1.8363</ele>
        <time>2022-08-01T12:37:42.000Z</time>
      </trkpt>
      <trkpt lat="49.39755" lon="-1.18017">
        <ele>1.834067</ele>
        <time>2022-08-01T12:37:43.000Z</time>
      </trkpt>
      <trkpt lat="49.3975" lon="-1.18016">
        <ele>1.831569</ele>
        <time>2022-08-01T12:37:44.000Z</time>
      </trkpt>
      <trkpt lat="49.39745" lon="-1.18016">
        <ele>1.828616</ele>
        <time>2022-08-01T12:37:45.000Z</time>
      </trkpt>
      <trkpt lat="49.3974" lon="-1.18016">
        <ele>1.825608</ele>
        <time>2022-08-01T12:37:46.000Z</time>
      </trkpt>
      <trkpt lat="49.39734" lon="-1.18015">
        <ele>1.822804</ele>
        <time>2022-08-01T12:37:47.000Z</time>
      </trkpt>
      <trkpt lat="49.39729" lon="-1.18015">
        <ele>1.819628</ele>
        <time>2022-08-01T12:37:48.000Z</time>
      </trkpt>
      <trkpt lat="49.39723" lon="-1.18015">
        <ele>1.81651</ele>
        <time>2022-08-01T12:37:49.000Z</time>
      </trkpt>
      <trkpt lat="49.39717" lon="-1.18015">
        <ele>1.813502</ele>
        <time>2022-08-01T12:37:50.000Z</time>
      </trkpt>
      <trkpt lat="49.39713" lon="-1.18015">
        <ele>1.810878</ele>
        <time>2022-08-01T12:37:51.000Z</time>
      </trkpt>
      <trkpt lat="49.39708" lon="-1.18014">
        <ele>1.808087</ele>
        <time>2022-08-01T12:37:52.000Z</time>
      </trkpt>
      <trkpt lat="49.39703" lon="-1.18014">
        <ele>1.805458</ele>
        <time>2022-08-01T12:37:53.000Z</time>
      </trkpt>
      <trkpt lat="49.39698" lon="-1.18014">
        <ele>1.802668</ele>
        <time>2022-08-01T12:37:54.000Z</time>
      </trkpt>
      <trkpt lat="49.39693" lon="-1.18014">
        <ele>1.800043</ele>
        <time>2022-08-01T12:37:55.000Z</time>
      </trkpt>
      <trkpt lat="49.39688" lon="-1.18014">
        <ele>1.797412</ele>
        <time>2022-08-01T12:37:56.000Z</time>
      </trkpt>
      <trkpt lat="49.39683" lon="-1.18013">
        <ele>1.794783</ele>
        <time>2022-08-01T12:37:57.000Z</time>
      </trkpt>
      <trkpt lat="49.39679" lon="-1.18013">
        <ele>1.79232</ele>
        <time>2022-08-01T12:37:58.000Z</time>
      </trkpt>
      <trkpt lat="49.39674" lon="-1.18013">
        <ele>1.789526</ele>
        <time>2022-08-01T12:37:59.000Z</time>
      </trkpt>
      <trkpt lat="49.39669" lon="-1.18012">
        <ele>1.786895</ele>
        <time>2022-08-01T12:38:00.000Z</time>
      </trkpt>
      <trkpt lat="49.39663" lon="-1.18012">
        <ele>1.78394</ele>
        <time>2022-08-01T12:38:01.000Z</time>
      </trkpt>
      <trkpt lat="49.39659" lon="-1.18011">
        <ele>1.781473</ele>
        <time>2022-08-01T12:38:02.000Z</time>
      </trkpt>
      <trkpt lat="49.39654" lon="-1.18011">
        <ele>1.77868</ele>
        <time>2022-08-01T12:38:03.000Z</time>
      </trkpt>
      <trkpt lat="49.39649" lon="-1.18011">
        <ele>1.776055</ele>
        <time>2022-08-01T12:38:04.000Z</time>
      </trkpt>
      <trkpt lat="49.39644" lon="-1.1801">
        <ele>1.773427</ele>
        <time>2022-08-01T12:38:05.000Z</time>
      </trkpt>
      <trkpt lat="49.3964" lon="-1.1801">
        <ele>1.770957</ele>
        <time>2022-08-01T12:38:06.000Z</time>
      </trkpt>
      <trkpt lat="49.39635" lon="-1.18009">
        <ele>1.770181</ele>
        <time>2022-08-01T12:38:07.000Z</time>
      </trkpt>
      <trkpt lat="49.3963" lon="-1.18008">
        <ele>1.771436</ele>
        <time>2022-08-01T12:38:08.000Z</time>
      </trkpt>
      <trkpt lat="49.39625" lon="-1.18008">
        <ele>1.772789</ele>
        <time>2022-08-01T12:38:09.000Z</time>
      </trkpt>
      <trkpt lat="49.3962" lon="-1.18008">
        <ele>1.774115</ele>
        <time>2022-08-01T12:38:10.000Z</time>
      </trkpt>
      <trkpt lat="49.39614" lon="-1.18008">
        <ele>1.775442</ele>
        <time>2022-08-01T12:38:11.000Z</time>
      </trkpt>
      <trkpt lat="49.3961" lon="-1.18008">
        <ele>1.776613</ele>
        <time>2022-08-01T12:38:12.000Z</time>
      </trkpt>
      <trkpt lat="49.39605" lon="-1.18007">
        <ele>1.777783</ele>
        <time>2022-08-01T12:38:13.000Z</time>
      </trkpt>
      <trkpt lat="49.396" lon="-1.18007">
        <ele>1.779194</ele>
        <time>2022-08-01T12:38:14.000Z</time>
      </trkpt>
      <trkpt lat="49.39595" lon="-1.18005">
        <ele>1.780613</ele>
        <time>2022-08-01T12:38:15.000Z</time>
      </trkpt>
      <trkpt lat="49.3959" lon="-1.18004">
        <ele>1.78188</ele>
        <time>2022-08-01T12:38:16.000Z</time>
      </trkpt>
      <trkpt lat="49.39584" lon="-1.18004">
        <ele>1.783389</ele>
        <time>2022-08-01T12:38:17.000Z</time>
      </trkpt>
      <trkpt lat="49.39579" lon="-1.18003">
        <ele>1.784802</ele>
        <time>2022-08-01T12:38:18.000Z</time>
      </trkpt>
      <trkpt lat="49.39574" lon="-1.18002">
        <ele>1.786054</ele>
        <time>2022-08-01T12:38:19.000Z</time>
      </trkpt>
      <trkpt lat="49.39568" lon="-1.18001">
        <ele>1.787492</ele>
        <time>2022-08-01T12:38:20.000Z</time>
      </trkpt>
      <trkpt lat="49.39563" lon="-1.18001">
        <ele>1.788897</ele>
        <time>2022-08-01T12:38:21.000Z</time>
      </trkpt>
      <trkpt lat="49.39558" lon="-1.18001">
        <ele>1.790146</ele>
        <time>2022-08-01T12:38:22.000Z</time>
      </trkpt>
      <trkpt lat="49.39553" lon="-1.18001">
        <ele>1.791475</ele>
        <time>2022-08-01T12:38:23.000Z</time>
      </trkpt>
      <trkpt lat="49.39547" lon="-1.18001">
        <ele>1.792983</ele>
        <time>2022-08-01T12:38:24.000Z</time>
      </trkpt>
      <trkpt lat="49.39542" lon="-1.18">
        <ele>1.794234</ele>
        <time>2022-08-01T12:38:25.000Z</time>
      </trkpt>
      <trkpt lat="49.39537" lon="-1.18">
        <ele>1.795566</ele>
        <time>2022-08-01T12:38:26.000Z</time>
      </trkpt>
      <trkpt lat="49.39533" lon="-1.17999">
        <ele>1.79682</ele>
        <time>2022-08-01T12:38:27.000Z</time>
      </trkpt>
      <trkpt lat="49.39527" lon="-1.17998">
        <ele>1.79815</ele>
        <time>2022-08-01T12:38:28.000Z</time>
      </trkpt>
      <trkpt lat="49.39523" lon="-1.17998">
        <ele>1.799398</ele>
        <time>2022-08-01T12:38:29.000Z</time>
      </trkpt>
      <trkpt lat="49.39518" lon="-1.17998">
        <ele>1.800569</ele>
        <time>2022-08-01T12:38:30.000Z</time>
      </trkpt>
      <trkpt lat="49.39513" lon="-1.17997">
        <ele>1.801906</ele>
        <time>2022-08-01T12:38:31.000Z</time>
      </trkpt>
      <trkpt lat="49.39508" lon="-1.17996">
        <ele>1.803346</ele>
        <time>2022-08-01T12:38:32.000Z</time>
      </trkpt>
      <trkpt lat="49.39503" lon="-1.17996">
        <ele>1.804597</ele>
        <time>2022-08-01T12:38:33.000Z</time>
      </trkpt>
      <trkpt lat="49.39498" lon="-1.17996">
        <ele>1.805924</ele>
        <time>2022-08-01T12:38:34.000Z</time>
      </trkpt>
      <trkpt lat="49.39493" lon="-1.17995">
        <ele>1.807251</ele>
        <time>2022-08-01T12:38:35.000Z</time>
      </trkpt>
      <trkpt lat="49.39487" lon="-1.17995">
        <ele>1.808684</ele>
        <time>2022-08-01T12:38:36.000Z</time>
      </trkpt>
      <trkpt lat="49.39482" lon="-1.17994">
        <ele>1.810089</ele>
        <time>2022-08-01T12:38:37.000Z</time>
      </trkpt>
      <trkpt lat="49.39476" lon="-1.17994">
        <ele>1.811497</ele>
        <time>2022-08-01T12:38:38.000Z</time>
      </trkpt>
      <trkpt lat="49.39471" lon="-1.17993">
        <ele>1.812936</ele>
        <time>2022-08-01T12:38:39.000Z</time>
      </trkpt>
      <trkpt lat="49.39466" lon="-1.17992">
        <ele>1.814273</ele>
        <time>2022-08-01T12:38:40.000Z</time>
      </trkpt>
      <trkpt lat="49.39461" lon="-1.17991">
        <ele>1.81561</ele>
        <time>2022-08-01T12:38:41.000Z</time>
      </trkpt>
      <trkpt lat="49.39455" lon="-1.1799">
        <ele>1.821629</ele>
        <time>2022-08-01T12:38:42.000Z</time>
      </trkpt>
      <trkpt lat="49.3945" lon="-1.17989">
        <ele>1.831072</ele>
        <time>2022-08-01T12:38:43.000Z</time>
      </trkpt>
      <trkpt lat="49.39445" lon="-1.17988">
        <ele>1.84058</ele>
        <time>2022-08-01T12:38:44.000Z</time>
      </trkpt>
      <trkpt lat="49.39439" lon="-1.17986">
        <ele>1.850633</ele>
        <time>2022-08-01T12:38:45.000Z</time>
      </trkpt>
      <trkpt lat="49.39435" lon="-1.17985">
        <ele>1.859034</ele>
        <time>2022-08-01T12:38:46.000Z</time>
      </trkpt>
      <trkpt lat="49.3943" lon="-1.17985">
        <ele>1.868421</ele>
        <time>2022-08-01T12:38:47.000Z</time>
      </trkpt>
      <trkpt lat="49.39425" lon="-1.17985">
        <ele>1.877989</ele>
        <time>2022-08-01T12:38:48.000Z</time>
      </trkpt>
      <trkpt lat="49.3942" lon="-1.17984">
        <ele>1.887388</ele>
        <time>2022-08-01T12:38:49.000Z</time>
      </trkpt>
      <trkpt lat="49.39415" lon="-1.17983">
        <ele>1.896256</ele>
        <time>2022-08-01T12:38:50.000Z</time>
      </trkpt>
      <trkpt lat="49.3941" lon="-1.17983">
        <ele>1.905685</ele>
        <time>2022-08-01T12:38:51.000Z</time>
      </trkpt>
      <trkpt lat="49.39405" lon="-1.17982">
        <ele>1.914534</ele>
        <time>2022-08-01T12:38:52.000Z</time>
      </trkpt>
      <trkpt lat="49.394" lon="-1.17981">
        <ele>1.923952</ele>
        <time>2022-08-01T12:38:53.000Z</time>
      </trkpt>
      <trkpt lat="49.39395" lon="-1.17981">
        <ele>1.932237</ele>
        <time>2022-08-01T12:38:54.000Z</time>
      </trkpt>
      <trkpt lat="49.3939" lon="-1.17981">
        <ele>1.941636</ele>
        <time>2022-08-01T12:38:55.000Z</time>
      </trkpt>
      <trkpt lat="49.39385" lon="-1.1798">
        <ele>1.950516</ele>
        <time>2022-08-01T12:38:56.000Z</time>
      </trkpt>
      <trkpt lat="49.3938" lon="-1.17979">
        <ele>1.960006</ele>
        <time>2022-08-01T12:38:57.000Z</time>
      </trkpt>
      <trkpt lat="49.39375" lon="-1.17977">
        <ele>1.968971</ele>
        <time>2022-08-01T12:38:58.000Z</time>
      </trkpt>
      <trkpt lat="49.3937" lon="-1.17976">
        <ele>1.978596</ele>
        <time>2022-08-01T12:38:59.000Z</time>
      </trkpt>
      <trkpt lat="49.39365" lon="-1.17976">
        <ele>1.987432</ele>
        <time>2022-08-01T12:39:00.000Z</time>
      </trkpt>
      <trkpt lat="49.3936" lon="-1.17976">
        <ele>1.996831</ele>
        <time>2022-08-01T12:39:01.000Z</time>
      </trkpt>
      <trkpt lat="49.39356" lon="-1.17974">
        <ele>2.005776</ele>
        <time>2022-08-01T12:39:02.000Z</time>
      </trkpt>
      <trkpt lat="49.3935" lon="-1.17973">
        <ele>2.015232</ele>
        <time>2022-08-01T12:39:03.000Z</time>
      </trkpt>
      <trkpt lat="49.39345" lon="-1.17973">
        <ele>2.024661</ele>
        <time>2022-08-01T12:39:04.000Z</time>
      </trkpt>
      <trkpt lat="49.3934" lon="-1.17972">
        <ele>2.034784</ele>
        <time>2022-08-01T12:39:05.000Z</time>
      </trkpt>
      <trkpt lat="49.39334" lon="-1.17971">
        <ele>2.044788</ele>
        <time>2022-08-01T12:39:06.000Z</time>
      </trkpt>
      <trkpt lat="49.3933" lon="-1.17971">
        <ele>2.053637</ele>
        <time>2022-08-01T12:39:07.000Z</time>
      </trkpt>
      <trkpt lat="49.39325" lon="-1.1797">
        <ele>2.063079</ele>
        <time>2022-08-01T12:39:08.000Z</time>
      </trkpt>
      <trkpt lat="49.3932" lon="-1.17969">
        <ele>2.071928</ele>
        <time>2022-08-01T12:39:09.000Z</time>
      </trkpt>
      <trkpt lat="49.39315" lon="-1.17969">
        <ele>2.081335</ele>
        <time>2022-08-01T12:39:10.000Z</time>
      </trkpt>
      <trkpt lat="49.3931" lon="-1.17967">
        <ele>2.090322</ele>
        <time>2022-08-01T12:39:11.000Z</time>
      </trkpt>
      <trkpt lat="49.39305" lon="-1.17966">
        <ele>2.099961</ele>
        <time>2022-08-01T12:39:12.000Z</time>
      </trkpt>
      <trkpt lat="49.393" lon="-1.17966">
        <ele>2.108818</ele>
        <time>2022-08-01T12:39:13.000Z</time>
      </trkpt>
      <trkpt lat="49.39295" lon="-1.17965">
        <ele>2.11826</ele>
        <time>2022-08-01T12:39:14.000Z</time>
      </trkpt>
      <trkpt lat="49.3929" lon="-1.17964">
        <ele>2.127118</ele>
        <time>2022-08-01T12:39:15.000Z</time>
      </trkpt>
      <trkpt lat="49.39285" lon="-1.17964">
        <ele>2.136518</ele>
        <time>2022-08-01T12:39:16.000Z</time>
      </trkpt>
      <trkpt lat="49.3928" lon="-1.17964">
        <ele>2.144794</ele>
        <time>2022-08-01T12:39:17.000Z</time>
      </trkpt>
      <trkpt lat="49.39276" lon="-1.17963">
        <ele>2.138765</ele>
        <time>2022-08-01T12:39:18.000Z</time>
      </trkpt>
      <trkpt lat="49.39271" lon="-1.17962">
        <ele>2.127352</ele>
        <time>2022-08-01T12:39:19.000Z</time>
      </trkpt>
      <trkpt lat="49.39266" lon="-1.17961">
        <ele>2.115958</ele>
        <time>2022-08-01T12:39:20.000Z</time>
      </trkpt>
      <trkpt lat="49.39261" lon="-1.17961">
        <ele>2.103941</ele>
        <time>2022-08-01T12:39:21.000Z</time>
      </trkpt>
      <trkpt lat="49.39256" lon="-1.17961">
        <ele>2.09332</ele>
        <time>2022-08-01T12:39:22.000Z</time>
      </trkpt>
      <trkpt lat="49.39251" lon="-1.1796">
        <ele>2.080574</ele>
        <time>2022-08-01T12:39:23.000Z</time>
      </trkpt>
      <trkpt lat="49.39245" lon="-1.17959">
        <ele>2.066805</ele>
        <time>2022-08-01T12:39:24.000Z</time>
      </trkpt>
      <trkpt lat="49.3924" lon="-1.17959">
        <ele>2.05474</ele>
        <time>2022-08-01T12:39:25.000Z</time>
      </trkpt>
      <trkpt lat="49.39235" lon="-1.17958">
        <ele>2.041958</ele>
        <time>2022-08-01T12:39:26.000Z</time>
      </trkpt>
      <trkpt lat="49.39229" lon="-1.17957">
        <ele>2.028206</ele>
        <time>2022-08-01T12:39:27.000Z</time>
      </trkpt>
      <trkpt lat="49.39223" lon="-1.17955">
        <ele>2.015303</ele>
        <time>2022-08-01T12:39:28.000Z</time>
      </trkpt>
      <trkpt lat="49.39218" lon="-1.17954">
        <ele>2.002956</ele>
        <time>2022-08-01T12:39:29.000Z</time>
      </trkpt>
      <trkpt lat="49.39213" lon="-1.17954">
        <ele>1.989525</ele>
        <time>2022-08-01T12:39:30.000Z</time>
      </trkpt>
      <trkpt lat="49.39207" lon="-1.17954">
        <ele>1.975855</ele>
        <time>2022-08-01T12:39:31.000Z</time>
      </trkpt>
      <trkpt lat="49.39201" lon="-1.17954">
        <ele>1.963124</ele>
        <time>2022-08-01T12:39:32.000Z</time>
      </trkpt>
      <trkpt lat="49.39196" lon="-1.17953">
        <ele>1.951092</ele>
        <time>2022-08-01T12:39:33.000Z</time>
      </trkpt>
      <trkpt lat="49.39191" lon="-1.17953">
        <ele>1.938125</ele>
        <time>2022-08-01T12:39:34.000Z</time>
      </trkpt>
      <trkpt lat="49.39185" lon="-1.17952">
        <ele>1.925246</ele>
        <time>2022-08-01T12:39:35.000Z</time>
      </trkpt>
      <trkpt lat="49.3918" lon="-1.17951">
        <ele>1.912197</ele>
        <time>2022-08-01T12:39:36.000Z</time>
      </trkpt>
      <trkpt lat="49.39175" lon="-1.1795">
        <ele>1.900083</ele>
        <time>2022-08-01T12:39:37.000Z</time>
      </trkpt>
      <trkpt lat="49.39169" lon="-1.17949">
        <ele>1.887314</ele>
        <time>2022-08-01T12:39:38.000Z</time>
      </trkpt>
      <trkpt lat="49.39165" lon="-1.17949">
        <ele>1.875979</ele>
        <time>2022-08-01T12:39:39.000Z</time>
      </trkpt>
      <trkpt lat="49.39159" lon="-1.17948">
        <ele>1.862962</ele>
        <time>2022-08-01T12:39:40.000Z</time>
      </trkpt>
      <trkpt lat="49.39155" lon="-1.17947">
        <ele>1.852566</ele>
        <time>2022-08-01T12:39:41.000Z</time>
      </trkpt>
      <trkpt lat="49.3915" lon="-1.17947">
        <ele>1.841257</ele>
        <time>2022-08-01T12:39:42.000Z</time>
      </trkpt>
      <trkpt lat="49.39145" lon="-1.17947">
        <ele>1.8306</ele>
        <time>2022-08-01T12:39:43.000Z</time>
      </trkpt>
      <trkpt lat="49.39141" lon="-1.17946">
        <ele>1.819943</ele>
        <time>2022-08-01T12:39:44.000Z</time>
      </trkpt>
      <trkpt lat="49.39137" lon="-1.17945">
        <ele>1.810942</ele>
        <time>2022-08-01T12:39:45.000Z</time>
      </trkpt>
      <trkpt lat="49.39133" lon="-1.17944">
        <ele>1.800877</ele>
        <time>2022-08-01T12:39:46.000Z</time>
      </trkpt>
      <trkpt lat="49.39129" lon="-1.17942">
        <ele>1.791551</ele>
        <time>2022-08-01T12:39:47.000Z</time>
      </trkpt>
      <trkpt lat="49.39125" lon="-1.17941">
        <ele>1.781537</ele>
        <time>2022-08-01T12:39:48.000Z</time>
      </trkpt>
      <trkpt lat="49.39121" lon="-1.17941">
        <ele>1.773278</ele>
        <time>2022-08-01T12:39:49.000Z</time>
      </trkpt>
      <trkpt lat="49.39117" lon="-1.17942">
        <ele>1.763212</ele>
        <time>2022-08-01T12:39:50.000Z</time>
      </trkpt>
      <trkpt lat="49.39112" lon="-1.17941">
        <ele>1.751819</ele>
        <time>2022-08-01T12:39:51.000Z</time>
      </trkpt>
      <trkpt lat="49.39108" lon="-1.17942">
        <ele>1.742154</ele>
        <time>2022-08-01T12:39:52.000Z</time>
      </trkpt>
      <trkpt lat="49.39104" lon="-1.17941">
        <ele>1.732182</ele>
        <time>2022-08-01T12:39:53.000Z</time>
      </trkpt>
      <trkpt lat="49.391" lon="-1.1794">
        <ele>1.722881</ele>
        <time>2022-08-01T12:39:54.000Z</time>
      </trkpt>
      <trkpt lat="49.39096" lon="-1.1794">
        <ele>1.718939</ele>
        <time>2022-08-01T12:39:55.000Z</time>
      </trkpt>
      <trkpt lat="49.39092" lon="-1.17939">
        <ele>1.715179</ele>
        <time>2022-08-01T12:39:56.000Z</time>
      </trkpt>
      <trkpt lat="49.39088" lon="-1.17939">
        <ele>1.711815</ele>
        <time>2022-08-01T12:39:57.000Z</time>
      </trkpt>
      <trkpt lat="49.39085" lon="-1.17939">
        <ele>1.708151</ele>
        <time>2022-08-01T12:39:58.000Z</time>
      </trkpt>
      <trkpt lat="49.39081" lon="-1.17938">
        <ele>1.704741</ele>
        <time>2022-08-01T12:39:59.000Z</time>
      </trkpt>
      <trkpt lat="49.39078" lon="-1.17938">
        <ele>1.701665</ele>
        <time>2022-08-01T12:40:00.000Z</time>
      </trkpt>
      <trkpt lat="49.39074" lon="-1.17938">
        <ele>1.698201</ele>
        <time>2022-08-01T12:40:01.000Z</time>
      </trkpt>
      <trkpt lat="49.39072" lon="-1.17938">
        <ele>1.695796</ele>
        <time>2022-08-01T12:40:02.000Z</time>
      </trkpt>
      <trkpt lat="49.39069" lon="-1.17939">
        <ele>1.692698</ele>
        <time>2022-08-01T12:40:03.000Z</time>
      </trkpt>
      <trkpt lat="49.39065" lon="-1.17939">
        <ele>1.689621</ele>
        <time>2022-08-01T12:40:04.000Z</time>
      </trkpt>
      <trkpt lat="49.39061" lon="-1.17939">
        <ele>1.685869</ele>
        <time>2022-08-01T12:40:05.000Z</time>
      </trkpt>
      <trkpt lat="49.39057" lon="-1.17939">
        <ele>1.681929</ele>
        <time>2022-08-01T12:40:06.000Z</time>
      </trkpt>
      <trkpt lat="49.39053" lon="-1.17939">
        <ele>1.678177</ele>
        <time>2022-08-01T12:40:07.000Z</time>
      </trkpt>
      <trkpt lat="49.3905" lon="-1.17938">
        <ele>1.674731</ele>
        <time>2022-08-01T12:40:08.000Z</time>
      </trkpt>
      <trkpt lat="49.39046" lon="-1.17937">
        <ele>1.67131</ele>
        <time>2022-08-01T12:40:09.000Z</time>
      </trkpt>
      <trkpt lat="49.39043" lon="-1.17936">
        <ele>1.66816</ele>
        <time>2022-08-01T12:40:10.000Z</time>
      </trkpt>
      <trkpt lat="49.39039" lon="-1.17935">
        <ele>1.664482</ele>
        <time>2022-08-01T12:40:11.000Z</time>
      </trkpt>
      <trkpt lat="49.39036" lon="-1.17934">
        <ele>1.661344</ele>
        <time>2022-08-01T12:40:12.000Z</time>
      </trkpt>
      <trkpt lat="49.39032" lon="-1.17934">
        <ele>1.657595</ele>
        <time>2022-08-01T12:40:13.000Z</time>
      </trkpt>
      <trkpt lat="49.39028" lon="-1.17934">
        <ele>1.653655</ele>
        <time>2022-08-01T12:40:14.000Z</time>
      </trkpt>
      <trkpt lat="49.39025" lon="-1.17934">
        <ele>1.65055</ele>
        <time>2022-08-01T12:40:15.000Z</time>
      </trkpt>
      <trkpt lat="49.39022" lon="-1.17933">
        <ele>1.647459</ele>
        <time>2022-08-01T12:40:16.000Z</time>
      </trkpt>
      <trkpt lat="49.39019" lon="-1.17932">
        <ele>1.644344</ele>
        <time>2022-08-01T12:40:17.000Z</time>
      </trkpt>
      <trkpt lat="49.39015" lon="-1.17931">
        <ele>1.640554</ele>
        <time>2022-08-01T12:40:18.000Z</time>
      </trkpt>
      <trkpt lat="49.39012" lon="-1.1793">
        <ele>1.637403</ele>
        <time>2022-08-01T12:40:19.000Z</time>
      </trkpt>
      <trkpt lat="49.39008" lon="-1.17929">
        <ele>1.633676</ele>
        <time>2022-08-01T12:40:20.000Z</time>
      </trkpt>
      <trkpt lat="49.39004" lon="-1.17928">
        <ele>1.629571</ele>
        <time>2022-08-01T12:40:21.000Z</time>
      </trkpt>
      <trkpt lat="49.39" lon="-1.17927">
        <ele>1.626171</ele>
        <time>2022-08-01T12:40:22.000Z</time>
      </trkpt>
      <trkpt lat="49.38997" lon="-1.17927">
        <ele>1.622805</ele>
        <time>2022-08-01T12:40:23.000Z</time>
      </trkpt>
      <trkpt lat="49.38993" lon="-1.17928">
        <ele>1.619428</ele>
        <time>2022-08-01T12:40:24.000Z</time>
      </trkpt>
      <trkpt lat="49.3899" lon="-1.17928">
        <ele>1.616337</ele>
        <time>2022-08-01T12:40:25.000Z</time>
      </trkpt>
      <trkpt lat="49.38986" lon="-1.17929">
        <ele>1.612858</ele>
        <time>2022-08-01T12:40:26.000Z</time>
      </trkpt>
      <trkpt lat="49.38983" lon="-1.17929">
        <ele>1.609767</ele>
        <time>2022-08-01T12:40:27.000Z</time>
      </trkpt>
      <trkpt lat="49.3898" lon="-1.17932">
        <ele>1.606686</ele>
        <time>2022-08-01T12:40:28.000Z</time>
      </trkpt>
      <trkpt lat="49.38977" lon="-1.17935">
        <ele>1.602983</ele>
        <time>2022-08-01T12:40:29.000Z</time>
      </trkpt>
      <trkpt lat="49.38975" lon="-1.17939">
        <ele>1.599927</ele>
        <time>2022-08-01T12:40:30.000Z</time>
      </trkpt>
      <trkpt lat="49.38973" lon="-1.17943">
        <ele>1.596456</ele>
        <time>2022-08-01T12:40:31.000Z</time>
      </trkpt>
      <trkpt lat="49.38971" lon="-1.17948">
        <ele>1.593249</ele>
        <time>2022-08-01T12:40:32.000Z</time>
      </trkpt>
      <trkpt lat="49.38969" lon="-1.17953">
        <ele>1.589736</ele>
        <time>2022-08-01T12:40:33.000Z</time>
      </trkpt>
      <trkpt lat="49.38968" lon="-1.17958">
        <ele>1.586464</ele>
        <time>2022-08-01T12:40:34.000Z</time>
      </trkpt>
      <trkpt lat="49.38967" lon="-1.17963">
        <ele>1.58298</ele>
        <time>2022-08-01T12:40:35.000Z</time>
      </trkpt>
      <trkpt lat="49.38966" lon="-1.17968">
        <ele>1.579554</ele>
        <time>2022-08-01T12:40:36.000Z</time>
      </trkpt>
      <trkpt lat="49.38965" lon="-1.17973">
        <ele>1.5759</ele>
        <time>2022-08-01T12:40:37.000Z</time>
      </trkpt>
      <trkpt lat="49.38963" lon="-1.17979">
        <ele>1.572005</ele>
        <time>2022-08-01T12:40:38.000Z</time>
      </trkpt>
      <trkpt lat="49.38962" lon="-1.17985">
        <ele>1.56807</ele>
        <time>2022-08-01T12:40:39.000Z</time>
      </trkpt>
      <trkpt lat="49.38961" lon="-1.17992">
        <ele>1.564025</ele>
        <time>2022-08-01T12:40:40.000Z</time>
      </trkpt>
      <trkpt lat="49.3896" lon="-1.17998">
        <ele>1.560151</ele>
        <time>2022-08-01T12:40:41.000Z</time>
      </trkpt>
      <trkpt lat="49.38959" lon="-1.18004">
        <ele>1.556196</ele>
        <time>2022-08-01T12:40:42.000Z</time>
      </trkpt>
      <trkpt lat="49.38957" lon="-1.18009">
        <ele>1.552256</ele>
        <time>2022-08-01T12:40:43.000Z</time>
      </trkpt>
      <trkpt lat="49.38956" lon="-1.18015">
        <ele>1.541998</ele>
        <time>2022-08-01T12:40:44.000Z</time>
      </trkpt>
      <trkpt lat="49.38955" lon="-1.18021">
        <ele>1.525752</ele>
        <time>2022-08-01T12:40:45.000Z</time>
      </trkpt>
      <trkpt lat="49.38953" lon="-1.18026">
        <ele>1.509783</ele>
        <time>2022-08-01T12:40:46.000Z</time>
      </trkpt>
      <trkpt lat="49.38952" lon="-1.18031">
        <ele>1.494462</ele>
        <time>2022-08-01T12:40:47.000Z</time>
      </trkpt>
      <trkpt lat="49.38951" lon="-1.18036">
        <ele>1.480593</ele>
        <time>2022-08-01T12:40:48.000Z</time>
      </trkpt>
      <trkpt lat="49.3895" lon="-1.18041">
        <ele>1.466335</ele>
        <time>2022-08-01T12:40:49.000Z</time>
      </trkpt>
      <trkpt lat="49.38949" lon="-1.18046">
        <ele>1.451387</ele>
        <time>2022-08-01T12:40:50.000Z</time>
      </trkpt>
      <trkpt lat="49.38948" lon="-1.18051">
        <ele>1.436414</ele>
        <time>2022-08-01T12:40:51.000Z</time>
      </trkpt>
      <trkpt lat="49.38947" lon="-1.18055">
        <ele>1.422545</ele>
        <time>2022-08-01T12:40:52.000Z</time>
      </trkpt>
      <trkpt lat="49.38945" lon="-1.1806">
        <ele>1.408366</ele>
        <time>2022-08-01T12:40:53.000Z</time>
      </trkpt>
      <trkpt lat="49.38944" lon="-1.18065">
        <ele>1.393844</ele>
        <time>2022-08-01T12:40:54.000Z</time>
      </trkpt>
      <trkpt lat="49.38943" lon="-1.1807">
        <ele>1.378378</ele>
        <time>2022-08-01T12:40:55.000Z</time>
      </trkpt>
      <trkpt lat="49.38942" lon="-1.18075">
        <ele>1.363974</ele>
        <time>2022-08-01T12:40:56.000Z</time>
      </trkpt>
      <trkpt lat="49.38941" lon="-1.1808">
        <ele>1.348768</ele>
        <time>2022-08-01T12:40:57.000Z</time>
      </trkpt>
      <trkpt lat="49.3894" lon="-1.18086">
        <ele>1.332782</ele>
        <time>2022-08-01T12:40:58.000Z</time>
      </trkpt>
      <trkpt lat="49.38939" lon="-1.18091">
        <ele>1.317036</ele>
        <time>2022-08-01T12:40:59.000Z</time>
      </trkpt>
      <trkpt lat="49.38937" lon="-1.18097">
        <ele>1.300529</ele>
        <time>2022-08-01T12:41:00.000Z</time>
      </trkpt>
      <trkpt lat="49.38936" lon="-1.18103">
        <ele>1.283235</ele>
        <time>2022-08-01T12:41:01.000Z</time>
      </trkpt>
      <trkpt lat="49.38934" lon="-1.18109">
        <ele>1.265232</ele>
        <time>2022-08-01T12:41:02.000Z</time>
      </trkpt>
      <trkpt lat="49.38933" lon="-1.18115">
        <ele>1.247742</ele>
        <time>2022-08-01T12:41:03.000Z</time>
      </trkpt>
      <trkpt lat="49.38931" lon="-1.18121">
        <ele>1.228967</ele>
        <time>2022-08-01T12:41:04.000Z</time>
      </trkpt>
      <trkpt lat="49.3893" lon="-1.18127">
        <ele>1.209932</ele>
        <time>2022-08-01T12:41:05.000Z</time>
      </trkpt>
      <trkpt lat="49.38928" lon="-1.18134">
        <ele>1.191582</ele>
        <time>2022-08-01T12:41:06.000Z</time>
      </trkpt>
      <trkpt lat="49.38927" lon="-1.1814">
        <ele>1.172288</ele>
        <time>2022-08-01T12:41:07.000Z</time>
      </trkpt>
      <trkpt lat="49.38925" lon="-1.18146">
        <ele>1.153512</ele>
        <time>2022-08-01T12:41:08.000Z</time>
      </trkpt>
      <trkpt lat="49.38924" lon="-1.18152">
        <ele>1.135509</ele>
        <time>2022-08-01T12:41:09.000Z</time>
      </trkpt>
      <trkpt lat="49.38922" lon="-1.18159">
        <ele>1.117424</ele>
        <time>2022-08-01T12:41:10.000Z</time>
      </trkpt>
      <trkpt lat="49.3892" lon="-1.18164">
        <ele>1.099644</ele>
        <time>2022-08-01T12:41:11.000Z</time>
      </trkpt>
      <trkpt lat="49.38919" lon="-1.1817">
        <ele>1.082154</ele>
        <time>2022-08-01T12:41:12.000Z</time>
      </trkpt>
      <trkpt lat="49.38917" lon="-1.18176">
        <ele>1.065428</ele>
        <time>2022-08-01T12:41:13.000Z</time>
      </trkpt>
      <trkpt lat="49.38916" lon="-1.18181">
        <ele>1.049458</ele>
        <time>2022-08-01T12:41:14.000Z</time>
      </trkpt>
      <trkpt lat="49.38914" lon="-1.18186">
        <ele>1.031925</ele>
        <time>2022-08-01T12:41:15.000Z</time>
      </trkpt>
      <trkpt lat="49.38912" lon="-1.18192">
        <ele>1.014144</ele>
        <time>2022-08-01T12:41:16.000Z</time>
      </trkpt>
      <trkpt lat="49.3891" lon="-1.18198">
        <ele>0.997113</ele>
        <time>2022-08-01T12:41:17.000Z</time>
      </trkpt>
      <trkpt lat="49.38909" lon="-1.18204">
        <ele>0.978587</ele>
        <time>2022-08-01T12:41:18.000Z</time>
      </trkpt>
      <trkpt lat="49.38907" lon="-1.1821">
        <ele>0.96103</ele>
        <time>2022-08-01T12:41:19.000Z</time>
      </trkpt>
      <trkpt lat="49.38905" lon="-1.18216">
        <ele>0.942753</ele>
        <time>2022-08-01T12:41:20.000Z</time>
      </trkpt>
      <trkpt lat="49.38904" lon="-1.18222">
        <ele>0.924494</ele>
        <time>2022-08-01T12:41:21.000Z</time>
      </trkpt>
      <trkpt lat="49.38902" lon="-1.18228">
        <ele>0.90471</ele>
        <time>2022-08-01T12:41:22.000Z</time>
      </trkpt>
      <trkpt lat="49.389" lon="-1.18235">
        <ele>0.884748</ele>
        <time>2022-08-01T12:41:23.000Z</time>
      </trkpt>
      <trkpt lat="49.38898" lon="-1.18242">
        <ele>0.864934</ele>
        <time>2022-08-01T12:41:24.000Z</time>
      </trkpt>
      <trkpt lat="49.38897" lon="-1.18248">
        <ele>0.846416</ele>
        <time>2022-08-01T12:41:25.000Z</time>
      </trkpt>
      <trkpt lat="49.38895" lon="-1.18254">
        <ele>0.828191</ele>
        <time>2022-08-01T12:41:26.000Z</time>
      </trkpt>
      <trkpt lat="49.38893" lon="-1.18261">
        <ele>0.808229</ele>
        <time>2022-08-01T12:41:27.000Z</time>
      </trkpt>
      <trkpt lat="49.38892" lon="-1.18267">
        <ele>0.789202</ele>
        <time>2022-08-01T12:41:28.000Z</time>
      </trkpt>
      <trkpt lat="49.38889" lon="-1.18273">
        <ele>0.782496</ele>
        <time>2022-08-01T12:41:29.000Z</time>
      </trkpt>
      <trkpt lat="49.38887" lon="-1.18279">
        <ele>0.781314</ele>
        <time>2022-08-01T12:41:30.000Z</time>
      </trkpt>
      <trkpt lat="49.38885" lon="-1.18285">
        <ele>0.780144</ele>
        <time>2022-08-01T12:41:31.000Z</time>
      </trkpt>
      <trkpt lat="49.38883" lon="-1.18291">
        <ele>0.779032</ele>
        <time>2022-08-01T12:41:32.000Z</time>
      </trkpt>
      <trkpt lat="49.3888" lon="-1.18297">
        <ele>0.777907</ele>
        <time>2022-08-01T12:41:33.000Z</time>
      </trkpt>
      <trkpt lat="49.38877" lon="-1.18302">
        <ele>0.776781</ele>
        <time>2022-08-01T12:41:34.000Z</time>
      </trkpt>
      <trkpt lat="49.38875" lon="-1.18308">
        <ele>0.77567</ele>
        <time>2022-08-01T12:41:35.000Z</time>
      </trkpt>
      <trkpt lat="49.38872" lon="-1.18313">
        <ele>0.774535</ele>
        <time>2022-08-01T12:41:36.000Z</time>
      </trkpt>
      <trkpt lat="49.38869" lon="-1.18318">
        <ele>0.77335</ele>
        <time>2022-08-01T12:41:37.000Z</time>
      </trkpt>
      <trkpt lat="49.38866" lon="-1.18323">
        <ele>0.772189</ele>
        <time>2022-08-01T12:41:38.000Z</time>
      </trkpt>
      <trkpt lat="49.38863" lon="-1.18329">
        <ele>0.771055</ele>
        <time>2022-08-01T12:41:39.000Z</time>
      </trkpt>
      <trkpt lat="49.38859" lon="-1.18333">
        <ele>0.769813</ele>
        <time>2022-08-01T12:41:40.000Z</time>
      </trkpt>
      <trkpt lat="49.38855" lon="-1.18337">
        <ele>0.768659</ele>
        <time>2022-08-01T12:41:41.000Z</time>
      </trkpt>
      <trkpt lat="49.38852" lon="-1.18341">
        <ele>0.76751</ele>
        <time>2022-08-01T12:41:42.000Z</time>
      </trkpt>
      <trkpt lat="49.38847" lon="-1.18344">
        <ele>0.76634</ele>
        <time>2022-08-01T12:41:43.000Z</time>
      </trkpt>
      <trkpt lat="49.38844" lon="-1.18347">
        <ele>0.765207</ele>
        <time>2022-08-01T12:41:44.000Z</time>
      </trkpt>
      <trkpt lat="49.38839" lon="-1.1835">
        <ele>0.764029</ele>
        <time>2022-08-01T12:41:45.000Z</time>
      </trkpt>
      <trkpt lat="49.38836" lon="-1.18354">
        <ele>0.762904</ele>
        <time>2022-08-01T12:41:46.000Z</time>
      </trkpt>
      <trkpt lat="49.38832" lon="-1.18357">
        <ele>0.761841</ele>
        <time>2022-08-01T12:41:47.000Z</time>
      </trkpt>
      <trkpt lat="49.38829" lon="-1.18361">
        <ele>0.760771</ele>
        <time>2022-08-01T12:41:48.000Z</time>
      </trkpt>
      <trkpt lat="49.38825" lon="-1.18366">
        <ele>0.759609</ele>
        <time>2022-08-01T12:41:49.000Z</time>
      </trkpt>
      <trkpt lat="49.38822" lon="-1.1837">
        <ele>0.758494</ele>
        <time>2022-08-01T12:41:50.000Z</time>
      </trkpt>
      <trkpt lat="49.38819" lon="-1.18375">
        <ele>0.757421</ele>
        <time>2022-08-01T12:41:51.000Z</time>
      </trkpt>
      <trkpt lat="49.38816" lon="-1.1838">
        <ele>0.756373</ele>
        <time>2022-08-01T12:41:52.000Z</time>
      </trkpt>
      <trkpt lat="49.38814" lon="-1.18384">
        <ele>0.75544</ele>
        <time>2022-08-01T12:41:53.000Z</time>
      </trkpt>
      <trkpt lat="49.38812" lon="-1.18389">
        <ele>0.754524</ele>
        <time>2022-08-01T12:41:54.000Z</time>
      </trkpt>
      <trkpt lat="49.38811" lon="-1.18394">
        <ele>0.753617</ele>
        <time>2022-08-01T12:41:55.000Z</time>
      </trkpt>
      <trkpt lat="49.38809" lon="-1.18399">
        <ele>0.752672</ele>
        <time>2022-08-01T12:41:56.000Z</time>
      </trkpt>
      <trkpt lat="49.38807" lon="-1.18404">
        <ele>0.7517</ele>
        <time>2022-08-01T12:41:57.000Z</time>
      </trkpt>
      <trkpt lat="49.38805" lon="-1.18409">
        <ele>0.750698</ele>
        <time>2022-08-01T12:41:58.000Z</time>
      </trkpt>
      <trkpt lat="49.38803" lon="-1.18414">
        <ele>0.74971</ele>
        <time>2022-08-01T12:41:59.000Z</time>
      </trkpt>
      <trkpt lat="49.38801" lon="-1.18419">
        <ele>0.74878</ele>
        <time>2022-08-01T12:42:00.000Z</time>
      </trkpt>
      <trkpt lat="49.388" lon="-1.18424">
        <ele>0.747857</ele>
        <time>2022-08-01T12:42:01.000Z</time>
      </trkpt>
      <trkpt lat="49.38798" lon="-1.18429">
        <ele>0.746965</ele>
        <time>2022-08-01T12:42:02.000Z</time>
      </trkpt>
      <trkpt lat="49.38797" lon="-1.18434">
        <ele>0.746099</ele>
        <time>2022-08-01T12:42:03.000Z</time>
      </trkpt>
      <trkpt lat="49.38796" lon="-1.18439">
        <ele>0.745131</ele>
        <time>2022-08-01T12:42:04.000Z</time>
      </trkpt>
      <trkpt lat="49.38794" lon="-1.18445">
        <ele>0.7441</ele>
        <time>2022-08-01T12:42:05.000Z</time>
      </trkpt>
      <trkpt lat="49.38792" lon="-1.1845">
        <ele>0.74303</ele>
        <time>2022-08-01T12:42:06.000Z</time>
      </trkpt>
      <trkpt lat="49.38789" lon="-1.18456">
        <ele>0.741877</ele>
        <time>2022-08-01T12:42:07.000Z</time>
      </trkpt>
      <trkpt lat="49.38788" lon="-1.18462">
        <ele>0.740846</ele>
        <time>2022-08-01T12:42:08.000Z</time>
      </trkpt>
      <trkpt lat="49.38785" lon="-1.18468">
        <ele>0.739705</ele>
        <time>2022-08-01T12:42:09.000Z</time>
      </trkpt>
      <trkpt lat="49.38784" lon="-1.18473">
        <ele>0.738707</ele>
        <time>2022-08-01T12:42:10.000Z</time>
      </trkpt>
      <trkpt lat="49.38782" lon="-1.18479">
        <ele>0.737646</ele>
        <time>2022-08-01T12:42:11.000Z</time>
      </trkpt>
      <trkpt lat="49.3878" lon="-1.18485">
        <ele>0.739694</ele>
        <time>2022-08-01T12:42:12.000Z</time>
      </trkpt>
      <trkpt lat="49.38778" lon="-1.1849">
        <ele>0.742111</ele>
        <time>2022-08-01T12:42:13.000Z</time>
      </trkpt>
      <trkpt lat="49.38776" lon="-1.18496">
        <ele>0.744542</ele>
        <time>2022-08-01T12:42:14.000Z</time>
      </trkpt>
      <trkpt lat="49.38773" lon="-1.18502">
        <ele>0.747085</ele>
        <time>2022-08-01T12:42:15.000Z</time>
      </trkpt>
      <trkpt lat="49.38771" lon="-1.18507">
        <ele>0.749345</ele>
        <time>2022-08-01T12:42:16.000Z</time>
      </trkpt>
      <trkpt lat="49.38768" lon="-1.18512">
        <ele>0.751909</ele>
        <time>2022-08-01T12:42:17.000Z</time>
      </trkpt>
      <trkpt lat="49.38766" lon="-1.18517">
        <ele>0.754076</ele>
        <time>2022-08-01T12:42:18.000Z</time>
      </trkpt>
      <trkpt lat="49.38764" lon="-1.18522">
        <ele>0.75643</ele>
        <time>2022-08-01T12:42:19.000Z</time>
      </trkpt>
      <trkpt lat="49.38762" lon="-1.18528">
        <ele>0.758846</ele>
        <time>2022-08-01T12:42:20.000Z</time>
      </trkpt>
      <trkpt lat="49.3876" lon="-1.18534">
        <ele>0.761425</ele>
        <time>2022-08-01T12:42:21.000Z</time>
      </trkpt>
      <trkpt lat="49.38757" lon="-1.18539">
        <ele>0.763872</ele>
        <time>2022-08-01T12:42:22.000Z</time>
      </trkpt>
      <trkpt lat="49.38756" lon="-1.18545">
        <ele>0.766138</ele>
        <time>2022-08-01T12:42:23.000Z</time>
      </trkpt>
      <trkpt lat="49.38753" lon="-1.1855">
        <ele>0.768555</ele>
        <time>2022-08-01T12:42:24.000Z</time>
      </trkpt>
      <trkpt lat="49.38751" lon="-1.18555">
        <ele>0.77082</ele>
        <time>2022-08-01T12:42:25.000Z</time>
      </trkpt>
      <trkpt lat="49.38749" lon="-1.18561">
        <ele>0.773146</ele>
        <time>2022-08-01T12:42:26.000Z</time>
      </trkpt>
      <trkpt lat="49.38747" lon="-1.18566">
        <ele>0.775597</ele>
        <time>2022-08-01T12:42:27.000Z</time>
      </trkpt>
      <trkpt lat="49.38745" lon="-1.18571">
        <ele>0.777765</ele>
        <time>2022-08-01T12:42:28.000Z</time>
      </trkpt>
      <trkpt lat="49.38743" lon="-1.18576">
        <ele>0.779996</ele>
        <time>2022-08-01T12:42:29.000Z</time>
      </trkpt>
      <trkpt lat="49.38741" lon="-1.18581">
        <ele>0.782164</ele>
        <time>2022-08-01T12:42:30.000Z</time>
      </trkpt>
      <trkpt lat="49.38739" lon="-1.18586">
        <ele>0.784424</ele>
        <time>2022-08-01T12:42:31.000Z</time>
      </trkpt>
      <trkpt lat="49.38736" lon="-1.18591">
        <ele>0.786686</ele>
        <time>2022-08-01T12:42:32.000Z</time>
      </trkpt>
      <trkpt lat="49.38734" lon="-1.18596">
        <ele>0.788884</ele>
        <time>2022-08-01T12:42:33.000Z</time>
      </trkpt>
      <trkpt lat="49.38732" lon="-1.186">
        <ele>0.790955</ele>
        <time>2022-08-01T12:42:34.000Z</time>
      </trkpt>
      <trkpt lat="49.3873" lon="-1.18605">
        <ele>0.793247</ele>
        <time>2022-08-01T12:42:35.000Z</time>
      </trkpt>
      <trkpt lat="49.38728" lon="-1.1861">
        <ele>0.795445</ele>
        <time>2022-08-01T12:42:36.000Z</time>
      </trkpt>
      <trkpt lat="49.38726" lon="-1.18615">
        <ele>0.797454</ele>
        <time>2022-08-01T12:42:37.000Z</time>
      </trkpt>
      <trkpt lat="49.38724" lon="-1.18619">
        <ele>0.799596</ele>
        <time>2022-08-01T12:42:38.000Z</time>
      </trkpt>
      <trkpt lat="49.38721" lon="-1.18624">
        <ele>0.801869</ele>
        <time>2022-08-01T12:42:39.000Z</time>
      </trkpt>
      <trkpt lat="49.38719" lon="-1.18628">
        <ele>0.803952</ele>
        <time>2022-08-01T12:42:40.000Z</time>
      </trkpt>
      <trkpt lat="49.38717" lon="-1.18633">
        <ele>0.80606</ele>
        <time>2022-08-01T12:42:41.000Z</time>
      </trkpt>
      <trkpt lat="49.38714" lon="-1.18637">
        <ele>0.808261</ele>
        <time>2022-08-01T12:42:42.000Z</time>
      </trkpt>
      <trkpt lat="49.38712" lon="-1.18642">
        <ele>0.810368</ele>
        <time>2022-08-01T12:42:43.000Z</time>
      </trkpt>
      <trkpt lat="49.3871" lon="-1.18646">
        <ele>0.812475</ele>
        <time>2022-08-01T12:42:44.000Z</time>
      </trkpt>
      <trkpt lat="49.38707" lon="-1.18651">
        <ele>0.814728</ele>
        <time>2022-08-01T12:42:45.000Z</time>
      </trkpt>
      <trkpt lat="49.38705" lon="-1.18655">
        <ele>0.816836</ele>
        <time>2022-08-01T12:42:46.000Z</time>
      </trkpt>
      <trkpt lat="49.38703" lon="-1.1866">
        <ele>0.819007</ele>
        <time>2022-08-01T12:42:47.000Z</time>
      </trkpt>
      <trkpt lat="49.38701" lon="-1.18664">
        <ele>0.821085</ele>
        <time>2022-08-01T12:42:48.000Z</time>
      </trkpt>
      <trkpt lat="49.38699" lon="-1.18669">
        <ele>0.823093</ele>
        <time>2022-08-01T12:42:49.000Z</time>
      </trkpt>
      <trkpt lat="49.38696" lon="-1.18673">
        <ele>0.82529</ele>
        <time>2022-08-01T12:42:50.000Z</time>
      </trkpt>
      <trkpt lat="49.38694" lon="-1.18678">
        <ele>0.827458</ele>
        <time>2022-08-01T12:42:51.000Z</time>
      </trkpt>
      <trkpt lat="49.38691" lon="-1.18682">
        <ele>0.829739</ele>
        <time>2022-08-01T12:42:52.000Z</time>
      </trkpt>
      <trkpt lat="49.38689" lon="-1.18686">
        <ele>0.8317</ele>
        <time>2022-08-01T12:42:53.000Z</time>
      </trkpt>
      <trkpt lat="49.38687" lon="-1.1869">
        <ele>0.833588</ele>
        <time>2022-08-01T12:42:54.000Z</time>
      </trkpt>
      <trkpt lat="49.38685" lon="-1.18695">
        <ele>0.835695</ele>
        <time>2022-08-01T12:42:55.000Z</time>
      </trkpt>
      <trkpt lat="49.38683" lon="-1.18699">
        <ele>0.837773</ele>
        <time>2022-08-01T12:42:56.000Z</time>
      </trkpt>
      <trkpt lat="49.3868" lon="-1.18704">
        <ele>0.83997</ele>
        <time>2022-08-01T12:42:57.000Z</time>
      </trkpt>
      <trkpt lat="49.38677" lon="-1.18708">
        <ele>0.847064</ele>
        <time>2022-08-01T12:42:58.000Z</time>
      </trkpt>
      <trkpt lat="49.38675" lon="-1.18713">
        <ele>0.857964</ele>
        <time>2022-08-01T12:42:59.000Z</time>
      </trkpt>
      <trkpt lat="49.38673" lon="-1.18717">
        <ele>0.868944</ele>
        <time>2022-08-01T12:43:00.000Z</time>
      </trkpt>
      <trkpt lat="49.3867" lon="-1.18722">
        <ele>0.879609</ele>
        <time>2022-08-01T12:43:01.000Z</time>
      </trkpt>
      <trkpt lat="49.38668" lon="-1.18727">
        <ele>0.890275</ele>
        <time>2022-08-01T12:43:02.000Z</time>
      </trkpt>
      <trkpt lat="49.38665" lon="-1.18731">
        <ele>0.901682</ele>
        <time>2022-08-01T12:43:03.000Z</time>
      </trkpt>
      <trkpt lat="49.38663" lon="-1.18736">
        <ele>0.913045</ele>
        <time>2022-08-01T12:43:04.000Z</time>
      </trkpt>
      <trkpt lat="49.3866" lon="-1.1874">
        <ele>0.923944</ele>
        <time>2022-08-01T12:43:05.000Z</time>
      </trkpt>
      <trkpt lat="49.38658" lon="-1.18745">
        <ele>0.93463</ele>
        <time>2022-08-01T12:43:06.000Z</time>
      </trkpt>
      <trkpt lat="49.38655" lon="-1.18749">
        <ele>0.946166</ele>
        <time>2022-08-01T12:43:07.000Z</time>
      </trkpt>
      <trkpt lat="49.38653" lon="-1.18754">
        <ele>0.956788</ele>
        <time>2022-08-01T12:43:08.000Z</time>
      </trkpt>
      <trkpt lat="49.3865" lon="-1.18758">
        <ele>0.9669</ele>
        <time>2022-08-01T12:43:09.000Z</time>
      </trkpt>
      <trkpt lat="49.38647" lon="-1.18762">
        <ele>0.977848</ele>
        <time>2022-08-01T12:43:10.000Z</time>
      </trkpt>
      <trkpt lat="49.38645" lon="-1.18766">
        <ele>0.988244</ele>
        <time>2022-08-01T12:43:11.000Z</time>
      </trkpt>
      <trkpt lat="49.38642" lon="-1.1877">
        <ele>0.999398</ele>
        <time>2022-08-01T12:43:12.000Z</time>
      </trkpt>
      <trkpt lat="49.38639" lon="-1.18774">
        <ele>1.01022</ele>
        <time>2022-08-01T12:43:13.000Z</time>
      </trkpt>
      <trkpt lat="49.38637" lon="-1.18779">
        <ele>1.020898</ele>
        <time>2022-08-01T12:43:14.000Z</time>
      </trkpt>
      <trkpt lat="49.38634" lon="-1.18783">
        <ele>1.031576</ele>
        <time>2022-08-01T12:43:15.000Z</time>
      </trkpt>
      <trkpt lat="49.38632" lon="-1.18787">
        <ele>1.04153</ele>
        <time>2022-08-01T12:43:16.000Z</time>
      </trkpt>
      <trkpt lat="49.38629" lon="-1.1879">
        <ele>1.051075</ele>
        <time>2022-08-01T12:43:17.000Z</time>
      </trkpt>
      <trkpt lat="49.38627" lon="-1.18793">
        <ele>1.0584</ele>
        <time>2022-08-01T12:43:18.000Z</time>
      </trkpt>
      <trkpt lat="49.38626" lon="-1.18795">
        <ele>1.064602</ele>
        <time>2022-08-01T12:43:19.000Z</time>
      </trkpt>
      <trkpt lat="49.38624" lon="-1.18798">
        <ele>1.072313</ele>
        <time>2022-08-01T12:43:21.000Z</time>
      </trkpt>
      <trkpt lat="49.38626" lon="-1.18809">
        <ele>1.093102</ele>
        <time>2022-08-01T12:44:49.000Z</time>
      </trkpt>
      <trkpt lat="49.38624" lon="-1.18812">
        <ele>1.101641</ele>
        <time>2022-08-01T12:44:50.000Z</time>
      </trkpt>
      <trkpt lat="49.38621" lon="-1.18817">
        <ele>1.111752</ele>
        <time>2022-08-01T12:44:51.000Z</time>
      </trkpt>
      <trkpt lat="49.3862" lon="-1.18821">
        <ele>1.121175</ele>
        <time>2022-08-01T12:44:52.000Z</time>
      </trkpt>
      <trkpt lat="49.38617" lon="-1.18825">
        <ele>1.130823</ele>
        <time>2022-08-01T12:44:53.000Z</time>
      </trkpt>
      <trkpt lat="49.38615" lon="-1.18829">
        <ele>1.141368</ele>
        <time>2022-08-01T12:44:54.000Z</time>
      </trkpt>
      <trkpt lat="49.38613" lon="-1.18833">
        <ele>1.1513</ele>
        <time>2022-08-01T12:44:55.000Z</time>
      </trkpt>
      <trkpt lat="49.3861" lon="-1.18837">
        <ele>1.161978</ele>
        <time>2022-08-01T12:44:56.000Z</time>
      </trkpt>
      <trkpt lat="49.38608" lon="-1.18841">
        <ele>1.170009</ele>
        <time>2022-08-01T12:44:57.000Z</time>
      </trkpt>
      <trkpt lat="49.38606" lon="-1.18845">
        <ele>1.179132</ele>
        <time>2022-08-01T12:44:58.000Z</time>
      </trkpt>
      <trkpt lat="49.38605" lon="-1.18849">
        <ele>1.187814</ele>
        <time>2022-08-01T12:44:59.000Z</time>
      </trkpt>
      <trkpt lat="49.38602" lon="-1.18852">
        <ele>1.197845</ele>
        <time>2022-08-01T12:45:00.000Z</time>
      </trkpt>
      <trkpt lat="49.38599" lon="-1.18856">
        <ele>1.208061</ele>
        <time>2022-08-01T12:45:01.000Z</time>
      </trkpt>
      <trkpt lat="49.38597" lon="-1.1886">
        <ele>1.217621</ele>
        <time>2022-08-01T12:45:02.000Z</time>
      </trkpt>
      <trkpt lat="49.38595" lon="-1.18864">
        <ele>1.227574</ele>
        <time>2022-08-01T12:45:03.000Z</time>
      </trkpt>
      <trkpt lat="49.38592" lon="-1.18868">
        <ele>1.237989</ele>
        <time>2022-08-01T12:45:04.000Z</time>
      </trkpt>
      <trkpt lat="49.38589" lon="-1.18872">
        <ele>1.248937</ele>
        <time>2022-08-01T12:45:05.000Z</time>
      </trkpt>
      <trkpt lat="49.38587" lon="-1.18876">
        <ele>1.258584</ele>
        <time>2022-08-01T12:45:06.000Z</time>
      </trkpt>
      <trkpt lat="49.38585" lon="-1.18881">
        <ele>1.268661</ele>
        <time>2022-08-01T12:45:07.000Z</time>
      </trkpt>
      <trkpt lat="49.38583" lon="-1.18885">
        <ele>1.278914</ele>
        <time>2022-08-01T12:45:08.000Z</time>
      </trkpt>
      <trkpt lat="49.38581" lon="-1.18889">
        <ele>1.288562</ele>
        <time>2022-08-01T12:45:09.000Z</time>
      </trkpt>
      <trkpt lat="49.38578" lon="-1.18893">
        <ele>1.298592</ele>
        <time>2022-08-01T12:45:10.000Z</time>
      </trkpt>
      <trkpt lat="49.38575" lon="-1.18897">
        <ele>1.309078</ele>
        <time>2022-08-01T12:45:11.000Z</time>
      </trkpt>
      <trkpt lat="49.38573" lon="-1.18901">
        <ele>1.319492</ele>
        <time>2022-08-01T12:45:12.000Z</time>
      </trkpt>
      <trkpt lat="49.3857" lon="-1.18905">
        <ele>1.330522</ele>
        <time>2022-08-01T12:45:13.000Z</time>
      </trkpt>
      <trkpt lat="49.38568" lon="-1.18909">
        <ele>1.340598</ele>
        <time>2022-08-01T12:45:14.000Z</time>
      </trkpt>
      <trkpt lat="49.38565" lon="-1.18913">
        <ele>1.35435</ele>
        <time>2022-08-01T12:45:15.000Z</time>
      </trkpt>
      <trkpt lat="49.38564" lon="-1.18917">
        <ele>1.413061</ele>
        <time>2022-08-01T12:45:16.000Z</time>
      </trkpt>
      <trkpt lat="49.38561" lon="-1.18922">
        <ele>1.479789</ele>
        <time>2022-08-01T12:45:17.000Z</time>
      </trkpt>
      <trkpt lat="49.38559" lon="-1.18926">
        <ele>1.549374</ele>
        <time>2022-08-01T12:45:18.000Z</time>
      </trkpt>
      <trkpt lat="49.38556" lon="-1.18931">
        <ele>1.621339</ele>
        <time>2022-08-01T12:45:19.000Z</time>
      </trkpt>
      <trkpt lat="49.38554" lon="-1.18935">
        <ele>1.689206</ele>
        <time>2022-08-01T12:45:20.000Z</time>
      </trkpt>
      <trkpt lat="49.38551" lon="-1.18939">
        <ele>1.756229</ele>
        <time>2022-08-01T12:45:21.000Z</time>
      </trkpt>
      <trkpt lat="49.38549" lon="-1.18943">
        <ele>1.815645</ele>
        <time>2022-08-01T12:45:22.000Z</time>
      </trkpt>
      <trkpt lat="49.38546" lon="-1.18946">
        <ele>1.88138</ele>
        <time>2022-08-01T12:45:23.000Z</time>
      </trkpt>
      <trkpt lat="49.38543" lon="-1.18949">
        <ele>1.940651</ele>
        <time>2022-08-01T12:45:24.000Z</time>
      </trkpt>
      <trkpt lat="49.38541" lon="-1.18952">
        <ele>1.997172</ele>
        <time>2022-08-01T12:45:25.000Z</time>
      </trkpt>
      <trkpt lat="49.38538" lon="-1.18954">
        <ele>2.055568</ele>
        <time>2022-08-01T12:45:26.000Z</time>
      </trkpt>
      <trkpt lat="49.38535" lon="-1.18958">
        <ele>2.119134</ele>
        <time>2022-08-01T12:45:28.000Z</time>
      </trkpt>
      <trkpt lat="49.38533" lon="-1.18961">
        <ele>2.18417</ele>
        <time>2022-08-01T12:45:30.000Z</time>
      </trkpt>
      <trkpt lat="49.38529" lon="-1.18963">
        <ele>2.247551</ele>
        <time>2022-08-01T12:45:32.000Z</time>
      </trkpt>
      <trkpt lat="49.38528" lon="-1.18965">
        <ele>2.281063</ele>
        <time>2022-08-01T12:45:34.000Z</time>
      </trkpt>
      <trkpt lat="49.38525" lon="-1.18971">
        <ele>2.368509</ele>
        <time>2022-08-01T12:46:20.000Z</time>
      </trkpt>
      <trkpt lat="49.38524" lon="-1.18975">
        <ele>2.424386</ele>
        <time>2022-08-01T12:46:21.000Z</time>
      </trkpt>
      <trkpt lat="49.38522" lon="-1.18979">
        <ele>2.486007</ele>
        <time>2022-08-01T12:46:22.000Z</time>
      </trkpt>
      <trkpt lat="49.3852" lon="-1.18984">
        <ele>2.552616</ele>
        <time>2022-08-01T12:46:23.000Z</time>
      </trkpt>
      <trkpt lat="49.38518" lon="-1.18989">
        <ele>2.618215</ele>
        <time>2022-08-01T12:46:24.000Z</time>
      </trkpt>
      <trkpt lat="49.38516" lon="-1.18993">
        <ele>2.686052</ele>
        <time>2022-08-01T12:46:25.000Z</time>
      </trkpt>
      <trkpt lat="49.38513" lon="-1.18997">
        <ele>2.7518</ele>
        <time>2022-08-01T12:46:26.000Z</time>
      </trkpt>
      <trkpt lat="49.3851" lon="-1.19001">
        <ele>2.82279</ele>
        <time>2022-08-01T12:46:27.000Z</time>
      </trkpt>
      <trkpt lat="49.38507" lon="-1.19006">
        <ele>2.903978</ele>
        <time>2022-08-01T12:46:28.000Z</time>
      </trkpt>
      <trkpt lat="49.38505" lon="-1.19011">
        <ele>2.97532</ele>
        <time>2022-08-01T12:46:29.000Z</time>
      </trkpt>
      <trkpt lat="49.38502" lon="-1.19015">
        <ele>3.03832</ele>
        <time>2022-08-01T12:46:30.000Z</time>
      </trkpt>
      <trkpt lat="49.385" lon="-1.19019">
        <ele>3.104509</ele>
        <time>2022-08-01T12:46:31.000Z</time>
      </trkpt>
      <trkpt lat="49.38498" lon="-1.19023">
        <ele>3.166599</ele>
        <time>2022-08-01T12:46:32.000Z</time>
      </trkpt>
      <trkpt lat="49.38496" lon="-1.19027">
        <ele>3.22531</ele>
        <time>2022-08-01T12:46:33.000Z</time>
      </trkpt>
      <trkpt lat="49.38493" lon="-1.19031">
        <ele>3.286833</ele>
        <time>2022-08-01T12:46:34.000Z</time>
      </trkpt>
      <trkpt lat="49.38491" lon="-1.19034">
        <ele>3.342018</ele>
        <time>2022-08-01T12:46:35.000Z</time>
      </trkpt>
      <trkpt lat="49.38489" lon="-1.19037">
        <ele>3.396054</ele>
        <time>2022-08-01T12:46:36.000Z</time>
      </trkpt>
      <trkpt lat="49.38487" lon="-1.19041">
        <ele>3.457484</ele>
        <time>2022-08-01T12:46:37.000Z</time>
      </trkpt>
      <trkpt lat="49.38485" lon="-1.19044">
        <ele>3.515172</ele>
        <time>2022-08-01T12:46:38.000Z</time>
      </trkpt>
      <trkpt lat="49.38482" lon="-1.19047">
        <ele>3.571693</ele>
        <time>2022-08-01T12:46:39.000Z</time>
      </trkpt>
      <trkpt lat="49.3848" lon="-1.19051">
        <ele>3.6277</ele>
        <time>2022-08-01T12:46:40.000Z</time>
      </trkpt>
      <trkpt lat="49.38478" lon="-1.19054">
        <ele>3.681282</ele>
        <time>2022-08-01T12:46:41.000Z</time>
      </trkpt>
      <trkpt lat="49.38476" lon="-1.19057">
        <ele>3.736239</ele>
        <time>2022-08-01T12:46:42.000Z</time>
      </trkpt>
      <trkpt lat="49.38474" lon="-1.1906">
        <ele>3.787594</ele>
        <time>2022-08-01T12:46:43.000Z</time>
      </trkpt>
      <trkpt lat="49.38471" lon="-1.19063">
        <ele>3.851945</ele>
        <time>2022-08-01T12:46:44.000Z</time>
      </trkpt>
      <trkpt lat="49.38469" lon="-1.19066">
        <ele>3.90713</ele>
        <time>2022-08-01T12:46:45.000Z</time>
      </trkpt>
      <trkpt lat="49.38466" lon="-1.19069">
        <ele>3.963651</ele>
        <time>2022-08-01T12:46:46.000Z</time>
      </trkpt>
      <trkpt lat="49.38464" lon="-1.19072">
        <ele>4.021434</ele>
        <time>2022-08-01T12:46:47.000Z</time>
      </trkpt>
      <trkpt lat="49.38461" lon="-1.19075">
        <ele>4.083822</ele>
        <time>2022-08-01T12:46:48.000Z</time>
      </trkpt>
      <trkpt lat="49.38458" lon="-1.19078">
        <ele>4.14305</ele>
        <time>2022-08-01T12:46:49.000Z</time>
      </trkpt>
      <trkpt lat="49.38456" lon="-1.19081">
        <ele>4.202322</ele>
        <time>2022-08-01T12:46:50.000Z</time>
      </trkpt>
      <trkpt lat="49.38453" lon="-1.19084">
        <ele>4.258054</ele>
        <time>2022-08-01T12:46:51.000Z</time>
      </trkpt>
      <trkpt lat="49.38451" lon="-1.19088">
        <ele>4.323064</ele>
        <time>2022-08-01T12:46:52.000Z</time>
      </trkpt>
      <trkpt lat="49.38448" lon="-1.19091">
        <ele>4.380388</ele>
        <time>2022-08-01T12:46:53.000Z</time>
      </trkpt>
      <trkpt lat="49.38446" lon="-1.19095">
        <ele>4.440686</ele>
        <time>2022-08-01T12:46:54.000Z</time>
      </trkpt>
      <trkpt lat="49.38444" lon="-1.19099">
        <ele>4.505763</ele>
        <time>2022-08-01T12:46:55.000Z</time>
      </trkpt>
      <trkpt lat="49.38442" lon="-1.19103">
        <ele>4.567853</ele>
        <time>2022-08-01T12:46:56.000Z</time>
      </trkpt>
      <trkpt lat="49.38439" lon="-1.19107">
        <ele>4.633928</ele>
        <time>2022-08-01T12:46:57.000Z</time>
      </trkpt>
      <trkpt lat="49.38437" lon="-1.19111">
        <ele>4.704237</ele>
        <time>2022-08-01T12:46:58.000Z</time>
      </trkpt>
      <trkpt lat="49.38435" lon="-1.19115">
        <ele>4.768817</ele>
        <time>2022-08-01T12:46:59.000Z</time>
      </trkpt>
      <trkpt lat="49.38432" lon="-1.1912">
        <ele>4.847289</ele>
        <time>2022-08-01T12:47:00.000Z</time>
      </trkpt>
      <trkpt lat="49.3843" lon="-1.19124">
        <ele>4.913995</ele>
        <time>2022-08-01T12:47:01.000Z</time>
      </trkpt>
      <trkpt lat="49.38429" lon="-1.19127">
        <ele>4.974439</ele>
        <time>2022-08-01T12:47:02.000Z</time>
      </trkpt>
      <trkpt lat="49.38427" lon="-1.19131">
        <ele>5.03567</ele>
        <time>2022-08-01T12:47:03.000Z</time>
      </trkpt>
      <trkpt lat="49.38425" lon="-1.19135">
        <ele>5.097133</ele>
        <time>2022-08-01T12:47:04.000Z</time>
      </trkpt>
      <trkpt lat="49.38423" lon="-1.19139">
        <ele>5.160865</ele>
        <time>2022-08-01T12:47:05.000Z</time>
      </trkpt>
      <trkpt lat="49.38422" lon="-1.19143">
        <ele>5.218307</ele>
        <time>2022-08-01T12:47:06.000Z</time>
      </trkpt>
      <trkpt lat="49.38419" lon="-1.19147">
        <ele>5.291113</ele>
        <time>2022-08-01T12:47:07.000Z</time>
      </trkpt>
      <trkpt lat="49.38417" lon="-1.1915">
        <ele>5.35055</ele>
        <time>2022-08-01T12:47:08.000Z</time>
      </trkpt>
      <trkpt lat="49.38415" lon="-1.19154">
        <ele>5.418223</ele>
        <time>2022-08-01T12:47:09.000Z</time>
      </trkpt>
      <trkpt lat="49.38414" lon="-1.19157">
        <ele>5.467522</ele>
        <time>2022-08-01T12:47:10.000Z</time>
      </trkpt>
      <trkpt lat="49.38411" lon="-1.19161">
        <ele>5.536784</ele>
        <time>2022-08-01T12:47:11.000Z</time>
      </trkpt>
      <trkpt lat="49.3841" lon="-1.19164">
        <ele>5.588211</ele>
        <time>2022-08-01T12:47:12.000Z</time>
      </trkpt>
      <trkpt lat="49.38407" lon="-1.19168">
        <ele>5.654249</ele>
        <time>2022-08-01T12:47:13.000Z</time>
      </trkpt>
      <trkpt lat="49.38406" lon="-1.19171">
        <ele>5.709086</ele>
        <time>2022-08-01T12:47:14.000Z</time>
      </trkpt>
      <trkpt lat="49.38405" lon="-1.19175">
        <ele>5.762751</ele>
        <time>2022-08-01T12:47:15.000Z</time>
      </trkpt>
      <trkpt lat="49.38402" lon="-1.19177">
        <ele>5.8192</ele>
        <time>2022-08-01T12:47:16.000Z</time>
      </trkpt>
      <trkpt lat="49.384" lon="-1.19178">
        <ele>5.866425</ele>
        <time>2022-08-01T12:47:17.000Z</time>
      </trkpt>
      <trkpt lat="49.38397" lon="-1.19178">
        <ele>5.918532</ele>
        <time>2022-08-01T12:47:18.000Z</time>
      </trkpt>
      <trkpt lat="49.38393" lon="-1.19175">
        <ele>6.010669</ele>
        <time>2022-08-01T12:47:20.000Z</time>
      </trkpt>
      <trkpt lat="49.38391" lon="-1.19173">
        <ele>6.060791</ele>
        <time>2022-08-01T12:47:21.000Z</time>
      </trkpt>
      <trkpt lat="49.38389" lon="-1.1917">
        <ele>6.122244</ele>
        <time>2022-08-01T12:47:22.000Z</time>
      </trkpt>
      <trkpt lat="49.38386" lon="-1.19167">
        <ele>6.185121</ele>
        <time>2022-08-01T12:47:23.000Z</time>
      </trkpt>
      <trkpt lat="49.38383" lon="-1.19165">
        <ele>6.250671</ele>
        <time>2022-08-01T12:47:24.000Z</time>
      </trkpt>
      <trkpt lat="49.38381" lon="-1.19162">
        <ele>6.315045</ele>
        <time>2022-08-01T12:47:25.000Z</time>
      </trkpt>
      <trkpt lat="49.38378" lon="-1.19159">
        <ele>6.380985</ele>
        <time>2022-08-01T12:47:26.000Z</time>
      </trkpt>
      <trkpt lat="49.38376" lon="-1.19156">
        <ele>6.441686</ele>
        <time>2022-08-01T12:47:27.000Z</time>
      </trkpt>
      <trkpt lat="49.38373" lon="-1.19153">
        <ele>6.509625</ele>
        <time>2022-08-01T12:47:28.000Z</time>
      </trkpt>
      <trkpt lat="49.38371" lon="-1.1915">
        <ele>6.570112</ele>
        <time>2022-08-01T12:47:29.000Z</time>
      </trkpt>
      <trkpt lat="49.38368" lon="-1.19148">
        <ele>6.625818</ele>
        <time>2022-08-01T12:47:30.000Z</time>
      </trkpt>
      <trkpt lat="49.38365" lon="-1.19146">
        <ele>6.691205</ele>
        <time>2022-08-01T12:47:31.000Z</time>
      </trkpt>
      <trkpt lat="49.38363" lon="-1.19144">
        <ele>6.74598</ele>
        <time>2022-08-01T12:47:32.000Z</time>
      </trkpt>
      <trkpt lat="49.3836" lon="-1.19142">
        <ele>6.802095</ele>
        <time>2022-08-01T12:47:33.000Z</time>
      </trkpt>
      <trkpt lat="49.38357" lon="-1.19141">
        <ele>6.863401</ele>
        <time>2022-08-01T12:47:34.000Z</time>
      </trkpt>
      <trkpt lat="49.38355" lon="-1.19139">
        <ele>6.923721</ele>
        <time>2022-08-01T12:47:35.000Z</time>
      </trkpt>
      <trkpt lat="49.38352" lon="-1.19137">
        <ele>6.988521</ele>
        <time>2022-08-01T12:47:36.000Z</time>
      </trkpt>
      <trkpt lat="49.38349" lon="-1.19135">
        <ele>7.047373</ele>
        <time>2022-08-01T12:47:37.000Z</time>
      </trkpt>
      <trkpt lat="49.38346" lon="-1.19132">
        <ele>7.115313</ele>
        <time>2022-08-01T12:47:38.000Z</time>
      </trkpt>
      <trkpt lat="49.38343" lon="-1.1913">
        <ele>7.178927</ele>
        <time>2022-08-01T12:47:39.000Z</time>
      </trkpt>
      <trkpt lat="49.38341" lon="-1.19127">
        <ele>7.248974</ele>
        <time>2022-08-01T12:47:40.000Z</time>
      </trkpt>
      <trkpt lat="49.38338" lon="-1.19124">
        <ele>7.318302</ele>
        <time>2022-08-01T12:47:41.000Z</time>
      </trkpt>
      <trkpt lat="49.38335" lon="-1.19121">
        <ele>7.385575</ele>
        <time>2022-08-01T12:47:42.000Z</time>
      </trkpt>
      <trkpt lat="49.38332" lon="-1.19118">
        <ele>7.460012</ele>
        <time>2022-08-01T12:47:43.000Z</time>
      </trkpt>
      <trkpt lat="49.38329" lon="-1.19115">
        <ele>7.530059</ele>
        <time>2022-08-01T12:47:44.000Z</time>
      </trkpt>
      <trkpt lat="49.38325" lon="-1.19112">
        <ele>7.607278</ele>
        <time>2022-08-01T12:47:45.000Z</time>
      </trkpt>
      <trkpt lat="49.38323" lon="-1.19108">
        <ele>7.67683</ele>
        <time>2022-08-01T12:47:46.000Z</time>
      </trkpt>
      <trkpt lat="49.38319" lon="-1.19105">
        <ele>7.760501</ele>
        <time>2022-08-01T12:47:47.000Z</time>
      </trkpt>
      <trkpt lat="49.38317" lon="-1.19101">
        <ele>7.830629</ele>
        <time>2022-08-01T12:47:48.000Z</time>
      </trkpt>
      <trkpt lat="49.38314" lon="-1.19097">
        <ele>7.910482</ele>
        <time>2022-08-01T12:47:49.000Z</time>
      </trkpt>
      <trkpt lat="49.38311" lon="-1.19093">
        <ele>7.980034</ele>
        <time>2022-08-01T12:47:50.000Z</time>
      </trkpt>
      <trkpt lat="49.38309" lon="-1.1909">
        <ele>8.043767</ele>
        <time>2022-08-01T12:47:51.000Z</time>
      </trkpt>
      <trkpt lat="49.38307" lon="-1.19086">
        <ele>8.110093</ele>
        <time>2022-08-01T12:47:52.000Z</time>
      </trkpt>
      <trkpt lat="49.38306" lon="-1.19082">
        <ele>8.173562</ele>
        <time>2022-08-01T12:47:53.000Z</time>
      </trkpt>
      <trkpt lat="49.38304" lon="-1.19077">
        <ele>8.220121</ele>
        <time>2022-08-01T12:47:54.000Z</time>
      </trkpt>
      <trkpt lat="49.38301" lon="-1.19073">
        <ele>8.159922</ele>
        <time>2022-08-01T12:47:55.000Z</time>
      </trkpt>
      <trkpt lat="49.383" lon="-1.19068">
        <ele>8.102703</ele>
        <time>2022-08-01T12:47:56.000Z</time>
      </trkpt>
      <trkpt lat="49.38298" lon="-1.19063">
        <ele>8.040941</ele>
        <time>2022-08-01T12:47:57.000Z</time>
      </trkpt>
      <trkpt lat="49.38296" lon="-1.19059">
        <ele>7.983412</ele>
        <time>2022-08-01T12:47:58.000Z</time>
      </trkpt>
      <trkpt lat="49.38295" lon="-1.19054">
        <ele>7.930891</ele>
        <time>2022-08-01T12:47:59.000Z</time>
      </trkpt>
      <trkpt lat="49.38293" lon="-1.19049">
        <ele>7.871455</ele>
        <time>2022-08-01T12:48:00.000Z</time>
      </trkpt>
      <trkpt lat="49.38292" lon="-1.19044">
        <ele>7.807189</ele>
        <time>2022-08-01T12:48:01.000Z</time>
      </trkpt>
      <trkpt lat="49.3829" lon="-1.19038">
        <ele>7.737923</ele>
        <time>2022-08-01T12:48:02.000Z</time>
      </trkpt>
      <trkpt lat="49.38288" lon="-1.19032">
        <ele>7.671703</ele>
        <time>2022-08-01T12:48:03.000Z</time>
      </trkpt>
      <trkpt lat="49.38287" lon="-1.19026">
        <ele>7.606944</ele>
        <time>2022-08-01T12:48:04.000Z</time>
      </trkpt>
      <trkpt lat="49.38286" lon="-1.1902">
        <ele>7.534403</ele>
        <time>2022-08-01T12:48:05.000Z</time>
      </trkpt>
      <trkpt lat="49.38285" lon="-1.19013">
        <ele>7.465225</ele>
        <time>2022-08-01T12:48:06.000Z</time>
      </trkpt>
      <trkpt lat="49.38284" lon="-1.19006">
        <ele>7.387086</ele>
        <time>2022-08-01T12:48:07.000Z</time>
      </trkpt>
      <trkpt lat="49.38282" lon="-1.18999">
        <ele>7.304288</ele>
        <time>2022-08-01T12:48:08.000Z</time>
      </trkpt>
      <trkpt lat="49.38281" lon="-1.18991">
        <ele>7.220091</ele>
        <time>2022-08-01T12:48:09.000Z</time>
      </trkpt>
      <trkpt lat="49.38279" lon="-1.18984">
        <ele>7.134588</ele>
        <time>2022-08-01T12:48:10.000Z</time>
      </trkpt>
      <trkpt lat="49.38277" lon="-1.18975">
        <ele>7.041172</ele>
        <time>2022-08-01T12:48:11.000Z</time>
      </trkpt>
      <trkpt lat="49.38276" lon="-1.18967">
        <ele>6.945754</ele>
        <time>2022-08-01T12:48:12.000Z</time>
      </trkpt>
      <trkpt lat="49.38274" lon="-1.18958">
        <ele>6.847858</ele>
        <time>2022-08-01T12:48:13.000Z</time>
      </trkpt>
      <trkpt lat="49.38272" lon="-1.18949">
        <ele>6.749963</ele>
        <time>2022-08-01T12:48:14.000Z</time>
      </trkpt>
      <trkpt lat="49.3827" lon="-1.18941">
        <ele>6.651055</ele>
        <time>2022-08-01T12:48:15.000Z</time>
      </trkpt>
      <trkpt lat="49.38268" lon="-1.18932">
        <ele>6.546013</ele>
        <time>2022-08-01T12:48:16.000Z</time>
      </trkpt>
      <trkpt lat="49.38265" lon="-1.18923">
        <ele>6.441625</ele>
        <time>2022-08-01T12:48:17.000Z</time>
      </trkpt>
      <trkpt lat="49.38262" lon="-1.18914">
        <ele>6.334093</ele>
        <time>2022-08-01T12:48:18.000Z</time>
      </trkpt>
      <trkpt lat="49.38259" lon="-1.18905">
        <ele>6.229822</ele>
        <time>2022-08-01T12:48:19.000Z</time>
      </trkpt>
      <trkpt lat="49.38256" lon="-1.18896">
        <ele>6.120422</ele>
        <time>2022-08-01T12:48:20.000Z</time>
      </trkpt>
      <trkpt lat="49.38252" lon="-1.18887">
        <ele>6.008583</ele>
        <time>2022-08-01T12:48:21.000Z</time>
      </trkpt>
      <trkpt lat="49.38249" lon="-1.18878">
        <ele>5.899183</ele>
        <time>2022-08-01T12:48:22.000Z</time>
      </trkpt>
      <trkpt lat="49.38245" lon="-1.18869">
        <ele>5.782062</ele>
        <time>2022-08-01T12:48:23.000Z</time>
      </trkpt>
      <trkpt lat="49.38241" lon="-1.1886">
        <ele>5.666727</ele>
        <time>2022-08-01T12:48:24.000Z</time>
      </trkpt>
      <trkpt lat="49.38238" lon="-1.18851">
        <ele>5.55305</ele>
        <time>2022-08-01T12:48:25.000Z</time>
      </trkpt>
      <trkpt lat="49.38234" lon="-1.18841">
        <ele>5.438537</ele>
        <time>2022-08-01T12:48:26.000Z</time>
      </trkpt>
      <trkpt lat="49.3823" lon="-1.18832">
        <ele>5.324099</ele>
        <time>2022-08-01T12:48:27.000Z</time>
      </trkpt>
      <trkpt lat="49.38226" lon="-1.18824">
        <ele>5.216356</ele>
        <time>2022-08-01T12:48:28.000Z</time>
      </trkpt>
      <trkpt lat="49.38222" lon="-1.18815">
        <ele>5.111565</ele>
        <time>2022-08-01T12:48:29.000Z</time>
      </trkpt>
      <trkpt lat="49.38217" lon="-1.18807">
        <ele>5.009542</ele>
        <time>2022-08-01T12:48:30.000Z</time>
      </trkpt>
      <trkpt lat="49.38213" lon="-1.18799">
        <ele>4.904558</ele>
        <time>2022-08-01T12:48:31.000Z</time>
      </trkpt>
      <trkpt lat="49.38208" lon="-1.18791">
        <ele>4.803264</ele>
        <time>2022-08-01T12:48:32.000Z</time>
      </trkpt>
      <trkpt lat="49.38204" lon="-1.18784">
        <ele>4.704841</ele>
        <time>2022-08-01T12:48:33.000Z</time>
      </trkpt>
      <trkpt lat="49.38199" lon="-1.18776">
        <ele>4.602662</ele>
        <time>2022-08-01T12:48:34.000Z</time>
      </trkpt>
      <trkpt lat="49.38194" lon="-1.18769">
        <ele>4.502811</ele>
        <time>2022-08-01T12:48:35.000Z</time>
      </trkpt>
      <trkpt lat="49.38189" lon="-1.18761">
        <ele>4.402689</ele>
        <time>2022-08-01T12:48:36.000Z</time>
      </trkpt>
      <trkpt lat="49.38184" lon="-1.18754">
        <ele>4.295424</ele>
        <time>2022-08-01T12:48:37.000Z</time>
      </trkpt>
      <trkpt lat="49.38179" lon="-1.18747">
        <ele>4.194046</ele>
        <time>2022-08-01T12:48:38.000Z</time>
      </trkpt>
      <trkpt lat="49.38174" lon="-1.1874">
        <ele>4.093943</ele>
        <time>2022-08-01T12:48:39.000Z</time>
      </trkpt>
      <trkpt lat="49.38169" lon="-1.18733">
        <ele>3.992717</ele>
        <time>2022-08-01T12:48:40.000Z</time>
      </trkpt>
      <trkpt lat="49.38164" lon="-1.18727">
        <ele>3.897868</ele>
        <time>2022-08-01T12:48:41.000Z</time>
      </trkpt>
      <trkpt lat="49.38159" lon="-1.1872">
        <ele>3.801731</ele>
        <time>2022-08-01T12:48:42.000Z</time>
      </trkpt>
      <trkpt lat="49.38154" lon="-1.18713">
        <ele>3.705594</ele>
        <time>2022-08-01T12:48:43.000Z</time>
      </trkpt>
      <trkpt lat="49.38149" lon="-1.18707">
        <ele>3.609784</ele>
        <time>2022-08-01T12:48:44.000Z</time>
      </trkpt>
      <trkpt lat="49.38144" lon="-1.18701">
        <ele>3.518053</ele>
        <time>2022-08-01T12:48:45.000Z</time>
      </trkpt>
      <trkpt lat="49.38139" lon="-1.18696">
        <ele>3.425687</ele>
        <time>2022-08-01T12:48:46.000Z</time>
      </trkpt>
      <trkpt lat="49.38134" lon="-1.1869">
        <ele>3.334562</ele>
        <time>2022-08-01T12:48:47.000Z</time>
      </trkpt>
      <trkpt lat="49.3813" lon="-1.18684">
        <ele>3.249545</ele>
        <time>2022-08-01T12:48:48.000Z</time>
      </trkpt>
      <trkpt lat="49.38125" lon="-1.18678">
        <ele>3.154324</ele>
        <time>2022-08-01T12:48:49.000Z</time>
      </trkpt>
      <trkpt lat="49.38121" lon="-1.18672">
        <ele>3.069083</ele>
        <time>2022-08-01T12:48:50.000Z</time>
      </trkpt>
      <trkpt lat="49.38116" lon="-1.18667">
        <ele>2.982571</ele>
        <time>2022-08-01T12:48:51.000Z</time>
      </trkpt>
      <trkpt lat="49.38111" lon="-1.18661">
        <ele>2.88735</ele>
        <time>2022-08-01T12:48:52.000Z</time>
      </trkpt>
      <trkpt lat="49.38106" lon="-1.18655">
        <ele>2.799654</ele>
        <time>2022-08-01T12:48:53.000Z</time>
      </trkpt>
      <trkpt lat="49.38101" lon="-1.1865">
        <ele>2.705594</ele>
        <time>2022-08-01T12:48:54.000Z</time>
      </trkpt>
      <trkpt lat="49.38097" lon="-1.18644">
        <ele>2.619137</ele>
        <time>2022-08-01T12:48:55.000Z</time>
      </trkpt>
      <trkpt lat="49.38092" lon="-1.18638">
        <ele>2.596486</ele>
        <time>2022-08-01T12:48:56.000Z</time>
      </trkpt>
      <trkpt lat="49.38086" lon="-1.18633">
        <ele>2.576763</ele>
        <time>2022-08-01T12:48:57.000Z</time>
      </trkpt>
      <trkpt lat="49.38081" lon="-1.18628">
        <ele>2.556098</ele>
        <time>2022-08-01T12:48:58.000Z</time>
      </trkpt>
      <trkpt lat="49.38076" lon="-1.18623">
        <ele>2.536951</ele>
        <time>2022-08-01T12:48:59.000Z</time>
      </trkpt>
      <trkpt lat="49.38071" lon="-1.18618">
        <ele>2.516607</ele>
        <time>2022-08-01T12:49:00.000Z</time>
      </trkpt>
      <trkpt lat="49.38066" lon="-1.18613">
        <ele>2.4977</ele>
        <time>2022-08-01T12:49:01.000Z</time>
      </trkpt>
      <trkpt lat="49.38061" lon="-1.18608">
        <ele>2.478312</ele>
        <time>2022-08-01T12:49:02.000Z</time>
      </trkpt>
      <trkpt lat="49.38056" lon="-1.18604">
        <ele>2.460304</ele>
        <time>2022-08-01T12:49:03.000Z</time>
      </trkpt>
      <trkpt lat="49.38051" lon="-1.186">
        <ele>2.442095</ele>
        <time>2022-08-01T12:49:04.000Z</time>
      </trkpt>
      <trkpt lat="49.38046" lon="-1.18597">
        <ele>2.42512</ele>
        <time>2022-08-01T12:49:05.000Z</time>
      </trkpt>
      <trkpt lat="49.38041" lon="-1.18595">
        <ele>2.407732</ele>
        <time>2022-08-01T12:49:06.000Z</time>
      </trkpt>
      <trkpt lat="49.38037" lon="-1.18593">
        <ele>2.391625</ele>
        <time>2022-08-01T12:49:07.000Z</time>
      </trkpt>
      <trkpt lat="49.38031" lon="-1.18591">
        <ele>2.373336</ele>
        <time>2022-08-01T12:49:08.000Z</time>
      </trkpt>
      <trkpt lat="49.38027" lon="-1.1859">
        <ele>2.358493</ele>
        <time>2022-08-01T12:49:09.000Z</time>
      </trkpt>
      <trkpt lat="49.38022" lon="-1.18587">
        <ele>2.342164</ele>
        <time>2022-08-01T12:49:10.000Z</time>
      </trkpt>
      <trkpt lat="49.38017" lon="-1.18585">
        <ele>2.325772</ele>
        <time>2022-08-01T12:49:11.000Z</time>
      </trkpt>
      <trkpt lat="49.38012" lon="-1.18582">
        <ele>2.309109</ele>
        <time>2022-08-01T12:49:12.000Z</time>
      </trkpt>
      <trkpt lat="49.38008" lon="-1.1858">
        <ele>2.293777</ele>
        <time>2022-08-01T12:49:13.000Z</time>
      </trkpt>
      <trkpt lat="49.38003" lon="-1.18578">
        <ele>2.278506</ele>
        <time>2022-08-01T12:49:14.000Z</time>
      </trkpt>
      <trkpt lat="49.37998" lon="-1.18576">
        <ele>2.260398</ele>
        <time>2022-08-01T12:49:15.000Z</time>
      </trkpt>
      <trkpt lat="49.37993" lon="-1.18574">
        <ele>2.245184</ele>
        <time>2022-08-01T12:49:16.000Z</time>
      </trkpt>
      <trkpt lat="49.37989" lon="-1.18573">
        <ele>2.230173</ele>
        <time>2022-08-01T12:49:17.000Z</time>
      </trkpt>
      <trkpt lat="49.37984" lon="-1.18571">
        <ele>2.213205</ele>
        <time>2022-08-01T12:49:18.000Z</time>
      </trkpt>
      <trkpt lat="49.37979" lon="-1.18569">
        <ele>2.197933</ele>
        <time>2022-08-01T12:49:19.000Z</time>
      </trkpt>
      <trkpt lat="49.37974" lon="-1.18567">
        <ele>2.180775</ele>
        <time>2022-08-01T12:49:20.000Z</time>
      </trkpt>
      <trkpt lat="49.3797" lon="-1.18565">
        <ele>2.165503</ele>
        <time>2022-08-01T12:49:21.000Z</time>
      </trkpt>
      <trkpt lat="49.37965" lon="-1.18563">
        <ele>2.150109</ele>
        <time>2022-08-01T12:49:22.000Z</time>
      </trkpt>
      <trkpt lat="49.37961" lon="-1.18561">
        <ele>2.135728</ele>
        <time>2022-08-01T12:49:23.000Z</time>
      </trkpt>
      <trkpt lat="49.37957" lon="-1.18558">
        <ele>2.120334</ele>
        <time>2022-08-01T12:49:24.000Z</time>
      </trkpt>
      <trkpt lat="49.37952" lon="-1.18556">
        <ele>2.105002</ele>
        <time>2022-08-01T12:49:25.000Z</time>
      </trkpt>
      <trkpt lat="49.37948" lon="-1.18554">
        <ele>2.089731</ele>
        <time>2022-08-01T12:49:26.000Z</time>
      </trkpt>
      <trkpt lat="49.37943" lon="-1.18552">
        <ele>2.074131</ele>
        <time>2022-08-01T12:49:27.000Z</time>
      </trkpt>
      <trkpt lat="49.37939" lon="-1.18549">
        <ele>2.058523</ele>
        <time>2022-08-01T12:49:28.000Z</time>
      </trkpt>
      <trkpt lat="49.37934" lon="-1.18546">
        <ele>2.043144</ele>
        <time>2022-08-01T12:49:29.000Z</time>
      </trkpt>
      <trkpt lat="49.37931" lon="-1.18542">
        <ele>2.031703</ele>
        <time>2022-08-01T12:49:30.000Z</time>
      </trkpt>
      <trkpt lat="49.37926" lon="-1.18538">
        <ele>2.059082</ele>
        <time>2022-08-01T12:49:31.000Z</time>
      </trkpt>
      <trkpt lat="49.37924" lon="-1.18534">
        <ele>2.081469</ele>
        <time>2022-08-01T12:49:32.000Z</time>
      </trkpt>
      <trkpt lat="49.3792" lon="-1.1853">
        <ele>2.107765</ele>
        <time>2022-08-01T12:49:33.000Z</time>
      </trkpt>
      <trkpt lat="49.37916" lon="-1.18525">
        <ele>2.133401</ele>
        <time>2022-08-01T12:49:34.000Z</time>
      </trkpt>
      <trkpt lat="49.37914" lon="-1.18521">
        <ele>2.155677</ele>
        <time>2022-08-01T12:49:35.000Z</time>
      </trkpt>
      <trkpt lat="49.37911" lon="-1.18516">
        <ele>2.180164</ele>
        <time>2022-08-01T12:49:36.000Z</time>
      </trkpt>
      <trkpt lat="49.37908" lon="-1.1851">
        <ele>2.204694</ele>
        <time>2022-08-01T12:49:37.000Z</time>
      </trkpt>
      <trkpt lat="49.37906" lon="-1.18505">
        <ele>2.228291</ele>
        <time>2022-08-01T12:49:38.000Z</time>
      </trkpt>
      <trkpt lat="49.37903" lon="-1.18499">
        <ele>2.25282</ele>
        <time>2022-08-01T12:49:39.000Z</time>
      </trkpt>
      <trkpt lat="49.37901" lon="-1.18494">
        <ele>2.274591</ele>
        <time>2022-08-01T12:49:40.000Z</time>
      </trkpt>
      <trkpt lat="49.37899" lon="-1.18489">
        <ele>2.299121</ele>
        <time>2022-08-01T12:49:41.000Z</time>
      </trkpt>
      <trkpt lat="49.37897" lon="-1.18483">
        <ele>2.321566</ele>
        <time>2022-08-01T12:49:42.000Z</time>
      </trkpt>
      <trkpt lat="49.37895" lon="-1.18478">
        <ele>2.344858</ele>
        <time>2022-08-01T12:49:43.000Z</time>
      </trkpt>
      <trkpt lat="49.37893" lon="-1.18473">
        <ele>2.366926</ele>
        <time>2022-08-01T12:49:44.000Z</time>
      </trkpt>
      <trkpt lat="49.37891" lon="-1.18468">
        <ele>2.388955</ele>
        <time>2022-08-01T12:49:45.000Z</time>
      </trkpt>
      <trkpt lat="49.37889" lon="-1.18462">
        <ele>2.411724</ele>
        <time>2022-08-01T12:49:46.000Z</time>
      </trkpt>
      <trkpt lat="49.37888" lon="-1.18457">
        <ele>2.43312</ele>
        <time>2022-08-01T12:49:47.000Z</time>
      </trkpt>
      <trkpt lat="49.37886" lon="-1.18451">
        <ele>2.455889</ele>
        <time>2022-08-01T12:49:48.000Z</time>
      </trkpt>
      <trkpt lat="49.37884" lon="-1.18446">
        <ele>2.477252</ele>
        <time>2022-08-01T12:49:49.000Z</time>
      </trkpt>
      <trkpt lat="49.37882" lon="-1.18441">
        <ele>2.499639</ele>
        <time>2022-08-01T12:49:50.000Z</time>
      </trkpt>
      <trkpt lat="49.3788" lon="-1.18436">
        <ele>2.520495</ele>
        <time>2022-08-01T12:49:51.000Z</time>
      </trkpt>
      <trkpt lat="49.37878" lon="-1.18431">
        <ele>2.542563</ele>
        <time>2022-08-01T12:49:52.000Z</time>
      </trkpt>
      <trkpt lat="49.37876" lon="-1.18426">
        <ele>2.564335</ele>
        <time>2022-08-01T12:49:53.000Z</time>
      </trkpt>
      <trkpt lat="49.37874" lon="-1.1842">
        <ele>2.586781</ele>
        <time>2022-08-01T12:49:54.000Z</time>
      </trkpt>
      <trkpt lat="49.37872" lon="-1.18415">
        <ele>2.609153</ele>
        <time>2022-08-01T12:49:55.000Z</time>
      </trkpt>
      <trkpt lat="49.3787" lon="-1.1841">
        <ele>2.63257</ele>
        <time>2022-08-01T12:49:56.000Z</time>
      </trkpt>
      <trkpt lat="49.37868" lon="-1.18404">
        <ele>2.653933</ele>
        <time>2022-08-01T12:49:57.000Z</time>
      </trkpt>
      <trkpt lat="49.37866" lon="-1.18399">
        <ele>2.676922</ele>
        <time>2022-08-01T12:49:58.000Z</time>
      </trkpt>
      <trkpt lat="49.37864" lon="-1.18394">
        <ele>2.697464</ele>
        <time>2022-08-01T12:49:59.000Z</time>
      </trkpt>
      <trkpt lat="49.37862" lon="-1.18389">
        <ele>2.71832</ele>
        <time>2022-08-01T12:50:00.000Z</time>
      </trkpt>
      <trkpt lat="49.3786" lon="-1.18384">
        <ele>2.741007</ele>
        <time>2022-08-01T12:50:01.000Z</time>
      </trkpt>
      <trkpt lat="49.37858" lon="-1.18379">
        <ele>2.761862</ele>
        <time>2022-08-01T12:50:02.000Z</time>
      </trkpt>
      <trkpt lat="49.37856" lon="-1.18374">
        <ele>2.782564</ele>
        <time>2022-08-01T12:50:03.000Z</time>
      </trkpt>
      <trkpt lat="49.37854" lon="-1.18369">
        <ele>2.80501</ele>
        <time>2022-08-01T12:50:04.000Z</time>
      </trkpt>
      <trkpt lat="49.37853" lon="-1.18364">
        <ele>2.827136</ele>
        <time>2022-08-01T12:50:05.000Z</time>
      </trkpt>
      <trkpt lat="49.37851" lon="-1.18358">
        <ele>2.848941</ele>
        <time>2022-08-01T12:50:06.000Z</time>
      </trkpt>
      <trkpt lat="49.37849" lon="-1.18353">
        <ele>2.8704</ele>
        <time>2022-08-01T12:50:07.000Z</time>
      </trkpt>
      <trkpt lat="49.37847" lon="-1.18348">
        <ele>2.891888</ele>
        <time>2022-08-01T12:50:08.000Z</time>
      </trkpt>
      <trkpt lat="49.37845" lon="-1.18343">
        <ele>2.914586</ele>
        <time>2022-08-01T12:50:09.000Z</time>
      </trkpt>
      <trkpt lat="49.37844" lon="-1.18337">
        <ele>2.936672</ele>
        <time>2022-08-01T12:50:10.000Z</time>
      </trkpt>
      <trkpt lat="49.37842" lon="-1.18331">
        <ele>2.959036</ele>
        <time>2022-08-01T12:50:11.000Z</time>
      </trkpt>
      <trkpt lat="49.37841" lon="-1.18326">
        <ele>2.980731</ele>
        <time>2022-08-01T12:50:12.000Z</time>
      </trkpt>
      <trkpt lat="49.37839" lon="-1.1832">
        <ele>3.0035</ele>
        <time>2022-08-01T12:50:13.000Z</time>
      </trkpt>
      <trkpt lat="49.37837" lon="-1.18315">
        <ele>3.024863</ele>
        <time>2022-08-01T12:50:14.000Z</time>
      </trkpt>
      <trkpt lat="49.37836" lon="-1.1831">
        <ele>3.046317</ele>
        <time>2022-08-01T12:50:15.000Z</time>
      </trkpt>
      <trkpt lat="49.37834" lon="-1.18305">
        <ele>3.071357</ele>
        <time>2022-08-01T12:50:16.000Z</time>
      </trkpt>
      <trkpt lat="49.37833" lon="-1.183">
        <ele>3.096795</ele>
        <time>2022-08-01T12:50:17.000Z</time>
      </trkpt>
      <trkpt lat="49.37831" lon="-1.18294">
        <ele>3.123169</ele>
        <time>2022-08-01T12:50:18.000Z</time>
      </trkpt>
      <trkpt lat="49.37829" lon="-1.18289">
        <ele>3.147811</ele>
        <time>2022-08-01T12:50:19.000Z</time>
      </trkpt>
      <trkpt lat="49.37828" lon="-1.18284">
        <ele>3.172035</ele>
        <time>2022-08-01T12:50:20.000Z</time>
      </trkpt>
      <trkpt lat="49.37826" lon="-1.18279">
        <ele>3.197474</ele>
        <time>2022-08-01T12:50:21.000Z</time>
      </trkpt>
      <trkpt lat="49.37825" lon="-1.18274">
        <ele>3.221043</ele>
        <time>2022-08-01T12:50:22.000Z</time>
      </trkpt>
      <trkpt lat="49.37823" lon="-1.18269">
        <ele>3.244894</ele>
        <time>2022-08-01T12:50:23.000Z</time>
      </trkpt>
      <trkpt lat="49.37822" lon="-1.18265">
        <ele>3.266669</ele>
        <time>2022-08-01T12:50:24.000Z</time>
      </trkpt>
      <trkpt lat="49.3782" lon="-1.1826">
        <ele>3.290391</ele>
        <time>2022-08-01T12:50:25.000Z</time>
      </trkpt>
      <trkpt lat="49.37819" lon="-1.18256">
        <ele>3.312977</ele>
        <time>2022-08-01T12:50:26.000Z</time>
      </trkpt>
      <trkpt lat="49.37817" lon="-1.18251">
        <ele>3.336828</ele>
        <time>2022-08-01T12:50:27.000Z</time>
      </trkpt>
      <trkpt lat="49.37816" lon="-1.18246">
        <ele>3.359541</ele>
        <time>2022-08-01T12:50:28.000Z</time>
      </trkpt>
      <trkpt lat="49.37815" lon="-1.18241">
        <ele>3.383354</ele>
        <time>2022-08-01T12:50:29.000Z</time>
      </trkpt>
      <trkpt lat="49.37814" lon="-1.18236">
        <ele>3.406298</ele>
        <time>2022-08-01T12:50:30.000Z</time>
      </trkpt>
      <trkpt lat="49.37813" lon="-1.18231">
        <ele>3.430523</ele>
        <time>2022-08-01T12:50:31.000Z</time>
      </trkpt>
      <trkpt lat="49.37811" lon="-1.18226">
        <ele>3.455961</ele>
        <time>2022-08-01T12:50:32.000Z</time>
      </trkpt>
      <trkpt lat="49.3781" lon="-1.1822">
        <ele>3.479943</ele>
        <time>2022-08-01T12:50:33.000Z</time>
      </trkpt>
      <trkpt lat="49.37809" lon="-1.18215">
        <ele>3.503928</ele>
        <time>2022-08-01T12:50:34.000Z</time>
      </trkpt>
      <trkpt lat="49.37807" lon="-1.1821">
        <ele>3.529367</ele>
        <time>2022-08-01T12:50:35.000Z</time>
      </trkpt>
      <trkpt lat="49.37806" lon="-1.18205">
        <ele>3.551953</ele>
        <time>2022-08-01T12:50:36.000Z</time>
      </trkpt>
      <trkpt lat="49.37804" lon="-1.182">
        <ele>3.578714</ele>
        <time>2022-08-01T12:50:37.000Z</time>
      </trkpt>
      <trkpt lat="49.37803" lon="-1.18195">
        <ele>3.604152</ele>
        <time>2022-08-01T12:50:38.000Z</time>
      </trkpt>
      <trkpt lat="49.37801" lon="-1.1819">
        <ele>3.631247</ele>
        <time>2022-08-01T12:50:39.000Z</time>
      </trkpt>
      <trkpt lat="49.37799" lon="-1.18184">
        <ele>3.657086</ele>
        <time>2022-08-01T12:50:40.000Z</time>
      </trkpt>
      <trkpt lat="49.37797" lon="-1.18179">
        <ele>3.684625</ele>
        <time>2022-08-01T12:50:41.000Z</time>
      </trkpt>
      <trkpt lat="49.37795" lon="-1.18174">
        <ele>3.710231</ele>
        <time>2022-08-01T12:50:42.000Z</time>
      </trkpt>
      <trkpt lat="49.37793" lon="-1.18169">
        <ele>3.736558</ele>
        <time>2022-08-01T12:50:43.000Z</time>
      </trkpt>
      <trkpt lat="49.37791" lon="-1.18164">
        <ele>3.762513</ele>
        <time>2022-08-01T12:50:44.000Z</time>
      </trkpt>
      <trkpt lat="49.37789" lon="-1.18159">
        <ele>3.787359</ele>
        <time>2022-08-01T12:50:45.000Z</time>
      </trkpt>
      <trkpt lat="49.37787" lon="-1.18154">
        <ele>3.813733</ele>
        <time>2022-08-01T12:50:46.000Z</time>
      </trkpt>
      <trkpt lat="49.37785" lon="-1.18149">
        <ele>3.839339</ele>
        <time>2022-08-01T12:50:47.000Z</time>
      </trkpt>
      <trkpt lat="49.37783" lon="-1.18144">
        <ele>3.864946</ele>
        <time>2022-08-01T12:50:48.000Z</time>
      </trkpt>
      <trkpt lat="49.37781" lon="-1.18139">
        <ele>3.892024</ele>
        <time>2022-08-01T12:50:49.000Z</time>
      </trkpt>
      <trkpt lat="49.37779" lon="-1.18134">
        <ele>3.919908</ele>
        <time>2022-08-01T12:50:50.000Z</time>
      </trkpt>
      <trkpt lat="49.37777" lon="-1.18129">
        <ele>3.945863</ele>
        <time>2022-08-01T12:50:51.000Z</time>
      </trkpt>
      <trkpt lat="49.37775" lon="-1.18124">
        <ele>3.971469</ele>
        <time>2022-08-01T12:50:52.000Z</time>
      </trkpt>
      <trkpt lat="49.37773" lon="-1.18119">
        <ele>3.996509</ele>
        <time>2022-08-01T12:50:53.000Z</time>
      </trkpt>
      <trkpt lat="49.37772" lon="-1.18113">
        <ele>4.02275</ele>
        <time>2022-08-01T12:50:54.000Z</time>
      </trkpt>
      <trkpt lat="49.3777" lon="-1.18108">
        <ele>4.046563</ele>
        <time>2022-08-01T12:50:55.000Z</time>
      </trkpt>
      <trkpt lat="49.37769" lon="-1.18105">
        <ele>4.066579</ele>
        <time>2022-08-01T12:50:56.000Z</time>
      </trkpt>
      <trkpt lat="49.37767" lon="-1.18103">
        <ele>4.082227</ele>
        <time>2022-08-01T12:50:57.000Z</time>
      </trkpt>
      <trkpt lat="49.37765" lon="-1.18102">
        <ele>4.095165</ele>
        <time>2022-08-01T12:50:58.000Z</time>
      </trkpt>
      <trkpt lat="49.37763" lon="-1.18104">
        <ele>4.109121</ele>
        <time>2022-08-01T12:50:59.000Z</time>
      </trkpt>
      <trkpt lat="49.37761" lon="-1.18106">
        <ele>4.124769</ele>
        <time>2022-08-01T12:51:00.000Z</time>
      </trkpt>
      <trkpt lat="49.37759" lon="-1.18108">
        <ele>4.138784</ele>
        <time>2022-08-01T12:51:01.000Z</time>
      </trkpt>
      <trkpt lat="49.37758" lon="-1.1811">
        <ele>4.152523</ele>
        <time>2022-08-01T12:51:02.000Z</time>
      </trkpt>
      <trkpt lat="49.37757" lon="-1.18113">
        <ele>4.168028</ele>
        <time>2022-08-01T12:51:03.000Z</time>
      </trkpt>
      <trkpt lat="49.37755" lon="-1.18115">
        <ele>4.182916</ele>
        <time>2022-08-01T12:51:04.000Z</time>
      </trkpt>
      <trkpt lat="49.37754" lon="-1.18118">
        <ele>4.198421</ele>
        <time>2022-08-01T12:51:05.000Z</time>
      </trkpt>
      <trkpt lat="49.37752" lon="-1.1812">
        <ele>4.213308</ele>
        <time>2022-08-01T12:51:06.000Z</time>
      </trkpt>
      <trkpt lat="49.3775" lon="-1.18122">
        <ele>4.228814</ele>
        <time>2022-08-01T12:51:07.000Z</time>
      </trkpt>
      <trkpt lat="49.37749" lon="-1.18125">
        <ele>4.247011</ele>
        <time>2022-08-01T12:51:08.000Z</time>
      </trkpt>
      <trkpt lat="49.37747" lon="-1.18127">
        <ele>4.261308</ele>
        <time>2022-08-01T12:51:09.000Z</time>
      </trkpt>
      <trkpt lat="49.37744" lon="-1.18131">
        <ele>4.305747</ele>
        <time>2022-08-01T12:51:11.000Z</time>
      </trkpt>
      <trkpt lat="49.37742" lon="-1.18135">
        <ele>4.345202</ele>
        <time>2022-08-01T12:51:13.000Z</time>
      </trkpt>
      <trkpt lat="49.3774" lon="-1.18137">
        <ele>4.375447</ele>
        <time>2022-08-01T12:51:15.000Z</time>
      </trkpt>
      <trkpt lat="49.37735" lon="-1.18142">
        <ele>4.439762</ele>
        <time>2022-08-01T12:51:28.000Z</time>
      </trkpt>
      <trkpt lat="49.37734" lon="-1.18145">
        <ele>4.469852</ele>
        <time>2022-08-01T12:51:29.000Z</time>
      </trkpt>
      <trkpt lat="49.37732" lon="-1.18148">
        <ele>4.501157</ele>
        <time>2022-08-01T12:51:30.000Z</time>
      </trkpt>
      <trkpt lat="49.37731" lon="-1.18152">
        <ele>4.532421</ele>
        <time>2022-08-01T12:51:31.000Z</time>
      </trkpt>
      <trkpt lat="49.37729" lon="-1.18155">
        <ele>4.571005</ele>
        <time>2022-08-01T12:51:32.000Z</time>
      </trkpt>
      <trkpt lat="49.37726" lon="-1.18159">
        <ele>4.614589</ele>
        <time>2022-08-01T12:51:33.000Z</time>
      </trkpt>
      <trkpt lat="49.37724" lon="-1.18163">
        <ele>4.657898</ele>
        <time>2022-08-01T12:51:34.000Z</time>
      </trkpt>
      <trkpt lat="49.37721" lon="-1.18167">
        <ele>4.696206</ele>
        <time>2022-08-01T12:51:35.000Z</time>
      </trkpt>
      <trkpt lat="49.37719" lon="-1.18171">
        <ele>4.739515</ele>
        <time>2022-08-01T12:51:36.000Z</time>
      </trkpt>
      <trkpt lat="49.37716" lon="-1.18174">
        <ele>4.783951</ele>
        <time>2022-08-01T12:51:37.000Z</time>
      </trkpt>
      <trkpt lat="49.37714" lon="-1.18177">
        <ele>4.815872</ele>
        <time>2022-08-01T12:51:38.000Z</time>
      </trkpt>
      <trkpt lat="49.37712" lon="-1.1818">
        <ele>4.850932</ele>
        <time>2022-08-01T12:51:39.000Z</time>
      </trkpt>
      <trkpt lat="49.37709" lon="-1.18184">
        <ele>4.88844</ele>
        <time>2022-08-01T12:51:40.000Z</time>
      </trkpt>
      <trkpt lat="49.37707" lon="-1.18187">
        <ele>4.926186</ele>
        <time>2022-08-01T12:51:41.000Z</time>
      </trkpt>
      <trkpt lat="49.37705" lon="-1.1819">
        <ele>4.961246</ele>
        <time>2022-08-01T12:51:42.000Z</time>
      </trkpt>
      <trkpt lat="49.37703" lon="-1.18193">
        <ele>4.995744</ele>
        <time>2022-08-01T12:51:43.000Z</time>
      </trkpt>
      <trkpt lat="49.37701" lon="-1.18196">
        <ele>5.028217</ele>
        <time>2022-08-01T12:51:44.000Z</time>
      </trkpt>
      <trkpt lat="49.37699" lon="-1.18199">
        <ele>5.06125</ele>
        <time>2022-08-01T12:51:45.000Z</time>
      </trkpt>
      <trkpt lat="49.37696" lon="-1.18202">
        <ele>5.100955</ele>
        <time>2022-08-01T12:51:46.000Z</time>
      </trkpt>
      <trkpt lat="49.37694" lon="-1.18205">
        <ele>5.137827</ele>
        <time>2022-08-01T12:51:47.000Z</time>
      </trkpt>
      <trkpt lat="49.37692" lon="-1.18208">
        <ele>5.16956</ele>
        <time>2022-08-01T12:51:48.000Z</time>
      </trkpt>
      <trkpt lat="49.3769" lon="-1.1821">
        <ele>5.197887</ele>
        <time>2022-08-01T12:51:49.000Z</time>
      </trkpt>
      <trkpt lat="49.37689" lon="-1.18213">
        <ele>5.222614</ele>
        <time>2022-08-01T12:51:50.000Z</time>
      </trkpt>
      <trkpt lat="49.37687" lon="-1.18215">
        <ele>5.251055</ele>
        <time>2022-08-01T12:51:51.000Z</time>
      </trkpt>
      <trkpt lat="49.37685" lon="-1.18217">
        <ele>5.278505</ele>
        <time>2022-08-01T12:51:52.000Z</time>
      </trkpt>
      <trkpt lat="49.37683" lon="-1.18219">
        <ele>5.305954</ele>
        <time>2022-08-01T12:51:53.000Z</time>
      </trkpt>
      <trkpt lat="49.37681" lon="-1.18222">
        <ele>5.339513</ele>
        <time>2022-08-01T12:51:54.000Z</time>
      </trkpt>
      <trkpt lat="49.37679" lon="-1.18224">
        <ele>5.365105</ele>
        <time>2022-08-01T12:51:55.000Z</time>
      </trkpt>
      <trkpt lat="49.37677" lon="-1.18226">
        <ele>5.393976</ele>
        <time>2022-08-01T12:51:56.000Z</time>
      </trkpt>
      <trkpt lat="49.37676" lon="-1.18228">
        <ele>5.42018</ele>
        <time>2022-08-01T12:51:57.000Z</time>
      </trkpt>
      <trkpt lat="49.37674" lon="-1.18229">
        <ele>5.446385</ele>
        <time>2022-08-01T12:51:58.000Z</time>
      </trkpt>
      <trkpt lat="49.37672" lon="-1.18232">
        <ele>5.475214</ele>
        <time>2022-08-01T12:51:59.000Z</time>
      </trkpt>
      <trkpt lat="49.3767" lon="-1.18234">
        <ele>5.50357</ele>
        <time>2022-08-01T12:52:00.000Z</time>
      </trkpt>
      <trkpt lat="49.37668" lon="-1.18236">
        <ele>5.536277</ele>
        <time>2022-08-01T12:52:01.000Z</time>
      </trkpt>
      <trkpt lat="49.37666" lon="-1.18239">
        <ele>5.567124</ele>
        <time>2022-08-01T12:52:02.000Z</time>
      </trkpt>
      <trkpt lat="49.37664" lon="-1.1824">
        <ele>5.592946</ele>
        <time>2022-08-01T12:52:03.000Z</time>
      </trkpt>
      <trkpt lat="49.37662" lon="-1.18243">
        <ele>5.617169</ele>
        <time>2022-08-01T12:52:04.000Z</time>
      </trkpt>
      <trkpt lat="49.37661" lon="-1.18245">
        <ele>5.641994</ele>
        <time>2022-08-01T12:52:05.000Z</time>
      </trkpt>
      <trkpt lat="49.37659" lon="-1.18248">
        <ele>5.671809</ele>
        <time>2022-08-01T12:52:06.000Z</time>
      </trkpt>
      <trkpt lat="49.37658" lon="-1.18251">
        <ele>5.701898</ele>
        <time>2022-08-01T12:52:07.000Z</time>
      </trkpt>
      <trkpt lat="49.37656" lon="-1.18253">
        <ele>5.729657</ele>
        <time>2022-08-01T12:52:08.000Z</time>
      </trkpt>
      <trkpt lat="49.37654" lon="-1.18256">
        <ele>5.758013</ele>
        <time>2022-08-01T12:52:09.000Z</time>
      </trkpt>
      <trkpt lat="49.37652" lon="-1.18258">
        <ele>5.78886</ele>
        <time>2022-08-01T12:52:10.000Z</time>
      </trkpt>
      <trkpt lat="49.37651" lon="-1.18261">
        <ele>5.817766</ele>
        <time>2022-08-01T12:52:11.000Z</time>
      </trkpt>
      <trkpt lat="49.37649" lon="-1.18264">
        <ele>5.844449</ele>
        <time>2022-08-01T12:52:12.000Z</time>
      </trkpt>
      <trkpt lat="49.37647" lon="-1.18266">
        <ele>5.873765</ele>
        <time>2022-08-01T12:52:13.000Z</time>
      </trkpt>
      <trkpt lat="49.37645" lon="-1.18269">
        <ele>5.912989</ele>
        <time>2022-08-01T12:52:14.000Z</time>
      </trkpt>
      <trkpt lat="49.37643" lon="-1.18272">
        <ele>5.943079</ele>
        <time>2022-08-01T12:52:15.000Z</time>
      </trkpt>
      <trkpt lat="49.37642" lon="-1.18275">
        <ele>5.972572</ele>
        <time>2022-08-01T12:52:16.000Z</time>
      </trkpt>
      <trkpt lat="49.3764" lon="-1.18279">
        <ele>6.004497</ele>
        <time>2022-08-01T12:52:17.000Z</time>
      </trkpt>
      <trkpt lat="49.37638" lon="-1.18282">
        <ele>6.039556</ele>
        <time>2022-08-01T12:52:18.000Z</time>
      </trkpt>
      <trkpt lat="49.37636" lon="-1.18285">
        <ele>6.073973</ele>
        <time>2022-08-01T12:52:19.000Z</time>
      </trkpt>
      <trkpt lat="49.37634" lon="-1.18288">
        <ele>6.109033</ele>
        <time>2022-08-01T12:52:20.000Z</time>
      </trkpt>
      <trkpt lat="49.37632" lon="-1.18291">
        <ele>6.140412</ele>
        <time>2022-08-01T12:52:21.000Z</time>
      </trkpt>
      <trkpt lat="49.3763" lon="-1.18293">
        <ele>6.171792</ele>
        <time>2022-08-01T12:52:22.000Z</time>
      </trkpt>
      <trkpt lat="49.37627" lon="-1.18297">
        <ele>6.214345</ele>
        <time>2022-08-01T12:52:23.000Z</time>
      </trkpt>
      <trkpt lat="49.37625" lon="-1.183">
        <ele>6.244435</ele>
        <time>2022-08-01T12:52:24.000Z</time>
      </trkpt>
      <trkpt lat="49.37623" lon="-1.18303">
        <ele>6.283189</ele>
        <time>2022-08-01T12:52:25.000Z</time>
      </trkpt>
      <trkpt lat="49.37621" lon="-1.18305">
        <ele>6.317238</ele>
        <time>2022-08-01T12:52:26.000Z</time>
      </trkpt>
      <trkpt lat="49.37618" lon="-1.18308">
        <ele>6.353197</ele>
        <time>2022-08-01T12:52:27.000Z</time>
      </trkpt>
      <trkpt lat="49.37616" lon="-1.18311">
        <ele>6.386757</ele>
        <time>2022-08-01T12:52:28.000Z</time>
      </trkpt>
      <trkpt lat="49.37614" lon="-1.18314">
        <ele>6.405724</ele>
        <time>2022-08-01T12:52:29.000Z</time>
      </trkpt>
      <trkpt lat="49.37612" lon="-1.18317">
        <ele>6.406459</ele>
        <time>2022-08-01T12:52:30.000Z</time>
      </trkpt>
      <trkpt lat="49.37609" lon="-1.18321">
        <ele>6.407321</ele>
        <time>2022-08-01T12:52:31.000Z</time>
      </trkpt>
      <trkpt lat="49.37606" lon="-1.18324">
        <ele>6.40805</ele>
        <time>2022-08-01T12:52:32.000Z</time>
      </trkpt>
      <trkpt lat="49.37605" lon="-1.18328">
        <ele>6.408719</ele>
        <time>2022-08-01T12:52:33.000Z</time>
      </trkpt>
      <trkpt lat="49.37602" lon="-1.18331">
        <ele>6.409454</ele>
        <time>2022-08-01T12:52:34.000Z</time>
      </trkpt>
      <trkpt lat="49.376" lon="-1.18334">
        <ele>6.410234</ele>
        <time>2022-08-01T12:52:35.000Z</time>
      </trkpt>
      <trkpt lat="49.37597" lon="-1.18338">
        <ele>6.411105</ele>
        <time>2022-08-01T12:52:36.000Z</time>
      </trkpt>
      <trkpt lat="49.37594" lon="-1.18341">
        <ele>6.411903</ele>
        <time>2022-08-01T12:52:37.000Z</time>
      </trkpt>
      <trkpt lat="49.37592" lon="-1.18345">
        <ele>6.412693</ele>
        <time>2022-08-01T12:52:38.000Z</time>
      </trkpt>
      <trkpt lat="49.37589" lon="-1.18348">
        <ele>6.413461</ele>
        <time>2022-08-01T12:52:39.000Z</time>
      </trkpt>
      <trkpt lat="49.37587" lon="-1.18351">
        <ele>6.414201</ele>
        <time>2022-08-01T12:52:40.000Z</time>
      </trkpt>
      <trkpt lat="49.37586" lon="-1.18356">
        <ele>6.414908</ele>
        <time>2022-08-01T12:52:41.000Z</time>
      </trkpt>
      <trkpt lat="49.37584" lon="-1.18359">
        <ele>6.415601</ele>
        <time>2022-08-01T12:52:42.000Z</time>
      </trkpt>
      <trkpt lat="49.37581" lon="-1.18363">
        <ele>6.416439</ele>
        <time>2022-08-01T12:52:43.000Z</time>
      </trkpt>
      <trkpt lat="49.37579" lon="-1.18366">
        <ele>6.417147</ele>
        <time>2022-08-01T12:52:44.000Z</time>
      </trkpt>
      <trkpt lat="49.37577" lon="-1.1837">
        <ele>6.417903</ele>
        <time>2022-08-01T12:52:45.000Z</time>
      </trkpt>
      <trkpt lat="49.37574" lon="-1.18373">
        <ele>6.418663</ele>
        <time>2022-08-01T12:52:46.000Z</time>
      </trkpt>
      <trkpt lat="49.37572" lon="-1.18376">
        <ele>6.419378</ele>
        <time>2022-08-01T12:52:47.000Z</time>
      </trkpt>
      <trkpt lat="49.37569" lon="-1.18379">
        <ele>6.420118</ele>
        <time>2022-08-01T12:52:48.000Z</time>
      </trkpt>
      <trkpt lat="49.37568" lon="-1.18382">
        <ele>6.420756</ele>
        <time>2022-08-01T12:52:49.000Z</time>
      </trkpt>
      <trkpt lat="49.37565" lon="-1.18386">
        <ele>6.421616</ele>
        <time>2022-08-01T12:52:50.000Z</time>
      </trkpt>
      <trkpt lat="49.37563" lon="-1.18389">
        <ele>6.422252</ele>
        <time>2022-08-01T12:52:51.000Z</time>
      </trkpt>
      <trkpt lat="49.37561" lon="-1.18392">
        <ele>6.422919</ele>
        <time>2022-08-01T12:52:52.000Z</time>
      </trkpt>
      <trkpt lat="49.37559" lon="-1.18395">
        <ele>6.423541</ele>
        <time>2022-08-01T12:52:53.000Z</time>
      </trkpt>
      <trkpt lat="49.37557" lon="-1.18398">
        <ele>6.424239</ele>
        <time>2022-08-01T12:52:54.000Z</time>
      </trkpt>
      <trkpt lat="49.37555" lon="-1.18401">
        <ele>6.42492</ele>
        <time>2022-08-01T12:52:55.000Z</time>
      </trkpt>
      <trkpt lat="49.37553" lon="-1.18404">
        <ele>6.425578</ele>
        <time>2022-08-01T12:52:56.000Z</time>
      </trkpt>
      <trkpt lat="49.37551" lon="-1.18406">
        <ele>6.426143</ele>
        <time>2022-08-01T12:52:57.000Z</time>
      </trkpt>
      <trkpt lat="49.37549" lon="-1.18409">
        <ele>6.426782</ele>
        <time>2022-08-01T12:52:58.000Z</time>
      </trkpt>
      <trkpt lat="49.37546" lon="-1.18411">
        <ele>6.427399</ele>
        <time>2022-08-01T12:52:59.000Z</time>
      </trkpt>
      <trkpt lat="49.37543" lon="-1.18411">
        <ele>6.428064</ele>
        <time>2022-08-01T12:53:00.000Z</time>
      </trkpt>
      <trkpt lat="49.37541" lon="-1.18411">
        <ele>6.428676</ele>
        <time>2022-08-01T12:53:01.000Z</time>
      </trkpt>
      <trkpt lat="49.37539" lon="-1.18409">
        <ele>6.429245</ele>
        <time>2022-08-01T12:53:02.000Z</time>
      </trkpt>
      <trkpt lat="49.37537" lon="-1.18406">
        <ele>6.429898</ele>
        <time>2022-08-01T12:53:03.000Z</time>
      </trkpt>
      <trkpt lat="49.37535" lon="-1.18403">
        <ele>6.430591</ele>
        <time>2022-08-01T12:53:04.000Z</time>
      </trkpt>
      <trkpt lat="49.37533" lon="-1.18399">
        <ele>6.431331</ele>
        <time>2022-08-01T12:53:05.000Z</time>
      </trkpt>
      <trkpt lat="49.37531" lon="-1.18395">
        <ele>6.432084</ele>
        <time>2022-08-01T12:53:06.000Z</time>
      </trkpt>
      <trkpt lat="49.37529" lon="-1.18391">
        <ele>6.432789</ele>
        <time>2022-08-01T12:53:07.000Z</time>
      </trkpt>
      <trkpt lat="49.37526" lon="-1.18388">
        <ele>6.433597</ele>
        <time>2022-08-01T12:53:08.000Z</time>
      </trkpt>
      <trkpt lat="49.37523" lon="-1.18385">
        <ele>6.434458</ele>
        <time>2022-08-01T12:53:09.000Z</time>
      </trkpt>
      <trkpt lat="49.37521" lon="-1.18381">
        <ele>6.435151</ele>
        <time>2022-08-01T12:53:10.000Z</time>
      </trkpt>
      <trkpt lat="49.37519" lon="-1.18379">
        <ele>6.435698</ele>
        <time>2022-08-01T12:53:11.000Z</time>
      </trkpt>
      <trkpt lat="49.37517" lon="-1.18376">
        <ele>6.436443</ele>
        <time>2022-08-01T12:53:12.000Z</time>
      </trkpt>
      <trkpt lat="49.37515" lon="-1.18371">
        <ele>6.437311</ele>
        <time>2022-08-01T12:53:13.000Z</time>
      </trkpt>
      <trkpt lat="49.37513" lon="-1.18369">
        <ele>6.437921</ele>
        <time>2022-08-01T12:53:14.000Z</time>
      </trkpt>
      <trkpt lat="49.37511" lon="-1.18367">
        <ele>6.438536</ele>
        <time>2022-08-01T12:53:15.000Z</time>
      </trkpt>
      <trkpt lat="49.37509" lon="-1.18364">
        <ele>6.439203</ele>
        <time>2022-08-01T12:53:16.000Z</time>
      </trkpt>
      <trkpt lat="49.37507" lon="-1.18361">
        <ele>6.439829</ele>
        <time>2022-08-01T12:53:17.000Z</time>
      </trkpt>
      <trkpt lat="49.37504" lon="-1.18358">
        <ele>6.440564</ele>
        <time>2022-08-01T12:53:18.000Z</time>
      </trkpt>
      <trkpt lat="49.37502" lon="-1.18354">
        <ele>6.441324</ele>
        <time>2022-08-01T12:53:19.000Z</time>
      </trkpt>
      <trkpt lat="49.375" lon="-1.18352">
        <ele>6.441857</ele>
        <time>2022-08-01T12:53:20.000Z</time>
      </trkpt>
      <trkpt lat="49.37498" lon="-1.18349">
        <ele>6.442521</ele>
        <time>2022-08-01T12:53:21.000Z</time>
      </trkpt>
      <trkpt lat="49.37496" lon="-1.18346">
        <ele>6.443209</ele>
        <time>2022-08-01T12:53:22.000Z</time>
      </trkpt>
      <trkpt lat="49.37494" lon="-1.18344">
        <ele>6.443803</ele>
        <time>2022-08-01T12:53:23.000Z</time>
      </trkpt>
      <trkpt lat="49.37492" lon="-1.18341">
        <ele>6.444456</ele>
        <time>2022-08-01T12:53:24.000Z</time>
      </trkpt>
      <trkpt lat="49.3749" lon="-1.18338">
        <ele>6.445046</ele>
        <time>2022-08-01T12:53:25.000Z</time>
      </trkpt>
      <trkpt lat="49.37488" lon="-1.18335">
        <ele>6.445682</ele>
        <time>2022-08-01T12:53:26.000Z</time>
      </trkpt>
      <trkpt lat="49.37486" lon="-1.18332">
        <ele>6.446308</ele>
        <time>2022-08-01T12:53:27.000Z</time>
      </trkpt>
      <trkpt lat="49.37485" lon="-1.18329">
        <ele>6.446944</ele>
        <time>2022-08-01T12:53:28.000Z</time>
      </trkpt>
      <trkpt lat="49.37483" lon="-1.18326">
        <ele>6.45239</ele>
        <time>2022-08-01T12:53:29.000Z</time>
      </trkpt>
      <trkpt lat="49.3748" lon="-1.18323">
        <ele>6.472678</ele>
        <time>2022-08-01T12:53:30.000Z</time>
      </trkpt>
      <trkpt lat="49.37478" lon="-1.1832">
        <ele>6.49428</ele>
        <time>2022-08-01T12:53:31.000Z</time>
      </trkpt>
      <trkpt lat="49.37476" lon="-1.18317">
        <ele>6.514287</ele>
        <time>2022-08-01T12:53:32.000Z</time>
      </trkpt>
      <trkpt lat="49.37473" lon="-1.18314">
        <ele>6.534962</ele>
        <time>2022-08-01T12:53:33.000Z</time>
      </trkpt>
      <trkpt lat="49.37471" lon="-1.18311">
        <ele>6.554694</ele>
        <time>2022-08-01T12:53:34.000Z</time>
      </trkpt>
      <trkpt lat="49.37469" lon="-1.18308">
        <ele>6.573015</ele>
        <time>2022-08-01T12:53:35.000Z</time>
      </trkpt>
      <trkpt lat="49.37467" lon="-1.18305">
        <ele>6.591948</ele>
        <time>2022-08-01T12:53:36.000Z</time>
      </trkpt>
      <trkpt lat="49.37465" lon="-1.18303">
        <ele>6.608769</ele>
        <time>2022-08-01T12:53:37.000Z</time>
      </trkpt>
      <trkpt lat="49.37463" lon="-1.183">
        <ele>6.627714</ele>
        <time>2022-08-01T12:53:38.000Z</time>
      </trkpt>
      <trkpt lat="49.37461" lon="-1.18297">
        <ele>6.646672</ele>
        <time>2022-08-01T12:53:39.000Z</time>
      </trkpt>
      <trkpt lat="49.37459" lon="-1.18294">
        <ele>6.663989</ele>
        <time>2022-08-01T12:53:40.000Z</time>
      </trkpt>
      <trkpt lat="49.37457" lon="-1.18291">
        <ele>6.68436</ele>
        <time>2022-08-01T12:53:41.000Z</time>
      </trkpt>
      <trkpt lat="49.37455" lon="-1.18287">
        <ele>6.706129</ele>
        <time>2022-08-01T12:53:42.000Z</time>
      </trkpt>
      <trkpt lat="49.37452" lon="-1.18283">
        <ele>6.729471</ele>
        <time>2022-08-01T12:53:43.000Z</time>
      </trkpt>
      <trkpt lat="49.37451" lon="-1.1828">
        <ele>6.747482</ele>
        <time>2022-08-01T12:53:44.000Z</time>
      </trkpt>
      <trkpt lat="49.37449" lon="-1.18277">
        <ele>6.766278</ele>
        <time>2022-08-01T12:53:45.000Z</time>
      </trkpt>
      <trkpt lat="49.37447" lon="-1.18274">
        <ele>6.783981</ele>
        <time>2022-08-01T12:53:46.000Z</time>
      </trkpt>
      <trkpt lat="49.37445" lon="-1.18271">
        <ele>6.801991</ele>
        <time>2022-08-01T12:53:47.000Z</time>
      </trkpt>
      <trkpt lat="49.37443" lon="-1.18268">
        <ele>6.820311</ele>
        <time>2022-08-01T12:53:48.000Z</time>
      </trkpt>
      <trkpt lat="49.37441" lon="-1.18265">
        <ele>6.838632</ele>
        <time>2022-08-01T12:53:49.000Z</time>
      </trkpt>
      <trkpt lat="49.37439" lon="-1.18261">
        <ele>6.861058</ele>
        <time>2022-08-01T12:53:50.000Z</time>
      </trkpt>
      <trkpt lat="49.37436" lon="-1.18259">
        <ele>6.882833</ele>
        <time>2022-08-01T12:53:51.000Z</time>
      </trkpt>
      <trkpt lat="49.37435" lon="-1.18255">
        <ele>6.900094</ele>
        <time>2022-08-01T12:53:52.000Z</time>
      </trkpt>
      <trkpt lat="49.37432" lon="-1.18252">
        <ele>6.923629</ele>
        <time>2022-08-01T12:53:53.000Z</time>
      </trkpt>
      <trkpt lat="49.3743" lon="-1.18249">
        <ele>6.94345</ele>
        <time>2022-08-01T12:53:54.000Z</time>
      </trkpt>
      <trkpt lat="49.37427" lon="-1.18247">
        <ele>6.963623</ele>
        <time>2022-08-01T12:53:55.000Z</time>
      </trkpt>
      <trkpt lat="49.37425" lon="-1.18244">
        <ele>6.983995</ele>
        <time>2022-08-01T12:53:56.000Z</time>
      </trkpt>
      <trkpt lat="49.37422" lon="-1.18241">
        <ele>7.007503</ele>
        <time>2022-08-01T12:53:57.000Z</time>
      </trkpt>
      <trkpt lat="49.3742" lon="-1.18238">
        <ele>7.028664</ele>
        <time>2022-08-01T12:53:58.000Z</time>
      </trkpt>
      <trkpt lat="49.37418" lon="-1.18234">
        <ele>7.049339</ele>
        <time>2022-08-01T12:53:59.000Z</time>
      </trkpt>
      <trkpt lat="49.37415" lon="-1.18231">
        <ele>7.071274</ele>
        <time>2022-08-01T12:54:00.000Z</time>
      </trkpt>
      <trkpt lat="49.37413" lon="-1.18227">
        <ele>7.092139</ele>
        <time>2022-08-01T12:54:01.000Z</time>
      </trkpt>
      <trkpt lat="49.37411" lon="-1.18224">
        <ele>7.112212</ele>
        <time>2022-08-01T12:54:02.000Z</time>
      </trkpt>
      <trkpt lat="49.37409" lon="-1.18221">
        <ele>7.13117</ele>
        <time>2022-08-01T12:54:03.000Z</time>
      </trkpt>
      <trkpt lat="49.37406" lon="-1.18218">
        <ele>7.154415</ele>
        <time>2022-08-01T12:54:04.000Z</time>
      </trkpt>
      <trkpt lat="49.37404" lon="-1.18214">
        <ele>7.174787</ele>
        <time>2022-08-01T12:54:05.000Z</time>
      </trkpt>
      <trkpt lat="49.37402" lon="-1.18211">
        <ele>7.195948</ele>
        <time>2022-08-01T12:54:06.000Z</time>
      </trkpt>
      <trkpt lat="49.374" lon="-1.18208">
        <ele>7.216623</ele>
        <time>2022-08-01T12:54:07.000Z</time>
      </trkpt>
      <trkpt lat="49.37398" lon="-1.18204">
        <ele>7.236572</ele>
        <time>2022-08-01T12:54:08.000Z</time>
      </trkpt>
      <trkpt lat="49.37396" lon="-1.18201">
        <ele>7.256859</ele>
        <time>2022-08-01T12:54:09.000Z</time>
      </trkpt>
      <trkpt lat="49.37394" lon="-1.18198">
        <ele>7.276473</ele>
        <time>2022-08-01T12:54:10.000Z</time>
      </trkpt>
      <trkpt lat="49.37391" lon="-1.18195">
        <ele>7.296547</ele>
        <time>2022-08-01T12:54:11.000Z</time>
      </trkpt>
      <trkpt lat="49.37389" lon="-1.18191">
        <ele>7.31894</ele>
        <time>2022-08-01T12:54:12.000Z</time>
      </trkpt>
      <trkpt lat="49.37386" lon="-1.18188">
        <ele>7.342448</ele>
        <time>2022-08-01T12:54:13.000Z</time>
      </trkpt>
      <trkpt lat="49.37384" lon="-1.18185">
        <ele>7.36282</ele>
        <time>2022-08-01T12:54:14.000Z</time>
      </trkpt>
      <trkpt lat="49.37382" lon="-1.18182">
        <ele>7.383495</ele>
        <time>2022-08-01T12:54:15.000Z</time>
      </trkpt>
      <trkpt lat="49.3738" lon="-1.18178">
        <ele>7.40436</ele>
        <time>2022-08-01T12:54:16.000Z</time>
      </trkpt>
      <trkpt lat="49.37377" lon="-1.18175">
        <ele>7.42414</ele>
        <time>2022-08-01T12:54:17.000Z</time>
      </trkpt>
      <trkpt lat="49.37375" lon="-1.18172">
        <ele>7.44627</ele>
        <time>2022-08-01T12:54:18.000Z</time>
      </trkpt>
      <trkpt lat="49.37373" lon="-1.18169">
        <ele>7.466642</ele>
        <time>2022-08-01T12:54:19.000Z</time>
      </trkpt>
      <trkpt lat="49.3737" lon="-1.18166">
        <ele>7.487803</ele>
        <time>2022-08-01T12:54:20.000Z</time>
      </trkpt>
      <trkpt lat="49.37368" lon="-1.18162">
        <ele>7.509099</ele>
        <time>2022-08-01T12:54:21.000Z</time>
      </trkpt>
      <trkpt lat="49.37365" lon="-1.18159">
        <ele>7.530964</ele>
        <time>2022-08-01T12:54:22.000Z</time>
      </trkpt>
      <trkpt lat="49.37363" lon="-1.18156">
        <ele>7.551335</ele>
        <time>2022-08-01T12:54:23.000Z</time>
      </trkpt>
      <trkpt lat="49.37361" lon="-1.18153">
        <ele>7.573199</ele>
        <time>2022-08-01T12:54:24.000Z</time>
      </trkpt>
      <trkpt lat="49.37358" lon="-1.1815">
        <ele>7.59453</ele>
        <time>2022-08-01T12:54:25.000Z</time>
      </trkpt>
      <trkpt lat="49.37356" lon="-1.18147">
        <ele>7.614818</ele>
        <time>2022-08-01T12:54:26.000Z</time>
      </trkpt>
      <trkpt lat="49.37353" lon="-1.18144">
        <ele>7.636148</ele>
        <time>2022-08-01T12:54:27.000Z</time>
      </trkpt>
      <trkpt lat="49.3735" lon="-1.18141">
        <ele>7.65421</ele>
        <time>2022-08-01T12:54:28.000Z</time>
      </trkpt>
      <trkpt lat="49.37348" lon="-1.18137">
        <ele>7.640456</ele>
        <time>2022-08-01T12:54:29.000Z</time>
      </trkpt>
      <trkpt lat="49.37345" lon="-1.18133">
        <ele>7.626808</ele>
        <time>2022-08-01T12:54:30.000Z</time>
      </trkpt>
      <trkpt lat="49.37342" lon="-1.18129">
        <ele>7.61218</ele>
        <time>2022-08-01T12:54:31.000Z</time>
      </trkpt>
      <trkpt lat="49.3734" lon="-1.18126">
        <ele>7.597869</ele>
        <time>2022-08-01T12:54:32.000Z</time>
      </trkpt>
      <trkpt lat="49.37336" lon="-1.18122">
        <ele>7.582625</ele>
        <time>2022-08-01T12:54:33.000Z</time>
      </trkpt>
      <trkpt lat="49.37333" lon="-1.18119">
        <ele>7.567834</ele>
        <time>2022-08-01T12:54:34.000Z</time>
      </trkpt>
      <trkpt lat="49.3733" lon="-1.18115">
        <ele>7.551898</ele>
        <time>2022-08-01T12:54:35.000Z</time>
      </trkpt>
      <trkpt lat="49.37326" lon="-1.18112">
        <ele>7.536094</ele>
        <time>2022-08-01T12:54:36.000Z</time>
      </trkpt>
      <trkpt lat="49.37324" lon="-1.18109">
        <ele>7.522238</ele>
        <time>2022-08-01T12:54:37.000Z</time>
      </trkpt>
      <trkpt lat="49.3732" lon="-1.18105">
        <ele>7.506995</ele>
        <time>2022-08-01T12:54:38.000Z</time>
      </trkpt>
      <trkpt lat="49.37317" lon="-1.18102">
        <ele>7.491059</ele>
        <time>2022-08-01T12:54:39.000Z</time>
      </trkpt>
      <trkpt lat="49.37314" lon="-1.18099">
        <ele>7.477203</ele>
        <time>2022-08-01T12:54:40.000Z</time>
      </trkpt>
      <trkpt lat="49.3731" lon="-1.18096">
        <ele>7.461526</ele>
        <time>2022-08-01T12:54:41.000Z</time>
      </trkpt>
      <trkpt lat="49.37307" lon="-1.18092">
        <ele>7.446428</ele>
        <time>2022-08-01T12:54:42.000Z</time>
      </trkpt>
      <trkpt lat="49.37304" lon="-1.18089">
        <ele>7.431472</ele>
        <time>2022-08-01T12:54:43.000Z</time>
      </trkpt>
      <trkpt lat="49.37301" lon="-1.18086">
        <ele>7.41616</ele>
        <time>2022-08-01T12:54:44.000Z</time>
      </trkpt>
      <trkpt lat="49.37297" lon="-1.18083">
        <ele>7.401343</ele>
        <time>2022-08-01T12:54:45.000Z</time>
      </trkpt>
      <trkpt lat="49.37294" lon="-1.1808">
        <ele>7.386387</ele>
        <time>2022-08-01T12:54:46.000Z</time>
      </trkpt>
      <trkpt lat="49.37291" lon="-1.18076">
        <ele>7.372231</ele>
        <time>2022-08-01T12:54:47.000Z</time>
      </trkpt>
      <trkpt lat="49.37288" lon="-1.18073">
        <ele>7.357551</ele>
        <time>2022-08-01T12:54:48.000Z</time>
      </trkpt>
      <trkpt lat="49.37285" lon="-1.1807">
        <ele>7.342307</ele>
        <time>2022-08-01T12:54:49.000Z</time>
      </trkpt>
      <trkpt lat="49.37281" lon="-1.18066">
        <ele>7.325243</ele>
        <time>2022-08-01T12:54:50.000Z</time>
      </trkpt>
      <trkpt lat="49.37278" lon="-1.18063">
        <ele>7.309999</ele>
        <time>2022-08-01T12:54:51.000Z</time>
      </trkpt>
      <trkpt lat="49.37274" lon="-1.1806">
        <ele>7.293985</ele>
        <time>2022-08-01T12:54:52.000Z</time>
      </trkpt>
      <trkpt lat="49.37271" lon="-1.18056">
        <ele>7.277779</ele>
        <time>2022-08-01T12:54:53.000Z</time>
      </trkpt>
      <trkpt lat="49.37267" lon="-1.18052">
        <ele>7.261001</ele>
        <time>2022-08-01T12:54:54.000Z</time>
      </trkpt>
      <trkpt lat="49.37263" lon="-1.18051">
        <ele>7.243079</ele>
        <time>2022-08-01T12:54:55.000Z</time>
      </trkpt>
      <trkpt lat="49.37259" lon="-1.18048">
        <ele>7.227526</ele>
        <time>2022-08-01T12:54:56.000Z</time>
      </trkpt>
      <trkpt lat="49.37255" lon="-1.18045">
        <ele>7.210711</ele>
        <time>2022-08-01T12:54:57.000Z</time>
      </trkpt>
      <trkpt lat="49.37253" lon="-1.18041">
        <ele>7.196399</ele>
        <time>2022-08-01T12:54:58.000Z</time>
      </trkpt>
      <trkpt lat="49.37249" lon="-1.18039">
        <ele>7.181422</ele>
        <time>2022-08-01T12:54:59.000Z</time>
      </trkpt>
      <trkpt lat="49.37246" lon="-1.18037">
        <ele>7.169548</ele>
        <time>2022-08-01T12:55:00.000Z</time>
      </trkpt>
      <trkpt lat="49.37243" lon="-1.18035">
        <ele>7.156884</ele>
        <time>2022-08-01T12:55:01.000Z</time>
      </trkpt>
      <trkpt lat="49.37241" lon="-1.18032">
        <ele>7.145114</ele>
        <time>2022-08-01T12:55:02.000Z</time>
      </trkpt>
      <trkpt lat="49.37238" lon="-1.1803">
        <ele>7.134057</ele>
        <time>2022-08-01T12:55:03.000Z</time>
      </trkpt>
      <trkpt lat="49.37236" lon="-1.18028">
        <ele>7.121879</ele>
        <time>2022-08-01T12:55:04.000Z</time>
      </trkpt>
      <trkpt lat="49.37233" lon="-1.18025">
        <ele>7.109873</ele>
        <time>2022-08-01T12:55:05.000Z</time>
      </trkpt>
      <trkpt lat="49.37231" lon="-1.18022">
        <ele>7.098165</ele>
        <time>2022-08-01T12:55:06.000Z</time>
      </trkpt>
      <trkpt lat="49.37228" lon="-1.18018">
        <ele>7.085207</ele>
        <time>2022-08-01T12:55:07.000Z</time>
      </trkpt>
      <trkpt lat="49.37225" lon="-1.18016">
        <ele>7.072178</ele>
        <time>2022-08-01T12:55:08.000Z</time>
      </trkpt>
      <trkpt lat="49.37222" lon="-1.18013">
        <ele>7.058322</ele>
        <time>2022-08-01T12:55:09.000Z</time>
      </trkpt>
      <trkpt lat="49.37219" lon="-1.1801">
        <ele>7.044032</ele>
        <time>2022-08-01T12:55:10.000Z</time>
      </trkpt>
      <trkpt lat="49.37216" lon="-1.18007">
        <ele>7.030873</ele>
        <time>2022-08-01T12:55:11.000Z</time>
      </trkpt>
      <trkpt lat="49.37213" lon="-1.18004">
        <ele>7.015068</ele>
        <time>2022-08-01T12:55:12.000Z</time>
      </trkpt>
      <trkpt lat="49.3721" lon="-1.18">
        <ele>6.999825</ele>
        <time>2022-08-01T12:55:13.000Z</time>
      </trkpt>
      <trkpt lat="49.37206" lon="-1.17997">
        <ele>6.984869</ele>
        <time>2022-08-01T12:55:14.000Z</time>
      </trkpt>
      <trkpt lat="49.37203" lon="-1.17994">
        <ele>6.968663</ele>
        <time>2022-08-01T12:55:15.000Z</time>
      </trkpt>
      <trkpt lat="49.372" lon="-1.1799">
        <ele>6.959724</ele>
        <time>2022-08-01T12:55:16.000Z</time>
      </trkpt>
      <trkpt lat="49.37197" lon="-1.17986">
        <ele>6.962473</ele>
        <time>2022-08-01T12:55:17.000Z</time>
      </trkpt>
      <trkpt lat="49.37193" lon="-1.17983">
        <ele>6.965248</ele>
        <time>2022-08-01T12:55:18.000Z</time>
      </trkpt>
      <trkpt lat="49.3719" lon="-1.17979">
        <ele>6.967835</ele>
        <time>2022-08-01T12:55:19.000Z</time>
      </trkpt>
      <trkpt lat="49.37187" lon="-1.17975">
        <ele>6.970666</ele>
        <time>2022-08-01T12:55:20.000Z</time>
      </trkpt>
      <trkpt lat="49.37184" lon="-1.17971">
        <ele>6.973497</ele>
        <time>2022-08-01T12:55:21.000Z</time>
      </trkpt>
      <trkpt lat="49.37181" lon="-1.17967">
        <ele>6.976119</ele>
        <time>2022-08-01T12:55:22.000Z</time>
      </trkpt>
      <trkpt lat="49.37179" lon="-1.17962">
        <ele>6.978633</ele>
        <time>2022-08-01T12:55:23.000Z</time>
      </trkpt>
      <trkpt lat="49.37177" lon="-1.17958">
        <ele>6.981321</ele>
        <time>2022-08-01T12:55:24.000Z</time>
      </trkpt>
      <trkpt lat="49.37174" lon="-1.17953">
        <ele>6.984167</ele>
        <time>2022-08-01T12:55:25.000Z</time>
      </trkpt>
      <trkpt lat="49.37171" lon="-1.17949">
        <ele>6.986724</ele>
        <time>2022-08-01T12:55:26.000Z</time>
      </trkpt>
      <trkpt lat="49.37169" lon="-1.17944">
        <ele>6.989378</ele>
        <time>2022-08-01T12:55:27.000Z</time>
      </trkpt>
      <trkpt lat="49.37167" lon="-1.17939">
        <ele>6.991965</ele>
        <time>2022-08-01T12:55:28.000Z</time>
      </trkpt>
      <trkpt lat="49.37165" lon="-1.17934">
        <ele>6.994551</ele>
        <time>2022-08-01T12:55:29.000Z</time>
      </trkpt>
      <trkpt lat="49.37162" lon="-1.1793">
        <ele>6.997341</ele>
        <time>2022-08-01T12:55:30.000Z</time>
      </trkpt>
      <trkpt lat="49.37161" lon="-1.17925">
        <ele>6.999632</ele>
        <time>2022-08-01T12:55:31.000Z</time>
      </trkpt>
      <trkpt lat="49.37157" lon="-1.17922">
        <ele>7.002497</ele>
        <time>2022-08-01T12:55:32.000Z</time>
      </trkpt>
      <trkpt lat="49.37154" lon="-1.17918">
        <ele>7.005084</ele>
        <time>2022-08-01T12:55:33.000Z</time>
      </trkpt>
      <trkpt lat="49.37152" lon="-1.17914">
        <ele>7.007424</ele>
        <time>2022-08-01T12:55:34.000Z</time>
      </trkpt>
      <trkpt lat="49.3715" lon="-1.1791">
        <ele>7.009745</ele>
        <time>2022-08-01T12:55:35.000Z</time>
      </trkpt>
      <trkpt lat="49.37148" lon="-1.17905">
        <ele>7.012232</ele>
        <time>2022-08-01T12:55:36.000Z</time>
      </trkpt>
      <trkpt lat="49.37146" lon="-1.17901">
        <ele>7.01471</ele>
        <time>2022-08-01T12:55:37.000Z</time>
      </trkpt>
      <trkpt lat="49.37143" lon="-1.17897">
        <ele>7.017173</ele>
        <time>2022-08-01T12:55:38.000Z</time>
      </trkpt>
      <trkpt lat="49.37141" lon="-1.17893">
        <ele>7.019512</ele>
        <time>2022-08-01T12:55:39.000Z</time>
      </trkpt>
      <trkpt lat="49.37138" lon="-1.17889">
        <ele>7.022099</ele>
        <time>2022-08-01T12:55:40.000Z</time>
      </trkpt>
      <trkpt lat="49.37136" lon="-1.17885">
        <ele>7.024613</ele>
        <time>2022-08-01T12:55:41.000Z</time>
      </trkpt>
      <trkpt lat="49.37133" lon="-1.1788">
        <ele>7.027204</ele>
        <time>2022-08-01T12:55:42.000Z</time>
      </trkpt>
      <trkpt lat="49.37132" lon="-1.17876">
        <ele>7.029563</ele>
        <time>2022-08-01T12:55:43.000Z</time>
      </trkpt>
      <trkpt lat="49.37129" lon="-1.17872">
        <ele>7.031903</ele>
        <time>2022-08-01T12:55:44.000Z</time>
      </trkpt>
      <trkpt lat="49.37126" lon="-1.17868">
        <ele>7.034577</ele>
        <time>2022-08-01T12:55:45.000Z</time>
      </trkpt>
      <trkpt lat="49.37124" lon="-1.17863">
        <ele>7.037406</ele>
        <time>2022-08-01T12:55:46.000Z</time>
      </trkpt>
      <trkpt lat="49.37122" lon="-1.17859">
        <ele>7.039815</ele>
        <time>2022-08-01T12:55:47.000Z</time>
      </trkpt>
      <trkpt lat="49.3712" lon="-1.17854">
        <ele>7.042224</ele>
        <time>2022-08-01T12:55:48.000Z</time>
      </trkpt>
      <trkpt lat="49.37119" lon="-1.17849">
        <ele>7.044285</ele>
        <time>2022-08-01T12:55:49.000Z</time>
      </trkpt>
      <trkpt lat="49.37118" lon="-1.17845">
        <ele>7.046484</ele>
        <time>2022-08-01T12:55:50.000Z</time>
      </trkpt>
      <trkpt lat="49.37117" lon="-1.17841">
        <ele>7.048395</ele>
        <time>2022-08-01T12:55:51.000Z</time>
      </trkpt>
      <trkpt lat="49.37114" lon="-1.17838">
        <ele>7.050465</ele>
        <time>2022-08-01T12:55:52.000Z</time>
      </trkpt>
      <trkpt lat="49.37112" lon="-1.17836">
        <ele>7.052212</ele>
        <time>2022-08-01T12:55:53.000Z</time>
      </trkpt>
      <trkpt lat="49.3711" lon="-1.17834">
        <ele>7.053767</ele>
        <time>2022-08-01T12:55:54.000Z</time>
      </trkpt>
      <trkpt lat="49.37108" lon="-1.17833">
        <ele>7.055618</ele>
        <time>2022-08-01T12:55:55.000Z</time>
      </trkpt>
      <trkpt lat="49.37105" lon="-1.17832">
        <ele>7.057347</ele>
        <time>2022-08-01T12:55:56.000Z</time>
      </trkpt>
      <trkpt lat="49.37102" lon="-1.17832">
        <ele>7.059345</ele>
        <time>2022-08-01T12:55:57.000Z</time>
      </trkpt>
      <trkpt lat="49.371" lon="-1.17832">
        <ele>7.060857</ele>
        <time>2022-08-01T12:55:58.000Z</time>
      </trkpt>
      <trkpt lat="49.37098" lon="-1.17833">
        <ele>7.062655</ele>
        <time>2022-08-01T12:55:59.000Z</time>
      </trkpt>
      <trkpt lat="49.37096" lon="-1.17834">
        <ele>7.064033</ele>
        <time>2022-08-01T12:56:00.000Z</time>
      </trkpt>
      <trkpt lat="49.37094" lon="-1.17835">
        <ele>7.065461</ele>
        <time>2022-08-01T12:56:01.000Z</time>
      </trkpt>
      <trkpt lat="49.37092" lon="-1.17837">
        <ele>7.067212</ele>
        <time>2022-08-01T12:56:02.000Z</time>
      </trkpt>
      <trkpt lat="49.37089" lon="-1.17839">
        <ele>7.069013</ele>
        <time>2022-08-01T12:56:03.000Z</time>
      </trkpt>
      <trkpt lat="49.37087" lon="-1.17841">
        <ele>7.071118</ele>
        <time>2022-08-01T12:56:04.000Z</time>
      </trkpt>
      <trkpt lat="49.37085" lon="-1.17844">
        <ele>7.073167</ele>
        <time>2022-08-01T12:56:05.000Z</time>
      </trkpt>
      <trkpt lat="49.37082" lon="-1.17848">
        <ele>7.075539</ele>
        <time>2022-08-01T12:56:06.000Z</time>
      </trkpt>
      <trkpt lat="49.37079" lon="-1.17851">
        <ele>7.078235</ele>
        <time>2022-08-01T12:56:07.000Z</time>
      </trkpt>
      <trkpt lat="49.37076" lon="-1.17855">
        <ele>7.080617</ele>
        <time>2022-08-01T12:56:08.000Z</time>
      </trkpt>
      <trkpt lat="49.37074" lon="-1.17858">
        <ele>7.077112</ele>
        <time>2022-08-01T12:56:09.000Z</time>
      </trkpt>
      <trkpt lat="49.3707" lon="-1.17862">
        <ele>7.05717</ele>
        <time>2022-08-01T12:56:10.000Z</time>
      </trkpt>
      <trkpt lat="49.37068" lon="-1.17866">
        <ele>7.040325</ele>
        <time>2022-08-01T12:56:11.000Z</time>
      </trkpt>
      <trkpt lat="49.37065" lon="-1.1787">
        <ele>7.022233</ele>
        <time>2022-08-01T12:56:12.000Z</time>
      </trkpt>
      <trkpt lat="49.37062" lon="-1.17874">
        <ele>7.006232</ele>
        <time>2022-08-01T12:56:13.000Z</time>
      </trkpt>
      <trkpt lat="49.3706" lon="-1.17878">
        <ele>6.98896</ele>
        <time>2022-08-01T12:56:14.000Z</time>
      </trkpt>
      <trkpt lat="49.37057" lon="-1.17882">
        <ele>6.969596</ele>
        <time>2022-08-01T12:56:15.000Z</time>
      </trkpt>
      <trkpt lat="49.37054" lon="-1.17885">
        <ele>6.954706</ele>
        <time>2022-08-01T12:56:16.000Z</time>
      </trkpt>
      <trkpt lat="49.37052" lon="-1.17888">
        <ele>6.939293</ele>
        <time>2022-08-01T12:56:17.000Z</time>
      </trkpt>
      <trkpt lat="49.3705" lon="-1.17892">
        <ele>6.923524</ele>
        <time>2022-08-01T12:56:18.000Z</time>
      </trkpt>
      <trkpt lat="49.37048" lon="-1.17896">
        <ele>6.908393</ele>
        <time>2022-08-01T12:56:19.000Z</time>
      </trkpt>
      <trkpt lat="49.37046" lon="-1.179">
        <ele>6.894231</ele>
        <time>2022-08-01T12:56:20.000Z</time>
      </trkpt>
      <trkpt lat="49.37043" lon="-1.17904">
        <ele>6.875098</ele>
        <time>2022-08-01T12:56:21.000Z</time>
      </trkpt>
      <trkpt lat="49.37041" lon="-1.17908">
        <ele>6.859686</ele>
        <time>2022-08-01T12:56:22.000Z</time>
      </trkpt>
      <trkpt lat="49.37038" lon="-1.17912">
        <ele>6.842742</ele>
        <time>2022-08-01T12:56:23.000Z</time>
      </trkpt>
      <trkpt lat="49.37036" lon="-1.17916">
        <ele>6.826106</ele>
        <time>2022-08-01T12:56:24.000Z</time>
      </trkpt>
      <trkpt lat="49.37033" lon="-1.17919">
        <ele>6.809811</ele>
        <time>2022-08-01T12:56:25.000Z</time>
      </trkpt>
      <trkpt lat="49.37031" lon="-1.17923">
        <ele>6.794615</ele>
        <time>2022-08-01T12:56:26.000Z</time>
      </trkpt>
      <trkpt lat="49.37029" lon="-1.17926">
        <ele>6.780181</ele>
        <time>2022-08-01T12:56:27.000Z</time>
      </trkpt>
      <trkpt lat="49.37026" lon="-1.17929">
        <ele>6.764351</ele>
        <time>2022-08-01T12:56:28.000Z</time>
      </trkpt>
      <trkpt lat="49.37024" lon="-1.17933">
        <ele>6.749703</ele>
        <time>2022-08-01T12:56:29.000Z</time>
      </trkpt>
      <trkpt lat="49.37022" lon="-1.17936">
        <ele>6.735777</ele>
        <time>2022-08-01T12:56:30.000Z</time>
      </trkpt>
      <trkpt lat="49.37019" lon="-1.1794">
        <ele>6.719946</ele>
        <time>2022-08-01T12:56:31.000Z</time>
      </trkpt>
      <trkpt lat="49.37018" lon="-1.17943">
        <ele>6.706373</ele>
        <time>2022-08-01T12:56:32.000Z</time>
      </trkpt>
      <trkpt lat="49.37015" lon="-1.17946">
        <ele>6.69111</ele>
        <time>2022-08-01T12:56:33.000Z</time>
      </trkpt>
      <trkpt lat="49.37014" lon="-1.17949">
        <ele>6.680866</ele>
        <time>2022-08-01T12:56:34.000Z</time>
      </trkpt>
      <trkpt lat="49.37012" lon="-1.17952">
        <ele>6.668763</ele>
        <time>2022-08-01T12:56:35.000Z</time>
      </trkpt>
      <trkpt lat="49.3701" lon="-1.17954">
        <ele>6.657952</ele>
        <time>2022-08-01T12:56:36.000Z</time>
      </trkpt>
      <trkpt lat="49.37006" lon="-1.17954">
        <ele>6.641515</ele>
        <time>2022-08-01T12:56:38.000Z</time>
      </trkpt>
      <trkpt lat="49.37005" lon="-1.17952">
        <ele>6.632872</ele>
        <time>2022-08-01T12:56:39.000Z</time>
      </trkpt>
      <trkpt lat="49.37003" lon="-1.1795">
        <ele>6.622061</ele>
        <time>2022-08-01T12:56:40.000Z</time>
      </trkpt>
      <trkpt lat="49.37002" lon="-1.17948">
        <ele>6.613095</ele>
        <time>2022-08-01T12:56:41.000Z</time>
      </trkpt>
      <trkpt lat="49.37" lon="-1.17945">
        <ele>6.602162</ele>
        <time>2022-08-01T12:56:42.000Z</time>
      </trkpt>
      <trkpt lat="49.36998" lon="-1.17943">
        <ele>6.590013</ele>
        <time>2022-08-01T12:56:43.000Z</time>
      </trkpt>
      <trkpt lat="49.36997" lon="-1.1794">
        <ele>6.578628</ele>
        <time>2022-08-01T12:56:44.000Z</time>
      </trkpt>
      <trkpt lat="49.36995" lon="-1.17937">
        <ele>6.567472</ele>
        <time>2022-08-01T12:56:45.000Z</time>
      </trkpt>
      <trkpt lat="49.36993" lon="-1.17935">
        <ele>6.556117</ele>
        <time>2022-08-01T12:56:46.000Z</time>
      </trkpt>
      <trkpt lat="49.36991" lon="-1.17932">
        <ele>6.543968</ele>
        <time>2022-08-01T12:56:47.000Z</time>
      </trkpt>
      <trkpt lat="49.3699" lon="-1.17929">
        <ele>6.534209</ele>
        <time>2022-08-01T12:56:48.000Z</time>
      </trkpt>
      <trkpt lat="49.36989" lon="-1.17926">
        <ele>6.521636</ele>
        <time>2022-08-01T12:56:49.000Z</time>
      </trkpt>
      <trkpt lat="49.36987" lon="-1.17924">
        <ele>6.511618</ele>
        <time>2022-08-01T12:56:50.000Z</time>
      </trkpt>
      <trkpt lat="49.36986" lon="-1.17921">
        <ele>6.501356</ele>
        <time>2022-08-01T12:56:51.000Z</time>
      </trkpt>
      <trkpt lat="49.36984" lon="-1.17918">
        <ele>6.488998</ele>
        <time>2022-08-01T12:56:52.000Z</time>
      </trkpt>
      <trkpt lat="49.36982" lon="-1.17915">
        <ele>6.476668</ele>
        <time>2022-08-01T12:56:53.000Z</time>
      </trkpt>
      <trkpt lat="49.3698" lon="-1.17912">
        <ele>6.462234</ele>
        <time>2022-08-01T12:56:54.000Z</time>
      </trkpt>
      <trkpt lat="49.36978" lon="-1.17909">
        <ele>6.449113</ele>
        <time>2022-08-01T12:56:55.000Z</time>
      </trkpt>
      <trkpt lat="49.36975" lon="-1.17906">
        <ele>6.43309</ele>
        <time>2022-08-01T12:56:56.000Z</time>
      </trkpt>
      <trkpt lat="49.36973" lon="-1.17903">
        <ele>6.41836</ele>
        <time>2022-08-01T12:56:57.000Z</time>
      </trkpt>
      <trkpt lat="49.36971" lon="-1.179">
        <ele>6.405125</ele>
        <time>2022-08-01T12:56:58.000Z</time>
      </trkpt>
      <trkpt lat="49.36969" lon="-1.17896">
        <ele>6.389929</ele>
        <time>2022-08-01T12:56:59.000Z</time>
      </trkpt>
      <trkpt lat="49.36966" lon="-1.17893">
        <ele>6.374841</ele>
        <time>2022-08-01T12:57:00.000Z</time>
      </trkpt>
      <trkpt lat="49.36964" lon="-1.17889">
        <ele>6.360192</ele>
        <time>2022-08-01T12:57:01.000Z</time>
      </trkpt>
      <trkpt lat="49.36962" lon="-1.17886">
        <ele>6.344744</ele>
        <time>2022-08-01T12:57:02.000Z</time>
      </trkpt>
      <trkpt lat="49.36959" lon="-1.17883">
        <ele>6.329106</ele>
        <time>2022-08-01T12:57:03.000Z</time>
      </trkpt>
      <trkpt lat="49.36957" lon="-1.1788">
        <ele>6.313635</ele>
        <time>2022-08-01T12:57:04.000Z</time>
      </trkpt>
      <trkpt lat="49.36955" lon="-1.17876">
        <ele>6.299709</ele>
        <time>2022-08-01T12:57:05.000Z</time>
      </trkpt>
      <trkpt lat="49.36952" lon="-1.17873">
        <ele>6.284512</ele>
        <time>2022-08-01T12:57:06.000Z</time>
      </trkpt>
      <trkpt lat="49.3695" lon="-1.17869">
        <ele>6.269646</ele>
        <time>2022-08-01T12:57:07.000Z</time>
      </trkpt>
      <trkpt lat="49.36947" lon="-1.17866">
        <ele>6.252335</ele>
        <time>2022-08-01T12:57:08.000Z</time>
      </trkpt>
      <trkpt lat="49.36945" lon="-1.17863">
        <ele>6.238114</ele>
        <time>2022-08-01T12:57:09.000Z</time>
      </trkpt>
      <trkpt lat="49.36943" lon="-1.1786">
        <ele>6.218295</ele>
        <time>2022-08-01T12:57:10.000Z</time>
      </trkpt>
      <trkpt lat="49.3694" lon="-1.17857">
        <ele>6.198195</ele>
        <time>2022-08-01T12:57:11.000Z</time>
      </trkpt>
      <trkpt lat="49.36937" lon="-1.17854">
        <ele>6.174458</ele>
        <time>2022-08-01T12:57:12.000Z</time>
      </trkpt>
      <trkpt lat="49.36935" lon="-1.1785">
        <ele>6.151146</ele>
        <time>2022-08-01T12:57:13.000Z</time>
      </trkpt>
      <trkpt lat="49.36933" lon="-1.17846">
        <ele>6.129371</ele>
        <time>2022-08-01T12:57:14.000Z</time>
      </trkpt>
      <trkpt lat="49.3693" lon="-1.17842">
        <ele>6.107154</ele>
        <time>2022-08-01T12:57:15.000Z</time>
      </trkpt>
      <trkpt lat="49.36927" lon="-1.17839">
        <ele>6.083679</ele>
        <time>2022-08-01T12:57:16.000Z</time>
      </trkpt>
      <trkpt lat="49.36925" lon="-1.17835">
        <ele>6.060941</ele>
        <time>2022-08-01T12:57:17.000Z</time>
      </trkpt>
      <trkpt lat="49.36922" lon="-1.17831">
        <ele>6.033806</ele>
        <time>2022-08-01T12:57:18.000Z</time>
      </trkpt>
      <trkpt lat="49.36919" lon="-1.17828">
        <ele>6.010201</ele>
        <time>2022-08-01T12:57:19.000Z</time>
      </trkpt>
      <trkpt lat="49.36916" lon="-1.17824">
        <ele>5.982257</ele>
        <time>2022-08-01T12:57:20.000Z</time>
      </trkpt>
      <trkpt lat="49.36912" lon="-1.17821">
        <ele>5.955247</ele>
        <time>2022-08-01T12:57:21.000Z</time>
      </trkpt>
      <trkpt lat="49.36909" lon="-1.17817">
        <ele>5.93151</ele>
        <time>2022-08-01T12:57:22.000Z</time>
      </trkpt>
      <trkpt lat="49.36906" lon="-1.17814">
        <ele>5.905674</ele>
        <time>2022-08-01T12:57:23.000Z</time>
      </trkpt>
      <trkpt lat="49.36903" lon="-1.1781">
        <ele>5.880879</ele>
        <time>2022-08-01T12:57:24.000Z</time>
      </trkpt>
      <trkpt lat="49.369" lon="-1.17806">
        <ele>5.852689</ele>
        <time>2022-08-01T12:57:25.000Z</time>
      </trkpt>
      <trkpt lat="49.36897" lon="-1.17802">
        <ele>5.826474</ele>
        <time>2022-08-01T12:57:26.000Z</time>
      </trkpt>
      <trkpt lat="49.36893" lon="-1.17798">
        <ele>5.796997</ele>
        <time>2022-08-01T12:57:27.000Z</time>
      </trkpt>
      <trkpt lat="49.3689" lon="-1.17794">
        <ele>5.768305</ele>
        <time>2022-08-01T12:57:28.000Z</time>
      </trkpt>
      <trkpt lat="49.36886" lon="-1.1779">
        <ele>5.739866</ele>
        <time>2022-08-01T12:57:29.000Z</time>
      </trkpt>
      <trkpt lat="49.36883" lon="-1.17786">
        <ele>5.713264</ele>
        <time>2022-08-01T12:57:30.000Z</time>
      </trkpt>
      <trkpt lat="49.36879" lon="-1.17782">
        <ele>5.685075</ele>
        <time>2022-08-01T12:57:31.000Z</time>
      </trkpt>
      <trkpt lat="49.36876" lon="-1.17778">
        <ele>5.65794</ele>
        <time>2022-08-01T12:57:32.000Z</time>
      </trkpt>
      <trkpt lat="49.36874" lon="-1.17774">
        <ele>5.632495</ele>
        <time>2022-08-01T12:57:33.000Z</time>
      </trkpt>
      <trkpt lat="49.36871" lon="-1.1777">
        <ele>5.605984</ele>
        <time>2022-08-01T12:57:34.000Z</time>
      </trkpt>
      <trkpt lat="49.36868" lon="-1.17765">
        <ele>5.5783</ele>
        <time>2022-08-01T12:57:35.000Z</time>
      </trkpt>
      <trkpt lat="49.36864" lon="-1.17762">
        <ele>5.552213</ele>
        <time>2022-08-01T12:57:36.000Z</time>
      </trkpt>
      <trkpt lat="49.36861" lon="-1.17758">
        <ele>5.526376</ele>
        <time>2022-08-01T12:57:37.000Z</time>
      </trkpt>
      <trkpt lat="49.36858" lon="-1.17754">
        <ele>5.499509</ele>
        <time>2022-08-01T12:57:38.000Z</time>
      </trkpt>
      <trkpt lat="49.36855" lon="-1.1775">
        <ele>5.475766</ele>
        <time>2022-08-01T12:57:39.000Z</time>
      </trkpt>
      <trkpt lat="49.36853" lon="-1.17747">
        <ele>5.452743</ele>
        <time>2022-08-01T12:57:40.000Z</time>
      </trkpt>
      <trkpt lat="49.3685" lon="-1.17743">
        <ele>5.426906</ele>
        <time>2022-08-01T12:57:41.000Z</time>
      </trkpt>
      <trkpt lat="49.36846" lon="-1.1774">
        <ele>5.400752</ele>
        <time>2022-08-01T12:57:42.000Z</time>
      </trkpt>
      <trkpt lat="49.36843" lon="-1.17738">
        <ele>5.378668</ele>
        <time>2022-08-01T12:57:43.000Z</time>
      </trkpt>
      <trkpt lat="49.3684" lon="-1.17735">
        <ele>5.35188</ele>
        <time>2022-08-01T12:57:44.000Z</time>
      </trkpt>
      <trkpt lat="49.36837" lon="-1.17732">
        <ele>5.327224</ele>
        <time>2022-08-01T12:57:45.000Z</time>
      </trkpt>
      <trkpt lat="49.36834" lon="-1.17729">
        <ele>5.304921</ele>
        <time>2022-08-01T12:57:46.000Z</time>
      </trkpt>
      <trkpt lat="49.36831" lon="-1.17726">
        <ele>5.285571</ele>
        <time>2022-08-01T12:57:47.000Z</time>
      </trkpt>
      <trkpt lat="49.36829" lon="-1.17723">
        <ele>5.265726</ele>
        <time>2022-08-01T12:57:48.000Z</time>
      </trkpt>
      <trkpt lat="49.36827" lon="-1.1772">
        <ele>5.244594</ele>
        <time>2022-08-01T12:57:49.000Z</time>
      </trkpt>
      <trkpt lat="49.36824" lon="-1.17717">
        <ele>5.224644</ele>
        <time>2022-08-01T12:57:50.000Z</time>
      </trkpt>
      <trkpt lat="49.36821" lon="-1.17716">
        <ele>5.206223</ele>
        <time>2022-08-01T12:57:51.000Z</time>
      </trkpt>
      <trkpt lat="49.36819" lon="-1.17714">
        <ele>5.186422</ele>
        <time>2022-08-01T12:57:52.000Z</time>
      </trkpt>
      <trkpt lat="49.36816" lon="-1.17713">
        <ele>5.166876</ele>
        <time>2022-08-01T12:57:53.000Z</time>
      </trkpt>
      <trkpt lat="49.36813" lon="-1.17712">
        <ele>5.151155</ele>
        <time>2022-08-01T12:57:54.000Z</time>
      </trkpt>
      <trkpt lat="49.36811" lon="-1.1771">
        <ele>5.134762</ele>
        <time>2022-08-01T12:57:55.000Z</time>
      </trkpt>
      <trkpt lat="49.36808" lon="-1.1771">
        <ele>5.115456</ele>
        <time>2022-08-01T12:57:56.000Z</time>
      </trkpt>
      <trkpt lat="49.36806" lon="-1.17709">
        <ele>5.098965</ele>
        <time>2022-08-01T12:57:57.000Z</time>
      </trkpt>
      <trkpt lat="49.36803" lon="-1.17709">
        <ele>5.077812</ele>
        <time>2022-08-01T12:57:58.000Z</time>
      </trkpt>
      <trkpt lat="49.36799" lon="-1.17708">
        <ele>5.056417</ele>
        <time>2022-08-01T12:57:59.000Z</time>
      </trkpt>
      <trkpt lat="49.36796" lon="-1.17707">
        <ele>5.019247</ele>
        <time>2022-08-01T12:58:00.000Z</time>
      </trkpt>
      <trkpt lat="49.36792" lon="-1.17705">
        <ele>4.976391</ele>
        <time>2022-08-01T12:58:01.000Z</time>
      </trkpt>
      <trkpt lat="49.36788" lon="-1.17704">
        <ele>4.93602</ele>
        <time>2022-08-01T12:58:02.000Z</time>
      </trkpt>
      <trkpt lat="49.36784" lon="-1.17704">
        <ele>4.893713</ele>
        <time>2022-08-01T12:58:03.000Z</time>
      </trkpt>
      <trkpt lat="49.36779" lon="-1.17703">
        <ele>4.844356</ele>
        <time>2022-08-01T12:58:04.000Z</time>
      </trkpt>
      <trkpt lat="49.36775" lon="-1.17702">
        <ele>4.801033</ele>
        <time>2022-08-01T12:58:05.000Z</time>
      </trkpt>
      <trkpt lat="49.36771" lon="-1.17701">
        <ele>4.758725</ele>
        <time>2022-08-01T12:58:06.000Z</time>
      </trkpt>
      <trkpt lat="49.36766" lon="-1.177">
        <ele>4.712272</ele>
        <time>2022-08-01T12:58:07.000Z</time>
      </trkpt>
      <trkpt lat="49.36762" lon="-1.17699">
        <ele>4.668764</ele>
        <time>2022-08-01T12:58:08.000Z</time>
      </trkpt>
      <trkpt lat="49.36758" lon="-1.17698">
        <ele>4.625909</ele>
        <time>2022-08-01T12:58:09.000Z</time>
      </trkpt>
      <trkpt lat="49.36754" lon="-1.17697">
        <ele>4.585056</ele>
        <time>2022-08-01T12:58:10.000Z</time>
      </trkpt>
      <trkpt lat="49.3675" lon="-1.17696">
        <ele>4.545697</ele>
        <time>2022-08-01T12:58:11.000Z</time>
      </trkpt>
      <trkpt lat="49.36746" lon="-1.17695">
        <ele>4.50219</ele>
        <time>2022-08-01T12:58:12.000Z</time>
      </trkpt>
      <trkpt lat="49.36742" lon="-1.17694">
        <ele>4.463086</ele>
        <time>2022-08-01T12:58:13.000Z</time>
      </trkpt>
      <trkpt lat="49.36738" lon="-1.17693">
        <ele>4.422715</ele>
        <time>2022-08-01T12:58:14.000Z</time>
      </trkpt>
      <trkpt lat="49.36734" lon="-1.17692">
        <ele>4.379859</ele>
        <time>2022-08-01T12:58:15.000Z</time>
      </trkpt>
      <trkpt lat="49.36731" lon="-1.1769">
        <ele>4.342075</ele>
        <time>2022-08-01T12:58:16.000Z</time>
      </trkpt>
      <trkpt lat="49.36727" lon="-1.17688">
        <ele>4.299985</ele>
        <time>2022-08-01T12:58:17.000Z</time>
      </trkpt>
      <trkpt lat="49.36723" lon="-1.17686">
        <ele>4.261757</ele>
        <time>2022-08-01T12:58:18.000Z</time>
      </trkpt>
      <trkpt lat="49.3672" lon="-1.17684">
        <ele>4.229214</ele>
        <time>2022-08-01T12:58:19.000Z</time>
      </trkpt>
      <trkpt lat="49.36717" lon="-1.17682">
        <ele>4.194094</ele>
        <time>2022-08-01T12:58:20.000Z</time>
      </trkpt>
      <trkpt lat="49.36715" lon="-1.17681">
        <ele>4.165829</ele>
        <time>2022-08-01T12:58:21.000Z</time>
      </trkpt>
      <trkpt lat="49.36712" lon="-1.17679">
        <ele>4.138038</ele>
        <time>2022-08-01T12:58:22.000Z</time>
      </trkpt>
      <trkpt lat="49.36709" lon="-1.17678">
        <ele>4.107112</ele>
        <time>2022-08-01T12:58:23.000Z</time>
      </trkpt>
      <trkpt lat="49.36706" lon="-1.17677">
        <ele>4.076367</ele>
        <time>2022-08-01T12:58:24.000Z</time>
      </trkpt>
      <trkpt lat="49.36703" lon="-1.17676">
        <ele>4.043179</ele>
        <time>2022-08-01T12:58:25.000Z</time>
      </trkpt>
      <trkpt lat="49.367" lon="-1.17676">
        <ele>4.007295</ele>
        <time>2022-08-01T12:58:26.000Z</time>
      </trkpt>
      <trkpt lat="49.36697" lon="-1.17676">
        <ele>3.977341</ele>
        <time>2022-08-01T12:58:27.000Z</time>
      </trkpt>
      <trkpt lat="49.36694" lon="-1.17677">
        <ele>3.951055</ele>
        <time>2022-08-01T12:58:28.000Z</time>
      </trkpt>
      <trkpt lat="49.36691" lon="-1.17678">
        <ele>3.921101</ele>
        <time>2022-08-01T12:58:29.000Z</time>
      </trkpt>
      <trkpt lat="49.36689" lon="-1.17679">
        <ele>3.897795</ele>
        <time>2022-08-01T12:58:30.000Z</time>
      </trkpt>
      <trkpt lat="49.36686" lon="-1.17681">
        <ele>3.864383</ele>
        <time>2022-08-01T12:58:32.000Z</time>
      </trkpt>
      <trkpt lat="49.36684" lon="-1.17682">
        <ele>3.844382</ele>
        <time>2022-08-01T12:58:33.000Z</time>
      </trkpt>
      <trkpt lat="49.36682" lon="-1.17682">
        <ele>3.823639</ele>
        <time>2022-08-01T12:58:34.000Z</time>
      </trkpt>
      <trkpt lat="49.3668" lon="-1.17682">
        <ele>3.801119</ele>
        <time>2022-08-01T12:58:35.000Z</time>
      </trkpt>
      <trkpt lat="49.36677" lon="-1.17682">
        <ele>3.771402</ele>
        <time>2022-08-01T12:58:36.000Z</time>
      </trkpt>
      <trkpt lat="49.36675" lon="-1.17682">
        <ele>3.745776</ele>
        <time>2022-08-01T12:58:37.000Z</time>
      </trkpt>
      <trkpt lat="49.36672" lon="-1.17683">
        <ele>3.715822</ele>
        <time>2022-08-01T12:58:38.000Z</time>
      </trkpt>
      <trkpt lat="49.36669" lon="-1.17684">
        <ele>3.68739</ele>
        <time>2022-08-01T12:58:39.000Z</time>
      </trkpt>
      <trkpt lat="49.36667" lon="-1.17686">
        <ele>3.659915</ele>
        <time>2022-08-01T12:58:40.000Z</time>
      </trkpt>
      <trkpt lat="49.36664" lon="-1.17688">
        <ele>3.626804</ele>
        <time>2022-08-01T12:58:41.000Z</time>
      </trkpt>
      <trkpt lat="49.36661" lon="-1.1769">
        <ele>3.592554</ele>
        <time>2022-08-01T12:58:42.000Z</time>
      </trkpt>
      <trkpt lat="49.36657" lon="-1.1769">
        <ele>3.559628</ele>
        <time>2022-08-01T12:58:43.000Z</time>
      </trkpt>
      <trkpt lat="49.36654" lon="-1.17691">
        <ele>3.529203</ele>
        <time>2022-08-01T12:58:44.000Z</time>
      </trkpt>
      <trkpt lat="49.36651" lon="-1.17693">
        <ele>3.492005</ele>
        <time>2022-08-01T12:58:45.000Z</time>
      </trkpt>
      <trkpt lat="49.36647" lon="-1.17695">
        <ele>3.448213</ele>
        <time>2022-08-01T12:58:46.000Z</time>
      </trkpt>
      <trkpt lat="49.36643" lon="-1.17697">
        <ele>3.406871</ele>
        <time>2022-08-01T12:58:47.000Z</time>
      </trkpt>
      <trkpt lat="49.3664" lon="-1.17699">
        <ele>3.369294</ele>
        <time>2022-08-01T12:58:48.000Z</time>
      </trkpt>
      <trkpt lat="49.36637" lon="-1.17701">
        <ele>3.335044</ele>
        <time>2022-08-01T12:58:49.000Z</time>
      </trkpt>
      <trkpt lat="49.36633" lon="-1.17702">
        <ele>3.298183</ele>
        <time>2022-08-01T12:58:50.000Z</time>
      </trkpt>
      <trkpt lat="49.36629" lon="-1.17704">
        <ele>3.259628</ele>
        <time>2022-08-01T12:58:51.000Z</time>
      </trkpt>
      <trkpt lat="49.36626" lon="-1.17705">
        <ele>3.219112</ele>
        <time>2022-08-01T12:58:52.000Z</time>
      </trkpt>
      <trkpt lat="49.36622" lon="-1.17707">
        <ele>3.206023</ele>
        <time>2022-08-01T12:58:53.000Z</time>
      </trkpt>
      <trkpt lat="49.36619" lon="-1.17708">
        <ele>3.198324</ele>
        <time>2022-08-01T12:58:54.000Z</time>
      </trkpt>
      <trkpt lat="49.36615" lon="-1.17709">
        <ele>3.189127</ele>
        <time>2022-08-01T12:58:55.000Z</time>
      </trkpt>
      <trkpt lat="49.36611" lon="-1.1771">
        <ele>3.180751</ele>
        <time>2022-08-01T12:58:56.000Z</time>
      </trkpt>
      <trkpt lat="49.36607" lon="-1.17712">
        <ele>3.171456</ele>
        <time>2022-08-01T12:58:57.000Z</time>
      </trkpt>
      <trkpt lat="49.36604" lon="-1.17715">
        <ele>3.161738</ele>
        <time>2022-08-01T12:58:58.000Z</time>
      </trkpt>
      <trkpt lat="49.366" lon="-1.17716">
        <ele>3.152488</ele>
        <time>2022-08-01T12:58:59.000Z</time>
      </trkpt>
      <trkpt lat="49.36596" lon="-1.17718">
        <ele>3.143854</ele>
        <time>2022-08-01T12:59:00.000Z</time>
      </trkpt>
      <trkpt lat="49.36593" lon="-1.1772">
        <ele>3.135136</ele>
        <time>2022-08-01T12:59:01.000Z</time>
      </trkpt>
      <trkpt lat="49.36589" lon="-1.17722">
        <ele>3.126221</ele>
        <time>2022-08-01T12:59:02.000Z</time>
      </trkpt>
      <trkpt lat="49.36585" lon="-1.17724">
        <ele>3.116827</ele>
        <time>2022-08-01T12:59:03.000Z</time>
      </trkpt>
      <trkpt lat="49.36582" lon="-1.17726">
        <ele>3.10814</ele>
        <time>2022-08-01T12:59:04.000Z</time>
      </trkpt>
      <trkpt lat="49.36578" lon="-1.17729">
        <ele>3.099128</ele>
        <time>2022-08-01T12:59:05.000Z</time>
      </trkpt>
      <trkpt lat="49.36574" lon="-1.1773">
        <ele>3.089922</ele>
        <time>2022-08-01T12:59:06.000Z</time>
      </trkpt>
      <trkpt lat="49.36571" lon="-1.17732">
        <ele>3.081995</ele>
        <time>2022-08-01T12:59:07.000Z</time>
      </trkpt>
      <trkpt lat="49.36568" lon="-1.17734">
        <ele>3.07341</ele>
        <time>2022-08-01T12:59:08.000Z</time>
      </trkpt>
      <trkpt lat="49.36564" lon="-1.17736">
        <ele>3.063846</ele>
        <time>2022-08-01T12:59:09.000Z</time>
      </trkpt>
      <trkpt lat="49.3656" lon="-1.17739">
        <ele>3.054106</ele>
        <time>2022-08-01T12:59:10.000Z</time>
      </trkpt>
      <trkpt lat="49.36557" lon="-1.17741">
        <ele>3.044996</ele>
        <time>2022-08-01T12:59:11.000Z</time>
      </trkpt>
      <trkpt lat="49.36553" lon="-1.17744">
        <ele>3.036575</ele>
        <time>2022-08-01T12:59:12.000Z</time>
      </trkpt>
      <trkpt lat="49.3655" lon="-1.17747">
        <ele>3.027324</ele>
        <time>2022-08-01T12:59:13.000Z</time>
      </trkpt>
      <trkpt lat="49.36546" lon="-1.1775">
        <ele>3.017572</ele>
        <time>2022-08-01T12:59:14.000Z</time>
      </trkpt>
      <trkpt lat="49.36543" lon="-1.17754">
        <ele>3.008677</ele>
        <time>2022-08-01T12:59:15.000Z</time>
      </trkpt>
      <trkpt lat="49.36541" lon="-1.17759">
        <ele>2.999087</ele>
        <time>2022-08-01T12:59:16.000Z</time>
      </trkpt>
      <trkpt lat="49.36538" lon="-1.17763">
        <ele>2.989746</ele>
        <time>2022-08-01T12:59:17.000Z</time>
      </trkpt>
      <trkpt lat="49.36536" lon="-1.17768">
        <ele>2.981101</ele>
        <time>2022-08-01T12:59:18.000Z</time>
      </trkpt>
      <trkpt lat="49.36533" lon="-1.17773">
        <ele>2.971828</ele>
        <time>2022-08-01T12:59:19.000Z</time>
      </trkpt>
      <trkpt lat="49.36531" lon="-1.17778">
        <ele>2.962179</ele>
        <time>2022-08-01T12:59:20.000Z</time>
      </trkpt>
      <trkpt lat="49.36529" lon="-1.17784">
        <ele>2.953015</ele>
        <time>2022-08-01T12:59:21.000Z</time>
      </trkpt>
      <trkpt lat="49.36528" lon="-1.17789">
        <ele>2.943867</ele>
        <time>2022-08-01T12:59:22.000Z</time>
      </trkpt>
      <trkpt lat="49.36526" lon="-1.17795">
        <ele>2.934046</ele>
        <time>2022-08-01T12:59:23.000Z</time>
      </trkpt>
      <trkpt lat="49.36525" lon="-1.17801">
        <ele>2.924957</ele>
        <time>2022-08-01T12:59:24.000Z</time>
      </trkpt>
      <trkpt lat="49.36524" lon="-1.17807">
        <ele>2.915739</ele>
        <time>2022-08-01T12:59:25.000Z</time>
      </trkpt>
      <trkpt lat="49.36524" lon="-1.17813">
        <ele>2.906301</ele>
        <time>2022-08-01T12:59:26.000Z</time>
      </trkpt>
      <trkpt lat="49.36523" lon="-1.17819">
        <ele>2.896657</ele>
        <time>2022-08-01T12:59:27.000Z</time>
      </trkpt>
      <trkpt lat="49.36522" lon="-1.17825">
        <ele>2.887275</ele>
        <time>2022-08-01T12:59:28.000Z</time>
      </trkpt>
      <trkpt lat="49.36522" lon="-1.17832">
        <ele>2.877858</ele>
        <time>2022-08-01T12:59:29.000Z</time>
      </trkpt>
      <trkpt lat="49.36522" lon="-1.17838">
        <ele>2.86844</ele>
        <time>2022-08-01T12:59:30.000Z</time>
      </trkpt>
      <trkpt lat="49.36521" lon="-1.17844">
        <ele>2.858912</ele>
        <time>2022-08-01T12:59:31.000Z</time>
      </trkpt>
      <trkpt lat="49.3652" lon="-1.1785">
        <ele>2.849495</ele>
        <time>2022-08-01T12:59:32.000Z</time>
      </trkpt>
      <trkpt lat="49.3652" lon="-1.17856">
        <ele>2.840379</ele>
        <time>2022-08-01T12:59:33.000Z</time>
      </trkpt>
      <trkpt lat="49.3652" lon="-1.17862">
        <ele>2.830988</ele>
        <time>2022-08-01T12:59:34.000Z</time>
      </trkpt>
      <trkpt lat="49.3652" lon="-1.17868">
        <ele>2.821748</ele>
        <time>2022-08-01T12:59:35.000Z</time>
      </trkpt>
      <trkpt lat="49.3652" lon="-1.17875">
        <ele>2.81233</ele>
        <time>2022-08-01T12:59:36.000Z</time>
      </trkpt>
      <trkpt lat="49.3652" lon="-1.17881">
        <ele>2.803241</ele>
        <time>2022-08-01T12:59:37.000Z</time>
      </trkpt>
      <trkpt lat="49.3652" lon="-1.17887">
        <ele>2.794688</ele>
        <time>2022-08-01T12:59:38.000Z</time>
      </trkpt>
      <trkpt lat="49.3652" lon="-1.17892">
        <ele>2.789104</ele>
        <time>2022-08-01T12:59:39.000Z</time>
      </trkpt>
      <trkpt lat="49.3652" lon="-1.17898">
        <ele>2.783328</ele>
        <time>2022-08-01T12:59:40.000Z</time>
      </trkpt>
      <trkpt lat="49.36519" lon="-1.17905">
        <ele>2.777343</ele>
        <time>2022-08-01T12:59:41.000Z</time>
      </trkpt>
      <trkpt lat="49.36519" lon="-1.17911">
        <ele>2.771375</ele>
        <time>2022-08-01T12:59:42.000Z</time>
      </trkpt>
      <trkpt lat="49.36519" lon="-1.17916">
        <ele>2.765984</ele>
        <time>2022-08-01T12:59:43.000Z</time>
      </trkpt>
      <trkpt lat="49.36519" lon="-1.17922">
        <ele>2.760116</ele>
        <time>2022-08-01T12:59:44.000Z</time>
      </trkpt>
      <trkpt lat="49.36518" lon="-1.17928">
        <ele>2.754419</ele>
        <time>2022-08-01T12:59:45.000Z</time>
      </trkpt>
      <trkpt lat="49.36518" lon="-1.17933">
        <ele>2.749509</ele>
        <time>2022-08-01T12:59:46.000Z</time>
      </trkpt>
      <trkpt lat="49.36518" lon="-1.17938">
        <ele>2.744984</ele>
        <time>2022-08-01T12:59:47.000Z</time>
      </trkpt>
      <trkpt lat="49.36519" lon="-1.17943">
        <ele>2.740438</ele>
        <time>2022-08-01T12:59:48.000Z</time>
      </trkpt>
      <trkpt lat="49.36519" lon="-1.17947">
        <ele>2.73601</ele>
        <time>2022-08-01T12:59:49.000Z</time>
      </trkpt>
      <trkpt lat="49.36518" lon="-1.17952">
        <ele>2.731176</ele>
        <time>2022-08-01T12:59:50.000Z</time>
      </trkpt>
      <trkpt lat="49.36518" lon="-1.17958">
        <ele>2.725978</ele>
        <time>2022-08-01T12:59:51.000Z</time>
      </trkpt>
      <trkpt lat="49.36518" lon="-1.17964">
        <ele>2.720377</ele>
        <time>2022-08-01T12:59:52.000Z</time>
      </trkpt>
      <trkpt lat="49.36518" lon="-1.1797">
        <ele>2.714392</ele>
        <time>2022-08-01T12:59:53.000Z</time>
      </trkpt>
      <trkpt lat="49.36518" lon="-1.17976">
        <ele>2.708519</ele>
        <time>2022-08-01T12:59:54.000Z</time>
      </trkpt>
      <trkpt lat="49.36517" lon="-1.17982">
        <ele>2.702713</ele>
        <time>2022-08-01T12:59:55.000Z</time>
      </trkpt>
      <trkpt lat="49.36517" lon="-1.17988">
        <ele>2.696937</ele>
        <time>2022-08-01T12:59:56.000Z</time>
      </trkpt>
      <trkpt lat="49.36517" lon="-1.17994">
        <ele>2.690822</ele>
        <time>2022-08-01T12:59:57.000Z</time>
      </trkpt>
      <trkpt lat="49.36516" lon="-1.18001">
        <ele>2.68448</ele>
        <time>2022-08-01T12:59:58.000Z</time>
      </trkpt>
      <trkpt lat="49.36516" lon="-1.18007">
        <ele>2.678495</ele>
        <time>2022-08-01T12:59:59.000Z</time>
      </trkpt>
      <trkpt lat="49.36515" lon="-1.18013">
        <ele>2.672097</ele>
        <time>2022-08-01T13:00:00.000Z</time>
      </trkpt>
      <trkpt lat="49.36514" lon="-1.1802">
        <ele>2.665855</ele>
        <time>2022-08-01T13:00:01.000Z</time>
      </trkpt>
      <trkpt lat="49.36512" lon="-1.18026">
        <ele>2.659585</ele>
        <time>2022-08-01T13:00:02.000Z</time>
      </trkpt>
      <trkpt lat="49.36511" lon="-1.18032">
        <ele>2.653376</ele>
        <time>2022-08-01T13:00:03.000Z</time>
      </trkpt>
      <trkpt lat="49.3651" lon="-1.18038">
        <ele>2.646866</ele>
        <time>2022-08-01T13:00:04.000Z</time>
      </trkpt>
      <trkpt lat="49.36508" lon="-1.18045">
        <ele>2.639945</ele>
        <time>2022-08-01T13:00:05.000Z</time>
      </trkpt>
      <trkpt lat="49.36506" lon="-1.18051">
        <ele>2.632979</ele>
        <time>2022-08-01T13:00:06.000Z</time>
      </trkpt>
      <trkpt lat="49.36504" lon="-1.18057">
        <ele>2.626469</ele>
        <time>2022-08-01T13:00:07.000Z</time>
      </trkpt>
      <trkpt lat="49.36501" lon="-1.18064">
        <ele>2.6196</ele>
        <time>2022-08-01T13:00:08.000Z</time>
      </trkpt>
      <trkpt lat="49.36499" lon="-1.18069">
        <ele>2.612904</ele>
        <time>2022-08-01T13:00:09.000Z</time>
      </trkpt>
      <trkpt lat="49.36497" lon="-1.18075">
        <ele>2.606285</ele>
        <time>2022-08-01T13:00:10.000Z</time>
      </trkpt>
      <trkpt lat="49.36494" lon="-1.18081">
        <ele>2.599989</ele>
        <time>2022-08-01T13:00:11.000Z</time>
      </trkpt>
      <trkpt lat="49.36492" lon="-1.18087">
        <ele>2.59361</ele>
        <time>2022-08-01T13:00:12.000Z</time>
      </trkpt>
      <trkpt lat="49.3649" lon="-1.18092">
        <ele>2.586911</ele>
        <time>2022-08-01T13:00:13.000Z</time>
      </trkpt>
      <trkpt lat="49.36487" lon="-1.18098">
        <ele>2.580133</ele>
        <time>2022-08-01T13:00:14.000Z</time>
      </trkpt>
      <trkpt lat="49.36485" lon="-1.18104">
        <ele>2.573517</ele>
        <time>2022-08-01T13:00:15.000Z</time>
      </trkpt>
      <trkpt lat="49.36482" lon="-1.1811">
        <ele>2.566738</ele>
        <time>2022-08-01T13:00:16.000Z</time>
      </trkpt>
      <trkpt lat="49.36479" lon="-1.18115">
        <ele>2.559494</ele>
        <time>2022-08-01T13:00:17.000Z</time>
      </trkpt>
      <trkpt lat="49.36476" lon="-1.18121">
        <ele>2.552798</ele>
        <time>2022-08-01T13:00:18.000Z</time>
      </trkpt>
      <trkpt lat="49.36474" lon="-1.18127">
        <ele>2.546255</ele>
        <time>2022-08-01T13:00:19.000Z</time>
      </trkpt>
      <trkpt lat="49.36471" lon="-1.18133">
        <ele>2.539062</ele>
        <time>2022-08-01T13:00:20.000Z</time>
      </trkpt>
      <trkpt lat="49.36469" lon="-1.18138">
        <ele>2.532684</ele>
        <time>2022-08-01T13:00:21.000Z</time>
      </trkpt>
      <trkpt lat="49.36466" lon="-1.18144">
        <ele>2.527376</ele>
        <time>2022-08-01T13:00:22.000Z</time>
      </trkpt>
      <trkpt lat="49.36463" lon="-1.18149">
        <ele>2.522997</ele>
        <time>2022-08-01T13:00:23.000Z</time>
      </trkpt>
      <trkpt lat="49.36461" lon="-1.18155">
        <ele>2.518641</ele>
        <time>2022-08-01T13:00:24.000Z</time>
      </trkpt>
      <trkpt lat="49.36458" lon="-1.18161">
        <ele>2.514181</ele>
        <time>2022-08-01T13:00:25.000Z</time>
      </trkpt>
      <trkpt lat="49.36455" lon="-1.18168">
        <ele>2.509406</ele>
        <time>2022-08-01T13:00:26.000Z</time>
      </trkpt>
      <trkpt lat="49.36453" lon="-1.18174">
        <ele>2.504982</ele>
        <time>2022-08-01T13:00:27.000Z</time>
      </trkpt>
      <trkpt lat="49.36451" lon="-1.18181">
        <ele>2.500339</ele>
        <time>2022-08-01T13:00:28.000Z</time>
      </trkpt>
      <trkpt lat="49.36449" lon="-1.18187">
        <ele>2.495721</ele>
        <time>2022-08-01T13:00:29.000Z</time>
      </trkpt>
      <trkpt lat="49.36447" lon="-1.18194">
        <ele>2.491189</ele>
        <time>2022-08-01T13:00:30.000Z</time>
      </trkpt>
      <trkpt lat="49.36446" lon="-1.18201">
        <ele>2.486829</ele>
        <time>2022-08-01T13:00:31.000Z</time>
      </trkpt>
      <trkpt lat="49.36444" lon="-1.18208">
        <ele>2.482238</ele>
        <time>2022-08-01T13:00:32.000Z</time>
      </trkpt>
      <trkpt lat="49.36443" lon="-1.18215">
        <ele>2.477614</ele>
        <time>2022-08-01T13:00:33.000Z</time>
      </trkpt>
      <trkpt lat="49.36443" lon="-1.18222">
        <ele>2.473211</ele>
        <time>2022-08-01T13:00:34.000Z</time>
      </trkpt>
      <trkpt lat="49.36442" lon="-1.18229">
        <ele>2.468862</ele>
        <time>2022-08-01T13:00:35.000Z</time>
      </trkpt>
      <trkpt lat="49.36442" lon="-1.18237">
        <ele>2.46422</ele>
        <time>2022-08-01T13:00:36.000Z</time>
      </trkpt>
      <trkpt lat="49.36442" lon="-1.18245">
        <ele>2.459455</ele>
        <time>2022-08-01T13:00:37.000Z</time>
      </trkpt>
      <trkpt lat="49.36442" lon="-1.18252">
        <ele>2.454937</ele>
        <time>2022-08-01T13:00:38.000Z</time>
      </trkpt>
      <trkpt lat="49.36443" lon="-1.18259">
        <ele>2.450432</ele>
        <time>2022-08-01T13:00:39.000Z</time>
      </trkpt>
      <trkpt lat="49.36444" lon="-1.18266">
        <ele>2.445895</ele>
        <time>2022-08-01T13:00:40.000Z</time>
      </trkpt>
      <trkpt lat="49.36445" lon="-1.18273">
        <ele>2.441702</ele>
        <time>2022-08-01T13:00:41.000Z</time>
      </trkpt>
      <trkpt lat="49.36446" lon="-1.1828">
        <ele>2.437448</ele>
        <time>2022-08-01T13:00:42.000Z</time>
      </trkpt>
      <trkpt lat="49.36447" lon="-1.18286">
        <ele>2.433154</ele>
        <time>2022-08-01T13:00:43.000Z</time>
      </trkpt>
      <trkpt lat="49.36448" lon="-1.18293">
        <ele>2.429005</ele>
        <time>2022-08-01T13:00:44.000Z</time>
      </trkpt>
      <trkpt lat="49.3645" lon="-1.18299">
        <ele>2.42482</ele>
        <time>2022-08-01T13:00:45.000Z</time>
      </trkpt>
      <trkpt lat="49.36451" lon="-1.18305">
        <ele>2.420965</ele>
        <time>2022-08-01T13:00:46.000Z</time>
      </trkpt>
      <trkpt lat="49.36453" lon="-1.18311">
        <ele>2.416953</ele>
        <time>2022-08-01T13:00:47.000Z</time>
      </trkpt>
      <trkpt lat="49.36455" lon="-1.18317">
        <ele>2.412824</ele>
        <time>2022-08-01T13:00:48.000Z</time>
      </trkpt>
      <trkpt lat="49.36456" lon="-1.18323">
        <ele>2.408734</ele>
        <time>2022-08-01T13:00:49.000Z</time>
      </trkpt>
      <trkpt lat="49.36458" lon="-1.18329">
        <ele>2.404606</ele>
        <time>2022-08-01T13:00:50.000Z</time>
      </trkpt>
      <trkpt lat="49.36459" lon="-1.18335">
        <ele>2.400692</ele>
        <time>2022-08-01T13:00:51.000Z</time>
      </trkpt>
      <trkpt lat="49.36461" lon="-1.18341">
        <ele>2.396674</ele>
        <time>2022-08-01T13:00:52.000Z</time>
      </trkpt>
      <trkpt lat="49.36463" lon="-1.18347">
        <ele>2.392712</ele>
        <time>2022-08-01T13:00:53.000Z</time>
      </trkpt>
      <trkpt lat="49.36465" lon="-1.18352">
        <ele>2.388814</ele>
        <time>2022-08-01T13:00:54.000Z</time>
      </trkpt>
      <trkpt lat="49.36466" lon="-1.18358">
        <ele>2.3849</ele>
        <time>2022-08-01T13:00:55.000Z</time>
      </trkpt>
      <trkpt lat="49.36467" lon="-1.18365">
        <ele>2.380947</ele>
        <time>2022-08-01T13:00:56.000Z</time>
      </trkpt>
      <trkpt lat="49.36468" lon="-1.18371">
        <ele>2.376917</ele>
        <time>2022-08-01T13:00:57.000Z</time>
      </trkpt>
      <trkpt lat="49.36469" lon="-1.18378">
        <ele>2.372622</ele>
        <time>2022-08-01T13:00:58.000Z</time>
      </trkpt>
      <trkpt lat="49.3647" lon="-1.18384">
        <ele>2.368414</ele>
        <time>2022-08-01T13:00:59.000Z</time>
      </trkpt>
      <trkpt lat="49.36472" lon="-1.1839">
        <ele>2.364383</ele>
        <time>2022-08-01T13:01:00.000Z</time>
      </trkpt>
      <trkpt lat="49.36472" lon="-1.18397">
        <ele>2.360443</ele>
        <time>2022-08-01T13:01:01.000Z</time>
      </trkpt>
      <trkpt lat="49.36473" lon="-1.18403">
        <ele>2.364747</ele>
        <time>2022-08-01T13:01:02.000Z</time>
      </trkpt>
      <trkpt lat="49.36474" lon="-1.18409">
        <ele>2.374382</ele>
        <time>2022-08-01T13:01:03.000Z</time>
      </trkpt>
      <trkpt lat="49.36474" lon="-1.18416">
        <ele>2.384117</ele>
        <time>2022-08-01T13:01:04.000Z</time>
      </trkpt>
      <trkpt lat="49.36475" lon="-1.18423">
        <ele>2.394169</ele>
        <time>2022-08-01T13:01:05.000Z</time>
      </trkpt>
      <trkpt lat="49.36475" lon="-1.18429">
        <ele>2.403904</ele>
        <time>2022-08-01T13:01:06.000Z</time>
      </trkpt>
      <trkpt lat="49.36476" lon="-1.18435">
        <ele>2.412811</ele>
        <time>2022-08-01T13:01:07.000Z</time>
      </trkpt>
      <trkpt lat="49.36477" lon="-1.18441">
        <ele>2.422212</ele>
        <time>2022-08-01T13:01:08.000Z</time>
      </trkpt>
      <trkpt lat="49.36477" lon="-1.18447">
        <ele>2.43128</ele>
        <time>2022-08-01T13:01:09.000Z</time>
      </trkpt>
      <trkpt lat="49.36478" lon="-1.18453">
        <ele>2.440533</ele>
        <time>2022-08-01T13:01:10.000Z</time>
      </trkpt>
      <trkpt lat="49.36479" lon="-1.18459">
        <ele>2.449602</ele>
        <time>2022-08-01T13:01:11.000Z</time>
      </trkpt>
      <trkpt lat="49.3648" lon="-1.18465">
        <ele>2.458854</ele>
        <time>2022-08-01T13:01:12.000Z</time>
      </trkpt>
      <trkpt lat="49.3648" lon="-1.18471">
        <ele>2.468219</ele>
        <time>2022-08-01T13:01:13.000Z</time>
      </trkpt>
      <trkpt lat="49.36481" lon="-1.18477">
        <ele>2.477472</ele>
        <time>2022-08-01T13:01:14.000Z</time>
      </trkpt>
      <trkpt lat="49.36482" lon="-1.18484">
        <ele>2.486962</ele>
        <time>2022-08-01T13:01:15.000Z</time>
      </trkpt>
      <trkpt lat="49.36482" lon="-1.1849">
        <ele>2.496399</ele>
        <time>2022-08-01T13:01:16.000Z</time>
      </trkpt>
      <trkpt lat="49.36483" lon="-1.18496">
        <ele>2.506094</ele>
        <time>2022-08-01T13:01:17.000Z</time>
      </trkpt>
      <trkpt lat="49.36484" lon="-1.18502">
        <ele>2.51531</ele>
        <time>2022-08-01T13:01:18.000Z</time>
      </trkpt>
      <trkpt lat="49.36484" lon="-1.18509">
        <ele>2.525153</ele>
        <time>2022-08-01T13:01:19.000Z</time>
      </trkpt>
      <trkpt lat="49.36485" lon="-1.18515">
        <ele>2.534816</ele>
        <time>2022-08-01T13:01:20.000Z</time>
      </trkpt>
      <trkpt lat="49.36486" lon="-1.18521">
        <ele>2.544123</ele>
        <time>2022-08-01T13:01:21.000Z</time>
      </trkpt>
      <trkpt lat="49.36486" lon="-1.18528">
        <ele>2.553635</ele>
        <time>2022-08-01T13:01:22.000Z</time>
      </trkpt>
      <trkpt lat="49.36487" lon="-1.18534">
        <ele>2.563</ele>
        <time>2022-08-01T13:01:23.000Z</time>
      </trkpt>
      <trkpt lat="49.36488" lon="-1.1854">
        <ele>2.572253</ele>
        <time>2022-08-01T13:01:24.000Z</time>
      </trkpt>
      <trkpt lat="49.36488" lon="-1.18546">
        <ele>2.580879</ele>
        <time>2022-08-01T13:01:25.000Z</time>
      </trkpt>
      <trkpt lat="49.36489" lon="-1.18551">
        <ele>2.589251</ele>
        <time>2022-08-01T13:01:26.000Z</time>
      </trkpt>
      <trkpt lat="49.3649" lon="-1.18557">
        <ele>2.597877</ele>
        <time>2022-08-01T13:01:27.000Z</time>
      </trkpt>
      <trkpt lat="49.36491" lon="-1.18562">
        <ele>2.606121</ele>
        <time>2022-08-01T13:01:28.000Z</time>
      </trkpt>
      <trkpt lat="49.36491" lon="-1.18567">
        <ele>2.614068</ele>
        <time>2022-08-01T13:01:29.000Z</time>
      </trkpt>
      <trkpt lat="49.36492" lon="-1.18573">
        <ele>2.622989</ele>
        <time>2022-08-01T13:01:30.000Z</time>
      </trkpt>
      <trkpt lat="49.36492" lon="-1.18579">
        <ele>2.631682</ele>
        <time>2022-08-01T13:01:31.000Z</time>
      </trkpt>
      <trkpt lat="49.36492" lon="-1.18585">
        <ele>2.640395</ele>
        <time>2022-08-01T13:01:32.000Z</time>
      </trkpt>
      <trkpt lat="49.36492" lon="-1.18591">
        <ele>2.649657</ele>
        <time>2022-08-01T13:01:33.000Z</time>
      </trkpt>
      <trkpt lat="49.36492" lon="-1.18597">
        <ele>2.658621</ele>
        <time>2022-08-01T13:01:34.000Z</time>
      </trkpt>
      <trkpt lat="49.36492" lon="-1.18603">
        <ele>2.667929</ele>
        <time>2022-08-01T13:01:35.000Z</time>
      </trkpt>
      <trkpt lat="49.36491" lon="-1.18609">
        <ele>2.677273</ele>
        <time>2022-08-01T13:01:36.000Z</time>
      </trkpt>
      <trkpt lat="49.3649" lon="-1.18615">
        <ele>2.686381</ele>
        <time>2022-08-01T13:01:37.000Z</time>
      </trkpt>
      <trkpt lat="49.36489" lon="-1.18621">
        <ele>2.695262</ele>
        <time>2022-08-01T13:01:38.000Z</time>
      </trkpt>
      <trkpt lat="49.36488" lon="-1.18627">
        <ele>2.704025</ele>
        <time>2022-08-01T13:01:39.000Z</time>
      </trkpt>
      <trkpt lat="49.36486" lon="-1.18632">
        <ele>2.713435</ele>
        <time>2022-08-01T13:01:40.000Z</time>
      </trkpt>
      <trkpt lat="49.36484" lon="-1.18638">
        <ele>2.723001</ele>
        <time>2022-08-01T13:01:41.000Z</time>
      </trkpt>
      <trkpt lat="49.36483" lon="-1.18644">
        <ele>2.732687</ele>
        <time>2022-08-01T13:01:42.000Z</time>
      </trkpt>
      <trkpt lat="49.36481" lon="-1.1865">
        <ele>2.742373</ele>
        <time>2022-08-01T13:01:43.000Z</time>
      </trkpt>
      <trkpt lat="49.36479" lon="-1.18656">
        <ele>2.752443</ele>
        <time>2022-08-01T13:01:44.000Z</time>
      </trkpt>
      <trkpt lat="49.36478" lon="-1.18662">
        <ele>2.761534</ele>
        <time>2022-08-01T13:01:45.000Z</time>
      </trkpt>
      <trkpt lat="49.36476" lon="-1.18668">
        <ele>2.771082</ele>
        <time>2022-08-01T13:01:46.000Z</time>
      </trkpt>
      <trkpt lat="49.36475" lon="-1.18673">
        <ele>2.775679</ele>
        <time>2022-08-01T13:01:47.000Z</time>
      </trkpt>
      <trkpt lat="49.36473" lon="-1.18679">
        <ele>2.780355</ele>
        <time>2022-08-01T13:01:48.000Z</time>
      </trkpt>
      <trkpt lat="49.36471" lon="-1.18685">
        <ele>2.784905</ele>
        <time>2022-08-01T13:01:49.000Z</time>
      </trkpt>
      <trkpt lat="49.3647" lon="-1.18691">
        <ele>2.78937</ele>
        <time>2022-08-01T13:01:50.000Z</time>
      </trkpt>
      <trkpt lat="49.36469" lon="-1.18697">
        <ele>2.793801</ele>
        <time>2022-08-01T13:01:51.000Z</time>
      </trkpt>
      <trkpt lat="49.36468" lon="-1.18703">
        <ele>2.798274</ele>
        <time>2022-08-01T13:01:52.000Z</time>
      </trkpt>
      <trkpt lat="49.36466" lon="-1.18709">
        <ele>2.802842</ele>
        <time>2022-08-01T13:01:53.000Z</time>
      </trkpt>
      <trkpt lat="49.36465" lon="-1.18715">
        <ele>2.807726</ele>
        <time>2022-08-01T13:01:54.000Z</time>
      </trkpt>
      <trkpt lat="49.36464" lon="-1.18721">
        <ele>2.812314</ele>
        <time>2022-08-01T13:01:55.000Z</time>
      </trkpt>
      <trkpt lat="49.36462" lon="-1.18727">
        <ele>2.816882</ele>
        <time>2022-08-01T13:01:56.000Z</time>
      </trkpt>
      <trkpt lat="49.36462" lon="-1.18733">
        <ele>2.821267</ele>
        <time>2022-08-01T13:01:57.000Z</time>
      </trkpt>
      <trkpt lat="49.36461" lon="-1.18739">
        <ele>2.82588</ele>
        <time>2022-08-01T13:01:58.000Z</time>
      </trkpt>
      <trkpt lat="49.36461" lon="-1.18746">
        <ele>2.830443</ele>
        <time>2022-08-01T13:01:59.000Z</time>
      </trkpt>
      <trkpt lat="49.3646" lon="-1.18752">
        <ele>2.834934</ele>
        <time>2022-08-01T13:02:00.000Z</time>
      </trkpt>
      <trkpt lat="49.3646" lon="-1.18758">
        <ele>2.839506</ele>
        <time>2022-08-01T13:02:01.000Z</time>
      </trkpt>
      <trkpt lat="49.3646" lon="-1.18764">
        <ele>2.843696</ele>
        <time>2022-08-01T13:02:02.000Z</time>
      </trkpt>
      <trkpt lat="49.3646" lon="-1.1877">
        <ele>2.848029</ele>
        <time>2022-08-01T13:02:03.000Z</time>
      </trkpt>
      <trkpt lat="49.36459" lon="-1.18776">
        <ele>2.852343</ele>
        <time>2022-08-01T13:02:04.000Z</time>
      </trkpt>
      <trkpt lat="49.36459" lon="-1.18782">
        <ele>2.856532</ele>
        <time>2022-08-01T13:02:05.000Z</time>
      </trkpt>
      <trkpt lat="49.36459" lon="-1.18787">
        <ele>2.860722</ele>
        <time>2022-08-01T13:02:06.000Z</time>
      </trkpt>
      <trkpt lat="49.36459" lon="-1.18793">
        <ele>2.864694</ele>
        <time>2022-08-01T13:02:07.000Z</time>
      </trkpt>
      <trkpt lat="49.36459" lon="-1.18799">
        <ele>2.869028</ele>
        <time>2022-08-01T13:02:08.000Z</time>
      </trkpt>
      <trkpt lat="49.36459" lon="-1.18805">
        <ele>2.873146</ele>
        <time>2022-08-01T13:02:09.000Z</time>
      </trkpt>
      <trkpt lat="49.3646" lon="-1.1881">
        <ele>2.877031</ele>
        <time>2022-08-01T13:02:10.000Z</time>
      </trkpt>
      <trkpt lat="49.3646" lon="-1.18815">
        <ele>2.880932</ele>
        <time>2022-08-01T13:02:11.000Z</time>
      </trkpt>
      <trkpt lat="49.3646" lon="-1.1882">
        <ele>2.884544</ele>
        <time>2022-08-01T13:02:12.000Z</time>
      </trkpt>
      <trkpt lat="49.36459" lon="-1.18825">
        <ele>2.888287</ele>
        <time>2022-08-01T13:02:13.000Z</time>
      </trkpt>
      <trkpt lat="49.36459" lon="-1.18831">
        <ele>2.892244</ele>
        <time>2022-08-01T13:02:14.000Z</time>
      </trkpt>
      <trkpt lat="49.36458" lon="-1.18836">
        <ele>2.895883</ele>
        <time>2022-08-01T13:02:15.000Z</time>
      </trkpt>
      <trkpt lat="49.36458" lon="-1.18841">
        <ele>2.899555</ele>
        <time>2022-08-01T13:02:16.000Z</time>
      </trkpt>
      <trkpt lat="49.36457" lon="-1.18846">
        <ele>2.903086</ele>
        <time>2022-08-01T13:02:17.000Z</time>
      </trkpt>
      <trkpt lat="49.36457" lon="-1.1885">
        <ele>2.906366</ele>
        <time>2022-08-01T13:02:18.000Z</time>
      </trkpt>
      <trkpt lat="49.36456" lon="-1.18855">
        <ele>2.909634</ele>
        <time>2022-08-01T13:02:19.000Z</time>
      </trkpt>
      <trkpt lat="49.36456" lon="-1.18859">
        <ele>2.913093</ele>
        <time>2022-08-01T13:02:20.000Z</time>
      </trkpt>
      <trkpt lat="49.36455" lon="-1.18864">
        <ele>2.916646</ele>
        <time>2022-08-01T13:02:21.000Z</time>
      </trkpt>
      <trkpt lat="49.36454" lon="-1.18869">
        <ele>2.920393</ele>
        <time>2022-08-01T13:02:22.000Z</time>
      </trkpt>
      <trkpt lat="49.36453" lon="-1.18874">
        <ele>2.924148</ele>
        <time>2022-08-01T13:02:23.000Z</time>
      </trkpt>
      <trkpt lat="49.36451" lon="-1.18879">
        <ele>2.928107</ele>
        <time>2022-08-01T13:02:24.000Z</time>
      </trkpt>
      <trkpt lat="49.3645" lon="-1.18884">
        <ele>2.931996</ele>
        <time>2022-08-01T13:02:25.000Z</time>
      </trkpt>
      <trkpt lat="49.36449" lon="-1.18889">
        <ele>2.935952</ele>
        <time>2022-08-01T13:02:26.000Z</time>
      </trkpt>
      <trkpt lat="49.36447" lon="-1.18894">
        <ele>2.939976</ele>
        <time>2022-08-01T13:02:27.000Z</time>
      </trkpt>
      <trkpt lat="49.36445" lon="-1.18899">
        <ele>2.944096</ele>
        <time>2022-08-01T13:02:28.000Z</time>
      </trkpt>
      <trkpt lat="49.36443" lon="-1.18904">
        <ele>2.948153</ele>
        <time>2022-08-01T13:02:29.000Z</time>
      </trkpt>
      <trkpt lat="49.36441" lon="-1.18908">
        <ele>2.95221</ele>
        <time>2022-08-01T13:02:30.000Z</time>
      </trkpt>
      <trkpt lat="49.36439" lon="-1.18913">
        <ele>2.956206</ele>
        <time>2022-08-01T13:02:31.000Z</time>
      </trkpt>
      <trkpt lat="49.36438" lon="-1.18918">
        <ele>2.960101</ele>
        <time>2022-08-01T13:02:32.000Z</time>
      </trkpt>
      <trkpt lat="49.36435" lon="-1.18923">
        <ele>2.964723</ele>
        <time>2022-08-01T13:02:33.000Z</time>
      </trkpt>
      <trkpt lat="49.36433" lon="-1.18928">
        <ele>2.969288</ele>
        <time>2022-08-01T13:02:34.000Z</time>
      </trkpt>
      <trkpt lat="49.3643" lon="-1.18932">
        <ele>2.973896</ele>
        <time>2022-08-01T13:02:35.000Z</time>
      </trkpt>
      <trkpt lat="49.36427" lon="-1.18937">
        <ele>2.979058</ele>
        <time>2022-08-01T13:02:36.000Z</time>
      </trkpt>
      <trkpt lat="49.36424" lon="-1.18942">
        <ele>2.984106</ele>
        <time>2022-08-01T13:02:37.000Z</time>
      </trkpt>
      <trkpt lat="49.36421" lon="-1.18946">
        <ele>2.989313</ele>
        <time>2022-08-01T13:02:38.000Z</time>
      </trkpt>
      <trkpt lat="49.36419" lon="-1.1895">
        <ele>2.99403</ele>
        <time>2022-08-01T13:02:39.000Z</time>
      </trkpt>
      <trkpt lat="49.36415" lon="-1.18955">
        <ele>2.999342</ele>
        <time>2022-08-01T13:02:40.000Z</time>
      </trkpt>
      <trkpt lat="49.36413" lon="-1.18959">
        <ele>3.004334</ele>
        <time>2022-08-01T13:02:41.000Z</time>
      </trkpt>
      <trkpt lat="49.36409" lon="-1.18964">
        <ele>3.009647</ele>
        <time>2022-08-01T13:02:42.000Z</time>
      </trkpt>
      <trkpt lat="49.36406" lon="-1.18968">
        <ele>3.014583</ele>
        <time>2022-08-01T13:02:43.000Z</time>
      </trkpt>
      <trkpt lat="49.36403" lon="-1.18973">
        <ele>3.020005</ele>
        <time>2022-08-01T13:02:44.000Z</time>
      </trkpt>
      <trkpt lat="49.364" lon="-1.18977">
        <ele>3.024941</ele>
        <time>2022-08-01T13:02:45.000Z</time>
      </trkpt>
      <trkpt lat="49.36397" lon="-1.18981">
        <ele>3.029822</ele>
        <time>2022-08-01T13:02:46.000Z</time>
      </trkpt>
      <trkpt lat="49.36395" lon="-1.18986">
        <ele>3.034539</ele>
        <time>2022-08-01T13:02:47.000Z</time>
      </trkpt>
      <trkpt lat="49.36392" lon="-1.1899">
        <ele>3.039745</ele>
        <time>2022-08-01T13:02:48.000Z</time>
      </trkpt>
      <trkpt lat="49.36389" lon="-1.18994">
        <ele>3.044626</ele>
        <time>2022-08-01T13:02:49.000Z</time>
      </trkpt>
      <trkpt lat="49.36386" lon="-1.18998">
        <ele>3.049729</ele>
        <time>2022-08-01T13:02:50.000Z</time>
      </trkpt>
      <trkpt lat="49.36383" lon="-1.19003">
        <ele>3.05461</ele>
        <time>2022-08-01T13:02:51.000Z</time>
      </trkpt>
      <trkpt lat="49.3638" lon="-1.19007">
        <ele>3.059327</ele>
        <time>2022-08-01T13:02:52.000Z</time>
      </trkpt>
      <trkpt lat="49.36377" lon="-1.19012">
        <ele>3.065011</ele>
        <time>2022-08-01T13:02:53.000Z</time>
      </trkpt>
      <trkpt lat="49.36373" lon="-1.19016">
        <ele>3.070433</ele>
        <time>2022-08-01T13:02:54.000Z</time>
      </trkpt>
      <trkpt lat="49.36371" lon="-1.19021">
        <ele>3.075453</ele>
        <time>2022-08-01T13:02:55.000Z</time>
      </trkpt>
      <trkpt lat="49.36367" lon="-1.19025">
        <ele>3.081137</ele>
        <time>2022-08-01T13:02:56.000Z</time>
      </trkpt>
      <trkpt lat="49.36364" lon="-1.1903">
        <ele>3.086397</ele>
        <time>2022-08-01T13:02:57.000Z</time>
      </trkpt>
      <trkpt lat="49.36361" lon="-1.19034">
        <ele>3.091417</ele>
        <time>2022-08-01T13:02:58.000Z</time>
      </trkpt>
      <trkpt lat="49.36358" lon="-1.19039">
        <ele>3.096839</ele>
        <time>2022-08-01T13:02:59.000Z</time>
      </trkpt>
      <trkpt lat="49.36355" lon="-1.19044">
        <ele>3.101636</ele>
        <time>2022-08-01T13:03:00.000Z</time>
      </trkpt>
      <trkpt lat="49.36352" lon="-1.19048">
        <ele>3.106791</ele>
        <time>2022-08-01T13:03:01.000Z</time>
      </trkpt>
      <trkpt lat="49.36349" lon="-1.19052">
        <ele>3.111354</ele>
        <time>2022-08-01T13:03:02.000Z</time>
      </trkpt>
      <trkpt lat="49.36347" lon="-1.19056">
        <ele>3.115891</ele>
        <time>2022-08-01T13:03:03.000Z</time>
      </trkpt>
      <trkpt lat="49.36344" lon="-1.1906">
        <ele>3.120664</ele>
        <time>2022-08-01T13:03:04.000Z</time>
      </trkpt>
      <trkpt lat="49.36341" lon="-1.19064">
        <ele>3.125171</ele>
        <time>2022-08-01T13:03:05.000Z</time>
      </trkpt>
      <trkpt lat="49.36339" lon="-1.19068">
        <ele>3.129345</ele>
        <time>2022-08-01T13:03:06.000Z</time>
      </trkpt>
      <trkpt lat="49.36336" lon="-1.19072">
        <ele>3.134552</ele>
        <time>2022-08-01T13:03:07.000Z</time>
      </trkpt>
      <trkpt lat="49.36333" lon="-1.19077">
        <ele>3.13929</ele>
        <time>2022-08-01T13:03:08.000Z</time>
      </trkpt>
      <trkpt lat="49.36331" lon="-1.19081">
        <ele>3.143841</ele>
        <time>2022-08-01T13:03:09.000Z</time>
      </trkpt>
      <trkpt lat="49.36329" lon="-1.19086">
        <ele>3.148758</ele>
        <time>2022-08-01T13:03:10.000Z</time>
      </trkpt>
      <trkpt lat="49.36326" lon="-1.19091">
        <ele>3.154016</ele>
        <time>2022-08-01T13:03:11.000Z</time>
      </trkpt>
      <trkpt lat="49.36323" lon="-1.19096">
        <ele>3.158934</ele>
        <time>2022-08-01T13:03:12.000Z</time>
      </trkpt>
      <trkpt lat="49.36321" lon="-1.191">
        <ele>3.163612</ele>
        <time>2022-08-01T13:03:13.000Z</time>
      </trkpt>
      <trkpt lat="49.36317" lon="-1.19104">
        <ele>3.168767</ele>
        <time>2022-08-01T13:03:14.000Z</time>
      </trkpt>
      <trkpt lat="49.36314" lon="-1.19109">
        <ele>3.174134</ele>
        <time>2022-08-01T13:03:15.000Z</time>
      </trkpt>
      <trkpt lat="49.36311" lon="-1.19114">
        <ele>3.179332</ele>
        <time>2022-08-01T13:03:16.000Z</time>
      </trkpt>
      <trkpt lat="49.36308" lon="-1.19118">
        <ele>3.184699</ele>
        <time>2022-08-01T13:03:17.000Z</time>
      </trkpt>
      <trkpt lat="49.36305" lon="-1.19123">
        <ele>3.189862</ele>
        <time>2022-08-01T13:03:18.000Z</time>
      </trkpt>
      <trkpt lat="49.36302" lon="-1.19127">
        <ele>3.192638</ele>
        <time>2022-08-01T13:03:19.000Z</time>
      </trkpt>
      <trkpt lat="49.36298" lon="-1.19132">
        <ele>3.194991</ele>
        <time>2022-08-01T13:03:20.000Z</time>
      </trkpt>
      <trkpt lat="49.36295" lon="-1.19137">
        <ele>3.197076</ele>
        <time>2022-08-01T13:03:21.000Z</time>
      </trkpt>
      <trkpt lat="49.36292" lon="-1.19142">
        <ele>3.199285</ele>
        <time>2022-08-01T13:03:22.000Z</time>
      </trkpt>
      <trkpt lat="49.36288" lon="-1.19146">
        <ele>3.201474</ele>
        <time>2022-08-01T13:03:23.000Z</time>
      </trkpt>
      <trkpt lat="49.36285" lon="-1.19151">
        <ele>3.203527</ele>
        <time>2022-08-01T13:03:24.000Z</time>
      </trkpt>
      <trkpt lat="49.36282" lon="-1.19156">
        <ele>3.205695</ele>
        <time>2022-08-01T13:03:25.000Z</time>
      </trkpt>
      <trkpt lat="49.36278" lon="-1.1916">
        <ele>3.207844</ele>
        <time>2022-08-01T13:03:26.000Z</time>
      </trkpt>
      <trkpt lat="49.36275" lon="-1.19165">
        <ele>3.210074</ele>
        <time>2022-08-01T13:03:27.000Z</time>
      </trkpt>
      <trkpt lat="49.36272" lon="-1.1917">
        <ele>3.212127</ele>
        <time>2022-08-01T13:03:28.000Z</time>
      </trkpt>
      <trkpt lat="49.36268" lon="-1.19175">
        <ele>3.214399</ele>
        <time>2022-08-01T13:03:29.000Z</time>
      </trkpt>
      <trkpt lat="49.36265" lon="-1.1918">
        <ele>3.216451</ele>
        <time>2022-08-01T13:03:30.000Z</time>
      </trkpt>
      <trkpt lat="49.36262" lon="-1.19185">
        <ele>3.218536</ele>
        <time>2022-08-01T13:03:31.000Z</time>
      </trkpt>
      <trkpt lat="49.36259" lon="-1.1919">
        <ele>3.220521</ele>
        <time>2022-08-01T13:03:32.000Z</time>
      </trkpt>
      <trkpt lat="49.36256" lon="-1.19194">
        <ele>3.222523</ele>
        <time>2022-08-01T13:03:33.000Z</time>
      </trkpt>
      <trkpt lat="49.36253" lon="-1.19199">
        <ele>3.224464</ele>
        <time>2022-08-01T13:03:34.000Z</time>
      </trkpt>
      <trkpt lat="49.3625" lon="-1.19203">
        <ele>3.226466</ele>
        <time>2022-08-01T13:03:35.000Z</time>
      </trkpt>
      <trkpt lat="49.36247" lon="-1.19207">
        <ele>3.228509</ele>
        <time>2022-08-01T13:03:36.000Z</time>
      </trkpt>
      <trkpt lat="49.36244" lon="-1.19212">
        <ele>3.23045</ele>
        <time>2022-08-01T13:03:37.000Z</time>
      </trkpt>
      <trkpt lat="49.36241" lon="-1.19217">
        <ele>3.232534</ele>
        <time>2022-08-01T13:03:38.000Z</time>
      </trkpt>
      <trkpt lat="49.36238" lon="-1.19221">
        <ele>3.234443</ele>
        <time>2022-08-01T13:03:39.000Z</time>
      </trkpt>
      <trkpt lat="49.36235" lon="-1.19226">
        <ele>3.236527</ele>
        <time>2022-08-01T13:03:40.000Z</time>
      </trkpt>
      <trkpt lat="49.36231" lon="-1.1923">
        <ele>3.238529</ele>
        <time>2022-08-01T13:03:41.000Z</time>
      </trkpt>
      <trkpt lat="49.36229" lon="-1.19235">
        <ele>3.240537</ele>
        <time>2022-08-01T13:03:42.000Z</time>
      </trkpt>
      <trkpt lat="49.36226" lon="-1.1924">
        <ele>3.242522</ele>
        <time>2022-08-01T13:03:43.000Z</time>
      </trkpt>
      <trkpt lat="49.36222" lon="-1.19244">
        <ele>3.244564</ele>
        <time>2022-08-01T13:03:44.000Z</time>
      </trkpt>
      <trkpt lat="49.3622" lon="-1.19249">
        <ele>3.24655</ele>
        <time>2022-08-01T13:03:45.000Z</time>
      </trkpt>
      <trkpt lat="49.36216" lon="-1.19253">
        <ele>3.248613</ele>
        <time>2022-08-01T13:03:46.000Z</time>
      </trkpt>
      <trkpt lat="49.36213" lon="-1.19258">
        <ele>3.250598</ele>
        <time>2022-08-01T13:03:47.000Z</time>
      </trkpt>
      <trkpt lat="49.3621" lon="-1.19263">
        <ele>3.252641</ele>
        <time>2022-08-01T13:03:48.000Z</time>
      </trkpt>
      <trkpt lat="49.36207" lon="-1.19267">
        <ele>3.254751</ele>
        <time>2022-08-01T13:03:49.000Z</time>
      </trkpt>
      <trkpt lat="49.36204" lon="-1.19271">
        <ele>3.256671</ele>
        <time>2022-08-01T13:03:50.000Z</time>
      </trkpt>
      <trkpt lat="49.362" lon="-1.19276">
        <ele>3.258781</ele>
        <time>2022-08-01T13:03:51.000Z</time>
      </trkpt>
      <trkpt lat="49.36197" lon="-1.1928">
        <ele>3.260616</ele>
        <time>2022-08-01T13:03:52.000Z</time>
      </trkpt>
      <trkpt lat="49.36194" lon="-1.19285">
        <ele>3.262765</ele>
        <time>2022-08-01T13:03:53.000Z</time>
      </trkpt>
      <trkpt lat="49.36191" lon="-1.1929">
        <ele>3.264981</ele>
        <time>2022-08-01T13:03:54.000Z</time>
      </trkpt>
      <trkpt lat="49.36188" lon="-1.19295">
        <ele>3.266934</ele>
        <time>2022-08-01T13:03:55.000Z</time>
      </trkpt>
      <trkpt lat="49.36185" lon="-1.19299">
        <ele>3.26912</ele>
        <time>2022-08-01T13:03:56.000Z</time>
      </trkpt>
      <trkpt lat="49.36182" lon="-1.19304">
        <ele>3.271141</ele>
        <time>2022-08-01T13:03:57.000Z</time>
      </trkpt>
      <trkpt lat="49.36179" lon="-1.1931">
        <ele>3.273311</ele>
        <time>2022-08-01T13:03:58.000Z</time>
      </trkpt>
      <trkpt lat="49.36176" lon="-1.19315">
        <ele>3.275395</ele>
        <time>2022-08-01T13:03:59.000Z</time>
      </trkpt>
      <trkpt lat="49.36174" lon="-1.19321">
        <ele>3.268889</ele>
        <time>2022-08-01T13:04:00.000Z</time>
      </trkpt>
      <trkpt lat="49.36173" lon="-1.19327">
        <ele>3.259973</ele>
        <time>2022-08-01T13:04:01.000Z</time>
      </trkpt>
      <trkpt lat="49.36171" lon="-1.19332">
        <ele>3.25131</ele>
        <time>2022-08-01T13:04:02.000Z</time>
      </trkpt>
      <trkpt lat="49.3617" lon="-1.19338">
        <ele>3.242793</ele>
        <time>2022-08-01T13:04:03.000Z</time>
      </trkpt>
      <trkpt lat="49.36169" lon="-1.19345">
        <ele>3.233835</ele>
        <time>2022-08-01T13:04:04.000Z</time>
      </trkpt>
      <trkpt lat="49.36168" lon="-1.19351">
        <ele>3.225285</ele>
        <time>2022-08-01T13:04:05.000Z</time>
      </trkpt>
      <trkpt lat="49.36168" lon="-1.19357">
        <ele>3.216346</ele>
        <time>2022-08-01T13:04:06.000Z</time>
      </trkpt>
      <trkpt lat="49.36169" lon="-1.19364">
        <ele>3.207658</ele>
        <time>2022-08-01T13:04:07.000Z</time>
      </trkpt>
      <trkpt lat="49.36169" lon="-1.1937">
        <ele>3.199005</ele>
        <time>2022-08-01T13:04:08.000Z</time>
      </trkpt>
      <trkpt lat="49.3617" lon="-1.19376">
        <ele>3.189866</ele>
        <time>2022-08-01T13:04:09.000Z</time>
      </trkpt>
      <trkpt lat="49.36171" lon="-1.19382">
        <ele>3.181215</ele>
        <time>2022-08-01T13:04:10.000Z</time>
      </trkpt>
      <trkpt lat="49.36172" lon="-1.19388">
        <ele>3.172697</ele>
        <time>2022-08-01T13:04:11.000Z</time>
      </trkpt>
      <trkpt lat="49.36173" lon="-1.19395">
        <ele>3.163289</ele>
        <time>2022-08-01T13:04:12.000Z</time>
      </trkpt>
      <trkpt lat="49.36174" lon="-1.19402">
        <ele>3.154104</ele>
        <time>2022-08-01T13:04:13.000Z</time>
      </trkpt>
      <trkpt lat="49.36175" lon="-1.19408">
        <ele>3.144965</ele>
        <time>2022-08-01T13:04:14.000Z</time>
      </trkpt>
      <trkpt lat="49.36176" lon="-1.19415">
        <ele>3.135512</ele>
        <time>2022-08-01T13:04:15.000Z</time>
      </trkpt>
      <trkpt lat="49.36176" lon="-1.19421">
        <ele>3.12655</ele>
        <time>2022-08-01T13:04:16.000Z</time>
      </trkpt>
      <trkpt lat="49.36176" lon="-1.19428">
        <ele>3.117886</ele>
        <time>2022-08-01T13:04:17.000Z</time>
      </trkpt>
      <trkpt lat="49.36176" lon="-1.19434">
        <ele>3.109336</ele>
        <time>2022-08-01T13:04:18.000Z</time>
      </trkpt>
      <trkpt lat="49.36176" lon="-1.1944">
        <ele>3.100374</ele>
        <time>2022-08-01T13:04:19.000Z</time>
      </trkpt>
      <trkpt lat="49.36175" lon="-1.19446">
        <ele>3.091723</ele>
        <time>2022-08-01T13:04:20.000Z</time>
      </trkpt>
      <trkpt lat="49.36174" lon="-1.19452">
        <ele>3.083256</ele>
        <time>2022-08-01T13:04:21.000Z</time>
      </trkpt>
      <trkpt lat="49.36173" lon="-1.19458">
        <ele>3.07456</ele>
        <time>2022-08-01T13:04:22.000Z</time>
      </trkpt>
      <trkpt lat="49.36171" lon="-1.19465">
        <ele>3.065388</ele>
        <time>2022-08-01T13:04:23.000Z</time>
      </trkpt>
      <trkpt lat="49.3617" lon="-1.19471">
        <ele>3.056604</ele>
        <time>2022-08-01T13:04:24.000Z</time>
      </trkpt>
      <trkpt lat="49.36168" lon="-1.19477">
        <ele>3.047047</ele>
        <time>2022-08-01T13:04:25.000Z</time>
      </trkpt>
      <trkpt lat="49.36167" lon="-1.19484">
        <ele>3.037959</ele>
        <time>2022-08-01T13:04:26.000Z</time>
      </trkpt>
      <trkpt lat="49.36166" lon="-1.1949">
        <ele>3.029223</ele>
        <time>2022-08-01T13:04:27.000Z</time>
      </trkpt>
      <trkpt lat="49.36165" lon="-1.19496">
        <ele>3.020787</ele>
        <time>2022-08-01T13:04:28.000Z</time>
      </trkpt>
      <trkpt lat="49.36164" lon="-1.19501">
        <ele>3.012536</ele>
        <time>2022-08-01T13:04:29.000Z</time>
      </trkpt>
      <trkpt lat="49.36162" lon="-1.19507">
        <ele>3.004</ele>
        <time>2022-08-01T13:04:30.000Z</time>
      </trkpt>
      <trkpt lat="49.36161" lon="-1.19513">
        <ele>2.995337</ele>
        <time>2022-08-01T13:04:31.000Z</time>
      </trkpt>
      <trkpt lat="49.36159" lon="-1.19518">
        <ele>2.987053</ele>
        <time>2022-08-01T13:04:32.000Z</time>
      </trkpt>
      <trkpt lat="49.36158" lon="-1.19524">
        <ele>2.979206</ele>
        <time>2022-08-01T13:04:33.000Z</time>
      </trkpt>
      <trkpt lat="49.36156" lon="-1.19529">
        <ele>2.971019</ele>
        <time>2022-08-01T13:04:34.000Z</time>
      </trkpt>
      <trkpt lat="49.36153" lon="-1.19535">
        <ele>2.961568</ele>
        <time>2022-08-01T13:04:35.000Z</time>
      </trkpt>
      <trkpt lat="49.36151" lon="-1.1954">
        <ele>2.952809</ele>
        <time>2022-08-01T13:04:36.000Z</time>
      </trkpt>
      <trkpt lat="49.36149" lon="-1.19545">
        <ele>2.944281</ele>
        <time>2022-08-01T13:04:37.000Z</time>
      </trkpt>
      <trkpt lat="49.36146" lon="-1.19551">
        <ele>2.934935</ele>
        <time>2022-08-01T13:04:38.000Z</time>
      </trkpt>
      <trkpt lat="49.36144" lon="-1.19556">
        <ele>2.926636</ele>
        <time>2022-08-01T13:04:39.000Z</time>
      </trkpt>
      <trkpt lat="49.36141" lon="-1.1956">
        <ele>2.91719</ele>
        <time>2022-08-01T13:04:40.000Z</time>
      </trkpt>
      <trkpt lat="49.36138" lon="-1.19565">
        <ele>2.908286</ele>
        <time>2022-08-01T13:04:41.000Z</time>
      </trkpt>
      <trkpt lat="49.36135" lon="-1.19569">
        <ele>2.899773</ele>
        <time>2022-08-01T13:04:42.000Z</time>
      </trkpt>
      <trkpt lat="49.36132" lon="-1.19574">
        <ele>2.902218</ele>
        <time>2022-08-01T13:04:43.000Z</time>
      </trkpt>
      <trkpt lat="49.36129" lon="-1.19578">
        <ele>2.913072</ele>
        <time>2022-08-01T13:04:44.000Z</time>
      </trkpt>
      <trkpt lat="49.36126" lon="-1.19582">
        <ele>2.923115</ele>
        <time>2022-08-01T13:04:45.000Z</time>
      </trkpt>
      <trkpt lat="49.36123" lon="-1.19585">
        <ele>2.934129</ele>
        <time>2022-08-01T13:04:46.000Z</time>
      </trkpt>
      <trkpt lat="49.3612" lon="-1.19589">
        <ele>2.944625</ele>
        <time>2022-08-01T13:04:47.000Z</time>
      </trkpt>
      <trkpt lat="49.36117" lon="-1.19593">
        <ele>2.955321</ele>
        <time>2022-08-01T13:04:48.000Z</time>
      </trkpt>
      <trkpt lat="49.36114" lon="-1.19596">
        <ele>2.964942</ele>
        <time>2022-08-01T13:04:49.000Z</time>
      </trkpt>
      <trkpt lat="49.36111" lon="-1.19599">
        <ele>2.974661</ele>
        <time>2022-08-01T13:04:50.000Z</time>
      </trkpt>
      <trkpt lat="49.36109" lon="-1.19603">
        <ele>2.985041</ele>
        <time>2022-08-01T13:04:51.000Z</time>
      </trkpt>
      <trkpt lat="49.36106" lon="-1.19607">
        <ele>2.995084</ele>
        <time>2022-08-01T13:04:52.000Z</time>
      </trkpt>
      <trkpt lat="49.36103" lon="-1.1961">
        <ele>3.004807</ele>
        <time>2022-08-01T13:04:53.000Z</time>
      </trkpt>
      <trkpt lat="49.361" lon="-1.19613">
        <ele>3.013231</ele>
        <time>2022-08-01T13:04:54.000Z</time>
      </trkpt>
      <trkpt lat="49.36097" lon="-1.19615">
        <ele>3.023173</ele>
        <time>2022-08-01T13:04:55.000Z</time>
      </trkpt>
      <trkpt lat="49.36094" lon="-1.19618">
        <ele>3.033474</ele>
        <time>2022-08-01T13:04:56.000Z</time>
      </trkpt>
      <trkpt lat="49.36091" lon="-1.19622">
        <ele>3.042546</ele>
        <time>2022-08-01T13:04:57.000Z</time>
      </trkpt>
      <trkpt lat="49.36089" lon="-1.19624">
        <ele>3.051092</ele>
        <time>2022-08-01T13:04:58.000Z</time>
      </trkpt>
      <trkpt lat="49.36085" lon="-1.19627">
        <ele>3.061394</ele>
        <time>2022-08-01T13:04:59.000Z</time>
      </trkpt>
      <trkpt lat="49.36082" lon="-1.19631">
        <ele>3.072765</ele>
        <time>2022-08-01T13:05:00.000Z</time>
      </trkpt>
      <trkpt lat="49.36079" lon="-1.19634">
        <ele>3.083163</ele>
        <time>2022-08-01T13:05:01.000Z</time>
      </trkpt>
      <trkpt lat="49.36075" lon="-1.19637">
        <ele>3.094253</ele>
        <time>2022-08-01T13:05:02.000Z</time>
      </trkpt>
      <trkpt lat="49.36071" lon="-1.1964">
        <ele>3.105729</ele>
        <time>2022-08-01T13:05:03.000Z</time>
      </trkpt>
      <trkpt lat="49.36069" lon="-1.19643">
        <ele>3.115452</ele>
        <time>2022-08-01T13:05:04.000Z</time>
      </trkpt>
      <trkpt lat="49.36065" lon="-1.19647">
        <ele>3.126921</ele>
        <time>2022-08-01T13:05:05.000Z</time>
      </trkpt>
      <trkpt lat="49.36061" lon="-1.19651">
        <ele>3.138917</ele>
        <time>2022-08-01T13:05:06.000Z</time>
      </trkpt>
      <trkpt lat="49.36059" lon="-1.19655">
        <ele>3.149329</ele>
        <time>2022-08-01T13:05:07.000Z</time>
      </trkpt>
      <trkpt lat="49.36055" lon="-1.19659">
        <ele>3.160564</ele>
        <time>2022-08-01T13:05:08.000Z</time>
      </trkpt>
      <trkpt lat="49.36052" lon="-1.19662">
        <ele>3.171979</ele>
        <time>2022-08-01T13:05:09.000Z</time>
      </trkpt>
      <trkpt lat="49.36049" lon="-1.19665">
        <ele>3.182376</ele>
        <time>2022-08-01T13:05:10.000Z</time>
      </trkpt>
      <trkpt lat="49.36045" lon="-1.19669">
        <ele>3.193559</ele>
        <time>2022-08-01T13:05:11.000Z</time>
      </trkpt>
      <trkpt lat="49.36042" lon="-1.19672">
        <ele>3.204472</ele>
        <time>2022-08-01T13:05:12.000Z</time>
      </trkpt>
      <trkpt lat="49.36038" lon="-1.19675">
        <ele>3.215654</ele>
        <time>2022-08-01T13:05:13.000Z</time>
      </trkpt>
      <trkpt lat="49.36035" lon="-1.19679">
        <ele>3.226561</ele>
        <time>2022-08-01T13:05:14.000Z</time>
      </trkpt>
      <trkpt lat="49.36031" lon="-1.19682">
        <ele>3.239137</ele>
        <time>2022-08-01T13:05:15.000Z</time>
      </trkpt>
      <trkpt lat="49.36027" lon="-1.19686">
        <ele>3.250936</ele>
        <time>2022-08-01T13:05:16.000Z</time>
      </trkpt>
      <trkpt lat="49.36023" lon="-1.19688">
        <ele>3.262412</ele>
        <time>2022-08-01T13:05:17.000Z</time>
      </trkpt>
      <trkpt lat="49.3602" lon="-1.19691">
        <ele>3.27332</ele>
        <time>2022-08-01T13:05:18.000Z</time>
      </trkpt>
      <trkpt lat="49.36016" lon="-1.19694">
        <ele>3.284576</ele>
        <time>2022-08-01T13:05:19.000Z</time>
      </trkpt>
      <trkpt lat="49.36012" lon="-1.19696">
        <ele>3.295831</ele>
        <time>2022-08-01T13:05:20.000Z</time>
      </trkpt>
      <trkpt lat="49.36008" lon="-1.19699">
        <ele>3.308095</ele>
        <time>2022-08-01T13:05:21.000Z</time>
      </trkpt>
      <trkpt lat="49.36004" lon="-1.19701">
        <ele>3.320492</ele>
        <time>2022-08-01T13:05:22.000Z</time>
      </trkpt>
      <trkpt lat="49.36" lon="-1.19704">
        <ele>3.331002</ele>
        <time>2022-08-01T13:05:23.000Z</time>
      </trkpt>
      <trkpt lat="49.35996" lon="-1.19707">
        <ele>3.343219</ele>
        <time>2022-08-01T13:05:24.000Z</time>
      </trkpt>
      <trkpt lat="49.35992" lon="-1.1971">
        <ele>3.355095</ele>
        <time>2022-08-01T13:05:25.000Z</time>
      </trkpt>
      <trkpt lat="49.35989" lon="-1.19713">
        <ele>3.365792</ele>
        <time>2022-08-01T13:05:26.000Z</time>
      </trkpt>
      <trkpt lat="49.35985" lon="-1.19717">
        <ele>3.378043</ele>
        <time>2022-08-01T13:05:27.000Z</time>
      </trkpt>
      <trkpt lat="49.35982" lon="-1.1972">
        <ele>3.385216</ele>
        <time>2022-08-01T13:05:28.000Z</time>
      </trkpt>
      <trkpt lat="49.35979" lon="-1.19724">
        <ele>3.383389</ele>
        <time>2022-08-01T13:05:29.000Z</time>
      </trkpt>
      <trkpt lat="49.35975" lon="-1.19728">
        <ele>3.381637</ele>
        <time>2022-08-01T13:05:30.000Z</time>
      </trkpt>
      <trkpt lat="49.35972" lon="-1.19731">
        <ele>3.379742</ele>
        <time>2022-08-01T13:05:31.000Z</time>
      </trkpt>
      <trkpt lat="49.35968" lon="-1.19735">
        <ele>3.377867</ele>
        <time>2022-08-01T13:05:32.000Z</time>
      </trkpt>
      <trkpt lat="49.35965" lon="-1.19738">
        <ele>3.376257</ele>
        <time>2022-08-01T13:05:33.000Z</time>
      </trkpt>
      <trkpt lat="49.35961" lon="-1.1974">
        <ele>3.374509</ele>
        <time>2022-08-01T13:05:34.000Z</time>
      </trkpt>
      <trkpt lat="49.35957" lon="-1.19741">
        <ele>3.372763</ele>
        <time>2022-08-01T13:05:35.000Z</time>
      </trkpt>
      <trkpt lat="49.35954" lon="-1.19742">
        <ele>3.37106</ele>
        <time>2022-08-01T13:05:36.000Z</time>
      </trkpt>
      <trkpt lat="49.3595" lon="-1.19744">
        <ele>3.369329</ele>
        <time>2022-08-01T13:05:37.000Z</time>
      </trkpt>
      <trkpt lat="49.35946" lon="-1.19745">
        <ele>3.36747</ele>
        <time>2022-08-01T13:05:38.000Z</time>
      </trkpt>
      <trkpt lat="49.35941" lon="-1.19746">
        <ele>3.365619</ele>
        <time>2022-08-01T13:05:39.000Z</time>
      </trkpt>
      <trkpt lat="49.35937" lon="-1.19747">
        <ele>3.363504</ele>
        <time>2022-08-01T13:05:40.000Z</time>
      </trkpt>
      <trkpt lat="49.35932" lon="-1.19748">
        <ele>3.361386</ele>
        <time>2022-08-01T13:05:41.000Z</time>
      </trkpt>
      <trkpt lat="49.35927" lon="-1.19749">
        <ele>3.359133</ele>
        <time>2022-08-01T13:05:42.000Z</time>
      </trkpt>
      <trkpt lat="49.35922" lon="-1.1975">
        <ele>3.356884</ele>
        <time>2022-08-01T13:05:43.000Z</time>
      </trkpt>
      <trkpt lat="49.35916" lon="-1.19751">
        <ele>3.354182</ele>
        <time>2022-08-01T13:05:44.000Z</time>
      </trkpt>
      <trkpt lat="49.35909" lon="-1.19753">
        <ele>3.351331</ele>
        <time>2022-08-01T13:05:45.000Z</time>
      </trkpt>
      <trkpt lat="49.35903" lon="-1.19754">
        <ele>3.348645</ele>
        <time>2022-08-01T13:05:46.000Z</time>
      </trkpt>
      <trkpt lat="49.35897" lon="-1.19755">
        <ele>3.346005</ele>
        <time>2022-08-01T13:05:47.000Z</time>
      </trkpt>
      <trkpt lat="49.35891" lon="-1.19756">
        <ele>3.343453</ele>
        <time>2022-08-01T13:05:48.000Z</time>
      </trkpt>
      <trkpt lat="49.35885" lon="-1.19757">
        <ele>3.340769</ele>
        <time>2022-08-01T13:05:49.000Z</time>
      </trkpt>
      <trkpt lat="49.35879" lon="-1.19759">
        <ele>3.338218</ele>
        <time>2022-08-01T13:05:50.000Z</time>
      </trkpt>
      <trkpt lat="49.35874" lon="-1.19761">
        <ele>3.33577</ele>
        <time>2022-08-01T13:05:51.000Z</time>
      </trkpt>
      <trkpt lat="49.35868" lon="-1.19763">
        <ele>3.333219</ele>
        <time>2022-08-01T13:05:52.000Z</time>
      </trkpt>
      <trkpt lat="49.35862" lon="-1.19764">
        <ele>3.330641</ele>
        <time>2022-08-01T13:05:53.000Z</time>
      </trkpt>
      <trkpt lat="49.35857" lon="-1.19767">
        <ele>3.328198</ele>
        <time>2022-08-01T13:05:54.000Z</time>
      </trkpt>
      <trkpt lat="49.35852" lon="-1.19769">
        <ele>3.325664</ele>
        <time>2022-08-01T13:05:55.000Z</time>
      </trkpt>
      <trkpt lat="49.35846" lon="-1.19774">
        <ele>3.32299</ele>
        <time>2022-08-01T13:05:56.000Z</time>
      </trkpt>
      <trkpt lat="49.35841" lon="-1.19779">
        <ele>3.320223</ele>
        <time>2022-08-01T13:05:57.000Z</time>
      </trkpt>
      <trkpt lat="49.35836" lon="-1.19784">
        <ele>3.317545</ele>
        <time>2022-08-01T13:05:58.000Z</time>
      </trkpt>
      <trkpt lat="49.35831" lon="-1.19789">
        <ele>3.315164</ele>
        <time>2022-08-01T13:05:59.000Z</time>
      </trkpt>
      <trkpt lat="49.35827" lon="-1.19795">
        <ele>3.312693</ele>
        <time>2022-08-01T13:06:00.000Z</time>
      </trkpt>
      <trkpt lat="49.35823" lon="-1.19801">
        <ele>3.310222</ele>
        <time>2022-08-01T13:06:01.000Z</time>
      </trkpt>
      <trkpt lat="49.35819" lon="-1.19807">
        <ele>3.307838</ele>
        <time>2022-08-01T13:06:02.000Z</time>
      </trkpt>
      <trkpt lat="49.35815" lon="-1.19813">
        <ele>3.309713</ele>
        <time>2022-08-01T13:06:03.000Z</time>
      </trkpt>
      <trkpt lat="49.35812" lon="-1.19819">
        <ele>3.313571</ele>
        <time>2022-08-01T13:06:04.000Z</time>
      </trkpt>
      <trkpt lat="49.35809" lon="-1.19825">
        <ele>3.317126</ele>
        <time>2022-08-01T13:06:05.000Z</time>
      </trkpt>
      <trkpt lat="49.35805" lon="-1.19831">
        <ele>3.321161</ele>
        <time>2022-08-01T13:06:06.000Z</time>
      </trkpt>
      <trkpt lat="49.35803" lon="-1.19837">
        <ele>3.324874</ele>
        <time>2022-08-01T13:06:07.000Z</time>
      </trkpt>
      <trkpt lat="49.35799" lon="-1.19843">
        <ele>3.328732</ele>
        <time>2022-08-01T13:06:08.000Z</time>
      </trkpt>
      <trkpt lat="49.35796" lon="-1.19849">
        <ele>3.332539</ele>
        <time>2022-08-01T13:06:09.000Z</time>
      </trkpt>
      <trkpt lat="49.35792" lon="-1.19855">
        <ele>3.336163</ele>
        <time>2022-08-01T13:06:10.000Z</time>
      </trkpt>
      <trkpt lat="49.35789" lon="-1.1986">
        <ele>3.339823</ele>
        <time>2022-08-01T13:06:11.000Z</time>
      </trkpt>
      <trkpt lat="49.35786" lon="-1.19866">
        <ele>3.343447</ele>
        <time>2022-08-01T13:06:12.000Z</time>
      </trkpt>
      <trkpt lat="49.35783" lon="-1.19872">
        <ele>3.346854</ele>
        <time>2022-08-01T13:06:13.000Z</time>
      </trkpt>
      <trkpt lat="49.35781" lon="-1.19877">
        <ele>3.349967</ele>
        <time>2022-08-01T13:06:14.000Z</time>
      </trkpt>
      <trkpt lat="49.35777" lon="-1.19881">
        <ele>3.353373</ele>
        <time>2022-08-01T13:06:15.000Z</time>
      </trkpt>
      <trkpt lat="49.35774" lon="-1.19886">
        <ele>3.356549</ele>
        <time>2022-08-01T13:06:16.000Z</time>
      </trkpt>
      <trkpt lat="49.35771" lon="-1.1989">
        <ele>3.359431</ele>
        <time>2022-08-01T13:06:17.000Z</time>
      </trkpt>
      <trkpt lat="49.35768" lon="-1.19894">
        <ele>3.362482</ele>
        <time>2022-08-01T13:06:18.000Z</time>
      </trkpt>
      <trkpt lat="49.35766" lon="-1.19899">
        <ele>3.365186</ele>
        <time>2022-08-01T13:06:19.000Z</time>
      </trkpt>
      <trkpt lat="49.35764" lon="-1.19903">
        <ele>3.367941</ele>
        <time>2022-08-01T13:06:20.000Z</time>
      </trkpt>
      <trkpt lat="49.35761" lon="-1.19907">
        <ele>3.370536</ele>
        <time>2022-08-01T13:06:21.000Z</time>
      </trkpt>
      <trkpt lat="49.35759" lon="-1.19911">
        <ele>3.373034</ele>
        <time>2022-08-01T13:06:22.000Z</time>
      </trkpt>
      <trkpt lat="49.35757" lon="-1.19915">
        <ele>3.375447</ele>
        <time>2022-08-01T13:06:23.000Z</time>
      </trkpt>
      <trkpt lat="49.35754" lon="-1.19918">
        <ele>3.378035</ele>
        <time>2022-08-01T13:06:24.000Z</time>
      </trkpt>
      <trkpt lat="49.35753" lon="-1.19922">
        <ele>3.380296</ele>
        <time>2022-08-01T13:06:25.000Z</time>
      </trkpt>
      <trkpt lat="49.3575" lon="-1.19926">
        <ele>3.382863</ele>
        <time>2022-08-01T13:06:26.000Z</time>
      </trkpt>
      <trkpt lat="49.35748" lon="-1.1993">
        <ele>3.385057</ele>
        <time>2022-08-01T13:06:27.000Z</time>
      </trkpt>
      <trkpt lat="49.35746" lon="-1.19933">
        <ele>3.387451</ele>
        <time>2022-08-01T13:06:28.000Z</time>
      </trkpt>
      <trkpt lat="49.35744" lon="-1.19937">
        <ele>3.389913</ele>
        <time>2022-08-01T13:06:29.000Z</time>
      </trkpt>
      <trkpt lat="49.35742" lon="-1.19941">
        <ele>3.392297</ele>
        <time>2022-08-01T13:06:30.000Z</time>
      </trkpt>
      <trkpt lat="49.3574" lon="-1.19945">
        <ele>3.394681</ele>
        <time>2022-08-01T13:06:31.000Z</time>
      </trkpt>
      <trkpt lat="49.35738" lon="-1.19949">
        <ele>3.397179</ele>
        <time>2022-08-01T13:06:32.000Z</time>
      </trkpt>
      <trkpt lat="49.35736" lon="-1.19953">
        <ele>3.399563</ele>
        <time>2022-08-01T13:06:33.000Z</time>
      </trkpt>
      <trkpt lat="49.35734" lon="-1.19957">
        <ele>3.402084</ele>
        <time>2022-08-01T13:06:34.000Z</time>
      </trkpt>
      <trkpt lat="49.35732" lon="-1.19961">
        <ele>3.404629</ele>
        <time>2022-08-01T13:06:35.000Z</time>
      </trkpt>
      <trkpt lat="49.3573" lon="-1.19965">
        <ele>3.406974</ele>
        <time>2022-08-01T13:06:36.000Z</time>
      </trkpt>
      <trkpt lat="49.35728" lon="-1.19969">
        <ele>3.409281</ele>
        <time>2022-08-01T13:06:37.000Z</time>
      </trkpt>
      <trkpt lat="49.35726" lon="-1.19973">
        <ele>3.411665</ele>
        <time>2022-08-01T13:06:38.000Z</time>
      </trkpt>
      <trkpt lat="49.35724" lon="-1.19977">
        <ele>3.414127</ele>
        <time>2022-08-01T13:06:39.000Z</time>
      </trkpt>
      <trkpt lat="49.35722" lon="-1.19982">
        <ele>3.416672</ele>
        <time>2022-08-01T13:06:40.000Z</time>
      </trkpt>
      <trkpt lat="49.3572" lon="-1.19986">
        <ele>3.419267</ele>
        <time>2022-08-01T13:06:41.000Z</time>
      </trkpt>
      <trkpt lat="49.35718" lon="-1.19989">
        <ele>3.421498</ele>
        <time>2022-08-01T13:06:42.000Z</time>
      </trkpt>
      <trkpt lat="49.35716" lon="-1.19993">
        <ele>3.423767</ele>
        <time>2022-08-01T13:06:43.000Z</time>
      </trkpt>
      <trkpt lat="49.35714" lon="-1.19997">
        <ele>3.426195</ele>
        <time>2022-08-01T13:06:44.000Z</time>
      </trkpt>
      <trkpt lat="49.35712" lon="-1.20001">
        <ele>3.428791</ele>
        <time>2022-08-01T13:06:45.000Z</time>
      </trkpt>
      <trkpt lat="49.3571" lon="-1.20006">
        <ele>3.431293</ele>
        <time>2022-08-01T13:06:46.000Z</time>
      </trkpt>
      <trkpt lat="49.35708" lon="-1.2001">
        <ele>3.433795</ele>
        <time>2022-08-01T13:06:47.000Z</time>
      </trkpt>
      <trkpt lat="49.35707" lon="-1.20014">
        <ele>3.436222</ele>
        <time>2022-08-01T13:06:48.000Z</time>
      </trkpt>
      <trkpt lat="49.35705" lon="-1.20018">
        <ele>3.438523</ele>
        <time>2022-08-01T13:06:49.000Z</time>
      </trkpt>
      <trkpt lat="49.35703" lon="-1.20023">
        <ele>3.4471</ele>
        <time>2022-08-01T13:06:50.000Z</time>
      </trkpt>
      <trkpt lat="49.35701" lon="-1.20027">
        <ele>3.463152</ele>
        <time>2022-08-01T13:06:51.000Z</time>
      </trkpt>
      <trkpt lat="49.35699" lon="-1.20032">
        <ele>3.481369</ele>
        <time>2022-08-01T13:06:52.000Z</time>
      </trkpt>
      <trkpt lat="49.35697" lon="-1.20037">
        <ele>3.496895</ele>
        <time>2022-08-01T13:06:53.000Z</time>
      </trkpt>
      <trkpt lat="49.35695" lon="-1.20041">
        <ele>3.513715</ele>
        <time>2022-08-01T13:06:54.000Z</time>
      </trkpt>
      <trkpt lat="49.35694" lon="-1.20046">
        <ele>3.530111</ele>
        <time>2022-08-01T13:06:55.000Z</time>
      </trkpt>
      <trkpt lat="49.35693" lon="-1.20051">
        <ele>3.547047</ele>
        <time>2022-08-01T13:06:56.000Z</time>
      </trkpt>
      <trkpt lat="49.35692" lon="-1.20057">
        <ele>3.56441</ele>
        <time>2022-08-01T13:06:57.000Z</time>
      </trkpt>
      <trkpt lat="49.35691" lon="-1.20062">
        <ele>3.580476</ele>
        <time>2022-08-01T13:06:58.000Z</time>
      </trkpt>
      <trkpt lat="49.3569" lon="-1.20067">
        <ele>3.596963</ele>
        <time>2022-08-01T13:06:59.000Z</time>
      </trkpt>
      <trkpt lat="49.35689" lon="-1.20072">
        <ele>3.613449</ele>
        <time>2022-08-01T13:07:00.000Z</time>
      </trkpt>
      <trkpt lat="49.35688" lon="-1.20078">
        <ele>3.629806</ele>
        <time>2022-08-01T13:07:01.000Z</time>
      </trkpt>
      <trkpt lat="49.35687" lon="-1.20083">
        <ele>3.647026</ele>
        <time>2022-08-01T13:07:02.000Z</time>
      </trkpt>
      <trkpt lat="49.35686" lon="-1.20088">
        <ele>3.662294</ele>
        <time>2022-08-01T13:07:03.000Z</time>
      </trkpt>
      <trkpt lat="49.35685" lon="-1.20093">
        <ele>3.678198</ele>
        <time>2022-08-01T13:07:04.000Z</time>
      </trkpt>
      <trkpt lat="49.35685" lon="-1.20097">
        <ele>3.692512</ele>
        <time>2022-08-01T13:07:05.000Z</time>
      </trkpt>
      <trkpt lat="49.35684" lon="-1.20102">
        <ele>3.708125</ele>
        <time>2022-08-01T13:07:06.000Z</time>
      </trkpt>
      <trkpt lat="49.35682" lon="-1.20107">
        <ele>3.723183</ele>
        <time>2022-08-01T13:07:07.000Z</time>
      </trkpt>
      <trkpt lat="49.3568" lon="-1.20111">
        <ele>3.739309</ele>
        <time>2022-08-01T13:07:08.000Z</time>
      </trkpt>
      <trkpt lat="49.35679" lon="-1.20116">
        <ele>3.754367</ele>
        <time>2022-08-01T13:07:09.000Z</time>
      </trkpt>
      <trkpt lat="49.35677" lon="-1.2012">
        <ele>3.768781</ele>
        <time>2022-08-01T13:07:10.000Z</time>
      </trkpt>
      <trkpt lat="49.35675" lon="-1.20124">
        <ele>3.785648</ele>
        <time>2022-08-01T13:07:11.000Z</time>
      </trkpt>
      <trkpt lat="49.35673" lon="-1.20128">
        <ele>3.803047</ele>
        <time>2022-08-01T13:07:12.000Z</time>
      </trkpt>
      <trkpt lat="49.3567" lon="-1.20132">
        <ele>3.818842</ele>
        <time>2022-08-01T13:07:13.000Z</time>
      </trkpt>
      <trkpt lat="49.35668" lon="-1.20135">
        <ele>3.834785</ele>
        <time>2022-08-01T13:07:14.000Z</time>
      </trkpt>
      <trkpt lat="49.35665" lon="-1.20138">
        <ele>3.851282</ele>
        <time>2022-08-01T13:07:15.000Z</time>
      </trkpt>
      <trkpt lat="49.35662" lon="-1.20142">
        <ele>3.866873</ele>
        <time>2022-08-01T13:07:16.000Z</time>
      </trkpt>
      <trkpt lat="49.3566" lon="-1.20145">
        <ele>3.883016</ele>
        <time>2022-08-01T13:07:17.000Z</time>
      </trkpt>
      <trkpt lat="49.35657" lon="-1.20149">
        <ele>3.900425</ele>
        <time>2022-08-01T13:07:18.000Z</time>
      </trkpt>
      <trkpt lat="49.35654" lon="-1.20153">
        <ele>3.916636</ele>
        <time>2022-08-01T13:07:19.000Z</time>
      </trkpt>
      <trkpt lat="49.35652" lon="-1.20156">
        <ele>3.932384</ele>
        <time>2022-08-01T13:07:20.000Z</time>
      </trkpt>
      <trkpt lat="49.35648" lon="-1.20159">
        <ele>3.950551</ele>
        <time>2022-08-01T13:07:21.000Z</time>
      </trkpt>
      <trkpt lat="49.35646" lon="-1.20163">
        <ele>3.965943</ele>
        <time>2022-08-01T13:07:22.000Z</time>
      </trkpt>
      <trkpt lat="49.35643" lon="-1.20166">
        <ele>3.983545</ele>
        <time>2022-08-01T13:07:23.000Z</time>
      </trkpt>
      <trkpt lat="49.3564" lon="-1.2017">
        <ele>3.99989</ele>
        <time>2022-08-01T13:07:24.000Z</time>
      </trkpt>
      <trkpt lat="49.35638" lon="-1.20173">
        <ele>4.015685</ele>
        <time>2022-08-01T13:07:25.000Z</time>
      </trkpt>
      <trkpt lat="49.35635" lon="-1.20177">
        <ele>4.032719</ele>
        <time>2022-08-01T13:07:26.000Z</time>
      </trkpt>
      <trkpt lat="49.35632" lon="-1.2018">
        <ele>4.050129</ele>
        <time>2022-08-01T13:07:27.000Z</time>
      </trkpt>
      <trkpt lat="49.35629" lon="-1.20184">
        <ele>4.067349</ele>
        <time>2022-08-01T13:07:28.000Z</time>
      </trkpt>
      <trkpt lat="49.35627" lon="-1.20188">
        <ele>4.083987</ele>
        <time>2022-08-01T13:07:29.000Z</time>
      </trkpt>
      <trkpt lat="49.35624" lon="-1.20192">
        <ele>4.102187</ele>
        <time>2022-08-01T13:07:30.000Z</time>
      </trkpt>
      <trkpt lat="49.35621" lon="-1.20195">
        <ele>4.120707</ele>
        <time>2022-08-01T13:07:31.000Z</time>
      </trkpt>
      <trkpt lat="49.35618" lon="-1.20199">
        <ele>4.138309</ele>
        <time>2022-08-01T13:07:32.000Z</time>
      </trkpt>
      <trkpt lat="49.35615" lon="-1.20203">
        <ele>4.155912</ele>
        <time>2022-08-01T13:07:33.000Z</time>
      </trkpt>
      <trkpt lat="49.35612" lon="-1.20206">
        <ele>4.173322</ele>
        <time>2022-08-01T13:07:34.000Z</time>
      </trkpt>
      <trkpt lat="49.35609" lon="-1.2021">
        <ele>4.192023</ele>
        <time>2022-08-01T13:07:35.000Z</time>
      </trkpt>
      <trkpt lat="49.35605" lon="-1.20214">
        <ele>4.211523</ele>
        <time>2022-08-01T13:07:36.000Z</time>
      </trkpt>
      <trkpt lat="49.35602" lon="-1.20217">
        <ele>4.228374</ele>
        <time>2022-08-01T13:07:37.000Z</time>
      </trkpt>
      <trkpt lat="49.35599" lon="-1.2022">
        <ele>4.246541</ele>
        <time>2022-08-01T13:07:38.000Z</time>
      </trkpt>
      <trkpt lat="49.35596" lon="-1.20223">
        <ele>4.262481</ele>
        <time>2022-08-01T13:07:39.000Z</time>
      </trkpt>
      <trkpt lat="49.35593" lon="-1.20226">
        <ele>4.280898</ele>
        <time>2022-08-01T13:07:40.000Z</time>
      </trkpt>
      <trkpt lat="49.35589" lon="-1.2023">
        <ele>4.291565</ele>
        <time>2022-08-01T13:07:41.000Z</time>
      </trkpt>
      <trkpt lat="49.35587" lon="-1.20233">
        <ele>4.300924</ele>
        <time>2022-08-01T13:07:42.000Z</time>
      </trkpt>
      <trkpt lat="49.35583" lon="-1.20236">
        <ele>4.311202</ele>
        <time>2022-08-01T13:07:43.000Z</time>
      </trkpt>
      <trkpt lat="49.35581" lon="-1.20239">
        <ele>4.320787</ele>
        <time>2022-08-01T13:07:44.000Z</time>
      </trkpt>
      <trkpt lat="49.35577" lon="-1.20242">
        <ele>4.331159</ele>
        <time>2022-08-01T13:07:45.000Z</time>
      </trkpt>
      <trkpt lat="49.35574" lon="-1.20245">
        <ele>4.340744</ele>
        <time>2022-08-01T13:07:46.000Z</time>
      </trkpt>
      <trkpt lat="49.35571" lon="-1.20248">
        <ele>4.351732</ele>
        <time>2022-08-01T13:07:47.000Z</time>
      </trkpt>
      <trkpt lat="49.35568" lon="-1.20251">
        <ele>4.361734</ele>
        <time>2022-08-01T13:07:48.000Z</time>
      </trkpt>
      <trkpt lat="49.35564" lon="-1.20254">
        <ele>4.373529</ele>
        <time>2022-08-01T13:07:49.000Z</time>
      </trkpt>
      <trkpt lat="49.35561" lon="-1.20258">
        <ele>4.383997</ele>
        <time>2022-08-01T13:07:50.000Z</time>
      </trkpt>
      <trkpt lat="49.35558" lon="-1.20261">
        <ele>4.393787</ele>
        <time>2022-08-01T13:07:51.000Z</time>
      </trkpt>
      <trkpt lat="49.35555" lon="-1.20264">
        <ele>4.404064</ele>
        <time>2022-08-01T13:07:52.000Z</time>
      </trkpt>
      <trkpt lat="49.35551" lon="-1.20267">
        <ele>4.415052</ele>
        <time>2022-08-01T13:07:53.000Z</time>
      </trkpt>
      <trkpt lat="49.35549" lon="-1.2027">
        <ele>4.424738</ele>
        <time>2022-08-01T13:07:54.000Z</time>
      </trkpt>
      <trkpt lat="49.35545" lon="-1.20273">
        <ele>4.435016</ele>
        <time>2022-08-01T13:07:55.000Z</time>
      </trkpt>
      <trkpt lat="49.35542" lon="-1.20276">
        <ele>4.444805</ele>
        <time>2022-08-01T13:07:56.000Z</time>
      </trkpt>
      <trkpt lat="49.35539" lon="-1.20279">
        <ele>4.454814</ele>
        <time>2022-08-01T13:07:57.000Z</time>
      </trkpt>
      <trkpt lat="49.35537" lon="-1.20281">
        <ele>4.463319</ele>
        <time>2022-08-01T13:07:58.000Z</time>
      </trkpt>
      <trkpt lat="49.35533" lon="-1.20285">
        <ele>4.473787</ele>
        <time>2022-08-01T13:07:59.000Z</time>
      </trkpt>
      <trkpt lat="49.35531" lon="-1.20288">
        <ele>4.482485</ele>
        <time>2022-08-01T13:08:00.000Z</time>
      </trkpt>
      <trkpt lat="49.35528" lon="-1.20291">
        <ele>4.4914</ele>
        <time>2022-08-01T13:08:01.000Z</time>
      </trkpt>
      <trkpt lat="49.35525" lon="-1.20294">
        <ele>4.501967</ele>
        <time>2022-08-01T13:08:02.000Z</time>
      </trkpt>
      <trkpt lat="49.35522" lon="-1.20298">
        <ele>4.512948</ele>
        <time>2022-08-01T13:08:03.000Z</time>
      </trkpt>
      <trkpt lat="49.35519" lon="-1.20301">
        <ele>4.522842</ele>
        <time>2022-08-01T13:08:04.000Z</time>
      </trkpt>
      <trkpt lat="49.35516" lon="-1.20304">
        <ele>4.53331</ele>
        <time>2022-08-01T13:08:05.000Z</time>
      </trkpt>
      <trkpt lat="49.35513" lon="-1.20307">
        <ele>4.54267</ele>
        <time>2022-08-01T13:08:06.000Z</time>
      </trkpt>
      <trkpt lat="49.3551" lon="-1.2031">
        <ele>4.553138</ele>
        <time>2022-08-01T13:08:07.000Z</time>
      </trkpt>
      <trkpt lat="49.35507" lon="-1.20313">
        <ele>4.562824</ele>
        <time>2022-08-01T13:08:08.000Z</time>
      </trkpt>
      <trkpt lat="49.35503" lon="-1.20317">
        <ele>4.57399</ele>
        <time>2022-08-01T13:08:09.000Z</time>
      </trkpt>
      <trkpt lat="49.35501" lon="-1.2032">
        <ele>4.583885</ele>
        <time>2022-08-01T13:08:10.000Z</time>
      </trkpt>
      <trkpt lat="49.35498" lon="-1.20323">
        <ele>4.593674</ele>
        <time>2022-08-01T13:08:11.000Z</time>
      </trkpt>
      <trkpt lat="49.35494" lon="-1.20327">
        <ele>4.605124</ele>
        <time>2022-08-01T13:08:12.000Z</time>
      </trkpt>
      <trkpt lat="49.35491" lon="-1.2033">
        <ele>4.615235</ele>
        <time>2022-08-01T13:08:13.000Z</time>
      </trkpt>
      <trkpt lat="49.35488" lon="-1.20334">
        <ele>4.626685</ele>
        <time>2022-08-01T13:08:14.000Z</time>
      </trkpt>
      <trkpt lat="49.35484" lon="-1.20337">
        <ele>4.637851</ele>
        <time>2022-08-01T13:08:15.000Z</time>
      </trkpt>
      <trkpt lat="49.35481" lon="-1.2034">
        <ele>4.647962</ele>
        <time>2022-08-01T13:08:16.000Z</time>
      </trkpt>
      <trkpt lat="49.35478" lon="-1.20344">
        <ele>4.658837</ele>
        <time>2022-08-01T13:08:17.000Z</time>
      </trkpt>
      <trkpt lat="49.35475" lon="-1.20348">
        <ele>4.669404</ele>
        <time>2022-08-01T13:08:18.000Z</time>
      </trkpt>
      <trkpt lat="49.35472" lon="-1.20352">
        <ele>4.680716</ele>
        <time>2022-08-01T13:08:19.000Z</time>
      </trkpt>
      <trkpt lat="49.35469" lon="-1.20356">
        <ele>4.692027</ele>
        <time>2022-08-01T13:08:20.000Z</time>
      </trkpt>
      <trkpt lat="49.35466" lon="-1.20359">
        <ele>4.702797</ele>
        <time>2022-08-01T13:08:21.000Z</time>
      </trkpt>
      <trkpt lat="49.35463" lon="-1.20363">
        <ele>4.712908</ele>
        <time>2022-08-01T13:08:22.000Z</time>
      </trkpt>
      <trkpt lat="49.3546" lon="-1.20367">
        <ele>4.723997</ele>
        <time>2022-08-01T13:08:23.000Z</time>
      </trkpt>
      <trkpt lat="49.35456" lon="-1.2037">
        <ele>4.735087</ele>
        <time>2022-08-01T13:08:24.000Z</time>
      </trkpt>
      <trkpt lat="49.35453" lon="-1.20374">
        <ele>4.745856</ele>
        <time>2022-08-01T13:08:25.000Z</time>
      </trkpt>
      <trkpt lat="49.3545" lon="-1.20378">
        <ele>4.757711</ele>
        <time>2022-08-01T13:08:26.000Z</time>
      </trkpt>
      <trkpt lat="49.35446" lon="-1.20382">
        <ele>4.770142</ele>
        <time>2022-08-01T13:08:27.000Z</time>
      </trkpt>
      <trkpt lat="49.35442" lon="-1.20385">
        <ele>4.76554</ele>
        <time>2022-08-01T13:08:28.000Z</time>
      </trkpt>
      <trkpt lat="49.35438" lon="-1.20388">
        <ele>4.756001</ele>
        <time>2022-08-01T13:08:29.000Z</time>
      </trkpt>
      <trkpt lat="49.35435" lon="-1.20391">
        <ele>4.746961</ele>
        <time>2022-08-01T13:08:30.000Z</time>
      </trkpt>
      <trkpt lat="49.35431" lon="-1.20395">
        <ele>4.737608</ele>
        <time>2022-08-01T13:08:31.000Z</time>
      </trkpt>
      <trkpt lat="49.35428" lon="-1.20398">
        <ele>4.728593</ele>
        <time>2022-08-01T13:08:32.000Z</time>
      </trkpt>
      <trkpt lat="49.35424" lon="-1.20402">
        <ele>4.718689</ele>
        <time>2022-08-01T13:08:33.000Z</time>
      </trkpt>
      <trkpt lat="49.35421" lon="-1.20405">
        <ele>4.709649</ele>
        <time>2022-08-01T13:08:34.000Z</time>
      </trkpt>
      <trkpt lat="49.35417" lon="-1.20408">
        <ele>4.701543</ele>
        <time>2022-08-01T13:08:35.000Z</time>
      </trkpt>
      <trkpt lat="49.35414" lon="-1.20411">
        <ele>4.69272</ele>
        <time>2022-08-01T13:08:36.000Z</time>
      </trkpt>
      <trkpt lat="49.3541" lon="-1.20414">
        <ele>4.683772</ele>
        <time>2022-08-01T13:08:37.000Z</time>
      </trkpt>
      <trkpt lat="49.35407" lon="-1.20417">
        <ele>4.67495</ele>
        <time>2022-08-01T13:08:38.000Z</time>
      </trkpt>
      <trkpt lat="49.35403" lon="-1.2042">
        <ele>4.666264</ele>
        <time>2022-08-01T13:08:39.000Z</time>
      </trkpt>
      <trkpt lat="49.354" lon="-1.20423">
        <ele>4.657298</ele>
        <time>2022-08-01T13:08:40.000Z</time>
      </trkpt>
      <trkpt lat="49.35396" lon="-1.20426">
        <ele>4.648405</ele>
        <time>2022-08-01T13:08:41.000Z</time>
      </trkpt>
      <trkpt lat="49.35392" lon="-1.20429">
        <ele>4.638804</ele>
        <time>2022-08-01T13:08:42.000Z</time>
      </trkpt>
      <trkpt lat="49.35389" lon="-1.20432">
        <ele>4.629688</ele>
        <time>2022-08-01T13:08:43.000Z</time>
      </trkpt>
      <trkpt lat="49.35386" lon="-1.20436">
        <ele>4.620957</ele>
        <time>2022-08-01T13:08:44.000Z</time>
      </trkpt>
      <trkpt lat="49.35382" lon="-1.20439">
        <ele>4.611991</ele>
        <time>2022-08-01T13:08:45.000Z</time>
      </trkpt>
      <trkpt lat="49.35379" lon="-1.20442">
        <ele>4.603025</ele>
        <time>2022-08-01T13:08:46.000Z</time>
      </trkpt>
      <trkpt lat="49.35376" lon="-1.20446">
        <ele>4.594906</ele>
        <time>2022-08-01T13:08:47.000Z</time>
      </trkpt>
      <trkpt lat="49.35372" lon="-1.20449">
        <ele>4.585634</ele>
        <time>2022-08-01T13:08:48.000Z</time>
      </trkpt>
      <trkpt lat="49.35368" lon="-1.20453">
        <ele>4.57539</ele>
        <time>2022-08-01T13:08:49.000Z</time>
      </trkpt>
      <trkpt lat="49.35365" lon="-1.20457">
        <ele>4.565781</ele>
        <time>2022-08-01T13:08:50.000Z</time>
      </trkpt>
      <trkpt lat="49.35361" lon="-1.2046">
        <ele>4.556816</ele>
        <time>2022-08-01T13:08:51.000Z</time>
      </trkpt>
      <trkpt lat="49.35358" lon="-1.20463">
        <ele>4.548563</ele>
        <time>2022-08-01T13:08:52.000Z</time>
      </trkpt>
      <trkpt lat="49.35354" lon="-1.20466">
        <ele>4.538621</ele>
        <time>2022-08-01T13:08:53.000Z</time>
      </trkpt>
      <trkpt lat="49.3535" lon="-1.2047">
        <ele>4.529349</ele>
        <time>2022-08-01T13:08:54.000Z</time>
      </trkpt>
      <trkpt lat="49.35348" lon="-1.20473">
        <ele>4.521317</ele>
        <time>2022-08-01T13:08:55.000Z</time>
      </trkpt>
      <trkpt lat="49.35344" lon="-1.20476">
        <ele>4.512495</ele>
        <time>2022-08-01T13:08:56.000Z</time>
      </trkpt>
      <trkpt lat="49.35341" lon="-1.20479">
        <ele>4.503602</ele>
        <time>2022-08-01T13:08:57.000Z</time>
      </trkpt>
      <trkpt lat="49.35337" lon="-1.20482">
        <ele>4.494001</ele>
        <time>2022-08-01T13:08:58.000Z</time>
      </trkpt>
      <trkpt lat="49.35334" lon="-1.20486">
        <ele>4.486144</ele>
        <time>2022-08-01T13:08:59.000Z</time>
      </trkpt>
      <trkpt lat="49.3533" lon="-1.20488">
        <ele>4.477448</ele>
        <time>2022-08-01T13:09:00.000Z</time>
      </trkpt>
      <trkpt lat="49.35327" lon="-1.20491">
        <ele>4.469479</ele>
        <time>2022-08-01T13:09:01.000Z</time>
      </trkpt>
      <trkpt lat="49.35324" lon="-1.20494">
        <ele>4.461301</ele>
        <time>2022-08-01T13:09:02.000Z</time>
      </trkpt>
      <trkpt lat="49.35321" lon="-1.20497">
        <ele>4.453048</ele>
        <time>2022-08-01T13:09:03.000Z</time>
      </trkpt>
      <trkpt lat="49.35318" lon="-1.205">
        <ele>4.44545</ele>
        <time>2022-08-01T13:09:04.000Z</time>
      </trkpt>
      <trkpt lat="49.35314" lon="-1.20503">
        <ele>4.436435</ele>
        <time>2022-08-01T13:09:05.000Z</time>
      </trkpt>
      <trkpt lat="49.35311" lon="-1.20506">
        <ele>4.427469</ele>
        <time>2022-08-01T13:09:06.000Z</time>
      </trkpt>
      <trkpt lat="49.35307" lon="-1.20509">
        <ele>4.418783</ele>
        <time>2022-08-01T13:09:07.000Z</time>
      </trkpt>
      <trkpt lat="49.35304" lon="-1.20512">
        <ele>4.410531</ele>
        <time>2022-08-01T13:09:08.000Z</time>
      </trkpt>
      <trkpt lat="49.35301" lon="-1.20515">
        <ele>4.402278</ele>
        <time>2022-08-01T13:09:09.000Z</time>
      </trkpt>
      <trkpt lat="49.35297" lon="-1.20518">
        <ele>4.392874</ele>
        <time>2022-08-01T13:09:10.000Z</time>
      </trkpt>
      <trkpt lat="49.35293" lon="-1.2052">
        <ele>4.384236</ele>
        <time>2022-08-01T13:09:11.000Z</time>
      </trkpt>
      <trkpt lat="49.3529" lon="-1.20522">
        <ele>4.376944</ele>
        <time>2022-08-01T13:09:12.000Z</time>
      </trkpt>
      <trkpt lat="49.35286" lon="-1.20525">
        <ele>4.380282</ele>
        <time>2022-08-01T13:09:13.000Z</time>
      </trkpt>
      <trkpt lat="49.35283" lon="-1.20527">
        <ele>4.383513</ele>
        <time>2022-08-01T13:09:14.000Z</time>
      </trkpt>
      <trkpt lat="49.35279" lon="-1.20529">
        <ele>4.386946</ele>
        <time>2022-08-01T13:09:15.000Z</time>
      </trkpt>
      <trkpt lat="49.35275" lon="-1.20531">
        <ele>4.390177</ele>
        <time>2022-08-01T13:09:16.000Z</time>
      </trkpt>
      <trkpt lat="49.35271" lon="-1.20533">
        <ele>4.393518</ele>
        <time>2022-08-01T13:09:17.000Z</time>
      </trkpt>
      <trkpt lat="49.35267" lon="-1.20535">
        <ele>4.396817</ele>
        <time>2022-08-01T13:09:18.000Z</time>
      </trkpt>
      <trkpt lat="49.35263" lon="-1.20537">
        <ele>4.400081</ele>
        <time>2022-08-01T13:09:19.000Z</time>
      </trkpt>
      <trkpt lat="49.3526" lon="-1.20539">
        <ele>4.402929</ele>
        <time>2022-08-01T13:09:20.000Z</time>
      </trkpt>
      <trkpt lat="49.35256" lon="-1.20542">
        <ele>4.406817</ele>
        <time>2022-08-01T13:09:21.000Z</time>
      </trkpt>
      <trkpt lat="49.35252" lon="-1.20544">
        <ele>4.410251</ele>
        <time>2022-08-01T13:09:22.000Z</time>
      </trkpt>
      <trkpt lat="49.35248" lon="-1.20547">
        <ele>4.413457</ele>
        <time>2022-08-01T13:09:23.000Z</time>
      </trkpt>
      <trkpt lat="49.35245" lon="-1.2055">
        <ele>4.416794</ele>
        <time>2022-08-01T13:09:24.000Z</time>
      </trkpt>
      <trkpt lat="49.35241" lon="-1.20554">
        <ele>4.420367</ele>
        <time>2022-08-01T13:09:25.000Z</time>
      </trkpt>
      <trkpt lat="49.35237" lon="-1.20557">
        <ele>4.423935</ele>
        <time>2022-08-01T13:09:26.000Z</time>
      </trkpt>
      <trkpt lat="49.35233" lon="-1.2056">
        <ele>4.427407</ele>
        <time>2022-08-01T13:09:27.000Z</time>
      </trkpt>
      <trkpt lat="49.35229" lon="-1.20563">
        <ele>4.431</ele>
        <time>2022-08-01T13:09:28.000Z</time>
      </trkpt>
      <trkpt lat="49.35226" lon="-1.20566">
        <ele>4.434471</ele>
        <time>2022-08-01T13:09:29.000Z</time>
      </trkpt>
      <trkpt lat="49.35222" lon="-1.20569">
        <ele>4.438018</ele>
        <time>2022-08-01T13:09:30.000Z</time>
      </trkpt>
      <trkpt lat="49.35218" lon="-1.20572">
        <ele>4.441562</ele>
        <time>2022-08-01T13:09:31.000Z</time>
      </trkpt>
      <trkpt lat="49.35214" lon="-1.20575">
        <ele>4.445033</ele>
        <time>2022-08-01T13:09:32.000Z</time>
      </trkpt>
      <trkpt lat="49.35211" lon="-1.20578">
        <ele>4.448265</ele>
        <time>2022-08-01T13:09:33.000Z</time>
      </trkpt>
      <trkpt lat="49.35207" lon="-1.20581">
        <ele>4.451698</ele>
        <time>2022-08-01T13:09:34.000Z</time>
      </trkpt>
      <trkpt lat="49.35203" lon="-1.20583">
        <ele>4.455282</ele>
        <time>2022-08-01T13:09:35.000Z</time>
      </trkpt>
      <trkpt lat="49.35198" lon="-1.20585">
        <ele>4.459103</ele>
        <time>2022-08-01T13:09:36.000Z</time>
      </trkpt>
      <trkpt lat="49.35194" lon="-1.20587">
        <ele>4.462427</ele>
        <time>2022-08-01T13:09:37.000Z</time>
      </trkpt>
      <trkpt lat="49.3519" lon="-1.20589">
        <ele>4.465922</ele>
        <time>2022-08-01T13:09:38.000Z</time>
      </trkpt>
      <trkpt lat="49.35186" lon="-1.20591">
        <ele>4.469202</ele>
        <time>2022-08-01T13:09:39.000Z</time>
      </trkpt>
      <trkpt lat="49.35182" lon="-1.20592">
        <ele>4.472567</ele>
        <time>2022-08-01T13:09:40.000Z</time>
      </trkpt>
      <trkpt lat="49.35178" lon="-1.20593">
        <ele>4.475763</ele>
        <time>2022-08-01T13:09:41.000Z</time>
      </trkpt>
      <trkpt lat="49.35175" lon="-1.20594">
        <ele>4.478689</ele>
        <time>2022-08-01T13:09:42.000Z</time>
      </trkpt>
      <trkpt lat="49.35171" lon="-1.20595">
        <ele>4.481877</ele>
        <time>2022-08-01T13:09:43.000Z</time>
      </trkpt>
      <trkpt lat="49.35167" lon="-1.20597">
        <ele>4.485143</ele>
        <time>2022-08-01T13:09:44.000Z</time>
      </trkpt>
      <trkpt lat="49.35163" lon="-1.20598">
        <ele>4.488318</ele>
        <time>2022-08-01T13:09:45.000Z</time>
      </trkpt>
      <trkpt lat="49.35159" lon="-1.206">
        <ele>4.491505</ele>
        <time>2022-08-01T13:09:46.000Z</time>
      </trkpt>
      <trkpt lat="49.35156" lon="-1.20602">
        <ele>4.494846</ele>
        <time>2022-08-01T13:09:47.000Z</time>
      </trkpt>
      <trkpt lat="49.35152" lon="-1.20604">
        <ele>4.49811</ele>
        <time>2022-08-01T13:09:48.000Z</time>
      </trkpt>
      <trkpt lat="49.35148" lon="-1.20605">
        <ele>4.501389</ele>
        <time>2022-08-01T13:09:49.000Z</time>
      </trkpt>
      <trkpt lat="49.35144" lon="-1.20606">
        <ele>4.504281</ele>
        <time>2022-08-01T13:09:50.000Z</time>
      </trkpt>
      <trkpt lat="49.35141" lon="-1.20607">
        <ele>4.506934</ele>
        <time>2022-08-01T13:09:51.000Z</time>
      </trkpt>
      <trkpt lat="49.35138" lon="-1.20609">
        <ele>4.509951</ele>
        <time>2022-08-01T13:09:52.000Z</time>
      </trkpt>
      <trkpt lat="49.35134" lon="-1.20611">
        <ele>4.512778</ele>
        <time>2022-08-01T13:09:53.000Z</time>
      </trkpt>
      <trkpt lat="49.35132" lon="-1.20613">
        <ele>4.51514</ele>
        <time>2022-08-01T13:09:54.000Z</time>
      </trkpt>
      <trkpt lat="49.35129" lon="-1.20615">
        <ele>4.517302</ele>
        <time>2022-08-01T13:09:55.000Z</time>
      </trkpt>
      <trkpt lat="49.35126" lon="-1.20616">
        <ele>4.519757</ele>
        <time>2022-08-01T13:09:56.000Z</time>
      </trkpt>
      <trkpt lat="49.35124" lon="-1.20617">
        <ele>4.521963</ele>
        <time>2022-08-01T13:09:57.000Z</time>
      </trkpt>
      <trkpt lat="49.35121" lon="-1.20619">
        <ele>4.515794</ele>
        <time>2022-08-01T13:09:58.000Z</time>
      </trkpt>
      <trkpt lat="49.35118" lon="-1.20621">
        <ele>4.499498</ele>
        <time>2022-08-01T13:09:59.000Z</time>
      </trkpt>
      <trkpt lat="49.35116" lon="-1.20622">
        <ele>4.484012</ele>
        <time>2022-08-01T13:10:00.000Z</time>
      </trkpt>
      <trkpt lat="49.35113" lon="-1.20623">
        <ele>4.46843</ele>
        <time>2022-08-01T13:10:01.000Z</time>
      </trkpt>
      <trkpt lat="49.3511" lon="-1.20624">
        <ele>4.453615</ele>
        <time>2022-08-01T13:10:02.000Z</time>
      </trkpt>
      <trkpt lat="49.35107" lon="-1.20626">
        <ele>4.436464</ele>
        <time>2022-08-01T13:10:03.000Z</time>
      </trkpt>
      <trkpt lat="49.35104" lon="-1.20628">
        <ele>4.420302</ele>
        <time>2022-08-01T13:10:04.000Z</time>
      </trkpt>
      <trkpt lat="49.351" lon="-1.2063">
        <ele>4.401382</ele>
        <time>2022-08-01T13:10:05.000Z</time>
      </trkpt>
      <trkpt lat="49.35097" lon="-1.20632">
        <ele>4.384801</ele>
        <time>2022-08-01T13:10:06.000Z</time>
      </trkpt>
      <trkpt lat="49.35094" lon="-1.20634">
        <ele>4.365539</ele>
        <time>2022-08-01T13:10:07.000Z</time>
      </trkpt>
      <trkpt lat="49.3509" lon="-1.20636">
        <ele>4.344565</ele>
        <time>2022-08-01T13:10:08.000Z</time>
      </trkpt>
      <trkpt lat="49.35086" lon="-1.20638">
        <ele>4.325422</ele>
        <time>2022-08-01T13:10:09.000Z</time>
      </trkpt>
      <trkpt lat="49.35083" lon="-1.20639">
        <ele>4.306703</ele>
        <time>2022-08-01T13:10:10.000Z</time>
      </trkpt>
      <trkpt lat="49.3508" lon="-1.20641">
        <ele>4.289553</ele>
        <time>2022-08-01T13:10:11.000Z</time>
      </trkpt>
      <trkpt lat="49.35076" lon="-1.20642">
        <ele>4.270927</ele>
        <time>2022-08-01T13:10:12.000Z</time>
      </trkpt>
      <trkpt lat="49.35073" lon="-1.20644">
        <ele>4.251413</ele>
        <time>2022-08-01T13:10:13.000Z</time>
      </trkpt>
      <trkpt lat="49.35069" lon="-1.20646">
        <ele>4.23227</ele>
        <time>2022-08-01T13:10:14.000Z</time>
      </trkpt>
      <trkpt lat="49.35066" lon="-1.20648">
        <ele>4.214432</ele>
        <time>2022-08-01T13:10:15.000Z</time>
      </trkpt>
      <trkpt lat="49.35063" lon="-1.2065">
        <ele>4.196845</ele>
        <time>2022-08-01T13:10:16.000Z</time>
      </trkpt>
      <trkpt lat="49.35059" lon="-1.20652">
        <ele>4.178126</ele>
        <time>2022-08-01T13:10:17.000Z</time>
      </trkpt>
      <trkpt lat="49.35056" lon="-1.20654">
        <ele>4.160539</ele>
        <time>2022-08-01T13:10:18.000Z</time>
      </trkpt>
      <trkpt lat="49.35053" lon="-1.20656">
        <ele>4.141024</ele>
        <time>2022-08-01T13:10:19.000Z</time>
      </trkpt>
      <trkpt lat="49.35049" lon="-1.20658">
        <ele>4.119947</ele>
        <time>2022-08-01T13:10:20.000Z</time>
      </trkpt>
      <trkpt lat="49.35045" lon="-1.2066">
        <ele>4.100804</ele>
        <time>2022-08-01T13:10:21.000Z</time>
      </trkpt>
      <trkpt lat="49.35041" lon="-1.20662">
        <ele>4.079986</ele>
        <time>2022-08-01T13:10:22.000Z</time>
      </trkpt>
      <trkpt lat="49.35038" lon="-1.20665">
        <ele>4.061875</ele>
        <time>2022-08-01T13:10:23.000Z</time>
      </trkpt>
      <trkpt lat="49.35035" lon="-1.20667">
        <ele>4.041796</ele>
        <time>2022-08-01T13:10:24.000Z</time>
      </trkpt>
      <trkpt lat="49.35031" lon="-1.2067">
        <ele>4.020002</ele>
        <time>2022-08-01T13:10:25.000Z</time>
      </trkpt>
      <trkpt lat="49.35027" lon="-1.20673">
        <ele>3.999454</ele>
        <time>2022-08-01T13:10:26.000Z</time>
      </trkpt>
      <trkpt lat="49.35024" lon="-1.20675">
        <ele>3.981049</ele>
        <time>2022-08-01T13:10:27.000Z</time>
      </trkpt>
      <trkpt lat="49.35021" lon="-1.20678">
        <ele>3.961262</ele>
        <time>2022-08-01T13:10:28.000Z</time>
      </trkpt>
      <trkpt lat="49.35018" lon="-1.2068">
        <ele>3.946776</ele>
        <time>2022-08-01T13:10:29.000Z</time>
      </trkpt>
      <trkpt lat="49.35014" lon="-1.20683">
        <ele>3.92456</ele>
        <time>2022-08-01T13:10:30.000Z</time>
      </trkpt>
      <trkpt lat="49.35011" lon="-1.20686">
        <ele>3.903847</ele>
        <time>2022-08-01T13:10:31.000Z</time>
      </trkpt>
      <trkpt lat="49.35007" lon="-1.20689">
        <ele>3.88285</ele>
        <time>2022-08-01T13:10:32.000Z</time>
      </trkpt>
      <trkpt lat="49.35004" lon="-1.20692">
        <ele>3.862772</ele>
        <time>2022-08-01T13:10:33.000Z</time>
      </trkpt>
      <trkpt lat="49.35" lon="-1.20694">
        <ele>3.842694</ele>
        <time>2022-08-01T13:10:34.000Z</time>
      </trkpt>
      <trkpt lat="49.34997" lon="-1.20697">
        <ele>3.823813</ele>
        <time>2022-08-01T13:10:35.000Z</time>
      </trkpt>
      <trkpt lat="49.34993" lon="-1.207">
        <ele>3.803735</ele>
        <time>2022-08-01T13:10:36.000Z</time>
      </trkpt>
      <trkpt lat="49.3499" lon="-1.20703">
        <ele>3.784855</ele>
        <time>2022-08-01T13:10:37.000Z</time>
      </trkpt>
      <trkpt lat="49.34987" lon="-1.20706">
        <ele>3.764307</ele>
        <time>2022-08-01T13:10:38.000Z</time>
      </trkpt>
      <trkpt lat="49.34983" lon="-1.20709">
        <ele>3.745087</ele>
        <time>2022-08-01T13:10:39.000Z</time>
      </trkpt>
      <trkpt lat="49.3498" lon="-1.20711">
        <ele>3.72637</ele>
        <time>2022-08-01T13:10:40.000Z</time>
      </trkpt>
      <trkpt lat="49.34977" lon="-1.20714">
        <ele>3.707811</ele>
        <time>2022-08-01T13:10:41.000Z</time>
      </trkpt>
      <trkpt lat="49.34973" lon="-1.20717">
        <ele>3.687274</ele>
        <time>2022-08-01T13:10:42.000Z</time>
      </trkpt>
      <trkpt lat="49.3497" lon="-1.2072">
        <ele>3.667513</ele>
        <time>2022-08-01T13:10:43.000Z</time>
      </trkpt>
      <trkpt lat="49.34967" lon="-1.20723">
        <ele>3.646282</ele>
        <time>2022-08-01T13:10:44.000Z</time>
      </trkpt>
      <trkpt lat="49.34964" lon="-1.20726">
        <ele>3.626887</ele>
        <time>2022-08-01T13:10:45.000Z</time>
      </trkpt>
      <trkpt lat="49.3496" lon="-1.20729">
        <ele>3.608169</ele>
        <time>2022-08-01T13:10:46.000Z</time>
      </trkpt>
      <trkpt lat="49.34957" lon="-1.20731">
        <ele>3.596903</ele>
        <time>2022-08-01T13:10:47.000Z</time>
      </trkpt>
      <trkpt lat="49.34953" lon="-1.20734">
        <ele>3.590122</ele>
        <time>2022-08-01T13:10:48.000Z</time>
      </trkpt>
      <trkpt lat="49.3495" lon="-1.20737">
        <ele>3.583393</ele>
        <time>2022-08-01T13:10:49.000Z</time>
      </trkpt>
      <trkpt lat="49.34947" lon="-1.2074">
        <ele>3.57743</ele>
        <time>2022-08-01T13:10:50.000Z</time>
      </trkpt>
      <trkpt lat="49.34943" lon="-1.20743">
        <ele>3.570427</ele>
        <time>2022-08-01T13:10:51.000Z</time>
      </trkpt>
      <trkpt lat="49.3494" lon="-1.20746">
        <ele>3.563443</ele>
        <time>2022-08-01T13:10:52.000Z</time>
      </trkpt>
      <trkpt lat="49.34937" lon="-1.20749">
        <ele>3.557217</ele>
        <time>2022-08-01T13:10:53.000Z</time>
      </trkpt>
      <trkpt lat="49.34933" lon="-1.20752">
        <ele>3.550635</ele>
        <time>2022-08-01T13:10:54.000Z</time>
      </trkpt>
      <trkpt lat="49.3493" lon="-1.20754">
        <ele>3.543956</ele>
        <time>2022-08-01T13:10:55.000Z</time>
      </trkpt>
      <trkpt lat="49.34926" lon="-1.20756">
        <ele>3.537549</ele>
        <time>2022-08-01T13:10:56.000Z</time>
      </trkpt>
      <trkpt lat="49.34923" lon="-1.20758">
        <ele>3.531699</ele>
        <time>2022-08-01T13:10:57.000Z</time>
      </trkpt>
      <trkpt lat="49.34919" lon="-1.2076">
        <ele>3.524688</ele>
        <time>2022-08-01T13:10:58.000Z</time>
      </trkpt>
      <trkpt lat="49.34916" lon="-1.20762">
        <ele>3.518395</ele>
        <time>2022-08-01T13:10:59.000Z</time>
      </trkpt>
      <trkpt lat="49.34912" lon="-1.20764">
        <ele>3.511705</ele>
        <time>2022-08-01T13:11:00.000Z</time>
      </trkpt>
      <trkpt lat="49.34908" lon="-1.20764">
        <ele>3.50501</ele>
        <time>2022-08-01T13:11:01.000Z</time>
      </trkpt>
      <trkpt lat="49.34904" lon="-1.20764">
        <ele>3.49853</ele>
        <time>2022-08-01T13:11:02.000Z</time>
      </trkpt>
      <trkpt lat="49.349" lon="-1.20764">
        <ele>3.49205</ele>
        <time>2022-08-01T13:11:03.000Z</time>
      </trkpt>
      <trkpt lat="49.34896" lon="-1.20764">
        <ele>3.484889</ele>
        <time>2022-08-01T13:11:04.000Z</time>
      </trkpt>
      <trkpt lat="49.34892" lon="-1.20765">
        <ele>3.477177</ele>
        <time>2022-08-01T13:11:05.000Z</time>
      </trkpt>
      <trkpt lat="49.34887" lon="-1.20765">
        <ele>3.469501</ele>
        <time>2022-08-01T13:11:06.000Z</time>
      </trkpt>
      <trkpt lat="49.34882" lon="-1.20766">
        <ele>3.46131</ele>
        <time>2022-08-01T13:11:07.000Z</time>
      </trkpt>
      <trkpt lat="49.34878" lon="-1.20766">
        <ele>3.454264</ele>
        <time>2022-08-01T13:11:08.000Z</time>
      </trkpt>
      <trkpt lat="49.34874" lon="-1.20768">
        <ele>3.446435</ele>
        <time>2022-08-01T13:11:09.000Z</time>
      </trkpt>
      <trkpt lat="49.34869" lon="-1.2077">
        <ele>3.439</ele>
        <time>2022-08-01T13:11:10.000Z</time>
      </trkpt>
      <trkpt lat="49.34865" lon="-1.20771">
        <ele>3.431759</ele>
        <time>2022-08-01T13:11:11.000Z</time>
      </trkpt>
      <trkpt lat="49.34861" lon="-1.20774">
        <ele>3.424038</ele>
        <time>2022-08-01T13:11:12.000Z</time>
      </trkpt>
      <trkpt lat="49.34856" lon="-1.20776">
        <ele>3.415497</ele>
        <time>2022-08-01T13:11:13.000Z</time>
      </trkpt>
      <trkpt lat="49.34852" lon="-1.20778">
        <ele>3.408091</ele>
        <time>2022-08-01T13:11:14.000Z</time>
      </trkpt>
      <trkpt lat="49.34848" lon="-1.2078">
        <ele>3.40056</ele>
        <time>2022-08-01T13:11:15.000Z</time>
      </trkpt>
      <trkpt lat="49.34844" lon="-1.20783">
        <ele>3.39288</ele>
        <time>2022-08-01T13:11:16.000Z</time>
      </trkpt>
      <trkpt lat="49.34839" lon="-1.20785">
        <ele>3.38488</ele>
        <time>2022-08-01T13:11:17.000Z</time>
      </trkpt>
      <trkpt lat="49.34835" lon="-1.20788">
        <ele>3.377117</ele>
        <time>2022-08-01T13:11:18.000Z</time>
      </trkpt>
      <trkpt lat="49.34831" lon="-1.20791">
        <ele>3.368957</ele>
        <time>2022-08-01T13:11:19.000Z</time>
      </trkpt>
      <trkpt lat="49.34827" lon="-1.20793">
        <ele>3.361552</ele>
        <time>2022-08-01T13:11:20.000Z</time>
      </trkpt>
      <trkpt lat="49.34823" lon="-1.20795">
        <ele>3.354541</ele>
        <time>2022-08-01T13:11:21.000Z</time>
      </trkpt>
      <trkpt lat="49.34819" lon="-1.20797">
        <ele>3.34727</ele>
        <time>2022-08-01T13:11:22.000Z</time>
      </trkpt>
      <trkpt lat="49.34815" lon="-1.20798">
        <ele>3.340466</ele>
        <time>2022-08-01T13:11:23.000Z</time>
      </trkpt>
      <trkpt lat="49.34811" lon="-1.208">
        <ele>3.333131</ele>
        <time>2022-08-01T13:11:24.000Z</time>
      </trkpt>
      <trkpt lat="49.34807" lon="-1.20802">
        <ele>3.326154</ele>
        <time>2022-08-01T13:11:25.000Z</time>
      </trkpt>
      <trkpt lat="49.34803" lon="-1.20803">
        <ele>3.319436</ele>
        <time>2022-08-01T13:11:26.000Z</time>
      </trkpt>
      <trkpt lat="49.348" lon="-1.20805">
        <ele>3.313763</ele>
        <time>2022-08-01T13:11:27.000Z</time>
      </trkpt>
      <trkpt lat="49.34796" lon="-1.20806">
        <ele>3.307671</ele>
        <time>2022-08-01T13:11:28.000Z</time>
      </trkpt>
      <trkpt lat="49.34792" lon="-1.20807">
        <ele>3.300816</ele>
        <time>2022-08-01T13:11:29.000Z</time>
      </trkpt>
      <trkpt lat="49.34789" lon="-1.20809">
        <ele>3.295083</ele>
        <time>2022-08-01T13:11:30.000Z</time>
      </trkpt>
      <trkpt lat="49.34785" lon="-1.2081">
        <ele>3.318376</ele>
        <time>2022-08-01T13:11:31.000Z</time>
      </trkpt>
      <trkpt lat="49.34781" lon="-1.20811">
        <ele>3.346398</ele>
        <time>2022-08-01T13:11:32.000Z</time>
      </trkpt>
      <trkpt lat="49.34777" lon="-1.20812">
        <ele>3.371611</ele>
        <time>2022-08-01T13:11:33.000Z</time>
      </trkpt>
      <trkpt lat="49.34773" lon="-1.20814">
        <ele>3.397825</ele>
        <time>2022-08-01T13:11:34.000Z</time>
      </trkpt>
      <trkpt lat="49.34769" lon="-1.20815">
        <ele>3.423305</ele>
        <time>2022-08-01T13:11:35.000Z</time>
      </trkpt>
      <trkpt lat="49.34765" lon="-1.20817">
        <ele>3.453329</ele>
        <time>2022-08-01T13:11:36.000Z</time>
      </trkpt>
      <trkpt lat="49.34761" lon="-1.20818">
        <ele>3.481544</ele>
        <time>2022-08-01T13:11:37.000Z</time>
      </trkpt>
      <trkpt lat="49.34757" lon="-1.20821">
        <ele>3.508335</ele>
        <time>2022-08-01T13:11:38.000Z</time>
      </trkpt>
      <trkpt lat="49.34753" lon="-1.20823">
        <ele>3.534668</ele>
        <time>2022-08-01T13:11:39.000Z</time>
      </trkpt>
      <trkpt lat="49.34749" lon="-1.20825">
        <ele>3.562225</ele>
        <time>2022-08-01T13:11:40.000Z</time>
      </trkpt>
      <trkpt lat="49.34745" lon="-1.20828">
        <ele>3.589016</ele>
        <time>2022-08-01T13:11:41.000Z</time>
      </trkpt>
      <trkpt lat="49.34741" lon="-1.20831">
        <ele>3.617458</ele>
        <time>2022-08-01T13:11:42.000Z</time>
      </trkpt>
      <trkpt lat="49.34738" lon="-1.20834">
        <ele>3.643326</ele>
        <time>2022-08-01T13:11:43.000Z</time>
      </trkpt>
      <trkpt lat="49.34734" lon="-1.20838">
        <ele>3.67313</ele>
        <time>2022-08-01T13:11:44.000Z</time>
      </trkpt>
      <trkpt lat="49.34731" lon="-1.20842">
        <ele>3.701081</ele>
        <time>2022-08-01T13:11:45.000Z</time>
      </trkpt>
      <trkpt lat="49.34727" lon="-1.20846">
        <ele>3.730311</ele>
        <time>2022-08-01T13:11:46.000Z</time>
      </trkpt>
      <trkpt lat="49.34724" lon="-1.2085">
        <ele>3.757218</ele>
        <time>2022-08-01T13:11:47.000Z</time>
      </trkpt>
      <trkpt lat="49.3472" lon="-1.20854">
        <ele>3.787566</ele>
        <time>2022-08-01T13:11:48.000Z</time>
      </trkpt>
      <trkpt lat="49.34717" lon="-1.20858">
        <ele>3.813945</ele>
        <time>2022-08-01T13:11:49.000Z</time>
      </trkpt>
      <trkpt lat="49.34714" lon="-1.20862">
        <ele>3.837998</ele>
        <time>2022-08-01T13:11:50.000Z</time>
      </trkpt>
      <trkpt lat="49.34711" lon="-1.20865">
        <ele>3.863616</ele>
        <time>2022-08-01T13:11:51.000Z</time>
      </trkpt>
      <trkpt lat="49.34709" lon="-1.20868">
        <ele>3.88484</ele>
        <time>2022-08-01T13:11:52.000Z</time>
      </trkpt>
      <trkpt lat="49.34705" lon="-1.20872">
        <ele>3.911747</ele>
        <time>2022-08-01T13:11:53.000Z</time>
      </trkpt>
      <trkpt lat="49.34702" lon="-1.20876">
        <ele>3.9358</ele>
        <time>2022-08-01T13:11:54.000Z</time>
      </trkpt>
      <trkpt lat="49.34699" lon="-1.20879">
        <ele>3.962147</ele>
        <time>2022-08-01T13:11:55.000Z</time>
      </trkpt>
      <trkpt lat="49.34695" lon="-1.20883">
        <ele>3.992495</ele>
        <time>2022-08-01T13:11:56.000Z</time>
      </trkpt>
      <trkpt lat="49.34692" lon="-1.20886">
        <ele>4.019965</ele>
        <time>2022-08-01T13:11:57.000Z</time>
      </trkpt>
      <trkpt lat="49.34688" lon="-1.2089">
        <ele>4.046606</ele>
        <time>2022-08-01T13:11:58.000Z</time>
      </trkpt>
      <trkpt lat="49.34685" lon="-1.20895">
        <ele>4.074335</ele>
        <time>2022-08-01T13:11:59.000Z</time>
      </trkpt>
      <trkpt lat="49.34682" lon="-1.20899">
        <ele>4.100331</ele>
        <time>2022-08-01T13:12:00.000Z</time>
      </trkpt>
      <trkpt lat="49.34679" lon="-1.20903">
        <ele>4.12956</ele>
        <time>2022-08-01T13:12:01.000Z</time>
      </trkpt>
      <trkpt lat="49.34675" lon="-1.20907">
        <ele>4.158011</ele>
        <time>2022-08-01T13:12:02.000Z</time>
      </trkpt>
      <trkpt lat="49.34672" lon="-1.20911">
        <ele>4.1843</ele>
        <time>2022-08-01T13:12:03.000Z</time>
      </trkpt>
      <trkpt lat="49.34669" lon="-1.20916">
        <ele>4.213266</ele>
        <time>2022-08-01T13:12:04.000Z</time>
      </trkpt>
      <trkpt lat="49.34666" lon="-1.2092">
        <ele>4.242143</ele>
        <time>2022-08-01T13:12:05.000Z</time>
      </trkpt>
      <trkpt lat="49.34663" lon="-1.20924">
        <ele>4.267849</ele>
        <time>2022-08-01T13:12:06.000Z</time>
      </trkpt>
      <trkpt lat="49.34659" lon="-1.20929">
        <ele>4.296815</ele>
        <time>2022-08-01T13:12:07.000Z</time>
      </trkpt>
      <trkpt lat="49.34656" lon="-1.20933">
        <ele>4.324267</ele>
        <time>2022-08-01T13:12:08.000Z</time>
      </trkpt>
      <trkpt lat="49.34653" lon="-1.20937">
        <ele>4.352563</ele>
        <time>2022-08-01T13:12:09.000Z</time>
      </trkpt>
      <trkpt lat="49.3465" lon="-1.20942">
        <ele>4.381148</ele>
        <time>2022-08-01T13:12:10.000Z</time>
      </trkpt>
      <trkpt lat="49.34647" lon="-1.20947">
        <ele>4.407992</ele>
        <time>2022-08-01T13:12:11.000Z</time>
      </trkpt>
      <trkpt lat="49.34644" lon="-1.20952">
        <ele>4.437764</ele>
        <time>2022-08-01T13:12:12.000Z</time>
      </trkpt>
      <trkpt lat="49.34641" lon="-1.20957">
        <ele>4.465132</ele>
        <time>2022-08-01T13:12:13.000Z</time>
      </trkpt>
      <trkpt lat="49.34638" lon="-1.20962">
        <ele>4.451163</ele>
        <time>2022-08-01T13:12:14.000Z</time>
      </trkpt>
      <trkpt lat="49.34636" lon="-1.20967">
        <ele>4.434855</ele>
        <time>2022-08-01T13:12:15.000Z</time>
      </trkpt>
      <trkpt lat="49.34633" lon="-1.20971">
        <ele>4.419895</ele>
        <time>2022-08-01T13:12:16.000Z</time>
      </trkpt>
      <trkpt lat="49.34631" lon="-1.20976">
        <ele>4.404177</ele>
        <time>2022-08-01T13:12:17.000Z</time>
      </trkpt>
      <trkpt lat="49.34628" lon="-1.20981">
        <ele>4.387196</ele>
        <time>2022-08-01T13:12:18.000Z</time>
      </trkpt>
      <trkpt lat="49.34625" lon="-1.20985">
        <ele>4.37173</ele>
        <time>2022-08-01T13:12:19.000Z</time>
      </trkpt>
      <trkpt lat="49.34623" lon="-1.2099">
        <ele>4.356541</ele>
        <time>2022-08-01T13:12:20.000Z</time>
      </trkpt>
      <trkpt lat="49.3462" lon="-1.20995">
        <ele>4.341074</ele>
        <time>2022-08-01T13:12:21.000Z</time>
      </trkpt>
      <trkpt lat="49.34618" lon="-1.21">
        <ele>4.325471</ele>
        <time>2022-08-01T13:12:22.000Z</time>
      </trkpt>
      <trkpt lat="49.34615" lon="-1.21005">
        <ele>4.309806</ele>
        <time>2022-08-01T13:12:23.000Z</time>
      </trkpt>
      <trkpt lat="49.34613" lon="-1.21009">
        <ele>4.293894</ele>
        <time>2022-08-01T13:12:24.000Z</time>
      </trkpt>
      <trkpt lat="49.3461" lon="-1.21014">
        <ele>4.277019</ele>
        <time>2022-08-01T13:12:25.000Z</time>
      </trkpt>
      <trkpt lat="49.34607" lon="-1.21019">
        <ele>4.261943</ele>
        <time>2022-08-01T13:12:26.000Z</time>
      </trkpt>
      <trkpt lat="49.34605" lon="-1.21023">
        <ele>4.246989</ele>
        <time>2022-08-01T13:12:27.000Z</time>
      </trkpt>
      <trkpt lat="49.34602" lon="-1.21028">
        <ele>4.231656</ele>
        <time>2022-08-01T13:12:28.000Z</time>
      </trkpt>
      <trkpt lat="49.346" lon="-1.21032">
        <ele>4.21619</ele>
        <time>2022-08-01T13:12:29.000Z</time>
      </trkpt>
      <trkpt lat="49.34597" lon="-1.21037">
        <ele>4.200277</ele>
        <time>2022-08-01T13:12:30.000Z</time>
      </trkpt>
      <trkpt lat="49.34594" lon="-1.21042">
        <ele>4.184142</ele>
        <time>2022-08-01T13:12:31.000Z</time>
      </trkpt>
      <trkpt lat="49.34592" lon="-1.21047">
        <ele>4.168075</ele>
        <time>2022-08-01T13:12:32.000Z</time>
      </trkpt>
      <trkpt lat="49.34589" lon="-1.21051">
        <ele>4.152743</ele>
        <time>2022-08-01T13:12:33.000Z</time>
      </trkpt>
      <trkpt lat="49.34587" lon="-1.21056">
        <ele>4.137668</ele>
        <time>2022-08-01T13:12:34.000Z</time>
      </trkpt>
      <trkpt lat="49.34584" lon="-1.2106">
        <ele>4.123088</ele>
        <time>2022-08-01T13:12:35.000Z</time>
      </trkpt>
      <trkpt lat="49.34582" lon="-1.21065">
        <ele>4.107621</ele>
        <time>2022-08-01T13:12:36.000Z</time>
      </trkpt>
      <trkpt lat="49.34579" lon="-1.2107">
        <ele>4.089754</ele>
        <time>2022-08-01T13:12:37.000Z</time>
      </trkpt>
      <trkpt lat="49.34576" lon="-1.21074">
        <ele>4.07423</ele>
        <time>2022-08-01T13:12:38.000Z</time>
      </trkpt>
      <trkpt lat="49.34573" lon="-1.21079">
        <ele>4.057355</ele>
        <time>2022-08-01T13:12:39.000Z</time>
      </trkpt>
      <trkpt lat="49.34571" lon="-1.21084">
        <ele>4.041288</ele>
        <time>2022-08-01T13:12:40.000Z</time>
      </trkpt>
      <trkpt lat="49.34568" lon="-1.21089">
        <ele>4.025764</ele>
        <time>2022-08-01T13:12:41.000Z</time>
      </trkpt>
      <trkpt lat="49.34565" lon="-1.21093">
        <ele>4.010432</ele>
        <time>2022-08-01T13:12:42.000Z</time>
      </trkpt>
      <trkpt lat="49.34563" lon="-1.21098">
        <ele>3.99568</ele>
        <time>2022-08-01T13:12:43.000Z</time>
      </trkpt>
      <trkpt lat="49.3456" lon="-1.21103">
        <ele>3.979544</ele>
        <time>2022-08-01T13:12:44.000Z</time>
      </trkpt>
      <trkpt lat="49.34558" lon="-1.21107">
        <ele>3.965607</ele>
        <time>2022-08-01T13:12:45.000Z</time>
      </trkpt>
      <trkpt lat="49.34555" lon="-1.21112">
        <ele>3.949106</ele>
        <time>2022-08-01T13:12:46.000Z</time>
      </trkpt>
      <trkpt lat="49.34553" lon="-1.21116">
        <ele>3.933773</ele>
        <time>2022-08-01T13:12:47.000Z</time>
      </trkpt>
      <trkpt lat="49.3455" lon="-1.21121">
        <ele>3.918108</ele>
        <time>2022-08-01T13:12:48.000Z</time>
      </trkpt>
      <trkpt lat="49.34548" lon="-1.21126">
        <ele>3.902391</ele>
        <time>2022-08-01T13:12:49.000Z</time>
      </trkpt>
      <trkpt lat="49.34545" lon="-1.2113">
        <ele>3.888049</ele>
        <time>2022-08-01T13:12:50.000Z</time>
      </trkpt>
      <trkpt lat="49.34542" lon="-1.21135">
        <ele>3.871914</ele>
        <time>2022-08-01T13:12:51.000Z</time>
      </trkpt>
      <trkpt lat="49.3454" lon="-1.21139">
        <ele>3.857977</ele>
        <time>2022-08-01T13:12:52.000Z</time>
      </trkpt>
      <trkpt lat="49.34538" lon="-1.21143">
        <ele>3.842644</ele>
        <time>2022-08-01T13:12:53.000Z</time>
      </trkpt>
      <trkpt lat="49.34535" lon="-1.21148">
        <ele>3.826509</ele>
        <time>2022-08-01T13:12:54.000Z</time>
      </trkpt>
      <trkpt lat="49.34532" lon="-1.21152">
        <ele>3.811434</ele>
        <time>2022-08-01T13:12:55.000Z</time>
      </trkpt>
      <trkpt lat="49.34529" lon="-1.21157">
        <ele>3.794959</ele>
        <time>2022-08-01T13:12:56.000Z</time>
      </trkpt>
      <trkpt lat="49.34526" lon="-1.21161">
        <ele>3.779359</ele>
        <time>2022-08-01T13:12:57.000Z</time>
      </trkpt>
      <trkpt lat="49.34523" lon="-1.21164">
        <ele>3.763835</ele>
        <time>2022-08-01T13:12:58.000Z</time>
      </trkpt>
      <trkpt lat="49.34519" lon="-1.21168">
        <ele>3.765529</ele>
        <time>2022-08-01T13:12:59.000Z</time>
      </trkpt>
      <trkpt lat="49.34516" lon="-1.21172">
        <ele>3.767378</ele>
        <time>2022-08-01T13:13:00.000Z</time>
      </trkpt>
      <trkpt lat="49.34513" lon="-1.21175">
        <ele>3.769476</ele>
        <time>2022-08-01T13:13:01.000Z</time>
      </trkpt>
      <trkpt lat="49.3451" lon="-1.21178">
        <ele>3.771223</ele>
        <time>2022-08-01T13:13:02.000Z</time>
      </trkpt>
      <trkpt lat="49.34506" lon="-1.21181">
        <ele>3.773378</ele>
        <time>2022-08-01T13:13:03.000Z</time>
      </trkpt>
      <trkpt lat="49.34502" lon="-1.21183">
        <ele>3.775271</ele>
        <time>2022-08-01T13:13:04.000Z</time>
      </trkpt>
      <trkpt lat="49.34499" lon="-1.21185">
        <ele>3.777152</ele>
        <time>2022-08-01T13:13:05.000Z</time>
      </trkpt>
      <trkpt lat="49.34495" lon="-1.21188">
        <ele>3.779231</ele>
        <time>2022-08-01T13:13:06.000Z</time>
      </trkpt>
      <trkpt lat="49.34491" lon="-1.2119">
        <ele>3.781276</ele>
        <time>2022-08-01T13:13:07.000Z</time>
      </trkpt>
      <trkpt lat="49.34488" lon="-1.21193">
        <ele>3.783103</ele>
        <time>2022-08-01T13:13:08.000Z</time>
      </trkpt>
      <trkpt lat="49.34485" lon="-1.21195">
        <ele>3.785064</ele>
        <time>2022-08-01T13:13:09.000Z</time>
      </trkpt>
      <trkpt lat="49.34481" lon="-1.21197">
        <ele>3.786945</ele>
        <time>2022-08-01T13:13:10.000Z</time>
      </trkpt>
      <trkpt lat="49.34478" lon="-1.21199">
        <ele>3.788674</ele>
        <time>2022-08-01T13:13:11.000Z</time>
      </trkpt>
      <trkpt lat="49.34474" lon="-1.21202">
        <ele>3.790638</ele>
        <time>2022-08-01T13:13:12.000Z</time>
      </trkpt>
      <trkpt lat="49.34471" lon="-1.21204">
        <ele>3.79257</ele>
        <time>2022-08-01T13:13:13.000Z</time>
      </trkpt>
      <trkpt lat="49.34467" lon="-1.21207">
        <ele>3.794476</ele>
        <time>2022-08-01T13:13:14.000Z</time>
      </trkpt>
      <trkpt lat="49.34464" lon="-1.21209">
        <ele>3.796273</ele>
        <time>2022-08-01T13:13:15.000Z</time>
      </trkpt>
      <trkpt lat="49.34461" lon="-1.21211">
        <ele>3.798178</ele>
        <time>2022-08-01T13:13:16.000Z</time>
      </trkpt>
      <trkpt lat="49.34457" lon="-1.21214">
        <ele>3.800139</ele>
        <time>2022-08-01T13:13:17.000Z</time>
      </trkpt>
      <trkpt lat="49.34454" lon="-1.21217">
        <ele>3.801836</ele>
        <time>2022-08-01T13:13:18.000Z</time>
      </trkpt>
      <trkpt lat="49.34451" lon="-1.21219">
        <ele>3.803782</ele>
        <time>2022-08-01T13:13:19.000Z</time>
      </trkpt>
      <trkpt lat="49.34447" lon="-1.21222">
        <ele>3.805642</ele>
        <time>2022-08-01T13:13:20.000Z</time>
      </trkpt>
      <trkpt lat="49.34445" lon="-1.21226">
        <ele>3.807449</ele>
        <time>2022-08-01T13:13:21.000Z</time>
      </trkpt>
      <trkpt lat="49.34441" lon="-1.21229">
        <ele>3.809505</ele>
        <time>2022-08-01T13:13:22.000Z</time>
      </trkpt>
      <trkpt lat="49.34438" lon="-1.21233">
        <ele>3.811392</ele>
        <time>2022-08-01T13:13:23.000Z</time>
      </trkpt>
      <trkpt lat="49.34435" lon="-1.21236">
        <ele>3.813483</ele>
        <time>2022-08-01T13:13:24.000Z</time>
      </trkpt>
      <trkpt lat="49.34431" lon="-1.21239">
        <ele>3.815412</ele>
        <time>2022-08-01T13:13:25.000Z</time>
      </trkpt>
      <trkpt lat="49.34428" lon="-1.21243">
        <ele>3.817379</ele>
        <time>2022-08-01T13:13:26.000Z</time>
      </trkpt>
      <trkpt lat="49.34425" lon="-1.21247">
        <ele>3.819603</ele>
        <time>2022-08-01T13:13:27.000Z</time>
      </trkpt>
      <trkpt lat="49.34421" lon="-1.21251">
        <ele>3.821668</ele>
        <time>2022-08-01T13:13:28.000Z</time>
      </trkpt>
      <trkpt lat="49.34418" lon="-1.21255">
        <ele>3.823734</ele>
        <time>2022-08-01T13:13:29.000Z</time>
      </trkpt>
      <trkpt lat="49.34415" lon="-1.21259">
        <ele>3.825898</ele>
        <time>2022-08-01T13:13:30.000Z</time>
      </trkpt>
      <trkpt lat="49.34411" lon="-1.21263">
        <ele>3.828168</ele>
        <time>2022-08-01T13:13:31.000Z</time>
      </trkpt>
      <trkpt lat="49.34407" lon="-1.21267">
        <ele>3.830352</ele>
        <time>2022-08-01T13:13:32.000Z</time>
      </trkpt>
      <trkpt lat="49.34404" lon="-1.21271">
        <ele>3.832576</ele>
        <time>2022-08-01T13:13:33.000Z</time>
      </trkpt>
      <trkpt lat="49.344" lon="-1.21274">
        <ele>3.834722</ele>
        <time>2022-08-01T13:13:34.000Z</time>
      </trkpt>
      <trkpt lat="49.34397" lon="-1.21278">
        <ele>3.837028</ele>
        <time>2022-08-01T13:13:35.000Z</time>
      </trkpt>
      <trkpt lat="49.34393" lon="-1.21282">
        <ele>3.839155</ele>
        <time>2022-08-01T13:13:36.000Z</time>
      </trkpt>
      <trkpt lat="49.34389" lon="-1.21286">
        <ele>3.841288</ele>
        <time>2022-08-01T13:13:37.000Z</time>
      </trkpt>
      <trkpt lat="49.34386" lon="-1.21289">
        <ele>3.843415</ele>
        <time>2022-08-01T13:13:38.000Z</time>
      </trkpt>
      <trkpt lat="49.34383" lon="-1.21293">
        <ele>3.8454</ele>
        <time>2022-08-01T13:13:39.000Z</time>
      </trkpt>
      <trkpt lat="49.34379" lon="-1.21297">
        <ele>3.847584</ele>
        <time>2022-08-01T13:13:40.000Z</time>
      </trkpt>
      <trkpt lat="49.34376" lon="-1.21301">
        <ele>3.849768</ele>
        <time>2022-08-01T13:13:41.000Z</time>
      </trkpt>
      <trkpt lat="49.34373" lon="-1.21305">
        <ele>3.851813</ele>
        <time>2022-08-01T13:13:42.000Z</time>
      </trkpt>
      <trkpt lat="49.34369" lon="-1.21308">
        <ele>3.853913</ele>
        <time>2022-08-01T13:13:43.000Z</time>
      </trkpt>
      <trkpt lat="49.34365" lon="-1.21311">
        <ele>3.856181</ele>
        <time>2022-08-01T13:13:44.000Z</time>
      </trkpt>
      <trkpt lat="49.34362" lon="-1.21315">
        <ele>3.858578</ele>
        <time>2022-08-01T13:13:45.000Z</time>
      </trkpt>
      <trkpt lat="49.34358" lon="-1.21319">
        <ele>3.860917</ele>
        <time>2022-08-01T13:13:46.000Z</time>
      </trkpt>
      <trkpt lat="49.34355" lon="-1.21323">
        <ele>3.863098</ele>
        <time>2022-08-01T13:13:47.000Z</time>
      </trkpt>
      <trkpt lat="49.34351" lon="-1.21327">
        <ele>3.865652</ele>
        <time>2022-08-01T13:13:48.000Z</time>
      </trkpt>
      <trkpt lat="49.34348" lon="-1.21332">
        <ele>3.868229</ele>
        <time>2022-08-01T13:13:49.000Z</time>
      </trkpt>
      <trkpt lat="49.34344" lon="-1.21336">
        <ele>3.870721</ele>
        <time>2022-08-01T13:13:50.000Z</time>
      </trkpt>
      <trkpt lat="49.3434" lon="-1.2134">
        <ele>3.873258</ele>
        <time>2022-08-01T13:13:51.000Z</time>
      </trkpt>
      <trkpt lat="49.34336" lon="-1.21344">
        <ele>3.87575</ele>
        <time>2022-08-01T13:13:52.000Z</time>
      </trkpt>
      <trkpt lat="49.34332" lon="-1.21348">
        <ele>3.878283</ele>
        <time>2022-08-01T13:13:53.000Z</time>
      </trkpt>
      <trkpt lat="49.34328" lon="-1.21352">
        <ele>3.880781</ele>
        <time>2022-08-01T13:13:54.000Z</time>
      </trkpt>
      <trkpt lat="49.34325" lon="-1.21356">
        <ele>3.883058</ele>
        <time>2022-08-01T13:13:55.000Z</time>
      </trkpt>
      <trkpt lat="49.34322" lon="-1.2136">
        <ele>3.885419</ele>
        <time>2022-08-01T13:13:56.000Z</time>
      </trkpt>
      <trkpt lat="49.34318" lon="-1.21364">
        <ele>3.887779</ele>
        <time>2022-08-01T13:13:57.000Z</time>
      </trkpt>
      <trkpt lat="49.34315" lon="-1.21368">
        <ele>3.889888</ele>
        <time>2022-08-01T13:13:58.000Z</time>
      </trkpt>
      <trkpt lat="49.34312" lon="-1.21372">
        <ele>3.892206</ele>
        <time>2022-08-01T13:13:59.000Z</time>
      </trkpt>
      <trkpt lat="49.34308" lon="-1.21375">
        <ele>3.894525</ele>
        <time>2022-08-01T13:14:00.000Z</time>
      </trkpt>
      <trkpt lat="49.34304" lon="-1.21379">
        <ele>3.896969</ele>
        <time>2022-08-01T13:14:01.000Z</time>
      </trkpt>
      <trkpt lat="49.34301" lon="-1.21382">
        <ele>3.899094</ele>
        <time>2022-08-01T13:14:02.000Z</time>
      </trkpt>
      <trkpt lat="49.34298" lon="-1.21386">
        <ele>3.901304</ele>
        <time>2022-08-01T13:14:03.000Z</time>
      </trkpt>
      <trkpt lat="49.34294" lon="-1.2139">
        <ele>3.903623</ele>
        <time>2022-08-01T13:14:04.000Z</time>
      </trkpt>
      <trkpt lat="49.34292" lon="-1.21394">
        <ele>3.905731</ele>
        <time>2022-08-01T13:14:05.000Z</time>
      </trkpt>
      <trkpt lat="49.34288" lon="-1.21398">
        <ele>3.907991</ele>
        <time>2022-08-01T13:14:06.000Z</time>
      </trkpt>
      <trkpt lat="49.34285" lon="-1.21401">
        <ele>3.909943</ele>
        <time>2022-08-01T13:14:07.000Z</time>
      </trkpt>
      <trkpt lat="49.34282" lon="-1.21404">
        <ele>3.912009</ele>
        <time>2022-08-01T13:14:08.000Z</time>
      </trkpt>
      <trkpt lat="49.34278" lon="-1.21407">
        <ele>3.914231</ele>
        <time>2022-08-01T13:14:09.000Z</time>
      </trkpt>
      <trkpt lat="49.34275" lon="-1.21411">
        <ele>3.916441</ele>
        <time>2022-08-01T13:14:10.000Z</time>
      </trkpt>
      <trkpt lat="49.34271" lon="-1.21415">
        <ele>3.918856</ele>
        <time>2022-08-01T13:14:11.000Z</time>
      </trkpt>
      <trkpt lat="49.34268" lon="-1.21418">
        <ele>3.921161</ele>
        <time>2022-08-01T13:14:12.000Z</time>
      </trkpt>
      <trkpt lat="49.34264" lon="-1.21422">
        <ele>3.923595</ele>
        <time>2022-08-01T13:14:13.000Z</time>
      </trkpt>
      <trkpt lat="49.34261" lon="-1.21426">
        <ele>3.925854</ele>
        <time>2022-08-01T13:14:14.000Z</time>
      </trkpt>
      <trkpt lat="49.34257" lon="-1.2143">
        <ele>3.928155</ele>
        <time>2022-08-01T13:14:15.000Z</time>
      </trkpt>
      <trkpt lat="49.34253" lon="-1.21434">
        <ele>3.930692</ele>
        <time>2022-08-01T13:14:16.000Z</time>
      </trkpt>
      <trkpt lat="49.3425" lon="-1.21438">
        <ele>3.933031</ele>
        <time>2022-08-01T13:14:17.000Z</time>
      </trkpt>
      <trkpt lat="49.34246" lon="-1.21442">
        <ele>3.935484</ele>
        <time>2022-08-01T13:14:18.000Z</time>
      </trkpt>
      <trkpt lat="49.34242" lon="-1.21445">
        <ele>3.937964</ele>
        <time>2022-08-01T13:14:19.000Z</time>
      </trkpt>
      <trkpt lat="49.34238" lon="-1.21449">
        <ele>3.940476</ele>
        <time>2022-08-01T13:14:20.000Z</time>
      </trkpt>
      <trkpt lat="49.34235" lon="-1.21454">
        <ele>3.942923</ele>
        <time>2022-08-01T13:14:21.000Z</time>
      </trkpt>
      <trkpt lat="49.34232" lon="-1.21458">
        <ele>3.94527</ele>
        <time>2022-08-01T13:14:22.000Z</time>
      </trkpt>
      <trkpt lat="49.34229" lon="-1.21463">
        <ele>3.947571</ele>
        <time>2022-08-01T13:14:23.000Z</time>
      </trkpt>
      <trkpt lat="49.34225" lon="-1.21466">
        <ele>3.950069</ele>
        <time>2022-08-01T13:14:24.000Z</time>
      </trkpt>
      <trkpt lat="49.34221" lon="-1.2147">
        <ele>3.94839</ele>
        <time>2022-08-01T13:14:25.000Z</time>
      </trkpt>
      <trkpt lat="49.34218" lon="-1.21474">
        <ele>3.945592</ele>
        <time>2022-08-01T13:14:26.000Z</time>
      </trkpt>
      <trkpt lat="49.34214" lon="-1.21478">
        <ele>3.942711</ele>
        <time>2022-08-01T13:14:27.000Z</time>
      </trkpt>
      <trkpt lat="49.34211" lon="-1.21481">
        <ele>3.939879</ele>
        <time>2022-08-01T13:14:28.000Z</time>
      </trkpt>
      <trkpt lat="49.34207" lon="-1.21485">
        <ele>3.936793</ele>
        <time>2022-08-01T13:14:29.000Z</time>
      </trkpt>
      <trkpt lat="49.34204" lon="-1.21489">
        <ele>3.934023</ele>
        <time>2022-08-01T13:14:30.000Z</time>
      </trkpt>
      <trkpt lat="49.342" lon="-1.21492">
        <ele>3.931191</ele>
        <time>2022-08-01T13:14:31.000Z</time>
      </trkpt>
      <trkpt lat="49.34197" lon="-1.21496">
        <ele>3.928359</ele>
        <time>2022-08-01T13:14:32.000Z</time>
      </trkpt>
      <trkpt lat="49.34193" lon="-1.21499">
        <ele>3.925399</ele>
        <time>2022-08-01T13:14:33.000Z</time>
      </trkpt>
      <trkpt lat="49.34189" lon="-1.21502">
        <ele>3.922401</ele>
        <time>2022-08-01T13:14:34.000Z</time>
      </trkpt>
      <trkpt lat="49.34186" lon="-1.21506">
        <ele>3.919737</ele>
        <time>2022-08-01T13:14:35.000Z</time>
      </trkpt>
      <trkpt lat="49.34182" lon="-1.21509">
        <ele>3.916732</ele>
        <time>2022-08-01T13:14:36.000Z</time>
      </trkpt>
      <trkpt lat="49.34179" lon="-1.21512">
        <ele>3.914014</ele>
        <time>2022-08-01T13:14:37.000Z</time>
      </trkpt>
      <trkpt lat="49.34175" lon="-1.21515">
        <ele>3.911057</ele>
        <time>2022-08-01T13:14:38.000Z</time>
      </trkpt>
      <trkpt lat="49.34171" lon="-1.21518">
        <ele>3.908254</ele>
        <time>2022-08-01T13:14:39.000Z</time>
      </trkpt>
      <trkpt lat="49.34167" lon="-1.2152">
        <ele>3.905421</ele>
        <time>2022-08-01T13:14:40.000Z</time>
      </trkpt>
      <trkpt lat="49.34163" lon="-1.21522">
        <ele>3.902698</ele>
        <time>2022-08-01T13:14:41.000Z</time>
      </trkpt>
      <trkpt lat="49.34159" lon="-1.21524">
        <ele>3.899944</ele>
        <time>2022-08-01T13:14:42.000Z</time>
      </trkpt>
      <trkpt lat="49.34156" lon="-1.21526">
        <ele>3.897142</ele>
        <time>2022-08-01T13:14:43.000Z</time>
      </trkpt>
      <trkpt lat="49.34151" lon="-1.21528">
        <ele>3.894239</ele>
        <time>2022-08-01T13:14:44.000Z</time>
      </trkpt>
      <trkpt lat="49.34148" lon="-1.2153">
        <ele>3.891451</ele>
        <time>2022-08-01T13:14:45.000Z</time>
      </trkpt>
      <trkpt lat="49.34144" lon="-1.21532">
        <ele>3.888727</ele>
        <time>2022-08-01T13:14:46.000Z</time>
      </trkpt>
      <trkpt lat="49.3414" lon="-1.21534">
        <ele>3.886225</ele>
        <time>2022-08-01T13:14:47.000Z</time>
      </trkpt>
      <trkpt lat="49.34136" lon="-1.21536">
        <ele>3.883049</ele>
        <time>2022-08-01T13:14:48.000Z</time>
      </trkpt>
      <trkpt lat="49.34132" lon="-1.21538">
        <ele>3.880546</ele>
        <time>2022-08-01T13:14:49.000Z</time>
      </trkpt>
      <trkpt lat="49.34128" lon="-1.2154">
        <ele>3.877798</ele>
        <time>2022-08-01T13:14:50.000Z</time>
      </trkpt>
      <trkpt lat="49.34124" lon="-1.21541">
        <ele>3.874656</ele>
        <time>2022-08-01T13:14:51.000Z</time>
      </trkpt>
      <trkpt lat="49.3412" lon="-1.21543">
        <ele>3.87218</ele>
        <time>2022-08-01T13:14:52.000Z</time>
      </trkpt>
      <trkpt lat="49.34117" lon="-1.21545">
        <ele>3.869496</ele>
        <time>2022-08-01T13:14:53.000Z</time>
      </trkpt>
      <trkpt lat="49.34113" lon="-1.21546">
        <ele>3.866748</ele>
        <time>2022-08-01T13:14:54.000Z</time>
      </trkpt>
      <trkpt lat="49.34109" lon="-1.21548">
        <ele>3.864479</ele>
        <time>2022-08-01T13:14:55.000Z</time>
      </trkpt>
      <trkpt lat="49.34106" lon="-1.21549">
        <ele>3.862038</ele>
        <time>2022-08-01T13:14:56.000Z</time>
      </trkpt>
      <trkpt lat="49.34103" lon="-1.2155">
        <ele>3.860262</ele>
        <time>2022-08-01T13:14:57.000Z</time>
      </trkpt>
      <trkpt lat="49.34101" lon="-1.21551">
        <ele>3.85848</ele>
        <time>2022-08-01T13:14:58.000Z</time>
      </trkpt>
      <trkpt lat="49.34099" lon="-1.21551">
        <ele>3.856978</ele>
        <time>2022-08-01T13:14:59.000Z</time>
      </trkpt>
      <trkpt lat="49.34097" lon="-1.21551">
        <ele>3.855619</ele>
        <time>2022-08-01T13:15:00.000Z</time>
      </trkpt>
      <trkpt lat="49.34095" lon="-1.21548">
        <ele>3.853802</ele>
        <time>2022-08-01T13:15:02.000Z</time>
      </trkpt>
      <trkpt lat="49.34095" lon="-1.21543">
        <ele>3.851637</ele>
        <time>2022-08-01T13:15:04.000Z</time>
      </trkpt>
      <trkpt lat="49.34095" lon="-1.21539">
        <ele>3.849719</ele>
        <time>2022-08-01T13:15:06.000Z</time>
      </trkpt>
      <trkpt lat="49.34095" lon="-1.21536">
        <ele>3.848452</ele>
        <time>2022-08-01T13:15:08.000Z</time>
      </trkpt>
      <trkpt lat="49.34095" lon="-1.21547">
        <ele>3.843454</ele>
        <time>2022-08-01T13:15:58.000Z</time>
      </trkpt>
      <trkpt lat="49.34094" lon="-1.2155">
        <ele>3.842041</ele>
        <time>2022-08-01T13:15:59.000Z</time>
      </trkpt>
      <trkpt lat="49.34093" lon="-1.21551">
        <ele>3.84077</ele>
        <time>2022-08-01T13:16:00.000Z</time>
      </trkpt>
      <trkpt lat="49.34091" lon="-1.21552">
        <ele>3.839359</ele>
        <time>2022-08-01T13:16:01.000Z</time>
      </trkpt>
      <trkpt lat="49.34088" lon="-1.21554">
        <ele>3.837285</ele>
        <time>2022-08-01T13:16:02.000Z</time>
      </trkpt>
      <trkpt lat="49.34085" lon="-1.21555">
        <ele>3.83559</ele>
        <time>2022-08-01T13:16:03.000Z</time>
      </trkpt>
      <trkpt lat="49.34083" lon="-1.21557">
        <ele>3.83358</ele>
        <time>2022-08-01T13:16:04.000Z</time>
      </trkpt>
      <trkpt lat="49.3408" lon="-1.21559">
        <ele>3.831387</ele>
        <time>2022-08-01T13:16:05.000Z</time>
      </trkpt>
      <trkpt lat="49.34077" lon="-1.21561">
        <ele>3.829266</ele>
        <time>2022-08-01T13:16:06.000Z</time>
      </trkpt>
      <trkpt lat="49.34074" lon="-1.21562">
        <ele>3.835141</ele>
        <time>2022-08-01T13:16:07.000Z</time>
      </trkpt>
      <trkpt lat="49.3407" lon="-1.21563">
        <ele>3.84481</ele>
        <time>2022-08-01T13:16:08.000Z</time>
      </trkpt>
      <trkpt lat="49.34067" lon="-1.21565">
        <ele>3.853735</ele>
        <time>2022-08-01T13:16:09.000Z</time>
      </trkpt>
      <trkpt lat="49.34063" lon="-1.21566">
        <ele>3.863444</ele>
        <time>2022-08-01T13:16:10.000Z</time>
      </trkpt>
      <trkpt lat="49.3406" lon="-1.21568">
        <ele>3.873708</ele>
        <time>2022-08-01T13:16:11.000Z</time>
      </trkpt>
      <trkpt lat="49.34056" lon="-1.2157">
        <ele>3.88366</ele>
        <time>2022-08-01T13:16:12.000Z</time>
      </trkpt>
      <trkpt lat="49.34053" lon="-1.21571">
        <ele>3.893558</ele>
        <time>2022-08-01T13:16:13.000Z</time>
      </trkpt>
      <trkpt lat="49.34049" lon="-1.21572">
        <ele>3.903984</ele>
        <time>2022-08-01T13:16:14.000Z</time>
      </trkpt>
      <trkpt lat="49.34045" lon="-1.21574">
        <ele>3.914782</ele>
        <time>2022-08-01T13:16:15.000Z</time>
      </trkpt>
      <trkpt lat="49.34041" lon="-1.21575">
        <ele>3.925208</ele>
        <time>2022-08-01T13:16:16.000Z</time>
      </trkpt>
      <trkpt lat="49.34037" lon="-1.21576">
        <ele>3.936835</ele>
        <time>2022-08-01T13:16:17.000Z</time>
      </trkpt>
      <trkpt lat="49.34033" lon="-1.21578">
        <ele>3.94761</ele>
        <time>2022-08-01T13:16:18.000Z</time>
      </trkpt>
      <trkpt lat="49.34029" lon="-1.2158">
        <ele>3.95859</ele>
        <time>2022-08-01T13:16:19.000Z</time>
      </trkpt>
      <trkpt lat="49.34026" lon="-1.21582">
        <ele>3.969262</ele>
        <time>2022-08-01T13:16:20.000Z</time>
      </trkpt>
      <trkpt lat="49.34022" lon="-1.21583">
        <ele>3.979886</ele>
        <time>2022-08-01T13:16:21.000Z</time>
      </trkpt>
      <trkpt lat="49.34018" lon="-1.21585">
        <ele>3.990041</ele>
        <time>2022-08-01T13:16:22.000Z</time>
      </trkpt>
      <trkpt lat="49.34014" lon="-1.21586">
        <ele>4.000501</ele>
        <time>2022-08-01T13:16:23.000Z</time>
      </trkpt>
      <trkpt lat="49.34011" lon="-1.21588">
        <ele>4.011223</ele>
        <time>2022-08-01T13:16:24.000Z</time>
      </trkpt>
      <trkpt lat="49.34007" lon="-1.21589">
        <ele>4.021194</ele>
        <time>2022-08-01T13:16:25.000Z</time>
      </trkpt>
      <trkpt lat="49.34003" lon="-1.21591">
        <ele>4.031773</ele>
        <time>2022-08-01T13:16:26.000Z</time>
      </trkpt>
      <trkpt lat="49.33999" lon="-1.21592">
        <ele>4.042233</ele>
        <time>2022-08-01T13:16:27.000Z</time>
      </trkpt>
      <trkpt lat="49.33996" lon="-1.21594">
        <ele>4.053073</ele>
        <time>2022-08-01T13:16:28.000Z</time>
      </trkpt>
      <trkpt lat="49.33992" lon="-1.21595">
        <ele>4.063025</ele>
        <time>2022-08-01T13:16:29.000Z</time>
      </trkpt>
      <trkpt lat="49.33988" lon="-1.21597">
        <ele>4.073801</ele>
        <time>2022-08-01T13:16:30.000Z</time>
      </trkpt>
      <trkpt lat="49.33984" lon="-1.21599">
        <ele>4.084887</ele>
        <time>2022-08-01T13:16:31.000Z</time>
      </trkpt>
      <trkpt lat="49.33981" lon="-1.21601">
        <ele>4.094956</ele>
        <time>2022-08-01T13:16:32.000Z</time>
      </trkpt>
      <trkpt lat="49.33978" lon="-1.21603">
        <ele>4.104272</ele>
        <time>2022-08-01T13:16:33.000Z</time>
      </trkpt>
      <trkpt lat="49.33974" lon="-1.21606">
        <ele>4.113799</ele>
        <time>2022-08-01T13:16:34.000Z</time>
      </trkpt>
      <trkpt lat="49.33972" lon="-1.21608">
        <ele>4.1226</ele>
        <time>2022-08-01T13:16:35.000Z</time>
      </trkpt>
      <trkpt lat="49.33968" lon="-1.21609">
        <ele>4.131621</ele>
        <time>2022-08-01T13:16:36.000Z</time>
      </trkpt>
      <trkpt lat="49.33965" lon="-1.21611">
        <ele>4.141519</ele>
        <time>2022-08-01T13:16:37.000Z</time>
      </trkpt>
      <trkpt lat="49.33962" lon="-1.21613">
        <ele>4.149889</ele>
        <time>2022-08-01T13:16:38.000Z</time>
      </trkpt>
      <trkpt lat="49.33959" lon="-1.21615">
        <ele>4.159204</ele>
        <time>2022-08-01T13:16:39.000Z</time>
      </trkpt>
      <trkpt lat="49.33956" lon="-1.21617">
        <ele>4.167249</ele>
        <time>2022-08-01T13:16:40.000Z</time>
      </trkpt>
      <trkpt lat="49.33953" lon="-1.2162">
        <ele>4.177181</ele>
        <time>2022-08-01T13:16:41.000Z</time>
      </trkpt>
      <trkpt lat="49.3395" lon="-1.21622">
        <ele>4.185272</ele>
        <time>2022-08-01T13:16:42.000Z</time>
      </trkpt>
      <trkpt lat="49.33948" lon="-1.21625">
        <ele>4.193452</ele>
        <time>2022-08-01T13:16:43.000Z</time>
      </trkpt>
      <trkpt lat="49.33945" lon="-1.21626">
        <ele>4.202526</ele>
        <time>2022-08-01T13:16:44.000Z</time>
      </trkpt>
      <trkpt lat="49.33942" lon="-1.21628">
        <ele>4.210364</ele>
        <time>2022-08-01T13:16:45.000Z</time>
      </trkpt>
      <trkpt lat="49.3394" lon="-1.2163">
        <ele>4.217491</ele>
        <time>2022-08-01T13:16:46.000Z</time>
      </trkpt>
      <trkpt lat="49.33937" lon="-1.21632">
        <ele>4.225836</ele>
        <time>2022-08-01T13:16:47.000Z</time>
      </trkpt>
      <trkpt lat="49.33935" lon="-1.21635">
        <ele>4.233254</ele>
        <time>2022-08-01T13:16:48.000Z</time>
      </trkpt>
      <trkpt lat="49.33933" lon="-1.21638">
        <ele>4.241299</ele>
        <time>2022-08-01T13:16:49.000Z</time>
      </trkpt>
      <trkpt lat="49.3393" lon="-1.2164">
        <ele>4.24922</ele>
        <time>2022-08-01T13:16:50.000Z</time>
      </trkpt>
      <trkpt lat="49.33927" lon="-1.21642">
        <ele>4.257942</ele>
        <time>2022-08-01T13:16:51.000Z</time>
      </trkpt>
      <trkpt lat="49.33925" lon="-1.21645">
        <ele>4.265987</ele>
        <time>2022-08-01T13:16:52.000Z</time>
      </trkpt>
      <trkpt lat="49.33923" lon="-1.21648">
        <ele>4.273593</ele>
        <time>2022-08-01T13:16:53.000Z</time>
      </trkpt>
      <trkpt lat="49.3392" lon="-1.21651">
        <ele>4.281846</ele>
        <time>2022-08-01T13:16:54.000Z</time>
      </trkpt>
      <trkpt lat="49.33918" lon="-1.21654">
        <ele>4.28978</ele>
        <time>2022-08-01T13:16:55.000Z</time>
      </trkpt>
      <trkpt lat="49.33915" lon="-1.21657">
        <ele>4.299209</ele>
        <time>2022-08-01T13:16:56.000Z</time>
      </trkpt>
      <trkpt lat="49.33913" lon="-1.2166">
        <ele>4.30798</ele>
        <time>2022-08-01T13:16:57.000Z</time>
      </trkpt>
      <trkpt lat="49.3391" lon="-1.21663">
        <ele>4.313119</ele>
        <time>2022-08-01T13:16:58.000Z</time>
      </trkpt>
      <trkpt lat="49.33908" lon="-1.21667">
        <ele>4.311505</ele>
        <time>2022-08-01T13:16:59.000Z</time>
      </trkpt>
      <trkpt lat="49.33906" lon="-1.2167">
        <ele>4.309807</ele>
        <time>2022-08-01T13:17:00.000Z</time>
      </trkpt>
      <trkpt lat="49.33903" lon="-1.21674">
        <ele>4.307928</ele>
        <time>2022-08-01T13:17:01.000Z</time>
      </trkpt>
      <trkpt lat="49.33901" lon="-1.21678">
        <ele>4.30624</ele>
        <time>2022-08-01T13:17:02.000Z</time>
      </trkpt>
      <trkpt lat="49.33899" lon="-1.21682">
        <ele>4.304503</ele>
        <time>2022-08-01T13:17:03.000Z</time>
      </trkpt>
      <trkpt lat="49.33896" lon="-1.21686">
        <ele>4.302627</ele>
        <time>2022-08-01T13:17:04.000Z</time>
      </trkpt>
      <trkpt lat="49.33893" lon="-1.2169">
        <ele>4.300704</ele>
        <time>2022-08-01T13:17:05.000Z</time>
      </trkpt>
      <trkpt lat="49.33891" lon="-1.21694">
        <ele>4.298941</ele>
        <time>2022-08-01T13:17:06.000Z</time>
      </trkpt>
      <trkpt lat="49.33889" lon="-1.21698">
        <ele>4.297152</ele>
        <time>2022-08-01T13:17:07.000Z</time>
      </trkpt>
      <trkpt lat="49.33887" lon="-1.21702">
        <ele>4.295508</ele>
        <time>2022-08-01T13:17:08.000Z</time>
      </trkpt>
      <trkpt lat="49.33885" lon="-1.21707">
        <ele>4.293644</ele>
        <time>2022-08-01T13:17:09.000Z</time>
      </trkpt>
      <trkpt lat="49.33884" lon="-1.21712">
        <ele>4.291968</ele>
        <time>2022-08-01T13:17:10.000Z</time>
      </trkpt>
      <trkpt lat="49.33882" lon="-1.21717">
        <ele>4.290021</ele>
        <time>2022-08-01T13:17:11.000Z</time>
      </trkpt>
      <trkpt lat="49.33881" lon="-1.21722">
        <ele>4.288158</ele>
        <time>2022-08-01T13:17:12.000Z</time>
      </trkpt>
      <trkpt lat="49.33879" lon="-1.21727">
        <ele>4.286249</ele>
        <time>2022-08-01T13:17:13.000Z</time>
      </trkpt>
      <trkpt lat="49.33878" lon="-1.21732">
        <ele>4.284481</ele>
        <time>2022-08-01T13:17:14.000Z</time>
      </trkpt>
      <trkpt lat="49.33877" lon="-1.21738">
        <ele>4.282585</ele>
        <time>2022-08-01T13:17:15.000Z</time>
      </trkpt>
      <trkpt lat="49.33877" lon="-1.21743">
        <ele>4.280767</ele>
        <time>2022-08-01T13:17:16.000Z</time>
      </trkpt>
      <trkpt lat="49.33876" lon="-1.21749">
        <ele>4.278887</ele>
        <time>2022-08-01T13:17:17.000Z</time>
      </trkpt>
      <trkpt lat="49.33875" lon="-1.21754">
        <ele>4.277121</ele>
        <time>2022-08-01T13:17:18.000Z</time>
      </trkpt>
      <trkpt lat="49.33875" lon="-1.21759">
        <ele>4.275461</ele>
        <time>2022-08-01T13:17:19.000Z</time>
      </trkpt>
      <trkpt lat="49.33875" lon="-1.21764">
        <ele>4.273728</ele>
        <time>2022-08-01T13:17:20.000Z</time>
      </trkpt>
      <trkpt lat="49.33875" lon="-1.21769">
        <ele>4.271962</ele>
        <time>2022-08-01T13:17:21.000Z</time>
      </trkpt>
      <trkpt lat="49.33874" lon="-1.21775">
        <ele>4.270224</ele>
        <time>2022-08-01T13:17:22.000Z</time>
      </trkpt>
      <trkpt lat="49.33874" lon="-1.2178">
        <ele>4.268372</ele>
        <time>2022-08-01T13:17:23.000Z</time>
      </trkpt>
      <trkpt lat="49.33873" lon="-1.21786">
        <ele>4.266521</ele>
        <time>2022-08-01T13:17:24.000Z</time>
      </trkpt>
      <trkpt lat="49.33873" lon="-1.21791">
        <ele>4.26475</ele>
        <time>2022-08-01T13:17:25.000Z</time>
      </trkpt>
      <trkpt lat="49.33872" lon="-1.21796">
        <ele>4.263017</ele>
        <time>2022-08-01T13:17:26.000Z</time>
      </trkpt>
      <trkpt lat="49.33871" lon="-1.21802">
        <ele>4.261134</ele>
        <time>2022-08-01T13:17:27.000Z</time>
      </trkpt>
      <trkpt lat="49.33871" lon="-1.21807">
        <ele>4.259339</ele>
        <time>2022-08-01T13:17:28.000Z</time>
      </trkpt>
      <trkpt lat="49.3387" lon="-1.21812">
        <ele>4.257651</ele>
        <time>2022-08-01T13:17:29.000Z</time>
      </trkpt>
      <trkpt lat="49.33869" lon="-1.21817">
        <ele>4.255947</ele>
        <time>2022-08-01T13:17:30.000Z</time>
      </trkpt>
      <trkpt lat="49.33869" lon="-1.21821">
        <ele>4.254552</ele>
        <time>2022-08-01T13:17:31.000Z</time>
      </trkpt>
      <trkpt lat="49.33869" lon="-1.21824">
        <ele>4.25339</ele>
        <time>2022-08-01T13:17:32.000Z</time>
      </trkpt>
      <trkpt lat="49.33868" lon="-1.21828">
        <ele>4.252151</ele>
        <time>2022-08-01T13:17:33.000Z</time>
      </trkpt>
      <trkpt lat="49.33867" lon="-1.21831">
        <ele>4.251055</ele>
        <time>2022-08-01T13:17:34.000Z</time>
      </trkpt>
      <trkpt lat="49.33866" lon="-1.21833">
        <ele>4.250053</ele>
        <time>2022-08-01T13:17:35.000Z</time>
      </trkpt>
      <trkpt lat="49.33865" lon="-1.21836">
        <ele>4.249106</ele>
        <time>2022-08-01T13:17:36.000Z</time>
      </trkpt>
      <trkpt lat="49.33863" lon="-1.2184">
        <ele>4.247379</ele>
        <time>2022-08-01T13:17:38.000Z</time>
      </trkpt>
      <trkpt lat="49.33861" lon="-1.21842">
        <ele>4.246423</ele>
        <time>2022-08-01T13:17:39.000Z</time>
      </trkpt>
      <trkpt lat="49.3386" lon="-1.21844">
        <ele>4.245148</ele>
        <time>2022-08-01T13:17:40.000Z</time>
      </trkpt>
      <trkpt lat="49.33858" lon="-1.21847">
        <ele>4.243806</ele>
        <time>2022-08-01T13:17:41.000Z</time>
      </trkpt>
      <trkpt lat="49.33856" lon="-1.2185">
        <ele>4.242526</ele>
        <time>2022-08-01T13:17:42.000Z</time>
      </trkpt>
      <trkpt lat="49.33855" lon="-1.21854">
        <ele>4.241134</ele>
        <time>2022-08-01T13:17:43.000Z</time>
      </trkpt>
      <trkpt lat="49.33853" lon="-1.21857">
        <ele>4.239768</ele>
        <time>2022-08-01T13:17:44.000Z</time>
      </trkpt>
      <trkpt lat="49.33851" lon="-1.2186">
        <ele>4.238331</ele>
        <time>2022-08-01T13:17:45.000Z</time>
      </trkpt>
      <trkpt lat="49.33849" lon="-1.21864">
        <ele>4.236869</ele>
        <time>2022-08-01T13:17:46.000Z</time>
      </trkpt>
      <trkpt lat="49.33847" lon="-1.21867">
        <ele>4.235331</ele>
        <time>2022-08-01T13:17:47.000Z</time>
      </trkpt>
      <trkpt lat="49.33845" lon="-1.2187">
        <ele>4.233894</ele>
        <time>2022-08-01T13:17:48.000Z</time>
      </trkpt>
      <trkpt lat="49.33843" lon="-1.21873">
        <ele>4.232395</ele>
        <time>2022-08-01T13:17:49.000Z</time>
      </trkpt>
      <trkpt lat="49.3384" lon="-1.21876">
        <ele>4.230717</ele>
        <time>2022-08-01T13:17:50.000Z</time>
      </trkpt>
      <trkpt lat="49.33837" lon="-1.21879">
        <ele>4.228935</ele>
        <time>2022-08-01T13:17:51.000Z</time>
      </trkpt>
      <trkpt lat="49.33835" lon="-1.21882">
        <ele>4.2275</ele>
        <time>2022-08-01T13:17:52.000Z</time>
      </trkpt>
      <trkpt lat="49.33832" lon="-1.21885">
        <ele>4.225681</ele>
        <time>2022-08-01T13:17:53.000Z</time>
      </trkpt>
      <trkpt lat="49.33829" lon="-1.21887">
        <ele>4.223969</ele>
        <time>2022-08-01T13:17:54.000Z</time>
      </trkpt>
      <trkpt lat="49.33827" lon="-1.2189">
        <ele>4.222449</ele>
        <time>2022-08-01T13:17:55.000Z</time>
      </trkpt>
      <trkpt lat="49.33824" lon="-1.21893">
        <ele>4.225938</ele>
        <time>2022-08-01T13:17:56.000Z</time>
      </trkpt>
      <trkpt lat="49.33821" lon="-1.21895">
        <ele>4.231116</ele>
        <time>2022-08-01T13:17:57.000Z</time>
      </trkpt>
      <trkpt lat="49.33819" lon="-1.21898">
        <ele>4.236099</ele>
        <time>2022-08-01T13:17:58.000Z</time>
      </trkpt>
      <trkpt lat="49.33817" lon="-1.21901">
        <ele>4.240885</ele>
        <time>2022-08-01T13:17:59.000Z</time>
      </trkpt>
      <trkpt lat="49.33815" lon="-1.21903">
        <ele>4.244897</ele>
        <time>2022-08-01T13:18:00.000Z</time>
      </trkpt>
      <trkpt lat="49.33813" lon="-1.21905">
        <ele>4.248653</ele>
        <time>2022-08-01T13:18:01.000Z</time>
      </trkpt>
      <trkpt lat="49.33812" lon="-1.21907">
        <ele>4.251729</ele>
        <time>2022-08-01T13:18:02.000Z</time>
      </trkpt>
      <trkpt lat="49.3381" lon="-1.21909">
        <ele>4.255027</ele>
        <time>2022-08-01T13:18:04.000Z</time>
      </trkpt>
      <trkpt lat="49.33805" lon="-1.21913">
        <ele>4.263505</ele>
        <time>2022-08-01T13:18:28.000Z</time>
      </trkpt>
      <trkpt lat="49.33803" lon="-1.21916">
        <ele>4.267844</ele>
        <time>2022-08-01T13:18:29.000Z</time>
      </trkpt>
      <trkpt lat="49.33801" lon="-1.21918">
        <ele>4.272962</ele>
        <time>2022-08-01T13:18:30.000Z</time>
      </trkpt>
      <trkpt lat="49.33797" lon="-1.21921">
        <ele>4.278864</ele>
        <time>2022-08-01T13:18:31.000Z</time>
      </trkpt>
      <trkpt lat="49.33795" lon="-1.21924">
        <ele>4.284371</ele>
        <time>2022-08-01T13:18:32.000Z</time>
      </trkpt>
      <trkpt lat="49.33792" lon="-1.21927">
        <ele>4.289956</ele>
        <time>2022-08-01T13:18:33.000Z</time>
      </trkpt>
      <trkpt lat="49.33789" lon="-1.2193">
        <ele>4.295779</ele>
        <time>2022-08-01T13:18:34.000Z</time>
      </trkpt>
      <trkpt lat="49.33786" lon="-1.21933">
        <ele>4.301948</ele>
        <time>2022-08-01T13:18:35.000Z</time>
      </trkpt>
      <trkpt lat="49.33783" lon="-1.21936">
        <ele>4.307251</ele>
        <time>2022-08-01T13:18:36.000Z</time>
      </trkpt>
      <trkpt lat="49.3378" lon="-1.21938">
        <ele>4.313104</ele>
        <time>2022-08-01T13:18:37.000Z</time>
      </trkpt>
      <trkpt lat="49.33777" lon="-1.21941">
        <ele>4.318385</ele>
        <time>2022-08-01T13:18:38.000Z</time>
      </trkpt>
      <trkpt lat="49.33773" lon="-1.21944">
        <ele>4.324917</ele>
        <time>2022-08-01T13:18:39.000Z</time>
      </trkpt>
      <trkpt lat="49.33771" lon="-1.21946">
        <ele>4.329962</ele>
        <time>2022-08-01T13:18:40.000Z</time>
      </trkpt>
      <trkpt lat="49.33768" lon="-1.21949">
        <ele>4.336075</ele>
        <time>2022-08-01T13:18:41.000Z</time>
      </trkpt>
      <trkpt lat="49.33765" lon="-1.21952">
        <ele>4.341776</ele>
        <time>2022-08-01T13:18:42.000Z</time>
      </trkpt>
      <trkpt lat="49.33761" lon="-1.21956">
        <ele>4.348418</ele>
        <time>2022-08-01T13:18:43.000Z</time>
      </trkpt>
      <trkpt lat="49.33758" lon="-1.21959">
        <ele>4.354953</ele>
        <time>2022-08-01T13:18:44.000Z</time>
      </trkpt>
      <trkpt lat="49.33754" lon="-1.21962">
        <ele>4.361631</ele>
        <time>2022-08-01T13:18:45.000Z</time>
      </trkpt>
      <trkpt lat="49.33751" lon="-1.21965">
        <ele>4.367198</ele>
        <time>2022-08-01T13:18:46.000Z</time>
      </trkpt>
      <trkpt lat="49.33748" lon="-1.21968">
        <ele>4.373876</ele>
        <time>2022-08-01T13:18:47.000Z</time>
      </trkpt>
      <trkpt lat="49.33745" lon="-1.21971">
        <ele>4.379443</ele>
        <time>2022-08-01T13:18:48.000Z</time>
      </trkpt>
      <trkpt lat="49.33742" lon="-1.21974">
        <ele>4.385144</ele>
        <time>2022-08-01T13:18:49.000Z</time>
      </trkpt>
      <trkpt lat="49.33739" lon="-1.21977">
        <ele>4.390845</ele>
        <time>2022-08-01T13:18:50.000Z</time>
      </trkpt>
      <trkpt lat="49.33736" lon="-1.2198">
        <ele>4.396546</ele>
        <time>2022-08-01T13:18:51.000Z</time>
      </trkpt>
      <trkpt lat="49.33734" lon="-1.21982">
        <ele>4.401592</ele>
        <time>2022-08-01T13:18:52.000Z</time>
      </trkpt>
      <trkpt lat="49.33731" lon="-1.21985">
        <ele>4.406709</ele>
        <time>2022-08-01T13:18:53.000Z</time>
      </trkpt>
      <trkpt lat="49.33729" lon="-1.21987">
        <ele>4.411602</ele>
        <time>2022-08-01T13:18:54.000Z</time>
      </trkpt>
      <trkpt lat="49.33726" lon="-1.2199">
        <ele>4.415882</ele>
        <time>2022-08-01T13:18:55.000Z</time>
      </trkpt>
      <trkpt lat="49.33724" lon="-1.21992">
        <ele>4.420884</ele>
        <time>2022-08-01T13:18:56.000Z</time>
      </trkpt>
      <trkpt lat="49.33722" lon="-1.21994">
        <ele>4.425223</ele>
        <time>2022-08-01T13:18:57.000Z</time>
      </trkpt>
      <trkpt lat="49.33719" lon="-1.21997">
        <ele>4.429686</ele>
        <time>2022-08-01T13:18:58.000Z</time>
      </trkpt>
      <trkpt lat="49.33717" lon="-1.22">
        <ele>4.434538</ele>
        <time>2022-08-01T13:18:59.000Z</time>
      </trkpt>
      <trkpt lat="49.33715" lon="-1.22003">
        <ele>4.439712</ele>
        <time>2022-08-01T13:19:00.000Z</time>
      </trkpt>
      <trkpt lat="49.33712" lon="-1.22006">
        <ele>4.444498</ele>
        <time>2022-08-01T13:19:01.000Z</time>
      </trkpt>
      <trkpt lat="49.3371" lon="-1.22008">
        <ele>4.449481</ele>
        <time>2022-08-01T13:19:02.000Z</time>
      </trkpt>
      <trkpt lat="49.33707" lon="-1.22011">
        <ele>4.454373</ele>
        <time>2022-08-01T13:19:03.000Z</time>
      </trkpt>
      <trkpt lat="49.33704" lon="-1.22013">
        <ele>4.459796</ele>
        <time>2022-08-01T13:19:04.000Z</time>
      </trkpt>
      <trkpt lat="49.33701" lon="-1.22016">
        <ele>4.465325</ele>
        <time>2022-08-01T13:19:05.000Z</time>
      </trkpt>
      <trkpt lat="49.33699" lon="-1.22019">
        <ele>4.470499</ele>
        <time>2022-08-01T13:19:06.000Z</time>
      </trkpt>
      <trkpt lat="49.33696" lon="-1.22022">
        <ele>4.475676</ele>
        <time>2022-08-01T13:19:07.000Z</time>
      </trkpt>
      <trkpt lat="49.33694" lon="-1.22024">
        <ele>4.480139</ele>
        <time>2022-08-01T13:19:08.000Z</time>
      </trkpt>
      <trkpt lat="49.33692" lon="-1.22027">
        <ele>4.485317</ele>
        <time>2022-08-01T13:19:09.000Z</time>
      </trkpt>
      <trkpt lat="49.33689" lon="-1.2203">
        <ele>4.491018</ele>
        <time>2022-08-01T13:19:10.000Z</time>
      </trkpt>
      <trkpt lat="49.33686" lon="-1.22033">
        <ele>4.496525</ele>
        <time>2022-08-01T13:19:11.000Z</time>
      </trkpt>
      <trkpt lat="49.33683" lon="-1.22036">
        <ele>4.50211</ele>
        <time>2022-08-01T13:19:12.000Z</time>
      </trkpt>
      <trkpt lat="49.3368" lon="-1.22039">
        <ele>4.507933</ele>
        <time>2022-08-01T13:19:13.000Z</time>
      </trkpt>
      <trkpt lat="49.33677" lon="-1.22042">
        <ele>4.514102</ele>
        <time>2022-08-01T13:19:14.000Z</time>
      </trkpt>
      <trkpt lat="49.33674" lon="-1.22045">
        <ele>4.520535</ele>
        <time>2022-08-01T13:19:15.000Z</time>
      </trkpt>
      <trkpt lat="49.33671" lon="-1.22048">
        <ele>4.526674</ele>
        <time>2022-08-01T13:19:16.000Z</time>
      </trkpt>
      <trkpt lat="49.33669" lon="-1.22051">
        <ele>4.532361</ele>
        <time>2022-08-01T13:19:17.000Z</time>
      </trkpt>
      <trkpt lat="49.33666" lon="-1.22054">
        <ele>4.5385</ele>
        <time>2022-08-01T13:19:18.000Z</time>
      </trkpt>
      <trkpt lat="49.33663" lon="-1.22057">
        <ele>4.544578</ele>
        <time>2022-08-01T13:19:19.000Z</time>
      </trkpt>
      <trkpt lat="49.3366" lon="-1.22059">
        <ele>4.549925</ele>
        <time>2022-08-01T13:19:20.000Z</time>
      </trkpt>
      <trkpt lat="49.33657" lon="-1.22062">
        <ele>4.557157</ele>
        <time>2022-08-01T13:19:21.000Z</time>
      </trkpt>
      <trkpt lat="49.33654" lon="-1.22065">
        <ele>4.562772</ele>
        <time>2022-08-01T13:19:22.000Z</time>
      </trkpt>
      <trkpt lat="49.33651" lon="-1.22068">
        <ele>4.569373</ele>
        <time>2022-08-01T13:19:23.000Z</time>
      </trkpt>
      <trkpt lat="49.33648" lon="-1.2207">
        <ele>4.574998</ele>
        <time>2022-08-01T13:19:24.000Z</time>
      </trkpt>
      <trkpt lat="49.33645" lon="-1.22073">
        <ele>4.581486</ele>
        <time>2022-08-01T13:19:25.000Z</time>
      </trkpt>
      <trkpt lat="49.33643" lon="-1.22076">
        <ele>4.586534</ele>
        <time>2022-08-01T13:19:26.000Z</time>
      </trkpt>
      <trkpt lat="49.3364" lon="-1.22078">
        <ele>4.591911</ele>
        <time>2022-08-01T13:19:27.000Z</time>
      </trkpt>
      <trkpt lat="49.33637" lon="-1.2208">
        <ele>4.598346</ele>
        <time>2022-08-01T13:19:28.000Z</time>
      </trkpt>
      <trkpt lat="49.33634" lon="-1.22083">
        <ele>4.604142</ele>
        <time>2022-08-01T13:19:29.000Z</time>
      </trkpt>
      <trkpt lat="49.33631" lon="-1.22085">
        <ele>4.610474</ele>
        <time>2022-08-01T13:19:30.000Z</time>
      </trkpt>
      <trkpt lat="49.33628" lon="-1.22087">
        <ele>4.616757</ele>
        <time>2022-08-01T13:19:31.000Z</time>
      </trkpt>
      <trkpt lat="49.33625" lon="-1.22089">
        <ele>4.623089</ele>
        <time>2022-08-01T13:19:32.000Z</time>
      </trkpt>
      <trkpt lat="49.33621" lon="-1.22091">
        <ele>4.629741</ele>
        <time>2022-08-01T13:19:33.000Z</time>
      </trkpt>
      <trkpt lat="49.33618" lon="-1.22093">
        <ele>4.635225</ele>
        <time>2022-08-01T13:19:34.000Z</time>
      </trkpt>
      <trkpt lat="49.33614" lon="-1.22095">
        <ele>4.642351</ele>
        <time>2022-08-01T13:19:35.000Z</time>
      </trkpt>
      <trkpt lat="49.33611" lon="-1.22097">
        <ele>4.648634</ele>
        <time>2022-08-01T13:19:36.000Z</time>
      </trkpt>
      <trkpt lat="49.33608" lon="-1.22098">
        <ele>4.65463</ele>
        <time>2022-08-01T13:19:37.000Z</time>
      </trkpt>
      <trkpt lat="49.33605" lon="-1.221">
        <ele>4.661141</ele>
        <time>2022-08-01T13:19:38.000Z</time>
      </trkpt>
      <trkpt lat="49.33601" lon="-1.22101">
        <ele>4.667685</ele>
        <time>2022-08-01T13:19:39.000Z</time>
      </trkpt>
      <trkpt lat="49.33597" lon="-1.22103">
        <ele>4.67489</ele>
        <time>2022-08-01T13:19:40.000Z</time>
      </trkpt>
      <trkpt lat="49.33594" lon="-1.22104">
        <ele>4.681401</ele>
        <time>2022-08-01T13:19:41.000Z</time>
      </trkpt>
      <trkpt lat="49.3359" lon="-1.22106">
        <ele>4.687469</ele>
        <time>2022-08-01T13:19:42.000Z</time>
      </trkpt>
      <trkpt lat="49.33587" lon="-1.22108">
        <ele>4.69398</ele>
        <time>2022-08-01T13:19:43.000Z</time>
      </trkpt>
      <trkpt lat="49.33583" lon="-1.22109">
        <ele>4.700492</ele>
        <time>2022-08-01T13:19:44.000Z</time>
      </trkpt>
      <trkpt lat="49.3358" lon="-1.22111">
        <ele>4.706488</ele>
        <time>2022-08-01T13:19:45.000Z</time>
      </trkpt>
      <trkpt lat="49.33577" lon="-1.22112">
        <ele>4.713114</ele>
        <time>2022-08-01T13:19:46.000Z</time>
      </trkpt>
      <trkpt lat="49.33573" lon="-1.22113">
        <ele>4.720117</ele>
        <time>2022-08-01T13:19:47.000Z</time>
      </trkpt>
      <trkpt lat="49.33569" lon="-1.22114">
        <ele>4.726519</ele>
        <time>2022-08-01T13:19:48.000Z</time>
      </trkpt>
      <trkpt lat="49.33565" lon="-1.22116">
        <ele>4.733646</ele>
        <time>2022-08-01T13:19:49.000Z</time>
      </trkpt>
      <trkpt lat="49.33562" lon="-1.22117">
        <ele>4.740677</ele>
        <time>2022-08-01T13:19:50.000Z</time>
      </trkpt>
      <trkpt lat="49.33559" lon="-1.22119">
        <ele>4.746161</ele>
        <time>2022-08-01T13:19:51.000Z</time>
      </trkpt>
      <trkpt lat="49.33555" lon="-1.2212">
        <ele>4.753137</ele>
        <time>2022-08-01T13:19:52.000Z</time>
      </trkpt>
      <trkpt lat="49.33551" lon="-1.22121">
        <ele>4.759648</ele>
        <time>2022-08-01T13:19:53.000Z</time>
      </trkpt>
      <trkpt lat="49.33549" lon="-1.22123">
        <ele>4.765211</ele>
        <time>2022-08-01T13:19:54.000Z</time>
      </trkpt>
      <trkpt lat="49.33545" lon="-1.22125">
        <ele>4.772416</ele>
        <time>2022-08-01T13:19:55.000Z</time>
      </trkpt>
      <trkpt lat="49.33541" lon="-1.22126">
        <ele>4.778411</ele>
        <time>2022-08-01T13:19:56.000Z</time>
      </trkpt>
      <trkpt lat="49.33538" lon="-1.22128">
        <ele>4.784923</ele>
        <time>2022-08-01T13:19:57.000Z</time>
      </trkpt>
      <trkpt lat="49.33535" lon="-1.22128">
        <ele>4.790715</ele>
        <time>2022-08-01T13:19:58.000Z</time>
      </trkpt>
      <trkpt lat="49.33531" lon="-1.2213">
        <ele>4.797167</ele>
        <time>2022-08-01T13:19:59.000Z</time>
      </trkpt>
      <trkpt lat="49.33528" lon="-1.22131">
        <ele>4.803547</ele>
        <time>2022-08-01T13:20:00.000Z</time>
      </trkpt>
      <trkpt lat="49.33525" lon="-1.22132">
        <ele>4.809478</ele>
        <time>2022-08-01T13:20:01.000Z</time>
      </trkpt>
      <trkpt lat="49.33521" lon="-1.22133">
        <ele>4.815441</ele>
        <time>2022-08-01T13:20:02.000Z</time>
      </trkpt>
      <trkpt lat="49.33518" lon="-1.22135">
        <ele>4.821893</ele>
        <time>2022-08-01T13:20:03.000Z</time>
      </trkpt>
      <trkpt lat="49.33515" lon="-1.22136">
        <ele>4.827825</ele>
        <time>2022-08-01T13:20:04.000Z</time>
      </trkpt>
      <trkpt lat="49.33511" lon="-1.22137">
        <ele>4.834479</ele>
        <time>2022-08-01T13:20:05.000Z</time>
      </trkpt>
      <trkpt lat="49.33508" lon="-1.22138">
        <ele>4.842036</ele>
        <time>2022-08-01T13:20:06.000Z</time>
      </trkpt>
      <trkpt lat="49.33505" lon="-1.2214">
        <ele>4.849375</ele>
        <time>2022-08-01T13:20:07.000Z</time>
      </trkpt>
      <trkpt lat="49.33501" lon="-1.22141">
        <ele>4.857355</ele>
        <time>2022-08-01T13:20:08.000Z</time>
      </trkpt>
      <trkpt lat="49.33498" lon="-1.22143">
        <ele>4.865991</ele>
        <time>2022-08-01T13:20:09.000Z</time>
      </trkpt>
      <trkpt lat="49.33495" lon="-1.22144">
        <ele>4.87333</ele>
        <time>2022-08-01T13:20:10.000Z</time>
      </trkpt>
      <trkpt lat="49.33492" lon="-1.22146">
        <ele>4.881354</ele>
        <time>2022-08-01T13:20:11.000Z</time>
      </trkpt>
      <trkpt lat="49.33489" lon="-1.22147">
        <ele>4.888466</ele>
        <time>2022-08-01T13:20:12.000Z</time>
      </trkpt>
      <trkpt lat="49.33486" lon="-1.22148">
        <ele>4.896366</ele>
        <time>2022-08-01T13:20:13.000Z</time>
      </trkpt>
      <trkpt lat="49.33483" lon="-1.22149">
        <ele>4.90353</ele>
        <time>2022-08-01T13:20:14.000Z</time>
      </trkpt>
      <trkpt lat="49.3348" lon="-1.22151">
        <ele>4.910733</ele>
        <time>2022-08-01T13:20:15.000Z</time>
      </trkpt>
      <trkpt lat="49.33477" lon="-1.22151">
        <ele>4.917092</ele>
        <time>2022-08-01T13:20:16.000Z</time>
      </trkpt>
      <trkpt lat="49.33475" lon="-1.22152">
        <ele>4.92325</ele>
        <time>2022-08-01T13:20:17.000Z</time>
      </trkpt>
      <trkpt lat="49.33472" lon="-1.22153">
        <ele>4.930316</ele>
        <time>2022-08-01T13:20:18.000Z</time>
      </trkpt>
      <trkpt lat="49.33469" lon="-1.22154">
        <ele>4.937383</ele>
        <time>2022-08-01T13:20:19.000Z</time>
      </trkpt>
      <trkpt lat="49.33466" lon="-1.22155">
        <ele>4.945134</ele>
        <time>2022-08-01T13:20:20.000Z</time>
      </trkpt>
      <trkpt lat="49.33463" lon="-1.22155">
        <ele>4.952133</ele>
        <time>2022-08-01T13:20:21.000Z</time>
      </trkpt>
      <trkpt lat="49.3346" lon="-1.22156">
        <ele>4.959846</ele>
        <time>2022-08-01T13:20:22.000Z</time>
      </trkpt>
      <trkpt lat="49.33457" lon="-1.22156">
        <ele>4.96665</ele>
        <time>2022-08-01T13:20:23.000Z</time>
      </trkpt>
      <trkpt lat="49.33454" lon="-1.22157">
        <ele>4.974363</ele>
        <time>2022-08-01T13:20:24.000Z</time>
      </trkpt>
      <trkpt lat="49.33451" lon="-1.22157">
        <ele>4.982077</ele>
        <time>2022-08-01T13:20:25.000Z</time>
      </trkpt>
      <trkpt lat="49.33448" lon="-1.22158">
        <ele>4.989076</ele>
        <time>2022-08-01T13:20:26.000Z</time>
      </trkpt>
      <trkpt lat="49.33444" lon="-1.22158">
        <ele>4.997469</ele>
        <time>2022-08-01T13:20:27.000Z</time>
      </trkpt>
      <trkpt lat="49.33441" lon="-1.22158">
        <ele>5.004431</ele>
        <time>2022-08-01T13:20:28.000Z</time>
      </trkpt>
      <trkpt lat="49.33438" lon="-1.22157">
        <ele>5.012119</ele>
        <time>2022-08-01T13:20:29.000Z</time>
      </trkpt>
      <trkpt lat="49.33435" lon="-1.22157">
        <ele>5.020519</ele>
        <time>2022-08-01T13:20:30.000Z</time>
      </trkpt>
      <trkpt lat="49.33432" lon="-1.22157">
        <ele>5.02748</ele>
        <time>2022-08-01T13:20:31.000Z</time>
      </trkpt>
      <trkpt lat="49.33429" lon="-1.22157">
        <ele>5.035156</ele>
        <time>2022-08-01T13:20:32.000Z</time>
      </trkpt>
      <trkpt lat="49.33425" lon="-1.22156">
        <ele>5.042855</ele>
        <time>2022-08-01T13:20:33.000Z</time>
      </trkpt>
      <trkpt lat="49.33421" lon="-1.22156">
        <ele>5.052241</ele>
        <time>2022-08-01T13:20:34.000Z</time>
      </trkpt>
      <trkpt lat="49.33418" lon="-1.22155">
        <ele>5.060687</ele>
        <time>2022-08-01T13:20:35.000Z</time>
      </trkpt>
      <trkpt lat="49.33414" lon="-1.22154">
        <ele>5.069197</ele>
        <time>2022-08-01T13:20:36.000Z</time>
      </trkpt>
      <trkpt lat="49.33411" lon="-1.22154">
        <ele>5.077643</ele>
        <time>2022-08-01T13:20:37.000Z</time>
      </trkpt>
      <trkpt lat="49.33408" lon="-1.22153">
        <ele>5.085394</ele>
        <time>2022-08-01T13:20:38.000Z</time>
      </trkpt>
      <trkpt lat="49.33404" lon="-1.22152">
        <ele>5.093995</ele>
        <time>2022-08-01T13:20:39.000Z</time>
      </trkpt>
      <trkpt lat="49.33401" lon="-1.22151">
        <ele>5.102864</ele>
        <time>2022-08-01T13:20:40.000Z</time>
      </trkpt>
      <trkpt lat="49.33397" lon="-1.2215">
        <ele>5.110696</ele>
        <time>2022-08-01T13:20:41.000Z</time>
      </trkpt>
      <trkpt lat="49.33394" lon="-1.22149">
        <ele>5.11916</ele>
        <time>2022-08-01T13:20:42.000Z</time>
      </trkpt>
      <trkpt lat="49.3339" lon="-1.22148">
        <ele>5.128307</ele>
        <time>2022-08-01T13:20:43.000Z</time>
      </trkpt>
      <trkpt lat="49.33387" lon="-1.22148">
        <ele>5.136736</ele>
        <time>2022-08-01T13:20:44.000Z</time>
      </trkpt>
      <trkpt lat="49.33383" lon="-1.22147">
        <ele>5.146136</ele>
        <time>2022-08-01T13:20:45.000Z</time>
      </trkpt>
      <trkpt lat="49.33379" lon="-1.22147">
        <ele>5.155271</ele>
        <time>2022-08-01T13:20:46.000Z</time>
      </trkpt>
      <trkpt lat="49.33376" lon="-1.22146">
        <ele>5.163002</ele>
        <time>2022-08-01T13:20:47.000Z</time>
      </trkpt>
      <trkpt lat="49.33372" lon="-1.22145">
        <ele>5.172541</ele>
        <time>2022-08-01T13:20:48.000Z</time>
      </trkpt>
      <trkpt lat="49.33368" lon="-1.22144">
        <ele>5.181027</ele>
        <time>2022-08-01T13:20:49.000Z</time>
      </trkpt>
      <trkpt lat="49.33365" lon="-1.22143">
        <ele>5.189537</ele>
        <time>2022-08-01T13:20:50.000Z</time>
      </trkpt>
      <trkpt lat="49.33361" lon="-1.22142">
        <ele>5.198075</ele>
        <time>2022-08-01T13:20:51.000Z</time>
      </trkpt>
      <trkpt lat="49.33358" lon="-1.22142">
        <ele>5.205789</ele>
        <time>2022-08-01T13:20:52.000Z</time>
      </trkpt>
      <trkpt lat="49.33354" lon="-1.22141">
        <ele>5.215174</ele>
        <time>2022-08-01T13:20:53.000Z</time>
      </trkpt>
      <trkpt lat="49.33351" lon="-1.22141">
        <ele>5.223581</ele>
        <time>2022-08-01T13:20:54.000Z</time>
      </trkpt>
      <trkpt lat="49.33347" lon="-1.2214">
        <ele>5.232067</ele>
        <time>2022-08-01T13:20:55.000Z</time>
      </trkpt>
      <trkpt lat="49.33343" lon="-1.22139">
        <ele>5.241313</ele>
        <time>2022-08-01T13:20:56.000Z</time>
      </trkpt>
      <trkpt lat="49.3334" lon="-1.22139">
        <ele>5.249012</ele>
        <time>2022-08-01T13:20:57.000Z</time>
      </trkpt>
      <trkpt lat="49.33337" lon="-1.22139">
        <ele>5.257651</ele>
        <time>2022-08-01T13:20:58.000Z</time>
      </trkpt>
      <trkpt lat="49.33333" lon="-1.22139">
        <ele>5.266777</ele>
        <time>2022-08-01T13:20:59.000Z</time>
      </trkpt>
      <trkpt lat="49.33329" lon="-1.22138">
        <ele>5.264859</ele>
        <time>2022-08-01T13:21:00.000Z</time>
      </trkpt>
      <trkpt lat="49.33325" lon="-1.22139">
        <ele>5.259064</ele>
        <time>2022-08-01T13:21:01.000Z</time>
      </trkpt>
      <trkpt lat="49.33322" lon="-1.22138">
        <ele>5.254288</ele>
        <time>2022-08-01T13:21:02.000Z</time>
      </trkpt>
      <trkpt lat="49.33318" lon="-1.22138">
        <ele>5.248638</ele>
        <time>2022-08-01T13:21:03.000Z</time>
      </trkpt>
      <trkpt lat="49.33315" lon="-1.22138">
        <ele>5.243438</ele>
        <time>2022-08-01T13:21:04.000Z</time>
      </trkpt>
      <trkpt lat="49.33311" lon="-1.22137">
        <ele>5.237644</ele>
        <time>2022-08-01T13:21:05.000Z</time>
      </trkpt>
      <trkpt lat="49.33308" lon="-1.22138">
        <ele>5.232424</ele>
        <time>2022-08-01T13:21:06.000Z</time>
      </trkpt>
      <trkpt lat="49.33304" lon="-1.22139">
        <ele>5.227594</ele>
        <time>2022-08-01T13:21:07.000Z</time>
      </trkpt>
      <trkpt lat="49.33301" lon="-1.2214">
        <ele>5.222339</ele>
        <time>2022-08-01T13:21:08.000Z</time>
      </trkpt>
      <trkpt lat="49.33297" lon="-1.22141">
        <ele>5.217053</ele>
        <time>2022-08-01T13:21:09.000Z</time>
      </trkpt>
      <trkpt lat="49.33294" lon="-1.22141">
        <ele>5.211799</ele>
        <time>2022-08-01T13:21:10.000Z</time>
      </trkpt>
      <trkpt lat="49.33291" lon="-1.22142">
        <ele>5.206968</ele>
        <time>2022-08-01T13:21:11.000Z</time>
      </trkpt>
      <trkpt lat="49.33287" lon="-1.22143">
        <ele>5.201567</ele>
        <time>2022-08-01T13:21:12.000Z</time>
      </trkpt>
      <trkpt lat="49.33284" lon="-1.22144">
        <ele>5.196312</ele>
        <time>2022-08-01T13:21:13.000Z</time>
      </trkpt>
      <trkpt lat="49.3328" lon="-1.22145">
        <ele>5.191421</ele>
        <time>2022-08-01T13:21:14.000Z</time>
      </trkpt>
      <trkpt lat="49.33277" lon="-1.22146">
        <ele>5.18566</ele>
        <time>2022-08-01T13:21:15.000Z</time>
      </trkpt>
      <trkpt lat="49.33273" lon="-1.22147">
        <ele>5.180374</ele>
        <time>2022-08-01T13:21:16.000Z</time>
      </trkpt>
      <trkpt lat="49.33269" lon="-1.22148">
        <ele>5.174503</ele>
        <time>2022-08-01T13:21:17.000Z</time>
      </trkpt>
      <trkpt lat="49.33265" lon="-1.22149">
        <ele>5.168778</ele>
        <time>2022-08-01T13:21:18.000Z</time>
      </trkpt>
      <trkpt lat="49.33261" lon="-1.2215">
        <ele>5.162907</ele>
        <time>2022-08-01T13:21:19.000Z</time>
      </trkpt>
      <trkpt lat="49.33258" lon="-1.22151">
        <ele>5.157165</ele>
        <time>2022-08-01T13:21:20.000Z</time>
      </trkpt>
      <trkpt lat="49.33254" lon="-1.22153">
        <ele>5.151339</ele>
        <time>2022-08-01T13:21:21.000Z</time>
      </trkpt>
      <trkpt lat="49.3325" lon="-1.22154">
        <ele>5.145391</ele>
        <time>2022-08-01T13:21:22.000Z</time>
      </trkpt>
      <trkpt lat="49.33246" lon="-1.22155">
        <ele>5.139696</ele>
        <time>2022-08-01T13:21:23.000Z</time>
      </trkpt>
      <trkpt lat="49.33242" lon="-1.22156">
        <ele>5.133423</ele>
        <time>2022-08-01T13:21:24.000Z</time>
      </trkpt>
      <trkpt lat="49.33238" lon="-1.22156">
        <ele>5.127328</ele>
        <time>2022-08-01T13:21:25.000Z</time>
      </trkpt>
      <trkpt lat="49.33234" lon="-1.22157">
        <ele>5.121498</ele>
        <time>2022-08-01T13:21:26.000Z</time>
      </trkpt>
      <trkpt lat="49.3323" lon="-1.22158">
        <ele>5.115318</ele>
        <time>2022-08-01T13:21:27.000Z</time>
      </trkpt>
      <trkpt lat="49.33226" lon="-1.22159">
        <ele>5.109446</ele>
        <time>2022-08-01T13:21:28.000Z</time>
      </trkpt>
      <trkpt lat="49.33222" lon="-1.2216">
        <ele>5.103282</ele>
        <time>2022-08-01T13:21:29.000Z</time>
      </trkpt>
      <trkpt lat="49.33218" lon="-1.22161">
        <ele>5.097411</ele>
        <time>2022-08-01T13:21:30.000Z</time>
      </trkpt>
      <trkpt lat="49.33214" lon="-1.22162">
        <ele>5.091261</ele>
        <time>2022-08-01T13:21:31.000Z</time>
      </trkpt>
      <trkpt lat="49.3321" lon="-1.22162">
        <ele>5.084998</ele>
        <time>2022-08-01T13:21:32.000Z</time>
      </trkpt>
      <trkpt lat="49.33205" lon="-1.22163">
        <ele>5.078687</ele>
        <time>2022-08-01T13:21:33.000Z</time>
      </trkpt>
      <trkpt lat="49.33202" lon="-1.22165">
        <ele>5.072884</ele>
        <time>2022-08-01T13:21:34.000Z</time>
      </trkpt>
      <trkpt lat="49.33198" lon="-1.22166">
        <ele>5.067058</ele>
        <time>2022-08-01T13:21:35.000Z</time>
      </trkpt>
      <trkpt lat="49.33194" lon="-1.22168">
        <ele>5.061063</ele>
        <time>2022-08-01T13:21:36.000Z</time>
      </trkpt>
      <trkpt lat="49.3319" lon="-1.22169">
        <ele>5.055261</ele>
        <time>2022-08-01T13:21:37.000Z</time>
      </trkpt>
      <trkpt lat="49.33186" lon="-1.22171">
        <ele>5.049291</ele>
        <time>2022-08-01T13:21:38.000Z</time>
      </trkpt>
      <trkpt lat="49.33183" lon="-1.22172">
        <ele>5.044421</ele>
        <time>2022-08-01T13:21:39.000Z</time>
      </trkpt>
      <trkpt lat="49.33179" lon="-1.22173">
        <ele>5.038661</ele>
        <time>2022-08-01T13:21:40.000Z</time>
      </trkpt>
      <trkpt lat="49.33175" lon="-1.22174">
        <ele>5.032965</ele>
        <time>2022-08-01T13:21:41.000Z</time>
      </trkpt>
      <trkpt lat="49.33171" lon="-1.22175">
        <ele>5.026622</ele>
        <time>2022-08-01T13:21:42.000Z</time>
      </trkpt>
      <trkpt lat="49.33167" lon="-1.22176">
        <ele>5.020897</ele>
        <time>2022-08-01T13:21:43.000Z</time>
      </trkpt>
      <trkpt lat="49.33163" lon="-1.22177">
        <ele>5.014535</ele>
        <time>2022-08-01T13:21:44.000Z</time>
      </trkpt>
      <trkpt lat="49.33159" lon="-1.22178">
        <ele>5.007783</ele>
        <time>2022-08-01T13:21:45.000Z</time>
      </trkpt>
      <trkpt lat="49.33155" lon="-1.22179">
        <ele>5.001786</ele>
        <time>2022-08-01T13:21:46.000Z</time>
      </trkpt>
      <trkpt lat="49.3315" lon="-1.2218">
        <ele>5.00428</ele>
        <time>2022-08-01T13:21:47.000Z</time>
      </trkpt>
      <trkpt lat="49.33146" lon="-1.22181">
        <ele>5.006769</ele>
        <time>2022-08-01T13:21:48.000Z</time>
      </trkpt>
      <trkpt lat="49.33142" lon="-1.22182">
        <ele>5.009369</ele>
        <time>2022-08-01T13:21:49.000Z</time>
      </trkpt>
      <trkpt lat="49.33138" lon="-1.22183">
        <ele>5.011853</ele>
        <time>2022-08-01T13:21:50.000Z</time>
      </trkpt>
      <trkpt lat="49.33133" lon="-1.22184">
        <ele>5.014332</ele>
        <time>2022-08-01T13:21:51.000Z</time>
      </trkpt>
      <trkpt lat="49.33129" lon="-1.22184">
        <ele>5.017155</ele>
        <time>2022-08-01T13:21:52.000Z</time>
      </trkpt>
      <trkpt lat="49.33125" lon="-1.22185">
        <ele>5.019569</ele>
        <time>2022-08-01T13:21:53.000Z</time>
      </trkpt>
      <trkpt lat="49.3312" lon="-1.22185">
        <ele>5.022041</ele>
        <time>2022-08-01T13:21:54.000Z</time>
      </trkpt>
      <trkpt lat="49.33116" lon="-1.22186">
        <ele>5.024462</ele>
        <time>2022-08-01T13:21:55.000Z</time>
      </trkpt>
      <trkpt lat="49.33112" lon="-1.22186">
        <ele>5.027113</ele>
        <time>2022-08-01T13:21:56.000Z</time>
      </trkpt>
      <trkpt lat="49.33108" lon="-1.22187">
        <ele>5.029585</ele>
        <time>2022-08-01T13:21:57.000Z</time>
      </trkpt>
      <trkpt lat="49.33103" lon="-1.22188">
        <ele>5.032423</ele>
        <time>2022-08-01T13:21:58.000Z</time>
      </trkpt>
      <trkpt lat="49.33098" lon="-1.22188">
        <ele>5.035071</ele>
        <time>2022-08-01T13:21:59.000Z</time>
      </trkpt>
      <trkpt lat="49.33094" lon="-1.22189">
        <ele>5.037488</ele>
        <time>2022-08-01T13:22:00.000Z</time>
      </trkpt>
      <trkpt lat="49.3309" lon="-1.2219">
        <ele>5.039967</ele>
        <time>2022-08-01T13:22:01.000Z</time>
      </trkpt>
      <trkpt lat="49.33086" lon="-1.22191">
        <ele>5.042403</ele>
        <time>2022-08-01T13:22:02.000Z</time>
      </trkpt>
      <trkpt lat="49.33081" lon="-1.22192">
        <ele>5.045257</ele>
        <time>2022-08-01T13:22:03.000Z</time>
      </trkpt>
      <trkpt lat="49.33077" lon="-1.22193">
        <ele>5.047585</ele>
        <time>2022-08-01T13:22:04.000Z</time>
      </trkpt>
      <trkpt lat="49.33073" lon="-1.22194">
        <ele>5.050058</ele>
        <time>2022-08-01T13:22:05.000Z</time>
      </trkpt>
      <trkpt lat="49.33069" lon="-1.22196">
        <ele>5.052607</ele>
        <time>2022-08-01T13:22:06.000Z</time>
      </trkpt>
      <trkpt lat="49.33065" lon="-1.22198">
        <ele>5.054941</ele>
        <time>2022-08-01T13:22:07.000Z</time>
      </trkpt>
      <trkpt lat="49.33061" lon="-1.222">
        <ele>5.057522</ele>
        <time>2022-08-01T13:22:08.000Z</time>
      </trkpt>
      <trkpt lat="49.33057" lon="-1.22202">
        <ele>5.059879</ele>
        <time>2022-08-01T13:22:09.000Z</time>
      </trkpt>
      <trkpt lat="49.33053" lon="-1.22204">
        <ele>5.062523</ele>
        <time>2022-08-01T13:22:10.000Z</time>
      </trkpt>
      <trkpt lat="49.33049" lon="-1.22208">
        <ele>5.065275</ele>
        <time>2022-08-01T13:22:11.000Z</time>
      </trkpt>
      <trkpt lat="49.33044" lon="-1.22211">
        <ele>5.068101</ele>
        <time>2022-08-01T13:22:12.000Z</time>
      </trkpt>
      <trkpt lat="49.3304" lon="-1.22214">
        <ele>5.07082</ele>
        <time>2022-08-01T13:22:13.000Z</time>
      </trkpt>
      <trkpt lat="49.33035" lon="-1.22217">
        <ele>5.073906</ele>
        <time>2022-08-01T13:22:14.000Z</time>
      </trkpt>
      <trkpt lat="49.33031" lon="-1.2222">
        <ele>5.076625</ele>
        <time>2022-08-01T13:22:15.000Z</time>
      </trkpt>
      <trkpt lat="49.33027" lon="-1.22223">
        <ele>5.079116</ele>
        <time>2022-08-01T13:22:16.000Z</time>
      </trkpt>
      <trkpt lat="49.33023" lon="-1.22225">
        <ele>5.081759</ele>
        <time>2022-08-01T13:22:17.000Z</time>
      </trkpt>
      <trkpt lat="49.33019" lon="-1.22228">
        <ele>5.084393</ele>
        <time>2022-08-01T13:22:18.000Z</time>
      </trkpt>
      <trkpt lat="49.33015" lon="-1.22231">
        <ele>5.087112</ele>
        <time>2022-08-01T13:22:19.000Z</time>
      </trkpt>
      <trkpt lat="49.33011" lon="-1.22234">
        <ele>5.089569</ele>
        <time>2022-08-01T13:22:20.000Z</time>
      </trkpt>
      <trkpt lat="49.33007" lon="-1.22236">
        <ele>5.092065</ele>
        <time>2022-08-01T13:22:21.000Z</time>
      </trkpt>
      <trkpt lat="49.33003" lon="-1.22239">
        <ele>5.094573</ele>
        <time>2022-08-01T13:22:22.000Z</time>
      </trkpt>
      <trkpt lat="49.33" lon="-1.22242">
        <ele>5.096907</ele>
        <time>2022-08-01T13:22:23.000Z</time>
      </trkpt>
      <trkpt lat="49.32996" lon="-1.22245">
        <ele>5.099434</ele>
        <time>2022-08-01T13:22:24.000Z</time>
      </trkpt>
      <trkpt lat="49.32992" lon="-1.22248">
        <ele>5.101733</ele>
        <time>2022-08-01T13:22:25.000Z</time>
      </trkpt>
      <trkpt lat="49.32989" lon="-1.22251">
        <ele>5.104207</ele>
        <time>2022-08-01T13:22:26.000Z</time>
      </trkpt>
      <trkpt lat="49.32984" lon="-1.22254">
        <ele>5.106959</ele>
        <time>2022-08-01T13:22:27.000Z</time>
      </trkpt>
      <trkpt lat="49.32981" lon="-1.22257">
        <ele>5.095479</ele>
        <time>2022-08-01T13:22:28.000Z</time>
      </trkpt>
      <trkpt lat="49.32976" lon="-1.2226">
        <ele>5.079954</ele>
        <time>2022-08-01T13:22:29.000Z</time>
      </trkpt>
      <trkpt lat="49.32973" lon="-1.22263">
        <ele>5.067268</ele>
        <time>2022-08-01T13:22:30.000Z</time>
      </trkpt>
      <trkpt lat="49.32969" lon="-1.22266">
        <ele>5.052972</ele>
        <time>2022-08-01T13:22:31.000Z</time>
      </trkpt>
      <trkpt lat="49.32965" lon="-1.2227">
        <ele>5.038948</ele>
        <time>2022-08-01T13:22:32.000Z</time>
      </trkpt>
      <trkpt lat="49.32961" lon="-1.22273">
        <ele>5.025029</ele>
        <time>2022-08-01T13:22:33.000Z</time>
      </trkpt>
      <trkpt lat="49.32957" lon="-1.22277">
        <ele>5.011202</ele>
        <time>2022-08-01T13:22:34.000Z</time>
      </trkpt>
      <trkpt lat="49.32954" lon="-1.22281">
        <ele>4.996262</ele>
        <time>2022-08-01T13:22:35.000Z</time>
      </trkpt>
      <trkpt lat="49.32951" lon="-1.22286">
        <ele>4.983212</ele>
        <time>2022-08-01T13:22:36.000Z</time>
      </trkpt>
      <trkpt lat="49.32948" lon="-1.22291">
        <ele>4.968907</ele>
        <time>2022-08-01T13:22:37.000Z</time>
      </trkpt>
      <trkpt lat="49.32945" lon="-1.22296">
        <ele>4.955104</ele>
        <time>2022-08-01T13:22:38.000Z</time>
      </trkpt>
      <trkpt lat="49.32942" lon="-1.22301">
        <ele>4.941509</ele>
        <time>2022-08-01T13:22:39.000Z</time>
      </trkpt>
      <trkpt lat="49.32939" lon="-1.22306">
        <ele>4.92783</ele>
        <time>2022-08-01T13:22:40.000Z</time>
      </trkpt>
      <trkpt lat="49.32937" lon="-1.22312">
        <ele>4.914993</ele>
        <time>2022-08-01T13:22:41.000Z</time>
      </trkpt>
      <trkpt lat="49.32936" lon="-1.22317">
        <ele>4.902195</ele>
        <time>2022-08-01T13:22:42.000Z</time>
      </trkpt>
      <trkpt lat="49.32935" lon="-1.22323">
        <ele>4.889822</ele>
        <time>2022-08-01T13:22:43.000Z</time>
      </trkpt>
      <trkpt lat="49.32933" lon="-1.22329">
        <ele>4.876392</ele>
        <time>2022-08-01T13:22:44.000Z</time>
      </trkpt>
      <trkpt lat="49.32933" lon="-1.22335">
        <ele>4.863777</ele>
        <time>2022-08-01T13:22:45.000Z</time>
      </trkpt>
      <trkpt lat="49.32933" lon="-1.22342">
        <ele>4.850545</ele>
        <time>2022-08-01T13:22:46.000Z</time>
      </trkpt>
      <trkpt lat="49.32933" lon="-1.22348">
        <ele>4.838172</ele>
        <time>2022-08-01T13:22:47.000Z</time>
      </trkpt>
      <trkpt lat="49.32933" lon="-1.22354">
        <ele>4.825592</ele>
        <time>2022-08-01T13:22:48.000Z</time>
      </trkpt>
      <trkpt lat="49.32933" lon="-1.2236">
        <ele>4.812772</ele>
        <time>2022-08-01T13:22:49.000Z</time>
      </trkpt>
      <trkpt lat="49.32933" lon="-1.22367">
        <ele>4.799368</ele>
        <time>2022-08-01T13:22:50.000Z</time>
      </trkpt>
      <trkpt lat="49.32933" lon="-1.22373">
        <ele>4.786995</ele>
        <time>2022-08-01T13:22:51.000Z</time>
      </trkpt>
      <trkpt lat="49.32933" lon="-1.22379">
        <ele>4.773968</ele>
        <time>2022-08-01T13:22:52.000Z</time>
      </trkpt>
      <trkpt lat="49.32932" lon="-1.22385">
        <ele>4.761043</ele>
        <time>2022-08-01T13:22:53.000Z</time>
      </trkpt>
      <trkpt lat="49.32932" lon="-1.22392">
        <ele>4.747457</ele>
        <time>2022-08-01T13:22:54.000Z</time>
      </trkpt>
      <trkpt lat="49.32931" lon="-1.22398">
        <ele>4.734327</ele>
        <time>2022-08-01T13:22:55.000Z</time>
      </trkpt>
      <trkpt lat="49.3293" lon="-1.22404">
        <ele>4.721156</ele>
        <time>2022-08-01T13:22:56.000Z</time>
      </trkpt>
      <trkpt lat="49.3293" lon="-1.2241">
        <ele>4.708164</ele>
        <time>2022-08-01T13:22:57.000Z</time>
      </trkpt>
      <trkpt lat="49.3293" lon="-1.22417">
        <ele>4.695344</ele>
        <time>2022-08-01T13:22:58.000Z</time>
      </trkpt>
      <trkpt lat="49.32929" lon="-1.22423">
        <ele>4.682214</ele>
        <time>2022-08-01T13:22:59.000Z</time>
      </trkpt>
      <trkpt lat="49.32928" lon="-1.22429">
        <ele>4.669238</ele>
        <time>2022-08-01T13:23:00.000Z</time>
      </trkpt>
      <trkpt lat="49.32928" lon="-1.22435">
        <ele>4.656108</ele>
        <time>2022-08-01T13:23:01.000Z</time>
      </trkpt>
      <trkpt lat="49.32927" lon="-1.22442">
        <ele>4.643288</ele>
        <time>2022-08-01T13:23:02.000Z</time>
      </trkpt>
      <trkpt lat="49.32927" lon="-1.22448">
        <ele>4.63044</ele>
        <time>2022-08-01T13:23:03.000Z</time>
      </trkpt>
      <trkpt lat="49.32926" lon="-1.22454">
        <ele>4.617542</ele>
        <time>2022-08-01T13:23:04.000Z</time>
      </trkpt>
      <trkpt lat="49.32926" lon="-1.2246">
        <ele>4.60431</ele>
        <time>2022-08-01T13:23:05.000Z</time>
      </trkpt>
      <trkpt lat="49.32925" lon="-1.22467">
        <ele>4.590537</ele>
        <time>2022-08-01T13:23:06.000Z</time>
      </trkpt>
      <trkpt lat="49.32924" lon="-1.22473">
        <ele>4.57691</ele>
        <time>2022-08-01T13:23:07.000Z</time>
      </trkpt>
      <trkpt lat="49.32922" lon="-1.22479">
        <ele>4.563283</ele>
        <time>2022-08-01T13:23:08.000Z</time>
      </trkpt>
      <trkpt lat="49.32921" lon="-1.22486">
        <ele>4.549945</ele>
        <time>2022-08-01T13:23:09.000Z</time>
      </trkpt>
      <trkpt lat="49.3292" lon="-1.22492">
        <ele>4.539529</ele>
        <time>2022-08-01T13:23:10.000Z</time>
      </trkpt>
      <trkpt lat="49.32918" lon="-1.22498">
        <ele>4.55416</ele>
        <time>2022-08-01T13:23:11.000Z</time>
      </trkpt>
      <trkpt lat="49.32917" lon="-1.22504">
        <ele>4.568576</ele>
        <time>2022-08-01T13:23:12.000Z</time>
      </trkpt>
      <trkpt lat="49.32916" lon="-1.2251">
        <ele>4.583417</ele>
        <time>2022-08-01T13:23:13.000Z</time>
      </trkpt>
      <trkpt lat="49.32914" lon="-1.22516">
        <ele>4.598887</ele>
        <time>2022-08-01T13:23:14.000Z</time>
      </trkpt>
      <trkpt lat="49.32912" lon="-1.22523">
        <ele>4.614966</ele>
        <time>2022-08-01T13:23:15.000Z</time>
      </trkpt>
      <trkpt lat="49.3291" lon="-1.22529">
        <ele>4.63125</ele>
        <time>2022-08-01T13:23:16.000Z</time>
      </trkpt>
      <trkpt lat="49.32908" lon="-1.22536">
        <ele>4.647123</ele>
        <time>2022-08-01T13:23:17.000Z</time>
      </trkpt>
      <trkpt lat="49.32907" lon="-1.22542">
        <ele>4.661608</ele>
        <time>2022-08-01T13:23:18.000Z</time>
      </trkpt>
      <trkpt lat="49.32906" lon="-1.22548">
        <ele>4.676738</ele>
        <time>2022-08-01T13:23:19.000Z</time>
      </trkpt>
      <trkpt lat="49.32904" lon="-1.22554">
        <ele>4.69137</ele>
        <time>2022-08-01T13:23:20.000Z</time>
      </trkpt>
      <trkpt lat="49.32903" lon="-1.2256">
        <ele>4.705347</ele>
        <time>2022-08-01T13:23:21.000Z</time>
      </trkpt>
      <trkpt lat="49.32902" lon="-1.22566">
        <ele>4.719082</ele>
        <time>2022-08-01T13:23:22.000Z</time>
      </trkpt>
      <trkpt lat="49.32901" lon="-1.22572">
        <ele>4.732711</ele>
        <time>2022-08-01T13:23:23.000Z</time>
      </trkpt>
      <trkpt lat="49.329" lon="-1.22578">
        <ele>4.746689</ele>
        <time>2022-08-01T13:23:24.000Z</time>
      </trkpt>
      <trkpt lat="49.32899" lon="-1.22584">
        <ele>4.760271</ele>
        <time>2022-08-01T13:23:25.000Z</time>
      </trkpt>
      <trkpt lat="49.32898" lon="-1.2259">
        <ele>4.774905</ele>
        <time>2022-08-01T13:23:26.000Z</time>
      </trkpt>
      <trkpt lat="49.32898" lon="-1.22596">
        <ele>4.789162</ele>
        <time>2022-08-01T13:23:27.000Z</time>
      </trkpt>
      <trkpt lat="49.32898" lon="-1.22603">
        <ele>4.803194</ele>
        <time>2022-08-01T13:23:28.000Z</time>
      </trkpt>
      <trkpt lat="49.32898" lon="-1.22608">
        <ele>4.816326</ele>
        <time>2022-08-01T13:23:29.000Z</time>
      </trkpt>
      <trkpt lat="49.32898" lon="-1.22615">
        <ele>4.830808</ele>
        <time>2022-08-01T13:23:30.000Z</time>
      </trkpt>
      <trkpt lat="49.32898" lon="-1.22621">
        <ele>4.843939</ele>
        <time>2022-08-01T13:23:31.000Z</time>
      </trkpt>
      <trkpt lat="49.32898" lon="-1.22627">
        <ele>4.857932</ele>
        <time>2022-08-01T13:23:32.000Z</time>
      </trkpt>
      <trkpt lat="49.32898" lon="-1.22633">
        <ele>4.871023</ele>
        <time>2022-08-01T13:23:33.000Z</time>
      </trkpt>
      <trkpt lat="49.32898" lon="-1.22639">
        <ele>4.884565</ele>
        <time>2022-08-01T13:23:34.000Z</time>
      </trkpt>
      <trkpt lat="49.32897" lon="-1.22644">
        <ele>4.897596</ele>
        <time>2022-08-01T13:23:35.000Z</time>
      </trkpt>
      <trkpt lat="49.32897" lon="-1.2265">
        <ele>4.910278</ele>
        <time>2022-08-01T13:23:36.000Z</time>
      </trkpt>
      <trkpt lat="49.32896" lon="-1.22655">
        <ele>4.922926</ele>
        <time>2022-08-01T13:23:37.000Z</time>
      </trkpt>
      <trkpt lat="49.32896" lon="-1.2266">
        <ele>4.934211</ele>
        <time>2022-08-01T13:23:38.000Z</time>
      </trkpt>
      <trkpt lat="49.32896" lon="-1.22665">
        <ele>4.945319</ele>
        <time>2022-08-01T13:23:39.000Z</time>
      </trkpt>
      <trkpt lat="49.32895" lon="-1.2267">
        <ele>4.955907</ele>
        <time>2022-08-01T13:23:40.000Z</time>
      </trkpt>
      <trkpt lat="49.32894" lon="-1.22675">
        <ele>4.967874</ele>
        <time>2022-08-01T13:23:41.000Z</time>
      </trkpt>
      <trkpt lat="49.32892" lon="-1.22679">
        <ele>4.980043</ele>
        <time>2022-08-01T13:23:42.000Z</time>
      </trkpt>
      <trkpt lat="49.32891" lon="-1.22684">
        <ele>4.991631</ele>
        <time>2022-08-01T13:23:43.000Z</time>
      </trkpt>
      <trkpt lat="49.3289" lon="-1.22689">
        <ele>5.003781</ele>
        <time>2022-08-01T13:23:44.000Z</time>
      </trkpt>
      <trkpt lat="49.32889" lon="-1.22694">
        <ele>5.014812</ele>
        <time>2022-08-01T13:23:45.000Z</time>
      </trkpt>
      <trkpt lat="49.32888" lon="-1.22698">
        <ele>5.025511</ele>
        <time>2022-08-01T13:23:46.000Z</time>
      </trkpt>
      <trkpt lat="49.32886" lon="-1.22703">
        <ele>5.03708</ele>
        <time>2022-08-01T13:23:47.000Z</time>
      </trkpt>
      <trkpt lat="49.32884" lon="-1.22707">
        <ele>5.049242</ele>
        <time>2022-08-01T13:23:48.000Z</time>
      </trkpt>
      <trkpt lat="49.32882" lon="-1.22712">
        <ele>5.061535</ele>
        <time>2022-08-01T13:23:49.000Z</time>
      </trkpt>
      <trkpt lat="49.3288" lon="-1.22716">
        <ele>5.074018</ele>
        <time>2022-08-01T13:23:50.000Z</time>
      </trkpt>
      <trkpt lat="49.32878" lon="-1.22721">
        <ele>5.086693</ele>
        <time>2022-08-01T13:23:51.000Z</time>
      </trkpt>
      <trkpt lat="49.32876" lon="-1.22726">
        <ele>5.099938</ele>
        <time>2022-08-01T13:23:52.000Z</time>
      </trkpt>
      <trkpt lat="49.32875" lon="-1.22731">
        <ele>5.11251</ele>
        <time>2022-08-01T13:23:53.000Z</time>
      </trkpt>
      <trkpt lat="49.32872" lon="-1.22736">
        <ele>5.126322</ele>
        <time>2022-08-01T13:23:54.000Z</time>
      </trkpt>
      <trkpt lat="49.3287" lon="-1.22741">
        <ele>5.139777</ele>
        <time>2022-08-01T13:23:55.000Z</time>
      </trkpt>
      <trkpt lat="49.32869" lon="-1.22746">
        <ele>5.153232</ele>
        <time>2022-08-01T13:23:56.000Z</time>
      </trkpt>
      <trkpt lat="49.32867" lon="-1.22751">
        <ele>5.16407</ele>
        <time>2022-08-01T13:23:57.000Z</time>
      </trkpt>
      <trkpt lat="49.32864" lon="-1.22756">
        <ele>5.172655</ele>
        <time>2022-08-01T13:23:58.000Z</time>
      </trkpt>
      <trkpt lat="49.32862" lon="-1.22761">
        <ele>5.181351</ele>
        <time>2022-08-01T13:23:59.000Z</time>
      </trkpt>
      <trkpt lat="49.3286" lon="-1.22767">
        <ele>5.189837</ele>
        <time>2022-08-01T13:24:00.000Z</time>
      </trkpt>
      <trkpt lat="49.32858" lon="-1.22772">
        <ele>5.199241</ele>
        <time>2022-08-01T13:24:01.000Z</time>
      </trkpt>
      <trkpt lat="49.32856" lon="-1.22778">
        <ele>5.208097</ele>
        <time>2022-08-01T13:24:02.000Z</time>
      </trkpt>
      <trkpt lat="49.32854" lon="-1.22784">
        <ele>5.217078</ele>
        <time>2022-08-01T13:24:03.000Z</time>
      </trkpt>
      <trkpt lat="49.32852" lon="-1.22789">
        <ele>5.225809</ele>
        <time>2022-08-01T13:24:04.000Z</time>
      </trkpt>
      <trkpt lat="49.32851" lon="-1.22795">
        <ele>5.234258</ele>
        <time>2022-08-01T13:24:05.000Z</time>
      </trkpt>
      <trkpt lat="49.32849" lon="-1.228">
        <ele>5.243339</ele>
        <time>2022-08-01T13:24:06.000Z</time>
      </trkpt>
      <trkpt lat="49.32847" lon="-1.22806">
        <ele>5.251824</ele>
        <time>2022-08-01T13:24:07.000Z</time>
      </trkpt>
      <trkpt lat="49.32845" lon="-1.22811">
        <ele>5.260805</ele>
        <time>2022-08-01T13:24:08.000Z</time>
      </trkpt>
      <trkpt lat="49.32843" lon="-1.22817">
        <ele>5.269537</ele>
        <time>2022-08-01T13:24:09.000Z</time>
      </trkpt>
      <trkpt lat="49.32841" lon="-1.22823">
        <ele>5.278894</ele>
        <time>2022-08-01T13:24:10.000Z</time>
      </trkpt>
      <trkpt lat="49.3284" lon="-1.22829">
        <ele>5.287764</ele>
        <time>2022-08-01T13:24:11.000Z</time>
      </trkpt>
      <trkpt lat="49.32838" lon="-1.22835">
        <ele>5.297121</ele>
        <time>2022-08-01T13:24:12.000Z</time>
      </trkpt>
      <trkpt lat="49.32836" lon="-1.22841">
        <ele>5.3067</ele>
        <time>2022-08-01T13:24:13.000Z</time>
      </trkpt>
      <trkpt lat="49.32834" lon="-1.22847">
        <ele>5.316057</ele>
        <time>2022-08-01T13:24:14.000Z</time>
      </trkpt>
      <trkpt lat="49.32832" lon="-1.22852">
        <ele>5.324789</ele>
        <time>2022-08-01T13:24:15.000Z</time>
      </trkpt>
      <trkpt lat="49.3283" lon="-1.22858">
        <ele>5.334324</ele>
        <time>2022-08-01T13:24:16.000Z</time>
      </trkpt>
      <trkpt lat="49.32827" lon="-1.22864">
        <ele>5.344358</ele>
        <time>2022-08-01T13:24:17.000Z</time>
      </trkpt>
      <trkpt lat="49.32825" lon="-1.22869">
        <ele>5.353173</ele>
        <time>2022-08-01T13:24:18.000Z</time>
      </trkpt>
      <trkpt lat="49.32822" lon="-1.22874">
        <ele>5.362013</ele>
        <time>2022-08-01T13:24:19.000Z</time>
      </trkpt>
      <trkpt lat="49.32819" lon="-1.22879">
        <ele>5.371548</ele>
        <time>2022-08-01T13:24:20.000Z</time>
      </trkpt>
      <trkpt lat="49.32816" lon="-1.22883">
        <ele>5.38089</ele>
        <time>2022-08-01T13:24:21.000Z</time>
      </trkpt>
      <trkpt lat="49.32812" lon="-1.22888">
        <ele>5.390719</ele>
        <time>2022-08-01T13:24:22.000Z</time>
      </trkpt>
      <trkpt lat="49.32809" lon="-1.22893">
        <ele>5.400549</ele>
        <time>2022-08-01T13:24:23.000Z</time>
      </trkpt>
      <trkpt lat="49.32806" lon="-1.22898">
        <ele>5.409938</ele>
        <time>2022-08-01T13:24:24.000Z</time>
      </trkpt>
      <trkpt lat="49.32803" lon="-1.22903">
        <ele>5.420042</ele>
        <time>2022-08-01T13:24:25.000Z</time>
      </trkpt>
      <trkpt lat="49.328" lon="-1.22907">
        <ele>5.429223</ele>
        <time>2022-08-01T13:24:26.000Z</time>
      </trkpt>
      <trkpt lat="49.32796" lon="-1.22912">
        <ele>5.439516</ele>
        <time>2022-08-01T13:24:27.000Z</time>
      </trkpt>
      <trkpt lat="49.32793" lon="-1.22918">
        <ele>5.449548</ele>
        <time>2022-08-01T13:24:28.000Z</time>
      </trkpt>
      <trkpt lat="49.3279" lon="-1.22923">
        <ele>5.459256</ele>
        <time>2022-08-01T13:24:29.000Z</time>
      </trkpt>
      <trkpt lat="49.32787" lon="-1.22928">
        <ele>5.469598</ele>
        <time>2022-08-01T13:24:30.000Z</time>
      </trkpt>
      <trkpt lat="49.32784" lon="-1.22934">
        <ele>5.478792</ele>
        <time>2022-08-01T13:24:31.000Z</time>
      </trkpt>
      <trkpt lat="49.32782" lon="-1.22939">
        <ele>5.487606</ele>
        <time>2022-08-01T13:24:32.000Z</time>
      </trkpt>
      <trkpt lat="49.32779" lon="-1.22944">
        <ele>5.497207</ele>
        <time>2022-08-01T13:24:33.000Z</time>
      </trkpt>
      <trkpt lat="49.32777" lon="-1.22949">
        <ele>5.505569</ele>
        <time>2022-08-01T13:24:34.000Z</time>
      </trkpt>
      <trkpt lat="49.32775" lon="-1.22954">
        <ele>5.513447</ele>
        <time>2022-08-01T13:24:35.000Z</time>
      </trkpt>
      <trkpt lat="49.32773" lon="-1.22959">
        <ele>5.521917</ele>
        <time>2022-08-01T13:24:36.000Z</time>
      </trkpt>
      <trkpt lat="49.32772" lon="-1.22964">
        <ele>5.529391</ele>
        <time>2022-08-01T13:24:37.000Z</time>
      </trkpt>
      <trkpt lat="49.32771" lon="-1.22969">
        <ele>5.537331</ele>
        <time>2022-08-01T13:24:38.000Z</time>
      </trkpt>
      <trkpt lat="49.32769" lon="-1.22975">
        <ele>5.545144</ele>
        <time>2022-08-01T13:24:39.000Z</time>
      </trkpt>
      <trkpt lat="49.32768" lon="-1.2298">
        <ele>5.547707</ele>
        <time>2022-08-01T13:24:40.000Z</time>
      </trkpt>
      <trkpt lat="49.32767" lon="-1.22985">
        <ele>5.546863</ele>
        <time>2022-08-01T13:24:41.000Z</time>
      </trkpt>
      <trkpt lat="49.32765" lon="-1.2299">
        <ele>5.545989</ele>
        <time>2022-08-01T13:24:42.000Z</time>
      </trkpt>
      <trkpt lat="49.32764" lon="-1.22994">
        <ele>5.545197</ele>
        <time>2022-08-01T13:24:43.000Z</time>
      </trkpt>
      <trkpt lat="49.32762" lon="-1.22999">
        <ele>5.54433</ele>
        <time>2022-08-01T13:24:44.000Z</time>
      </trkpt>
      <trkpt lat="49.3276" lon="-1.23004">
        <ele>5.543436</ele>
        <time>2022-08-01T13:24:45.000Z</time>
      </trkpt>
      <trkpt lat="49.32758" lon="-1.23008">
        <ele>5.542581</ele>
        <time>2022-08-01T13:24:46.000Z</time>
      </trkpt>
      <trkpt lat="49.32756" lon="-1.23013">
        <ele>5.541712</ele>
        <time>2022-08-01T13:24:47.000Z</time>
      </trkpt>
      <trkpt lat="49.32753" lon="-1.23017">
        <ele>5.540741</ele>
        <time>2022-08-01T13:24:48.000Z</time>
      </trkpt>
      <trkpt lat="49.3275" lon="-1.23021">
        <ele>5.539802</ele>
        <time>2022-08-01T13:24:49.000Z</time>
      </trkpt>
      <trkpt lat="49.32748" lon="-1.23024">
        <ele>5.538933</ele>
        <time>2022-08-01T13:24:50.000Z</time>
      </trkpt>
      <trkpt lat="49.32745" lon="-1.23028">
        <ele>5.538055</ele>
        <time>2022-08-01T13:24:51.000Z</time>
      </trkpt>
      <trkpt lat="49.32742" lon="-1.23031">
        <ele>5.53724</ele>
        <time>2022-08-01T13:24:52.000Z</time>
      </trkpt>
      <trkpt lat="49.32739" lon="-1.23035">
        <ele>5.536312</ele>
        <time>2022-08-01T13:24:53.000Z</time>
      </trkpt>
      <trkpt lat="49.32736" lon="-1.23038">
        <ele>5.535393</ele>
        <time>2022-08-01T13:24:54.000Z</time>
      </trkpt>
      <trkpt lat="49.32733" lon="-1.23041">
        <ele>5.534505</ele>
        <time>2022-08-01T13:24:55.000Z</time>
      </trkpt>
      <trkpt lat="49.3273" lon="-1.23045">
        <ele>5.533662</ele>
        <time>2022-08-01T13:24:56.000Z</time>
      </trkpt>
      <trkpt lat="49.32728" lon="-1.23049">
        <ele>5.532793</ele>
        <time>2022-08-01T13:24:57.000Z</time>
      </trkpt>
      <trkpt lat="49.32725" lon="-1.23053">
        <ele>5.531939</ele>
        <time>2022-08-01T13:24:58.000Z</time>
      </trkpt>
      <trkpt lat="49.32723" lon="-1.23057">
        <ele>5.531057</ele>
        <time>2022-08-01T13:24:59.000Z</time>
      </trkpt>
      <trkpt lat="49.32721" lon="-1.23061">
        <ele>5.530196</ele>
        <time>2022-08-01T13:25:00.000Z</time>
      </trkpt>
      <trkpt lat="49.32718" lon="-1.23066">
        <ele>5.529314</ele>
        <time>2022-08-01T13:25:01.000Z</time>
      </trkpt>
      <trkpt lat="49.32717" lon="-1.2307">
        <ele>5.528564</ele>
        <time>2022-08-01T13:25:02.000Z</time>
      </trkpt>
      <trkpt lat="49.32715" lon="-1.23074">
        <ele>5.527762</ele>
        <time>2022-08-01T13:25:03.000Z</time>
      </trkpt>
      <trkpt lat="49.32713" lon="-1.23078">
        <ele>5.52696</ele>
        <time>2022-08-01T13:25:04.000Z</time>
      </trkpt>
      <trkpt lat="49.32711" lon="-1.23082">
        <ele>5.526211</ele>
        <time>2022-08-01T13:25:05.000Z</time>
      </trkpt>
      <trkpt lat="49.3271" lon="-1.23087">
        <ele>5.525407</ele>
        <time>2022-08-01T13:25:06.000Z</time>
      </trkpt>
      <trkpt lat="49.32709" lon="-1.23091">
        <ele>5.524649</ele>
        <time>2022-08-01T13:25:07.000Z</time>
      </trkpt>
      <trkpt lat="49.32707" lon="-1.23096">
        <ele>5.523833</ele>
        <time>2022-08-01T13:25:08.000Z</time>
      </trkpt>
      <trkpt lat="49.32706" lon="-1.23101">
        <ele>5.522988</ele>
        <time>2022-08-01T13:25:09.000Z</time>
      </trkpt>
      <trkpt lat="49.32705" lon="-1.23106">
        <ele>5.522182</ele>
        <time>2022-08-01T13:25:10.000Z</time>
      </trkpt>
      <trkpt lat="49.32703" lon="-1.23111">
        <ele>5.521346</ele>
        <time>2022-08-01T13:25:11.000Z</time>
      </trkpt>
      <trkpt lat="49.32702" lon="-1.23116">
        <ele>5.520459</ele>
        <time>2022-08-01T13:25:12.000Z</time>
      </trkpt>
      <trkpt lat="49.32701" lon="-1.23121">
        <ele>5.519614</ele>
        <time>2022-08-01T13:25:13.000Z</time>
      </trkpt>
      <trkpt lat="49.32699" lon="-1.23126">
        <ele>5.51874</ele>
        <time>2022-08-01T13:25:14.000Z</time>
      </trkpt>
      <trkpt lat="49.32698" lon="-1.23131">
        <ele>5.517867</ele>
        <time>2022-08-01T13:25:15.000Z</time>
      </trkpt>
      <trkpt lat="49.32696" lon="-1.23136">
        <ele>5.516965</ele>
        <time>2022-08-01T13:25:16.000Z</time>
      </trkpt>
      <trkpt lat="49.32695" lon="-1.23141">
        <ele>5.516144</ele>
        <time>2022-08-01T13:25:17.000Z</time>
      </trkpt>
      <trkpt lat="49.32694" lon="-1.23146">
        <ele>5.515367</ele>
        <time>2022-08-01T13:25:18.000Z</time>
      </trkpt>
      <trkpt lat="49.32693" lon="-1.23151">
        <ele>5.514537</ele>
        <time>2022-08-01T13:25:19.000Z</time>
      </trkpt>
      <trkpt lat="49.32691" lon="-1.23155">
        <ele>5.513719</ele>
        <time>2022-08-01T13:25:20.000Z</time>
      </trkpt>
      <trkpt lat="49.32689" lon="-1.2316">
        <ele>5.512915</ele>
        <time>2022-08-01T13:25:21.000Z</time>
      </trkpt>
      <trkpt lat="49.32688" lon="-1.23164">
        <ele>5.512111</ele>
        <time>2022-08-01T13:25:22.000Z</time>
      </trkpt>
      <trkpt lat="49.32686" lon="-1.23169">
        <ele>5.511217</ele>
        <time>2022-08-01T13:25:23.000Z</time>
      </trkpt>
      <trkpt lat="49.32685" lon="-1.23174">
        <ele>5.510426</ele>
        <time>2022-08-01T13:25:24.000Z</time>
      </trkpt>
      <trkpt lat="49.32683" lon="-1.23178">
        <ele>5.50965</ele>
        <time>2022-08-01T13:25:25.000Z</time>
      </trkpt>
      <trkpt lat="49.32681" lon="-1.23182">
        <ele>5.508886</ele>
        <time>2022-08-01T13:25:26.000Z</time>
      </trkpt>
      <trkpt lat="49.3268" lon="-1.23186">
        <ele>5.508215</ele>
        <time>2022-08-01T13:25:27.000Z</time>
      </trkpt>
      <trkpt lat="49.32678" lon="-1.23188">
        <ele>5.507602</ele>
        <time>2022-08-01T13:25:28.000Z</time>
      </trkpt>
      <trkpt lat="49.32676" lon="-1.23191">
        <ele>5.50703</ele>
        <time>2022-08-01T13:25:29.000Z</time>
      </trkpt>
      <trkpt lat="49.32675" lon="-1.23194">
        <ele>5.506543</ele>
        <time>2022-08-01T13:25:30.000Z</time>
      </trkpt>
      <trkpt lat="49.32674" lon="-1.23198">
        <ele>5.50587</ele>
        <time>2022-08-01T13:25:32.000Z</time>
      </trkpt>
      <trkpt lat="49.32672" lon="-1.23212">
        <ele>5.514201</ele>
        <time>2022-08-01T13:26:54.000Z</time>
      </trkpt>
      <trkpt lat="49.32671" lon="-1.23218">
        <ele>5.521742</ele>
        <time>2022-08-01T13:26:55.000Z</time>
      </trkpt>
      <trkpt lat="49.32671" lon="-1.23225">
        <ele>5.530217</ele>
        <time>2022-08-01T13:26:56.000Z</time>
      </trkpt>
      <trkpt lat="49.3267" lon="-1.23233">
        <ele>5.538783</ele>
        <time>2022-08-01T13:26:57.000Z</time>
      </trkpt>
      <trkpt lat="49.32669" lon="-1.2324">
        <ele>5.5476</ele>
        <time>2022-08-01T13:26:58.000Z</time>
      </trkpt>
      <trkpt lat="49.32669" lon="-1.23248">
        <ele>5.55628</ele>
        <time>2022-08-01T13:26:59.000Z</time>
      </trkpt>
      <trkpt lat="49.32668" lon="-1.23255">
        <ele>5.564846</ele>
        <time>2022-08-01T13:27:00.000Z</time>
      </trkpt>
      <trkpt lat="49.32668" lon="-1.23263">
        <ele>5.573261</ele>
        <time>2022-08-01T13:27:01.000Z</time>
      </trkpt>
      <trkpt lat="49.32667" lon="-1.23269">
        <ele>5.580574</ele>
        <time>2022-08-01T13:27:02.000Z</time>
      </trkpt>
      <trkpt lat="49.32666" lon="-1.23275">
        <ele>5.588275</ele>
        <time>2022-08-01T13:27:03.000Z</time>
      </trkpt>
      <trkpt lat="49.32665" lon="-1.23281">
        <ele>5.595247</ele>
        <time>2022-08-01T13:27:04.000Z</time>
      </trkpt>
      <trkpt lat="49.32665" lon="-1.23287">
        <ele>5.602362</ele>
        <time>2022-08-01T13:27:05.000Z</time>
      </trkpt>
      <trkpt lat="49.32663" lon="-1.23293">
        <ele>5.609571</ele>
        <time>2022-08-01T13:27:06.000Z</time>
      </trkpt>
      <trkpt lat="49.32663" lon="-1.23299">
        <ele>5.616573</ele>
        <time>2022-08-01T13:27:07.000Z</time>
      </trkpt>
      <trkpt lat="49.32662" lon="-1.23305">
        <ele>5.623533</ele>
        <time>2022-08-01T13:27:08.000Z</time>
      </trkpt>
      <trkpt lat="49.32661" lon="-1.23312">
        <ele>5.630982</ele>
        <time>2022-08-01T13:27:09.000Z</time>
      </trkpt>
      <trkpt lat="49.3266" lon="-1.23318">
        <ele>5.638096</ele>
        <time>2022-08-01T13:27:10.000Z</time>
      </trkpt>
      <trkpt lat="49.32659" lon="-1.23324">
        <ele>5.645504</ele>
        <time>2022-08-01T13:27:11.000Z</time>
      </trkpt>
      <trkpt lat="49.32657" lon="-1.2333">
        <ele>5.653485</ele>
        <time>2022-08-01T13:27:12.000Z</time>
      </trkpt>
      <trkpt lat="49.32656" lon="-1.23337">
        <ele>5.661296</ele>
        <time>2022-08-01T13:27:13.000Z</time>
      </trkpt>
      <trkpt lat="49.32655" lon="-1.23343">
        <ele>5.668856</ele>
        <time>2022-08-01T13:27:14.000Z</time>
      </trkpt>
      <trkpt lat="49.32654" lon="-1.2335">
        <ele>5.676616</ele>
        <time>2022-08-01T13:27:15.000Z</time>
      </trkpt>
      <trkpt lat="49.32653" lon="-1.23356">
        <ele>5.684064</ele>
        <time>2022-08-01T13:27:16.000Z</time>
      </trkpt>
      <trkpt lat="49.32652" lon="-1.23362">
        <ele>5.691655</ele>
        <time>2022-08-01T13:27:17.000Z</time>
      </trkpt>
      <trkpt lat="49.32651" lon="-1.23369">
        <ele>5.69914</ele>
        <time>2022-08-01T13:27:18.000Z</time>
      </trkpt>
      <trkpt lat="49.32651" lon="-1.23375">
        <ele>5.706625</ele>
        <time>2022-08-01T13:27:19.000Z</time>
      </trkpt>
      <trkpt lat="49.32651" lon="-1.23383">
        <ele>5.715126</ele>
        <time>2022-08-01T13:27:20.000Z</time>
      </trkpt>
      <trkpt lat="49.32652" lon="-1.23389">
        <ele>5.722439</ele>
        <time>2022-08-01T13:27:21.000Z</time>
      </trkpt>
      <trkpt lat="49.32652" lon="-1.23396">
        <ele>5.729924</ele>
        <time>2022-08-01T13:27:22.000Z</time>
      </trkpt>
      <trkpt lat="49.32653" lon="-1.23402">
        <ele>5.737406</ele>
        <time>2022-08-01T13:27:23.000Z</time>
      </trkpt>
      <trkpt lat="49.32654" lon="-1.23408">
        <ele>5.744973</ele>
        <time>2022-08-01T13:27:24.000Z</time>
      </trkpt>
      <trkpt lat="49.32655" lon="-1.23414">
        <ele>5.752293</ele>
        <time>2022-08-01T13:27:25.000Z</time>
      </trkpt>
      <trkpt lat="49.32656" lon="-1.2342">
        <ele>5.759295</ele>
        <time>2022-08-01T13:27:26.000Z</time>
      </trkpt>
      <trkpt lat="49.32657" lon="-1.23426">
        <ele>5.766016</ele>
        <time>2022-08-01T13:27:27.000Z</time>
      </trkpt>
      <trkpt lat="49.32659" lon="-1.23431">
        <ele>5.772725</ele>
        <time>2022-08-01T13:27:28.000Z</time>
      </trkpt>
      <trkpt lat="49.3266" lon="-1.23436">
        <ele>5.778905</ele>
        <time>2022-08-01T13:27:29.000Z</time>
      </trkpt>
      <trkpt lat="49.32661" lon="-1.23442">
        <ele>5.78541</ele>
        <time>2022-08-01T13:27:30.000Z</time>
      </trkpt>
      <trkpt lat="49.32662" lon="-1.23446">
        <ele>5.790948</ele>
        <time>2022-08-01T13:27:31.000Z</time>
      </trkpt>
      <trkpt lat="49.32663" lon="-1.23451">
        <ele>5.796636</ele>
        <time>2022-08-01T13:27:32.000Z</time>
      </trkpt>
      <trkpt lat="49.32665" lon="-1.23455">
        <ele>5.801904</ele>
        <time>2022-08-01T13:27:33.000Z</time>
      </trkpt>
      <trkpt lat="49.32666" lon="-1.23459">
        <ele>5.807148</ele>
        <time>2022-08-01T13:27:34.000Z</time>
      </trkpt>
      <trkpt lat="49.32667" lon="-1.23463">
        <ele>5.812489</ele>
        <time>2022-08-01T13:27:35.000Z</time>
      </trkpt>
      <trkpt lat="49.32668" lon="-1.23468">
        <ele>5.817896</ele>
        <time>2022-08-01T13:27:36.000Z</time>
      </trkpt>
      <trkpt lat="49.32668" lon="-1.23472">
        <ele>5.822682</ele>
        <time>2022-08-01T13:27:37.000Z</time>
      </trkpt>
      <trkpt lat="49.32669" lon="-1.23476">
        <ele>5.827544</ele>
        <time>2022-08-01T13:27:38.000Z</time>
      </trkpt>
      <trkpt lat="49.32669" lon="-1.2348">
        <ele>5.832407</ele>
        <time>2022-08-01T13:27:39.000Z</time>
      </trkpt>
      <trkpt lat="49.3267" lon="-1.23484">
        <ele>5.837201</ele>
        <time>2022-08-01T13:27:40.000Z</time>
      </trkpt>
      <trkpt lat="49.32671" lon="-1.23487">
        <ele>5.841549</ele>
        <time>2022-08-01T13:27:41.000Z</time>
      </trkpt>
      <trkpt lat="49.32672" lon="-1.23492">
        <ele>5.847181</ele>
        <time>2022-08-01T13:27:43.000Z</time>
      </trkpt>
      <trkpt lat="49.32676" lon="-1.23503">
        <ele>5.862296</ele>
        <time>2022-08-01T13:30:15.000Z</time>
      </trkpt>
      <trkpt lat="49.32677" lon="-1.23507">
        <ele>5.868019</ele>
        <time>2022-08-01T13:30:16.000Z</time>
      </trkpt>
      <trkpt lat="49.32679" lon="-1.23513">
        <ele>5.875393</ele>
        <time>2022-08-01T13:30:17.000Z</time>
      </trkpt>
      <trkpt lat="49.32681" lon="-1.23519">
        <ele>5.882855</ele>
        <time>2022-08-01T13:30:18.000Z</time>
      </trkpt>
      <trkpt lat="49.32682" lon="-1.23525">
        <ele>5.890345</ele>
        <time>2022-08-01T13:30:19.000Z</time>
      </trkpt>
      <trkpt lat="49.32684" lon="-1.23531">
        <ele>5.898355</ele>
        <time>2022-08-01T13:30:20.000Z</time>
      </trkpt>
      <trkpt lat="49.32685" lon="-1.23537">
        <ele>5.906795</ele>
        <time>2022-08-01T13:30:21.000Z</time>
      </trkpt>
      <trkpt lat="49.32687" lon="-1.23544">
        <ele>5.914695</ele>
        <time>2022-08-01T13:30:22.000Z</time>
      </trkpt>
      <trkpt lat="49.32689" lon="-1.23549">
        <ele>5.922468</ele>
        <time>2022-08-01T13:30:23.000Z</time>
      </trkpt>
      <trkpt lat="49.32691" lon="-1.23555">
        <ele>5.930039</ele>
        <time>2022-08-01T13:30:24.000Z</time>
      </trkpt>
      <trkpt lat="49.32693" lon="-1.23561">
        <ele>5.937941</ele>
        <time>2022-08-01T13:30:25.000Z</time>
      </trkpt>
      <trkpt lat="49.32694" lon="-1.23567">
        <ele>5.945544</ele>
        <time>2022-08-01T13:30:26.000Z</time>
      </trkpt>
      <trkpt lat="49.32696" lon="-1.23573">
        <ele>5.953341</ele>
        <time>2022-08-01T13:30:27.000Z</time>
      </trkpt>
      <trkpt lat="49.32698" lon="-1.23579">
        <ele>5.961031</ele>
        <time>2022-08-01T13:30:28.000Z</time>
      </trkpt>
      <trkpt lat="49.32699" lon="-1.23585">
        <ele>5.968711</ele>
        <time>2022-08-01T13:30:29.000Z</time>
      </trkpt>
      <trkpt lat="49.32701" lon="-1.23591">
        <ele>5.976172</ele>
        <time>2022-08-01T13:30:30.000Z</time>
      </trkpt>
      <trkpt lat="49.32702" lon="-1.23597">
        <ele>5.983524</ele>
        <time>2022-08-01T13:30:31.000Z</time>
      </trkpt>
      <trkpt lat="49.32704" lon="-1.23602">
        <ele>5.990678</ele>
        <time>2022-08-01T13:30:32.000Z</time>
      </trkpt>
      <trkpt lat="49.32706" lon="-1.23608">
        <ele>5.998053</ele>
        <time>2022-08-01T13:30:33.000Z</time>
      </trkpt>
      <trkpt lat="49.32708" lon="-1.23613">
        <ele>6.005427</ele>
        <time>2022-08-01T13:30:34.000Z</time>
      </trkpt>
      <trkpt lat="49.32709" lon="-1.23619">
        <ele>6.012802</ele>
        <time>2022-08-01T13:30:35.000Z</time>
      </trkpt>
      <trkpt lat="49.32711" lon="-1.23624">
        <ele>6.019752</ele>
        <time>2022-08-01T13:30:36.000Z</time>
      </trkpt>
      <trkpt lat="49.32714" lon="-1.23628">
        <ele>6.026416</ele>
        <time>2022-08-01T13:30:37.000Z</time>
      </trkpt>
      <trkpt lat="49.32716" lon="-1.23632">
        <ele>6.032707</ele>
        <time>2022-08-01T13:30:38.000Z</time>
      </trkpt>
      <trkpt lat="49.32718" lon="-1.23636">
        <ele>6.038917</ele>
        <time>2022-08-01T13:30:39.000Z</time>
      </trkpt>
      <trkpt lat="49.32721" lon="-1.23639">
        <ele>6.04505</ele>
        <time>2022-08-01T13:30:40.000Z</time>
      </trkpt>
      <trkpt lat="49.32724" lon="-1.23642">
        <ele>6.050607</ele>
        <time>2022-08-01T13:30:41.000Z</time>
      </trkpt>
      <trkpt lat="49.32726" lon="-1.23644">
        <ele>6.056387</ele>
        <time>2022-08-01T13:30:42.000Z</time>
      </trkpt>
      <trkpt lat="49.32729" lon="-1.23645">
        <ele>6.060672</ele>
        <time>2022-08-01T13:30:43.000Z</time>
      </trkpt>
      <trkpt lat="49.32731" lon="-1.23646">
        <ele>6.064575</ele>
        <time>2022-08-01T13:30:44.000Z</time>
      </trkpt>
      <trkpt lat="49.32733" lon="-1.23647">
        <ele>6.068227</ele>
        <time>2022-08-01T13:30:45.000Z</time>
      </trkpt>
      <trkpt lat="49.32734" lon="-1.23648">
        <ele>6.071878</ele>
        <time>2022-08-01T13:30:46.000Z</time>
      </trkpt>
      <trkpt lat="49.32738" lon="-1.2365">
        <ele>6.07901</ele>
        <time>2022-08-01T13:30:48.000Z</time>
      </trkpt>
      <trkpt lat="49.32741" lon="-1.2365">
        <ele>6.083232</ele>
        <time>2022-08-01T13:30:49.000Z</time>
      </trkpt>
      <trkpt lat="49.32743" lon="-1.23651">
        <ele>6.08779</ele>
        <time>2022-08-01T13:30:50.000Z</time>
      </trkpt>
      <trkpt lat="49.32746" lon="-1.23651">
        <ele>6.092611</ele>
        <time>2022-08-01T13:30:51.000Z</time>
      </trkpt>
      <trkpt lat="49.32749" lon="-1.23652">
        <ele>6.099026</ele>
        <time>2022-08-01T13:30:52.000Z</time>
      </trkpt>
      <trkpt lat="49.32753" lon="-1.23653">
        <ele>6.105416</ele>
        <time>2022-08-01T13:30:53.000Z</time>
      </trkpt>
      <trkpt lat="49.32756" lon="-1.23653">
        <ele>6.111986</ele>
        <time>2022-08-01T13:30:54.000Z</time>
      </trkpt>
      <trkpt lat="49.3276" lon="-1.23654">
        <ele>6.119462</ele>
        <time>2022-08-01T13:30:55.000Z</time>
      </trkpt>
      <trkpt lat="49.32764" lon="-1.23654">
        <ele>6.12656</ele>
        <time>2022-08-01T13:30:56.000Z</time>
      </trkpt>
      <trkpt lat="49.32769" lon="-1.23654">
        <ele>6.134572</ele>
        <time>2022-08-01T13:30:57.000Z</time>
      </trkpt>
      <trkpt lat="49.32773" lon="-1.23655">
        <ele>6.14167</ele>
        <time>2022-08-01T13:30:58.000Z</time>
      </trkpt>
      <trkpt lat="49.32777" lon="-1.23655">
        <ele>6.148745</ele>
        <time>2022-08-01T13:30:59.000Z</time>
      </trkpt>
      <trkpt lat="49.32781" lon="-1.23656">
        <ele>6.146255</ele>
        <time>2022-08-01T13:31:00.000Z</time>
      </trkpt>
      <trkpt lat="49.32785" lon="-1.23656">
        <ele>6.144001</ele>
        <time>2022-08-01T13:31:01.000Z</time>
      </trkpt>
      <trkpt lat="49.32789" lon="-1.23657">
        <ele>6.1415</ele>
        <time>2022-08-01T13:31:02.000Z</time>
      </trkpt>
      <trkpt lat="49.32793" lon="-1.23658">
        <ele>6.139238</ele>
        <time>2022-08-01T13:31:03.000Z</time>
      </trkpt>
      <trkpt lat="49.32796" lon="-1.23658">
        <ele>6.137088</ele>
        <time>2022-08-01T13:31:04.000Z</time>
      </trkpt>
      <trkpt lat="49.328" lon="-1.23659">
        <ele>6.134815</ele>
        <time>2022-08-01T13:31:05.000Z</time>
      </trkpt>
      <trkpt lat="49.32803" lon="-1.2366">
        <ele>6.132885</ele>
        <time>2022-08-01T13:31:06.000Z</time>
      </trkpt>
      <trkpt lat="49.32807" lon="-1.23661">
        <ele>6.130618</ele>
        <time>2022-08-01T13:31:07.000Z</time>
      </trkpt>
      <trkpt lat="49.32811" lon="-1.23662">
        <ele>6.128433</ele>
        <time>2022-08-01T13:31:08.000Z</time>
      </trkpt>
      <trkpt lat="49.32814" lon="-1.23664">
        <ele>6.126114</ele>
        <time>2022-08-01T13:31:09.000Z</time>
      </trkpt>
      <trkpt lat="49.32818" lon="-1.23666">
        <ele>6.123713</ele>
        <time>2022-08-01T13:31:10.000Z</time>
      </trkpt>
      <trkpt lat="49.32822" lon="-1.23669">
        <ele>6.121254</ele>
        <time>2022-08-01T13:31:11.000Z</time>
      </trkpt>
      <trkpt lat="49.32825" lon="-1.23673">
        <ele>6.119095</ele>
        <time>2022-08-01T13:31:12.000Z</time>
      </trkpt>
      <trkpt lat="49.32828" lon="-1.23677">
        <ele>6.116739</ele>
        <time>2022-08-01T13:31:13.000Z</time>
      </trkpt>
      <trkpt lat="49.3283" lon="-1.23682">
        <ele>6.114334</ele>
        <time>2022-08-01T13:31:14.000Z</time>
      </trkpt>
      <trkpt lat="49.32832" lon="-1.23687">
        <ele>6.112204</ele>
        <time>2022-08-01T13:31:15.000Z</time>
      </trkpt>
      <trkpt lat="49.32834" lon="-1.23692">
        <ele>6.110059</ele>
        <time>2022-08-01T13:31:16.000Z</time>
      </trkpt>
      <trkpt lat="49.32835" lon="-1.23697">
        <ele>6.107913</ele>
        <time>2022-08-01T13:31:17.000Z</time>
      </trkpt>
      <trkpt lat="49.32836" lon="-1.23702">
        <ele>6.105804</ele>
        <time>2022-08-01T13:31:18.000Z</time>
      </trkpt>
      <trkpt lat="49.32838" lon="-1.23707">
        <ele>6.103575</ele>
        <time>2022-08-01T13:31:19.000Z</time>
      </trkpt>
      <trkpt lat="49.32839" lon="-1.23712">
        <ele>6.101501</ele>
        <time>2022-08-01T13:31:20.000Z</time>
      </trkpt>
      <trkpt lat="49.32841" lon="-1.23717">
        <ele>6.099304</ele>
        <time>2022-08-01T13:31:21.000Z</time>
      </trkpt>
      <trkpt lat="49.32843" lon="-1.23723">
        <ele>6.096844</ele>
        <time>2022-08-01T13:31:22.000Z</time>
      </trkpt>
      <trkpt lat="49.32844" lon="-1.23728">
        <ele>6.09461</ele>
        <time>2022-08-01T13:31:23.000Z</time>
      </trkpt>
      <trkpt lat="49.32845" lon="-1.23734">
        <ele>6.092337</ele>
        <time>2022-08-01T13:31:24.000Z</time>
      </trkpt>
      <trkpt lat="49.32846" lon="-1.2374">
        <ele>6.09001</ele>
        <time>2022-08-01T13:31:25.000Z</time>
      </trkpt>
      <trkpt lat="49.32847" lon="-1.23745">
        <ele>6.087825</ele>
        <time>2022-08-01T13:31:26.000Z</time>
      </trkpt>
      <trkpt lat="49.32848" lon="-1.23751">
        <ele>6.085571</ele>
        <time>2022-08-01T13:31:27.000Z</time>
      </trkpt>
      <trkpt lat="49.32849" lon="-1.23756">
        <ele>6.083354</ele>
        <time>2022-08-01T13:31:28.000Z</time>
      </trkpt>
      <trkpt lat="49.32851" lon="-1.23761">
        <ele>6.08128</ele>
        <time>2022-08-01T13:31:29.000Z</time>
      </trkpt>
      <trkpt lat="49.32852" lon="-1.23767">
        <ele>6.079119</ele>
        <time>2022-08-01T13:31:30.000Z</time>
      </trkpt>
      <trkpt lat="49.32853" lon="-1.23772">
        <ele>6.076994</ele>
        <time>2022-08-01T13:31:31.000Z</time>
      </trkpt>
      <trkpt lat="49.32854" lon="-1.23777">
        <ele>6.074849</ele>
        <time>2022-08-01T13:31:32.000Z</time>
      </trkpt>
      <trkpt lat="49.32856" lon="-1.23782">
        <ele>6.072599</ele>
        <time>2022-08-01T13:31:33.000Z</time>
      </trkpt>
      <trkpt lat="49.32858" lon="-1.23787">
        <ele>6.070403</ele>
        <time>2022-08-01T13:31:34.000Z</time>
      </trkpt>
      <trkpt lat="49.32859" lon="-1.23792">
        <ele>6.068401</ele>
        <time>2022-08-01T13:31:35.000Z</time>
      </trkpt>
      <trkpt lat="49.32861" lon="-1.23797">
        <ele>6.066171</ele>
        <time>2022-08-01T13:31:36.000Z</time>
      </trkpt>
      <trkpt lat="49.32862" lon="-1.23802">
        <ele>6.064095</ele>
        <time>2022-08-01T13:31:37.000Z</time>
      </trkpt>
      <trkpt lat="49.32864" lon="-1.23807">
        <ele>6.061949</ele>
        <time>2022-08-01T13:31:38.000Z</time>
      </trkpt>
      <trkpt lat="49.32866" lon="-1.23812">
        <ele>6.059653</ele>
        <time>2022-08-01T13:31:39.000Z</time>
      </trkpt>
      <trkpt lat="49.32868" lon="-1.23817">
        <ele>6.057424</ele>
        <time>2022-08-01T13:31:40.000Z</time>
      </trkpt>
      <trkpt lat="49.3287" lon="-1.23822">
        <ele>6.055326</ele>
        <time>2022-08-01T13:31:41.000Z</time>
      </trkpt>
      <trkpt lat="49.32872" lon="-1.23826">
        <ele>6.053325</ele>
        <time>2022-08-01T13:31:42.000Z</time>
      </trkpt>
      <trkpt lat="49.32874" lon="-1.2383">
        <ele>6.051259</ele>
        <time>2022-08-01T13:31:43.000Z</time>
      </trkpt>
      <trkpt lat="49.32875" lon="-1.23835">
        <ele>6.049217</ele>
        <time>2022-08-01T13:31:44.000Z</time>
      </trkpt>
      <trkpt lat="49.32877" lon="-1.2384">
        <ele>6.047087</ele>
        <time>2022-08-01T13:31:45.000Z</time>
      </trkpt>
      <trkpt lat="49.32878" lon="-1.23845">
        <ele>6.045085</ele>
        <time>2022-08-01T13:31:46.000Z</time>
      </trkpt>
      <trkpt lat="49.3288" lon="-1.23849">
        <ele>6.042922</ele>
        <time>2022-08-01T13:31:47.000Z</time>
      </trkpt>
      <trkpt lat="49.32882" lon="-1.23854">
        <ele>6.037238</ele>
        <time>2022-08-01T13:31:48.000Z</time>
      </trkpt>
      <trkpt lat="49.32885" lon="-1.23858">
        <ele>6.030835</ele>
        <time>2022-08-01T13:31:49.000Z</time>
      </trkpt>
      <trkpt lat="49.32886" lon="-1.23862">
        <ele>6.025058</ele>
        <time>2022-08-01T13:31:50.000Z</time>
      </trkpt>
      <trkpt lat="49.32889" lon="-1.23867">
        <ele>6.018398</ele>
        <time>2022-08-01T13:31:51.000Z</time>
      </trkpt>
      <trkpt lat="49.3289" lon="-1.23871">
        <ele>6.012415</ele>
        <time>2022-08-01T13:31:52.000Z</time>
      </trkpt>
      <trkpt lat="49.32893" lon="-1.23875">
        <ele>6.006276</ele>
        <time>2022-08-01T13:31:53.000Z</time>
      </trkpt>
      <trkpt lat="49.32895" lon="-1.23879">
        <ele>6.000136</ele>
        <time>2022-08-01T13:31:54.000Z</time>
      </trkpt>
      <trkpt lat="49.32897" lon="-1.23883">
        <ele>5.993997</ele>
        <time>2022-08-01T13:31:55.000Z</time>
      </trkpt>
      <trkpt lat="49.329" lon="-1.23886">
        <ele>5.988321</ele>
        <time>2022-08-01T13:31:56.000Z</time>
      </trkpt>
      <trkpt lat="49.32901" lon="-1.2389">
        <ele>5.983182</ele>
        <time>2022-08-01T13:31:57.000Z</time>
      </trkpt>
      <trkpt lat="49.32903" lon="-1.23894">
        <ele>5.977704</ele>
        <time>2022-08-01T13:31:58.000Z</time>
      </trkpt>
      <trkpt lat="49.32905" lon="-1.23897">
        <ele>5.972271</ele>
        <time>2022-08-01T13:31:59.000Z</time>
      </trkpt>
      <trkpt lat="49.32906" lon="-1.239">
        <ele>5.968162</ele>
        <time>2022-08-01T13:32:00.000Z</time>
      </trkpt>
      <trkpt lat="49.32908" lon="-1.23904">
        <ele>5.962979</ele>
        <time>2022-08-01T13:32:01.000Z</time>
      </trkpt>
      <trkpt lat="49.3291" lon="-1.23908">
        <ele>5.957278</ele>
        <time>2022-08-01T13:32:02.000Z</time>
      </trkpt>
      <trkpt lat="49.32911" lon="-1.23912">
        <ele>5.951499</ele>
        <time>2022-08-01T13:32:03.000Z</time>
      </trkpt>
      <trkpt lat="49.32912" lon="-1.23916">
        <ele>5.946117</ele>
        <time>2022-08-01T13:32:04.000Z</time>
      </trkpt>
      <trkpt lat="49.32914" lon="-1.2392">
        <ele>5.940639</ele>
        <time>2022-08-01T13:32:05.000Z</time>
      </trkpt>
      <trkpt lat="49.32916" lon="-1.23925">
        <ele>5.934656</ele>
        <time>2022-08-01T13:32:06.000Z</time>
      </trkpt>
      <trkpt lat="49.32917" lon="-1.23929">
        <ele>5.928672</ele>
        <time>2022-08-01T13:32:07.000Z</time>
      </trkpt>
      <trkpt lat="49.32918" lon="-1.23934">
        <ele>5.922568</ele>
        <time>2022-08-01T13:32:08.000Z</time>
      </trkpt>
      <trkpt lat="49.32919" lon="-1.2394">
        <ele>5.915949</ele>
        <time>2022-08-01T13:32:09.000Z</time>
      </trkpt>
      <trkpt lat="49.32919" lon="-1.23945">
        <ele>5.909722</ele>
        <time>2022-08-01T13:32:10.000Z</time>
      </trkpt>
      <trkpt lat="49.3292" lon="-1.23951">
        <ele>5.902931</ele>
        <time>2022-08-01T13:32:11.000Z</time>
      </trkpt>
      <trkpt lat="49.32919" lon="-1.23957">
        <ele>5.895675</ele>
        <time>2022-08-01T13:32:12.000Z</time>
      </trkpt>
      <trkpt lat="49.32918" lon="-1.23964">
        <ele>5.88788</ele>
        <time>2022-08-01T13:32:13.000Z</time>
      </trkpt>
      <trkpt lat="49.32918" lon="-1.23971">
        <ele>5.879639</ele>
        <time>2022-08-01T13:32:14.000Z</time>
      </trkpt>
      <trkpt lat="49.32916" lon="-1.23978">
        <ele>5.87076</ele>
        <time>2022-08-01T13:32:15.000Z</time>
      </trkpt>
      <trkpt lat="49.32915" lon="-1.23985">
        <ele>5.862265</ele>
        <time>2022-08-01T13:32:16.000Z</time>
      </trkpt>
      <trkpt lat="49.32914" lon="-1.23992">
        <ele>5.853994</ele>
        <time>2022-08-01T13:32:17.000Z</time>
      </trkpt>
      <trkpt lat="49.32912" lon="-1.23999">
        <ele>5.845115</ele>
        <time>2022-08-01T13:32:18.000Z</time>
      </trkpt>
      <trkpt lat="49.3291" lon="-1.24006">
        <ele>5.835904</ele>
        <time>2022-08-01T13:32:19.000Z</time>
      </trkpt>
      <trkpt lat="49.32909" lon="-1.24013">
        <ele>5.827409</ele>
        <time>2022-08-01T13:32:20.000Z</time>
      </trkpt>
      <trkpt lat="49.32908" lon="-1.2402">
        <ele>5.819538</ele>
        <time>2022-08-01T13:32:21.000Z</time>
      </trkpt>
      <trkpt lat="49.32908" lon="-1.24027">
        <ele>5.811618</ele>
        <time>2022-08-01T13:32:22.000Z</time>
      </trkpt>
      <trkpt lat="49.32908" lon="-1.24034">
        <ele>5.803215</ele>
        <time>2022-08-01T13:32:23.000Z</time>
      </trkpt>
      <trkpt lat="49.32908" lon="-1.24041">
        <ele>5.794678</ele>
        <time>2022-08-01T13:32:24.000Z</time>
      </trkpt>
      <trkpt lat="49.32909" lon="-1.24047">
        <ele>5.787076</ele>
        <time>2022-08-01T13:32:25.000Z</time>
      </trkpt>
      <trkpt lat="49.3291" lon="-1.24053">
        <ele>5.780411</ele>
        <time>2022-08-01T13:32:26.000Z</time>
      </trkpt>
      <trkpt lat="49.32911" lon="-1.24058">
        <ele>5.774019</ele>
        <time>2022-08-01T13:32:27.000Z</time>
      </trkpt>
      <trkpt lat="49.32912" lon="-1.24063">
        <ele>5.767914</ele>
        <time>2022-08-01T13:32:28.000Z</time>
      </trkpt>
      <trkpt lat="49.32913" lon="-1.24068">
        <ele>5.76181</ele>
        <time>2022-08-01T13:32:29.000Z</time>
      </trkpt>
      <trkpt lat="49.32914" lon="-1.24073">
        <ele>5.756316</ele>
        <time>2022-08-01T13:32:30.000Z</time>
      </trkpt>
      <trkpt lat="49.32915" lon="-1.24077">
        <ele>5.750356</ele>
        <time>2022-08-01T13:32:31.000Z</time>
      </trkpt>
      <trkpt lat="49.32916" lon="-1.24082">
        <ele>5.744807</ele>
        <time>2022-08-01T13:32:32.000Z</time>
      </trkpt>
      <trkpt lat="49.32917" lon="-1.24086">
        <ele>5.739201</ele>
        <time>2022-08-01T13:32:33.000Z</time>
      </trkpt>
      <trkpt lat="49.32918" lon="-1.24091">
        <ele>5.733802</ele>
        <time>2022-08-01T13:32:34.000Z</time>
      </trkpt>
      <trkpt lat="49.32918" lon="-1.24096">
        <ele>5.728212</ele>
        <time>2022-08-01T13:32:35.000Z</time>
      </trkpt>
      <trkpt lat="49.32919" lon="-1.241">
        <ele>5.722507</ele>
        <time>2022-08-01T13:32:36.000Z</time>
      </trkpt>
      <trkpt lat="49.32919" lon="-1.24105">
        <ele>5.727561</ele>
        <time>2022-08-01T13:32:37.000Z</time>
      </trkpt>
      <trkpt lat="49.32918" lon="-1.2411">
        <ele>5.739243</ele>
        <time>2022-08-01T13:32:38.000Z</time>
      </trkpt>
      <trkpt lat="49.32918" lon="-1.24115">
        <ele>5.751009</ele>
        <time>2022-08-01T13:32:39.000Z</time>
      </trkpt>
      <trkpt lat="49.32917" lon="-1.2412">
        <ele>5.763027</ele>
        <time>2022-08-01T13:32:40.000Z</time>
      </trkpt>
      <trkpt lat="49.32916" lon="-1.24126">
        <ele>5.775824</ele>
        <time>2022-08-01T13:32:41.000Z</time>
      </trkpt>
      <trkpt lat="49.32915" lon="-1.24131">
        <ele>5.788409</ele>
        <time>2022-08-01T13:32:42.000Z</time>
      </trkpt>
      <trkpt lat="49.32914" lon="-1.24136">
        <ele>5.800866</ele>
        <time>2022-08-01T13:32:43.000Z</time>
      </trkpt>
      <trkpt lat="49.32913" lon="-1.24141">
        <ele>5.813451</ele>
        <time>2022-08-01T13:32:44.000Z</time>
      </trkpt>
      <trkpt lat="49.32912" lon="-1.24147">
        <ele>5.826248</ele>
        <time>2022-08-01T13:32:45.000Z</time>
      </trkpt>
      <trkpt lat="49.3291" lon="-1.24152">
        <ele>5.839669</ele>
        <time>2022-08-01T13:32:46.000Z</time>
      </trkpt>
      <trkpt lat="49.32909" lon="-1.24157">
        <ele>5.852568</ele>
        <time>2022-08-01T13:32:47.000Z</time>
      </trkpt>
      <trkpt lat="49.32908" lon="-1.24162">
        <ele>5.865574</ele>
        <time>2022-08-01T13:32:48.000Z</time>
      </trkpt>
      <trkpt lat="49.32906" lon="-1.24167">
        <ele>5.878167</ele>
        <time>2022-08-01T13:32:49.000Z</time>
      </trkpt>
      <trkpt lat="49.32904" lon="-1.24172">
        <ele>5.889945</ele>
        <time>2022-08-01T13:32:50.000Z</time>
      </trkpt>
      <trkpt lat="49.32903" lon="-1.24176">
        <ele>5.901466</ele>
        <time>2022-08-01T13:32:51.000Z</time>
      </trkpt>
      <trkpt lat="49.32901" lon="-1.24181">
        <ele>5.914567</ele>
        <time>2022-08-01T13:32:52.000Z</time>
      </trkpt>
      <trkpt lat="49.329" lon="-1.24186">
        <ele>5.925944</ele>
        <time>2022-08-01T13:32:53.000Z</time>
      </trkpt>
      <trkpt lat="49.32898" lon="-1.2419">
        <ele>5.937255</ele>
        <time>2022-08-01T13:32:54.000Z</time>
      </trkpt>
      <trkpt lat="49.32897" lon="-1.24195">
        <ele>5.948853</ele>
        <time>2022-08-01T13:32:55.000Z</time>
      </trkpt>
      <trkpt lat="49.32895" lon="-1.24199">
        <ele>5.960632</ele>
        <time>2022-08-01T13:32:56.000Z</time>
      </trkpt>
      <trkpt lat="49.32894" lon="-1.24204">
        <ele>5.972009</ele>
        <time>2022-08-01T13:32:57.000Z</time>
      </trkpt>
      <trkpt lat="49.32892" lon="-1.24208">
        <ele>5.983187</ele>
        <time>2022-08-01T13:32:58.000Z</time>
      </trkpt>
      <trkpt lat="49.32891" lon="-1.24212">
        <ele>5.993971</ele>
        <time>2022-08-01T13:32:59.000Z</time>
      </trkpt>
      <trkpt lat="49.32889" lon="-1.24216">
        <ele>6.004242</ele>
        <time>2022-08-01T13:33:00.000Z</time>
      </trkpt>
      <trkpt lat="49.32888" lon="-1.24219">
        <ele>6.013699</ele>
        <time>2022-08-01T13:33:01.000Z</time>
      </trkpt>
      <trkpt lat="49.32886" lon="-1.24223">
        <ele>6.023902</ele>
        <time>2022-08-01T13:33:02.000Z</time>
      </trkpt>
      <trkpt lat="49.32885" lon="-1.24226">
        <ele>6.032264</ele>
        <time>2022-08-01T13:33:03.000Z</time>
      </trkpt>
      <trkpt lat="49.32884" lon="-1.2423">
        <ele>6.040747</ele>
        <time>2022-08-01T13:33:04.000Z</time>
      </trkpt>
      <trkpt lat="49.32884" lon="-1.24233">
        <ele>6.048503</ele>
        <time>2022-08-01T13:33:05.000Z</time>
      </trkpt>
      <trkpt lat="49.32882" lon="-1.24236">
        <ele>6.056973</ele>
        <time>2022-08-01T13:33:06.000Z</time>
      </trkpt>
      <trkpt lat="49.32882" lon="-1.24239">
        <ele>6.064184</ele>
        <time>2022-08-01T13:33:07.000Z</time>
      </trkpt>
      <trkpt lat="49.32881" lon="-1.24241">
        <ele>6.070924</ele>
        <time>2022-08-01T13:33:08.000Z</time>
      </trkpt>
      <trkpt lat="49.3288" lon="-1.24244">
        <ele>6.077478</ele>
        <time>2022-08-01T13:33:09.000Z</time>
      </trkpt>
      <trkpt lat="49.32878" lon="-1.24247">
        <ele>6.086386</ele>
        <time>2022-08-01T13:33:10.000Z</time>
      </trkpt>
      <trkpt lat="49.32878" lon="-1.2425">
        <ele>6.094037</ele>
        <time>2022-08-01T13:33:11.000Z</time>
      </trkpt>
      <trkpt lat="49.32877" lon="-1.24253">
        <ele>6.101575</ele>
        <time>2022-08-01T13:33:12.000Z</time>
      </trkpt>
      <trkpt lat="49.32876" lon="-1.24257">
        <ele>6.11024</ele>
        <time>2022-08-01T13:33:13.000Z</time>
      </trkpt>
      <trkpt lat="49.32875" lon="-1.2426">
        <ele>6.119327</ele>
        <time>2022-08-01T13:33:14.000Z</time>
      </trkpt>
      <trkpt lat="49.32874" lon="-1.24264">
        <ele>6.127739</ele>
        <time>2022-08-01T13:33:15.000Z</time>
      </trkpt>
      <trkpt lat="49.32873" lon="-1.24267">
        <ele>6.135611</ele>
        <time>2022-08-01T13:33:16.000Z</time>
      </trkpt>
      <trkpt lat="49.32872" lon="-1.2427">
        <ele>6.144276</ele>
        <time>2022-08-01T13:33:17.000Z</time>
      </trkpt>
      <trkpt lat="49.32871" lon="-1.24273">
        <ele>6.151927</ele>
        <time>2022-08-01T13:33:18.000Z</time>
      </trkpt>
      <trkpt lat="49.3287" lon="-1.24276">
        <ele>6.159669</ele>
        <time>2022-08-01T13:33:19.000Z</time>
      </trkpt>
      <trkpt lat="49.32869" lon="-1.24279">
        <ele>6.167006</ele>
        <time>2022-08-01T13:33:20.000Z</time>
      </trkpt>
      <trkpt lat="49.32868" lon="-1.24282">
        <ele>6.175094</ele>
        <time>2022-08-01T13:33:21.000Z</time>
      </trkpt>
      <trkpt lat="49.32868" lon="-1.24285">
        <ele>6.18285</ele>
        <time>2022-08-01T13:33:22.000Z</time>
      </trkpt>
      <trkpt lat="49.32867" lon="-1.24288">
        <ele>6.190438</ele>
        <time>2022-08-01T13:33:23.000Z</time>
      </trkpt>
      <trkpt lat="49.32866" lon="-1.24292">
        <ele>6.198801</ele>
        <time>2022-08-01T13:33:24.000Z</time>
      </trkpt>
      <trkpt lat="49.32865" lon="-1.24295">
        <ele>6.206955</ele>
        <time>2022-08-01T13:33:25.000Z</time>
      </trkpt>
      <trkpt lat="49.32864" lon="-1.24298">
        <ele>6.214166</ele>
        <time>2022-08-01T13:33:26.000Z</time>
      </trkpt>
      <trkpt lat="49.32864" lon="-1.24301">
        <ele>6.222505</ele>
        <time>2022-08-01T13:33:27.000Z</time>
      </trkpt>
      <trkpt lat="49.32863" lon="-1.24305">
        <ele>6.231286</ele>
        <time>2022-08-01T13:33:28.000Z</time>
      </trkpt>
      <trkpt lat="49.32862" lon="-1.24308">
        <ele>6.238937</ele>
        <time>2022-08-01T13:33:29.000Z</time>
      </trkpt>
      <trkpt lat="49.32861" lon="-1.24312">
        <ele>6.248194</ele>
        <time>2022-08-01T13:33:30.000Z</time>
      </trkpt>
      <trkpt lat="49.3286" lon="-1.24315">
        <ele>6.256066</ele>
        <time>2022-08-01T13:33:31.000Z</time>
      </trkpt>
      <trkpt lat="49.3286" lon="-1.24318">
        <ele>6.264478</ele>
        <time>2022-08-01T13:33:32.000Z</time>
      </trkpt>
      <trkpt lat="49.32858" lon="-1.24322">
        <ele>6.274137</ele>
        <time>2022-08-01T13:33:33.000Z</time>
      </trkpt>
      <trkpt lat="49.32858" lon="-1.24326">
        <ele>6.282452</ele>
        <time>2022-08-01T13:33:34.000Z</time>
      </trkpt>
      <trkpt lat="49.32857" lon="-1.24329">
        <ele>6.290815</ele>
        <time>2022-08-01T13:33:35.000Z</time>
      </trkpt>
      <trkpt lat="49.32856" lon="-1.24332">
        <ele>6.29946</ele>
        <time>2022-08-01T13:33:36.000Z</time>
      </trkpt>
      <trkpt lat="49.32854" lon="-1.24336">
        <ele>6.308717</ele>
        <time>2022-08-01T13:33:37.000Z</time>
      </trkpt>
      <trkpt lat="49.32853" lon="-1.2434">
        <ele>6.317921</ele>
        <time>2022-08-01T13:33:38.000Z</time>
      </trkpt>
      <trkpt lat="49.32853" lon="-1.24343">
        <ele>6.326995</ele>
        <time>2022-08-01T13:33:39.000Z</time>
      </trkpt>
      <trkpt lat="49.32852" lon="-1.24347">
        <ele>6.336512</ele>
        <time>2022-08-01T13:33:40.000Z</time>
      </trkpt>
      <trkpt lat="49.32851" lon="-1.24351">
        <ele>6.346214</ele>
        <time>2022-08-01T13:33:41.000Z</time>
      </trkpt>
      <trkpt lat="49.3285" lon="-1.24355">
        <ele>6.35444</ele>
        <time>2022-08-01T13:33:42.000Z</time>
      </trkpt>
      <trkpt lat="49.32848" lon="-1.24359">
        <ele>6.353251</ele>
        <time>2022-08-01T13:33:43.000Z</time>
      </trkpt>
      <trkpt lat="49.32847" lon="-1.24363">
        <ele>6.352025</ele>
        <time>2022-08-01T13:33:44.000Z</time>
      </trkpt>
      <trkpt lat="49.32846" lon="-1.24368">
        <ele>6.350764</ele>
        <time>2022-08-01T13:33:45.000Z</time>
      </trkpt>
      <trkpt lat="49.32845" lon="-1.24372">
        <ele>6.349504</ele>
        <time>2022-08-01T13:33:46.000Z</time>
      </trkpt>
      <trkpt lat="49.32844" lon="-1.24376">
        <ele>6.348308</ele>
        <time>2022-08-01T13:33:47.000Z</time>
      </trkpt>
      <trkpt lat="49.32844" lon="-1.24381">
        <ele>6.347129</ele>
        <time>2022-08-01T13:33:48.000Z</time>
      </trkpt>
      <trkpt lat="49.32843" lon="-1.24385">
        <ele>6.345928</ele>
        <time>2022-08-01T13:33:49.000Z</time>
      </trkpt>
      <trkpt lat="49.32842" lon="-1.24389">
        <ele>6.344789</ele>
        <time>2022-08-01T13:33:50.000Z</time>
      </trkpt>
      <trkpt lat="49.3284" lon="-1.24393">
        <ele>6.343553</ele>
        <time>2022-08-01T13:33:51.000Z</time>
      </trkpt>
      <trkpt lat="49.32839" lon="-1.24397">
        <ele>6.342477</ele>
        <time>2022-08-01T13:33:52.000Z</time>
      </trkpt>
      <trkpt lat="49.32838" lon="-1.24401">
        <ele>6.341363</ele>
        <time>2022-08-01T13:33:53.000Z</time>
      </trkpt>
      <trkpt lat="49.32837" lon="-1.24405">
        <ele>6.340115</ele>
        <time>2022-08-01T13:33:54.000Z</time>
      </trkpt>
      <trkpt lat="49.32836" lon="-1.24409">
        <ele>6.339025</ele>
        <time>2022-08-01T13:33:55.000Z</time>
      </trkpt>
      <trkpt lat="49.32835" lon="-1.24412">
        <ele>6.33795</ele>
        <time>2022-08-01T13:33:56.000Z</time>
      </trkpt>
      <trkpt lat="49.32834" lon="-1.24416">
        <ele>6.336874</ele>
        <time>2022-08-01T13:33:57.000Z</time>
      </trkpt>
      <trkpt lat="49.32834" lon="-1.2442">
        <ele>6.335834</ele>
        <time>2022-08-01T13:33:58.000Z</time>
      </trkpt>
      <trkpt lat="49.32833" lon="-1.24424">
        <ele>6.334769</ele>
        <time>2022-08-01T13:33:59.000Z</time>
      </trkpt>
      <trkpt lat="49.32832" lon="-1.24427">
        <ele>6.333744</ele>
        <time>2022-08-01T13:34:00.000Z</time>
      </trkpt>
      <trkpt lat="49.32831" lon="-1.24431">
        <ele>6.332629</ele>
        <time>2022-08-01T13:34:01.000Z</time>
      </trkpt>
      <trkpt lat="49.3283" lon="-1.24435">
        <ele>6.331538</ele>
        <time>2022-08-01T13:34:02.000Z</time>
      </trkpt>
      <trkpt lat="49.32829" lon="-1.24439">
        <ele>6.330487</ele>
        <time>2022-08-01T13:34:03.000Z</time>
      </trkpt>
      <trkpt lat="49.32829" lon="-1.24442">
        <ele>6.329536</ele>
        <time>2022-08-01T13:34:04.000Z</time>
      </trkpt>
      <trkpt lat="49.32828" lon="-1.24446">
        <ele>6.328545</ele>
        <time>2022-08-01T13:34:05.000Z</time>
      </trkpt>
      <trkpt lat="49.32827" lon="-1.2445">
        <ele>6.327473</ele>
        <time>2022-08-01T13:34:06.000Z</time>
      </trkpt>
      <trkpt lat="49.32826" lon="-1.24453">
        <ele>6.326457</ele>
        <time>2022-08-01T13:34:07.000Z</time>
      </trkpt>
      <trkpt lat="49.32825" lon="-1.24457">
        <ele>6.325386</ele>
        <time>2022-08-01T13:34:08.000Z</time>
      </trkpt>
      <trkpt lat="49.32824" lon="-1.2446">
        <ele>6.32431</ele>
        <time>2022-08-01T13:34:09.000Z</time>
      </trkpt>
      <trkpt lat="49.32823" lon="-1.24464">
        <ele>6.323196</ele>
        <time>2022-08-01T13:34:10.000Z</time>
      </trkpt>
      <trkpt lat="49.32822" lon="-1.24468">
        <ele>6.322045</ele>
        <time>2022-08-01T13:34:11.000Z</time>
      </trkpt>
      <trkpt lat="49.32821" lon="-1.24472">
        <ele>6.320931</ele>
        <time>2022-08-01T13:34:12.000Z</time>
      </trkpt>
      <trkpt lat="49.3282" lon="-1.24476">
        <ele>6.319841</ele>
        <time>2022-08-01T13:34:13.000Z</time>
      </trkpt>
      <trkpt lat="49.32818" lon="-1.2448">
        <ele>6.31866</ele>
        <time>2022-08-01T13:34:14.000Z</time>
      </trkpt>
      <trkpt lat="49.32817" lon="-1.24484">
        <ele>6.317465</ele>
        <time>2022-08-01T13:34:15.000Z</time>
      </trkpt>
      <trkpt lat="49.32816" lon="-1.24489">
        <ele>6.316107</ele>
        <time>2022-08-01T13:34:16.000Z</time>
      </trkpt>
      <trkpt lat="49.32814" lon="-1.24494">
        <ele>6.314554</ele>
        <time>2022-08-01T13:34:17.000Z</time>
      </trkpt>
      <trkpt lat="49.32813" lon="-1.24499">
        <ele>6.313073</ele>
        <time>2022-08-01T13:34:18.000Z</time>
      </trkpt>
      <trkpt lat="49.32811" lon="-1.24504">
        <ele>6.311666</ele>
        <time>2022-08-01T13:34:19.000Z</time>
      </trkpt>
      <trkpt lat="49.3281" lon="-1.24508">
        <ele>6.310357</ele>
        <time>2022-08-01T13:34:20.000Z</time>
      </trkpt>
      <trkpt lat="49.32809" lon="-1.24512">
        <ele>6.309144</ele>
        <time>2022-08-01T13:34:21.000Z</time>
      </trkpt>
      <trkpt lat="49.32808" lon="-1.24517">
        <ele>6.308001</ele>
        <time>2022-08-01T13:34:22.000Z</time>
      </trkpt>
      <trkpt lat="49.32807" lon="-1.2452">
        <ele>6.306984</ele>
        <time>2022-08-01T13:34:23.000Z</time>
      </trkpt>
      <trkpt lat="49.32806" lon="-1.24523">
        <ele>6.306033</ele>
        <time>2022-08-01T13:34:24.000Z</time>
      </trkpt>
      <trkpt lat="49.32805" lon="-1.24527">
        <ele>6.305089</ele>
        <time>2022-08-01T13:34:25.000Z</time>
      </trkpt>
      <trkpt lat="49.32805" lon="-1.2453">
        <ele>6.304255</ele>
        <time>2022-08-01T13:34:26.000Z</time>
      </trkpt>
      <trkpt lat="49.32803" lon="-1.24533">
        <ele>6.303252</ele>
        <time>2022-08-01T13:34:27.000Z</time>
      </trkpt>
      <trkpt lat="49.32803" lon="-1.24536">
        <ele>6.302445</ele>
        <time>2022-08-01T13:34:28.000Z</time>
      </trkpt>
      <trkpt lat="49.32802" lon="-1.24539">
        <ele>6.301477</ele>
        <time>2022-08-01T13:34:29.000Z</time>
      </trkpt>
      <trkpt lat="49.32801" lon="-1.24543">
        <ele>6.300427</ele>
        <time>2022-08-01T13:34:30.000Z</time>
      </trkpt>
      <trkpt lat="49.328" lon="-1.24546">
        <ele>6.299453</ele>
        <time>2022-08-01T13:34:31.000Z</time>
      </trkpt>
      <trkpt lat="49.32799" lon="-1.24549">
        <ele>6.298473</ele>
        <time>2022-08-01T13:34:32.000Z</time>
      </trkpt>
      <trkpt lat="49.32799" lon="-1.24552">
        <ele>6.297666</ele>
        <time>2022-08-01T13:34:33.000Z</time>
      </trkpt>
      <trkpt lat="49.32798" lon="-1.24556">
        <ele>6.296665</ele>
        <time>2022-08-01T13:34:34.000Z</time>
      </trkpt>
      <trkpt lat="49.32797" lon="-1.24559">
        <ele>6.295594</ele>
        <time>2022-08-01T13:34:35.000Z</time>
      </trkpt>
      <trkpt lat="49.32796" lon="-1.24563">
        <ele>6.294646</ele>
        <time>2022-08-01T13:34:36.000Z</time>
      </trkpt>
      <trkpt lat="49.32795" lon="-1.24566">
        <ele>6.293594</ele>
        <time>2022-08-01T13:34:37.000Z</time>
      </trkpt>
      <trkpt lat="49.32794" lon="-1.2457">
        <ele>6.292671</ele>
        <time>2022-08-01T13:34:38.000Z</time>
      </trkpt>
      <trkpt lat="49.32793" lon="-1.24572">
        <ele>6.291778</ele>
        <time>2022-08-01T13:34:39.000Z</time>
      </trkpt>
      <trkpt lat="49.32791" lon="-1.24575">
        <ele>6.290995</ele>
        <time>2022-08-01T13:34:40.000Z</time>
      </trkpt>
      <trkpt lat="49.3279" lon="-1.24579">
        <ele>6.289686</ele>
        <time>2022-08-01T13:34:42.000Z</time>
      </trkpt>
      <trkpt lat="49.32789" lon="-1.24584">
        <ele>6.288346</ele>
        <time>2022-08-01T13:34:44.000Z</time>
      </trkpt>
      <trkpt lat="49.32789" lon="-1.24588">
        <ele>6.287254</ele>
        <time>2022-08-01T13:34:46.000Z</time>
      </trkpt>
      <trkpt lat="49.32787" lon="-1.2459">
        <ele>6.286322</ele>
        <time>2022-08-01T13:34:48.000Z</time>
      </trkpt>
      <trkpt lat="49.32771" lon="-1.24581">
        <ele>6.291473</ele>
        <time>2022-08-01T13:41:01.000Z</time>
      </trkpt>
      <trkpt lat="49.32768" lon="-1.2458">
        <ele>6.297856</ele>
        <time>2022-08-01T13:41:02.000Z</time>
      </trkpt>
      <trkpt lat="49.32765" lon="-1.24578">
        <ele>6.30499</ele>
        <time>2022-08-01T13:41:03.000Z</time>
      </trkpt>
      <trkpt lat="49.32763" lon="-1.24577">
        <ele>6.311713</ele>
        <time>2022-08-01T13:41:04.000Z</time>
      </trkpt>
      <trkpt lat="49.3276" lon="-1.24576">
        <ele>6.317779</ele>
        <time>2022-08-01T13:41:05.000Z</time>
      </trkpt>
      <trkpt lat="49.32757" lon="-1.24575">
        <ele>6.325229</ele>
        <time>2022-08-01T13:41:06.000Z</time>
      </trkpt>
      <trkpt lat="49.32754" lon="-1.24574">
        <ele>6.332799</ele>
        <time>2022-08-01T13:41:07.000Z</time>
      </trkpt>
      <trkpt lat="49.32751" lon="-1.24573">
        <ele>6.339664</ele>
        <time>2022-08-01T13:41:08.000Z</time>
      </trkpt>
      <trkpt lat="49.32748" lon="-1.24572">
        <ele>6.347091</ele>
        <time>2022-08-01T13:41:09.000Z</time>
      </trkpt>
      <trkpt lat="49.32745" lon="-1.24571">
        <ele>6.35296</ele>
        <time>2022-08-01T13:41:10.000Z</time>
      </trkpt>
      <trkpt lat="49.32742" lon="-1.24571">
        <ele>6.359706</ele>
        <time>2022-08-01T13:41:11.000Z</time>
      </trkpt>
      <trkpt lat="49.32739" lon="-1.2457">
        <ele>6.367097</ele>
        <time>2022-08-01T13:41:12.000Z</time>
      </trkpt>
      <trkpt lat="49.32736" lon="-1.24569">
        <ele>6.374525</ele>
        <time>2022-08-01T13:41:13.000Z</time>
      </trkpt>
      <trkpt lat="49.32733" lon="-1.24569">
        <ele>6.381296</ele>
        <time>2022-08-01T13:41:14.000Z</time>
      </trkpt>
      <trkpt lat="49.3273" lon="-1.24568">
        <ele>6.388724</ele>
        <time>2022-08-01T13:41:15.000Z</time>
      </trkpt>
      <trkpt lat="49.32727" lon="-1.24567">
        <ele>6.395448</ele>
        <time>2022-08-01T13:41:16.000Z</time>
      </trkpt>
      <trkpt lat="49.32724" lon="-1.24567">
        <ele>6.402876</ele>
        <time>2022-08-01T13:41:17.000Z</time>
      </trkpt>
      <trkpt lat="49.32721" lon="-1.24566">
        <ele>6.409622</ele>
        <time>2022-08-01T13:41:18.000Z</time>
      </trkpt>
      <trkpt lat="49.32717" lon="-1.24565">
        <ele>6.41703</ele>
        <time>2022-08-01T13:41:19.000Z</time>
      </trkpt>
      <trkpt lat="49.32715" lon="-1.24565">
        <ele>6.42287</ele>
        <time>2022-08-01T13:41:20.000Z</time>
      </trkpt>
      <trkpt lat="49.32712" lon="-1.24564">
        <ele>6.430298</ele>
        <time>2022-08-01T13:41:21.000Z</time>
      </trkpt>
      <trkpt lat="49.32709" lon="-1.24563">
        <ele>6.437022</ele>
        <time>2022-08-01T13:41:22.000Z</time>
      </trkpt>
      <trkpt lat="49.32706" lon="-1.24563">
        <ele>6.44445</ele>
        <time>2022-08-01T13:41:23.000Z</time>
      </trkpt>
      <trkpt lat="49.32703" lon="-1.24562">
        <ele>6.450516</ele>
        <time>2022-08-01T13:41:24.000Z</time>
      </trkpt>
      <trkpt lat="49.327" lon="-1.24561">
        <ele>6.457907</ele>
        <time>2022-08-01T13:41:25.000Z</time>
      </trkpt>
      <trkpt lat="49.32697" lon="-1.24561">
        <ele>6.464385</ele>
        <time>2022-08-01T13:41:26.000Z</time>
      </trkpt>
      <trkpt lat="49.32694" lon="-1.24561">
        <ele>6.470362</ele>
        <time>2022-08-01T13:41:27.000Z</time>
      </trkpt>
      <trkpt lat="49.32692" lon="-1.2456">
        <ele>6.477068</ele>
        <time>2022-08-01T13:41:28.000Z</time>
      </trkpt>
      <trkpt lat="49.32689" lon="-1.2456">
        <ele>6.483774</ele>
        <time>2022-08-01T13:41:29.000Z</time>
      </trkpt>
      <trkpt lat="49.32685" lon="-1.24559">
        <ele>6.491201</ele>
        <time>2022-08-01T13:41:30.000Z</time>
      </trkpt>
      <trkpt lat="49.32683" lon="-1.24558">
        <ele>6.496364</ele>
        <time>2022-08-01T13:41:31.000Z</time>
      </trkpt>
      <trkpt lat="49.32681" lon="-1.24558">
        <ele>6.502406</ele>
        <time>2022-08-01T13:41:32.000Z</time>
      </trkpt>
      <trkpt lat="49.32678" lon="-1.24557">
        <ele>6.508884</ele>
        <time>2022-08-01T13:41:33.000Z</time>
      </trkpt>
      <trkpt lat="49.32675" lon="-1.24557">
        <ele>6.514905</ele>
        <time>2022-08-01T13:41:34.000Z</time>
      </trkpt>
      <trkpt lat="49.32673" lon="-1.24556">
        <ele>6.520971</ele>
        <time>2022-08-01T13:41:35.000Z</time>
      </trkpt>
      <trkpt lat="49.3267" lon="-1.24555">
        <ele>6.52749</ele>
        <time>2022-08-01T13:41:36.000Z</time>
      </trkpt>
      <trkpt lat="49.32667" lon="-1.24555">
        <ele>6.533512</ele>
        <time>2022-08-01T13:41:37.000Z</time>
      </trkpt>
      <trkpt lat="49.32664" lon="-1.24554">
        <ele>6.540903</ele>
        <time>2022-08-01T13:41:38.000Z</time>
      </trkpt>
      <trkpt lat="49.32661" lon="-1.24554">
        <ele>6.546925</ele>
        <time>2022-08-01T13:41:39.000Z</time>
      </trkpt>
      <trkpt lat="49.32659" lon="-1.24553">
        <ele>6.552793</ele>
        <time>2022-08-01T13:41:40.000Z</time>
      </trkpt>
      <trkpt lat="49.32656" lon="-1.24552">
        <ele>6.559695</ele>
        <time>2022-08-01T13:41:41.000Z</time>
      </trkpt>
      <trkpt lat="49.32653" lon="-1.24551">
        <ele>6.565979</ele>
        <time>2022-08-01T13:41:42.000Z</time>
      </trkpt>
      <trkpt lat="49.32651" lon="-1.2455">
        <ele>6.571916</ele>
        <time>2022-08-01T13:41:43.000Z</time>
      </trkpt>
      <trkpt lat="49.32648" lon="-1.24549">
        <ele>6.579344</ele>
        <time>2022-08-01T13:41:44.000Z</time>
      </trkpt>
      <trkpt lat="49.32645" lon="-1.24548">
        <ele>6.586068</ele>
        <time>2022-08-01T13:41:45.000Z</time>
      </trkpt>
      <trkpt lat="49.32642" lon="-1.24548">
        <ele>6.592739</ele>
        <time>2022-08-01T13:41:46.000Z</time>
      </trkpt>
      <trkpt lat="49.32639" lon="-1.24548">
        <ele>6.599445</ele>
        <time>2022-08-01T13:41:47.000Z</time>
      </trkpt>
      <trkpt lat="49.32636" lon="-1.24547">
        <ele>6.605923</ele>
        <time>2022-08-01T13:41:48.000Z</time>
      </trkpt>
      <trkpt lat="49.32633" lon="-1.24546">
        <ele>6.612694</ele>
        <time>2022-08-01T13:41:49.000Z</time>
      </trkpt>
      <trkpt lat="49.3263" lon="-1.24546">
        <ele>6.620085</ele>
        <time>2022-08-01T13:41:50.000Z</time>
      </trkpt>
      <trkpt lat="49.32627" lon="-1.24545">
        <ele>6.626831</ele>
        <time>2022-08-01T13:41:51.000Z</time>
      </trkpt>
      <trkpt lat="49.32624" lon="-1.24545">
        <ele>6.63351</ele>
        <time>2022-08-01T13:41:52.000Z</time>
      </trkpt>
      <trkpt lat="49.32621" lon="-1.24544">
        <ele>6.640256</ele>
        <time>2022-08-01T13:41:53.000Z</time>
      </trkpt>
      <trkpt lat="49.32619" lon="-1.24543">
        <ele>6.646776</ele>
        <time>2022-08-01T13:41:54.000Z</time>
      </trkpt>
      <trkpt lat="49.32616" lon="-1.24543">
        <ele>6.652767</ele>
        <time>2022-08-01T13:41:55.000Z</time>
      </trkpt>
      <trkpt lat="49.32613" lon="-1.24543">
        <ele>6.658742</ele>
        <time>2022-08-01T13:41:56.000Z</time>
      </trkpt>
      <trkpt lat="49.32611" lon="-1.24543">
        <ele>6.665183</ele>
        <time>2022-08-01T13:41:57.000Z</time>
      </trkpt>
      <trkpt lat="49.32608" lon="-1.24543">
        <ele>6.671854</ele>
        <time>2022-08-01T13:41:58.000Z</time>
      </trkpt>
      <trkpt lat="49.32605" lon="-1.24543">
        <ele>6.677148</ele>
        <time>2022-08-01T13:41:59.000Z</time>
      </trkpt>
      <trkpt lat="49.32603" lon="-1.24543">
        <ele>6.683598</ele>
        <time>2022-08-01T13:42:00.000Z</time>
      </trkpt>
      <trkpt lat="49.326" lon="-1.24543">
        <ele>6.688986</ele>
        <time>2022-08-01T13:42:01.000Z</time>
      </trkpt>
      <trkpt lat="49.32598" lon="-1.24544">
        <ele>6.693713</ele>
        <time>2022-08-01T13:42:02.000Z</time>
      </trkpt>
      <trkpt lat="49.32595" lon="-1.24545">
        <ele>6.682791</ele>
        <time>2022-08-01T13:42:03.000Z</time>
      </trkpt>
      <trkpt lat="49.32592" lon="-1.24546">
        <ele>6.670549</ele>
        <time>2022-08-01T13:42:04.000Z</time>
      </trkpt>
      <trkpt lat="49.3259" lon="-1.24547">
        <ele>6.659759</ele>
        <time>2022-08-01T13:42:05.000Z</time>
      </trkpt>
      <trkpt lat="49.32587" lon="-1.24548">
        <ele>6.646309</ele>
        <time>2022-08-01T13:42:06.000Z</time>
      </trkpt>
      <trkpt lat="49.32584" lon="-1.24549">
        <ele>6.635268</ele>
        <time>2022-08-01T13:42:07.000Z</time>
      </trkpt>
      <trkpt lat="49.32581" lon="-1.2455">
        <ele>6.624346</ele>
        <time>2022-08-01T13:42:08.000Z</time>
      </trkpt>
      <trkpt lat="49.32579" lon="-1.24551">
        <ele>6.614729</ele>
        <time>2022-08-01T13:42:09.000Z</time>
      </trkpt>
      <trkpt lat="49.32577" lon="-1.24553">
        <ele>6.603466</ele>
        <time>2022-08-01T13:42:10.000Z</time>
      </trkpt>
      <trkpt lat="49.32574" lon="-1.24555">
        <ele>6.592933</ele>
        <time>2022-08-01T13:42:11.000Z</time>
      </trkpt>
      <trkpt lat="49.32572" lon="-1.24557">
        <ele>6.582401</ele>
        <time>2022-08-01T13:42:12.000Z</time>
      </trkpt>
      <trkpt lat="49.32571" lon="-1.24558">
        <ele>6.574229</ele>
        <time>2022-08-01T13:42:13.000Z</time>
      </trkpt>
      <trkpt lat="49.32568" lon="-1.24561">
        <ele>6.559823</ele>
        <time>2022-08-01T13:42:15.000Z</time>
      </trkpt>
      <trkpt lat="49.32565" lon="-1.24562">
        <ele>6.550255</ele>
        <time>2022-08-01T13:42:17.000Z</time>
      </trkpt>
      <trkpt lat="49.3256" lon="-1.24556">
        <ele>6.523287</ele>
        <time>2022-08-01T13:42:54.000Z</time>
      </trkpt>
      <trkpt lat="49.32559" lon="-1.24552">
        <ele>6.512246</ele>
        <time>2022-08-01T13:42:55.000Z</time>
      </trkpt>
      <trkpt lat="49.32557" lon="-1.24549">
        <ele>6.501017</ele>
        <time>2022-08-01T13:42:56.000Z</time>
      </trkpt>
      <trkpt lat="49.32556" lon="-1.24546">
        <ele>6.490894</ele>
        <time>2022-08-01T13:42:57.000Z</time>
      </trkpt>
      <trkpt lat="49.32554" lon="-1.24543">
        <ele>6.478666</ele>
        <time>2022-08-01T13:42:58.000Z</time>
      </trkpt>
      <trkpt lat="49.32552" lon="-1.24539">
        <ele>6.467625</ele>
        <time>2022-08-01T13:42:59.000Z</time>
      </trkpt>
      <trkpt lat="49.3255" lon="-1.24536">
        <ele>6.454764</ele>
        <time>2022-08-01T13:43:00.000Z</time>
      </trkpt>
      <trkpt lat="49.32548" lon="-1.24532">
        <ele>6.442065</ele>
        <time>2022-08-01T13:43:01.000Z</time>
      </trkpt>
      <trkpt lat="49.32546" lon="-1.24529">
        <ele>6.430444</ele>
        <time>2022-08-01T13:43:02.000Z</time>
      </trkpt>
      <trkpt lat="49.32544" lon="-1.24526">
        <ele>6.418824</ele>
        <time>2022-08-01T13:43:03.000Z</time>
      </trkpt>
      <trkpt lat="49.32542" lon="-1.24523">
        <ele>6.408209</ele>
        <time>2022-08-01T13:43:04.000Z</time>
      </trkpt>
      <trkpt lat="49.32541" lon="-1.2452">
        <ele>6.39717</ele>
        <time>2022-08-01T13:43:05.000Z</time>
      </trkpt>
      <trkpt lat="49.32539" lon="-1.24517">
        <ele>6.387571</ele>
        <time>2022-08-01T13:43:06.000Z</time>
      </trkpt>
      <trkpt lat="49.32538" lon="-1.24515">
        <ele>6.378559</ele>
        <time>2022-08-01T13:43:07.000Z</time>
      </trkpt>
      <trkpt lat="49.32536" lon="-1.24512">
        <ele>6.368763</ele>
        <time>2022-08-01T13:43:08.000Z</time>
      </trkpt>
      <trkpt lat="49.32534" lon="-1.24509">
        <ele>6.359164</ele>
        <time>2022-08-01T13:43:09.000Z</time>
      </trkpt>
      <trkpt lat="49.32533" lon="-1.24507">
        <ele>6.349368</ele>
        <time>2022-08-01T13:43:10.000Z</time>
      </trkpt>
      <trkpt lat="49.32532" lon="-1.24504">
        <ele>6.341031</ele>
        <time>2022-08-01T13:43:11.000Z</time>
      </trkpt>
      <trkpt lat="49.3253" lon="-1.24501">
        <ele>6.331625</ele>
        <time>2022-08-01T13:43:12.000Z</time>
      </trkpt>
      <trkpt lat="49.32529" lon="-1.24499">
        <ele>6.324128</ele>
        <time>2022-08-01T13:43:13.000Z</time>
      </trkpt>
      <trkpt lat="49.32527" lon="-1.24496">
        <ele>6.310402</ele>
        <time>2022-08-01T13:43:15.000Z</time>
      </trkpt>
      <trkpt lat="49.32525" lon="-1.2449">
        <ele>6.294722</ele>
        <time>2022-08-01T13:43:17.000Z</time>
      </trkpt>
      <trkpt lat="49.32525" lon="-1.24487">
        <ele>6.284789</ele>
        <time>2022-08-01T13:43:18.000Z</time>
      </trkpt>
      <trkpt lat="49.32526" lon="-1.24483">
        <ele>6.27453</ele>
        <time>2022-08-01T13:43:19.000Z</time>
      </trkpt>
      <trkpt lat="49.32527" lon="-1.2448">
        <ele>6.264927</ele>
        <time>2022-08-01T13:43:20.000Z</time>
      </trkpt>
      <trkpt lat="49.32529" lon="-1.24477">
        <ele>6.253955</ele>
        <time>2022-08-01T13:43:21.000Z</time>
      </trkpt>
      <trkpt lat="49.32531" lon="-1.24474">
        <ele>6.243958</ele>
        <time>2022-08-01T13:43:22.000Z</time>
      </trkpt>
      <trkpt lat="49.32533" lon="-1.24472">
        <ele>6.233649</ele>
        <time>2022-08-01T13:43:23.000Z</time>
      </trkpt>
      <trkpt lat="49.32534" lon="-1.24469">
        <ele>6.222982</ele>
        <time>2022-08-01T13:43:24.000Z</time>
      </trkpt>
      <trkpt lat="49.32536" lon="-1.24467">
        <ele>6.212673</ele>
        <time>2022-08-01T13:43:25.000Z</time>
      </trkpt>
      <trkpt lat="49.32538" lon="-1.24465">
        <ele>6.204657</ele>
        <time>2022-08-01T13:43:26.000Z</time>
      </trkpt>
      <trkpt lat="49.3254" lon="-1.24461">
        <ele>6.190736</ele>
        <time>2022-08-01T13:43:29.000Z</time>
      </trkpt>
      <trkpt lat="49.32541" lon="-1.24458">
        <ele>6.181259</ele>
        <time>2022-08-01T13:43:31.000Z</time>
      </trkpt>
      <trkpt lat="49.3254" lon="-1.24454">
        <ele>6.171489</ele>
        <time>2022-08-01T13:43:33.000Z</time>
      </trkpt>
      <trkpt lat="49.32538" lon="-1.24453">
        <ele>6.16243</ele>
        <time>2022-08-01T13:43:35.000Z</time>
      </trkpt>
      <trkpt lat="49.32536" lon="-1.24449">
        <ele>6.151389</ele>
        <time>2022-08-01T13:43:37.000Z</time>
      </trkpt>
      <trkpt lat="49.32536" lon="-1.24445">
        <ele>6.139577</ele>
        <time>2022-08-01T13:43:39.000Z</time>
      </trkpt>
      <trkpt lat="49.32537" lon="-1.24439">
        <ele>6.123472</ele>
        <time>2022-08-01T13:43:41.000Z</time>
      </trkpt>
      <trkpt lat="49.32538" lon="-1.24436">
        <ele>6.113868</ele>
        <time>2022-08-01T13:43:42.000Z</time>
      </trkpt>
      <trkpt lat="49.32539" lon="-1.24432">
        <ele>6.103855</ele>
        <time>2022-08-01T13:43:43.000Z</time>
      </trkpt>
      <trkpt lat="49.3254" lon="-1.24429">
        <ele>6.094252</ele>
        <time>2022-08-01T13:43:44.000Z</time>
      </trkpt>
      <trkpt lat="49.32541" lon="-1.24426">
        <ele>6.085681</ele>
        <time>2022-08-01T13:43:45.000Z</time>
      </trkpt>
      <trkpt lat="49.32542" lon="-1.24424">
        <ele>6.077344</ele>
        <time>2022-08-01T13:43:46.000Z</time>
      </trkpt>
      <trkpt lat="49.32543" lon="-1.24421">
        <ele>6.069203</ele>
        <time>2022-08-01T13:43:47.000Z</time>
      </trkpt>
      <trkpt lat="49.32544" lon="-1.24418">
        <ele>6.059797</ele>
        <time>2022-08-01T13:43:48.000Z</time>
      </trkpt>
      <trkpt lat="49.32546" lon="-1.24416">
        <ele>6.050198</ele>
        <time>2022-08-01T13:43:49.000Z</time>
      </trkpt>
      <trkpt lat="49.32548" lon="-1.24413">
        <ele>6.039998</ele>
        <time>2022-08-01T13:43:50.000Z</time>
      </trkpt>
      <trkpt lat="49.32549" lon="-1.2441">
        <ele>6.030769</ele>
        <time>2022-08-01T13:43:51.000Z</time>
      </trkpt>
      <trkpt lat="49.32551" lon="-1.24407">
        <ele>6.019149</ele>
        <time>2022-08-01T13:43:52.000Z</time>
      </trkpt>
      <trkpt lat="49.32552" lon="-1.24404">
        <ele>6.009152</ele>
        <time>2022-08-01T13:43:53.000Z</time>
      </trkpt>
      <trkpt lat="49.32554" lon="-1.24401">
        <ele>5.997532</ele>
        <time>2022-08-01T13:43:54.000Z</time>
      </trkpt>
      <trkpt lat="49.32556" lon="-1.24398">
        <ele>5.985822</ele>
        <time>2022-08-01T13:43:55.000Z</time>
      </trkpt>
      <trkpt lat="49.32558" lon="-1.24395">
        <ele>5.974202</ele>
        <time>2022-08-01T13:43:56.000Z</time>
      </trkpt>
      <trkpt lat="49.3256" lon="-1.24391">
        <ele>5.962282</ele>
        <time>2022-08-01T13:43:57.000Z</time>
      </trkpt>
      <trkpt lat="49.32561" lon="-1.24387">
        <ele>5.951434</ele>
        <time>2022-08-01T13:43:58.000Z</time>
      </trkpt>
      <trkpt lat="49.32563" lon="-1.24383">
        <ele>5.942671</ele>
        <time>2022-08-01T13:43:59.000Z</time>
      </trkpt>
      <trkpt lat="49.32564" lon="-1.24378">
        <ele>5.933286</ele>
        <time>2022-08-01T13:44:00.000Z</time>
      </trkpt>
      <trkpt lat="49.32566" lon="-1.24372">
        <ele>5.922465</ele>
        <time>2022-08-01T13:44:01.000Z</time>
      </trkpt>
      <trkpt lat="49.32567" lon="-1.24366">
        <ele>5.911155</ele>
        <time>2022-08-01T13:44:02.000Z</time>
      </trkpt>
      <trkpt lat="49.32568" lon="-1.24361">
        <ele>5.900762</ele>
        <time>2022-08-01T13:44:03.000Z</time>
      </trkpt>
      <trkpt lat="49.32569" lon="-1.24355">
        <ele>5.890074</ele>
        <time>2022-08-01T13:44:04.000Z</time>
      </trkpt>
      <trkpt lat="49.3257" lon="-1.24349">
        <ele>5.880307</ele>
        <time>2022-08-01T13:44:05.000Z</time>
      </trkpt>
      <trkpt lat="49.3257" lon="-1.24344">
        <ele>5.870263</ele>
        <time>2022-08-01T13:44:06.000Z</time>
      </trkpt>
      <trkpt lat="49.32571" lon="-1.24338">
        <ele>5.859997</ele>
        <time>2022-08-01T13:44:07.000Z</time>
      </trkpt>
      <trkpt lat="49.32572" lon="-1.24332">
        <ele>5.849101</ele>
        <time>2022-08-01T13:44:08.000Z</time>
      </trkpt>
      <trkpt lat="49.32573" lon="-1.24326">
        <ele>5.838313</ele>
        <time>2022-08-01T13:44:09.000Z</time>
      </trkpt>
      <trkpt lat="49.32573" lon="-1.2432">
        <ele>5.827417</ele>
        <time>2022-08-01T13:44:10.000Z</time>
      </trkpt>
      <trkpt lat="49.32574" lon="-1.24314">
        <ele>5.816457</ele>
        <time>2022-08-01T13:44:11.000Z</time>
      </trkpt>
      <trkpt lat="49.32576" lon="-1.24308">
        <ele>5.80493</ele>
        <time>2022-08-01T13:44:12.000Z</time>
      </trkpt>
      <trkpt lat="49.32576" lon="-1.24302">
        <ele>5.794187</ele>
        <time>2022-08-01T13:44:13.000Z</time>
      </trkpt>
      <trkpt lat="49.32577" lon="-1.24296">
        <ele>5.783911</ele>
        <time>2022-08-01T13:44:14.000Z</time>
      </trkpt>
      <trkpt lat="49.32578" lon="-1.2429">
        <ele>5.773343</ele>
        <time>2022-08-01T13:44:15.000Z</time>
      </trkpt>
      <trkpt lat="49.32579" lon="-1.24284">
        <ele>5.762381</ele>
        <time>2022-08-01T13:44:16.000Z</time>
      </trkpt>
      <trkpt lat="49.3258" lon="-1.24278">
        <ele>5.751657</ele>
        <time>2022-08-01T13:44:17.000Z</time>
      </trkpt>
      <trkpt lat="49.3258" lon="-1.24272">
        <ele>5.740869</ele>
        <time>2022-08-01T13:44:18.000Z</time>
      </trkpt>
      <trkpt lat="49.32581" lon="-1.24266">
        <ele>5.729593</ele>
        <time>2022-08-01T13:44:19.000Z</time>
      </trkpt>
      <trkpt lat="49.32582" lon="-1.2426">
        <ele>5.718632</ele>
        <time>2022-08-01T13:44:20.000Z</time>
      </trkpt>
      <trkpt lat="49.32583" lon="-1.24254">
        <ele>5.707843</ele>
        <time>2022-08-01T13:44:21.000Z</time>
      </trkpt>
      <trkpt lat="49.32584" lon="-1.24248">
        <ele>5.696947</ele>
        <time>2022-08-01T13:44:22.000Z</time>
      </trkpt>
      <trkpt lat="49.32585" lon="-1.24242">
        <ele>5.685815</ele>
        <time>2022-08-01T13:44:23.000Z</time>
      </trkpt>
      <trkpt lat="49.32586" lon="-1.24236">
        <ele>5.674372</ele>
        <time>2022-08-01T13:44:24.000Z</time>
      </trkpt>
      <trkpt lat="49.32587" lon="-1.2423">
        <ele>5.66341</ele>
        <time>2022-08-01T13:44:25.000Z</time>
      </trkpt>
      <trkpt lat="49.32588" lon="-1.24223">
        <ele>5.651624</ele>
        <time>2022-08-01T13:44:26.000Z</time>
      </trkpt>
      <trkpt lat="49.32589" lon="-1.24217">
        <ele>5.640313</ele>
        <time>2022-08-01T13:44:27.000Z</time>
      </trkpt>
      <trkpt lat="49.3259" lon="-1.24211">
        <ele>5.628618</ele>
        <time>2022-08-01T13:44:28.000Z</time>
      </trkpt>
      <trkpt lat="49.3259" lon="-1.24205">
        <ele>5.617525</ele>
        <time>2022-08-01T13:44:29.000Z</time>
      </trkpt>
      <trkpt lat="49.32591" lon="-1.24198">
        <ele>5.606522</ele>
        <time>2022-08-01T13:44:30.000Z</time>
      </trkpt>
      <trkpt lat="49.32592" lon="-1.24192">
        <ele>5.594827</ele>
        <time>2022-08-01T13:44:31.000Z</time>
      </trkpt>
      <trkpt lat="49.32593" lon="-1.24186">
        <ele>5.583209</ele>
        <time>2022-08-01T13:44:32.000Z</time>
      </trkpt>
      <trkpt lat="49.32594" lon="-1.24179">
        <ele>5.571044</ele>
        <time>2022-08-01T13:44:33.000Z</time>
      </trkpt>
      <trkpt lat="49.32594" lon="-1.24172">
        <ele>5.559426</ele>
        <time>2022-08-01T13:44:34.000Z</time>
      </trkpt>
      <trkpt lat="49.32595" lon="-1.24166">
        <ele>5.547342</ele>
        <time>2022-08-01T13:44:35.000Z</time>
      </trkpt>
      <trkpt lat="49.32596" lon="-1.24159">
        <ele>5.535386</ele>
        <time>2022-08-01T13:44:36.000Z</time>
      </trkpt>
      <trkpt lat="49.32596" lon="-1.24152">
        <ele>5.523479</ele>
        <time>2022-08-01T13:44:37.000Z</time>
      </trkpt>
      <trkpt lat="49.32597" lon="-1.24146">
        <ele>5.511417</ele>
        <time>2022-08-01T13:44:38.000Z</time>
      </trkpt>
      <trkpt lat="49.32597" lon="-1.24139">
        <ele>5.499382</ele>
        <time>2022-08-01T13:44:39.000Z</time>
      </trkpt>
      <trkpt lat="49.32597" lon="-1.24132">
        <ele>5.487062</ele>
        <time>2022-08-01T13:44:40.000Z</time>
      </trkpt>
      <trkpt lat="49.32597" lon="-1.24125">
        <ele>5.475382</ele>
        <time>2022-08-01T13:44:41.000Z</time>
      </trkpt>
      <trkpt lat="49.32597" lon="-1.24119">
        <ele>5.466521</ele>
        <time>2022-08-01T13:44:42.000Z</time>
      </trkpt>
      <trkpt lat="49.32597" lon="-1.24112">
        <ele>5.475201</ele>
        <time>2022-08-01T13:44:43.000Z</time>
      </trkpt>
      <trkpt lat="49.32598" lon="-1.24105">
        <ele>5.483788</ele>
        <time>2022-08-01T13:44:44.000Z</time>
      </trkpt>
      <trkpt lat="49.32598" lon="-1.24099">
        <ele>5.492085</ele>
        <time>2022-08-01T13:44:45.000Z</time>
      </trkpt>
      <trkpt lat="49.32598" lon="-1.24092">
        <ele>5.500784</ele>
        <time>2022-08-01T13:44:46.000Z</time>
      </trkpt>
      <trkpt lat="49.32598" lon="-1.24085">
        <ele>5.509719</ele>
        <time>2022-08-01T13:44:47.000Z</time>
      </trkpt>
      <trkpt lat="49.32598" lon="-1.24077">
        <ele>5.519164</ele>
        <time>2022-08-01T13:44:48.000Z</time>
      </trkpt>
      <trkpt lat="49.32597" lon="-1.2407">
        <ele>5.52833</ele>
        <time>2022-08-01T13:44:49.000Z</time>
      </trkpt>
      <trkpt lat="49.32596" lon="-1.24063">
        <ele>5.537678</ele>
        <time>2022-08-01T13:44:50.000Z</time>
      </trkpt>
      <trkpt lat="49.32594" lon="-1.24057">
        <ele>5.546308</ele>
        <time>2022-08-01T13:44:51.000Z</time>
      </trkpt>
      <trkpt lat="49.32592" lon="-1.24051">
        <ele>5.555398</ele>
        <time>2022-08-01T13:44:52.000Z</time>
      </trkpt>
      <trkpt lat="49.32588" lon="-1.24046">
        <ele>5.564763</ele>
        <time>2022-08-01T13:44:53.000Z</time>
      </trkpt>
      <trkpt lat="49.32585" lon="-1.24042">
        <ele>5.572573</ele>
        <time>2022-08-01T13:44:54.000Z</time>
      </trkpt>
      <trkpt lat="49.32581" lon="-1.24038">
        <ele>5.581486</ele>
        <time>2022-08-01T13:44:55.000Z</time>
      </trkpt>
      <trkpt lat="49.32578" lon="-1.24035">
        <ele>5.589975</ele>
        <time>2022-08-01T13:44:56.000Z</time>
      </trkpt>
      <trkpt lat="49.32573" lon="-1.24032">
        <ele>5.599048</ele>
        <time>2022-08-01T13:44:57.000Z</time>
      </trkpt>
      <trkpt lat="49.3257" lon="-1.2403">
        <ele>5.607048</ele>
        <time>2022-08-01T13:44:58.000Z</time>
      </trkpt>
      <trkpt lat="49.32565" lon="-1.24028">
        <ele>5.615624</ele>
        <time>2022-08-01T13:44:59.000Z</time>
      </trkpt>
      <trkpt lat="49.32562" lon="-1.24027">
        <ele>5.623248</ele>
        <time>2022-08-01T13:45:00.000Z</time>
      </trkpt>
      <trkpt lat="49.32558" lon="-1.24025">
        <ele>5.631</ele>
        <time>2022-08-01T13:45:01.000Z</time>
      </trkpt>
      <trkpt lat="49.32554" lon="-1.24023">
        <ele>5.639053</ele>
        <time>2022-08-01T13:45:02.000Z</time>
      </trkpt>
      <trkpt lat="49.3255" lon="-1.24021">
        <ele>5.646963</ele>
        <time>2022-08-01T13:45:03.000Z</time>
      </trkpt>
      <trkpt lat="49.32547" lon="-1.24019">
        <ele>5.65437</ele>
        <time>2022-08-01T13:45:04.000Z</time>
      </trkpt>
      <trkpt lat="49.32543" lon="-1.24016">
        <ele>5.662008</ele>
        <time>2022-08-01T13:45:05.000Z</time>
      </trkpt>
      <trkpt lat="49.3254" lon="-1.24014">
        <ele>5.66904</ele>
        <time>2022-08-01T13:45:06.000Z</time>
      </trkpt>
      <trkpt lat="49.32536" lon="-1.24011">
        <ele>5.676892</ele>
        <time>2022-08-01T13:45:07.000Z</time>
      </trkpt>
      <trkpt lat="49.32534" lon="-1.24008">
        <ele>5.683107</ele>
        <time>2022-08-01T13:45:08.000Z</time>
      </trkpt>
      <trkpt lat="49.3253" lon="-1.24005">
        <ele>5.69113</ele>
        <time>2022-08-01T13:45:09.000Z</time>
      </trkpt>
      <trkpt lat="49.32527" lon="-1.24002">
        <ele>5.698474</ele>
        <time>2022-08-01T13:45:10.000Z</time>
      </trkpt>
      <trkpt lat="49.32524" lon="-1.23999">
        <ele>5.705312</ele>
        <time>2022-08-01T13:45:11.000Z</time>
      </trkpt>
      <trkpt lat="49.32521" lon="-1.23995">
        <ele>5.712863</ele>
        <time>2022-08-01T13:45:12.000Z</time>
      </trkpt>
      <trkpt lat="49.32518" lon="-1.23992">
        <ele>5.72001</ele>
        <time>2022-08-01T13:45:13.000Z</time>
      </trkpt>
      <trkpt lat="49.32515" lon="-1.23989">
        <ele>5.727561</ele>
        <time>2022-08-01T13:45:14.000Z</time>
      </trkpt>
      <trkpt lat="49.32512" lon="-1.23985">
        <ele>5.734948</ele>
        <time>2022-08-01T13:45:15.000Z</time>
      </trkpt>
      <trkpt lat="49.32509" lon="-1.23981">
        <ele>5.742872</ele>
        <time>2022-08-01T13:45:16.000Z</time>
      </trkpt>
      <trkpt lat="49.32507" lon="-1.23977">
        <ele>5.749265</ele>
        <time>2022-08-01T13:45:17.000Z</time>
      </trkpt>
      <trkpt lat="49.32504" lon="-1.23973">
        <ele>5.756567</ele>
        <time>2022-08-01T13:45:18.000Z</time>
      </trkpt>
      <trkpt lat="49.32501" lon="-1.23969">
        <ele>5.764814</ele>
        <time>2022-08-01T13:45:19.000Z</time>
      </trkpt>
      <trkpt lat="49.32498" lon="-1.23964">
        <ele>5.772683</ele>
        <time>2022-08-01T13:45:20.000Z</time>
      </trkpt>
      <trkpt lat="49.32495" lon="-1.2396">
        <ele>5.780624</ele>
        <time>2022-08-01T13:45:21.000Z</time>
      </trkpt>
      <trkpt lat="49.32493" lon="-1.23955">
        <ele>5.7883</ele>
        <time>2022-08-01T13:45:22.000Z</time>
      </trkpt>
      <trkpt lat="49.3249" lon="-1.23951">
        <ele>5.795975</ele>
        <time>2022-08-01T13:45:23.000Z</time>
      </trkpt>
      <trkpt lat="49.32487" lon="-1.23946">
        <ele>5.803917</ele>
        <time>2022-08-01T13:45:24.000Z</time>
      </trkpt>
      <trkpt lat="49.32485" lon="-1.23942">
        <ele>5.811592</ele>
        <time>2022-08-01T13:45:25.000Z</time>
      </trkpt>
      <trkpt lat="49.32482" lon="-1.23938">
        <ele>5.818556</ele>
        <time>2022-08-01T13:45:26.000Z</time>
      </trkpt>
      <trkpt lat="49.32479" lon="-1.23934">
        <ele>5.823098</ele>
        <time>2022-08-01T13:45:27.000Z</time>
      </trkpt>
      <trkpt lat="49.32477" lon="-1.23929">
        <ele>5.827488</ele>
        <time>2022-08-01T13:45:28.000Z</time>
      </trkpt>
      <trkpt lat="49.32473" lon="-1.23925">
        <ele>5.832432</ele>
        <time>2022-08-01T13:45:29.000Z</time>
      </trkpt>
      <trkpt lat="49.32471" lon="-1.2392">
        <ele>5.836975</ele>
        <time>2022-08-01T13:45:30.000Z</time>
      </trkpt>
      <trkpt lat="49.32469" lon="-1.23914">
        <ele>5.841577</ele>
        <time>2022-08-01T13:45:31.000Z</time>
      </trkpt>
      <trkpt lat="49.32467" lon="-1.23909">
        <ele>5.846368</ele>
        <time>2022-08-01T13:45:32.000Z</time>
      </trkpt>
      <trkpt lat="49.32465" lon="-1.23903">
        <ele>5.851109</ele>
        <time>2022-08-01T13:45:33.000Z</time>
      </trkpt>
      <trkpt lat="49.32463" lon="-1.23898">
        <ele>5.855861</ele>
        <time>2022-08-01T13:45:34.000Z</time>
      </trkpt>
      <trkpt lat="49.32461" lon="-1.23892">
        <ele>5.86068</ele>
        <time>2022-08-01T13:45:35.000Z</time>
      </trkpt>
      <trkpt lat="49.32459" lon="-1.23886">
        <ele>5.865566</ele>
        <time>2022-08-01T13:45:36.000Z</time>
      </trkpt>
      <trkpt lat="49.32457" lon="-1.2388">
        <ele>5.870379</ele>
        <time>2022-08-01T13:45:37.000Z</time>
      </trkpt>
      <trkpt lat="49.32456" lon="-1.23874">
        <ele>5.875054</ele>
        <time>2022-08-01T13:45:38.000Z</time>
      </trkpt>
      <trkpt lat="49.32454" lon="-1.23868">
        <ele>5.879748</ele>
        <time>2022-08-01T13:45:39.000Z</time>
      </trkpt>
      <trkpt lat="49.32453" lon="-1.23862">
        <ele>5.884231</ele>
        <time>2022-08-01T13:45:40.000Z</time>
      </trkpt>
      <trkpt lat="49.32452" lon="-1.23856">
        <ele>5.888802</ele>
        <time>2022-08-01T13:45:41.000Z</time>
      </trkpt>
      <trkpt lat="49.32451" lon="-1.2385">
        <ele>5.893615</ele>
        <time>2022-08-01T13:45:42.000Z</time>
      </trkpt>
      <trkpt lat="49.32449" lon="-1.23845">
        <ele>5.898028</ele>
        <time>2022-08-01T13:45:43.000Z</time>
      </trkpt>
      <trkpt lat="49.32447" lon="-1.23839">
        <ele>5.902817</ele>
        <time>2022-08-01T13:45:44.000Z</time>
      </trkpt>
      <trkpt lat="49.32445" lon="-1.23835">
        <ele>5.907173</ele>
        <time>2022-08-01T13:45:45.000Z</time>
      </trkpt>
      <trkpt lat="49.32441" lon="-1.2383">
        <ele>5.91228</ele>
        <time>2022-08-01T13:45:46.000Z</time>
      </trkpt>
      <trkpt lat="49.32439" lon="-1.23827">
        <ele>5.916077</ele>
        <time>2022-08-01T13:45:47.000Z</time>
      </trkpt>
      <trkpt lat="49.32435" lon="-1.23824">
        <ele>5.920573</ele>
        <time>2022-08-01T13:45:48.000Z</time>
      </trkpt>
      <trkpt lat="49.32431" lon="-1.23822">
        <ele>5.925253</ele>
        <time>2022-08-01T13:45:49.000Z</time>
      </trkpt>
      <trkpt lat="49.32428" lon="-1.2382">
        <ele>5.929833</ele>
        <time>2022-08-01T13:45:50.000Z</time>
      </trkpt>
      <trkpt lat="49.32424" lon="-1.2382">
        <ele>5.934177</ele>
        <time>2022-08-01T13:45:51.000Z</time>
      </trkpt>
      <trkpt lat="49.3242" lon="-1.2382">
        <ele>5.938619</ele>
        <time>2022-08-01T13:45:52.000Z</time>
      </trkpt>
      <trkpt lat="49.32416" lon="-1.2382">
        <ele>5.94295</ele>
        <time>2022-08-01T13:45:53.000Z</time>
      </trkpt>
      <trkpt lat="49.32413" lon="-1.2382">
        <ele>5.946602</ele>
        <time>2022-08-01T13:45:54.000Z</time>
      </trkpt>
      <trkpt lat="49.32409" lon="-1.23819">
        <ele>5.950599</ele>
        <time>2022-08-01T13:45:55.000Z</time>
      </trkpt>
      <trkpt lat="49.32406" lon="-1.23819">
        <ele>5.954587</ele>
        <time>2022-08-01T13:45:56.000Z</time>
      </trkpt>
      <trkpt lat="49.32402" lon="-1.23819">
        <ele>5.959029</ele>
        <time>2022-08-01T13:45:57.000Z</time>
      </trkpt>
      <trkpt lat="49.32399" lon="-1.23819">
        <ele>5.962674</ele>
        <time>2022-08-01T13:45:58.000Z</time>
      </trkpt>
      <trkpt lat="49.32395" lon="-1.23819">
        <ele>5.966661</ele>
        <time>2022-08-01T13:45:59.000Z</time>
      </trkpt>
      <trkpt lat="49.32391" lon="-1.23819">
        <ele>5.971005</ele>
        <time>2022-08-01T13:46:00.000Z</time>
      </trkpt>
      <trkpt lat="49.32388" lon="-1.23819">
        <ele>5.975111</ele>
        <time>2022-08-01T13:46:01.000Z</time>
      </trkpt>
      <trkpt lat="49.32385" lon="-1.23818">
        <ele>5.978759</ele>
        <time>2022-08-01T13:46:02.000Z</time>
      </trkpt>
      <trkpt lat="49.32381" lon="-1.23818">
        <ele>5.983088</ele>
        <time>2022-08-01T13:46:03.000Z</time>
      </trkpt>
      <trkpt lat="49.32377" lon="-1.23818">
        <ele>5.987086</ele>
        <time>2022-08-01T13:46:04.000Z</time>
      </trkpt>
      <trkpt lat="49.32373" lon="-1.23818">
        <ele>5.99187</ele>
        <time>2022-08-01T13:46:05.000Z</time>
      </trkpt>
      <trkpt lat="49.32369" lon="-1.23817">
        <ele>5.996209</ele>
        <time>2022-08-01T13:46:06.000Z</time>
      </trkpt>
      <trkpt lat="49.32366" lon="-1.23817">
        <ele>6.000196</ele>
        <time>2022-08-01T13:46:07.000Z</time>
      </trkpt>
      <trkpt lat="49.32361" lon="-1.23817">
        <ele>6.00533</ele>
        <time>2022-08-01T13:46:08.000Z</time>
      </trkpt>
      <trkpt lat="49.32357" lon="-1.23817">
        <ele>6.010115</ele>
        <time>2022-08-01T13:46:09.000Z</time>
      </trkpt>
      <trkpt lat="49.32353" lon="-1.23816">
        <ele>6.014799</ele>
        <time>2022-08-01T13:46:10.000Z</time>
      </trkpt>
      <trkpt lat="49.32349" lon="-1.23815">
        <ele>6.019968</ele>
        <time>2022-08-01T13:46:11.000Z</time>
      </trkpt>
      <trkpt lat="49.32344" lon="-1.23815">
        <ele>6.016239</ele>
        <time>2022-08-01T13:46:12.000Z</time>
      </trkpt>
      <trkpt lat="49.32341" lon="-1.23814">
        <ele>6.005169</ele>
        <time>2022-08-01T13:46:13.000Z</time>
      </trkpt>
      <trkpt lat="49.32336" lon="-1.23814">
        <ele>5.992954</ele>
        <time>2022-08-01T13:46:14.000Z</time>
      </trkpt>
      <trkpt lat="49.32332" lon="-1.23814">
        <ele>5.98104</ele>
        <time>2022-08-01T13:46:15.000Z</time>
      </trkpt>
      <trkpt lat="49.32328" lon="-1.23813">
        <ele>5.969642</ele>
        <time>2022-08-01T13:46:16.000Z</time>
      </trkpt>
      <trkpt lat="49.32324" lon="-1.23813">
        <ele>5.957728</ele>
        <time>2022-08-01T13:46:17.000Z</time>
      </trkpt>
      <trkpt lat="49.3232" lon="-1.23812">
        <ele>5.946368</ele>
        <time>2022-08-01T13:46:18.000Z</time>
      </trkpt>
      <trkpt lat="49.32316" lon="-1.23812">
        <ele>5.93443</ele>
        <time>2022-08-01T13:46:19.000Z</time>
      </trkpt>
      <trkpt lat="49.32312" lon="-1.23811">
        <ele>5.92307</ele>
        <time>2022-08-01T13:46:20.000Z</time>
      </trkpt>
      <trkpt lat="49.32309" lon="-1.2381">
        <ele>5.911961</ele>
        <time>2022-08-01T13:46:21.000Z</time>
      </trkpt>
      <trkpt lat="49.32305" lon="-1.2381">
        <ele>5.900602</ele>
        <time>2022-08-01T13:46:22.000Z</time>
      </trkpt>
      <trkpt lat="49.32301" lon="-1.23809">
        <ele>5.888605</ele>
        <time>2022-08-01T13:46:23.000Z</time>
      </trkpt>
      <trkpt lat="49.32297" lon="-1.23808">
        <ele>5.877128</ele>
        <time>2022-08-01T13:46:24.000Z</time>
      </trkpt>
      <trkpt lat="49.32293" lon="-1.23807">
        <ele>5.867717</ele>
        <time>2022-08-01T13:46:25.000Z</time>
      </trkpt>
      <trkpt lat="49.3229" lon="-1.23807">
        <ele>5.856646</ele>
        <time>2022-08-01T13:46:26.000Z</time>
      </trkpt>
      <trkpt lat="49.32285" lon="-1.23806">
        <ele>5.844384</ele>
        <time>2022-08-01T13:46:27.000Z</time>
      </trkpt>
      <trkpt lat="49.32282" lon="-1.23806">
        <ele>5.834181</ele>
        <time>2022-08-01T13:46:28.000Z</time>
      </trkpt>
      <trkpt lat="49.32278" lon="-1.23805">
        <ele>5.82311</ele>
        <time>2022-08-01T13:46:29.000Z</time>
      </trkpt>
      <trkpt lat="49.32274" lon="-1.23805">
        <ele>5.81175</ele>
        <time>2022-08-01T13:46:30.000Z</time>
      </trkpt>
      <trkpt lat="49.3227" lon="-1.23805">
        <ele>5.80072</ele>
        <time>2022-08-01T13:46:31.000Z</time>
      </trkpt>
      <trkpt lat="49.32266" lon="-1.23804">
        <ele>5.788516</ele>
        <time>2022-08-01T13:46:32.000Z</time>
      </trkpt>
      <trkpt lat="49.32263" lon="-1.23804">
        <ele>5.778357</ele>
        <time>2022-08-01T13:46:33.000Z</time>
      </trkpt>
      <trkpt lat="49.32259" lon="-1.23804">
        <ele>5.767321</ele>
        <time>2022-08-01T13:46:34.000Z</time>
      </trkpt>
      <trkpt lat="49.32255" lon="-1.23804">
        <ele>5.755986</ele>
        <time>2022-08-01T13:46:35.000Z</time>
      </trkpt>
      <trkpt lat="49.32252" lon="-1.23804">
        <ele>5.74669</ele>
        <time>2022-08-01T13:46:36.000Z</time>
      </trkpt>
      <trkpt lat="49.32249" lon="-1.23804">
        <ele>5.737394</ele>
        <time>2022-08-01T13:46:37.000Z</time>
      </trkpt>
      <trkpt lat="49.32245" lon="-1.23804">
        <ele>5.727191</ele>
        <time>2022-08-01T13:46:38.000Z</time>
      </trkpt>
      <trkpt lat="49.32242" lon="-1.23805">
        <ele>5.718697</ele>
        <time>2022-08-01T13:46:39.000Z</time>
      </trkpt>
      <trkpt lat="49.3224" lon="-1.23806">
        <ele>5.711321</ele>
        <time>2022-08-01T13:46:40.000Z</time>
      </trkpt>
      <trkpt lat="49.32238" lon="-1.23805">
        <ele>5.705649</ele>
        <time>2022-08-01T13:46:41.000Z</time>
      </trkpt>
      <trkpt lat="49.32236" lon="-1.23803">
        <ele>5.700105</ele>
        <time>2022-08-01T13:46:42.000Z</time>
      </trkpt>
      <trkpt lat="49.32235" lon="-1.23801">
        <ele>5.694761</ele>
        <time>2022-08-01T13:46:43.000Z</time>
      </trkpt>
      <trkpt lat="49.32234" lon="-1.23799">
        <ele>5.689372</ele>
        <time>2022-08-01T13:46:44.000Z</time>
      </trkpt>
      <trkpt lat="49.32233" lon="-1.23797">
        <ele>5.683613</ele>
        <time>2022-08-01T13:46:45.000Z</time>
      </trkpt>
      <trkpt lat="49.32231" lon="-1.23793">
        <ele>5.674249</ele>
        <time>2022-08-01T13:46:47.000Z</time>
      </trkpt>
      <trkpt lat="49.32229" lon="-1.2379">
        <ele>5.667345</ele>
        <time>2022-08-01T13:46:49.000Z</time>
      </trkpt>
      <trkpt lat="49.32232" lon="-1.23769">
        <ele>5.627647</ele>
        <time>2022-08-01T13:56:05.000Z</time>
      </trkpt>
      <trkpt lat="49.32231" lon="-1.23764">
        <ele>5.617026</ele>
        <time>2022-08-01T13:56:06.000Z</time>
      </trkpt>
      <trkpt lat="49.3223" lon="-1.23759">
        <ele>5.606849</ele>
        <time>2022-08-01T13:56:07.000Z</time>
      </trkpt>
      <trkpt lat="49.32229" lon="-1.23754">
        <ele>5.597315</ele>
        <time>2022-08-01T13:56:08.000Z</time>
      </trkpt>
      <trkpt lat="49.32229" lon="-1.23749">
        <ele>5.588757</ele>
        <time>2022-08-01T13:56:09.000Z</time>
      </trkpt>
      <trkpt lat="49.32229" lon="-1.23745">
        <ele>5.581139</ele>
        <time>2022-08-01T13:56:10.000Z</time>
      </trkpt>
      <trkpt lat="49.32229" lon="-1.23741">
        <ele>5.573571</ele>
        <time>2022-08-01T13:56:11.000Z</time>
      </trkpt>
      <trkpt lat="49.32228" lon="-1.23737">
        <ele>5.565918</ele>
        <time>2022-08-01T13:56:12.000Z</time>
      </trkpt>
      <trkpt lat="49.32227" lon="-1.23732">
        <ele>5.556104</ele>
        <time>2022-08-01T13:56:14.000Z</time>
      </trkpt>
      <trkpt lat="49.32226" lon="-1.23728">
        <ele>5.547466</ele>
        <time>2022-08-01T13:56:16.000Z</time>
      </trkpt>
      <trkpt lat="49.32225" lon="-1.23725">
        <ele>5.541729</ele>
        <time>2022-08-01T13:56:17.000Z</time>
      </trkpt>
      <trkpt lat="49.32225" lon="-1.23723">
        <ele>5.536306</ele>
        <time>2022-08-01T13:56:18.000Z</time>
      </trkpt>
      <trkpt lat="49.32224" lon="-1.2372">
        <ele>5.530729</ele>
        <time>2022-08-01T13:56:19.000Z</time>
      </trkpt>
      <trkpt lat="49.32224" lon="-1.23717">
        <ele>5.524675</ele>
        <time>2022-08-01T13:56:20.000Z</time>
      </trkpt>
      <trkpt lat="49.32223" lon="-1.23714">
        <ele>5.518738</ele>
        <time>2022-08-01T13:56:21.000Z</time>
      </trkpt>
      <trkpt lat="49.32222" lon="-1.23711">
        <ele>5.512698</ele>
        <time>2022-08-01T13:56:22.000Z</time>
      </trkpt>
      <trkpt lat="49.32222" lon="-1.23708">
        <ele>5.506941</ele>
        <time>2022-08-01T13:56:23.000Z</time>
      </trkpt>
      <trkpt lat="49.32221" lon="-1.23705">
        <ele>5.500901</ele>
        <time>2022-08-01T13:56:24.000Z</time>
      </trkpt>
      <trkpt lat="49.32219" lon="-1.23703">
        <ele>5.500144</ele>
        <time>2022-08-01T13:56:25.000Z</time>
      </trkpt>
      <trkpt lat="49.32217" lon="-1.23698">
        <ele>5.499891</ele>
        <time>2022-08-01T13:56:27.000Z</time>
      </trkpt>
      <trkpt lat="49.32215" lon="-1.23693">
        <ele>5.499614</ele>
        <time>2022-08-01T13:56:29.000Z</time>
      </trkpt>
      <trkpt lat="49.32214" lon="-1.2369">
        <ele>5.499472</ele>
        <time>2022-08-01T13:56:30.000Z</time>
      </trkpt>
      <trkpt lat="49.32213" lon="-1.23687">
        <ele>5.499294</ele>
        <time>2022-08-01T13:56:31.000Z</time>
      </trkpt>
      <trkpt lat="49.32211" lon="-1.23684">
        <ele>5.499124</ele>
        <time>2022-08-01T13:56:32.000Z</time>
      </trkpt>
      <trkpt lat="49.32209" lon="-1.23682">
        <ele>5.498948</ele>
        <time>2022-08-01T13:56:33.000Z</time>
      </trkpt>
      <trkpt lat="49.32208" lon="-1.23679">
        <ele>5.498794</ele>
        <time>2022-08-01T13:56:34.000Z</time>
      </trkpt>
      <trkpt lat="49.32206" lon="-1.23676">
        <ele>5.498615</ele>
        <time>2022-08-01T13:56:35.000Z</time>
      </trkpt>
      <trkpt lat="49.32204" lon="-1.23674">
        <ele>5.498434</ele>
        <time>2022-08-01T13:56:36.000Z</time>
      </trkpt>
      <trkpt lat="49.32202" lon="-1.23671">
        <ele>5.498243</ele>
        <time>2022-08-01T13:56:37.000Z</time>
      </trkpt>
      <trkpt lat="49.322" lon="-1.23668">
        <ele>5.498068</ele>
        <time>2022-08-01T13:56:38.000Z</time>
      </trkpt>
      <trkpt lat="49.32198" lon="-1.23665">
        <ele>5.497879</ele>
        <time>2022-08-01T13:56:39.000Z</time>
      </trkpt>
      <trkpt lat="49.32197" lon="-1.23663">
        <ele>5.497694</ele>
        <time>2022-08-01T13:56:40.000Z</time>
      </trkpt>
      <trkpt lat="49.32195" lon="-1.2366">
        <ele>5.497512</ele>
        <time>2022-08-01T13:56:41.000Z</time>
      </trkpt>
      <trkpt lat="49.32193" lon="-1.23657">
        <ele>5.497335</ele>
        <time>2022-08-01T13:56:42.000Z</time>
      </trkpt>
      <trkpt lat="49.32191" lon="-1.23654">
        <ele>5.497137</ele>
        <time>2022-08-01T13:56:43.000Z</time>
      </trkpt>
      <trkpt lat="49.32189" lon="-1.23652">
        <ele>5.496966</ele>
        <time>2022-08-01T13:56:44.000Z</time>
      </trkpt>
      <trkpt lat="49.32187" lon="-1.23649">
        <ele>5.496781</ele>
        <time>2022-08-01T13:56:45.000Z</time>
      </trkpt>
      <trkpt lat="49.32185" lon="-1.23646">
        <ele>5.496568</ele>
        <time>2022-08-01T13:56:46.000Z</time>
      </trkpt>
      <trkpt lat="49.32183" lon="-1.23642">
        <ele>5.496365</ele>
        <time>2022-08-01T13:56:47.000Z</time>
      </trkpt>
      <trkpt lat="49.32181" lon="-1.23639">
        <ele>5.496164</ele>
        <time>2022-08-01T13:56:48.000Z</time>
      </trkpt>
      <trkpt lat="49.32179" lon="-1.23636">
        <ele>5.495957</ele>
        <time>2022-08-01T13:56:49.000Z</time>
      </trkpt>
      <trkpt lat="49.32177" lon="-1.23633">
        <ele>5.495739</ele>
        <time>2022-08-01T13:56:50.000Z</time>
      </trkpt>
      <trkpt lat="49.32174" lon="-1.2363">
        <ele>5.495523</ele>
        <time>2022-08-01T13:56:51.000Z</time>
      </trkpt>
      <trkpt lat="49.32172" lon="-1.23626">
        <ele>5.495307</ele>
        <time>2022-08-01T13:56:52.000Z</time>
      </trkpt>
      <trkpt lat="49.3217" lon="-1.23623">
        <ele>5.495067</ele>
        <time>2022-08-01T13:56:53.000Z</time>
      </trkpt>
      <trkpt lat="49.32168" lon="-1.2362">
        <ele>5.494872</ele>
        <time>2022-08-01T13:56:54.000Z</time>
      </trkpt>
      <trkpt lat="49.32165" lon="-1.23617">
        <ele>5.494654</ele>
        <time>2022-08-01T13:56:55.000Z</time>
      </trkpt>
      <trkpt lat="49.32164" lon="-1.23613">
        <ele>5.494452</ele>
        <time>2022-08-01T13:56:56.000Z</time>
      </trkpt>
      <trkpt lat="49.32162" lon="-1.2361">
        <ele>5.494244</ele>
        <time>2022-08-01T13:56:57.000Z</time>
      </trkpt>
      <trkpt lat="49.3216" lon="-1.23607">
        <ele>5.494046</ele>
        <time>2022-08-01T13:56:58.000Z</time>
      </trkpt>
      <trkpt lat="49.32157" lon="-1.23604">
        <ele>5.493834</ele>
        <time>2022-08-01T13:56:59.000Z</time>
      </trkpt>
      <trkpt lat="49.32155" lon="-1.23601">
        <ele>5.493633</ele>
        <time>2022-08-01T13:57:00.000Z</time>
      </trkpt>
      <trkpt lat="49.32153" lon="-1.23598">
        <ele>5.493435</ele>
        <time>2022-08-01T13:57:01.000Z</time>
      </trkpt>
      <trkpt lat="49.32151" lon="-1.23595">
        <ele>5.493238</ele>
        <time>2022-08-01T13:57:02.000Z</time>
      </trkpt>
      <trkpt lat="49.32149" lon="-1.23592">
        <ele>5.493071</ele>
        <time>2022-08-01T13:57:03.000Z</time>
      </trkpt>
      <trkpt lat="49.32147" lon="-1.2359">
        <ele>5.492854</ele>
        <time>2022-08-01T13:57:04.000Z</time>
      </trkpt>
      <trkpt lat="49.32145" lon="-1.23587">
        <ele>5.492664</ele>
        <time>2022-08-01T13:57:05.000Z</time>
      </trkpt>
      <trkpt lat="49.32142" lon="-1.23585">
        <ele>5.492477</ele>
        <time>2022-08-01T13:57:06.000Z</time>
      </trkpt>
      <trkpt lat="49.3214" lon="-1.23583">
        <ele>5.492243</ele>
        <time>2022-08-01T13:57:07.000Z</time>
      </trkpt>
      <trkpt lat="49.32137" lon="-1.23581">
        <ele>5.492068</ele>
        <time>2022-08-01T13:57:08.000Z</time>
      </trkpt>
      <trkpt lat="49.32135" lon="-1.23579">
        <ele>5.491889</ele>
        <time>2022-08-01T13:57:09.000Z</time>
      </trkpt>
      <trkpt lat="49.32133" lon="-1.23578">
        <ele>5.491709</ele>
        <time>2022-08-01T13:57:10.000Z</time>
      </trkpt>
      <trkpt lat="49.3213" lon="-1.23578">
        <ele>5.491504</ele>
        <time>2022-08-01T13:57:11.000Z</time>
      </trkpt>
      <trkpt lat="49.32127" lon="-1.23578">
        <ele>5.491321</ele>
        <time>2022-08-01T13:57:12.000Z</time>
      </trkpt>
      <trkpt lat="49.32125" lon="-1.23579">
        <ele>5.491183</ele>
        <time>2022-08-01T13:57:13.000Z</time>
      </trkpt>
      <trkpt lat="49.32123" lon="-1.2358">
        <ele>5.491043</ele>
        <time>2022-08-01T13:57:14.000Z</time>
      </trkpt>
      <trkpt lat="49.32121" lon="-1.23581">
        <ele>5.490902</ele>
        <time>2022-08-01T13:57:15.000Z</time>
      </trkpt>
      <trkpt lat="49.32119" lon="-1.23581">
        <ele>5.490766</ele>
        <time>2022-08-01T13:57:16.000Z</time>
      </trkpt>
      <trkpt lat="49.32116" lon="-1.23583">
        <ele>5.490528</ele>
        <time>2022-08-01T13:57:18.000Z</time>
      </trkpt>
      <trkpt lat="49.32115" lon="-1.23584">
        <ele>5.490401</ele>
        <time>2022-08-01T13:57:19.000Z</time>
      </trkpt>
      <trkpt lat="49.32113" lon="-1.23586">
        <ele>5.490235</ele>
        <time>2022-08-01T13:57:20.000Z</time>
      </trkpt>
      <trkpt lat="49.32111" lon="-1.23588">
        <ele>5.490083</ele>
        <time>2022-08-01T13:57:21.000Z</time>
      </trkpt>
      <trkpt lat="49.32109" lon="-1.2359">
        <ele>5.489924</ele>
        <time>2022-08-01T13:57:22.000Z</time>
      </trkpt>
      <trkpt lat="49.32106" lon="-1.23592">
        <ele>5.489704</ele>
        <time>2022-08-01T13:57:23.000Z</time>
      </trkpt>
      <trkpt lat="49.32104" lon="-1.23593">
        <ele>5.489535</ele>
        <time>2022-08-01T13:57:24.000Z</time>
      </trkpt>
      <trkpt lat="49.32101" lon="-1.23595">
        <ele>5.48934</ele>
        <time>2022-08-01T13:57:25.000Z</time>
      </trkpt>
      <trkpt lat="49.32099" lon="-1.23596">
        <ele>5.489176</ele>
        <time>2022-08-01T13:57:26.000Z</time>
      </trkpt>
      <trkpt lat="49.32096" lon="-1.23597">
        <ele>5.488966</ele>
        <time>2022-08-01T13:57:27.000Z</time>
      </trkpt>
      <trkpt lat="49.32094" lon="-1.23598">
        <ele>5.488806</ele>
        <time>2022-08-01T13:57:28.000Z</time>
      </trkpt>
      <trkpt lat="49.32091" lon="-1.23599">
        <ele>5.488599</ele>
        <time>2022-08-01T13:57:29.000Z</time>
      </trkpt>
      <trkpt lat="49.32088" lon="-1.236">
        <ele>5.48839</ele>
        <time>2022-08-01T13:57:30.000Z</time>
      </trkpt>
      <trkpt lat="49.32085" lon="-1.23601">
        <ele>5.4882</ele>
        <time>2022-08-01T13:57:31.000Z</time>
      </trkpt>
      <trkpt lat="49.32082" lon="-1.23602">
        <ele>5.487969</ele>
        <time>2022-08-01T13:57:32.000Z</time>
      </trkpt>
      <trkpt lat="49.3208" lon="-1.23603">
        <ele>5.487785</ele>
        <time>2022-08-01T13:57:33.000Z</time>
      </trkpt>
      <trkpt lat="49.32077" lon="-1.23604">
        <ele>5.487169</ele>
        <time>2022-08-01T13:57:34.000Z</time>
      </trkpt>
      <trkpt lat="49.32074" lon="-1.23605">
        <ele>5.485445</ele>
        <time>2022-08-01T13:57:35.000Z</time>
      </trkpt>
      <trkpt lat="49.32072" lon="-1.23606">
        <ele>5.483946</ele>
        <time>2022-08-01T13:57:36.000Z</time>
      </trkpt>
      <trkpt lat="49.32069" lon="-1.23607">
        <ele>5.482371</ele>
        <time>2022-08-01T13:57:37.000Z</time>
      </trkpt>
      <trkpt lat="49.32066" lon="-1.23608">
        <ele>5.480469</ele>
        <time>2022-08-01T13:57:38.000Z</time>
      </trkpt>
      <trkpt lat="49.32063" lon="-1.23609">
        <ele>5.47897</ele>
        <time>2022-08-01T13:57:39.000Z</time>
      </trkpt>
      <trkpt lat="49.3206" lon="-1.23611">
        <ele>5.477059</ele>
        <time>2022-08-01T13:57:40.000Z</time>
      </trkpt>
      <trkpt lat="49.32058" lon="-1.23612">
        <ele>5.475504</ele>
        <time>2022-08-01T13:57:41.000Z</time>
      </trkpt>
      <trkpt lat="49.32055" lon="-1.23613">
        <ele>5.47395</ele>
        <time>2022-08-01T13:57:42.000Z</time>
      </trkpt>
      <trkpt lat="49.32052" lon="-1.23614">
        <ele>5.472039</ele>
        <time>2022-08-01T13:57:43.000Z</time>
      </trkpt>
      <trkpt lat="49.32049" lon="-1.23615">
        <ele>5.470137</ele>
        <time>2022-08-01T13:57:44.000Z</time>
      </trkpt>
      <trkpt lat="49.32046" lon="-1.23616">
        <ele>5.468593</ele>
        <time>2022-08-01T13:57:45.000Z</time>
      </trkpt>
      <trkpt lat="49.32043" lon="-1.23618">
        <ele>5.466504</ele>
        <time>2022-08-01T13:57:46.000Z</time>
      </trkpt>
      <trkpt lat="49.3204" lon="-1.23619">
        <ele>5.464864</ele>
        <time>2022-08-01T13:57:47.000Z</time>
      </trkpt>
      <trkpt lat="49.32037" lon="-1.23621">
        <ele>5.46305</ele>
        <time>2022-08-01T13:57:48.000Z</time>
      </trkpt>
      <trkpt lat="49.32034" lon="-1.23623">
        <ele>5.461156</ele>
        <time>2022-08-01T13:57:49.000Z</time>
      </trkpt>
      <trkpt lat="49.32031" lon="-1.23626">
        <ele>5.459238</ele>
        <time>2022-08-01T13:57:50.000Z</time>
      </trkpt>
      <trkpt lat="49.32029" lon="-1.2363">
        <ele>5.457097</ele>
        <time>2022-08-01T13:57:51.000Z</time>
      </trkpt>
      <trkpt lat="49.32026" lon="-1.23633">
        <ele>5.455091</ele>
        <time>2022-08-01T13:57:52.000Z</time>
      </trkpt>
      <trkpt lat="49.32023" lon="-1.23637">
        <ele>5.453076</ele>
        <time>2022-08-01T13:57:53.000Z</time>
      </trkpt>
      <trkpt lat="49.32021" lon="-1.23641">
        <ele>5.45117</ele>
        <time>2022-08-01T13:57:54.000Z</time>
      </trkpt>
      <trkpt lat="49.3202" lon="-1.23645">
        <ele>5.449298</ele>
        <time>2022-08-01T13:57:55.000Z</time>
      </trkpt>
      <trkpt lat="49.32018" lon="-1.23649">
        <ele>5.447327</ele>
        <time>2022-08-01T13:57:56.000Z</time>
      </trkpt>
      <trkpt lat="49.32016" lon="-1.23654">
        <ele>5.445171</ele>
        <time>2022-08-01T13:57:57.000Z</time>
      </trkpt>
      <trkpt lat="49.32015" lon="-1.23659">
        <ele>5.443379</ele>
        <time>2022-08-01T13:57:58.000Z</time>
      </trkpt>
      <trkpt lat="49.32013" lon="-1.23663">
        <ele>5.441518</ele>
        <time>2022-08-01T13:57:59.000Z</time>
      </trkpt>
      <trkpt lat="49.32012" lon="-1.23667">
        <ele>5.439749</ele>
        <time>2022-08-01T13:58:00.000Z</time>
      </trkpt>
      <trkpt lat="49.32011" lon="-1.23672">
        <ele>5.437811</ele>
        <time>2022-08-01T13:58:01.000Z</time>
      </trkpt>
      <trkpt lat="49.32009" lon="-1.23676">
        <ele>5.436053</ele>
        <time>2022-08-01T13:58:02.000Z</time>
      </trkpt>
      <trkpt lat="49.32008" lon="-1.2368">
        <ele>5.434213</ele>
        <time>2022-08-01T13:58:03.000Z</time>
      </trkpt>
      <trkpt lat="49.32005" lon="-1.23684">
        <ele>5.432334</ele>
        <time>2022-08-01T13:58:04.000Z</time>
      </trkpt>
      <trkpt lat="49.32003" lon="-1.23687">
        <ele>5.430371</ele>
        <time>2022-08-01T13:58:05.000Z</time>
      </trkpt>
      <trkpt lat="49.32" lon="-1.2369">
        <ele>5.428461</ele>
        <time>2022-08-01T13:58:06.000Z</time>
      </trkpt>
      <trkpt lat="49.31998" lon="-1.23693">
        <ele>5.426687</ele>
        <time>2022-08-01T13:58:07.000Z</time>
      </trkpt>
      <trkpt lat="49.31995" lon="-1.23695">
        <ele>5.424653</ele>
        <time>2022-08-01T13:58:08.000Z</time>
      </trkpt>
      <trkpt lat="49.31992" lon="-1.23697">
        <ele>5.422866</ele>
        <time>2022-08-01T13:58:09.000Z</time>
      </trkpt>
      <trkpt lat="49.31989" lon="-1.23698">
        <ele>5.420955</ele>
        <time>2022-08-01T13:58:10.000Z</time>
      </trkpt>
      <trkpt lat="49.31985" lon="-1.23699">
        <ele>5.418661</ele>
        <time>2022-08-01T13:58:11.000Z</time>
      </trkpt>
      <trkpt lat="49.31982" lon="-1.237">
        <ele>5.416993</ele>
        <time>2022-08-01T13:58:12.000Z</time>
      </trkpt>
      <trkpt lat="49.31978" lon="-1.237">
        <ele>5.414902</ele>
        <time>2022-08-01T13:58:13.000Z</time>
      </trkpt>
      <trkpt lat="49.31975" lon="-1.237">
        <ele>5.412872</ele>
        <time>2022-08-01T13:58:14.000Z</time>
      </trkpt>
      <trkpt lat="49.31971" lon="-1.237">
        <ele>5.410842</ele>
        <time>2022-08-01T13:58:15.000Z</time>
      </trkpt>
      <trkpt lat="49.31968" lon="-1.237">
        <ele>5.408811</ele>
        <time>2022-08-01T13:58:16.000Z</time>
      </trkpt>
      <trkpt lat="49.31965" lon="-1.237">
        <ele>5.406955</ele>
        <time>2022-08-01T13:58:17.000Z</time>
      </trkpt>
      <trkpt lat="49.31961" lon="-1.237">
        <ele>5.404919</ele>
        <time>2022-08-01T13:58:18.000Z</time>
      </trkpt>
      <trkpt lat="49.31958" lon="-1.23699">
        <ele>5.403053</ele>
        <time>2022-08-01T13:58:19.000Z</time>
      </trkpt>
      <trkpt lat="49.31954" lon="-1.23699">
        <ele>5.400956</ele>
        <time>2022-08-01T13:58:20.000Z</time>
      </trkpt>
      <trkpt lat="49.31951" lon="-1.23698">
        <ele>5.398917</ele>
        <time>2022-08-01T13:58:21.000Z</time>
      </trkpt>
      <trkpt lat="49.31947" lon="-1.23698">
        <ele>5.396887</ele>
        <time>2022-08-01T13:58:22.000Z</time>
      </trkpt>
      <trkpt lat="49.31943" lon="-1.23698">
        <ele>5.39468</ele>
        <time>2022-08-01T13:58:23.000Z</time>
      </trkpt>
      <trkpt lat="49.31941" lon="-1.23698">
        <ele>5.392996</ele>
        <time>2022-08-01T13:58:24.000Z</time>
      </trkpt>
      <trkpt lat="49.31937" lon="-1.23698">
        <ele>5.390732</ele>
        <time>2022-08-01T13:58:25.000Z</time>
      </trkpt>
      <trkpt lat="49.31933" lon="-1.23699">
        <ele>5.388867</ele>
        <time>2022-08-01T13:58:26.000Z</time>
      </trkpt>
      <trkpt lat="49.3193" lon="-1.23699">
        <ele>5.387001</ele>
        <time>2022-08-01T13:58:27.000Z</time>
      </trkpt>
      <trkpt lat="49.31927" lon="-1.237">
        <ele>5.384953</ele>
        <time>2022-08-01T13:58:28.000Z</time>
      </trkpt>
      <trkpt lat="49.31923" lon="-1.23701">
        <ele>5.383221</ele>
        <time>2022-08-01T13:58:29.000Z</time>
      </trkpt>
      <trkpt lat="49.3192" lon="-1.23702">
        <ele>5.382817</ele>
        <time>2022-08-01T13:58:30.000Z</time>
      </trkpt>
      <trkpt lat="49.31917" lon="-1.23703">
        <ele>5.382364</ele>
        <time>2022-08-01T13:58:31.000Z</time>
      </trkpt>
      <trkpt lat="49.31914" lon="-1.23705">
        <ele>5.381944</ele>
        <time>2022-08-01T13:58:32.000Z</time>
      </trkpt>
      <trkpt lat="49.31911" lon="-1.23707">
        <ele>5.381483</ele>
        <time>2022-08-01T13:58:33.000Z</time>
      </trkpt>
      <trkpt lat="49.31909" lon="-1.23709">
        <ele>5.381102</ele>
        <time>2022-08-01T13:58:34.000Z</time>
      </trkpt>
      <trkpt lat="49.31906" lon="-1.23711">
        <ele>5.380748</ele>
        <time>2022-08-01T13:58:35.000Z</time>
      </trkpt>
      <trkpt lat="49.31903" lon="-1.23713">
        <ele>5.380338</ele>
        <time>2022-08-01T13:58:36.000Z</time>
      </trkpt>
      <trkpt lat="49.31901" lon="-1.23715">
        <ele>5.37998</ele>
        <time>2022-08-01T13:58:37.000Z</time>
      </trkpt>
      <trkpt lat="49.31899" lon="-1.23717">
        <ele>5.37962</ele>
        <time>2022-08-01T13:58:38.000Z</time>
      </trkpt>
      <trkpt lat="49.31897" lon="-1.23719">
        <ele>5.379254</ele>
        <time>2022-08-01T13:58:39.000Z</time>
      </trkpt>
      <trkpt lat="49.31894" lon="-1.23721">
        <ele>5.378864</ele>
        <time>2022-08-01T13:58:40.000Z</time>
      </trkpt>
      <trkpt lat="49.31891" lon="-1.23724">
        <ele>5.378422</ele>
        <time>2022-08-01T13:58:41.000Z</time>
      </trkpt>
      <trkpt lat="49.31889" lon="-1.23726">
        <ele>5.378062</ele>
        <time>2022-08-01T13:58:42.000Z</time>
      </trkpt>
      <trkpt lat="49.31887" lon="-1.23728">
        <ele>5.377686</ele>
        <time>2022-08-01T13:58:43.000Z</time>
      </trkpt>
      <trkpt lat="49.31884" lon="-1.23731">
        <ele>5.377291</ele>
        <time>2022-08-01T13:58:44.000Z</time>
      </trkpt>
      <trkpt lat="49.31881" lon="-1.23733">
        <ele>5.376824</ele>
        <time>2022-08-01T13:58:45.000Z</time>
      </trkpt>
      <trkpt lat="49.31878" lon="-1.23734">
        <ele>5.376363</ele>
        <time>2022-08-01T13:58:46.000Z</time>
      </trkpt>
      <trkpt lat="49.31875" lon="-1.23736">
        <ele>5.375952</ele>
        <time>2022-08-01T13:58:47.000Z</time>
      </trkpt>
      <trkpt lat="49.31872" lon="-1.23737">
        <ele>5.375508</ele>
        <time>2022-08-01T13:58:48.000Z</time>
      </trkpt>
      <trkpt lat="49.31869" lon="-1.23738">
        <ele>5.375071</ele>
        <time>2022-08-01T13:58:49.000Z</time>
      </trkpt>
      <trkpt lat="49.31865" lon="-1.23738">
        <ele>5.374634</ele>
        <time>2022-08-01T13:58:50.000Z</time>
      </trkpt>
      <trkpt lat="49.31862" lon="-1.23739">
        <ele>5.374232</ele>
        <time>2022-08-01T13:58:51.000Z</time>
      </trkpt>
      <trkpt lat="49.3186" lon="-1.2374">
        <ele>5.373837</ele>
        <time>2022-08-01T13:58:52.000Z</time>
      </trkpt>
      <trkpt lat="49.31857" lon="-1.23741">
        <ele>5.373492</ele>
        <time>2022-08-01T13:58:53.000Z</time>
      </trkpt>
      <trkpt lat="49.31854" lon="-1.23742">
        <ele>5.37305</ele>
        <time>2022-08-01T13:58:54.000Z</time>
      </trkpt>
      <trkpt lat="49.31851" lon="-1.23742">
        <ele>5.372653</ele>
        <time>2022-08-01T13:58:55.000Z</time>
      </trkpt>
      <trkpt lat="49.31848" lon="-1.23743">
        <ele>5.37226</ele>
        <time>2022-08-01T13:58:56.000Z</time>
      </trkpt>
      <trkpt lat="49.31845" lon="-1.23743">
        <ele>5.371868</ele>
        <time>2022-08-01T13:58:57.000Z</time>
      </trkpt>
      <trkpt lat="49.31843" lon="-1.23743">
        <ele>5.371529</ele>
        <time>2022-08-01T13:58:58.000Z</time>
      </trkpt>
      <trkpt lat="49.31839" lon="-1.23743">
        <ele>5.371092</ele>
        <time>2022-08-01T13:58:59.000Z</time>
      </trkpt>
      <trkpt lat="49.31837" lon="-1.23744">
        <ele>5.370737</ele>
        <time>2022-08-01T13:59:00.000Z</time>
      </trkpt>
      <trkpt lat="49.31834" lon="-1.23744">
        <ele>5.370344</ele>
        <time>2022-08-01T13:59:01.000Z</time>
      </trkpt>
      <trkpt lat="49.31831" lon="-1.23744">
        <ele>5.369952</ele>
        <time>2022-08-01T13:59:02.000Z</time>
      </trkpt>
      <trkpt lat="49.31829" lon="-1.23744">
        <ele>5.369653</ele>
        <time>2022-08-01T13:59:03.000Z</time>
      </trkpt>
      <trkpt lat="49.31826" lon="-1.23743">
        <ele>5.369258</ele>
        <time>2022-08-01T13:59:04.000Z</time>
      </trkpt>
      <trkpt lat="49.31823" lon="-1.23742">
        <ele>5.368909</ele>
        <time>2022-08-01T13:59:05.000Z</time>
      </trkpt>
      <trkpt lat="49.31821" lon="-1.23741">
        <ele>5.368563</ele>
        <time>2022-08-01T13:59:06.000Z</time>
      </trkpt>
      <trkpt lat="49.31819" lon="-1.23738">
        <ele>5.368236</ele>
        <time>2022-08-01T13:59:07.000Z</time>
      </trkpt>
      <trkpt lat="49.31817" lon="-1.23735">
        <ele>5.367844</ele>
        <time>2022-08-01T13:59:08.000Z</time>
      </trkpt>
      <trkpt lat="49.31815" lon="-1.23732">
        <ele>5.367433</ele>
        <time>2022-08-01T13:59:09.000Z</time>
      </trkpt>
      <trkpt lat="49.31813" lon="-1.23728">
        <ele>5.367005</ele>
        <time>2022-08-01T13:59:10.000Z</time>
      </trkpt>
      <trkpt lat="49.31811" lon="-1.23725">
        <ele>5.366596</ele>
        <time>2022-08-01T13:59:11.000Z</time>
      </trkpt>
      <trkpt lat="49.31808" lon="-1.23721">
        <ele>5.366104</ele>
        <time>2022-08-01T13:59:12.000Z</time>
      </trkpt>
      <trkpt lat="49.31806" lon="-1.23717">
        <ele>5.365656</ele>
        <time>2022-08-01T13:59:13.000Z</time>
      </trkpt>
      <trkpt lat="49.31804" lon="-1.23713">
        <ele>5.365234</ele>
        <time>2022-08-01T13:59:14.000Z</time>
      </trkpt>
      <trkpt lat="49.31802" lon="-1.23709">
        <ele>5.364737</ele>
        <time>2022-08-01T13:59:15.000Z</time>
      </trkpt>
      <trkpt lat="49.318" lon="-1.23704">
        <ele>5.364264</ele>
        <time>2022-08-01T13:59:16.000Z</time>
      </trkpt>
      <trkpt lat="49.31798" lon="-1.237">
        <ele>5.363782</ele>
        <time>2022-08-01T13:59:17.000Z</time>
      </trkpt>
      <trkpt lat="49.31796" lon="-1.23695">
        <ele>5.363264</ele>
        <time>2022-08-01T13:59:18.000Z</time>
      </trkpt>
      <trkpt lat="49.31793" lon="-1.23691">
        <ele>5.362756</ele>
        <time>2022-08-01T13:59:19.000Z</time>
      </trkpt>
      <trkpt lat="49.3179" lon="-1.23687">
        <ele>5.362239</ele>
        <time>2022-08-01T13:59:20.000Z</time>
      </trkpt>
      <trkpt lat="49.31788" lon="-1.23682">
        <ele>5.36175</ele>
        <time>2022-08-01T13:59:21.000Z</time>
      </trkpt>
      <trkpt lat="49.31786" lon="-1.23678">
        <ele>5.361246</ele>
        <time>2022-08-01T13:59:22.000Z</time>
      </trkpt>
      <trkpt lat="49.31784" lon="-1.23673">
        <ele>5.360728</ele>
        <time>2022-08-01T13:59:23.000Z</time>
      </trkpt>
      <trkpt lat="49.31781" lon="-1.23669">
        <ele>5.360238</ele>
        <time>2022-08-01T13:59:24.000Z</time>
      </trkpt>
      <trkpt lat="49.3178" lon="-1.23664">
        <ele>5.35975</ele>
        <time>2022-08-01T13:59:25.000Z</time>
      </trkpt>
      <trkpt lat="49.31777" lon="-1.23659">
        <ele>5.35924</ele>
        <time>2022-08-01T13:59:26.000Z</time>
      </trkpt>
      <trkpt lat="49.31775" lon="-1.23655">
        <ele>5.357179</ele>
        <time>2022-08-01T13:59:27.000Z</time>
      </trkpt>
      <trkpt lat="49.31773" lon="-1.2365">
        <ele>5.353699</ele>
        <time>2022-08-01T13:59:28.000Z</time>
      </trkpt>
      <trkpt lat="49.3177" lon="-1.23646">
        <ele>5.350334</ele>
        <time>2022-08-01T13:59:29.000Z</time>
      </trkpt>
      <trkpt lat="49.31768" lon="-1.23641">
        <ele>5.347106</ele>
        <time>2022-08-01T13:59:30.000Z</time>
      </trkpt>
      <trkpt lat="49.31765" lon="-1.23636">
        <ele>5.343689</ele>
        <time>2022-08-01T13:59:31.000Z</time>
      </trkpt>
      <trkpt lat="49.31763" lon="-1.23632">
        <ele>5.340119</ele>
        <time>2022-08-01T13:59:32.000Z</time>
      </trkpt>
      <trkpt lat="49.3176" lon="-1.23627">
        <ele>5.336583</ele>
        <time>2022-08-01T13:59:33.000Z</time>
      </trkpt>
      <trkpt lat="49.31757" lon="-1.23622">
        <ele>5.333002</ele>
        <time>2022-08-01T13:59:34.000Z</time>
      </trkpt>
      <trkpt lat="49.31755" lon="-1.23617">
        <ele>5.329541</ele>
        <time>2022-08-01T13:59:35.000Z</time>
      </trkpt>
      <trkpt lat="49.31753" lon="-1.23612">
        <ele>5.325871</ele>
        <time>2022-08-01T13:59:36.000Z</time>
      </trkpt>
      <trkpt lat="49.3175" lon="-1.23607">
        <ele>5.322164</ele>
        <time>2022-08-01T13:59:37.000Z</time>
      </trkpt>
      <trkpt lat="49.31748" lon="-1.23602">
        <ele>5.318494</ele>
        <time>2022-08-01T13:59:38.000Z</time>
      </trkpt>
      <trkpt lat="49.31745" lon="-1.23597">
        <ele>5.314568</ele>
        <time>2022-08-01T13:59:39.000Z</time>
      </trkpt>
      <trkpt lat="49.31742" lon="-1.23591">
        <ele>5.310866</ele>
        <time>2022-08-01T13:59:40.000Z</time>
      </trkpt>
      <trkpt lat="49.3174" lon="-1.23587">
        <ele>5.307285</ele>
        <time>2022-08-01T13:59:41.000Z</time>
      </trkpt>
      <trkpt lat="49.31737" lon="-1.23582">
        <ele>5.30367</ele>
        <time>2022-08-01T13:59:42.000Z</time>
      </trkpt>
      <trkpt lat="49.31735" lon="-1.23577">
        <ele>5.3</ele>
        <time>2022-08-01T13:59:43.000Z</time>
      </trkpt>
      <trkpt lat="49.31732" lon="-1.23572">
        <ele>5.296384</ele>
        <time>2022-08-01T13:59:44.000Z</time>
      </trkpt>
      <trkpt lat="49.3173" lon="-1.23567">
        <ele>5.292715</ele>
        <time>2022-08-01T13:59:45.000Z</time>
      </trkpt>
      <trkpt lat="49.31727" lon="-1.23562">
        <ele>5.289254</ele>
        <time>2022-08-01T13:59:46.000Z</time>
      </trkpt>
      <trkpt lat="49.31725" lon="-1.23556">
        <ele>5.285283</ele>
        <time>2022-08-01T13:59:47.000Z</time>
      </trkpt>
      <trkpt lat="49.31722" lon="-1.23551">
        <ele>5.281678</ele>
        <time>2022-08-01T13:59:48.000Z</time>
      </trkpt>
      <trkpt lat="49.3172" lon="-1.23546">
        <ele>5.277925</ele>
        <time>2022-08-01T13:59:49.000Z</time>
      </trkpt>
      <trkpt lat="49.31717" lon="-1.2354">
        <ele>5.273737</ele>
        <time>2022-08-01T13:59:50.000Z</time>
      </trkpt>
      <trkpt lat="49.31714" lon="-1.23535">
        <ele>5.270179</ele>
        <time>2022-08-01T13:59:51.000Z</time>
      </trkpt>
      <trkpt lat="49.31712" lon="-1.2353">
        <ele>5.266472</ele>
        <time>2022-08-01T13:59:52.000Z</time>
      </trkpt>
      <trkpt lat="49.31709" lon="-1.23525">
        <ele>5.262717</ele>
        <time>2022-08-01T13:59:53.000Z</time>
      </trkpt>
      <trkpt lat="49.31707" lon="-1.2352">
        <ele>5.25916</ele>
        <time>2022-08-01T13:59:54.000Z</time>
      </trkpt>
      <trkpt lat="49.31704" lon="-1.23515">
        <ele>5.255491</ele>
        <time>2022-08-01T13:59:55.000Z</time>
      </trkpt>
      <trkpt lat="49.31701" lon="-1.2351">
        <ele>5.251564</ele>
        <time>2022-08-01T13:59:56.000Z</time>
      </trkpt>
      <trkpt lat="49.31699" lon="-1.23505">
        <ele>5.247949</ele>
        <time>2022-08-01T13:59:57.000Z</time>
      </trkpt>
      <trkpt lat="49.31696" lon="-1.235">
        <ele>5.244234</ele>
        <time>2022-08-01T13:59:58.000Z</time>
      </trkpt>
      <trkpt lat="49.31693" lon="-1.23495">
        <ele>5.240437</ele>
        <time>2022-08-01T13:59:59.000Z</time>
      </trkpt>
      <trkpt lat="49.31691" lon="-1.2349">
        <ele>5.236976</ele>
        <time>2022-08-01T14:00:00.000Z</time>
      </trkpt>
      <trkpt lat="49.31688" lon="-1.23485">
        <ele>5.233261</ele>
        <time>2022-08-01T14:00:01.000Z</time>
      </trkpt>
      <trkpt lat="49.31686" lon="-1.2348">
        <ele>5.229646</ele>
        <time>2022-08-01T14:00:02.000Z</time>
      </trkpt>
      <trkpt lat="49.31683" lon="-1.23474">
        <ele>5.225794</ele>
        <time>2022-08-01T14:00:03.000Z</time>
      </trkpt>
      <trkpt lat="49.31681" lon="-1.23469">
        <ele>5.221988</ele>
        <time>2022-08-01T14:00:04.000Z</time>
      </trkpt>
      <trkpt lat="49.31679" lon="-1.23464">
        <ele>5.218518</ele>
        <time>2022-08-01T14:00:05.000Z</time>
      </trkpt>
      <trkpt lat="49.31677" lon="-1.23458">
        <ele>5.214997</ele>
        <time>2022-08-01T14:00:06.000Z</time>
      </trkpt>
      <trkpt lat="49.31675" lon="-1.23453">
        <ele>5.211541</ele>
        <time>2022-08-01T14:00:07.000Z</time>
      </trkpt>
      <trkpt lat="49.31674" lon="-1.23447">
        <ele>5.208185</ele>
        <time>2022-08-01T14:00:08.000Z</time>
      </trkpt>
      <trkpt lat="49.31673" lon="-1.23442">
        <ele>5.204774</ele>
        <time>2022-08-01T14:00:09.000Z</time>
      </trkpt>
      <trkpt lat="49.31671" lon="-1.23437">
        <ele>5.201354</ele>
        <time>2022-08-01T14:00:10.000Z</time>
      </trkpt>
      <trkpt lat="49.31669" lon="-1.23432">
        <ele>5.199392</ele>
        <time>2022-08-01T14:00:11.000Z</time>
      </trkpt>
      <trkpt lat="49.31665" lon="-1.23427">
        <ele>5.19758</ele>
        <time>2022-08-01T14:00:12.000Z</time>
      </trkpt>
      <trkpt lat="49.31662" lon="-1.23423">
        <ele>5.19584</ele>
        <time>2022-08-01T14:00:13.000Z</time>
      </trkpt>
      <trkpt lat="49.31658" lon="-1.2342">
        <ele>5.19392</ele>
        <time>2022-08-01T14:00:14.000Z</time>
      </trkpt>
      <trkpt lat="49.31655" lon="-1.23417">
        <ele>5.192448</ele>
        <time>2022-08-01T14:00:15.000Z</time>
      </trkpt>
      <trkpt lat="49.31653" lon="-1.23413">
        <ele>5.191025</ele>
        <time>2022-08-01T14:00:16.000Z</time>
      </trkpt>
      <trkpt lat="49.3165" lon="-1.2341">
        <ele>5.189486</ele>
        <time>2022-08-01T14:00:17.000Z</time>
      </trkpt>
      <trkpt lat="49.31647" lon="-1.23407">
        <ele>5.187964</ele>
        <time>2022-08-01T14:00:18.000Z</time>
      </trkpt>
      <trkpt lat="49.31645" lon="-1.23403">
        <ele>5.186587</ele>
        <time>2022-08-01T14:00:19.000Z</time>
      </trkpt>
      <trkpt lat="49.31643" lon="-1.23399">
        <ele>5.18519</ele>
        <time>2022-08-01T14:00:20.000Z</time>
      </trkpt>
      <trkpt lat="49.3164" lon="-1.23396">
        <ele>5.183881</ele>
        <time>2022-08-01T14:00:21.000Z</time>
      </trkpt>
      <trkpt lat="49.31638" lon="-1.23393">
        <ele>5.182711</ele>
        <time>2022-08-01T14:00:22.000Z</time>
      </trkpt>
      <trkpt lat="49.31637" lon="-1.2339">
        <ele>5.181562</ele>
        <time>2022-08-01T14:00:23.000Z</time>
      </trkpt>
      <trkpt lat="49.31635" lon="-1.23386">
        <ele>5.180331</ele>
        <time>2022-08-01T14:00:24.000Z</time>
      </trkpt>
      <trkpt lat="49.31632" lon="-1.23383">
        <ele>5.178965</ele>
        <time>2022-08-01T14:00:25.000Z</time>
      </trkpt>
      <trkpt lat="49.3163" lon="-1.23379">
        <ele>5.177713</ele>
        <time>2022-08-01T14:00:26.000Z</time>
      </trkpt>
      <trkpt lat="49.31628" lon="-1.23376">
        <ele>5.176316</ele>
        <time>2022-08-01T14:00:27.000Z</time>
      </trkpt>
      <trkpt lat="49.31626" lon="-1.23372">
        <ele>5.174857</ele>
        <time>2022-08-01T14:00:28.000Z</time>
      </trkpt>
      <trkpt lat="49.31623" lon="-1.23369">
        <ele>5.173521</ele>
        <time>2022-08-01T14:00:29.000Z</time>
      </trkpt>
      <trkpt lat="49.31621" lon="-1.23366">
        <ele>5.172248</ele>
        <time>2022-08-01T14:00:30.000Z</time>
      </trkpt>
      <trkpt lat="49.31619" lon="-1.23362">
        <ele>5.17095</ele>
        <time>2022-08-01T14:00:31.000Z</time>
      </trkpt>
      <trkpt lat="49.31617" lon="-1.23359">
        <ele>5.169584</ele>
        <time>2022-08-01T14:00:32.000Z</time>
      </trkpt>
      <trkpt lat="49.31614" lon="-1.23355">
        <ele>5.168248</ele>
        <time>2022-08-01T14:00:33.000Z</time>
      </trkpt>
      <trkpt lat="49.31612" lon="-1.23352">
        <ele>5.166912</ele>
        <time>2022-08-01T14:00:34.000Z</time>
      </trkpt>
      <trkpt lat="49.3161" lon="-1.23348">
        <ele>5.165378</ele>
        <time>2022-08-01T14:00:35.000Z</time>
      </trkpt>
      <trkpt lat="49.31607" lon="-1.23344">
        <ele>5.163919</ele>
        <time>2022-08-01T14:00:36.000Z</time>
      </trkpt>
      <trkpt lat="49.31605" lon="-1.23339">
        <ele>5.162286</ele>
        <time>2022-08-01T14:00:37.000Z</time>
      </trkpt>
      <trkpt lat="49.31603" lon="-1.23335">
        <ele>5.16074</ele>
        <time>2022-08-01T14:00:38.000Z</time>
      </trkpt>
      <trkpt lat="49.316" lon="-1.2333">
        <ele>5.159001</ele>
        <time>2022-08-01T14:00:39.000Z</time>
      </trkpt>
      <trkpt lat="49.31597" lon="-1.23326">
        <ele>5.157429</ele>
        <time>2022-08-01T14:00:40.000Z</time>
      </trkpt>
      <trkpt lat="49.31595" lon="-1.23321">
        <ele>5.155861</ele>
        <time>2022-08-01T14:00:41.000Z</time>
      </trkpt>
      <trkpt lat="49.31593" lon="-1.23316">
        <ele>5.154225</ele>
        <time>2022-08-01T14:00:42.000Z</time>
      </trkpt>
      <trkpt lat="49.3159" lon="-1.23312">
        <ele>5.15251</ele>
        <time>2022-08-01T14:00:43.000Z</time>
      </trkpt>
      <trkpt lat="49.31588" lon="-1.23307">
        <ele>5.15067</ele>
        <time>2022-08-01T14:00:44.000Z</time>
      </trkpt>
      <trkpt lat="49.31585" lon="-1.23302">
        <ele>5.149012</ele>
        <time>2022-08-01T14:00:45.000Z</time>
      </trkpt>
      <trkpt lat="49.31583" lon="-1.23297">
        <ele>5.147254</ele>
        <time>2022-08-01T14:00:46.000Z</time>
      </trkpt>
      <trkpt lat="49.3158" lon="-1.23291">
        <ele>5.145373</ele>
        <time>2022-08-01T14:00:47.000Z</time>
      </trkpt>
      <trkpt lat="49.31578" lon="-1.23287">
        <ele>5.14376</ele>
        <time>2022-08-01T14:00:48.000Z</time>
      </trkpt>
      <trkpt lat="49.31575" lon="-1.23281">
        <ele>5.141959</ele>
        <time>2022-08-01T14:00:49.000Z</time>
      </trkpt>
      <trkpt lat="49.31573" lon="-1.23276">
        <ele>5.140161</ele>
        <time>2022-08-01T14:00:50.000Z</time>
      </trkpt>
      <trkpt lat="49.3157" lon="-1.23271">
        <ele>5.138359</ele>
        <time>2022-08-01T14:00:51.000Z</time>
      </trkpt>
      <trkpt lat="49.31567" lon="-1.23266">
        <ele>5.136606</ele>
        <time>2022-08-01T14:00:52.000Z</time>
      </trkpt>
      <trkpt lat="49.31565" lon="-1.23261">
        <ele>5.134923</ele>
        <time>2022-08-01T14:00:53.000Z</time>
      </trkpt>
      <trkpt lat="49.31563" lon="-1.23256">
        <ele>5.133213</ele>
        <time>2022-08-01T14:00:54.000Z</time>
      </trkpt>
      <trkpt lat="49.3156" lon="-1.23251">
        <ele>5.131373</ele>
        <time>2022-08-01T14:00:55.000Z</time>
      </trkpt>
      <trkpt lat="49.31557" lon="-1.23246">
        <ele>5.129615</ele>
        <time>2022-08-01T14:00:56.000Z</time>
      </trkpt>
      <trkpt lat="49.31555" lon="-1.23241">
        <ele>5.127969</ele>
        <time>2022-08-01T14:00:57.000Z</time>
      </trkpt>
      <trkpt lat="49.31552" lon="-1.23237">
        <ele>5.126275</ele>
        <time>2022-08-01T14:00:58.000Z</time>
      </trkpt>
      <trkpt lat="49.31549" lon="-1.23232">
        <ele>5.132184</ele>
        <time>2022-08-01T14:00:59.000Z</time>
      </trkpt>
      <trkpt lat="49.31547" lon="-1.23227">
        <ele>5.178422</ele>
        <time>2022-08-01T14:01:00.000Z</time>
      </trkpt>
      <trkpt lat="49.31545" lon="-1.23222">
        <ele>5.225297</ele>
        <time>2022-08-01T14:01:01.000Z</time>
      </trkpt>
      <trkpt lat="49.31543" lon="-1.23217">
        <ele>5.271579</ele>
        <time>2022-08-01T14:01:02.000Z</time>
      </trkpt>
      <trkpt lat="49.3154" lon="-1.23212">
        <ele>5.319878</ele>
        <time>2022-08-01T14:01:03.000Z</time>
      </trkpt>
      <trkpt lat="49.31538" lon="-1.23207">
        <ele>5.36554</ele>
        <time>2022-08-01T14:01:04.000Z</time>
      </trkpt>
      <trkpt lat="49.31535" lon="-1.23202">
        <ele>5.415065</ele>
        <time>2022-08-01T14:01:05.000Z</time>
      </trkpt>
      <trkpt lat="49.31533" lon="-1.23197">
        <ele>5.461731</ele>
        <time>2022-08-01T14:01:06.000Z</time>
      </trkpt>
      <trkpt lat="49.3153" lon="-1.23192">
        <ele>5.512459</ele>
        <time>2022-08-01T14:01:07.000Z</time>
      </trkpt>
      <trkpt lat="49.31527" lon="-1.23188">
        <ele>5.557778</ele>
        <time>2022-08-01T14:01:08.000Z</time>
      </trkpt>
      <trkpt lat="49.31525" lon="-1.23183">
        <ele>5.60344</ele>
        <time>2022-08-01T14:01:09.000Z</time>
      </trkpt>
      <trkpt lat="49.31523" lon="-1.23178">
        <ele>5.649678</ele>
        <time>2022-08-01T14:01:10.000Z</time>
      </trkpt>
      <trkpt lat="49.3152" lon="-1.23173">
        <ele>5.699281</ele>
        <time>2022-08-01T14:01:11.000Z</time>
      </trkpt>
      <trkpt lat="49.31518" lon="-1.23169">
        <ele>5.744257</ele>
        <time>2022-08-01T14:01:12.000Z</time>
      </trkpt>
      <trkpt lat="49.31516" lon="-1.23164">
        <ele>5.791162</ele>
        <time>2022-08-01T14:01:13.000Z</time>
      </trkpt>
      <trkpt lat="49.31513" lon="-1.23158">
        <ele>5.838679</ele>
        <time>2022-08-01T14:01:14.000Z</time>
      </trkpt>
      <trkpt lat="49.31511" lon="-1.23153">
        <ele>5.885585</ele>
        <time>2022-08-01T14:01:15.000Z</time>
      </trkpt>
      <trkpt lat="49.31508" lon="-1.23148">
        <ele>5.936109</ele>
        <time>2022-08-01T14:01:16.000Z</time>
      </trkpt>
      <trkpt lat="49.31506" lon="-1.23144">
        <ele>5.981771</ele>
        <time>2022-08-01T14:01:17.000Z</time>
      </trkpt>
      <trkpt lat="49.31503" lon="-1.23138">
        <ele>6.031296</ele>
        <time>2022-08-01T14:01:18.000Z</time>
      </trkpt>
      <trkpt lat="49.31501" lon="-1.23133">
        <ele>6.084334</ele>
        <time>2022-08-01T14:01:19.000Z</time>
      </trkpt>
      <trkpt lat="49.31498" lon="-1.23128">
        <ele>6.134566</ele>
        <time>2022-08-01T14:01:20.000Z</time>
      </trkpt>
      <trkpt lat="49.31496" lon="-1.23122">
        <ele>6.184027</ele>
        <time>2022-08-01T14:01:21.000Z</time>
      </trkpt>
      <trkpt lat="49.31493" lon="-1.23117">
        <ele>6.233653</ele>
        <time>2022-08-01T14:01:22.000Z</time>
      </trkpt>
      <trkpt lat="49.31491" lon="-1.23112">
        <ele>6.281953</ele>
        <time>2022-08-01T14:01:23.000Z</time>
      </trkpt>
      <trkpt lat="49.31488" lon="-1.23107">
        <ele>6.328235</ele>
        <time>2022-08-01T14:01:24.000Z</time>
      </trkpt>
      <trkpt lat="49.31486" lon="-1.23103">
        <ele>6.375328</ele>
        <time>2022-08-01T14:01:25.000Z</time>
      </trkpt>
      <trkpt lat="49.31484" lon="-1.23098">
        <ele>6.417962</ele>
        <time>2022-08-01T14:01:26.000Z</time>
      </trkpt>
      <trkpt lat="49.31481" lon="-1.23094">
        <ele>6.462313</ele>
        <time>2022-08-01T14:01:27.000Z</time>
      </trkpt>
      <trkpt lat="49.31479" lon="-1.23089">
        <ele>6.504947</ele>
        <time>2022-08-01T14:01:28.000Z</time>
      </trkpt>
      <trkpt lat="49.31477" lon="-1.23086">
        <ele>6.53898</ele>
        <time>2022-08-01T14:01:29.000Z</time>
      </trkpt>
      <trkpt lat="49.31476" lon="-1.23082">
        <ele>6.567944</ele>
        <time>2022-08-01T14:01:30.000Z</time>
      </trkpt>
      <trkpt lat="49.31475" lon="-1.23079">
        <ele>6.596535</ele>
        <time>2022-08-01T14:01:31.000Z</time>
      </trkpt>
      <trkpt lat="49.31475" lon="-1.23076">
        <ele>6.621322</ele>
        <time>2022-08-01T14:01:32.000Z</time>
      </trkpt>
      <trkpt lat="49.31475" lon="-1.23073">
        <ele>6.64585</ele>
        <time>2022-08-01T14:01:33.000Z</time>
      </trkpt>
      <trkpt lat="49.31476" lon="-1.2307">
        <ele>6.671535</ele>
        <time>2022-08-01T14:01:34.000Z</time>
      </trkpt>
      <trkpt lat="49.31477" lon="-1.23067">
        <ele>6.699147</ele>
        <time>2022-08-01T14:01:35.000Z</time>
      </trkpt>
      <trkpt lat="49.31478" lon="-1.23064">
        <ele>6.724294</ele>
        <time>2022-08-01T14:01:36.000Z</time>
      </trkpt>
      <trkpt lat="49.31479" lon="-1.23061">
        <ele>6.746858</ele>
        <time>2022-08-01T14:01:37.000Z</time>
      </trkpt>
      <trkpt lat="49.3148" lon="-1.23058">
        <ele>6.772685</ele>
        <time>2022-08-01T14:01:39.000Z</time>
      </trkpt>
      <trkpt lat="49.31482" lon="-1.23056">
        <ele>6.79978</ele>
        <time>2022-08-01T14:01:41.000Z</time>
      </trkpt>
      <trkpt lat="49.31485" lon="-1.23055">
        <ele>6.838906</ele>
        <time>2022-08-01T14:01:43.000Z</time>
      </trkpt>
      <trkpt lat="49.31487" lon="-1.23056">
        <ele>6.866476</ele>
        <time>2022-08-01T14:01:45.000Z</time>
      </trkpt>
      <trkpt lat="49.31485" lon="-1.23067">
        <ele>6.958849</ele>
        <time>2022-08-01T14:01:56.000Z</time>
      </trkpt>
      <trkpt lat="49.31482" lon="-1.23069">
        <ele>6.991131</ele>
        <time>2022-08-01T14:01:57.000Z</time>
      </trkpt>
      <trkpt lat="49.31479" lon="-1.23072">
        <ele>7.030018</ele>
        <time>2022-08-01T14:01:58.000Z</time>
      </trkpt>
      <trkpt lat="49.31477" lon="-1.23075">
        <ele>7.070308</ele>
        <time>2022-08-01T14:01:59.000Z</time>
      </trkpt>
      <trkpt lat="49.31474" lon="-1.23078">
        <ele>7.109987</ele>
        <time>2022-08-01T14:02:00.000Z</time>
      </trkpt>
      <trkpt lat="49.31472" lon="-1.23081">
        <ele>7.147254</ele>
        <time>2022-08-01T14:02:01.000Z</time>
      </trkpt>
      <trkpt lat="49.31469" lon="-1.23085">
        <ele>7.183764</ele>
        <time>2022-08-01T14:02:02.000Z</time>
      </trkpt>
      <trkpt lat="49.31467" lon="-1.23088">
        <ele>7.218375</ele>
        <time>2022-08-01T14:02:03.000Z</time>
      </trkpt>
      <trkpt lat="49.31465" lon="-1.2309">
        <ele>7.244322</ele>
        <time>2022-08-01T14:02:04.000Z</time>
      </trkpt>
      <trkpt lat="49.31462" lon="-1.23092">
        <ele>7.253251</ele>
        <time>2022-08-01T14:02:05.000Z</time>
      </trkpt>
      <trkpt lat="49.31461" lon="-1.23094">
        <ele>7.25992</ele>
        <time>2022-08-01T14:02:06.000Z</time>
      </trkpt>
      <trkpt lat="49.31459" lon="-1.23096">
        <ele>7.268735</ele>
        <time>2022-08-01T14:02:07.000Z</time>
      </trkpt>
      <trkpt lat="49.31457" lon="-1.23098">
        <ele>7.275327</ele>
        <time>2022-08-01T14:02:08.000Z</time>
      </trkpt>
      <trkpt lat="49.31456" lon="-1.23101">
        <ele>7.283974</ele>
        <time>2022-08-01T14:02:09.000Z</time>
      </trkpt>
      <trkpt lat="49.31454" lon="-1.23103">
        <ele>7.292113</ele>
        <time>2022-08-01T14:02:10.000Z</time>
      </trkpt>
      <trkpt lat="49.31453" lon="-1.23106">
        <ele>7.300418</ele>
        <time>2022-08-01T14:02:11.000Z</time>
      </trkpt>
      <trkpt lat="49.31451" lon="-1.23109">
        <ele>7.31027</ele>
        <time>2022-08-01T14:02:12.000Z</time>
      </trkpt>
      <trkpt lat="49.31448" lon="-1.23112">
        <ele>7.321768</ele>
        <time>2022-08-01T14:02:13.000Z</time>
      </trkpt>
      <trkpt lat="49.31445" lon="-1.23115">
        <ele>7.332363</ele>
        <time>2022-08-01T14:02:14.000Z</time>
      </trkpt>
      <trkpt lat="49.31442" lon="-1.23117">
        <ele>7.344516</ele>
        <time>2022-08-01T14:02:15.000Z</time>
      </trkpt>
      <trkpt lat="49.3144" lon="-1.2312">
        <ele>7.355599</ele>
        <time>2022-08-01T14:02:16.000Z</time>
      </trkpt>
      <trkpt lat="49.31437" lon="-1.23123">
        <ele>7.368936</ele>
        <time>2022-08-01T14:02:17.000Z</time>
      </trkpt>
      <trkpt lat="49.31434" lon="-1.23127">
        <ele>7.381476</ele>
        <time>2022-08-01T14:02:18.000Z</time>
      </trkpt>
      <trkpt lat="49.31431" lon="-1.2313">
        <ele>7.395067</ele>
        <time>2022-08-01T14:02:19.000Z</time>
      </trkpt>
      <trkpt lat="49.31428" lon="-1.23134">
        <ele>7.406885</ele>
        <time>2022-08-01T14:02:20.000Z</time>
      </trkpt>
      <trkpt lat="49.31425" lon="-1.23137">
        <ele>7.420608</ele>
        <time>2022-08-01T14:02:21.000Z</time>
      </trkpt>
      <trkpt lat="49.31422" lon="-1.2314">
        <ele>7.432106</ele>
        <time>2022-08-01T14:02:22.000Z</time>
      </trkpt>
      <trkpt lat="49.3142" lon="-1.23144">
        <ele>7.44499</ele>
        <time>2022-08-01T14:02:23.000Z</time>
      </trkpt>
      <trkpt lat="49.31416" lon="-1.23147">
        <ele>7.458581</ele>
        <time>2022-08-01T14:02:24.000Z</time>
      </trkpt>
      <trkpt lat="49.31413" lon="-1.23151">
        <ele>7.472437</ele>
        <time>2022-08-01T14:02:25.000Z</time>
      </trkpt>
      <trkpt lat="49.3141" lon="-1.23155">
        <ele>7.486429</ele>
        <time>2022-08-01T14:02:26.000Z</time>
      </trkpt>
      <trkpt lat="49.31407" lon="-1.23158">
        <ele>7.499767</ele>
        <time>2022-08-01T14:02:27.000Z</time>
      </trkpt>
      <trkpt lat="49.31403" lon="-1.23161">
        <ele>7.514111</ele>
        <time>2022-08-01T14:02:28.000Z</time>
      </trkpt>
      <trkpt lat="49.314" lon="-1.23164">
        <ele>7.526719</ele>
        <time>2022-08-01T14:02:29.000Z</time>
      </trkpt>
      <trkpt lat="49.31397" lon="-1.23168">
        <ele>7.542434</ele>
        <time>2022-08-01T14:02:30.000Z</time>
      </trkpt>
      <trkpt lat="49.31393" lon="-1.23172">
        <ele>7.557022</ele>
        <time>2022-08-01T14:02:31.000Z</time>
      </trkpt>
      <trkpt lat="49.3139" lon="-1.23176">
        <ele>7.571727</ele>
        <time>2022-08-01T14:02:32.000Z</time>
      </trkpt>
      <trkpt lat="49.31387" lon="-1.2318">
        <ele>7.585344</ele>
        <time>2022-08-01T14:02:33.000Z</time>
      </trkpt>
      <trkpt lat="49.31384" lon="-1.23184">
        <ele>7.597884</ele>
        <time>2022-08-01T14:02:34.000Z</time>
      </trkpt>
      <trkpt lat="49.31382" lon="-1.23187">
        <ele>7.609702</ele>
        <time>2022-08-01T14:02:35.000Z</time>
      </trkpt>
      <trkpt lat="49.31379" lon="-1.2319">
        <ele>7.623165</ele>
        <time>2022-08-01T14:02:36.000Z</time>
      </trkpt>
      <trkpt lat="49.31375" lon="-1.23194">
        <ele>7.636757</ele>
        <time>2022-08-01T14:02:37.000Z</time>
      </trkpt>
      <trkpt lat="49.31373" lon="-1.23197">
        <ele>7.647849</ele>
        <time>2022-08-01T14:02:38.000Z</time>
      </trkpt>
      <trkpt lat="49.3137" lon="-1.232">
        <ele>7.659209</ele>
        <time>2022-08-01T14:02:39.000Z</time>
      </trkpt>
      <trkpt lat="49.31367" lon="-1.23203">
        <ele>7.67182</ele>
        <time>2022-08-01T14:02:40.000Z</time>
      </trkpt>
      <trkpt lat="49.31365" lon="-1.23206">
        <ele>7.683459</ele>
        <time>2022-08-01T14:02:41.000Z</time>
      </trkpt>
      <trkpt lat="49.31363" lon="-1.2321">
        <ele>7.694203</ele>
        <time>2022-08-01T14:02:42.000Z</time>
      </trkpt>
      <trkpt lat="49.3136" lon="-1.23213">
        <ele>7.705515</ele>
        <time>2022-08-01T14:02:43.000Z</time>
      </trkpt>
      <trkpt lat="49.31357" lon="-1.23216">
        <ele>7.718378</ele>
        <time>2022-08-01T14:02:44.000Z</time>
      </trkpt>
      <trkpt lat="49.31355" lon="-1.23218">
        <ele>7.728442</ele>
        <time>2022-08-01T14:02:45.000Z</time>
      </trkpt>
      <trkpt lat="49.31352" lon="-1.23219">
        <ele>7.737</ele>
        <time>2022-08-01T14:02:46.000Z</time>
      </trkpt>
      <trkpt lat="49.3135" lon="-1.2322">
        <ele>7.744845</ele>
        <time>2022-08-01T14:02:47.000Z</time>
      </trkpt>
      <trkpt lat="49.31348" lon="-1.2322">
        <ele>7.751495</ele>
        <time>2022-08-01T14:02:48.000Z</time>
      </trkpt>
      <trkpt lat="49.31345" lon="-1.23219">
        <ele>7.764231</ele>
        <time>2022-08-01T14:02:50.000Z</time>
      </trkpt>
      <trkpt lat="49.31343" lon="-1.23219">
        <ele>7.770865</ele>
        <time>2022-08-01T14:02:51.000Z</time>
      </trkpt>
      <trkpt lat="49.3134" lon="-1.23222">
        <ele>7.783302</ele>
        <time>2022-08-01T14:02:53.000Z</time>
      </trkpt>
      <trkpt lat="49.31337" lon="-1.23224">
        <ele>7.793848</ele>
        <time>2022-08-01T14:02:55.000Z</time>
      </trkpt>
      <trkpt lat="49.31335" lon="-1.23226">
        <ele>7.800279</ele>
        <time>2022-08-01T14:02:58.000Z</time>
      </trkpt>
      <trkpt lat="49.31333" lon="-1.23235">
        <ele>7.823003</ele>
        <time>2022-08-01T14:10:12.000Z</time>
      </trkpt>
      <trkpt lat="49.31333" lon="-1.23239">
        <ele>7.831716</ele>
        <time>2022-08-01T14:10:13.000Z</time>
      </trkpt>
      <trkpt lat="49.31333" lon="-1.23243">
        <ele>7.840139</ele>
        <time>2022-08-01T14:10:14.000Z</time>
      </trkpt>
      <trkpt lat="49.31333" lon="-1.23246">
        <ele>7.847195</ele>
        <time>2022-08-01T14:10:15.000Z</time>
      </trkpt>
      <trkpt lat="49.31332" lon="-1.23249">
        <ele>7.854712</ele>
        <time>2022-08-01T14:10:16.000Z</time>
      </trkpt>
      <trkpt lat="49.31329" lon="-1.23253">
        <ele>7.867406</ele>
        <time>2022-08-01T14:10:17.000Z</time>
      </trkpt>
      <trkpt lat="49.31327" lon="-1.23256">
        <ele>7.850294</ele>
        <time>2022-08-01T14:10:18.000Z</time>
      </trkpt>
      <trkpt lat="49.31325" lon="-1.2326">
        <ele>7.829854</ele>
        <time>2022-08-01T14:10:19.000Z</time>
      </trkpt>
      <trkpt lat="49.31323" lon="-1.23262">
        <ele>7.81451</ele>
        <time>2022-08-01T14:10:20.000Z</time>
      </trkpt>
      <trkpt lat="49.31319" lon="-1.23266">
        <ele>7.791416</ele>
        <time>2022-08-01T14:10:21.000Z</time>
      </trkpt>
      <trkpt lat="49.31317" lon="-1.23268">
        <ele>7.77495</ele>
        <time>2022-08-01T14:10:22.000Z</time>
      </trkpt>
      <trkpt lat="49.31315" lon="-1.23271">
        <ele>7.758712</ele>
        <time>2022-08-01T14:10:23.000Z</time>
      </trkpt>
      <trkpt lat="49.31313" lon="-1.23274">
        <ele>7.742998</ele>
        <time>2022-08-01T14:10:24.000Z</time>
      </trkpt>
      <trkpt lat="49.31311" lon="-1.23278">
        <ele>7.725511</ele>
        <time>2022-08-01T14:10:25.000Z</time>
      </trkpt>
      <trkpt lat="49.31309" lon="-1.23281">
        <ele>7.709797</ele>
        <time>2022-08-01T14:10:26.000Z</time>
      </trkpt>
      <trkpt lat="49.31307" lon="-1.23283">
        <ele>7.696077</ele>
        <time>2022-08-01T14:10:27.000Z</time>
      </trkpt>
      <trkpt lat="49.31305" lon="-1.23285">
        <ele>7.683207</ele>
        <time>2022-08-01T14:10:28.000Z</time>
      </trkpt>
      <trkpt lat="49.31303" lon="-1.23286">
        <ele>7.668493</ele>
        <time>2022-08-01T14:10:29.000Z</time>
      </trkpt>
      <trkpt lat="49.31301" lon="-1.23288">
        <ele>7.654997</ele>
        <time>2022-08-01T14:10:30.000Z</time>
      </trkpt>
      <trkpt lat="49.31299" lon="-1.23291">
        <ele>7.638759</ele>
        <time>2022-08-01T14:10:31.000Z</time>
      </trkpt>
      <trkpt lat="49.31297" lon="-1.23293">
        <ele>7.626122</ele>
        <time>2022-08-01T14:10:32.000Z</time>
      </trkpt>
      <trkpt lat="49.31295" lon="-1.23296">
        <ele>7.609876</ele>
        <time>2022-08-01T14:10:33.000Z</time>
      </trkpt>
      <trkpt lat="49.31293" lon="-1.23299">
        <ele>7.596167</ele>
        <time>2022-08-01T14:10:34.000Z</time>
      </trkpt>
      <trkpt lat="49.31291" lon="-1.23301">
        <ele>7.578328</ele>
        <time>2022-08-01T14:10:35.000Z</time>
      </trkpt>
      <trkpt lat="49.31289" lon="-1.23304">
        <ele>7.562706</ele>
        <time>2022-08-01T14:10:36.000Z</time>
      </trkpt>
      <trkpt lat="49.31287" lon="-1.23305">
        <ele>7.549836</ele>
        <time>2022-08-01T14:10:37.000Z</time>
      </trkpt>
      <trkpt lat="49.31285" lon="-1.23308">
        <ele>7.536117</ele>
        <time>2022-08-01T14:10:38.000Z</time>
      </trkpt>
      <trkpt lat="49.31283" lon="-1.23311">
        <ele>7.520402</ele>
        <time>2022-08-01T14:10:39.000Z</time>
      </trkpt>
      <trkpt lat="49.31281" lon="-1.23314">
        <ele>7.502507</ele>
        <time>2022-08-01T14:10:40.000Z</time>
      </trkpt>
      <trkpt lat="49.31278" lon="-1.23317">
        <ele>7.483</ele>
        <time>2022-08-01T14:10:41.000Z</time>
      </trkpt>
      <trkpt lat="49.31276" lon="-1.23321">
        <ele>7.462814</ele>
        <time>2022-08-01T14:10:42.000Z</time>
      </trkpt>
      <trkpt lat="49.31273" lon="-1.23325">
        <ele>7.439306</ele>
        <time>2022-08-01T14:10:43.000Z</time>
      </trkpt>
      <trkpt lat="49.31268" lon="-1.23329">
        <ele>7.411079</ele>
        <time>2022-08-01T14:10:44.000Z</time>
      </trkpt>
      <trkpt lat="49.31265" lon="-1.23332">
        <ele>7.388857</ele>
        <time>2022-08-01T14:10:45.000Z</time>
      </trkpt>
      <trkpt lat="49.31262" lon="-1.23335">
        <ele>7.366207</ele>
        <time>2022-08-01T14:10:46.000Z</time>
      </trkpt>
      <trkpt lat="49.31259" lon="-1.23339">
        <ele>7.346271</ele>
        <time>2022-08-01T14:10:47.000Z</time>
      </trkpt>
      <trkpt lat="49.31257" lon="-1.23342">
        <ele>7.32658</ele>
        <time>2022-08-01T14:10:48.000Z</time>
      </trkpt>
      <trkpt lat="49.31254" lon="-1.23345">
        <ele>7.306679</ele>
        <time>2022-08-01T14:10:49.000Z</time>
      </trkpt>
      <trkpt lat="49.3125" lon="-1.23349">
        <ele>7.28106</ele>
        <time>2022-08-01T14:10:50.000Z</time>
      </trkpt>
      <trkpt lat="49.31248" lon="-1.23353">
        <ele>7.262295</ele>
        <time>2022-08-01T14:10:51.000Z</time>
      </trkpt>
      <trkpt lat="49.31245" lon="-1.23356">
        <ele>7.243545</ele>
        <time>2022-08-01T14:10:52.000Z</time>
      </trkpt>
      <trkpt lat="49.31242" lon="-1.23359">
        <ele>7.22153</ele>
        <time>2022-08-01T14:10:53.000Z</time>
      </trkpt>
      <trkpt lat="49.3124" lon="-1.23362">
        <ele>7.206345</ele>
        <time>2022-08-01T14:10:54.000Z</time>
      </trkpt>
      <trkpt lat="49.31238" lon="-1.23365">
        <ele>7.18938</ele>
        <time>2022-08-01T14:10:55.000Z</time>
      </trkpt>
      <trkpt lat="49.31236" lon="-1.23368">
        <ele>7.171485</ele>
        <time>2022-08-01T14:10:56.000Z</time>
      </trkpt>
      <trkpt lat="49.31233" lon="-1.23371">
        <ele>7.152476</ele>
        <time>2022-08-01T14:10:57.000Z</time>
      </trkpt>
      <trkpt lat="49.3123" lon="-1.23374">
        <ele>7.132317</ele>
        <time>2022-08-01T14:10:58.000Z</time>
      </trkpt>
      <trkpt lat="49.31227" lon="-1.23378">
        <ele>7.109223</ele>
        <time>2022-08-01T14:10:59.000Z</time>
      </trkpt>
      <trkpt lat="49.31223" lon="-1.23381">
        <ele>7.085546</ele>
        <time>2022-08-01T14:11:00.000Z</time>
      </trkpt>
      <trkpt lat="49.3122" lon="-1.23385">
        <ele>7.060982</ele>
        <time>2022-08-01T14:11:01.000Z</time>
      </trkpt>
      <trkpt lat="49.31217" lon="-1.23389">
        <ele>7.038412</ele>
        <time>2022-08-01T14:11:02.000Z</time>
      </trkpt>
      <trkpt lat="49.31214" lon="-1.23393">
        <ele>7.015935</ele>
        <time>2022-08-01T14:11:03.000Z</time>
      </trkpt>
      <trkpt lat="49.31211" lon="-1.23396">
        <ele>6.994435</ele>
        <time>2022-08-01T14:11:04.000Z</time>
      </trkpt>
      <trkpt lat="49.31208" lon="-1.23399">
        <ele>6.973387</ele>
        <time>2022-08-01T14:11:05.000Z</time>
      </trkpt>
      <trkpt lat="49.31205" lon="-1.23403">
        <ele>6.951648</ele>
        <time>2022-08-01T14:11:06.000Z</time>
      </trkpt>
      <trkpt lat="49.31202" lon="-1.23406">
        <ele>6.930837</ele>
        <time>2022-08-01T14:11:07.000Z</time>
      </trkpt>
      <trkpt lat="49.312" lon="-1.23409">
        <ele>6.912072</ele>
        <time>2022-08-01T14:11:08.000Z</time>
      </trkpt>
      <trkpt lat="49.31197" lon="-1.23413">
        <ele>6.893922</ele>
        <time>2022-08-01T14:11:09.000Z</time>
      </trkpt>
      <trkpt lat="49.31195" lon="-1.23415">
        <ele>6.874659</ele>
        <time>2022-08-01T14:11:10.000Z</time>
      </trkpt>
      <trkpt lat="49.31192" lon="-1.23418">
        <ele>6.856132</ele>
        <time>2022-08-01T14:11:11.000Z</time>
      </trkpt>
      <trkpt lat="49.3119" lon="-1.23421">
        <ele>6.838915</ele>
        <time>2022-08-01T14:11:12.000Z</time>
      </trkpt>
      <trkpt lat="49.31187" lon="-1.23425">
        <ele>6.823957</ele>
        <time>2022-08-01T14:11:13.000Z</time>
      </trkpt>
      <trkpt lat="49.31185" lon="-1.23428">
        <ele>6.812529</ele>
        <time>2022-08-01T14:11:14.000Z</time>
      </trkpt>
      <trkpt lat="49.31182" lon="-1.23431">
        <ele>6.802463</ele>
        <time>2022-08-01T14:11:15.000Z</time>
      </trkpt>
      <trkpt lat="49.3118" lon="-1.23434">
        <ele>6.789517</ele>
        <time>2022-08-01T14:11:16.000Z</time>
      </trkpt>
      <trkpt lat="49.31177" lon="-1.23438">
        <ele>6.776427</ele>
        <time>2022-08-01T14:11:17.000Z</time>
      </trkpt>
      <trkpt lat="49.31174" lon="-1.23441">
        <ele>6.766507</ele>
        <time>2022-08-01T14:11:18.000Z</time>
      </trkpt>
      <trkpt lat="49.31172" lon="-1.23444">
        <ele>6.755351</ele>
        <time>2022-08-01T14:11:19.000Z</time>
      </trkpt>
      <trkpt lat="49.3117" lon="-1.23446">
        <ele>6.74585</ele>
        <time>2022-08-01T14:11:20.000Z</time>
      </trkpt>
      <trkpt lat="49.31167" lon="-1.23449">
        <ele>6.735929</ele>
        <time>2022-08-01T14:11:21.000Z</time>
      </trkpt>
      <trkpt lat="49.31165" lon="-1.23452">
        <ele>6.726533</ele>
        <time>2022-08-01T14:11:22.000Z</time>
      </trkpt>
      <trkpt lat="49.31163" lon="-1.23455">
        <ele>6.715518</ele>
        <time>2022-08-01T14:11:23.000Z</time>
      </trkpt>
      <trkpt lat="49.3116" lon="-1.23458">
        <ele>6.704362</ele>
        <time>2022-08-01T14:11:24.000Z</time>
      </trkpt>
      <trkpt lat="49.31158" lon="-1.23461">
        <ele>6.694147</ele>
        <time>2022-08-01T14:11:25.000Z</time>
      </trkpt>
      <trkpt lat="49.31156" lon="-1.23464">
        <ele>6.682857</ele>
        <time>2022-08-01T14:11:26.000Z</time>
      </trkpt>
      <trkpt lat="49.31153" lon="-1.23467">
        <ele>6.670052</ele>
        <time>2022-08-01T14:11:27.000Z</time>
      </trkpt>
      <trkpt lat="49.3115" lon="-1.23471">
        <ele>6.658554</ele>
        <time>2022-08-01T14:11:28.000Z</time>
      </trkpt>
      <trkpt lat="49.31148" lon="-1.23475">
        <ele>6.647555</ele>
        <time>2022-08-01T14:11:29.000Z</time>
      </trkpt>
      <trkpt lat="49.31146" lon="-1.23478">
        <ele>6.637361</ele>
        <time>2022-08-01T14:11:30.000Z</time>
      </trkpt>
      <trkpt lat="49.31144" lon="-1.23481">
        <ele>6.62684</ele>
        <time>2022-08-01T14:11:31.000Z</time>
      </trkpt>
      <trkpt lat="49.31141" lon="-1.23484">
        <ele>6.613826</ele>
        <time>2022-08-01T14:11:32.000Z</time>
      </trkpt>
      <trkpt lat="49.31139" lon="-1.23487">
        <ele>6.603611</ele>
        <time>2022-08-01T14:11:33.000Z</time>
      </trkpt>
      <trkpt lat="49.31136" lon="-1.2349">
        <ele>6.592962</ele>
        <time>2022-08-01T14:11:34.000Z</time>
      </trkpt>
      <trkpt lat="49.31134" lon="-1.23492">
        <ele>6.583848</ele>
        <time>2022-08-01T14:11:35.000Z</time>
      </trkpt>
      <trkpt lat="49.31132" lon="-1.23493">
        <ele>6.575175</ele>
        <time>2022-08-01T14:11:36.000Z</time>
      </trkpt>
      <trkpt lat="49.31129" lon="-1.23494">
        <ele>6.566394</ele>
        <time>2022-08-01T14:11:37.000Z</time>
      </trkpt>
      <trkpt lat="49.31127" lon="-1.23494">
        <ele>6.558413</ele>
        <time>2022-08-01T14:11:38.000Z</time>
      </trkpt>
      <trkpt lat="49.31124" lon="-1.23493">
        <ele>6.549664</ele>
        <time>2022-08-01T14:11:39.000Z</time>
      </trkpt>
      <trkpt lat="49.31122" lon="-1.23493">
        <ele>6.541568</ele>
        <time>2022-08-01T14:11:40.000Z</time>
      </trkpt>
      <trkpt lat="49.31119" lon="-1.23492">
        <ele>6.531145</ele>
        <time>2022-08-01T14:11:41.000Z</time>
      </trkpt>
      <trkpt lat="49.31117" lon="-1.23491">
        <ele>6.522283</ele>
        <time>2022-08-01T14:11:42.000Z</time>
      </trkpt>
      <trkpt lat="49.31113" lon="-1.23491">
        <ele>6.510129</ele>
        <time>2022-08-01T14:11:43.000Z</time>
      </trkpt>
      <trkpt lat="49.3111" lon="-1.23492">
        <ele>6.498641</ele>
        <time>2022-08-01T14:11:44.000Z</time>
      </trkpt>
      <trkpt lat="49.31107" lon="-1.23494">
        <ele>6.486179</ele>
        <time>2022-08-01T14:11:45.000Z</time>
      </trkpt>
      <trkpt lat="49.31103" lon="-1.23497">
        <ele>6.473165</ele>
        <time>2022-08-01T14:11:46.000Z</time>
      </trkpt>
      <trkpt lat="49.311" lon="-1.23501">
        <ele>6.459656</ele>
        <time>2022-08-01T14:11:47.000Z</time>
      </trkpt>
      <trkpt lat="49.31097" lon="-1.23504">
        <ele>6.444865</ele>
        <time>2022-08-01T14:11:48.000Z</time>
      </trkpt>
      <trkpt lat="49.31093" lon="-1.23508">
        <ele>6.431484</ele>
        <time>2022-08-01T14:11:49.000Z</time>
      </trkpt>
      <trkpt lat="49.31091" lon="-1.23511">
        <ele>6.419739</ele>
        <time>2022-08-01T14:11:50.000Z</time>
      </trkpt>
      <trkpt lat="49.31088" lon="-1.23514">
        <ele>6.408028</ele>
        <time>2022-08-01T14:11:51.000Z</time>
      </trkpt>
      <trkpt lat="49.31085" lon="-1.23518">
        <ele>6.395631</ele>
        <time>2022-08-01T14:11:52.000Z</time>
      </trkpt>
      <trkpt lat="49.31083" lon="-1.23521">
        <ele>6.383885</ele>
        <time>2022-08-01T14:11:53.000Z</time>
      </trkpt>
      <trkpt lat="49.3108" lon="-1.23525">
        <ele>6.37188</ele>
        <time>2022-08-01T14:11:54.000Z</time>
      </trkpt>
      <trkpt lat="49.31077" lon="-1.23528">
        <ele>6.358499</ele>
        <time>2022-08-01T14:11:55.000Z</time>
      </trkpt>
      <trkpt lat="49.31075" lon="-1.23531">
        <ele>6.346754</ele>
        <time>2022-08-01T14:11:56.000Z</time>
      </trkpt>
      <trkpt lat="49.31072" lon="-1.23535">
        <ele>6.334749</ele>
        <time>2022-08-01T14:11:57.000Z</time>
      </trkpt>
      <trkpt lat="49.31069" lon="-1.23538">
        <ele>6.321241</ele>
        <time>2022-08-01T14:11:58.000Z</time>
      </trkpt>
      <trkpt lat="49.31066" lon="-1.23541">
        <ele>6.308107</ele>
        <time>2022-08-01T14:11:59.000Z</time>
      </trkpt>
      <trkpt lat="49.31063" lon="-1.23545">
        <ele>6.295017</ele>
        <time>2022-08-01T14:12:00.000Z</time>
      </trkpt>
      <trkpt lat="49.3106" lon="-1.23549">
        <ele>6.281378</ele>
        <time>2022-08-01T14:12:01.000Z</time>
      </trkpt>
      <trkpt lat="49.31057" lon="-1.23552">
        <ele>6.270079</ele>
        <time>2022-08-01T14:12:02.000Z</time>
      </trkpt>
      <trkpt lat="49.31055" lon="-1.23555">
        <ele>6.258836</ele>
        <time>2022-08-01T14:12:03.000Z</time>
      </trkpt>
      <trkpt lat="49.31052" lon="-1.23558">
        <ele>6.24768</ele>
        <time>2022-08-01T14:12:04.000Z</time>
      </trkpt>
      <trkpt lat="49.3105" lon="-1.23561">
        <ele>6.236389</ele>
        <time>2022-08-01T14:12:05.000Z</time>
      </trkpt>
      <trkpt lat="49.31047" lon="-1.23564">
        <ele>6.225099</ele>
        <time>2022-08-01T14:12:06.000Z</time>
      </trkpt>
      <trkpt lat="49.31045" lon="-1.23567">
        <ele>6.214884</ele>
        <time>2022-08-01T14:12:07.000Z</time>
      </trkpt>
      <trkpt lat="49.31042" lon="-1.23571">
        <ele>6.209816</ele>
        <time>2022-08-01T14:12:08.000Z</time>
      </trkpt>
      <trkpt lat="49.31039" lon="-1.23574">
        <ele>6.21873</ele>
        <time>2022-08-01T14:12:09.000Z</time>
      </trkpt>
      <trkpt lat="49.31037" lon="-1.23577">
        <ele>6.226943</ele>
        <time>2022-08-01T14:12:10.000Z</time>
      </trkpt>
      <trkpt lat="49.31035" lon="-1.2358">
        <ele>6.234374</ele>
        <time>2022-08-01T14:12:11.000Z</time>
      </trkpt>
      <trkpt lat="49.31032" lon="-1.23583">
        <ele>6.242212</ele>
        <time>2022-08-01T14:12:12.000Z</time>
      </trkpt>
      <trkpt lat="49.31029" lon="-1.23587">
        <ele>6.251328</ele>
        <time>2022-08-01T14:12:13.000Z</time>
      </trkpt>
      <trkpt lat="49.31027" lon="-1.2359">
        <ele>6.25934</ele>
        <time>2022-08-01T14:12:14.000Z</time>
      </trkpt>
      <trkpt lat="49.31024" lon="-1.23592">
        <ele>6.26736</ele>
        <time>2022-08-01T14:12:15.000Z</time>
      </trkpt>
      <trkpt lat="49.31021" lon="-1.23595">
        <ele>6.27619</ele>
        <time>2022-08-01T14:12:16.000Z</time>
      </trkpt>
      <trkpt lat="49.31019" lon="-1.23599">
        <ele>6.285204</ele>
        <time>2022-08-01T14:12:17.000Z</time>
      </trkpt>
      <trkpt lat="49.31016" lon="-1.23602">
        <ele>6.294519</ele>
        <time>2022-08-01T14:12:18.000Z</time>
      </trkpt>
      <trkpt lat="49.31013" lon="-1.23606">
        <ele>6.30247</ele>
        <time>2022-08-01T14:12:19.000Z</time>
      </trkpt>
      <trkpt lat="49.31011" lon="-1.23609">
        <ele>6.311284</ele>
        <time>2022-08-01T14:12:20.000Z</time>
      </trkpt>
      <trkpt lat="49.31008" lon="-1.23612">
        <ele>6.319934</ele>
        <time>2022-08-01T14:12:21.000Z</time>
      </trkpt>
      <trkpt lat="49.31005" lon="-1.23615">
        <ele>6.328764</ele>
        <time>2022-08-01T14:12:22.000Z</time>
      </trkpt>
      <trkpt lat="49.31002" lon="-1.23618">
        <ele>6.338079</ele>
        <time>2022-08-01T14:12:23.000Z</time>
      </trkpt>
      <trkpt lat="49.30999" lon="-1.23622">
        <ele>6.346623</ele>
        <time>2022-08-01T14:12:24.000Z</time>
      </trkpt>
      <trkpt lat="49.30997" lon="-1.23625">
        <ele>6.355142</ele>
        <time>2022-08-01T14:12:25.000Z</time>
      </trkpt>
      <trkpt lat="49.30994" lon="-1.23628">
        <ele>6.363972</ele>
        <time>2022-08-01T14:12:26.000Z</time>
      </trkpt>
      <trkpt lat="49.30991" lon="-1.23631">
        <ele>6.372711</ele>
        <time>2022-08-01T14:12:27.000Z</time>
      </trkpt>
      <trkpt lat="49.30988" lon="-1.23634">
        <ele>6.381149</ele>
        <time>2022-08-01T14:12:28.000Z</time>
      </trkpt>
      <trkpt lat="49.30986" lon="-1.23637">
        <ele>6.389881</ele>
        <time>2022-08-01T14:12:29.000Z</time>
      </trkpt>
      <trkpt lat="49.30983" lon="-1.23641">
        <ele>6.398614</ele>
        <time>2022-08-01T14:12:30.000Z</time>
      </trkpt>
      <trkpt lat="49.3098" lon="-1.23644">
        <ele>6.407943</ele>
        <time>2022-08-01T14:12:31.000Z</time>
      </trkpt>
      <trkpt lat="49.30978" lon="-1.23648">
        <ele>6.416462</ele>
        <time>2022-08-01T14:12:32.000Z</time>
      </trkpt>
      <trkpt lat="49.30975" lon="-1.2365">
        <ele>6.424481</ele>
        <time>2022-08-01T14:12:33.000Z</time>
      </trkpt>
      <trkpt lat="49.30972" lon="-1.23653">
        <ele>6.433864</ele>
        <time>2022-08-01T14:12:34.000Z</time>
      </trkpt>
      <trkpt lat="49.30969" lon="-1.23656">
        <ele>6.441877</ele>
        <time>2022-08-01T14:12:35.000Z</time>
      </trkpt>
      <trkpt lat="49.30967" lon="-1.23659">
        <ele>6.450089</ele>
        <time>2022-08-01T14:12:36.000Z</time>
      </trkpt>
      <trkpt lat="49.30964" lon="-1.23663">
        <ele>6.458416</ele>
        <time>2022-08-01T14:12:37.000Z</time>
      </trkpt>
      <trkpt lat="49.30962" lon="-1.23666">
        <ele>6.46683</ele>
        <time>2022-08-01T14:12:38.000Z</time>
      </trkpt>
      <trkpt lat="49.30959" lon="-1.23669">
        <ele>6.475043</ele>
        <time>2022-08-01T14:12:39.000Z</time>
      </trkpt>
      <trkpt lat="49.30957" lon="-1.23672">
        <ele>6.482811</ele>
        <time>2022-08-01T14:12:40.000Z</time>
      </trkpt>
      <trkpt lat="49.30954" lon="-1.23675">
        <ele>6.491641</ele>
        <time>2022-08-01T14:12:41.000Z</time>
      </trkpt>
      <trkpt lat="49.30951" lon="-1.23678">
        <ele>6.499654</ele>
        <time>2022-08-01T14:12:42.000Z</time>
      </trkpt>
      <trkpt lat="49.30949" lon="-1.23681">
        <ele>6.506965</ele>
        <time>2022-08-01T14:12:43.000Z</time>
      </trkpt>
      <trkpt lat="49.30947" lon="-1.23683">
        <ele>6.513976</ele>
        <time>2022-08-01T14:12:44.000Z</time>
      </trkpt>
      <trkpt lat="49.30945" lon="-1.23686">
        <ele>6.520742</ele>
        <time>2022-08-01T14:12:45.000Z</time>
      </trkpt>
      <trkpt lat="49.30943" lon="-1.23689">
        <ele>6.527255</ele>
        <time>2022-08-01T14:12:46.000Z</time>
      </trkpt>
      <trkpt lat="49.30941" lon="-1.23691">
        <ele>6.533574</ele>
        <time>2022-08-01T14:12:47.000Z</time>
      </trkpt>
      <trkpt lat="49.30939" lon="-1.23694">
        <ele>6.540791</ele>
        <time>2022-08-01T14:12:48.000Z</time>
      </trkpt>
      <trkpt lat="49.30937" lon="-1.23697">
        <ele>6.547914</ele>
        <time>2022-08-01T14:12:49.000Z</time>
      </trkpt>
      <trkpt lat="49.30934" lon="-1.23701">
        <ele>6.556646</ele>
        <time>2022-08-01T14:12:50.000Z</time>
      </trkpt>
      <trkpt lat="49.30932" lon="-1.23704">
        <ele>6.564414</ele>
        <time>2022-08-01T14:12:51.000Z</time>
      </trkpt>
      <trkpt lat="49.3093" lon="-1.23707">
        <ele>6.572036</ele>
        <time>2022-08-01T14:12:52.000Z</time>
      </trkpt>
      <trkpt lat="49.30927" lon="-1.2371">
        <ele>6.579569</ele>
        <time>2022-08-01T14:12:53.000Z</time>
      </trkpt>
      <trkpt lat="49.30925" lon="-1.23712">
        <ele>6.5865</ele>
        <time>2022-08-01T14:12:54.000Z</time>
      </trkpt>
      <trkpt lat="49.30923" lon="-1.23715">
        <ele>6.594513</ele>
        <time>2022-08-01T14:12:55.000Z</time>
      </trkpt>
      <trkpt lat="49.3092" lon="-1.23718">
        <ele>6.602352</ele>
        <time>2022-08-01T14:12:56.000Z</time>
      </trkpt>
      <trkpt lat="49.30918" lon="-1.23721">
        <ele>6.609464</ele>
        <time>2022-08-01T14:12:57.000Z</time>
      </trkpt>
      <trkpt lat="49.30916" lon="-1.23723">
        <ele>6.616676</ele>
        <time>2022-08-01T14:12:58.000Z</time>
      </trkpt>
      <trkpt lat="49.30914" lon="-1.23726">
        <ele>6.623588</ele>
        <time>2022-08-01T14:12:59.000Z</time>
      </trkpt>
      <trkpt lat="49.30911" lon="-1.23728">
        <ele>6.630403</ele>
        <time>2022-08-01T14:13:00.000Z</time>
      </trkpt>
      <trkpt lat="49.30909" lon="-1.23731">
        <ele>6.636713</ele>
        <time>2022-08-01T14:13:01.000Z</time>
      </trkpt>
      <trkpt lat="49.30908" lon="-1.23733">
        <ele>6.642249</ele>
        <time>2022-08-01T14:13:02.000Z</time>
      </trkpt>
      <trkpt lat="49.30906" lon="-1.23735">
        <ele>6.648066</ele>
        <time>2022-08-01T14:13:03.000Z</time>
      </trkpt>
      <trkpt lat="49.30904" lon="-1.23737">
        <ele>6.653618</ele>
        <time>2022-08-01T14:13:04.000Z</time>
      </trkpt>
      <trkpt lat="49.30901" lon="-1.23738">
        <ele>6.660753</ele>
        <time>2022-08-01T14:13:05.000Z</time>
      </trkpt>
      <trkpt lat="49.30899" lon="-1.2374">
        <ele>6.644493</ele>
        <time>2022-08-01T14:13:06.000Z</time>
      </trkpt>
      <trkpt lat="49.30897" lon="-1.23742">
        <ele>6.624808</ele>
        <time>2022-08-01T14:13:07.000Z</time>
      </trkpt>
      <trkpt lat="49.30894" lon="-1.23745">
        <ele>6.606723</ele>
        <time>2022-08-01T14:13:08.000Z</time>
      </trkpt>
      <trkpt lat="49.30892" lon="-1.23747">
        <ele>6.58838</ele>
        <time>2022-08-01T14:13:09.000Z</time>
      </trkpt>
      <trkpt lat="49.3089" lon="-1.2375">
        <ele>6.57024</ele>
        <time>2022-08-01T14:13:10.000Z</time>
      </trkpt>
      <trkpt lat="49.30888" lon="-1.23754">
        <ele>6.549669</ele>
        <time>2022-08-01T14:13:11.000Z</time>
      </trkpt>
      <trkpt lat="49.30887" lon="-1.23758">
        <ele>6.530774</ele>
        <time>2022-08-01T14:13:12.000Z</time>
      </trkpt>
      <trkpt lat="49.30886" lon="-1.23762">
        <ele>6.510422</ele>
        <time>2022-08-01T14:13:13.000Z</time>
      </trkpt>
      <trkpt lat="49.30887" lon="-1.23766">
        <ele>6.492402</ele>
        <time>2022-08-01T14:13:14.000Z</time>
      </trkpt>
      <trkpt lat="49.30888" lon="-1.23771">
        <ele>6.472872</ele>
        <time>2022-08-01T14:13:15.000Z</time>
      </trkpt>
      <trkpt lat="49.30889" lon="-1.23775">
        <ele>6.453563</ele>
        <time>2022-08-01T14:13:16.000Z</time>
      </trkpt>
      <trkpt lat="49.3089" lon="-1.23779">
        <ele>6.434042</ele>
        <time>2022-08-01T14:13:17.000Z</time>
      </trkpt>
      <trkpt lat="49.3089" lon="-1.23783">
        <ele>6.414387</ele>
        <time>2022-08-01T14:13:18.000Z</time>
      </trkpt>
      <trkpt lat="49.3089" lon="-1.23788">
        <ele>6.39463</ele>
        <time>2022-08-01T14:13:19.000Z</time>
      </trkpt>
      <trkpt lat="49.30888" lon="-1.23792">
        <ele>6.373006</ele>
        <time>2022-08-01T14:13:20.000Z</time>
      </trkpt>
      <trkpt lat="49.30886" lon="-1.23796">
        <ele>6.350678</ele>
        <time>2022-08-01T14:13:21.000Z</time>
      </trkpt>
      <trkpt lat="49.30884" lon="-1.238">
        <ele>6.327054</ele>
        <time>2022-08-01T14:13:22.000Z</time>
      </trkpt>
      <trkpt lat="49.30881" lon="-1.23804">
        <ele>6.2994</ele>
        <time>2022-08-01T14:13:23.000Z</time>
      </trkpt>
      <trkpt lat="49.30878" lon="-1.23808">
        <ele>6.276543</ele>
        <time>2022-08-01T14:13:24.000Z</time>
      </trkpt>
      <trkpt lat="49.30876" lon="-1.23812">
        <ele>6.250415</ele>
        <time>2022-08-01T14:13:25.000Z</time>
      </trkpt>
      <trkpt lat="49.30873" lon="-1.23816">
        <ele>6.225145</ele>
        <time>2022-08-01T14:13:26.000Z</time>
      </trkpt>
      <trkpt lat="49.3087" lon="-1.2382">
        <ele>6.202469</ele>
        <time>2022-08-01T14:13:27.000Z</time>
      </trkpt>
      <trkpt lat="49.30868" lon="-1.23823">
        <ele>6.179861</ele>
        <time>2022-08-01T14:13:28.000Z</time>
      </trkpt>
      <trkpt lat="49.30865" lon="-1.23826">
        <ele>6.15514</ele>
        <time>2022-08-01T14:13:29.000Z</time>
      </trkpt>
      <trkpt lat="49.30862" lon="-1.2383">
        <ele>6.130382</ele>
        <time>2022-08-01T14:13:30.000Z</time>
      </trkpt>
      <trkpt lat="49.30859" lon="-1.23834">
        <ele>6.105661</ele>
        <time>2022-08-01T14:13:31.000Z</time>
      </trkpt>
      <trkpt lat="49.30856" lon="-1.23837">
        <ele>6.080109</ele>
        <time>2022-08-01T14:13:32.000Z</time>
      </trkpt>
      <trkpt lat="49.30853" lon="-1.23841">
        <ele>6.053779</ele>
        <time>2022-08-01T14:13:33.000Z</time>
      </trkpt>
      <trkpt lat="49.3085" lon="-1.23844">
        <ele>6.029059</ele>
        <time>2022-08-01T14:13:34.000Z</time>
      </trkpt>
      <trkpt lat="49.30846" lon="-1.23848">
        <ele>6.001068</ele>
        <time>2022-08-01T14:13:35.000Z</time>
      </trkpt>
      <trkpt lat="49.30843" lon="-1.23851">
        <ele>5.974739</ele>
        <time>2022-08-01T14:13:36.000Z</time>
      </trkpt>
      <trkpt lat="49.30841" lon="-1.23855">
        <ele>5.950979</ele>
        <time>2022-08-01T14:13:37.000Z</time>
      </trkpt>
      <trkpt lat="49.30838" lon="-1.23859">
        <ele>5.92622</ele>
        <time>2022-08-01T14:13:38.000Z</time>
      </trkpt>
      <trkpt lat="49.30835" lon="-1.23862">
        <ele>5.901227</ele>
        <time>2022-08-01T14:13:39.000Z</time>
      </trkpt>
      <trkpt lat="49.30832" lon="-1.23866">
        <ele>5.876506</ele>
        <time>2022-08-01T14:13:40.000Z</time>
      </trkpt>
      <trkpt lat="49.30829" lon="-1.2387">
        <ele>5.850668</ele>
        <time>2022-08-01T14:13:41.000Z</time>
      </trkpt>
      <trkpt lat="49.30827" lon="-1.23874">
        <ele>5.826149</ele>
        <time>2022-08-01T14:13:42.000Z</time>
      </trkpt>
      <trkpt lat="49.30824" lon="-1.23878">
        <ele>5.802192</ele>
        <time>2022-08-01T14:13:43.000Z</time>
      </trkpt>
      <trkpt lat="49.30822" lon="-1.23882">
        <ele>5.777991</ele>
        <time>2022-08-01T14:13:44.000Z</time>
      </trkpt>
      <trkpt lat="49.30819" lon="-1.23886">
        <ele>5.75327</ele>
        <time>2022-08-01T14:13:45.000Z</time>
      </trkpt>
      <trkpt lat="49.30816" lon="-1.23889">
        <ele>5.729079</ele>
        <time>2022-08-01T14:13:46.000Z</time>
      </trkpt>
      <trkpt lat="49.30813" lon="-1.23892">
        <ele>5.70275</ele>
        <time>2022-08-01T14:13:47.000Z</time>
      </trkpt>
      <trkpt lat="49.3081" lon="-1.23896">
        <ele>5.678029</ele>
        <time>2022-08-01T14:13:48.000Z</time>
      </trkpt>
      <trkpt lat="49.30807" lon="-1.239">
        <ele>5.654141</ele>
        <time>2022-08-01T14:13:49.000Z</time>
      </trkpt>
      <trkpt lat="49.30806" lon="-1.23904">
        <ele>5.634228</ele>
        <time>2022-08-01T14:13:50.000Z</time>
      </trkpt>
      <trkpt lat="49.30805" lon="-1.23908">
        <ele>5.615293</ele>
        <time>2022-08-01T14:13:51.000Z</time>
      </trkpt>
      <trkpt lat="49.30806" lon="-1.23912">
        <ele>5.598466</ele>
        <time>2022-08-01T14:13:52.000Z</time>
      </trkpt>
      <trkpt lat="49.30807" lon="-1.23915">
        <ele>5.584831</ele>
        <time>2022-08-01T14:13:53.000Z</time>
      </trkpt>
      <trkpt lat="49.30809" lon="-1.23916">
        <ele>5.571791</ele>
        <time>2022-08-01T14:13:54.000Z</time>
      </trkpt>
      <trkpt lat="49.30811" lon="-1.23917">
        <ele>5.558139</ele>
        <time>2022-08-01T14:13:55.000Z</time>
      </trkpt>
      <trkpt lat="49.30814" lon="-1.23916">
        <ele>5.534289</ele>
        <time>2022-08-01T14:13:57.000Z</time>
      </trkpt>
      <trkpt lat="49.30817" lon="-1.23915">
        <ele>5.517337</ele>
        <time>2022-08-01T14:13:58.000Z</time>
      </trkpt>
      <trkpt lat="49.3082" lon="-1.23914">
        <ele>5.49546</ele>
        <time>2022-08-01T14:13:59.000Z</time>
      </trkpt>
      <trkpt lat="49.30823" lon="-1.23913">
        <ele>5.475639</ele>
        <time>2022-08-01T14:14:00.000Z</time>
      </trkpt>
      <trkpt lat="49.30827" lon="-1.23912">
        <ele>5.456062</ele>
        <time>2022-08-01T14:14:01.000Z</time>
      </trkpt>
      <trkpt lat="49.3083" lon="-1.23912">
        <ele>5.456062</ele>
        <time>2022-08-01T14:14:02.000Z</time>
      </trkpt>
      <trkpt lat="49.30835" lon="-1.23911">
        <ele>5.456062</ele>
        <time>2022-08-01T14:14:03.000Z</time>
      </trkpt>
      <trkpt lat="49.30839" lon="-1.23911">
        <ele>5.456062</ele>
        <time>2022-08-01T14:14:04.000Z</time>
      </trkpt>
      <trkpt lat="49.30843" lon="-1.23911">
        <ele>5.456062</ele>
        <time>2022-08-01T14:14:05.000Z</time>
      </trkpt>
      <trkpt lat="49.30847" lon="-1.23911">
        <ele>5.456062</ele>
        <time>2022-08-01T14:14:06.000Z</time>
      </trkpt>
      <trkpt lat="49.30852" lon="-1.23911">
        <ele>5.456062</ele>
        <time>2022-08-01T14:14:07.000Z</time>
      </trkpt>
      <trkpt lat="49.30856" lon="-1.23911">
        <ele>5.456062</ele>
        <time>2022-08-01T14:14:08.000Z</time>
      </trkpt>
      <trkpt lat="49.3086" lon="-1.23911">
        <ele>5.456062</ele>
        <time>2022-08-01T14:14:09.000Z</time>
      </trkpt>
      <trkpt lat="49.30864" lon="-1.23911">
        <ele>5.456062</ele>
        <time>2022-08-01T14:14:10.000Z</time>
      </trkpt>
      <trkpt lat="49.30868" lon="-1.23911">
        <ele>5.456062</ele>
        <time>2022-08-01T14:14:11.000Z</time>
      </trkpt>
      <trkpt lat="49.30871" lon="-1.23911">
        <ele>5.456062</ele>
        <time>2022-08-01T14:14:12.000Z</time>
      </trkpt>
      <trkpt lat="49.30874" lon="-1.23911">
        <ele>5.456062</ele>
        <time>2022-08-01T14:14:13.000Z</time>
      </trkpt>
      <trkpt lat="49.30878" lon="-1.2391">
        <ele>5.456062</ele>
        <time>2022-08-01T14:14:14.000Z</time>
      </trkpt>
      <trkpt lat="49.30881" lon="-1.2391">
        <ele>5.456062</ele>
        <time>2022-08-01T14:14:15.000Z</time>
      </trkpt>
      <trkpt lat="49.30884" lon="-1.2391">
        <ele>5.456062</ele>
        <time>2022-08-01T14:14:16.000Z</time>
      </trkpt>
      <trkpt lat="49.30887" lon="-1.2391">
        <ele>5.456062</ele>
        <time>2022-08-01T14:14:17.000Z</time>
      </trkpt>
      <trkpt lat="49.3089" lon="-1.23911">
        <ele>5.456062</ele>
        <time>2022-08-01T14:14:18.000Z</time>
      </trkpt>
      <trkpt lat="49.30893" lon="-1.23911">
        <ele>5.456062</ele>
        <time>2022-08-01T14:14:19.000Z</time>
      </trkpt>
      <trkpt lat="49.30896" lon="-1.23911">
        <ele>5.456062</ele>
        <time>2022-08-01T14:14:20.000Z</time>
      </trkpt>
      <trkpt lat="49.309" lon="-1.23911">
        <ele>5.456062</ele>
        <time>2022-08-01T14:14:21.000Z</time>
      </trkpt>
      <trkpt lat="49.30902" lon="-1.23911">
        <ele>5.456062</ele>
        <time>2022-08-01T14:14:22.000Z</time>
      </trkpt>
      <trkpt lat="49.30906" lon="-1.23911">
        <ele>5.456062</ele>
        <time>2022-08-01T14:14:23.000Z</time>
      </trkpt>
      <trkpt lat="49.3091" lon="-1.2391">
        <ele>5.456062</ele>
        <time>2022-08-01T14:14:24.000Z</time>
      </trkpt>
      <trkpt lat="49.30914" lon="-1.2391">
        <ele>5.456062</ele>
        <time>2022-08-01T14:14:25.000Z</time>
      </trkpt>
      <trkpt lat="49.30917" lon="-1.2391">
        <ele>5.456062</ele>
        <time>2022-08-01T14:14:26.000Z</time>
      </trkpt>
      <trkpt lat="49.30921" lon="-1.2391">
        <ele>5.456062</ele>
        <time>2022-08-01T14:14:27.000Z</time>
      </trkpt>
      <trkpt lat="49.30925" lon="-1.2391">
        <ele>5.456062</ele>
        <time>2022-08-01T14:14:28.000Z</time>
      </trkpt>
      <trkpt lat="49.30929" lon="-1.2391">
        <ele>5.456062</ele>
        <time>2022-08-01T14:14:29.000Z</time>
      </trkpt>
      <trkpt lat="49.30933" lon="-1.2391">
        <ele>5.456062</ele>
        <time>2022-08-01T14:14:30.000Z</time>
      </trkpt>
      <trkpt lat="49.30936" lon="-1.2391">
        <ele>5.456062</ele>
        <time>2022-08-01T14:14:31.000Z</time>
      </trkpt>
      <trkpt lat="49.3094" lon="-1.2391">
        <ele>5.456062</ele>
        <time>2022-08-01T14:14:32.000Z</time>
      </trkpt>
      <trkpt lat="49.30944" lon="-1.2391">
        <ele>5.456062</ele>
        <time>2022-08-01T14:14:33.000Z</time>
      </trkpt>
      <trkpt lat="49.30948" lon="-1.2391">
        <ele>5.456062</ele>
        <time>2022-08-01T14:14:34.000Z</time>
      </trkpt>
      <trkpt lat="49.30951" lon="-1.2391">
        <ele>5.456062</ele>
        <time>2022-08-01T14:14:35.000Z</time>
      </trkpt>
      <trkpt lat="49.30955" lon="-1.23909">
        <ele>5.456062</ele>
        <time>2022-08-01T14:14:36.000Z</time>
      </trkpt>
      <trkpt lat="49.30958" lon="-1.23909">
        <ele>5.456062</ele>
        <time>2022-08-01T14:14:37.000Z</time>
      </trkpt>
      <trkpt lat="49.30962" lon="-1.23909">
        <ele>5.456062</ele>
        <time>2022-08-01T14:14:38.000Z</time>
      </trkpt>
      <trkpt lat="49.30965" lon="-1.23909">
        <ele>5.456062</ele>
        <time>2022-08-01T14:14:39.000Z</time>
      </trkpt>
      <trkpt lat="49.30969" lon="-1.23909">
        <ele>5.456062</ele>
        <time>2022-08-01T14:14:40.000Z</time>
      </trkpt>
      <trkpt lat="49.30972" lon="-1.23909">
        <ele>5.456062</ele>
        <time>2022-08-01T14:14:41.000Z</time>
      </trkpt>
      <trkpt lat="49.30975" lon="-1.23909">
        <ele>5.456062</ele>
        <time>2022-08-01T14:14:42.000Z</time>
      </trkpt>
      <trkpt lat="49.30978" lon="-1.2391">
        <ele>5.456062</ele>
        <time>2022-08-01T14:14:43.000Z</time>
      </trkpt>
      <trkpt lat="49.3098" lon="-1.2391">
        <ele>5.456062</ele>
        <time>2022-08-01T14:14:44.000Z</time>
      </trkpt>
      <trkpt lat="49.30981" lon="-1.2391">
        <ele>5.456062</ele>
        <time>2022-08-01T14:14:45.000Z</time>
      </trkpt>
      <trkpt lat="49.30983" lon="-1.23907">
        <ele>5.456062</ele>
        <time>2022-08-01T14:14:47.000Z</time>
      </trkpt>
      <trkpt lat="49.30983" lon="-1.23903">
        <ele>5.456062</ele>
        <time>2022-08-01T14:14:49.000Z</time>
      </trkpt>
      <trkpt lat="49.30985" lon="-1.23901">
        <ele>5.456062</ele>
        <time>2022-08-01T14:15:37.000Z</time>
      </trkpt>
      <trkpt lat="49.30987" lon="-1.23905">
        <ele>5.456062</ele>
        <time>2022-08-01T14:15:39.000Z</time>
      </trkpt>
      <trkpt lat="49.30988" lon="-1.23908">
        <ele>5.456062</ele>
        <time>2022-08-01T14:15:41.000Z</time>
      </trkpt>
      <trkpt lat="49.30974" lon="-1.23898">
        <ele>3.531215</ele>
        <time>2022-08-02T08:28:16.000Z</time>
      </trkpt>
      <trkpt lat="49.30972" lon="-1.239">
        <ele>3.531215</ele>
        <time>2022-08-02T08:28:30.000Z</time>
      </trkpt>
      <trkpt lat="49.3097" lon="-1.23902">
        <ele>3.531215</ele>
        <time>2022-08-02T08:28:31.000Z</time>
      </trkpt>
      <trkpt lat="49.30968" lon="-1.23904">
        <ele>3.531215</ele>
        <time>2022-08-02T08:28:32.000Z</time>
      </trkpt>
      <trkpt lat="49.30966" lon="-1.23905">
        <ele>3.531215</ele>
        <time>2022-08-02T08:28:33.000Z</time>
      </trkpt>
      <trkpt lat="49.30964" lon="-1.23905">
        <ele>3.531215</ele>
        <time>2022-08-02T08:28:34.000Z</time>
      </trkpt>
      <trkpt lat="49.30962" lon="-1.23905">
        <ele>3.531215</ele>
        <time>2022-08-02T08:28:35.000Z</time>
      </trkpt>
      <trkpt lat="49.30959" lon="-1.23906">
        <ele>3.531215</ele>
        <time>2022-08-02T08:28:36.000Z</time>
      </trkpt>
      <trkpt lat="49.30956" lon="-1.23906">
        <ele>3.531215</ele>
        <time>2022-08-02T08:28:37.000Z</time>
      </trkpt>
      <trkpt lat="49.30951" lon="-1.23907">
        <ele>3.531215</ele>
        <time>2022-08-02T08:28:38.000Z</time>
      </trkpt>
      <trkpt lat="49.30948" lon="-1.23907">
        <ele>3.531215</ele>
        <time>2022-08-02T08:28:39.000Z</time>
      </trkpt>
      <trkpt lat="49.30943" lon="-1.23908">
        <ele>3.531215</ele>
        <time>2022-08-02T08:28:40.000Z</time>
      </trkpt>
      <trkpt lat="49.3094" lon="-1.23908">
        <ele>3.531215</ele>
        <time>2022-08-02T08:28:41.000Z</time>
      </trkpt>
      <trkpt lat="49.30934" lon="-1.23908">
        <ele>3.531215</ele>
        <time>2022-08-02T08:28:42.000Z</time>
      </trkpt>
      <trkpt lat="49.3093" lon="-1.23909">
        <ele>3.531215</ele>
        <time>2022-08-02T08:28:43.000Z</time>
      </trkpt>
      <trkpt lat="49.30925" lon="-1.23909">
        <ele>3.531215</ele>
        <time>2022-08-02T08:28:44.000Z</time>
      </trkpt>
      <trkpt lat="49.3092" lon="-1.23909">
        <ele>3.531215</ele>
        <time>2022-08-02T08:28:45.000Z</time>
      </trkpt>
      <trkpt lat="49.30915" lon="-1.23909">
        <ele>3.531215</ele>
        <time>2022-08-02T08:28:46.000Z</time>
      </trkpt>
      <trkpt lat="49.3091" lon="-1.23909">
        <ele>3.531215</ele>
        <time>2022-08-02T08:28:47.000Z</time>
      </trkpt>
      <trkpt lat="49.30905" lon="-1.23909">
        <ele>3.531215</ele>
        <time>2022-08-02T08:28:48.000Z</time>
      </trkpt>
      <trkpt lat="49.309" lon="-1.2391">
        <ele>3.531215</ele>
        <time>2022-08-02T08:28:49.000Z</time>
      </trkpt>
      <trkpt lat="49.30895" lon="-1.2391">
        <ele>3.531215</ele>
        <time>2022-08-02T08:28:50.000Z</time>
      </trkpt>
      <trkpt lat="49.3089" lon="-1.23909">
        <ele>3.531215</ele>
        <time>2022-08-02T08:28:51.000Z</time>
      </trkpt>
      <trkpt lat="49.30885" lon="-1.23909">
        <ele>3.53473</ele>
        <time>2022-08-02T08:28:52.000Z</time>
      </trkpt>
      <trkpt lat="49.3088" lon="-1.23909">
        <ele>3.563908</ele>
        <time>2022-08-02T08:28:53.000Z</time>
      </trkpt>
      <trkpt lat="49.30875" lon="-1.23909">
        <ele>3.596781</ele>
        <time>2022-08-02T08:28:54.000Z</time>
      </trkpt>
      <trkpt lat="49.3087" lon="-1.2391">
        <ele>3.626046</ele>
        <time>2022-08-02T08:28:55.000Z</time>
      </trkpt>
      <trkpt lat="49.30864" lon="-1.2391">
        <ele>3.659504</ele>
        <time>2022-08-02T08:28:56.000Z</time>
      </trkpt>
      <trkpt lat="49.3086" lon="-1.2391">
        <ele>3.688683</ele>
        <time>2022-08-02T08:28:57.000Z</time>
      </trkpt>
      <trkpt lat="49.30854" lon="-1.2391">
        <ele>3.719696</ele>
        <time>2022-08-02T08:28:58.000Z</time>
      </trkpt>
      <trkpt lat="49.3085" lon="-1.23909">
        <ele>3.748907</ele>
        <time>2022-08-02T08:28:59.000Z</time>
      </trkpt>
      <trkpt lat="49.30845" lon="-1.23909">
        <ele>3.779961</ele>
        <time>2022-08-02T08:29:00.000Z</time>
      </trkpt>
      <trkpt lat="49.3084" lon="-1.23909">
        <ele>3.807308</ele>
        <time>2022-08-02T08:29:01.000Z</time>
      </trkpt>
      <trkpt lat="49.30835" lon="-1.23909">
        <ele>3.836476</ele>
        <time>2022-08-02T08:29:02.000Z</time>
      </trkpt>
      <trkpt lat="49.30831" lon="-1.23909">
        <ele>3.863846</ele>
        <time>2022-08-02T08:29:03.000Z</time>
      </trkpt>
      <trkpt lat="49.30826" lon="-1.23909">
        <ele>3.891202</ele>
        <time>2022-08-02T08:29:04.000Z</time>
      </trkpt>
      <trkpt lat="49.30822" lon="-1.23909">
        <ele>3.917942</ele>
        <time>2022-08-02T08:29:05.000Z</time>
      </trkpt>
      <trkpt lat="49.30817" lon="-1.2391">
        <ele>3.945518</ele>
        <time>2022-08-02T08:29:06.000Z</time>
      </trkpt>
      <trkpt lat="49.30813" lon="-1.23911">
        <ele>3.971409</ele>
        <time>2022-08-02T08:29:07.000Z</time>
      </trkpt>
      <trkpt lat="49.30809" lon="-1.23913">
        <ele>3.995822</ele>
        <time>2022-08-02T08:29:08.000Z</time>
      </trkpt>
      <trkpt lat="49.30805" lon="-1.23916">
        <ele>4.021357</ele>
        <time>2022-08-02T08:29:09.000Z</time>
      </trkpt>
      <trkpt lat="49.30802" lon="-1.23918">
        <ele>4.044495</ele>
        <time>2022-08-02T08:29:10.000Z</time>
      </trkpt>
      <trkpt lat="49.30798" lon="-1.23921">
        <ele>4.070113</ele>
        <time>2022-08-02T08:29:11.000Z</time>
      </trkpt>
      <trkpt lat="49.30794" lon="-1.23924">
        <ele>4.096989</ele>
        <time>2022-08-02T08:29:12.000Z</time>
      </trkpt>
      <trkpt lat="49.30791" lon="-1.23928">
        <ele>4.12282</ele>
        <time>2022-08-02T08:29:13.000Z</time>
      </trkpt>
      <trkpt lat="49.30787" lon="-1.23932">
        <ele>4.149582</ele>
        <time>2022-08-02T08:29:14.000Z</time>
      </trkpt>
      <trkpt lat="49.30784" lon="-1.23937">
        <ele>4.177059</ele>
        <time>2022-08-02T08:29:15.000Z</time>
      </trkpt>
      <trkpt lat="49.30781" lon="-1.23942">
        <ele>4.206395</ele>
        <time>2022-08-02T08:29:16.000Z</time>
      </trkpt>
      <trkpt lat="49.30777" lon="-1.23948">
        <ele>4.237106</ele>
        <time>2022-08-02T08:29:17.000Z</time>
      </trkpt>
      <trkpt lat="49.30775" lon="-1.23954">
        <ele>4.266312</ele>
        <time>2022-08-02T08:29:18.000Z</time>
      </trkpt>
      <trkpt lat="49.30772" lon="-1.23961">
        <ele>4.299217</ele>
        <time>2022-08-02T08:29:19.000Z</time>
      </trkpt>
      <trkpt lat="49.30769" lon="-1.23968">
        <ele>4.329293</ele>
        <time>2022-08-02T08:29:20.000Z</time>
      </trkpt>
      <trkpt lat="49.30767" lon="-1.23975">
        <ele>4.360434</ele>
        <time>2022-08-02T08:29:21.000Z</time>
      </trkpt>
      <trkpt lat="49.30765" lon="-1.23982">
        <ele>4.392171</ele>
        <time>2022-08-02T08:29:22.000Z</time>
      </trkpt>
      <trkpt lat="49.30765" lon="-1.2399">
        <ele>4.422774</ele>
        <time>2022-08-02T08:29:23.000Z</time>
      </trkpt>
      <trkpt lat="49.30764" lon="-1.23997">
        <ele>4.453104</ele>
        <time>2022-08-02T08:29:24.000Z</time>
      </trkpt>
      <trkpt lat="49.30763" lon="-1.24005">
        <ele>4.483827</ele>
        <time>2022-08-02T08:29:25.000Z</time>
      </trkpt>
      <trkpt lat="49.30762" lon="-1.24013">
        <ele>4.514629</ele>
        <time>2022-08-02T08:29:26.000Z</time>
      </trkpt>
      <trkpt lat="49.30761" lon="-1.2402">
        <ele>4.544064</ele>
        <time>2022-08-02T08:29:27.000Z</time>
      </trkpt>
      <trkpt lat="49.30761" lon="-1.24027">
        <ele>4.570671</ele>
        <time>2022-08-02T08:29:28.000Z</time>
      </trkpt>
      <trkpt lat="49.30762" lon="-1.24033">
        <ele>4.594721</ele>
        <time>2022-08-02T08:29:29.000Z</time>
      </trkpt>
      <trkpt lat="49.30764" lon="-1.24037">
        <ele>4.61884</ele>
        <time>2022-08-02T08:29:30.000Z</time>
      </trkpt>
      <trkpt lat="49.30767" lon="-1.24042">
        <ele>4.621791</ele>
        <time>2022-08-02T08:29:31.000Z</time>
      </trkpt>
      <trkpt lat="49.30769" lon="-1.24047">
        <ele>4.619351</ele>
        <time>2022-08-02T08:29:32.000Z</time>
      </trkpt>
      <trkpt lat="49.3077" lon="-1.24052">
        <ele>4.61667</ele>
        <time>2022-08-02T08:29:33.000Z</time>
      </trkpt>
      <trkpt lat="49.30769" lon="-1.24058">
        <ele>4.613915</ele>
        <time>2022-08-02T08:29:34.000Z</time>
      </trkpt>
      <trkpt lat="49.30767" lon="-1.24064">
        <ele>4.611084</ele>
        <time>2022-08-02T08:29:35.000Z</time>
      </trkpt>
      <trkpt lat="49.30765" lon="-1.24068">
        <ele>4.60827</ele>
        <time>2022-08-02T08:29:36.000Z</time>
      </trkpt>
      <trkpt lat="49.3076" lon="-1.24072">
        <ele>4.604936</ele>
        <time>2022-08-02T08:29:37.000Z</time>
      </trkpt>
      <trkpt lat="49.30756" lon="-1.24074">
        <ele>4.601548</ele>
        <time>2022-08-02T08:29:38.000Z</time>
      </trkpt>
      <trkpt lat="49.30752" lon="-1.24076">
        <ele>4.598958</ele>
        <time>2022-08-02T08:29:39.000Z</time>
      </trkpt>
      <trkpt lat="49.30749" lon="-1.24077">
        <ele>4.596261</ele>
        <time>2022-08-02T08:29:40.000Z</time>
      </trkpt>
      <trkpt lat="49.30744" lon="-1.24079">
        <ele>4.593263</ele>
        <time>2022-08-02T08:29:41.000Z</time>
      </trkpt>
      <trkpt lat="49.30739" lon="-1.2408">
        <ele>4.589631</ele>
        <time>2022-08-02T08:29:42.000Z</time>
      </trkpt>
      <trkpt lat="49.30735" lon="-1.24082">
        <ele>4.586601</ele>
        <time>2022-08-02T08:29:43.000Z</time>
      </trkpt>
      <trkpt lat="49.30733" lon="-1.24084">
        <ele>4.584729</ele>
        <time>2022-08-02T08:29:44.000Z</time>
      </trkpt>
      <trkpt lat="49.30729" lon="-1.24086">
        <ele>4.58183</ele>
        <time>2022-08-02T08:29:45.000Z</time>
      </trkpt>
      <trkpt lat="49.30725" lon="-1.24088">
        <ele>4.579117</ele>
        <time>2022-08-02T08:29:46.000Z</time>
      </trkpt>
      <trkpt lat="49.30721" lon="-1.24092">
        <ele>4.575928</ele>
        <time>2022-08-02T08:29:47.000Z</time>
      </trkpt>
      <trkpt lat="49.30719" lon="-1.24095">
        <ele>4.573935</ele>
        <time>2022-08-02T08:29:48.000Z</time>
      </trkpt>
      <trkpt lat="49.30717" lon="-1.24097">
        <ele>4.571853</ele>
        <time>2022-08-02T08:29:49.000Z</time>
      </trkpt>
      <trkpt lat="49.30714" lon="-1.24099">
        <ele>4.569653</ele>
        <time>2022-08-02T08:29:50.000Z</time>
      </trkpt>
      <trkpt lat="49.30711" lon="-1.24101">
        <ele>4.567503</ele>
        <time>2022-08-02T08:29:51.000Z</time>
      </trkpt>
      <trkpt lat="49.30707" lon="-1.24103">
        <ele>4.564898</ele>
        <time>2022-08-02T08:29:52.000Z</time>
      </trkpt>
      <trkpt lat="49.30705" lon="-1.24105">
        <ele>4.562889</ele>
        <time>2022-08-02T08:29:53.000Z</time>
      </trkpt>
      <trkpt lat="49.30701" lon="-1.24107">
        <ele>4.560424</ele>
        <time>2022-08-02T08:29:54.000Z</time>
      </trkpt>
      <trkpt lat="49.30699" lon="-1.2411">
        <ele>4.55843</ele>
        <time>2022-08-02T08:29:55.000Z</time>
      </trkpt>
      <trkpt lat="49.30697" lon="-1.24112">
        <ele>4.556598</ele>
        <time>2022-08-02T08:29:56.000Z</time>
      </trkpt>
      <trkpt lat="49.30694" lon="-1.24113">
        <ele>4.554343</ele>
        <time>2022-08-02T08:29:58.000Z</time>
      </trkpt>
      <trkpt lat="49.30688" lon="-1.24109">
        <ele>4.549679</ele>
        <time>2022-08-02T08:30:33.000Z</time>
      </trkpt>
      <trkpt lat="49.30685" lon="-1.24106">
        <ele>4.547358</ele>
        <time>2022-08-02T08:30:34.000Z</time>
      </trkpt>
      <trkpt lat="49.30682" lon="-1.24103">
        <ele>4.544866</ele>
        <time>2022-08-02T08:30:35.000Z</time>
      </trkpt>
      <trkpt lat="49.30679" lon="-1.241">
        <ele>4.542565</ele>
        <time>2022-08-02T08:30:36.000Z</time>
      </trkpt>
      <trkpt lat="49.30677" lon="-1.24096">
        <ele>4.540207</ele>
        <time>2022-08-02T08:30:37.000Z</time>
      </trkpt>
      <trkpt lat="49.30675" lon="-1.24092">
        <ele>4.537861</ele>
        <time>2022-08-02T08:30:38.000Z</time>
      </trkpt>
      <trkpt lat="49.30673" lon="-1.24088">
        <ele>4.535755</ele>
        <time>2022-08-02T08:30:39.000Z</time>
      </trkpt>
      <trkpt lat="49.30671" lon="-1.24085">
        <ele>4.533992</ele>
        <time>2022-08-02T08:30:40.000Z</time>
      </trkpt>
      <trkpt lat="49.30669" lon="-1.24082">
        <ele>4.531875</ele>
        <time>2022-08-02T08:30:42.000Z</time>
      </trkpt>
      <trkpt lat="49.30668" lon="-1.24079">
        <ele>4.529973</ele>
        <time>2022-08-02T08:30:44.000Z</time>
      </trkpt>
      <trkpt lat="49.30666" lon="-1.24075">
        <ele>4.52794</ele>
        <time>2022-08-02T08:30:46.000Z</time>
      </trkpt>
      <trkpt lat="49.30665" lon="-1.24071">
        <ele>4.525938</ele>
        <time>2022-08-02T08:30:48.000Z</time>
      </trkpt>
      <trkpt lat="49.30663" lon="-1.24067">
        <ele>4.523752</ele>
        <time>2022-08-02T08:30:50.000Z</time>
      </trkpt>
      <trkpt lat="49.30661" lon="-1.24063">
        <ele>4.521574</ele>
        <time>2022-08-02T08:30:52.000Z</time>
      </trkpt>
      <trkpt lat="49.3066" lon="-1.24061">
        <ele>4.520047</ele>
        <time>2022-08-02T08:30:53.000Z</time>
      </trkpt>
      <trkpt lat="49.30659" lon="-1.24058">
        <ele>4.518627</ele>
        <time>2022-08-02T08:30:54.000Z</time>
      </trkpt>
      <trkpt lat="49.30658" lon="-1.24055">
        <ele>4.516989</ele>
        <time>2022-08-02T08:30:55.000Z</time>
      </trkpt>
      <trkpt lat="49.30656" lon="-1.24051">
        <ele>4.515196</ele>
        <time>2022-08-02T08:30:56.000Z</time>
      </trkpt>
      <trkpt lat="49.30655" lon="-1.24048">
        <ele>4.513364</ele>
        <time>2022-08-02T08:30:57.000Z</time>
      </trkpt>
      <trkpt lat="49.30653" lon="-1.24044">
        <ele>4.51123</ele>
        <time>2022-08-02T08:30:58.000Z</time>
      </trkpt>
      <trkpt lat="49.30652" lon="-1.24039">
        <ele>4.509019</ele>
        <time>2022-08-02T08:30:59.000Z</time>
      </trkpt>
      <trkpt lat="49.30651" lon="-1.24035">
        <ele>4.506942</ele>
        <time>2022-08-02T08:31:00.000Z</time>
      </trkpt>
      <trkpt lat="49.3065" lon="-1.24031">
        <ele>4.504787</ele>
        <time>2022-08-02T08:31:01.000Z</time>
      </trkpt>
      <trkpt lat="49.30649" lon="-1.24027">
        <ele>4.502862</ele>
        <time>2022-08-02T08:31:02.000Z</time>
      </trkpt>
      <trkpt lat="49.30648" lon="-1.24022">
        <ele>4.500665</ele>
        <time>2022-08-02T08:31:03.000Z</time>
      </trkpt>
      <trkpt lat="49.30647" lon="-1.24018">
        <ele>4.498451</ele>
        <time>2022-08-02T08:31:04.000Z</time>
      </trkpt>
      <trkpt lat="49.30646" lon="-1.24013">
        <ele>4.494354</ele>
        <time>2022-08-02T08:31:05.000Z</time>
      </trkpt>
      <trkpt lat="49.30645" lon="-1.24008">
        <ele>4.49056</ele>
        <time>2022-08-02T08:31:06.000Z</time>
      </trkpt>
      <trkpt lat="49.30644" lon="-1.24004">
        <ele>4.486257</ele>
        <time>2022-08-02T08:31:07.000Z</time>
      </trkpt>
      <trkpt lat="49.30642" lon="-1.23999">
        <ele>4.481844</ele>
        <time>2022-08-02T08:31:08.000Z</time>
      </trkpt>
      <trkpt lat="49.3064" lon="-1.23994">
        <ele>4.477498</ele>
        <time>2022-08-02T08:31:09.000Z</time>
      </trkpt>
      <trkpt lat="49.30638" lon="-1.2399">
        <ele>4.473009</ele>
        <time>2022-08-02T08:31:10.000Z</time>
      </trkpt>
      <trkpt lat="49.30636" lon="-1.23986">
        <ele>4.468859</ele>
        <time>2022-08-02T08:31:11.000Z</time>
      </trkpt>
      <trkpt lat="49.30633" lon="-1.2398">
        <ele>4.462672</ele>
        <time>2022-08-02T08:31:12.000Z</time>
      </trkpt>
      <trkpt lat="49.3063" lon="-1.23975">
        <ele>4.457591</ele>
        <time>2022-08-02T08:31:13.000Z</time>
      </trkpt>
      <trkpt lat="49.30626" lon="-1.23971">
        <ele>4.452374</ele>
        <time>2022-08-02T08:31:14.000Z</time>
      </trkpt>
      <trkpt lat="49.30622" lon="-1.23968">
        <ele>4.447029</ele>
        <time>2022-08-02T08:31:15.000Z</time>
      </trkpt>
      <trkpt lat="49.3062" lon="-1.23965">
        <ele>4.442609</ele>
        <time>2022-08-02T08:31:16.000Z</time>
      </trkpt>
      <trkpt lat="49.30616" lon="-1.23961">
        <ele>4.437406</ele>
        <time>2022-08-02T08:31:17.000Z</time>
      </trkpt>
      <trkpt lat="49.30613" lon="-1.23957">
        <ele>4.432452</ele>
        <time>2022-08-02T08:31:18.000Z</time>
      </trkpt>
      <trkpt lat="49.3061" lon="-1.23953">
        <ele>4.42783</ele>
        <time>2022-08-02T08:31:19.000Z</time>
      </trkpt>
      <trkpt lat="49.30608" lon="-1.23949">
        <ele>4.423112</ele>
        <time>2022-08-02T08:31:20.000Z</time>
      </trkpt>
      <trkpt lat="49.30605" lon="-1.23944">
        <ele>4.418062</ele>
        <time>2022-08-02T08:31:21.000Z</time>
      </trkpt>
      <trkpt lat="49.30602" lon="-1.23939">
        <ele>4.413082</ele>
        <time>2022-08-02T08:31:22.000Z</time>
      </trkpt>
      <trkpt lat="49.306" lon="-1.23934">
        <ele>4.408334</ele>
        <time>2022-08-02T08:31:23.000Z</time>
      </trkpt>
      <trkpt lat="49.30597" lon="-1.23929">
        <ele>4.403167</ele>
        <time>2022-08-02T08:31:24.000Z</time>
      </trkpt>
      <trkpt lat="49.30595" lon="-1.23924">
        <ele>4.397817</ele>
        <time>2022-08-02T08:31:25.000Z</time>
      </trkpt>
      <trkpt lat="49.30592" lon="-1.23918">
        <ele>4.392459</ele>
        <time>2022-08-02T08:31:26.000Z</time>
      </trkpt>
      <trkpt lat="49.3059" lon="-1.23913">
        <ele>4.387367</ele>
        <time>2022-08-02T08:31:27.000Z</time>
      </trkpt>
      <trkpt lat="49.30588" lon="-1.23908">
        <ele>4.382548</ele>
        <time>2022-08-02T08:31:28.000Z</time>
      </trkpt>
      <trkpt lat="49.30585" lon="-1.23904">
        <ele>4.377326</ele>
        <time>2022-08-02T08:31:29.000Z</time>
      </trkpt>
      <trkpt lat="49.30582" lon="-1.23899">
        <ele>4.372512</ele>
        <time>2022-08-02T08:31:30.000Z</time>
      </trkpt>
      <trkpt lat="49.3058" lon="-1.23894">
        <ele>4.367698</ele>
        <time>2022-08-02T08:31:31.000Z</time>
      </trkpt>
      <trkpt lat="49.30578" lon="-1.23889">
        <ele>4.362814</ele>
        <time>2022-08-02T08:31:32.000Z</time>
      </trkpt>
      <trkpt lat="49.30575" lon="-1.23884">
        <ele>4.357592</ele>
        <time>2022-08-02T08:31:33.000Z</time>
      </trkpt>
      <trkpt lat="49.30573" lon="-1.23879">
        <ele>4.352974</ele>
        <time>2022-08-02T08:31:34.000Z</time>
      </trkpt>
      <trkpt lat="49.3057" lon="-1.23874">
        <ele>4.34787</ele>
        <time>2022-08-02T08:31:35.000Z</time>
      </trkpt>
      <trkpt lat="49.30568" lon="-1.23869">
        <ele>4.342967</ele>
        <time>2022-08-02T08:31:36.000Z</time>
      </trkpt>
      <trkpt lat="49.30565" lon="-1.23864">
        <ele>4.337626</ele>
        <time>2022-08-02T08:31:37.000Z</time>
      </trkpt>
      <trkpt lat="49.30563" lon="-1.23858">
        <ele>4.332133</ele>
        <time>2022-08-02T08:31:38.000Z</time>
      </trkpt>
      <trkpt lat="49.30562" lon="-1.23852">
        <ele>4.32688</ele>
        <time>2022-08-02T08:31:39.000Z</time>
      </trkpt>
      <trkpt lat="49.30561" lon="-1.23845">
        <ele>4.321317</ele>
        <time>2022-08-02T08:31:40.000Z</time>
      </trkpt>
      <trkpt lat="49.30562" lon="-1.23838">
        <ele>4.315754</ele>
        <time>2022-08-02T08:31:41.000Z</time>
      </trkpt>
      <trkpt lat="49.30562" lon="-1.23832">
        <ele>4.310356</ele>
        <time>2022-08-02T08:31:42.000Z</time>
      </trkpt>
      <trkpt lat="49.30564" lon="-1.23825">
        <ele>4.304811</ele>
        <time>2022-08-02T08:31:43.000Z</time>
      </trkpt>
      <trkpt lat="49.30565" lon="-1.23819">
        <ele>4.299538</ele>
        <time>2022-08-02T08:31:44.000Z</time>
      </trkpt>
      <trkpt lat="49.30567" lon="-1.23813">
        <ele>4.294216</ele>
        <time>2022-08-02T08:31:45.000Z</time>
      </trkpt>
      <trkpt lat="49.30568" lon="-1.23806">
        <ele>4.289119</ele>
        <time>2022-08-02T08:31:46.000Z</time>
      </trkpt>
      <trkpt lat="49.30568" lon="-1.238">
        <ele>4.284274</ele>
        <time>2022-08-02T08:31:47.000Z</time>
      </trkpt>
      <trkpt lat="49.30569" lon="-1.23794">
        <ele>4.27941</ele>
        <time>2022-08-02T08:31:48.000Z</time>
      </trkpt>
      <trkpt lat="49.3057" lon="-1.23788">
        <ele>4.272145</ele>
        <time>2022-08-02T08:31:49.000Z</time>
      </trkpt>
      <trkpt lat="49.30572" lon="-1.23783">
        <ele>4.265284</ele>
        <time>2022-08-02T08:31:50.000Z</time>
      </trkpt>
      <trkpt lat="49.30574" lon="-1.23779">
        <ele>4.258144</ele>
        <time>2022-08-02T08:31:51.000Z</time>
      </trkpt>
      <trkpt lat="49.30577" lon="-1.23775">
        <ele>4.251139</ele>
        <time>2022-08-02T08:31:52.000Z</time>
      </trkpt>
      <trkpt lat="49.30578" lon="-1.23771">
        <ele>4.246073</ele>
        <time>2022-08-02T08:31:53.000Z</time>
      </trkpt>
      <trkpt lat="49.30581" lon="-1.23767">
        <ele>4.239317</ele>
        <time>2022-08-02T08:31:54.000Z</time>
      </trkpt>
      <trkpt lat="49.30583" lon="-1.23766">
        <ele>4.234769</ele>
        <time>2022-08-02T08:31:55.000Z</time>
      </trkpt>
      <trkpt lat="49.30585" lon="-1.23766">
        <ele>4.231161</ele>
        <time>2022-08-02T08:31:56.000Z</time>
      </trkpt>
      <trkpt lat="49.30586" lon="-1.23769">
        <ele>4.226194</ele>
        <time>2022-08-02T08:31:57.000Z</time>
      </trkpt>
      <trkpt lat="49.30584" lon="-1.23774">
        <ele>4.218966</ele>
        <time>2022-08-02T08:31:59.000Z</time>
      </trkpt>
      <trkpt lat="49.30582" lon="-1.23777">
        <ele>4.213486</ele>
        <time>2022-08-02T08:32:00.000Z</time>
      </trkpt>
      <trkpt lat="49.30579" lon="-1.23779">
        <ele>4.20714</ele>
        <time>2022-08-02T08:32:01.000Z</time>
      </trkpt>
      <trkpt lat="49.30577" lon="-1.23783">
        <ele>4.201105</ele>
        <time>2022-08-02T08:32:02.000Z</time>
      </trkpt>
      <trkpt lat="49.30576" lon="-1.23787">
        <ele>4.195777</ele>
        <time>2022-08-02T08:32:03.000Z</time>
      </trkpt>
      <trkpt lat="49.30575" lon="-1.23791">
        <ele>4.190794</ele>
        <time>2022-08-02T08:32:04.000Z</time>
      </trkpt>
      <trkpt lat="49.30575" lon="-1.23794">
        <ele>4.186324</ele>
        <time>2022-08-02T08:32:05.000Z</time>
      </trkpt>
      <trkpt lat="49.30574" lon="-1.23798">
        <ele>4.181975</ele>
        <time>2022-08-02T08:32:06.000Z</time>
      </trkpt>
      <trkpt lat="49.30574" lon="-1.23801">
        <ele>4.178359</ele>
        <time>2022-08-02T08:32:07.000Z</time>
      </trkpt>
      <trkpt lat="49.30573" lon="-1.23805">
        <ele>4.173311</ele>
        <time>2022-08-02T08:32:09.000Z</time>
      </trkpt>
      <trkpt lat="49.30569" lon="-1.23807">
        <ele>4.16435</ele>
        <time>2022-08-02T08:33:00.000Z</time>
      </trkpt>
      <trkpt lat="49.30566" lon="-1.23807">
        <ele>4.159626</ele>
        <time>2022-08-02T08:33:01.000Z</time>
      </trkpt>
      <trkpt lat="49.30563" lon="-1.23806">
        <ele>4.15408</ele>
        <time>2022-08-02T08:33:02.000Z</time>
      </trkpt>
      <trkpt lat="49.3056" lon="-1.23804">
        <ele>4.147795</ele>
        <time>2022-08-02T08:33:03.000Z</time>
      </trkpt>
      <trkpt lat="49.30558" lon="-1.238">
        <ele>4.1414</ele>
        <time>2022-08-02T08:33:04.000Z</time>
      </trkpt>
      <trkpt lat="49.30554" lon="-1.23796">
        <ele>4.133002</ele>
        <time>2022-08-02T08:33:05.000Z</time>
      </trkpt>
      <trkpt lat="49.30551" lon="-1.23792">
        <ele>4.124965</ele>
        <time>2022-08-02T08:33:06.000Z</time>
      </trkpt>
      <trkpt lat="49.30548" lon="-1.23787">
        <ele>4.117392</ele>
        <time>2022-08-02T08:33:07.000Z</time>
      </trkpt>
      <trkpt lat="49.30545" lon="-1.23783">
        <ele>4.108618</ele>
        <time>2022-08-02T08:33:08.000Z</time>
      </trkpt>
      <trkpt lat="49.30542" lon="-1.23779">
        <ele>4.101521</ele>
        <time>2022-08-02T08:33:09.000Z</time>
      </trkpt>
      <trkpt lat="49.30539" lon="-1.23774">
        <ele>4.093565</ele>
        <time>2022-08-02T08:33:10.000Z</time>
      </trkpt>
      <trkpt lat="49.30536" lon="-1.2377">
        <ele>4.086608</ele>
        <time>2022-08-02T08:33:11.000Z</time>
      </trkpt>
      <trkpt lat="49.30533" lon="-1.23767">
        <ele>4.079402</ele>
        <time>2022-08-02T08:33:12.000Z</time>
      </trkpt>
      <trkpt lat="49.30531" lon="-1.23763">
        <ele>4.072173</ele>
        <time>2022-08-02T08:33:13.000Z</time>
      </trkpt>
      <trkpt lat="49.30528" lon="-1.23758">
        <ele>4.065039</ele>
        <time>2022-08-02T08:33:14.000Z</time>
      </trkpt>
      <trkpt lat="49.30525" lon="-1.23754">
        <ele>4.057588</ele>
        <time>2022-08-02T08:33:15.000Z</time>
      </trkpt>
      <trkpt lat="49.30523" lon="-1.2375">
        <ele>4.050399</ele>
        <time>2022-08-02T08:33:16.000Z</time>
      </trkpt>
      <trkpt lat="49.3052" lon="-1.23746">
        <ele>4.043548</ele>
        <time>2022-08-02T08:33:17.000Z</time>
      </trkpt>
      <trkpt lat="49.30517" lon="-1.23741">
        <ele>4.035928</ele>
        <time>2022-08-02T08:33:18.000Z</time>
      </trkpt>
      <trkpt lat="49.30515" lon="-1.23737">
        <ele>4.029098</ele>
        <time>2022-08-02T08:33:19.000Z</time>
      </trkpt>
      <trkpt lat="49.30513" lon="-1.23732">
        <ele>4.021692</ele>
        <time>2022-08-02T08:33:20.000Z</time>
      </trkpt>
      <trkpt lat="49.3051" lon="-1.23728">
        <ele>4.014125</ele>
        <time>2022-08-02T08:33:21.000Z</time>
      </trkpt>
      <trkpt lat="49.30507" lon="-1.23723">
        <ele>4.006064</ele>
        <time>2022-08-02T08:33:22.000Z</time>
      </trkpt>
      <trkpt lat="49.30505" lon="-1.23718">
        <ele>3.998186</ele>
        <time>2022-08-02T08:33:23.000Z</time>
      </trkpt>
      <trkpt lat="49.30502" lon="-1.23713">
        <ele>3.990228</ele>
        <time>2022-08-02T08:33:24.000Z</time>
      </trkpt>
      <trkpt lat="49.305" lon="-1.23708">
        <ele>3.982542</ele>
        <time>2022-08-02T08:33:25.000Z</time>
      </trkpt>
      <trkpt lat="49.30497" lon="-1.23703">
        <ele>3.974878</ele>
        <time>2022-08-02T08:33:26.000Z</time>
      </trkpt>
      <trkpt lat="49.30495" lon="-1.23698">
        <ele>3.967239</ele>
        <time>2022-08-02T08:33:27.000Z</time>
      </trkpt>
      <trkpt lat="49.30493" lon="-1.23692">
        <ele>3.959681</ele>
        <time>2022-08-02T08:33:28.000Z</time>
      </trkpt>
      <trkpt lat="49.30491" lon="-1.23687">
        <ele>3.951942</ele>
        <time>2022-08-02T08:33:29.000Z</time>
      </trkpt>
      <trkpt lat="49.30489" lon="-1.23682">
        <ele>3.944523</ele>
        <time>2022-08-02T08:33:30.000Z</time>
      </trkpt>
      <trkpt lat="49.30487" lon="-1.23676">
        <ele>3.942282</ele>
        <time>2022-08-02T08:33:31.000Z</time>
      </trkpt>
      <trkpt lat="49.30485" lon="-1.23671">
        <ele>3.954968</ele>
        <time>2022-08-02T08:33:32.000Z</time>
      </trkpt>
      <trkpt lat="49.30484" lon="-1.23665">
        <ele>3.967978</ele>
        <time>2022-08-02T08:33:33.000Z</time>
      </trkpt>
      <trkpt lat="49.30482" lon="-1.23659">
        <ele>3.982037</ele>
        <time>2022-08-02T08:33:34.000Z</time>
      </trkpt>
      <trkpt lat="49.3048" lon="-1.23654">
        <ele>3.996136</ele>
        <time>2022-08-02T08:33:35.000Z</time>
      </trkpt>
      <trkpt lat="49.30479" lon="-1.23647">
        <ele>4.010619</ele>
        <time>2022-08-02T08:33:36.000Z</time>
      </trkpt>
      <trkpt lat="49.30477" lon="-1.23641">
        <ele>4.025303</ele>
        <time>2022-08-02T08:33:37.000Z</time>
      </trkpt>
      <trkpt lat="49.30475" lon="-1.23635">
        <ele>4.040183</ele>
        <time>2022-08-02T08:33:38.000Z</time>
      </trkpt>
      <trkpt lat="49.30473" lon="-1.23629">
        <ele>4.054868</ele>
        <time>2022-08-02T08:33:39.000Z</time>
      </trkpt>
      <trkpt lat="49.30471" lon="-1.23622">
        <ele>4.070142</ele>
        <time>2022-08-02T08:33:40.000Z</time>
      </trkpt>
      <trkpt lat="49.3047" lon="-1.23616">
        <ele>4.084828</ele>
        <time>2022-08-02T08:33:41.000Z</time>
      </trkpt>
      <trkpt lat="49.30468" lon="-1.2361">
        <ele>4.100047</ele>
        <time>2022-08-02T08:33:42.000Z</time>
      </trkpt>
      <trkpt lat="49.30467" lon="-1.23603">
        <ele>4.114512</ele>
        <time>2022-08-02T08:33:43.000Z</time>
      </trkpt>
      <trkpt lat="49.30465" lon="-1.23597">
        <ele>4.129197</ele>
        <time>2022-08-02T08:33:44.000Z</time>
      </trkpt>
      <trkpt lat="49.30463" lon="-1.23591">
        <ele>4.144417</ele>
        <time>2022-08-02T08:33:45.000Z</time>
      </trkpt>
      <trkpt lat="49.30461" lon="-1.23584">
        <ele>4.159305</ele>
        <time>2022-08-02T08:33:46.000Z</time>
      </trkpt>
      <trkpt lat="49.3046" lon="-1.23578">
        <ele>4.174382</ele>
        <time>2022-08-02T08:33:47.000Z</time>
      </trkpt>
      <trkpt lat="49.30458" lon="-1.23572">
        <ele>4.189473</ele>
        <time>2022-08-02T08:33:48.000Z</time>
      </trkpt>
      <trkpt lat="49.30457" lon="-1.23565">
        <ele>4.20424</ele>
        <time>2022-08-02T08:33:49.000Z</time>
      </trkpt>
      <trkpt lat="49.30455" lon="-1.23559">
        <ele>4.218926</ele>
        <time>2022-08-02T08:33:50.000Z</time>
      </trkpt>
      <trkpt lat="49.30453" lon="-1.23552">
        <ele>4.234398</ele>
        <time>2022-08-02T08:33:51.000Z</time>
      </trkpt>
      <trkpt lat="49.30452" lon="-1.23546">
        <ele>4.248881</ele>
        <time>2022-08-02T08:33:52.000Z</time>
      </trkpt>
      <trkpt lat="49.3045" lon="-1.2354">
        <ele>4.263369</ele>
        <time>2022-08-02T08:33:53.000Z</time>
      </trkpt>
      <trkpt lat="49.30448" lon="-1.23534">
        <ele>4.276849</ele>
        <time>2022-08-02T08:33:54.000Z</time>
      </trkpt>
      <trkpt lat="49.30446" lon="-1.23529">
        <ele>4.289535</ele>
        <time>2022-08-02T08:33:55.000Z</time>
      </trkpt>
      <trkpt lat="49.30444" lon="-1.23524">
        <ele>4.303768</ele>
        <time>2022-08-02T08:33:56.000Z</time>
      </trkpt>
      <trkpt lat="49.30442" lon="-1.23519">
        <ele>4.316159</ele>
        <time>2022-08-02T08:33:57.000Z</time>
      </trkpt>
      <trkpt lat="49.30439" lon="-1.23515">
        <ele>4.329057</ele>
        <time>2022-08-02T08:33:58.000Z</time>
      </trkpt>
      <trkpt lat="49.30436" lon="-1.23511">
        <ele>4.342809</ele>
        <time>2022-08-02T08:33:59.000Z</time>
      </trkpt>
      <trkpt lat="49.30433" lon="-1.23507">
        <ele>4.355264</ele>
        <time>2022-08-02T08:34:00.000Z</time>
      </trkpt>
      <trkpt lat="49.30429" lon="-1.23503">
        <ele>4.3697</ele>
        <time>2022-08-02T08:34:01.000Z</time>
      </trkpt>
      <trkpt lat="49.30426" lon="-1.235">
        <ele>4.384466</ele>
        <time>2022-08-02T08:34:02.000Z</time>
      </trkpt>
      <trkpt lat="49.30422" lon="-1.23497">
        <ele>4.399013</ele>
        <time>2022-08-02T08:34:03.000Z</time>
      </trkpt>
      <trkpt lat="49.30418" lon="-1.23494">
        <ele>4.413547</ele>
        <time>2022-08-02T08:34:04.000Z</time>
      </trkpt>
      <trkpt lat="49.30414" lon="-1.23491">
        <ele>4.428411</ele>
        <time>2022-08-02T08:34:05.000Z</time>
      </trkpt>
      <trkpt lat="49.3041" lon="-1.23488">
        <ele>4.443419</ele>
        <time>2022-08-02T08:34:06.000Z</time>
      </trkpt>
      <trkpt lat="49.30405" lon="-1.23486">
        <ele>4.458069</ele>
        <time>2022-08-02T08:34:07.000Z</time>
      </trkpt>
      <trkpt lat="49.30401" lon="-1.23485">
        <ele>4.473133</ele>
        <time>2022-08-02T08:34:08.000Z</time>
      </trkpt>
      <trkpt lat="49.30396" lon="-1.23484">
        <ele>4.489241</ele>
        <time>2022-08-02T08:34:09.000Z</time>
      </trkpt>
      <trkpt lat="49.30391" lon="-1.23484">
        <ele>4.505244</ele>
        <time>2022-08-02T08:34:10.000Z</time>
      </trkpt>
      <trkpt lat="49.30386" lon="-1.23484">
        <ele>4.522572</ele>
        <time>2022-08-02T08:34:11.000Z</time>
      </trkpt>
      <trkpt lat="49.30381" lon="-1.23484">
        <ele>4.540426</ele>
        <time>2022-08-02T08:34:12.000Z</time>
      </trkpt>
      <trkpt lat="49.30376" lon="-1.23485">
        <ele>4.565872</ele>
        <time>2022-08-02T08:34:13.000Z</time>
      </trkpt>
      <trkpt lat="49.30371" lon="-1.23485">
        <ele>4.589944</ele>
        <time>2022-08-02T08:34:14.000Z</time>
      </trkpt>
      <trkpt lat="49.30366" lon="-1.23486">
        <ele>4.616963</ele>
        <time>2022-08-02T08:34:15.000Z</time>
      </trkpt>
      <trkpt lat="49.3036" lon="-1.23487">
        <ele>4.644433</ele>
        <time>2022-08-02T08:34:16.000Z</time>
      </trkpt>
      <trkpt lat="49.30355" lon="-1.23487">
        <ele>4.669993</ele>
        <time>2022-08-02T08:34:17.000Z</time>
      </trkpt>
      <trkpt lat="49.3035" lon="-1.23488">
        <ele>4.695473</ele>
        <time>2022-08-02T08:34:18.000Z</time>
      </trkpt>
      <trkpt lat="49.30345" lon="-1.23488">
        <ele>4.71944</ele>
        <time>2022-08-02T08:34:19.000Z</time>
      </trkpt>
      <trkpt lat="49.30341" lon="-1.23489">
        <ele>4.743451</ele>
        <time>2022-08-02T08:34:20.000Z</time>
      </trkpt>
      <trkpt lat="49.30336" lon="-1.23489">
        <ele>4.765924</ele>
        <time>2022-08-02T08:34:21.000Z</time>
      </trkpt>
      <trkpt lat="49.30332" lon="-1.2349">
        <ele>4.786887</ele>
        <time>2022-08-02T08:34:22.000Z</time>
      </trkpt>
      <trkpt lat="49.30328" lon="-1.2349">
        <ele>4.805858</ele>
        <time>2022-08-02T08:34:23.000Z</time>
      </trkpt>
      <trkpt lat="49.30325" lon="-1.23491">
        <ele>4.81902</ele>
        <time>2022-08-02T08:34:24.000Z</time>
      </trkpt>
      <trkpt lat="49.30323" lon="-1.23491">
        <ele>4.831753</ele>
        <time>2022-08-02T08:34:25.000Z</time>
      </trkpt>
      <trkpt lat="49.30319" lon="-1.23493">
        <ele>4.850057</ele>
        <time>2022-08-02T08:34:27.000Z</time>
      </trkpt>
      <trkpt lat="49.30317" lon="-1.23493">
        <ele>4.860029</ele>
        <time>2022-08-02T08:34:28.000Z</time>
      </trkpt>
      <trkpt lat="49.30316" lon="-1.23492">
        <ele>4.870044</ele>
        <time>2022-08-02T08:34:29.000Z</time>
      </trkpt>
      <trkpt lat="49.30314" lon="-1.2349">
        <ele>4.879937</ele>
        <time>2022-08-02T08:34:30.000Z</time>
      </trkpt>
      <trkpt lat="49.30313" lon="-1.23487">
        <ele>4.890673</ele>
        <time>2022-08-02T08:34:31.000Z</time>
      </trkpt>
      <trkpt lat="49.30312" lon="-1.23484">
        <ele>4.901032</ele>
        <time>2022-08-02T08:34:32.000Z</time>
      </trkpt>
      <trkpt lat="49.30312" lon="-1.23481">
        <ele>4.91306</ele>
        <time>2022-08-02T08:34:33.000Z</time>
      </trkpt>
      <trkpt lat="49.30312" lon="-1.23477">
        <ele>4.925182</ele>
        <time>2022-08-02T08:34:34.000Z</time>
      </trkpt>
      <trkpt lat="49.30312" lon="-1.23473">
        <ele>4.937536</ele>
        <time>2022-08-02T08:34:35.000Z</time>
      </trkpt>
      <trkpt lat="49.30312" lon="-1.23469">
        <ele>4.949564</ele>
        <time>2022-08-02T08:34:36.000Z</time>
      </trkpt>
      <trkpt lat="49.30312" lon="-1.23466">
        <ele>4.961041</ele>
        <time>2022-08-02T08:34:37.000Z</time>
      </trkpt>
      <trkpt lat="49.30311" lon="-1.23462">
        <ele>4.972517</ele>
        <time>2022-08-02T08:34:38.000Z</time>
      </trkpt>
      <trkpt lat="49.30311" lon="-1.23459">
        <ele>4.983246</ele>
        <time>2022-08-02T08:34:39.000Z</time>
      </trkpt>
      <trkpt lat="49.30311" lon="-1.23456">
        <ele>4.993604</ele>
        <time>2022-08-02T08:34:40.000Z</time>
      </trkpt>
      <trkpt lat="49.30311" lon="-1.23453">
        <ele>5.003357</ele>
        <time>2022-08-02T08:34:41.000Z</time>
      </trkpt>
      <trkpt lat="49.30312" lon="-1.2345">
        <ele>5.013736</ele>
        <time>2022-08-02T08:34:42.000Z</time>
      </trkpt>
      <trkpt lat="49.30312" lon="-1.23447">
        <ele>5.023603</ele>
        <time>2022-08-02T08:34:43.000Z</time>
      </trkpt>
      <trkpt lat="49.30312" lon="-1.23443">
        <ele>5.038956</ele>
        <time>2022-08-02T08:34:45.000Z</time>
      </trkpt>
      <trkpt lat="49.30313" lon="-1.23439">
        <ele>5.0514</ele>
        <time>2022-08-02T08:34:47.000Z</time>
      </trkpt>
      <trkpt lat="49.30312" lon="-1.23424">
        <ele>5.100906</ele>
        <time>2022-08-02T08:35:03.000Z</time>
      </trkpt>
      <trkpt lat="49.30312" lon="-1.2342">
        <ele>5.111738</ele>
        <time>2022-08-02T08:35:04.000Z</time>
      </trkpt>
      <trkpt lat="49.30311" lon="-1.23417">
        <ele>5.123859</ele>
        <time>2022-08-02T08:35:05.000Z</time>
      </trkpt>
      <trkpt lat="49.30311" lon="-1.23414">
        <ele>5.134218</ele>
        <time>2022-08-02T08:35:06.000Z</time>
      </trkpt>
      <trkpt lat="49.3031" lon="-1.23409">
        <ele>5.14915</ele>
        <time>2022-08-02T08:35:08.000Z</time>
      </trkpt>
      <trkpt lat="49.30308" lon="-1.23406">
        <ele>5.162746</ele>
        <time>2022-08-02T08:35:10.000Z</time>
      </trkpt>
      <trkpt lat="49.30306" lon="-1.23405">
        <ele>5.173847</ele>
        <time>2022-08-02T08:35:12.000Z</time>
      </trkpt>
      <trkpt lat="49.30312" lon="-1.23389">
        <ele>5.23336</ele>
        <time>2022-08-02T08:36:40.000Z</time>
      </trkpt>
      <trkpt lat="49.30312" lon="-1.23385">
        <ele>5.246364</ele>
        <time>2022-08-02T08:36:41.000Z</time>
      </trkpt>
      <trkpt lat="49.30311" lon="-1.2338">
        <ele>5.262892</ele>
        <time>2022-08-02T08:36:42.000Z</time>
      </trkpt>
      <trkpt lat="49.3031" lon="-1.23374">
        <ele>5.281455</ele>
        <time>2022-08-02T08:36:43.000Z</time>
      </trkpt>
      <trkpt lat="49.3031" lon="-1.23368">
        <ele>5.301189</ele>
        <time>2022-08-02T08:36:44.000Z</time>
      </trkpt>
      <trkpt lat="49.30309" lon="-1.23361">
        <ele>5.323386</ele>
        <time>2022-08-02T08:36:45.000Z</time>
      </trkpt>
      <trkpt lat="49.30309" lon="-1.23353">
        <ele>5.349242</ele>
        <time>2022-08-02T08:36:46.000Z</time>
      </trkpt>
      <trkpt lat="49.30309" lon="-1.23345">
        <ele>5.376226</ele>
        <time>2022-08-02T08:36:47.000Z</time>
      </trkpt>
      <trkpt lat="49.30309" lon="-1.23336">
        <ele>5.405485</ele>
        <time>2022-08-02T08:36:48.000Z</time>
      </trkpt>
      <trkpt lat="49.30309" lon="-1.23327">
        <ele>5.434063</ele>
        <time>2022-08-02T08:36:49.000Z</time>
      </trkpt>
      <trkpt lat="49.30309" lon="-1.23318">
        <ele>5.407229</ele>
        <time>2022-08-02T08:36:50.000Z</time>
      </trkpt>
      <trkpt lat="49.30308" lon="-1.23308">
        <ele>5.37982</ele>
        <time>2022-08-02T08:36:51.000Z</time>
      </trkpt>
      <trkpt lat="49.30308" lon="-1.23299">
        <ele>5.352443</ele>
        <time>2022-08-02T08:36:52.000Z</time>
      </trkpt>
      <trkpt lat="49.30308" lon="-1.23289">
        <ele>5.324891</ele>
        <time>2022-08-02T08:36:53.000Z</time>
      </trkpt>
      <trkpt lat="49.30307" lon="-1.2328">
        <ele>5.297386</ele>
        <time>2022-08-02T08:36:54.000Z</time>
      </trkpt>
      <trkpt lat="49.30306" lon="-1.2327">
        <ele>5.270407</ele>
        <time>2022-08-02T08:36:55.000Z</time>
      </trkpt>
      <trkpt lat="49.30306" lon="-1.23261">
        <ele>5.244336</ele>
        <time>2022-08-02T08:36:56.000Z</time>
      </trkpt>
      <trkpt lat="49.30305" lon="-1.23252">
        <ele>5.218551</ele>
        <time>2022-08-02T08:36:57.000Z</time>
      </trkpt>
      <trkpt lat="49.30305" lon="-1.23243">
        <ele>5.192267</ele>
        <time>2022-08-02T08:36:58.000Z</time>
      </trkpt>
      <trkpt lat="49.30304" lon="-1.23235">
        <ele>5.16716</ele>
        <time>2022-08-02T08:36:59.000Z</time>
      </trkpt>
      <trkpt lat="49.30304" lon="-1.23226">
        <ele>5.141766</ele>
        <time>2022-08-02T08:37:00.000Z</time>
      </trkpt>
      <trkpt lat="49.30304" lon="-1.23217">
        <ele>5.117522</ele>
        <time>2022-08-02T08:37:01.000Z</time>
      </trkpt>
      <trkpt lat="49.30303" lon="-1.23209">
        <ele>5.093404</ele>
        <time>2022-08-02T08:37:02.000Z</time>
      </trkpt>
      <trkpt lat="49.30303" lon="-1.23201">
        <ele>5.070926</ele>
        <time>2022-08-02T08:37:03.000Z</time>
      </trkpt>
      <trkpt lat="49.30303" lon="-1.23193">
        <ele>5.047872</ele>
        <time>2022-08-02T08:37:04.000Z</time>
      </trkpt>
      <trkpt lat="49.30303" lon="-1.23186">
        <ele>5.026258</ele>
        <time>2022-08-02T08:37:05.000Z</time>
      </trkpt>
      <trkpt lat="49.30302" lon="-1.23178">
        <ele>5.004768</ele>
        <time>2022-08-02T08:37:06.000Z</time>
      </trkpt>
      <trkpt lat="49.30302" lon="-1.23171">
        <ele>4.984137</ele>
        <time>2022-08-02T08:37:07.000Z</time>
      </trkpt>
      <trkpt lat="49.30301" lon="-1.23165">
        <ele>4.966189</ele>
        <time>2022-08-02T08:37:08.000Z</time>
      </trkpt>
      <trkpt lat="49.30299" lon="-1.23161">
        <ele>4.95242</ele>
        <time>2022-08-02T08:37:09.000Z</time>
      </trkpt>
      <trkpt lat="49.30298" lon="-1.23159">
        <ele>4.943205</ele>
        <time>2022-08-02T08:37:10.000Z</time>
      </trkpt>
      <trkpt lat="49.30295" lon="-1.23157">
        <ele>4.930476</ele>
        <time>2022-08-02T08:37:11.000Z</time>
      </trkpt>
      <trkpt lat="49.30293" lon="-1.23156">
        <ele>4.919189</ele>
        <time>2022-08-02T08:37:12.000Z</time>
      </trkpt>
      <trkpt lat="49.3029" lon="-1.23155">
        <ele>4.907523</ele>
        <time>2022-08-02T08:37:13.000Z</time>
      </trkpt>
      <trkpt lat="49.30287" lon="-1.23155">
        <ele>4.893193</ele>
        <time>2022-08-02T08:37:14.000Z</time>
      </trkpt>
      <trkpt lat="49.30283" lon="-1.23153">
        <ele>4.875699</ele>
        <time>2022-08-02T08:37:15.000Z</time>
      </trkpt>
      <trkpt lat="49.30279" lon="-1.2315">
        <ele>4.857018</ele>
        <time>2022-08-02T08:37:16.000Z</time>
      </trkpt>
      <trkpt lat="49.30276" lon="-1.23147">
        <ele>4.840869</ele>
        <time>2022-08-02T08:37:17.000Z</time>
      </trkpt>
      <trkpt lat="49.30274" lon="-1.23142">
        <ele>4.823236</ele>
        <time>2022-08-02T08:37:18.000Z</time>
      </trkpt>
      <trkpt lat="49.30273" lon="-1.23135">
        <ele>4.803918</ele>
        <time>2022-08-02T08:37:19.000Z</time>
      </trkpt>
      <trkpt lat="49.30273" lon="-1.23129">
        <ele>4.785501</ele>
        <time>2022-08-02T08:37:20.000Z</time>
      </trkpt>
      <trkpt lat="49.30276" lon="-1.23124">
        <ele>4.766649</ele>
        <time>2022-08-02T08:37:21.000Z</time>
      </trkpt>
      <trkpt lat="49.3028" lon="-1.2312">
        <ele>4.746679</ele>
        <time>2022-08-02T08:37:22.000Z</time>
      </trkpt>
      <trkpt lat="49.30284" lon="-1.23119">
        <ele>4.726583</ele>
        <time>2022-08-02T08:37:23.000Z</time>
      </trkpt>
      <trkpt lat="49.30289" lon="-1.23121">
        <ele>4.706598</ele>
        <time>2022-08-02T08:37:24.000Z</time>
      </trkpt>
      <trkpt lat="49.30293" lon="-1.23126">
        <ele>4.683376</ele>
        <time>2022-08-02T08:37:25.000Z</time>
      </trkpt>
      <trkpt lat="49.30294" lon="-1.23134">
        <ele>4.660725</ele>
        <time>2022-08-02T08:37:26.000Z</time>
      </trkpt>
      <trkpt lat="49.30293" lon="-1.23141">
        <ele>4.648062</ele>
        <time>2022-08-02T08:37:27.000Z</time>
      </trkpt>
      <trkpt lat="49.3029" lon="-1.23148">
        <ele>4.736517</ele>
        <time>2022-08-02T08:37:28.000Z</time>
      </trkpt>
      <trkpt lat="49.30286" lon="-1.23151">
        <ele>4.81166</ele>
        <time>2022-08-02T08:37:29.000Z</time>
      </trkpt>
      <trkpt lat="49.30281" lon="-1.23152">
        <ele>4.896764</ele>
        <time>2022-08-02T08:37:30.000Z</time>
      </trkpt>
      <trkpt lat="49.30277" lon="-1.23148">
        <ele>4.973409</ele>
        <time>2022-08-02T08:37:31.000Z</time>
      </trkpt>
      <trkpt lat="49.30273" lon="-1.23142">
        <ele>5.055967</ele>
        <time>2022-08-02T08:37:32.000Z</time>
      </trkpt>
      <trkpt lat="49.30272" lon="-1.23135">
        <ele>5.136457</ele>
        <time>2022-08-02T08:37:33.000Z</time>
      </trkpt>
      <trkpt lat="49.30273" lon="-1.23127">
        <ele>5.219678</ele>
        <time>2022-08-02T08:37:34.000Z</time>
      </trkpt>
      <trkpt lat="49.30275" lon="-1.23121">
        <ele>5.291071</ele>
        <time>2022-08-02T08:37:35.000Z</time>
      </trkpt>
      <trkpt lat="49.30278" lon="-1.23116">
        <ele>5.368003</ele>
        <time>2022-08-02T08:37:36.000Z</time>
      </trkpt>
      <trkpt lat="49.30282" lon="-1.23111">
        <ele>5.448415</ele>
        <time>2022-08-02T08:37:37.000Z</time>
      </trkpt>
      <trkpt lat="49.30285" lon="-1.23106">
        <ele>5.518895</ele>
        <time>2022-08-02T08:37:38.000Z</time>
      </trkpt>
      <trkpt lat="49.30288" lon="-1.23101">
        <ele>5.590168</ele>
        <time>2022-08-02T08:37:39.000Z</time>
      </trkpt>
      <trkpt lat="49.3029" lon="-1.23096">
        <ele>5.65889</ele>
        <time>2022-08-02T08:37:40.000Z</time>
      </trkpt>
      <trkpt lat="49.30292" lon="-1.2309">
        <ele>5.726125</ele>
        <time>2022-08-02T08:37:41.000Z</time>
      </trkpt>
      <trkpt lat="49.30294" lon="-1.23085">
        <ele>5.793049</ele>
        <time>2022-08-02T08:37:42.000Z</time>
      </trkpt>
      <trkpt lat="49.30296" lon="-1.23079">
        <ele>5.86123</ele>
        <time>2022-08-02T08:37:43.000Z</time>
      </trkpt>
      <trkpt lat="49.30298" lon="-1.23073">
        <ele>5.930272</ele>
        <time>2022-08-02T08:37:44.000Z</time>
      </trkpt>
      <trkpt lat="49.30298" lon="-1.23067">
        <ele>5.995976</ele>
        <time>2022-08-02T08:37:45.000Z</time>
      </trkpt>
      <trkpt lat="49.30299" lon="-1.23061">
        <ele>6.068246</ele>
        <time>2022-08-02T08:37:46.000Z</time>
      </trkpt>
      <trkpt lat="49.303" lon="-1.23054">
        <ele>6.140276</ele>
        <time>2022-08-02T08:37:47.000Z</time>
      </trkpt>
      <trkpt lat="49.303" lon="-1.23047">
        <ele>6.214992</ele>
        <time>2022-08-02T08:37:48.000Z</time>
      </trkpt>
      <trkpt lat="49.303" lon="-1.2304">
        <ele>6.289833</ele>
        <time>2022-08-02T08:37:49.000Z</time>
      </trkpt>
      <trkpt lat="49.303" lon="-1.23033">
        <ele>6.364387</ele>
        <time>2022-08-02T08:37:50.000Z</time>
      </trkpt>
      <trkpt lat="49.30301" lon="-1.23026">
        <ele>6.440166</ele>
        <time>2022-08-02T08:37:51.000Z</time>
      </trkpt>
      <trkpt lat="49.30301" lon="-1.23018">
        <ele>6.518981</ele>
        <time>2022-08-02T08:37:52.000Z</time>
      </trkpt>
      <trkpt lat="49.30301" lon="-1.23011">
        <ele>6.596731</ele>
        <time>2022-08-02T08:37:53.000Z</time>
      </trkpt>
      <trkpt lat="49.30301" lon="-1.23004">
        <ele>6.676612</ele>
        <time>2022-08-02T08:37:54.000Z</time>
      </trkpt>
      <trkpt lat="49.30301" lon="-1.22996">
        <ele>6.754362</ele>
        <time>2022-08-02T08:37:55.000Z</time>
      </trkpt>
      <trkpt lat="49.303" lon="-1.22989">
        <ele>6.831895</ele>
        <time>2022-08-02T08:37:56.000Z</time>
      </trkpt>
      <trkpt lat="49.303" lon="-1.22982">
        <ele>6.90858</ele>
        <time>2022-08-02T08:37:57.000Z</time>
      </trkpt>
      <trkpt lat="49.30299" lon="-1.22975">
        <ele>6.987708</ele>
        <time>2022-08-02T08:37:58.000Z</time>
      </trkpt>
      <trkpt lat="49.30299" lon="-1.22967">
        <ele>7.065612</ele>
        <time>2022-08-02T08:37:59.000Z</time>
      </trkpt>
      <trkpt lat="49.30299" lon="-1.2296">
        <ele>7.140167</ele>
        <time>2022-08-02T08:38:00.000Z</time>
      </trkpt>
      <trkpt lat="49.30299" lon="-1.22953">
        <ele>7.21382</ele>
        <time>2022-08-02T08:38:01.000Z</time>
      </trkpt>
      <trkpt lat="49.30301" lon="-1.22948">
        <ele>7.281055</ele>
        <time>2022-08-02T08:38:02.000Z</time>
      </trkpt>
      <trkpt lat="49.30304" lon="-1.22944">
        <ele>7.348487</ele>
        <time>2022-08-02T08:38:03.000Z</time>
      </trkpt>
      <trkpt lat="49.30307" lon="-1.22941">
        <ele>7.403901</ele>
        <time>2022-08-02T08:38:04.000Z</time>
      </trkpt>
      <trkpt lat="49.3031" lon="-1.22939">
        <ele>7.455002</ele>
        <time>2022-08-02T08:38:05.000Z</time>
      </trkpt>
      <trkpt lat="49.30312" lon="-1.22937">
        <ele>7.500576</ele>
        <time>2022-08-02T08:38:06.000Z</time>
      </trkpt>
      <trkpt lat="49.30316" lon="-1.22935">
        <ele>7.5583</ele>
        <time>2022-08-02T08:38:07.000Z</time>
      </trkpt>
      <trkpt lat="49.30318" lon="-1.22933">
        <ele>7.606369</ele>
        <time>2022-08-02T08:38:08.000Z</time>
      </trkpt>
      <trkpt lat="49.3032" lon="-1.22931">
        <ele>7.655333</ele>
        <time>2022-08-02T08:38:09.000Z</time>
      </trkpt>
      <trkpt lat="49.30322" lon="-1.22932">
        <ele>7.691282</ele>
        <time>2022-08-02T08:38:10.000Z</time>
      </trkpt>
      <trkpt lat="49.30324" lon="-1.22933">
        <ele>7.724594</ele>
        <time>2022-08-02T08:38:11.000Z</time>
      </trkpt>
      <trkpt lat="49.30325" lon="-1.22937">
        <ele>7.775871</ele>
        <time>2022-08-02T08:38:13.000Z</time>
      </trkpt>
      <trkpt lat="49.30324" lon="-1.22939">
        <ele>7.808475</ele>
        <time>2022-08-02T08:38:16.000Z</time>
      </trkpt>
      <trkpt lat="49.30325" lon="-1.22936">
        <ele>7.843832</ele>
        <time>2022-08-02T08:38:19.000Z</time>
      </trkpt>
      <trkpt lat="49.3033" lon="-1.2293">
        <ele>7.964435</ele>
        <time>2022-08-02T08:38:28.000Z</time>
      </trkpt>
      <trkpt lat="49.30334" lon="-1.2292">
        <ele>8.110166</ele>
        <time>2022-08-02T08:38:44.000Z</time>
      </trkpt>
      <trkpt lat="49.30335" lon="-1.22917">
        <ele>8.150584</ele>
        <time>2022-08-02T08:38:45.000Z</time>
      </trkpt>
      <trkpt lat="49.30336" lon="-1.22914">
        <ele>8.192391</ele>
        <time>2022-08-02T08:38:46.000Z</time>
      </trkpt>
      <trkpt lat="49.30338" lon="-1.22911">
        <ele>8.238884</ele>
        <time>2022-08-02T08:38:47.000Z</time>
      </trkpt>
      <trkpt lat="49.3034" lon="-1.22908">
        <ele>8.287362</ele>
        <time>2022-08-02T08:38:48.000Z</time>
      </trkpt>
      <trkpt lat="49.30341" lon="-1.22905">
        <ele>8.335736</ele>
        <time>2022-08-02T08:38:49.000Z</time>
      </trkpt>
      <trkpt lat="49.30344" lon="-1.22901">
        <ele>8.40018</ele>
        <time>2022-08-02T08:38:50.000Z</time>
      </trkpt>
      <trkpt lat="49.30347" lon="-1.22897">
        <ele>8.467934</ele>
        <time>2022-08-02T08:38:51.000Z</time>
      </trkpt>
      <trkpt lat="49.30349" lon="-1.22893">
        <ele>8.541687</ele>
        <time>2022-08-02T08:38:52.000Z</time>
      </trkpt>
      <trkpt lat="49.30353" lon="-1.22888">
        <ele>8.621562</ele>
        <time>2022-08-02T08:38:53.000Z</time>
      </trkpt>
      <trkpt lat="49.30356" lon="-1.22884">
        <ele>8.709323</ele>
        <time>2022-08-02T08:38:54.000Z</time>
      </trkpt>
      <trkpt lat="49.3036" lon="-1.22879">
        <ele>8.795705</ele>
        <time>2022-08-02T08:38:55.000Z</time>
      </trkpt>
      <trkpt lat="49.30363" lon="-1.22874">
        <ele>8.881292</ele>
        <time>2022-08-02T08:38:56.000Z</time>
      </trkpt>
      <trkpt lat="49.30366" lon="-1.22869">
        <ele>8.963641</ele>
        <time>2022-08-02T08:38:57.000Z</time>
      </trkpt>
      <trkpt lat="49.30369" lon="-1.22865">
        <ele>9.041264</ele>
        <time>2022-08-02T08:38:58.000Z</time>
      </trkpt>
      <trkpt lat="49.30373" lon="-1.2286">
        <ele>9.121139</ele>
        <time>2022-08-02T08:38:59.000Z</time>
      </trkpt>
      <trkpt lat="49.30376" lon="-1.22856">
        <ele>9.201013</ele>
        <time>2022-08-02T08:39:00.000Z</time>
      </trkpt>
      <trkpt lat="49.30379" lon="-1.22851">
        <ele>9.280888</ele>
        <time>2022-08-02T08:39:01.000Z</time>
      </trkpt>
      <trkpt lat="49.30382" lon="-1.22847">
        <ele>9.355099</ele>
        <time>2022-08-02T08:39:02.000Z</time>
      </trkpt>
      <trkpt lat="49.30384" lon="-1.22843">
        <ele>9.423318</ele>
        <time>2022-08-02T08:39:03.000Z</time>
      </trkpt>
      <trkpt lat="49.30388" lon="-1.22839">
        <ele>9.499268</ele>
        <time>2022-08-02T08:39:04.000Z</time>
      </trkpt>
      <trkpt lat="49.3039" lon="-1.22834">
        <ele>9.57265</ele>
        <time>2022-08-02T08:39:05.000Z</time>
      </trkpt>
      <trkpt lat="49.30394" lon="-1.2283">
        <ele>9.649363</ele>
        <time>2022-08-02T08:39:06.000Z</time>
      </trkpt>
      <trkpt lat="49.30397" lon="-1.22826">
        <ele>9.728432</ele>
        <time>2022-08-02T08:39:07.000Z</time>
      </trkpt>
      <trkpt lat="49.304" lon="-1.22822">
        <ele>9.800996</ele>
        <time>2022-08-02T08:39:08.000Z</time>
      </trkpt>
      <trkpt lat="49.30403" lon="-1.22818">
        <ele>9.878483</ele>
        <time>2022-08-02T08:39:09.000Z</time>
      </trkpt>
      <trkpt lat="49.30406" lon="-1.22813">
        <ele>9.951865</ele>
        <time>2022-08-02T08:39:10.000Z</time>
      </trkpt>
      <trkpt lat="49.30408" lon="-1.22809">
        <ele>10.019204</ele>
        <time>2022-08-02T08:39:11.000Z</time>
      </trkpt>
      <trkpt lat="49.30412" lon="-1.22805">
        <ele>10.095153</ele>
        <time>2022-08-02T08:39:12.000Z</time>
      </trkpt>
      <trkpt lat="49.30415" lon="-1.22801">
        <ele>10.17035</ele>
        <time>2022-08-02T08:39:13.000Z</time>
      </trkpt>
      <trkpt lat="49.30418" lon="-1.22798">
        <ele>10.244807</ele>
        <time>2022-08-02T08:39:14.000Z</time>
      </trkpt>
      <trkpt lat="49.30421" lon="-1.22793">
        <ele>10.322295</ele>
        <time>2022-08-02T08:39:15.000Z</time>
      </trkpt>
      <trkpt lat="49.30424" lon="-1.22789">
        <ele>10.396505</ele>
        <time>2022-08-02T08:39:16.000Z</time>
      </trkpt>
      <trkpt lat="49.30427" lon="-1.22785">
        <ele>10.473993</ele>
        <time>2022-08-02T08:39:17.000Z</time>
      </trkpt>
      <trkpt lat="49.3043" lon="-1.2278">
        <ele>10.546118</ele>
        <time>2022-08-02T08:39:18.000Z</time>
      </trkpt>
      <trkpt lat="49.30433" lon="-1.22776">
        <ele>10.626808</ele>
        <time>2022-08-02T08:39:19.000Z</time>
      </trkpt>
      <trkpt lat="49.30436" lon="-1.22771">
        <ele>10.701424</ele>
        <time>2022-08-02T08:39:20.000Z</time>
      </trkpt>
      <trkpt lat="49.30439" lon="-1.22767">
        <ele>10.782938</ele>
        <time>2022-08-02T08:39:21.000Z</time>
      </trkpt>
      <trkpt lat="49.30442" lon="-1.22762">
        <ele>10.858836</ele>
        <time>2022-08-02T08:39:22.000Z</time>
      </trkpt>
      <trkpt lat="49.30445" lon="-1.22757">
        <ele>10.902385</ele>
        <time>2022-08-02T08:39:23.000Z</time>
      </trkpt>
      <trkpt lat="49.30448" lon="-1.22753">
        <ele>10.925327</ele>
        <time>2022-08-02T08:39:24.000Z</time>
      </trkpt>
      <trkpt lat="49.30452" lon="-1.22747">
        <ele>10.951529</ele>
        <time>2022-08-02T08:39:25.000Z</time>
      </trkpt>
      <trkpt lat="49.30455" lon="-1.22742">
        <ele>10.979547</ele>
        <time>2022-08-02T08:39:26.000Z</time>
      </trkpt>
      <trkpt lat="49.30459" lon="-1.22737">
        <ele>11.007642</ele>
        <time>2022-08-02T08:39:27.000Z</time>
      </trkpt>
      <trkpt lat="49.30463" lon="-1.22731">
        <ele>11.038504</ele>
        <time>2022-08-02T08:39:28.000Z</time>
      </trkpt>
      <trkpt lat="49.30468" lon="-1.22725">
        <ele>11.070162</ele>
        <time>2022-08-02T08:39:29.000Z</time>
      </trkpt>
      <trkpt lat="49.30472" lon="-1.22718">
        <ele>11.102924</ele>
        <time>2022-08-02T08:39:30.000Z</time>
      </trkpt>
      <trkpt lat="49.30477" lon="-1.22712">
        <ele>11.137354</ele>
        <time>2022-08-02T08:39:31.000Z</time>
      </trkpt>
      <trkpt lat="49.30482" lon="-1.22705">
        <ele>11.171076</ele>
        <time>2022-08-02T08:39:32.000Z</time>
      </trkpt>
      <trkpt lat="49.30487" lon="-1.22698">
        <ele>11.208348</ele>
        <time>2022-08-02T08:39:33.000Z</time>
      </trkpt>
      <trkpt lat="49.30491" lon="-1.22691">
        <ele>11.243062</ele>
        <time>2022-08-02T08:39:34.000Z</time>
      </trkpt>
      <trkpt lat="49.30496" lon="-1.22683">
        <ele>11.279314</ele>
        <time>2022-08-02T08:39:35.000Z</time>
      </trkpt>
      <trkpt lat="49.305" lon="-1.22675">
        <ele>11.315567</ele>
        <time>2022-08-02T08:39:36.000Z</time>
      </trkpt>
      <trkpt lat="49.30505" lon="-1.22668">
        <ele>11.351726</ele>
        <time>2022-08-02T08:39:37.000Z</time>
      </trkpt>
      <trkpt lat="49.30509" lon="-1.2266">
        <ele>11.386922</ele>
        <time>2022-08-02T08:39:38.000Z</time>
      </trkpt>
      <trkpt lat="49.30513" lon="-1.22652">
        <ele>11.421059</ele>
        <time>2022-08-02T08:39:39.000Z</time>
      </trkpt>
      <trkpt lat="49.30516" lon="-1.22644">
        <ele>11.454277</ele>
        <time>2022-08-02T08:39:40.000Z</time>
      </trkpt>
      <trkpt lat="49.30519" lon="-1.22637">
        <ele>11.486586</ele>
        <time>2022-08-02T08:39:41.000Z</time>
      </trkpt>
      <trkpt lat="49.30523" lon="-1.22628">
        <ele>11.52009</ele>
        <time>2022-08-02T08:39:42.000Z</time>
      </trkpt>
      <trkpt lat="49.30525" lon="-1.2262">
        <ele>11.552232</ele>
        <time>2022-08-02T08:39:43.000Z</time>
      </trkpt>
      <trkpt lat="49.30529" lon="-1.22612">
        <ele>11.586339</ele>
        <time>2022-08-02T08:39:44.000Z</time>
      </trkpt>
      <trkpt lat="49.30531" lon="-1.22603">
        <ele>11.619574</ele>
        <time>2022-08-02T08:39:45.000Z</time>
      </trkpt>
      <trkpt lat="49.30534" lon="-1.22595">
        <ele>11.65383</ele>
        <time>2022-08-02T08:39:46.000Z</time>
      </trkpt>
      <trkpt lat="49.30537" lon="-1.22586">
        <ele>11.687162</ele>
        <time>2022-08-02T08:39:47.000Z</time>
      </trkpt>
      <trkpt lat="49.30539" lon="-1.22577">
        <ele>11.719173</ele>
        <time>2022-08-02T08:39:48.000Z</time>
      </trkpt>
      <trkpt lat="49.30541" lon="-1.22569">
        <ele>11.751888</ele>
        <time>2022-08-02T08:39:49.000Z</time>
      </trkpt>
      <trkpt lat="49.30542" lon="-1.2256">
        <ele>11.783917</ele>
        <time>2022-08-02T08:39:50.000Z</time>
      </trkpt>
      <trkpt lat="49.30544" lon="-1.22551">
        <ele>11.816621</ele>
        <time>2022-08-02T08:39:51.000Z</time>
      </trkpt>
      <trkpt lat="49.30546" lon="-1.22542">
        <ele>11.849454</ele>
        <time>2022-08-02T08:39:52.000Z</time>
      </trkpt>
      <trkpt lat="49.30547" lon="-1.22533">
        <ele>11.75197</ele>
        <time>2022-08-02T08:39:53.000Z</time>
      </trkpt>
      <trkpt lat="49.30549" lon="-1.22524">
        <ele>11.628074</ele>
        <time>2022-08-02T08:39:54.000Z</time>
      </trkpt>
      <trkpt lat="49.30551" lon="-1.22515">
        <ele>11.506667</ele>
        <time>2022-08-02T08:39:55.000Z</time>
      </trkpt>
      <trkpt lat="49.30553" lon="-1.22506">
        <ele>11.379655</ele>
        <time>2022-08-02T08:39:56.000Z</time>
      </trkpt>
      <trkpt lat="49.30555" lon="-1.22497">
        <ele>11.255759</ele>
        <time>2022-08-02T08:39:57.000Z</time>
      </trkpt>
      <trkpt lat="49.30557" lon="-1.22488">
        <ele>11.133584</ele>
        <time>2022-08-02T08:39:58.000Z</time>
      </trkpt>
      <trkpt lat="49.30558" lon="-1.22479">
        <ele>11.015196</ele>
        <time>2022-08-02T08:39:59.000Z</time>
      </trkpt>
      <trkpt lat="49.3056" lon="-1.2247">
        <ele>10.891299</ele>
        <time>2022-08-02T08:40:00.000Z</time>
      </trkpt>
      <trkpt lat="49.30562" lon="-1.22462">
        <ele>10.77543</ele>
        <time>2022-08-02T08:40:01.000Z</time>
      </trkpt>
      <trkpt lat="49.30563" lon="-1.22454">
        <ele>10.66745</ele>
        <time>2022-08-02T08:40:02.000Z</time>
      </trkpt>
      <trkpt lat="49.30564" lon="-1.22446">
        <ele>10.56201</ele>
        <time>2022-08-02T08:40:03.000Z</time>
      </trkpt>
      <trkpt lat="49.30566" lon="-1.22438">
        <ele>10.449911</ele>
        <time>2022-08-02T08:40:04.000Z</time>
      </trkpt>
      <trkpt lat="49.30567" lon="-1.2243">
        <ele>10.341122</ele>
        <time>2022-08-02T08:40:05.000Z</time>
      </trkpt>
      <trkpt lat="49.30568" lon="-1.22422">
        <ele>10.230599</ele>
        <time>2022-08-02T08:40:06.000Z</time>
      </trkpt>
      <trkpt lat="49.3057" lon="-1.22413">
        <ele>10.115391</ele>
        <time>2022-08-02T08:40:07.000Z</time>
      </trkpt>
      <trkpt lat="49.30572" lon="-1.22405">
        <ele>9.999522</ele>
        <time>2022-08-02T08:40:08.000Z</time>
      </trkpt>
      <trkpt lat="49.30573" lon="-1.22396">
        <ele>9.878792</ele>
        <time>2022-08-02T08:40:09.000Z</time>
      </trkpt>
      <trkpt lat="49.30575" lon="-1.22386">
        <ele>9.749903</ele>
        <time>2022-08-02T08:40:10.000Z</time>
      </trkpt>
      <trkpt lat="49.30577" lon="-1.22377">
        <ele>9.615414</ele>
        <time>2022-08-02T08:40:11.000Z</time>
      </trkpt>
      <trkpt lat="49.30579" lon="-1.22366">
        <ele>9.475222</ele>
        <time>2022-08-02T08:40:12.000Z</time>
      </trkpt>
      <trkpt lat="49.30582" lon="-1.22356">
        <ele>9.323462</ele>
        <time>2022-08-02T08:40:13.000Z</time>
      </trkpt>
      <trkpt lat="49.30584" lon="-1.22345">
        <ele>9.174428</ele>
        <time>2022-08-02T08:40:14.000Z</time>
      </trkpt>
      <trkpt lat="49.30586" lon="-1.22334">
        <ele>9.023738</ele>
        <time>2022-08-02T08:40:15.000Z</time>
      </trkpt>
      <trkpt lat="49.30589" lon="-1.22322">
        <ele>8.8668</ele>
        <time>2022-08-02T08:40:16.000Z</time>
      </trkpt>
      <trkpt lat="49.30591" lon="-1.22311">
        <ele>8.711404</ele>
        <time>2022-08-02T08:40:17.000Z</time>
      </trkpt>
      <trkpt lat="49.30594" lon="-1.223">
        <ele>8.556751</ele>
        <time>2022-08-02T08:40:18.000Z</time>
      </trkpt>
      <trkpt lat="49.30598" lon="-1.2229">
        <ele>8.40254</ele>
        <time>2022-08-02T08:40:19.000Z</time>
      </trkpt>
      <trkpt lat="49.30602" lon="-1.2228">
        <ele>8.24982</ele>
        <time>2022-08-02T08:40:20.000Z</time>
      </trkpt>
      <trkpt lat="49.30606" lon="-1.2227">
        <ele>8.35081</ele>
        <time>2022-08-02T08:40:21.000Z</time>
      </trkpt>
      <trkpt lat="49.3061" lon="-1.2226">
        <ele>8.464962</ele>
        <time>2022-08-02T08:40:22.000Z</time>
      </trkpt>
      <trkpt lat="49.30613" lon="-1.2225">
        <ele>8.579976</ele>
        <time>2022-08-02T08:40:23.000Z</time>
      </trkpt>
      <trkpt lat="49.30618" lon="-1.22241">
        <ele>8.694888</ele>
        <time>2022-08-02T08:40:24.000Z</time>
      </trkpt>
      <trkpt lat="49.30621" lon="-1.22232">
        <ele>8.804767</ele>
        <time>2022-08-02T08:40:25.000Z</time>
      </trkpt>
      <trkpt lat="49.30625" lon="-1.22223">
        <ele>8.911293</ele>
        <time>2022-08-02T08:40:26.000Z</time>
      </trkpt>
      <trkpt lat="49.30629" lon="-1.22214">
        <ele>9.014474</ele>
        <time>2022-08-02T08:40:27.000Z</time>
      </trkpt>
      <trkpt lat="49.30633" lon="-1.22207">
        <ele>9.11498</ele>
        <time>2022-08-02T08:40:28.000Z</time>
      </trkpt>
      <trkpt lat="49.30637" lon="-1.222">
        <ele>9.207705</ele>
        <time>2022-08-02T08:40:29.000Z</time>
      </trkpt>
      <trkpt lat="49.30642" lon="-1.22194">
        <ele>9.299262</ele>
        <time>2022-08-02T08:40:30.000Z</time>
      </trkpt>
      <trkpt lat="49.30647" lon="-1.22189">
        <ele>9.392203</ele>
        <time>2022-08-02T08:40:31.000Z</time>
      </trkpt>
      <trkpt lat="49.30652" lon="-1.22184">
        <ele>9.477526</ele>
        <time>2022-08-02T08:40:32.000Z</time>
      </trkpt>
      <trkpt lat="49.30656" lon="-1.22179">
        <ele>9.562266</ele>
        <time>2022-08-02T08:40:33.000Z</time>
      </trkpt>
      <trkpt lat="49.30661" lon="-1.22175">
        <ele>9.643675</ele>
        <time>2022-08-02T08:40:34.000Z</time>
      </trkpt>
      <trkpt lat="49.30665" lon="-1.2217">
        <ele>9.729029</ele>
        <time>2022-08-02T08:40:35.000Z</time>
      </trkpt>
      <trkpt lat="49.3067" lon="-1.22166">
        <ele>9.810973</ele>
        <time>2022-08-02T08:40:36.000Z</time>
      </trkpt>
      <trkpt lat="49.30674" lon="-1.22161">
        <ele>9.888973</ele>
        <time>2022-08-02T08:40:37.000Z</time>
      </trkpt>
      <trkpt lat="49.30678" lon="-1.22156">
        <ele>9.96965</ele>
        <time>2022-08-02T08:40:38.000Z</time>
      </trkpt>
      <trkpt lat="49.30682" lon="-1.22151">
        <ele>10.047183</ele>
        <time>2022-08-02T08:40:39.000Z</time>
      </trkpt>
      <trkpt lat="49.30685" lon="-1.22146">
        <ele>10.124061</ele>
        <time>2022-08-02T08:40:40.000Z</time>
      </trkpt>
      <trkpt lat="49.30689" lon="-1.22141">
        <ele>10.199993</ele>
        <time>2022-08-02T08:40:41.000Z</time>
      </trkpt>
      <trkpt lat="49.30693" lon="-1.22135">
        <ele>10.27819</ele>
        <time>2022-08-02T08:40:42.000Z</time>
      </trkpt>
      <trkpt lat="49.30697" lon="-1.2213">
        <ele>10.355723</ele>
        <time>2022-08-02T08:40:43.000Z</time>
      </trkpt>
      <trkpt lat="49.307" lon="-1.22125">
        <ele>10.427308</ele>
        <time>2022-08-02T08:40:44.000Z</time>
      </trkpt>
      <trkpt lat="49.30704" lon="-1.2212">
        <ele>10.508658</ele>
        <time>2022-08-02T08:40:45.000Z</time>
      </trkpt>
      <trkpt lat="49.30707" lon="-1.22114">
        <ele>10.5856</ele>
        <time>2022-08-02T08:40:46.000Z</time>
      </trkpt>
      <trkpt lat="49.30711" lon="-1.22109">
        <ele>10.664466</ele>
        <time>2022-08-02T08:40:47.000Z</time>
      </trkpt>
      <trkpt lat="49.30715" lon="-1.22103">
        <ele>10.741785</ele>
        <time>2022-08-02T08:40:48.000Z</time>
      </trkpt>
      <trkpt lat="49.30718" lon="-1.22098">
        <ele>10.812645</ele>
        <time>2022-08-02T08:40:49.000Z</time>
      </trkpt>
      <trkpt lat="49.30721" lon="-1.22093">
        <ele>10.888873</ele>
        <time>2022-08-02T08:40:50.000Z</time>
      </trkpt>
      <trkpt lat="49.30725" lon="-1.22087">
        <ele>10.965815</ele>
        <time>2022-08-02T08:40:51.000Z</time>
      </trkpt>
      <trkpt lat="49.30728" lon="-1.22082">
        <ele>11.086548</ele>
        <time>2022-08-02T08:40:52.000Z</time>
      </trkpt>
      <trkpt lat="49.30732" lon="-1.22076">
        <ele>11.279861</ele>
        <time>2022-08-02T08:40:53.000Z</time>
      </trkpt>
      <trkpt lat="49.30736" lon="-1.22071">
        <ele>11.47255</ele>
        <time>2022-08-02T08:40:54.000Z</time>
      </trkpt>
      <trkpt lat="49.30739" lon="-1.22065">
        <ele>11.659953</ele>
        <time>2022-08-02T08:40:55.000Z</time>
      </trkpt>
      <trkpt lat="49.30743" lon="-1.22059">
        <ele>11.854931</ele>
        <time>2022-08-02T08:40:56.000Z</time>
      </trkpt>
      <trkpt lat="49.30747" lon="-1.22053">
        <ele>12.054162</ele>
        <time>2022-08-02T08:40:57.000Z</time>
      </trkpt>
      <trkpt lat="49.30751" lon="-1.22048">
        <ele>12.253835</ele>
        <time>2022-08-02T08:40:58.000Z</time>
      </trkpt>
      <trkpt lat="49.30755" lon="-1.22042">
        <ele>12.462585</ele>
        <time>2022-08-02T08:40:59.000Z</time>
      </trkpt>
      <trkpt lat="49.3076" lon="-1.22035">
        <ele>12.687402</ele>
        <time>2022-08-02T08:41:00.000Z</time>
      </trkpt>
      <trkpt lat="49.30764" lon="-1.22029">
        <ele>12.910601</ele>
        <time>2022-08-02T08:41:01.000Z</time>
      </trkpt>
      <trkpt lat="49.30768" lon="-1.22023">
        <ele>13.101511</ele>
        <time>2022-08-02T08:41:02.000Z</time>
      </trkpt>
      <trkpt lat="49.30771" lon="-1.22017">
        <ele>13.285461</ele>
        <time>2022-08-02T08:41:03.000Z</time>
      </trkpt>
      <trkpt lat="49.30775" lon="-1.22012">
        <ele>13.489428</ele>
        <time>2022-08-02T08:41:04.000Z</time>
      </trkpt>
      <trkpt lat="49.30779" lon="-1.22006">
        <ele>13.668309</ele>
        <time>2022-08-02T08:41:05.000Z</time>
      </trkpt>
      <trkpt lat="49.30783" lon="-1.22001">
        <ele>13.856716</ele>
        <time>2022-08-02T08:41:06.000Z</time>
      </trkpt>
      <trkpt lat="49.30787" lon="-1.21996">
        <ele>14.046226</ele>
        <time>2022-08-02T08:41:07.000Z</time>
      </trkpt>
      <trkpt lat="49.3079" lon="-1.2199">
        <ele>14.225108</ele>
        <time>2022-08-02T08:41:08.000Z</time>
      </trkpt>
      <trkpt lat="49.30793" lon="-1.21985">
        <ele>14.398144</ele>
        <time>2022-08-02T08:41:09.000Z</time>
      </trkpt>
      <trkpt lat="49.30797" lon="-1.2198">
        <ele>14.572101</ele>
        <time>2022-08-02T08:41:10.000Z</time>
      </trkpt>
      <trkpt lat="49.30801" lon="-1.21975">
        <ele>14.755747</ele>
        <time>2022-08-02T08:41:11.000Z</time>
      </trkpt>
      <trkpt lat="49.30804" lon="-1.2197">
        <ele>14.935601</ele>
        <time>2022-08-02T08:41:12.000Z</time>
      </trkpt>
      <trkpt lat="49.30807" lon="-1.21965">
        <ele>15.10174</ele>
        <time>2022-08-02T08:41:13.000Z</time>
      </trkpt>
      <trkpt lat="49.30811" lon="-1.2196">
        <ele>15.275697</ele>
        <time>2022-08-02T08:41:14.000Z</time>
      </trkpt>
      <trkpt lat="49.30814" lon="-1.21954">
        <ele>15.457942</ele>
        <time>2022-08-02T08:41:15.000Z</time>
      </trkpt>
      <trkpt lat="49.30818" lon="-1.21948">
        <ele>15.652919</ele>
        <time>2022-08-02T08:41:16.000Z</time>
      </trkpt>
      <trkpt lat="49.30822" lon="-1.21942">
        <ele>15.844533</ele>
        <time>2022-08-02T08:41:17.000Z</time>
      </trkpt>
      <trkpt lat="49.30826" lon="-1.21937">
        <ele>16.04739</ele>
        <time>2022-08-02T08:41:18.000Z</time>
      </trkpt>
      <trkpt lat="49.3083" lon="-1.2193">
        <ele>16.26105</ele>
        <time>2022-08-02T08:41:19.000Z</time>
      </trkpt>
      <trkpt lat="49.30834" lon="-1.21924">
        <ele>16.470453</ele>
        <time>2022-08-02T08:41:20.000Z</time>
      </trkpt>
      <trkpt lat="49.30838" lon="-1.21918">
        <ele>16.682462</ele>
        <time>2022-08-02T08:41:21.000Z</time>
      </trkpt>
      <trkpt lat="49.30843" lon="-1.21912">
        <ele>16.89624</ele>
        <time>2022-08-02T08:41:22.000Z</time>
      </trkpt>
      <trkpt lat="49.30847" lon="-1.21906">
        <ele>17.09459</ele>
        <time>2022-08-02T08:41:23.000Z</time>
      </trkpt>
      <trkpt lat="49.30851" lon="-1.219">
        <ele>17.300135</ele>
        <time>2022-08-02T08:41:24.000Z</time>
      </trkpt>
      <trkpt lat="49.30854" lon="-1.21894">
        <ele>17.489282</ele>
        <time>2022-08-02T08:41:25.000Z</time>
      </trkpt>
      <trkpt lat="49.30858" lon="-1.21889">
        <ele>17.470671</ele>
        <time>2022-08-02T08:41:26.000Z</time>
      </trkpt>
      <trkpt lat="49.30862" lon="-1.21883">
        <ele>17.367576</ele>
        <time>2022-08-02T08:41:27.000Z</time>
      </trkpt>
      <trkpt lat="49.30866" lon="-1.21878">
        <ele>17.269254</ele>
        <time>2022-08-02T08:41:28.000Z</time>
      </trkpt>
      <trkpt lat="49.3087" lon="-1.21872">
        <ele>17.160056</ele>
        <time>2022-08-02T08:41:29.000Z</time>
      </trkpt>
      <trkpt lat="49.30874" lon="-1.21866">
        <ele>17.053044</ele>
        <time>2022-08-02T08:41:30.000Z</time>
      </trkpt>
      <trkpt lat="49.30877" lon="-1.2186">
        <ele>16.954862</ele>
        <time>2022-08-02T08:41:31.000Z</time>
      </trkpt>
      <trkpt lat="49.30881" lon="-1.21854">
        <ele>16.842241</ele>
        <time>2022-08-02T08:41:32.000Z</time>
      </trkpt>
      <trkpt lat="49.30885" lon="-1.21848">
        <ele>16.724132</ele>
        <time>2022-08-02T08:41:33.000Z</time>
      </trkpt>
      <trkpt lat="49.3089" lon="-1.21842">
        <ele>16.60886</ele>
        <time>2022-08-02T08:41:34.000Z</time>
      </trkpt>
      <trkpt lat="49.30894" lon="-1.21835">
        <ele>16.488444</ele>
        <time>2022-08-02T08:41:35.000Z</time>
      </trkpt>
      <trkpt lat="49.30899" lon="-1.21829">
        <ele>16.371446</ele>
        <time>2022-08-02T08:41:36.000Z</time>
      </trkpt>
      <trkpt lat="49.30903" lon="-1.21823">
        <ele>16.257569</ele>
        <time>2022-08-02T08:41:37.000Z</time>
      </trkpt>
      <trkpt lat="49.30908" lon="-1.21817">
        <ele>16.129877</ele>
        <time>2022-08-02T08:41:38.000Z</time>
      </trkpt>
      <trkpt lat="49.30913" lon="-1.21811">
        <ele>16.005915</ele>
        <time>2022-08-02T08:41:39.000Z</time>
      </trkpt>
      <trkpt lat="49.30917" lon="-1.21804">
        <ele>15.880275</ele>
        <time>2022-08-02T08:41:40.000Z</time>
      </trkpt>
      <trkpt lat="49.30923" lon="-1.21797">
        <ele>15.747017</ele>
        <time>2022-08-02T08:41:41.000Z</time>
      </trkpt>
      <trkpt lat="49.30928" lon="-1.21791">
        <ele>15.616906</ele>
        <time>2022-08-02T08:41:42.000Z</time>
      </trkpt>
      <trkpt lat="49.30933" lon="-1.21784">
        <ele>15.476769</ele>
        <time>2022-08-02T08:41:43.000Z</time>
      </trkpt>
      <trkpt lat="49.3094" lon="-1.21778">
        <ele>15.331752</ele>
        <time>2022-08-02T08:41:44.000Z</time>
      </trkpt>
      <trkpt lat="49.30945" lon="-1.21771">
        <ele>15.190803</ele>
        <time>2022-08-02T08:41:45.000Z</time>
      </trkpt>
      <trkpt lat="49.30951" lon="-1.21765">
        <ele>15.046505</ele>
        <time>2022-08-02T08:41:46.000Z</time>
      </trkpt>
      <trkpt lat="49.30957" lon="-1.21759">
        <ele>14.90383</ele>
        <time>2022-08-02T08:41:47.000Z</time>
      </trkpt>
      <trkpt lat="49.30964" lon="-1.21752">
        <ele>14.758813</ele>
        <time>2022-08-02T08:41:48.000Z</time>
      </trkpt>
      <trkpt lat="49.3097" lon="-1.21746">
        <ele>14.615927</ele>
        <time>2022-08-02T08:41:49.000Z</time>
      </trkpt>
      <trkpt lat="49.30977" lon="-1.2174">
        <ele>14.457318</ele>
        <time>2022-08-02T08:41:50.000Z</time>
      </trkpt>
      <trkpt lat="49.30983" lon="-1.21734">
        <ele>14.310138</ele>
        <time>2022-08-02T08:41:51.000Z</time>
      </trkpt>
      <trkpt lat="49.3099" lon="-1.21728">
        <ele>14.156207</ele>
        <time>2022-08-02T08:41:52.000Z</time>
      </trkpt>
      <trkpt lat="49.30997" lon="-1.21722">
        <ele>14.001201</ele>
        <time>2022-08-02T08:41:53.000Z</time>
      </trkpt>
      <trkpt lat="49.31004" lon="-1.21716">
        <ele>13.87876</ele>
        <time>2022-08-02T08:41:54.000Z</time>
      </trkpt>
      <trkpt lat="49.3101" lon="-1.2171">
        <ele>13.762943</ele>
        <time>2022-08-02T08:41:55.000Z</time>
      </trkpt>
      <trkpt lat="49.31017" lon="-1.21704">
        <ele>13.637133</ele>
        <time>2022-08-02T08:41:56.000Z</time>
      </trkpt>
      <trkpt lat="49.31023" lon="-1.21698">
        <ele>13.519737</ele>
        <time>2022-08-02T08:41:57.000Z</time>
      </trkpt>
      <trkpt lat="49.31029" lon="-1.21691">
        <ele>13.405874</ele>
        <time>2022-08-02T08:41:58.000Z</time>
      </trkpt>
      <trkpt lat="49.31036" lon="-1.21685">
        <ele>13.288387</ele>
        <time>2022-08-02T08:41:59.000Z</time>
      </trkpt>
      <trkpt lat="49.31041" lon="-1.21678">
        <ele>13.175261</ele>
        <time>2022-08-02T08:42:00.000Z</time>
      </trkpt>
      <trkpt lat="49.31047" lon="-1.21671">
        <ele>13.055957</ele>
        <time>2022-08-02T08:42:01.000Z</time>
      </trkpt>
      <trkpt lat="49.31053" lon="-1.21663">
        <ele>12.941084</ele>
        <time>2022-08-02T08:42:02.000Z</time>
      </trkpt>
      <trkpt lat="49.31059" lon="-1.21655">
        <ele>12.819556</ele>
        <time>2022-08-02T08:42:03.000Z</time>
      </trkpt>
      <trkpt lat="49.31063" lon="-1.21647">
        <ele>12.711681</ele>
        <time>2022-08-02T08:42:04.000Z</time>
      </trkpt>
      <trkpt lat="49.31068" lon="-1.21639">
        <ele>12.594756</ele>
        <time>2022-08-02T08:42:05.000Z</time>
      </trkpt>
      <trkpt lat="49.31073" lon="-1.2163">
        <ele>12.48206</ele>
        <time>2022-08-02T08:42:06.000Z</time>
      </trkpt>
      <trkpt lat="49.31078" lon="-1.21622">
        <ele>12.365467</ele>
        <time>2022-08-02T08:42:07.000Z</time>
      </trkpt>
      <trkpt lat="49.31083" lon="-1.21614">
        <ele>12.255817</ele>
        <time>2022-08-02T08:42:08.000Z</time>
      </trkpt>
      <trkpt lat="49.31087" lon="-1.21605">
        <ele>12.145572</ele>
        <time>2022-08-02T08:42:09.000Z</time>
      </trkpt>
      <trkpt lat="49.31091" lon="-1.21597">
        <ele>12.03885</ele>
        <time>2022-08-02T08:42:10.000Z</time>
      </trkpt>
      <trkpt lat="49.31095" lon="-1.21589">
        <ele>11.932928</ele>
        <time>2022-08-02T08:42:11.000Z</time>
      </trkpt>
      <trkpt lat="49.31099" lon="-1.2158">
        <ele>11.830739</ele>
        <time>2022-08-02T08:42:12.000Z</time>
      </trkpt>
      <trkpt lat="49.31103" lon="-1.21572">
        <ele>11.725614</ele>
        <time>2022-08-02T08:42:13.000Z</time>
      </trkpt>
      <trkpt lat="49.31107" lon="-1.21564">
        <ele>11.62606</ele>
        <time>2022-08-02T08:42:14.000Z</time>
      </trkpt>
      <trkpt lat="49.31111" lon="-1.21556">
        <ele>11.523871</ele>
        <time>2022-08-02T08:42:15.000Z</time>
      </trkpt>
      <trkpt lat="49.31114" lon="-1.21548">
        <ele>11.42601</ele>
        <time>2022-08-02T08:42:16.000Z</time>
      </trkpt>
      <trkpt lat="49.31117" lon="-1.2154">
        <ele>11.336563</ele>
        <time>2022-08-02T08:42:17.000Z</time>
      </trkpt>
      <trkpt lat="49.31121" lon="-1.21532">
        <ele>11.238702</ele>
        <time>2022-08-02T08:42:18.000Z</time>
      </trkpt>
      <trkpt lat="49.31124" lon="-1.21524">
        <ele>11.258195</ele>
        <time>2022-08-02T08:42:19.000Z</time>
      </trkpt>
      <trkpt lat="49.31128" lon="-1.21516">
        <ele>11.320282</ele>
        <time>2022-08-02T08:42:20.000Z</time>
      </trkpt>
      <trkpt lat="49.31131" lon="-1.21508">
        <ele>11.381367</ele>
        <time>2022-08-02T08:42:21.000Z</time>
      </trkpt>
      <trkpt lat="49.31134" lon="-1.215">
        <ele>11.443454</ele>
        <time>2022-08-02T08:42:22.000Z</time>
      </trkpt>
      <trkpt lat="49.31138" lon="-1.21492">
        <ele>11.50291</ele>
        <time>2022-08-02T08:42:23.000Z</time>
      </trkpt>
      <trkpt lat="49.31141" lon="-1.21484">
        <ele>11.559791</ele>
        <time>2022-08-02T08:42:24.000Z</time>
      </trkpt>
      <trkpt lat="49.31144" lon="-1.21476">
        <ele>11.617705</ele>
        <time>2022-08-02T08:42:25.000Z</time>
      </trkpt>
      <trkpt lat="49.31147" lon="-1.21469">
        <ele>11.670244</ele>
        <time>2022-08-02T08:42:26.000Z</time>
      </trkpt>
      <trkpt lat="49.3115" lon="-1.21463">
        <ele>11.724138</ele>
        <time>2022-08-02T08:42:27.000Z</time>
      </trkpt>
      <trkpt lat="49.31154" lon="-1.21456">
        <ele>11.775231</ele>
        <time>2022-08-02T08:42:28.000Z</time>
      </trkpt>
      <trkpt lat="49.31157" lon="-1.2145">
        <ele>11.825125</ele>
        <time>2022-08-02T08:42:29.000Z</time>
      </trkpt>
      <trkpt lat="49.3116" lon="-1.21444">
        <ele>11.875717</ele>
        <time>2022-08-02T08:42:30.000Z</time>
      </trkpt>
      <trkpt lat="49.31163" lon="-1.21437">
        <ele>11.927314</ele>
        <time>2022-08-02T08:42:31.000Z</time>
      </trkpt>
      <trkpt lat="49.31166" lon="-1.21431">
        <ele>11.975652</ele>
        <time>2022-08-02T08:42:32.000Z</time>
      </trkpt>
      <trkpt lat="49.31168" lon="-1.21424">
        <ele>12.022045</ele>
        <time>2022-08-02T08:42:33.000Z</time>
      </trkpt>
      <trkpt lat="49.3117" lon="-1.21418">
        <ele>12.066017</ele>
        <time>2022-08-02T08:42:34.000Z</time>
      </trkpt>
      <trkpt lat="49.31172" lon="-1.21411">
        <ele>12.113984</ele>
        <time>2022-08-02T08:42:35.000Z</time>
      </trkpt>
      <trkpt lat="49.31175" lon="-1.21405">
        <ele>12.166088</ele>
        <time>2022-08-02T08:42:36.000Z</time>
      </trkpt>
      <trkpt lat="49.31178" lon="-1.21398">
        <ele>12.216094</ele>
        <time>2022-08-02T08:42:37.000Z</time>
      </trkpt>
      <trkpt lat="49.31181" lon="-1.21391">
        <ele>12.266031</ele>
        <time>2022-08-02T08:42:38.000Z</time>
      </trkpt>
      <trkpt lat="49.31183" lon="-1.21384">
        <ele>12.316976</ele>
        <time>2022-08-02T08:42:39.000Z</time>
      </trkpt>
      <trkpt lat="49.31186" lon="-1.21378">
        <ele>12.364783</ele>
        <time>2022-08-02T08:42:40.000Z</time>
      </trkpt>
      <trkpt lat="49.31189" lon="-1.21371">
        <ele>12.416379</ele>
        <time>2022-08-02T08:42:41.000Z</time>
      </trkpt>
      <trkpt lat="49.31192" lon="-1.21365">
        <ele>12.464204</ele>
        <time>2022-08-02T08:42:42.000Z</time>
      </trkpt>
      <trkpt lat="49.31195" lon="-1.21359">
        <ele>12.510903</ele>
        <time>2022-08-02T08:42:43.000Z</time>
      </trkpt>
      <trkpt lat="49.31197" lon="-1.21353">
        <ele>12.557644</ele>
        <time>2022-08-02T08:42:44.000Z</time>
      </trkpt>
      <trkpt lat="49.312" lon="-1.21347">
        <ele>12.604959</ele>
        <time>2022-08-02T08:42:45.000Z</time>
      </trkpt>
      <trkpt lat="49.31204" lon="-1.21341">
        <ele>12.655023</ele>
        <time>2022-08-02T08:42:46.000Z</time>
      </trkpt>
      <trkpt lat="49.31206" lon="-1.21335">
        <ele>12.700135</ele>
        <time>2022-08-02T08:42:47.000Z</time>
      </trkpt>
      <trkpt lat="49.31209" lon="-1.2133">
        <ele>12.745439</ele>
        <time>2022-08-02T08:42:48.000Z</time>
      </trkpt>
      <trkpt lat="49.31212" lon="-1.21324">
        <ele>12.79124</ele>
        <time>2022-08-02T08:42:49.000Z</time>
      </trkpt>
      <trkpt lat="49.31214" lon="-1.21318">
        <ele>12.833747</ele>
        <time>2022-08-02T08:42:50.000Z</time>
      </trkpt>
      <trkpt lat="49.31217" lon="-1.21312">
        <ele>12.879385</ele>
        <time>2022-08-02T08:42:51.000Z</time>
      </trkpt>
      <trkpt lat="49.3122" lon="-1.21306">
        <ele>12.925565</ele>
        <time>2022-08-02T08:42:52.000Z</time>
      </trkpt>
      <trkpt lat="49.31222" lon="-1.213">
        <ele>12.955307</ele>
        <time>2022-08-02T08:42:53.000Z</time>
      </trkpt>
      <trkpt lat="49.31225" lon="-1.21293">
        <ele>12.935872</ele>
        <time>2022-08-02T08:42:54.000Z</time>
      </trkpt>
      <trkpt lat="49.31228" lon="-1.21287">
        <ele>12.917717</ele>
        <time>2022-08-02T08:42:55.000Z</time>
      </trkpt>
      <trkpt lat="49.31231" lon="-1.21281">
        <ele>12.898282</ele>
        <time>2022-08-02T08:42:56.000Z</time>
      </trkpt>
      <trkpt lat="49.31234" lon="-1.21274">
        <ele>12.880138</ele>
        <time>2022-08-02T08:42:57.000Z</time>
      </trkpt>
      <trkpt lat="49.31237" lon="-1.21268">
        <ele>12.860511</ele>
        <time>2022-08-02T08:42:58.000Z</time>
      </trkpt>
      <trkpt lat="49.31239" lon="-1.21261">
        <ele>12.841746</ele>
        <time>2022-08-02T08:42:59.000Z</time>
      </trkpt>
      <trkpt lat="49.31242" lon="-1.21255">
        <ele>12.82296</ele>
        <time>2022-08-02T08:43:00.000Z</time>
      </trkpt>
      <trkpt lat="49.31245" lon="-1.21248">
        <ele>12.803793</ele>
        <time>2022-08-02T08:43:01.000Z</time>
      </trkpt>
      <trkpt lat="49.31247" lon="-1.21242">
        <ele>12.785971</ele>
        <time>2022-08-02T08:43:02.000Z</time>
      </trkpt>
      <trkpt lat="49.3125" lon="-1.21235">
        <ele>12.767827</ele>
        <time>2022-08-02T08:43:03.000Z</time>
      </trkpt>
      <trkpt lat="49.31253" lon="-1.21229">
        <ele>12.748007</ele>
        <time>2022-08-02T08:43:04.000Z</time>
      </trkpt>
      <trkpt lat="49.31255" lon="-1.21222">
        <ele>12.729449</ele>
        <time>2022-08-02T08:43:05.000Z</time>
      </trkpt>
      <trkpt lat="49.31258" lon="-1.21215">
        <ele>12.709672</ele>
        <time>2022-08-02T08:43:06.000Z</time>
      </trkpt>
      <trkpt lat="49.31261" lon="-1.21209">
        <ele>12.689264</ele>
        <time>2022-08-02T08:43:07.000Z</time>
      </trkpt>
      <trkpt lat="49.31265" lon="-1.21202">
        <ele>12.669829</ele>
        <time>2022-08-02T08:43:08.000Z</time>
      </trkpt>
      <trkpt lat="49.31268" lon="-1.21196">
        <ele>12.650663</ele>
        <time>2022-08-02T08:43:09.000Z</time>
      </trkpt>
      <trkpt lat="49.31271" lon="-1.21189">
        <ele>12.630842</ele>
        <time>2022-08-02T08:43:10.000Z</time>
      </trkpt>
      <trkpt lat="49.31274" lon="-1.21183">
        <ele>12.611272</ele>
        <time>2022-08-02T08:43:11.000Z</time>
      </trkpt>
      <trkpt lat="49.31277" lon="-1.21176">
        <ele>12.589805</ele>
        <time>2022-08-02T08:43:12.000Z</time>
      </trkpt>
      <trkpt lat="49.31281" lon="-1.21169">
        <ele>12.568338</ele>
        <time>2022-08-02T08:43:13.000Z</time>
      </trkpt>
      <trkpt lat="49.31284" lon="-1.21161">
        <ele>12.547133</ele>
        <time>2022-08-02T08:43:14.000Z</time>
      </trkpt>
      <trkpt lat="49.31287" lon="-1.21154">
        <ele>12.525437</ele>
        <time>2022-08-02T08:43:15.000Z</time>
      </trkpt>
      <trkpt lat="49.31291" lon="-1.21148">
        <ele>12.505029</ele>
        <time>2022-08-02T08:43:16.000Z</time>
      </trkpt>
      <trkpt lat="49.31293" lon="-1.21141">
        <ele>12.486475</ele>
        <time>2022-08-02T08:43:17.000Z</time>
      </trkpt>
      <trkpt lat="49.31297" lon="-1.21135">
        <ele>12.466264</ele>
        <time>2022-08-02T08:43:18.000Z</time>
      </trkpt>
      <trkpt lat="49.313" lon="-1.21128">
        <ele>12.446694</ele>
        <time>2022-08-02T08:43:19.000Z</time>
      </trkpt>
      <trkpt lat="49.31303" lon="-1.21122">
        <ele>12.427641</ele>
        <time>2022-08-02T08:43:20.000Z</time>
      </trkpt>
      <trkpt lat="49.31306" lon="-1.21115">
        <ele>12.408475</ele>
        <time>2022-08-02T08:43:21.000Z</time>
      </trkpt>
      <trkpt lat="49.31309" lon="-1.21109">
        <ele>12.387583</ele>
        <time>2022-08-02T08:43:22.000Z</time>
      </trkpt>
      <trkpt lat="49.31312" lon="-1.21101">
        <ele>12.365362</ele>
        <time>2022-08-02T08:43:23.000Z</time>
      </trkpt>
      <trkpt lat="49.31316" lon="-1.21093">
        <ele>12.342936</ele>
        <time>2022-08-02T08:43:24.000Z</time>
      </trkpt>
      <trkpt lat="49.31319" lon="-1.21085">
        <ele>12.319086</ele>
        <time>2022-08-02T08:43:25.000Z</time>
      </trkpt>
      <trkpt lat="49.31323" lon="-1.21077">
        <ele>12.294827</ele>
        <time>2022-08-02T08:43:26.000Z</time>
      </trkpt>
      <trkpt lat="49.31326" lon="-1.21068">
        <ele>12.265033</ele>
        <time>2022-08-02T08:43:27.000Z</time>
      </trkpt>
      <trkpt lat="49.3133" lon="-1.21059">
        <ele>12.233089</ele>
        <time>2022-08-02T08:43:28.000Z</time>
      </trkpt>
      <trkpt lat="49.31333" lon="-1.2105">
        <ele>12.20233</ele>
        <time>2022-08-02T08:43:29.000Z</time>
      </trkpt>
      <trkpt lat="49.31337" lon="-1.21041">
        <ele>12.170375</ele>
        <time>2022-08-02T08:43:30.000Z</time>
      </trkpt>
      <trkpt lat="49.3134" lon="-1.21032">
        <ele>12.139931</ele>
        <time>2022-08-02T08:43:31.000Z</time>
      </trkpt>
      <trkpt lat="49.31342" lon="-1.21022">
        <ele>12.108191</ele>
        <time>2022-08-02T08:43:32.000Z</time>
      </trkpt>
      <trkpt lat="49.31343" lon="-1.21013">
        <ele>12.07884</ele>
        <time>2022-08-02T08:43:33.000Z</time>
      </trkpt>
      <trkpt lat="49.31344" lon="-1.21003">
        <ele>12.04912</ele>
        <time>2022-08-02T08:43:34.000Z</time>
      </trkpt>
      <trkpt lat="49.31344" lon="-1.20993">
        <ele>12.019764</ele>
        <time>2022-08-02T08:43:35.000Z</time>
      </trkpt>
      <trkpt lat="49.31344" lon="-1.20984">
        <ele>11.992225</ele>
        <time>2022-08-02T08:43:36.000Z</time>
      </trkpt>
      <trkpt lat="49.31343" lon="-1.20975">
        <ele>11.964244</ele>
        <time>2022-08-02T08:43:37.000Z</time>
      </trkpt>
      <trkpt lat="49.31343" lon="-1.20966">
        <ele>11.937415</ele>
        <time>2022-08-02T08:43:38.000Z</time>
      </trkpt>
      <trkpt lat="49.31342" lon="-1.20957">
        <ele>11.910444</ele>
        <time>2022-08-02T08:43:39.000Z</time>
      </trkpt>
      <trkpt lat="49.31341" lon="-1.20949">
        <ele>11.884007</ele>
        <time>2022-08-02T08:43:40.000Z</time>
      </trkpt>
      <trkpt lat="49.31341" lon="-1.2094">
        <ele>11.857946</ele>
        <time>2022-08-02T08:43:41.000Z</time>
      </trkpt>
      <trkpt lat="49.3134" lon="-1.20932">
        <ele>11.832105</ele>
        <time>2022-08-02T08:43:42.000Z</time>
      </trkpt>
      <trkpt lat="49.31339" lon="-1.20923">
        <ele>11.806231</ele>
        <time>2022-08-02T08:43:43.000Z</time>
      </trkpt>
      <trkpt lat="49.31339" lon="-1.20915">
        <ele>11.780469</ele>
        <time>2022-08-02T08:43:44.000Z</time>
      </trkpt>
      <trkpt lat="49.31337" lon="-1.20906">
        <ele>11.754047</ele>
        <time>2022-08-02T08:43:45.000Z</time>
      </trkpt>
      <trkpt lat="49.31337" lon="-1.20898">
        <ele>11.728719</ele>
        <time>2022-08-02T08:43:46.000Z</time>
      </trkpt>
      <trkpt lat="49.31336" lon="-1.2089">
        <ele>11.703554</ele>
        <time>2022-08-02T08:43:47.000Z</time>
      </trkpt>
      <trkpt lat="49.31335" lon="-1.20881">
        <ele>11.677626</ele>
        <time>2022-08-02T08:43:48.000Z</time>
      </trkpt>
      <trkpt lat="49.31334" lon="-1.20873">
        <ele>11.651752</ele>
        <time>2022-08-02T08:43:49.000Z</time>
      </trkpt>
      <trkpt lat="49.31333" lon="-1.20865">
        <ele>11.626507</ele>
        <time>2022-08-02T08:43:50.000Z</time>
      </trkpt>
      <trkpt lat="49.31332" lon="-1.20857">
        <ele>11.601938</ele>
        <time>2022-08-02T08:43:51.000Z</time>
      </trkpt>
      <trkpt lat="49.31331" lon="-1.20848">
        <ele>11.576097</ele>
        <time>2022-08-02T08:43:52.000Z</time>
      </trkpt>
      <trkpt lat="49.31331" lon="-1.2084">
        <ele>11.550824</ele>
        <time>2022-08-02T08:43:53.000Z</time>
      </trkpt>
      <trkpt lat="49.3133" lon="-1.20832">
        <ele>11.525637</ele>
        <time>2022-08-02T08:43:54.000Z</time>
      </trkpt>
      <trkpt lat="49.3133" lon="-1.20823">
        <ele>11.498559</ele>
        <time>2022-08-02T08:43:55.000Z</time>
      </trkpt>
      <trkpt lat="49.3133" lon="-1.20814">
        <ele>11.47118</ele>
        <time>2022-08-02T08:43:56.000Z</time>
      </trkpt>
      <trkpt lat="49.3133" lon="-1.20805">
        <ele>11.444872</ele>
        <time>2022-08-02T08:43:57.000Z</time>
      </trkpt>
      <trkpt lat="49.3133" lon="-1.20796">
        <ele>11.420834</ele>
        <time>2022-08-02T08:43:58.000Z</time>
      </trkpt>
      <trkpt lat="49.31331" lon="-1.20786">
        <ele>11.395673</ele>
        <time>2022-08-02T08:43:59.000Z</time>
      </trkpt>
      <trkpt lat="49.31331" lon="-1.20777">
        <ele>11.371368</ele>
        <time>2022-08-02T08:44:00.000Z</time>
      </trkpt>
      <trkpt lat="49.31331" lon="-1.20767">
        <ele>11.344897</ele>
        <time>2022-08-02T08:44:01.000Z</time>
      </trkpt>
      <trkpt lat="49.31332" lon="-1.20758">
        <ele>11.318606</ele>
        <time>2022-08-02T08:44:02.000Z</time>
      </trkpt>
      <trkpt lat="49.31332" lon="-1.20748">
        <ele>11.29254</ele>
        <time>2022-08-02T08:44:03.000Z</time>
      </trkpt>
      <trkpt lat="49.31333" lon="-1.20738">
        <ele>11.267047</ele>
        <time>2022-08-02T08:44:04.000Z</time>
      </trkpt>
      <trkpt lat="49.31334" lon="-1.20729">
        <ele>11.242426</ele>
        <time>2022-08-02T08:44:05.000Z</time>
      </trkpt>
      <trkpt lat="49.31335" lon="-1.2072">
        <ele>11.218106</ele>
        <time>2022-08-02T08:44:06.000Z</time>
      </trkpt>
      <trkpt lat="49.31336" lon="-1.20711">
        <ele>11.192702</ele>
        <time>2022-08-02T08:44:07.000Z</time>
      </trkpt>
      <trkpt lat="49.31338" lon="-1.20702">
        <ele>11.167297</ele>
        <time>2022-08-02T08:44:08.000Z</time>
      </trkpt>
      <trkpt lat="49.31339" lon="-1.20693">
        <ele>11.142154</ele>
        <time>2022-08-02T08:44:09.000Z</time>
      </trkpt>
      <trkpt lat="49.3134" lon="-1.20683">
        <ele>11.11675</ele>
        <time>2022-08-02T08:44:10.000Z</time>
      </trkpt>
      <trkpt lat="49.31341" lon="-1.20674">
        <ele>11.09169</ele>
        <time>2022-08-02T08:44:11.000Z</time>
      </trkpt>
      <trkpt lat="49.31343" lon="-1.20665">
        <ele>11.066547</ele>
        <time>2022-08-02T08:44:12.000Z</time>
      </trkpt>
      <trkpt lat="49.31344" lon="-1.20656">
        <ele>11.041665</ele>
        <time>2022-08-02T08:44:13.000Z</time>
      </trkpt>
      <trkpt lat="49.31345" lon="-1.20647">
        <ele>11.016753</ele>
        <time>2022-08-02T08:44:14.000Z</time>
      </trkpt>
      <trkpt lat="49.31346" lon="-1.20637">
        <ele>10.992058</ele>
        <time>2022-08-02T08:44:15.000Z</time>
      </trkpt>
      <trkpt lat="49.31347" lon="-1.20628">
        <ele>10.967409</ele>
        <time>2022-08-02T08:44:16.000Z</time>
      </trkpt>
      <trkpt lat="49.31347" lon="-1.20619">
        <ele>10.943371</ele>
        <time>2022-08-02T08:44:17.000Z</time>
      </trkpt>
      <trkpt lat="49.31347" lon="-1.2061">
        <ele>10.919568</ele>
        <time>2022-08-02T08:44:18.000Z</time>
      </trkpt>
      <trkpt lat="49.31347" lon="-1.20601">
        <ele>10.895529</ele>
        <time>2022-08-02T08:44:19.000Z</time>
      </trkpt>
      <trkpt lat="49.31347" lon="-1.20592">
        <ele>10.871459</ele>
        <time>2022-08-02T08:44:20.000Z</time>
      </trkpt>
      <trkpt lat="49.31346" lon="-1.20584">
        <ele>10.848127</ele>
        <time>2022-08-02T08:44:21.000Z</time>
      </trkpt>
      <trkpt lat="49.31345" lon="-1.20575">
        <ele>10.824324</ele>
        <time>2022-08-02T08:44:22.000Z</time>
      </trkpt>
      <trkpt lat="49.31345" lon="-1.20566">
        <ele>10.80144</ele>
        <time>2022-08-02T08:44:23.000Z</time>
      </trkpt>
      <trkpt lat="49.31344" lon="-1.20558">
        <ele>10.779136</ele>
        <time>2022-08-02T08:44:24.000Z</time>
      </trkpt>
      <trkpt lat="49.31343" lon="-1.2055">
        <ele>10.756336</ele>
        <time>2022-08-02T08:44:25.000Z</time>
      </trkpt>
      <trkpt lat="49.31342" lon="-1.20542">
        <ele>10.734827</ele>
        <time>2022-08-02T08:44:26.000Z</time>
      </trkpt>
      <trkpt lat="49.31341" lon="-1.20534">
        <ele>10.718657</ele>
        <time>2022-08-02T08:44:27.000Z</time>
      </trkpt>
      <trkpt lat="49.31341" lon="-1.20526">
        <ele>10.726108</ele>
        <time>2022-08-02T08:44:28.000Z</time>
      </trkpt>
      <trkpt lat="49.3134" lon="-1.20519">
        <ele>10.733463</ele>
        <time>2022-08-02T08:44:29.000Z</time>
      </trkpt>
      <trkpt lat="49.31339" lon="-1.20511">
        <ele>10.741177</ele>
        <time>2022-08-02T08:44:30.000Z</time>
      </trkpt>
      <trkpt lat="49.31338" lon="-1.20504">
        <ele>10.748823</ele>
        <time>2022-08-02T08:44:31.000Z</time>
      </trkpt>
      <trkpt lat="49.31337" lon="-1.20496">
        <ele>10.75647</ele>
        <time>2022-08-02T08:44:32.000Z</time>
      </trkpt>
      <trkpt lat="49.31336" lon="-1.20488">
        <ele>10.764409</ele>
        <time>2022-08-02T08:44:33.000Z</time>
      </trkpt>
      <trkpt lat="49.31335" lon="-1.20481">
        <ele>10.772075</ele>
        <time>2022-08-02T08:44:34.000Z</time>
      </trkpt>
      <trkpt lat="49.31334" lon="-1.20473">
        <ele>10.779526</ele>
        <time>2022-08-02T08:44:35.000Z</time>
      </trkpt>
      <trkpt lat="49.31333" lon="-1.20465">
        <ele>10.787269</ele>
        <time>2022-08-02T08:44:36.000Z</time>
      </trkpt>
      <trkpt lat="49.31333" lon="-1.20458">
        <ele>10.794885</ele>
        <time>2022-08-02T08:44:37.000Z</time>
      </trkpt>
      <trkpt lat="49.31332" lon="-1.2045">
        <ele>10.802492</ele>
        <time>2022-08-02T08:44:38.000Z</time>
      </trkpt>
      <trkpt lat="49.31331" lon="-1.20442">
        <ele>10.810331</ele>
        <time>2022-08-02T08:44:39.000Z</time>
      </trkpt>
      <trkpt lat="49.31331" lon="-1.20434">
        <ele>10.818272</ele>
        <time>2022-08-02T08:44:40.000Z</time>
      </trkpt>
      <trkpt lat="49.3133" lon="-1.20426">
        <ele>10.826085</ele>
        <time>2022-08-02T08:44:41.000Z</time>
      </trkpt>
      <trkpt lat="49.3133" lon="-1.20419">
        <ele>10.83358</ele>
        <time>2022-08-02T08:44:42.000Z</time>
      </trkpt>
      <trkpt lat="49.3133" lon="-1.20411">
        <ele>10.841468</ele>
        <time>2022-08-02T08:44:43.000Z</time>
      </trkpt>
      <trkpt lat="49.31331" lon="-1.20403">
        <ele>10.849282</ele>
        <time>2022-08-02T08:44:44.000Z</time>
      </trkpt>
      <trkpt lat="49.31331" lon="-1.20395">
        <ele>10.857223</ele>
        <time>2022-08-02T08:44:45.000Z</time>
      </trkpt>
      <trkpt lat="49.31332" lon="-1.20386">
        <ele>10.865837</ele>
        <time>2022-08-02T08:44:46.000Z</time>
      </trkpt>
      <trkpt lat="49.31333" lon="-1.20378">
        <ele>10.874329</ele>
        <time>2022-08-02T08:44:47.000Z</time>
      </trkpt>
      <trkpt lat="49.31335" lon="-1.20369">
        <ele>10.883528</ele>
        <time>2022-08-02T08:44:48.000Z</time>
      </trkpt>
      <trkpt lat="49.31336" lon="-1.2036">
        <ele>10.892632</ele>
        <time>2022-08-02T08:44:49.000Z</time>
      </trkpt>
      <trkpt lat="49.31338" lon="-1.20351">
        <ele>10.901818</ele>
        <time>2022-08-02T08:44:50.000Z</time>
      </trkpt>
      <trkpt lat="49.31339" lon="-1.20341">
        <ele>10.911398</ele>
        <time>2022-08-02T08:44:51.000Z</time>
      </trkpt>
      <trkpt lat="49.31341" lon="-1.20332">
        <ele>10.920597</ele>
        <time>2022-08-02T08:44:52.000Z</time>
      </trkpt>
      <trkpt lat="49.31342" lon="-1.20323">
        <ele>10.929976</ele>
        <time>2022-08-02T08:44:53.000Z</time>
      </trkpt>
      <trkpt lat="49.31343" lon="-1.20314">
        <ele>10.939247</ele>
        <time>2022-08-02T08:44:54.000Z</time>
      </trkpt>
      <trkpt lat="49.31345" lon="-1.20304">
        <ele>10.949305</ele>
        <time>2022-08-02T08:44:55.000Z</time>
      </trkpt>
      <trkpt lat="49.31346" lon="-1.20294">
        <ele>10.959086</ele>
        <time>2022-08-02T08:44:56.000Z</time>
      </trkpt>
      <trkpt lat="49.31347" lon="-1.20284">
        <ele>10.969063</ele>
        <time>2022-08-02T08:44:57.000Z</time>
      </trkpt>
      <trkpt lat="49.31347" lon="-1.20274">
        <ele>10.978769</ele>
        <time>2022-08-02T08:44:58.000Z</time>
      </trkpt>
      <trkpt lat="49.31348" lon="-1.20264">
        <ele>10.98864</ele>
        <time>2022-08-02T08:44:59.000Z</time>
      </trkpt>
      <trkpt lat="49.31348" lon="-1.20255">
        <ele>11.041929</ele>
        <time>2022-08-02T08:45:00.000Z</time>
      </trkpt>
      <trkpt lat="49.31349" lon="-1.20245">
        <ele>11.095757</ele>
        <time>2022-08-02T08:45:01.000Z</time>
      </trkpt>
      <trkpt lat="49.31349" lon="-1.20236">
        <ele>11.150098</ele>
        <time>2022-08-02T08:45:02.000Z</time>
      </trkpt>
      <trkpt lat="49.31348" lon="-1.20227">
        <ele>11.202194</ele>
        <time>2022-08-02T08:45:03.000Z</time>
      </trkpt>
      <trkpt lat="49.31348" lon="-1.20218">
        <ele>11.2548</ele>
        <time>2022-08-02T08:45:04.000Z</time>
      </trkpt>
      <trkpt lat="49.31348" lon="-1.20209">
        <ele>11.306623</ele>
        <time>2022-08-02T08:45:05.000Z</time>
      </trkpt>
      <trkpt lat="49.31348" lon="-1.202">
        <ele>11.358651</ele>
        <time>2022-08-02T08:45:06.000Z</time>
      </trkpt>
      <trkpt lat="49.31348" lon="-1.20191">
        <ele>11.409522</ele>
        <time>2022-08-02T08:45:07.000Z</time>
      </trkpt>
      <trkpt lat="49.31348" lon="-1.20182">
        <ele>11.46155</ele>
        <time>2022-08-02T08:45:08.000Z</time>
      </trkpt>
      <trkpt lat="49.31348" lon="-1.20173">
        <ele>11.512422</ele>
        <time>2022-08-02T08:45:09.000Z</time>
      </trkpt>
      <trkpt lat="49.31348" lon="-1.20165">
        <ele>11.560981</ele>
        <time>2022-08-02T08:45:10.000Z</time>
      </trkpt>
      <trkpt lat="49.31348" lon="-1.20156">
        <ele>11.61051</ele>
        <time>2022-08-02T08:45:11.000Z</time>
      </trkpt>
      <trkpt lat="49.31348" lon="-1.20148">
        <ele>11.658491</ele>
        <time>2022-08-02T08:45:12.000Z</time>
      </trkpt>
      <trkpt lat="49.31349" lon="-1.2014">
        <ele>11.706546</ele>
        <time>2022-08-02T08:45:13.000Z</time>
      </trkpt>
      <trkpt lat="49.31349" lon="-1.20132">
        <ele>11.752215</ele>
        <time>2022-08-02T08:45:14.000Z</time>
      </trkpt>
      <trkpt lat="49.31348" lon="-1.20124">
        <ele>11.799116</ele>
        <time>2022-08-02T08:45:15.000Z</time>
      </trkpt>
      <trkpt lat="49.31348" lon="-1.20116">
        <ele>11.844785</ele>
        <time>2022-08-02T08:45:16.000Z</time>
      </trkpt>
      <trkpt lat="49.31348" lon="-1.20108">
        <ele>11.890301</ele>
        <time>2022-08-02T08:45:17.000Z</time>
      </trkpt>
      <trkpt lat="49.31348" lon="-1.201">
        <ele>11.935392</ele>
        <time>2022-08-02T08:45:18.000Z</time>
      </trkpt>
      <trkpt lat="49.31348" lon="-1.20092">
        <ele>11.981639</ele>
        <time>2022-08-02T08:45:19.000Z</time>
      </trkpt>
      <trkpt lat="49.31347" lon="-1.20084">
        <ele>12.029116</ele>
        <time>2022-08-02T08:45:20.000Z</time>
      </trkpt>
      <trkpt lat="49.31347" lon="-1.20076">
        <ele>12.077172</ele>
        <time>2022-08-02T08:45:21.000Z</time>
      </trkpt>
      <trkpt lat="49.31347" lon="-1.20067">
        <ele>12.127536</ele>
        <time>2022-08-02T08:45:22.000Z</time>
      </trkpt>
      <trkpt lat="49.31346" lon="-1.20058">
        <ele>12.179174</ele>
        <time>2022-08-02T08:45:23.000Z</time>
      </trkpt>
      <trkpt lat="49.31345" lon="-1.2005">
        <ele>12.229749</ele>
        <time>2022-08-02T08:45:24.000Z</time>
      </trkpt>
      <trkpt lat="49.31344" lon="-1.20041">
        <ele>12.279277</ele>
        <time>2022-08-02T08:45:25.000Z</time>
      </trkpt>
      <trkpt lat="49.31343" lon="-1.20033">
        <ele>12.327917</ele>
        <time>2022-08-02T08:45:26.000Z</time>
      </trkpt>
      <trkpt lat="49.31343" lon="-1.20024">
        <ele>12.377445</ele>
        <time>2022-08-02T08:45:27.000Z</time>
      </trkpt>
      <trkpt lat="49.31342" lon="-1.20016">
        <ele>12.42781</ele>
        <time>2022-08-02T08:45:28.000Z</time>
      </trkpt>
      <trkpt lat="49.31342" lon="-1.20007">
        <ele>12.475791</ele>
        <time>2022-08-02T08:45:29.000Z</time>
      </trkpt>
      <trkpt lat="49.31342" lon="-1.19999">
        <ele>12.524423</ele>
        <time>2022-08-02T08:45:30.000Z</time>
      </trkpt>
      <trkpt lat="49.31342" lon="-1.1999">
        <ele>12.573561</ele>
        <time>2022-08-02T08:45:31.000Z</time>
      </trkpt>
      <trkpt lat="49.31342" lon="-1.19982">
        <ele>12.648056</ele>
        <time>2022-08-02T08:45:32.000Z</time>
      </trkpt>
      <trkpt lat="49.31342" lon="-1.19974">
        <ele>12.729968</ele>
        <time>2022-08-02T08:45:33.000Z</time>
      </trkpt>
      <trkpt lat="49.31343" lon="-1.19966">
        <ele>12.809439</ele>
        <time>2022-08-02T08:45:34.000Z</time>
      </trkpt>
      <trkpt lat="49.31344" lon="-1.19958">
        <ele>12.888859</ele>
        <time>2022-08-02T08:45:35.000Z</time>
      </trkpt>
      <trkpt lat="49.31345" lon="-1.1995">
        <ele>12.96441</ele>
        <time>2022-08-02T08:45:36.000Z</time>
      </trkpt>
      <trkpt lat="49.31346" lon="-1.19943">
        <ele>13.039959</ele>
        <time>2022-08-02T08:45:37.000Z</time>
      </trkpt>
      <trkpt lat="49.31347" lon="-1.19935">
        <ele>13.115593</ele>
        <time>2022-08-02T08:45:38.000Z</time>
      </trkpt>
      <trkpt lat="49.31349" lon="-1.19928">
        <ele>13.18973</ele>
        <time>2022-08-02T08:45:39.000Z</time>
      </trkpt>
      <trkpt lat="49.3135" lon="-1.19921">
        <ele>13.266671</ele>
        <time>2022-08-02T08:45:40.000Z</time>
      </trkpt>
      <trkpt lat="49.31351" lon="-1.19914">
        <ele>13.339451</ele>
        <time>2022-08-02T08:45:41.000Z</time>
      </trkpt>
      <trkpt lat="49.31353" lon="-1.19906">
        <ele>13.414706</ele>
        <time>2022-08-02T08:45:42.000Z</time>
      </trkpt>
      <trkpt lat="49.31354" lon="-1.19899">
        <ele>13.490254</ele>
        <time>2022-08-02T08:45:43.000Z</time>
      </trkpt>
      <trkpt lat="49.31355" lon="-1.19891">
        <ele>13.565803</ele>
        <time>2022-08-02T08:45:44.000Z</time>
      </trkpt>
      <trkpt lat="49.31355" lon="-1.19884">
        <ele>13.640943</ele>
        <time>2022-08-02T08:45:45.000Z</time>
      </trkpt>
      <trkpt lat="49.31355" lon="-1.19876">
        <ele>13.714113</ele>
        <time>2022-08-02T08:45:46.000Z</time>
      </trkpt>
      <trkpt lat="49.31354" lon="-1.19869">
        <ele>13.785799</ele>
        <time>2022-08-02T08:45:47.000Z</time>
      </trkpt>
      <trkpt lat="49.31352" lon="-1.19862">
        <ele>13.85668</ele>
        <time>2022-08-02T08:45:48.000Z</time>
      </trkpt>
      <trkpt lat="49.3135" lon="-1.19856">
        <ele>13.926981</ele>
        <time>2022-08-02T08:45:49.000Z</time>
      </trkpt>
      <trkpt lat="49.31348" lon="-1.1985">
        <ele>13.997561</ele>
        <time>2022-08-02T08:45:50.000Z</time>
      </trkpt>
      <trkpt lat="49.31345" lon="-1.19845">
        <ele>14.062873</ele>
        <time>2022-08-02T08:45:51.000Z</time>
      </trkpt>
      <trkpt lat="49.31341" lon="-1.19841">
        <ele>14.134356</ele>
        <time>2022-08-02T08:45:52.000Z</time>
      </trkpt>
      <trkpt lat="49.31337" lon="-1.19838">
        <ele>14.196038</ele>
        <time>2022-08-02T08:45:53.000Z</time>
      </trkpt>
      <trkpt lat="49.31333" lon="-1.19835">
        <ele>14.266595</ele>
        <time>2022-08-02T08:45:54.000Z</time>
      </trkpt>
      <trkpt lat="49.31329" lon="-1.19832">
        <ele>14.330846</ele>
        <time>2022-08-02T08:45:55.000Z</time>
      </trkpt>
      <trkpt lat="49.31325" lon="-1.19829">
        <ele>14.399409</ele>
        <time>2022-08-02T08:45:56.000Z</time>
      </trkpt>
      <trkpt lat="49.31321" lon="-1.19828">
        <ele>14.469566</ele>
        <time>2022-08-02T08:45:57.000Z</time>
      </trkpt>
      <trkpt lat="49.31317" lon="-1.19826">
        <ele>14.533859</ele>
        <time>2022-08-02T08:45:58.000Z</time>
      </trkpt>
      <trkpt lat="49.31312" lon="-1.19824">
        <ele>14.599874</ele>
        <time>2022-08-02T08:45:59.000Z</time>
      </trkpt>
      <trkpt lat="49.31308" lon="-1.19822">
        <ele>14.675712</ele>
        <time>2022-08-02T08:46:00.000Z</time>
      </trkpt>
      <trkpt lat="49.31303" lon="-1.19819">
        <ele>14.742873</ele>
        <time>2022-08-02T08:46:01.000Z</time>
      </trkpt>
      <trkpt lat="49.313" lon="-1.19816">
        <ele>14.809827</ele>
        <time>2022-08-02T08:46:02.000Z</time>
      </trkpt>
      <trkpt lat="49.31296" lon="-1.19812">
        <ele>14.87474</ele>
        <time>2022-08-02T08:46:03.000Z</time>
      </trkpt>
      <trkpt lat="49.31293" lon="-1.19808">
        <ele>14.938605</ele>
        <time>2022-08-02T08:46:04.000Z</time>
      </trkpt>
      <trkpt lat="49.31291" lon="-1.19802">
        <ele>15.000613</ele>
        <time>2022-08-02T08:46:05.000Z</time>
      </trkpt>
      <trkpt lat="49.3129" lon="-1.19797">
        <ele>15.058349</ele>
        <time>2022-08-02T08:46:06.000Z</time>
      </trkpt>
      <trkpt lat="49.31289" lon="-1.19791">
        <ele>15.117737</ele>
        <time>2022-08-02T08:46:07.000Z</time>
      </trkpt>
      <trkpt lat="49.31289" lon="-1.19785">
        <ele>15.178924</ele>
        <time>2022-08-02T08:46:08.000Z</time>
      </trkpt>
      <trkpt lat="49.3129" lon="-1.19778">
        <ele>15.245667</ele>
        <time>2022-08-02T08:46:09.000Z</time>
      </trkpt>
      <trkpt lat="49.31291" lon="-1.19771">
        <ele>15.300438</ele>
        <time>2022-08-02T08:46:10.000Z</time>
      </trkpt>
      <trkpt lat="49.31293" lon="-1.19764">
        <ele>15.226333</ele>
        <time>2022-08-02T08:46:11.000Z</time>
      </trkpt>
      <trkpt lat="49.31295" lon="-1.19757">
        <ele>15.14976</ele>
        <time>2022-08-02T08:46:12.000Z</time>
      </trkpt>
      <trkpt lat="49.31296" lon="-1.19749">
        <ele>15.072273</ele>
        <time>2022-08-02T08:46:13.000Z</time>
      </trkpt>
      <trkpt lat="49.31298" lon="-1.19741">
        <ele>14.989328</ele>
        <time>2022-08-02T08:46:14.000Z</time>
      </trkpt>
      <trkpt lat="49.313" lon="-1.19733">
        <ele>14.906383</ele>
        <time>2022-08-02T08:46:15.000Z</time>
      </trkpt>
      <trkpt lat="49.31302" lon="-1.19725">
        <ele>14.822914</ele>
        <time>2022-08-02T08:46:16.000Z</time>
      </trkpt>
      <trkpt lat="49.31304" lon="-1.19717">
        <ele>14.732072</ele>
        <time>2022-08-02T08:46:17.000Z</time>
      </trkpt>
      <trkpt lat="49.31306" lon="-1.19708">
        <ele>14.645884</ele>
        <time>2022-08-02T08:46:18.000Z</time>
      </trkpt>
      <trkpt lat="49.31308" lon="-1.19699">
        <ele>14.556884</ele>
        <time>2022-08-02T08:46:19.000Z</time>
      </trkpt>
      <trkpt lat="49.31309" lon="-1.1969">
        <ele>14.464725</ele>
        <time>2022-08-02T08:46:20.000Z</time>
      </trkpt>
      <trkpt lat="49.31311" lon="-1.19681">
        <ele>14.368399</ele>
        <time>2022-08-02T08:46:21.000Z</time>
      </trkpt>
      <trkpt lat="49.31313" lon="-1.19671">
        <ele>14.27187</ele>
        <time>2022-08-02T08:46:22.000Z</time>
      </trkpt>
      <trkpt lat="49.31315" lon="-1.19662">
        <ele>14.174396</ele>
        <time>2022-08-02T08:46:23.000Z</time>
      </trkpt>
      <trkpt lat="49.31316" lon="-1.19652">
        <ele>14.077257</ele>
        <time>2022-08-02T08:46:24.000Z</time>
      </trkpt>
      <trkpt lat="49.31317" lon="-1.19642">
        <ele>13.978877</ele>
        <time>2022-08-02T08:46:25.000Z</time>
      </trkpt>
      <trkpt lat="49.31319" lon="-1.19632">
        <ele>13.878568</ele>
        <time>2022-08-02T08:46:26.000Z</time>
      </trkpt>
      <trkpt lat="49.3132" lon="-1.19622">
        <ele>13.78001</ele>
        <time>2022-08-02T08:46:27.000Z</time>
      </trkpt>
      <trkpt lat="49.31321" lon="-1.19612">
        <ele>13.682584</ele>
        <time>2022-08-02T08:46:28.000Z</time>
      </trkpt>
      <trkpt lat="49.31323" lon="-1.19602">
        <ele>13.584167</ele>
        <time>2022-08-02T08:46:29.000Z</time>
      </trkpt>
      <trkpt lat="49.31324" lon="-1.19593">
        <ele>13.488719</ele>
        <time>2022-08-02T08:46:30.000Z</time>
      </trkpt>
      <trkpt lat="49.31325" lon="-1.19583">
        <ele>13.393134</ele>
        <time>2022-08-02T08:46:31.000Z</time>
      </trkpt>
      <trkpt lat="49.31326" lon="-1.19573">
        <ele>13.296662</ele>
        <time>2022-08-02T08:46:32.000Z</time>
      </trkpt>
      <trkpt lat="49.31327" lon="-1.19564">
        <ele>13.201955</ele>
        <time>2022-08-02T08:46:33.000Z</time>
      </trkpt>
      <trkpt lat="49.31329" lon="-1.19554">
        <ele>13.10637</ele>
        <time>2022-08-02T08:46:34.000Z</time>
      </trkpt>
      <trkpt lat="49.3133" lon="-1.19545">
        <ele>13.013058</ele>
        <time>2022-08-02T08:46:35.000Z</time>
      </trkpt>
      <trkpt lat="49.31332" lon="-1.19535">
        <ele>12.918494</ele>
        <time>2022-08-02T08:46:36.000Z</time>
      </trkpt>
      <trkpt lat="49.31333" lon="-1.19526">
        <ele>12.822909</ele>
        <time>2022-08-02T08:46:37.000Z</time>
      </trkpt>
      <trkpt lat="49.31335" lon="-1.19516">
        <ele>12.727324</ele>
        <time>2022-08-02T08:46:38.000Z</time>
      </trkpt>
      <trkpt lat="49.31336" lon="-1.19507">
        <ele>12.637423</ele>
        <time>2022-08-02T08:46:39.000Z</time>
      </trkpt>
      <trkpt lat="49.31337" lon="-1.19498">
        <ele>12.696102</ele>
        <time>2022-08-02T08:46:40.000Z</time>
      </trkpt>
      <trkpt lat="49.31339" lon="-1.19489">
        <ele>12.788275</ele>
        <time>2022-08-02T08:46:41.000Z</time>
      </trkpt>
      <trkpt lat="49.3134" lon="-1.1948">
        <ele>12.878425</ele>
        <time>2022-08-02T08:46:42.000Z</time>
      </trkpt>
      <trkpt lat="49.31341" lon="-1.19471">
        <ele>12.969404</ele>
        <time>2022-08-02T08:46:43.000Z</time>
      </trkpt>
      <trkpt lat="49.31342" lon="-1.19462">
        <ele>13.059553</ele>
        <time>2022-08-02T08:46:44.000Z</time>
      </trkpt>
      <trkpt lat="49.31343" lon="-1.19453">
        <ele>13.148838</ele>
        <time>2022-08-02T08:46:45.000Z</time>
      </trkpt>
      <trkpt lat="49.31344" lon="-1.19444">
        <ele>13.237312</ele>
        <time>2022-08-02T08:46:46.000Z</time>
      </trkpt>
      <trkpt lat="49.31344" lon="-1.19435">
        <ele>13.325327</ele>
        <time>2022-08-02T08:46:47.000Z</time>
      </trkpt>
      <trkpt lat="49.31343" lon="-1.19426">
        <ele>13.413802</ele>
        <time>2022-08-02T08:46:48.000Z</time>
      </trkpt>
      <trkpt lat="49.31342" lon="-1.19417">
        <ele>13.503086</ele>
        <time>2022-08-02T08:46:49.000Z</time>
      </trkpt>
      <trkpt lat="49.31341" lon="-1.19408">
        <ele>13.590374</ele>
        <time>2022-08-02T08:46:50.000Z</time>
      </trkpt>
      <trkpt lat="49.3134" lon="-1.194">
        <ele>13.675018</ele>
        <time>2022-08-02T08:46:51.000Z</time>
      </trkpt>
      <trkpt lat="49.31338" lon="-1.19392">
        <ele>13.755647</ele>
        <time>2022-08-02T08:46:52.000Z</time>
      </trkpt>
      <trkpt lat="49.31336" lon="-1.19384">
        <ele>13.836163</ele>
        <time>2022-08-02T08:46:53.000Z</time>
      </trkpt>
      <trkpt lat="49.31334" lon="-1.19377">
        <ele>13.913041</ele>
        <time>2022-08-02T08:46:54.000Z</time>
      </trkpt>
      <trkpt lat="49.31332" lon="-1.1937">
        <ele>13.987194</ele>
        <time>2022-08-02T08:46:55.000Z</time>
      </trkpt>
      <trkpt lat="49.3133" lon="-1.19363">
        <ele>14.063447</ele>
        <time>2022-08-02T08:46:56.000Z</time>
      </trkpt>
      <trkpt lat="49.31327" lon="-1.19356">
        <ele>14.136811</ele>
        <time>2022-08-02T08:46:57.000Z</time>
      </trkpt>
      <trkpt lat="49.31325" lon="-1.1935">
        <ele>14.207425</ele>
        <time>2022-08-02T08:46:58.000Z</time>
      </trkpt>
      <trkpt lat="49.31323" lon="-1.19344">
        <ele>14.279552</ele>
        <time>2022-08-02T08:46:59.000Z</time>
      </trkpt>
      <trkpt lat="49.3132" lon="-1.19337">
        <ele>14.358202</ele>
        <time>2022-08-02T08:47:00.000Z</time>
      </trkpt>
      <trkpt lat="49.31317" lon="-1.1933">
        <ele>14.432253</ele>
        <time>2022-08-02T08:47:01.000Z</time>
      </trkpt>
      <trkpt lat="49.31315" lon="-1.19324">
        <ele>14.506493</ele>
        <time>2022-08-02T08:47:02.000Z</time>
      </trkpt>
      <trkpt lat="49.31313" lon="-1.19317">
        <ele>14.578116</ele>
        <time>2022-08-02T08:47:03.000Z</time>
      </trkpt>
      <trkpt lat="49.3131" lon="-1.1931">
        <ele>14.654369</ele>
        <time>2022-08-02T08:47:04.000Z</time>
      </trkpt>
      <trkpt lat="49.31308" lon="-1.19304">
        <ele>14.727287</ele>
        <time>2022-08-02T08:47:05.000Z</time>
      </trkpt>
      <trkpt lat="49.31306" lon="-1.19298">
        <ele>14.798911</ele>
        <time>2022-08-02T08:47:06.000Z</time>
      </trkpt>
      <trkpt lat="49.31303" lon="-1.19291">
        <ele>14.875939</ele>
        <time>2022-08-02T08:47:07.000Z</time>
      </trkpt>
      <trkpt lat="49.31301" lon="-1.19285">
        <ele>14.947562</ele>
        <time>2022-08-02T08:47:08.000Z</time>
      </trkpt>
      <trkpt lat="49.31298" lon="-1.19278">
        <ele>15.027028</ele>
        <time>2022-08-02T08:47:09.000Z</time>
      </trkpt>
      <trkpt lat="49.31296" lon="-1.19271">
        <ele>15.10028</ele>
        <time>2022-08-02T08:47:10.000Z</time>
      </trkpt>
      <trkpt lat="49.31293" lon="-1.19264">
        <ele>15.173468</ele>
        <time>2022-08-02T08:47:11.000Z</time>
      </trkpt>
      <trkpt lat="49.31291" lon="-1.19258">
        <ele>15.248964</ele>
        <time>2022-08-02T08:47:12.000Z</time>
      </trkpt>
      <trkpt lat="49.31289" lon="-1.19251">
        <ele>15.322485</ele>
        <time>2022-08-02T08:47:13.000Z</time>
      </trkpt>
      <trkpt lat="49.31287" lon="-1.19244">
        <ele>15.417261</ele>
        <time>2022-08-02T08:47:14.000Z</time>
      </trkpt>
      <trkpt lat="49.31285" lon="-1.19238">
        <ele>15.513364</ele>
        <time>2022-08-02T08:47:15.000Z</time>
      </trkpt>
      <trkpt lat="49.31282" lon="-1.19231">
        <ele>15.614266</ele>
        <time>2022-08-02T08:47:16.000Z</time>
      </trkpt>
      <trkpt lat="49.31279" lon="-1.19225">
        <ele>15.708088</ele>
        <time>2022-08-02T08:47:17.000Z</time>
      </trkpt>
      <trkpt lat="49.31277" lon="-1.19218">
        <ele>15.805091</ele>
        <time>2022-08-02T08:47:18.000Z</time>
      </trkpt>
      <trkpt lat="49.31275" lon="-1.19211">
        <ele>15.901771</ele>
        <time>2022-08-02T08:47:19.000Z</time>
      </trkpt>
      <trkpt lat="49.31272" lon="-1.19205">
        <ele>15.99729</ele>
        <time>2022-08-02T08:47:20.000Z</time>
      </trkpt>
      <trkpt lat="49.31269" lon="-1.19199">
        <ele>16.091729</ele>
        <time>2022-08-02T08:47:21.000Z</time>
      </trkpt>
      <trkpt lat="49.31267" lon="-1.19193">
        <ele>16.181035</ele>
        <time>2022-08-02T08:47:22.000Z</time>
      </trkpt>
      <trkpt lat="49.31265" lon="-1.19187">
        <ele>16.27333</ele>
        <time>2022-08-02T08:47:23.000Z</time>
      </trkpt>
      <trkpt lat="49.31262" lon="-1.19181">
        <ele>16.366818</ele>
        <time>2022-08-02T08:47:24.000Z</time>
      </trkpt>
      <trkpt lat="49.3126" lon="-1.19175">
        <ele>16.453786</ele>
        <time>2022-08-02T08:47:25.000Z</time>
      </trkpt>
      <trkpt lat="49.31257" lon="-1.19169">
        <ele>16.54286</ele>
        <time>2022-08-02T08:47:26.000Z</time>
      </trkpt>
      <trkpt lat="49.31255" lon="-1.19164">
        <ele>16.628736</ele>
        <time>2022-08-02T08:47:27.000Z</time>
      </trkpt>
      <trkpt lat="49.31252" lon="-1.19158">
        <ele>16.723174</ele>
        <time>2022-08-02T08:47:28.000Z</time>
      </trkpt>
      <trkpt lat="49.31249" lon="-1.19152">
        <ele>16.812247</ele>
        <time>2022-08-02T08:47:29.000Z</time>
      </trkpt>
      <trkpt lat="49.31246" lon="-1.19147">
        <ele>16.908612</ele>
        <time>2022-08-02T08:47:30.000Z</time>
      </trkpt>
      <trkpt lat="49.31243" lon="-1.19141">
        <ele>17.001237</ele>
        <time>2022-08-02T08:47:31.000Z</time>
      </trkpt>
      <trkpt lat="49.3124" lon="-1.19135">
        <ele>17.092856</ele>
        <time>2022-08-02T08:47:32.000Z</time>
      </trkpt>
      <trkpt lat="49.31237" lon="-1.1913">
        <ele>17.179889</ele>
        <time>2022-08-02T08:47:33.000Z</time>
      </trkpt>
      <trkpt lat="49.31234" lon="-1.19124">
        <ele>17.273375</ele>
        <time>2022-08-02T08:47:34.000Z</time>
      </trkpt>
      <trkpt lat="49.31232" lon="-1.19119">
        <ele>17.354098</ele>
        <time>2022-08-02T08:47:35.000Z</time>
      </trkpt>
      <trkpt lat="49.31228" lon="-1.19115">
        <ele>17.446355</ele>
        <time>2022-08-02T08:47:36.000Z</time>
      </trkpt>
      <trkpt lat="49.31226" lon="-1.19109">
        <ele>17.531327</ele>
        <time>2022-08-02T08:47:37.000Z</time>
      </trkpt>
      <trkpt lat="49.31222" lon="-1.19104">
        <ele>17.624813</ele>
        <time>2022-08-02T08:47:38.000Z</time>
      </trkpt>
      <trkpt lat="49.3122" lon="-1.19099">
        <ele>17.711508</ele>
        <time>2022-08-02T08:47:39.000Z</time>
      </trkpt>
      <trkpt lat="49.31217" lon="-1.19094">
        <ele>17.794279</ele>
        <time>2022-08-02T08:47:40.000Z</time>
      </trkpt>
      <trkpt lat="49.31214" lon="-1.19089">
        <ele>17.884039</ele>
        <time>2022-08-02T08:47:41.000Z</time>
      </trkpt>
      <trkpt lat="49.31211" lon="-1.19083">
        <ele>17.975646</ele>
        <time>2022-08-02T08:47:42.000Z</time>
      </trkpt>
      <trkpt lat="49.31208" lon="-1.19078">
        <ele>18.066265</ele>
        <time>2022-08-02T08:47:43.000Z</time>
      </trkpt>
      <trkpt lat="49.31205" lon="-1.19072">
        <ele>18.154339</ele>
        <time>2022-08-02T08:47:44.000Z</time>
      </trkpt>
      <trkpt lat="49.31202" lon="-1.19067">
        <ele>18.244959</ele>
        <time>2022-08-02T08:47:45.000Z</time>
      </trkpt>
      <trkpt lat="49.31199" lon="-1.19061">
        <ele>18.33335</ele>
        <time>2022-08-02T08:47:46.000Z</time>
      </trkpt>
      <trkpt lat="49.31197" lon="-1.19056">
        <ele>18.420045</ele>
        <time>2022-08-02T08:47:47.000Z</time>
      </trkpt>
      <trkpt lat="49.31194" lon="-1.19051">
        <ele>18.505779</ele>
        <time>2022-08-02T08:47:48.000Z</time>
      </trkpt>
      <trkpt lat="49.3119" lon="-1.19046">
        <ele>18.59463</ele>
        <time>2022-08-02T08:47:49.000Z</time>
      </trkpt>
      <trkpt lat="49.31187" lon="-1.19042">
        <ele>18.679938</ele>
        <time>2022-08-02T08:47:50.000Z</time>
      </trkpt>
      <trkpt lat="49.31184" lon="-1.19038">
        <ele>18.763535</ele>
        <time>2022-08-02T08:47:51.000Z</time>
      </trkpt>
      <trkpt lat="49.3118" lon="-1.19033">
        <ele>18.853103</ele>
        <time>2022-08-02T08:47:52.000Z</time>
      </trkpt>
      <trkpt lat="49.31177" lon="-1.19027">
        <ele>18.866614</ele>
        <time>2022-08-02T08:47:53.000Z</time>
      </trkpt>
      <trkpt lat="49.31174" lon="-1.19021">
        <ele>18.882163</ele>
        <time>2022-08-02T08:47:54.000Z</time>
      </trkpt>
      <trkpt lat="49.31171" lon="-1.19015">
        <ele>18.897855</ele>
        <time>2022-08-02T08:47:55.000Z</time>
      </trkpt>
      <trkpt lat="49.31169" lon="-1.19007">
        <ele>18.913513</ele>
        <time>2022-08-02T08:47:56.000Z</time>
      </trkpt>
      <trkpt lat="49.31167" lon="-1.18999">
        <ele>18.929367</ele>
        <time>2022-08-02T08:47:57.000Z</time>
      </trkpt>
      <trkpt lat="49.31166" lon="-1.18991">
        <ele>18.946428</ele>
        <time>2022-08-02T08:47:58.000Z</time>
      </trkpt>
      <trkpt lat="49.31166" lon="-1.18982">
        <ele>18.963253</ele>
        <time>2022-08-02T08:47:59.000Z</time>
      </trkpt>
      <trkpt lat="49.31166" lon="-1.18973">
        <ele>18.980634</ele>
        <time>2022-08-02T08:48:00.000Z</time>
      </trkpt>
      <trkpt lat="49.31166" lon="-1.18964">
        <ele>18.997629</ele>
        <time>2022-08-02T08:48:01.000Z</time>
      </trkpt>
      <trkpt lat="49.31166" lon="-1.18955">
        <ele>19.014647</ele>
        <time>2022-08-02T08:48:02.000Z</time>
      </trkpt>
      <trkpt lat="49.31167" lon="-1.18947">
        <ele>19.031086</ele>
        <time>2022-08-02T08:48:03.000Z</time>
      </trkpt>
      <trkpt lat="49.31167" lon="-1.18939">
        <ele>19.046922</ele>
        <time>2022-08-02T08:48:04.000Z</time>
      </trkpt>
      <trkpt lat="49.31167" lon="-1.1893">
        <ele>19.062758</ele>
        <time>2022-08-02T08:48:05.000Z</time>
      </trkpt>
      <trkpt lat="49.31166" lon="-1.18922">
        <ele>19.079391</ele>
        <time>2022-08-02T08:48:06.000Z</time>
      </trkpt>
      <trkpt lat="49.31167" lon="-1.18913">
        <ele>19.096794</ele>
        <time>2022-08-02T08:48:07.000Z</time>
      </trkpt>
      <trkpt lat="49.31167" lon="-1.18904">
        <ele>19.113982</ele>
        <time>2022-08-02T08:48:08.000Z</time>
      </trkpt>
      <trkpt lat="49.31167" lon="-1.18895">
        <ele>19.131557</ele>
        <time>2022-08-02T08:48:09.000Z</time>
      </trkpt>
      <trkpt lat="49.31167" lon="-1.18885">
        <ele>19.14971</ele>
        <time>2022-08-02T08:48:10.000Z</time>
      </trkpt>
      <trkpt lat="49.31167" lon="-1.18876">
        <ele>19.167284</ele>
        <time>2022-08-02T08:48:11.000Z</time>
      </trkpt>
      <trkpt lat="49.31167" lon="-1.18867">
        <ele>19.184472</ele>
        <time>2022-08-02T08:48:12.000Z</time>
      </trkpt>
      <trkpt lat="49.31166" lon="-1.18859">
        <ele>19.20149</ele>
        <time>2022-08-02T08:48:13.000Z</time>
      </trkpt>
      <trkpt lat="49.31166" lon="-1.1885">
        <ele>19.218578</ele>
        <time>2022-08-02T08:48:14.000Z</time>
      </trkpt>
      <trkpt lat="49.31165" lon="-1.18841">
        <ele>19.235807</ele>
        <time>2022-08-02T08:48:15.000Z</time>
      </trkpt>
      <trkpt lat="49.31165" lon="-1.18832">
        <ele>19.253391</ele>
        <time>2022-08-02T08:48:16.000Z</time>
      </trkpt>
      <trkpt lat="49.31164" lon="-1.18823">
        <ele>19.269937</ele>
        <time>2022-08-02T08:48:17.000Z</time>
      </trkpt>
      <trkpt lat="49.31163" lon="-1.18815">
        <ele>19.286733</ele>
        <time>2022-08-02T08:48:18.000Z</time>
      </trkpt>
      <trkpt lat="49.31162" lon="-1.18806">
        <ele>19.303603</ele>
        <time>2022-08-02T08:48:19.000Z</time>
      </trkpt>
      <trkpt lat="49.3116" lon="-1.18798">
        <ele>19.319764</ele>
        <time>2022-08-02T08:48:20.000Z</time>
      </trkpt>
      <trkpt lat="49.31158" lon="-1.1879">
        <ele>19.336207</ele>
        <time>2022-08-02T08:48:21.000Z</time>
      </trkpt>
      <trkpt lat="49.31156" lon="-1.18782">
        <ele>19.352469</ele>
        <time>2022-08-02T08:48:22.000Z</time>
      </trkpt>
      <trkpt lat="49.31154" lon="-1.18775">
        <ele>19.36778</ele>
        <time>2022-08-02T08:48:23.000Z</time>
      </trkpt>
      <trkpt lat="49.31151" lon="-1.18769">
        <ele>19.383311</ele>
        <time>2022-08-02T08:48:24.000Z</time>
      </trkpt>
      <trkpt lat="49.31149" lon="-1.18762">
        <ele>19.347141</ele>
        <time>2022-08-02T08:48:25.000Z</time>
      </trkpt>
      <trkpt lat="49.31147" lon="-1.18755">
        <ele>19.307853</ele>
        <time>2022-08-02T08:48:26.000Z</time>
      </trkpt>
      <trkpt lat="49.31144" lon="-1.18749">
        <ele>19.268732</ele>
        <time>2022-08-02T08:48:27.000Z</time>
      </trkpt>
      <trkpt lat="49.31142" lon="-1.18744">
        <ele>19.232295</ele>
        <time>2022-08-02T08:48:28.000Z</time>
      </trkpt>
      <trkpt lat="49.3114" lon="-1.18738">
        <ele>19.198173</ele>
        <time>2022-08-02T08:48:29.000Z</time>
      </trkpt>
      <trkpt lat="49.31138" lon="-1.18733">
        <ele>19.166747</ele>
        <time>2022-08-02T08:48:30.000Z</time>
      </trkpt>
      <trkpt lat="49.31136" lon="-1.18728">
        <ele>19.137012</ele>
        <time>2022-08-02T08:48:31.000Z</time>
      </trkpt>
      <trkpt lat="49.31136" lon="-1.18723">
        <ele>19.106731</ele>
        <time>2022-08-02T08:48:32.000Z</time>
      </trkpt>
      <trkpt lat="49.31136" lon="-1.18717">
        <ele>19.075779</ele>
        <time>2022-08-02T08:48:33.000Z</time>
      </trkpt>
      <trkpt lat="49.31136" lon="-1.18711">
        <ele>19.044284</ele>
        <time>2022-08-02T08:48:34.000Z</time>
      </trkpt>
      <trkpt lat="49.31136" lon="-1.18706">
        <ele>19.013232</ele>
        <time>2022-08-02T08:48:35.000Z</time>
      </trkpt>
      <trkpt lat="49.31137" lon="-1.187">
        <ele>18.981343</ele>
        <time>2022-08-02T08:48:36.000Z</time>
      </trkpt>
      <trkpt lat="49.31137" lon="-1.18694">
        <ele>18.947512</ele>
        <time>2022-08-02T08:48:37.000Z</time>
      </trkpt>
      <trkpt lat="49.31138" lon="-1.18687">
        <ele>18.913021</ele>
        <time>2022-08-02T08:48:38.000Z</time>
      </trkpt>
      <trkpt lat="49.31139" lon="-1.18681">
        <ele>18.879388</ele>
        <time>2022-08-02T08:48:39.000Z</time>
      </trkpt>
      <trkpt lat="49.3114" lon="-1.18675">
        <ele>18.843226</ele>
        <time>2022-08-02T08:48:40.000Z</time>
      </trkpt>
      <trkpt lat="49.31141" lon="-1.18669">
        <ele>18.808523</ele>
        <time>2022-08-02T08:48:41.000Z</time>
      </trkpt>
      <trkpt lat="49.31142" lon="-1.18662">
        <ele>18.770043</ele>
        <time>2022-08-02T08:48:42.000Z</time>
      </trkpt>
      <trkpt lat="49.31143" lon="-1.18655">
        <ele>18.730234</ele>
        <time>2022-08-02T08:48:43.000Z</time>
      </trkpt>
      <trkpt lat="49.31144" lon="-1.18647">
        <ele>18.689729</ele>
        <time>2022-08-02T08:48:44.000Z</time>
      </trkpt>
      <trkpt lat="49.31145" lon="-1.1864">
        <ele>18.64725</ele>
        <time>2022-08-02T08:48:45.000Z</time>
      </trkpt>
      <trkpt lat="49.31146" lon="-1.18631">
        <ele>18.601951</ele>
        <time>2022-08-02T08:48:46.000Z</time>
      </trkpt>
      <trkpt lat="49.31147" lon="-1.18622">
        <ele>18.551895</ele>
        <time>2022-08-02T08:48:47.000Z</time>
      </trkpt>
      <trkpt lat="49.31148" lon="-1.18613">
        <ele>18.500841</ele>
        <time>2022-08-02T08:48:48.000Z</time>
      </trkpt>
      <trkpt lat="49.31149" lon="-1.18603">
        <ele>18.447515</ele>
        <time>2022-08-02T08:48:49.000Z</time>
      </trkpt>
      <trkpt lat="49.3115" lon="-1.18593">
        <ele>18.391075</ele>
        <time>2022-08-02T08:48:50.000Z</time>
      </trkpt>
      <trkpt lat="49.31152" lon="-1.18582">
        <ele>18.329807</ele>
        <time>2022-08-02T08:48:51.000Z</time>
      </trkpt>
      <trkpt lat="49.31154" lon="-1.18571">
        <ele>18.265424</ele>
        <time>2022-08-02T08:48:52.000Z</time>
      </trkpt>
      <trkpt lat="49.31155" lon="-1.18559">
        <ele>18.198655</ele>
        <time>2022-08-02T08:48:53.000Z</time>
      </trkpt>
      <trkpt lat="49.31156" lon="-1.18546">
        <ele>18.128848</ele>
        <time>2022-08-02T08:48:54.000Z</time>
      </trkpt>
      <trkpt lat="49.31158" lon="-1.18533">
        <ele>18.056476</ele>
        <time>2022-08-02T08:48:55.000Z</time>
      </trkpt>
      <trkpt lat="49.31158" lon="-1.18519">
        <ele>17.981916</ele>
        <time>2022-08-02T08:48:56.000Z</time>
      </trkpt>
      <trkpt lat="49.31158" lon="-1.18505">
        <ele>17.907523</ele>
        <time>2022-08-02T08:48:57.000Z</time>
      </trkpt>
      <trkpt lat="49.31158" lon="-1.18492">
        <ele>18.102207</ele>
        <time>2022-08-02T08:48:58.000Z</time>
      </trkpt>
      <trkpt lat="49.31156" lon="-1.18479">
        <ele>18.400254</ele>
        <time>2022-08-02T08:48:59.000Z</time>
      </trkpt>
      <trkpt lat="49.31154" lon="-1.18467">
        <ele>18.684855</ele>
        <time>2022-08-02T08:49:00.000Z</time>
      </trkpt>
      <trkpt lat="49.31152" lon="-1.18455">
        <ele>18.953792</ele>
        <time>2022-08-02T08:49:01.000Z</time>
      </trkpt>
      <trkpt lat="49.31151" lon="-1.18444">
        <ele>19.201619</ele>
        <time>2022-08-02T08:49:02.000Z</time>
      </trkpt>
      <trkpt lat="49.31151" lon="-1.18434">
        <ele>19.42922</ele>
        <time>2022-08-02T08:49:03.000Z</time>
      </trkpt>
      <trkpt lat="49.31152" lon="-1.18425">
        <ele>19.63294</ele>
        <time>2022-08-02T08:49:04.000Z</time>
      </trkpt>
      <trkpt lat="49.31153" lon="-1.18416">
        <ele>19.823716</ele>
        <time>2022-08-02T08:49:05.000Z</time>
      </trkpt>
      <trkpt lat="49.31154" lon="-1.18408">
        <ele>20.001097</ele>
        <time>2022-08-02T08:49:06.000Z</time>
      </trkpt>
      <trkpt lat="49.31155" lon="-1.18401">
        <ele>20.171914</ele>
        <time>2022-08-02T08:49:07.000Z</time>
      </trkpt>
      <trkpt lat="49.31156" lon="-1.18394">
        <ele>20.33342</ele>
        <time>2022-08-02T08:49:08.000Z</time>
      </trkpt>
      <trkpt lat="49.31157" lon="-1.18387">
        <ele>20.48679</ele>
        <time>2022-08-02T08:49:09.000Z</time>
      </trkpt>
      <trkpt lat="49.31158" lon="-1.1838">
        <ele>20.642773</ele>
        <time>2022-08-02T08:49:10.000Z</time>
      </trkpt>
      <trkpt lat="49.31159" lon="-1.18374">
        <ele>20.784842</ele>
        <time>2022-08-02T08:49:11.000Z</time>
      </trkpt>
      <trkpt lat="49.3116" lon="-1.18368">
        <ele>20.925925</ele>
        <time>2022-08-02T08:49:12.000Z</time>
      </trkpt>
      <trkpt lat="49.31161" lon="-1.18362">
        <ele>21.068441</ele>
        <time>2022-08-02T08:49:13.000Z</time>
      </trkpt>
      <trkpt lat="49.31162" lon="-1.18356">
        <ele>21.214895</ele>
        <time>2022-08-02T08:49:14.000Z</time>
      </trkpt>
      <trkpt lat="49.31163" lon="-1.18349">
        <ele>21.357498</ele>
        <time>2022-08-02T08:49:15.000Z</time>
      </trkpt>
      <trkpt lat="49.31164" lon="-1.18343">
        <ele>21.513481</ele>
        <time>2022-08-02T08:49:16.000Z</time>
      </trkpt>
      <trkpt lat="49.31165" lon="-1.18336">
        <ele>21.664387</ele>
        <time>2022-08-02T08:49:17.000Z</time>
      </trkpt>
      <trkpt lat="49.31166" lon="-1.18329">
        <ele>21.82251</ele>
        <time>2022-08-02T08:49:18.000Z</time>
      </trkpt>
      <trkpt lat="49.31167" lon="-1.18322">
        <ele>21.98005</ele>
        <time>2022-08-02T08:49:19.000Z</time>
      </trkpt>
      <trkpt lat="49.31168" lon="-1.18315">
        <ele>22.139952</ele>
        <time>2022-08-02T08:49:20.000Z</time>
      </trkpt>
      <trkpt lat="49.31168" lon="-1.18308">
        <ele>22.293069</ele>
        <time>2022-08-02T08:49:21.000Z</time>
      </trkpt>
      <trkpt lat="49.31169" lon="-1.18302">
        <ele>22.446439</ele>
        <time>2022-08-02T08:49:22.000Z</time>
      </trkpt>
      <trkpt lat="49.3117" lon="-1.18295">
        <ele>22.599555</ele>
        <time>2022-08-02T08:49:23.000Z</time>
      </trkpt>
      <trkpt lat="49.31171" lon="-1.18288">
        <ele>22.757578</ele>
        <time>2022-08-02T08:49:24.000Z</time>
      </trkpt>
      <trkpt lat="49.31172" lon="-1.18281">
        <ele>22.916783</ele>
        <time>2022-08-02T08:49:25.000Z</time>
      </trkpt>
      <trkpt lat="49.31172" lon="-1.18274">
        <ele>23.0726</ele>
        <time>2022-08-02T08:49:26.000Z</time>
      </trkpt>
      <trkpt lat="49.31173" lon="-1.18267">
        <ele>23.229133</ele>
        <time>2022-08-02T08:49:27.000Z</time>
      </trkpt>
      <trkpt lat="49.31173" lon="-1.1826">
        <ele>23.388338</ele>
        <time>2022-08-02T08:49:28.000Z</time>
      </trkpt>
      <trkpt lat="49.31174" lon="-1.18253">
        <ele>23.545132</ele>
        <time>2022-08-02T08:49:29.000Z</time>
      </trkpt>
      <trkpt lat="49.31174" lon="-1.18246">
        <ele>23.698249</ele>
        <time>2022-08-02T08:49:30.000Z</time>
      </trkpt>
      <trkpt lat="49.31175" lon="-1.18239">
        <ele>23.858151</ele>
        <time>2022-08-02T08:49:31.000Z</time>
      </trkpt>
      <trkpt lat="49.31176" lon="-1.18232">
        <ele>24.011267</ele>
        <time>2022-08-02T08:49:32.000Z</time>
      </trkpt>
      <trkpt lat="49.31176" lon="-1.18225">
        <ele>24.096553</ele>
        <time>2022-08-02T08:49:33.000Z</time>
      </trkpt>
      <trkpt lat="49.31177" lon="-1.18218">
        <ele>24.165423</ele>
        <time>2022-08-02T08:49:34.000Z</time>
      </trkpt>
      <trkpt lat="49.31178" lon="-1.18211">
        <ele>24.232842</ele>
        <time>2022-08-02T08:49:35.000Z</time>
      </trkpt>
      <trkpt lat="49.31178" lon="-1.18204">
        <ele>24.302602</ele>
        <time>2022-08-02T08:49:36.000Z</time>
      </trkpt>
      <trkpt lat="49.31179" lon="-1.18197">
        <ele>24.374291</ele>
        <time>2022-08-02T08:49:37.000Z</time>
      </trkpt>
      <trkpt lat="49.3118" lon="-1.18189">
        <ele>24.445957</ele>
        <time>2022-08-02T08:49:38.000Z</time>
      </trkpt>
      <trkpt lat="49.31181" lon="-1.18182">
        <ele>24.514968</ele>
        <time>2022-08-02T08:49:39.000Z</time>
      </trkpt>
      <trkpt lat="49.31181" lon="-1.18175">
        <ele>24.585425</ele>
        <time>2022-08-02T08:49:40.000Z</time>
      </trkpt>
      <trkpt lat="49.31182" lon="-1.18168">
        <ele>24.656174</ele>
        <time>2022-08-02T08:49:41.000Z</time>
      </trkpt>
      <trkpt lat="49.31183" lon="-1.18161">
        <ele>24.725983</ele>
        <time>2022-08-02T08:49:42.000Z</time>
      </trkpt>
      <trkpt lat="49.31184" lon="-1.18154">
        <ele>24.795321</ele>
        <time>2022-08-02T08:49:43.000Z</time>
      </trkpt>
      <trkpt lat="49.31184" lon="-1.18146">
        <ele>24.864658</ele>
        <time>2022-08-02T08:49:44.000Z</time>
      </trkpt>
      <trkpt lat="49.31185" lon="-1.18139">
        <ele>24.933464</ele>
        <time>2022-08-02T08:49:45.000Z</time>
      </trkpt>
      <trkpt lat="49.31186" lon="-1.18132">
        <ele>25.002334</ele>
        <time>2022-08-02T08:49:46.000Z</time>
      </trkpt>
      <trkpt lat="49.31186" lon="-1.18125">
        <ele>25.069235</ele>
        <time>2022-08-02T08:49:47.000Z</time>
      </trkpt>
      <trkpt lat="49.31187" lon="-1.18119">
        <ele>25.134852</ele>
        <time>2022-08-02T08:49:48.000Z</time>
      </trkpt>
      <trkpt lat="49.31188" lon="-1.18112">
        <ele>25.201537</ele>
        <time>2022-08-02T08:49:49.000Z</time>
      </trkpt>
      <trkpt lat="49.31188" lon="-1.18105">
        <ele>25.26675</ele>
        <time>2022-08-02T08:49:50.000Z</time>
      </trkpt>
      <trkpt lat="49.31189" lon="-1.18098">
        <ele>25.33631</ele>
        <time>2022-08-02T08:49:51.000Z</time>
      </trkpt>
      <trkpt lat="49.3119" lon="-1.18091">
        <ele>25.401928</ele>
        <time>2022-08-02T08:49:52.000Z</time>
      </trkpt>
      <trkpt lat="49.3119" lon="-1.18084">
        <ele>25.468828</ele>
        <time>2022-08-02T08:49:53.000Z</time>
      </trkpt>
      <trkpt lat="49.31191" lon="-1.18078">
        <ele>25.532412</ele>
        <time>2022-08-02T08:49:54.000Z</time>
      </trkpt>
      <trkpt lat="49.31192" lon="-1.18071">
        <ele>25.596596</ele>
        <time>2022-08-02T08:49:55.000Z</time>
      </trkpt>
      <trkpt lat="49.31192" lon="-1.18065">
        <ele>25.659221</ele>
        <time>2022-08-02T08:49:56.000Z</time>
      </trkpt>
      <trkpt lat="49.31193" lon="-1.18059">
        <ele>25.714711</ele>
        <time>2022-08-02T08:49:57.000Z</time>
      </trkpt>
      <trkpt lat="49.31193" lon="-1.18054">
        <ele>25.766682</ele>
        <time>2022-08-02T08:49:58.000Z</time>
      </trkpt>
      <trkpt lat="49.31194" lon="-1.18049">
        <ele>25.812067</ele>
        <time>2022-08-02T08:49:59.000Z</time>
      </trkpt>
      <trkpt lat="49.31193" lon="-1.18045">
        <ele>25.852673</ele>
        <time>2022-08-02T08:50:00.000Z</time>
      </trkpt>
      <trkpt lat="49.31193" lon="-1.18042">
        <ele>25.884388</ele>
        <time>2022-08-02T08:50:01.000Z</time>
      </trkpt>
      <trkpt lat="49.31192" lon="-1.18037">
        <ele>25.92736</ele>
        <time>2022-08-02T08:50:03.000Z</time>
      </trkpt>
      <trkpt lat="49.31197" lon="-1.1803">
        <ele>26.033528</ele>
        <time>2022-08-02T08:51:48.000Z</time>
      </trkpt>
      <trkpt lat="49.31198" lon="-1.18024">
        <ele>26.093046</ele>
        <time>2022-08-02T08:51:49.000Z</time>
      </trkpt>
      <trkpt lat="49.312" lon="-1.18017">
        <ele>26.156553</ele>
        <time>2022-08-02T08:51:50.000Z</time>
      </trkpt>
      <trkpt lat="49.31201" lon="-1.1801">
        <ele>26.225122</ele>
        <time>2022-08-02T08:51:51.000Z</time>
      </trkpt>
      <trkpt lat="49.31202" lon="-1.18003">
        <ele>26.301565</ele>
        <time>2022-08-02T08:51:52.000Z</time>
      </trkpt>
      <trkpt lat="49.31203" lon="-1.17995">
        <ele>26.377234</ele>
        <time>2022-08-02T08:51:53.000Z</time>
      </trkpt>
      <trkpt lat="49.31204" lon="-1.17987">
        <ele>26.457149</ele>
        <time>2022-08-02T08:51:54.000Z</time>
      </trkpt>
      <trkpt lat="49.31205" lon="-1.17978">
        <ele>26.540158</ele>
        <time>2022-08-02T08:51:55.000Z</time>
      </trkpt>
      <trkpt lat="49.31205" lon="-1.1797">
        <ele>26.61755</ele>
        <time>2022-08-02T08:51:56.000Z</time>
      </trkpt>
      <trkpt lat="49.31206" lon="-1.17961">
        <ele>26.693337</ele>
        <time>2022-08-02T08:51:57.000Z</time>
      </trkpt>
      <trkpt lat="49.31206" lon="-1.17952">
        <ele>26.684527</ele>
        <time>2022-08-02T08:51:58.000Z</time>
      </trkpt>
      <trkpt lat="49.31207" lon="-1.17943">
        <ele>26.67554</ele>
        <time>2022-08-02T08:51:59.000Z</time>
      </trkpt>
      <trkpt lat="49.31208" lon="-1.17934">
        <ele>26.666481</ele>
        <time>2022-08-02T08:52:00.000Z</time>
      </trkpt>
      <trkpt lat="49.31209" lon="-1.17925">
        <ele>26.657302</ele>
        <time>2022-08-02T08:52:01.000Z</time>
      </trkpt>
      <trkpt lat="49.3121" lon="-1.17915">
        <ele>26.648104</ele>
        <time>2022-08-02T08:52:02.000Z</time>
      </trkpt>
      <trkpt lat="49.3121" lon="-1.17906">
        <ele>26.638842</ele>
        <time>2022-08-02T08:52:03.000Z</time>
      </trkpt>
      <trkpt lat="49.31212" lon="-1.17896">
        <ele>26.629389</ele>
        <time>2022-08-02T08:52:04.000Z</time>
      </trkpt>
      <trkpt lat="49.31212" lon="-1.17887">
        <ele>26.620079</ele>
        <time>2022-08-02T08:52:05.000Z</time>
      </trkpt>
      <trkpt lat="49.31213" lon="-1.17877">
        <ele>26.61073</ele>
        <time>2022-08-02T08:52:06.000Z</time>
      </trkpt>
      <trkpt lat="49.31214" lon="-1.17868">
        <ele>26.601613</ele>
        <time>2022-08-02T08:52:07.000Z</time>
      </trkpt>
      <trkpt lat="49.31214" lon="-1.17859">
        <ele>26.592546</ele>
        <time>2022-08-02T08:52:08.000Z</time>
      </trkpt>
      <trkpt lat="49.31214" lon="-1.17849">
        <ele>26.583381</ele>
        <time>2022-08-02T08:52:09.000Z</time>
      </trkpt>
      <trkpt lat="49.31215" lon="-1.1784">
        <ele>26.574394</ele>
        <time>2022-08-02T08:52:10.000Z</time>
      </trkpt>
      <trkpt lat="49.31215" lon="-1.17831">
        <ele>26.565435</ele>
        <time>2022-08-02T08:52:11.000Z</time>
      </trkpt>
      <trkpt lat="49.31216" lon="-1.17822">
        <ele>26.556431</ele>
        <time>2022-08-02T08:52:12.000Z</time>
      </trkpt>
      <trkpt lat="49.31216" lon="-1.17813">
        <ele>26.547364</ele>
        <time>2022-08-02T08:52:13.000Z</time>
      </trkpt>
      <trkpt lat="49.31217" lon="-1.17804">
        <ele>26.538665</ele>
        <time>2022-08-02T08:52:14.000Z</time>
      </trkpt>
      <trkpt lat="49.31218" lon="-1.17795">
        <ele>26.529798</ele>
        <time>2022-08-02T08:52:15.000Z</time>
      </trkpt>
      <trkpt lat="49.3122" lon="-1.17786">
        <ele>26.520916</ele>
        <time>2022-08-02T08:52:16.000Z</time>
      </trkpt>
      <trkpt lat="49.3122" lon="-1.17777">
        <ele>26.512283</ele>
        <time>2022-08-02T08:52:17.000Z</time>
      </trkpt>
      <trkpt lat="49.31221" lon="-1.17768">
        <ele>26.503623</ele>
        <time>2022-08-02T08:52:18.000Z</time>
      </trkpt>
      <trkpt lat="49.31222" lon="-1.1776">
        <ele>26.495473</ele>
        <time>2022-08-02T08:52:19.000Z</time>
      </trkpt>
      <trkpt lat="49.31223" lon="-1.17752">
        <ele>26.486971</ele>
        <time>2022-08-02T08:52:20.000Z</time>
      </trkpt>
      <trkpt lat="49.31224" lon="-1.17743">
        <ele>26.478873</ele>
        <time>2022-08-02T08:52:21.000Z</time>
      </trkpt>
      <trkpt lat="49.31226" lon="-1.17735">
        <ele>26.470631</ele>
        <time>2022-08-02T08:52:22.000Z</time>
      </trkpt>
      <trkpt lat="49.31228" lon="-1.17727">
        <ele>26.462015</ele>
        <time>2022-08-02T08:52:23.000Z</time>
      </trkpt>
      <trkpt lat="49.31229" lon="-1.17719">
        <ele>26.45368</ele>
        <time>2022-08-02T08:52:24.000Z</time>
      </trkpt>
      <trkpt lat="49.3123" lon="-1.17711">
        <ele>26.445651</ele>
        <time>2022-08-02T08:52:25.000Z</time>
      </trkpt>
      <trkpt lat="49.31232" lon="-1.17702">
        <ele>26.437316</ele>
        <time>2022-08-02T08:52:26.000Z</time>
      </trkpt>
      <trkpt lat="49.31234" lon="-1.17694">
        <ele>26.428565</ele>
        <time>2022-08-02T08:52:27.000Z</time>
      </trkpt>
      <trkpt lat="49.31236" lon="-1.17686">
        <ele>26.394583</ele>
        <time>2022-08-02T08:52:28.000Z</time>
      </trkpt>
      <trkpt lat="49.31238" lon="-1.17677">
        <ele>26.342484</ele>
        <time>2022-08-02T08:52:29.000Z</time>
      </trkpt>
      <trkpt lat="49.31239" lon="-1.17669">
        <ele>26.293487</ele>
        <time>2022-08-02T08:52:30.000Z</time>
      </trkpt>
      <trkpt lat="49.31241" lon="-1.1766">
        <ele>26.241546</ele>
        <time>2022-08-02T08:52:31.000Z</time>
      </trkpt>
      <trkpt lat="49.31243" lon="-1.17652">
        <ele>26.190677</ele>
        <time>2022-08-02T08:52:32.000Z</time>
      </trkpt>
      <trkpt lat="49.31245" lon="-1.17643">
        <ele>26.139809</ele>
        <time>2022-08-02T08:52:33.000Z</time>
      </trkpt>
      <trkpt lat="49.31247" lon="-1.17634">
        <ele>26.086663</ele>
        <time>2022-08-02T08:52:34.000Z</time>
      </trkpt>
      <trkpt lat="49.31249" lon="-1.17626">
        <ele>26.035258</ele>
        <time>2022-08-02T08:52:35.000Z</time>
      </trkpt>
      <trkpt lat="49.31251" lon="-1.17617">
        <ele>25.982243</ele>
        <time>2022-08-02T08:52:36.000Z</time>
      </trkpt>
      <trkpt lat="49.31253" lon="-1.17608">
        <ele>25.930838</ele>
        <time>2022-08-02T08:52:37.000Z</time>
      </trkpt>
      <trkpt lat="49.31255" lon="-1.176">
        <ele>25.878898</ele>
        <time>2022-08-02T08:52:38.000Z</time>
      </trkpt>
      <trkpt lat="49.31257" lon="-1.17591">
        <ele>25.826675</ele>
        <time>2022-08-02T08:52:39.000Z</time>
      </trkpt>
      <trkpt lat="49.31259" lon="-1.17582">
        <ele>25.773321</ele>
        <time>2022-08-02T08:52:40.000Z</time>
      </trkpt>
      <trkpt lat="49.31261" lon="-1.17573">
        <ele>25.719966</ele>
        <time>2022-08-02T08:52:41.000Z</time>
      </trkpt>
      <trkpt lat="49.31263" lon="-1.17564">
        <ele>25.666674</ele>
        <time>2022-08-02T08:52:42.000Z</time>
      </trkpt>
      <trkpt lat="49.31266" lon="-1.17556">
        <ele>25.612333</ele>
        <time>2022-08-02T08:52:43.000Z</time>
      </trkpt>
      <trkpt lat="49.31268" lon="-1.17547">
        <ele>25.55761</ele>
        <time>2022-08-02T08:52:44.000Z</time>
      </trkpt>
      <trkpt lat="49.31271" lon="-1.17538">
        <ele>25.503268</ele>
        <time>2022-08-02T08:52:45.000Z</time>
      </trkpt>
      <trkpt lat="49.31273" lon="-1.17529">
        <ele>25.447541</ele>
        <time>2022-08-02T08:52:46.000Z</time>
      </trkpt>
      <trkpt lat="49.31276" lon="-1.1752">
        <ele>25.393658</ele>
        <time>2022-08-02T08:52:47.000Z</time>
      </trkpt>
      <trkpt lat="49.31278" lon="-1.17511">
        <ele>25.339987</ele>
        <time>2022-08-02T08:52:48.000Z</time>
      </trkpt>
      <trkpt lat="49.31281" lon="-1.17502">
        <ele>25.284554</ele>
        <time>2022-08-02T08:52:49.000Z</time>
      </trkpt>
      <trkpt lat="49.31283" lon="-1.17494">
        <ele>25.231402</ele>
        <time>2022-08-02T08:52:50.000Z</time>
      </trkpt>
      <trkpt lat="49.31286" lon="-1.17485">
        <ele>25.177594</ele>
        <time>2022-08-02T08:52:51.000Z</time>
      </trkpt>
      <trkpt lat="49.31289" lon="-1.17477">
        <ele>25.122029</ele>
        <time>2022-08-02T08:52:52.000Z</time>
      </trkpt>
      <trkpt lat="49.31292" lon="-1.17468">
        <ele>25.06924</ele>
        <time>2022-08-02T08:52:53.000Z</time>
      </trkpt>
      <trkpt lat="49.31295" lon="-1.1746">
        <ele>25.015932</ele>
        <time>2022-08-02T08:52:54.000Z</time>
      </trkpt>
      <trkpt lat="49.31297" lon="-1.17452">
        <ele>24.963803</ele>
        <time>2022-08-02T08:52:55.000Z</time>
      </trkpt>
      <trkpt lat="49.313" lon="-1.17443">
        <ele>24.91153</ele>
        <time>2022-08-02T08:52:56.000Z</time>
      </trkpt>
      <trkpt lat="49.31303" lon="-1.17435">
        <ele>24.856906</ele>
        <time>2022-08-02T08:52:57.000Z</time>
      </trkpt>
      <trkpt lat="49.31306" lon="-1.17427">
        <ele>24.767751</ele>
        <time>2022-08-02T08:52:58.000Z</time>
      </trkpt>
      <trkpt lat="49.31309" lon="-1.1742">
        <ele>24.675524</ele>
        <time>2022-08-02T08:52:59.000Z</time>
      </trkpt>
      <trkpt lat="49.31312" lon="-1.17412">
        <ele>24.586584</ele>
        <time>2022-08-02T08:53:00.000Z</time>
      </trkpt>
      <trkpt lat="49.31316" lon="-1.17404">
        <ele>24.495954</ele>
        <time>2022-08-02T08:53:01.000Z</time>
      </trkpt>
      <trkpt lat="49.31319" lon="-1.17396">
        <ele>24.399665</ele>
        <time>2022-08-02T08:53:02.000Z</time>
      </trkpt>
      <trkpt lat="49.31323" lon="-1.17388">
        <ele>24.306583</ele>
        <time>2022-08-02T08:53:03.000Z</time>
      </trkpt>
      <trkpt lat="49.31326" lon="-1.1738">
        <ele>24.207798</ele>
        <time>2022-08-02T08:53:04.000Z</time>
      </trkpt>
      <trkpt lat="49.31329" lon="-1.17371">
        <ele>24.114357</ele>
        <time>2022-08-02T08:53:05.000Z</time>
      </trkpt>
      <trkpt lat="49.31333" lon="-1.17363">
        <ele>24.015573</ele>
        <time>2022-08-02T08:53:06.000Z</time>
      </trkpt>
      <trkpt lat="49.31337" lon="-1.17354">
        <ele>23.916001</ele>
        <time>2022-08-02T08:53:07.000Z</time>
      </trkpt>
      <trkpt lat="49.3134" lon="-1.17346">
        <ele>23.82256</ele>
        <time>2022-08-02T08:53:08.000Z</time>
      </trkpt>
      <trkpt lat="49.31343" lon="-1.17337">
        <ele>23.722158</ele>
        <time>2022-08-02T08:53:09.000Z</time>
      </trkpt>
      <trkpt lat="49.31347" lon="-1.17328">
        <ele>23.623432</ele>
        <time>2022-08-02T08:53:10.000Z</time>
      </trkpt>
      <trkpt lat="49.3135" lon="-1.1732">
        <ele>23.52386</ele>
        <time>2022-08-02T08:53:11.000Z</time>
      </trkpt>
      <trkpt lat="49.31353" lon="-1.17311">
        <ele>23.43042</ele>
        <time>2022-08-02T08:53:12.000Z</time>
      </trkpt>
      <trkpt lat="49.31357" lon="-1.17303">
        <ele>23.3325</ele>
        <time>2022-08-02T08:53:13.000Z</time>
      </trkpt>
      <trkpt lat="49.3136" lon="-1.17294">
        <ele>23.236222</ele>
        <time>2022-08-02T08:53:14.000Z</time>
      </trkpt>
      <trkpt lat="49.31363" lon="-1.17286">
        <ele>23.142782</ele>
        <time>2022-08-02T08:53:15.000Z</time>
      </trkpt>
      <trkpt lat="49.31366" lon="-1.17277">
        <ele>23.044862</ele>
        <time>2022-08-02T08:53:16.000Z</time>
      </trkpt>
      <trkpt lat="49.3137" lon="-1.17269">
        <ele>22.949401</ele>
        <time>2022-08-02T08:53:17.000Z</time>
      </trkpt>
      <trkpt lat="49.31373" lon="-1.17261">
        <ele>22.857682</ele>
        <time>2022-08-02T08:53:18.000Z</time>
      </trkpt>
      <trkpt lat="49.31376" lon="-1.17252">
        <ele>22.760585</ele>
        <time>2022-08-02T08:53:19.000Z</time>
      </trkpt>
      <trkpt lat="49.3138" lon="-1.17244">
        <ele>22.664307</ele>
        <time>2022-08-02T08:53:20.000Z</time>
      </trkpt>
      <trkpt lat="49.31383" lon="-1.17236">
        <ele>22.571225</ele>
        <time>2022-08-02T08:53:21.000Z</time>
      </trkpt>
      <trkpt lat="49.31387" lon="-1.17228">
        <ele>22.475743</ele>
        <time>2022-08-02T08:53:22.000Z</time>
      </trkpt>
      <trkpt lat="49.3139" lon="-1.1722">
        <ele>22.380282</ele>
        <time>2022-08-02T08:53:23.000Z</time>
      </trkpt>
      <trkpt lat="49.31394" lon="-1.17212">
        <ele>22.283875</ele>
        <time>2022-08-02T08:53:24.000Z</time>
      </trkpt>
      <trkpt lat="49.31397" lon="-1.17203">
        <ele>22.189956</ele>
        <time>2022-08-02T08:53:25.000Z</time>
      </trkpt>
      <trkpt lat="49.31401" lon="-1.17195">
        <ele>22.010408</ele>
        <time>2022-08-02T08:53:26.000Z</time>
      </trkpt>
      <trkpt lat="49.31405" lon="-1.17187">
        <ele>21.812404</ele>
        <time>2022-08-02T08:53:27.000Z</time>
      </trkpt>
      <trkpt lat="49.31408" lon="-1.17178">
        <ele>21.617702</ele>
        <time>2022-08-02T08:53:28.000Z</time>
      </trkpt>
      <trkpt lat="49.31413" lon="-1.1717">
        <ele>21.418917</ele>
        <time>2022-08-02T08:53:29.000Z</time>
      </trkpt>
      <trkpt lat="49.31417" lon="-1.17162">
        <ele>21.220456</ele>
        <time>2022-08-02T08:53:30.000Z</time>
      </trkpt>
      <trkpt lat="49.31422" lon="-1.17154">
        <ele>21.001825</ele>
        <time>2022-08-02T08:53:31.000Z</time>
      </trkpt>
      <trkpt lat="49.31426" lon="-1.17146">
        <ele>20.79629</ele>
        <time>2022-08-02T08:53:32.000Z</time>
      </trkpt>
      <trkpt lat="49.31431" lon="-1.17138">
        <ele>20.59011</ele>
        <time>2022-08-02T08:53:33.000Z</time>
      </trkpt>
      <trkpt lat="49.31437" lon="-1.17131">
        <ele>20.370358</ele>
        <time>2022-08-02T08:53:34.000Z</time>
      </trkpt>
      <trkpt lat="49.31442" lon="-1.17123">
        <ele>20.142308</ele>
        <time>2022-08-02T08:53:35.000Z</time>
      </trkpt>
      <trkpt lat="49.31448" lon="-1.17115">
        <ele>19.913328</ele>
        <time>2022-08-02T08:53:36.000Z</time>
      </trkpt>
      <trkpt lat="49.31454" lon="-1.17107">
        <ele>19.677578</ele>
        <time>2022-08-02T08:53:37.000Z</time>
      </trkpt>
      <trkpt lat="49.3146" lon="-1.17099">
        <ele>19.442932</ele>
        <time>2022-08-02T08:53:38.000Z</time>
      </trkpt>
      <trkpt lat="49.31466" lon="-1.17091">
        <ele>19.200872</ele>
        <time>2022-08-02T08:53:39.000Z</time>
      </trkpt>
      <trkpt lat="49.31472" lon="-1.17082">
        <ele>18.95208</ele>
        <time>2022-08-02T08:53:40.000Z</time>
      </trkpt>
      <trkpt lat="49.31478" lon="-1.17074">
        <ele>18.707435</ele>
        <time>2022-08-02T08:53:41.000Z</time>
      </trkpt>
      <trkpt lat="49.31485" lon="-1.17065">
        <ele>18.450558</ele>
        <time>2022-08-02T08:53:42.000Z</time>
      </trkpt>
      <trkpt lat="49.31492" lon="-1.17057">
        <ele>18.197979</ele>
        <time>2022-08-02T08:53:43.000Z</time>
      </trkpt>
      <trkpt lat="49.31498" lon="-1.17047">
        <ele>17.941299</ele>
        <time>2022-08-02T08:53:44.000Z</time>
      </trkpt>
      <trkpt lat="49.31503" lon="-1.17037">
        <ele>17.680818</ele>
        <time>2022-08-02T08:53:45.000Z</time>
      </trkpt>
      <trkpt lat="49.31508" lon="-1.17026">
        <ele>17.424433</ele>
        <time>2022-08-02T08:53:46.000Z</time>
      </trkpt>
      <trkpt lat="49.31512" lon="-1.17014">
        <ele>17.151475</ele>
        <time>2022-08-02T08:53:47.000Z</time>
      </trkpt>
      <trkpt lat="49.31517" lon="-1.17">
        <ele>16.863203</ele>
        <time>2022-08-02T08:53:48.000Z</time>
      </trkpt>
      <trkpt lat="49.31521" lon="-1.16987">
        <ele>16.421633</ele>
        <time>2022-08-02T08:53:49.000Z</time>
      </trkpt>
      <trkpt lat="49.31526" lon="-1.16972">
        <ele>15.955674</ele>
        <time>2022-08-02T08:53:50.000Z</time>
      </trkpt>
      <trkpt lat="49.3153" lon="-1.16958">
        <ele>15.489234</ele>
        <time>2022-08-02T08:53:51.000Z</time>
      </trkpt>
      <trkpt lat="49.31534" lon="-1.16943">
        <ele>15.004414</ele>
        <time>2022-08-02T08:53:52.000Z</time>
      </trkpt>
      <trkpt lat="49.31537" lon="-1.16927">
        <ele>14.518962</ele>
        <time>2022-08-02T08:53:53.000Z</time>
      </trkpt>
      <trkpt lat="49.31539" lon="-1.16912">
        <ele>14.05658</ele>
        <time>2022-08-02T08:53:54.000Z</time>
      </trkpt>
      <trkpt lat="49.31541" lon="-1.16897">
        <ele>13.614314</ele>
        <time>2022-08-02T08:53:55.000Z</time>
      </trkpt>
      <trkpt lat="49.31544" lon="-1.16883">
        <ele>13.194834</ele>
        <time>2022-08-02T08:53:56.000Z</time>
      </trkpt>
      <trkpt lat="49.31548" lon="-1.16871">
        <ele>12.804169</ele>
        <time>2022-08-02T08:53:57.000Z</time>
      </trkpt>
      <trkpt lat="49.31552" lon="-1.1686">
        <ele>12.417726</ele>
        <time>2022-08-02T08:53:58.000Z</time>
      </trkpt>
      <trkpt lat="49.31557" lon="-1.16849">
        <ele>12.027083</ele>
        <time>2022-08-02T08:53:59.000Z</time>
      </trkpt>
      <trkpt lat="49.31561" lon="-1.16838">
        <ele>11.648816</ele>
        <time>2022-08-02T08:54:00.000Z</time>
      </trkpt>
      <trkpt lat="49.31565" lon="-1.16827">
        <ele>11.262906</ele>
        <time>2022-08-02T08:54:01.000Z</time>
      </trkpt>
      <trkpt lat="49.3157" lon="-1.16816">
        <ele>10.87903</ele>
        <time>2022-08-02T08:54:02.000Z</time>
      </trkpt>
      <trkpt lat="49.31574" lon="-1.16804">
        <ele>10.495155</ele>
        <time>2022-08-02T08:54:03.000Z</time>
      </trkpt>
      <trkpt lat="49.31578" lon="-1.16793">
        <ele>10.10939</ele>
        <time>2022-08-02T08:54:04.000Z</time>
      </trkpt>
      <trkpt lat="49.31582" lon="-1.16781">
        <ele>9.6939</ele>
        <time>2022-08-02T08:54:05.000Z</time>
      </trkpt>
      <trkpt lat="49.31587" lon="-1.16769">
        <ele>9.290455</ele>
        <time>2022-08-02T08:54:06.000Z</time>
      </trkpt>
      <trkpt lat="49.31591" lon="-1.16757">
        <ele>8.88446</ele>
        <time>2022-08-02T08:54:07.000Z</time>
      </trkpt>
      <trkpt lat="49.31596" lon="-1.16745">
        <ele>8.60037</ele>
        <time>2022-08-02T08:54:08.000Z</time>
      </trkpt>
      <trkpt lat="49.31601" lon="-1.16732">
        <ele>8.412389</ele>
        <time>2022-08-02T08:54:09.000Z</time>
      </trkpt>
      <trkpt lat="49.31605" lon="-1.1672">
        <ele>8.233413</ele>
        <time>2022-08-02T08:54:10.000Z</time>
      </trkpt>
      <trkpt lat="49.31611" lon="-1.16708">
        <ele>8.046411</ele>
        <time>2022-08-02T08:54:11.000Z</time>
      </trkpt>
      <trkpt lat="49.31616" lon="-1.16696">
        <ele>7.862602</ele>
        <time>2022-08-02T08:54:12.000Z</time>
      </trkpt>
      <trkpt lat="49.31622" lon="-1.16685">
        <ele>7.680276</ele>
        <time>2022-08-02T08:54:13.000Z</time>
      </trkpt>
      <trkpt lat="49.31628" lon="-1.16674">
        <ele>7.51073</ele>
        <time>2022-08-02T08:54:14.000Z</time>
      </trkpt>
      <trkpt lat="49.31634" lon="-1.16664">
        <ele>7.32894</ele>
        <time>2022-08-02T08:54:15.000Z</time>
      </trkpt>
      <trkpt lat="49.3164" lon="-1.16655">
        <ele>7.159896</ele>
        <time>2022-08-02T08:54:16.000Z</time>
      </trkpt>
      <trkpt lat="49.31647" lon="-1.16645">
        <ele>6.985028</ele>
        <time>2022-08-02T08:54:17.000Z</time>
      </trkpt>
      <trkpt lat="49.31653" lon="-1.16637">
        <ele>6.81957</ele>
        <time>2022-08-02T08:54:18.000Z</time>
      </trkpt>
      <trkpt lat="49.3166" lon="-1.16628">
        <ele>6.649786</ele>
        <time>2022-08-02T08:54:19.000Z</time>
      </trkpt>
      <trkpt lat="49.31667" lon="-1.1662">
        <ele>6.488435</ele>
        <time>2022-08-02T08:54:20.000Z</time>
      </trkpt>
      <trkpt lat="49.31673" lon="-1.16612">
        <ele>6.326274</ele>
        <time>2022-08-02T08:54:21.000Z</time>
      </trkpt>
      <trkpt lat="49.31679" lon="-1.16604">
        <ele>6.171679</ele>
        <time>2022-08-02T08:54:22.000Z</time>
      </trkpt>
      <trkpt lat="49.31685" lon="-1.16596">
        <ele>6.015611</ele>
        <time>2022-08-02T08:54:23.000Z</time>
      </trkpt>
      <trkpt lat="49.31691" lon="-1.16588">
        <ele>5.86393</ele>
        <time>2022-08-02T08:54:24.000Z</time>
      </trkpt>
      <trkpt lat="49.31697" lon="-1.1658">
        <ele>5.711097</ele>
        <time>2022-08-02T08:54:25.000Z</time>
      </trkpt>
      <trkpt lat="49.31702" lon="-1.16571">
        <ele>5.559272</ele>
        <time>2022-08-02T08:54:26.000Z</time>
      </trkpt>
      <trkpt lat="49.31708" lon="-1.16563">
        <ele>5.406985</ele>
        <time>2022-08-02T08:54:27.000Z</time>
      </trkpt>
      <trkpt lat="49.31712" lon="-1.16554">
        <ele>5.261526</ele>
        <time>2022-08-02T08:54:28.000Z</time>
      </trkpt>
      <trkpt lat="49.31717" lon="-1.16545">
        <ele>5.181899</ele>
        <time>2022-08-02T08:54:29.000Z</time>
      </trkpt>
      <trkpt lat="49.31722" lon="-1.16536">
        <ele>5.156222</ele>
        <time>2022-08-02T08:54:30.000Z</time>
      </trkpt>
      <trkpt lat="49.31726" lon="-1.16527">
        <ele>5.130804</ele>
        <time>2022-08-02T08:54:31.000Z</time>
      </trkpt>
      <trkpt lat="49.3173" lon="-1.16518">
        <ele>5.105976</ele>
        <time>2022-08-02T08:54:32.000Z</time>
      </trkpt>
      <trkpt lat="49.31734" lon="-1.16509">
        <ele>5.080958</ele>
        <time>2022-08-02T08:54:33.000Z</time>
      </trkpt>
      <trkpt lat="49.31738" lon="-1.165">
        <ele>5.056514</ele>
        <time>2022-08-02T08:54:34.000Z</time>
      </trkpt>
      <trkpt lat="49.31741" lon="-1.16491">
        <ele>5.032069</ele>
        <time>2022-08-02T08:54:35.000Z</time>
      </trkpt>
      <trkpt lat="49.31745" lon="-1.16482">
        <ele>5.008374</ele>
        <time>2022-08-02T08:54:36.000Z</time>
      </trkpt>
      <trkpt lat="49.31749" lon="-1.16474">
        <ele>4.984634</ele>
        <time>2022-08-02T08:54:37.000Z</time>
      </trkpt>
      <trkpt lat="49.31753" lon="-1.16466">
        <ele>4.961494</ele>
        <time>2022-08-02T08:54:38.000Z</time>
      </trkpt>
      <trkpt lat="49.31757" lon="-1.16458">
        <ele>4.938744</ele>
        <time>2022-08-02T08:54:39.000Z</time>
      </trkpt>
      <trkpt lat="49.31761" lon="-1.1645">
        <ele>4.91678</ele>
        <time>2022-08-02T08:54:40.000Z</time>
      </trkpt>
      <trkpt lat="49.31765" lon="-1.16442">
        <ele>4.892864</ele>
        <time>2022-08-02T08:54:41.000Z</time>
      </trkpt>
      <trkpt lat="49.31769" lon="-1.16434">
        <ele>4.8709</ele>
        <time>2022-08-02T08:54:42.000Z</time>
      </trkpt>
      <trkpt lat="49.31773" lon="-1.16426">
        <ele>4.847944</ele>
        <time>2022-08-02T08:54:43.000Z</time>
      </trkpt>
      <trkpt lat="49.31776" lon="-1.16418">
        <ele>4.825009</ele>
        <time>2022-08-02T08:54:44.000Z</time>
      </trkpt>
      <trkpt lat="49.3178" lon="-1.16409">
        <ele>4.801685</ele>
        <time>2022-08-02T08:54:45.000Z</time>
      </trkpt>
      <trkpt lat="49.31784" lon="-1.16401">
        <ele>4.778377</ele>
        <time>2022-08-02T08:54:46.000Z</time>
      </trkpt>
      <trkpt lat="49.31788" lon="-1.16392">
        <ele>4.754693</ele>
        <time>2022-08-02T08:54:47.000Z</time>
      </trkpt>
      <trkpt lat="49.31792" lon="-1.16383">
        <ele>4.730246</ele>
        <time>2022-08-02T08:54:48.000Z</time>
      </trkpt>
      <trkpt lat="49.31796" lon="-1.16375">
        <ele>4.705588</ele>
        <time>2022-08-02T08:54:49.000Z</time>
      </trkpt>
      <trkpt lat="49.318" lon="-1.16366">
        <ele>4.681518</ele>
        <time>2022-08-02T08:54:50.000Z</time>
      </trkpt>
      <trkpt lat="49.31804" lon="-1.16357">
        <ele>4.657834</ele>
        <time>2022-08-02T08:54:51.000Z</time>
      </trkpt>
      <trkpt lat="49.31807" lon="-1.16349">
        <ele>4.633764</ele>
        <time>2022-08-02T08:54:52.000Z</time>
      </trkpt>
      <trkpt lat="49.31812" lon="-1.1634">
        <ele>4.609659</ele>
        <time>2022-08-02T08:54:53.000Z</time>
      </trkpt>
      <trkpt lat="49.31815" lon="-1.16332">
        <ele>4.586335</ele>
        <time>2022-08-02T08:54:54.000Z</time>
      </trkpt>
      <trkpt lat="49.31819" lon="-1.16324">
        <ele>4.567694</ele>
        <time>2022-08-02T08:54:55.000Z</time>
      </trkpt>
      <trkpt lat="49.31823" lon="-1.16315">
        <ele>4.568487</ele>
        <time>2022-08-02T08:54:56.000Z</time>
      </trkpt>
      <trkpt lat="49.31826" lon="-1.16307">
        <ele>4.569247</ele>
        <time>2022-08-02T08:54:57.000Z</time>
      </trkpt>
      <trkpt lat="49.31829" lon="-1.163">
        <ele>4.570014</ele>
        <time>2022-08-02T08:54:58.000Z</time>
      </trkpt>
      <trkpt lat="49.31833" lon="-1.16292">
        <ele>4.57076</ele>
        <time>2022-08-02T08:54:59.000Z</time>
      </trkpt>
      <trkpt lat="49.31836" lon="-1.16284">
        <ele>4.571499</ele>
        <time>2022-08-02T08:55:00.000Z</time>
      </trkpt>
      <trkpt lat="49.31839" lon="-1.16276">
        <ele>4.572219</ele>
        <time>2022-08-02T08:55:01.000Z</time>
      </trkpt>
      <trkpt lat="49.31841" lon="-1.16269">
        <ele>4.572875</ele>
        <time>2022-08-02T08:55:02.000Z</time>
      </trkpt>
      <trkpt lat="49.31843" lon="-1.16262">
        <ele>4.573504</ele>
        <time>2022-08-02T08:55:03.000Z</time>
      </trkpt>
      <trkpt lat="49.31845" lon="-1.16255">
        <ele>4.574103</ele>
        <time>2022-08-02T08:55:04.000Z</time>
      </trkpt>
      <trkpt lat="49.31847" lon="-1.16248">
        <ele>4.57473</ele>
        <time>2022-08-02T08:55:05.000Z</time>
      </trkpt>
      <trkpt lat="49.31849" lon="-1.16242">
        <ele>4.575293</ele>
        <time>2022-08-02T08:55:06.000Z</time>
      </trkpt>
      <trkpt lat="49.31851" lon="-1.16235">
        <ele>4.575877</ele>
        <time>2022-08-02T08:55:07.000Z</time>
      </trkpt>
      <trkpt lat="49.31853" lon="-1.16228">
        <ele>4.576498</ele>
        <time>2022-08-02T08:55:08.000Z</time>
      </trkpt>
      <trkpt lat="49.31855" lon="-1.16222">
        <ele>4.577075</ele>
        <time>2022-08-02T08:55:09.000Z</time>
      </trkpt>
      <trkpt lat="49.31857" lon="-1.16215">
        <ele>4.577657</ele>
        <time>2022-08-02T08:55:10.000Z</time>
      </trkpt>
      <trkpt lat="49.31859" lon="-1.16209">
        <ele>4.578227</ele>
        <time>2022-08-02T08:55:11.000Z</time>
      </trkpt>
      <trkpt lat="49.31861" lon="-1.16202">
        <ele>4.578803</ele>
        <time>2022-08-02T08:55:12.000Z</time>
      </trkpt>
      <trkpt lat="49.31862" lon="-1.16195">
        <ele>4.579385</ele>
        <time>2022-08-02T08:55:13.000Z</time>
      </trkpt>
      <trkpt lat="49.31863" lon="-1.16189">
        <ele>4.579955</ele>
        <time>2022-08-02T08:55:14.000Z</time>
      </trkpt>
      <trkpt lat="49.31865" lon="-1.16182">
        <ele>4.580517</ele>
        <time>2022-08-02T08:55:15.000Z</time>
      </trkpt>
      <trkpt lat="49.31867" lon="-1.16176">
        <ele>4.581109</ele>
        <time>2022-08-02T08:55:16.000Z</time>
      </trkpt>
      <trkpt lat="49.31868" lon="-1.16169">
        <ele>4.581646</ele>
        <time>2022-08-02T08:55:17.000Z</time>
      </trkpt>
      <trkpt lat="49.31869" lon="-1.16162">
        <ele>4.582232</ele>
        <time>2022-08-02T08:55:18.000Z</time>
      </trkpt>
      <trkpt lat="49.31871" lon="-1.16156">
        <ele>4.582797</ele>
        <time>2022-08-02T08:55:19.000Z</time>
      </trkpt>
      <trkpt lat="49.31872" lon="-1.16149">
        <ele>4.583354</ele>
        <time>2022-08-02T08:55:20.000Z</time>
      </trkpt>
      <trkpt lat="49.31873" lon="-1.16142">
        <ele>4.583916</ele>
        <time>2022-08-02T08:55:21.000Z</time>
      </trkpt>
      <trkpt lat="49.31875" lon="-1.16136">
        <ele>4.584486</ele>
        <time>2022-08-02T08:55:22.000Z</time>
      </trkpt>
      <trkpt lat="49.31876" lon="-1.16129">
        <ele>4.58504</ele>
        <time>2022-08-02T08:55:23.000Z</time>
      </trkpt>
      <trkpt lat="49.31877" lon="-1.16123">
        <ele>4.58559</ele>
        <time>2022-08-02T08:55:24.000Z</time>
      </trkpt>
      <trkpt lat="49.31878" lon="-1.16116">
        <ele>4.586124</ele>
        <time>2022-08-02T08:55:25.000Z</time>
      </trkpt>
      <trkpt lat="49.31879" lon="-1.16109">
        <ele>4.586685</ele>
        <time>2022-08-02T08:55:26.000Z</time>
      </trkpt>
      <trkpt lat="49.3188" lon="-1.16102">
        <ele>4.587257</ele>
        <time>2022-08-02T08:55:27.000Z</time>
      </trkpt>
      <trkpt lat="49.31881" lon="-1.16096">
        <ele>4.587815</ele>
        <time>2022-08-02T08:55:28.000Z</time>
      </trkpt>
      <trkpt lat="49.31882" lon="-1.16089">
        <ele>4.588378</ele>
        <time>2022-08-02T08:55:29.000Z</time>
      </trkpt>
      <trkpt lat="49.31883" lon="-1.16082">
        <ele>4.588934</ele>
        <time>2022-08-02T08:55:30.000Z</time>
      </trkpt>
      <trkpt lat="49.31885" lon="-1.16076">
        <ele>4.589504</ele>
        <time>2022-08-02T08:55:31.000Z</time>
      </trkpt>
      <trkpt lat="49.31885" lon="-1.16069">
        <ele>4.59116</ele>
        <time>2022-08-02T08:55:32.000Z</time>
      </trkpt>
      <trkpt lat="49.31887" lon="-1.16063">
        <ele>4.595298</ele>
        <time>2022-08-02T08:55:33.000Z</time>
      </trkpt>
      <trkpt lat="49.31888" lon="-1.16056">
        <ele>4.599413</ele>
        <time>2022-08-02T08:55:34.000Z</time>
      </trkpt>
      <trkpt lat="49.31889" lon="-1.1605">
        <ele>4.603477</ele>
        <time>2022-08-02T08:55:35.000Z</time>
      </trkpt>
      <trkpt lat="49.31891" lon="-1.16044">
        <ele>4.607536</ele>
        <time>2022-08-02T08:55:36.000Z</time>
      </trkpt>
      <trkpt lat="49.31893" lon="-1.16037">
        <ele>4.611765</ele>
        <time>2022-08-02T08:55:37.000Z</time>
      </trkpt>
      <trkpt lat="49.31893" lon="-1.16031">
        <ele>4.61569</ele>
        <time>2022-08-02T08:55:38.000Z</time>
      </trkpt>
      <trkpt lat="49.31895" lon="-1.16025">
        <ele>4.619654</ele>
        <time>2022-08-02T08:55:39.000Z</time>
      </trkpt>
      <trkpt lat="49.31896" lon="-1.16018">
        <ele>4.6236</ele>
        <time>2022-08-02T08:55:40.000Z</time>
      </trkpt>
      <trkpt lat="49.31897" lon="-1.16012">
        <ele>4.627644</ele>
        <time>2022-08-02T08:55:41.000Z</time>
      </trkpt>
      <trkpt lat="49.31898" lon="-1.16005">
        <ele>4.631709</ele>
        <time>2022-08-02T08:55:42.000Z</time>
      </trkpt>
      <trkpt lat="49.319" lon="-1.15999">
        <ele>4.635769</ele>
        <time>2022-08-02T08:55:43.000Z</time>
      </trkpt>
      <trkpt lat="49.31901" lon="-1.15993">
        <ele>4.639827</ele>
        <time>2022-08-02T08:55:44.000Z</time>
      </trkpt>
      <trkpt lat="49.31902" lon="-1.15987">
        <ele>4.643849</ele>
        <time>2022-08-02T08:55:45.000Z</time>
      </trkpt>
      <trkpt lat="49.31903" lon="-1.1598">
        <ele>4.647854</ele>
        <time>2022-08-02T08:55:46.000Z</time>
      </trkpt>
      <trkpt lat="49.31905" lon="-1.15974">
        <ele>4.651849</ele>
        <time>2022-08-02T08:55:47.000Z</time>
      </trkpt>
      <trkpt lat="49.31905" lon="-1.15967">
        <ele>4.655979</ele>
        <time>2022-08-02T08:55:48.000Z</time>
      </trkpt>
      <trkpt lat="49.31907" lon="-1.15961">
        <ele>4.660175</ele>
        <time>2022-08-02T08:55:49.000Z</time>
      </trkpt>
      <trkpt lat="49.31908" lon="-1.15954">
        <ele>4.664339</ele>
        <time>2022-08-02T08:55:50.000Z</time>
      </trkpt>
      <trkpt lat="49.31909" lon="-1.15948">
        <ele>4.668477</ele>
        <time>2022-08-02T08:55:51.000Z</time>
      </trkpt>
      <trkpt lat="49.31909" lon="-1.15941">
        <ele>4.672653</ele>
        <time>2022-08-02T08:55:52.000Z</time>
      </trkpt>
      <trkpt lat="49.3191" lon="-1.15934">
        <ele>4.676836</ele>
        <time>2022-08-02T08:55:53.000Z</time>
      </trkpt>
      <trkpt lat="49.31912" lon="-1.15927">
        <ele>4.681236</ele>
        <time>2022-08-02T08:55:54.000Z</time>
      </trkpt>
      <trkpt lat="49.31913" lon="-1.1592">
        <ele>4.685533</ele>
        <time>2022-08-02T08:55:55.000Z</time>
      </trkpt>
      <trkpt lat="49.31913" lon="-1.15914">
        <ele>4.689663</ele>
        <time>2022-08-02T08:55:56.000Z</time>
      </trkpt>
      <trkpt lat="49.31914" lon="-1.15907">
        <ele>4.693886</ele>
        <time>2022-08-02T08:55:57.000Z</time>
      </trkpt>
      <trkpt lat="49.31915" lon="-1.159">
        <ele>4.698102</ele>
        <time>2022-08-02T08:55:58.000Z</time>
      </trkpt>
      <trkpt lat="49.31916" lon="-1.15893">
        <ele>4.702325</ele>
        <time>2022-08-02T08:55:59.000Z</time>
      </trkpt>
      <trkpt lat="49.31917" lon="-1.15886">
        <ele>4.706568</ele>
        <time>2022-08-02T08:56:00.000Z</time>
      </trkpt>
      <trkpt lat="49.31917" lon="-1.15879">
        <ele>4.71085</ele>
        <time>2022-08-02T08:56:01.000Z</time>
      </trkpt>
      <trkpt lat="49.31918" lon="-1.15873">
        <ele>4.715093</ele>
        <time>2022-08-02T08:56:02.000Z</time>
      </trkpt>
      <trkpt lat="49.31919" lon="-1.15866">
        <ele>4.71939</ele>
        <time>2022-08-02T08:56:03.000Z</time>
      </trkpt>
      <trkpt lat="49.31919" lon="-1.15859">
        <ele>4.723545</ele>
        <time>2022-08-02T08:56:04.000Z</time>
      </trkpt>
      <trkpt lat="49.31921" lon="-1.15852">
        <ele>4.727892</ele>
        <time>2022-08-02T08:56:05.000Z</time>
      </trkpt>
      <trkpt lat="49.31921" lon="-1.15845">
        <ele>4.732081</ele>
        <time>2022-08-02T08:56:06.000Z</time>
      </trkpt>
      <trkpt lat="49.31922" lon="-1.15838">
        <ele>4.736543</ele>
        <time>2022-08-02T08:56:07.000Z</time>
      </trkpt>
      <trkpt lat="49.31923" lon="-1.15831">
        <ele>4.740914</ele>
        <time>2022-08-02T08:56:08.000Z</time>
      </trkpt>
      <trkpt lat="49.31924" lon="-1.15823">
        <ele>4.745452</ele>
        <time>2022-08-02T08:56:09.000Z</time>
      </trkpt>
      <trkpt lat="49.31925" lon="-1.15816">
        <ele>4.750175</ele>
        <time>2022-08-02T08:56:10.000Z</time>
      </trkpt>
      <trkpt lat="49.31926" lon="-1.15809">
        <ele>4.754664</ele>
        <time>2022-08-02T08:56:11.000Z</time>
      </trkpt>
      <trkpt lat="49.31927" lon="-1.15801">
        <ele>4.778718</ele>
        <time>2022-08-02T08:56:12.000Z</time>
      </trkpt>
      <trkpt lat="49.31927" lon="-1.15794">
        <ele>4.846513</ele>
        <time>2022-08-02T08:56:13.000Z</time>
      </trkpt>
      <trkpt lat="49.31928" lon="-1.15787">
        <ele>4.914117</ele>
        <time>2022-08-02T08:56:14.000Z</time>
      </trkpt>
      <trkpt lat="49.31929" lon="-1.15779">
        <ele>4.983555</ele>
        <time>2022-08-02T08:56:15.000Z</time>
      </trkpt>
      <trkpt lat="49.31929" lon="-1.15772">
        <ele>5.050761</ele>
        <time>2022-08-02T08:56:16.000Z</time>
      </trkpt>
      <trkpt lat="49.3193" lon="-1.15765">
        <ele>5.118365</ele>
        <time>2022-08-02T08:56:17.000Z</time>
      </trkpt>
      <trkpt lat="49.3193" lon="-1.15757">
        <ele>5.187405</ele>
        <time>2022-08-02T08:56:18.000Z</time>
      </trkpt>
      <trkpt lat="49.3193" lon="-1.1575">
        <ele>5.256446</ele>
        <time>2022-08-02T08:56:19.000Z</time>
      </trkpt>
      <trkpt lat="49.3193" lon="-1.15742">
        <ele>5.324437</ele>
        <time>2022-08-02T08:56:20.000Z</time>
      </trkpt>
      <trkpt lat="49.31929" lon="-1.15735">
        <ele>5.390219</ele>
        <time>2022-08-02T08:56:21.000Z</time>
      </trkpt>
      <trkpt lat="49.31929" lon="-1.15728">
        <ele>5.459259</ele>
        <time>2022-08-02T08:56:22.000Z</time>
      </trkpt>
      <trkpt lat="49.31929" lon="-1.1572">
        <ele>5.5284</ele>
        <time>2022-08-02T08:56:23.000Z</time>
      </trkpt>
      <trkpt lat="49.31928" lon="-1.15713">
        <ele>5.596523</ele>
        <time>2022-08-02T08:56:24.000Z</time>
      </trkpt>
      <trkpt lat="49.31927" lon="-1.15705">
        <ele>5.666591</ele>
        <time>2022-08-02T08:56:25.000Z</time>
      </trkpt>
      <trkpt lat="49.31927" lon="-1.15698">
        <ele>5.73207</ele>
        <time>2022-08-02T08:56:26.000Z</time>
      </trkpt>
      <trkpt lat="49.31926" lon="-1.15691">
        <ele>5.800586</ele>
        <time>2022-08-02T08:56:27.000Z</time>
      </trkpt>
      <trkpt lat="49.31925" lon="-1.15684">
        <ele>5.867327</ele>
        <time>2022-08-02T08:56:28.000Z</time>
      </trkpt>
      <trkpt lat="49.31925" lon="-1.15677">
        <ele>5.934686</ele>
        <time>2022-08-02T08:56:29.000Z</time>
      </trkpt>
      <trkpt lat="49.31924" lon="-1.1567">
        <ele>6.000529</ele>
        <time>2022-08-02T08:56:30.000Z</time>
      </trkpt>
      <trkpt lat="49.31923" lon="-1.15662">
        <ele>6.067889</ele>
        <time>2022-08-02T08:56:31.000Z</time>
      </trkpt>
      <trkpt lat="49.31921" lon="-1.15655">
        <ele>6.136045</ele>
        <time>2022-08-02T08:56:32.000Z</time>
      </trkpt>
      <trkpt lat="49.31919" lon="-1.15649">
        <ele>6.200744</ele>
        <time>2022-08-02T08:56:33.000Z</time>
      </trkpt>
      <trkpt lat="49.31918" lon="-1.15642">
        <ele>6.266737</ele>
        <time>2022-08-02T08:56:34.000Z</time>
      </trkpt>
      <trkpt lat="49.31916" lon="-1.15635">
        <ele>6.33219</ele>
        <time>2022-08-02T08:56:35.000Z</time>
      </trkpt>
      <trkpt lat="49.31914" lon="-1.15629">
        <ele>6.394928</ele>
        <time>2022-08-02T08:56:36.000Z</time>
      </trkpt>
      <trkpt lat="49.31912" lon="-1.15623">
        <ele>6.455392</ele>
        <time>2022-08-02T08:56:37.000Z</time>
      </trkpt>
      <trkpt lat="49.3191" lon="-1.15618">
        <ele>6.510968</ele>
        <time>2022-08-02T08:56:38.000Z</time>
      </trkpt>
      <trkpt lat="49.31908" lon="-1.15613">
        <ele>6.5687</ele>
        <time>2022-08-02T08:56:39.000Z</time>
      </trkpt>
      <trkpt lat="49.31906" lon="-1.15608">
        <ele>6.627468</ele>
        <time>2022-08-02T08:56:40.000Z</time>
      </trkpt>
      <trkpt lat="49.31903" lon="-1.15603">
        <ele>6.684107</ele>
        <time>2022-08-02T08:56:41.000Z</time>
      </trkpt>
      <trkpt lat="49.319" lon="-1.15599">
        <ele>6.739306</ele>
        <time>2022-08-02T08:56:42.000Z</time>
      </trkpt>
      <trkpt lat="49.31897" lon="-1.15596">
        <ele>6.797497</ele>
        <time>2022-08-02T08:56:43.000Z</time>
      </trkpt>
      <trkpt lat="49.31893" lon="-1.15593">
        <ele>6.856526</ele>
        <time>2022-08-02T08:56:44.000Z</time>
      </trkpt>
      <trkpt lat="49.31889" lon="-1.1559">
        <ele>6.911747</ele>
        <time>2022-08-02T08:56:45.000Z</time>
      </trkpt>
      <trkpt lat="49.31886" lon="-1.15588">
        <ele>6.965417</ele>
        <time>2022-08-02T08:56:46.000Z</time>
      </trkpt>
      <trkpt lat="49.31883" lon="-1.15586">
        <ele>7.014122</ele>
        <time>2022-08-02T08:56:47.000Z</time>
      </trkpt>
      <trkpt lat="49.31879" lon="-1.15584">
        <ele>7.072085</ele>
        <time>2022-08-02T08:56:48.000Z</time>
      </trkpt>
      <trkpt lat="49.31876" lon="-1.15582">
        <ele>7.121896</ele>
        <time>2022-08-02T08:56:49.000Z</time>
      </trkpt>
      <trkpt lat="49.31872" lon="-1.15579">
        <ele>7.172103</ele>
        <time>2022-08-02T08:56:50.000Z</time>
      </trkpt>
      <trkpt lat="49.31869" lon="-1.15577">
        <ele>7.225077</ele>
        <time>2022-08-02T08:56:51.000Z</time>
      </trkpt>
      <trkpt lat="49.31866" lon="-1.15575">
        <ele>7.275285</ele>
        <time>2022-08-02T08:56:52.000Z</time>
      </trkpt>
      <trkpt lat="49.31863" lon="-1.15572">
        <ele>7.34771</ele>
        <time>2022-08-02T08:56:53.000Z</time>
      </trkpt>
      <trkpt lat="49.3186" lon="-1.1557">
        <ele>7.442791</ele>
        <time>2022-08-02T08:56:54.000Z</time>
      </trkpt>
      <trkpt lat="49.31856" lon="-1.15567">
        <ele>7.545014</ele>
        <time>2022-08-02T08:56:55.000Z</time>
      </trkpt>
      <trkpt lat="49.31853" lon="-1.15565">
        <ele>7.633091</ele>
        <time>2022-08-02T08:56:56.000Z</time>
      </trkpt>
      <trkpt lat="49.3185" lon="-1.15562">
        <ele>7.728172</ele>
        <time>2022-08-02T08:56:57.000Z</time>
      </trkpt>
      <trkpt lat="49.31847" lon="-1.1556">
        <ele>7.816248</ele>
        <time>2022-08-02T08:56:58.000Z</time>
      </trkpt>
      <trkpt lat="49.31844" lon="-1.15557">
        <ele>7.912125</ele>
        <time>2022-08-02T08:56:59.000Z</time>
      </trkpt>
      <trkpt lat="49.31841" lon="-1.15555">
        <ele>7.99969</ele>
        <time>2022-08-02T08:57:00.000Z</time>
      </trkpt>
      <trkpt lat="49.31838" lon="-1.15552">
        <ele>8.096387</ele>
        <time>2022-08-02T08:57:01.000Z</time>
      </trkpt>
      <trkpt lat="49.31835" lon="-1.1555">
        <ele>8.181295</ele>
        <time>2022-08-02T08:57:02.000Z</time>
      </trkpt>
      <trkpt lat="49.31832" lon="-1.15547">
        <ele>8.276376</ele>
        <time>2022-08-02T08:57:03.000Z</time>
      </trkpt>
      <trkpt lat="49.31829" lon="-1.15545">
        <ele>8.364452</ele>
        <time>2022-08-02T08:57:04.000Z</time>
      </trkpt>
      <trkpt lat="49.31826" lon="-1.15542">
        <ele>8.451697</ele>
        <time>2022-08-02T08:57:05.000Z</time>
      </trkpt>
      <trkpt lat="49.31823" lon="-1.1554">
        <ele>8.536605</ele>
        <time>2022-08-02T08:57:06.000Z</time>
      </trkpt>
      <trkpt lat="49.3182" lon="-1.15538">
        <ele>8.630915</ele>
        <time>2022-08-02T08:57:07.000Z</time>
      </trkpt>
      <trkpt lat="49.31817" lon="-1.15535">
        <ele>8.717575</ele>
        <time>2022-08-02T08:57:08.000Z</time>
      </trkpt>
      <trkpt lat="49.31814" lon="-1.15533">
        <ele>8.812656</ele>
        <time>2022-08-02T08:57:09.000Z</time>
      </trkpt>
      <trkpt lat="49.31811" lon="-1.15531">
        <ele>8.891274</ele>
        <time>2022-08-02T08:57:10.000Z</time>
      </trkpt>
      <trkpt lat="49.31808" lon="-1.15529">
        <ele>8.990164</ele>
        <time>2022-08-02T08:57:11.000Z</time>
      </trkpt>
      <trkpt lat="49.31805" lon="-1.15526">
        <ele>9.078241</ele>
        <time>2022-08-02T08:57:12.000Z</time>
      </trkpt>
      <trkpt lat="49.31802" lon="-1.15524">
        <ele>9.173322</ele>
        <time>2022-08-02T08:57:13.000Z</time>
      </trkpt>
      <trkpt lat="49.31798" lon="-1.15521">
        <ele>9.266887</ele>
        <time>2022-08-02T08:57:14.000Z</time>
      </trkpt>
      <trkpt lat="49.31796" lon="-1.15519">
        <ele>9.354964</ele>
        <time>2022-08-02T08:57:15.000Z</time>
      </trkpt>
      <trkpt lat="49.31793" lon="-1.15517">
        <ele>9.431274</ele>
        <time>2022-08-02T08:57:16.000Z</time>
      </trkpt>
      <trkpt lat="49.3179" lon="-1.15514">
        <ele>9.52484</ele>
        <time>2022-08-02T08:57:17.000Z</time>
      </trkpt>
      <trkpt lat="49.31787" lon="-1.15512">
        <ele>9.60797</ele>
        <time>2022-08-02T08:57:18.000Z</time>
      </trkpt>
      <trkpt lat="49.31784" lon="-1.15509">
        <ele>9.696047</ele>
        <time>2022-08-02T08:57:19.000Z</time>
      </trkpt>
      <trkpt lat="49.31782" lon="-1.15507">
        <ele>9.77323</ele>
        <time>2022-08-02T08:57:20.000Z</time>
      </trkpt>
      <trkpt lat="49.31779" lon="-1.15504">
        <ele>9.869927</ele>
        <time>2022-08-02T08:57:21.000Z</time>
      </trkpt>
      <trkpt lat="49.31776" lon="-1.15501">
        <ele>9.959746</ele>
        <time>2022-08-02T08:57:22.000Z</time>
      </trkpt>
      <trkpt lat="49.31772" lon="-1.15499">
        <ele>10.059252</ele>
        <time>2022-08-02T08:57:23.000Z</time>
      </trkpt>
      <trkpt lat="49.31769" lon="-1.15497">
        <ele>10.146496</ele>
        <time>2022-08-02T08:57:24.000Z</time>
      </trkpt>
      <trkpt lat="49.31766" lon="-1.15494">
        <ele>10.248719</ele>
        <time>2022-08-02T08:57:25.000Z</time>
      </trkpt>
      <trkpt lat="49.31762" lon="-1.15492">
        <ele>10.354072</ele>
        <time>2022-08-02T08:57:26.000Z</time>
      </trkpt>
      <trkpt lat="49.31759" lon="-1.15489">
        <ele>10.449153</ele>
        <time>2022-08-02T08:57:27.000Z</time>
      </trkpt>
      <trkpt lat="49.31756" lon="-1.15486">
        <ele>10.54756</ele>
        <time>2022-08-02T08:57:28.000Z</time>
      </trkpt>
      <trkpt lat="49.31752" lon="-1.15483">
        <ele>10.654567</ele>
        <time>2022-08-02T08:57:29.000Z</time>
      </trkpt>
      <trkpt lat="49.31749" lon="-1.1548">
        <ele>10.755706</ele>
        <time>2022-08-02T08:57:30.000Z</time>
      </trkpt>
      <trkpt lat="49.31745" lon="-1.15477">
        <ele>10.867323</ele>
        <time>2022-08-02T08:57:31.000Z</time>
      </trkpt>
      <trkpt lat="49.31741" lon="-1.15474">
        <ele>10.982075</ele>
        <time>2022-08-02T08:57:32.000Z</time>
      </trkpt>
      <trkpt lat="49.31738" lon="-1.15471">
        <ele>11.099431</ele>
        <time>2022-08-02T08:57:33.000Z</time>
      </trkpt>
      <trkpt lat="49.31734" lon="-1.15467">
        <ele>11.211003</ele>
        <time>2022-08-02T08:57:34.000Z</time>
      </trkpt>
      <trkpt lat="49.31732" lon="-1.15464">
        <ele>11.296117</ele>
        <time>2022-08-02T08:57:35.000Z</time>
      </trkpt>
      <trkpt lat="49.31727" lon="-1.1546">
        <ele>11.44329</ele>
        <time>2022-08-02T08:57:36.000Z</time>
      </trkpt>
      <trkpt lat="49.31724" lon="-1.15457">
        <ele>11.529499</ele>
        <time>2022-08-02T08:57:37.000Z</time>
      </trkpt>
      <trkpt lat="49.3172" lon="-1.15453">
        <ele>11.651828</ele>
        <time>2022-08-02T08:57:38.000Z</time>
      </trkpt>
      <trkpt lat="49.31717" lon="-1.15448">
        <ele>11.786654</ele>
        <time>2022-08-02T08:57:39.000Z</time>
      </trkpt>
      <trkpt lat="49.31714" lon="-1.15444">
        <ele>11.879389</ele>
        <time>2022-08-02T08:57:40.000Z</time>
      </trkpt>
      <trkpt lat="49.3171" lon="-1.15438">
        <ele>12.028232</ele>
        <time>2022-08-02T08:57:41.000Z</time>
      </trkpt>
      <trkpt lat="49.31707" lon="-1.15435">
        <ele>12.064792</ele>
        <time>2022-08-02T08:57:42.000Z</time>
      </trkpt>
      <trkpt lat="49.31703" lon="-1.1543">
        <ele>12.079898</ele>
        <time>2022-08-02T08:57:43.000Z</time>
      </trkpt>
      <trkpt lat="49.317" lon="-1.15424">
        <ele>12.095777</ele>
        <time>2022-08-02T08:57:44.000Z</time>
      </trkpt>
      <trkpt lat="49.31696" lon="-1.15418">
        <ele>12.111804</ele>
        <time>2022-08-02T08:57:45.000Z</time>
      </trkpt>
      <trkpt lat="49.31693" lon="-1.15412">
        <ele>12.127831</ele>
        <time>2022-08-02T08:57:46.000Z</time>
      </trkpt>
      <trkpt lat="49.31688" lon="-1.15405">
        <ele>12.147622</ele>
        <time>2022-08-02T08:57:47.000Z</time>
      </trkpt>
      <trkpt lat="49.31684" lon="-1.15399">
        <ele>12.164586</ele>
        <time>2022-08-02T08:57:48.000Z</time>
      </trkpt>
      <trkpt lat="49.3168" lon="-1.15393">
        <ele>12.183289</ele>
        <time>2022-08-02T08:57:49.000Z</time>
      </trkpt>
      <trkpt lat="49.31677" lon="-1.15388">
        <ele>12.19779</ele>
        <time>2022-08-02T08:57:50.000Z</time>
      </trkpt>
      <trkpt lat="49.31672" lon="-1.15379">
        <ele>12.220138</ele>
        <time>2022-08-02T08:57:51.000Z</time>
      </trkpt>
      <trkpt lat="49.31668" lon="-1.15373">
        <ele>12.238841</ele>
        <time>2022-08-02T08:57:52.000Z</time>
      </trkpt>
      <trkpt lat="49.31663" lon="-1.15366">
        <ele>12.258126</ele>
        <time>2022-08-02T08:57:53.000Z</time>
      </trkpt>
      <trkpt lat="49.31661" lon="-1.15361">
        <ele>12.272158</ele>
        <time>2022-08-02T08:57:54.000Z</time>
      </trkpt>
      <trkpt lat="49.31657" lon="-1.15354">
        <ele>12.290072</ele>
        <time>2022-08-02T08:57:55.000Z</time>
      </trkpt>
      <trkpt lat="49.31652" lon="-1.15347">
        <ele>12.311676</ele>
        <time>2022-08-02T08:57:56.000Z</time>
      </trkpt>
      <trkpt lat="49.31648" lon="-1.1534">
        <ele>12.329381</ele>
        <time>2022-08-02T08:57:57.000Z</time>
      </trkpt>
      <trkpt lat="49.31645" lon="-1.15334">
        <ele>12.346477</ele>
        <time>2022-08-02T08:57:58.000Z</time>
      </trkpt>
      <trkpt lat="49.31641" lon="-1.15328">
        <ele>12.360978</ele>
        <time>2022-08-02T08:57:59.000Z</time>
      </trkpt>
      <trkpt lat="49.31637" lon="-1.15321">
        <ele>12.381027</ele>
        <time>2022-08-02T08:58:00.000Z</time>
      </trkpt>
      <trkpt lat="49.31634" lon="-1.15316">
        <ele>12.394298</ele>
        <time>2022-08-02T08:58:01.000Z</time>
      </trkpt>
      <trkpt lat="49.31629" lon="-1.15309">
        <ele>12.415182</ele>
        <time>2022-08-02T08:58:02.000Z</time>
      </trkpt>
      <trkpt lat="49.31626" lon="-1.15303">
        <ele>12.430283</ele>
        <time>2022-08-02T08:58:03.000Z</time>
      </trkpt>
      <trkpt lat="49.31622" lon="-1.15298">
        <ele>12.446534</ele>
        <time>2022-08-02T08:58:04.000Z</time>
      </trkpt>
      <trkpt lat="49.31619" lon="-1.15293">
        <ele>12.461035</ele>
        <time>2022-08-02T08:58:05.000Z</time>
      </trkpt>
      <trkpt lat="49.31616" lon="-1.15287">
        <ele>12.47538</ele>
        <time>2022-08-02T08:58:06.000Z</time>
      </trkpt>
      <trkpt lat="49.31613" lon="-1.15282">
        <ele>12.490329</ele>
        <time>2022-08-02T08:58:07.000Z</time>
      </trkpt>
      <trkpt lat="49.3161" lon="-1.15276">
        <ele>12.504206</ele>
        <time>2022-08-02T08:58:08.000Z</time>
      </trkpt>
      <trkpt lat="49.31608" lon="-1.15272">
        <ele>12.515443</ele>
        <time>2022-08-02T08:58:09.000Z</time>
      </trkpt>
      <trkpt lat="49.31605" lon="-1.15267">
        <ele>12.529014</ele>
        <time>2022-08-02T08:58:10.000Z</time>
      </trkpt>
      <trkpt lat="49.31602" lon="-1.15262">
        <ele>12.541984</ele>
        <time>2022-08-02T08:58:11.000Z</time>
      </trkpt>
      <trkpt lat="49.31599" lon="-1.15257">
        <ele>12.558011</ele>
        <time>2022-08-02T08:58:12.000Z</time>
      </trkpt>
      <trkpt lat="49.31596" lon="-1.15252">
        <ele>12.570843</ele>
        <time>2022-08-02T08:58:13.000Z</time>
      </trkpt>
      <trkpt lat="49.31593" lon="-1.15247">
        <ele>12.583754</ele>
        <time>2022-08-02T08:58:14.000Z</time>
      </trkpt>
      <trkpt lat="49.31591" lon="-1.15244">
        <ele>12.594269</ele>
        <time>2022-08-02T08:58:15.000Z</time>
      </trkpt>
      <trkpt lat="49.31588" lon="-1.15239">
        <ele>12.608191</ele>
        <time>2022-08-02T08:58:16.000Z</time>
      </trkpt>
      <trkpt lat="49.31585" lon="-1.15234">
        <ele>12.590569</ele>
        <time>2022-08-02T08:58:17.000Z</time>
      </trkpt>
      <trkpt lat="49.31581" lon="-1.15228">
        <ele>12.524916</ele>
        <time>2022-08-02T08:58:18.000Z</time>
      </trkpt>
      <trkpt lat="49.31579" lon="-1.15223">
        <ele>12.472314</ele>
        <time>2022-08-02T08:58:19.000Z</time>
      </trkpt>
      <trkpt lat="49.31577" lon="-1.15219">
        <ele>12.431</ele>
        <time>2022-08-02T08:58:20.000Z</time>
      </trkpt>
      <trkpt lat="49.31574" lon="-1.15213">
        <ele>12.36367</ele>
        <time>2022-08-02T08:58:21.000Z</time>
      </trkpt>
      <trkpt lat="49.31572" lon="-1.15209">
        <ele>12.320384</ele>
        <time>2022-08-02T08:58:22.000Z</time>
      </trkpt>
      <trkpt lat="49.31569" lon="-1.15204">
        <ele>12.262623</ele>
        <time>2022-08-02T08:58:23.000Z</time>
      </trkpt>
      <trkpt lat="49.31566" lon="-1.152">
        <ele>12.215299</ele>
        <time>2022-08-02T08:58:24.000Z</time>
      </trkpt>
      <trkpt lat="49.31563" lon="-1.15196">
        <ele>12.165359</ele>
        <time>2022-08-02T08:58:25.000Z</time>
      </trkpt>
      <trkpt lat="49.31561" lon="-1.15193">
        <ele>12.12776</ele>
        <time>2022-08-02T08:58:26.000Z</time>
      </trkpt>
      <trkpt lat="49.31558" lon="-1.1519">
        <ele>12.080436</ele>
        <time>2022-08-02T08:58:27.000Z</time>
      </trkpt>
      <trkpt lat="49.31555" lon="-1.15186">
        <ele>12.03445</ele>
        <time>2022-08-02T08:58:28.000Z</time>
      </trkpt>
      <trkpt lat="49.31552" lon="-1.15181">
        <ele>11.974756</ele>
        <time>2022-08-02T08:58:29.000Z</time>
      </trkpt>
      <trkpt lat="49.3155" lon="-1.15177">
        <ele>11.935355</ele>
        <time>2022-08-02T08:58:30.000Z</time>
      </trkpt>
      <trkpt lat="49.31548" lon="-1.15173">
        <ele>11.888275</ele>
        <time>2022-08-02T08:58:31.000Z</time>
      </trkpt>
      <trkpt lat="49.31544" lon="-1.15168">
        <ele>11.827031</ele>
        <time>2022-08-02T08:58:32.000Z</time>
      </trkpt>
      <trkpt lat="49.31541" lon="-1.15164">
        <ele>11.778192</ele>
        <time>2022-08-02T08:58:33.000Z</time>
      </trkpt>
      <trkpt lat="49.31538" lon="-1.1516">
        <ele>11.726545</ele>
        <time>2022-08-02T08:58:34.000Z</time>
      </trkpt>
      <trkpt lat="49.31536" lon="-1.15156">
        <ele>11.681568</ele>
        <time>2022-08-02T08:58:35.000Z</time>
      </trkpt>
      <trkpt lat="49.31534" lon="-1.15151">
        <ele>11.634614</ele>
        <time>2022-08-02T08:58:36.000Z</time>
      </trkpt>
      <trkpt lat="49.31532" lon="-1.15147">
        <ele>11.593283</ele>
        <time>2022-08-02T08:58:37.000Z</time>
      </trkpt>
      <trkpt lat="49.3153" lon="-1.15142">
        <ele>11.545549</ele>
        <time>2022-08-02T08:58:38.000Z</time>
      </trkpt>
      <trkpt lat="49.31528" lon="-1.15138">
        <ele>11.502496</ele>
        <time>2022-08-02T08:58:39.000Z</time>
      </trkpt>
      <trkpt lat="49.31526" lon="-1.15136">
        <ele>11.468758</ele>
        <time>2022-08-02T08:58:40.000Z</time>
      </trkpt>
      <trkpt lat="49.31523" lon="-1.15132">
        <ele>11.418818</ele>
        <time>2022-08-02T08:58:41.000Z</time>
      </trkpt>
      <trkpt lat="49.3152" lon="-1.15128">
        <ele>11.374523</ele>
        <time>2022-08-02T08:58:42.000Z</time>
      </trkpt>
      <trkpt lat="49.31518" lon="-1.15124">
        <ele>11.330835</ele>
        <time>2022-08-02T08:58:43.000Z</time>
      </trkpt>
      <trkpt lat="49.31516" lon="-1.1512">
        <ele>11.28064</ele>
        <time>2022-08-02T08:58:44.000Z</time>
      </trkpt>
      <trkpt lat="49.31513" lon="-1.15115">
        <ele>11.231658</ele>
        <time>2022-08-02T08:58:45.000Z</time>
      </trkpt>
      <trkpt lat="49.3151" lon="-1.1511">
        <ele>11.177637</ele>
        <time>2022-08-02T08:58:46.000Z</time>
      </trkpt>
      <trkpt lat="49.31508" lon="-1.15106">
        <ele>11.127441</ele>
        <time>2022-08-02T08:58:47.000Z</time>
      </trkpt>
      <trkpt lat="49.31505" lon="-1.15101">
        <ele>11.073672</ele>
        <time>2022-08-02T08:58:48.000Z</time>
      </trkpt>
      <trkpt lat="49.31502" lon="-1.15096">
        <ele>11.016547</ele>
        <time>2022-08-02T08:58:49.000Z</time>
      </trkpt>
      <trkpt lat="49.31499" lon="-1.1509">
        <ele>10.952385</ele>
        <time>2022-08-02T08:58:50.000Z</time>
      </trkpt>
      <trkpt lat="49.31495" lon="-1.15085">
        <ele>10.890846</ele>
        <time>2022-08-02T08:58:51.000Z</time>
      </trkpt>
      <trkpt lat="49.31492" lon="-1.15079">
        <ele>10.824595</ele>
        <time>2022-08-02T08:58:52.000Z</time>
      </trkpt>
      <trkpt lat="49.31488" lon="-1.15073">
        <ele>10.760434</ele>
        <time>2022-08-02T08:58:53.000Z</time>
      </trkpt>
      <trkpt lat="49.31485" lon="-1.15067">
        <ele>10.695721</ele>
        <time>2022-08-02T08:58:54.000Z</time>
      </trkpt>
      <trkpt lat="49.31481" lon="-1.15062">
        <ele>10.628244</ele>
        <time>2022-08-02T08:58:55.000Z</time>
      </trkpt>
      <trkpt lat="49.31477" lon="-1.15056">
        <ele>10.556322</ele>
        <time>2022-08-02T08:58:56.000Z</time>
      </trkpt>
      <trkpt lat="49.31474" lon="-1.15049">
        <ele>10.484673</ele>
        <time>2022-08-02T08:58:57.000Z</time>
      </trkpt>
      <trkpt lat="49.31469" lon="-1.15043">
        <ele>10.408865</ele>
        <time>2022-08-02T08:58:58.000Z</time>
      </trkpt>
      <trkpt lat="49.31466" lon="-1.15037">
        <ele>10.337216</ele>
        <time>2022-08-02T08:58:59.000Z</time>
      </trkpt>
      <trkpt lat="49.31462" lon="-1.1503">
        <ele>10.242464</ele>
        <time>2022-08-02T08:59:00.000Z</time>
      </trkpt>
      <trkpt lat="49.31458" lon="-1.15024">
        <ele>10.130524</ele>
        <time>2022-08-02T08:59:01.000Z</time>
      </trkpt>
      <trkpt lat="49.31455" lon="-1.15017">
        <ele>10.022889</ele>
        <time>2022-08-02T08:59:02.000Z</time>
      </trkpt>
      <trkpt lat="49.31451" lon="-1.15011">
        <ele>9.91</ele>
        <time>2022-08-02T08:59:03.000Z</time>
      </trkpt>
      <trkpt lat="49.31447" lon="-1.15005">
        <ele>9.797121</ele>
        <time>2022-08-02T08:59:04.000Z</time>
      </trkpt>
      <trkpt lat="49.31443" lon="-1.14998">
        <ele>9.683664</ele>
        <time>2022-08-02T08:59:05.000Z</time>
      </trkpt>
      <trkpt lat="49.3144" lon="-1.14992">
        <ele>9.578716</ele>
        <time>2022-08-02T08:59:06.000Z</time>
      </trkpt>
      <trkpt lat="49.31436" lon="-1.14985">
        <ele>9.47009</ele>
        <time>2022-08-02T08:59:07.000Z</time>
      </trkpt>
      <trkpt lat="49.31432" lon="-1.14978">
        <ele>9.352423</ele>
        <time>2022-08-02T08:59:08.000Z</time>
      </trkpt>
      <trkpt lat="49.31429" lon="-1.14972">
        <ele>9.242801</ele>
        <time>2022-08-02T08:59:09.000Z</time>
      </trkpt>
      <trkpt lat="49.31426" lon="-1.14965">
        <ele>9.138878</ele>
        <time>2022-08-02T08:59:10.000Z</time>
      </trkpt>
      <trkpt lat="49.31422" lon="-1.14959">
        <ele>9.028288</ele>
        <time>2022-08-02T08:59:11.000Z</time>
      </trkpt>
      <trkpt lat="49.31418" lon="-1.14952">
        <ele>8.912555</ele>
        <time>2022-08-02T08:59:12.000Z</time>
      </trkpt>
      <trkpt lat="49.31414" lon="-1.14946">
        <ele>8.80393</ele>
        <time>2022-08-02T08:59:13.000Z</time>
      </trkpt>
      <trkpt lat="49.31411" lon="-1.1494">
        <ele>8.693341</ele>
        <time>2022-08-02T08:59:14.000Z</time>
      </trkpt>
      <trkpt lat="49.31407" lon="-1.14933">
        <ele>8.58233</ele>
        <time>2022-08-02T08:59:15.000Z</time>
      </trkpt>
      <trkpt lat="49.31403" lon="-1.14927">
        <ele>8.471741</ele>
        <time>2022-08-02T08:59:16.000Z</time>
      </trkpt>
      <trkpt lat="49.31399" lon="-1.14921">
        <ele>8.36073</ele>
        <time>2022-08-02T08:59:17.000Z</time>
      </trkpt>
      <trkpt lat="49.31395" lon="-1.14915">
        <ele>8.252946</ele>
        <time>2022-08-02T08:59:18.000Z</time>
      </trkpt>
      <trkpt lat="49.31392" lon="-1.14909">
        <ele>8.148242</ele>
        <time>2022-08-02T08:59:19.000Z</time>
      </trkpt>
      <trkpt lat="49.31388" lon="-1.14903">
        <ele>8.03998</ele>
        <time>2022-08-02T08:59:20.000Z</time>
      </trkpt>
      <trkpt lat="49.31384" lon="-1.14897">
        <ele>7.92939</ele>
        <time>2022-08-02T08:59:21.000Z</time>
      </trkpt>
      <trkpt lat="49.3138" lon="-1.1489">
        <ele>7.816896</ele>
        <time>2022-08-02T08:59:22.000Z</time>
      </trkpt>
      <trkpt lat="49.31376" lon="-1.14883">
        <ele>7.696199</ele>
        <time>2022-08-02T08:59:23.000Z</time>
      </trkpt>
      <trkpt lat="49.31372" lon="-1.14876">
        <ele>7.579816</ele>
        <time>2022-08-02T08:59:24.000Z</time>
      </trkpt>
      <trkpt lat="49.31368" lon="-1.14869">
        <ele>7.461172</ele>
        <time>2022-08-02T08:59:25.000Z</time>
      </trkpt>
      <trkpt lat="49.31364" lon="-1.14862">
        <ele>7.339922</ele>
        <time>2022-08-02T08:59:26.000Z</time>
      </trkpt>
      <trkpt lat="49.31359" lon="-1.14855">
        <ele>7.2045</ele>
        <time>2022-08-02T08:59:27.000Z</time>
      </trkpt>
      <trkpt lat="49.31355" lon="-1.14848">
        <ele>7.079049</ele>
        <time>2022-08-02T08:59:28.000Z</time>
      </trkpt>
      <trkpt lat="49.31351" lon="-1.1484">
        <ele>6.947713</ele>
        <time>2022-08-02T08:59:29.000Z</time>
      </trkpt>
      <trkpt lat="49.31346" lon="-1.14833">
        <ele>6.814157</ele>
        <time>2022-08-02T08:59:30.000Z</time>
      </trkpt>
      <trkpt lat="49.3134" lon="-1.14827">
        <ele>6.711708</ele>
        <time>2022-08-02T08:59:31.000Z</time>
      </trkpt>
      <trkpt lat="49.31333" lon="-1.14821">
        <ele>6.64033</ele>
        <time>2022-08-02T08:59:32.000Z</time>
      </trkpt>
      <trkpt lat="49.31327" lon="-1.14817">
        <ele>6.567153</ele>
        <time>2022-08-02T08:59:33.000Z</time>
      </trkpt>
      <trkpt lat="49.3132" lon="-1.14814">
        <ele>6.49936</ele>
        <time>2022-08-02T08:59:34.000Z</time>
      </trkpt>
      <trkpt lat="49.31313" lon="-1.14811">
        <ele>6.424534</ele>
        <time>2022-08-02T08:59:35.000Z</time>
      </trkpt>
      <trkpt lat="49.31306" lon="-1.14809">
        <ele>6.352054</ele>
        <time>2022-08-02T08:59:36.000Z</time>
      </trkpt>
      <trkpt lat="49.313" lon="-1.14808">
        <ele>6.286838</ele>
        <time>2022-08-02T08:59:37.000Z</time>
      </trkpt>
      <trkpt lat="49.31293" lon="-1.14806">
        <ele>6.218854</ele>
        <time>2022-08-02T08:59:38.000Z</time>
      </trkpt>
      <trkpt lat="49.31286" lon="-1.14804">
        <ele>6.150558</ele>
        <time>2022-08-02T08:59:39.000Z</time>
      </trkpt>
      <trkpt lat="49.3128" lon="-1.14802">
        <ele>6.087927</ele>
        <time>2022-08-02T08:59:40.000Z</time>
      </trkpt>
      <trkpt lat="49.31275" lon="-1.148">
        <ele>6.031478</ele>
        <time>2022-08-02T08:59:41.000Z</time>
      </trkpt>
      <trkpt lat="49.31269" lon="-1.14797">
        <ele>5.970807</ele>
        <time>2022-08-02T08:59:42.000Z</time>
      </trkpt>
      <trkpt lat="49.31263" lon="-1.14795">
        <ele>5.911119</ele>
        <time>2022-08-02T08:59:43.000Z</time>
      </trkpt>
      <trkpt lat="49.31257" lon="-1.14793">
        <ele>5.851771</ele>
        <time>2022-08-02T08:59:44.000Z</time>
      </trkpt>
      <trkpt lat="49.31252" lon="-1.1479">
        <ele>5.798013</ele>
        <time>2022-08-02T08:59:45.000Z</time>
      </trkpt>
      <trkpt lat="49.31247" lon="-1.14788">
        <ele>5.743297</ele>
        <time>2022-08-02T08:59:46.000Z</time>
      </trkpt>
      <trkpt lat="49.31241" lon="-1.14785">
        <ele>5.683203</ele>
        <time>2022-08-02T08:59:47.000Z</time>
      </trkpt>
      <trkpt lat="49.31236" lon="-1.14782">
        <ele>5.622152</ele>
        <time>2022-08-02T08:59:48.000Z</time>
      </trkpt>
      <trkpt lat="49.3123" lon="-1.14779">
        <ele>5.564486</ele>
        <time>2022-08-02T08:59:49.000Z</time>
      </trkpt>
      <trkpt lat="49.31224" lon="-1.14776">
        <ele>5.503235</ele>
        <time>2022-08-02T08:59:50.000Z</time>
      </trkpt>
      <trkpt lat="49.31219" lon="-1.14773">
        <ele>5.442513</ele>
        <time>2022-08-02T08:59:51.000Z</time>
      </trkpt>
      <trkpt lat="49.31213" lon="-1.1477">
        <ele>5.383903</ele>
        <time>2022-08-02T08:59:52.000Z</time>
      </trkpt>
      <trkpt lat="49.31208" lon="-1.14767">
        <ele>5.325778</ele>
        <time>2022-08-02T08:59:53.000Z</time>
      </trkpt>
      <trkpt lat="49.31202" lon="-1.14764">
        <ele>5.264321</ele>
        <time>2022-08-02T08:59:54.000Z</time>
      </trkpt>
      <trkpt lat="49.31197" lon="-1.14761">
        <ele>5.205958</ele>
        <time>2022-08-02T08:59:55.000Z</time>
      </trkpt>
      <trkpt lat="49.31192" lon="-1.14757">
        <ele>5.152873</ele>
        <time>2022-08-02T08:59:56.000Z</time>
      </trkpt>
      <trkpt lat="49.31187" lon="-1.14754">
        <ele>5.09803</ele>
        <time>2022-08-02T08:59:57.000Z</time>
      </trkpt>
      <trkpt lat="49.31182" lon="-1.14752">
        <ele>5.046468</ele>
        <time>2022-08-02T08:59:58.000Z</time>
      </trkpt>
      <trkpt lat="49.31177" lon="-1.14749">
        <ele>4.998413</ele>
        <time>2022-08-02T08:59:59.000Z</time>
      </trkpt>
      <trkpt lat="49.31173" lon="-1.14747">
        <ele>4.960694</ele>
        <time>2022-08-02T09:00:00.000Z</time>
      </trkpt>
      <trkpt lat="49.31168" lon="-1.14744">
        <ele>5.098456</ele>
        <time>2022-08-02T09:00:01.000Z</time>
      </trkpt>
      <trkpt lat="49.31164" lon="-1.14741">
        <ele>5.232679</ele>
        <time>2022-08-02T09:00:02.000Z</time>
      </trkpt>
      <trkpt lat="49.3116" lon="-1.14739">
        <ele>5.358371</ele>
        <time>2022-08-02T09:00:03.000Z</time>
      </trkpt>
      <trkpt lat="49.31157" lon="-1.14737">
        <ele>5.480554</ele>
        <time>2022-08-02T09:00:04.000Z</time>
      </trkpt>
      <trkpt lat="49.31153" lon="-1.14734">
        <ele>5.594339</ele>
        <time>2022-08-02T09:00:05.000Z</time>
      </trkpt>
      <trkpt lat="49.3115" lon="-1.14732">
        <ele>5.689989</ele>
        <time>2022-08-02T09:00:06.000Z</time>
      </trkpt>
      <trkpt lat="49.31147" lon="-1.1473">
        <ele>5.794692</ele>
        <time>2022-08-02T09:00:07.000Z</time>
      </trkpt>
      <trkpt lat="49.31144" lon="-1.14728">
        <ele>5.901845</ele>
        <time>2022-08-02T09:00:08.000Z</time>
      </trkpt>
      <trkpt lat="49.31141" lon="-1.14725">
        <ele>6.010779</ele>
        <time>2022-08-02T09:00:09.000Z</time>
      </trkpt>
      <trkpt lat="49.31137" lon="-1.14723">
        <ele>6.128632</ele>
        <time>2022-08-02T09:00:10.000Z</time>
      </trkpt>
      <trkpt lat="49.31134" lon="-1.1472">
        <ele>6.238497</ele>
        <time>2022-08-02T09:00:11.000Z</time>
      </trkpt>
      <trkpt lat="49.3113" lon="-1.14718">
        <ele>6.354359</ele>
        <time>2022-08-02T09:00:12.000Z</time>
      </trkpt>
      <trkpt lat="49.31127" lon="-1.14715">
        <ele>6.469689</ele>
        <time>2022-08-02T09:00:13.000Z</time>
      </trkpt>
      <trkpt lat="49.31123" lon="-1.14713">
        <ele>6.586674</ele>
        <time>2022-08-02T09:00:14.000Z</time>
      </trkpt>
      <trkpt lat="49.3112" lon="-1.1471">
        <ele>6.686745</ele>
        <time>2022-08-02T09:00:15.000Z</time>
      </trkpt>
      <trkpt lat="49.31117" lon="-1.14708">
        <ele>6.802889</ele>
        <time>2022-08-02T09:00:16.000Z</time>
      </trkpt>
      <trkpt lat="49.31113" lon="-1.14705">
        <ele>6.919032</ele>
        <time>2022-08-02T09:00:17.000Z</time>
      </trkpt>
      <trkpt lat="49.3111" lon="-1.14703">
        <ele>7.027062</ele>
        <time>2022-08-02T09:00:18.000Z</time>
      </trkpt>
      <trkpt lat="49.31106" lon="-1.147">
        <ele>7.153472</ele>
        <time>2022-08-02T09:00:19.000Z</time>
      </trkpt>
      <trkpt lat="49.31103" lon="-1.14698">
        <ele>7.269615</ele>
        <time>2022-08-02T09:00:20.000Z</time>
      </trkpt>
      <trkpt lat="49.31099" lon="-1.14695">
        <ele>7.393998</ele>
        <time>2022-08-02T09:00:21.000Z</time>
      </trkpt>
      <trkpt lat="49.31095" lon="-1.14693">
        <ele>7.507054</ele>
        <time>2022-08-02T09:00:22.000Z</time>
      </trkpt>
      <trkpt lat="49.31092" lon="-1.14691">
        <ele>7.611001</ele>
        <time>2022-08-02T09:00:23.000Z</time>
      </trkpt>
      <trkpt lat="49.31089" lon="-1.14689">
        <ele>7.725528</ele>
        <time>2022-08-02T09:00:24.000Z</time>
      </trkpt>
      <trkpt lat="49.31085" lon="-1.14687">
        <ele>7.837884</ele>
        <time>2022-08-02T09:00:25.000Z</time>
      </trkpt>
      <trkpt lat="49.31082" lon="-1.14685">
        <ele>7.942587</ele>
        <time>2022-08-02T09:00:26.000Z</time>
      </trkpt>
      <trkpt lat="49.31078" lon="-1.14683">
        <ele>8.06477</ele>
        <time>2022-08-02T09:00:27.000Z</time>
      </trkpt>
      <trkpt lat="49.31074" lon="-1.14681">
        <ele>8.189773</ele>
        <time>2022-08-02T09:00:28.000Z</time>
      </trkpt>
      <trkpt lat="49.3107" lon="-1.14679">
        <ele>8.309411</ele>
        <time>2022-08-02T09:00:29.000Z</time>
      </trkpt>
      <trkpt lat="49.31067" lon="-1.14677">
        <ele>8.42905</ele>
        <time>2022-08-02T09:00:30.000Z</time>
      </trkpt>
      <trkpt lat="49.31062" lon="-1.14675">
        <ele>8.563877</ele>
        <time>2022-08-02T09:00:31.000Z</time>
      </trkpt>
      <trkpt lat="49.31059" lon="-1.14673">
        <ele>8.685382</ele>
        <time>2022-08-02T09:00:32.000Z</time>
      </trkpt>
      <trkpt lat="49.31055" lon="-1.1467">
        <ele>8.811792</ele>
        <time>2022-08-02T09:00:33.000Z</time>
      </trkpt>
      <trkpt lat="49.31051" lon="-1.14668">
        <ele>8.926335</ele>
        <time>2022-08-02T09:00:34.000Z</time>
      </trkpt>
      <trkpt lat="49.31048" lon="-1.14665">
        <ele>9.045082</ele>
        <time>2022-08-02T09:00:35.000Z</time>
      </trkpt>
      <trkpt lat="49.31045" lon="-1.14662">
        <ele>9.159996</ele>
        <time>2022-08-02T09:00:36.000Z</time>
      </trkpt>
      <trkpt lat="49.31041" lon="-1.14659">
        <ele>9.282569</ele>
        <time>2022-08-02T09:00:37.000Z</time>
      </trkpt>
      <trkpt lat="49.31037" lon="-1.14656">
        <ele>9.412105</ele>
        <time>2022-08-02T09:00:38.000Z</time>
      </trkpt>
      <trkpt lat="49.31033" lon="-1.14653">
        <ele>9.538923</ele>
        <time>2022-08-02T09:00:39.000Z</time>
      </trkpt>
      <trkpt lat="49.31029" lon="-1.1465">
        <ele>9.669302</ele>
        <time>2022-08-02T09:00:40.000Z</time>
      </trkpt>
      <trkpt lat="49.31026" lon="-1.14648">
        <ele>9.79612</ele>
        <time>2022-08-02T09:00:41.000Z</time>
      </trkpt>
      <trkpt lat="49.31022" lon="-1.14645">
        <ele>9.90894</ele>
        <time>2022-08-02T09:00:42.000Z</time>
      </trkpt>
      <trkpt lat="49.31019" lon="-1.14642">
        <ele>10.034921</ele>
        <time>2022-08-02T09:00:43.000Z</time>
      </trkpt>
      <trkpt lat="49.31015" lon="-1.14639">
        <ele>10.166168</ele>
        <time>2022-08-02T09:00:44.000Z</time>
      </trkpt>
      <trkpt lat="49.31011" lon="-1.14636">
        <ele>10.291337</ele>
        <time>2022-08-02T09:00:45.000Z</time>
      </trkpt>
      <trkpt lat="49.31007" lon="-1.14634">
        <ele>10.338317</ele>
        <time>2022-08-02T09:00:46.000Z</time>
      </trkpt>
      <trkpt lat="49.31003" lon="-1.14631">
        <ele>10.288121</ele>
        <time>2022-08-02T09:00:47.000Z</time>
      </trkpt>
      <trkpt lat="49.30999" lon="-1.14628">
        <ele>10.238256</ele>
        <time>2022-08-02T09:00:48.000Z</time>
      </trkpt>
      <trkpt lat="49.30996" lon="-1.14626">
        <ele>10.191203</ele>
        <time>2022-08-02T09:00:49.000Z</time>
      </trkpt>
      <trkpt lat="49.30992" lon="-1.14623">
        <ele>10.138076</ele>
        <time>2022-08-02T09:00:50.000Z</time>
      </trkpt>
      <trkpt lat="49.30988" lon="-1.1462">
        <ele>10.092104</ele>
        <time>2022-08-02T09:00:51.000Z</time>
      </trkpt>
      <trkpt lat="49.30985" lon="-1.14618">
        <ele>10.044726</ele>
        <time>2022-08-02T09:00:52.000Z</time>
      </trkpt>
      <trkpt lat="49.30981" lon="-1.14615">
        <ele>9.995493</ele>
        <time>2022-08-02T09:00:53.000Z</time>
      </trkpt>
      <trkpt lat="49.30977" lon="-1.14613">
        <ele>9.946261</ele>
        <time>2022-08-02T09:00:54.000Z</time>
      </trkpt>
      <trkpt lat="49.30973" lon="-1.14611">
        <ele>9.896783</ele>
        <time>2022-08-02T09:00:55.000Z</time>
      </trkpt>
      <trkpt lat="49.3097" lon="-1.14609">
        <ele>9.852829</ele>
        <time>2022-08-02T09:00:56.000Z</time>
      </trkpt>
      <trkpt lat="49.30966" lon="-1.14607">
        <ele>9.809116</ele>
        <time>2022-08-02T09:00:57.000Z</time>
      </trkpt>
      <trkpt lat="49.30963" lon="-1.14605">
        <ele>9.77215</ele>
        <time>2022-08-02T09:00:58.000Z</time>
      </trkpt>
      <trkpt lat="49.3096" lon="-1.14604">
        <ele>9.731567</ele>
        <time>2022-08-02T09:00:59.000Z</time>
      </trkpt>
      <trkpt lat="49.30957" lon="-1.14602">
        <ele>9.693707</ele>
        <time>2022-08-02T09:01:00.000Z</time>
      </trkpt>
      <trkpt lat="49.30954" lon="-1.14599">
        <ele>9.651629</ele>
        <time>2022-08-02T09:01:01.000Z</time>
      </trkpt>
      <trkpt lat="49.30951" lon="-1.14598">
        <ele>9.614663</ele>
        <time>2022-08-02T09:01:02.000Z</time>
      </trkpt>
      <trkpt lat="49.30947" lon="-1.14596">
        <ele>9.568306</ele>
        <time>2022-08-02T09:01:03.000Z</time>
      </trkpt>
      <trkpt lat="49.30943" lon="-1.14596">
        <ele>9.518147</ele>
        <time>2022-08-02T09:01:04.000Z</time>
      </trkpt>
      <trkpt lat="49.30938" lon="-1.14595">
        <ele>9.460862</ele>
        <time>2022-08-02T09:01:05.000Z</time>
      </trkpt>
      <trkpt lat="49.30934" lon="-1.14595">
        <ele>9.411946</ele>
        <time>2022-08-02T09:01:06.000Z</time>
      </trkpt>
      <trkpt lat="49.30931" lon="-1.14595">
        <ele>9.370264</ele>
        <time>2022-08-02T09:01:07.000Z</time>
      </trkpt>
      <trkpt lat="49.30928" lon="-1.14595">
        <ele>9.335422</ele>
        <time>2022-08-02T09:01:08.000Z</time>
      </trkpt>
      <trkpt lat="49.30925" lon="-1.14595">
        <ele>9.307937</ele>
        <time>2022-08-02T09:01:09.000Z</time>
      </trkpt>
      <trkpt lat="49.30924" lon="-1.14592">
        <ele>9.274338</ele>
        <time>2022-08-02T09:01:11.000Z</time>
      </trkpt>
      <trkpt lat="49.30923" lon="-1.14587">
        <ele>9.239223</ele>
        <time>2022-08-02T09:01:13.000Z</time>
      </trkpt>
      <trkpt lat="49.30923" lon="-1.14583">
        <ele>9.203513</ele>
        <time>2022-08-02T09:01:15.000Z</time>
      </trkpt>
      <trkpt lat="49.30922" lon="-1.14573">
        <ele>9.125116</ele>
        <time>2022-08-02T09:01:45.000Z</time>
      </trkpt>
      <trkpt lat="49.30922" lon="-1.14568">
        <ele>9.087683</ele>
        <time>2022-08-02T09:01:46.000Z</time>
      </trkpt>
      <trkpt lat="49.30921" lon="-1.14563">
        <ele>9.047158</ele>
        <time>2022-08-02T09:01:47.000Z</time>
      </trkpt>
      <trkpt lat="49.3092" lon="-1.14557">
        <ele>8.99833</ele>
        <time>2022-08-02T09:01:48.000Z</time>
      </trkpt>
      <trkpt lat="49.3092" lon="-1.14551">
        <ele>8.949672</ele>
        <time>2022-08-02T09:01:49.000Z</time>
      </trkpt>
      <trkpt lat="49.30919" lon="-1.14545">
        <ele>8.903882</ele>
        <time>2022-08-02T09:01:50.000Z</time>
      </trkpt>
      <trkpt lat="49.30918" lon="-1.1454">
        <ele>8.862887</ele>
        <time>2022-08-02T09:01:51.000Z</time>
      </trkpt>
      <trkpt lat="49.30918" lon="-1.14535">
        <ele>8.824946</ele>
        <time>2022-08-02T09:01:52.000Z</time>
      </trkpt>
      <trkpt lat="49.30918" lon="-1.1453">
        <ele>8.790013</ele>
        <time>2022-08-02T09:01:53.000Z</time>
      </trkpt>
      <trkpt lat="49.30918" lon="-1.14526">
        <ele>8.75508</ele>
        <time>2022-08-02T09:01:54.000Z</time>
      </trkpt>
      <trkpt lat="49.30917" lon="-1.14521">
        <ele>8.718284</ele>
        <time>2022-08-02T09:01:55.000Z</time>
      </trkpt>
      <trkpt lat="49.30917" lon="-1.14516">
        <ele>8.679512</ele>
        <time>2022-08-02T09:01:56.000Z</time>
      </trkpt>
      <trkpt lat="49.30916" lon="-1.14511">
        <ele>8.638986</ele>
        <time>2022-08-02T09:01:57.000Z</time>
      </trkpt>
      <trkpt lat="49.30916" lon="-1.14507">
        <ele>8.606036</ele>
        <time>2022-08-02T09:01:58.000Z</time>
      </trkpt>
      <trkpt lat="49.30915" lon="-1.145">
        <ele>8.554304</ele>
        <time>2022-08-02T09:01:59.000Z</time>
      </trkpt>
      <trkpt lat="49.30914" lon="-1.14494">
        <ele>8.506229</ele>
        <time>2022-08-02T09:02:00.000Z</time>
      </trkpt>
      <trkpt lat="49.30914" lon="-1.14488">
        <ele>8.455643</ele>
        <time>2022-08-02T09:02:01.000Z</time>
      </trkpt>
      <trkpt lat="49.30914" lon="-1.14482">
        <ele>8.41125</ele>
        <time>2022-08-02T09:02:02.000Z</time>
      </trkpt>
      <trkpt lat="49.30912" lon="-1.14473">
        <ele>8.341961</ele>
        <time>2022-08-02T09:02:03.000Z</time>
      </trkpt>
      <trkpt lat="49.30912" lon="-1.14466">
        <ele>8.282532</ele>
        <time>2022-08-02T09:02:04.000Z</time>
      </trkpt>
      <trkpt lat="49.3091" lon="-1.14458">
        <ele>8.218093</ele>
        <time>2022-08-02T09:02:05.000Z</time>
      </trkpt>
      <trkpt lat="49.3091" lon="-1.1445">
        <ele>8.133857</ele>
        <time>2022-08-02T09:02:06.000Z</time>
      </trkpt>
      <trkpt lat="49.30909" lon="-1.14442">
        <ele>8.05107</ele>
        <time>2022-08-02T09:02:07.000Z</time>
      </trkpt>
      <trkpt lat="49.30908" lon="-1.14433">
        <ele>7.963874</ele>
        <time>2022-08-02T09:02:08.000Z</time>
      </trkpt>
      <trkpt lat="49.30908" lon="-1.14425">
        <ele>7.877019</ele>
        <time>2022-08-02T09:02:09.000Z</time>
      </trkpt>
      <trkpt lat="49.30907" lon="-1.14417">
        <ele>7.790721</ele>
        <time>2022-08-02T09:02:10.000Z</time>
      </trkpt>
      <trkpt lat="49.30906" lon="-1.14408">
        <ele>7.699795</ele>
        <time>2022-08-02T09:02:11.000Z</time>
      </trkpt>
      <trkpt lat="49.30905" lon="-1.14399">
        <ele>7.608026</ele>
        <time>2022-08-02T09:02:12.000Z</time>
      </trkpt>
      <trkpt lat="49.30904" lon="-1.1439">
        <ele>7.513376</ele>
        <time>2022-08-02T09:02:13.000Z</time>
      </trkpt>
      <trkpt lat="49.30903" lon="-1.1438">
        <ele>7.414916</ele>
        <time>2022-08-02T09:02:14.000Z</time>
      </trkpt>
      <trkpt lat="49.30902" lon="-1.14371">
        <ele>7.314192</ele>
        <time>2022-08-02T09:02:15.000Z</time>
      </trkpt>
      <trkpt lat="49.30901" lon="-1.14361">
        <ele>7.212455</ele>
        <time>2022-08-02T09:02:16.000Z</time>
      </trkpt>
      <trkpt lat="49.309" lon="-1.14351">
        <ele>7.10615</ele>
        <time>2022-08-02T09:02:17.000Z</time>
      </trkpt>
      <trkpt lat="49.30899" lon="-1.14341">
        <ele>7.005426</ele>
        <time>2022-08-02T09:02:18.000Z</time>
      </trkpt>
      <trkpt lat="49.30898" lon="-1.14331">
        <ele>6.905715</ele>
        <time>2022-08-02T09:02:19.000Z</time>
      </trkpt>
      <trkpt lat="49.30898" lon="-1.14321">
        <ele>6.803739</ele>
        <time>2022-08-02T09:02:20.000Z</time>
      </trkpt>
      <trkpt lat="49.30897" lon="-1.14312">
        <ele>6.702002</ele>
        <time>2022-08-02T09:02:21.000Z</time>
      </trkpt>
      <trkpt lat="49.30896" lon="-1.14302">
        <ele>6.601046</ele>
        <time>2022-08-02T09:02:22.000Z</time>
      </trkpt>
      <trkpt lat="49.30896" lon="-1.14291">
        <ele>6.494274</ele>
        <time>2022-08-02T09:02:23.000Z</time>
      </trkpt>
      <trkpt lat="49.30895" lon="-1.14281">
        <ele>6.387468</ele>
        <time>2022-08-02T09:02:24.000Z</time>
      </trkpt>
      <trkpt lat="49.30894" lon="-1.14271">
        <ele>6.28447</ele>
        <time>2022-08-02T09:02:25.000Z</time>
      </trkpt>
      <trkpt lat="49.30893" lon="-1.14262">
        <ele>6.186917</ele>
        <time>2022-08-02T09:02:26.000Z</time>
      </trkpt>
      <trkpt lat="49.30892" lon="-1.14252">
        <ele>6.089231</ele>
        <time>2022-08-02T09:02:27.000Z</time>
      </trkpt>
      <trkpt lat="49.30891" lon="-1.14243">
        <ele>5.992801</ele>
        <time>2022-08-02T09:02:28.000Z</time>
      </trkpt>
      <trkpt lat="49.30891" lon="-1.14234">
        <ele>5.900372</ele>
        <time>2022-08-02T09:02:29.000Z</time>
      </trkpt>
      <trkpt lat="49.3089" lon="-1.14225">
        <ele>5.810463</ele>
        <time>2022-08-02T09:02:30.000Z</time>
      </trkpt>
      <trkpt lat="49.3089" lon="-1.14217">
        <ele>5.723156</ele>
        <time>2022-08-02T09:02:31.000Z</time>
      </trkpt>
      <trkpt lat="49.30888" lon="-1.14209">
        <ele>5.637598</ele>
        <time>2022-08-02T09:02:32.000Z</time>
      </trkpt>
      <trkpt lat="49.30888" lon="-1.14201">
        <ele>5.555005</ele>
        <time>2022-08-02T09:02:33.000Z</time>
      </trkpt>
      <trkpt lat="49.30887" lon="-1.14193">
        <ele>5.471459</ele>
        <time>2022-08-02T09:02:34.000Z</time>
      </trkpt>
      <trkpt lat="49.30886" lon="-1.14185">
        <ele>5.390645</ele>
        <time>2022-08-02T09:02:35.000Z</time>
      </trkpt>
      <trkpt lat="49.30885" lon="-1.14177">
        <ele>5.399938</ele>
        <time>2022-08-02T09:02:36.000Z</time>
      </trkpt>
      <trkpt lat="49.30885" lon="-1.14169">
        <ele>5.409266</ele>
        <time>2022-08-02T09:02:37.000Z</time>
      </trkpt>
      <trkpt lat="49.30884" lon="-1.14162">
        <ele>5.418117</ele>
        <time>2022-08-02T09:02:38.000Z</time>
      </trkpt>
      <trkpt lat="49.30884" lon="-1.14155">
        <ele>5.426636</ele>
        <time>2022-08-02T09:02:39.000Z</time>
      </trkpt>
      <trkpt lat="49.30882" lon="-1.14148">
        <ele>5.435392</ele>
        <time>2022-08-02T09:02:40.000Z</time>
      </trkpt>
      <trkpt lat="49.30882" lon="-1.14141">
        <ele>5.443885</ele>
        <time>2022-08-02T09:02:41.000Z</time>
      </trkpt>
      <trkpt lat="49.30881" lon="-1.14134">
        <ele>5.452617</ele>
        <time>2022-08-02T09:02:42.000Z</time>
      </trkpt>
      <trkpt lat="49.3088" lon="-1.14127">
        <ele>5.461255</ele>
        <time>2022-08-02T09:02:43.000Z</time>
      </trkpt>
      <trkpt lat="49.30879" lon="-1.1412">
        <ele>5.469838</ele>
        <time>2022-08-02T09:02:44.000Z</time>
      </trkpt>
      <trkpt lat="49.30879" lon="-1.14113">
        <ele>5.478</ele>
        <time>2022-08-02T09:02:45.000Z</time>
      </trkpt>
      <trkpt lat="49.30878" lon="-1.14107">
        <ele>5.485898</ele>
        <time>2022-08-02T09:02:46.000Z</time>
      </trkpt>
      <trkpt lat="49.30878" lon="-1.14101">
        <ele>5.492514</ele>
        <time>2022-08-02T09:02:47.000Z</time>
      </trkpt>
      <trkpt lat="49.30878" lon="-1.14096">
        <ele>5.49913</ele>
        <time>2022-08-02T09:02:48.000Z</time>
      </trkpt>
      <trkpt lat="49.30878" lon="-1.14091">
        <ele>5.504931</ele>
        <time>2022-08-02T09:02:49.000Z</time>
      </trkpt>
      <trkpt lat="49.30877" lon="-1.14086">
        <ele>5.510871</ele>
        <time>2022-08-02T09:02:50.000Z</time>
      </trkpt>
      <trkpt lat="49.30876" lon="-1.14081">
        <ele>5.517055</ele>
        <time>2022-08-02T09:02:51.000Z</time>
      </trkpt>
      <trkpt lat="49.30876" lon="-1.14076">
        <ele>5.522757</ele>
        <time>2022-08-02T09:02:52.000Z</time>
      </trkpt>
      <trkpt lat="49.30875" lon="-1.14072">
        <ele>5.528534</ele>
        <time>2022-08-02T09:02:53.000Z</time>
      </trkpt>
      <trkpt lat="49.30875" lon="-1.14067">
        <ele>5.533976</ele>
        <time>2022-08-02T09:02:54.000Z</time>
      </trkpt>
      <trkpt lat="49.30874" lon="-1.14063">
        <ele>5.539424</ele>
        <time>2022-08-02T09:02:55.000Z</time>
      </trkpt>
      <trkpt lat="49.30874" lon="-1.14058">
        <ele>5.544985</ele>
        <time>2022-08-02T09:02:56.000Z</time>
      </trkpt>
      <trkpt lat="49.30873" lon="-1.14053">
        <ele>5.551162</ele>
        <time>2022-08-02T09:02:57.000Z</time>
      </trkpt>
      <trkpt lat="49.30872" lon="-1.14049">
        <ele>5.556723</ele>
        <time>2022-08-02T09:02:58.000Z</time>
      </trkpt>
      <trkpt lat="49.30872" lon="-1.14044">
        <ele>5.562721</ele>
        <time>2022-08-02T09:02:59.000Z</time>
      </trkpt>
      <trkpt lat="49.30871" lon="-1.14039">
        <ele>5.568521</ele>
        <time>2022-08-02T09:03:00.000Z</time>
      </trkpt>
      <trkpt lat="49.30871" lon="-1.14035">
        <ele>5.574087</ele>
        <time>2022-08-02T09:03:01.000Z</time>
      </trkpt>
      <trkpt lat="49.3087" lon="-1.1403">
        <ele>5.579887</ele>
        <time>2022-08-02T09:03:02.000Z</time>
      </trkpt>
      <trkpt lat="49.3087" lon="-1.14025">
        <ele>5.585808</ele>
        <time>2022-08-02T09:03:03.000Z</time>
      </trkpt>
      <trkpt lat="49.3087" lon="-1.1402">
        <ele>5.591249</ele>
        <time>2022-08-02T09:03:04.000Z</time>
      </trkpt>
      <trkpt lat="49.30869" lon="-1.14016">
        <ele>5.596236</ele>
        <time>2022-08-02T09:03:05.000Z</time>
      </trkpt>
      <trkpt lat="49.30869" lon="-1.14013">
        <ele>5.60059</ele>
        <time>2022-08-02T09:03:06.000Z</time>
      </trkpt>
      <trkpt lat="49.30869" lon="-1.1401">
        <ele>5.604122</ele>
        <time>2022-08-02T09:03:07.000Z</time>
      </trkpt>
      <trkpt lat="49.30867" lon="-1.13999">
        <ele>5.617797</ele>
        <time>2022-08-02T09:03:26.000Z</time>
      </trkpt>
      <trkpt lat="49.30867" lon="-1.13994">
        <ele>5.624077</ele>
        <time>2022-08-02T09:03:27.000Z</time>
      </trkpt>
      <trkpt lat="49.30866" lon="-1.13987">
        <ele>5.631646</ele>
        <time>2022-08-02T09:03:28.000Z</time>
      </trkpt>
      <trkpt lat="49.30866" lon="-1.13981">
        <ele>5.639845</ele>
        <time>2022-08-02T09:03:29.000Z</time>
      </trkpt>
      <trkpt lat="49.30865" lon="-1.13973">
        <ele>5.648701</ele>
        <time>2022-08-02T09:03:30.000Z</time>
      </trkpt>
      <trkpt lat="49.30864" lon="-1.13966">
        <ele>5.65774</ele>
        <time>2022-08-02T09:03:31.000Z</time>
      </trkpt>
      <trkpt lat="49.30864" lon="-1.13958">
        <ele>5.666949</ele>
        <time>2022-08-02T09:03:32.000Z</time>
      </trkpt>
      <trkpt lat="49.30863" lon="-1.1395">
        <ele>5.676897</ele>
        <time>2022-08-02T09:03:33.000Z</time>
      </trkpt>
      <trkpt lat="49.30863" lon="-1.13942">
        <ele>5.686777</ele>
        <time>2022-08-02T09:03:34.000Z</time>
      </trkpt>
      <trkpt lat="49.30862" lon="-1.13934">
        <ele>5.696823</ele>
        <time>2022-08-02T09:03:35.000Z</time>
      </trkpt>
      <trkpt lat="49.30861" lon="-1.13925">
        <ele>5.707368</ele>
        <time>2022-08-02T09:03:36.000Z</time>
      </trkpt>
      <trkpt lat="49.30861" lon="-1.13916">
        <ele>5.71844</ele>
        <time>2022-08-02T09:03:37.000Z</time>
      </trkpt>
      <trkpt lat="49.3086" lon="-1.13907">
        <ele>5.70284</ele>
        <time>2022-08-02T09:03:38.000Z</time>
      </trkpt>
      <trkpt lat="49.30859" lon="-1.13897">
        <ele>5.67191</ele>
        <time>2022-08-02T09:03:39.000Z</time>
      </trkpt>
      <trkpt lat="49.30858" lon="-1.13888">
        <ele>5.641433</ele>
        <time>2022-08-02T09:03:40.000Z</time>
      </trkpt>
      <trkpt lat="49.30857" lon="-1.13879">
        <ele>5.610826</ele>
        <time>2022-08-02T09:03:41.000Z</time>
      </trkpt>
      <trkpt lat="49.30856" lon="-1.13869">
        <ele>5.579498</ele>
        <time>2022-08-02T09:03:42.000Z</time>
      </trkpt>
      <trkpt lat="49.30855" lon="-1.1386">
        <ele>5.548171</ele>
        <time>2022-08-02T09:03:43.000Z</time>
      </trkpt>
      <trkpt lat="49.30854" lon="-1.1385">
        <ele>5.516919</ele>
        <time>2022-08-02T09:03:44.000Z</time>
      </trkpt>
      <trkpt lat="49.30853" lon="-1.13841">
        <ele>5.485591</ele>
        <time>2022-08-02T09:03:45.000Z</time>
      </trkpt>
      <trkpt lat="49.30853" lon="-1.13831">
        <ele>5.454844</ele>
        <time>2022-08-02T09:03:46.000Z</time>
      </trkpt>
      <trkpt lat="49.30852" lon="-1.13822">
        <ele>5.424159</ele>
        <time>2022-08-02T09:03:47.000Z</time>
      </trkpt>
      <trkpt lat="49.30851" lon="-1.13813">
        <ele>5.393551</ele>
        <time>2022-08-02T09:03:48.000Z</time>
      </trkpt>
      <trkpt lat="49.3085" lon="-1.13803">
        <ele>5.362427</ele>
        <time>2022-08-02T09:03:49.000Z</time>
      </trkpt>
      <trkpt lat="49.30849" lon="-1.13794">
        <ele>5.331175</ele>
        <time>2022-08-02T09:03:50.000Z</time>
      </trkpt>
      <trkpt lat="49.30848" lon="-1.13784">
        <ele>5.300375</ele>
        <time>2022-08-02T09:03:51.000Z</time>
      </trkpt>
      <trkpt lat="49.30847" lon="-1.13775">
        <ele>5.269411</ele>
        <time>2022-08-02T09:03:52.000Z</time>
      </trkpt>
      <trkpt lat="49.30846" lon="-1.13766">
        <ele>5.239311</ele>
        <time>2022-08-02T09:03:53.000Z</time>
      </trkpt>
      <trkpt lat="49.30846" lon="-1.13757">
        <ele>5.209535</ele>
        <time>2022-08-02T09:03:54.000Z</time>
      </trkpt>
      <trkpt lat="49.30845" lon="-1.13747">
        <ele>5.178253</ele>
        <time>2022-08-02T09:03:55.000Z</time>
      </trkpt>
      <trkpt lat="49.30844" lon="-1.13738">
        <ele>5.148422</ele>
        <time>2022-08-02T09:03:56.000Z</time>
      </trkpt>
      <trkpt lat="49.30843" lon="-1.13729">
        <ele>5.11878</ele>
        <time>2022-08-02T09:03:57.000Z</time>
      </trkpt>
      <trkpt lat="49.30842" lon="-1.1372">
        <ele>5.087774</ele>
        <time>2022-08-02T09:03:58.000Z</time>
      </trkpt>
      <trkpt lat="49.30841" lon="-1.13711">
        <ele>5.057764</ele>
        <time>2022-08-02T09:03:59.000Z</time>
      </trkpt>
      <trkpt lat="49.3084" lon="-1.13702">
        <ele>5.028312</ele>
        <time>2022-08-02T09:04:00.000Z</time>
      </trkpt>
      <trkpt lat="49.30839" lon="-1.13693">
        <ele>4.997985</ele>
        <time>2022-08-02T09:04:01.000Z</time>
      </trkpt>
      <trkpt lat="49.30838" lon="-1.13684">
        <ele>4.968856</ele>
        <time>2022-08-02T09:04:02.000Z</time>
      </trkpt>
      <trkpt lat="49.30837" lon="-1.13675">
        <ele>4.940417</ele>
        <time>2022-08-02T09:04:03.000Z</time>
      </trkpt>
      <trkpt lat="49.30837" lon="-1.13666">
        <ele>4.911289</ele>
        <time>2022-08-02T09:04:04.000Z</time>
      </trkpt>
      <trkpt lat="49.30836" lon="-1.13657">
        <ele>4.881782</ele>
        <time>2022-08-02T09:04:05.000Z</time>
      </trkpt>
      <trkpt lat="49.30835" lon="-1.13649">
        <ele>4.852977</ele>
        <time>2022-08-02T09:04:06.000Z</time>
      </trkpt>
      <trkpt lat="49.30835" lon="-1.13639">
        <ele>4.824478</ele>
        <time>2022-08-02T09:04:07.000Z</time>
      </trkpt>
      <trkpt lat="49.30833" lon="-1.13631">
        <ele>4.831694</ele>
        <time>2022-08-02T09:04:08.000Z</time>
      </trkpt>
      <trkpt lat="49.30833" lon="-1.13622">
        <ele>4.839022</ele>
        <time>2022-08-02T09:04:09.000Z</time>
      </trkpt>
      <trkpt lat="49.30832" lon="-1.13613">
        <ele>4.846465</ele>
        <time>2022-08-02T09:04:10.000Z</time>
      </trkpt>
      <trkpt lat="49.3083" lon="-1.13604">
        <ele>4.854</ele>
        <time>2022-08-02T09:04:11.000Z</time>
      </trkpt>
      <trkpt lat="49.3083" lon="-1.13595">
        <ele>4.861477</ele>
        <time>2022-08-02T09:04:12.000Z</time>
      </trkpt>
      <trkpt lat="49.30829" lon="-1.13586">
        <ele>4.868859</ele>
        <time>2022-08-02T09:04:13.000Z</time>
      </trkpt>
      <trkpt lat="49.30828" lon="-1.13577">
        <ele>4.876402</ele>
        <time>2022-08-02T09:04:14.000Z</time>
      </trkpt>
      <trkpt lat="49.30827" lon="-1.13568">
        <ele>4.883911</ele>
        <time>2022-08-02T09:04:15.000Z</time>
      </trkpt>
      <trkpt lat="49.30826" lon="-1.13559">
        <ele>4.891204</ele>
        <time>2022-08-02T09:04:16.000Z</time>
      </trkpt>
      <trkpt lat="49.30825" lon="-1.1355">
        <ele>4.898553</ele>
        <time>2022-08-02T09:04:17.000Z</time>
      </trkpt>
      <trkpt lat="49.30824" lon="-1.13541">
        <ele>4.905962</ele>
        <time>2022-08-02T09:04:18.000Z</time>
      </trkpt>
      <trkpt lat="49.30823" lon="-1.13532">
        <ele>4.913337</ele>
        <time>2022-08-02T09:04:19.000Z</time>
      </trkpt>
      <trkpt lat="49.30822" lon="-1.13523">
        <ele>4.920699</ele>
        <time>2022-08-02T09:04:20.000Z</time>
      </trkpt>
      <trkpt lat="49.30821" lon="-1.13514">
        <ele>4.928162</ele>
        <time>2022-08-02T09:04:21.000Z</time>
      </trkpt>
      <trkpt lat="49.30821" lon="-1.13505">
        <ele>4.935529</ele>
        <time>2022-08-02T09:04:22.000Z</time>
      </trkpt>
      <trkpt lat="49.3082" lon="-1.13496">
        <ele>4.942991</ele>
        <time>2022-08-02T09:04:23.000Z</time>
      </trkpt>
      <trkpt lat="49.30819" lon="-1.13488">
        <ele>4.950273</ele>
        <time>2022-08-02T09:04:24.000Z</time>
      </trkpt>
      <trkpt lat="49.30818" lon="-1.13479">
        <ele>4.957682</ele>
        <time>2022-08-02T09:04:25.000Z</time>
      </trkpt>
      <trkpt lat="49.30817" lon="-1.1347">
        <ele>4.965124</ele>
        <time>2022-08-02T09:04:26.000Z</time>
      </trkpt>
      <trkpt lat="49.30817" lon="-1.13461">
        <ele>4.972371</ele>
        <time>2022-08-02T09:04:27.000Z</time>
      </trkpt>
      <trkpt lat="49.30817" lon="-1.13451">
        <ele>4.980055</ele>
        <time>2022-08-02T09:04:28.000Z</time>
      </trkpt>
      <trkpt lat="49.30817" lon="-1.13442">
        <ele>4.987412</ele>
        <time>2022-08-02T09:04:29.000Z</time>
      </trkpt>
      <trkpt lat="49.30817" lon="-1.13433">
        <ele>4.99485</ele>
        <time>2022-08-02T09:04:30.000Z</time>
      </trkpt>
      <trkpt lat="49.30817" lon="-1.13424">
        <ele>5.002387</ele>
        <time>2022-08-02T09:04:31.000Z</time>
      </trkpt>
      <trkpt lat="49.30817" lon="-1.13415">
        <ele>5.009917</ele>
        <time>2022-08-02T09:04:32.000Z</time>
      </trkpt>
      <trkpt lat="49.30818" lon="-1.13406">
        <ele>5.017312</ele>
        <time>2022-08-02T09:04:33.000Z</time>
      </trkpt>
      <trkpt lat="49.30819" lon="-1.13397">
        <ele>5.024721</ele>
        <time>2022-08-02T09:04:34.000Z</time>
      </trkpt>
      <trkpt lat="49.30819" lon="-1.13388">
        <ele>5.032197</ele>
        <time>2022-08-02T09:04:35.000Z</time>
      </trkpt>
      <trkpt lat="49.3082" lon="-1.13379">
        <ele>5.03966</ele>
        <time>2022-08-02T09:04:36.000Z</time>
      </trkpt>
      <trkpt lat="49.30821" lon="-1.1337">
        <ele>5.047103</ele>
        <time>2022-08-02T09:04:37.000Z</time>
      </trkpt>
      <trkpt lat="49.30822" lon="-1.13361">
        <ele>5.031068</ele>
        <time>2022-08-02T09:04:38.000Z</time>
      </trkpt>
      <trkpt lat="49.30823" lon="-1.13352">
        <ele>5.003207</ele>
        <time>2022-08-02T09:04:39.000Z</time>
      </trkpt>
      <trkpt lat="49.30825" lon="-1.13343">
        <ele>4.975173</ele>
        <time>2022-08-02T09:04:40.000Z</time>
      </trkpt>
      <trkpt lat="49.30826" lon="-1.13334">
        <ele>4.947041</ele>
        <time>2022-08-02T09:04:41.000Z</time>
      </trkpt>
      <trkpt lat="49.30827" lon="-1.13325">
        <ele>4.919207</ele>
        <time>2022-08-02T09:04:42.000Z</time>
      </trkpt>
      <trkpt lat="49.30829" lon="-1.13316">
        <ele>4.891671</ele>
        <time>2022-08-02T09:04:43.000Z</time>
      </trkpt>
      <trkpt lat="49.3083" lon="-1.13307">
        <ele>4.864135</ele>
        <time>2022-08-02T09:04:44.000Z</time>
      </trkpt>
      <trkpt lat="49.30831" lon="-1.13298">
        <ele>4.83665</ele>
        <time>2022-08-02T09:04:45.000Z</time>
      </trkpt>
      <trkpt lat="49.30832" lon="-1.1329">
        <ele>4.810291</ele>
        <time>2022-08-02T09:04:46.000Z</time>
      </trkpt>
      <trkpt lat="49.30833" lon="-1.13282">
        <ele>4.784614</ele>
        <time>2022-08-02T09:04:47.000Z</time>
      </trkpt>
      <trkpt lat="49.30834" lon="-1.13273">
        <ele>4.75886</ele>
        <time>2022-08-02T09:04:48.000Z</time>
      </trkpt>
      <trkpt lat="49.30835" lon="-1.13265">
        <ele>4.733925</ele>
        <time>2022-08-02T09:04:49.000Z</time>
      </trkpt>
      <trkpt lat="49.30835" lon="-1.13258">
        <ele>4.71026</ele>
        <time>2022-08-02T09:04:50.000Z</time>
      </trkpt>
      <trkpt lat="49.30837" lon="-1.1325">
        <ele>4.686577</ele>
        <time>2022-08-02T09:04:51.000Z</time>
      </trkpt>
      <trkpt lat="49.30838" lon="-1.13242">
        <ele>4.662303</ele>
        <time>2022-08-02T09:04:52.000Z</time>
      </trkpt>
      <trkpt lat="49.30839" lon="-1.13235">
        <ele>4.639031</ele>
        <time>2022-08-02T09:04:53.000Z</time>
      </trkpt>
      <trkpt lat="49.3084" lon="-1.13227">
        <ele>4.615348</ele>
        <time>2022-08-02T09:04:54.000Z</time>
      </trkpt>
      <trkpt lat="49.30841" lon="-1.1322">
        <ele>4.591985</ele>
        <time>2022-08-02T09:04:55.000Z</time>
      </trkpt>
      <trkpt lat="49.30842" lon="-1.13212">
        <ele>4.568302</ele>
        <time>2022-08-02T09:04:56.000Z</time>
      </trkpt>
      <trkpt lat="49.30843" lon="-1.13205">
        <ele>4.54494</ele>
        <time>2022-08-02T09:04:57.000Z</time>
      </trkpt>
      <trkpt lat="49.30844" lon="-1.13197">
        <ele>4.521968</ele>
        <time>2022-08-02T09:04:58.000Z</time>
      </trkpt>
      <trkpt lat="49.30845" lon="-1.1319">
        <ele>4.498606</ele>
        <time>2022-08-02T09:04:59.000Z</time>
      </trkpt>
      <trkpt lat="49.30846" lon="-1.13183">
        <ele>4.475513</ele>
        <time>2022-08-02T09:05:00.000Z</time>
      </trkpt>
      <trkpt lat="49.30847" lon="-1.13175">
        <ele>4.45224</ele>
        <time>2022-08-02T09:05:01.000Z</time>
      </trkpt>
      <trkpt lat="49.30848" lon="-1.13168">
        <ele>4.428879</ele>
        <time>2022-08-02T09:05:02.000Z</time>
      </trkpt>
      <trkpt lat="49.30849" lon="-1.1316">
        <ele>4.405517</ele>
        <time>2022-08-02T09:05:03.000Z</time>
      </trkpt>
      <trkpt lat="49.3085" lon="-1.13152">
        <ele>4.381644</ele>
        <time>2022-08-02T09:05:04.000Z</time>
      </trkpt>
      <trkpt lat="49.30851" lon="-1.13145">
        <ele>4.357983</ele>
        <time>2022-08-02T09:05:05.000Z</time>
      </trkpt>
      <trkpt lat="49.30852" lon="-1.13137">
        <ele>4.333509</ele>
        <time>2022-08-02T09:05:06.000Z</time>
      </trkpt>
      <trkpt lat="49.30853" lon="-1.13129">
        <ele>4.310086</ele>
        <time>2022-08-02T09:05:07.000Z</time>
      </trkpt>
      <trkpt lat="49.30853" lon="-1.13121">
        <ele>4.285814</ele>
        <time>2022-08-02T09:05:08.000Z</time>
      </trkpt>
      <trkpt lat="49.30854" lon="-1.13114">
        <ele>4.262154</ele>
        <time>2022-08-02T09:05:09.000Z</time>
      </trkpt>
      <trkpt lat="49.30855" lon="-1.13106">
        <ele>4.238881</ele>
        <time>2022-08-02T09:05:10.000Z</time>
      </trkpt>
      <trkpt lat="49.30856" lon="-1.13099">
        <ele>4.214608</ele>
        <time>2022-08-02T09:05:11.000Z</time>
      </trkpt>
      <trkpt lat="49.30857" lon="-1.13092">
        <ele>4.239562</ele>
        <time>2022-08-02T09:05:12.000Z</time>
      </trkpt>
      <trkpt lat="49.30858" lon="-1.13083">
        <ele>4.313225</ele>
        <time>2022-08-02T09:05:13.000Z</time>
      </trkpt>
      <trkpt lat="49.30859" lon="-1.13076">
        <ele>4.372188</ele>
        <time>2022-08-02T09:05:14.000Z</time>
      </trkpt>
      <trkpt lat="49.30859" lon="-1.13069">
        <ele>4.430638</ele>
        <time>2022-08-02T09:05:15.000Z</time>
      </trkpt>
      <trkpt lat="49.3086" lon="-1.13063">
        <ele>4.475952</ele>
        <time>2022-08-02T09:05:16.000Z</time>
      </trkpt>
      <trkpt lat="49.30861" lon="-1.13055">
        <ele>4.540454</ele>
        <time>2022-08-02T09:05:17.000Z</time>
      </trkpt>
      <trkpt lat="49.30861" lon="-1.13049">
        <ele>4.592773</ele>
        <time>2022-08-02T09:05:18.000Z</time>
      </trkpt>
      <trkpt lat="49.30862" lon="-1.13043">
        <ele>4.641764</ele>
        <time>2022-08-02T09:05:19.000Z</time>
      </trkpt>
      <trkpt lat="49.30863" lon="-1.13037">
        <ele>4.690963</ele>
        <time>2022-08-02T09:05:20.000Z</time>
      </trkpt>
      <trkpt lat="49.30863" lon="-1.13031">
        <ele>4.738254</ele>
        <time>2022-08-02T09:05:21.000Z</time>
      </trkpt>
      <trkpt lat="49.30864" lon="-1.13025">
        <ele>4.783882</ele>
        <time>2022-08-02T09:05:22.000Z</time>
      </trkpt>
      <trkpt lat="49.30864" lon="-1.1302">
        <ele>4.826394</ele>
        <time>2022-08-02T09:05:23.000Z</time>
      </trkpt>
      <trkpt lat="49.30864" lon="-1.13015">
        <ele>4.863952</ele>
        <time>2022-08-02T09:05:24.000Z</time>
      </trkpt>
      <trkpt lat="49.30865" lon="-1.13012">
        <ele>4.893972</ele>
        <time>2022-08-02T09:05:25.000Z</time>
      </trkpt>
      <trkpt lat="49.30866" lon="-1.13008">
        <ele>4.923295</ele>
        <time>2022-08-02T09:05:26.000Z</time>
      </trkpt>
      <trkpt lat="49.30867" lon="-1.13006">
        <ele>4.947259</ele>
        <time>2022-08-02T09:05:27.000Z</time>
      </trkpt>
      <trkpt lat="49.30868" lon="-1.13003">
        <ele>4.976415</ele>
        <time>2022-08-02T09:05:28.000Z</time>
      </trkpt>
      <trkpt lat="49.3087" lon="-1.13">
        <ele>5.00801</ele>
        <time>2022-08-02T09:05:29.000Z</time>
      </trkpt>
      <trkpt lat="49.30871" lon="-1.12996">
        <ele>5.039567</ele>
        <time>2022-08-02T09:05:30.000Z</time>
      </trkpt>
      <trkpt lat="49.30872" lon="-1.12992">
        <ele>5.077068</ele>
        <time>2022-08-02T09:05:31.000Z</time>
      </trkpt>
      <trkpt lat="49.30874" lon="-1.12988">
        <ele>5.115939</ele>
        <time>2022-08-02T09:05:32.000Z</time>
      </trkpt>
      <trkpt lat="49.30875" lon="-1.12983">
        <ele>5.153931</ele>
        <time>2022-08-02T09:05:33.000Z</time>
      </trkpt>
      <trkpt lat="49.30877" lon="-1.12979">
        <ele>5.19489</ele>
        <time>2022-08-02T09:05:34.000Z</time>
      </trkpt>
      <trkpt lat="49.30878" lon="-1.12975">
        <ele>5.233074</ele>
        <time>2022-08-02T09:05:35.000Z</time>
      </trkpt>
      <trkpt lat="49.3088" lon="-1.12971">
        <ele>5.273924</ele>
        <time>2022-08-02T09:05:36.000Z</time>
      </trkpt>
      <trkpt lat="49.30882" lon="-1.12967">
        <ele>5.31394</ele>
        <time>2022-08-02T09:05:37.000Z</time>
      </trkpt>
      <trkpt lat="49.30885" lon="-1.12963">
        <ele>5.355374</ele>
        <time>2022-08-02T09:05:38.000Z</time>
      </trkpt>
      <trkpt lat="49.30887" lon="-1.12959">
        <ele>5.395984</ele>
        <time>2022-08-02T09:05:39.000Z</time>
      </trkpt>
      <trkpt lat="49.3089" lon="-1.12956">
        <ele>5.442218</ele>
        <time>2022-08-02T09:05:40.000Z</time>
      </trkpt>
      <trkpt lat="49.30892" lon="-1.12951">
        <ele>5.488499</ele>
        <time>2022-08-02T09:05:41.000Z</time>
      </trkpt>
      <trkpt lat="49.30895" lon="-1.12946">
        <ele>5.53885</ele>
        <time>2022-08-02T09:05:42.000Z</time>
      </trkpt>
      <trkpt lat="49.30898" lon="-1.12941">
        <ele>5.592927</ele>
        <time>2022-08-02T09:05:43.000Z</time>
      </trkpt>
      <trkpt lat="49.30901" lon="-1.12937">
        <ele>5.644637</ele>
        <time>2022-08-02T09:05:44.000Z</time>
      </trkpt>
      <trkpt lat="49.30904" lon="-1.12932">
        <ele>5.701653</ele>
        <time>2022-08-02T09:05:45.000Z</time>
      </trkpt>
      <trkpt lat="49.30908" lon="-1.12927">
        <ele>5.759199</ele>
        <time>2022-08-02T09:05:46.000Z</time>
      </trkpt>
      <trkpt lat="49.3091" lon="-1.12922">
        <ele>5.811564</ele>
        <time>2022-08-02T09:05:47.000Z</time>
      </trkpt>
      <trkpt lat="49.30913" lon="-1.12916">
        <ele>5.865142</ele>
        <time>2022-08-02T09:05:48.000Z</time>
      </trkpt>
      <trkpt lat="49.30916" lon="-1.12911">
        <ele>5.924048</ele>
        <time>2022-08-02T09:05:49.000Z</time>
      </trkpt>
      <trkpt lat="49.30919" lon="-1.12905">
        <ele>5.986892</ele>
        <time>2022-08-02T09:05:50.000Z</time>
      </trkpt>
      <trkpt lat="49.30924" lon="-1.12899">
        <ele>6.055798</ele>
        <time>2022-08-02T09:05:51.000Z</time>
      </trkpt>
      <trkpt lat="49.30927" lon="-1.12893">
        <ele>6.125219</ele>
        <time>2022-08-02T09:05:52.000Z</time>
      </trkpt>
      <trkpt lat="49.30932" lon="-1.12887">
        <ele>6.195787</ele>
        <time>2022-08-02T09:05:53.000Z</time>
      </trkpt>
      <trkpt lat="49.30936" lon="-1.12881">
        <ele>6.26779</ele>
        <time>2022-08-02T09:05:54.000Z</time>
      </trkpt>
      <trkpt lat="49.3094" lon="-1.12874">
        <ele>6.338752</ele>
        <time>2022-08-02T09:05:55.000Z</time>
      </trkpt>
      <trkpt lat="49.30944" lon="-1.12868">
        <ele>6.409099</ele>
        <time>2022-08-02T09:05:56.000Z</time>
      </trkpt>
      <trkpt lat="49.30947" lon="-1.12862">
        <ele>6.417343</ele>
        <time>2022-08-02T09:05:57.000Z</time>
      </trkpt>
      <trkpt lat="49.3095" lon="-1.12856">
        <ele>6.422516</ele>
        <time>2022-08-02T09:05:58.000Z</time>
      </trkpt>
      <trkpt lat="49.30954" lon="-1.12849">
        <ele>6.427881</ele>
        <time>2022-08-02T09:05:59.000Z</time>
      </trkpt>
      <trkpt lat="49.30958" lon="-1.12843">
        <ele>6.433424</ele>
        <time>2022-08-02T09:06:00.000Z</time>
      </trkpt>
      <trkpt lat="49.30962" lon="-1.12837">
        <ele>6.438943</ele>
        <time>2022-08-02T09:06:01.000Z</time>
      </trkpt>
      <trkpt lat="49.30965" lon="-1.12831">
        <ele>6.444458</ele>
        <time>2022-08-02T09:06:02.000Z</time>
      </trkpt>
      <trkpt lat="49.30968" lon="-1.12824">
        <ele>6.449734</ele>
        <time>2022-08-02T09:06:03.000Z</time>
      </trkpt>
      <trkpt lat="49.30972" lon="-1.12818">
        <ele>6.455249</ele>
        <time>2022-08-02T09:06:04.000Z</time>
      </trkpt>
      <trkpt lat="49.30976" lon="-1.12812">
        <ele>6.460792</ele>
        <time>2022-08-02T09:06:05.000Z</time>
      </trkpt>
      <trkpt lat="49.3098" lon="-1.12806">
        <ele>6.466171</ele>
        <time>2022-08-02T09:06:06.000Z</time>
      </trkpt>
      <trkpt lat="49.30983" lon="-1.128">
        <ele>6.471807</ele>
        <time>2022-08-02T09:06:07.000Z</time>
      </trkpt>
      <trkpt lat="49.30987" lon="-1.12794">
        <ele>6.476977</ele>
        <time>2022-08-02T09:06:08.000Z</time>
      </trkpt>
      <trkpt lat="49.3099" lon="-1.12788">
        <ele>6.482048</ele>
        <time>2022-08-02T09:06:09.000Z</time>
      </trkpt>
      <trkpt lat="49.30994" lon="-1.12782">
        <ele>6.487315</ele>
        <time>2022-08-02T09:06:10.000Z</time>
      </trkpt>
      <trkpt lat="49.30997" lon="-1.12776">
        <ele>6.49268</ele>
        <time>2022-08-02T09:06:11.000Z</time>
      </trkpt>
      <trkpt lat="49.31001" lon="-1.1277">
        <ele>6.49785</ele>
        <time>2022-08-02T09:06:12.000Z</time>
      </trkpt>
      <trkpt lat="49.31004" lon="-1.12764">
        <ele>6.502842</ele>
        <time>2022-08-02T09:06:13.000Z</time>
      </trkpt>
      <trkpt lat="49.31007" lon="-1.12758">
        <ele>6.508108</ele>
        <time>2022-08-02T09:06:14.000Z</time>
      </trkpt>
      <trkpt lat="49.3101" lon="-1.12752">
        <ele>6.51289</ele>
        <time>2022-08-02T09:06:15.000Z</time>
      </trkpt>
      <trkpt lat="49.31013" lon="-1.12746">
        <ele>6.518063</ele>
        <time>2022-08-02T09:06:16.000Z</time>
      </trkpt>
      <trkpt lat="49.31016" lon="-1.1274">
        <ele>6.523108</ele>
        <time>2022-08-02T09:06:17.000Z</time>
      </trkpt>
      <trkpt lat="49.31019" lon="-1.12733">
        <ele>6.528153</ele>
        <time>2022-08-02T09:06:18.000Z</time>
      </trkpt>
      <trkpt lat="49.31022" lon="-1.12727">
        <ele>6.533145</ele>
        <time>2022-08-02T09:06:19.000Z</time>
      </trkpt>
      <trkpt lat="49.31025" lon="-1.12721">
        <ele>6.538133</ele>
        <time>2022-08-02T09:06:20.000Z</time>
      </trkpt>
      <trkpt lat="49.31027" lon="-1.12714">
        <ele>6.543233</ele>
        <time>2022-08-02T09:06:21.000Z</time>
      </trkpt>
      <trkpt lat="49.3103" lon="-1.12708">
        <ele>6.548222</ele>
        <time>2022-08-02T09:06:22.000Z</time>
      </trkpt>
      <trkpt lat="49.31033" lon="-1.12701">
        <ele>6.553156</ele>
        <time>2022-08-02T09:06:23.000Z</time>
      </trkpt>
      <trkpt lat="49.31035" lon="-1.12695">
        <ele>6.558034</ele>
        <time>2022-08-02T09:06:24.000Z</time>
      </trkpt>
      <trkpt lat="49.31038" lon="-1.12689">
        <ele>6.563258</ele>
        <time>2022-08-02T09:06:25.000Z</time>
      </trkpt>
      <trkpt lat="49.31041" lon="-1.12683">
        <ele>6.567971</ele>
        <time>2022-08-02T09:06:26.000Z</time>
      </trkpt>
      <trkpt lat="49.31044" lon="-1.12676">
        <ele>6.572852</ele>
        <time>2022-08-02T09:06:27.000Z</time>
      </trkpt>
      <trkpt lat="49.31046" lon="-1.1267">
        <ele>6.577897</ele>
        <time>2022-08-02T09:06:28.000Z</time>
      </trkpt>
      <trkpt lat="49.31049" lon="-1.12664">
        <ele>6.582514</ele>
        <time>2022-08-02T09:06:29.000Z</time>
      </trkpt>
      <trkpt lat="49.31051" lon="-1.12658">
        <ele>6.587392</ele>
        <time>2022-08-02T09:06:30.000Z</time>
      </trkpt>
      <trkpt lat="49.31054" lon="-1.12651">
        <ele>6.592384</ele>
        <time>2022-08-02T09:06:31.000Z</time>
      </trkpt>
      <trkpt lat="49.31057" lon="-1.12645">
        <ele>6.584387</ele>
        <time>2022-08-02T09:06:32.000Z</time>
      </trkpt>
      <trkpt lat="49.31059" lon="-1.12639">
        <ele>6.575148</ele>
        <time>2022-08-02T09:06:33.000Z</time>
      </trkpt>
      <trkpt lat="49.31061" lon="-1.12633">
        <ele>6.566112</ele>
        <time>2022-08-02T09:06:34.000Z</time>
      </trkpt>
      <trkpt lat="49.31064" lon="-1.12626">
        <ele>6.556465</ele>
        <time>2022-08-02T09:06:35.000Z</time>
      </trkpt>
      <trkpt lat="49.31067" lon="-1.1262">
        <ele>6.54725</ele>
        <time>2022-08-02T09:06:36.000Z</time>
      </trkpt>
      <trkpt lat="49.31069" lon="-1.12614">
        <ele>6.538248</ele>
        <time>2022-08-02T09:06:37.000Z</time>
      </trkpt>
      <trkpt lat="49.31072" lon="-1.12608">
        <ele>6.5286</ele>
        <time>2022-08-02T09:06:38.000Z</time>
      </trkpt>
      <trkpt lat="49.31075" lon="-1.12602">
        <ele>6.51928</ele>
        <time>2022-08-02T09:06:39.000Z</time>
      </trkpt>
      <trkpt lat="49.31077" lon="-1.12596">
        <ele>6.510244</ele>
        <time>2022-08-02T09:06:40.000Z</time>
      </trkpt>
      <trkpt lat="49.3108" lon="-1.12589">
        <ele>6.500246</ele>
        <time>2022-08-02T09:06:41.000Z</time>
      </trkpt>
      <trkpt lat="49.31083" lon="-1.12583">
        <ele>6.49082</ele>
        <time>2022-08-02T09:06:42.000Z</time>
      </trkpt>
      <trkpt lat="49.31085" lon="-1.12577">
        <ele>6.481495</ele>
        <time>2022-08-02T09:06:43.000Z</time>
      </trkpt>
      <trkpt lat="49.31088" lon="-1.1257">
        <ele>6.471197</ele>
        <time>2022-08-02T09:06:44.000Z</time>
      </trkpt>
      <trkpt lat="49.31091" lon="-1.12564">
        <ele>6.461029</ele>
        <time>2022-08-02T09:06:45.000Z</time>
      </trkpt>
      <trkpt lat="49.31094" lon="-1.12557">
        <ele>6.450732</ele>
        <time>2022-08-02T09:06:46.000Z</time>
      </trkpt>
      <trkpt lat="49.31097" lon="-1.12551">
        <ele>6.441411</ele>
        <time>2022-08-02T09:06:47.000Z</time>
      </trkpt>
      <trkpt lat="49.311" lon="-1.12545">
        <ele>6.431979</ele>
        <time>2022-08-02T09:06:48.000Z</time>
      </trkpt>
      <trkpt lat="49.31103" lon="-1.12539">
        <ele>6.422332</ele>
        <time>2022-08-02T09:06:49.000Z</time>
      </trkpt>
      <trkpt lat="49.31105" lon="-1.12532">
        <ele>6.413012</ele>
        <time>2022-08-02T09:06:50.000Z</time>
      </trkpt>
      <trkpt lat="49.31108" lon="-1.12526">
        <ele>6.403467</ele>
        <time>2022-08-02T09:06:51.000Z</time>
      </trkpt>
      <trkpt lat="49.31111" lon="-1.1252">
        <ele>6.393722</ele>
        <time>2022-08-02T09:06:52.000Z</time>
      </trkpt>
      <trkpt lat="49.31114" lon="-1.12514">
        <ele>6.383972</ele>
        <time>2022-08-02T09:06:53.000Z</time>
      </trkpt>
      <trkpt lat="49.31117" lon="-1.12507">
        <ele>6.37433</ele>
        <time>2022-08-02T09:06:54.000Z</time>
      </trkpt>
      <trkpt lat="49.3112" lon="-1.12501">
        <ele>6.364033</ele>
        <time>2022-08-02T09:06:55.000Z</time>
      </trkpt>
      <trkpt lat="49.31123" lon="-1.12494">
        <ele>6.353532</ele>
        <time>2022-08-02T09:06:56.000Z</time>
      </trkpt>
      <trkpt lat="49.31126" lon="-1.12487">
        <ele>6.343133</ele>
        <time>2022-08-02T09:06:57.000Z</time>
      </trkpt>
      <trkpt lat="49.31129" lon="-1.1248">
        <ele>6.332754</ele>
        <time>2022-08-02T09:06:58.000Z</time>
      </trkpt>
      <trkpt lat="49.31132" lon="-1.12473">
        <ele>6.321841</ele>
        <time>2022-08-02T09:06:59.000Z</time>
      </trkpt>
      <trkpt lat="49.31135" lon="-1.12466">
        <ele>6.311024</ele>
        <time>2022-08-02T09:07:00.000Z</time>
      </trkpt>
      <trkpt lat="49.31139" lon="-1.12458">
        <ele>6.299249</ele>
        <time>2022-08-02T09:07:01.000Z</time>
      </trkpt>
      <trkpt lat="49.31142" lon="-1.12451">
        <ele>6.287792</ele>
        <time>2022-08-02T09:07:02.000Z</time>
      </trkpt>
      <trkpt lat="49.31146" lon="-1.12444">
        <ele>6.276131</ele>
        <time>2022-08-02T09:07:03.000Z</time>
      </trkpt>
      <trkpt lat="49.31149" lon="-1.12436">
        <ele>6.264586</ele>
        <time>2022-08-02T09:07:04.000Z</time>
      </trkpt>
      <trkpt lat="49.31152" lon="-1.12428">
        <ele>6.252406</ele>
        <time>2022-08-02T09:07:05.000Z</time>
      </trkpt>
      <trkpt lat="49.31156" lon="-1.1242">
        <ele>6.225938</ele>
        <time>2022-08-02T09:07:06.000Z</time>
      </trkpt>
      <trkpt lat="49.31159" lon="-1.12412">
        <ele>6.160442</ele>
        <time>2022-08-02T09:07:07.000Z</time>
      </trkpt>
      <trkpt lat="49.31162" lon="-1.12404">
        <ele>6.091973</ele>
        <time>2022-08-02T09:07:08.000Z</time>
      </trkpt>
      <trkpt lat="49.31166" lon="-1.12396">
        <ele>6.023473</ele>
        <time>2022-08-02T09:07:09.000Z</time>
      </trkpt>
      <trkpt lat="49.31169" lon="-1.12388">
        <ele>5.955004</ele>
        <time>2022-08-02T09:07:10.000Z</time>
      </trkpt>
      <trkpt lat="49.31173" lon="-1.1238">
        <ele>5.888301</ele>
        <time>2022-08-02T09:07:11.000Z</time>
      </trkpt>
      <trkpt lat="49.31176" lon="-1.12372">
        <ele>5.819832</ele>
        <time>2022-08-02T09:07:12.000Z</time>
      </trkpt>
      <trkpt lat="49.3118" lon="-1.12364">
        <ele>5.751362</ele>
        <time>2022-08-02T09:07:13.000Z</time>
      </trkpt>
      <trkpt lat="49.31183" lon="-1.12356">
        <ele>5.680371</ele>
        <time>2022-08-02T09:07:14.000Z</time>
      </trkpt>
      <trkpt lat="49.31187" lon="-1.12348">
        <ele>5.613061</ele>
        <time>2022-08-02T09:07:15.000Z</time>
      </trkpt>
      <trkpt lat="49.3119" lon="-1.1234">
        <ele>5.54392</ele>
        <time>2022-08-02T09:07:16.000Z</time>
      </trkpt>
      <trkpt lat="49.31193" lon="-1.12332">
        <ele>5.47486</ele>
        <time>2022-08-02T09:07:17.000Z</time>
      </trkpt>
      <trkpt lat="49.31197" lon="-1.12324">
        <ele>5.408762</ele>
        <time>2022-08-02T09:07:18.000Z</time>
      </trkpt>
      <trkpt lat="49.312" lon="-1.12316">
        <ele>5.34206</ele>
        <time>2022-08-02T09:07:19.000Z</time>
      </trkpt>
      <trkpt lat="49.31203" lon="-1.12308">
        <ele>5.274766</ele>
        <time>2022-08-02T09:07:20.000Z</time>
      </trkpt>
      <trkpt lat="49.31206" lon="-1.123">
        <ele>5.209271</ele>
        <time>2022-08-02T09:07:21.000Z</time>
      </trkpt>
      <trkpt lat="49.3121" lon="-1.12292">
        <ele>5.143174</ele>
        <time>2022-08-02T09:07:22.000Z</time>
      </trkpt>
      <trkpt lat="49.31213" lon="-1.12285">
        <ele>5.07588</ele>
        <time>2022-08-02T09:07:23.000Z</time>
      </trkpt>
      <trkpt lat="49.31216" lon="-1.12277">
        <ele>5.010385</ele>
        <time>2022-08-02T09:07:24.000Z</time>
      </trkpt>
      <trkpt lat="49.3122" lon="-1.12269">
        <ele>4.940731</ele>
        <time>2022-08-02T09:07:25.000Z</time>
      </trkpt>
      <trkpt lat="49.31223" lon="-1.12261">
        <ele>4.871649</ele>
        <time>2022-08-02T09:07:26.000Z</time>
      </trkpt>
      <trkpt lat="49.31227" lon="-1.12252">
        <ele>4.801995</ele>
        <time>2022-08-02T09:07:27.000Z</time>
      </trkpt>
      <trkpt lat="49.3123" lon="-1.12245">
        <ele>4.7365</ele>
        <time>2022-08-02T09:07:28.000Z</time>
      </trkpt>
      <trkpt lat="49.31234" lon="-1.12237">
        <ele>4.669207</ele>
        <time>2022-08-02T09:07:29.000Z</time>
      </trkpt>
      <trkpt lat="49.31237" lon="-1.12229">
        <ele>4.601327</ele>
        <time>2022-08-02T09:07:30.000Z</time>
      </trkpt>
      <trkpt lat="49.31241" lon="-1.12221">
        <ele>4.531469</ele>
        <time>2022-08-02T09:07:31.000Z</time>
      </trkpt>
      <trkpt lat="49.31244" lon="-1.12213">
        <ele>4.465054</ele>
        <time>2022-08-02T09:07:32.000Z</time>
      </trkpt>
      <trkpt lat="49.31247" lon="-1.12205">
        <ele>4.395972</ele>
        <time>2022-08-02T09:07:33.000Z</time>
      </trkpt>
      <trkpt lat="49.3125" lon="-1.12197">
        <ele>4.331444</ele>
        <time>2022-08-02T09:07:34.000Z</time>
      </trkpt>
      <trkpt lat="49.31254" lon="-1.12189">
        <ele>4.272794</ele>
        <time>2022-08-02T09:07:35.000Z</time>
      </trkpt>
      <trkpt lat="49.31257" lon="-1.1218">
        <ele>4.239745</ele>
        <time>2022-08-02T09:07:36.000Z</time>
      </trkpt>
      <trkpt lat="49.31261" lon="-1.12172">
        <ele>4.206413</ele>
        <time>2022-08-02T09:07:37.000Z</time>
      </trkpt>
      <trkpt lat="49.31265" lon="-1.12164">
        <ele>4.170984</ele>
        <time>2022-08-02T09:07:38.000Z</time>
      </trkpt>
      <trkpt lat="49.31269" lon="-1.12156">
        <ele>4.137607</ele>
        <time>2022-08-02T09:07:39.000Z</time>
      </trkpt>
      <trkpt lat="49.31273" lon="-1.12148">
        <ele>4.102972</ele>
        <time>2022-08-02T09:07:40.000Z</time>
      </trkpt>
      <trkpt lat="49.31277" lon="-1.1214">
        <ele>4.069923</ele>
        <time>2022-08-02T09:07:41.000Z</time>
      </trkpt>
      <trkpt lat="49.31279" lon="-1.12131">
        <ele>4.039093</ele>
        <time>2022-08-02T09:07:42.000Z</time>
      </trkpt>
      <trkpt lat="49.31282" lon="-1.12123">
        <ele>4.007042</ele>
        <time>2022-08-02T09:07:43.000Z</time>
      </trkpt>
      <trkpt lat="49.31285" lon="-1.12115">
        <ele>3.975113</ele>
        <time>2022-08-02T09:07:44.000Z</time>
      </trkpt>
      <trkpt lat="49.31289" lon="-1.12108">
        <ele>3.944248</ele>
        <time>2022-08-02T09:07:45.000Z</time>
      </trkpt>
      <trkpt lat="49.31293" lon="-1.121">
        <ele>3.912596</ele>
        <time>2022-08-02T09:07:46.000Z</time>
      </trkpt>
      <trkpt lat="49.31296" lon="-1.12093">
        <ele>3.881495</ele>
        <time>2022-08-02T09:07:47.000Z</time>
      </trkpt>
      <trkpt lat="49.31299" lon="-1.12085">
        <ele>3.851271</ele>
        <time>2022-08-02T09:07:48.000Z</time>
      </trkpt>
      <trkpt lat="49.31303" lon="-1.12078">
        <ele>3.82017</ele>
        <time>2022-08-02T09:07:49.000Z</time>
      </trkpt>
      <trkpt lat="49.31306" lon="-1.1207">
        <ele>3.789892</ele>
        <time>2022-08-02T09:07:50.000Z</time>
      </trkpt>
      <trkpt lat="49.31309" lon="-1.12062">
        <ele>3.75824</ele>
        <time>2022-08-02T09:07:51.000Z</time>
      </trkpt>
      <trkpt lat="49.31312" lon="-1.12054">
        <ele>3.727449</ele>
        <time>2022-08-02T09:07:52.000Z</time>
      </trkpt>
      <trkpt lat="49.31316" lon="-1.12047">
        <ele>3.696942</ele>
        <time>2022-08-02T09:07:53.000Z</time>
      </trkpt>
      <trkpt lat="49.31319" lon="-1.12039">
        <ele>3.66529</ele>
        <time>2022-08-02T09:07:54.000Z</time>
      </trkpt>
      <trkpt lat="49.31323" lon="-1.12031">
        <ele>3.63334</ele>
        <time>2022-08-02T09:07:55.000Z</time>
      </trkpt>
      <trkpt lat="49.31325" lon="-1.12024">
        <ele>3.604032</ele>
        <time>2022-08-02T09:07:56.000Z</time>
      </trkpt>
      <trkpt lat="49.31329" lon="-1.12016">
        <ele>3.57238</ele>
        <time>2022-08-02T09:07:57.000Z</time>
      </trkpt>
      <trkpt lat="49.31332" lon="-1.12008">
        <ele>3.540975</ele>
        <time>2022-08-02T09:07:58.000Z</time>
      </trkpt>
      <trkpt lat="49.31335" lon="-1.12001">
        <ele>3.511313</ele>
        <time>2022-08-02T09:07:59.000Z</time>
      </trkpt>
      <trkpt lat="49.31339" lon="-1.11994">
        <ele>3.481567</ele>
        <time>2022-08-02T09:08:00.000Z</time>
      </trkpt>
      <trkpt lat="49.31342" lon="-1.11987">
        <ele>3.451343</ele>
        <time>2022-08-02T09:08:01.000Z</time>
      </trkpt>
      <trkpt lat="49.31345" lon="-1.11979">
        <ele>3.422805</ele>
        <time>2022-08-02T09:08:02.000Z</time>
      </trkpt>
      <trkpt lat="49.31348" lon="-1.11972">
        <ele>3.393977</ele>
        <time>2022-08-02T09:08:03.000Z</time>
      </trkpt>
      <trkpt lat="49.31351" lon="-1.11965">
        <ele>3.366285</ele>
        <time>2022-08-02T09:08:04.000Z</time>
      </trkpt>
      <trkpt lat="49.31354" lon="-1.11959">
        <ele>3.35751</ele>
        <time>2022-08-02T09:08:05.000Z</time>
      </trkpt>
      <trkpt lat="49.31357" lon="-1.11952">
        <ele>3.366059</ele>
        <time>2022-08-02T09:08:06.000Z</time>
      </trkpt>
      <trkpt lat="49.3136" lon="-1.11945">
        <ele>3.374697</ele>
        <time>2022-08-02T09:08:07.000Z</time>
      </trkpt>
      <trkpt lat="49.31363" lon="-1.11938">
        <ele>3.383169</ele>
        <time>2022-08-02T09:08:08.000Z</time>
      </trkpt>
      <trkpt lat="49.31365" lon="-1.11931">
        <ele>3.3919</ele>
        <time>2022-08-02T09:08:09.000Z</time>
      </trkpt>
      <trkpt lat="49.31369" lon="-1.11924">
        <ele>3.401076</ele>
        <time>2022-08-02T09:08:10.000Z</time>
      </trkpt>
      <trkpt lat="49.31372" lon="-1.11917">
        <ele>3.410516</ele>
        <time>2022-08-02T09:08:11.000Z</time>
      </trkpt>
      <trkpt lat="49.31374" lon="-1.1191">
        <ele>3.419173</ele>
        <time>2022-08-02T09:08:12.000Z</time>
      </trkpt>
      <trkpt lat="49.31377" lon="-1.11903">
        <ele>3.42817</ele>
        <time>2022-08-02T09:08:13.000Z</time>
      </trkpt>
      <trkpt lat="49.31381" lon="-1.11896">
        <ele>3.437258</ele>
        <time>2022-08-02T09:08:14.000Z</time>
      </trkpt>
      <trkpt lat="49.31383" lon="-1.11889">
        <ele>3.445896</ele>
        <time>2022-08-02T09:08:15.000Z</time>
      </trkpt>
      <trkpt lat="49.31387" lon="-1.11882">
        <ele>3.455274</ele>
        <time>2022-08-02T09:08:16.000Z</time>
      </trkpt>
      <trkpt lat="49.3139" lon="-1.11875">
        <ele>3.464363</ele>
        <time>2022-08-02T09:08:17.000Z</time>
      </trkpt>
      <trkpt lat="49.31393" lon="-1.11868">
        <ele>3.473035</ele>
        <time>2022-08-02T09:08:18.000Z</time>
      </trkpt>
      <trkpt lat="49.31396" lon="-1.11861">
        <ele>3.482123</ele>
        <time>2022-08-02T09:08:19.000Z</time>
      </trkpt>
      <trkpt lat="49.31399" lon="-1.11854">
        <ele>3.490762</ele>
        <time>2022-08-02T09:08:20.000Z</time>
      </trkpt>
      <trkpt lat="49.31402" lon="-1.11847">
        <ele>3.499135</ele>
        <time>2022-08-02T09:08:21.000Z</time>
      </trkpt>
      <trkpt lat="49.31405" lon="-1.11841">
        <ele>3.50742</ele>
        <time>2022-08-02T09:08:22.000Z</time>
      </trkpt>
      <trkpt lat="49.31407" lon="-1.11835">
        <ele>3.514812</ele>
        <time>2022-08-02T09:08:23.000Z</time>
      </trkpt>
      <trkpt lat="49.3141" lon="-1.11829">
        <ele>3.523218</ele>
        <time>2022-08-02T09:08:24.000Z</time>
      </trkpt>
      <trkpt lat="49.31413" lon="-1.11823">
        <ele>3.531158</ele>
        <time>2022-08-02T09:08:25.000Z</time>
      </trkpt>
      <trkpt lat="49.31416" lon="-1.11817">
        <ele>3.539482</ele>
        <time>2022-08-02T09:08:26.000Z</time>
      </trkpt>
      <trkpt lat="49.31419" lon="-1.1181">
        <ele>3.547498</ele>
        <time>2022-08-02T09:08:27.000Z</time>
      </trkpt>
      <trkpt lat="49.31422" lon="-1.11804">
        <ele>3.555524</ele>
        <time>2022-08-02T09:08:28.000Z</time>
      </trkpt>
      <trkpt lat="49.31425" lon="-1.11798">
        <ele>3.563717</ele>
        <time>2022-08-02T09:08:29.000Z</time>
      </trkpt>
      <trkpt lat="49.31428" lon="-1.11791">
        <ele>3.572178</ele>
        <time>2022-08-02T09:08:30.000Z</time>
      </trkpt>
      <trkpt lat="49.3143" lon="-1.11784">
        <ele>3.580905</ele>
        <time>2022-08-02T09:08:31.000Z</time>
      </trkpt>
      <trkpt lat="49.31434" lon="-1.11778">
        <ele>3.589821</ele>
        <time>2022-08-02T09:08:32.000Z</time>
      </trkpt>
      <trkpt lat="49.31437" lon="-1.11771">
        <ele>3.598459</ele>
        <time>2022-08-02T09:08:33.000Z</time>
      </trkpt>
      <trkpt lat="49.3144" lon="-1.11764">
        <ele>3.60746</ele>
        <time>2022-08-02T09:08:34.000Z</time>
      </trkpt>
      <trkpt lat="49.31443" lon="-1.11757">
        <ele>3.616099</ele>
        <time>2022-08-02T09:08:35.000Z</time>
      </trkpt>
      <trkpt lat="49.31445" lon="-1.1175">
        <ele>3.624829</ele>
        <time>2022-08-02T09:08:36.000Z</time>
      </trkpt>
      <trkpt lat="49.31448" lon="-1.11743">
        <ele>3.633378</ele>
        <time>2022-08-02T09:08:37.000Z</time>
      </trkpt>
      <trkpt lat="49.31451" lon="-1.11737">
        <ele>3.641576</ele>
        <time>2022-08-02T09:08:38.000Z</time>
      </trkpt>
      <trkpt lat="49.31454" lon="-1.1173">
        <ele>3.646898</ele>
        <time>2022-08-02T09:08:39.000Z</time>
      </trkpt>
      <trkpt lat="49.31457" lon="-1.11723">
        <ele>3.648172</ele>
        <time>2022-08-02T09:08:40.000Z</time>
      </trkpt>
      <trkpt lat="49.3146" lon="-1.11716">
        <ele>3.64937</ele>
        <time>2022-08-02T09:08:41.000Z</time>
      </trkpt>
      <trkpt lat="49.31462" lon="-1.11709">
        <ele>3.650592</ele>
        <time>2022-08-02T09:08:42.000Z</time>
      </trkpt>
      <trkpt lat="49.31466" lon="-1.11703">
        <ele>3.651879</ele>
        <time>2022-08-02T09:08:43.000Z</time>
      </trkpt>
      <trkpt lat="49.31468" lon="-1.11696">
        <ele>3.653115</ele>
        <time>2022-08-02T09:08:44.000Z</time>
      </trkpt>
      <trkpt lat="49.31471" lon="-1.11689">
        <ele>3.654427</ele>
        <time>2022-08-02T09:08:45.000Z</time>
      </trkpt>
      <trkpt lat="49.31474" lon="-1.11682">
        <ele>3.655622</ele>
        <time>2022-08-02T09:08:46.000Z</time>
      </trkpt>
      <trkpt lat="49.31477" lon="-1.11676">
        <ele>3.656872</ele>
        <time>2022-08-02T09:08:47.000Z</time>
      </trkpt>
      <trkpt lat="49.3148" lon="-1.11669">
        <ele>3.658106</ele>
        <time>2022-08-02T09:08:48.000Z</time>
      </trkpt>
      <trkpt lat="49.31483" lon="-1.11662">
        <ele>3.659327</ele>
        <time>2022-08-02T09:08:49.000Z</time>
      </trkpt>
      <trkpt lat="49.31486" lon="-1.11656">
        <ele>3.660561</ele>
        <time>2022-08-02T09:08:50.000Z</time>
      </trkpt>
      <trkpt lat="49.31489" lon="-1.11649">
        <ele>3.661769</ele>
        <time>2022-08-02T09:08:51.000Z</time>
      </trkpt>
      <trkpt lat="49.31492" lon="-1.11642">
        <ele>3.662953</ele>
        <time>2022-08-02T09:08:52.000Z</time>
      </trkpt>
      <trkpt lat="49.31494" lon="-1.11636">
        <ele>3.664137</ele>
        <time>2022-08-02T09:08:53.000Z</time>
      </trkpt>
      <trkpt lat="49.31498" lon="-1.1163">
        <ele>3.665386</ele>
        <time>2022-08-02T09:08:54.000Z</time>
      </trkpt>
      <trkpt lat="49.315" lon="-1.11623">
        <ele>3.666583</ele>
        <time>2022-08-02T09:08:55.000Z</time>
      </trkpt>
      <trkpt lat="49.31503" lon="-1.11616">
        <ele>3.667791</ele>
        <time>2022-08-02T09:08:56.000Z</time>
      </trkpt>
      <trkpt lat="49.31505" lon="-1.1161">
        <ele>3.668912</ele>
        <time>2022-08-02T09:08:57.000Z</time>
      </trkpt>
      <trkpt lat="49.31508" lon="-1.11603">
        <ele>3.67007</ele>
        <time>2022-08-02T09:08:58.000Z</time>
      </trkpt>
      <trkpt lat="49.31511" lon="-1.11597">
        <ele>3.671295</ele>
        <time>2022-08-02T09:08:59.000Z</time>
      </trkpt>
      <trkpt lat="49.31513" lon="-1.11591">
        <ele>3.67243</ele>
        <time>2022-08-02T09:09:00.000Z</time>
      </trkpt>
      <trkpt lat="49.31516" lon="-1.11584">
        <ele>3.673526</ele>
        <time>2022-08-02T09:09:01.000Z</time>
      </trkpt>
      <trkpt lat="49.31518" lon="-1.11578">
        <ele>3.674683</ele>
        <time>2022-08-02T09:09:02.000Z</time>
      </trkpt>
      <trkpt lat="49.31521" lon="-1.11572">
        <ele>3.675842</ele>
        <time>2022-08-02T09:09:03.000Z</time>
      </trkpt>
      <trkpt lat="49.31524" lon="-1.11565">
        <ele>3.677024</ele>
        <time>2022-08-02T09:09:04.000Z</time>
      </trkpt>
      <trkpt lat="49.31527" lon="-1.11559">
        <ele>3.678182</ele>
        <time>2022-08-02T09:09:05.000Z</time>
      </trkpt>
      <trkpt lat="49.31529" lon="-1.11553">
        <ele>3.679317</ele>
        <time>2022-08-02T09:09:06.000Z</time>
      </trkpt>
      <trkpt lat="49.31531" lon="-1.11546">
        <ele>3.680495</ele>
        <time>2022-08-02T09:09:07.000Z</time>
      </trkpt>
      <trkpt lat="49.31534" lon="-1.11539">
        <ele>3.681665</ele>
        <time>2022-08-02T09:09:08.000Z</time>
      </trkpt>
      <trkpt lat="49.31537" lon="-1.11533">
        <ele>3.682835</ele>
        <time>2022-08-02T09:09:09.000Z</time>
      </trkpt>
      <trkpt lat="49.31539" lon="-1.11527">
        <ele>3.684005</ele>
        <time>2022-08-02T09:09:10.000Z</time>
      </trkpt>
      <trkpt lat="49.31542" lon="-1.1152">
        <ele>3.685149</ele>
        <time>2022-08-02T09:09:11.000Z</time>
      </trkpt>
      <trkpt lat="49.31545" lon="-1.11514">
        <ele>3.686387</ele>
        <time>2022-08-02T09:09:12.000Z</time>
      </trkpt>
      <trkpt lat="49.31548" lon="-1.11508">
        <ele>3.687556</ele>
        <time>2022-08-02T09:09:13.000Z</time>
      </trkpt>
      <trkpt lat="49.31551" lon="-1.11501">
        <ele>3.689781</ele>
        <time>2022-08-02T09:09:14.000Z</time>
      </trkpt>
      <trkpt lat="49.31553" lon="-1.11495">
        <ele>3.696093</ele>
        <time>2022-08-02T09:09:15.000Z</time>
      </trkpt>
      <trkpt lat="49.31556" lon="-1.11488">
        <ele>3.702388</ele>
        <time>2022-08-02T09:09:16.000Z</time>
      </trkpt>
      <trkpt lat="49.31559" lon="-1.11482">
        <ele>3.70904</ele>
        <time>2022-08-02T09:09:17.000Z</time>
      </trkpt>
      <trkpt lat="49.31561" lon="-1.11476">
        <ele>3.715403</ele>
        <time>2022-08-02T09:09:18.000Z</time>
      </trkpt>
      <trkpt lat="49.31564" lon="-1.11469">
        <ele>3.721698</ele>
        <time>2022-08-02T09:09:19.000Z</time>
      </trkpt>
      <trkpt lat="49.31567" lon="-1.11463">
        <ele>3.72835</ele>
        <time>2022-08-02T09:09:20.000Z</time>
      </trkpt>
      <trkpt lat="49.31569" lon="-1.11457">
        <ele>3.734714</ele>
        <time>2022-08-02T09:09:21.000Z</time>
      </trkpt>
      <trkpt lat="49.31572" lon="-1.1145">
        <ele>3.740935</ele>
        <time>2022-08-02T09:09:22.000Z</time>
      </trkpt>
      <trkpt lat="49.31575" lon="-1.11444">
        <ele>3.747728</ele>
        <time>2022-08-02T09:09:23.000Z</time>
      </trkpt>
      <trkpt lat="49.31577" lon="-1.11437">
        <ele>3.754418</ele>
        <time>2022-08-02T09:09:24.000Z</time>
      </trkpt>
      <trkpt lat="49.3158" lon="-1.1143">
        <ele>3.761156</ele>
        <time>2022-08-02T09:09:25.000Z</time>
      </trkpt>
      <trkpt lat="49.31582" lon="-1.11424">
        <ele>3.767738</ele>
        <time>2022-08-02T09:09:26.000Z</time>
      </trkpt>
      <trkpt lat="49.31585" lon="-1.11418">
        <ele>3.774112</ele>
        <time>2022-08-02T09:09:27.000Z</time>
      </trkpt>
      <trkpt lat="49.31588" lon="-1.11411">
        <ele>3.780334</ele>
        <time>2022-08-02T09:09:28.000Z</time>
      </trkpt>
      <trkpt lat="49.31591" lon="-1.11404">
        <ele>3.787631</ele>
        <time>2022-08-02T09:09:29.000Z</time>
      </trkpt>
      <trkpt lat="49.31594" lon="-1.11397">
        <ele>3.794507</ele>
        <time>2022-08-02T09:09:30.000Z</time>
      </trkpt>
      <trkpt lat="49.31597" lon="-1.11391">
        <ele>3.801527</ele>
        <time>2022-08-02T09:09:31.000Z</time>
      </trkpt>
      <trkpt lat="49.316" lon="-1.11384">
        <ele>3.808249</ele>
        <time>2022-08-02T09:09:32.000Z</time>
      </trkpt>
      <trkpt lat="49.31603" lon="-1.11378">
        <ele>3.814761</ele>
        <time>2022-08-02T09:09:33.000Z</time>
      </trkpt>
      <trkpt lat="49.31605" lon="-1.11372">
        <ele>3.821411</ele>
        <time>2022-08-02T09:09:34.000Z</time>
      </trkpt>
      <trkpt lat="49.31609" lon="-1.11365">
        <ele>3.828227</ele>
        <time>2022-08-02T09:09:35.000Z</time>
      </trkpt>
      <trkpt lat="49.31612" lon="-1.11359">
        <ele>3.835091</ele>
        <time>2022-08-02T09:09:36.000Z</time>
      </trkpt>
      <trkpt lat="49.31615" lon="-1.11352">
        <ele>3.842042</ele>
        <time>2022-08-02T09:09:37.000Z</time>
      </trkpt>
      <trkpt lat="49.31617" lon="-1.11346">
        <ele>3.848551</ele>
        <time>2022-08-02T09:09:38.000Z</time>
      </trkpt>
      <trkpt lat="49.31621" lon="-1.11339">
        <ele>3.855708</ele>
        <time>2022-08-02T09:09:39.000Z</time>
      </trkpt>
      <trkpt lat="49.31624" lon="-1.11332">
        <ele>3.863237</ele>
        <time>2022-08-02T09:09:40.000Z</time>
      </trkpt>
      <trkpt lat="49.31627" lon="-1.11325">
        <ele>3.869892</ele>
        <time>2022-08-02T09:09:41.000Z</time>
      </trkpt>
      <trkpt lat="49.3163" lon="-1.11318">
        <ele>3.877286</ele>
        <time>2022-08-02T09:09:42.000Z</time>
      </trkpt>
      <trkpt lat="49.31633" lon="-1.11311">
        <ele>3.884293</ele>
        <time>2022-08-02T09:09:43.000Z</time>
      </trkpt>
      <trkpt lat="49.31636" lon="-1.11304">
        <ele>3.891659</ele>
        <time>2022-08-02T09:09:44.000Z</time>
      </trkpt>
      <trkpt lat="49.31639" lon="-1.11297">
        <ele>3.898621</ele>
        <time>2022-08-02T09:09:45.000Z</time>
      </trkpt>
      <trkpt lat="49.31641" lon="-1.1129">
        <ele>3.905721</ele>
        <time>2022-08-02T09:09:46.000Z</time>
      </trkpt>
      <trkpt lat="49.31644" lon="-1.11283">
        <ele>3.912507</ele>
        <time>2022-08-02T09:09:47.000Z</time>
      </trkpt>
      <trkpt lat="49.31647" lon="-1.11275">
        <ele>3.919944</ele>
        <time>2022-08-02T09:09:48.000Z</time>
      </trkpt>
      <trkpt lat="49.3165" lon="-1.11268">
        <ele>3.921781</ele>
        <time>2022-08-02T09:09:49.000Z</time>
      </trkpt>
      <trkpt lat="49.31653" lon="-1.11261">
        <ele>3.916874</ele>
        <time>2022-08-02T09:09:50.000Z</time>
      </trkpt>
      <trkpt lat="49.31657" lon="-1.11254">
        <ele>3.911966</ele>
        <time>2022-08-02T09:09:51.000Z</time>
      </trkpt>
      <trkpt lat="49.3166" lon="-1.11247">
        <ele>3.906848</ele>
        <time>2022-08-02T09:09:52.000Z</time>
      </trkpt>
      <trkpt lat="49.31663" lon="-1.1124">
        <ele>3.90194</ele>
        <time>2022-08-02T09:09:53.000Z</time>
      </trkpt>
      <trkpt lat="49.31667" lon="-1.11233">
        <ele>3.896986</ele>
        <time>2022-08-02T09:09:54.000Z</time>
      </trkpt>
      <trkpt lat="49.3167" lon="-1.11226">
        <ele>3.892078</ele>
        <time>2022-08-02T09:09:55.000Z</time>
      </trkpt>
      <trkpt lat="49.31673" lon="-1.11219">
        <ele>3.887413</ele>
        <time>2022-08-02T09:09:56.000Z</time>
      </trkpt>
      <trkpt lat="49.31676" lon="-1.11213">
        <ele>3.882599</ele>
        <time>2022-08-02T09:09:57.000Z</time>
      </trkpt>
      <trkpt lat="49.31679" lon="-1.11206">
        <ele>3.877831</ele>
        <time>2022-08-02T09:09:58.000Z</time>
      </trkpt>
      <trkpt lat="49.31682" lon="-1.11199">
        <ele>3.87311</ele>
        <time>2022-08-02T09:09:59.000Z</time>
      </trkpt>
      <trkpt lat="49.31685" lon="-1.11192">
        <ele>3.868535</ele>
        <time>2022-08-02T09:10:00.000Z</time>
      </trkpt>
      <trkpt lat="49.31688" lon="-1.11186">
        <ele>3.863721</ele>
        <time>2022-08-02T09:10:01.000Z</time>
      </trkpt>
      <trkpt lat="49.31691" lon="-1.11179">
        <ele>3.859196</ele>
        <time>2022-08-02T09:10:02.000Z</time>
      </trkpt>
      <trkpt lat="49.31694" lon="-1.11172">
        <ele>3.854428</ele>
        <time>2022-08-02T09:10:03.000Z</time>
      </trkpt>
      <trkpt lat="49.31697" lon="-1.11165">
        <ele>3.849812</ele>
        <time>2022-08-02T09:10:04.000Z</time>
      </trkpt>
      <trkpt lat="49.317" lon="-1.11158">
        <ele>3.844904</ele>
        <time>2022-08-02T09:10:05.000Z</time>
      </trkpt>
      <trkpt lat="49.31703" lon="-1.11151">
        <ele>3.840046</ele>
        <time>2022-08-02T09:10:06.000Z</time>
      </trkpt>
      <trkpt lat="49.31706" lon="-1.11144">
        <ele>3.835285</ele>
        <time>2022-08-02T09:10:07.000Z</time>
      </trkpt>
      <trkpt lat="49.31708" lon="-1.11137">
        <ele>3.83051</ele>
        <time>2022-08-02T09:10:08.000Z</time>
      </trkpt>
      <trkpt lat="49.31711" lon="-1.1113">
        <ele>3.825796</ele>
        <time>2022-08-02T09:10:09.000Z</time>
      </trkpt>
      <trkpt lat="49.31714" lon="-1.11123">
        <ele>3.821035</ele>
        <time>2022-08-02T09:10:10.000Z</time>
      </trkpt>
      <trkpt lat="49.31717" lon="-1.11116">
        <ele>3.816275</ele>
        <time>2022-08-02T09:10:11.000Z</time>
      </trkpt>
      <trkpt lat="49.3172" lon="-1.11109">
        <ele>3.811414</ele>
        <time>2022-08-02T09:10:12.000Z</time>
      </trkpt>
      <trkpt lat="49.31723" lon="-1.11102">
        <ele>3.806845</ele>
        <time>2022-08-02T09:10:13.000Z</time>
      </trkpt>
      <trkpt lat="49.31725" lon="-1.11096">
        <ele>3.802661</ele>
        <time>2022-08-02T09:10:14.000Z</time>
      </trkpt>
      <trkpt lat="49.31728" lon="-1.11089">
        <ele>3.798314</ele>
        <time>2022-08-02T09:10:15.000Z</time>
      </trkpt>
      <trkpt lat="49.3173" lon="-1.11083">
        <ele>3.793833</ele>
        <time>2022-08-02T09:10:16.000Z</time>
      </trkpt>
      <trkpt lat="49.31733" lon="-1.11076">
        <ele>3.789065</ele>
        <time>2022-08-02T09:10:17.000Z</time>
      </trkpt>
      <trkpt lat="49.31736" lon="-1.1107">
        <ele>3.784882</ele>
        <time>2022-08-02T09:10:18.000Z</time>
      </trkpt>
      <trkpt lat="49.31739" lon="-1.11064">
        <ele>3.78065</ele>
        <time>2022-08-02T09:10:19.000Z</time>
      </trkpt>
      <trkpt lat="49.31742" lon="-1.11057">
        <ele>3.776066</ele>
        <time>2022-08-02T09:10:20.000Z</time>
      </trkpt>
      <trkpt lat="49.31744" lon="-1.11051">
        <ele>3.771783</ele>
        <time>2022-08-02T09:10:21.000Z</time>
      </trkpt>
      <trkpt lat="49.31748" lon="-1.11045">
        <ele>3.767289</ele>
        <time>2022-08-02T09:10:22.000Z</time>
      </trkpt>
      <trkpt lat="49.3175" lon="-1.11039">
        <ele>3.75686</ele>
        <time>2022-08-02T09:10:23.000Z</time>
      </trkpt>
      <trkpt lat="49.31754" lon="-1.11032">
        <ele>3.742455</ele>
        <time>2022-08-02T09:10:24.000Z</time>
      </trkpt>
      <trkpt lat="49.31756" lon="-1.11026">
        <ele>3.728872</ele>
        <time>2022-08-02T09:10:25.000Z</time>
      </trkpt>
      <trkpt lat="49.31759" lon="-1.1102">
        <ele>3.714467</ele>
        <time>2022-08-02T09:10:26.000Z</time>
      </trkpt>
      <trkpt lat="49.31762" lon="-1.11014">
        <ele>3.701495</ele>
        <time>2022-08-02T09:10:27.000Z</time>
      </trkpt>
      <trkpt lat="49.31764" lon="-1.11008">
        <ele>3.688816</ele>
        <time>2022-08-02T09:10:28.000Z</time>
      </trkpt>
      <trkpt lat="49.31767" lon="-1.11002">
        <ele>3.67596</ele>
        <time>2022-08-02T09:10:29.000Z</time>
      </trkpt>
      <trkpt lat="49.3177" lon="-1.10996">
        <ele>3.662987</ele>
        <time>2022-08-02T09:10:30.000Z</time>
      </trkpt>
      <trkpt lat="49.31772" lon="-1.10991">
        <ele>3.650464</ele>
        <time>2022-08-02T09:10:31.000Z</time>
      </trkpt>
      <trkpt lat="49.31774" lon="-1.10985">
        <ele>3.638709</ele>
        <time>2022-08-02T09:10:32.000Z</time>
      </trkpt>
      <trkpt lat="49.31777" lon="-1.1098">
        <ele>3.626333</ele>
        <time>2022-08-02T09:10:33.000Z</time>
      </trkpt>
      <trkpt lat="49.31779" lon="-1.10975">
        <ele>3.615041</ele>
        <time>2022-08-02T09:10:34.000Z</time>
      </trkpt>
      <trkpt lat="49.31781" lon="-1.1097">
        <ele>3.604498</ele>
        <time>2022-08-02T09:10:35.000Z</time>
      </trkpt>
      <trkpt lat="49.31783" lon="-1.10965">
        <ele>3.594269</ele>
        <time>2022-08-02T09:10:36.000Z</time>
      </trkpt>
      <trkpt lat="49.31785" lon="-1.1096">
        <ele>3.584348</ele>
        <time>2022-08-02T09:10:37.000Z</time>
      </trkpt>
      <trkpt lat="49.31787" lon="-1.10956">
        <ele>3.574533</ele>
        <time>2022-08-02T09:10:38.000Z</time>
      </trkpt>
      <trkpt lat="49.31789" lon="-1.10952">
        <ele>3.566877</ele>
        <time>2022-08-02T09:10:39.000Z</time>
      </trkpt>
      <trkpt lat="49.3179" lon="-1.10949">
        <ele>3.559674</ele>
        <time>2022-08-02T09:10:40.000Z</time>
      </trkpt>
      <trkpt lat="49.31792" lon="-1.10946">
        <ele>3.552614</ele>
        <time>2022-08-02T09:10:41.000Z</time>
      </trkpt>
      <trkpt lat="49.31793" lon="-1.10943">
        <ele>3.545553</ele>
        <time>2022-08-02T09:10:42.000Z</time>
      </trkpt>
      <trkpt lat="49.31795" lon="-1.1094">
        <ele>3.538632</ele>
        <time>2022-08-02T09:10:43.000Z</time>
      </trkpt>
      <trkpt lat="49.31796" lon="-1.10937">
        <ele>3.532617</ele>
        <time>2022-08-02T09:10:44.000Z</time>
      </trkpt>
      <trkpt lat="49.31797" lon="-1.10935">
        <ele>3.526355</ele>
        <time>2022-08-02T09:10:45.000Z</time>
      </trkpt>
      <trkpt lat="49.31798" lon="-1.10932">
        <ele>3.520892</ele>
        <time>2022-08-02T09:10:46.000Z</time>
      </trkpt>
      <trkpt lat="49.31798" lon="-1.10929">
        <ele>3.515176</ele>
        <time>2022-08-02T09:10:47.000Z</time>
      </trkpt>
      <trkpt lat="49.31799" lon="-1.10926">
        <ele>3.509038</ele>
        <time>2022-08-02T09:10:48.000Z</time>
      </trkpt>
      <trkpt lat="49.318" lon="-1.10923">
        <ele>3.503187</ele>
        <time>2022-08-02T09:10:49.000Z</time>
      </trkpt>
      <trkpt lat="49.31801" lon="-1.1092">
        <ele>3.497844</ele>
        <time>2022-08-02T09:10:50.000Z</time>
      </trkpt>
      <trkpt lat="49.31804" lon="-1.10918">
        <ele>3.489698</ele>
        <time>2022-08-02T09:10:52.000Z</time>
      </trkpt>
      <trkpt lat="49.31806" lon="-1.10918">
        <ele>3.484098</ele>
        <time>2022-08-02T09:10:53.000Z</time>
      </trkpt>
      <trkpt lat="49.3181" lon="-1.1092">
        <ele>3.472929</ele>
        <time>2022-08-02T09:10:55.000Z</time>
      </trkpt>
      <trkpt lat="49.31812" lon="-1.10922">
        <ele>3.466689</ele>
        <time>2022-08-02T09:10:56.000Z</time>
      </trkpt>
      <trkpt lat="49.31813" lon="-1.10924">
        <ele>3.459694</ele>
        <time>2022-08-02T09:10:57.000Z</time>
      </trkpt>
      <trkpt lat="49.31815" lon="-1.10927">
        <ele>3.452249</ele>
        <time>2022-08-02T09:10:58.000Z</time>
      </trkpt>
      <trkpt lat="49.31817" lon="-1.10929">
        <ele>3.445867</ele>
        <time>2022-08-02T09:10:59.000Z</time>
      </trkpt>
      <trkpt lat="49.31819" lon="-1.10931">
        <ele>3.438627</ele>
        <time>2022-08-02T09:11:00.000Z</time>
      </trkpt>
      <trkpt lat="49.31821" lon="-1.10934">
        <ele>3.43139</ele>
        <time>2022-08-02T09:11:01.000Z</time>
      </trkpt>
      <trkpt lat="49.31824" lon="-1.10937">
        <ele>3.422513</ele>
        <time>2022-08-02T09:11:02.000Z</time>
      </trkpt>
      <trkpt lat="49.31827" lon="-1.1094">
        <ele>3.41253</ele>
        <time>2022-08-02T09:11:03.000Z</time>
      </trkpt>
      <trkpt lat="49.31829" lon="-1.10943">
        <ele>3.402773</ele>
        <time>2022-08-02T09:11:04.000Z</time>
      </trkpt>
      <trkpt lat="49.31833" lon="-1.10946">
        <ele>3.392654</ele>
        <time>2022-08-02T09:11:05.000Z</time>
      </trkpt>
      <trkpt lat="49.31836" lon="-1.10949">
        <ele>3.381206</ele>
        <time>2022-08-02T09:11:06.000Z</time>
      </trkpt>
      <trkpt lat="49.31839" lon="-1.10952">
        <ele>3.370726</ele>
        <time>2022-08-02T09:11:07.000Z</time>
      </trkpt>
      <trkpt lat="49.31843" lon="-1.10955">
        <ele>3.358613</ele>
        <time>2022-08-02T09:11:08.000Z</time>
      </trkpt>
      <trkpt lat="49.31847" lon="-1.10958">
        <ele>3.347227</ele>
        <time>2022-08-02T09:11:09.000Z</time>
      </trkpt>
      <trkpt lat="49.31851" lon="-1.10962">
        <ele>3.334601</ele>
        <time>2022-08-02T09:11:10.000Z</time>
      </trkpt>
      <trkpt lat="49.31854" lon="-1.10965">
        <ele>3.323826</ele>
        <time>2022-08-02T09:11:11.000Z</time>
      </trkpt>
      <trkpt lat="49.31857" lon="-1.10969">
        <ele>3.311409</ele>
        <time>2022-08-02T09:11:12.000Z</time>
      </trkpt>
      <trkpt lat="49.31861" lon="-1.10973">
        <ele>3.299213</ele>
        <time>2022-08-02T09:11:13.000Z</time>
      </trkpt>
      <trkpt lat="49.31864" lon="-1.10977">
        <ele>3.287017</ele>
        <time>2022-08-02T09:11:14.000Z</time>
      </trkpt>
      <trkpt lat="49.31868" lon="-1.10981">
        <ele>3.27482</ele>
        <time>2022-08-02T09:11:15.000Z</time>
      </trkpt>
      <trkpt lat="49.31872" lon="-1.10985">
        <ele>3.259218</ele>
        <time>2022-08-02T09:11:16.000Z</time>
      </trkpt>
      <trkpt lat="49.31876" lon="-1.10989">
        <ele>3.242641</ele>
        <time>2022-08-02T09:11:17.000Z</time>
      </trkpt>
      <trkpt lat="49.3188" lon="-1.10993">
        <ele>3.225173</ele>
        <time>2022-08-02T09:11:18.000Z</time>
      </trkpt>
      <trkpt lat="49.31884" lon="-1.10996">
        <ele>3.205667</ele>
        <time>2022-08-02T09:11:19.000Z</time>
      </trkpt>
      <trkpt lat="49.31888" lon="-1.11">
        <ele>3.189515</ele>
        <time>2022-08-02T09:11:20.000Z</time>
      </trkpt>
      <trkpt lat="49.31892" lon="-1.11004">
        <ele>3.169408</ele>
        <time>2022-08-02T09:11:21.000Z</time>
      </trkpt>
      <trkpt lat="49.31896" lon="-1.11008">
        <ele>3.152535</ele>
        <time>2022-08-02T09:11:22.000Z</time>
      </trkpt>
      <trkpt lat="49.319" lon="-1.11011">
        <ele>3.132676</ele>
        <time>2022-08-02T09:11:23.000Z</time>
      </trkpt>
      <trkpt lat="49.31904" lon="-1.11015">
        <ele>3.116243</ele>
        <time>2022-08-02T09:11:24.000Z</time>
      </trkpt>
      <trkpt lat="49.31908" lon="-1.11018">
        <ele>3.099362</ele>
        <time>2022-08-02T09:11:25.000Z</time>
      </trkpt>
      <trkpt lat="49.31912" lon="-1.11021">
        <ele>3.080393</ele>
        <time>2022-08-02T09:11:26.000Z</time>
      </trkpt>
      <trkpt lat="49.31915" lon="-1.11025">
        <ele>3.065625</ele>
        <time>2022-08-02T09:11:27.000Z</time>
      </trkpt>
      <trkpt lat="49.31919" lon="-1.11028">
        <ele>3.049743</ele>
        <time>2022-08-02T09:11:28.000Z</time>
      </trkpt>
      <trkpt lat="49.31922" lon="-1.11031">
        <ele>3.033727</ele>
        <time>2022-08-02T09:11:29.000Z</time>
      </trkpt>
      <trkpt lat="49.31925" lon="-1.11035">
        <ele>3.019768</ele>
        <time>2022-08-02T09:11:30.000Z</time>
      </trkpt>
      <trkpt lat="49.31929" lon="-1.11038">
        <ele>3.002548</ele>
        <time>2022-08-02T09:11:31.000Z</time>
      </trkpt>
      <trkpt lat="49.31933" lon="-1.11041">
        <ele>2.98579</ele>
        <time>2022-08-02T09:11:32.000Z</time>
      </trkpt>
      <trkpt lat="49.31937" lon="-1.11044">
        <ele>2.969267</ele>
        <time>2022-08-02T09:11:33.000Z</time>
      </trkpt>
      <trkpt lat="49.31941" lon="-1.11048">
        <ele>2.951799</ele>
        <time>2022-08-02T09:11:34.000Z</time>
      </trkpt>
      <trkpt lat="49.31944" lon="-1.11051">
        <ele>2.934664</ele>
        <time>2022-08-02T09:11:35.000Z</time>
      </trkpt>
      <trkpt lat="49.31949" lon="-1.11055">
        <ele>2.91594</ele>
        <time>2022-08-02T09:11:36.000Z</time>
      </trkpt>
      <trkpt lat="49.31953" lon="-1.11059">
        <ele>2.897421</ele>
        <time>2022-08-02T09:11:37.000Z</time>
      </trkpt>
      <trkpt lat="49.31957" lon="-1.11062">
        <ele>2.879509</ele>
        <time>2022-08-02T09:11:38.000Z</time>
      </trkpt>
      <trkpt lat="49.31962" lon="-1.11065">
        <ele>2.859174</ele>
        <time>2022-08-02T09:11:39.000Z</time>
      </trkpt>
      <trkpt lat="49.31966" lon="-1.11068">
        <ele>2.839669</ele>
        <time>2022-08-02T09:11:40.000Z</time>
      </trkpt>
      <trkpt lat="49.31971" lon="-1.11072">
        <ele>2.819562</ele>
        <time>2022-08-02T09:11:41.000Z</time>
      </trkpt>
      <trkpt lat="49.31975" lon="-1.11077">
        <ele>2.800218</ele>
        <time>2022-08-02T09:11:42.000Z</time>
      </trkpt>
      <trkpt lat="49.31979" lon="-1.11081">
        <ele>2.780697</ele>
        <time>2022-08-02T09:11:43.000Z</time>
      </trkpt>
      <trkpt lat="49.31983" lon="-1.11086">
        <ele>2.761207</ele>
        <time>2022-08-02T09:11:44.000Z</time>
      </trkpt>
      <trkpt lat="49.31988" lon="-1.1109">
        <ele>2.739717</ele>
        <time>2022-08-02T09:11:45.000Z</time>
      </trkpt>
      <trkpt lat="49.31992" lon="-1.11094">
        <ele>2.719353</ele>
        <time>2022-08-02T09:11:46.000Z</time>
      </trkpt>
      <trkpt lat="49.31997" lon="-1.11099">
        <ele>2.698587</ele>
        <time>2022-08-02T09:11:47.000Z</time>
      </trkpt>
      <trkpt lat="49.32002" lon="-1.11103">
        <ele>2.676572</ele>
        <time>2022-08-02T09:11:48.000Z</time>
      </trkpt>
      <trkpt lat="49.32005" lon="-1.11107">
        <ele>2.658611</ele>
        <time>2022-08-02T09:11:49.000Z</time>
      </trkpt>
      <trkpt lat="49.3201" lon="-1.11112">
        <ele>2.638806</ele>
        <time>2022-08-02T09:11:50.000Z</time>
      </trkpt>
      <trkpt lat="49.32014" lon="-1.11116">
        <ele>2.619423</ele>
        <time>2022-08-02T09:11:51.000Z</time>
      </trkpt>
      <trkpt lat="49.32018" lon="-1.1112">
        <ele>2.600904</ele>
        <time>2022-08-02T09:11:52.000Z</time>
      </trkpt>
      <trkpt lat="49.32022" lon="-1.11124">
        <ele>2.580923</ele>
        <time>2022-08-02T09:11:53.000Z</time>
      </trkpt>
      <trkpt lat="49.32027" lon="-1.11127">
        <ele>2.575867</ele>
        <time>2022-08-02T09:11:54.000Z</time>
      </trkpt>
      <trkpt lat="49.32031" lon="-1.11131">
        <ele>2.605307</ele>
        <time>2022-08-02T09:11:55.000Z</time>
      </trkpt>
      <trkpt lat="49.32035" lon="-1.11134">
        <ele>2.634296</ele>
        <time>2022-08-02T09:11:56.000Z</time>
      </trkpt>
      <trkpt lat="49.32039" lon="-1.11138">
        <ele>2.664143</ele>
        <time>2022-08-02T09:11:57.000Z</time>
      </trkpt>
      <trkpt lat="49.32043" lon="-1.11142">
        <ele>2.692914</ele>
        <time>2022-08-02T09:11:58.000Z</time>
      </trkpt>
      <trkpt lat="49.32047" lon="-1.11145">
        <ele>2.726439</ele>
        <time>2022-08-02T09:11:59.000Z</time>
      </trkpt>
      <trkpt lat="49.32052" lon="-1.11149">
        <ele>2.755682</ele>
        <time>2022-08-02T09:12:00.000Z</time>
      </trkpt>
      <trkpt lat="49.32056" lon="-1.11152">
        <ele>2.78529</ele>
        <time>2022-08-02T09:12:01.000Z</time>
      </trkpt>
      <trkpt lat="49.3206" lon="-1.11156">
        <ele>2.816947</ele>
        <time>2022-08-02T09:12:02.000Z</time>
      </trkpt>
      <trkpt lat="49.32064" lon="-1.1116">
        <ele>2.845863</ele>
        <time>2022-08-02T09:12:03.000Z</time>
      </trkpt>
      <trkpt lat="49.32068" lon="-1.11164">
        <ele>2.87525</ele>
        <time>2022-08-02T09:12:04.000Z</time>
      </trkpt>
      <trkpt lat="49.32071" lon="-1.11167">
        <ele>2.901563</ele>
        <time>2022-08-02T09:12:05.000Z</time>
      </trkpt>
      <trkpt lat="49.32074" lon="-1.11169">
        <ele>2.920458</ele>
        <time>2022-08-02T09:12:06.000Z</time>
      </trkpt>
      <trkpt lat="49.32078" lon="-1.11169">
        <ele>2.943046</ele>
        <time>2022-08-02T09:12:07.000Z</time>
      </trkpt>
      <trkpt lat="49.32081" lon="-1.11167">
        <ele>2.966082</ele>
        <time>2022-08-02T09:12:08.000Z</time>
      </trkpt>
      <trkpt lat="49.32085" lon="-1.11165">
        <ele>2.989517</ele>
        <time>2022-08-02T09:12:09.000Z</time>
      </trkpt>
      <trkpt lat="49.32088" lon="-1.11163">
        <ele>3.012951</ele>
        <time>2022-08-02T09:12:10.000Z</time>
      </trkpt>
      <trkpt lat="49.32093" lon="-1.11161">
        <ele>3.042586</ele>
        <time>2022-08-02T09:12:11.000Z</time>
      </trkpt>
      <trkpt lat="49.32097" lon="-1.11159">
        <ele>3.067929</ele>
        <time>2022-08-02T09:12:12.000Z</time>
      </trkpt>
      <trkpt lat="49.321" lon="-1.11156">
        <ele>3.092558</ele>
        <time>2022-08-02T09:12:13.000Z</time>
      </trkpt>
      <trkpt lat="49.32104" lon="-1.11154">
        <ele>3.118501</ele>
        <time>2022-08-02T09:12:14.000Z</time>
      </trkpt>
      <trkpt lat="49.32108" lon="-1.11151">
        <ele>3.142726</ele>
        <time>2022-08-02T09:12:15.000Z</time>
      </trkpt>
      <trkpt lat="49.32111" lon="-1.11149">
        <ele>3.169407</ele>
        <time>2022-08-02T09:12:16.000Z</time>
      </trkpt>
      <trkpt lat="49.32115" lon="-1.11146">
        <ele>3.194366</ele>
        <time>2022-08-02T09:12:17.000Z</time>
      </trkpt>
      <trkpt lat="49.32119" lon="-1.11143">
        <ele>3.221371</ele>
        <time>2022-08-02T09:12:18.000Z</time>
      </trkpt>
      <trkpt lat="49.32122" lon="-1.11139">
        <ele>3.244523</ele>
        <time>2022-08-02T09:12:19.000Z</time>
      </trkpt>
      <trkpt lat="49.32125" lon="-1.11135">
        <ele>3.271665</ele>
        <time>2022-08-02T09:12:20.000Z</time>
      </trkpt>
      <trkpt lat="49.32128" lon="-1.11131">
        <ele>3.296409</ele>
        <time>2022-08-02T09:12:21.000Z</time>
      </trkpt>
      <trkpt lat="49.32131" lon="-1.11127">
        <ele>3.322309</ele>
        <time>2022-08-02T09:12:22.000Z</time>
      </trkpt>
      <trkpt lat="49.32135" lon="-1.11124">
        <ele>3.348978</ele>
        <time>2022-08-02T09:12:23.000Z</time>
      </trkpt>
      <trkpt lat="49.32138" lon="-1.1112">
        <ele>3.372645</ele>
        <time>2022-08-02T09:12:24.000Z</time>
      </trkpt>
      <trkpt lat="49.32141" lon="-1.11116">
        <ele>3.400275</ele>
        <time>2022-08-02T09:12:25.000Z</time>
      </trkpt>
      <trkpt lat="49.32145" lon="-1.11112">
        <ele>3.428156</ele>
        <time>2022-08-02T09:12:26.000Z</time>
      </trkpt>
      <trkpt lat="49.32148" lon="-1.11107">
        <ele>3.454848</ele>
        <time>2022-08-02T09:12:27.000Z</time>
      </trkpt>
      <trkpt lat="49.32151" lon="-1.11103">
        <ele>3.48181</ele>
        <time>2022-08-02T09:12:28.000Z</time>
      </trkpt>
      <trkpt lat="49.32154" lon="-1.11098">
        <ele>3.509326</ele>
        <time>2022-08-02T09:12:29.000Z</time>
      </trkpt>
      <trkpt lat="49.32157" lon="-1.11093">
        <ele>3.536394</ele>
        <time>2022-08-02T09:12:30.000Z</time>
      </trkpt>
      <trkpt lat="49.3216" lon="-1.11088">
        <ele>3.565941</ele>
        <time>2022-08-02T09:12:31.000Z</time>
      </trkpt>
      <trkpt lat="49.32163" lon="-1.11083">
        <ele>3.592666</ele>
        <time>2022-08-02T09:12:32.000Z</time>
      </trkpt>
      <trkpt lat="49.32165" lon="-1.11077">
        <ele>3.619093</ele>
        <time>2022-08-02T09:12:33.000Z</time>
      </trkpt>
      <trkpt lat="49.32168" lon="-1.11072">
        <ele>3.648639</ele>
        <time>2022-08-02T09:12:34.000Z</time>
      </trkpt>
      <trkpt lat="49.32171" lon="-1.11067">
        <ele>3.67694</ele>
        <time>2022-08-02T09:12:35.000Z</time>
      </trkpt>
      <trkpt lat="49.32174" lon="-1.11061">
        <ele>3.69589</ele>
        <time>2022-08-02T09:12:36.000Z</time>
      </trkpt>
      <trkpt lat="49.32177" lon="-1.11056">
        <ele>3.69485</ele>
        <time>2022-08-02T09:12:37.000Z</time>
      </trkpt>
      <trkpt lat="49.3218" lon="-1.11051">
        <ele>3.693787</ele>
        <time>2022-08-02T09:12:38.000Z</time>
      </trkpt>
      <trkpt lat="49.32182" lon="-1.11045">
        <ele>3.692817</ele>
        <time>2022-08-02T09:12:39.000Z</time>
      </trkpt>
      <trkpt lat="49.32185" lon="-1.1104">
        <ele>3.691796</ele>
        <time>2022-08-02T09:12:40.000Z</time>
      </trkpt>
      <trkpt lat="49.32188" lon="-1.11034">
        <ele>3.690711</ele>
        <time>2022-08-02T09:12:41.000Z</time>
      </trkpt>
      <trkpt lat="49.32191" lon="-1.11029">
        <ele>3.689703</ele>
        <time>2022-08-02T09:12:42.000Z</time>
      </trkpt>
      <trkpt lat="49.32193" lon="-1.11023">
        <ele>3.688682</ele>
        <time>2022-08-02T09:12:43.000Z</time>
      </trkpt>
      <trkpt lat="49.32196" lon="-1.11018">
        <ele>3.687619</ele>
        <time>2022-08-02T09:12:44.000Z</time>
      </trkpt>
      <trkpt lat="49.32199" lon="-1.11012">
        <ele>3.686561</ele>
        <time>2022-08-02T09:12:45.000Z</time>
      </trkpt>
      <trkpt lat="49.32201" lon="-1.11006">
        <ele>3.685502</ele>
        <time>2022-08-02T09:12:46.000Z</time>
      </trkpt>
      <trkpt lat="49.32204" lon="-1.11">
        <ele>3.684432</ele>
        <time>2022-08-02T09:12:47.000Z</time>
      </trkpt>
      <trkpt lat="49.32206" lon="-1.10994">
        <ele>3.68331</ele>
        <time>2022-08-02T09:12:48.000Z</time>
      </trkpt>
      <trkpt lat="49.32209" lon="-1.10988">
        <ele>3.682227</ele>
        <time>2022-08-02T09:12:49.000Z</time>
      </trkpt>
      <trkpt lat="49.32211" lon="-1.10982">
        <ele>3.681166</ele>
        <time>2022-08-02T09:12:50.000Z</time>
      </trkpt>
      <trkpt lat="49.32213" lon="-1.10975">
        <ele>3.680096</ele>
        <time>2022-08-02T09:12:51.000Z</time>
      </trkpt>
      <trkpt lat="49.32215" lon="-1.10968">
        <ele>3.678998</ele>
        <time>2022-08-02T09:12:52.000Z</time>
      </trkpt>
      <trkpt lat="49.32217" lon="-1.10962">
        <ele>3.677911</ele>
        <time>2022-08-02T09:12:53.000Z</time>
      </trkpt>
      <trkpt lat="49.32219" lon="-1.10955">
        <ele>3.676804</ele>
        <time>2022-08-02T09:12:54.000Z</time>
      </trkpt>
      <trkpt lat="49.3222" lon="-1.10948">
        <ele>3.67576</ele>
        <time>2022-08-02T09:12:55.000Z</time>
      </trkpt>
      <trkpt lat="49.32222" lon="-1.10942">
        <ele>3.674757</ele>
        <time>2022-08-02T09:12:56.000Z</time>
      </trkpt>
      <trkpt lat="49.32224" lon="-1.10936">
        <ele>3.673741</ele>
        <time>2022-08-02T09:12:57.000Z</time>
      </trkpt>
      <trkpt lat="49.32226" lon="-1.1093">
        <ele>3.672712</ele>
        <time>2022-08-02T09:12:58.000Z</time>
      </trkpt>
      <trkpt lat="49.32227" lon="-1.10924">
        <ele>3.671719</ele>
        <time>2022-08-02T09:12:59.000Z</time>
      </trkpt>
      <trkpt lat="49.32229" lon="-1.10917">
        <ele>3.670662</ele>
        <time>2022-08-02T09:13:00.000Z</time>
      </trkpt>
      <trkpt lat="49.32231" lon="-1.10911">
        <ele>3.669591</ele>
        <time>2022-08-02T09:13:01.000Z</time>
      </trkpt>
      <trkpt lat="49.32233" lon="-1.10905">
        <ele>3.668575</ele>
        <time>2022-08-02T09:13:02.000Z</time>
      </trkpt>
      <trkpt lat="49.32234" lon="-1.10898">
        <ele>3.667531</ele>
        <time>2022-08-02T09:13:03.000Z</time>
      </trkpt>
      <trkpt lat="49.32236" lon="-1.10892">
        <ele>3.666487</ele>
        <time>2022-08-02T09:13:04.000Z</time>
      </trkpt>
      <trkpt lat="49.32237" lon="-1.10885">
        <ele>3.665465</ele>
        <time>2022-08-02T09:13:05.000Z</time>
      </trkpt>
      <trkpt lat="49.32239" lon="-1.10878">
        <ele>3.664393</ele>
        <time>2022-08-02T09:13:06.000Z</time>
      </trkpt>
      <trkpt lat="49.3224" lon="-1.10872">
        <ele>3.663349</ele>
        <time>2022-08-02T09:13:07.000Z</time>
      </trkpt>
      <trkpt lat="49.32242" lon="-1.10865">
        <ele>3.662305</ele>
        <time>2022-08-02T09:13:08.000Z</time>
      </trkpt>
      <trkpt lat="49.32244" lon="-1.10859">
        <ele>3.661262</ele>
        <time>2022-08-02T09:13:09.000Z</time>
      </trkpt>
      <trkpt lat="49.32246" lon="-1.10852">
        <ele>3.660154</ele>
        <time>2022-08-02T09:13:10.000Z</time>
      </trkpt>
      <trkpt lat="49.32247" lon="-1.10846">
        <ele>3.659139</ele>
        <time>2022-08-02T09:13:11.000Z</time>
      </trkpt>
      <trkpt lat="49.32249" lon="-1.1084">
        <ele>3.658086</ele>
        <time>2022-08-02T09:13:12.000Z</time>
      </trkpt>
      <trkpt lat="49.32251" lon="-1.10833">
        <ele>3.657015</ele>
        <time>2022-08-02T09:13:13.000Z</time>
      </trkpt>
      <trkpt lat="49.32253" lon="-1.10827">
        <ele>3.656013</ele>
        <time>2022-08-02T09:13:14.000Z</time>
      </trkpt>
      <trkpt lat="49.32255" lon="-1.10821">
        <ele>3.654939</ele>
        <time>2022-08-02T09:13:15.000Z</time>
      </trkpt>
      <trkpt lat="49.32256" lon="-1.10814">
        <ele>3.666604</ele>
        <time>2022-08-02T09:13:16.000Z</time>
      </trkpt>
      <trkpt lat="49.32258" lon="-1.10807">
        <ele>3.680793</ele>
        <time>2022-08-02T09:13:17.000Z</time>
      </trkpt>
      <trkpt lat="49.3226" lon="-1.10801">
        <ele>3.694468</ele>
        <time>2022-08-02T09:13:18.000Z</time>
      </trkpt>
      <trkpt lat="49.32261" lon="-1.10794">
        <ele>3.708043</ele>
        <time>2022-08-02T09:13:19.000Z</time>
      </trkpt>
      <trkpt lat="49.32263" lon="-1.10787">
        <ele>3.7219</ele>
        <time>2022-08-02T09:13:20.000Z</time>
      </trkpt>
      <trkpt lat="49.32264" lon="-1.10781">
        <ele>3.735575</ele>
        <time>2022-08-02T09:13:21.000Z</time>
      </trkpt>
      <trkpt lat="49.32266" lon="-1.10774">
        <ele>3.749431</ele>
        <time>2022-08-02T09:13:22.000Z</time>
      </trkpt>
      <trkpt lat="49.32267" lon="-1.10767">
        <ele>3.762608</ele>
        <time>2022-08-02T09:13:23.000Z</time>
      </trkpt>
      <trkpt lat="49.32268" lon="-1.10761">
        <ele>3.775133</ele>
        <time>2022-08-02T09:13:24.000Z</time>
      </trkpt>
      <trkpt lat="49.32268" lon="-1.10755">
        <ele>3.786785</ele>
        <time>2022-08-02T09:13:25.000Z</time>
      </trkpt>
      <trkpt lat="49.32267" lon="-1.10749">
        <ele>3.798957</ele>
        <time>2022-08-02T09:13:26.000Z</time>
      </trkpt>
      <trkpt lat="49.32266" lon="-1.10743">
        <ele>3.810411</ele>
        <time>2022-08-02T09:13:27.000Z</time>
      </trkpt>
      <trkpt lat="49.32266" lon="-1.10737">
        <ele>3.821624</ele>
        <time>2022-08-02T09:13:28.000Z</time>
      </trkpt>
      <trkpt lat="49.32264" lon="-1.10731">
        <ele>3.833902</ele>
        <time>2022-08-02T09:13:29.000Z</time>
      </trkpt>
      <trkpt lat="49.32263" lon="-1.10725">
        <ele>3.846181</ele>
        <time>2022-08-02T09:13:30.000Z</time>
      </trkpt>
      <trkpt lat="49.32262" lon="-1.10719">
        <ele>3.858137</ele>
        <time>2022-08-02T09:13:31.000Z</time>
      </trkpt>
      <trkpt lat="49.32261" lon="-1.10713">
        <ele>3.870906</ele>
        <time>2022-08-02T09:13:32.000Z</time>
      </trkpt>
      <trkpt lat="49.32259" lon="-1.10707">
        <ele>3.884217</ele>
        <time>2022-08-02T09:13:33.000Z</time>
      </trkpt>
      <trkpt lat="49.32258" lon="-1.10701">
        <ele>3.896432</ele>
        <time>2022-08-02T09:13:34.000Z</time>
      </trkpt>
      <trkpt lat="49.32257" lon="-1.10695">
        <ele>3.90908</ele>
        <time>2022-08-02T09:13:35.000Z</time>
      </trkpt>
      <trkpt lat="49.32256" lon="-1.10688">
        <ele>3.921415</ele>
        <time>2022-08-02T09:13:36.000Z</time>
      </trkpt>
      <trkpt lat="49.32254" lon="-1.10682">
        <ele>3.934004</ele>
        <time>2022-08-02T09:13:37.000Z</time>
      </trkpt>
      <trkpt lat="49.32253" lon="-1.10676">
        <ele>3.946773</ele>
        <time>2022-08-02T09:13:38.000Z</time>
      </trkpt>
      <trkpt lat="49.32251" lon="-1.1067">
        <ele>3.959723</ele>
        <time>2022-08-02T09:13:39.000Z</time>
      </trkpt>
      <trkpt lat="49.3225" lon="-1.10664">
        <ele>3.971633</ele>
        <time>2022-08-02T09:13:40.000Z</time>
      </trkpt>
      <trkpt lat="49.32249" lon="-1.10659">
        <ele>3.982722</ele>
        <time>2022-08-02T09:13:41.000Z</time>
      </trkpt>
      <trkpt lat="49.32248" lon="-1.10654">
        <ele>3.992472</ele>
        <time>2022-08-02T09:13:42.000Z</time>
      </trkpt>
      <trkpt lat="49.32248" lon="-1.10649">
        <ele>4.001257</ele>
        <time>2022-08-02T09:13:43.000Z</time>
      </trkpt>
      <trkpt lat="49.32248" lon="-1.10645">
        <ele>4.009848</ele>
        <time>2022-08-02T09:13:44.000Z</time>
      </trkpt>
      <trkpt lat="49.32248" lon="-1.10641">
        <ele>4.01781</ele>
        <time>2022-08-02T09:13:45.000Z</time>
      </trkpt>
      <trkpt lat="49.32247" lon="-1.10636">
        <ele>4.026605</ele>
        <time>2022-08-02T09:13:46.000Z</time>
      </trkpt>
      <trkpt lat="49.32247" lon="-1.10632">
        <ele>4.035003</ele>
        <time>2022-08-02T09:13:47.000Z</time>
      </trkpt>
      <trkpt lat="49.32246" lon="-1.10628">
        <ele>4.043589</ele>
        <time>2022-08-02T09:13:48.000Z</time>
      </trkpt>
      <trkpt lat="49.32244" lon="-1.10623">
        <ele>4.053543</ele>
        <time>2022-08-02T09:13:49.000Z</time>
      </trkpt>
      <trkpt lat="49.32242" lon="-1.10619">
        <ele>4.06412</ele>
        <time>2022-08-02T09:13:50.000Z</time>
      </trkpt>
      <trkpt lat="49.32241" lon="-1.10614">
        <ele>4.074075</ele>
        <time>2022-08-02T09:13:51.000Z</time>
      </trkpt>
      <trkpt lat="49.32239" lon="-1.1061">
        <ele>4.084544</ele>
        <time>2022-08-02T09:13:52.000Z</time>
      </trkpt>
      <trkpt lat="49.32237" lon="-1.10605">
        <ele>4.09545</ele>
        <time>2022-08-02T09:13:53.000Z</time>
      </trkpt>
      <trkpt lat="49.32236" lon="-1.106">
        <ele>4.106265</ele>
        <time>2022-08-02T09:13:54.000Z</time>
      </trkpt>
      <trkpt lat="49.32234" lon="-1.10594">
        <ele>4.118698</ele>
        <time>2022-08-02T09:13:55.000Z</time>
      </trkpt>
      <trkpt lat="49.32232" lon="-1.10588">
        <ele>4.130786</ele>
        <time>2022-08-02T09:13:56.000Z</time>
      </trkpt>
      <trkpt lat="49.3223" lon="-1.10583">
        <ele>4.143318</ele>
        <time>2022-08-02T09:13:57.000Z</time>
      </trkpt>
      <trkpt lat="49.32227" lon="-1.10577">
        <ele>4.156512</ele>
        <time>2022-08-02T09:13:58.000Z</time>
      </trkpt>
      <trkpt lat="49.32225" lon="-1.10572">
        <ele>4.169394</ele>
        <time>2022-08-02T09:13:59.000Z</time>
      </trkpt>
      <trkpt lat="49.32222" lon="-1.10567">
        <ele>4.181596</ele>
        <time>2022-08-02T09:14:00.000Z</time>
      </trkpt>
      <trkpt lat="49.3222" lon="-1.10562">
        <ele>4.190781</ele>
        <time>2022-08-02T09:14:01.000Z</time>
      </trkpt>
      <trkpt lat="49.32217" lon="-1.10557">
        <ele>4.191161</ele>
        <time>2022-08-02T09:14:02.000Z</time>
      </trkpt>
      <trkpt lat="49.32215" lon="-1.10552">
        <ele>4.191487</ele>
        <time>2022-08-02T09:14:03.000Z</time>
      </trkpt>
      <trkpt lat="49.32213" lon="-1.10548">
        <ele>4.191808</ele>
        <time>2022-08-02T09:14:04.000Z</time>
      </trkpt>
      <trkpt lat="49.3221" lon="-1.10543">
        <ele>4.192143</ele>
        <time>2022-08-02T09:14:05.000Z</time>
      </trkpt>
      <trkpt lat="49.32208" lon="-1.10538">
        <ele>4.192472</ele>
        <time>2022-08-02T09:14:06.000Z</time>
      </trkpt>
      <trkpt lat="49.32206" lon="-1.10533">
        <ele>4.192802</ele>
        <time>2022-08-02T09:14:07.000Z</time>
      </trkpt>
      <trkpt lat="49.32204" lon="-1.10528">
        <ele>4.193184</ele>
        <time>2022-08-02T09:14:08.000Z</time>
      </trkpt>
      <trkpt lat="49.32201" lon="-1.10523">
        <ele>4.193518</ele>
        <time>2022-08-02T09:14:09.000Z</time>
      </trkpt>
      <trkpt lat="49.32199" lon="-1.10518">
        <ele>4.193843</ele>
        <time>2022-08-02T09:14:10.000Z</time>
      </trkpt>
      <trkpt lat="49.32197" lon="-1.10513">
        <ele>4.194182</ele>
        <time>2022-08-02T09:14:11.000Z</time>
      </trkpt>
      <trkpt lat="49.32196" lon="-1.10508">
        <ele>4.194522</ele>
        <time>2022-08-02T09:14:12.000Z</time>
      </trkpt>
      <trkpt lat="49.32193" lon="-1.10503">
        <ele>4.194856</ele>
        <time>2022-08-02T09:14:13.000Z</time>
      </trkpt>
      <trkpt lat="49.32191" lon="-1.10498">
        <ele>4.195201</ele>
        <time>2022-08-02T09:14:14.000Z</time>
      </trkpt>
      <trkpt lat="49.32189" lon="-1.10494">
        <ele>4.195535</ele>
        <time>2022-08-02T09:14:15.000Z</time>
      </trkpt>
      <trkpt lat="49.32186" lon="-1.10489">
        <ele>4.195878</ele>
        <time>2022-08-02T09:14:16.000Z</time>
      </trkpt>
      <trkpt lat="49.32184" lon="-1.10485">
        <ele>4.196215</ele>
        <time>2022-08-02T09:14:17.000Z</time>
      </trkpt>
      <trkpt lat="49.32181" lon="-1.1048">
        <ele>4.196579</ele>
        <time>2022-08-02T09:14:18.000Z</time>
      </trkpt>
      <trkpt lat="49.32179" lon="-1.10475">
        <ele>4.196914</ele>
        <time>2022-08-02T09:14:19.000Z</time>
      </trkpt>
      <trkpt lat="49.32176" lon="-1.1047">
        <ele>4.197256</ele>
        <time>2022-08-02T09:14:20.000Z</time>
      </trkpt>
      <trkpt lat="49.32173" lon="-1.10466">
        <ele>4.197605</ele>
        <time>2022-08-02T09:14:21.000Z</time>
      </trkpt>
      <trkpt lat="49.32171" lon="-1.10462">
        <ele>4.197926</ele>
        <time>2022-08-02T09:14:22.000Z</time>
      </trkpt>
      <trkpt lat="49.32169" lon="-1.10457">
        <ele>4.198233</ele>
        <time>2022-08-02T09:14:23.000Z</time>
      </trkpt>
      <trkpt lat="49.32167" lon="-1.10453">
        <ele>4.198559</ele>
        <time>2022-08-02T09:14:24.000Z</time>
      </trkpt>
      <trkpt lat="49.32165" lon="-1.10449">
        <ele>4.198848</ele>
        <time>2022-08-02T09:14:25.000Z</time>
      </trkpt>
      <trkpt lat="49.32162" lon="-1.10445">
        <ele>4.199174</ele>
        <time>2022-08-02T09:14:26.000Z</time>
      </trkpt>
      <trkpt lat="49.3216" lon="-1.1044">
        <ele>4.199511</ele>
        <time>2022-08-02T09:14:27.000Z</time>
      </trkpt>
      <trkpt lat="49.32157" lon="-1.10436">
        <ele>4.199837</ele>
        <time>2022-08-02T09:14:28.000Z</time>
      </trkpt>
      <trkpt lat="49.32155" lon="-1.10431">
        <ele>4.200187</ele>
        <time>2022-08-02T09:14:29.000Z</time>
      </trkpt>
      <trkpt lat="49.32153" lon="-1.10426">
        <ele>4.200503</ele>
        <time>2022-08-02T09:14:30.000Z</time>
      </trkpt>
      <trkpt lat="49.32151" lon="-1.10422">
        <ele>4.200829</ele>
        <time>2022-08-02T09:14:31.000Z</time>
      </trkpt>
      <trkpt lat="49.32149" lon="-1.10417">
        <ele>4.201172</ele>
        <time>2022-08-02T09:14:32.000Z</time>
      </trkpt>
      <trkpt lat="49.32147" lon="-1.10412">
        <ele>4.201502</ele>
        <time>2022-08-02T09:14:33.000Z</time>
      </trkpt>
      <trkpt lat="49.32144" lon="-1.10407">
        <ele>4.201851</ele>
        <time>2022-08-02T09:14:34.000Z</time>
      </trkpt>
      <trkpt lat="49.32142" lon="-1.10402">
        <ele>4.202197</ele>
        <time>2022-08-02T09:14:35.000Z</time>
      </trkpt>
      <trkpt lat="49.32139" lon="-1.10397">
        <ele>4.202539</ele>
        <time>2022-08-02T09:14:36.000Z</time>
      </trkpt>
      <trkpt lat="49.32137" lon="-1.10393">
        <ele>4.202895</ele>
        <time>2022-08-02T09:14:37.000Z</time>
      </trkpt>
      <trkpt lat="49.32135" lon="-1.10388">
        <ele>4.203225</ele>
        <time>2022-08-02T09:14:38.000Z</time>
      </trkpt>
      <trkpt lat="49.32133" lon="-1.10383">
        <ele>4.203569</ele>
        <time>2022-08-02T09:14:39.000Z</time>
      </trkpt>
      <trkpt lat="49.3213" lon="-1.10378">
        <ele>4.203929</ele>
        <time>2022-08-02T09:14:40.000Z</time>
      </trkpt>
      <trkpt lat="49.32127" lon="-1.10374">
        <ele>4.20425</ele>
        <time>2022-08-02T09:14:41.000Z</time>
      </trkpt>
      <trkpt lat="49.32125" lon="-1.10369">
        <ele>4.204576</ele>
        <time>2022-08-02T09:14:42.000Z</time>
      </trkpt>
      <trkpt lat="49.32123" lon="-1.10364">
        <ele>4.204906</ele>
        <time>2022-08-02T09:14:43.000Z</time>
      </trkpt>
      <trkpt lat="49.32121" lon="-1.1036">
        <ele>4.205245</ele>
        <time>2022-08-02T09:14:44.000Z</time>
      </trkpt>
      <trkpt lat="49.32119" lon="-1.10355">
        <ele>4.20556</ele>
        <time>2022-08-02T09:14:45.000Z</time>
      </trkpt>
      <trkpt lat="49.32116" lon="-1.1035">
        <ele>4.20592</ele>
        <time>2022-08-02T09:14:46.000Z</time>
      </trkpt>
      <trkpt lat="49.32114" lon="-1.10344">
        <ele>4.206292</ele>
        <time>2022-08-02T09:14:47.000Z</time>
      </trkpt>
      <trkpt lat="49.32113" lon="-1.10339">
        <ele>4.21159</ele>
        <time>2022-08-02T09:14:48.000Z</time>
      </trkpt>
      <trkpt lat="49.32111" lon="-1.10334">
        <ele>4.220472</ele>
        <time>2022-08-02T09:14:49.000Z</time>
      </trkpt>
      <trkpt lat="49.3211" lon="-1.10328">
        <ele>4.22958</ele>
        <time>2022-08-02T09:14:50.000Z</time>
      </trkpt>
      <trkpt lat="49.32109" lon="-1.10323">
        <ele>4.237872</ele>
        <time>2022-08-02T09:14:51.000Z</time>
      </trkpt>
      <trkpt lat="49.32108" lon="-1.10318">
        <ele>4.246701</ele>
        <time>2022-08-02T09:14:52.000Z</time>
      </trkpt>
      <trkpt lat="49.32107" lon="-1.10312">
        <ele>4.256192</ele>
        <time>2022-08-02T09:14:53.000Z</time>
      </trkpt>
      <trkpt lat="49.32106" lon="-1.10306">
        <ele>4.265532</ele>
        <time>2022-08-02T09:14:54.000Z</time>
      </trkpt>
      <trkpt lat="49.32106" lon="-1.103">
        <ele>4.274675</ele>
        <time>2022-08-02T09:14:55.000Z</time>
      </trkpt>
      <trkpt lat="49.32105" lon="-1.10295">
        <ele>4.283865</ele>
        <time>2022-08-02T09:14:56.000Z</time>
      </trkpt>
      <trkpt lat="49.32103" lon="-1.10289">
        <ele>4.292895</ele>
        <time>2022-08-02T09:14:57.000Z</time>
      </trkpt>
      <trkpt lat="49.32102" lon="-1.10284">
        <ele>4.302272</ele>
        <time>2022-08-02T09:14:58.000Z</time>
      </trkpt>
      <trkpt lat="49.32101" lon="-1.10278">
        <ele>4.310997</ele>
        <time>2022-08-02T09:14:59.000Z</time>
      </trkpt>
      <trkpt lat="49.321" lon="-1.10273">
        <ele>4.320374</ele>
        <time>2022-08-02T09:15:00.000Z</time>
      </trkpt>
      <trkpt lat="49.32098" lon="-1.10267">
        <ele>4.330467</ele>
        <time>2022-08-02T09:15:01.000Z</time>
      </trkpt>
      <trkpt lat="49.32097" lon="-1.10261">
        <ele>4.33961</ele>
        <time>2022-08-02T09:15:02.000Z</time>
      </trkpt>
      <trkpt lat="49.32096" lon="-1.10255">
        <ele>4.349559</ele>
        <time>2022-08-02T09:15:03.000Z</time>
      </trkpt>
      <trkpt lat="49.32095" lon="-1.10249">
        <ele>4.359201</ele>
        <time>2022-08-02T09:15:04.000Z</time>
      </trkpt>
      <trkpt lat="49.32093" lon="-1.10243">
        <ele>4.369006</ele>
        <time>2022-08-02T09:15:05.000Z</time>
      </trkpt>
      <trkpt lat="49.32091" lon="-1.10237">
        <ele>4.378973</ele>
        <time>2022-08-02T09:15:06.000Z</time>
      </trkpt>
      <trkpt lat="49.32089" lon="-1.10232">
        <ele>4.389153</ele>
        <time>2022-08-02T09:15:07.000Z</time>
      </trkpt>
      <trkpt lat="49.32087" lon="-1.10226">
        <ele>4.399196</ele>
        <time>2022-08-02T09:15:08.000Z</time>
      </trkpt>
      <trkpt lat="49.32085" lon="-1.10221">
        <ele>4.408342</ele>
        <time>2022-08-02T09:15:09.000Z</time>
      </trkpt>
      <trkpt lat="49.32082" lon="-1.10216">
        <ele>4.418762</ele>
        <time>2022-08-02T09:15:10.000Z</time>
      </trkpt>
      <trkpt lat="49.32079" lon="-1.10211">
        <ele>4.42845</ele>
        <time>2022-08-02T09:15:11.000Z</time>
      </trkpt>
      <trkpt lat="49.32077" lon="-1.10206">
        <ele>4.437977</ele>
        <time>2022-08-02T09:15:12.000Z</time>
      </trkpt>
      <trkpt lat="49.32075" lon="-1.10202">
        <ele>4.447113</ele>
        <time>2022-08-02T09:15:13.000Z</time>
      </trkpt>
      <trkpt lat="49.32072" lon="-1.10196">
        <ele>4.457316</ele>
        <time>2022-08-02T09:15:14.000Z</time>
      </trkpt>
      <trkpt lat="49.3207" lon="-1.10191">
        <ele>4.466838</ele>
        <time>2022-08-02T09:15:15.000Z</time>
      </trkpt>
      <trkpt lat="49.32068" lon="-1.10186">
        <ele>4.476239</ele>
        <time>2022-08-02T09:15:16.000Z</time>
      </trkpt>
      <trkpt lat="49.32066" lon="-1.10182">
        <ele>4.48475</ele>
        <time>2022-08-02T09:15:17.000Z</time>
      </trkpt>
      <trkpt lat="49.32063" lon="-1.10177">
        <ele>4.493758</ele>
        <time>2022-08-02T09:15:18.000Z</time>
      </trkpt>
      <trkpt lat="49.32061" lon="-1.10173">
        <ele>4.502784</ele>
        <time>2022-08-02T09:15:19.000Z</time>
      </trkpt>
      <trkpt lat="49.3206" lon="-1.10168">
        <ele>4.510765</ele>
        <time>2022-08-02T09:15:20.000Z</time>
      </trkpt>
      <trkpt lat="49.32057" lon="-1.10164">
        <ele>4.519523</ele>
        <time>2022-08-02T09:15:21.000Z</time>
      </trkpt>
      <trkpt lat="49.32055" lon="-1.1016">
        <ele>4.527827</ele>
        <time>2022-08-02T09:15:22.000Z</time>
      </trkpt>
      <trkpt lat="49.32053" lon="-1.10156">
        <ele>4.535408</ele>
        <time>2022-08-02T09:15:23.000Z</time>
      </trkpt>
      <trkpt lat="49.32051" lon="-1.10152">
        <ele>4.543597</ele>
        <time>2022-08-02T09:15:24.000Z</time>
      </trkpt>
      <trkpt lat="49.32049" lon="-1.10149">
        <ele>4.5505</ele>
        <time>2022-08-02T09:15:25.000Z</time>
      </trkpt>
      <trkpt lat="49.32047" lon="-1.10147">
        <ele>4.555737</ele>
        <time>2022-08-02T09:15:26.000Z</time>
      </trkpt>
      <trkpt lat="49.32045" lon="-1.10144">
        <ele>4.562138</ele>
        <time>2022-08-02T09:15:27.000Z</time>
      </trkpt>
      <trkpt lat="49.32044" lon="-1.10141">
        <ele>4.567593</ele>
        <time>2022-08-02T09:15:28.000Z</time>
      </trkpt>
      <trkpt lat="49.32042" lon="-1.10139">
        <ele>4.573886</ele>
        <time>2022-08-02T09:15:29.000Z</time>
      </trkpt>
      <trkpt lat="49.3204" lon="-1.10136">
        <ele>4.580179</ele>
        <time>2022-08-02T09:15:30.000Z</time>
      </trkpt>
      <trkpt lat="49.32038" lon="-1.10133">
        <ele>4.586918</ele>
        <time>2022-08-02T09:15:31.000Z</time>
      </trkpt>
      <trkpt lat="49.32036" lon="-1.10129">
        <ele>4.593321</ele>
        <time>2022-08-02T09:15:32.000Z</time>
      </trkpt>
      <trkpt lat="49.32035" lon="-1.10126">
        <ele>4.59985</ele>
        <time>2022-08-02T09:15:33.000Z</time>
      </trkpt>
      <trkpt lat="49.32032" lon="-1.10123">
        <ele>4.606863</ele>
        <time>2022-08-02T09:15:34.000Z</time>
      </trkpt>
      <trkpt lat="49.3203" lon="-1.10122">
        <ele>4.611832</ele>
        <time>2022-08-02T09:15:35.000Z</time>
      </trkpt>
      <trkpt lat="49.32029" lon="-1.10122">
        <ele>4.616371</ele>
        <time>2022-08-02T09:15:36.000Z</time>
      </trkpt>
      <trkpt lat="49.32027" lon="-1.10123">
        <ele>4.621077</ele>
        <time>2022-08-02T09:15:37.000Z</time>
      </trkpt>
      <trkpt lat="49.32024" lon="-1.10126">
        <ele>4.62989</ele>
        <time>2022-08-02T09:15:39.000Z</time>
      </trkpt>
      <trkpt lat="49.32022" lon="-1.10128">
        <ele>4.634513</ele>
        <time>2022-08-02T09:15:40.000Z</time>
      </trkpt>
      <trkpt lat="49.32021" lon="-1.10131">
        <ele>4.64153</ele>
        <time>2022-08-02T09:15:41.000Z</time>
      </trkpt>
      <trkpt lat="49.3202" lon="-1.10133">
        <ele>4.647541</ele>
        <time>2022-08-02T09:15:42.000Z</time>
      </trkpt>
      <trkpt lat="49.32018" lon="-1.10135">
        <ele>4.654853</ele>
        <time>2022-08-02T09:15:43.000Z</time>
      </trkpt>
      <trkpt lat="49.32018" lon="-1.10138">
        <ele>4.661237</ele>
        <time>2022-08-02T09:15:44.000Z</time>
      </trkpt>
      <trkpt lat="49.32018" lon="-1.10143">
        <ele>4.671287</ele>
        <time>2022-08-02T09:15:46.000Z</time>
      </trkpt>
      <trkpt lat="49.32016" lon="-1.10143">
        <ele>4.677716</ele>
        <time>2022-08-02T09:15:49.000Z</time>
      </trkpt>
      <trkpt lat="49.32011" lon="-1.10145">
        <ele>4.697083</ele>
        <time>2022-08-02T09:19:25.000Z</time>
      </trkpt>
      <trkpt lat="49.32009" lon="-1.10147">
        <ele>4.70529</ele>
        <time>2022-08-02T09:19:26.000Z</time>
      </trkpt>
      <trkpt lat="49.32007" lon="-1.10149">
        <ele>4.713101</ele>
        <time>2022-08-02T09:19:27.000Z</time>
      </trkpt>
      <trkpt lat="49.32005" lon="-1.10151">
        <ele>4.721521</ele>
        <time>2022-08-02T09:19:28.000Z</time>
      </trkpt>
      <trkpt lat="49.32002" lon="-1.10151">
        <ele>4.730195</ele>
        <time>2022-08-02T09:19:29.000Z</time>
      </trkpt>
      <trkpt lat="49.31999" lon="-1.10151">
        <ele>4.738634</ele>
        <time>2022-08-02T09:19:30.000Z</time>
      </trkpt>
      <trkpt lat="49.31996" lon="-1.1015">
        <ele>4.749362</ele>
        <time>2022-08-02T09:19:31.000Z</time>
      </trkpt>
      <trkpt lat="49.31993" lon="-1.10151">
        <ele>4.760054</ele>
        <time>2022-08-02T09:19:32.000Z</time>
      </trkpt>
      <trkpt lat="49.31991" lon="-1.10151">
        <ele>4.76792</ele>
        <time>2022-08-02T09:19:33.000Z</time>
      </trkpt>
      <trkpt lat="49.31988" lon="-1.10153">
        <ele>4.77704</ele>
        <time>2022-08-02T09:19:34.000Z</time>
      </trkpt>
      <trkpt lat="49.31986" lon="-1.10155">
        <ele>4.786741</ele>
        <time>2022-08-02T09:19:35.000Z</time>
      </trkpt>
      <trkpt lat="49.31983" lon="-1.10157">
        <ele>4.79675</ele>
        <time>2022-08-02T09:19:36.000Z</time>
      </trkpt>
      <trkpt lat="49.31981" lon="-1.1016">
        <ele>4.805099</ele>
        <time>2022-08-02T09:19:37.000Z</time>
      </trkpt>
      <trkpt lat="49.31979" lon="-1.10162">
        <ele>4.814102</ele>
        <time>2022-08-02T09:19:38.000Z</time>
      </trkpt>
      <trkpt lat="49.31977" lon="-1.10165">
        <ele>4.823259</ele>
        <time>2022-08-02T09:19:39.000Z</time>
      </trkpt>
      <trkpt lat="49.31975" lon="-1.10167">
        <ele>4.831331</ele>
        <time>2022-08-02T09:19:40.000Z</time>
      </trkpt>
      <trkpt lat="49.31973" lon="-1.1017">
        <ele>4.839264</ele>
        <time>2022-08-02T09:19:41.000Z</time>
      </trkpt>
      <trkpt lat="49.31972" lon="-1.10172">
        <ele>4.846561</ele>
        <time>2022-08-02T09:19:42.000Z</time>
      </trkpt>
      <trkpt lat="49.3197" lon="-1.10175">
        <ele>4.855052</ele>
        <time>2022-08-02T09:19:43.000Z</time>
      </trkpt>
      <trkpt lat="49.31968" lon="-1.10177">
        <ele>4.862617</ele>
        <time>2022-08-02T09:19:44.000Z</time>
      </trkpt>
      <trkpt lat="49.31966" lon="-1.10179">
        <ele>4.870302</ele>
        <time>2022-08-02T09:19:45.000Z</time>
      </trkpt>
      <trkpt lat="49.31964" lon="-1.10181">
        <ele>4.879119</ele>
        <time>2022-08-02T09:19:46.000Z</time>
      </trkpt>
      <trkpt lat="49.31962" lon="-1.10183">
        <ele>4.886432</ele>
        <time>2022-08-02T09:19:47.000Z</time>
      </trkpt>
      <trkpt lat="49.31961" lon="-1.10188">
        <ele>4.897406</ele>
        <time>2022-08-02T09:19:49.000Z</time>
      </trkpt>
      <trkpt lat="49.3196" lon="-1.10191">
        <ele>4.904538</ele>
        <time>2022-08-02T09:19:52.000Z</time>
      </trkpt>
      <trkpt lat="49.31958" lon="-1.10193">
        <ele>4.912223</ele>
        <time>2022-08-02T09:19:55.000Z</time>
      </trkpt>
      <trkpt lat="49.31962" lon="-1.10191">
        <ele>4.925309</ele>
        <time>2022-08-02T09:20:08.000Z</time>
      </trkpt>
      <trkpt lat="49.31965" lon="-1.10194">
        <ele>4.934711</ele>
        <time>2022-08-02T09:20:09.000Z</time>
      </trkpt>
      <trkpt lat="49.31966" lon="-1.10196">
        <ele>4.941594</ele>
        <time>2022-08-02T09:20:10.000Z</time>
      </trkpt>
      <trkpt lat="49.31968" lon="-1.10198">
        <ele>4.949533</ele>
        <time>2022-08-02T09:20:11.000Z</time>
      </trkpt>
      <trkpt lat="49.3197" lon="-1.10201">
        <ele>4.958171</ele>
        <time>2022-08-02T09:20:12.000Z</time>
      </trkpt>
      <trkpt lat="49.31971" lon="-1.10203">
        <ele>4.965123</ele>
        <time>2022-08-02T09:20:13.000Z</time>
      </trkpt>
      <trkpt lat="49.31973" lon="-1.10206">
        <ele>4.974374</ele>
        <time>2022-08-02T09:20:14.000Z</time>
      </trkpt>
      <trkpt lat="49.31974" lon="-1.10209">
        <ele>4.980566</ele>
        <time>2022-08-02T09:20:15.000Z</time>
      </trkpt>
      <trkpt lat="49.31976" lon="-1.10211">
        <ele>4.988183</ele>
        <time>2022-08-02T09:20:19.000Z</time>
      </trkpt>
      <trkpt lat="49.31978" lon="-1.1022">
        <ele>5.007662</ele>
        <time>2022-08-02T09:22:04.000Z</time>
      </trkpt>
      <trkpt lat="49.3198" lon="-1.10221">
        <ele>5.014153</ele>
        <time>2022-08-02T09:22:05.000Z</time>
      </trkpt>
      <trkpt lat="49.31981" lon="-1.10223">
        <ele>5.020192</ele>
        <time>2022-08-02T09:22:06.000Z</time>
      </trkpt>
      <trkpt lat="49.31983" lon="-1.10224">
        <ele>5.02713</ele>
        <time>2022-08-02T09:22:07.000Z</time>
      </trkpt>
      <trkpt lat="49.31987" lon="-1.10155">
        <ele>5.176615</ele>
        <time>2022-08-02T09:50:54.000Z</time>
      </trkpt>
      <trkpt lat="49.31989" lon="-1.10153">
        <ele>5.186688</ele>
        <time>2022-08-02T09:50:55.000Z</time>
      </trkpt>
      <trkpt lat="49.31992" lon="-1.1015">
        <ele>5.198354</ele>
        <time>2022-08-02T09:50:56.000Z</time>
      </trkpt>
      <trkpt lat="49.31995" lon="-1.10146">
        <ele>5.209748</ele>
        <time>2022-08-02T09:50:57.000Z</time>
      </trkpt>
      <trkpt lat="49.31997" lon="-1.10143">
        <ele>5.221485</ele>
        <time>2022-08-02T09:50:58.000Z</time>
      </trkpt>
      <trkpt lat="49.32" lon="-1.10139">
        <ele>5.233081</ele>
        <time>2022-08-02T09:50:59.000Z</time>
      </trkpt>
      <trkpt lat="49.32002" lon="-1.10135">
        <ele>5.225031</ele>
        <time>2022-08-02T09:51:00.000Z</time>
      </trkpt>
      <trkpt lat="49.32005" lon="-1.10131">
        <ele>5.210555</ele>
        <time>2022-08-02T09:51:01.000Z</time>
      </trkpt>
      <trkpt lat="49.32008" lon="-1.10127">
        <ele>5.194328</ele>
        <time>2022-08-02T09:51:02.000Z</time>
      </trkpt>
      <trkpt lat="49.32011" lon="-1.10123">
        <ele>5.179335</ele>
        <time>2022-08-02T09:51:03.000Z</time>
      </trkpt>
      <trkpt lat="49.32014" lon="-1.10119">
        <ele>5.163582</ele>
        <time>2022-08-02T09:51:04.000Z</time>
      </trkpt>
      <trkpt lat="49.32016" lon="-1.10116">
        <ele>5.151122</ele>
        <time>2022-08-02T09:51:05.000Z</time>
      </trkpt>
      <trkpt lat="49.32018" lon="-1.10113">
        <ele>5.14094</ele>
        <time>2022-08-02T09:51:06.000Z</time>
      </trkpt>
      <trkpt lat="49.3202" lon="-1.1011">
        <ele>5.131778</ele>
        <time>2022-08-02T09:51:07.000Z</time>
      </trkpt>
      <trkpt lat="49.32021" lon="-1.10107">
        <ele>5.123143</ele>
        <time>2022-08-02T09:51:08.000Z</time>
      </trkpt>
      <trkpt lat="49.32022" lon="-1.10104">
        <ele>5.113584</ele>
        <time>2022-08-02T09:51:09.000Z</time>
      </trkpt>
      <trkpt lat="49.32022" lon="-1.101">
        <ele>5.104538</ele>
        <time>2022-08-02T09:51:10.000Z</time>
      </trkpt>
      <trkpt lat="49.32021" lon="-1.10097">
        <ele>5.095645</ele>
        <time>2022-08-02T09:51:11.000Z</time>
      </trkpt>
      <trkpt lat="49.3202" lon="-1.10094">
        <ele>5.086104</ele>
        <time>2022-08-02T09:51:12.000Z</time>
      </trkpt>
      <trkpt lat="49.32019" lon="-1.10092">
        <ele>5.078148</ele>
        <time>2022-08-02T09:51:13.000Z</time>
      </trkpt>
      <trkpt lat="49.32017" lon="-1.10089">
        <ele>5.070151</ele>
        <time>2022-08-02T09:51:14.000Z</time>
      </trkpt>
      <trkpt lat="49.32016" lon="-1.10087">
        <ele>5.060609</ele>
        <time>2022-08-02T09:51:15.000Z</time>
      </trkpt>
      <trkpt lat="49.32014" lon="-1.10083">
        <ele>5.049654</ele>
        <time>2022-08-02T09:51:16.000Z</time>
      </trkpt>
      <trkpt lat="49.32013" lon="-1.10079">
        <ele>5.037188</ele>
        <time>2022-08-02T09:51:17.000Z</time>
      </trkpt>
      <trkpt lat="49.32011" lon="-1.10075">
        <ele>5.023876</ele>
        <time>2022-08-02T09:51:18.000Z</time>
      </trkpt>
      <trkpt lat="49.32008" lon="-1.1007">
        <ele>5.008847</ele>
        <time>2022-08-02T09:51:19.000Z</time>
      </trkpt>
      <trkpt lat="49.32006" lon="-1.10066">
        <ele>4.994432</ele>
        <time>2022-08-02T09:51:20.000Z</time>
      </trkpt>
      <trkpt lat="49.32004" lon="-1.10061">
        <ele>4.979778</ele>
        <time>2022-08-02T09:51:21.000Z</time>
      </trkpt>
      <trkpt lat="49.32001" lon="-1.10057">
        <ele>4.963194</ele>
        <time>2022-08-02T09:51:22.000Z</time>
      </trkpt>
      <trkpt lat="49.31998" lon="-1.10052">
        <ele>4.948429</ele>
        <time>2022-08-02T09:51:23.000Z</time>
      </trkpt>
      <trkpt lat="49.31995" lon="-1.10048">
        <ele>4.931535</ele>
        <time>2022-08-02T09:51:24.000Z</time>
      </trkpt>
      <trkpt lat="49.31993" lon="-1.10043">
        <ele>4.916679</ele>
        <time>2022-08-02T09:51:25.000Z</time>
      </trkpt>
      <trkpt lat="49.3199" lon="-1.10039">
        <ele>4.901134</ele>
        <time>2022-08-02T09:51:26.000Z</time>
      </trkpt>
      <trkpt lat="49.31988" lon="-1.10034">
        <ele>4.885141</ele>
        <time>2022-08-02T09:51:27.000Z</time>
      </trkpt>
      <trkpt lat="49.31985" lon="-1.10029">
        <ele>4.869195</ele>
        <time>2022-08-02T09:51:28.000Z</time>
      </trkpt>
      <trkpt lat="49.31982" lon="-1.10025">
        <ele>4.853691</ele>
        <time>2022-08-02T09:51:29.000Z</time>
      </trkpt>
      <trkpt lat="49.3198" lon="-1.10021">
        <ele>4.838848</ele>
        <time>2022-08-02T09:51:30.000Z</time>
      </trkpt>
      <trkpt lat="49.31977" lon="-1.10016">
        <ele>4.822633</ele>
        <time>2022-08-02T09:51:31.000Z</time>
      </trkpt>
      <trkpt lat="49.31974" lon="-1.10011">
        <ele>4.807805</ele>
        <time>2022-08-02T09:51:32.000Z</time>
      </trkpt>
      <trkpt lat="49.31972" lon="-1.10007">
        <ele>4.79339</ele>
        <time>2022-08-02T09:51:33.000Z</time>
      </trkpt>
      <trkpt lat="49.3197" lon="-1.10003">
        <ele>4.780102</ele>
        <time>2022-08-02T09:51:34.000Z</time>
      </trkpt>
      <trkpt lat="49.31968" lon="-1.09999">
        <ele>4.766294</ele>
        <time>2022-08-02T09:51:35.000Z</time>
      </trkpt>
      <trkpt lat="49.31965" lon="-1.09995">
        <ele>4.752696</ele>
        <time>2022-08-02T09:51:36.000Z</time>
      </trkpt>
      <trkpt lat="49.31963" lon="-1.09992">
        <ele>4.740826</ele>
        <time>2022-08-02T09:51:37.000Z</time>
      </trkpt>
      <trkpt lat="49.31961" lon="-1.09988">
        <ele>4.728366</ele>
        <time>2022-08-02T09:51:38.000Z</time>
      </trkpt>
      <trkpt lat="49.3196" lon="-1.09985">
        <ele>4.719135</ele>
        <time>2022-08-02T09:51:39.000Z</time>
      </trkpt>
      <trkpt lat="49.31958" lon="-1.09983">
        <ele>4.710939</ele>
        <time>2022-08-02T09:51:40.000Z</time>
      </trkpt>
      <trkpt lat="49.31957" lon="-1.09978">
        <ele>4.697145</ele>
        <time>2022-08-02T09:51:42.000Z</time>
      </trkpt>
      <trkpt lat="49.31958" lon="-1.09974">
        <ele>4.687272</ele>
        <time>2022-08-02T09:51:43.000Z</time>
      </trkpt>
      <trkpt lat="49.31959" lon="-1.0997">
        <ele>4.676911</ele>
        <time>2022-08-02T09:51:44.000Z</time>
      </trkpt>
      <trkpt lat="49.31961" lon="-1.09967">
        <ele>4.664841</ele>
        <time>2022-08-02T09:51:45.000Z</time>
      </trkpt>
      <trkpt lat="49.31963" lon="-1.09963">
        <ele>4.652634</ele>
        <time>2022-08-02T09:51:46.000Z</time>
      </trkpt>
      <trkpt lat="49.31965" lon="-1.0996">
        <ele>4.640538</ele>
        <time>2022-08-02T09:51:47.000Z</time>
      </trkpt>
      <trkpt lat="49.31968" lon="-1.09957">
        <ele>4.627272</ele>
        <time>2022-08-02T09:51:48.000Z</time>
      </trkpt>
      <trkpt lat="49.3197" lon="-1.09953">
        <ele>4.614812</ele>
        <time>2022-08-02T09:51:49.000Z</time>
      </trkpt>
      <trkpt lat="49.31973" lon="-1.0995">
        <ele>4.60087</ele>
        <time>2022-08-02T09:51:50.000Z</time>
      </trkpt>
      <trkpt lat="49.31975" lon="-1.09946">
        <ele>4.588952</ele>
        <time>2022-08-02T09:51:51.000Z</time>
      </trkpt>
      <trkpt lat="49.31977" lon="-1.09943">
        <ele>4.577669</ele>
        <time>2022-08-02T09:51:52.000Z</time>
      </trkpt>
      <trkpt lat="49.31978" lon="-1.0994">
        <ele>4.568438</ele>
        <time>2022-08-02T09:51:53.000Z</time>
      </trkpt>
      <trkpt lat="49.3198" lon="-1.09937">
        <ele>4.55808</ele>
        <time>2022-08-02T09:51:55.000Z</time>
      </trkpt>
      <trkpt lat="49.31982" lon="-1.09937">
        <ele>4.548862</ele>
        <time>2022-08-02T09:51:57.000Z</time>
      </trkpt>
      <trkpt lat="49.3199" lon="-1.09931">
        <ele>4.518202</ele>
        <time>2022-08-02T09:52:08.000Z</time>
      </trkpt>
      <trkpt lat="49.31993" lon="-1.09928">
        <ele>4.509231</ele>
        <time>2022-08-02T09:52:09.000Z</time>
      </trkpt>
      <trkpt lat="49.31996" lon="-1.09925">
        <ele>4.500689</ele>
        <time>2022-08-02T09:52:10.000Z</time>
      </trkpt>
      <trkpt lat="49.31998" lon="-1.09921">
        <ele>4.491379</ele>
        <time>2022-08-02T09:52:11.000Z</time>
      </trkpt>
      <trkpt lat="49.32" lon="-1.09917">
        <ele>4.482198</ele>
        <time>2022-08-02T09:52:12.000Z</time>
      </trkpt>
      <trkpt lat="49.32004" lon="-1.09913">
        <ele>4.471088</ele>
        <time>2022-08-02T09:52:13.000Z</time>
      </trkpt>
      <trkpt lat="49.32006" lon="-1.09909">
        <ele>4.459987</ele>
        <time>2022-08-02T09:52:14.000Z</time>
      </trkpt>
      <trkpt lat="49.3201" lon="-1.09904">
        <ele>4.448304</ele>
        <time>2022-08-02T09:52:15.000Z</time>
      </trkpt>
      <trkpt lat="49.32013" lon="-1.099">
        <ele>4.436502</ele>
        <time>2022-08-02T09:52:16.000Z</time>
      </trkpt>
      <trkpt lat="49.32016" lon="-1.09895">
        <ele>4.423749</ele>
        <time>2022-08-02T09:52:17.000Z</time>
      </trkpt>
      <trkpt lat="49.3202" lon="-1.0989">
        <ele>4.410616</ele>
        <time>2022-08-02T09:52:18.000Z</time>
      </trkpt>
      <trkpt lat="49.32024" lon="-1.09886">
        <ele>4.398212</ele>
        <time>2022-08-02T09:52:19.000Z</time>
      </trkpt>
      <trkpt lat="49.32027" lon="-1.09881">
        <ele>4.385693</ele>
        <time>2022-08-02T09:52:20.000Z</time>
      </trkpt>
      <trkpt lat="49.3203" lon="-1.09876">
        <ele>4.373648</ele>
        <time>2022-08-02T09:52:21.000Z</time>
      </trkpt>
      <trkpt lat="49.32034" lon="-1.09871">
        <ele>4.361355</ele>
        <time>2022-08-02T09:52:22.000Z</time>
      </trkpt>
      <trkpt lat="49.32037" lon="-1.09866">
        <ele>4.348242</ele>
        <time>2022-08-02T09:52:23.000Z</time>
      </trkpt>
      <trkpt lat="49.3204" lon="-1.0986">
        <ele>4.336038</ele>
        <time>2022-08-02T09:52:24.000Z</time>
      </trkpt>
      <trkpt lat="49.32042" lon="-1.09854">
        <ele>4.323099</ele>
        <time>2022-08-02T09:52:25.000Z</time>
      </trkpt>
      <trkpt lat="49.32044" lon="-1.09847">
        <ele>4.310011</ele>
        <time>2022-08-02T09:52:26.000Z</time>
      </trkpt>
      <trkpt lat="49.32046" lon="-1.0984">
        <ele>4.296998</ele>
        <time>2022-08-02T09:52:27.000Z</time>
      </trkpt>
      <trkpt lat="49.32047" lon="-1.09833">
        <ele>4.28415</ele>
        <time>2022-08-02T09:52:28.000Z</time>
      </trkpt>
      <trkpt lat="49.32048" lon="-1.09826">
        <ele>4.271117</ele>
        <time>2022-08-02T09:52:29.000Z</time>
      </trkpt>
      <trkpt lat="49.3205" lon="-1.09819">
        <ele>4.25801</ele>
        <time>2022-08-02T09:52:30.000Z</time>
      </trkpt>
      <trkpt lat="49.32051" lon="-1.09812">
        <ele>4.245267</ele>
        <time>2022-08-02T09:52:31.000Z</time>
      </trkpt>
      <trkpt lat="49.32052" lon="-1.09804">
        <ele>4.231889</ele>
        <time>2022-08-02T09:52:32.000Z</time>
      </trkpt>
      <trkpt lat="49.32053" lon="-1.09797">
        <ele>4.218275</ele>
        <time>2022-08-02T09:52:33.000Z</time>
      </trkpt>
      <trkpt lat="49.32053" lon="-1.09789">
        <ele>4.204568</ele>
        <time>2022-08-02T09:52:34.000Z</time>
      </trkpt>
      <trkpt lat="49.32054" lon="-1.09781">
        <ele>4.190929</ele>
        <time>2022-08-02T09:52:35.000Z</time>
      </trkpt>
      <trkpt lat="49.32054" lon="-1.09774">
        <ele>4.177747</ele>
        <time>2022-08-02T09:52:36.000Z</time>
      </trkpt>
      <trkpt lat="49.32056" lon="-1.09766">
        <ele>4.163963</ele>
        <time>2022-08-02T09:52:37.000Z</time>
      </trkpt>
      <trkpt lat="49.32057" lon="-1.09759">
        <ele>4.150518</ele>
        <time>2022-08-02T09:52:38.000Z</time>
      </trkpt>
      <trkpt lat="49.32058" lon="-1.09752">
        <ele>4.13731</ele>
        <time>2022-08-02T09:52:39.000Z</time>
      </trkpt>
      <trkpt lat="49.3206" lon="-1.09744">
        <ele>4.123696</ele>
        <time>2022-08-02T09:52:40.000Z</time>
      </trkpt>
      <trkpt lat="49.3206" lon="-1.09737">
        <ele>4.110404</ele>
        <time>2022-08-02T09:52:41.000Z</time>
      </trkpt>
      <trkpt lat="49.32061" lon="-1.09729">
        <ele>4.097026</ele>
        <time>2022-08-02T09:52:42.000Z</time>
      </trkpt>
      <trkpt lat="49.32062" lon="-1.09721">
        <ele>4.083252</ele>
        <time>2022-08-02T09:52:43.000Z</time>
      </trkpt>
      <trkpt lat="49.32063" lon="-1.09714">
        <ele>4.069977</ele>
        <time>2022-08-02T09:52:44.000Z</time>
      </trkpt>
      <trkpt lat="49.32064" lon="-1.09707">
        <ele>4.056721</ele>
        <time>2022-08-02T09:52:45.000Z</time>
      </trkpt>
      <trkpt lat="49.32065" lon="-1.09699">
        <ele>4.044465</ele>
        <time>2022-08-02T09:52:46.000Z</time>
      </trkpt>
      <trkpt lat="49.32067" lon="-1.09692">
        <ele>4.041704</ele>
        <time>2022-08-02T09:52:47.000Z</time>
      </trkpt>
      <trkpt lat="49.32068" lon="-1.09685">
        <ele>4.039073</ele>
        <time>2022-08-02T09:52:48.000Z</time>
      </trkpt>
      <trkpt lat="49.32069" lon="-1.09677">
        <ele>4.036326</ele>
        <time>2022-08-02T09:52:49.000Z</time>
      </trkpt>
      <trkpt lat="49.3207" lon="-1.09669">
        <ele>4.033545</ele>
        <time>2022-08-02T09:52:50.000Z</time>
      </trkpt>
      <trkpt lat="49.32071" lon="-1.09662">
        <ele>4.03081</ele>
        <time>2022-08-02T09:52:51.000Z</time>
      </trkpt>
      <trkpt lat="49.32072" lon="-1.09654">
        <ele>4.028128</ele>
        <time>2022-08-02T09:52:52.000Z</time>
      </trkpt>
      <trkpt lat="49.32072" lon="-1.09647">
        <ele>4.025452</ele>
        <time>2022-08-02T09:52:53.000Z</time>
      </trkpt>
      <trkpt lat="49.32072" lon="-1.09639">
        <ele>4.022726</ele>
        <time>2022-08-02T09:52:54.000Z</time>
      </trkpt>
      <trkpt lat="49.32073" lon="-1.09631">
        <ele>4.019867</ele>
        <time>2022-08-02T09:52:55.000Z</time>
      </trkpt>
      <trkpt lat="49.32072" lon="-1.09623">
        <ele>4.016983</ele>
        <time>2022-08-02T09:52:56.000Z</time>
      </trkpt>
      <trkpt lat="49.32072" lon="-1.09615">
        <ele>4.014146</ele>
        <time>2022-08-02T09:52:57.000Z</time>
      </trkpt>
      <trkpt lat="49.3207" lon="-1.09607">
        <ele>4.011183</ele>
        <time>2022-08-02T09:52:58.000Z</time>
      </trkpt>
      <trkpt lat="49.32069" lon="-1.09599">
        <ele>4.00843</ele>
        <time>2022-08-02T09:52:59.000Z</time>
      </trkpt>
      <trkpt lat="49.32069" lon="-1.09592">
        <ele>4.005695</ele>
        <time>2022-08-02T09:53:00.000Z</time>
      </trkpt>
      <trkpt lat="49.32068" lon="-1.09584">
        <ele>4.003069</ele>
        <time>2022-08-02T09:53:01.000Z</time>
      </trkpt>
      <trkpt lat="49.32069" lon="-1.09577">
        <ele>4.000479</ele>
        <time>2022-08-02T09:53:02.000Z</time>
      </trkpt>
      <trkpt lat="49.32069" lon="-1.0957">
        <ele>3.99805</ele>
        <time>2022-08-02T09:53:03.000Z</time>
      </trkpt>
      <trkpt lat="49.3207" lon="-1.09564">
        <ele>3.995616</ele>
        <time>2022-08-02T09:53:04.000Z</time>
      </trkpt>
      <trkpt lat="49.32072" lon="-1.09557">
        <ele>3.993056</ele>
        <time>2022-08-02T09:53:05.000Z</time>
      </trkpt>
      <trkpt lat="49.32074" lon="-1.0955">
        <ele>3.990404</ele>
        <time>2022-08-02T09:53:06.000Z</time>
      </trkpt>
      <trkpt lat="49.32076" lon="-1.09543">
        <ele>3.987779</ele>
        <time>2022-08-02T09:53:07.000Z</time>
      </trkpt>
      <trkpt lat="49.32078" lon="-1.09537">
        <ele>3.98516</ele>
        <time>2022-08-02T09:53:08.000Z</time>
      </trkpt>
      <trkpt lat="49.32081" lon="-1.09531">
        <ele>3.98236</ele>
        <time>2022-08-02T09:53:09.000Z</time>
      </trkpt>
      <trkpt lat="49.32084" lon="-1.09524">
        <ele>3.979658</ele>
        <time>2022-08-02T09:53:10.000Z</time>
      </trkpt>
      <trkpt lat="49.32087" lon="-1.09518">
        <ele>3.976913</ele>
        <time>2022-08-02T09:53:11.000Z</time>
      </trkpt>
      <trkpt lat="49.3209" lon="-1.09512">
        <ele>3.974361</ele>
        <time>2022-08-02T09:53:12.000Z</time>
      </trkpt>
      <trkpt lat="49.32093" lon="-1.09506">
        <ele>3.971505</ele>
        <time>2022-08-02T09:53:13.000Z</time>
      </trkpt>
      <trkpt lat="49.32096" lon="-1.095">
        <ele>3.968924</ele>
        <time>2022-08-02T09:53:14.000Z</time>
      </trkpt>
      <trkpt lat="49.32099" lon="-1.09494">
        <ele>3.966124</ele>
        <time>2022-08-02T09:53:15.000Z</time>
      </trkpt>
      <trkpt lat="49.32102" lon="-1.09488">
        <ele>3.963536</ele>
        <time>2022-08-02T09:53:16.000Z</time>
      </trkpt>
      <trkpt lat="49.32105" lon="-1.09482">
        <ele>3.960925</ele>
        <time>2022-08-02T09:53:17.000Z</time>
      </trkpt>
      <trkpt lat="49.32108" lon="-1.09477">
        <ele>3.958398</ele>
        <time>2022-08-02T09:53:18.000Z</time>
      </trkpt>
      <trkpt lat="49.32111" lon="-1.09471">
        <ele>3.955788</ele>
        <time>2022-08-02T09:53:19.000Z</time>
      </trkpt>
      <trkpt lat="49.32114" lon="-1.09466">
        <ele>3.953283</ele>
        <time>2022-08-02T09:53:20.000Z</time>
      </trkpt>
      <trkpt lat="49.32117" lon="-1.0946">
        <ele>3.950672</ele>
        <time>2022-08-02T09:53:21.000Z</time>
      </trkpt>
      <trkpt lat="49.3212" lon="-1.09454">
        <ele>3.948112</ele>
        <time>2022-08-02T09:53:22.000Z</time>
      </trkpt>
      <trkpt lat="49.32123" lon="-1.09449">
        <ele>3.949948</ele>
        <time>2022-08-02T09:53:23.000Z</time>
      </trkpt>
      <trkpt lat="49.32126" lon="-1.09443">
        <ele>3.954608</ele>
        <time>2022-08-02T09:53:24.000Z</time>
      </trkpt>
      <trkpt lat="49.32128" lon="-1.09438">
        <ele>3.959034</ele>
        <time>2022-08-02T09:53:25.000Z</time>
      </trkpt>
      <trkpt lat="49.32131" lon="-1.09433">
        <ele>3.963583</ele>
        <time>2022-08-02T09:53:26.000Z</time>
      </trkpt>
      <trkpt lat="49.32133" lon="-1.09428">
        <ele>3.967797</ele>
        <time>2022-08-02T09:53:27.000Z</time>
      </trkpt>
      <trkpt lat="49.32135" lon="-1.09423">
        <ele>3.971939</ele>
        <time>2022-08-02T09:53:28.000Z</time>
      </trkpt>
      <trkpt lat="49.32137" lon="-1.09418">
        <ele>3.97579</ele>
        <time>2022-08-02T09:53:29.000Z</time>
      </trkpt>
      <trkpt lat="49.32139" lon="-1.09414">
        <ele>3.979185</ele>
        <time>2022-08-02T09:53:30.000Z</time>
      </trkpt>
      <trkpt lat="49.32141" lon="-1.0941">
        <ele>3.98258</ele>
        <time>2022-08-02T09:53:31.000Z</time>
      </trkpt>
      <trkpt lat="49.32143" lon="-1.09406">
        <ele>3.985864</ele>
        <time>2022-08-02T09:53:32.000Z</time>
      </trkpt>
      <trkpt lat="49.32145" lon="-1.09402">
        <ele>3.989627</ele>
        <time>2022-08-02T09:53:33.000Z</time>
      </trkpt>
      <trkpt lat="49.32147" lon="-1.09397">
        <ele>3.99342</ele>
        <time>2022-08-02T09:53:34.000Z</time>
      </trkpt>
      <trkpt lat="49.32149" lon="-1.09392">
        <ele>3.997557</ele>
        <time>2022-08-02T09:53:35.000Z</time>
      </trkpt>
      <trkpt lat="49.32152" lon="-1.09387">
        <ele>4.001755</ele>
        <time>2022-08-02T09:53:36.000Z</time>
      </trkpt>
      <trkpt lat="49.32154" lon="-1.09382">
        <ele>4.006131</ele>
        <time>2022-08-02T09:53:37.000Z</time>
      </trkpt>
      <trkpt lat="49.32157" lon="-1.09377">
        <ele>4.01093</ele>
        <time>2022-08-02T09:53:38.000Z</time>
      </trkpt>
      <trkpt lat="49.3216" lon="-1.09372">
        <ele>4.015479</ele>
        <time>2022-08-02T09:53:39.000Z</time>
      </trkpt>
      <trkpt lat="49.32163" lon="-1.09366">
        <ele>4.020173</ele>
        <time>2022-08-02T09:53:40.000Z</time>
      </trkpt>
      <trkpt lat="49.32165" lon="-1.09361">
        <ele>4.02466</ele>
        <time>2022-08-02T09:53:41.000Z</time>
      </trkpt>
      <trkpt lat="49.32168" lon="-1.09356">
        <ele>4.029155</ele>
        <time>2022-08-02T09:53:42.000Z</time>
      </trkpt>
      <trkpt lat="49.32171" lon="-1.09351">
        <ele>4.033797</ele>
        <time>2022-08-02T09:53:43.000Z</time>
      </trkpt>
      <trkpt lat="49.32173" lon="-1.09346">
        <ele>4.038423</ele>
        <time>2022-08-02T09:53:44.000Z</time>
      </trkpt>
      <trkpt lat="49.32176" lon="-1.0934">
        <ele>4.043169</ele>
        <time>2022-08-02T09:53:45.000Z</time>
      </trkpt>
      <trkpt lat="49.32179" lon="-1.09335">
        <ele>4.047829</ele>
        <time>2022-08-02T09:53:46.000Z</time>
      </trkpt>
      <trkpt lat="49.32181" lon="-1.09329">
        <ele>4.052427</ele>
        <time>2022-08-02T09:53:47.000Z</time>
      </trkpt>
      <trkpt lat="49.32184" lon="-1.09325">
        <ele>4.056349</ele>
        <time>2022-08-02T09:53:48.000Z</time>
      </trkpt>
      <trkpt lat="49.32187" lon="-1.09318">
        <ele>4.062157</ele>
        <time>2022-08-02T09:53:49.000Z</time>
      </trkpt>
      <trkpt lat="49.3219" lon="-1.09312">
        <ele>4.067369</ele>
        <time>2022-08-02T09:53:50.000Z</time>
      </trkpt>
      <trkpt lat="49.32193" lon="-1.09306">
        <ele>4.072081</ele>
        <time>2022-08-02T09:53:51.000Z</time>
      </trkpt>
      <trkpt lat="49.32195" lon="-1.09301">
        <ele>4.076909</ele>
        <time>2022-08-02T09:53:52.000Z</time>
      </trkpt>
      <trkpt lat="49.32197" lon="-1.09294">
        <ele>4.081751</ele>
        <time>2022-08-02T09:53:53.000Z</time>
      </trkpt>
      <trkpt lat="49.322" lon="-1.09288">
        <ele>4.08704</ele>
        <time>2022-08-02T09:53:54.000Z</time>
      </trkpt>
      <trkpt lat="49.32203" lon="-1.09282">
        <ele>4.092097</ele>
        <time>2022-08-02T09:53:55.000Z</time>
      </trkpt>
      <trkpt lat="49.32205" lon="-1.09275">
        <ele>4.097171</ele>
        <time>2022-08-02T09:53:56.000Z</time>
      </trkpt>
      <trkpt lat="49.32206" lon="-1.09268">
        <ele>4.102163</ele>
        <time>2022-08-02T09:53:57.000Z</time>
      </trkpt>
      <trkpt lat="49.32207" lon="-1.09261">
        <ele>4.107141</ele>
        <time>2022-08-02T09:53:58.000Z</time>
      </trkpt>
      <trkpt lat="49.32207" lon="-1.09253">
        <ele>4.112285</ele>
        <time>2022-08-02T09:53:59.000Z</time>
      </trkpt>
      <trkpt lat="49.32206" lon="-1.09246">
        <ele>4.117165</ele>
        <time>2022-08-02T09:54:00.000Z</time>
      </trkpt>
      <trkpt lat="49.32205" lon="-1.0924">
        <ele>4.12205</ele>
        <time>2022-08-02T09:54:01.000Z</time>
      </trkpt>
      <trkpt lat="49.32202" lon="-1.09235">
        <ele>4.126545</ele>
        <time>2022-08-02T09:54:02.000Z</time>
      </trkpt>
      <trkpt lat="49.32199" lon="-1.0923">
        <ele>4.131021</ele>
        <time>2022-08-02T09:54:03.000Z</time>
      </trkpt>
      <trkpt lat="49.32196" lon="-1.09227">
        <ele>4.134537</ele>
        <time>2022-08-02T09:54:04.000Z</time>
      </trkpt>
      <trkpt lat="49.32193" lon="-1.09224">
        <ele>4.135525</ele>
        <time>2022-08-02T09:54:05.000Z</time>
      </trkpt>
      <trkpt lat="49.32191" lon="-1.09221">
        <ele>4.134561</ele>
        <time>2022-08-02T09:54:06.000Z</time>
      </trkpt>
      <trkpt lat="49.32189" lon="-1.09218">
        <ele>4.133638</ele>
        <time>2022-08-02T09:54:07.000Z</time>
      </trkpt>
      <trkpt lat="49.32188" lon="-1.09216">
        <ele>4.132808</ele>
        <time>2022-08-02T09:54:08.000Z</time>
      </trkpt>
      <trkpt lat="49.32187" lon="-1.09213">
        <ele>4.132145</ele>
        <time>2022-08-02T09:54:09.000Z</time>
      </trkpt>
      <trkpt lat="49.32185" lon="-1.09209">
        <ele>4.130975</ele>
        <time>2022-08-02T09:54:11.000Z</time>
      </trkpt>
      <trkpt lat="49.32184" lon="-1.09207">
        <ele>4.130302</ele>
        <time>2022-08-02T09:54:15.000Z</time>
      </trkpt>
      <trkpt lat="49.32184" lon="-1.09195">
        <ele>4.127577</ele>
        <time>2022-08-02T09:54:19.000Z</time>
      </trkpt>
      <trkpt lat="49.32185" lon="-1.09191">
        <ele>4.126503</ele>
        <time>2022-08-02T09:54:20.000Z</time>
      </trkpt>
      <trkpt lat="49.32186" lon="-1.09186">
        <ele>4.125368</ele>
        <time>2022-08-02T09:54:21.000Z</time>
      </trkpt>
      <trkpt lat="49.32187" lon="-1.09181">
        <ele>4.124109</ele>
        <time>2022-08-02T09:54:22.000Z</time>
      </trkpt>
      <trkpt lat="49.32188" lon="-1.09175">
        <ele>4.12286</ele>
        <time>2022-08-02T09:54:23.000Z</time>
      </trkpt>
      <trkpt lat="49.3219" lon="-1.0917">
        <ele>4.121374</ele>
        <time>2022-08-02T09:54:24.000Z</time>
      </trkpt>
      <trkpt lat="49.32193" lon="-1.09166">
        <ele>4.119948</ele>
        <time>2022-08-02T09:54:25.000Z</time>
      </trkpt>
      <trkpt lat="49.32196" lon="-1.09161">
        <ele>4.118511</ele>
        <time>2022-08-02T09:54:26.000Z</time>
      </trkpt>
      <trkpt lat="49.32199" lon="-1.09158">
        <ele>4.11706</ele>
        <time>2022-08-02T09:54:27.000Z</time>
      </trkpt>
      <trkpt lat="49.32203" lon="-1.09156">
        <ele>4.115571</ele>
        <time>2022-08-02T09:54:28.000Z</time>
      </trkpt>
      <trkpt lat="49.32207" lon="-1.09155">
        <ele>4.114084</ele>
        <time>2022-08-02T09:54:29.000Z</time>
      </trkpt>
      <trkpt lat="49.32212" lon="-1.09154">
        <ele>4.112373</ele>
        <time>2022-08-02T09:54:30.000Z</time>
      </trkpt>
      <trkpt lat="49.32216" lon="-1.09156">
        <ele>4.110852</ele>
        <time>2022-08-02T09:54:31.000Z</time>
      </trkpt>
      <trkpt lat="49.3222" lon="-1.09157">
        <ele>4.109304</ele>
        <time>2022-08-02T09:54:32.000Z</time>
      </trkpt>
      <trkpt lat="49.32225" lon="-1.09159">
        <ele>4.107682</ele>
        <time>2022-08-02T09:54:33.000Z</time>
      </trkpt>
      <trkpt lat="49.32229" lon="-1.09161">
        <ele>4.106128</ele>
        <time>2022-08-02T09:54:34.000Z</time>
      </trkpt>
      <trkpt lat="49.32233" lon="-1.09162">
        <ele>4.104493</ele>
        <time>2022-08-02T09:54:35.000Z</time>
      </trkpt>
      <trkpt lat="49.32238" lon="-1.09162">
        <ele>4.102782</ele>
        <time>2022-08-02T09:54:36.000Z</time>
      </trkpt>
      <trkpt lat="49.32242" lon="-1.09161">
        <ele>4.101304</ele>
        <time>2022-08-02T09:54:37.000Z</time>
      </trkpt>
      <trkpt lat="49.32247" lon="-1.09159">
        <ele>4.099599</ele>
        <time>2022-08-02T09:54:38.000Z</time>
      </trkpt>
      <trkpt lat="49.3225" lon="-1.09155">
        <ele>4.098097</ele>
        <time>2022-08-02T09:54:39.000Z</time>
      </trkpt>
      <trkpt lat="49.32254" lon="-1.09151">
        <ele>4.096486</ele>
        <time>2022-08-02T09:54:40.000Z</time>
      </trkpt>
      <trkpt lat="49.32256" lon="-1.09146">
        <ele>4.095078</ele>
        <time>2022-08-02T09:54:41.000Z</time>
      </trkpt>
      <trkpt lat="49.32259" lon="-1.09141">
        <ele>4.093537</ele>
        <time>2022-08-02T09:54:42.000Z</time>
      </trkpt>
      <trkpt lat="49.32262" lon="-1.09136">
        <ele>4.09186</ele>
        <time>2022-08-02T09:54:43.000Z</time>
      </trkpt>
      <trkpt lat="49.32265" lon="-1.09131">
        <ele>4.090323</ele>
        <time>2022-08-02T09:54:44.000Z</time>
      </trkpt>
      <trkpt lat="49.32268" lon="-1.09126">
        <ele>4.088761</ele>
        <time>2022-08-02T09:54:45.000Z</time>
      </trkpt>
      <trkpt lat="49.32271" lon="-1.09122">
        <ele>4.087352</ele>
        <time>2022-08-02T09:54:46.000Z</time>
      </trkpt>
      <trkpt lat="49.32274" lon="-1.09117">
        <ele>4.085774</ele>
        <time>2022-08-02T09:54:47.000Z</time>
      </trkpt>
      <trkpt lat="49.32277" lon="-1.09112">
        <ele>4.08436</ele>
        <time>2022-08-02T09:54:48.000Z</time>
      </trkpt>
      <trkpt lat="49.3228" lon="-1.09107">
        <ele>4.0827</ele>
        <time>2022-08-02T09:54:49.000Z</time>
      </trkpt>
      <trkpt lat="49.32283" lon="-1.09101">
        <ele>4.081002</ele>
        <time>2022-08-02T09:54:50.000Z</time>
      </trkpt>
      <trkpt lat="49.32285" lon="-1.09095">
        <ele>4.079251</ele>
        <time>2022-08-02T09:54:51.000Z</time>
      </trkpt>
      <trkpt lat="49.32288" lon="-1.09089">
        <ele>4.077578</ele>
        <time>2022-08-02T09:54:52.000Z</time>
      </trkpt>
      <trkpt lat="49.3229" lon="-1.09083">
        <ele>4.076029</ele>
        <time>2022-08-02T09:54:53.000Z</time>
      </trkpt>
      <trkpt lat="49.32292" lon="-1.09077">
        <ele>4.074542</ele>
        <time>2022-08-02T09:54:54.000Z</time>
      </trkpt>
      <trkpt lat="49.32294" lon="-1.09072">
        <ele>4.073019</ele>
        <time>2022-08-02T09:54:55.000Z</time>
      </trkpt>
      <trkpt lat="49.32296" lon="-1.09066">
        <ele>4.07544</ele>
        <time>2022-08-02T09:54:56.000Z</time>
      </trkpt>
      <trkpt lat="49.32299" lon="-1.09061">
        <ele>4.082991</ele>
        <time>2022-08-02T09:54:57.000Z</time>
      </trkpt>
      <trkpt lat="49.32301" lon="-1.09056">
        <ele>4.09031</ele>
        <time>2022-08-02T09:54:58.000Z</time>
      </trkpt>
      <trkpt lat="49.32303" lon="-1.09051">
        <ele>4.097659</ele>
        <time>2022-08-02T09:54:59.000Z</time>
      </trkpt>
      <trkpt lat="49.32305" lon="-1.09045">
        <ele>4.10568</ele>
        <time>2022-08-02T09:55:00.000Z</time>
      </trkpt>
      <trkpt lat="49.32308" lon="-1.09039">
        <ele>4.1135</ele>
        <time>2022-08-02T09:55:01.000Z</time>
      </trkpt>
      <trkpt lat="49.32309" lon="-1.09034">
        <ele>4.120518</ele>
        <time>2022-08-02T09:55:02.000Z</time>
      </trkpt>
      <trkpt lat="49.3231" lon="-1.09028">
        <ele>4.127629</ele>
        <time>2022-08-02T09:55:03.000Z</time>
      </trkpt>
      <trkpt lat="49.32312" lon="-1.09023">
        <ele>4.134418</ele>
        <time>2022-08-02T09:55:04.000Z</time>
      </trkpt>
      <trkpt lat="49.32314" lon="-1.09019">
        <ele>4.141059</ele>
        <time>2022-08-02T09:55:05.000Z</time>
      </trkpt>
      <trkpt lat="49.32317" lon="-1.09014">
        <ele>4.147626</ele>
        <time>2022-08-02T09:55:06.000Z</time>
      </trkpt>
      <trkpt lat="49.32318" lon="-1.0901">
        <ele>4.153955</ele>
        <time>2022-08-02T09:55:07.000Z</time>
      </trkpt>
      <trkpt lat="49.3232" lon="-1.09005">
        <ele>4.160187</ele>
        <time>2022-08-02T09:55:08.000Z</time>
      </trkpt>
      <trkpt lat="49.32322" lon="-1.09001">
        <ele>4.166342</ele>
        <time>2022-08-02T09:55:09.000Z</time>
      </trkpt>
      <trkpt lat="49.32324" lon="-1.08996">
        <ele>4.172573</ele>
        <time>2022-08-02T09:55:10.000Z</time>
      </trkpt>
      <trkpt lat="49.32325" lon="-1.08992">
        <ele>4.178215</ele>
        <time>2022-08-02T09:55:11.000Z</time>
      </trkpt>
      <trkpt lat="49.32328" lon="-1.08988">
        <ele>4.184424</ele>
        <time>2022-08-02T09:55:12.000Z</time>
      </trkpt>
      <trkpt lat="49.3233" lon="-1.08984">
        <ele>4.190603</ele>
        <time>2022-08-02T09:55:13.000Z</time>
      </trkpt>
      <trkpt lat="49.32332" lon="-1.08981">
        <ele>4.196257</ele>
        <time>2022-08-02T09:55:14.000Z</time>
      </trkpt>
      <trkpt lat="49.32334" lon="-1.08977">
        <ele>4.201961</ele>
        <time>2022-08-02T09:55:15.000Z</time>
      </trkpt>
      <trkpt lat="49.32336" lon="-1.08974">
        <ele>4.207071</ele>
        <time>2022-08-02T09:55:16.000Z</time>
      </trkpt>
      <trkpt lat="49.32338" lon="-1.08971">
        <ele>4.212402</ele>
        <time>2022-08-02T09:55:17.000Z</time>
      </trkpt>
      <trkpt lat="49.32341" lon="-1.08968">
        <ele>4.218026</ele>
        <time>2022-08-02T09:55:18.000Z</time>
      </trkpt>
      <trkpt lat="49.32342" lon="-1.08965">
        <ele>4.22305</ele>
        <time>2022-08-02T09:55:19.000Z</time>
      </trkpt>
      <trkpt lat="49.32344" lon="-1.08962">
        <ele>4.227988</ele>
        <time>2022-08-02T09:55:20.000Z</time>
      </trkpt>
      <trkpt lat="49.32346" lon="-1.08959">
        <ele>4.232842</ele>
        <time>2022-08-02T09:55:21.000Z</time>
      </trkpt>
      <trkpt lat="49.32348" lon="-1.08956">
        <ele>4.237591</ele>
        <time>2022-08-02T09:55:22.000Z</time>
      </trkpt>
      <trkpt lat="49.3235" lon="-1.08953">
        <ele>4.242529</ele>
        <time>2022-08-02T09:55:23.000Z</time>
      </trkpt>
      <trkpt lat="49.32352" lon="-1.0895">
        <ele>4.247014</ele>
        <time>2022-08-02T09:55:24.000Z</time>
      </trkpt>
      <trkpt lat="49.32354" lon="-1.08948">
        <ele>4.251626</ele>
        <time>2022-08-02T09:55:25.000Z</time>
      </trkpt>
      <trkpt lat="49.32355" lon="-1.08945">
        <ele>4.255934</ele>
        <time>2022-08-02T09:55:26.000Z</time>
      </trkpt>
      <trkpt lat="49.32357" lon="-1.08942">
        <ele>4.260706</ele>
        <time>2022-08-02T09:55:27.000Z</time>
      </trkpt>
      <trkpt lat="49.32359" lon="-1.0894">
        <ele>4.265239</ele>
        <time>2022-08-02T09:55:28.000Z</time>
      </trkpt>
      <trkpt lat="49.32361" lon="-1.08937">
        <ele>4.270345</ele>
        <time>2022-08-02T09:55:29.000Z</time>
      </trkpt>
      <trkpt lat="49.32363" lon="-1.08935">
        <ele>4.274879</ele>
        <time>2022-08-02T09:55:30.000Z</time>
      </trkpt>
      <trkpt lat="49.32365" lon="-1.08932">
        <ele>4.279187</ele>
        <time>2022-08-02T09:55:31.000Z</time>
      </trkpt>
      <trkpt lat="49.32367" lon="-1.08929">
        <ele>4.283958</ele>
        <time>2022-08-02T09:55:32.000Z</time>
      </trkpt>
      <trkpt lat="49.32368" lon="-1.08927">
        <ele>4.287734</ele>
        <time>2022-08-02T09:55:33.000Z</time>
      </trkpt>
      <trkpt lat="49.3237" lon="-1.08925">
        <ele>4.291907</ele>
        <time>2022-08-02T09:55:34.000Z</time>
      </trkpt>
      <trkpt lat="49.32371" lon="-1.08923">
        <ele>4.295413</ele>
        <time>2022-08-02T09:55:35.000Z</time>
      </trkpt>
      <trkpt lat="49.32373" lon="-1.0892">
        <ele>4.299305</ele>
        <time>2022-08-02T09:55:36.000Z</time>
      </trkpt>
      <trkpt lat="49.32375" lon="-1.08916">
        <ele>4.305974</ele>
        <time>2022-08-02T09:55:38.000Z</time>
      </trkpt>
      <trkpt lat="49.32378" lon="-1.08913">
        <ele>4.311384</ele>
        <time>2022-08-02T09:55:40.000Z</time>
      </trkpt>
      <trkpt lat="49.32379" lon="-1.08912">
        <ele>4.314909</ele>
        <time>2022-08-02T09:55:41.000Z</time>
      </trkpt>
      <trkpt lat="49.32382" lon="-1.08908">
        <ele>4.321021</ele>
        <time>2022-08-02T09:55:43.000Z</time>
      </trkpt>
      <trkpt lat="49.32384" lon="-1.08905">
        <ele>4.326512</ele>
        <time>2022-08-02T09:55:45.000Z</time>
      </trkpt>
      <trkpt lat="49.32386" lon="-1.08902">
        <ele>4.331284</ele>
        <time>2022-08-02T09:55:47.000Z</time>
      </trkpt>
      <trkpt lat="49.32389" lon="-1.08899">
        <ele>4.338116</ele>
        <time>2022-08-02T09:55:49.000Z</time>
      </trkpt>
      <trkpt lat="49.3239" lon="-1.08896">
        <ele>4.341621</ele>
        <time>2022-08-02T09:55:50.000Z</time>
      </trkpt>
      <trkpt lat="49.32392" lon="-1.08894">
        <ele>4.345758</ele>
        <time>2022-08-02T09:55:51.000Z</time>
      </trkpt>
      <trkpt lat="49.32394" lon="-1.08891">
        <ele>4.350291</ele>
        <time>2022-08-02T09:55:52.000Z</time>
      </trkpt>
      <trkpt lat="49.32396" lon="-1.08889">
        <ele>4.35525</ele>
        <time>2022-08-02T09:55:53.000Z</time>
      </trkpt>
      <trkpt lat="49.32398" lon="-1.08886">
        <ele>4.360425</ele>
        <time>2022-08-02T09:55:54.000Z</time>
      </trkpt>
      <trkpt lat="49.32401" lon="-1.08883">
        <ele>4.366173</ele>
        <time>2022-08-02T09:55:55.000Z</time>
      </trkpt>
      <trkpt lat="49.32403" lon="-1.0888">
        <ele>4.371958</ele>
        <time>2022-08-02T09:55:56.000Z</time>
      </trkpt>
      <trkpt lat="49.32405" lon="-1.08876">
        <ele>4.377699</ele>
        <time>2022-08-02T09:55:57.000Z</time>
      </trkpt>
      <trkpt lat="49.32407" lon="-1.08873">
        <ele>4.383821</ele>
        <time>2022-08-02T09:55:58.000Z</time>
      </trkpt>
      <trkpt lat="49.3241" lon="-1.08869">
        <ele>4.389951</ele>
        <time>2022-08-02T09:55:59.000Z</time>
      </trkpt>
      <trkpt lat="49.32413" lon="-1.08866">
        <ele>4.396491</ele>
        <time>2022-08-02T09:56:00.000Z</time>
      </trkpt>
      <trkpt lat="49.32415" lon="-1.08862">
        <ele>4.401671</ele>
        <time>2022-08-02T09:56:01.000Z</time>
      </trkpt>
      <trkpt lat="49.32418" lon="-1.08859">
        <ele>4.406256</ele>
        <time>2022-08-02T09:56:02.000Z</time>
      </trkpt>
      <trkpt lat="49.32421" lon="-1.08855">
        <ele>4.41158</ele>
        <time>2022-08-02T09:56:03.000Z</time>
      </trkpt>
      <trkpt lat="49.32424" lon="-1.08852">
        <ele>4.416151</ele>
        <time>2022-08-02T09:56:04.000Z</time>
      </trkpt>
      <trkpt lat="49.32427" lon="-1.08849">
        <ele>4.42099</ele>
        <time>2022-08-02T09:56:05.000Z</time>
      </trkpt>
      <trkpt lat="49.32429" lon="-1.08846">
        <ele>4.425617</ele>
        <time>2022-08-02T09:56:06.000Z</time>
      </trkpt>
      <trkpt lat="49.32433" lon="-1.08843">
        <ele>4.430608</ele>
        <time>2022-08-02T09:56:07.000Z</time>
      </trkpt>
      <trkpt lat="49.32436" lon="-1.0884">
        <ele>4.435346</ele>
        <time>2022-08-02T09:56:08.000Z</time>
      </trkpt>
      <trkpt lat="49.32439" lon="-1.08837">
        <ele>4.440426</ele>
        <time>2022-08-02T09:56:09.000Z</time>
      </trkpt>
      <trkpt lat="49.32441" lon="-1.08833">
        <ele>4.445055</ele>
        <time>2022-08-02T09:56:10.000Z</time>
      </trkpt>
      <trkpt lat="49.32445" lon="-1.0883">
        <ele>4.450278</ele>
        <time>2022-08-02T09:56:11.000Z</time>
      </trkpt>
      <trkpt lat="49.32447" lon="-1.08826">
        <ele>4.455388</ele>
        <time>2022-08-02T09:56:12.000Z</time>
      </trkpt>
      <trkpt lat="49.32451" lon="-1.08822">
        <ele>4.46098</ele>
        <time>2022-08-02T09:56:13.000Z</time>
      </trkpt>
      <trkpt lat="49.32453" lon="-1.08818">
        <ele>4.466068</ele>
        <time>2022-08-02T09:56:14.000Z</time>
      </trkpt>
      <trkpt lat="49.32455" lon="-1.08814">
        <ele>4.470979</ele>
        <time>2022-08-02T09:56:15.000Z</time>
      </trkpt>
      <trkpt lat="49.32459" lon="-1.0881">
        <ele>4.476684</ele>
        <time>2022-08-02T09:56:16.000Z</time>
      </trkpt>
      <trkpt lat="49.32461" lon="-1.08805">
        <ele>4.481707</ele>
        <time>2022-08-02T09:56:17.000Z</time>
      </trkpt>
      <trkpt lat="49.32463" lon="-1.08801">
        <ele>4.486483</ele>
        <time>2022-08-02T09:56:18.000Z</time>
      </trkpt>
      <trkpt lat="49.32466" lon="-1.08797">
        <ele>4.491913</ele>
        <time>2022-08-02T09:56:19.000Z</time>
      </trkpt>
      <trkpt lat="49.32469" lon="-1.08792">
        <ele>4.497289</ele>
        <time>2022-08-02T09:56:20.000Z</time>
      </trkpt>
      <trkpt lat="49.32471" lon="-1.08787">
        <ele>4.502543</ele>
        <time>2022-08-02T09:56:21.000Z</time>
      </trkpt>
      <trkpt lat="49.32473" lon="-1.08783">
        <ele>4.507804</ele>
        <time>2022-08-02T09:56:22.000Z</time>
      </trkpt>
      <trkpt lat="49.32476" lon="-1.08778">
        <ele>4.512913</ele>
        <time>2022-08-02T09:56:23.000Z</time>
      </trkpt>
      <trkpt lat="49.32478" lon="-1.08773">
        <ele>4.518692</ele>
        <time>2022-08-02T09:56:24.000Z</time>
      </trkpt>
      <trkpt lat="49.32481" lon="-1.08768">
        <ele>4.524479</ele>
        <time>2022-08-02T09:56:25.000Z</time>
      </trkpt>
      <trkpt lat="49.32483" lon="-1.08763">
        <ele>4.529438</ele>
        <time>2022-08-02T09:56:26.000Z</time>
      </trkpt>
      <trkpt lat="49.32485" lon="-1.08758">
        <ele>4.534765</ele>
        <time>2022-08-02T09:56:27.000Z</time>
      </trkpt>
      <trkpt lat="49.32488" lon="-1.08753">
        <ele>4.540808</ele>
        <time>2022-08-02T09:56:28.000Z</time>
      </trkpt>
      <trkpt lat="49.3249" lon="-1.08748">
        <ele>4.546208</ele>
        <time>2022-08-02T09:56:29.000Z</time>
      </trkpt>
      <trkpt lat="49.32493" lon="-1.08743">
        <ele>4.551856</ele>
        <time>2022-08-02T09:56:30.000Z</time>
      </trkpt>
      <trkpt lat="49.32495" lon="-1.08738">
        <ele>4.557643</ele>
        <time>2022-08-02T09:56:31.000Z</time>
      </trkpt>
      <trkpt lat="49.32498" lon="-1.08733">
        <ele>4.563068</ele>
        <time>2022-08-02T09:56:32.000Z</time>
      </trkpt>
      <trkpt lat="49.325" lon="-1.08728">
        <ele>4.568617</ele>
        <time>2022-08-02T09:56:33.000Z</time>
      </trkpt>
      <trkpt lat="49.32502" lon="-1.08722">
        <ele>4.574165</ele>
        <time>2022-08-02T09:56:34.000Z</time>
      </trkpt>
      <trkpt lat="49.32505" lon="-1.08717">
        <ele>4.580093</ele>
        <time>2022-08-02T09:56:35.000Z</time>
      </trkpt>
      <trkpt lat="49.32508" lon="-1.08712">
        <ele>4.585914</ele>
        <time>2022-08-02T09:56:36.000Z</time>
      </trkpt>
      <trkpt lat="49.3251" lon="-1.08706">
        <ele>4.591913</ele>
        <time>2022-08-02T09:56:37.000Z</time>
      </trkpt>
      <trkpt lat="49.32513" lon="-1.08701">
        <ele>4.597461</ele>
        <time>2022-08-02T09:56:38.000Z</time>
      </trkpt>
      <trkpt lat="49.32515" lon="-1.08696">
        <ele>4.603461</ele>
        <time>2022-08-02T09:56:39.000Z</time>
      </trkpt>
      <trkpt lat="49.32518" lon="-1.0869">
        <ele>4.609248</ele>
        <time>2022-08-02T09:56:40.000Z</time>
      </trkpt>
      <trkpt lat="49.3252" lon="-1.08685">
        <ele>4.614882</ele>
        <time>2022-08-02T09:56:41.000Z</time>
      </trkpt>
      <trkpt lat="49.32523" lon="-1.0868">
        <ele>4.620669</ele>
        <time>2022-08-02T09:56:42.000Z</time>
      </trkpt>
      <trkpt lat="49.32526" lon="-1.08675">
        <ele>4.626779</ele>
        <time>2022-08-02T09:56:43.000Z</time>
      </trkpt>
      <trkpt lat="49.32528" lon="-1.08669">
        <ele>4.632628</ele>
        <time>2022-08-02T09:56:44.000Z</time>
      </trkpt>
      <trkpt lat="49.32531" lon="-1.08664">
        <ele>4.638627</ele>
        <time>2022-08-02T09:56:45.000Z</time>
      </trkpt>
      <trkpt lat="49.32533" lon="-1.08659">
        <ele>4.645273</ele>
        <time>2022-08-02T09:56:46.000Z</time>
      </trkpt>
      <trkpt lat="49.32536" lon="-1.08653">
        <ele>4.655098</ele>
        <time>2022-08-02T09:56:47.000Z</time>
      </trkpt>
      <trkpt lat="49.32539" lon="-1.08648">
        <ele>4.663814</ele>
        <time>2022-08-02T09:56:48.000Z</time>
      </trkpt>
      <trkpt lat="49.32542" lon="-1.08643">
        <ele>4.673027</ele>
        <time>2022-08-02T09:56:49.000Z</time>
      </trkpt>
      <trkpt lat="49.32544" lon="-1.08638">
        <ele>4.681834</ele>
        <time>2022-08-02T09:56:50.000Z</time>
      </trkpt>
      <trkpt lat="49.32547" lon="-1.08632">
        <ele>4.690872</ele>
        <time>2022-08-02T09:56:51.000Z</time>
      </trkpt>
      <trkpt lat="49.3255" lon="-1.08627">
        <ele>4.700797</ele>
        <time>2022-08-02T09:56:52.000Z</time>
      </trkpt>
      <trkpt lat="49.32553" lon="-1.08621">
        <ele>4.709934</ele>
        <time>2022-08-02T09:56:53.000Z</time>
      </trkpt>
      <trkpt lat="49.32556" lon="-1.08616">
        <ele>4.719668</ele>
        <time>2022-08-02T09:56:54.000Z</time>
      </trkpt>
      <trkpt lat="49.32558" lon="-1.0861">
        <ele>4.729034</ele>
        <time>2022-08-02T09:56:55.000Z</time>
      </trkpt>
      <trkpt lat="49.32561" lon="-1.08604">
        <ele>4.738171</ele>
        <time>2022-08-02T09:56:56.000Z</time>
      </trkpt>
      <trkpt lat="49.32564" lon="-1.08599">
        <ele>4.747694</ele>
        <time>2022-08-02T09:56:57.000Z</time>
      </trkpt>
      <trkpt lat="49.32566" lon="-1.08594">
        <ele>4.756517</ele>
        <time>2022-08-02T09:56:58.000Z</time>
      </trkpt>
      <trkpt lat="49.32568" lon="-1.08588">
        <ele>4.765204</ele>
        <time>2022-08-02T09:56:59.000Z</time>
      </trkpt>
      <trkpt lat="49.32571" lon="-1.08583">
        <ele>4.774133</ele>
        <time>2022-08-02T09:57:00.000Z</time>
      </trkpt>
      <trkpt lat="49.32574" lon="-1.08578">
        <ele>4.783346</ele>
        <time>2022-08-02T09:57:01.000Z</time>
      </trkpt>
      <trkpt lat="49.32576" lon="-1.08573">
        <ele>4.791467</ele>
        <time>2022-08-02T09:57:02.000Z</time>
      </trkpt>
      <trkpt lat="49.32579" lon="-1.08568">
        <ele>4.800078</ele>
        <time>2022-08-02T09:57:03.000Z</time>
      </trkpt>
      <trkpt lat="49.32581" lon="-1.08563">
        <ele>4.807867</ele>
        <time>2022-08-02T09:57:04.000Z</time>
      </trkpt>
      <trkpt lat="49.32584" lon="-1.08558">
        <ele>4.816877</ele>
        <time>2022-08-02T09:57:05.000Z</time>
      </trkpt>
      <trkpt lat="49.32586" lon="-1.08553">
        <ele>4.824998</ele>
        <time>2022-08-02T09:57:06.000Z</time>
      </trkpt>
      <trkpt lat="49.32588" lon="-1.08548">
        <ele>4.833018</ele>
        <time>2022-08-02T09:57:07.000Z</time>
      </trkpt>
      <trkpt lat="49.3259" lon="-1.08543">
        <ele>4.841139</ele>
        <time>2022-08-02T09:57:08.000Z</time>
      </trkpt>
      <trkpt lat="49.32593" lon="-1.08538">
        <ele>4.849851</ele>
        <time>2022-08-02T09:57:09.000Z</time>
      </trkpt>
      <trkpt lat="49.32596" lon="-1.08534">
        <ele>4.857914</ele>
        <time>2022-08-02T09:57:10.000Z</time>
      </trkpt>
      <trkpt lat="49.32598" lon="-1.08529">
        <ele>4.866042</ele>
        <time>2022-08-02T09:57:11.000Z</time>
      </trkpt>
      <trkpt lat="49.326" lon="-1.08524">
        <ele>4.874163</ele>
        <time>2022-08-02T09:57:12.000Z</time>
      </trkpt>
      <trkpt lat="49.32603" lon="-1.08519">
        <ele>4.882402</ele>
        <time>2022-08-02T09:57:13.000Z</time>
      </trkpt>
      <trkpt lat="49.32605" lon="-1.08514">
        <ele>4.890464</ele>
        <time>2022-08-02T09:57:14.000Z</time>
      </trkpt>
      <trkpt lat="49.32608" lon="-1.08509">
        <ele>4.89897</ele>
        <time>2022-08-02T09:57:15.000Z</time>
      </trkpt>
      <trkpt lat="49.3261" lon="-1.08504">
        <ele>4.90756</ele>
        <time>2022-08-02T09:57:16.000Z</time>
      </trkpt>
      <trkpt lat="49.32613" lon="-1.08499">
        <ele>4.91657</ele>
        <time>2022-08-02T09:57:17.000Z</time>
      </trkpt>
      <trkpt lat="49.32616" lon="-1.08495">
        <ele>4.924869</ele>
        <time>2022-08-02T09:57:18.000Z</time>
      </trkpt>
      <trkpt lat="49.32618" lon="-1.08489">
        <ele>4.933214</ele>
        <time>2022-08-02T09:57:19.000Z</time>
      </trkpt>
      <trkpt lat="49.3262" lon="-1.08484">
        <ele>4.941452</ele>
        <time>2022-08-02T09:57:20.000Z</time>
      </trkpt>
      <trkpt lat="49.32623" lon="-1.08479">
        <ele>4.950326</ele>
        <time>2022-08-02T09:57:21.000Z</time>
      </trkpt>
      <trkpt lat="49.32626" lon="-1.08475">
        <ele>4.958523</ele>
        <time>2022-08-02T09:57:22.000Z</time>
      </trkpt>
      <trkpt lat="49.32628" lon="-1.0847">
        <ele>4.966618</ele>
        <time>2022-08-02T09:57:23.000Z</time>
      </trkpt>
      <trkpt lat="49.32631" lon="-1.08466">
        <ele>4.975767</ele>
        <time>2022-08-02T09:57:24.000Z</time>
      </trkpt>
      <trkpt lat="49.32634" lon="-1.08461">
        <ele>4.983727</ele>
        <time>2022-08-02T09:57:25.000Z</time>
      </trkpt>
      <trkpt lat="49.32637" lon="-1.08457">
        <ele>4.992252</ele>
        <time>2022-08-02T09:57:26.000Z</time>
      </trkpt>
      <trkpt lat="49.3264" lon="-1.08453">
        <ele>5.00061</ele>
        <time>2022-08-02T09:57:27.000Z</time>
      </trkpt>
      <trkpt lat="49.32644" lon="-1.08449">
        <ele>5.00905</ele>
        <time>2022-08-02T09:57:28.000Z</time>
      </trkpt>
      <trkpt lat="49.32646" lon="-1.08445">
        <ele>5.034203</ele>
        <time>2022-08-02T09:57:29.000Z</time>
      </trkpt>
      <trkpt lat="49.32649" lon="-1.08441">
        <ele>5.081403</ele>
        <time>2022-08-02T09:57:30.000Z</time>
      </trkpt>
      <trkpt lat="49.32652" lon="-1.08436">
        <ele>5.125505</ele>
        <time>2022-08-02T09:57:31.000Z</time>
      </trkpt>
      <trkpt lat="49.32654" lon="-1.08431">
        <ele>5.169341</ele>
        <time>2022-08-02T09:57:32.000Z</time>
      </trkpt>
      <trkpt lat="49.32656" lon="-1.08427">
        <ele>5.208088</ele>
        <time>2022-08-02T09:57:33.000Z</time>
      </trkpt>
      <trkpt lat="49.32658" lon="-1.08423">
        <ele>5.24886</ele>
        <time>2022-08-02T09:57:34.000Z</time>
      </trkpt>
      <trkpt lat="49.3266" lon="-1.08418">
        <ele>5.290928</ele>
        <time>2022-08-02T09:57:35.000Z</time>
      </trkpt>
      <trkpt lat="49.32663" lon="-1.08414">
        <ele>5.33503</ele>
        <time>2022-08-02T09:57:36.000Z</time>
      </trkpt>
      <trkpt lat="49.32665" lon="-1.08409">
        <ele>5.37502</ele>
        <time>2022-08-02T09:57:37.000Z</time>
      </trkpt>
      <trkpt lat="49.32667" lon="-1.08405">
        <ele>5.417673</ele>
        <time>2022-08-02T09:57:38.000Z</time>
      </trkpt>
      <trkpt lat="49.32669" lon="-1.084">
        <ele>5.459559</ele>
        <time>2022-08-02T09:57:39.000Z</time>
      </trkpt>
      <trkpt lat="49.3267" lon="-1.08395">
        <ele>5.49764</ele>
        <time>2022-08-02T09:57:40.000Z</time>
      </trkpt>
      <trkpt lat="49.32672" lon="-1.08391">
        <ele>5.537851</ele>
        <time>2022-08-02T09:57:41.000Z</time>
      </trkpt>
      <trkpt lat="49.32673" lon="-1.08386">
        <ele>5.576083</ele>
        <time>2022-08-02T09:57:42.000Z</time>
      </trkpt>
      <trkpt lat="49.32675" lon="-1.08382">
        <ele>5.616073</ele>
        <time>2022-08-02T09:57:43.000Z</time>
      </trkpt>
      <trkpt lat="49.32677" lon="-1.08377">
        <ele>5.656063</ele>
        <time>2022-08-02T09:57:44.000Z</time>
      </trkpt>
      <trkpt lat="49.32679" lon="-1.08373">
        <ele>5.696054</ele>
        <time>2022-08-02T09:57:45.000Z</time>
      </trkpt>
      <trkpt lat="49.32681" lon="-1.08368">
        <ele>5.735454</ele>
        <time>2022-08-02T09:57:46.000Z</time>
      </trkpt>
      <trkpt lat="49.32683" lon="-1.08365">
        <ele>5.770587</ele>
        <time>2022-08-02T09:57:47.000Z</time>
      </trkpt>
      <trkpt lat="49.32685" lon="-1.08361">
        <ele>5.802472</ele>
        <time>2022-08-02T09:57:48.000Z</time>
      </trkpt>
      <trkpt lat="49.32686" lon="-1.08358">
        <ele>5.830596</ele>
        <time>2022-08-02T09:57:49.000Z</time>
      </trkpt>
      <trkpt lat="49.32687" lon="-1.08355">
        <ele>5.85559</ele>
        <time>2022-08-02T09:57:50.000Z</time>
      </trkpt>
      <trkpt lat="49.32688" lon="-1.08351">
        <ele>5.88648</ele>
        <time>2022-08-02T09:57:52.000Z</time>
      </trkpt>
      <trkpt lat="49.32694" lon="-1.0834">
        <ele>5.997149</ele>
        <time>2022-08-02T09:58:16.000Z</time>
      </trkpt>
      <trkpt lat="49.32697" lon="-1.08338">
        <ele>6.033534</ele>
        <time>2022-08-02T09:58:17.000Z</time>
      </trkpt>
      <trkpt lat="49.32701" lon="-1.08337">
        <ele>6.072049</ele>
        <time>2022-08-02T09:58:18.000Z</time>
      </trkpt>
      <trkpt lat="49.32703" lon="-1.08336">
        <ele>6.101615</ele>
        <time>2022-08-02T09:58:19.000Z</time>
      </trkpt>
      <trkpt lat="49.32707" lon="-1.08335">
        <ele>6.143773</ele>
        <time>2022-08-02T09:58:20.000Z</time>
      </trkpt>
      <trkpt lat="49.32709" lon="-1.08333">
        <ele>6.179118</ele>
        <time>2022-08-02T09:58:21.000Z</time>
      </trkpt>
      <trkpt lat="49.32713" lon="-1.0833">
        <ele>6.219556</ele>
        <time>2022-08-02T09:58:22.000Z</time>
      </trkpt>
      <trkpt lat="49.32715" lon="-1.08328">
        <ele>6.251387</ele>
        <time>2022-08-02T09:58:23.000Z</time>
      </trkpt>
      <trkpt lat="49.32717" lon="-1.08326">
        <ele>6.278937</ele>
        <time>2022-08-02T09:58:24.000Z</time>
      </trkpt>
      <trkpt lat="49.32719" lon="-1.08326">
        <ele>6.305635</ele>
        <time>2022-08-02T09:58:25.000Z</time>
      </trkpt>
      <trkpt lat="49.32722" lon="-1.08326">
        <ele>6.337686</ele>
        <time>2022-08-02T09:58:26.000Z</time>
      </trkpt>
      <trkpt lat="49.32725" lon="-1.08327">
        <ele>6.368361</ele>
        <time>2022-08-02T09:58:27.000Z</time>
      </trkpt>
      <trkpt lat="49.32727" lon="-1.08328">
        <ele>6.400148</ele>
        <time>2022-08-02T09:58:28.000Z</time>
      </trkpt>
      <trkpt lat="49.3273" lon="-1.0833">
        <ele>6.434608</ele>
        <time>2022-08-02T09:58:29.000Z</time>
      </trkpt>
      <trkpt lat="49.32733" lon="-1.08332">
        <ele>6.464862</ele>
        <time>2022-08-02T09:58:30.000Z</time>
      </trkpt>
      <trkpt lat="49.32735" lon="-1.08334">
        <ele>6.494913</ele>
        <time>2022-08-02T09:58:31.000Z</time>
      </trkpt>
      <trkpt lat="49.32737" lon="-1.08336">
        <ele>6.528196</ele>
        <time>2022-08-02T09:58:32.000Z</time>
      </trkpt>
      <trkpt lat="49.3274" lon="-1.08338">
        <ele>6.556728</ele>
        <time>2022-08-02T09:58:33.000Z</time>
      </trkpt>
      <trkpt lat="49.32742" lon="-1.0834">
        <ele>6.58937</ele>
        <time>2022-08-02T09:58:34.000Z</time>
      </trkpt>
      <trkpt lat="49.32744" lon="-1.08342">
        <ele>6.618261</ele>
        <time>2022-08-02T09:58:35.000Z</time>
      </trkpt>
      <trkpt lat="49.32747" lon="-1.08343">
        <ele>6.64583</ele>
        <time>2022-08-02T09:58:36.000Z</time>
      </trkpt>
      <trkpt lat="49.3275" lon="-1.08344">
        <ele>6.690732</ele>
        <time>2022-08-02T09:58:38.000Z</time>
      </trkpt>
      <trkpt lat="49.32753" lon="-1.08345">
        <ele>6.716183</ele>
        <time>2022-08-02T09:58:39.000Z</time>
      </trkpt>
      <trkpt lat="49.32756" lon="-1.08346">
        <ele>6.749778</ele>
        <time>2022-08-02T09:58:40.000Z</time>
      </trkpt>
      <trkpt lat="49.32758" lon="-1.08346">
        <ele>6.783373</ele>
        <time>2022-08-02T09:58:41.000Z</time>
      </trkpt>
      <trkpt lat="49.32761" lon="-1.08347">
        <ele>6.817388</ele>
        <time>2022-08-02T09:58:42.000Z</time>
      </trkpt>
      <trkpt lat="49.32765" lon="-1.08348">
        <ele>6.85769</ele>
        <time>2022-08-02T09:58:43.000Z</time>
      </trkpt>
      <trkpt lat="49.32768" lon="-1.08349">
        <ele>6.898082</ele>
        <time>2022-08-02T09:58:44.000Z</time>
      </trkpt>
      <trkpt lat="49.32771" lon="-1.08349">
        <ele>6.931478</ele>
        <time>2022-08-02T09:58:45.000Z</time>
      </trkpt>
      <trkpt lat="49.32774" lon="-1.0835">
        <ele>6.968287</ele>
        <time>2022-08-02T09:58:46.000Z</time>
      </trkpt>
      <trkpt lat="49.32777" lon="-1.0835">
        <ele>7.001549</ele>
        <time>2022-08-02T09:58:47.000Z</time>
      </trkpt>
      <trkpt lat="49.32781" lon="-1.0835">
        <ele>7.041713</ele>
        <time>2022-08-02T09:58:48.000Z</time>
      </trkpt>
      <trkpt lat="49.32784" lon="-1.08351">
        <ele>7.066611</ele>
        <time>2022-08-02T09:58:49.000Z</time>
      </trkpt>
      <trkpt lat="49.32787" lon="-1.08351">
        <ele>7.043004</ele>
        <time>2022-08-02T09:58:50.000Z</time>
      </trkpt>
      <trkpt lat="49.3279" lon="-1.08352">
        <ele>7.017108</ele>
        <time>2022-08-02T09:58:51.000Z</time>
      </trkpt>
      <trkpt lat="49.32793" lon="-1.08353">
        <ele>6.993588</ele>
        <time>2022-08-02T09:58:52.000Z</time>
      </trkpt>
      <trkpt lat="49.32797" lon="-1.08354">
        <ele>6.965238</ele>
        <time>2022-08-02T09:58:53.000Z</time>
      </trkpt>
      <trkpt lat="49.328" lon="-1.08355">
        <ele>6.938107</ele>
        <time>2022-08-02T09:58:54.000Z</time>
      </trkpt>
      <trkpt lat="49.32803" lon="-1.08357">
        <ele>6.912416</ele>
        <time>2022-08-02T09:58:55.000Z</time>
      </trkpt>
      <trkpt lat="49.32806" lon="-1.0836">
        <ele>6.883158</ele>
        <time>2022-08-02T09:58:56.000Z</time>
      </trkpt>
      <trkpt lat="49.32809" lon="-1.08363">
        <ele>6.854872</ele>
        <time>2022-08-02T09:58:57.000Z</time>
      </trkpt>
      <trkpt lat="49.32812" lon="-1.08367">
        <ele>6.823688</ele>
        <time>2022-08-02T09:58:58.000Z</time>
      </trkpt>
      <trkpt lat="49.32815" lon="-1.0837">
        <ele>6.792204</ele>
        <time>2022-08-02T09:58:59.000Z</time>
      </trkpt>
      <trkpt lat="49.32818" lon="-1.08374">
        <ele>6.762644</ele>
        <time>2022-08-02T09:59:00.000Z</time>
      </trkpt>
      <trkpt lat="49.32821" lon="-1.08378">
        <ele>6.729576</ele>
        <time>2022-08-02T09:59:01.000Z</time>
      </trkpt>
      <trkpt lat="49.32825" lon="-1.08382">
        <ele>6.694612</ele>
        <time>2022-08-02T09:59:02.000Z</time>
      </trkpt>
      <trkpt lat="49.32828" lon="-1.08386">
        <ele>6.658062</ele>
        <time>2022-08-02T09:59:03.000Z</time>
      </trkpt>
      <trkpt lat="49.32832" lon="-1.08391">
        <ele>6.618958</ele>
        <time>2022-08-02T09:59:04.000Z</time>
      </trkpt>
      <trkpt lat="49.32836" lon="-1.08395">
        <ele>6.582037</ele>
        <time>2022-08-02T09:59:05.000Z</time>
      </trkpt>
      <trkpt lat="49.32839" lon="-1.08401">
        <ele>6.540643</ele>
        <time>2022-08-02T09:59:06.000Z</time>
      </trkpt>
      <trkpt lat="49.32844" lon="-1.08406">
        <ele>6.497012</ele>
        <time>2022-08-02T09:59:07.000Z</time>
      </trkpt>
      <trkpt lat="49.32848" lon="-1.08412">
        <ele>6.452089</ele>
        <time>2022-08-02T09:59:08.000Z</time>
      </trkpt>
      <trkpt lat="49.32852" lon="-1.08418">
        <ele>6.404327</ele>
        <time>2022-08-02T09:59:09.000Z</time>
      </trkpt>
      <trkpt lat="49.32856" lon="-1.08424">
        <ele>6.358573</ele>
        <time>2022-08-02T09:59:10.000Z</time>
      </trkpt>
      <trkpt lat="49.32861" lon="-1.0843">
        <ele>6.31115</ele>
        <time>2022-08-02T09:59:11.000Z</time>
      </trkpt>
      <trkpt lat="49.32865" lon="-1.08437">
        <ele>6.264663</ele>
        <time>2022-08-02T09:59:12.000Z</time>
      </trkpt>
      <trkpt lat="49.32869" lon="-1.08443">
        <ele>6.215746</ele>
        <time>2022-08-02T09:59:13.000Z</time>
      </trkpt>
      <trkpt lat="49.32873" lon="-1.08451">
        <ele>6.163659</ele>
        <time>2022-08-02T09:59:14.000Z</time>
      </trkpt>
      <trkpt lat="49.32877" lon="-1.08458">
        <ele>6.111742</ele>
        <time>2022-08-02T09:59:15.000Z</time>
      </trkpt>
      <trkpt lat="49.32881" lon="-1.08466">
        <ele>6.061235</ele>
        <time>2022-08-02T09:59:16.000Z</time>
      </trkpt>
      <trkpt lat="49.32885" lon="-1.08474">
        <ele>6.009968</ele>
        <time>2022-08-02T09:59:17.000Z</time>
      </trkpt>
      <trkpt lat="49.32888" lon="-1.08482">
        <ele>5.963081</ele>
        <time>2022-08-02T09:59:18.000Z</time>
      </trkpt>
      <trkpt lat="49.32891" lon="-1.0849">
        <ele>5.913177</ele>
        <time>2022-08-02T09:59:19.000Z</time>
      </trkpt>
      <trkpt lat="49.32894" lon="-1.08498">
        <ele>5.865094</ele>
        <time>2022-08-02T09:59:20.000Z</time>
      </trkpt>
      <trkpt lat="49.32896" lon="-1.08506">
        <ele>5.817826</ele>
        <time>2022-08-02T09:59:21.000Z</time>
      </trkpt>
      <trkpt lat="49.32899" lon="-1.08514">
        <ele>5.770028</ele>
        <time>2022-08-02T09:59:22.000Z</time>
      </trkpt>
      <trkpt lat="49.32902" lon="-1.08522">
        <ele>5.722231</ele>
        <time>2022-08-02T09:59:23.000Z</time>
      </trkpt>
      <trkpt lat="49.32905" lon="-1.0853">
        <ele>5.674434</ele>
        <time>2022-08-02T09:59:24.000Z</time>
      </trkpt>
      <trkpt lat="49.32908" lon="-1.08538">
        <ele>5.633931</ele>
        <time>2022-08-02T09:59:25.000Z</time>
      </trkpt>
      <trkpt lat="49.3291" lon="-1.08547">
        <ele>5.692709</ele>
        <time>2022-08-02T09:59:26.000Z</time>
      </trkpt>
      <trkpt lat="49.32913" lon="-1.08555">
        <ele>5.751715</ele>
        <time>2022-08-02T09:59:27.000Z</time>
      </trkpt>
      <trkpt lat="49.32916" lon="-1.08563">
        <ele>5.810067</ele>
        <time>2022-08-02T09:59:28.000Z</time>
      </trkpt>
      <trkpt lat="49.32918" lon="-1.08571">
        <ele>5.867689</ele>
        <time>2022-08-02T09:59:29.000Z</time>
      </trkpt>
      <trkpt lat="49.32921" lon="-1.08579">
        <ele>5.926694</ele>
        <time>2022-08-02T09:59:30.000Z</time>
      </trkpt>
      <trkpt lat="49.32924" lon="-1.08587">
        <ele>5.984093</ele>
        <time>2022-08-02T09:59:31.000Z</time>
      </trkpt>
      <trkpt lat="49.32926" lon="-1.08594">
        <ele>6.040564</ele>
        <time>2022-08-02T09:59:32.000Z</time>
      </trkpt>
      <trkpt lat="49.32929" lon="-1.08602">
        <ele>6.096462</ele>
        <time>2022-08-02T09:59:33.000Z</time>
      </trkpt>
      <trkpt lat="49.32932" lon="-1.0861">
        <ele>6.153648</ele>
        <time>2022-08-02T09:59:34.000Z</time>
      </trkpt>
      <trkpt lat="49.32934" lon="-1.08618">
        <ele>6.208405</ele>
        <time>2022-08-02T09:59:35.000Z</time>
      </trkpt>
      <trkpt lat="49.32937" lon="-1.08625">
        <ele>6.264578</ele>
        <time>2022-08-02T09:59:36.000Z</time>
      </trkpt>
      <trkpt lat="49.3294" lon="-1.08632">
        <ele>6.316595</ele>
        <time>2022-08-02T09:59:37.000Z</time>
      </trkpt>
      <trkpt lat="49.32943" lon="-1.08639">
        <ele>6.372252</ele>
        <time>2022-08-02T09:59:38.000Z</time>
      </trkpt>
      <trkpt lat="49.32945" lon="-1.08646">
        <ele>6.424746</ele>
        <time>2022-08-02T09:59:39.000Z</time>
      </trkpt>
      <trkpt lat="49.32948" lon="-1.08653">
        <ele>6.477667</ele>
        <time>2022-08-02T09:59:40.000Z</time>
      </trkpt>
      <trkpt lat="49.32951" lon="-1.0866">
        <ele>6.526819</ele>
        <time>2022-08-02T09:59:41.000Z</time>
      </trkpt>
      <trkpt lat="49.32954" lon="-1.08666">
        <ele>6.575978</ele>
        <time>2022-08-02T09:59:42.000Z</time>
      </trkpt>
      <trkpt lat="49.32957" lon="-1.08672">
        <ele>6.627462</ele>
        <time>2022-08-02T09:59:43.000Z</time>
      </trkpt>
      <trkpt lat="49.3296" lon="-1.08679">
        <ele>6.676652</ele>
        <time>2022-08-02T09:59:44.000Z</time>
      </trkpt>
      <trkpt lat="49.32963" lon="-1.08685">
        <ele>6.728556</ele>
        <time>2022-08-02T09:59:45.000Z</time>
      </trkpt>
      <trkpt lat="49.32966" lon="-1.08691">
        <ele>6.77662</ele>
        <time>2022-08-02T09:59:46.000Z</time>
      </trkpt>
      <trkpt lat="49.32969" lon="-1.08697">
        <ele>6.830472</ele>
        <time>2022-08-02T09:59:47.000Z</time>
      </trkpt>
      <trkpt lat="49.32973" lon="-1.08703">
        <ele>6.880445</ele>
        <time>2022-08-02T09:59:48.000Z</time>
      </trkpt>
      <trkpt lat="49.32976" lon="-1.08709">
        <ele>6.929428</ele>
        <time>2022-08-02T09:59:49.000Z</time>
      </trkpt>
      <trkpt lat="49.32979" lon="-1.08715">
        <ele>6.976547</ele>
        <time>2022-08-02T09:59:50.000Z</time>
      </trkpt>
      <trkpt lat="49.32981" lon="-1.0872">
        <ele>7.021533</ele>
        <time>2022-08-02T09:59:51.000Z</time>
      </trkpt>
      <trkpt lat="49.32985" lon="-1.08726">
        <ele>7.072695</ele>
        <time>2022-08-02T09:59:52.000Z</time>
      </trkpt>
      <trkpt lat="49.32988" lon="-1.08732">
        <ele>7.11768</ele>
        <time>2022-08-02T09:59:53.000Z</time>
      </trkpt>
      <trkpt lat="49.32991" lon="-1.08737">
        <ele>7.167023</ele>
        <time>2022-08-02T09:59:54.000Z</time>
      </trkpt>
      <trkpt lat="49.32995" lon="-1.08742">
        <ele>7.216571</ele>
        <time>2022-08-02T09:59:55.000Z</time>
      </trkpt>
      <trkpt lat="49.32998" lon="-1.08748">
        <ele>7.261673</ele>
        <time>2022-08-02T09:59:56.000Z</time>
      </trkpt>
      <trkpt lat="49.33001" lon="-1.08754">
        <ele>7.310655</ele>
        <time>2022-08-02T09:59:57.000Z</time>
      </trkpt>
      <trkpt lat="49.33005" lon="-1.0876">
        <ele>7.362558</ele>
        <time>2022-08-02T09:59:58.000Z</time>
      </trkpt>
      <trkpt lat="49.33008" lon="-1.08765">
        <ele>7.412654</ele>
        <time>2022-08-02T09:59:59.000Z</time>
      </trkpt>
      <trkpt lat="49.33011" lon="-1.08771">
        <ele>7.509797</ele>
        <time>2022-08-02T10:00:00.000Z</time>
      </trkpt>
      <trkpt lat="49.33015" lon="-1.08776">
        <ele>7.606941</ele>
        <time>2022-08-02T10:00:01.000Z</time>
      </trkpt>
      <trkpt lat="49.33019" lon="-1.08782">
        <ele>7.709653</ele>
        <time>2022-08-02T10:00:02.000Z</time>
      </trkpt>
      <trkpt lat="49.33021" lon="-1.08787">
        <ele>7.795871</ele>
        <time>2022-08-02T10:00:03.000Z</time>
      </trkpt>
      <trkpt lat="49.33025" lon="-1.08793">
        <ele>7.896178</ele>
        <time>2022-08-02T10:00:04.000Z</time>
      </trkpt>
      <trkpt lat="49.33029" lon="-1.08798">
        <ele>7.993321</ele>
        <time>2022-08-02T10:00:05.000Z</time>
      </trkpt>
      <trkpt lat="49.33032" lon="-1.08804">
        <ele>8.090464</ele>
        <time>2022-08-02T10:00:06.000Z</time>
      </trkpt>
      <trkpt lat="49.33035" lon="-1.08809">
        <ele>8.179867</ele>
        <time>2022-08-02T10:00:07.000Z</time>
      </trkpt>
      <trkpt lat="49.33038" lon="-1.08815">
        <ele>8.275218</ele>
        <time>2022-08-02T10:00:08.000Z</time>
      </trkpt>
      <trkpt lat="49.33042" lon="-1.0882">
        <ele>8.369685</ele>
        <time>2022-08-02T10:00:09.000Z</time>
      </trkpt>
      <trkpt lat="49.33045" lon="-1.08825">
        <ele>8.459088</ele>
        <time>2022-08-02T10:00:10.000Z</time>
      </trkpt>
      <trkpt lat="49.33048" lon="-1.0883">
        <ele>8.548553</ele>
        <time>2022-08-02T10:00:11.000Z</time>
      </trkpt>
      <trkpt lat="49.33051" lon="-1.08835">
        <ele>8.637111</ele>
        <time>2022-08-02T10:00:12.000Z</time>
      </trkpt>
      <trkpt lat="49.33054" lon="-1.0884">
        <ele>8.725669</ele>
        <time>2022-08-02T10:00:13.000Z</time>
      </trkpt>
      <trkpt lat="49.33057" lon="-1.08846">
        <ele>8.812158</ele>
        <time>2022-08-02T10:00:14.000Z</time>
      </trkpt>
      <trkpt lat="49.33061" lon="-1.08851">
        <ele>8.900716</ele>
        <time>2022-08-02T10:00:15.000Z</time>
      </trkpt>
      <trkpt lat="49.33063" lon="-1.08856">
        <ele>8.987204</ele>
        <time>2022-08-02T10:00:16.000Z</time>
      </trkpt>
      <trkpt lat="49.33067" lon="-1.08861">
        <ele>9.076668</ele>
        <time>2022-08-02T10:00:17.000Z</time>
      </trkpt>
      <trkpt lat="49.3307" lon="-1.08866">
        <ele>9.169395</ele>
        <time>2022-08-02T10:00:18.000Z</time>
      </trkpt>
      <trkpt lat="49.33073" lon="-1.08871">
        <ele>9.251053</ele>
        <time>2022-08-02T10:00:19.000Z</time>
      </trkpt>
      <trkpt lat="49.33076" lon="-1.08876">
        <ele>9.346923</ele>
        <time>2022-08-02T10:00:20.000Z</time>
      </trkpt>
      <trkpt lat="49.33079" lon="-1.08882">
        <ele>9.433141</ele>
        <time>2022-08-02T10:00:21.000Z</time>
      </trkpt>
      <trkpt lat="49.33082" lon="-1.08887">
        <ele>9.52352</ele>
        <time>2022-08-02T10:00:22.000Z</time>
      </trkpt>
      <trkpt lat="49.33085" lon="-1.08892">
        <ele>9.612922</ele>
        <time>2022-08-02T10:00:23.000Z</time>
      </trkpt>
      <trkpt lat="49.33088" lon="-1.08898">
        <ele>9.704224</ele>
        <time>2022-08-02T10:00:24.000Z</time>
      </trkpt>
      <trkpt lat="49.33091" lon="-1.08903">
        <ele>9.790712</ele>
        <time>2022-08-02T10:00:25.000Z</time>
      </trkpt>
      <trkpt lat="49.33094" lon="-1.08908">
        <ele>9.882013</ele>
        <time>2022-08-02T10:00:26.000Z</time>
      </trkpt>
      <trkpt lat="49.33097" lon="-1.08914">
        <ele>9.970972</ele>
        <time>2022-08-02T10:00:27.000Z</time>
      </trkpt>
      <trkpt lat="49.331" lon="-1.0892">
        <ele>10.067972</ele>
        <time>2022-08-02T10:00:28.000Z</time>
      </trkpt>
      <trkpt lat="49.33103" lon="-1.08925">
        <ele>10.157167</ele>
        <time>2022-08-02T10:00:29.000Z</time>
      </trkpt>
      <trkpt lat="49.33106" lon="-1.08931">
        <ele>10.251565</ele>
        <time>2022-08-02T10:00:30.000Z</time>
      </trkpt>
      <trkpt lat="49.33108" lon="-1.08937">
        <ele>10.33953</ele>
        <time>2022-08-02T10:00:31.000Z</time>
      </trkpt>
      <trkpt lat="49.33111" lon="-1.08943">
        <ele>10.429523</ele>
        <time>2022-08-02T10:00:32.000Z</time>
      </trkpt>
      <trkpt lat="49.33113" lon="-1.08949">
        <ele>10.517488</ele>
        <time>2022-08-02T10:00:33.000Z</time>
      </trkpt>
      <trkpt lat="49.33116" lon="-1.08955">
        <ele>10.609719</ele>
        <time>2022-08-02T10:00:34.000Z</time>
      </trkpt>
      <trkpt lat="49.33118" lon="-1.08961">
        <ele>10.695515</ele>
        <time>2022-08-02T10:00:35.000Z</time>
      </trkpt>
      <trkpt lat="49.3312" lon="-1.08967">
        <ele>10.782512</ele>
        <time>2022-08-02T10:00:36.000Z</time>
      </trkpt>
      <trkpt lat="49.33123" lon="-1.08973">
        <ele>10.872665</ele>
        <time>2022-08-02T10:00:37.000Z</time>
      </trkpt>
      <trkpt lat="49.33125" lon="-1.08979">
        <ele>10.969646</ele>
        <time>2022-08-02T10:00:38.000Z</time>
      </trkpt>
      <trkpt lat="49.33127" lon="-1.08985">
        <ele>11.076452</ele>
        <time>2022-08-02T10:00:39.000Z</time>
      </trkpt>
      <trkpt lat="49.3313" lon="-1.08991">
        <ele>11.177332</ele>
        <time>2022-08-02T10:00:40.000Z</time>
      </trkpt>
      <trkpt lat="49.33132" lon="-1.08997">
        <ele>11.278213</ele>
        <time>2022-08-02T10:00:41.000Z</time>
      </trkpt>
      <trkpt lat="49.33134" lon="-1.09003">
        <ele>11.380215</ele>
        <time>2022-08-02T10:00:42.000Z</time>
      </trkpt>
      <trkpt lat="49.33136" lon="-1.09009">
        <ele>11.476649</ele>
        <time>2022-08-02T10:00:43.000Z</time>
      </trkpt>
      <trkpt lat="49.33138" lon="-1.09015">
        <ele>11.577529</ele>
        <time>2022-08-02T10:00:44.000Z</time>
      </trkpt>
      <trkpt lat="49.3314" lon="-1.09021">
        <ele>11.677589</ele>
        <time>2022-08-02T10:00:45.000Z</time>
      </trkpt>
      <trkpt lat="49.33142" lon="-1.09028">
        <ele>11.780642</ele>
        <time>2022-08-02T10:00:46.000Z</time>
      </trkpt>
      <trkpt lat="49.33144" lon="-1.09035">
        <ele>11.889056</ele>
        <time>2022-08-02T10:00:47.000Z</time>
      </trkpt>
      <trkpt lat="49.33147" lon="-1.09041">
        <ele>12.004582</ele>
        <time>2022-08-02T10:00:48.000Z</time>
      </trkpt>
      <trkpt lat="49.33149" lon="-1.09048">
        <ele>12.107636</ele>
        <time>2022-08-02T10:00:49.000Z</time>
      </trkpt>
      <trkpt lat="49.3315" lon="-1.09054">
        <ele>12.206705</ele>
        <time>2022-08-02T10:00:50.000Z</time>
      </trkpt>
      <trkpt lat="49.33153" lon="-1.0906">
        <ele>12.306311</ele>
        <time>2022-08-02T10:00:51.000Z</time>
      </trkpt>
      <trkpt lat="49.33155" lon="-1.09065">
        <ele>12.398601</ele>
        <time>2022-08-02T10:00:52.000Z</time>
      </trkpt>
      <trkpt lat="49.33157" lon="-1.09071">
        <ele>12.502029</ele>
        <time>2022-08-02T10:00:53.000Z</time>
      </trkpt>
      <trkpt lat="49.33159" lon="-1.09077">
        <ele>12.59329</ele>
        <time>2022-08-02T10:00:54.000Z</time>
      </trkpt>
      <trkpt lat="49.3316" lon="-1.09082">
        <ele>12.682888</ele>
        <time>2022-08-02T10:00:55.000Z</time>
      </trkpt>
      <trkpt lat="49.33162" lon="-1.09088">
        <ele>12.776529</ele>
        <time>2022-08-02T10:00:56.000Z</time>
      </trkpt>
      <trkpt lat="49.33164" lon="-1.09094">
        <ele>12.864786</ele>
        <time>2022-08-02T10:00:57.000Z</time>
      </trkpt>
      <trkpt lat="49.33165" lon="-1.09099">
        <ele>12.950376</ele>
        <time>2022-08-02T10:00:58.000Z</time>
      </trkpt>
      <trkpt lat="49.33167" lon="-1.09105">
        <ele>13.041592</ele>
        <time>2022-08-02T10:00:59.000Z</time>
      </trkpt>
      <trkpt lat="49.33169" lon="-1.0911">
        <ele>13.127182</ele>
        <time>2022-08-02T10:01:00.000Z</time>
      </trkpt>
      <trkpt lat="49.3317" lon="-1.09115">
        <ele>13.211445</ele>
        <time>2022-08-02T10:01:01.000Z</time>
      </trkpt>
      <trkpt lat="49.33172" lon="-1.0912">
        <ele>13.297035</ele>
        <time>2022-08-02T10:01:02.000Z</time>
      </trkpt>
      <trkpt lat="49.33173" lon="-1.09126">
        <ele>13.381297</ele>
        <time>2022-08-02T10:01:03.000Z</time>
      </trkpt>
      <trkpt lat="49.33175" lon="-1.09131">
        <ele>13.469774</ele>
        <time>2022-08-02T10:01:04.000Z</time>
      </trkpt>
      <trkpt lat="49.33177" lon="-1.09136">
        <ele>13.552714</ele>
        <time>2022-08-02T10:01:05.000Z</time>
      </trkpt>
      <trkpt lat="49.33178" lon="-1.09141">
        <ele>13.633547</ele>
        <time>2022-08-02T10:01:06.000Z</time>
      </trkpt>
      <trkpt lat="49.3318" lon="-1.09146">
        <ele>13.722024</ele>
        <time>2022-08-02T10:01:07.000Z</time>
      </trkpt>
      <trkpt lat="49.33181" lon="-1.09152">
        <ele>13.804239</ele>
        <time>2022-08-02T10:01:08.000Z</time>
      </trkpt>
      <trkpt lat="49.33183" lon="-1.09157">
        <ele>13.892716</ele>
        <time>2022-08-02T10:01:09.000Z</time>
      </trkpt>
      <trkpt lat="49.33184" lon="-1.09162">
        <ele>13.972971</ele>
        <time>2022-08-02T10:01:10.000Z</time>
      </trkpt>
      <trkpt lat="49.33186" lon="-1.09167">
        <ele>14.061607</ele>
        <time>2022-08-02T10:01:11.000Z</time>
      </trkpt>
      <trkpt lat="49.33188" lon="-1.09173">
        <ele>14.148529</ele>
        <time>2022-08-02T10:01:12.000Z</time>
      </trkpt>
      <trkpt lat="49.33189" lon="-1.09178">
        <ele>14.228773</ele>
        <time>2022-08-02T10:01:13.000Z</time>
      </trkpt>
      <trkpt lat="49.3319" lon="-1.09183">
        <ele>14.310384</ele>
        <time>2022-08-02T10:01:14.000Z</time>
      </trkpt>
      <trkpt lat="49.33192" lon="-1.09189">
        <ele>14.398641</ele>
        <time>2022-08-02T10:01:15.000Z</time>
      </trkpt>
      <trkpt lat="49.33194" lon="-1.09194">
        <ele>14.485996</ele>
        <time>2022-08-02T10:01:16.000Z</time>
      </trkpt>
      <trkpt lat="49.33195" lon="-1.09199">
        <ele>14.566241</ele>
        <time>2022-08-02T10:01:17.000Z</time>
      </trkpt>
      <trkpt lat="49.33196" lon="-1.09204">
        <ele>14.6485</ele>
        <time>2022-08-02T10:01:18.000Z</time>
      </trkpt>
      <trkpt lat="49.33198" lon="-1.0921">
        <ele>14.734089</ele>
        <time>2022-08-02T10:01:19.000Z</time>
      </trkpt>
      <trkpt lat="49.33199" lon="-1.09215">
        <ele>14.818352</ele>
        <time>2022-08-02T10:01:20.000Z</time>
      </trkpt>
      <trkpt lat="49.33201" lon="-1.0922">
        <ele>14.903941</ele>
        <time>2022-08-02T10:01:21.000Z</time>
      </trkpt>
      <trkpt lat="49.33202" lon="-1.09226">
        <ele>14.972906</ele>
        <time>2022-08-02T10:01:22.000Z</time>
      </trkpt>
      <trkpt lat="49.33204" lon="-1.09231">
        <ele>15.0357</ele>
        <time>2022-08-02T10:01:23.000Z</time>
      </trkpt>
      <trkpt lat="49.33205" lon="-1.09237">
        <ele>15.096902</ele>
        <time>2022-08-02T10:01:24.000Z</time>
      </trkpt>
      <trkpt lat="49.33207" lon="-1.09242">
        <ele>15.156</ele>
        <time>2022-08-02T10:01:25.000Z</time>
      </trkpt>
      <trkpt lat="49.33208" lon="-1.09247">
        <ele>15.215195</ele>
        <time>2022-08-02T10:01:26.000Z</time>
      </trkpt>
      <trkpt lat="49.3321" lon="-1.09253">
        <ele>15.275213</ele>
        <time>2022-08-02T10:01:27.000Z</time>
      </trkpt>
      <trkpt lat="49.33212" lon="-1.09258">
        <ele>15.336415</ele>
        <time>2022-08-02T10:01:28.000Z</time>
      </trkpt>
      <trkpt lat="49.33214" lon="-1.09263">
        <ele>15.39838</ele>
        <time>2022-08-02T10:01:29.000Z</time>
      </trkpt>
      <trkpt lat="49.33215" lon="-1.09269">
        <ele>15.459321</ele>
        <time>2022-08-02T10:01:30.000Z</time>
      </trkpt>
      <trkpt lat="49.33217" lon="-1.09275">
        <ele>15.522114</ele>
        <time>2022-08-02T10:01:31.000Z</time>
      </trkpt>
      <trkpt lat="49.33219" lon="-1.0928">
        <ele>15.583316</ele>
        <time>2022-08-02T10:01:32.000Z</time>
      </trkpt>
      <trkpt lat="49.33221" lon="-1.09285">
        <ele>15.645406</ele>
        <time>2022-08-02T10:01:33.000Z</time>
      </trkpt>
      <trkpt lat="49.33222" lon="-1.0929">
        <ele>15.699292</ele>
        <time>2022-08-02T10:01:34.000Z</time>
      </trkpt>
      <trkpt lat="49.33224" lon="-1.09296">
        <ele>15.761382</ele>
        <time>2022-08-02T10:01:35.000Z</time>
      </trkpt>
      <trkpt lat="49.33225" lon="-1.09301">
        <ele>15.82048</ele>
        <time>2022-08-02T10:01:36.000Z</time>
      </trkpt>
      <trkpt lat="49.33227" lon="-1.09306">
        <ele>15.878662</ele>
        <time>2022-08-02T10:01:37.000Z</time>
      </trkpt>
      <trkpt lat="49.33229" lon="-1.09311">
        <ele>15.938099</ele>
        <time>2022-08-02T10:01:38.000Z</time>
      </trkpt>
      <trkpt lat="49.3323" lon="-1.09317">
        <ele>15.994449</ele>
        <time>2022-08-02T10:01:39.000Z</time>
      </trkpt>
      <trkpt lat="49.33232" lon="-1.09322">
        <ele>16.050808</ele>
        <time>2022-08-02T10:01:40.000Z</time>
      </trkpt>
      <trkpt lat="49.33234" lon="-1.09326">
        <ele>16.10763</ele>
        <time>2022-08-02T10:01:41.000Z</time>
      </trkpt>
      <trkpt lat="49.33235" lon="-1.09331">
        <ele>16.163081</ele>
        <time>2022-08-02T10:01:42.000Z</time>
      </trkpt>
      <trkpt lat="49.33237" lon="-1.09336">
        <ele>16.222455</ele>
        <time>2022-08-02T10:01:43.000Z</time>
      </trkpt>
      <trkpt lat="49.33239" lon="-1.09341">
        <ele>16.280098</ele>
        <time>2022-08-02T10:01:44.000Z</time>
      </trkpt>
      <trkpt lat="49.33242" lon="-1.09345">
        <ele>16.337016</ele>
        <time>2022-08-02T10:01:45.000Z</time>
      </trkpt>
      <trkpt lat="49.33243" lon="-1.0935">
        <ele>16.390666</ele>
        <time>2022-08-02T10:01:46.000Z</time>
      </trkpt>
      <trkpt lat="49.33245" lon="-1.09355">
        <ele>16.449215</ele>
        <time>2022-08-02T10:01:47.000Z</time>
      </trkpt>
      <trkpt lat="49.33247" lon="-1.09359">
        <ele>16.504325</ele>
        <time>2022-08-02T10:01:48.000Z</time>
      </trkpt>
      <trkpt lat="49.3325" lon="-1.09364">
        <ele>16.559637</ele>
        <time>2022-08-02T10:01:49.000Z</time>
      </trkpt>
      <trkpt lat="49.33253" lon="-1.09368">
        <ele>16.622246</ele>
        <time>2022-08-02T10:01:50.000Z</time>
      </trkpt>
      <trkpt lat="49.33255" lon="-1.09372">
        <ele>16.675204</ele>
        <time>2022-08-02T10:01:51.000Z</time>
      </trkpt>
      <trkpt lat="49.33257" lon="-1.09376">
        <ele>16.732274</ele>
        <time>2022-08-02T10:01:52.000Z</time>
      </trkpt>
      <trkpt lat="49.3326" lon="-1.09381">
        <ele>16.790577</ele>
        <time>2022-08-02T10:01:53.000Z</time>
      </trkpt>
      <trkpt lat="49.33262" lon="-1.09385">
        <ele>16.856064</ele>
        <time>2022-08-02T10:01:54.000Z</time>
      </trkpt>
      <trkpt lat="49.33265" lon="-1.0939">
        <ele>16.920096</ele>
        <time>2022-08-02T10:01:55.000Z</time>
      </trkpt>
      <trkpt lat="49.33268" lon="-1.09394">
        <ele>16.980698</ele>
        <time>2022-08-02T10:01:56.000Z</time>
      </trkpt>
      <trkpt lat="49.33271" lon="-1.09399">
        <ele>17.048087</ele>
        <time>2022-08-02T10:01:57.000Z</time>
      </trkpt>
      <trkpt lat="49.33274" lon="-1.09403">
        <ele>17.112119</ele>
        <time>2022-08-02T10:01:58.000Z</time>
      </trkpt>
      <trkpt lat="49.33277" lon="-1.09408">
        <ele>17.177495</ele>
        <time>2022-08-02T10:01:59.000Z</time>
      </trkpt>
      <trkpt lat="49.3328" lon="-1.09412">
        <ele>17.236844</ele>
        <time>2022-08-02T10:02:00.000Z</time>
      </trkpt>
      <trkpt lat="49.33283" lon="-1.09416">
        <ele>17.303553</ele>
        <time>2022-08-02T10:02:01.000Z</time>
      </trkpt>
      <trkpt lat="49.33285" lon="-1.09421">
        <ele>17.361856</ele>
        <time>2022-08-02T10:02:02.000Z</time>
      </trkpt>
      <trkpt lat="49.33289" lon="-1.09425">
        <ele>17.427895</ele>
        <time>2022-08-02T10:02:03.000Z</time>
      </trkpt>
      <trkpt lat="49.33291" lon="-1.09429">
        <ele>17.487988</ele>
        <time>2022-08-02T10:02:04.000Z</time>
      </trkpt>
      <trkpt lat="49.33294" lon="-1.09433">
        <ele>17.552711</ele>
        <time>2022-08-02T10:02:05.000Z</time>
      </trkpt>
      <trkpt lat="49.33297" lon="-1.09437">
        <ele>17.613251</ele>
        <time>2022-08-02T10:02:06.000Z</time>
      </trkpt>
      <trkpt lat="49.333" lon="-1.09441">
        <ele>17.673791</ele>
        <time>2022-08-02T10:02:07.000Z</time>
      </trkpt>
      <trkpt lat="49.33303" lon="-1.09445">
        <ele>17.733185</ele>
        <time>2022-08-02T10:02:08.000Z</time>
      </trkpt>
      <trkpt lat="49.33307" lon="-1.0945">
        <ele>17.678561</ele>
        <time>2022-08-02T10:02:09.000Z</time>
      </trkpt>
      <trkpt lat="49.33309" lon="-1.09454">
        <ele>17.632117</ele>
        <time>2022-08-02T10:02:10.000Z</time>
      </trkpt>
      <trkpt lat="49.33313" lon="-1.09458">
        <ele>17.575643</ele>
        <time>2022-08-02T10:02:11.000Z</time>
      </trkpt>
      <trkpt lat="49.33316" lon="-1.09463">
        <ele>17.518216</ele>
        <time>2022-08-02T10:02:12.000Z</time>
      </trkpt>
      <trkpt lat="49.33319" lon="-1.09468">
        <ele>17.463432</ele>
        <time>2022-08-02T10:02:13.000Z</time>
      </trkpt>
      <trkpt lat="49.33323" lon="-1.09472">
        <ele>17.403069</ele>
        <time>2022-08-02T10:02:14.000Z</time>
      </trkpt>
      <trkpt lat="49.33327" lon="-1.09477">
        <ele>17.343927</ele>
        <time>2022-08-02T10:02:15.000Z</time>
      </trkpt>
      <trkpt lat="49.33331" lon="-1.09483">
        <ele>17.279496</ele>
        <time>2022-08-02T10:02:16.000Z</time>
      </trkpt>
      <trkpt lat="49.33334" lon="-1.09488">
        <ele>17.213775</ele>
        <time>2022-08-02T10:02:17.000Z</time>
      </trkpt>
      <trkpt lat="49.33338" lon="-1.09494">
        <ele>17.150065</ele>
        <time>2022-08-02T10:02:18.000Z</time>
      </trkpt>
      <trkpt lat="49.33341" lon="-1.095">
        <ele>17.087898</ele>
        <time>2022-08-02T10:02:19.000Z</time>
      </trkpt>
      <trkpt lat="49.33345" lon="-1.09506">
        <ele>17.020465</ele>
        <time>2022-08-02T10:02:20.000Z</time>
      </trkpt>
      <trkpt lat="49.33347" lon="-1.09513">
        <ele>16.959681</ele>
        <time>2022-08-02T10:02:21.000Z</time>
      </trkpt>
      <trkpt lat="49.3335" lon="-1.09519">
        <ele>16.898824</ele>
        <time>2022-08-02T10:02:22.000Z</time>
      </trkpt>
      <trkpt lat="49.33353" lon="-1.09525">
        <ele>16.840062</ele>
        <time>2022-08-02T10:02:23.000Z</time>
      </trkpt>
      <trkpt lat="49.33355" lon="-1.09531">
        <ele>16.781861</ele>
        <time>2022-08-02T10:02:24.000Z</time>
      </trkpt>
      <trkpt lat="49.33357" lon="-1.09538">
        <ele>16.726642</ele>
        <time>2022-08-02T10:02:25.000Z</time>
      </trkpt>
      <trkpt lat="49.33359" lon="-1.09544">
        <ele>16.666175</ele>
        <time>2022-08-02T10:02:26.000Z</time>
      </trkpt>
      <trkpt lat="49.33361" lon="-1.09551">
        <ele>16.604427</ele>
        <time>2022-08-02T10:02:27.000Z</time>
      </trkpt>
      <trkpt lat="49.33364" lon="-1.09558">
        <ele>16.541501</ele>
        <time>2022-08-02T10:02:28.000Z</time>
      </trkpt>
      <trkpt lat="49.33366" lon="-1.09565">
        <ele>16.479036</ele>
        <time>2022-08-02T10:02:29.000Z</time>
      </trkpt>
      <trkpt lat="49.33369" lon="-1.09572">
        <ele>16.41114</ele>
        <time>2022-08-02T10:02:30.000Z</time>
      </trkpt>
      <trkpt lat="49.33372" lon="-1.09579">
        <ele>16.341564</ele>
        <time>2022-08-02T10:02:31.000Z</time>
      </trkpt>
      <trkpt lat="49.33375" lon="-1.09587">
        <ele>16.271324</ele>
        <time>2022-08-02T10:02:32.000Z</time>
      </trkpt>
      <trkpt lat="49.33379" lon="-1.09593">
        <ele>16.198918</ele>
        <time>2022-08-02T10:02:33.000Z</time>
      </trkpt>
      <trkpt lat="49.33384" lon="-1.09599">
        <ele>16.123357</ele>
        <time>2022-08-02T10:02:34.000Z</time>
      </trkpt>
      <trkpt lat="49.33388" lon="-1.09604">
        <ele>16.053199</ele>
        <time>2022-08-02T10:02:35.000Z</time>
      </trkpt>
      <trkpt lat="49.33393" lon="-1.09609">
        <ele>15.986895</ele>
        <time>2022-08-02T10:02:36.000Z</time>
      </trkpt>
      <trkpt lat="49.33398" lon="-1.09613">
        <ele>15.913838</ele>
        <time>2022-08-02T10:02:37.000Z</time>
      </trkpt>
      <trkpt lat="49.33403" lon="-1.09618">
        <ele>15.842253</ele>
        <time>2022-08-02T10:02:38.000Z</time>
      </trkpt>
      <trkpt lat="49.33408" lon="-1.09622">
        <ele>15.767378</ele>
        <time>2022-08-02T10:02:39.000Z</time>
      </trkpt>
      <trkpt lat="49.33413" lon="-1.09626">
        <ele>15.697259</ele>
        <time>2022-08-02T10:02:40.000Z</time>
      </trkpt>
      <trkpt lat="49.33418" lon="-1.0963">
        <ele>15.632941</ele>
        <time>2022-08-02T10:02:41.000Z</time>
      </trkpt>
      <trkpt lat="49.33424" lon="-1.09634">
        <ele>15.554296</ele>
        <time>2022-08-02T10:02:42.000Z</time>
      </trkpt>
      <trkpt lat="49.33429" lon="-1.09638">
        <ele>15.46679</ele>
        <time>2022-08-02T10:02:43.000Z</time>
      </trkpt>
      <trkpt lat="49.33435" lon="-1.09642">
        <ele>15.340635</ele>
        <time>2022-08-02T10:02:44.000Z</time>
      </trkpt>
      <trkpt lat="49.3344" lon="-1.09646">
        <ele>15.222177</ele>
        <time>2022-08-02T10:02:45.000Z</time>
      </trkpt>
      <trkpt lat="49.33446" lon="-1.0965">
        <ele>15.094359</ele>
        <time>2022-08-02T10:02:46.000Z</time>
      </trkpt>
      <trkpt lat="49.33451" lon="-1.09654">
        <ele>14.986453</ele>
        <time>2022-08-02T10:02:47.000Z</time>
      </trkpt>
      <trkpt lat="49.33456" lon="-1.09658">
        <ele>14.874451</ele>
        <time>2022-08-02T10:02:48.000Z</time>
      </trkpt>
      <trkpt lat="49.33461" lon="-1.09663">
        <ele>14.761966</ele>
        <time>2022-08-02T10:02:49.000Z</time>
      </trkpt>
      <trkpt lat="49.33465" lon="-1.09667">
        <ele>14.652164</ele>
        <time>2022-08-02T10:02:50.000Z</time>
      </trkpt>
      <trkpt lat="49.3347" lon="-1.09671">
        <ele>14.547439</ele>
        <time>2022-08-02T10:02:51.000Z</time>
      </trkpt>
      <trkpt lat="49.33474" lon="-1.09675">
        <ele>14.447057</ele>
        <time>2022-08-02T10:02:52.000Z</time>
      </trkpt>
      <trkpt lat="49.33478" lon="-1.09679">
        <ele>14.352639</ele>
        <time>2022-08-02T10:02:53.000Z</time>
      </trkpt>
      <trkpt lat="49.33483" lon="-1.09682">
        <ele>14.25411</ele>
        <time>2022-08-02T10:02:54.000Z</time>
      </trkpt>
      <trkpt lat="49.33487" lon="-1.09685">
        <ele>14.155581</ele>
        <time>2022-08-02T10:02:55.000Z</time>
      </trkpt>
      <trkpt lat="49.33492" lon="-1.09689">
        <ele>14.062895</ele>
        <time>2022-08-02T10:02:56.000Z</time>
      </trkpt>
      <trkpt lat="49.33496" lon="-1.09692">
        <ele>13.963804</ele>
        <time>2022-08-02T10:02:57.000Z</time>
      </trkpt>
      <trkpt lat="49.33501" lon="-1.09696">
        <ele>13.857103</ele>
        <time>2022-08-02T10:02:58.000Z</time>
      </trkpt>
      <trkpt lat="49.33506" lon="-1.097">
        <ele>13.747945</ele>
        <time>2022-08-02T10:02:59.000Z</time>
      </trkpt>
      <trkpt lat="49.33511" lon="-1.09705">
        <ele>13.631725</ele>
        <time>2022-08-02T10:03:00.000Z</time>
      </trkpt>
      <trkpt lat="49.33516" lon="-1.09709">
        <ele>13.516766</ele>
        <time>2022-08-02T10:03:01.000Z</time>
      </trkpt>
      <trkpt lat="49.33521" lon="-1.09713">
        <ele>13.400678</ele>
        <time>2022-08-02T10:03:02.000Z</time>
      </trkpt>
      <trkpt lat="49.33526" lon="-1.09718">
        <ele>13.284457</ele>
        <time>2022-08-02T10:03:03.000Z</time>
      </trkpt>
      <trkpt lat="49.33532" lon="-1.09722">
        <ele>13.160095</ele>
        <time>2022-08-02T10:03:04.000Z</time>
      </trkpt>
      <trkpt lat="49.33538" lon="-1.09726">
        <ele>13.033397</ele>
        <time>2022-08-02T10:03:05.000Z</time>
      </trkpt>
      <trkpt lat="49.33544" lon="-1.0973">
        <ele>12.897828</ele>
        <time>2022-08-02T10:03:06.000Z</time>
      </trkpt>
      <trkpt lat="49.33551" lon="-1.09734">
        <ele>12.750263</ele>
        <time>2022-08-02T10:03:07.000Z</time>
      </trkpt>
      <trkpt lat="49.33557" lon="-1.09738">
        <ele>12.615154</ele>
        <time>2022-08-02T10:03:08.000Z</time>
      </trkpt>
      <trkpt lat="49.33565" lon="-1.09742">
        <ele>12.453713</ele>
        <time>2022-08-02T10:03:09.000Z</time>
      </trkpt>
      <trkpt lat="49.33572" lon="-1.09745">
        <ele>12.307157</ele>
        <time>2022-08-02T10:03:10.000Z</time>
      </trkpt>
      <trkpt lat="49.3358" lon="-1.09749">
        <ele>12.142815</ele>
        <time>2022-08-02T10:03:11.000Z</time>
      </trkpt>
      <trkpt lat="49.33588" lon="-1.09752">
        <ele>11.979161</ele>
        <time>2022-08-02T10:03:12.000Z</time>
      </trkpt>
      <trkpt lat="49.33596" lon="-1.09755">
        <ele>11.969562</ele>
        <time>2022-08-02T10:03:13.000Z</time>
      </trkpt>
      <trkpt lat="49.33605" lon="-1.09758">
        <ele>11.985743</ele>
        <time>2022-08-02T10:03:14.000Z</time>
      </trkpt>
      <trkpt lat="49.33613" lon="-1.0976">
        <ele>12.001826</ele>
        <time>2022-08-02T10:03:15.000Z</time>
      </trkpt>
      <trkpt lat="49.33621" lon="-1.09762">
        <ele>12.018321</ele>
        <time>2022-08-02T10:03:16.000Z</time>
      </trkpt>
      <trkpt lat="49.3363" lon="-1.09763">
        <ele>12.034991</ele>
        <time>2022-08-02T10:03:17.000Z</time>
      </trkpt>
      <trkpt lat="49.33638" lon="-1.09765">
        <ele>12.05097</ele>
        <time>2022-08-02T10:03:18.000Z</time>
      </trkpt>
      <trkpt lat="49.33646" lon="-1.09768">
        <ele>12.065982</ele>
        <time>2022-08-02T10:03:19.000Z</time>
      </trkpt>
      <trkpt lat="49.33653" lon="-1.09771">
        <ele>12.079821</ele>
        <time>2022-08-02T10:03:20.000Z</time>
      </trkpt>
      <trkpt lat="49.33661" lon="-1.09775">
        <ele>12.095185</ele>
        <time>2022-08-02T10:03:21.000Z</time>
      </trkpt>
      <trkpt lat="49.33668" lon="-1.09779">
        <ele>12.110124</ele>
        <time>2022-08-02T10:03:22.000Z</time>
      </trkpt>
      <trkpt lat="49.33676" lon="-1.09782">
        <ele>12.124801</ele>
        <time>2022-08-02T10:03:23.000Z</time>
      </trkpt>
      <trkpt lat="49.33682" lon="-1.09786">
        <ele>12.138278</ele>
        <time>2022-08-02T10:03:24.000Z</time>
      </trkpt>
      <trkpt lat="49.33689" lon="-1.09789">
        <ele>12.151095</ele>
        <time>2022-08-02T10:03:25.000Z</time>
      </trkpt>
      <trkpt lat="49.33694" lon="-1.09792">
        <ele>12.162566</ele>
        <time>2022-08-02T10:03:26.000Z</time>
      </trkpt>
      <trkpt lat="49.337" lon="-1.09794">
        <ele>12.173143</ele>
        <time>2022-08-02T10:03:27.000Z</time>
      </trkpt>
      <trkpt lat="49.33705" lon="-1.09795">
        <ele>12.182552</ele>
        <time>2022-08-02T10:03:28.000Z</time>
      </trkpt>
      <trkpt lat="49.33709" lon="-1.09797">
        <ele>12.191932</ele>
        <time>2022-08-02T10:03:29.000Z</time>
      </trkpt>
      <trkpt lat="49.33714" lon="-1.09798">
        <ele>12.200025</ele>
        <time>2022-08-02T10:03:30.000Z</time>
      </trkpt>
      <trkpt lat="49.33718" lon="-1.09799">
        <ele>12.208118</ele>
        <time>2022-08-02T10:03:31.000Z</time>
      </trkpt>
      <trkpt lat="49.33722" lon="-1.098">
        <ele>12.216023</ele>
        <time>2022-08-02T10:03:32.000Z</time>
      </trkpt>
      <trkpt lat="49.33726" lon="-1.09801">
        <ele>12.224681</ele>
        <time>2022-08-02T10:03:33.000Z</time>
      </trkpt>
      <trkpt lat="49.33731" lon="-1.09802">
        <ele>12.232839</ele>
        <time>2022-08-02T10:03:34.000Z</time>
      </trkpt>
      <trkpt lat="49.33735" lon="-1.09804">
        <ele>12.241395</ele>
        <time>2022-08-02T10:03:35.000Z</time>
      </trkpt>
      <trkpt lat="49.3374" lon="-1.09805">
        <ele>12.250164</ele>
        <time>2022-08-02T10:03:36.000Z</time>
      </trkpt>
      <trkpt lat="49.33744" lon="-1.09807">
        <ele>12.258374</ele>
        <time>2022-08-02T10:03:37.000Z</time>
      </trkpt>
      <trkpt lat="49.33748" lon="-1.09808">
        <ele>12.265788</ele>
        <time>2022-08-02T10:03:38.000Z</time>
      </trkpt>
      <trkpt lat="49.33751" lon="-1.09809">
        <ele>12.273317</ele>
        <time>2022-08-02T10:03:39.000Z</time>
      </trkpt>
      <trkpt lat="49.33755" lon="-1.0981">
        <ele>12.280604</ele>
        <time>2022-08-02T10:03:40.000Z</time>
      </trkpt>
      <trkpt lat="49.33759" lon="-1.09811">
        <ele>12.288663</ele>
        <time>2022-08-02T10:03:41.000Z</time>
      </trkpt>
      <trkpt lat="49.33763" lon="-1.09812">
        <ele>12.29552</ele>
        <time>2022-08-02T10:03:42.000Z</time>
      </trkpt>
      <trkpt lat="49.33766" lon="-1.09813">
        <ele>12.328967</ele>
        <time>2022-08-02T10:03:43.000Z</time>
      </trkpt>
      <trkpt lat="49.33769" lon="-1.09815">
        <ele>12.385774</ele>
        <time>2022-08-02T10:03:44.000Z</time>
      </trkpt>
      <trkpt lat="49.33773" lon="-1.09816">
        <ele>12.44844</ele>
        <time>2022-08-02T10:03:45.000Z</time>
      </trkpt>
      <trkpt lat="49.33776" lon="-1.09817">
        <ele>12.504756</ele>
        <time>2022-08-02T10:03:46.000Z</time>
      </trkpt>
      <trkpt lat="49.3378" lon="-1.09818">
        <ele>12.56615</ele>
        <time>2022-08-02T10:03:47.000Z</time>
      </trkpt>
      <trkpt lat="49.33783" lon="-1.09819">
        <ele>12.627994</ele>
        <time>2022-08-02T10:03:48.000Z</time>
      </trkpt>
      <trkpt lat="49.33786" lon="-1.09821">
        <ele>12.680768</ele>
        <time>2022-08-02T10:03:49.000Z</time>
      </trkpt>
      <trkpt lat="49.33789" lon="-1.09822">
        <ele>12.733912</ele>
        <time>2022-08-02T10:03:50.000Z</time>
      </trkpt>
      <trkpt lat="49.33791" lon="-1.09824">
        <ele>12.777445</ele>
        <time>2022-08-02T10:03:51.000Z</time>
      </trkpt>
      <trkpt lat="49.33793" lon="-1.09826">
        <ele>12.819712</ele>
        <time>2022-08-02T10:03:52.000Z</time>
      </trkpt>
      <trkpt lat="49.33796" lon="-1.09827">
        <ele>12.870969</ele>
        <time>2022-08-02T10:03:53.000Z</time>
      </trkpt>
      <trkpt lat="49.33799" lon="-1.09828">
        <ele>12.927285</ele>
        <time>2022-08-02T10:03:54.000Z</time>
      </trkpt>
      <trkpt lat="49.33802" lon="-1.09829">
        <ele>12.973575</ele>
        <time>2022-08-02T10:03:55.000Z</time>
      </trkpt>
      <trkpt lat="49.33805" lon="-1.09831">
        <ele>13.033159</ele>
        <time>2022-08-02T10:03:56.000Z</time>
      </trkpt>
      <trkpt lat="49.33809" lon="-1.09833">
        <ele>13.095825</ele>
        <time>2022-08-02T10:03:57.000Z</time>
      </trkpt>
      <trkpt lat="49.33813" lon="-1.09834">
        <ele>13.164012</ele>
        <time>2022-08-02T10:03:58.000Z</time>
      </trkpt>
      <trkpt lat="49.33815" lon="-1.09834">
        <ele>13.208051</ele>
        <time>2022-08-02T10:03:59.000Z</time>
      </trkpt>
      <trkpt lat="49.33819" lon="-1.09836">
        <ele>13.272094</ele>
        <time>2022-08-02T10:04:00.000Z</time>
      </trkpt>
      <trkpt lat="49.33822" lon="-1.09837">
        <ele>13.328645</ele>
        <time>2022-08-02T10:04:01.000Z</time>
      </trkpt>
      <trkpt lat="49.33825" lon="-1.09838">
        <ele>13.386345</ele>
        <time>2022-08-02T10:04:02.000Z</time>
      </trkpt>
      <trkpt lat="49.33828" lon="-1.0984">
        <ele>13.436478</ele>
        <time>2022-08-02T10:04:03.000Z</time>
      </trkpt>
      <trkpt lat="49.33831" lon="-1.0984">
        <ele>13.492389</ele>
        <time>2022-08-02T10:04:04.000Z</time>
      </trkpt>
      <trkpt lat="49.33834" lon="-1.09842">
        <ele>13.539905</ele>
        <time>2022-08-02T10:04:05.000Z</time>
      </trkpt>
      <trkpt lat="49.33837" lon="-1.09843">
        <ele>13.597605</ele>
        <time>2022-08-02T10:04:06.000Z</time>
      </trkpt>
      <trkpt lat="49.33839" lon="-1.09845">
        <ele>13.647758</ele>
        <time>2022-08-02T10:04:07.000Z</time>
      </trkpt>
      <trkpt lat="49.33841" lon="-1.09848">
        <ele>13.693183</ele>
        <time>2022-08-02T10:04:08.000Z</time>
      </trkpt>
      <trkpt lat="49.33843" lon="-1.09852">
        <ele>13.744371</ele>
        <time>2022-08-02T10:04:09.000Z</time>
      </trkpt>
      <trkpt lat="49.33844" lon="-1.09856">
        <ele>13.793784</ele>
        <time>2022-08-02T10:04:10.000Z</time>
      </trkpt>
      <trkpt lat="49.33845" lon="-1.09861">
        <ele>13.851249</ele>
        <time>2022-08-02T10:04:11.000Z</time>
      </trkpt>
      <trkpt lat="49.33844" lon="-1.09866">
        <ele>13.913115</ele>
        <time>2022-08-02T10:04:12.000Z</time>
      </trkpt>
      <trkpt lat="49.33844" lon="-1.09872">
        <ele>13.974916</ele>
        <time>2022-08-02T10:04:13.000Z</time>
      </trkpt>
      <trkpt lat="49.33844" lon="-1.09878">
        <ele>14.040293</ele>
        <time>2022-08-02T10:04:14.000Z</time>
      </trkpt>
      <trkpt lat="49.33843" lon="-1.09884">
        <ele>14.107911</ele>
        <time>2022-08-02T10:04:15.000Z</time>
      </trkpt>
      <trkpt lat="49.33843" lon="-1.09889">
        <ele>14.173288</ele>
        <time>2022-08-02T10:04:16.000Z</time>
      </trkpt>
      <trkpt lat="49.33843" lon="-1.09895">
        <ele>14.235305</ele>
        <time>2022-08-02T10:04:17.000Z</time>
      </trkpt>
      <trkpt lat="49.33842" lon="-1.099">
        <ele>14.297489</ele>
        <time>2022-08-02T10:04:18.000Z</time>
      </trkpt>
      <trkpt lat="49.33842" lon="-1.09906">
        <ele>14.358167</ele>
        <time>2022-08-02T10:04:19.000Z</time>
      </trkpt>
      <trkpt lat="49.33843" lon="-1.09911">
        <ele>14.414771</ele>
        <time>2022-08-02T10:04:20.000Z</time>
      </trkpt>
      <trkpt lat="49.33843" lon="-1.09916">
        <ele>14.472311</ele>
        <time>2022-08-02T10:04:21.000Z</time>
      </trkpt>
      <trkpt lat="49.33844" lon="-1.09921">
        <ele>14.526126</ele>
        <time>2022-08-02T10:04:22.000Z</time>
      </trkpt>
      <trkpt lat="49.33844" lon="-1.09925">
        <ele>14.576955</ele>
        <time>2022-08-02T10:04:23.000Z</time>
      </trkpt>
      <trkpt lat="49.33844" lon="-1.09929">
        <ele>14.625272</ele>
        <time>2022-08-02T10:04:24.000Z</time>
      </trkpt>
      <trkpt lat="49.33844" lon="-1.09934">
        <ele>14.674983</ele>
        <time>2022-08-02T10:04:25.000Z</time>
      </trkpt>
      <trkpt lat="49.33844" lon="-1.09938">
        <ele>14.717681</ele>
        <time>2022-08-02T10:04:26.000Z</time>
      </trkpt>
      <trkpt lat="49.33844" lon="-1.09941">
        <ele>14.751391</ele>
        <time>2022-08-02T10:04:27.000Z</time>
      </trkpt>
      <trkpt lat="49.33844" lon="-1.09944">
        <ele>14.785101</ele>
        <time>2022-08-02T10:04:28.000Z</time>
      </trkpt>
      <trkpt lat="49.33844" lon="-1.09946">
        <ele>14.816563</ele>
        <time>2022-08-02T10:04:29.000Z</time>
      </trkpt>
      <trkpt lat="49.33843" lon="-1.09952">
        <ele>14.879194</ele>
        <time>2022-08-02T10:04:31.000Z</time>
      </trkpt>
      <trkpt lat="49.3384" lon="-1.09954">
        <ele>14.926534</ele>
        <time>2022-08-02T10:04:33.000Z</time>
      </trkpt>
      <trkpt lat="49.33838" lon="-1.09954">
        <ele>14.959472</ele>
        <time>2022-08-02T10:04:34.000Z</time>
      </trkpt>
      <trkpt lat="49.33836" lon="-1.09953">
        <ele>15.005435</ele>
        <time>2022-08-02T10:04:35.000Z</time>
      </trkpt>
      <trkpt lat="49.33833" lon="-1.09952">
        <ele>15.054189</ele>
        <time>2022-08-02T10:04:36.000Z</time>
      </trkpt>
      <trkpt lat="49.3383" lon="-1.09952">
        <ele>15.09971</ele>
        <time>2022-08-02T10:04:37.000Z</time>
      </trkpt>
      <trkpt lat="49.33828" lon="-1.09951">
        <ele>15.14977</ele>
        <time>2022-08-02T10:04:38.000Z</time>
      </trkpt>
      <trkpt lat="49.33825" lon="-1.09951">
        <ele>15.192882</ele>
        <time>2022-08-02T10:04:39.000Z</time>
      </trkpt>
      <trkpt lat="49.33822" lon="-1.09952">
        <ele>15.248111</ele>
        <time>2022-08-02T10:04:40.000Z</time>
      </trkpt>
      <trkpt lat="49.33819" lon="-1.09952">
        <ele>15.292948</ele>
        <time>2022-08-02T10:04:41.000Z</time>
      </trkpt>
      <trkpt lat="49.33817" lon="-1.09951">
        <ele>15.337911</ele>
        <time>2022-08-02T10:04:42.000Z</time>
      </trkpt>
      <trkpt lat="49.33814" lon="-1.0995">
        <ele>15.387487</ele>
        <time>2022-08-02T10:04:43.000Z</time>
      </trkpt>
      <trkpt lat="49.3381" lon="-1.0995">
        <ele>15.398275</ele>
        <time>2022-08-02T10:04:44.000Z</time>
      </trkpt>
      <trkpt lat="49.33807" lon="-1.09949">
        <ele>15.396669</ele>
        <time>2022-08-02T10:04:45.000Z</time>
      </trkpt>
      <trkpt lat="49.33805" lon="-1.09948">
        <ele>15.394863</ele>
        <time>2022-08-02T10:04:46.000Z</time>
      </trkpt>
      <trkpt lat="49.33802" lon="-1.09948">
        <ele>15.393238</ele>
        <time>2022-08-02T10:04:47.000Z</time>
      </trkpt>
      <trkpt lat="49.338" lon="-1.09948">
        <ele>15.392055</ele>
        <time>2022-08-02T10:04:48.000Z</time>
      </trkpt>
      <trkpt lat="49.33798" lon="-1.09949">
        <ele>15.39083</ele>
        <time>2022-08-02T10:04:49.000Z</time>
      </trkpt>
      <trkpt lat="49.33796" lon="-1.09949">
        <ele>15.389398</ele>
        <time>2022-08-02T10:04:50.000Z</time>
      </trkpt>
      <trkpt lat="49.33793" lon="-1.0995">
        <ele>15.387646</ele>
        <time>2022-08-02T10:04:52.000Z</time>
      </trkpt>
      <trkpt lat="49.3379" lon="-1.0995">
        <ele>15.385631</ele>
        <time>2022-08-02T10:04:54.000Z</time>
      </trkpt>
      <trkpt lat="49.33788" lon="-1.09951">
        <ele>15.384199</ele>
        <time>2022-08-02T10:04:56.000Z</time>
      </trkpt>
      <trkpt lat="49.33788" lon="-1.09947">
        <ele>15.382849</ele>
        <time>2022-08-02T10:05:00.000Z</time>
      </trkpt>
      <trkpt lat="49.33789" lon="-1.09946">
        <ele>15.381684</ele>
        <time>2022-08-02T10:05:02.000Z</time>
      </trkpt>
      <trkpt lat="49.33792" lon="-1.09947">
        <ele>15.380036</ele>
        <time>2022-08-02T10:05:04.000Z</time>
      </trkpt>
      <trkpt lat="49.33795" lon="-1.09948">
        <ele>15.378134</ele>
        <time>2022-08-02T10:05:06.000Z</time>
      </trkpt>
      <trkpt lat="49.33797" lon="-1.09949">
        <ele>15.376935</ele>
        <time>2022-08-02T10:05:10.000Z</time>
      </trkpt>
      <trkpt lat="49.33803" lon="-1.0995">
        <ele>15.373107</ele>
        <time>2022-08-02T10:05:54.000Z</time>
      </trkpt>
      <trkpt lat="49.33806" lon="-1.0995">
        <ele>15.371117</ele>
        <time>2022-08-02T10:05:55.000Z</time>
      </trkpt>
      <trkpt lat="49.33809" lon="-1.0995">
        <ele>15.369124</ele>
        <time>2022-08-02T10:05:56.000Z</time>
      </trkpt>
      <trkpt lat="49.33813" lon="-1.09951">
        <ele>15.367125</ele>
        <time>2022-08-02T10:05:57.000Z</time>
      </trkpt>
      <trkpt lat="49.33816" lon="-1.09951">
        <ele>15.365136</ele>
        <time>2022-08-02T10:05:58.000Z</time>
      </trkpt>
      <trkpt lat="49.33819" lon="-1.09951">
        <ele>15.362959</ele>
        <time>2022-08-02T10:05:59.000Z</time>
      </trkpt>
      <trkpt lat="49.33823" lon="-1.09951">
        <ele>15.360597</ele>
        <time>2022-08-02T10:06:00.000Z</time>
      </trkpt>
      <trkpt lat="49.33826" lon="-1.09951">
        <ele>15.358792</ele>
        <time>2022-08-02T10:06:01.000Z</time>
      </trkpt>
      <trkpt lat="49.33829" lon="-1.09951">
        <ele>15.357176</ele>
        <time>2022-08-02T10:06:02.000Z</time>
      </trkpt>
      <trkpt lat="49.3383" lon="-1.09952">
        <ele>15.355984</ele>
        <time>2022-08-02T10:06:03.000Z</time>
      </trkpt>
      <trkpt lat="49.33832" lon="-1.09952">
        <ele>15.3548</ele>
        <time>2022-08-02T10:06:04.000Z</time>
      </trkpt>
      <trkpt lat="49.33835" lon="-1.09951">
        <ele>15.352986</ele>
        <time>2022-08-02T10:06:06.000Z</time>
      </trkpt>
      <trkpt lat="49.33837" lon="-1.09951">
        <ele>15.351799</ele>
        <time>2022-08-02T10:06:07.000Z</time>
      </trkpt>
      <trkpt lat="49.33839" lon="-1.09953">
        <ele>15.350489</ele>
        <time>2022-08-02T10:06:09.000Z</time>
      </trkpt>
      <trkpt lat="49.33842" lon="-1.09946">
        <ele>15.347226</ele>
        <time>2022-08-02T10:06:38.000Z</time>
      </trkpt>
      <trkpt lat="49.33841" lon="-1.09942">
        <ele>15.345514</ele>
        <time>2022-08-02T10:06:40.000Z</time>
      </trkpt>
      <trkpt lat="49.33841" lon="-1.09937">
        <ele>15.343641</ele>
        <time>2022-08-02T10:06:42.000Z</time>
      </trkpt>
      <trkpt lat="49.33843" lon="-1.09933">
        <ele>15.341534</ele>
        <time>2022-08-02T10:06:44.000Z</time>
      </trkpt>
      <trkpt lat="49.33845" lon="-1.09933">
        <ele>15.340335</ele>
        <time>2022-08-02T10:06:46.000Z</time>
      </trkpt>
      <trkpt lat="49.33845" lon="-1.09938">
        <ele>15.338342</ele>
        <time>2022-08-02T10:06:48.000Z</time>
      </trkpt>
      <trkpt lat="49.33845" lon="-1.09943">
        <ele>15.336389</ele>
        <time>2022-08-02T10:06:50.000Z</time>
      </trkpt>
      <trkpt lat="49.33845" lon="-1.09946">
        <ele>15.335255</ele>
        <time>2022-08-02T10:06:51.000Z</time>
      </trkpt>
      <trkpt lat="49.33844" lon="-1.09949">
        <ele>15.334078</ele>
        <time>2022-08-02T10:06:52.000Z</time>
      </trkpt>
      <trkpt lat="49.33843" lon="-1.09952">
        <ele>15.332548</ele>
        <time>2022-08-02T10:06:54.000Z</time>
      </trkpt>
      <trkpt lat="49.3384" lon="-1.09953">
        <ele>15.33109</ele>
        <time>2022-08-02T10:06:56.000Z</time>
      </trkpt>
      <trkpt lat="49.33841" lon="-1.09944">
        <ele>15.327701</ele>
        <time>2022-08-02T10:07:26.000Z</time>
      </trkpt>
      <trkpt lat="49.33842" lon="-1.09941">
        <ele>15.326099</ele>
        <time>2022-08-02T10:07:27.000Z</time>
      </trkpt>
      <trkpt lat="49.33844" lon="-1.09938">
        <ele>15.324739</ele>
        <time>2022-08-02T10:07:28.000Z</time>
      </trkpt>
      <trkpt lat="49.33847" lon="-1.09936">
        <ele>15.322388</ele>
        <time>2022-08-02T10:07:30.000Z</time>
      </trkpt>
      <trkpt lat="49.33849" lon="-1.09934">
        <ele>15.320835</ele>
        <time>2022-08-02T10:07:31.000Z</time>
      </trkpt>
      <trkpt lat="49.33852" lon="-1.09934">
        <ele>15.31943</ele>
        <time>2022-08-02T10:07:32.000Z</time>
      </trkpt>
      <trkpt lat="49.33855" lon="-1.09933">
        <ele>15.317421</ele>
        <time>2022-08-02T10:07:34.000Z</time>
      </trkpt>
      <trkpt lat="49.33861" lon="-1.09934">
        <ele>15.313783</ele>
        <time>2022-08-02T10:08:12.000Z</time>
      </trkpt>
      <trkpt lat="49.33863" lon="-1.09934">
        <ele>15.311978</ele>
        <time>2022-08-02T10:08:13.000Z</time>
      </trkpt>
      <trkpt lat="49.33867" lon="-1.09934">
        <ele>15.309989</ele>
        <time>2022-08-02T10:08:14.000Z</time>
      </trkpt>
      <trkpt lat="49.3387" lon="-1.09934">
        <ele>15.307814</ele>
        <time>2022-08-02T10:08:15.000Z</time>
      </trkpt>
      <trkpt lat="49.33873" lon="-1.09934">
        <ele>15.305823</ele>
        <time>2022-08-02T10:08:16.000Z</time>
      </trkpt>
      <trkpt lat="49.33877" lon="-1.09933">
        <ele>15.303458</ele>
        <time>2022-08-02T10:08:17.000Z</time>
      </trkpt>
      <trkpt lat="49.33881" lon="-1.09933">
        <ele>15.301034</ele>
        <time>2022-08-02T10:08:18.000Z</time>
      </trkpt>
      <trkpt lat="49.33885" lon="-1.09933">
        <ele>15.298857</ele>
        <time>2022-08-02T10:08:19.000Z</time>
      </trkpt>
      <trkpt lat="49.33887" lon="-1.09933">
        <ele>15.297052</ele>
        <time>2022-08-02T10:08:20.000Z</time>
      </trkpt>
      <trkpt lat="49.33891" lon="-1.09933">
        <ele>15.294873</ele>
        <time>2022-08-02T10:08:21.000Z</time>
      </trkpt>
      <trkpt lat="49.33894" lon="-1.09933">
        <ele>15.292698</ele>
        <time>2022-08-02T10:08:22.000Z</time>
      </trkpt>
      <trkpt lat="49.33898" lon="-1.09933">
        <ele>15.290335</ele>
        <time>2022-08-02T10:08:23.000Z</time>
      </trkpt>
      <trkpt lat="49.33901" lon="-1.09933">
        <ele>15.288902</ele>
        <time>2022-08-02T10:08:24.000Z</time>
      </trkpt>
      <trkpt lat="49.33905" lon="-1.09932">
        <ele>15.297676</ele>
        <time>2022-08-02T10:08:25.000Z</time>
      </trkpt>
      <trkpt lat="49.33909" lon="-1.09933">
        <ele>15.306937</ele>
        <time>2022-08-02T10:08:26.000Z</time>
      </trkpt>
      <trkpt lat="49.33912" lon="-1.09933">
        <ele>15.314738</ele>
        <time>2022-08-02T10:08:27.000Z</time>
      </trkpt>
      <trkpt lat="49.33915" lon="-1.09933">
        <ele>15.322547</ele>
        <time>2022-08-02T10:08:28.000Z</time>
      </trkpt>
      <trkpt lat="49.33918" lon="-1.09933">
        <ele>15.330347</ele>
        <time>2022-08-02T10:08:29.000Z</time>
      </trkpt>
      <trkpt lat="49.33922" lon="-1.09934">
        <ele>15.339615</ele>
        <time>2022-08-02T10:08:30.000Z</time>
      </trkpt>
      <trkpt lat="49.33926" lon="-1.09934">
        <ele>15.349179</ele>
        <time>2022-08-02T10:08:31.000Z</time>
      </trkpt>
      <trkpt lat="49.3393" lon="-1.09935">
        <ele>15.357798</ele>
        <time>2022-08-02T10:08:32.000Z</time>
      </trkpt>
      <trkpt lat="49.33933" lon="-1.09935">
        <ele>15.365599</ele>
        <time>2022-08-02T10:08:33.000Z</time>
      </trkpt>
      <trkpt lat="49.33937" lon="-1.09935">
        <ele>15.374854</ele>
        <time>2022-08-02T10:08:34.000Z</time>
      </trkpt>
      <trkpt lat="49.33941" lon="-1.09935">
        <ele>15.384353</ele>
        <time>2022-08-02T10:08:35.000Z</time>
      </trkpt>
      <trkpt lat="49.33944" lon="-1.09935">
        <ele>15.393614</ele>
        <time>2022-08-02T10:08:36.000Z</time>
      </trkpt>
      <trkpt lat="49.33949" lon="-1.09935">
        <ele>15.403855</ele>
        <time>2022-08-02T10:08:37.000Z</time>
      </trkpt>
      <trkpt lat="49.33952" lon="-1.09934">
        <ele>15.413145</ele>
        <time>2022-08-02T10:08:38.000Z</time>
      </trkpt>
      <trkpt lat="49.33957" lon="-1.09934">
        <ele>15.423375</ele>
        <time>2022-08-02T10:08:39.000Z</time>
      </trkpt>
      <trkpt lat="49.3396" lon="-1.09935">
        <ele>15.432643</ele>
        <time>2022-08-02T10:08:40.000Z</time>
      </trkpt>
      <trkpt lat="49.33965" lon="-1.09935">
        <ele>15.442884</ele>
        <time>2022-08-02T10:08:41.000Z</time>
      </trkpt>
      <trkpt lat="49.33969" lon="-1.09935">
        <ele>15.45289</ele>
        <time>2022-08-02T10:08:42.000Z</time>
      </trkpt>
      <trkpt lat="49.33973" lon="-1.09936">
        <ele>15.463131</ele>
        <time>2022-08-02T10:08:43.000Z</time>
      </trkpt>
      <trkpt lat="49.33976" lon="-1.09936">
        <ele>15.471693</ele>
        <time>2022-08-02T10:08:44.000Z</time>
      </trkpt>
      <trkpt lat="49.3398" lon="-1.09937">
        <ele>15.481225</ele>
        <time>2022-08-02T10:08:45.000Z</time>
      </trkpt>
      <trkpt lat="49.33984" lon="-1.09937">
        <ele>15.491216</ele>
        <time>2022-08-02T10:08:46.000Z</time>
      </trkpt>
      <trkpt lat="49.33988" lon="-1.09937">
        <ele>15.500721</ele>
        <time>2022-08-02T10:08:47.000Z</time>
      </trkpt>
      <trkpt lat="49.33992" lon="-1.09936">
        <ele>15.510718</ele>
        <time>2022-08-02T10:08:48.000Z</time>
      </trkpt>
      <trkpt lat="49.33997" lon="-1.09936">
        <ele>15.522414</ele>
        <time>2022-08-02T10:08:49.000Z</time>
      </trkpt>
      <trkpt lat="49.34001" lon="-1.09936">
        <ele>15.532644</ele>
        <time>2022-08-02T10:08:50.000Z</time>
      </trkpt>
      <trkpt lat="49.34005" lon="-1.09936">
        <ele>15.542642</ele>
        <time>2022-08-02T10:08:51.000Z</time>
      </trkpt>
      <trkpt lat="49.34009" lon="-1.09937">
        <ele>15.552162</ele>
        <time>2022-08-02T10:08:52.000Z</time>
      </trkpt>
      <trkpt lat="49.34013" lon="-1.09937">
        <ele>15.562148</ele>
        <time>2022-08-02T10:08:53.000Z</time>
      </trkpt>
      <trkpt lat="49.34018" lon="-1.09936">
        <ele>15.572409</ele>
        <time>2022-08-02T10:08:54.000Z</time>
      </trkpt>
      <trkpt lat="49.34022" lon="-1.09936">
        <ele>15.582658</ele>
        <time>2022-08-02T10:08:55.000Z</time>
      </trkpt>
      <trkpt lat="49.34026" lon="-1.09936">
        <ele>15.592645</ele>
        <time>2022-08-02T10:08:56.000Z</time>
      </trkpt>
      <trkpt lat="49.3403" lon="-1.09936">
        <ele>15.602879</ele>
        <time>2022-08-02T10:08:57.000Z</time>
      </trkpt>
      <trkpt lat="49.34034" lon="-1.09936">
        <ele>15.612866</ele>
        <time>2022-08-02T10:08:58.000Z</time>
      </trkpt>
      <trkpt lat="49.34038" lon="-1.09936">
        <ele>15.623101</ele>
        <time>2022-08-02T10:08:59.000Z</time>
      </trkpt>
      <trkpt lat="49.34043" lon="-1.09936">
        <ele>15.634066</ele>
        <time>2022-08-02T10:09:00.000Z</time>
      </trkpt>
      <trkpt lat="49.34046" lon="-1.09936">
        <ele>15.642591</ele>
        <time>2022-08-02T10:09:01.000Z</time>
      </trkpt>
      <trkpt lat="49.3405" lon="-1.09936">
        <ele>15.651121</ele>
        <time>2022-08-02T10:09:02.000Z</time>
      </trkpt>
      <trkpt lat="49.34054" lon="-1.09936">
        <ele>15.660632</ele>
        <time>2022-08-02T10:09:03.000Z</time>
      </trkpt>
      <trkpt lat="49.34058" lon="-1.09935">
        <ele>15.6699</ele>
        <time>2022-08-02T10:09:04.000Z</time>
      </trkpt>
      <trkpt lat="49.34061" lon="-1.09935">
        <ele>15.679178</ele>
        <time>2022-08-02T10:09:05.000Z</time>
      </trkpt>
      <trkpt lat="49.34066" lon="-1.09935">
        <ele>15.689419</ele>
        <time>2022-08-02T10:09:06.000Z</time>
      </trkpt>
      <trkpt lat="49.34069" lon="-1.09934">
        <ele>15.697949</ele>
        <time>2022-08-02T10:09:07.000Z</time>
      </trkpt>
      <trkpt lat="49.34073" lon="-1.09934">
        <ele>15.708179</ele>
        <time>2022-08-02T10:09:08.000Z</time>
      </trkpt>
      <trkpt lat="49.34077" lon="-1.09934">
        <ele>15.718166</ele>
        <time>2022-08-02T10:09:09.000Z</time>
      </trkpt>
      <trkpt lat="49.34082" lon="-1.09935">
        <ele>15.724027</ele>
        <time>2022-08-02T10:09:10.000Z</time>
      </trkpt>
      <trkpt lat="49.34086" lon="-1.09934">
        <ele>15.710067</ele>
        <time>2022-08-02T10:09:11.000Z</time>
      </trkpt>
      <trkpt lat="49.34091" lon="-1.09934">
        <ele>15.694123</ele>
        <time>2022-08-02T10:09:12.000Z</time>
      </trkpt>
      <trkpt lat="49.34094" lon="-1.09934">
        <ele>15.682501</ele>
        <time>2022-08-02T10:09:13.000Z</time>
      </trkpt>
      <trkpt lat="49.34099" lon="-1.09934">
        <ele>15.666558</ele>
        <time>2022-08-02T10:09:14.000Z</time>
      </trkpt>
      <trkpt lat="49.34103" lon="-1.09934">
        <ele>15.652944</ele>
        <time>2022-08-02T10:09:15.000Z</time>
      </trkpt>
      <trkpt lat="49.34107" lon="-1.09934">
        <ele>15.638998</ele>
        <time>2022-08-02T10:09:16.000Z</time>
      </trkpt>
      <trkpt lat="49.34111" lon="-1.09934">
        <ele>15.626379</ele>
        <time>2022-08-02T10:09:17.000Z</time>
      </trkpt>
      <trkpt lat="49.34115" lon="-1.09935">
        <ele>15.612406</ele>
        <time>2022-08-02T10:09:18.000Z</time>
      </trkpt>
      <trkpt lat="49.3412" lon="-1.09935">
        <ele>15.59745</ele>
        <time>2022-08-02T10:09:19.000Z</time>
      </trkpt>
      <trkpt lat="49.34124" lon="-1.09936">
        <ele>15.583794</ele>
        <time>2022-08-02T10:09:20.000Z</time>
      </trkpt>
      <trkpt lat="49.34128" lon="-1.09936">
        <ele>15.568838</ele>
        <time>2022-08-02T10:09:21.000Z</time>
      </trkpt>
      <trkpt lat="49.34133" lon="-1.09937">
        <ele>15.55481</ele>
        <time>2022-08-02T10:09:22.000Z</time>
      </trkpt>
      <trkpt lat="49.34137" lon="-1.09938">
        <ele>15.539644</ele>
        <time>2022-08-02T10:09:23.000Z</time>
      </trkpt>
      <trkpt lat="49.34141" lon="-1.0994">
        <ele>15.524525</ele>
        <time>2022-08-02T10:09:24.000Z</time>
      </trkpt>
      <trkpt lat="49.34147" lon="-1.09942">
        <ele>15.506614</ele>
        <time>2022-08-02T10:09:25.000Z</time>
      </trkpt>
      <trkpt lat="49.34151" lon="-1.09943">
        <ele>15.491649</ele>
        <time>2022-08-02T10:09:26.000Z</time>
      </trkpt>
      <trkpt lat="49.34156" lon="-1.09945">
        <ele>15.476093</ele>
        <time>2022-08-02T10:09:27.000Z</time>
      </trkpt>
      <trkpt lat="49.3416" lon="-1.09947">
        <ele>15.460537</ele>
        <time>2022-08-02T10:09:28.000Z</time>
      </trkpt>
      <trkpt lat="49.34165" lon="-1.09949">
        <ele>15.44492</ele>
        <time>2022-08-02T10:09:29.000Z</time>
      </trkpt>
      <trkpt lat="49.34169" lon="-1.09951">
        <ele>15.429364</ele>
        <time>2022-08-02T10:09:30.000Z</time>
      </trkpt>
      <trkpt lat="49.34173" lon="-1.09954">
        <ele>15.41455</ele>
        <time>2022-08-02T10:09:31.000Z</time>
      </trkpt>
      <trkpt lat="49.34178" lon="-1.09957">
        <ele>15.397576</ele>
        <time>2022-08-02T10:09:32.000Z</time>
      </trkpt>
      <trkpt lat="49.34182" lon="-1.09959">
        <ele>15.382769</ele>
        <time>2022-08-02T10:09:33.000Z</time>
      </trkpt>
      <trkpt lat="49.34186" lon="-1.09962">
        <ele>15.367868</ele>
        <time>2022-08-02T10:09:34.000Z</time>
      </trkpt>
      <trkpt lat="49.34191" lon="-1.09965">
        <ele>15.351214</ele>
        <time>2022-08-02T10:09:35.000Z</time>
      </trkpt>
      <trkpt lat="49.34195" lon="-1.09969">
        <ele>15.335547</ele>
        <time>2022-08-02T10:09:36.000Z</time>
      </trkpt>
      <trkpt lat="49.342" lon="-1.09972">
        <ele>15.318171</ele>
        <time>2022-08-02T10:09:37.000Z</time>
      </trkpt>
      <trkpt lat="49.34204" lon="-1.09975">
        <ele>15.302995</ele>
        <time>2022-08-02T10:09:38.000Z</time>
      </trkpt>
      <trkpt lat="49.34208" lon="-1.09978">
        <ele>15.286244</ele>
        <time>2022-08-02T10:09:39.000Z</time>
      </trkpt>
      <trkpt lat="49.34212" lon="-1.09982">
        <ele>15.27102</ele>
        <time>2022-08-02T10:09:40.000Z</time>
      </trkpt>
      <trkpt lat="49.34216" lon="-1.09986">
        <ele>15.256078</ele>
        <time>2022-08-02T10:09:41.000Z</time>
      </trkpt>
      <trkpt lat="49.3422" lon="-1.09989">
        <ele>15.241581</ele>
        <time>2022-08-02T10:09:42.000Z</time>
      </trkpt>
      <trkpt lat="49.34224" lon="-1.09992">
        <ele>15.226461</ele>
        <time>2022-08-02T10:09:43.000Z</time>
      </trkpt>
      <trkpt lat="49.34229" lon="-1.09994">
        <ele>15.210712</ele>
        <time>2022-08-02T10:09:44.000Z</time>
      </trkpt>
      <trkpt lat="49.34232" lon="-1.09996">
        <ele>15.19757</ele>
        <time>2022-08-02T10:09:45.000Z</time>
      </trkpt>
      <trkpt lat="49.34237" lon="-1.09997">
        <ele>15.183343</ele>
        <time>2022-08-02T10:09:46.000Z</time>
      </trkpt>
      <trkpt lat="49.3424" lon="-1.09998">
        <ele>15.170635</ele>
        <time>2022-08-02T10:09:47.000Z</time>
      </trkpt>
      <trkpt lat="49.34245" lon="-1.09998">
        <ele>15.156674</ele>
        <time>2022-08-02T10:09:48.000Z</time>
      </trkpt>
      <trkpt lat="49.34249" lon="-1.09998">
        <ele>15.143045</ele>
        <time>2022-08-02T10:09:49.000Z</time>
      </trkpt>
      <trkpt lat="49.34253" lon="-1.09999">
        <ele>15.128246</ele>
        <time>2022-08-02T10:09:50.000Z</time>
      </trkpt>
      <trkpt lat="49.34257" lon="-1.09999">
        <ele>15.075975</ele>
        <time>2022-08-02T10:09:51.000Z</time>
      </trkpt>
      <trkpt lat="49.34261" lon="-1.09999">
        <ele>15.028342</ele>
        <time>2022-08-02T10:09:52.000Z</time>
      </trkpt>
      <trkpt lat="49.34266" lon="-1.09998">
        <ele>14.979019</ele>
        <time>2022-08-02T10:09:53.000Z</time>
      </trkpt>
      <trkpt lat="49.34269" lon="-1.09997">
        <ele>14.934278</ele>
        <time>2022-08-02T10:09:54.000Z</time>
      </trkpt>
      <trkpt lat="49.34274" lon="-1.09996">
        <ele>14.885252</ele>
        <time>2022-08-02T10:09:55.000Z</time>
      </trkpt>
      <trkpt lat="49.34278" lon="-1.09996">
        <ele>14.836506</ele>
        <time>2022-08-02T10:09:56.000Z</time>
      </trkpt>
      <trkpt lat="49.34282" lon="-1.09997">
        <ele>14.785306</ele>
        <time>2022-08-02T10:09:57.000Z</time>
      </trkpt>
      <trkpt lat="49.34286" lon="-1.09997">
        <ele>14.736514</ele>
        <time>2022-08-02T10:09:58.000Z</time>
      </trkpt>
      <trkpt lat="49.34291" lon="-1.09997">
        <ele>14.680811</ele>
        <time>2022-08-02T10:09:59.000Z</time>
      </trkpt>
      <trkpt lat="49.34295" lon="-1.09997">
        <ele>14.632048</ele>
        <time>2022-08-02T10:10:00.000Z</time>
      </trkpt>
      <trkpt lat="49.343" lon="-1.09997">
        <ele>14.580937</ele>
        <time>2022-08-02T10:10:01.000Z</time>
      </trkpt>
      <trkpt lat="49.34304" lon="-1.09996">
        <ele>14.528694</ele>
        <time>2022-08-02T10:10:02.000Z</time>
      </trkpt>
      <trkpt lat="49.34309" lon="-1.09996">
        <ele>14.472945</ele>
        <time>2022-08-02T10:10:03.000Z</time>
      </trkpt>
      <trkpt lat="49.34313" lon="-1.09996">
        <ele>14.424059</ele>
        <time>2022-08-02T10:10:04.000Z</time>
      </trkpt>
      <trkpt lat="49.34318" lon="-1.09995">
        <ele>14.371702</ele>
        <time>2022-08-02T10:10:05.000Z</time>
      </trkpt>
      <trkpt lat="49.34322" lon="-1.09995">
        <ele>14.320641</ele>
        <time>2022-08-02T10:10:06.000Z</time>
      </trkpt>
      <trkpt lat="49.34327" lon="-1.09995">
        <ele>14.264938</ele>
        <time>2022-08-02T10:10:07.000Z</time>
      </trkpt>
      <trkpt lat="49.34332" lon="-1.09994">
        <ele>14.21245</ele>
        <time>2022-08-02T10:10:08.000Z</time>
      </trkpt>
      <trkpt lat="49.34336" lon="-1.09993">
        <ele>14.159684</ele>
        <time>2022-08-02T10:10:09.000Z</time>
      </trkpt>
      <trkpt lat="49.3434" lon="-1.09993">
        <ele>14.110571</ele>
        <time>2022-08-02T10:10:10.000Z</time>
      </trkpt>
      <trkpt lat="49.34345" lon="-1.09992">
        <ele>14.059153</ele>
        <time>2022-08-02T10:10:11.000Z</time>
      </trkpt>
      <trkpt lat="49.34349" lon="-1.09991">
        <ele>14.006491</ele>
        <time>2022-08-02T10:10:12.000Z</time>
      </trkpt>
      <trkpt lat="49.34354" lon="-1.0999">
        <ele>13.95392</ele>
        <time>2022-08-02T10:10:13.000Z</time>
      </trkpt>
      <trkpt lat="49.34358" lon="-1.09989">
        <ele>13.901432</ele>
        <time>2022-08-02T10:10:14.000Z</time>
      </trkpt>
      <trkpt lat="49.34363" lon="-1.09989">
        <ele>13.845601</ele>
        <time>2022-08-02T10:10:15.000Z</time>
      </trkpt>
      <trkpt lat="49.34367" lon="-1.09988">
        <ele>13.797872</ele>
        <time>2022-08-02T10:10:16.000Z</time>
      </trkpt>
      <trkpt lat="49.34372" lon="-1.09988">
        <ele>13.745514</ele>
        <time>2022-08-02T10:10:17.000Z</time>
      </trkpt>
      <trkpt lat="49.34376" lon="-1.09988">
        <ele>13.693244</ele>
        <time>2022-08-02T10:10:18.000Z</time>
      </trkpt>
      <trkpt lat="49.3438" lon="-1.09987">
        <ele>13.64912</ele>
        <time>2022-08-02T10:10:19.000Z</time>
      </trkpt>
      <trkpt lat="49.34384" lon="-1.09987">
        <ele>13.603856</ele>
        <time>2022-08-02T10:10:20.000Z</time>
      </trkpt>
      <trkpt lat="49.34388" lon="-1.09987">
        <ele>13.556127</ele>
        <time>2022-08-02T10:10:21.000Z</time>
      </trkpt>
      <trkpt lat="49.34392" lon="-1.09986">
        <ele>13.503769</ele>
        <time>2022-08-02T10:10:22.000Z</time>
      </trkpt>
      <trkpt lat="49.34397" lon="-1.09986">
        <ele>13.45146</ele>
        <time>2022-08-02T10:10:23.000Z</time>
      </trkpt>
      <trkpt lat="49.34401" lon="-1.09985">
        <ele>13.399102</ele>
        <time>2022-08-02T10:10:24.000Z</time>
      </trkpt>
      <trkpt lat="49.34405" lon="-1.09985">
        <ele>13.351373</ele>
        <time>2022-08-02T10:10:25.000Z</time>
      </trkpt>
      <trkpt lat="49.3441" lon="-1.09985">
        <ele>13.295666</ele>
        <time>2022-08-02T10:10:26.000Z</time>
      </trkpt>
      <trkpt lat="49.34414" lon="-1.09985">
        <ele>13.246903</ele>
        <time>2022-08-02T10:10:27.000Z</time>
      </trkpt>
      <trkpt lat="49.34419" lon="-1.09984">
        <ele>13.19811</ele>
        <time>2022-08-02T10:10:28.000Z</time>
      </trkpt>
      <trkpt lat="49.34423" lon="-1.09984">
        <ele>13.150381</ele>
        <time>2022-08-02T10:10:29.000Z</time>
      </trkpt>
      <trkpt lat="49.34428" lon="-1.09983">
        <ele>13.093944</ele>
        <time>2022-08-02T10:10:30.000Z</time>
      </trkpt>
      <trkpt lat="49.34432" lon="-1.09982">
        <ele>13.044831</ele>
        <time>2022-08-02T10:10:31.000Z</time>
      </trkpt>
      <trkpt lat="49.34437" lon="-1.09981">
        <ele>12.94157</ele>
        <time>2022-08-02T10:10:32.000Z</time>
      </trkpt>
      <trkpt lat="49.34441" lon="-1.0998">
        <ele>12.84235</ele>
        <time>2022-08-02T10:10:33.000Z</time>
      </trkpt>
      <trkpt lat="49.34446" lon="-1.09978">
        <ele>12.729296</ele>
        <time>2022-08-02T10:10:34.000Z</time>
      </trkpt>
      <trkpt lat="49.34451" lon="-1.09977">
        <ele>12.622113</ele>
        <time>2022-08-02T10:10:35.000Z</time>
      </trkpt>
      <trkpt lat="49.34455" lon="-1.09975">
        <ele>12.52027</ele>
        <time>2022-08-02T10:10:36.000Z</time>
      </trkpt>
      <trkpt lat="49.34461" lon="-1.09973">
        <ele>12.405047</ele>
        <time>2022-08-02T10:10:37.000Z</time>
      </trkpt>
      <trkpt lat="49.34465" lon="-1.0997">
        <ele>12.300617</ele>
        <time>2022-08-02T10:10:38.000Z</time>
      </trkpt>
      <trkpt lat="49.3447" lon="-1.09967">
        <ele>12.188054</ele>
        <time>2022-08-02T10:10:39.000Z</time>
      </trkpt>
      <trkpt lat="49.34474" lon="-1.09964">
        <ele>12.082994</ele>
        <time>2022-08-02T10:10:40.000Z</time>
      </trkpt>
      <trkpt lat="49.34479" lon="-1.09961">
        <ele>11.974167</ele>
        <time>2022-08-02T10:10:41.000Z</time>
      </trkpt>
      <trkpt lat="49.34484" lon="-1.09957">
        <ele>11.851073</ele>
        <time>2022-08-02T10:10:42.000Z</time>
      </trkpt>
      <trkpt lat="49.34489" lon="-1.09953">
        <ele>11.73189</ele>
        <time>2022-08-02T10:10:43.000Z</time>
      </trkpt>
      <trkpt lat="49.34493" lon="-1.09949">
        <ele>11.616221</ele>
        <time>2022-08-02T10:10:44.000Z</time>
      </trkpt>
      <trkpt lat="49.34498" lon="-1.09944">
        <ele>11.491211</ele>
        <time>2022-08-02T10:10:45.000Z</time>
      </trkpt>
      <trkpt lat="49.34502" lon="-1.09939">
        <ele>11.366568</ele>
        <time>2022-08-02T10:10:46.000Z</time>
      </trkpt>
      <trkpt lat="49.34506" lon="-1.09933">
        <ele>11.247606</ele>
        <time>2022-08-02T10:10:47.000Z</time>
      </trkpt>
      <trkpt lat="49.3451" lon="-1.09927">
        <ele>11.131645</ele>
        <time>2022-08-02T10:10:48.000Z</time>
      </trkpt>
      <trkpt lat="49.34514" lon="-1.0992">
        <ele>11.007488</ele>
        <time>2022-08-02T10:10:49.000Z</time>
      </trkpt>
      <trkpt lat="49.34517" lon="-1.09914">
        <ele>10.888234</ele>
        <time>2022-08-02T10:10:50.000Z</time>
      </trkpt>
      <trkpt lat="49.3452" lon="-1.09907">
        <ele>10.762789</ele>
        <time>2022-08-02T10:10:51.000Z</time>
      </trkpt>
      <trkpt lat="49.34523" lon="-1.09899">
        <ele>10.645758</ele>
        <time>2022-08-02T10:10:52.000Z</time>
      </trkpt>
      <trkpt lat="49.34525" lon="-1.09892">
        <ele>10.528513</ele>
        <time>2022-08-02T10:10:53.000Z</time>
      </trkpt>
      <trkpt lat="49.34528" lon="-1.09885">
        <ele>10.413961</ele>
        <time>2022-08-02T10:10:54.000Z</time>
      </trkpt>
      <trkpt lat="49.34531" lon="-1.09878">
        <ele>10.299409</ele>
        <time>2022-08-02T10:10:55.000Z</time>
      </trkpt>
      <trkpt lat="49.34534" lon="-1.09871">
        <ele>10.177839</ele>
        <time>2022-08-02T10:10:56.000Z</time>
      </trkpt>
      <trkpt lat="49.34537" lon="-1.09864">
        <ele>10.05495</ele>
        <time>2022-08-02T10:10:57.000Z</time>
      </trkpt>
      <trkpt lat="49.3454" lon="-1.09856">
        <ele>9.925921</ele>
        <time>2022-08-02T10:10:58.000Z</time>
      </trkpt>
      <trkpt lat="49.34545" lon="-1.0985">
        <ele>9.794619</ele>
        <time>2022-08-02T10:10:59.000Z</time>
      </trkpt>
      <trkpt lat="49.3455" lon="-1.09845">
        <ele>9.645851</ele>
        <time>2022-08-02T10:11:00.000Z</time>
      </trkpt>
      <trkpt lat="49.34557" lon="-1.0984">
        <ele>9.499964</ele>
        <time>2022-08-02T10:11:01.000Z</time>
      </trkpt>
      <trkpt lat="49.34563" lon="-1.09838">
        <ele>9.361817</ele>
        <time>2022-08-02T10:11:02.000Z</time>
      </trkpt>
      <trkpt lat="49.34569" lon="-1.09836">
        <ele>9.212307</ele>
        <time>2022-08-02T10:11:03.000Z</time>
      </trkpt>
      <trkpt lat="49.34576" lon="-1.09834">
        <ele>9.137673</ele>
        <time>2022-08-02T10:11:04.000Z</time>
      </trkpt>
      <trkpt lat="49.34584" lon="-1.09833">
        <ele>9.202753</ele>
        <time>2022-08-02T10:11:05.000Z</time>
      </trkpt>
      <trkpt lat="49.34591" lon="-1.09831">
        <ele>9.264663</ele>
        <time>2022-08-02T10:11:06.000Z</time>
      </trkpt>
      <trkpt lat="49.34598" lon="-1.0983">
        <ele>9.324717</ele>
        <time>2022-08-02T10:11:07.000Z</time>
      </trkpt>
      <trkpt lat="49.34605" lon="-1.09829">
        <ele>9.386501</ele>
        <time>2022-08-02T10:11:08.000Z</time>
      </trkpt>
      <trkpt lat="49.34613" lon="-1.09828">
        <ele>9.449123</ele>
        <time>2022-08-02T10:11:09.000Z</time>
      </trkpt>
      <trkpt lat="49.34619" lon="-1.09827">
        <ele>9.503451</ele>
        <time>2022-08-02T10:11:10.000Z</time>
      </trkpt>
      <trkpt lat="49.34626" lon="-1.09826">
        <ele>9.560005</ele>
        <time>2022-08-02T10:11:11.000Z</time>
      </trkpt>
      <trkpt lat="49.34632" lon="-1.09825">
        <ele>9.611576</ele>
        <time>2022-08-02T10:11:12.000Z</time>
      </trkpt>
      <trkpt lat="49.34638" lon="-1.09824">
        <ele>9.662984</ele>
        <time>2022-08-02T10:11:13.000Z</time>
      </trkpt>
      <trkpt lat="49.34644" lon="-1.09824">
        <ele>9.714392</ele>
        <time>2022-08-02T10:11:14.000Z</time>
      </trkpt>
      <trkpt lat="49.3465" lon="-1.09824">
        <ele>9.762388</ele>
        <time>2022-08-02T10:11:15.000Z</time>
      </trkpt>
      <trkpt lat="49.34655" lon="-1.09823">
        <ele>9.805656</ele>
        <time>2022-08-02T10:11:16.000Z</time>
      </trkpt>
      <trkpt lat="49.3466" lon="-1.09822">
        <ele>9.843625</ele>
        <time>2022-08-02T10:11:17.000Z</time>
      </trkpt>
      <trkpt lat="49.34664" lon="-1.09822">
        <ele>9.879008</ele>
        <time>2022-08-02T10:11:18.000Z</time>
      </trkpt>
      <trkpt lat="49.34668" lon="-1.09821">
        <ele>9.91362</ele>
        <time>2022-08-02T10:11:19.000Z</time>
      </trkpt>
      <trkpt lat="49.34672" lon="-1.09821">
        <ele>9.951589</ele>
        <time>2022-08-02T10:11:20.000Z</time>
      </trkpt>
      <trkpt lat="49.34676" lon="-1.0982">
        <ele>9.978658</ele>
        <time>2022-08-02T10:11:21.000Z</time>
      </trkpt>
      <trkpt lat="49.34679" lon="-1.0982">
        <ele>10.008239</ele>
        <time>2022-08-02T10:11:22.000Z</time>
      </trkpt>
      <trkpt lat="49.34683" lon="-1.09819">
        <ele>10.041429</ele>
        <time>2022-08-02T10:11:23.000Z</time>
      </trkpt>
      <trkpt lat="49.34687" lon="-1.09819">
        <ele>10.07345</ele>
        <time>2022-08-02T10:11:24.000Z</time>
      </trkpt>
      <trkpt lat="49.34691" lon="-1.09818">
        <ele>10.106562</ele>
        <time>2022-08-02T10:11:25.000Z</time>
      </trkpt>
      <trkpt lat="49.34694" lon="-1.09817">
        <ele>10.13394</ele>
        <time>2022-08-02T10:11:26.000Z</time>
      </trkpt>
      <trkpt lat="49.34697" lon="-1.09816">
        <ele>10.1639</ele>
        <time>2022-08-02T10:11:27.000Z</time>
      </trkpt>
      <trkpt lat="49.34701" lon="-1.09815">
        <ele>10.196345</ele>
        <time>2022-08-02T10:11:28.000Z</time>
      </trkpt>
      <trkpt lat="49.34705" lon="-1.09814">
        <ele>10.226305</ele>
        <time>2022-08-02T10:11:29.000Z</time>
      </trkpt>
      <trkpt lat="49.34708" lon="-1.09813">
        <ele>10.251444</ele>
        <time>2022-08-02T10:11:30.000Z</time>
      </trkpt>
      <trkpt lat="49.34711" lon="-1.09811">
        <ele>10.285878</ele>
        <time>2022-08-02T10:11:31.000Z</time>
      </trkpt>
      <trkpt lat="49.34715" lon="-1.09809">
        <ele>10.314955</ele>
        <time>2022-08-02T10:11:32.000Z</time>
      </trkpt>
      <trkpt lat="49.34718" lon="-1.09807">
        <ele>10.348421</ele>
        <time>2022-08-02T10:11:33.000Z</time>
      </trkpt>
      <trkpt lat="49.34722" lon="-1.09805">
        <ele>10.381888</ele>
        <time>2022-08-02T10:11:34.000Z</time>
      </trkpt>
      <trkpt lat="49.34725" lon="-1.09804">
        <ele>10.407165</ele>
        <time>2022-08-02T10:11:35.000Z</time>
      </trkpt>
      <trkpt lat="49.34729" lon="-1.09803">
        <ele>10.440638</ele>
        <time>2022-08-02T10:11:36.000Z</time>
      </trkpt>
      <trkpt lat="49.34732" lon="-1.09802">
        <ele>10.46812</ele>
        <time>2022-08-02T10:11:37.000Z</time>
      </trkpt>
      <trkpt lat="49.34735" lon="-1.09801">
        <ele>10.495602</ele>
        <time>2022-08-02T10:11:38.000Z</time>
      </trkpt>
      <trkpt lat="49.34739" lon="-1.098">
        <ele>10.523198</ele>
        <time>2022-08-02T10:11:39.000Z</time>
      </trkpt>
      <trkpt lat="49.34742" lon="-1.09798">
        <ele>10.55444</ele>
        <time>2022-08-02T10:11:40.000Z</time>
      </trkpt>
      <trkpt lat="49.34746" lon="-1.09796">
        <ele>10.5876</ele>
        <time>2022-08-02T10:11:41.000Z</time>
      </trkpt>
      <trkpt lat="49.3475" lon="-1.09794">
        <ele>10.622034</ele>
        <time>2022-08-02T10:11:42.000Z</time>
      </trkpt>
      <trkpt lat="49.34753" lon="-1.09793">
        <ele>10.634966</ele>
        <time>2022-08-02T10:11:43.000Z</time>
      </trkpt>
      <trkpt lat="49.34757" lon="-1.09791">
        <ele>10.641391</ele>
        <time>2022-08-02T10:11:44.000Z</time>
      </trkpt>
      <trkpt lat="49.3476" lon="-1.0979">
        <ele>10.648307</ele>
        <time>2022-08-02T10:11:45.000Z</time>
      </trkpt>
      <trkpt lat="49.34764" lon="-1.09789">
        <ele>10.654762</ele>
        <time>2022-08-02T10:11:46.000Z</time>
      </trkpt>
      <trkpt lat="49.34768" lon="-1.09787">
        <ele>10.661904</ele>
        <time>2022-08-02T10:11:47.000Z</time>
      </trkpt>
      <trkpt lat="49.34771" lon="-1.09785">
        <ele>10.668461</ele>
        <time>2022-08-02T10:11:48.000Z</time>
      </trkpt>
      <trkpt lat="49.34776" lon="-1.09784">
        <ele>10.676693</ele>
        <time>2022-08-02T10:11:49.000Z</time>
      </trkpt>
      <trkpt lat="49.34779" lon="-1.09782">
        <ele>10.683214</ele>
        <time>2022-08-02T10:11:50.000Z</time>
      </trkpt>
      <trkpt lat="49.34783" lon="-1.0978">
        <ele>10.690184</ele>
        <time>2022-08-02T10:11:51.000Z</time>
      </trkpt>
      <trkpt lat="49.34788" lon="-1.09779">
        <ele>10.698318</ele>
        <time>2022-08-02T10:11:52.000Z</time>
      </trkpt>
      <trkpt lat="49.34792" lon="-1.09777">
        <ele>10.706064</ele>
        <time>2022-08-02T10:11:53.000Z</time>
      </trkpt>
      <trkpt lat="49.34796" lon="-1.09775">
        <ele>10.714386</ele>
        <time>2022-08-02T10:11:54.000Z</time>
      </trkpt>
      <trkpt lat="49.348" lon="-1.09774">
        <ele>10.72193</ele>
        <time>2022-08-02T10:11:55.000Z</time>
      </trkpt>
      <trkpt lat="49.34805" lon="-1.09772">
        <ele>10.730064</ele>
        <time>2022-08-02T10:11:56.000Z</time>
      </trkpt>
      <trkpt lat="49.3481" lon="-1.09771">
        <ele>10.738815</ele>
        <time>2022-08-02T10:11:57.000Z</time>
      </trkpt>
      <trkpt lat="49.34814" lon="-1.09769">
        <ele>10.747137</ele>
        <time>2022-08-02T10:11:58.000Z</time>
      </trkpt>
      <trkpt lat="49.34819" lon="-1.09767">
        <ele>10.755459</ele>
        <time>2022-08-02T10:11:59.000Z</time>
      </trkpt>
      <trkpt lat="49.34823" lon="-1.09765">
        <ele>10.764209</ele>
        <time>2022-08-02T10:12:00.000Z</time>
      </trkpt>
      <trkpt lat="49.34828" lon="-1.09763">
        <ele>10.772986</ele>
        <time>2022-08-02T10:12:01.000Z</time>
      </trkpt>
      <trkpt lat="49.34833" lon="-1.09761">
        <ele>10.781075</ele>
        <time>2022-08-02T10:12:02.000Z</time>
      </trkpt>
      <trkpt lat="49.34837" lon="-1.09759">
        <ele>10.78991</ele>
        <time>2022-08-02T10:12:03.000Z</time>
      </trkpt>
      <trkpt lat="49.34842" lon="-1.09757">
        <ele>10.798745</ele>
        <time>2022-08-02T10:12:04.000Z</time>
      </trkpt>
      <trkpt lat="49.34847" lon="-1.09755">
        <ele>10.807067</ele>
        <time>2022-08-02T10:12:05.000Z</time>
      </trkpt>
      <trkpt lat="49.34852" lon="-1.09753">
        <ele>10.81639</ele>
        <time>2022-08-02T10:12:06.000Z</time>
      </trkpt>
      <trkpt lat="49.34856" lon="-1.09752">
        <ele>10.824136</ele>
        <time>2022-08-02T10:12:07.000Z</time>
      </trkpt>
      <trkpt lat="49.34861" lon="-1.0975">
        <ele>10.833432</ele>
        <time>2022-08-02T10:12:08.000Z</time>
      </trkpt>
      <trkpt lat="49.34866" lon="-1.09748">
        <ele>10.842782</ele>
        <time>2022-08-02T10:12:09.000Z</time>
      </trkpt>
      <trkpt lat="49.34871" lon="-1.09746">
        <ele>10.852305</ele>
        <time>2022-08-02T10:12:10.000Z</time>
      </trkpt>
      <trkpt lat="49.34877" lon="-1.09744">
        <ele>10.861715</ele>
        <time>2022-08-02T10:12:11.000Z</time>
      </trkpt>
      <trkpt lat="49.34882" lon="-1.09742">
        <ele>10.871011</ele>
        <time>2022-08-02T10:12:12.000Z</time>
      </trkpt>
      <trkpt lat="49.34887" lon="-1.0974">
        <ele>10.880878</ele>
        <time>2022-08-02T10:12:13.000Z</time>
      </trkpt>
      <trkpt lat="49.34892" lon="-1.09738">
        <ele>10.889684</ele>
        <time>2022-08-02T10:12:14.000Z</time>
      </trkpt>
      <trkpt lat="49.34897" lon="-1.09736">
        <ele>10.899207</ele>
        <time>2022-08-02T10:12:15.000Z</time>
      </trkpt>
      <trkpt lat="49.34902" lon="-1.09734">
        <ele>10.908502</ele>
        <time>2022-08-02T10:12:16.000Z</time>
      </trkpt>
      <trkpt lat="49.34907" lon="-1.09732">
        <ele>10.917853</ele>
        <time>2022-08-02T10:12:17.000Z</time>
      </trkpt>
      <trkpt lat="49.34912" lon="-1.09731">
        <ele>10.926511</ele>
        <time>2022-08-02T10:12:18.000Z</time>
      </trkpt>
      <trkpt lat="49.34918" lon="-1.0973">
        <ele>10.936907</ele>
        <time>2022-08-02T10:12:19.000Z</time>
      </trkpt>
      <trkpt lat="49.34924" lon="-1.09728">
        <ele>10.947127</ele>
        <time>2022-08-02T10:12:20.000Z</time>
      </trkpt>
      <trkpt lat="49.34929" lon="-1.09728">
        <ele>10.93574</ele>
        <time>2022-08-02T10:12:21.000Z</time>
      </trkpt>
      <trkpt lat="49.34935" lon="-1.09728">
        <ele>10.914903</ele>
        <time>2022-08-02T10:12:22.000Z</time>
      </trkpt>
      <trkpt lat="49.34941" lon="-1.09728">
        <ele>10.8937</ele>
        <time>2022-08-02T10:12:23.000Z</time>
      </trkpt>
      <trkpt lat="49.34947" lon="-1.09728">
        <ele>10.872497</ele>
        <time>2022-08-02T10:12:24.000Z</time>
      </trkpt>
      <trkpt lat="49.34952" lon="-1.09728">
        <ele>10.851659</ele>
        <time>2022-08-02T10:12:25.000Z</time>
      </trkpt>
      <trkpt lat="49.34957" lon="-1.09727">
        <ele>10.832991</ele>
        <time>2022-08-02T10:12:26.000Z</time>
      </trkpt>
      <trkpt lat="49.34963" lon="-1.09728">
        <ele>10.812879</ele>
        <time>2022-08-02T10:12:27.000Z</time>
      </trkpt>
      <trkpt lat="49.34968" lon="-1.09728">
        <ele>10.793133</ele>
        <time>2022-08-02T10:12:28.000Z</time>
      </trkpt>
      <trkpt lat="49.34973" lon="-1.09728">
        <ele>10.774475</ele>
        <time>2022-08-02T10:12:29.000Z</time>
      </trkpt>
      <trkpt lat="49.34979" lon="-1.09728">
        <ele>10.754363</ele>
        <time>2022-08-02T10:12:30.000Z</time>
      </trkpt>
      <trkpt lat="49.34985" lon="-1.09728">
        <ele>10.733526</ele>
        <time>2022-08-02T10:12:31.000Z</time>
      </trkpt>
      <trkpt lat="49.34989" lon="-1.09728">
        <ele>10.715972</ele>
        <time>2022-08-02T10:12:32.000Z</time>
      </trkpt>
      <trkpt lat="49.34995" lon="-1.09728">
        <ele>10.69586</ele>
        <time>2022-08-02T10:12:33.000Z</time>
      </trkpt>
      <trkpt lat="49.35" lon="-1.09728">
        <ele>10.676118</ele>
        <time>2022-08-02T10:12:34.000Z</time>
      </trkpt>
      <trkpt lat="49.35006" lon="-1.09728">
        <ele>10.654915</ele>
        <time>2022-08-02T10:12:35.000Z</time>
      </trkpt>
      <trkpt lat="49.35011" lon="-1.09728">
        <ele>10.636269</ele>
        <time>2022-08-02T10:12:36.000Z</time>
      </trkpt>
      <trkpt lat="49.35017" lon="-1.09728">
        <ele>10.615067</ele>
        <time>2022-08-02T10:12:37.000Z</time>
      </trkpt>
      <trkpt lat="49.35022" lon="-1.09728">
        <ele>10.595326</ele>
        <time>2022-08-02T10:12:38.000Z</time>
      </trkpt>
      <trkpt lat="49.35028" lon="-1.09728">
        <ele>10.574122</ele>
        <time>2022-08-02T10:12:39.000Z</time>
      </trkpt>
      <trkpt lat="49.35033" lon="-1.09728">
        <ele>10.55544</ele>
        <time>2022-08-02T10:12:40.000Z</time>
      </trkpt>
      <trkpt lat="49.35039" lon="-1.09728">
        <ele>10.535697</ele>
        <time>2022-08-02T10:12:41.000Z</time>
      </trkpt>
      <trkpt lat="49.35044" lon="-1.09728">
        <ele>10.51559</ele>
        <time>2022-08-02T10:12:42.000Z</time>
      </trkpt>
      <trkpt lat="49.35049" lon="-1.09728">
        <ele>10.496921</ele>
        <time>2022-08-02T10:12:43.000Z</time>
      </trkpt>
      <trkpt lat="49.35055" lon="-1.09728">
        <ele>10.477181</ele>
        <time>2022-08-02T10:12:44.000Z</time>
      </trkpt>
      <trkpt lat="49.3506" lon="-1.09728">
        <ele>10.457069</ele>
        <time>2022-08-02T10:12:45.000Z</time>
      </trkpt>
      <trkpt lat="49.35066" lon="-1.09728">
        <ele>10.437315</ele>
        <time>2022-08-02T10:12:46.000Z</time>
      </trkpt>
      <trkpt lat="49.35071" lon="-1.09729">
        <ele>10.418548</ele>
        <time>2022-08-02T10:12:47.000Z</time>
      </trkpt>
      <trkpt lat="49.35076" lon="-1.09729">
        <ele>10.398441</ele>
        <time>2022-08-02T10:12:48.000Z</time>
      </trkpt>
      <trkpt lat="49.35081" lon="-1.09729">
        <ele>10.380879</ele>
        <time>2022-08-02T10:12:49.000Z</time>
      </trkpt>
      <trkpt lat="49.35087" lon="-1.09729">
        <ele>10.360042</ele>
        <time>2022-08-02T10:12:50.000Z</time>
      </trkpt>
      <trkpt lat="49.35092" lon="-1.0973">
        <ele>10.3399</ele>
        <time>2022-08-02T10:12:51.000Z</time>
      </trkpt>
      <trkpt lat="49.35098" lon="-1.0973">
        <ele>10.320089</ele>
        <time>2022-08-02T10:12:52.000Z</time>
      </trkpt>
      <trkpt lat="49.35103" lon="-1.09731">
        <ele>10.301348</ele>
        <time>2022-08-02T10:12:53.000Z</time>
      </trkpt>
      <trkpt lat="49.35108" lon="-1.09732">
        <ele>10.279407</ele>
        <time>2022-08-02T10:12:54.000Z</time>
      </trkpt>
      <trkpt lat="49.35113" lon="-1.09733">
        <ele>10.252821</ele>
        <time>2022-08-02T10:12:55.000Z</time>
      </trkpt>
      <trkpt lat="49.35118" lon="-1.09734">
        <ele>10.23078</ele>
        <time>2022-08-02T10:12:56.000Z</time>
      </trkpt>
      <trkpt lat="49.35123" lon="-1.09736">
        <ele>10.207266</ele>
        <time>2022-08-02T10:12:57.000Z</time>
      </trkpt>
      <trkpt lat="49.35128" lon="-1.09737">
        <ele>10.180923</ele>
        <time>2022-08-02T10:12:58.000Z</time>
      </trkpt>
      <trkpt lat="49.35133" lon="-1.09739">
        <ele>10.155936</ele>
        <time>2022-08-02T10:12:59.000Z</time>
      </trkpt>
      <trkpt lat="49.35138" lon="-1.09741">
        <ele>10.130883</ele>
        <time>2022-08-02T10:13:00.000Z</time>
      </trkpt>
      <trkpt lat="49.35143" lon="-1.09743">
        <ele>10.10515</ele>
        <time>2022-08-02T10:13:01.000Z</time>
      </trkpt>
      <trkpt lat="49.35149" lon="-1.09744">
        <ele>10.08003</ele>
        <time>2022-08-02T10:13:02.000Z</time>
      </trkpt>
      <trkpt lat="49.35154" lon="-1.09746">
        <ele>10.05203</ele>
        <time>2022-08-02T10:13:03.000Z</time>
      </trkpt>
      <trkpt lat="49.3516" lon="-1.09748">
        <ele>10.025159</ele>
        <time>2022-08-02T10:13:04.000Z</time>
      </trkpt>
      <trkpt lat="49.35165" lon="-1.0975">
        <ele>10.000106</ele>
        <time>2022-08-02T10:13:05.000Z</time>
      </trkpt>
      <trkpt lat="49.3517" lon="-1.09751">
        <ele>9.975179</ele>
        <time>2022-08-02T10:13:06.000Z</time>
      </trkpt>
      <trkpt lat="49.35175" lon="-1.09753">
        <ele>9.950127</ele>
        <time>2022-08-02T10:13:07.000Z</time>
      </trkpt>
      <trkpt lat="49.3518" lon="-1.09754">
        <ele>9.924669</ele>
        <time>2022-08-02T10:13:08.000Z</time>
      </trkpt>
      <trkpt lat="49.35185" lon="-1.09755">
        <ele>9.900026</ele>
        <time>2022-08-02T10:13:09.000Z</time>
      </trkpt>
      <trkpt lat="49.35191" lon="-1.09757">
        <ele>9.873788</ele>
        <time>2022-08-02T10:13:10.000Z</time>
      </trkpt>
      <trkpt lat="49.35196" lon="-1.09758">
        <ele>9.850442</ele>
        <time>2022-08-02T10:13:11.000Z</time>
      </trkpt>
      <trkpt lat="49.35201" lon="-1.09758">
        <ele>9.823974</ele>
        <time>2022-08-02T10:13:12.000Z</time>
      </trkpt>
      <trkpt lat="49.35207" lon="-1.09759">
        <ele>9.796583</ele>
        <time>2022-08-02T10:13:13.000Z</time>
      </trkpt>
      <trkpt lat="49.35213" lon="-1.09759">
        <ele>9.768742</ele>
        <time>2022-08-02T10:13:14.000Z</time>
      </trkpt>
      <trkpt lat="49.35218" lon="-1.09759">
        <ele>9.744252</ele>
        <time>2022-08-02T10:13:15.000Z</time>
      </trkpt>
      <trkpt lat="49.35223" lon="-1.09758">
        <ele>9.716394</ele>
        <time>2022-08-02T10:13:16.000Z</time>
      </trkpt>
      <trkpt lat="49.35229" lon="-1.09758">
        <ele>9.689004</ele>
        <time>2022-08-02T10:13:17.000Z</time>
      </trkpt>
      <trkpt lat="49.35235" lon="-1.09757">
        <ele>9.661118</ele>
        <time>2022-08-02T10:13:18.000Z</time>
      </trkpt>
      <trkpt lat="49.3524" lon="-1.09757">
        <ele>9.635128</ele>
        <time>2022-08-02T10:13:19.000Z</time>
      </trkpt>
      <trkpt lat="49.35245" lon="-1.09756">
        <ele>9.610448</ele>
        <time>2022-08-02T10:13:20.000Z</time>
      </trkpt>
      <trkpt lat="49.35251" lon="-1.09755">
        <ele>9.583781</ele>
        <time>2022-08-02T10:13:21.000Z</time>
      </trkpt>
      <trkpt lat="49.35257" lon="-1.09753">
        <ele>9.556163</ele>
        <time>2022-08-02T10:13:22.000Z</time>
      </trkpt>
      <trkpt lat="49.35262" lon="-1.09752">
        <ele>9.530764</ele>
        <time>2022-08-02T10:13:23.000Z</time>
      </trkpt>
      <trkpt lat="49.35267" lon="-1.0975">
        <ele>9.504238</ele>
        <time>2022-08-02T10:13:24.000Z</time>
      </trkpt>
      <trkpt lat="49.35273" lon="-1.09748">
        <ele>9.475482</ele>
        <time>2022-08-02T10:13:25.000Z</time>
      </trkpt>
      <trkpt lat="49.35278" lon="-1.09745">
        <ele>9.448496</ele>
        <time>2022-08-02T10:13:26.000Z</time>
      </trkpt>
      <trkpt lat="49.35284" lon="-1.09743">
        <ele>9.434819</ele>
        <time>2022-08-02T10:13:27.000Z</time>
      </trkpt>
      <trkpt lat="49.35289" lon="-1.09741">
        <ele>9.458952</ele>
        <time>2022-08-02T10:13:28.000Z</time>
      </trkpt>
      <trkpt lat="49.35295" lon="-1.09738">
        <ele>9.481831</ele>
        <time>2022-08-02T10:13:29.000Z</time>
      </trkpt>
      <trkpt lat="49.35301" lon="-1.09736">
        <ele>9.505963</ele>
        <time>2022-08-02T10:13:30.000Z</time>
      </trkpt>
      <trkpt lat="49.35306" lon="-1.09734">
        <ele>9.529355</ele>
        <time>2022-08-02T10:13:31.000Z</time>
      </trkpt>
      <trkpt lat="49.35311" lon="-1.09732">
        <ele>9.549392</ele>
        <time>2022-08-02T10:13:32.000Z</time>
      </trkpt>
      <trkpt lat="49.35316" lon="-1.0973">
        <ele>9.57081</ele>
        <time>2022-08-02T10:13:33.000Z</time>
      </trkpt>
      <trkpt lat="49.35321" lon="-1.09729">
        <ele>9.589154</ele>
        <time>2022-08-02T10:13:34.000Z</time>
      </trkpt>
      <trkpt lat="49.35325" lon="-1.09727">
        <ele>9.606526</ele>
        <time>2022-08-02T10:13:35.000Z</time>
      </trkpt>
      <trkpt lat="49.35329" lon="-1.09726">
        <ele>9.623736</ele>
        <time>2022-08-02T10:13:36.000Z</time>
      </trkpt>
      <trkpt lat="49.35333" lon="-1.09725">
        <ele>9.639268</ele>
        <time>2022-08-02T10:13:37.000Z</time>
      </trkpt>
      <trkpt lat="49.35338" lon="-1.09724">
        <ele>9.658819</ele>
        <time>2022-08-02T10:13:38.000Z</time>
      </trkpt>
      <trkpt lat="49.35342" lon="-1.09722">
        <ele>9.676133</ele>
        <time>2022-08-02T10:13:39.000Z</time>
      </trkpt>
      <trkpt lat="49.35346" lon="-1.09721">
        <ele>9.694052</ele>
        <time>2022-08-02T10:13:40.000Z</time>
      </trkpt>
      <trkpt lat="49.35351" lon="-1.09721">
        <ele>9.713433</ele>
        <time>2022-08-02T10:13:41.000Z</time>
      </trkpt>
      <trkpt lat="49.35357" lon="-1.0972">
        <ele>9.735629</ele>
        <time>2022-08-02T10:13:42.000Z</time>
      </trkpt>
      <trkpt lat="49.35361" lon="-1.0972">
        <ele>9.753879</ele>
        <time>2022-08-02T10:13:43.000Z</time>
      </trkpt>
      <trkpt lat="49.35366" lon="-1.09719">
        <ele>9.77326</ele>
        <time>2022-08-02T10:13:44.000Z</time>
      </trkpt>
      <trkpt lat="49.35371" lon="-1.09718">
        <ele>9.792684</ele>
        <time>2022-08-02T10:13:45.000Z</time>
      </trkpt>
      <trkpt lat="49.35375" lon="-1.09718">
        <ele>9.809276</ele>
        <time>2022-08-02T10:13:46.000Z</time>
      </trkpt>
      <trkpt lat="49.3538" lon="-1.09717">
        <ele>9.8287</ele>
        <time>2022-08-02T10:13:47.000Z</time>
      </trkpt>
      <trkpt lat="49.35384" lon="-1.09717">
        <ele>9.846845</ele>
        <time>2022-08-02T10:13:48.000Z</time>
      </trkpt>
      <trkpt lat="49.35389" lon="-1.09717">
        <ele>9.864981</ele>
        <time>2022-08-02T10:13:49.000Z</time>
      </trkpt>
      <trkpt lat="49.35393" lon="-1.09717">
        <ele>9.884318</ele>
        <time>2022-08-02T10:13:50.000Z</time>
      </trkpt>
      <trkpt lat="49.35398" lon="-1.09716">
        <ele>9.902494</ele>
        <time>2022-08-02T10:13:51.000Z</time>
      </trkpt>
      <trkpt lat="49.35402" lon="-1.09716">
        <ele>9.920237</ele>
        <time>2022-08-02T10:13:52.000Z</time>
      </trkpt>
      <trkpt lat="49.35407" lon="-1.09716">
        <ele>9.938373</ele>
        <time>2022-08-02T10:13:53.000Z</time>
      </trkpt>
      <trkpt lat="49.35412" lon="-1.09716">
        <ele>9.95771</ele>
        <time>2022-08-02T10:13:54.000Z</time>
      </trkpt>
      <trkpt lat="49.35416" lon="-1.09715">
        <ele>9.974638</ele>
        <time>2022-08-02T10:13:55.000Z</time>
      </trkpt>
      <trkpt lat="49.3542" lon="-1.09715">
        <ele>9.991155</ele>
        <time>2022-08-02T10:13:56.000Z</time>
      </trkpt>
      <trkpt lat="49.35424" lon="-1.09715">
        <ele>10.008075</ele>
        <time>2022-08-02T10:13:57.000Z</time>
      </trkpt>
      <trkpt lat="49.35429" lon="-1.09715">
        <ele>10.026203</ele>
        <time>2022-08-02T10:13:58.000Z</time>
      </trkpt>
      <trkpt lat="49.35433" lon="-1.09716">
        <ele>10.044339</ele>
        <time>2022-08-02T10:13:59.000Z</time>
      </trkpt>
      <trkpt lat="49.35437" lon="-1.09716">
        <ele>10.062073</ele>
        <time>2022-08-02T10:14:00.000Z</time>
      </trkpt>
      <trkpt lat="49.35442" lon="-1.09716">
        <ele>10.080209</ele>
        <time>2022-08-02T10:14:01.000Z</time>
      </trkpt>
      <trkpt lat="49.35446" lon="-1.09716">
        <ele>10.098337</ele>
        <time>2022-08-02T10:14:02.000Z</time>
      </trkpt>
      <trkpt lat="49.35451" lon="-1.09715">
        <ele>10.117681</ele>
        <time>2022-08-02T10:14:03.000Z</time>
      </trkpt>
      <trkpt lat="49.35455" lon="-1.09715">
        <ele>10.134601</ele>
        <time>2022-08-02T10:14:04.000Z</time>
      </trkpt>
      <trkpt lat="49.3546" lon="-1.09715">
        <ele>10.152329</ele>
        <time>2022-08-02T10:14:05.000Z</time>
      </trkpt>
      <trkpt lat="49.35464" lon="-1.09715">
        <ele>10.167544</ele>
        <time>2022-08-02T10:14:06.000Z</time>
      </trkpt>
      <trkpt lat="49.35469" lon="-1.09714">
        <ele>10.182459</ele>
        <time>2022-08-02T10:14:07.000Z</time>
      </trkpt>
      <trkpt lat="49.35473" lon="-1.09714">
        <ele>10.197411</ele>
        <time>2022-08-02T10:14:08.000Z</time>
      </trkpt>
      <trkpt lat="49.35478" lon="-1.09713">
        <ele>10.212442</ele>
        <time>2022-08-02T10:14:09.000Z</time>
      </trkpt>
      <trkpt lat="49.35483" lon="-1.09712">
        <ele>10.228455</ele>
        <time>2022-08-02T10:14:10.000Z</time>
      </trkpt>
      <trkpt lat="49.35487" lon="-1.09711">
        <ele>10.243102</ele>
        <time>2022-08-02T10:14:11.000Z</time>
      </trkpt>
      <trkpt lat="49.35491" lon="-1.0971">
        <ele>10.257224</ele>
        <time>2022-08-02T10:14:12.000Z</time>
      </trkpt>
      <trkpt lat="49.35495" lon="-1.09709">
        <ele>10.271274</ele>
        <time>2022-08-02T10:14:13.000Z</time>
      </trkpt>
      <trkpt lat="49.355" lon="-1.09708">
        <ele>10.285921</ele>
        <time>2022-08-02T10:14:14.000Z</time>
      </trkpt>
      <trkpt lat="49.35504" lon="-1.09707">
        <ele>10.300043</ele>
        <time>2022-08-02T10:14:15.000Z</time>
      </trkpt>
      <trkpt lat="49.35509" lon="-1.09705">
        <ele>10.31518</ele>
        <time>2022-08-02T10:14:16.000Z</time>
      </trkpt>
      <trkpt lat="49.35513" lon="-1.09704">
        <ele>10.330358</ele>
        <time>2022-08-02T10:14:17.000Z</time>
      </trkpt>
      <trkpt lat="49.35517" lon="-1.09703">
        <ele>10.344117</ele>
        <time>2022-08-02T10:14:18.000Z</time>
      </trkpt>
      <trkpt lat="49.35521" lon="-1.09702">
        <ele>10.358167</ele>
        <time>2022-08-02T10:14:19.000Z</time>
      </trkpt>
      <trkpt lat="49.35526" lon="-1.09701">
        <ele>10.375163</ele>
        <time>2022-08-02T10:14:20.000Z</time>
      </trkpt>
      <trkpt lat="49.35531" lon="-1.09699">
        <ele>10.390386</ele>
        <time>2022-08-02T10:14:21.000Z</time>
      </trkpt>
      <trkpt lat="49.35535" lon="-1.09698">
        <ele>10.404319</ele>
        <time>2022-08-02T10:14:22.000Z</time>
      </trkpt>
      <trkpt lat="49.3554" lon="-1.09696">
        <ele>10.419541</ele>
        <time>2022-08-02T10:14:23.000Z</time>
      </trkpt>
      <trkpt lat="49.35544" lon="-1.09695">
        <ele>10.433796</ele>
        <time>2022-08-02T10:14:24.000Z</time>
      </trkpt>
      <trkpt lat="49.35549" lon="-1.09693">
        <ele>10.450923</ele>
        <time>2022-08-02T10:14:25.000Z</time>
      </trkpt>
      <trkpt lat="49.35553" lon="-1.09692">
        <ele>10.465007</ele>
        <time>2022-08-02T10:14:26.000Z</time>
      </trkpt>
      <trkpt lat="49.35558" lon="-1.09691">
        <ele>10.482003</ele>
        <time>2022-08-02T10:14:27.000Z</time>
      </trkpt>
      <trkpt lat="49.35563" lon="-1.0969">
        <ele>10.497034</ele>
        <time>2022-08-02T10:14:28.000Z</time>
      </trkpt>
      <trkpt lat="49.35567" lon="-1.09689">
        <ele>10.511738</ele>
        <time>2022-08-02T10:14:29.000Z</time>
      </trkpt>
      <trkpt lat="49.35572" lon="-1.09688">
        <ele>10.526739</ele>
        <time>2022-08-02T10:14:30.000Z</time>
      </trkpt>
      <trkpt lat="49.35576" lon="-1.09688">
        <ele>10.542659</ele>
        <time>2022-08-02T10:14:31.000Z</time>
      </trkpt>
      <trkpt lat="49.35581" lon="-1.09687">
        <ele>10.556585</ele>
        <time>2022-08-02T10:14:32.000Z</time>
      </trkpt>
      <trkpt lat="49.35585" lon="-1.09687">
        <ele>10.5715</ele>
        <time>2022-08-02T10:14:33.000Z</time>
      </trkpt>
      <trkpt lat="49.35589" lon="-1.09686">
        <ele>10.585137</ele>
        <time>2022-08-02T10:14:34.000Z</time>
      </trkpt>
      <trkpt lat="49.35594" lon="-1.09686">
        <ele>10.602008</ele>
        <time>2022-08-02T10:14:35.000Z</time>
      </trkpt>
      <trkpt lat="49.35599" lon="-1.09686">
        <ele>10.61689</ele>
        <time>2022-08-02T10:14:36.000Z</time>
      </trkpt>
      <trkpt lat="49.35604" lon="-1.09685">
        <ele>10.633762</ele>
        <time>2022-08-02T10:14:37.000Z</time>
      </trkpt>
      <trkpt lat="49.35609" lon="-1.09685">
        <ele>10.649629</ele>
        <time>2022-08-02T10:14:38.000Z</time>
      </trkpt>
      <trkpt lat="49.35614" lon="-1.09685">
        <ele>10.666841</ele>
        <time>2022-08-02T10:14:39.000Z</time>
      </trkpt>
      <trkpt lat="49.35618" lon="-1.09685">
        <ele>10.681387</ele>
        <time>2022-08-02T10:14:40.000Z</time>
      </trkpt>
      <trkpt lat="49.35623" lon="-1.09685">
        <ele>10.697261</ele>
        <time>2022-08-02T10:14:41.000Z</time>
      </trkpt>
      <trkpt lat="49.35629" lon="-1.09685">
        <ele>10.715447</ele>
        <time>2022-08-02T10:14:42.000Z</time>
      </trkpt>
      <trkpt lat="49.35634" lon="-1.09685">
        <ele>10.732308</ele>
        <time>2022-08-02T10:14:43.000Z</time>
      </trkpt>
      <trkpt lat="49.35638" lon="-1.09685">
        <ele>10.748177</ele>
        <time>2022-08-02T10:14:44.000Z</time>
      </trkpt>
      <trkpt lat="49.35644" lon="-1.09685">
        <ele>10.750238</ele>
        <time>2022-08-02T10:14:45.000Z</time>
      </trkpt>
      <trkpt lat="49.35648" lon="-1.09685">
        <ele>10.751829</ele>
        <time>2022-08-02T10:14:46.000Z</time>
      </trkpt>
      <trkpt lat="49.35653" lon="-1.09685">
        <ele>10.753519</ele>
        <time>2022-08-02T10:14:47.000Z</time>
      </trkpt>
      <trkpt lat="49.35658" lon="-1.09685">
        <ele>10.754911</ele>
        <time>2022-08-02T10:14:48.000Z</time>
      </trkpt>
      <trkpt lat="49.35662" lon="-1.09685">
        <ele>10.756501</ele>
        <time>2022-08-02T10:14:49.000Z</time>
      </trkpt>
      <trkpt lat="49.35667" lon="-1.09685">
        <ele>10.757993</ele>
        <time>2022-08-02T10:14:50.000Z</time>
      </trkpt>
      <trkpt lat="49.35672" lon="-1.09684">
        <ele>10.759584</ele>
        <time>2022-08-02T10:14:51.000Z</time>
      </trkpt>
      <trkpt lat="49.35676" lon="-1.09684">
        <ele>10.761075</ele>
        <time>2022-08-02T10:14:52.000Z</time>
      </trkpt>
      <trkpt lat="49.35681" lon="-1.09684">
        <ele>10.762765</ele>
        <time>2022-08-02T10:14:53.000Z</time>
      </trkpt>
      <trkpt lat="49.35686" lon="-1.09684">
        <ele>10.764256</ele>
        <time>2022-08-02T10:14:54.000Z</time>
      </trkpt>
      <trkpt lat="49.3569" lon="-1.09684">
        <ele>10.765715</ele>
        <time>2022-08-02T10:14:55.000Z</time>
      </trkpt>
      <trkpt lat="49.35694" lon="-1.09684">
        <ele>10.767108</ele>
        <time>2022-08-02T10:14:56.000Z</time>
      </trkpt>
      <trkpt lat="49.35699" lon="-1.09684">
        <ele>10.768699</ele>
        <time>2022-08-02T10:14:57.000Z</time>
      </trkpt>
      <trkpt lat="49.35703" lon="-1.09684">
        <ele>10.770091</ele>
        <time>2022-08-02T10:14:58.000Z</time>
      </trkpt>
      <trkpt lat="49.35708" lon="-1.09684">
        <ele>10.771451</ele>
        <time>2022-08-02T10:14:59.000Z</time>
      </trkpt>
      <trkpt lat="49.35712" lon="-1.09685">
        <ele>10.772847</ele>
        <time>2022-08-02T10:15:00.000Z</time>
      </trkpt>
      <trkpt lat="49.35716" lon="-1.09685">
        <ele>10.774207</ele>
        <time>2022-08-02T10:15:01.000Z</time>
      </trkpt>
      <trkpt lat="49.3572" lon="-1.09685">
        <ele>10.775502</ele>
        <time>2022-08-02T10:15:02.000Z</time>
      </trkpt>
      <trkpt lat="49.35724" lon="-1.09685">
        <ele>10.776861</ele>
        <time>2022-08-02T10:15:03.000Z</time>
      </trkpt>
      <trkpt lat="49.35728" lon="-1.09685">
        <ele>10.778156</ele>
        <time>2022-08-02T10:15:04.000Z</time>
      </trkpt>
      <trkpt lat="49.35732" lon="-1.09685">
        <ele>10.779415</ele>
        <time>2022-08-02T10:15:05.000Z</time>
      </trkpt>
      <trkpt lat="49.35736" lon="-1.09685">
        <ele>10.780809</ele>
        <time>2022-08-02T10:15:06.000Z</time>
      </trkpt>
      <trkpt lat="49.3574" lon="-1.09685">
        <ele>10.782168</ele>
        <time>2022-08-02T10:15:07.000Z</time>
      </trkpt>
      <trkpt lat="49.35744" lon="-1.09685">
        <ele>10.783559</ele>
        <time>2022-08-02T10:15:08.000Z</time>
      </trkpt>
      <trkpt lat="49.35749" lon="-1.09685">
        <ele>10.785152</ele>
        <time>2022-08-02T10:15:09.000Z</time>
      </trkpt>
      <trkpt lat="49.35753" lon="-1.09684">
        <ele>10.786548</ele>
        <time>2022-08-02T10:15:10.000Z</time>
      </trkpt>
      <trkpt lat="49.35757" lon="-1.09684">
        <ele>10.788011</ele>
        <time>2022-08-02T10:15:11.000Z</time>
      </trkpt>
      <trkpt lat="49.35763" lon="-1.09683">
        <ele>10.789754</ele>
        <time>2022-08-02T10:15:12.000Z</time>
      </trkpt>
      <trkpt lat="49.35767" lon="-1.09681">
        <ele>10.791274</ele>
        <time>2022-08-02T10:15:13.000Z</time>
      </trkpt>
      <trkpt lat="49.35772" lon="-1.09678">
        <ele>10.79286</ele>
        <time>2022-08-02T10:15:14.000Z</time>
      </trkpt>
      <trkpt lat="49.35776" lon="-1.09675">
        <ele>10.794443</ele>
        <time>2022-08-02T10:15:15.000Z</time>
      </trkpt>
      <trkpt lat="49.3578" lon="-1.09671">
        <ele>10.796053</ele>
        <time>2022-08-02T10:15:16.000Z</time>
      </trkpt>
      <trkpt lat="49.35783" lon="-1.09665">
        <ele>10.79769</ele>
        <time>2022-08-02T10:15:17.000Z</time>
      </trkpt>
      <trkpt lat="49.35786" lon="-1.09659">
        <ele>10.799246</ele>
        <time>2022-08-02T10:15:18.000Z</time>
      </trkpt>
      <trkpt lat="49.35789" lon="-1.09652">
        <ele>10.800966</ele>
        <time>2022-08-02T10:15:19.000Z</time>
      </trkpt>
      <trkpt lat="49.35789" lon="-1.09645">
        <ele>10.802527</ele>
        <time>2022-08-02T10:15:20.000Z</time>
      </trkpt>
      <trkpt lat="49.3579" lon="-1.09638">
        <ele>10.804158</ele>
        <time>2022-08-02T10:15:21.000Z</time>
      </trkpt>
      <trkpt lat="49.3579" lon="-1.09631">
        <ele>10.805682</ele>
        <time>2022-08-02T10:15:22.000Z</time>
      </trkpt>
      <trkpt lat="49.35789" lon="-1.09624">
        <ele>10.807168</ele>
        <time>2022-08-02T10:15:23.000Z</time>
      </trkpt>
      <trkpt lat="49.35789" lon="-1.09617">
        <ele>10.829006</ele>
        <time>2022-08-02T10:15:24.000Z</time>
      </trkpt>
      <trkpt lat="49.35787" lon="-1.0961">
        <ele>10.89189</ele>
        <time>2022-08-02T10:15:25.000Z</time>
      </trkpt>
      <trkpt lat="49.35786" lon="-1.09604">
        <ele>10.95272</ele>
        <time>2022-08-02T10:15:26.000Z</time>
      </trkpt>
      <trkpt lat="49.35784" lon="-1.09598">
        <ele>11.011071</ele>
        <time>2022-08-02T10:15:27.000Z</time>
      </trkpt>
      <trkpt lat="49.35783" lon="-1.09592">
        <ele>11.067748</ele>
        <time>2022-08-02T10:15:28.000Z</time>
      </trkpt>
      <trkpt lat="49.35782" lon="-1.09586">
        <ele>11.123441</ele>
        <time>2022-08-02T10:15:29.000Z</time>
      </trkpt>
      <trkpt lat="49.35781" lon="-1.09579">
        <ele>11.179608</ele>
        <time>2022-08-02T10:15:30.000Z</time>
      </trkpt>
      <trkpt lat="49.35781" lon="-1.09573">
        <ele>11.236983</ele>
        <time>2022-08-02T10:15:31.000Z</time>
      </trkpt>
      <trkpt lat="49.35781" lon="-1.09566">
        <ele>11.294805</ele>
        <time>2022-08-02T10:15:32.000Z</time>
      </trkpt>
      <trkpt lat="49.3578" lon="-1.0956">
        <ele>11.351514</ele>
        <time>2022-08-02T10:15:33.000Z</time>
      </trkpt>
      <trkpt lat="49.3578" lon="-1.09554">
        <ele>11.409336</ele>
        <time>2022-08-02T10:15:34.000Z</time>
      </trkpt>
      <trkpt lat="49.35779" lon="-1.09547">
        <ele>11.469347</ele>
        <time>2022-08-02T10:15:35.000Z</time>
      </trkpt>
      <trkpt lat="49.35778" lon="-1.0954">
        <ele>11.529475</ele>
        <time>2022-08-02T10:15:36.000Z</time>
      </trkpt>
      <trkpt lat="49.35778" lon="-1.09534">
        <ele>11.589067</ele>
        <time>2022-08-02T10:15:37.000Z</time>
      </trkpt>
      <trkpt lat="49.35777" lon="-1.09527">
        <ele>11.649078</ele>
        <time>2022-08-02T10:15:38.000Z</time>
      </trkpt>
      <trkpt lat="49.35777" lon="-1.0952">
        <ele>11.709662</ele>
        <time>2022-08-02T10:15:39.000Z</time>
      </trkpt>
      <trkpt lat="49.35777" lon="-1.09513">
        <ele>11.770001</ele>
        <time>2022-08-02T10:15:40.000Z</time>
      </trkpt>
      <trkpt lat="49.35776" lon="-1.09506">
        <ele>11.83177</ele>
        <time>2022-08-02T10:15:41.000Z</time>
      </trkpt>
      <trkpt lat="49.35776" lon="-1.095">
        <ele>11.892109</ele>
        <time>2022-08-02T10:15:42.000Z</time>
      </trkpt>
      <trkpt lat="49.35776" lon="-1.09493">
        <ele>11.952587</ele>
        <time>2022-08-02T10:15:43.000Z</time>
      </trkpt>
      <trkpt lat="49.35776" lon="-1.09486">
        <ele>12.013813</ele>
        <time>2022-08-02T10:15:44.000Z</time>
      </trkpt>
      <trkpt lat="49.35775" lon="-1.09479">
        <ele>12.076061</ele>
        <time>2022-08-02T10:15:45.000Z</time>
      </trkpt>
      <trkpt lat="49.35776" lon="-1.09472">
        <ele>12.134768</ele>
        <time>2022-08-02T10:15:46.000Z</time>
      </trkpt>
      <trkpt lat="49.35777" lon="-1.09465">
        <ele>12.197209</ele>
        <time>2022-08-02T10:15:47.000Z</time>
      </trkpt>
      <trkpt lat="49.35777" lon="-1.09459">
        <ele>12.256545</ele>
        <time>2022-08-02T10:15:48.000Z</time>
      </trkpt>
      <trkpt lat="49.35779" lon="-1.09453">
        <ele>12.31434</ele>
        <time>2022-08-02T10:15:49.000Z</time>
      </trkpt>
      <trkpt lat="49.35781" lon="-1.09447">
        <ele>12.368022</ele>
        <time>2022-08-02T10:15:50.000Z</time>
      </trkpt>
      <trkpt lat="49.35783" lon="-1.09443">
        <ele>12.420504</ele>
        <time>2022-08-02T10:15:51.000Z</time>
      </trkpt>
      <trkpt lat="49.35787" lon="-1.09439">
        <ele>12.478085</ele>
        <time>2022-08-02T10:15:52.000Z</time>
      </trkpt>
      <trkpt lat="49.3579" lon="-1.09437">
        <ele>12.533731</ele>
        <time>2022-08-02T10:15:53.000Z</time>
      </trkpt>
      <trkpt lat="49.35795" lon="-1.09436">
        <ele>12.591932</ele>
        <time>2022-08-02T10:15:54.000Z</time>
      </trkpt>
      <trkpt lat="49.35799" lon="-1.09435">
        <ele>12.648237</ele>
        <time>2022-08-02T10:15:55.000Z</time>
      </trkpt>
      <trkpt lat="49.35803" lon="-1.09435">
        <ele>12.705517</ele>
        <time>2022-08-02T10:15:56.000Z</time>
      </trkpt>
      <trkpt lat="49.35807" lon="-1.09435">
        <ele>12.757286</ele>
        <time>2022-08-02T10:15:57.000Z</time>
      </trkpt>
      <trkpt lat="49.35811" lon="-1.09435">
        <ele>12.814566</ele>
        <time>2022-08-02T10:15:58.000Z</time>
      </trkpt>
      <trkpt lat="49.35815" lon="-1.09436">
        <ele>12.866525</ele>
        <time>2022-08-02T10:15:59.000Z</time>
      </trkpt>
      <trkpt lat="49.35819" lon="-1.09436">
        <ele>12.923771</ele>
        <time>2022-08-02T10:16:00.000Z</time>
      </trkpt>
      <trkpt lat="49.35823" lon="-1.09436">
        <ele>12.985082</ele>
        <time>2022-08-02T10:16:01.000Z</time>
      </trkpt>
      <trkpt lat="49.35828" lon="-1.09437">
        <ele>13.041282</ele>
        <time>2022-08-02T10:16:02.000Z</time>
      </trkpt>
      <trkpt lat="49.35832" lon="-1.09437">
        <ele>13.098672</ele>
        <time>2022-08-02T10:16:03.000Z</time>
      </trkpt>
      <trkpt lat="49.35836" lon="-1.09437">
        <ele>13.15051</ele>
        <time>2022-08-02T10:16:04.000Z</time>
      </trkpt>
      <trkpt lat="49.3584" lon="-1.09438">
        <ele>13.211975</ele>
        <time>2022-08-02T10:16:05.000Z</time>
      </trkpt>
      <trkpt lat="49.35845" lon="-1.09438">
        <ele>13.266583</ele>
        <time>2022-08-02T10:16:06.000Z</time>
      </trkpt>
      <trkpt lat="49.35849" lon="-1.09439">
        <ele>13.299716</ele>
        <time>2022-08-02T10:16:07.000Z</time>
      </trkpt>
      <trkpt lat="49.35853" lon="-1.09439">
        <ele>13.329949</ele>
        <time>2022-08-02T10:16:08.000Z</time>
      </trkpt>
      <trkpt lat="49.35858" lon="-1.0944">
        <ele>13.367465</ele>
        <time>2022-08-02T10:16:09.000Z</time>
      </trkpt>
      <trkpt lat="49.35863" lon="-1.0944">
        <ele>13.400629</ele>
        <time>2022-08-02T10:16:10.000Z</time>
      </trkpt>
      <trkpt lat="49.35867" lon="-1.09441">
        <ele>13.433794</ele>
        <time>2022-08-02T10:16:11.000Z</time>
      </trkpt>
      <trkpt lat="49.35871" lon="-1.09441">
        <ele>13.4647</ele>
        <time>2022-08-02T10:16:12.000Z</time>
      </trkpt>
      <trkpt lat="49.35876" lon="-1.09441">
        <ele>13.500035</ele>
        <time>2022-08-02T10:16:13.000Z</time>
      </trkpt>
      <trkpt lat="49.3588" lon="-1.09441">
        <ele>13.530173</ele>
        <time>2022-08-02T10:16:14.000Z</time>
      </trkpt>
      <trkpt lat="49.35885" lon="-1.09442">
        <ele>13.565485</ele>
        <time>2022-08-02T10:16:15.000Z</time>
      </trkpt>
      <trkpt lat="49.3589" lon="-1.09442">
        <ele>13.603001</ele>
        <time>2022-08-02T10:16:16.000Z</time>
      </trkpt>
      <trkpt lat="49.35895" lon="-1.09442">
        <ele>13.638336</ele>
        <time>2022-08-02T10:16:17.000Z</time>
      </trkpt>
      <trkpt lat="49.359" lon="-1.09442">
        <ele>13.676562</ele>
        <time>2022-08-02T10:16:18.000Z</time>
      </trkpt>
      <trkpt lat="49.35905" lon="-1.09443">
        <ele>13.711858</ele>
        <time>2022-08-02T10:16:19.000Z</time>
      </trkpt>
      <trkpt lat="49.3591" lon="-1.09443">
        <ele>13.749423</ele>
        <time>2022-08-02T10:16:20.000Z</time>
      </trkpt>
      <trkpt lat="49.35915" lon="-1.09443">
        <ele>13.784736</ele>
        <time>2022-08-02T10:16:21.000Z</time>
      </trkpt>
      <trkpt lat="49.3592" lon="-1.09444">
        <ele>13.822236</ele>
        <time>2022-08-02T10:16:22.000Z</time>
      </trkpt>
      <trkpt lat="49.35925" lon="-1.09444">
        <ele>13.861941</ele>
        <time>2022-08-02T10:16:23.000Z</time>
      </trkpt>
      <trkpt lat="49.3593" lon="-1.09444">
        <ele>13.895019</ele>
        <time>2022-08-02T10:16:24.000Z</time>
      </trkpt>
      <trkpt lat="49.35934" lon="-1.09444">
        <ele>13.928184</ele>
        <time>2022-08-02T10:16:25.000Z</time>
      </trkpt>
      <trkpt lat="49.3594" lon="-1.09445">
        <ele>13.965782</ele>
        <time>2022-08-02T10:16:26.000Z</time>
      </trkpt>
      <trkpt lat="49.35944" lon="-1.09445">
        <ele>14.001146</ele>
        <time>2022-08-02T10:16:27.000Z</time>
      </trkpt>
      <trkpt lat="49.35949" lon="-1.09446">
        <ele>14.038647</ele>
        <time>2022-08-02T10:16:28.000Z</time>
      </trkpt>
      <trkpt lat="49.35955" lon="-1.09446">
        <ele>14.07687</ele>
        <time>2022-08-02T10:16:29.000Z</time>
      </trkpt>
      <trkpt lat="49.35959" lon="-1.09446">
        <ele>14.107023</ele>
        <time>2022-08-02T10:16:30.000Z</time>
      </trkpt>
      <trkpt lat="49.35964" lon="-1.09446">
        <ele>14.144588</ele>
        <time>2022-08-02T10:16:31.000Z</time>
      </trkpt>
      <trkpt lat="49.35968" lon="-1.09447">
        <ele>14.177697</ele>
        <time>2022-08-02T10:16:32.000Z</time>
      </trkpt>
      <trkpt lat="49.35973" lon="-1.09447">
        <ele>14.215197</ele>
        <time>2022-08-02T10:16:33.000Z</time>
      </trkpt>
      <trkpt lat="49.35978" lon="-1.09447">
        <ele>14.248289</ele>
        <time>2022-08-02T10:16:34.000Z</time>
      </trkpt>
      <trkpt lat="49.35982" lon="-1.09446">
        <ele>14.281381</ele>
        <time>2022-08-02T10:16:35.000Z</time>
      </trkpt>
      <trkpt lat="49.35987" lon="-1.09446">
        <ele>14.316664</ele>
        <time>2022-08-02T10:16:36.000Z</time>
      </trkpt>
      <trkpt lat="49.35992" lon="-1.09447">
        <ele>14.349798</ele>
        <time>2022-08-02T10:16:37.000Z</time>
      </trkpt>
      <trkpt lat="49.35997" lon="-1.09447">
        <ele>14.38511</ele>
        <time>2022-08-02T10:16:38.000Z</time>
      </trkpt>
      <trkpt lat="49.36001" lon="-1.09447">
        <ele>14.420422</ele>
        <time>2022-08-02T10:16:39.000Z</time>
      </trkpt>
      <trkpt lat="49.36006" lon="-1.09448">
        <ele>14.455757</ele>
        <time>2022-08-02T10:16:40.000Z</time>
      </trkpt>
      <trkpt lat="49.36011" lon="-1.09448">
        <ele>14.493249</ele>
        <time>2022-08-02T10:16:41.000Z</time>
      </trkpt>
      <trkpt lat="49.36016" lon="-1.09448">
        <ele>14.528545</ele>
        <time>2022-08-02T10:16:42.000Z</time>
      </trkpt>
      <trkpt lat="49.36021" lon="-1.09448">
        <ele>14.56825</ele>
        <time>2022-08-02T10:16:43.000Z</time>
      </trkpt>
      <trkpt lat="49.36027" lon="-1.09449">
        <ele>14.556309</ele>
        <time>2022-08-02T10:16:44.000Z</time>
      </trkpt>
      <trkpt lat="49.36033" lon="-1.09449">
        <ele>14.519886</ele>
        <time>2022-08-02T10:16:45.000Z</time>
      </trkpt>
      <trkpt lat="49.36038" lon="-1.09449">
        <ele>14.486677</ele>
        <time>2022-08-02T10:16:46.000Z</time>
      </trkpt>
      <trkpt lat="49.36043" lon="-1.09448">
        <ele>14.452129</ele>
        <time>2022-08-02T10:16:47.000Z</time>
      </trkpt>
      <trkpt lat="49.36049" lon="-1.09448">
        <ele>14.415086</ele>
        <time>2022-08-02T10:16:48.000Z</time>
      </trkpt>
      <trkpt lat="49.36055" lon="-1.09448">
        <ele>14.378682</ele>
        <time>2022-08-02T10:16:49.000Z</time>
      </trkpt>
      <trkpt lat="49.36061" lon="-1.09448">
        <ele>14.34164</ele>
        <time>2022-08-02T10:16:50.000Z</time>
      </trkpt>
      <trkpt lat="49.36067" lon="-1.09448">
        <ele>14.302675</ele>
        <time>2022-08-02T10:16:51.000Z</time>
      </trkpt>
      <trkpt lat="49.36072" lon="-1.09448">
        <ele>14.268166</ele>
        <time>2022-08-02T10:16:52.000Z</time>
      </trkpt>
      <trkpt lat="49.36078" lon="-1.09447">
        <ele>14.231012</ele>
        <time>2022-08-02T10:16:53.000Z</time>
      </trkpt>
      <trkpt lat="49.36084" lon="-1.09446">
        <ele>14.19255</ele>
        <time>2022-08-02T10:16:54.000Z</time>
      </trkpt>
      <trkpt lat="49.3609" lon="-1.09445">
        <ele>14.155321</ele>
        <time>2022-08-02T10:16:55.000Z</time>
      </trkpt>
      <trkpt lat="49.36095" lon="-1.09445">
        <ele>14.118197</ele>
        <time>2022-08-02T10:16:56.000Z</time>
      </trkpt>
      <trkpt lat="49.36101" lon="-1.09444">
        <ele>14.079654</ele>
        <time>2022-08-02T10:16:57.000Z</time>
      </trkpt>
      <trkpt lat="49.36107" lon="-1.09443">
        <ele>14.042279</ele>
        <time>2022-08-02T10:16:58.000Z</time>
      </trkpt>
      <trkpt lat="49.36113" lon="-1.09441">
        <ele>14.004904</ele>
        <time>2022-08-02T10:16:59.000Z</time>
      </trkpt>
      <trkpt lat="49.36119" lon="-1.0944">
        <ele>13.966361</ele>
        <time>2022-08-02T10:17:00.000Z</time>
      </trkpt>
      <trkpt lat="49.36125" lon="-1.0944">
        <ele>13.929237</ele>
        <time>2022-08-02T10:17:01.000Z</time>
      </trkpt>
      <trkpt lat="49.36131" lon="-1.09439">
        <ele>13.890059</ele>
        <time>2022-08-02T10:17:02.000Z</time>
      </trkpt>
      <trkpt lat="49.36137" lon="-1.09438">
        <ele>13.853317</ele>
        <time>2022-08-02T10:17:03.000Z</time>
      </trkpt>
      <trkpt lat="49.36143" lon="-1.09436">
        <ele>13.813865</ele>
        <time>2022-08-02T10:17:04.000Z</time>
      </trkpt>
      <trkpt lat="49.36149" lon="-1.09434">
        <ele>13.776075</ele>
        <time>2022-08-02T10:17:05.000Z</time>
      </trkpt>
      <trkpt lat="49.36154" lon="-1.09433">
        <ele>13.739143</ele>
        <time>2022-08-02T10:17:06.000Z</time>
      </trkpt>
      <trkpt lat="49.3616" lon="-1.09431">
        <ele>13.69955</ele>
        <time>2022-08-02T10:17:07.000Z</time>
      </trkpt>
      <trkpt lat="49.36166" lon="-1.09429">
        <ele>13.659957</ele>
        <time>2022-08-02T10:17:08.000Z</time>
      </trkpt>
      <trkpt lat="49.36173" lon="-1.09427">
        <ele>13.620034</ele>
        <time>2022-08-02T10:17:09.000Z</time>
      </trkpt>
      <trkpt lat="49.36179" lon="-1.09425">
        <ele>13.579819</ele>
        <time>2022-08-02T10:17:10.000Z</time>
      </trkpt>
      <trkpt lat="49.36184" lon="-1.09422">
        <ele>13.541962</ele>
        <time>2022-08-02T10:17:11.000Z</time>
      </trkpt>
      <trkpt lat="49.3619" lon="-1.0942">
        <ele>13.501848</ele>
        <time>2022-08-02T10:17:12.000Z</time>
      </trkpt>
      <trkpt lat="49.36197" lon="-1.09417">
        <ele>13.461306</ele>
        <time>2022-08-02T10:17:13.000Z</time>
      </trkpt>
      <trkpt lat="49.36203" lon="-1.09414">
        <ele>13.392079</ele>
        <time>2022-08-02T10:17:14.000Z</time>
      </trkpt>
      <trkpt lat="49.36209" lon="-1.09411">
        <ele>13.279154</ele>
        <time>2022-08-02T10:17:15.000Z</time>
      </trkpt>
      <trkpt lat="49.36215" lon="-1.09409">
        <ele>13.147659</ele>
        <time>2022-08-02T10:17:16.000Z</time>
      </trkpt>
      <trkpt lat="49.36221" lon="-1.09406">
        <ele>13.029727</ele>
        <time>2022-08-02T10:17:17.000Z</time>
      </trkpt>
      <trkpt lat="49.36228" lon="-1.09403">
        <ele>12.903886</ele>
        <time>2022-08-02T10:17:18.000Z</time>
      </trkpt>
      <trkpt lat="49.36234" lon="-1.094">
        <ele>12.784153</ele>
        <time>2022-08-02T10:17:19.000Z</time>
      </trkpt>
      <trkpt lat="49.3624" lon="-1.09397">
        <ele>12.658664</ele>
        <time>2022-08-02T10:17:20.000Z</time>
      </trkpt>
      <trkpt lat="49.36247" lon="-1.09395">
        <ele>12.521676</ele>
        <time>2022-08-02T10:17:21.000Z</time>
      </trkpt>
      <trkpt lat="49.36254" lon="-1.09392">
        <ele>12.397177</ele>
        <time>2022-08-02T10:17:22.000Z</time>
      </trkpt>
      <trkpt lat="49.3626" lon="-1.09389">
        <ele>12.271688</ele>
        <time>2022-08-02T10:17:23.000Z</time>
      </trkpt>
      <trkpt lat="49.36266" lon="-1.09386">
        <ele>12.153021</ele>
        <time>2022-08-02T10:17:24.000Z</time>
      </trkpt>
      <trkpt lat="49.36273" lon="-1.09383">
        <ele>12.019967</ele>
        <time>2022-08-02T10:17:25.000Z</time>
      </trkpt>
      <trkpt lat="49.36279" lon="-1.09381">
        <ele>11.894818</ele>
        <time>2022-08-02T10:17:26.000Z</time>
      </trkpt>
      <trkpt lat="49.36285" lon="-1.09378">
        <ele>11.776887</ele>
        <time>2022-08-02T10:17:27.000Z</time>
      </trkpt>
      <trkpt lat="49.36292" lon="-1.09375">
        <ele>11.651045</ele>
        <time>2022-08-02T10:17:28.000Z</time>
      </trkpt>
      <trkpt lat="49.36298" lon="-1.09372">
        <ele>11.529819</ele>
        <time>2022-08-02T10:17:29.000Z</time>
      </trkpt>
      <trkpt lat="49.36305" lon="-1.09369">
        <ele>11.391334</ele>
        <time>2022-08-02T10:17:30.000Z</time>
      </trkpt>
      <trkpt lat="49.36311" lon="-1.09365">
        <ele>11.264371</ele>
        <time>2022-08-02T10:17:31.000Z</time>
      </trkpt>
      <trkpt lat="49.36318" lon="-1.09362">
        <ele>11.13853</ele>
        <time>2022-08-02T10:17:32.000Z</time>
      </trkpt>
      <trkpt lat="49.36324" lon="-1.09359">
        <ele>11.012689</ele>
        <time>2022-08-02T10:17:33.000Z</time>
      </trkpt>
      <trkpt lat="49.36331" lon="-1.09356">
        <ele>10.87634</ele>
        <time>2022-08-02T10:17:34.000Z</time>
      </trkpt>
      <trkpt lat="49.36338" lon="-1.09354">
        <ele>10.752149</ele>
        <time>2022-08-02T10:17:35.000Z</time>
      </trkpt>
      <trkpt lat="49.36344" lon="-1.09352">
        <ele>10.629074</ele>
        <time>2022-08-02T10:17:36.000Z</time>
      </trkpt>
      <trkpt lat="49.36351" lon="-1.0935">
        <ele>10.495391</ele>
        <time>2022-08-02T10:17:37.000Z</time>
      </trkpt>
      <trkpt lat="49.36357" lon="-1.09347">
        <ele>10.3712</ele>
        <time>2022-08-02T10:17:38.000Z</time>
      </trkpt>
      <trkpt lat="49.36364" lon="-1.09345">
        <ele>10.252468</ele>
        <time>2022-08-02T10:17:39.000Z</time>
      </trkpt>
      <trkpt lat="49.3637" lon="-1.09343">
        <ele>10.134344</ele>
        <time>2022-08-02T10:17:40.000Z</time>
      </trkpt>
      <trkpt lat="49.36376" lon="-1.0934">
        <ele>10.077671</ele>
        <time>2022-08-02T10:17:41.000Z</time>
      </trkpt>
      <trkpt lat="49.36382" lon="-1.09338">
        <ele>10.15305</ele>
        <time>2022-08-02T10:17:42.000Z</time>
      </trkpt>
      <trkpt lat="49.36389" lon="-1.09336">
        <ele>10.227716</ele>
        <time>2022-08-02T10:17:43.000Z</time>
      </trkpt>
      <trkpt lat="49.36395" lon="-1.09334">
        <ele>10.302549</ele>
        <time>2022-08-02T10:17:44.000Z</time>
      </trkpt>
      <trkpt lat="49.364" lon="-1.09332">
        <ele>10.372904</ele>
        <time>2022-08-02T10:17:45.000Z</time>
      </trkpt>
      <trkpt lat="49.36405" lon="-1.09329">
        <ele>10.436533</ele>
        <time>2022-08-02T10:17:46.000Z</time>
      </trkpt>
      <trkpt lat="49.36411" lon="-1.09326">
        <ele>10.502758</ele>
        <time>2022-08-02T10:17:47.000Z</time>
      </trkpt>
      <trkpt lat="49.36415" lon="-1.09323">
        <ele>10.562439</ele>
        <time>2022-08-02T10:17:48.000Z</time>
      </trkpt>
      <trkpt lat="49.36419" lon="-1.09318">
        <ele>10.618006</ele>
        <time>2022-08-02T10:17:49.000Z</time>
      </trkpt>
      <trkpt lat="49.36421" lon="-1.09313">
        <ele>10.668325</ele>
        <time>2022-08-02T10:17:50.000Z</time>
      </trkpt>
      <trkpt lat="49.36422" lon="-1.09306">
        <ele>10.720589</ele>
        <time>2022-08-02T10:17:51.000Z</time>
      </trkpt>
      <trkpt lat="49.36422" lon="-1.093">
        <ele>10.7736</ele>
        <time>2022-08-02T10:17:52.000Z</time>
      </trkpt>
      <trkpt lat="49.36421" lon="-1.09293">
        <ele>10.828101</ele>
        <time>2022-08-02T10:17:53.000Z</time>
      </trkpt>
      <trkpt lat="49.3642" lon="-1.09286">
        <ele>10.884847</ele>
        <time>2022-08-02T10:17:54.000Z</time>
      </trkpt>
      <trkpt lat="49.36418" lon="-1.09279">
        <ele>10.941593</ele>
        <time>2022-08-02T10:17:55.000Z</time>
      </trkpt>
      <trkpt lat="49.36417" lon="-1.09272">
        <ele>11.000288</ele>
        <time>2022-08-02T10:17:56.000Z</time>
      </trkpt>
      <trkpt lat="49.36415" lon="-1.09264">
        <ele>11.064913</ele>
        <time>2022-08-02T10:17:57.000Z</time>
      </trkpt>
      <trkpt lat="49.36413" lon="-1.09256">
        <ele>11.132394</ele>
        <time>2022-08-02T10:17:58.000Z</time>
      </trkpt>
      <trkpt lat="49.36412" lon="-1.09247">
        <ele>11.201722</ele>
        <time>2022-08-02T10:17:59.000Z</time>
      </trkpt>
      <trkpt lat="49.36411" lon="-1.09238">
        <ele>11.271448</ele>
        <time>2022-08-02T10:18:00.000Z</time>
      </trkpt>
      <trkpt lat="49.36409" lon="-1.0923">
        <ele>11.340425</ele>
        <time>2022-08-02T10:18:01.000Z</time>
      </trkpt>
      <trkpt lat="49.36407" lon="-1.09222">
        <ele>11.408687</ele>
        <time>2022-08-02T10:18:02.000Z</time>
      </trkpt>
      <trkpt lat="49.36405" lon="-1.09214">
        <ele>11.473928</ele>
        <time>2022-08-02T10:18:03.000Z</time>
      </trkpt>
      <trkpt lat="49.36404" lon="-1.09205">
        <ele>11.539448</ele>
        <time>2022-08-02T10:18:04.000Z</time>
      </trkpt>
      <trkpt lat="49.36403" lon="-1.09197">
        <ele>11.605435</ele>
        <time>2022-08-02T10:18:05.000Z</time>
      </trkpt>
      <trkpt lat="49.36401" lon="-1.09189">
        <ele>11.670676</ele>
        <time>2022-08-02T10:18:06.000Z</time>
      </trkpt>
      <trkpt lat="49.36399" lon="-1.09181">
        <ele>11.735173</ele>
        <time>2022-08-02T10:18:07.000Z</time>
      </trkpt>
      <trkpt lat="49.36398" lon="-1.09174">
        <ele>11.796431</ele>
        <time>2022-08-02T10:18:08.000Z</time>
      </trkpt>
      <trkpt lat="49.36397" lon="-1.09166">
        <ele>11.856182</ele>
        <time>2022-08-02T10:18:09.000Z</time>
      </trkpt>
      <trkpt lat="49.36396" lon="-1.09159">
        <ele>11.915181</ele>
        <time>2022-08-02T10:18:10.000Z</time>
      </trkpt>
      <trkpt lat="49.36395" lon="-1.09152">
        <ele>11.974634</ele>
        <time>2022-08-02T10:18:11.000Z</time>
      </trkpt>
      <trkpt lat="49.36393" lon="-1.09144">
        <ele>12.033942</ele>
        <time>2022-08-02T10:18:12.000Z</time>
      </trkpt>
      <trkpt lat="49.36392" lon="-1.09137">
        <ele>12.090688</ele>
        <time>2022-08-02T10:18:13.000Z</time>
      </trkpt>
      <trkpt lat="49.36391" lon="-1.09131">
        <ele>12.143515</ele>
        <time>2022-08-02T10:18:14.000Z</time>
      </trkpt>
      <trkpt lat="49.36389" lon="-1.09124">
        <ele>12.196524</ele>
        <time>2022-08-02T10:18:15.000Z</time>
      </trkpt>
      <trkpt lat="49.36389" lon="-1.09118">
        <ele>12.249992</ele>
        <time>2022-08-02T10:18:16.000Z</time>
      </trkpt>
      <trkpt lat="49.36387" lon="-1.09112">
        <ele>12.308761</ele>
        <time>2022-08-02T10:18:17.000Z</time>
      </trkpt>
      <trkpt lat="49.36385" lon="-1.09106">
        <ele>12.364267</ele>
        <time>2022-08-02T10:18:18.000Z</time>
      </trkpt>
      <trkpt lat="49.36384" lon="-1.091">
        <ele>12.423035</ele>
        <time>2022-08-02T10:18:19.000Z</time>
      </trkpt>
      <trkpt lat="49.36382" lon="-1.09094">
        <ele>12.480432</ele>
        <time>2022-08-02T10:18:20.000Z</time>
      </trkpt>
      <trkpt lat="49.36381" lon="-1.09088">
        <ele>12.538382</ele>
        <time>2022-08-02T10:18:21.000Z</time>
      </trkpt>
      <trkpt lat="49.3638" lon="-1.09081">
        <ele>12.59746</ele>
        <time>2022-08-02T10:18:22.000Z</time>
      </trkpt>
      <trkpt lat="49.36379" lon="-1.09075">
        <ele>12.654296</ele>
        <time>2022-08-02T10:18:23.000Z</time>
      </trkpt>
      <trkpt lat="49.36377" lon="-1.09069">
        <ele>12.713885</ele>
        <time>2022-08-02T10:18:24.000Z</time>
      </trkpt>
      <trkpt lat="49.36376" lon="-1.09062">
        <ele>12.772962</ele>
        <time>2022-08-02T10:18:25.000Z</time>
      </trkpt>
      <trkpt lat="49.36375" lon="-1.09056">
        <ele>12.830104</ele>
        <time>2022-08-02T10:18:26.000Z</time>
      </trkpt>
      <trkpt lat="49.36373" lon="-1.0905">
        <ele>12.889692</ele>
        <time>2022-08-02T10:18:27.000Z</time>
      </trkpt>
      <trkpt lat="49.36372" lon="-1.09043">
        <ele>12.949611</ele>
        <time>2022-08-02T10:18:28.000Z</time>
      </trkpt>
      <trkpt lat="49.36371" lon="-1.09037">
        <ele>13.007309</ele>
        <time>2022-08-02T10:18:29.000Z</time>
      </trkpt>
      <trkpt lat="49.3637" lon="-1.09031">
        <ele>13.061891</ele>
        <time>2022-08-02T10:18:30.000Z</time>
      </trkpt>
      <trkpt lat="49.36369" lon="-1.09024">
        <ele>13.121427</ele>
        <time>2022-08-02T10:18:31.000Z</time>
      </trkpt>
      <trkpt lat="49.36368" lon="-1.09018">
        <ele>13.180505</ele>
        <time>2022-08-02T10:18:32.000Z</time>
      </trkpt>
      <trkpt lat="49.36367" lon="-1.09011">
        <ele>13.238561</ele>
        <time>2022-08-02T10:18:33.000Z</time>
      </trkpt>
      <trkpt lat="49.36366" lon="-1.09005">
        <ele>13.296413</ele>
        <time>2022-08-02T10:18:34.000Z</time>
      </trkpt>
      <trkpt lat="49.36365" lon="-1.08999">
        <ele>13.353555</ele>
        <time>2022-08-02T10:18:35.000Z</time>
      </trkpt>
      <trkpt lat="49.36365" lon="-1.08992">
        <ele>13.409531</ele>
        <time>2022-08-02T10:18:36.000Z</time>
      </trkpt>
      <trkpt lat="49.36363" lon="-1.08986">
        <ele>13.465253</ele>
        <time>2022-08-02T10:18:37.000Z</time>
      </trkpt>
      <trkpt lat="49.36363" lon="-1.0898">
        <ele>13.518746</ele>
        <time>2022-08-02T10:18:38.000Z</time>
      </trkpt>
      <trkpt lat="49.36361" lon="-1.08974">
        <ele>13.574468</ele>
        <time>2022-08-02T10:18:39.000Z</time>
      </trkpt>
      <trkpt lat="49.3636" lon="-1.08968">
        <ele>13.63161</ele>
        <time>2022-08-02T10:18:40.000Z</time>
      </trkpt>
      <trkpt lat="49.36359" lon="-1.08962">
        <ele>13.685663</ele>
        <time>2022-08-02T10:18:41.000Z</time>
      </trkpt>
      <trkpt lat="49.36358" lon="-1.08956">
        <ele>13.739156</ele>
        <time>2022-08-02T10:18:42.000Z</time>
      </trkpt>
      <trkpt lat="49.36357" lon="-1.0895">
        <ele>13.79288</ele>
        <time>2022-08-02T10:18:43.000Z</time>
      </trkpt>
      <trkpt lat="49.36357" lon="-1.08945">
        <ele>13.845421</ele>
        <time>2022-08-02T10:18:44.000Z</time>
      </trkpt>
      <trkpt lat="49.36355" lon="-1.08939">
        <ele>13.898641</ele>
        <time>2022-08-02T10:18:45.000Z</time>
      </trkpt>
      <trkpt lat="49.36354" lon="-1.08933">
        <ele>13.952694</ele>
        <time>2022-08-02T10:18:46.000Z</time>
      </trkpt>
      <trkpt lat="49.36353" lon="-1.08927">
        <ele>14.006187</ele>
        <time>2022-08-02T10:18:47.000Z</time>
      </trkpt>
      <trkpt lat="49.36352" lon="-1.08921">
        <ele>14.06191</ele>
        <time>2022-08-02T10:18:48.000Z</time>
      </trkpt>
      <trkpt lat="49.36351" lon="-1.08915">
        <ele>14.114781</ele>
        <time>2022-08-02T10:18:49.000Z</time>
      </trkpt>
      <trkpt lat="49.36351" lon="-1.08909">
        <ele>14.16781</ele>
        <time>2022-08-02T10:18:50.000Z</time>
      </trkpt>
      <trkpt lat="49.36349" lon="-1.08903">
        <ele>14.222697</ele>
        <time>2022-08-02T10:18:51.000Z</time>
      </trkpt>
      <trkpt lat="49.36349" lon="-1.08898">
        <ele>14.271839</ele>
        <time>2022-08-02T10:18:52.000Z</time>
      </trkpt>
      <trkpt lat="49.36348" lon="-1.08893">
        <ele>14.321746</ele>
        <time>2022-08-02T10:18:53.000Z</time>
      </trkpt>
      <trkpt lat="49.36347" lon="-1.08887">
        <ele>14.370889</ele>
        <time>2022-08-02T10:18:54.000Z</time>
      </trkpt>
      <trkpt lat="49.36346" lon="-1.08882">
        <ele>14.416699</ele>
        <time>2022-08-02T10:18:55.000Z</time>
      </trkpt>
      <trkpt lat="49.36344" lon="-1.08878">
        <ele>14.461879</ele>
        <time>2022-08-02T10:18:56.000Z</time>
      </trkpt>
      <trkpt lat="49.36343" lon="-1.08873">
        <ele>14.507971</ele>
        <time>2022-08-02T10:18:57.000Z</time>
      </trkpt>
      <trkpt lat="49.36342" lon="-1.08868">
        <ele>14.556586</ele>
        <time>2022-08-02T10:18:58.000Z</time>
      </trkpt>
      <trkpt lat="49.36341" lon="-1.08862">
        <ele>14.611163</ele>
        <time>2022-08-02T10:18:59.000Z</time>
      </trkpt>
      <trkpt lat="49.3634" lon="-1.08855">
        <ele>14.657947</ele>
        <time>2022-08-02T10:19:00.000Z</time>
      </trkpt>
      <trkpt lat="49.36339" lon="-1.08849">
        <ele>14.695666</ele>
        <time>2022-08-02T10:19:01.000Z</time>
      </trkpt>
      <trkpt lat="49.36337" lon="-1.08843">
        <ele>14.732642</ele>
        <time>2022-08-02T10:19:02.000Z</time>
      </trkpt>
      <trkpt lat="49.36336" lon="-1.08836">
        <ele>14.771263</ele>
        <time>2022-08-02T10:19:03.000Z</time>
      </trkpt>
      <trkpt lat="49.36335" lon="-1.0883">
        <ele>14.808239</ele>
        <time>2022-08-02T10:19:04.000Z</time>
      </trkpt>
      <trkpt lat="49.36333" lon="-1.08824">
        <ele>14.845762</ele>
        <time>2022-08-02T10:19:05.000Z</time>
      </trkpt>
      <trkpt lat="49.36332" lon="-1.08818">
        <ele>14.884182</ele>
        <time>2022-08-02T10:19:06.000Z</time>
      </trkpt>
      <trkpt lat="49.36331" lon="-1.08811">
        <ele>14.922002</ele>
        <time>2022-08-02T10:19:07.000Z</time>
      </trkpt>
      <trkpt lat="49.3633" lon="-1.08805">
        <ele>14.960958</ele>
        <time>2022-08-02T10:19:08.000Z</time>
      </trkpt>
      <trkpt lat="49.36329" lon="-1.08799">
        <ele>14.999435</ele>
        <time>2022-08-02T10:19:09.000Z</time>
      </trkpt>
      <trkpt lat="49.36327" lon="-1.08792">
        <ele>15.038909</ele>
        <time>2022-08-02T10:19:10.000Z</time>
      </trkpt>
      <trkpt lat="49.36325" lon="-1.08786">
        <ele>15.078906</ele>
        <time>2022-08-02T10:19:11.000Z</time>
      </trkpt>
      <trkpt lat="49.36323" lon="-1.0878">
        <ele>15.11838</ele>
        <time>2022-08-02T10:19:12.000Z</time>
      </trkpt>
      <trkpt lat="49.36321" lon="-1.08774">
        <ele>15.157334</ele>
        <time>2022-08-02T10:19:13.000Z</time>
      </trkpt>
      <trkpt lat="49.36319" lon="-1.08768">
        <ele>15.197194</ele>
        <time>2022-08-02T10:19:14.000Z</time>
      </trkpt>
      <trkpt lat="49.36317" lon="-1.08762">
        <ele>15.234082</ele>
        <time>2022-08-02T10:19:15.000Z</time>
      </trkpt>
      <trkpt lat="49.36315" lon="-1.08756">
        <ele>15.270459</ele>
        <time>2022-08-02T10:19:16.000Z</time>
      </trkpt>
      <trkpt lat="49.36314" lon="-1.0875">
        <ele>15.307278</ele>
        <time>2022-08-02T10:19:17.000Z</time>
      </trkpt>
      <trkpt lat="49.36312" lon="-1.08745">
        <ele>15.34468</ele>
        <time>2022-08-02T10:19:18.000Z</time>
      </trkpt>
      <trkpt lat="49.3631" lon="-1.08739">
        <ele>15.379383</ele>
        <time>2022-08-02T10:19:19.000Z</time>
      </trkpt>
      <trkpt lat="49.36308" lon="-1.08734">
        <ele>15.414236</ele>
        <time>2022-08-02T10:19:20.000Z</time>
      </trkpt>
      <trkpt lat="49.36306" lon="-1.08729">
        <ele>15.44804</ele>
        <time>2022-08-02T10:19:21.000Z</time>
      </trkpt>
      <trkpt lat="49.36304" lon="-1.08724">
        <ele>15.479909</ele>
        <time>2022-08-02T10:19:22.000Z</time>
      </trkpt>
      <trkpt lat="49.36303" lon="-1.08719">
        <ele>15.511997</ele>
        <time>2022-08-02T10:19:23.000Z</time>
      </trkpt>
      <trkpt lat="49.36302" lon="-1.08714">
        <ele>15.542437</ele>
        <time>2022-08-02T10:19:24.000Z</time>
      </trkpt>
      <trkpt lat="49.36301" lon="-1.08709">
        <ele>15.574526</ele>
        <time>2022-08-02T10:19:25.000Z</time>
      </trkpt>
      <trkpt lat="49.363" lon="-1.08704">
        <ele>15.604474</ele>
        <time>2022-08-02T10:19:26.000Z</time>
      </trkpt>
      <trkpt lat="49.36298" lon="-1.08699">
        <ele>15.636568</ele>
        <time>2022-08-02T10:19:27.000Z</time>
      </trkpt>
      <trkpt lat="49.36296" lon="-1.08694">
        <ele>15.668146</ele>
        <time>2022-08-02T10:19:28.000Z</time>
      </trkpt>
      <trkpt lat="49.36295" lon="-1.08689">
        <ele>15.6997</ele>
        <time>2022-08-02T10:19:29.000Z</time>
      </trkpt>
      <trkpt lat="49.36294" lon="-1.08683">
        <ele>15.734403</ele>
        <time>2022-08-02T10:19:30.000Z</time>
      </trkpt>
      <trkpt lat="49.36293" lon="-1.08678">
        <ele>15.7673</ele>
        <time>2022-08-02T10:19:31.000Z</time>
      </trkpt>
      <trkpt lat="49.36292" lon="-1.08672">
        <ele>15.802637</ele>
        <time>2022-08-02T10:19:32.000Z</time>
      </trkpt>
      <trkpt lat="49.3629" lon="-1.08666">
        <ele>15.839989</ele>
        <time>2022-08-02T10:19:33.000Z</time>
      </trkpt>
      <trkpt lat="49.36289" lon="-1.0866">
        <ele>15.875459</ele>
        <time>2022-08-02T10:19:34.000Z</time>
      </trkpt>
      <trkpt lat="49.36288" lon="-1.08654">
        <ele>15.912983</ele>
        <time>2022-08-02T10:19:35.000Z</time>
      </trkpt>
      <trkpt lat="49.36286" lon="-1.08647">
        <ele>15.953015</ele>
        <time>2022-08-02T10:19:36.000Z</time>
      </trkpt>
      <trkpt lat="49.36285" lon="-1.0864">
        <ele>15.992614</ele>
        <time>2022-08-02T10:19:37.000Z</time>
      </trkpt>
      <trkpt lat="49.36284" lon="-1.08634">
        <ele>16.032338</ele>
        <time>2022-08-02T10:19:38.000Z</time>
      </trkpt>
      <trkpt lat="49.36283" lon="-1.08627">
        <ele>16.072878</ele>
        <time>2022-08-02T10:19:39.000Z</time>
      </trkpt>
      <trkpt lat="49.36281" lon="-1.0862">
        <ele>16.115616</ele>
        <time>2022-08-02T10:19:40.000Z</time>
      </trkpt>
      <trkpt lat="49.3628" lon="-1.08613">
        <ele>16.156444</ele>
        <time>2022-08-02T10:19:41.000Z</time>
      </trkpt>
      <trkpt lat="49.36278" lon="-1.08606">
        <ele>16.200271</ele>
        <time>2022-08-02T10:19:42.000Z</time>
      </trkpt>
      <trkpt lat="49.36277" lon="-1.08599">
        <ele>16.232969</ele>
        <time>2022-08-02T10:19:43.000Z</time>
      </trkpt>
      <trkpt lat="49.36277" lon="-1.08592">
        <ele>16.248746</ele>
        <time>2022-08-02T10:19:44.000Z</time>
      </trkpt>
      <trkpt lat="49.36276" lon="-1.08585">
        <ele>16.264596</ele>
        <time>2022-08-02T10:19:45.000Z</time>
      </trkpt>
      <trkpt lat="49.36275" lon="-1.08578">
        <ele>16.280595</ele>
        <time>2022-08-02T10:19:46.000Z</time>
      </trkpt>
      <trkpt lat="49.36274" lon="-1.08571">
        <ele>16.296889</ele>
        <time>2022-08-02T10:19:47.000Z</time>
      </trkpt>
      <trkpt lat="49.36273" lon="-1.08564">
        <ele>16.312942</ele>
        <time>2022-08-02T10:19:48.000Z</time>
      </trkpt>
      <trkpt lat="49.36272" lon="-1.08558">
        <ele>16.329055</ele>
        <time>2022-08-02T10:19:49.000Z</time>
      </trkpt>
      <trkpt lat="49.3627" lon="-1.0855">
        <ele>16.346568</ele>
        <time>2022-08-02T10:19:50.000Z</time>
      </trkpt>
      <trkpt lat="49.36269" lon="-1.08543">
        <ele>16.363751</ele>
        <time>2022-08-02T10:19:51.000Z</time>
      </trkpt>
      <trkpt lat="49.36268" lon="-1.08535">
        <ele>16.381397</ele>
        <time>2022-08-02T10:19:52.000Z</time>
      </trkpt>
      <trkpt lat="49.36266" lon="-1.08528">
        <ele>16.398479</ele>
        <time>2022-08-02T10:19:53.000Z</time>
      </trkpt>
      <trkpt lat="49.36265" lon="-1.08521">
        <ele>16.415595</ele>
        <time>2022-08-02T10:19:54.000Z</time>
      </trkpt>
      <trkpt lat="49.36264" lon="-1.08514">
        <ele>16.433107</ele>
        <time>2022-08-02T10:19:55.000Z</time>
      </trkpt>
      <trkpt lat="49.36262" lon="-1.08506">
        <ele>16.450095</ele>
        <time>2022-08-02T10:19:56.000Z</time>
      </trkpt>
      <trkpt lat="49.36261" lon="-1.085">
        <ele>16.466208</ele>
        <time>2022-08-02T10:19:57.000Z</time>
      </trkpt>
      <trkpt lat="49.3626" lon="-1.08493">
        <ele>16.482103</ele>
        <time>2022-08-02T10:19:58.000Z</time>
      </trkpt>
      <trkpt lat="49.36258" lon="-1.08486">
        <ele>16.498971</ele>
        <time>2022-08-02T10:19:59.000Z</time>
      </trkpt>
      <trkpt lat="49.36257" lon="-1.08479">
        <ele>16.514302</ele>
        <time>2022-08-02T10:20:00.000Z</time>
      </trkpt>
      <trkpt lat="49.36256" lon="-1.08472">
        <ele>16.531169</ele>
        <time>2022-08-02T10:20:01.000Z</time>
      </trkpt>
      <trkpt lat="49.36254" lon="-1.08465">
        <ele>16.547822</ele>
        <time>2022-08-02T10:20:02.000Z</time>
      </trkpt>
      <trkpt lat="49.36253" lon="-1.08458">
        <ele>16.564339</ele>
        <time>2022-08-02T10:20:03.000Z</time>
      </trkpt>
      <trkpt lat="49.36252" lon="-1.08451">
        <ele>16.581985</ele>
        <time>2022-08-02T10:20:04.000Z</time>
      </trkpt>
      <trkpt lat="49.36251" lon="-1.08443">
        <ele>16.599323</ele>
        <time>2022-08-02T10:20:05.000Z</time>
      </trkpt>
      <trkpt lat="49.36249" lon="-1.08436">
        <ele>16.61653</ele>
        <time>2022-08-02T10:20:06.000Z</time>
      </trkpt>
      <trkpt lat="49.36248" lon="-1.08429">
        <ele>16.63308</ele>
        <time>2022-08-02T10:20:07.000Z</time>
      </trkpt>
      <trkpt lat="49.36246" lon="-1.08422">
        <ele>16.649948</ele>
        <time>2022-08-02T10:20:08.000Z</time>
      </trkpt>
      <trkpt lat="49.36245" lon="-1.08415">
        <ele>16.666686</ele>
        <time>2022-08-02T10:20:09.000Z</time>
      </trkpt>
      <trkpt lat="49.36244" lon="-1.08408">
        <ele>16.683804</ele>
        <time>2022-08-02T10:20:10.000Z</time>
      </trkpt>
      <trkpt lat="49.36243" lon="-1.084">
        <ele>16.701317</ele>
        <time>2022-08-02T10:20:11.000Z</time>
      </trkpt>
      <trkpt lat="49.36242" lon="-1.08393">
        <ele>16.717611</ele>
        <time>2022-08-02T10:20:12.000Z</time>
      </trkpt>
      <trkpt lat="49.3624" lon="-1.08386">
        <ele>16.734599</ele>
        <time>2022-08-02T10:20:13.000Z</time>
      </trkpt>
      <trkpt lat="49.3624" lon="-1.08379">
        <ele>16.750652</ele>
        <time>2022-08-02T10:20:14.000Z</time>
      </trkpt>
      <trkpt lat="49.36238" lon="-1.08372">
        <ele>16.766547</ele>
        <time>2022-08-02T10:20:15.000Z</time>
      </trkpt>
      <trkpt lat="49.36237" lon="-1.08366">
        <ele>16.781732</ele>
        <time>2022-08-02T10:20:16.000Z</time>
      </trkpt>
      <trkpt lat="49.36236" lon="-1.08359">
        <ele>16.797094</ele>
        <time>2022-08-02T10:20:17.000Z</time>
      </trkpt>
      <trkpt lat="49.36235" lon="-1.08353">
        <ele>16.812468</ele>
        <time>2022-08-02T10:20:18.000Z</time>
      </trkpt>
      <trkpt lat="49.36234" lon="-1.08347">
        <ele>16.827212</ele>
        <time>2022-08-02T10:20:19.000Z</time>
      </trkpt>
      <trkpt lat="49.36232" lon="-1.0834">
        <ele>16.843411</ele>
        <time>2022-08-02T10:20:20.000Z</time>
      </trkpt>
      <trkpt lat="49.3623" lon="-1.08334">
        <ele>16.844318</ele>
        <time>2022-08-02T10:20:21.000Z</time>
      </trkpt>
      <trkpt lat="49.36229" lon="-1.08327">
        <ele>16.797017</ele>
        <time>2022-08-02T10:20:22.000Z</time>
      </trkpt>
      <trkpt lat="49.36227" lon="-1.08319">
        <ele>16.747302</ele>
        <time>2022-08-02T10:20:23.000Z</time>
      </trkpt>
      <trkpt lat="49.36226" lon="-1.08312">
        <ele>16.701609</ele>
        <time>2022-08-02T10:20:24.000Z</time>
      </trkpt>
      <trkpt lat="49.36225" lon="-1.08305">
        <ele>16.653355</ele>
        <time>2022-08-02T10:20:25.000Z</time>
      </trkpt>
      <trkpt lat="49.36224" lon="-1.08298">
        <ele>16.607861</ele>
        <time>2022-08-02T10:20:26.000Z</time>
      </trkpt>
      <trkpt lat="49.36222" lon="-1.08291">
        <ele>16.561762</ele>
        <time>2022-08-02T10:20:27.000Z</time>
      </trkpt>
      <trkpt lat="49.36221" lon="-1.08284">
        <ele>16.514461</ele>
        <time>2022-08-02T10:20:28.000Z</time>
      </trkpt>
      <trkpt lat="49.3622" lon="-1.08277">
        <ele>16.468044</ele>
        <time>2022-08-02T10:20:29.000Z</time>
      </trkpt>
      <trkpt lat="49.36219" lon="-1.0827">
        <ele>16.421892</ele>
        <time>2022-08-02T10:20:30.000Z</time>
      </trkpt>
      <trkpt lat="49.36218" lon="-1.08263">
        <ele>16.376199</ele>
        <time>2022-08-02T10:20:31.000Z</time>
      </trkpt>
      <trkpt lat="49.36217" lon="-1.08256">
        <ele>16.329259</ele>
        <time>2022-08-02T10:20:32.000Z</time>
      </trkpt>
      <trkpt lat="49.36216" lon="-1.08249">
        <ele>16.285506</ele>
        <time>2022-08-02T10:20:33.000Z</time>
      </trkpt>
      <trkpt lat="49.36216" lon="-1.08243">
        <ele>16.243958</ele>
        <time>2022-08-02T10:20:34.000Z</time>
      </trkpt>
      <trkpt lat="49.36216" lon="-1.08236">
        <ele>16.203681</ele>
        <time>2022-08-02T10:20:35.000Z</time>
      </trkpt>
      <trkpt lat="49.36217" lon="-1.08231">
        <ele>16.168125</ele>
        <time>2022-08-02T10:20:36.000Z</time>
      </trkpt>
      <trkpt lat="49.36219" lon="-1.08227">
        <ele>16.134103</ele>
        <time>2022-08-02T10:20:37.000Z</time>
      </trkpt>
      <trkpt lat="49.36222" lon="-1.08225">
        <ele>16.097078</ele>
        <time>2022-08-02T10:20:38.000Z</time>
      </trkpt>
      <trkpt lat="49.36226" lon="-1.08224">
        <ele>16.062664</ele>
        <time>2022-08-02T10:20:39.000Z</time>
      </trkpt>
      <trkpt lat="49.3623" lon="-1.08224">
        <ele>16.024462</ele>
        <time>2022-08-02T10:20:40.000Z</time>
      </trkpt>
      <trkpt lat="49.36234" lon="-1.08224">
        <ele>15.987254</ele>
        <time>2022-08-02T10:20:41.000Z</time>
      </trkpt>
      <trkpt lat="49.36237" lon="-1.08225">
        <ele>15.9559</ele>
        <time>2022-08-02T10:20:42.000Z</time>
      </trkpt>
      <trkpt lat="49.3624" lon="-1.08225">
        <ele>15.924572</ele>
        <time>2022-08-02T10:20:43.000Z</time>
      </trkpt>
      <trkpt lat="49.36243" lon="-1.08225">
        <ele>15.899118</ele>
        <time>2022-08-02T10:20:44.000Z</time>
      </trkpt>
      <trkpt lat="49.36245" lon="-1.08225">
        <ele>15.880418</ele>
        <time>2022-08-02T10:20:45.000Z</time>
      </trkpt>
      <trkpt lat="49.36246" lon="-1.08226">
        <ele>15.861289</ele>
        <time>2022-08-02T10:20:47.000Z</time>
      </trkpt>
      <trkpt lat="49.36256" lon="-1.08221">
        <ele>15.766203</ele>
        <time>2022-08-02T10:21:35.000Z</time>
      </trkpt>
      <trkpt lat="49.36262" lon="-1.0822">
        <ele>15.705996</ele>
        <time>2022-08-02T10:21:36.000Z</time>
      </trkpt>
      <trkpt lat="49.36268" lon="-1.08219">
        <ele>15.64691</ele>
        <time>2022-08-02T10:21:37.000Z</time>
      </trkpt>
      <trkpt lat="49.36275" lon="-1.08218">
        <ele>15.574061</ele>
        <time>2022-08-02T10:21:38.000Z</time>
      </trkpt>
      <trkpt lat="49.36282" lon="-1.08216">
        <ele>15.504775</ele>
        <time>2022-08-02T10:21:39.000Z</time>
      </trkpt>
      <trkpt lat="49.3629" lon="-1.08214">
        <ele>15.431323</ele>
        <time>2022-08-02T10:21:40.000Z</time>
      </trkpt>
      <trkpt lat="49.36297" lon="-1.08212">
        <ele>15.357649</ele>
        <time>2022-08-02T10:21:41.000Z</time>
      </trkpt>
      <trkpt lat="49.36304" lon="-1.0821">
        <ele>15.290573</ele>
        <time>2022-08-02T10:21:42.000Z</time>
      </trkpt>
      <trkpt lat="49.3631" lon="-1.08208">
        <ele>15.226874</ele>
        <time>2022-08-02T10:21:43.000Z</time>
      </trkpt>
      <trkpt lat="49.36317" lon="-1.08206">
        <ele>15.159798</ele>
        <time>2022-08-02T10:21:44.000Z</time>
      </trkpt>
      <trkpt lat="49.36323" lon="-1.08204">
        <ele>15.101152</ele>
        <time>2022-08-02T10:21:45.000Z</time>
      </trkpt>
      <trkpt lat="49.36329" lon="-1.08201">
        <ele>15.046957</ele>
        <time>2022-08-02T10:21:46.000Z</time>
      </trkpt>
      <trkpt lat="49.36334" lon="-1.08198">
        <ele>14.997175</ele>
        <time>2022-08-02T10:21:47.000Z</time>
      </trkpt>
      <trkpt lat="49.36341" lon="-1.08194">
        <ele>14.938848</ele>
        <time>2022-08-02T10:21:48.000Z</time>
      </trkpt>
      <trkpt lat="49.36347" lon="-1.08191">
        <ele>14.882702</ele>
        <time>2022-08-02T10:21:49.000Z</time>
      </trkpt>
      <trkpt lat="49.36353" lon="-1.08187">
        <ele>14.827555</ele>
        <time>2022-08-02T10:21:50.000Z</time>
      </trkpt>
      <trkpt lat="49.36359" lon="-1.08184">
        <ele>14.772392</ele>
        <time>2022-08-02T10:21:51.000Z</time>
      </trkpt>
      <trkpt lat="49.36365" lon="-1.0818">
        <ele>14.716851</ele>
        <time>2022-08-02T10:21:52.000Z</time>
      </trkpt>
      <trkpt lat="49.36371" lon="-1.08177">
        <ele>14.66131</ele>
        <time>2022-08-02T10:21:53.000Z</time>
      </trkpt>
      <trkpt lat="49.36377" lon="-1.08173">
        <ele>14.602375</ele>
        <time>2022-08-02T10:21:54.000Z</time>
      </trkpt>
      <trkpt lat="49.36383" lon="-1.08169">
        <ele>14.549375</ele>
        <time>2022-08-02T10:21:55.000Z</time>
      </trkpt>
      <trkpt lat="49.36389" lon="-1.08166">
        <ele>14.49681</ele>
        <time>2022-08-02T10:21:56.000Z</time>
      </trkpt>
      <trkpt lat="49.36395" lon="-1.08163">
        <ele>14.44461</ele>
        <time>2022-08-02T10:21:57.000Z</time>
      </trkpt>
      <trkpt lat="49.36401" lon="-1.0816">
        <ele>14.390791</ele>
        <time>2022-08-02T10:21:58.000Z</time>
      </trkpt>
      <trkpt lat="49.36407" lon="-1.08156">
        <ele>14.335811</ele>
        <time>2022-08-02T10:21:59.000Z</time>
      </trkpt>
      <trkpt lat="49.36413" lon="-1.08154">
        <ele>14.281816</ele>
        <time>2022-08-02T10:22:00.000Z</time>
      </trkpt>
      <trkpt lat="49.36419" lon="-1.08151">
        <ele>14.22767</ele>
        <time>2022-08-02T10:22:01.000Z</time>
      </trkpt>
      <trkpt lat="49.36425" lon="-1.08148">
        <ele>14.176794</ele>
        <time>2022-08-02T10:22:02.000Z</time>
      </trkpt>
      <trkpt lat="49.3643" lon="-1.08146">
        <ele>14.12526</ele>
        <time>2022-08-02T10:22:03.000Z</time>
      </trkpt>
      <trkpt lat="49.36437" lon="-1.08143">
        <ele>14.070796</ele>
        <time>2022-08-02T10:22:04.000Z</time>
      </trkpt>
      <trkpt lat="49.36443" lon="-1.0814">
        <ele>14.015993</ele>
        <time>2022-08-02T10:22:05.000Z</time>
      </trkpt>
      <trkpt lat="49.36448" lon="-1.08137">
        <ele>13.964601</ele>
        <time>2022-08-02T10:22:06.000Z</time>
      </trkpt>
      <trkpt lat="49.36454" lon="-1.08134">
        <ele>13.910137</ele>
        <time>2022-08-02T10:22:07.000Z</time>
      </trkpt>
      <trkpt lat="49.36461" lon="-1.08131">
        <ele>13.855835</ele>
        <time>2022-08-02T10:22:08.000Z</time>
      </trkpt>
      <trkpt lat="49.36467" lon="-1.08128">
        <ele>13.799076</ele>
        <time>2022-08-02T10:22:09.000Z</time>
      </trkpt>
      <trkpt lat="49.36473" lon="-1.08126">
        <ele>13.7482</ele>
        <time>2022-08-02T10:22:10.000Z</time>
      </trkpt>
      <trkpt lat="49.36479" lon="-1.08123">
        <ele>13.691591</ele>
        <time>2022-08-02T10:22:11.000Z</time>
      </trkpt>
      <trkpt lat="49.36485" lon="-1.08121">
        <ele>13.635529</ele>
        <time>2022-08-02T10:22:12.000Z</time>
      </trkpt>
      <trkpt lat="49.36492" lon="-1.08118">
        <ele>13.579205</ele>
        <time>2022-08-02T10:22:13.000Z</time>
      </trkpt>
      <trkpt lat="49.36498" lon="-1.08116">
        <ele>13.534564</ele>
        <time>2022-08-02T10:22:14.000Z</time>
      </trkpt>
      <trkpt lat="49.36504" lon="-1.08113">
        <ele>13.491646</ele>
        <time>2022-08-02T10:22:15.000Z</time>
      </trkpt>
      <trkpt lat="49.3651" lon="-1.0811">
        <ele>13.448847</ele>
        <time>2022-08-02T10:22:16.000Z</time>
      </trkpt>
      <trkpt lat="49.36516" lon="-1.08108">
        <ele>13.406577</ele>
        <time>2022-08-02T10:22:17.000Z</time>
      </trkpt>
      <trkpt lat="49.36522" lon="-1.08105">
        <ele>13.361931</ele>
        <time>2022-08-02T10:22:18.000Z</time>
      </trkpt>
      <trkpt lat="49.36529" lon="-1.08102">
        <ele>13.31706</ele>
        <time>2022-08-02T10:22:19.000Z</time>
      </trkpt>
      <trkpt lat="49.36535" lon="-1.08099">
        <ele>13.271821</ele>
        <time>2022-08-02T10:22:20.000Z</time>
      </trkpt>
      <trkpt lat="49.36541" lon="-1.08097">
        <ele>13.229022</ele>
        <time>2022-08-02T10:22:21.000Z</time>
      </trkpt>
      <trkpt lat="49.36547" lon="-1.08094">
        <ele>13.185851</ele>
        <time>2022-08-02T10:22:22.000Z</time>
      </trkpt>
      <trkpt lat="49.36553" lon="-1.08091">
        <ele>13.142412</ele>
        <time>2022-08-02T10:22:23.000Z</time>
      </trkpt>
      <trkpt lat="49.36558" lon="-1.08087">
        <ele>13.103695</ele>
        <time>2022-08-02T10:22:24.000Z</time>
      </trkpt>
      <trkpt lat="49.36564" lon="-1.08082">
        <ele>13.059359</ele>
        <time>2022-08-02T10:22:25.000Z</time>
      </trkpt>
      <trkpt lat="49.3657" lon="-1.08077">
        <ele>13.016031</ele>
        <time>2022-08-02T10:22:26.000Z</time>
      </trkpt>
      <trkpt lat="49.36574" lon="-1.08071">
        <ele>12.975009</ele>
        <time>2022-08-02T10:22:27.000Z</time>
      </trkpt>
      <trkpt lat="49.3658" lon="-1.08065">
        <ele>12.931573</ele>
        <time>2022-08-02T10:22:28.000Z</time>
      </trkpt>
      <trkpt lat="49.36584" lon="-1.08059">
        <ele>12.89188</ele>
        <time>2022-08-02T10:22:29.000Z</time>
      </trkpt>
      <trkpt lat="49.36588" lon="-1.08052">
        <ele>12.850413</ele>
        <time>2022-08-02T10:22:30.000Z</time>
      </trkpt>
      <trkpt lat="49.36593" lon="-1.08046">
        <ele>12.80829</ele>
        <time>2022-08-02T10:22:31.000Z</time>
      </trkpt>
      <trkpt lat="49.36598" lon="-1.0804">
        <ele>12.766723</ele>
        <time>2022-08-02T10:22:32.000Z</time>
      </trkpt>
      <trkpt lat="49.36603" lon="-1.08035">
        <ele>12.72509</ele>
        <time>2022-08-02T10:22:33.000Z</time>
      </trkpt>
      <trkpt lat="49.36608" lon="-1.0803">
        <ele>12.684879</ele>
        <time>2022-08-02T10:22:34.000Z</time>
      </trkpt>
      <trkpt lat="49.36613" lon="-1.08027">
        <ele>12.644721</ele>
        <time>2022-08-02T10:22:35.000Z</time>
      </trkpt>
      <trkpt lat="49.36619" lon="-1.08024">
        <ele>12.605547</ele>
        <time>2022-08-02T10:22:36.000Z</time>
      </trkpt>
      <trkpt lat="49.36625" lon="-1.08021">
        <ele>12.562975</ele>
        <time>2022-08-02T10:22:37.000Z</time>
      </trkpt>
      <trkpt lat="49.36631" lon="-1.0802">
        <ele>12.52201</ele>
        <time>2022-08-02T10:22:38.000Z</time>
      </trkpt>
      <trkpt lat="49.36637" lon="-1.0802">
        <ele>12.480711</ele>
        <time>2022-08-02T10:22:39.000Z</time>
      </trkpt>
      <trkpt lat="49.36643" lon="-1.08019">
        <ele>12.439462</ele>
        <time>2022-08-02T10:22:40.000Z</time>
      </trkpt>
      <trkpt lat="49.36649" lon="-1.08019">
        <ele>12.39822</ele>
        <time>2022-08-02T10:22:41.000Z</time>
      </trkpt>
      <trkpt lat="49.36655" lon="-1.08019">
        <ele>12.356943</ele>
        <time>2022-08-02T10:22:42.000Z</time>
      </trkpt>
      <trkpt lat="49.36661" lon="-1.08019">
        <ele>12.355423</ele>
        <time>2022-08-02T10:22:43.000Z</time>
      </trkpt>
      <trkpt lat="49.36668" lon="-1.08019">
        <ele>12.371785</ele>
        <time>2022-08-02T10:22:44.000Z</time>
      </trkpt>
      <trkpt lat="49.36674" lon="-1.08019">
        <ele>12.388133</ele>
        <time>2022-08-02T10:22:45.000Z</time>
      </trkpt>
      <trkpt lat="49.3668" lon="-1.0802">
        <ele>12.405287</ele>
        <time>2022-08-02T10:22:46.000Z</time>
      </trkpt>
      <trkpt lat="49.36686" lon="-1.0802">
        <ele>12.422446</ele>
        <time>2022-08-02T10:22:47.000Z</time>
      </trkpt>
      <trkpt lat="49.36693" lon="-1.08021">
        <ele>12.438868</ele>
        <time>2022-08-02T10:22:48.000Z</time>
      </trkpt>
      <trkpt lat="49.36699" lon="-1.08022">
        <ele>12.456107</ele>
        <time>2022-08-02T10:22:49.000Z</time>
      </trkpt>
      <trkpt lat="49.36705" lon="-1.08023">
        <ele>12.472566</ele>
        <time>2022-08-02T10:22:50.000Z</time>
      </trkpt>
      <trkpt lat="49.36711" lon="-1.08024">
        <ele>12.489916</ele>
        <time>2022-08-02T10:22:51.000Z</time>
      </trkpt>
      <trkpt lat="49.36718" lon="-1.08026">
        <ele>12.507321</ele>
        <time>2022-08-02T10:22:52.000Z</time>
      </trkpt>
      <trkpt lat="49.36723" lon="-1.08028">
        <ele>12.522207</ele>
        <time>2022-08-02T10:22:53.000Z</time>
      </trkpt>
      <trkpt lat="49.36729" lon="-1.08031">
        <ele>12.538351</ele>
        <time>2022-08-02T10:22:54.000Z</time>
      </trkpt>
      <trkpt lat="49.36734" lon="-1.08033">
        <ele>12.553625</ele>
        <time>2022-08-02T10:22:55.000Z</time>
      </trkpt>
      <trkpt lat="49.3674" lon="-1.08036">
        <ele>12.569013</ele>
        <time>2022-08-02T10:22:56.000Z</time>
      </trkpt>
      <trkpt lat="49.36745" lon="-1.0804">
        <ele>12.584026</ele>
        <time>2022-08-02T10:22:57.000Z</time>
      </trkpt>
      <trkpt lat="49.3675" lon="-1.08043">
        <ele>12.599537</ele>
        <time>2022-08-02T10:22:58.000Z</time>
      </trkpt>
      <trkpt lat="49.36756" lon="-1.08046">
        <ele>12.616112</ele>
        <time>2022-08-02T10:22:59.000Z</time>
      </trkpt>
      <trkpt lat="49.36762" lon="-1.0805">
        <ele>12.631958</ele>
        <time>2022-08-02T10:23:00.000Z</time>
      </trkpt>
      <trkpt lat="49.36767" lon="-1.08054">
        <ele>12.647305</ele>
        <time>2022-08-02T10:23:01.000Z</time>
      </trkpt>
      <trkpt lat="49.36772" lon="-1.08058">
        <ele>12.663467</ele>
        <time>2022-08-02T10:23:02.000Z</time>
      </trkpt>
      <trkpt lat="49.36777" lon="-1.08061">
        <ele>12.67749</ele>
        <time>2022-08-02T10:23:03.000Z</time>
      </trkpt>
      <trkpt lat="49.36782" lon="-1.08063">
        <ele>12.692656</ele>
        <time>2022-08-02T10:23:04.000Z</time>
      </trkpt>
      <trkpt lat="49.36788" lon="-1.08065">
        <ele>12.708548</ele>
        <time>2022-08-02T10:23:05.000Z</time>
      </trkpt>
      <trkpt lat="49.36794" lon="-1.08066">
        <ele>12.723146</ele>
        <time>2022-08-02T10:23:06.000Z</time>
      </trkpt>
      <trkpt lat="49.36799" lon="-1.08067">
        <ele>12.738704</ele>
        <time>2022-08-02T10:23:07.000Z</time>
      </trkpt>
      <trkpt lat="49.36805" lon="-1.08066">
        <ele>12.752426</ele>
        <time>2022-08-02T10:23:08.000Z</time>
      </trkpt>
      <trkpt lat="49.3681" lon="-1.08065">
        <ele>12.766164</ele>
        <time>2022-08-02T10:23:09.000Z</time>
      </trkpt>
      <trkpt lat="49.36814" lon="-1.08064">
        <ele>12.779197</ele>
        <time>2022-08-02T10:23:10.000Z</time>
      </trkpt>
      <trkpt lat="49.36819" lon="-1.08062">
        <ele>12.790882</ele>
        <time>2022-08-02T10:23:11.000Z</time>
      </trkpt>
      <trkpt lat="49.36823" lon="-1.0806">
        <ele>12.804306</ele>
        <time>2022-08-02T10:23:12.000Z</time>
      </trkpt>
      <trkpt lat="49.36828" lon="-1.08058">
        <ele>12.815834</ele>
        <time>2022-08-02T10:23:13.000Z</time>
      </trkpt>
      <trkpt lat="49.36831" lon="-1.08056">
        <ele>12.827929</ele>
        <time>2022-08-02T10:23:14.000Z</time>
      </trkpt>
      <trkpt lat="49.36835" lon="-1.08054">
        <ele>12.861774</ele>
        <time>2022-08-02T10:23:15.000Z</time>
      </trkpt>
      <trkpt lat="49.36839" lon="-1.08051">
        <ele>12.896227</ele>
        <time>2022-08-02T10:23:16.000Z</time>
      </trkpt>
      <trkpt lat="49.36843" lon="-1.0805">
        <ele>12.929869</ele>
        <time>2022-08-02T10:23:17.000Z</time>
      </trkpt>
      <trkpt lat="49.36846" lon="-1.08048">
        <ele>12.960011</ele>
        <time>2022-08-02T10:23:18.000Z</time>
      </trkpt>
      <trkpt lat="49.3685" lon="-1.08047">
        <ele>12.992457</ele>
        <time>2022-08-02T10:23:19.000Z</time>
      </trkpt>
      <trkpt lat="49.36854" lon="-1.08045">
        <ele>13.023845</ele>
        <time>2022-08-02T10:23:20.000Z</time>
      </trkpt>
      <trkpt lat="49.36857" lon="-1.08044">
        <ele>13.053855</ele>
        <time>2022-08-02T10:23:21.000Z</time>
      </trkpt>
      <trkpt lat="49.36861" lon="-1.08043">
        <ele>13.083742</ele>
        <time>2022-08-02T10:23:22.000Z</time>
      </trkpt>
      <trkpt lat="49.36864" lon="-1.08042">
        <ele>13.110549</ele>
        <time>2022-08-02T10:23:23.000Z</time>
      </trkpt>
      <trkpt lat="49.36868" lon="-1.08042">
        <ele>13.139763</ele>
        <time>2022-08-02T10:23:24.000Z</time>
      </trkpt>
      <trkpt lat="49.36871" lon="-1.08042">
        <ele>13.166454</ele>
        <time>2022-08-02T10:23:25.000Z</time>
      </trkpt>
      <trkpt lat="49.36874" lon="-1.08043">
        <ele>13.19084</ele>
        <time>2022-08-02T10:23:26.000Z</time>
      </trkpt>
      <trkpt lat="49.36877" lon="-1.08043">
        <ele>13.217509</ele>
        <time>2022-08-02T10:23:27.000Z</time>
      </trkpt>
      <trkpt lat="49.3688" lon="-1.08043">
        <ele>13.244183</ele>
        <time>2022-08-02T10:23:28.000Z</time>
      </trkpt>
      <trkpt lat="49.36883" lon="-1.08042">
        <ele>13.27094</ele>
        <time>2022-08-02T10:23:29.000Z</time>
      </trkpt>
      <trkpt lat="49.36887" lon="-1.08042">
        <ele>13.300109</ele>
        <time>2022-08-02T10:23:30.000Z</time>
      </trkpt>
      <trkpt lat="49.3689" lon="-1.08042">
        <ele>13.326827</ele>
        <time>2022-08-02T10:23:31.000Z</time>
      </trkpt>
      <trkpt lat="49.36893" lon="-1.08042">
        <ele>13.356016</ele>
        <time>2022-08-02T10:23:32.000Z</time>
      </trkpt>
      <trkpt lat="49.36897" lon="-1.08042">
        <ele>13.386018</ele>
        <time>2022-08-02T10:23:33.000Z</time>
      </trkpt>
      <trkpt lat="49.36901" lon="-1.08042">
        <ele>13.415187</ele>
        <time>2022-08-02T10:23:34.000Z</time>
      </trkpt>
      <trkpt lat="49.36904" lon="-1.08042">
        <ele>13.441944</ele>
        <time>2022-08-02T10:23:35.000Z</time>
      </trkpt>
      <trkpt lat="49.36907" lon="-1.08042">
        <ele>13.471113</ele>
        <time>2022-08-02T10:23:36.000Z</time>
      </trkpt>
      <trkpt lat="49.36911" lon="-1.08042">
        <ele>13.500282</ele>
        <time>2022-08-02T10:23:37.000Z</time>
      </trkpt>
      <trkpt lat="49.36915" lon="-1.08042">
        <ele>13.532897</ele>
        <time>2022-08-02T10:23:38.000Z</time>
      </trkpt>
      <trkpt lat="49.36918" lon="-1.08042">
        <ele>13.559588</ele>
        <time>2022-08-02T10:23:39.000Z</time>
      </trkpt>
      <trkpt lat="49.36922" lon="-1.08042">
        <ele>13.593774</ele>
        <time>2022-08-02T10:23:40.000Z</time>
      </trkpt>
      <trkpt lat="49.36926" lon="-1.08042">
        <ele>13.62639</ele>
        <time>2022-08-02T10:23:41.000Z</time>
      </trkpt>
      <trkpt lat="49.3693" lon="-1.08043">
        <ele>13.658175</ele>
        <time>2022-08-02T10:23:42.000Z</time>
      </trkpt>
      <trkpt lat="49.36934" lon="-1.08043">
        <ele>13.693215</ele>
        <time>2022-08-02T10:23:43.000Z</time>
      </trkpt>
      <trkpt lat="49.36938" lon="-1.08043">
        <ele>13.729921</ele>
        <time>2022-08-02T10:23:44.000Z</time>
      </trkpt>
      <trkpt lat="49.36942" lon="-1.08042">
        <ele>13.760162</ele>
        <time>2022-08-02T10:23:45.000Z</time>
      </trkpt>
      <trkpt lat="49.36946" lon="-1.08042">
        <ele>13.796868</ele>
        <time>2022-08-02T10:23:46.000Z</time>
      </trkpt>
      <trkpt lat="49.3695" lon="-1.08042">
        <ele>13.83187</ele>
        <time>2022-08-02T10:23:47.000Z</time>
      </trkpt>
      <trkpt lat="49.36955" lon="-1.08042">
        <ele>13.866877</ele>
        <time>2022-08-02T10:23:48.000Z</time>
      </trkpt>
      <trkpt lat="49.36959" lon="-1.08042">
        <ele>13.901154</ele>
        <time>2022-08-02T10:23:49.000Z</time>
      </trkpt>
      <trkpt lat="49.36963" lon="-1.08043">
        <ele>13.938672</ele>
        <time>2022-08-02T10:23:50.000Z</time>
      </trkpt>
      <trkpt lat="49.36967" lon="-1.08042">
        <ele>13.973692</ele>
        <time>2022-08-02T10:23:51.000Z</time>
      </trkpt>
      <trkpt lat="49.36972" lon="-1.08042">
        <ele>14.013728</ele>
        <time>2022-08-02T10:23:52.000Z</time>
      </trkpt>
      <trkpt lat="49.36977" lon="-1.08042">
        <ele>14.050433</ele>
        <time>2022-08-02T10:23:53.000Z</time>
      </trkpt>
      <trkpt lat="49.36981" lon="-1.08042">
        <ele>14.085436</ele>
        <time>2022-08-02T10:23:54.000Z</time>
      </trkpt>
      <trkpt lat="49.36986" lon="-1.08041">
        <ele>14.128026</ele>
        <time>2022-08-02T10:23:55.000Z</time>
      </trkpt>
      <trkpt lat="49.3699" lon="-1.08041">
        <ele>14.165626</ele>
        <time>2022-08-02T10:23:56.000Z</time>
      </trkpt>
      <trkpt lat="49.36995" lon="-1.0804">
        <ele>14.205721</ele>
        <time>2022-08-02T10:23:57.000Z</time>
      </trkpt>
      <trkpt lat="49.37001" lon="-1.0804">
        <ele>14.250777</ele>
        <time>2022-08-02T10:23:58.000Z</time>
      </trkpt>
      <trkpt lat="49.37006" lon="-1.08039">
        <ele>14.294198</ele>
        <time>2022-08-02T10:23:59.000Z</time>
      </trkpt>
      <trkpt lat="49.37011" lon="-1.08039">
        <ele>14.315753</ele>
        <time>2022-08-02T10:24:00.000Z</time>
      </trkpt>
      <trkpt lat="49.37016" lon="-1.08038">
        <ele>14.278097</ele>
        <time>2022-08-02T10:24:01.000Z</time>
      </trkpt>
      <trkpt lat="49.37022" lon="-1.08038">
        <ele>14.239777</ele>
        <time>2022-08-02T10:24:02.000Z</time>
      </trkpt>
      <trkpt lat="49.37027" lon="-1.08037">
        <ele>14.20426</ele>
        <time>2022-08-02T10:24:03.000Z</time>
      </trkpt>
      <trkpt lat="49.37032" lon="-1.08037">
        <ele>14.166678</ele>
        <time>2022-08-02T10:24:04.000Z</time>
      </trkpt>
      <trkpt lat="49.37038" lon="-1.08037">
        <ele>14.126316</ele>
        <time>2022-08-02T10:24:05.000Z</time>
      </trkpt>
      <trkpt lat="49.37044" lon="-1.08037">
        <ele>14.086671</ele>
        <time>2022-08-02T10:24:06.000Z</time>
      </trkpt>
      <trkpt lat="49.3705" lon="-1.08037">
        <ele>14.046322</ele>
        <time>2022-08-02T10:24:07.000Z</time>
      </trkpt>
      <trkpt lat="49.37056" lon="-1.08036">
        <ele>14.003874</ele>
        <time>2022-08-02T10:24:08.000Z</time>
      </trkpt>
      <trkpt lat="49.37061" lon="-1.08036">
        <ele>13.96423</ele>
        <time>2022-08-02T10:24:09.000Z</time>
      </trkpt>
      <trkpt lat="49.37067" lon="-1.08036">
        <ele>13.925977</ele>
        <time>2022-08-02T10:24:10.000Z</time>
      </trkpt>
      <trkpt lat="49.37073" lon="-1.08036">
        <ele>13.886333</ele>
        <time>2022-08-02T10:24:11.000Z</time>
      </trkpt>
      <trkpt lat="49.37078" lon="-1.08036">
        <ele>13.84808</ele>
        <time>2022-08-02T10:24:12.000Z</time>
      </trkpt>
      <trkpt lat="49.37084" lon="-1.08036">
        <ele>13.808425</ele>
        <time>2022-08-02T10:24:13.000Z</time>
      </trkpt>
      <trkpt lat="49.37089" lon="-1.08036">
        <ele>13.770162</ele>
        <time>2022-08-02T10:24:14.000Z</time>
      </trkpt>
      <trkpt lat="49.37094" lon="-1.08036">
        <ele>13.734688</ele>
        <time>2022-08-02T10:24:15.000Z</time>
      </trkpt>
      <trkpt lat="49.371" lon="-1.08036">
        <ele>13.694348</ele>
        <time>2022-08-02T10:24:16.000Z</time>
      </trkpt>
      <trkpt lat="49.37106" lon="-1.08036">
        <ele>13.656791</ele>
        <time>2022-08-02T10:24:17.000Z</time>
      </trkpt>
      <trkpt lat="49.37111" lon="-1.08037">
        <ele>13.61919</ele>
        <time>2022-08-02T10:24:18.000Z</time>
      </trkpt>
      <trkpt lat="49.37116" lon="-1.08037">
        <ele>13.585802</ele>
        <time>2022-08-02T10:24:19.000Z</time>
      </trkpt>
      <trkpt lat="49.37121" lon="-1.08037">
        <ele>13.547549</ele>
        <time>2022-08-02T10:24:20.000Z</time>
      </trkpt>
      <trkpt lat="49.37126" lon="-1.08037">
        <ele>13.512078</ele>
        <time>2022-08-02T10:24:21.000Z</time>
      </trkpt>
      <trkpt lat="49.37132" lon="-1.08037">
        <ele>13.474521</ele>
        <time>2022-08-02T10:24:22.000Z</time>
      </trkpt>
      <trkpt lat="49.37137" lon="-1.08037">
        <ele>13.436257</ele>
        <time>2022-08-02T10:24:23.000Z</time>
      </trkpt>
      <trkpt lat="49.37143" lon="-1.08038">
        <ele>13.398631</ele>
        <time>2022-08-02T10:24:24.000Z</time>
      </trkpt>
      <trkpt lat="49.37148" lon="-1.08038">
        <ele>13.36316</ele>
        <time>2022-08-02T10:24:25.000Z</time>
      </trkpt>
      <trkpt lat="49.37153" lon="-1.08037">
        <ele>13.324883</ele>
        <time>2022-08-02T10:24:26.000Z</time>
      </trkpt>
      <trkpt lat="49.37158" lon="-1.08037">
        <ele>13.291495</ele>
        <time>2022-08-02T10:24:27.000Z</time>
      </trkpt>
      <trkpt lat="49.37164" lon="-1.08038">
        <ele>13.253894</ele>
        <time>2022-08-02T10:24:28.000Z</time>
      </trkpt>
      <trkpt lat="49.37169" lon="-1.08038">
        <ele>13.215617</ele>
        <time>2022-08-02T10:24:29.000Z</time>
      </trkpt>
      <trkpt lat="49.37174" lon="-1.08038">
        <ele>13.18222</ele>
        <time>2022-08-02T10:24:30.000Z</time>
      </trkpt>
      <trkpt lat="49.37179" lon="-1.08039">
        <ele>13.144334</ele>
        <time>2022-08-02T10:24:31.000Z</time>
      </trkpt>
      <trkpt lat="49.37185" lon="-1.08042">
        <ele>13.105477</ele>
        <time>2022-08-02T10:24:32.000Z</time>
      </trkpt>
      <trkpt lat="49.37189" lon="-1.08046">
        <ele>13.060282</ele>
        <time>2022-08-02T10:24:33.000Z</time>
      </trkpt>
      <trkpt lat="49.37193" lon="-1.08052">
        <ele>12.929661</ele>
        <time>2022-08-02T10:24:34.000Z</time>
      </trkpt>
      <trkpt lat="49.37194" lon="-1.08059">
        <ele>12.805388</ele>
        <time>2022-08-02T10:24:35.000Z</time>
      </trkpt>
      <trkpt lat="49.37195" lon="-1.08068">
        <ele>12.667082</ele>
        <time>2022-08-02T10:24:36.000Z</time>
      </trkpt>
      <trkpt lat="49.37195" lon="-1.08076">
        <ele>12.527777</ele>
        <time>2022-08-02T10:24:37.000Z</time>
      </trkpt>
      <trkpt lat="49.37197" lon="-1.08085">
        <ele>12.384563</ele>
        <time>2022-08-02T10:24:38.000Z</time>
      </trkpt>
      <trkpt lat="49.37198" lon="-1.08093">
        <ele>12.245199</ele>
        <time>2022-08-02T10:24:39.000Z</time>
      </trkpt>
      <trkpt lat="49.37202" lon="-1.081">
        <ele>12.112153</ele>
        <time>2022-08-02T10:24:40.000Z</time>
      </trkpt>
      <trkpt lat="49.37206" lon="-1.08104">
        <ele>11.975504</ele>
        <time>2022-08-02T10:24:41.000Z</time>
      </trkpt>
      <trkpt lat="49.37211" lon="-1.08106">
        <ele>11.851858</ele>
        <time>2022-08-02T10:24:42.000Z</time>
      </trkpt>
      <trkpt lat="49.37217" lon="-1.08107">
        <ele>11.708792</ele>
        <time>2022-08-02T10:24:43.000Z</time>
      </trkpt>
      <trkpt lat="49.37223" lon="-1.08107">
        <ele>11.561214</ele>
        <time>2022-08-02T10:24:44.000Z</time>
      </trkpt>
      <trkpt lat="49.37229" lon="-1.08108">
        <ele>11.418508</ele>
        <time>2022-08-02T10:24:45.000Z</time>
      </trkpt>
      <trkpt lat="49.37235" lon="-1.08108">
        <ele>11.268292</ele>
        <time>2022-08-02T10:24:46.000Z</time>
      </trkpt>
      <trkpt lat="49.37241" lon="-1.08108">
        <ele>11.118212</ele>
        <time>2022-08-02T10:24:47.000Z</time>
      </trkpt>
      <trkpt lat="49.37248" lon="-1.08108">
        <ele>10.946078</ele>
        <time>2022-08-02T10:24:48.000Z</time>
      </trkpt>
      <trkpt lat="49.37254" lon="-1.08109">
        <ele>10.796041</ele>
        <time>2022-08-02T10:24:49.000Z</time>
      </trkpt>
      <trkpt lat="49.37261" lon="-1.08109">
        <ele>10.631253</ele>
        <time>2022-08-02T10:24:50.000Z</time>
      </trkpt>
      <trkpt lat="49.37268" lon="-1.08109">
        <ele>10.459052</ele>
        <time>2022-08-02T10:24:51.000Z</time>
      </trkpt>
      <trkpt lat="49.37275" lon="-1.08109">
        <ele>10.291806</ele>
        <time>2022-08-02T10:24:52.000Z</time>
      </trkpt>
      <trkpt lat="49.37281" lon="-1.08109">
        <ele>10.127041</ele>
        <time>2022-08-02T10:24:53.000Z</time>
      </trkpt>
      <trkpt lat="49.37289" lon="-1.0811">
        <ele>9.947501</ele>
        <time>2022-08-02T10:24:54.000Z</time>
      </trkpt>
      <trkpt lat="49.37296" lon="-1.0811">
        <ele>9.772908</ele>
        <time>2022-08-02T10:24:55.000Z</time>
      </trkpt>
      <trkpt lat="49.37303" lon="-1.0811">
        <ele>9.600707</ele>
        <time>2022-08-02T10:24:56.000Z</time>
      </trkpt>
      <trkpt lat="49.3731" lon="-1.0811">
        <ele>9.426084</ele>
        <time>2022-08-02T10:24:57.000Z</time>
      </trkpt>
      <trkpt lat="49.37317" lon="-1.0811">
        <ele>9.246544</ele>
        <time>2022-08-02T10:24:58.000Z</time>
      </trkpt>
      <trkpt lat="49.37325" lon="-1.08111">
        <ele>9.064398</ele>
        <time>2022-08-02T10:24:59.000Z</time>
      </trkpt>
      <trkpt lat="49.37332" lon="-1.08111">
        <ele>8.884822</ele>
        <time>2022-08-02T10:25:00.000Z</time>
      </trkpt>
      <trkpt lat="49.37339" lon="-1.08111">
        <ele>8.710163</ele>
        <time>2022-08-02T10:25:01.000Z</time>
      </trkpt>
      <trkpt lat="49.37346" lon="-1.08112">
        <ele>8.561351</ele>
        <time>2022-08-02T10:25:02.000Z</time>
      </trkpt>
      <trkpt lat="49.37354" lon="-1.08112">
        <ele>8.425733</ele>
        <time>2022-08-02T10:25:03.000Z</time>
      </trkpt>
      <trkpt lat="49.37361" lon="-1.08113">
        <ele>8.297353</ele>
        <time>2022-08-02T10:25:04.000Z</time>
      </trkpt>
      <trkpt lat="49.37368" lon="-1.08113">
        <ele>8.161447</ele>
        <time>2022-08-02T10:25:05.000Z</time>
      </trkpt>
      <trkpt lat="49.37375" lon="-1.08115">
        <ele>8.037404</ele>
        <time>2022-08-02T10:25:06.000Z</time>
      </trkpt>
      <trkpt lat="49.37382" lon="-1.08117">
        <ele>7.903955</ele>
        <time>2022-08-02T10:25:07.000Z</time>
      </trkpt>
      <trkpt lat="49.37389" lon="-1.0812">
        <ele>7.776099</ele>
        <time>2022-08-02T10:25:08.000Z</time>
      </trkpt>
      <trkpt lat="49.37395" lon="-1.08124">
        <ele>7.644833</ele>
        <time>2022-08-02T10:25:09.000Z</time>
      </trkpt>
      <trkpt lat="49.37401" lon="-1.08128">
        <ele>7.523319</ele>
        <time>2022-08-02T10:25:10.000Z</time>
      </trkpt>
      <trkpt lat="49.37407" lon="-1.08133">
        <ele>7.404226</ele>
        <time>2022-08-02T10:25:11.000Z</time>
      </trkpt>
      <trkpt lat="49.37413" lon="-1.08138">
        <ele>7.284085</ele>
        <time>2022-08-02T10:25:12.000Z</time>
      </trkpt>
      <trkpt lat="49.37418" lon="-1.08142">
        <ele>7.178625</ele>
        <time>2022-08-02T10:25:13.000Z</time>
      </trkpt>
      <trkpt lat="49.37423" lon="-1.08146">
        <ele>7.067642</ele>
        <time>2022-08-02T10:25:14.000Z</time>
      </trkpt>
      <trkpt lat="49.37428" lon="-1.08149">
        <ele>6.977935</ele>
        <time>2022-08-02T10:25:15.000Z</time>
      </trkpt>
      <trkpt lat="49.37432" lon="-1.08153">
        <ele>6.885525</ele>
        <time>2022-08-02T10:25:16.000Z</time>
      </trkpt>
      <trkpt lat="49.37437" lon="-1.08156">
        <ele>6.792013</ele>
        <time>2022-08-02T10:25:17.000Z</time>
      </trkpt>
      <trkpt lat="49.37441" lon="-1.0816">
        <ele>6.70447</ele>
        <time>2022-08-02T10:25:18.000Z</time>
      </trkpt>
      <trkpt lat="49.37445" lon="-1.08163">
        <ele>6.613691</ele>
        <time>2022-08-02T10:25:19.000Z</time>
      </trkpt>
      <trkpt lat="49.3745" lon="-1.08167">
        <ele>6.522334</ele>
        <time>2022-08-02T10:25:20.000Z</time>
      </trkpt>
      <trkpt lat="49.37455" lon="-1.08169">
        <ele>6.428267</ele>
        <time>2022-08-02T10:25:21.000Z</time>
      </trkpt>
      <trkpt lat="49.37459" lon="-1.08172">
        <ele>6.339758</ele>
        <time>2022-08-02T10:25:22.000Z</time>
      </trkpt>
      <trkpt lat="49.37464" lon="-1.08174">
        <ele>6.247988</ele>
        <time>2022-08-02T10:25:23.000Z</time>
      </trkpt>
      <trkpt lat="49.37469" lon="-1.08176">
        <ele>6.151557</ele>
        <time>2022-08-02T10:25:24.000Z</time>
      </trkpt>
      <trkpt lat="49.37474" lon="-1.08178">
        <ele>6.067197</ele>
        <time>2022-08-02T10:25:25.000Z</time>
      </trkpt>
      <trkpt lat="49.37479" lon="-1.08179">
        <ele>5.967401</ele>
        <time>2022-08-02T10:25:26.000Z</time>
      </trkpt>
      <trkpt lat="49.37484" lon="-1.0818">
        <ele>5.878658</ele>
        <time>2022-08-02T10:25:27.000Z</time>
      </trkpt>
      <trkpt lat="49.37489" lon="-1.08181">
        <ele>5.783027</ele>
        <time>2022-08-02T10:25:28.000Z</time>
      </trkpt>
      <trkpt lat="49.37493" lon="-1.08181">
        <ele>5.701987</ele>
        <time>2022-08-02T10:25:29.000Z</time>
      </trkpt>
      <trkpt lat="49.37499" lon="-1.08182">
        <ele>5.601049</ele>
        <time>2022-08-02T10:25:30.000Z</time>
      </trkpt>
      <trkpt lat="49.37503" lon="-1.08182">
        <ele>5.518298</ele>
        <time>2022-08-02T10:25:31.000Z</time>
      </trkpt>
      <trkpt lat="49.37508" lon="-1.08183">
        <ele>5.430231</ele>
        <time>2022-08-02T10:25:32.000Z</time>
      </trkpt>
      <trkpt lat="49.37513" lon="-1.08183">
        <ele>5.354179</ele>
        <time>2022-08-02T10:25:33.000Z</time>
      </trkpt>
      <trkpt lat="49.37517" lon="-1.08183">
        <ele>5.327331</ele>
        <time>2022-08-02T10:25:34.000Z</time>
      </trkpt>
      <trkpt lat="49.37522" lon="-1.08184">
        <ele>5.300496</ele>
        <time>2022-08-02T10:25:35.000Z</time>
      </trkpt>
      <trkpt lat="49.37527" lon="-1.08184">
        <ele>5.273671</ele>
        <time>2022-08-02T10:25:36.000Z</time>
      </trkpt>
      <trkpt lat="49.37532" lon="-1.08184">
        <ele>5.244611</ele>
        <time>2022-08-02T10:25:37.000Z</time>
      </trkpt>
      <trkpt lat="49.37537" lon="-1.08183">
        <ele>5.217776</ele>
        <time>2022-08-02T10:25:38.000Z</time>
      </trkpt>
      <trkpt lat="49.37542" lon="-1.08183">
        <ele>5.189254</ele>
        <time>2022-08-02T10:25:39.000Z</time>
      </trkpt>
      <trkpt lat="49.37547" lon="-1.08183">
        <ele>5.162429</ele>
        <time>2022-08-02T10:25:40.000Z</time>
      </trkpt>
      <trkpt lat="49.37552" lon="-1.08183">
        <ele>5.132231</ele>
        <time>2022-08-02T10:25:41.000Z</time>
      </trkpt>
      <trkpt lat="49.37557" lon="-1.08184">
        <ele>5.105396</ele>
        <time>2022-08-02T10:25:42.000Z</time>
      </trkpt>
      <trkpt lat="49.37562" lon="-1.08183">
        <ele>5.076885</ele>
        <time>2022-08-02T10:25:43.000Z</time>
      </trkpt>
      <trkpt lat="49.37567" lon="-1.08183">
        <ele>5.050057</ele>
        <time>2022-08-02T10:25:44.000Z</time>
      </trkpt>
      <trkpt lat="49.37572" lon="-1.08183">
        <ele>5.020997</ele>
        <time>2022-08-02T10:25:45.000Z</time>
      </trkpt>
      <trkpt lat="49.37577" lon="-1.08184">
        <ele>4.99415</ele>
        <time>2022-08-02T10:25:46.000Z</time>
      </trkpt>
      <trkpt lat="49.37582" lon="-1.08184">
        <ele>4.96559</ele>
        <time>2022-08-02T10:25:47.000Z</time>
      </trkpt>
      <trkpt lat="49.37587" lon="-1.08184">
        <ele>4.937068</ele>
        <time>2022-08-02T10:25:48.000Z</time>
      </trkpt>
      <trkpt lat="49.37592" lon="-1.08185">
        <ele>4.908529</ele>
        <time>2022-08-02T10:25:49.000Z</time>
      </trkpt>
      <trkpt lat="49.37598" lon="-1.08185">
        <ele>4.877792</ele>
        <time>2022-08-02T10:25:50.000Z</time>
      </trkpt>
      <trkpt lat="49.37603" lon="-1.08185">
        <ele>4.850878</ele>
        <time>2022-08-02T10:25:51.000Z</time>
      </trkpt>
      <trkpt lat="49.37608" lon="-1.08186">
        <ele>4.820523</ele>
        <time>2022-08-02T10:25:52.000Z</time>
      </trkpt>
      <trkpt lat="49.37613" lon="-1.08187">
        <ele>4.790081</ele>
        <time>2022-08-02T10:25:53.000Z</time>
      </trkpt>
      <trkpt lat="49.37618" lon="-1.08189">
        <ele>4.762776</ele>
        <time>2022-08-02T10:25:54.000Z</time>
      </trkpt>
      <trkpt lat="49.37624" lon="-1.0819">
        <ele>4.729844</ele>
        <time>2022-08-02T10:25:55.000Z</time>
      </trkpt>
      <trkpt lat="49.37629" lon="-1.08192">
        <ele>4.702049</ele>
        <time>2022-08-02T10:25:56.000Z</time>
      </trkpt>
      <trkpt lat="49.37634" lon="-1.08194">
        <ele>4.672884</ele>
        <time>2022-08-02T10:25:57.000Z</time>
      </trkpt>
      <trkpt lat="49.37639" lon="-1.08196">
        <ele>4.645271</ele>
        <time>2022-08-02T10:25:58.000Z</time>
      </trkpt>
      <trkpt lat="49.37643" lon="-1.08198">
        <ele>4.61919</ele>
        <time>2022-08-02T10:25:59.000Z</time>
      </trkpt>
      <trkpt lat="49.37648" lon="-1.082">
        <ele>4.591298</ele>
        <time>2022-08-02T10:26:00.000Z</time>
      </trkpt>
      <trkpt lat="49.37652" lon="-1.08202">
        <ele>4.566254</ele>
        <time>2022-08-02T10:26:01.000Z</time>
      </trkpt>
      <trkpt lat="49.37656" lon="-1.08205">
        <ele>4.541178</ele>
        <time>2022-08-02T10:26:02.000Z</time>
      </trkpt>
      <trkpt lat="49.37661" lon="-1.08208">
        <ele>4.514977</ele>
        <time>2022-08-02T10:26:03.000Z</time>
      </trkpt>
      <trkpt lat="49.37665" lon="-1.08212">
        <ele>4.485587</ele>
        <time>2022-08-02T10:26:04.000Z</time>
      </trkpt>
      <trkpt lat="49.37669" lon="-1.08215">
        <ele>4.460246</ele>
        <time>2022-08-02T10:26:05.000Z</time>
      </trkpt>
      <trkpt lat="49.37673" lon="-1.0822">
        <ele>4.432985</ele>
        <time>2022-08-02T10:26:06.000Z</time>
      </trkpt>
      <trkpt lat="49.37676" lon="-1.08225">
        <ele>4.406951</ele>
        <time>2022-08-02T10:26:07.000Z</time>
      </trkpt>
      <trkpt lat="49.3768" lon="-1.08231">
        <ele>4.378967</ele>
        <time>2022-08-02T10:26:08.000Z</time>
      </trkpt>
      <trkpt lat="49.37683" lon="-1.08236">
        <ele>4.351582</ele>
        <time>2022-08-02T10:26:09.000Z</time>
      </trkpt>
      <trkpt lat="49.37686" lon="-1.08242">
        <ele>4.35066</ele>
        <time>2022-08-02T10:26:10.000Z</time>
      </trkpt>
      <trkpt lat="49.37689" lon="-1.08248">
        <ele>4.350306</ele>
        <time>2022-08-02T10:26:11.000Z</time>
      </trkpt>
      <trkpt lat="49.37692" lon="-1.08253">
        <ele>4.349937</ele>
        <time>2022-08-02T10:26:12.000Z</time>
      </trkpt>
      <trkpt lat="49.37695" lon="-1.08258">
        <ele>4.349575</ele>
        <time>2022-08-02T10:26:13.000Z</time>
      </trkpt>
      <trkpt lat="49.37698" lon="-1.08264">
        <ele>4.349237</ele>
        <time>2022-08-02T10:26:14.000Z</time>
      </trkpt>
      <trkpt lat="49.37701" lon="-1.08269">
        <ele>4.348875</ele>
        <time>2022-08-02T10:26:15.000Z</time>
      </trkpt>
      <trkpt lat="49.37705" lon="-1.08274">
        <ele>4.348494</ele>
        <time>2022-08-02T10:26:16.000Z</time>
      </trkpt>
      <trkpt lat="49.37708" lon="-1.08279">
        <ele>4.348164</ele>
        <time>2022-08-02T10:26:17.000Z</time>
      </trkpt>
      <trkpt lat="49.37711" lon="-1.08284">
        <ele>4.347806</ele>
        <time>2022-08-02T10:26:18.000Z</time>
      </trkpt>
      <trkpt lat="49.37714" lon="-1.08289">
        <ele>4.347478</ele>
        <time>2022-08-02T10:26:19.000Z</time>
      </trkpt>
      <trkpt lat="49.37717" lon="-1.08294">
        <ele>4.347134</ele>
        <time>2022-08-02T10:26:20.000Z</time>
      </trkpt>
      <trkpt lat="49.3772" lon="-1.08299">
        <ele>4.346802</ele>
        <time>2022-08-02T10:26:21.000Z</time>
      </trkpt>
      <trkpt lat="49.37723" lon="-1.08304">
        <ele>4.346474</ele>
        <time>2022-08-02T10:26:22.000Z</time>
      </trkpt>
      <trkpt lat="49.37725" lon="-1.08308">
        <ele>4.346178</ele>
        <time>2022-08-02T10:26:23.000Z</time>
      </trkpt>
      <trkpt lat="49.37729" lon="-1.08313">
        <ele>4.345844</ele>
        <time>2022-08-02T10:26:24.000Z</time>
      </trkpt>
      <trkpt lat="49.37731" lon="-1.08317">
        <ele>4.34555</ele>
        <time>2022-08-02T10:26:25.000Z</time>
      </trkpt>
      <trkpt lat="49.37734" lon="-1.08321">
        <ele>4.345252</ele>
        <time>2022-08-02T10:26:26.000Z</time>
      </trkpt>
      <trkpt lat="49.37737" lon="-1.08326">
        <ele>4.344925</ele>
        <time>2022-08-02T10:26:27.000Z</time>
      </trkpt>
      <trkpt lat="49.3774" lon="-1.0833">
        <ele>4.344629</ele>
        <time>2022-08-02T10:26:28.000Z</time>
      </trkpt>
      <trkpt lat="49.37742" lon="-1.08335">
        <ele>4.344328</ele>
        <time>2022-08-02T10:26:29.000Z</time>
      </trkpt>
      <trkpt lat="49.37745" lon="-1.08339">
        <ele>4.34401</ele>
        <time>2022-08-02T10:26:30.000Z</time>
      </trkpt>
      <trkpt lat="49.37749" lon="-1.08343">
        <ele>4.343683</ele>
        <time>2022-08-02T10:26:31.000Z</time>
      </trkpt>
      <trkpt lat="49.37751" lon="-1.08347">
        <ele>4.343387</ele>
        <time>2022-08-02T10:26:32.000Z</time>
      </trkpt>
      <trkpt lat="49.37754" lon="-1.08352">
        <ele>4.343078</ele>
        <time>2022-08-02T10:26:33.000Z</time>
      </trkpt>
      <trkpt lat="49.37757" lon="-1.08357">
        <ele>4.342761</ele>
        <time>2022-08-02T10:26:34.000Z</time>
      </trkpt>
      <trkpt lat="49.37759" lon="-1.08361">
        <ele>4.342465</ele>
        <time>2022-08-02T10:26:35.000Z</time>
      </trkpt>
      <trkpt lat="49.37762" lon="-1.08365">
        <ele>4.342155</ele>
        <time>2022-08-02T10:26:36.000Z</time>
      </trkpt>
      <trkpt lat="49.37765" lon="-1.0837">
        <ele>4.341838</ele>
        <time>2022-08-02T10:26:37.000Z</time>
      </trkpt>
      <trkpt lat="49.37768" lon="-1.08375">
        <ele>4.341513</ele>
        <time>2022-08-02T10:26:38.000Z</time>
      </trkpt>
      <trkpt lat="49.37771" lon="-1.08379">
        <ele>4.341196</ele>
        <time>2022-08-02T10:26:39.000Z</time>
      </trkpt>
      <trkpt lat="49.37773" lon="-1.08384">
        <ele>4.340892</ele>
        <time>2022-08-02T10:26:40.000Z</time>
      </trkpt>
      <trkpt lat="49.37776" lon="-1.08389">
        <ele>4.340548</ele>
        <time>2022-08-02T10:26:41.000Z</time>
      </trkpt>
      <trkpt lat="49.37779" lon="-1.08394">
        <ele>4.340228</ele>
        <time>2022-08-02T10:26:42.000Z</time>
      </trkpt>
      <trkpt lat="49.37781" lon="-1.08398">
        <ele>4.339924</ele>
        <time>2022-08-02T10:26:43.000Z</time>
      </trkpt>
      <trkpt lat="49.37785" lon="-1.08403">
        <ele>4.33959</ele>
        <time>2022-08-02T10:26:44.000Z</time>
      </trkpt>
      <trkpt lat="49.37788" lon="-1.08407">
        <ele>4.339233</ele>
        <time>2022-08-02T10:26:45.000Z</time>
      </trkpt>
      <trkpt lat="49.37791" lon="-1.08412">
        <ele>4.33891</ele>
        <time>2022-08-02T10:26:46.000Z</time>
      </trkpt>
      <trkpt lat="49.37794" lon="-1.08417">
        <ele>4.338559</ele>
        <time>2022-08-02T10:26:47.000Z</time>
      </trkpt>
      <trkpt lat="49.37797" lon="-1.08422">
        <ele>4.338201</ele>
        <time>2022-08-02T10:26:48.000Z</time>
      </trkpt>
      <trkpt lat="49.37801" lon="-1.08427">
        <ele>4.337824</ele>
        <time>2022-08-02T10:26:49.000Z</time>
      </trkpt>
      <trkpt lat="49.37805" lon="-1.08433">
        <ele>4.337449</ele>
        <time>2022-08-02T10:26:50.000Z</time>
      </trkpt>
      <trkpt lat="49.37808" lon="-1.08438">
        <ele>4.331259</ele>
        <time>2022-08-02T10:26:51.000Z</time>
      </trkpt>
      <trkpt lat="49.37812" lon="-1.08443">
        <ele>4.31246</ele>
        <time>2022-08-02T10:26:52.000Z</time>
      </trkpt>
      <trkpt lat="49.37815" lon="-1.08449">
        <ele>4.292435</ele>
        <time>2022-08-02T10:26:53.000Z</time>
      </trkpt>
      <trkpt lat="49.37819" lon="-1.08455">
        <ele>4.272508</ele>
        <time>2022-08-02T10:26:54.000Z</time>
      </trkpt>
      <trkpt lat="49.37823" lon="-1.08461">
        <ele>4.253534</ele>
        <time>2022-08-02T10:26:55.000Z</time>
      </trkpt>
      <trkpt lat="49.37827" lon="-1.08467">
        <ele>4.233002</ele>
        <time>2022-08-02T10:26:56.000Z</time>
      </trkpt>
      <trkpt lat="49.3783" lon="-1.08472">
        <ele>4.213075</ele>
        <time>2022-08-02T10:26:57.000Z</time>
      </trkpt>
      <trkpt lat="49.37834" lon="-1.08478">
        <ele>4.192804</ele>
        <time>2022-08-02T10:26:58.000Z</time>
      </trkpt>
      <trkpt lat="49.37838" lon="-1.08484">
        <ele>4.172272</ele>
        <time>2022-08-02T10:26:59.000Z</time>
      </trkpt>
      <trkpt lat="49.37841" lon="-1.0849">
        <ele>4.153488</ele>
        <time>2022-08-02T10:27:00.000Z</time>
      </trkpt>
      <trkpt lat="49.37845" lon="-1.08496">
        <ele>4.133217</ele>
        <time>2022-08-02T10:27:01.000Z</time>
      </trkpt>
      <trkpt lat="49.37849" lon="-1.08503">
        <ele>4.113345</ele>
        <time>2022-08-02T10:27:02.000Z</time>
      </trkpt>
      <trkpt lat="49.37852" lon="-1.08508">
        <ele>4.093938</ele>
        <time>2022-08-02T10:27:03.000Z</time>
      </trkpt>
      <trkpt lat="49.37856" lon="-1.08514">
        <ele>4.07384</ele>
        <time>2022-08-02T10:27:04.000Z</time>
      </trkpt>
      <trkpt lat="49.3786" lon="-1.0852">
        <ele>4.053914</ele>
        <time>2022-08-02T10:27:05.000Z</time>
      </trkpt>
      <trkpt lat="49.37864" lon="-1.08526">
        <ele>4.032905</ele>
        <time>2022-08-02T10:27:06.000Z</time>
      </trkpt>
      <trkpt lat="49.37868" lon="-1.08532">
        <ele>4.012807</ele>
        <time>2022-08-02T10:27:07.000Z</time>
      </trkpt>
      <trkpt lat="49.37872" lon="-1.08538">
        <ele>3.991799</ele>
        <time>2022-08-02T10:27:08.000Z</time>
      </trkpt>
      <trkpt lat="49.37876" lon="-1.08543">
        <ele>3.972042</ele>
        <time>2022-08-02T10:27:09.000Z</time>
      </trkpt>
      <trkpt lat="49.3788" lon="-1.08549">
        <ele>3.951034</ele>
        <time>2022-08-02T10:27:10.000Z</time>
      </trkpt>
      <trkpt lat="49.37884" lon="-1.08555">
        <ele>3.931107</ele>
        <time>2022-08-02T10:27:11.000Z</time>
      </trkpt>
      <trkpt lat="49.37888" lon="-1.08561">
        <ele>3.909772</ele>
        <time>2022-08-02T10:27:12.000Z</time>
      </trkpt>
      <trkpt lat="49.37892" lon="-1.08567">
        <ele>3.890015</ele>
        <time>2022-08-02T10:27:13.000Z</time>
      </trkpt>
      <trkpt lat="49.37896" lon="-1.08572">
        <ele>3.869949</ele>
        <time>2022-08-02T10:27:14.000Z</time>
      </trkpt>
      <trkpt lat="49.379" lon="-1.08577">
        <ele>3.850034</ele>
        <time>2022-08-02T10:27:15.000Z</time>
      </trkpt>
      <trkpt lat="49.37904" lon="-1.08582">
        <ele>3.830778</ele>
        <time>2022-08-02T10:27:16.000Z</time>
      </trkpt>
      <trkpt lat="49.37908" lon="-1.08588">
        <ele>3.811357</ele>
        <time>2022-08-02T10:27:17.000Z</time>
      </trkpt>
      <trkpt lat="49.37912" lon="-1.08593">
        <ele>3.791663</ele>
        <time>2022-08-02T10:27:18.000Z</time>
      </trkpt>
      <trkpt lat="49.37916" lon="-1.08599">
        <ele>3.772571</ele>
        <time>2022-08-02T10:27:19.000Z</time>
      </trkpt>
      <trkpt lat="49.37919" lon="-1.08604">
        <ele>3.753361</ele>
        <time>2022-08-02T10:27:20.000Z</time>
      </trkpt>
      <trkpt lat="49.37923" lon="-1.08609">
        <ele>3.734749</ele>
        <time>2022-08-02T10:27:21.000Z</time>
      </trkpt>
      <trkpt lat="49.37926" lon="-1.08614">
        <ele>3.716886</ele>
        <time>2022-08-02T10:27:22.000Z</time>
      </trkpt>
      <trkpt lat="49.3793" lon="-1.0862">
        <ele>3.697735</ele>
        <time>2022-08-02T10:27:23.000Z</time>
      </trkpt>
      <trkpt lat="49.37933" lon="-1.08626">
        <ele>3.678584</ele>
        <time>2022-08-02T10:27:24.000Z</time>
      </trkpt>
      <trkpt lat="49.37937" lon="-1.08632">
        <ele>3.668645</ele>
        <time>2022-08-02T10:27:25.000Z</time>
      </trkpt>
      <trkpt lat="49.3794" lon="-1.08638">
        <ele>3.669745</ele>
        <time>2022-08-02T10:27:26.000Z</time>
      </trkpt>
      <trkpt lat="49.37942" lon="-1.08644">
        <ele>3.670744</ele>
        <time>2022-08-02T10:27:27.000Z</time>
      </trkpt>
      <trkpt lat="49.37946" lon="-1.0865">
        <ele>3.671877</ele>
        <time>2022-08-02T10:27:28.000Z</time>
      </trkpt>
      <trkpt lat="49.37948" lon="-1.08656">
        <ele>3.672903</ele>
        <time>2022-08-02T10:27:29.000Z</time>
      </trkpt>
      <trkpt lat="49.3795" lon="-1.08662">
        <ele>3.673937</ele>
        <time>2022-08-02T10:27:30.000Z</time>
      </trkpt>
      <trkpt lat="49.37953" lon="-1.08669">
        <ele>3.675043</ele>
        <time>2022-08-02T10:27:31.000Z</time>
      </trkpt>
      <trkpt lat="49.37956" lon="-1.08675">
        <ele>3.676137</ele>
        <time>2022-08-02T10:27:32.000Z</time>
      </trkpt>
      <trkpt lat="49.3796" lon="-1.08681">
        <ele>3.677311</ele>
        <time>2022-08-02T10:27:33.000Z</time>
      </trkpt>
      <trkpt lat="49.37963" lon="-1.08688">
        <ele>3.678497</ele>
        <time>2022-08-02T10:27:34.000Z</time>
      </trkpt>
      <trkpt lat="49.37966" lon="-1.08694">
        <ele>3.679607</ele>
        <time>2022-08-02T10:27:35.000Z</time>
      </trkpt>
      <trkpt lat="49.3797" lon="-1.087">
        <ele>3.680815</ele>
        <time>2022-08-02T10:27:36.000Z</time>
      </trkpt>
      <trkpt lat="49.37974" lon="-1.08706">
        <ele>3.682038</ele>
        <time>2022-08-02T10:27:37.000Z</time>
      </trkpt>
      <trkpt lat="49.37978" lon="-1.08712">
        <ele>3.683191</ele>
        <time>2022-08-02T10:27:38.000Z</time>
      </trkpt>
      <trkpt lat="49.37981" lon="-1.08719">
        <ele>3.684398</ele>
        <time>2022-08-02T10:27:39.000Z</time>
      </trkpt>
      <trkpt lat="49.37985" lon="-1.08725">
        <ele>3.685621</ele>
        <time>2022-08-02T10:27:40.000Z</time>
      </trkpt>
      <trkpt lat="49.37989" lon="-1.08731">
        <ele>3.68687</ele>
        <time>2022-08-02T10:27:41.000Z</time>
      </trkpt>
      <trkpt lat="49.37993" lon="-1.08738">
        <ele>3.688166</ele>
        <time>2022-08-02T10:27:42.000Z</time>
      </trkpt>
      <trkpt lat="49.37996" lon="-1.08745">
        <ele>3.689333</ele>
        <time>2022-08-02T10:27:43.000Z</time>
      </trkpt>
      <trkpt lat="49.38" lon="-1.08752">
        <ele>3.690625</ele>
        <time>2022-08-02T10:27:44.000Z</time>
      </trkpt>
      <trkpt lat="49.38004" lon="-1.08759">
        <ele>3.691843</ele>
        <time>2022-08-02T10:27:45.000Z</time>
      </trkpt>
      <trkpt lat="49.38007" lon="-1.08766">
        <ele>3.693095</ele>
        <time>2022-08-02T10:27:46.000Z</time>
      </trkpt>
      <trkpt lat="49.38011" lon="-1.08773">
        <ele>3.69436</ele>
        <time>2022-08-02T10:27:47.000Z</time>
      </trkpt>
      <trkpt lat="49.38014" lon="-1.0878">
        <ele>3.695611</ele>
        <time>2022-08-02T10:27:48.000Z</time>
      </trkpt>
      <trkpt lat="49.38018" lon="-1.08787">
        <ele>3.696863</ele>
        <time>2022-08-02T10:27:49.000Z</time>
      </trkpt>
      <trkpt lat="49.38021" lon="-1.08793">
        <ele>3.698123</ele>
        <time>2022-08-02T10:27:50.000Z</time>
      </trkpt>
      <trkpt lat="49.38025" lon="-1.088">
        <ele>3.699377</ele>
        <time>2022-08-02T10:27:51.000Z</time>
      </trkpt>
      <trkpt lat="49.38029" lon="-1.08806">
        <ele>3.700573</ele>
        <time>2022-08-02T10:27:52.000Z</time>
      </trkpt>
      <trkpt lat="49.38032" lon="-1.08813">
        <ele>3.70174</ele>
        <time>2022-08-02T10:27:53.000Z</time>
      </trkpt>
      <trkpt lat="49.38036" lon="-1.08819">
        <ele>3.702936</ele>
        <time>2022-08-02T10:27:54.000Z</time>
      </trkpt>
      <trkpt lat="49.38039" lon="-1.08826">
        <ele>3.704176</ele>
        <time>2022-08-02T10:27:55.000Z</time>
      </trkpt>
      <trkpt lat="49.38042" lon="-1.08833">
        <ele>3.705319</ele>
        <time>2022-08-02T10:27:56.000Z</time>
      </trkpt>
      <trkpt lat="49.38045" lon="-1.0884">
        <ele>3.706571</ele>
        <time>2022-08-02T10:27:57.000Z</time>
      </trkpt>
      <trkpt lat="49.38048" lon="-1.08847">
        <ele>3.725802</ele>
        <time>2022-08-02T10:27:58.000Z</time>
      </trkpt>
      <trkpt lat="49.38052" lon="-1.08854">
        <ele>3.780193</ele>
        <time>2022-08-02T10:27:59.000Z</time>
      </trkpt>
      <trkpt lat="49.38055" lon="-1.08861">
        <ele>3.833863</ele>
        <time>2022-08-02T10:28:00.000Z</time>
      </trkpt>
      <trkpt lat="49.38059" lon="-1.08868">
        <ele>3.889346</ele>
        <time>2022-08-02T10:28:01.000Z</time>
      </trkpt>
      <trkpt lat="49.38061" lon="-1.08875">
        <ele>3.939831</ele>
        <time>2022-08-02T10:28:02.000Z</time>
      </trkpt>
      <trkpt lat="49.38065" lon="-1.08881">
        <ele>3.994826</ele>
        <time>2022-08-02T10:28:03.000Z</time>
      </trkpt>
      <trkpt lat="49.38068" lon="-1.08888">
        <ele>4.048495</ele>
        <time>2022-08-02T10:28:04.000Z</time>
      </trkpt>
      <trkpt lat="49.38071" lon="-1.08895">
        <ele>4.102165</ele>
        <time>2022-08-02T10:28:05.000Z</time>
      </trkpt>
      <trkpt lat="49.38075" lon="-1.08903">
        <ele>4.158546</ele>
        <time>2022-08-02T10:28:06.000Z</time>
      </trkpt>
      <trkpt lat="49.38078" lon="-1.0891">
        <ele>4.213928</ele>
        <time>2022-08-02T10:28:07.000Z</time>
      </trkpt>
      <trkpt lat="49.38082" lon="-1.08916">
        <ele>4.269684</ele>
        <time>2022-08-02T10:28:08.000Z</time>
      </trkpt>
      <trkpt lat="49.38086" lon="-1.08923">
        <ele>4.325611</ele>
        <time>2022-08-02T10:28:09.000Z</time>
      </trkpt>
      <trkpt lat="49.3809" lon="-1.08929">
        <ele>4.381951</ele>
        <time>2022-08-02T10:28:10.000Z</time>
      </trkpt>
      <trkpt lat="49.38094" lon="-1.08935">
        <ele>4.435151</ele>
        <time>2022-08-02T10:28:11.000Z</time>
      </trkpt>
      <trkpt lat="49.38098" lon="-1.08941">
        <ele>4.486798</ele>
        <time>2022-08-02T10:28:12.000Z</time>
      </trkpt>
      <trkpt lat="49.38102" lon="-1.08945">
        <ele>4.534427</ele>
        <time>2022-08-02T10:28:13.000Z</time>
      </trkpt>
      <trkpt lat="49.38106" lon="-1.08947">
        <ele>4.575047</ele>
        <time>2022-08-02T10:28:14.000Z</time>
      </trkpt>
      <trkpt lat="49.38109" lon="-1.08949">
        <ele>4.607682</ele>
        <time>2022-08-02T10:28:15.000Z</time>
      </trkpt>
      <trkpt lat="49.38112" lon="-1.08951">
        <ele>4.637827</ele>
        <time>2022-08-02T10:28:16.000Z</time>
      </trkpt>
      <trkpt lat="49.38113" lon="-1.08953">
        <ele>4.656238</ele>
        <time>2022-08-02T10:28:17.000Z</time>
      </trkpt>
      <trkpt lat="49.38114" lon="-1.08956">
        <ele>4.676964</ele>
        <time>2022-08-02T10:28:18.000Z</time>
      </trkpt>
      <trkpt lat="49.38115" lon="-1.0896">
        <ele>4.699261</ele>
        <time>2022-08-02T10:28:19.000Z</time>
      </trkpt>
      <trkpt lat="49.38115" lon="-1.08963">
        <ele>4.721971</ele>
        <time>2022-08-02T10:28:20.000Z</time>
      </trkpt>
      <trkpt lat="49.38116" lon="-1.08967">
        <ele>4.745896</ele>
        <time>2022-08-02T10:28:21.000Z</time>
      </trkpt>
      <trkpt lat="49.38117" lon="-1.0897">
        <ele>4.768168</ele>
        <time>2022-08-02T10:28:22.000Z</time>
      </trkpt>
      <trkpt lat="49.38118" lon="-1.08973">
        <ele>4.789747</ele>
        <time>2022-08-02T10:28:23.000Z</time>
      </trkpt>
      <trkpt lat="49.38119" lon="-1.08976">
        <ele>4.807672</ele>
        <time>2022-08-02T10:28:24.000Z</time>
      </trkpt>
      <trkpt lat="49.3812" lon="-1.08978">
        <ele>4.826315</ele>
        <time>2022-08-02T10:28:25.000Z</time>
      </trkpt>
      <trkpt lat="49.38123" lon="-1.08981">
        <ele>4.855396</ele>
        <time>2022-08-02T10:28:27.000Z</time>
      </trkpt>
      <trkpt lat="49.38124" lon="-1.08983">
        <ele>4.877845</ele>
        <time>2022-08-02T10:28:29.000Z</time>
      </trkpt>
      <trkpt lat="49.38118" lon="-1.08976">
        <ele>4.952143</ele>
        <time>2022-08-02T10:30:20.000Z</time>
      </trkpt>
      <trkpt lat="49.38117" lon="-1.08973">
        <ele>4.973214</ele>
        <time>2022-08-02T10:30:21.000Z</time>
      </trkpt>
      <trkpt lat="49.38115" lon="-1.08968">
        <ele>5.010084</ele>
        <time>2022-08-02T10:30:23.000Z</time>
      </trkpt>
      <trkpt lat="49.38114" lon="-1.08965">
        <ele>5.032356</ele>
        <time>2022-08-02T10:30:24.000Z</time>
      </trkpt>
      <trkpt lat="49.38113" lon="-1.08961">
        <ele>5.054805</ele>
        <time>2022-08-02T10:30:25.000Z</time>
      </trkpt>
      <trkpt lat="49.38113" lon="-1.08958">
        <ele>5.076334</ele>
        <time>2022-08-02T10:30:26.000Z</time>
      </trkpt>
      <trkpt lat="49.38113" lon="-1.08955">
        <ele>5.095548</ele>
        <time>2022-08-02T10:30:27.000Z</time>
      </trkpt>
      <trkpt lat="49.38113" lon="-1.08949">
        <ele>5.132561</ele>
        <time>2022-08-02T10:30:29.000Z</time>
      </trkpt>
      <trkpt lat="49.38114" lon="-1.08946">
        <ele>5.153287</ele>
        <time>2022-08-02T10:30:30.000Z</time>
      </trkpt>
      <trkpt lat="49.38116" lon="-1.08944">
        <ele>5.175284</ele>
        <time>2022-08-02T10:30:31.000Z</time>
      </trkpt>
      <trkpt lat="49.38117" lon="-1.08941">
        <ele>5.196405</ele>
        <time>2022-08-02T10:30:32.000Z</time>
      </trkpt>
      <trkpt lat="49.3812" lon="-1.08939">
        <ele>5.22564</ele>
        <time>2022-08-02T10:30:33.000Z</time>
      </trkpt>
      <trkpt lat="49.38122" lon="-1.08937">
        <ele>5.251289</ele>
        <time>2022-08-02T10:30:34.000Z</time>
      </trkpt>
      <trkpt lat="49.38125" lon="-1.08934">
        <ele>5.280207</ele>
        <time>2022-08-02T10:30:35.000Z</time>
      </trkpt>
      <trkpt lat="49.38127" lon="-1.08932">
        <ele>5.310455</ele>
        <time>2022-08-02T10:30:36.000Z</time>
      </trkpt>
      <trkpt lat="49.3813" lon="-1.08929">
        <ele>5.342656</ele>
        <time>2022-08-02T10:30:37.000Z</time>
      </trkpt>
      <trkpt lat="49.38133" lon="-1.08926">
        <ele>5.371738</ele>
        <time>2022-08-02T10:30:38.000Z</time>
      </trkpt>
      <trkpt lat="49.38136" lon="-1.08923">
        <ele>5.408539</ele>
        <time>2022-08-02T10:30:39.000Z</time>
      </trkpt>
      <trkpt lat="49.38139" lon="-1.08919">
        <ele>5.439948</ele>
        <time>2022-08-02T10:30:40.000Z</time>
      </trkpt>
      <trkpt lat="49.38142" lon="-1.08916">
        <ele>5.429146</ele>
        <time>2022-08-02T10:30:41.000Z</time>
      </trkpt>
      <trkpt lat="49.38145" lon="-1.08913">
        <ele>5.419579</ele>
        <time>2022-08-02T10:30:42.000Z</time>
      </trkpt>
      <trkpt lat="49.38149" lon="-1.0891">
        <ele>5.407355</ele>
        <time>2022-08-02T10:30:43.000Z</time>
      </trkpt>
      <trkpt lat="49.38152" lon="-1.08907">
        <ele>5.396122</ele>
        <time>2022-08-02T10:30:44.000Z</time>
      </trkpt>
      <trkpt lat="49.38156" lon="-1.08904">
        <ele>5.384148</ele>
        <time>2022-08-02T10:30:45.000Z</time>
      </trkpt>
      <trkpt lat="49.38159" lon="-1.08901">
        <ele>5.373735</ele>
        <time>2022-08-02T10:30:46.000Z</time>
      </trkpt>
      <trkpt lat="49.38163" lon="-1.08898">
        <ele>5.361511</ele>
        <time>2022-08-02T10:30:47.000Z</time>
      </trkpt>
      <trkpt lat="49.38166" lon="-1.08895">
        <ele>5.350452</ele>
        <time>2022-08-02T10:30:48.000Z</time>
      </trkpt>
      <trkpt lat="49.3817" lon="-1.08892">
        <ele>5.339219</ele>
        <time>2022-08-02T10:30:49.000Z</time>
      </trkpt>
      <trkpt lat="49.38173" lon="-1.08889">
        <ele>5.327986</ele>
        <time>2022-08-02T10:30:50.000Z</time>
      </trkpt>
      <trkpt lat="49.38176" lon="-1.08886">
        <ele>5.318187</ele>
        <time>2022-08-02T10:30:51.000Z</time>
      </trkpt>
      <trkpt lat="49.3818" lon="-1.08884">
        <ele>5.30737</ele>
        <time>2022-08-02T10:30:52.000Z</time>
      </trkpt>
      <trkpt lat="49.38184" lon="-1.08881">
        <ele>5.295526</ele>
        <time>2022-08-02T10:30:53.000Z</time>
      </trkpt>
      <trkpt lat="49.38188" lon="-1.08878">
        <ele>5.283792</ele>
        <time>2022-08-02T10:30:54.000Z</time>
      </trkpt>
      <trkpt lat="49.38191" lon="-1.08876">
        <ele>5.271877</ele>
        <time>2022-08-02T10:30:55.000Z</time>
      </trkpt>
      <trkpt lat="49.38195" lon="-1.08873">
        <ele>5.260645</ele>
        <time>2022-08-02T10:30:56.000Z</time>
      </trkpt>
      <trkpt lat="49.38199" lon="-1.08869">
        <ele>5.24832</ele>
        <time>2022-08-02T10:30:57.000Z</time>
      </trkpt>
      <trkpt lat="49.38203" lon="-1.08866">
        <ele>5.235841</ele>
        <time>2022-08-02T10:30:58.000Z</time>
      </trkpt>
      <trkpt lat="49.38206" lon="-1.08863">
        <ele>5.223867</ele>
        <time>2022-08-02T10:30:59.000Z</time>
      </trkpt>
      <trkpt lat="49.3821" lon="-1.0886">
        <ele>5.211722</ele>
        <time>2022-08-02T10:31:00.000Z</time>
      </trkpt>
      <trkpt lat="49.38214" lon="-1.08856">
        <ele>5.199683</ele>
        <time>2022-08-02T10:31:01.000Z</time>
      </trkpt>
      <trkpt lat="49.38217" lon="-1.08852">
        <ele>5.188457</ele>
        <time>2022-08-02T10:31:02.000Z</time>
      </trkpt>
      <trkpt lat="49.38219" lon="-1.08847">
        <ele>5.176639</ele>
        <time>2022-08-02T10:31:03.000Z</time>
      </trkpt>
      <trkpt lat="49.38221" lon="-1.08841">
        <ele>5.165274</ele>
        <time>2022-08-02T10:31:04.000Z</time>
      </trkpt>
      <trkpt lat="49.38221" lon="-1.08835">
        <ele>5.154018</ele>
        <time>2022-08-02T10:31:05.000Z</time>
      </trkpt>
      <trkpt lat="49.38221" lon="-1.08829">
        <ele>5.142582</ele>
        <time>2022-08-02T10:31:06.000Z</time>
      </trkpt>
      <trkpt lat="49.3822" lon="-1.08823">
        <ele>5.131635</ele>
        <time>2022-08-02T10:31:07.000Z</time>
      </trkpt>
      <trkpt lat="49.38217" lon="-1.08818">
        <ele>5.120321</ele>
        <time>2022-08-02T10:31:08.000Z</time>
      </trkpt>
      <trkpt lat="49.38214" lon="-1.08813">
        <ele>5.108103</ele>
        <time>2022-08-02T10:31:09.000Z</time>
      </trkpt>
      <trkpt lat="49.38212" lon="-1.08808">
        <ele>5.09671</ele>
        <time>2022-08-02T10:31:10.000Z</time>
      </trkpt>
      <trkpt lat="49.38208" lon="-1.08803">
        <ele>5.083918</ele>
        <time>2022-08-02T10:31:11.000Z</time>
      </trkpt>
      <trkpt lat="49.38205" lon="-1.08799">
        <ele>5.072495</ele>
        <time>2022-08-02T10:31:12.000Z</time>
      </trkpt>
      <trkpt lat="49.38202" lon="-1.08794">
        <ele>5.059703</ele>
        <time>2022-08-02T10:31:13.000Z</time>
      </trkpt>
      <trkpt lat="49.38199" lon="-1.08789">
        <ele>5.046911</ele>
        <time>2022-08-02T10:31:14.000Z</time>
      </trkpt>
      <trkpt lat="49.38196" lon="-1.08784">
        <ele>5.033987</ele>
        <time>2022-08-02T10:31:15.000Z</time>
      </trkpt>
      <trkpt lat="49.38192" lon="-1.08779">
        <ele>5.019955</ele>
        <time>2022-08-02T10:31:16.000Z</time>
      </trkpt>
      <trkpt lat="49.38188" lon="-1.08774">
        <ele>5.005932</ele>
        <time>2022-08-02T10:31:17.000Z</time>
      </trkpt>
      <trkpt lat="49.38185" lon="-1.08769">
        <ele>4.992083</ele>
        <time>2022-08-02T10:31:18.000Z</time>
      </trkpt>
      <trkpt lat="49.38181" lon="-1.08763">
        <ele>4.979027</ele>
        <time>2022-08-02T10:31:19.000Z</time>
      </trkpt>
      <trkpt lat="49.38178" lon="-1.08758">
        <ele>4.965253</ele>
        <time>2022-08-02T10:31:20.000Z</time>
      </trkpt>
      <trkpt lat="49.38174" lon="-1.08753">
        <ele>4.951221</ele>
        <time>2022-08-02T10:31:21.000Z</time>
      </trkpt>
      <trkpt lat="49.38172" lon="-1.08747">
        <ele>4.938307</ele>
        <time>2022-08-02T10:31:22.000Z</time>
      </trkpt>
      <trkpt lat="49.38168" lon="-1.08742">
        <ele>4.925514</ele>
        <time>2022-08-02T10:31:23.000Z</time>
      </trkpt>
      <trkpt lat="49.38165" lon="-1.08737">
        <ele>4.912558</ele>
        <time>2022-08-02T10:31:24.000Z</time>
      </trkpt>
      <trkpt lat="49.38162" lon="-1.08731">
        <ele>4.900644</ele>
        <time>2022-08-02T10:31:25.000Z</time>
      </trkpt>
      <trkpt lat="49.3816" lon="-1.08725">
        <ele>4.889242</ele>
        <time>2022-08-02T10:31:26.000Z</time>
      </trkpt>
      <trkpt lat="49.38159" lon="-1.08719">
        <ele>4.877673</ele>
        <time>2022-08-02T10:31:27.000Z</time>
      </trkpt>
      <trkpt lat="49.38159" lon="-1.08712">
        <ele>4.866241</ele>
        <time>2022-08-02T10:31:28.000Z</time>
      </trkpt>
      <trkpt lat="49.38161" lon="-1.08706">
        <ele>4.854204</ele>
        <time>2022-08-02T10:31:29.000Z</time>
      </trkpt>
      <trkpt lat="49.38163" lon="-1.087">
        <ele>4.842219</ele>
        <time>2022-08-02T10:31:30.000Z</time>
      </trkpt>
      <trkpt lat="49.38165" lon="-1.08694">
        <ele>4.830741</ele>
        <time>2022-08-02T10:31:31.000Z</time>
      </trkpt>
      <trkpt lat="49.38167" lon="-1.08689">
        <ele>4.820143</ele>
        <time>2022-08-02T10:31:32.000Z</time>
      </trkpt>
      <trkpt lat="49.3817" lon="-1.08684">
        <ele>4.808121</ele>
        <time>2022-08-02T10:31:33.000Z</time>
      </trkpt>
      <trkpt lat="49.38173" lon="-1.08679">
        <ele>4.796221</ele>
        <time>2022-08-02T10:31:34.000Z</time>
      </trkpt>
      <trkpt lat="49.38176" lon="-1.08674">
        <ele>4.784622</ele>
        <time>2022-08-02T10:31:35.000Z</time>
      </trkpt>
      <trkpt lat="49.3818" lon="-1.08669">
        <ele>4.772227</ele>
        <time>2022-08-02T10:31:36.000Z</time>
      </trkpt>
      <trkpt lat="49.38182" lon="-1.08664">
        <ele>4.760498</ele>
        <time>2022-08-02T10:31:37.000Z</time>
      </trkpt>
      <trkpt lat="49.38186" lon="-1.08658">
        <ele>4.747721</ele>
        <time>2022-08-02T10:31:38.000Z</time>
      </trkpt>
      <trkpt lat="49.38188" lon="-1.08652">
        <ele>4.73538</ele>
        <time>2022-08-02T10:31:39.000Z</time>
      </trkpt>
      <trkpt lat="49.38191" lon="-1.08646">
        <ele>4.723041</ele>
        <time>2022-08-02T10:31:40.000Z</time>
      </trkpt>
      <trkpt lat="49.38194" lon="-1.0864">
        <ele>4.710097</ele>
        <time>2022-08-02T10:31:41.000Z</time>
      </trkpt>
      <trkpt lat="49.38197" lon="-1.08634">
        <ele>4.697153</ele>
        <time>2022-08-02T10:31:42.000Z</time>
      </trkpt>
      <trkpt lat="49.382" lon="-1.08629">
        <ele>4.683984</ele>
        <time>2022-08-02T10:31:43.000Z</time>
      </trkpt>
      <trkpt lat="49.38203" lon="-1.08623">
        <ele>4.671454</ele>
        <time>2022-08-02T10:31:44.000Z</time>
      </trkpt>
      <trkpt lat="49.38206" lon="-1.08617">
        <ele>4.658007</ele>
        <time>2022-08-02T10:31:45.000Z</time>
      </trkpt>
      <trkpt lat="49.38209" lon="-1.08612">
        <ele>4.64523</ele>
        <time>2022-08-02T10:31:46.000Z</time>
      </trkpt>
      <trkpt lat="49.38213" lon="-1.08606">
        <ele>4.631795</ele>
        <time>2022-08-02T10:31:47.000Z</time>
      </trkpt>
      <trkpt lat="49.38216" lon="-1.086">
        <ele>4.617581</ele>
        <time>2022-08-02T10:31:48.000Z</time>
      </trkpt>
      <trkpt lat="49.38219" lon="-1.08594">
        <ele>4.605096</ele>
        <time>2022-08-02T10:31:49.000Z</time>
      </trkpt>
      <trkpt lat="49.38222" lon="-1.08588">
        <ele>4.591524</ele>
        <time>2022-08-02T10:31:50.000Z</time>
      </trkpt>
      <trkpt lat="49.38225" lon="-1.08582">
        <ele>4.578617</ele>
        <time>2022-08-02T10:31:51.000Z</time>
      </trkpt>
      <trkpt lat="49.38228" lon="-1.08577">
        <ele>4.566713</ele>
        <time>2022-08-02T10:31:52.000Z</time>
      </trkpt>
      <trkpt lat="49.3823" lon="-1.08571">
        <ele>4.554939</ele>
        <time>2022-08-02T10:31:53.000Z</time>
      </trkpt>
      <trkpt lat="49.38234" lon="-1.08566">
        <ele>4.542794</ele>
        <time>2022-08-02T10:31:54.000Z</time>
      </trkpt>
      <trkpt lat="49.38236" lon="-1.08561">
        <ele>4.531979</ele>
        <time>2022-08-02T10:31:55.000Z</time>
      </trkpt>
      <trkpt lat="49.38239" lon="-1.08556">
        <ele>4.519834</ele>
        <time>2022-08-02T10:31:56.000Z</time>
      </trkpt>
      <trkpt lat="49.38242" lon="-1.08551">
        <ele>4.509381</ele>
        <time>2022-08-02T10:31:57.000Z</time>
      </trkpt>
      <trkpt lat="49.38244" lon="-1.08547">
        <ele>4.498697</ele>
        <time>2022-08-02T10:31:58.000Z</time>
      </trkpt>
      <trkpt lat="49.38246" lon="-1.08542">
        <ele>4.488244</ele>
        <time>2022-08-02T10:31:59.000Z</time>
      </trkpt>
      <trkpt lat="49.38249" lon="-1.08536">
        <ele>4.476252</ele>
        <time>2022-08-02T10:32:00.000Z</time>
      </trkpt>
      <trkpt lat="49.38252" lon="-1.08531">
        <ele>4.463993</ele>
        <time>2022-08-02T10:32:01.000Z</time>
      </trkpt>
      <trkpt lat="49.38255" lon="-1.08525">
        <ele>4.454453</ele>
        <time>2022-08-02T10:32:02.000Z</time>
      </trkpt>
      <trkpt lat="49.38258" lon="-1.08519">
        <ele>4.447881</ele>
        <time>2022-08-02T10:32:03.000Z</time>
      </trkpt>
      <trkpt lat="49.38261" lon="-1.08513">
        <ele>4.44064</ele>
        <time>2022-08-02T10:32:04.000Z</time>
      </trkpt>
      <trkpt lat="49.38264" lon="-1.08507">
        <ele>4.433589</ele>
        <time>2022-08-02T10:32:05.000Z</time>
      </trkpt>
      <trkpt lat="49.38267" lon="-1.08501">
        <ele>4.425981</ele>
        <time>2022-08-02T10:32:06.000Z</time>
      </trkpt>
      <trkpt lat="49.38271" lon="-1.08494">
        <ele>4.418107</ele>
        <time>2022-08-02T10:32:07.000Z</time>
      </trkpt>
      <trkpt lat="49.38274" lon="-1.08488">
        <ele>4.410827</ele>
        <time>2022-08-02T10:32:08.000Z</time>
      </trkpt>
      <trkpt lat="49.38277" lon="-1.08481">
        <ele>4.402953</ele>
        <time>2022-08-02T10:32:09.000Z</time>
      </trkpt>
      <trkpt lat="49.38281" lon="-1.08475">
        <ele>4.395006</ele>
        <time>2022-08-02T10:32:10.000Z</time>
      </trkpt>
      <trkpt lat="49.38284" lon="-1.08468">
        <ele>4.387249</ele>
        <time>2022-08-02T10:32:11.000Z</time>
      </trkpt>
      <trkpt lat="49.38287" lon="-1.08461">
        <ele>4.379139</ele>
        <time>2022-08-02T10:32:12.000Z</time>
      </trkpt>
      <trkpt lat="49.38291" lon="-1.08455">
        <ele>4.371192</ele>
        <time>2022-08-02T10:32:13.000Z</time>
      </trkpt>
      <trkpt lat="49.38294" lon="-1.08448">
        <ele>4.363525</ele>
        <time>2022-08-02T10:32:14.000Z</time>
      </trkpt>
      <trkpt lat="49.38297" lon="-1.08441">
        <ele>4.355285</ele>
        <time>2022-08-02T10:32:15.000Z</time>
      </trkpt>
      <trkpt lat="49.38301" lon="-1.08434">
        <ele>4.347046</ele>
        <time>2022-08-02T10:32:16.000Z</time>
      </trkpt>
      <trkpt lat="49.38304" lon="-1.08427">
        <ele>4.339213</ele>
        <time>2022-08-02T10:32:17.000Z</time>
      </trkpt>
      <trkpt lat="49.38308" lon="-1.0842">
        <ele>4.330704</ele>
        <time>2022-08-02T10:32:18.000Z</time>
      </trkpt>
      <trkpt lat="49.38312" lon="-1.08413">
        <ele>4.322314</ele>
        <time>2022-08-02T10:32:19.000Z</time>
      </trkpt>
      <trkpt lat="49.38315" lon="-1.08407">
        <ele>4.314222</ele>
        <time>2022-08-02T10:32:20.000Z</time>
      </trkpt>
      <trkpt lat="49.38319" lon="-1.084">
        <ele>4.305926</ele>
        <time>2022-08-02T10:32:21.000Z</time>
      </trkpt>
      <trkpt lat="49.38323" lon="-1.08393">
        <ele>4.297599</ele>
        <time>2022-08-02T10:32:22.000Z</time>
      </trkpt>
      <trkpt lat="49.38325" lon="-1.08386">
        <ele>4.290245</ele>
        <time>2022-08-02T10:32:23.000Z</time>
      </trkpt>
      <trkpt lat="49.38329" lon="-1.0838">
        <ele>4.282278</ele>
        <time>2022-08-02T10:32:24.000Z</time>
      </trkpt>
      <trkpt lat="49.38333" lon="-1.08373">
        <ele>4.274475</ele>
        <time>2022-08-02T10:32:25.000Z</time>
      </trkpt>
      <trkpt lat="49.38336" lon="-1.08367">
        <ele>4.267162</ele>
        <time>2022-08-02T10:32:26.000Z</time>
      </trkpt>
      <trkpt lat="49.38339" lon="-1.08361">
        <ele>4.259776</ele>
        <time>2022-08-02T10:32:27.000Z</time>
      </trkpt>
      <trkpt lat="49.38342" lon="-1.08355">
        <ele>4.252649</ele>
        <time>2022-08-02T10:32:28.000Z</time>
      </trkpt>
      <trkpt lat="49.38345" lon="-1.08349">
        <ele>4.245189</ele>
        <time>2022-08-02T10:32:29.000Z</time>
      </trkpt>
      <trkpt lat="49.38348" lon="-1.08343">
        <ele>4.237948</ele>
        <time>2022-08-02T10:32:30.000Z</time>
      </trkpt>
      <trkpt lat="49.38351" lon="-1.08336">
        <ele>4.230904</ele>
        <time>2022-08-02T10:32:31.000Z</time>
      </trkpt>
      <trkpt lat="49.38354" lon="-1.08331">
        <ele>4.223807</ele>
        <time>2022-08-02T10:32:32.000Z</time>
      </trkpt>
      <trkpt lat="49.38357" lon="-1.08325">
        <ele>4.217054</ele>
        <time>2022-08-02T10:32:33.000Z</time>
      </trkpt>
      <trkpt lat="49.3836" lon="-1.08319">
        <ele>4.21048</ele>
        <time>2022-08-02T10:32:34.000Z</time>
      </trkpt>
      <trkpt lat="49.38363" lon="-1.08313">
        <ele>4.202819</ele>
        <time>2022-08-02T10:32:35.000Z</time>
      </trkpt>
      <trkpt lat="49.38366" lon="-1.08307">
        <ele>4.215811</ele>
        <time>2022-08-02T10:32:36.000Z</time>
      </trkpt>
      <trkpt lat="49.38369" lon="-1.083">
        <ele>4.238504</ele>
        <time>2022-08-02T10:32:37.000Z</time>
      </trkpt>
      <trkpt lat="49.38373" lon="-1.08294">
        <ele>4.262964</ele>
        <time>2022-08-02T10:32:38.000Z</time>
      </trkpt>
      <trkpt lat="49.38375" lon="-1.08288">
        <ele>4.28642</ele>
        <time>2022-08-02T10:32:39.000Z</time>
      </trkpt>
      <trkpt lat="49.38378" lon="-1.08282">
        <ele>4.308873</ele>
        <time>2022-08-02T10:32:40.000Z</time>
      </trkpt>
      <trkpt lat="49.38381" lon="-1.08276">
        <ele>4.332673</ele>
        <time>2022-08-02T10:32:41.000Z</time>
      </trkpt>
      <trkpt lat="49.38385" lon="-1.08271">
        <ele>4.356146</ele>
        <time>2022-08-02T10:32:42.000Z</time>
      </trkpt>
      <trkpt lat="49.38389" lon="-1.08267">
        <ele>4.375951</ele>
        <time>2022-08-02T10:32:43.000Z</time>
      </trkpt>
      <trkpt lat="49.38393" lon="-1.08265">
        <ele>4.39627</ele>
        <time>2022-08-02T10:32:44.000Z</time>
      </trkpt>
      <trkpt lat="49.38397" lon="-1.08265">
        <ele>4.415237</ele>
        <time>2022-08-02T10:32:45.000Z</time>
      </trkpt>
      <trkpt lat="49.38401" lon="-1.08267">
        <ele>4.434435</ele>
        <time>2022-08-02T10:32:46.000Z</time>
      </trkpt>
      <trkpt lat="49.38405" lon="-1.08271">
        <ele>4.454908</ele>
        <time>2022-08-02T10:32:47.000Z</time>
      </trkpt>
      <trkpt lat="49.38408" lon="-1.08275">
        <ele>4.475999</ele>
        <time>2022-08-02T10:32:48.000Z</time>
      </trkpt>
      <trkpt lat="49.38412" lon="-1.0828">
        <ele>4.498538</ele>
        <time>2022-08-02T10:32:49.000Z</time>
      </trkpt>
      <trkpt lat="49.38416" lon="-1.08284">
        <ele>4.519822</ele>
        <time>2022-08-02T10:32:50.000Z</time>
      </trkpt>
      <trkpt lat="49.38419" lon="-1.08289">
        <ele>4.541303</ele>
        <time>2022-08-02T10:32:51.000Z</time>
      </trkpt>
      <trkpt lat="49.38423" lon="-1.08294">
        <ele>4.562984</ele>
        <time>2022-08-02T10:32:52.000Z</time>
      </trkpt>
      <trkpt lat="49.38427" lon="-1.08298">
        <ele>4.585523</ele>
        <time>2022-08-02T10:32:53.000Z</time>
      </trkpt>
      <trkpt lat="49.3843" lon="-1.08303">
        <ele>4.607405</ele>
        <time>2022-08-02T10:32:54.000Z</time>
      </trkpt>
      <trkpt lat="49.38434" lon="-1.08308">
        <ele>4.630525</ele>
        <time>2022-08-02T10:32:55.000Z</time>
      </trkpt>
      <trkpt lat="49.38437" lon="-1.08313">
        <ele>4.651192</ele>
        <time>2022-08-02T10:32:56.000Z</time>
      </trkpt>
      <trkpt lat="49.38441" lon="-1.08318">
        <ele>4.672673</ele>
        <time>2022-08-02T10:32:57.000Z</time>
      </trkpt>
      <trkpt lat="49.38445" lon="-1.08323">
        <ele>4.695765</ele>
        <time>2022-08-02T10:32:58.000Z</time>
      </trkpt>
      <trkpt lat="49.38448" lon="-1.08327">
        <ele>4.718309</ele>
        <time>2022-08-02T10:32:59.000Z</time>
      </trkpt>
      <trkpt lat="49.38452" lon="-1.08332">
        <ele>4.739593</ele>
        <time>2022-08-02T10:33:00.000Z</time>
      </trkpt>
      <trkpt lat="49.38456" lon="-1.08337">
        <ele>4.762874</ele>
        <time>2022-08-02T10:33:01.000Z</time>
      </trkpt>
      <trkpt lat="49.3846" lon="-1.08341">
        <ele>4.78523</ele>
        <time>2022-08-02T10:33:02.000Z</time>
      </trkpt>
      <trkpt lat="49.38463" lon="-1.08346">
        <ele>4.805277</ele>
        <time>2022-08-02T10:33:03.000Z</time>
      </trkpt>
      <trkpt lat="49.38467" lon="-1.08349">
        <ele>4.827357</ele>
        <time>2022-08-02T10:33:04.000Z</time>
      </trkpt>
      <trkpt lat="49.38471" lon="-1.08352">
        <ele>4.846963</ele>
        <time>2022-08-02T10:33:05.000Z</time>
      </trkpt>
      <trkpt lat="49.38475" lon="-1.08354">
        <ele>4.865962</ele>
        <time>2022-08-02T10:33:06.000Z</time>
      </trkpt>
      <trkpt lat="49.38478" lon="-1.08356">
        <ele>4.882836</ele>
        <time>2022-08-02T10:33:07.000Z</time>
      </trkpt>
      <trkpt lat="49.38482" lon="-1.08357">
        <ele>4.902244</ele>
        <time>2022-08-02T10:33:08.000Z</time>
      </trkpt>
      <trkpt lat="49.38486" lon="-1.08358">
        <ele>4.921883</ele>
        <time>2022-08-02T10:33:09.000Z</time>
      </trkpt>
      <trkpt lat="49.38491" lon="-1.08359">
        <ele>4.944082</ele>
        <time>2022-08-02T10:33:10.000Z</time>
      </trkpt>
      <trkpt lat="49.38496" lon="-1.08358">
        <ele>4.966392</ele>
        <time>2022-08-02T10:33:11.000Z</time>
      </trkpt>
      <trkpt lat="49.38501" lon="-1.08356">
        <ele>4.990714</ele>
        <time>2022-08-02T10:33:12.000Z</time>
      </trkpt>
      <trkpt lat="49.38505" lon="-1.08353">
        <ele>5.011752</ele>
        <time>2022-08-02T10:33:13.000Z</time>
      </trkpt>
      <trkpt lat="49.3851" lon="-1.0835">
        <ele>5.035058</ele>
        <time>2022-08-02T10:33:14.000Z</time>
      </trkpt>
      <trkpt lat="49.38514" lon="-1.08346">
        <ele>5.051754</ele>
        <time>2022-08-02T10:33:15.000Z</time>
      </trkpt>
      <trkpt lat="49.38518" lon="-1.08341">
        <ele>5.069617</ele>
        <time>2022-08-02T10:33:16.000Z</time>
      </trkpt>
      <trkpt lat="49.38522" lon="-1.08336">
        <ele>5.086963</ele>
        <time>2022-08-02T10:33:17.000Z</time>
      </trkpt>
      <trkpt lat="49.38526" lon="-1.0833">
        <ele>5.104416</ele>
        <time>2022-08-02T10:33:18.000Z</time>
      </trkpt>
      <trkpt lat="49.38529" lon="-1.08324">
        <ele>5.122445</ele>
        <time>2022-08-02T10:33:19.000Z</time>
      </trkpt>
      <trkpt lat="49.38532" lon="-1.08318">
        <ele>5.139167</ele>
        <time>2022-08-02T10:33:20.000Z</time>
      </trkpt>
      <trkpt lat="49.38535" lon="-1.08312">
        <ele>5.157226</ele>
        <time>2022-08-02T10:33:21.000Z</time>
      </trkpt>
      <trkpt lat="49.38538" lon="-1.08306">
        <ele>5.173167</ele>
        <time>2022-08-02T10:33:22.000Z</time>
      </trkpt>
      <trkpt lat="49.38541" lon="-1.083">
        <ele>5.19007</ele>
        <time>2022-08-02T10:33:23.000Z</time>
      </trkpt>
      <trkpt lat="49.38543" lon="-1.08294">
        <ele>5.206574</ele>
        <time>2022-08-02T10:33:24.000Z</time>
      </trkpt>
      <trkpt lat="49.38546" lon="-1.08288">
        <ele>5.222515</ele>
        <time>2022-08-02T10:33:25.000Z</time>
      </trkpt>
      <trkpt lat="49.38548" lon="-1.08281">
        <ele>5.237849</ele>
        <time>2022-08-02T10:33:26.000Z</time>
      </trkpt>
      <trkpt lat="49.38551" lon="-1.08275">
        <ele>5.254752</ele>
        <time>2022-08-02T10:33:27.000Z</time>
      </trkpt>
      <trkpt lat="49.38553" lon="-1.08269">
        <ele>5.270881</ele>
        <time>2022-08-02T10:33:28.000Z</time>
      </trkpt>
      <trkpt lat="49.38556" lon="-1.08263">
        <ele>5.287966</ele>
        <time>2022-08-02T10:33:29.000Z</time>
      </trkpt>
      <trkpt lat="49.38559" lon="-1.08257">
        <ele>5.305323</ele>
        <time>2022-08-02T10:33:30.000Z</time>
      </trkpt>
      <trkpt lat="49.38563" lon="-1.08251">
        <ele>5.324199</ele>
        <time>2022-08-02T10:33:31.000Z</time>
      </trkpt>
      <trkpt lat="49.38566" lon="-1.08244">
        <ele>5.341833</ele>
        <time>2022-08-02T10:33:32.000Z</time>
      </trkpt>
      <trkpt lat="49.38569" lon="-1.08238">
        <ele>5.360367</ele>
        <time>2022-08-02T10:33:33.000Z</time>
      </trkpt>
      <trkpt lat="49.38572" lon="-1.08231">
        <ele>5.378371</ele>
        <time>2022-08-02T10:33:34.000Z</time>
      </trkpt>
      <trkpt lat="49.38576" lon="-1.08224">
        <ele>5.397595</ele>
        <time>2022-08-02T10:33:35.000Z</time>
      </trkpt>
      <trkpt lat="49.38579" lon="-1.08218">
        <ele>5.416644</ele>
        <time>2022-08-02T10:33:36.000Z</time>
      </trkpt>
      <trkpt lat="49.38583" lon="-1.08211">
        <ele>5.435867</ele>
        <time>2022-08-02T10:33:37.000Z</time>
      </trkpt>
      <trkpt lat="49.38586" lon="-1.08204">
        <ele>5.455008</ele>
        <time>2022-08-02T10:33:38.000Z</time>
      </trkpt>
      <trkpt lat="49.38589" lon="-1.08197">
        <ele>5.474406</ele>
        <time>2022-08-02T10:33:39.000Z</time>
      </trkpt>
      <trkpt lat="49.38593" lon="-1.08191">
        <ele>5.494519</ele>
        <time>2022-08-02T10:33:40.000Z</time>
      </trkpt>
      <trkpt lat="49.38597" lon="-1.08184">
        <ele>5.51427</ele>
        <time>2022-08-02T10:33:41.000Z</time>
      </trkpt>
      <trkpt lat="49.386" lon="-1.08177">
        <ele>5.533411</ele>
        <time>2022-08-02T10:33:42.000Z</time>
      </trkpt>
      <trkpt lat="49.38604" lon="-1.08169">
        <ele>5.554153</ele>
        <time>2022-08-02T10:33:43.000Z</time>
      </trkpt>
      <trkpt lat="49.38607" lon="-1.08162">
        <ele>5.574291</ele>
        <time>2022-08-02T10:33:44.000Z</time>
      </trkpt>
      <trkpt lat="49.38611" lon="-1.08155">
        <ele>5.595033</ele>
        <time>2022-08-02T10:33:45.000Z</time>
      </trkpt>
      <trkpt lat="49.38615" lon="-1.08148">
        <ele>5.615321</ele>
        <time>2022-08-02T10:33:46.000Z</time>
      </trkpt>
      <trkpt lat="49.38618" lon="-1.0814">
        <ele>5.635789</ele>
        <time>2022-08-02T10:33:47.000Z</time>
      </trkpt>
      <trkpt lat="49.38622" lon="-1.08133">
        <ele>5.649402</ele>
        <time>2022-08-02T10:33:48.000Z</time>
      </trkpt>
      <trkpt lat="49.38625" lon="-1.08126">
        <ele>5.648403</ele>
        <time>2022-08-02T10:33:49.000Z</time>
      </trkpt>
      <trkpt lat="49.38629" lon="-1.08119">
        <ele>5.647354</ele>
        <time>2022-08-02T10:33:50.000Z</time>
      </trkpt>
      <trkpt lat="49.38633" lon="-1.08112">
        <ele>5.646372</ele>
        <time>2022-08-02T10:33:51.000Z</time>
      </trkpt>
      <trkpt lat="49.38636" lon="-1.08105">
        <ele>5.645363</ele>
        <time>2022-08-02T10:33:52.000Z</time>
      </trkpt>
      <trkpt lat="49.3864" lon="-1.08098">
        <ele>5.64439</ele>
        <time>2022-08-02T10:33:53.000Z</time>
      </trkpt>
      <trkpt lat="49.38644" lon="-1.08092">
        <ele>5.643401</ele>
        <time>2022-08-02T10:33:54.000Z</time>
      </trkpt>
      <trkpt lat="49.38647" lon="-1.08085">
        <ele>5.642376</ele>
        <time>2022-08-02T10:33:55.000Z</time>
      </trkpt>
      <trkpt lat="49.38651" lon="-1.08078">
        <ele>5.64137</ele>
        <time>2022-08-02T10:33:56.000Z</time>
      </trkpt>
      <trkpt lat="49.38655" lon="-1.08071">
        <ele>5.640371</ele>
        <time>2022-08-02T10:33:57.000Z</time>
      </trkpt>
      <trkpt lat="49.38658" lon="-1.08064">
        <ele>5.639372</ele>
        <time>2022-08-02T10:33:58.000Z</time>
      </trkpt>
      <trkpt lat="49.38662" lon="-1.08057">
        <ele>5.63832</ele>
        <time>2022-08-02T10:33:59.000Z</time>
      </trkpt>
      <trkpt lat="49.38665" lon="-1.0805">
        <ele>5.637315</ele>
        <time>2022-08-02T10:34:00.000Z</time>
      </trkpt>
      <trkpt lat="49.38669" lon="-1.08043">
        <ele>5.636288</ele>
        <time>2022-08-02T10:34:01.000Z</time>
      </trkpt>
      <trkpt lat="49.38672" lon="-1.08036">
        <ele>5.635339</ele>
        <time>2022-08-02T10:34:02.000Z</time>
      </trkpt>
      <trkpt lat="49.38676" lon="-1.08029">
        <ele>5.634316</ele>
        <time>2022-08-02T10:34:03.000Z</time>
      </trkpt>
      <trkpt lat="49.38679" lon="-1.08022">
        <ele>5.633348</ele>
        <time>2022-08-02T10:34:04.000Z</time>
      </trkpt>
      <trkpt lat="49.38682" lon="-1.08015">
        <ele>5.63237</ele>
        <time>2022-08-02T10:34:05.000Z</time>
      </trkpt>
      <trkpt lat="49.38686" lon="-1.08008">
        <ele>5.631336</ele>
        <time>2022-08-02T10:34:06.000Z</time>
      </trkpt>
      <trkpt lat="49.38689" lon="-1.08001">
        <ele>5.630386</ele>
        <time>2022-08-02T10:34:07.000Z</time>
      </trkpt>
      <trkpt lat="49.38693" lon="-1.07994">
        <ele>5.62938</ele>
        <time>2022-08-02T10:34:08.000Z</time>
      </trkpt>
      <trkpt lat="49.38697" lon="-1.07988">
        <ele>5.628354</ele>
        <time>2022-08-02T10:34:09.000Z</time>
      </trkpt>
      <trkpt lat="49.38701" lon="-1.0798">
        <ele>5.627337</ele>
        <time>2022-08-02T10:34:10.000Z</time>
      </trkpt>
      <trkpt lat="49.38704" lon="-1.07973">
        <ele>5.626338</ele>
        <time>2022-08-02T10:34:11.000Z</time>
      </trkpt>
      <trkpt lat="49.38707" lon="-1.07967">
        <ele>5.625407</ele>
        <time>2022-08-02T10:34:12.000Z</time>
      </trkpt>
      <trkpt lat="49.38711" lon="-1.0796">
        <ele>5.624384</ele>
        <time>2022-08-02T10:34:13.000Z</time>
      </trkpt>
      <trkpt lat="49.38714" lon="-1.07953">
        <ele>5.623452</ele>
        <time>2022-08-02T10:34:14.000Z</time>
      </trkpt>
      <trkpt lat="49.38718" lon="-1.07947">
        <ele>5.622486</ele>
        <time>2022-08-02T10:34:15.000Z</time>
      </trkpt>
      <trkpt lat="49.38721" lon="-1.07941">
        <ele>5.621651</ele>
        <time>2022-08-02T10:34:16.000Z</time>
      </trkpt>
      <trkpt lat="49.38724" lon="-1.07935">
        <ele>5.620727</ele>
        <time>2022-08-02T10:34:17.000Z</time>
      </trkpt>
      <trkpt lat="49.38727" lon="-1.07929">
        <ele>5.619937</ele>
        <time>2022-08-02T10:34:18.000Z</time>
      </trkpt>
      <trkpt lat="49.3873" lon="-1.07924">
        <ele>5.619195</ele>
        <time>2022-08-02T10:34:19.000Z</time>
      </trkpt>
      <trkpt lat="49.38732" lon="-1.07919">
        <ele>5.61853</ele>
        <time>2022-08-02T10:34:20.000Z</time>
      </trkpt>
      <trkpt lat="49.38734" lon="-1.07914">
        <ele>5.60782</ele>
        <time>2022-08-02T10:34:21.000Z</time>
      </trkpt>
      <trkpt lat="49.38735" lon="-1.07909">
        <ele>5.597101</ele>
        <time>2022-08-02T10:34:22.000Z</time>
      </trkpt>
      <trkpt lat="49.38736" lon="-1.07904">
        <ele>5.585399</ele>
        <time>2022-08-02T10:34:23.000Z</time>
      </trkpt>
      <trkpt lat="49.38736" lon="-1.07899">
        <ele>5.573995</ele>
        <time>2022-08-02T10:34:24.000Z</time>
      </trkpt>
      <trkpt lat="49.38736" lon="-1.07893">
        <ele>5.56218</ele>
        <time>2022-08-02T10:34:25.000Z</time>
      </trkpt>
      <trkpt lat="49.38735" lon="-1.07887">
        <ele>5.549896</ele>
        <time>2022-08-02T10:34:26.000Z</time>
      </trkpt>
      <trkpt lat="49.38733" lon="-1.07882">
        <ele>5.536733</ele>
        <time>2022-08-02T10:34:27.000Z</time>
      </trkpt>
      <trkpt lat="49.3873" lon="-1.07877">
        <ele>5.52365</ele>
        <time>2022-08-02T10:34:28.000Z</time>
      </trkpt>
      <trkpt lat="49.38726" lon="-1.07873">
        <ele>5.509803</ele>
        <time>2022-08-02T10:34:29.000Z</time>
      </trkpt>
      <trkpt lat="49.38722" lon="-1.07871">
        <ele>5.495431</ele>
        <time>2022-08-02T10:34:30.000Z</time>
      </trkpt>
      <trkpt lat="49.38718" lon="-1.07869">
        <ele>5.481951</ele>
        <time>2022-08-02T10:34:31.000Z</time>
      </trkpt>
      <trkpt lat="49.38713" lon="-1.07868">
        <ele>5.465229</ele>
        <time>2022-08-02T10:34:32.000Z</time>
      </trkpt>
      <trkpt lat="49.38708" lon="-1.07866">
        <ele>5.449681</ele>
        <time>2022-08-02T10:34:33.000Z</time>
      </trkpt>
      <trkpt lat="49.38703" lon="-1.07865">
        <ele>5.434133</ele>
        <time>2022-08-02T10:34:34.000Z</time>
      </trkpt>
      <trkpt lat="49.38698" lon="-1.07863">
        <ele>5.417476</ele>
        <time>2022-08-02T10:34:35.000Z</time>
      </trkpt>
      <trkpt lat="49.38693" lon="-1.07861">
        <ele>5.401634</ele>
        <time>2022-08-02T10:34:36.000Z</time>
      </trkpt>
      <trkpt lat="49.38689" lon="-1.07858">
        <ele>5.386446</ele>
        <time>2022-08-02T10:34:37.000Z</time>
      </trkpt>
      <trkpt lat="49.38684" lon="-1.07856">
        <ele>5.371407</ele>
        <time>2022-08-02T10:34:38.000Z</time>
      </trkpt>
      <trkpt lat="49.3868" lon="-1.07853">
        <ele>5.356705</ele>
        <time>2022-08-02T10:34:39.000Z</time>
      </trkpt>
      <trkpt lat="49.38676" lon="-1.07849">
        <ele>5.341731</ele>
        <time>2022-08-02T10:34:40.000Z</time>
      </trkpt>
      <trkpt lat="49.38671" lon="-1.07846">
        <ele>5.325123</ele>
        <time>2022-08-02T10:34:41.000Z</time>
      </trkpt>
      <trkpt lat="49.38667" lon="-1.07843">
        <ele>5.309843</ele>
        <time>2022-08-02T10:34:42.000Z</time>
      </trkpt>
      <trkpt lat="49.38662" lon="-1.0784">
        <ele>5.295141</ele>
        <time>2022-08-02T10:34:43.000Z</time>
      </trkpt>
      <trkpt lat="49.38658" lon="-1.07837">
        <ele>5.279807</ele>
        <time>2022-08-02T10:34:44.000Z</time>
      </trkpt>
      <trkpt lat="49.38653" lon="-1.07835">
        <ele>5.264618</ele>
        <time>2022-08-02T10:34:45.000Z</time>
      </trkpt>
      <trkpt lat="49.38649" lon="-1.07832">
        <ele>5.250376</ele>
        <time>2022-08-02T10:34:46.000Z</time>
      </trkpt>
      <trkpt lat="49.38645" lon="-1.07829">
        <ele>5.235674</ele>
        <time>2022-08-02T10:34:47.000Z</time>
      </trkpt>
      <trkpt lat="49.38641" lon="-1.07826">
        <ele>5.222113</ele>
        <time>2022-08-02T10:34:48.000Z</time>
      </trkpt>
      <trkpt lat="49.38637" lon="-1.07823">
        <ele>5.20758</ele>
        <time>2022-08-02T10:34:49.000Z</time>
      </trkpt>
      <trkpt lat="49.38633" lon="-1.07821">
        <ele>5.194459</ele>
        <time>2022-08-02T10:34:50.000Z</time>
      </trkpt>
      <trkpt lat="49.38629" lon="-1.07818">
        <ele>5.180008</ele>
        <time>2022-08-02T10:34:51.000Z</time>
      </trkpt>
      <trkpt lat="49.38625" lon="-1.07815">
        <ele>5.165849</ele>
        <time>2022-08-02T10:34:52.000Z</time>
      </trkpt>
      <trkpt lat="49.38621" lon="-1.07813">
        <ele>5.150438</ele>
        <time>2022-08-02T10:34:53.000Z</time>
      </trkpt>
      <trkpt lat="49.38616" lon="-1.07809">
        <ele>5.135557</ele>
        <time>2022-08-02T10:34:54.000Z</time>
      </trkpt>
      <trkpt lat="49.38612" lon="-1.07806">
        <ele>5.11903</ele>
        <time>2022-08-02T10:34:55.000Z</time>
      </trkpt>
      <trkpt lat="49.38607" lon="-1.07803">
        <ele>5.103112</ele>
        <time>2022-08-02T10:34:56.000Z</time>
      </trkpt>
      <trkpt lat="49.38603" lon="-1.078">
        <ele>5.087995</ele>
        <time>2022-08-02T10:34:57.000Z</time>
      </trkpt>
      <trkpt lat="49.38598" lon="-1.07797">
        <ele>5.073544</ele>
        <time>2022-08-02T10:34:58.000Z</time>
      </trkpt>
      <trkpt lat="49.38594" lon="-1.07795">
        <ele>5.057247</ele>
        <time>2022-08-02T10:34:59.000Z</time>
      </trkpt>
      <trkpt lat="49.38589" lon="-1.07792">
        <ele>5.049673</ele>
        <time>2022-08-02T10:35:00.000Z</time>
      </trkpt>
      <trkpt lat="49.38585" lon="-1.07788">
        <ele>5.056224</ele>
        <time>2022-08-02T10:35:01.000Z</time>
      </trkpt>
      <trkpt lat="49.38581" lon="-1.07785">
        <ele>5.062861</ele>
        <time>2022-08-02T10:35:02.000Z</time>
      </trkpt>
      <trkpt lat="49.38576" lon="-1.07782">
        <ele>5.069463</ele>
        <time>2022-08-02T10:35:03.000Z</time>
      </trkpt>
      <trkpt lat="49.38572" lon="-1.07779">
        <ele>5.076212</ele>
        <time>2022-08-02T10:35:04.000Z</time>
      </trkpt>
      <trkpt lat="49.38567" lon="-1.07776">
        <ele>5.082324</ele>
        <time>2022-08-02T10:35:05.000Z</time>
      </trkpt>
      <trkpt lat="49.38563" lon="-1.07773">
        <ele>5.088926</ele>
        <time>2022-08-02T10:35:06.000Z</time>
      </trkpt>
      <trkpt lat="49.38559" lon="-1.0777">
        <ele>5.095196</ele>
        <time>2022-08-02T10:35:07.000Z</time>
      </trkpt>
      <trkpt lat="49.38554" lon="-1.07767">
        <ele>5.10217</ele>
        <time>2022-08-02T10:35:08.000Z</time>
      </trkpt>
      <trkpt lat="49.3855" lon="-1.07764">
        <ele>5.108245</ele>
        <time>2022-08-02T10:35:09.000Z</time>
      </trkpt>
      <trkpt lat="49.38545" lon="-1.07761">
        <ele>5.114847</ele>
        <time>2022-08-02T10:35:10.000Z</time>
      </trkpt>
      <trkpt lat="49.38541" lon="-1.07758">
        <ele>5.12108</ele>
        <time>2022-08-02T10:35:11.000Z</time>
      </trkpt>
      <trkpt lat="49.38537" lon="-1.07755">
        <ele>5.127192</ele>
        <time>2022-08-02T10:35:12.000Z</time>
      </trkpt>
      <trkpt lat="49.38532" lon="-1.07752">
        <ele>5.1342</ele>
        <time>2022-08-02T10:35:13.000Z</time>
      </trkpt>
      <trkpt lat="49.38528" lon="-1.07748">
        <ele>5.140589</ele>
        <time>2022-08-02T10:35:14.000Z</time>
      </trkpt>
      <trkpt lat="49.38524" lon="-1.07745">
        <ele>5.14686</ele>
        <time>2022-08-02T10:35:15.000Z</time>
      </trkpt>
      <trkpt lat="49.3852" lon="-1.07742">
        <ele>5.15313</ele>
        <time>2022-08-02T10:35:16.000Z</time>
      </trkpt>
      <trkpt lat="49.38516" lon="-1.07739">
        <ele>5.159479</ele>
        <time>2022-08-02T10:35:17.000Z</time>
      </trkpt>
      <trkpt lat="49.38511" lon="-1.07735">
        <ele>5.165878</ele>
        <time>2022-08-02T10:35:18.000Z</time>
      </trkpt>
      <trkpt lat="49.38507" lon="-1.07731">
        <ele>5.172351</ele>
        <time>2022-08-02T10:35:19.000Z</time>
      </trkpt>
      <trkpt lat="49.38502" lon="-1.07727">
        <ele>5.179659</ele>
        <time>2022-08-02T10:35:20.000Z</time>
      </trkpt>
      <trkpt lat="49.38498" lon="-1.07724">
        <ele>5.186447</ele>
        <time>2022-08-02T10:35:21.000Z</time>
      </trkpt>
      <trkpt lat="49.38494" lon="-1.0772">
        <ele>5.19276</ele>
        <time>2022-08-02T10:35:22.000Z</time>
      </trkpt>
      <trkpt lat="49.38489" lon="-1.07717">
        <ele>5.19947</ele>
        <time>2022-08-02T10:35:23.000Z</time>
      </trkpt>
      <trkpt lat="49.38485" lon="-1.07714">
        <ele>5.206258</ele>
        <time>2022-08-02T10:35:24.000Z</time>
      </trkpt>
      <trkpt lat="49.38481" lon="-1.07711">
        <ele>5.211652</ele>
        <time>2022-08-02T10:35:25.000Z</time>
      </trkpt>
      <trkpt lat="49.38477" lon="-1.07707">
        <ele>5.217603</ele>
        <time>2022-08-02T10:35:26.000Z</time>
      </trkpt>
      <trkpt lat="49.38474" lon="-1.07704">
        <ele>5.223477</ele>
        <time>2022-08-02T10:35:27.000Z</time>
      </trkpt>
      <trkpt lat="49.38469" lon="-1.077">
        <ele>5.229993</ele>
        <time>2022-08-02T10:35:28.000Z</time>
      </trkpt>
      <trkpt lat="49.38465" lon="-1.07697">
        <ele>5.237182</ele>
        <time>2022-08-02T10:35:29.000Z</time>
      </trkpt>
      <trkpt lat="49.38461" lon="-1.07693">
        <ele>5.243581</ele>
        <time>2022-08-02T10:35:30.000Z</time>
      </trkpt>
      <trkpt lat="49.38456" lon="-1.07689">
        <ele>5.250668</ele>
        <time>2022-08-02T10:35:31.000Z</time>
      </trkpt>
      <trkpt lat="49.38452" lon="-1.07685">
        <ele>5.257365</ele>
        <time>2022-08-02T10:35:32.000Z</time>
      </trkpt>
      <trkpt lat="49.38447" lon="-1.07681">
        <ele>5.264673</ele>
        <time>2022-08-02T10:35:33.000Z</time>
      </trkpt>
      <trkpt lat="49.38443" lon="-1.07677">
        <ele>5.271028</ele>
        <time>2022-08-02T10:35:34.000Z</time>
      </trkpt>
      <trkpt lat="49.38439" lon="-1.07674">
        <ele>5.277544</ele>
        <time>2022-08-02T10:35:35.000Z</time>
      </trkpt>
      <trkpt lat="49.38434" lon="-1.0767">
        <ele>5.284413</ele>
        <time>2022-08-02T10:35:36.000Z</time>
      </trkpt>
      <trkpt lat="49.3843" lon="-1.07666">
        <ele>5.287584</ele>
        <time>2022-08-02T10:35:37.000Z</time>
      </trkpt>
      <trkpt lat="49.38426" lon="-1.07662">
        <ele>5.276986</ele>
        <time>2022-08-02T10:35:38.000Z</time>
      </trkpt>
      <trkpt lat="49.38421" lon="-1.07658">
        <ele>5.265791</ele>
        <time>2022-08-02T10:35:39.000Z</time>
      </trkpt>
      <trkpt lat="49.38417" lon="-1.07654">
        <ele>5.255575</ele>
        <time>2022-08-02T10:35:40.000Z</time>
      </trkpt>
      <trkpt lat="49.38412" lon="-1.0765">
        <ele>5.24535</ele>
        <time>2022-08-02T10:35:41.000Z</time>
      </trkpt>
      <trkpt lat="49.38407" lon="-1.07646">
        <ele>5.234461</ele>
        <time>2022-08-02T10:35:42.000Z</time>
      </trkpt>
      <trkpt lat="49.38403" lon="-1.07642">
        <ele>5.224457</ele>
        <time>2022-08-02T10:35:43.000Z</time>
      </trkpt>
      <trkpt lat="49.38399" lon="-1.07638">
        <ele>5.214383</ele>
        <time>2022-08-02T10:35:44.000Z</time>
      </trkpt>
      <trkpt lat="49.38395" lon="-1.07634">
        <ele>5.204482</ele>
        <time>2022-08-02T10:35:45.000Z</time>
      </trkpt>
      <trkpt lat="49.38391" lon="-1.07631">
        <ele>5.195275</ele>
        <time>2022-08-02T10:35:46.000Z</time>
      </trkpt>
      <trkpt lat="49.38387" lon="-1.07628">
        <ele>5.186233</ele>
        <time>2022-08-02T10:35:47.000Z</time>
      </trkpt>
      <trkpt lat="49.38383" lon="-1.07625">
        <ele>5.176846</ele>
        <time>2022-08-02T10:35:48.000Z</time>
      </trkpt>
      <trkpt lat="49.38378" lon="-1.07622">
        <ele>5.166681</ele>
        <time>2022-08-02T10:35:49.000Z</time>
      </trkpt>
      <trkpt lat="49.38374" lon="-1.07618">
        <ele>5.156781</ele>
        <time>2022-08-02T10:35:50.000Z</time>
      </trkpt>
      <trkpt lat="49.3837" lon="-1.07614">
        <ele>5.145977</ele>
        <time>2022-08-02T10:35:51.000Z</time>
      </trkpt>
      <trkpt lat="49.38365" lon="-1.0761">
        <ele>5.135244</ele>
        <time>2022-08-02T10:35:52.000Z</time>
      </trkpt>
      <trkpt lat="49.38361" lon="-1.07605">
        <ele>5.125198</ele>
        <time>2022-08-02T10:35:53.000Z</time>
      </trkpt>
      <trkpt lat="49.38357" lon="-1.07601">
        <ele>5.1146</ele>
        <time>2022-08-02T10:35:54.000Z</time>
      </trkpt>
      <trkpt lat="49.38352" lon="-1.07597">
        <ele>5.103468</ele>
        <time>2022-08-02T10:35:55.000Z</time>
      </trkpt>
      <trkpt lat="49.38348" lon="-1.07593">
        <ele>5.094332</ele>
        <time>2022-08-02T10:35:56.000Z</time>
      </trkpt>
      <trkpt lat="49.38344" lon="-1.07589">
        <ele>5.083734</ele>
        <time>2022-08-02T10:35:57.000Z</time>
      </trkpt>
      <trkpt lat="49.3834" lon="-1.07586">
        <ele>5.073994</ele>
        <time>2022-08-02T10:35:58.000Z</time>
      </trkpt>
      <trkpt lat="49.38335" lon="-1.07582">
        <ele>5.064558</ele>
        <time>2022-08-02T10:35:59.000Z</time>
      </trkpt>
      <trkpt lat="49.38331" lon="-1.07579">
        <ele>5.054154</ele>
        <time>2022-08-02T10:36:00.000Z</time>
      </trkpt>
      <trkpt lat="49.38327" lon="-1.07574">
        <ele>5.043938</ele>
        <time>2022-08-02T10:36:01.000Z</time>
      </trkpt>
      <trkpt lat="49.38323" lon="-1.0757">
        <ele>5.034472</ele>
        <time>2022-08-02T10:36:02.000Z</time>
      </trkpt>
      <trkpt lat="49.38319" lon="-1.07566">
        <ele>5.024608</ele>
        <time>2022-08-02T10:36:03.000Z</time>
      </trkpt>
      <trkpt lat="49.38315" lon="-1.07562">
        <ele>5.014707</ele>
        <time>2022-08-02T10:36:04.000Z</time>
      </trkpt>
      <trkpt lat="49.38311" lon="-1.07558">
        <ele>5.004921</ele>
        <time>2022-08-02T10:36:05.000Z</time>
      </trkpt>
      <trkpt lat="49.38307" lon="-1.07553">
        <ele>4.994801</ele>
        <time>2022-08-02T10:36:06.000Z</time>
      </trkpt>
      <trkpt lat="49.38303" lon="-1.07549">
        <ele>4.984438</ele>
        <time>2022-08-02T10:36:07.000Z</time>
      </trkpt>
      <trkpt lat="49.38299" lon="-1.07545">
        <ele>4.974465</ele>
        <time>2022-08-02T10:36:08.000Z</time>
      </trkpt>
      <trkpt lat="49.38294" lon="-1.07541">
        <ele>4.963867</ele>
        <time>2022-08-02T10:36:09.000Z</time>
      </trkpt>
      <trkpt lat="49.3829" lon="-1.07537">
        <ele>4.953269</ele>
        <time>2022-08-02T10:36:10.000Z</time>
      </trkpt>
      <trkpt lat="49.38286" lon="-1.07533">
        <ele>4.943726</ele>
        <time>2022-08-02T10:36:11.000Z</time>
      </trkpt>
      <trkpt lat="49.38282" lon="-1.07528">
        <ele>4.93351</ele>
        <time>2022-08-02T10:36:12.000Z</time>
      </trkpt>
      <trkpt lat="49.38277" lon="-1.07524">
        <ele>4.923252</ele>
        <time>2022-08-02T10:36:13.000Z</time>
      </trkpt>
      <trkpt lat="49.38273" lon="-1.0752">
        <ele>4.978792</ele>
        <time>2022-08-02T10:36:14.000Z</time>
      </trkpt>
      <trkpt lat="49.38269" lon="-1.07516">
        <ele>5.032415</ele>
        <time>2022-08-02T10:36:15.000Z</time>
      </trkpt>
      <trkpt lat="49.38265" lon="-1.07513">
        <ele>5.083081</ele>
        <time>2022-08-02T10:36:16.000Z</time>
      </trkpt>
      <trkpt lat="49.38262" lon="-1.0751">
        <ele>5.12928</ele>
        <time>2022-08-02T10:36:17.000Z</time>
      </trkpt>
      <trkpt lat="49.38258" lon="-1.07507">
        <ele>5.177322</ele>
        <time>2022-08-02T10:36:18.000Z</time>
      </trkpt>
      <trkpt lat="49.38254" lon="-1.07505">
        <ele>5.223501</ele>
        <time>2022-08-02T10:36:19.000Z</time>
      </trkpt>
      <trkpt lat="49.3825" lon="-1.07503">
        <ele>5.274243</ele>
        <time>2022-08-02T10:36:20.000Z</time>
      </trkpt>
      <trkpt lat="49.38246" lon="-1.075">
        <ele>5.322437</ele>
        <time>2022-08-02T10:36:21.000Z</time>
      </trkpt>
      <trkpt lat="49.38242" lon="-1.07497">
        <ele>5.372312</ele>
        <time>2022-08-02T10:36:22.000Z</time>
      </trkpt>
      <trkpt lat="49.38239" lon="-1.07495">
        <ele>5.410116</ele>
        <time>2022-08-02T10:36:23.000Z</time>
      </trkpt>
      <trkpt lat="49.38236" lon="-1.07493">
        <ele>5.453892</ele>
        <time>2022-08-02T10:36:24.000Z</time>
      </trkpt>
      <trkpt lat="49.38232" lon="-1.07491">
        <ele>5.499364</ele>
        <time>2022-08-02T10:36:25.000Z</time>
      </trkpt>
      <trkpt lat="49.38228" lon="-1.07489">
        <ele>5.545061</ele>
        <time>2022-08-02T10:36:26.000Z</time>
      </trkpt>
      <trkpt lat="49.38225" lon="-1.07487">
        <ele>5.589645</ele>
        <time>2022-08-02T10:36:27.000Z</time>
      </trkpt>
      <trkpt lat="49.38221" lon="-1.07484">
        <ele>5.63477</ele>
        <time>2022-08-02T10:36:28.000Z</time>
      </trkpt>
      <trkpt lat="49.38218" lon="-1.0748">
        <ele>5.680347</ele>
        <time>2022-08-02T10:36:29.000Z</time>
      </trkpt>
      <trkpt lat="49.38216" lon="-1.07475">
        <ele>5.723445</ele>
        <time>2022-08-02T10:36:30.000Z</time>
      </trkpt>
      <trkpt lat="49.38216" lon="-1.07469">
        <ele>5.764959</ele>
        <time>2022-08-02T10:36:31.000Z</time>
      </trkpt>
      <trkpt lat="49.38216" lon="-1.07463">
        <ele>5.809625</ele>
        <time>2022-08-02T10:36:32.000Z</time>
      </trkpt>
      <trkpt lat="49.38216" lon="-1.07457">
        <ele>5.857023</ele>
        <time>2022-08-02T10:36:33.000Z</time>
      </trkpt>
      <trkpt lat="49.38217" lon="-1.0745">
        <ele>5.906744</ele>
        <time>2022-08-02T10:36:34.000Z</time>
      </trkpt>
      <trkpt lat="49.38219" lon="-1.07444">
        <ele>5.955233</ele>
        <time>2022-08-02T10:36:35.000Z</time>
      </trkpt>
      <trkpt lat="49.3822" lon="-1.07438">
        <ele>6.003384</ele>
        <time>2022-08-02T10:36:36.000Z</time>
      </trkpt>
      <trkpt lat="49.38222" lon="-1.07432">
        <ele>6.050933</ele>
        <time>2022-08-02T10:36:37.000Z</time>
      </trkpt>
      <trkpt lat="49.38224" lon="-1.07427">
        <ele>6.098604</ele>
        <time>2022-08-02T10:36:38.000Z</time>
      </trkpt>
      <trkpt lat="49.38225" lon="-1.07421">
        <ele>6.145498</ele>
        <time>2022-08-02T10:36:39.000Z</time>
      </trkpt>
      <trkpt lat="49.38226" lon="-1.07415">
        <ele>6.191333</ele>
        <time>2022-08-02T10:36:40.000Z</time>
      </trkpt>
      <trkpt lat="49.38228" lon="-1.07409">
        <ele>6.237542</ele>
        <time>2022-08-02T10:36:41.000Z</time>
      </trkpt>
      <trkpt lat="49.38229" lon="-1.07404">
        <ele>6.281101</ele>
        <time>2022-08-02T10:36:42.000Z</time>
      </trkpt>
      <trkpt lat="49.3823" lon="-1.07399">
        <ele>6.321181</ele>
        <time>2022-08-02T10:36:43.000Z</time>
      </trkpt>
      <trkpt lat="49.38231" lon="-1.07394">
        <ele>6.360119</ele>
        <time>2022-08-02T10:36:44.000Z</time>
      </trkpt>
      <trkpt lat="49.38232" lon="-1.07389">
        <ele>6.398736</ele>
        <time>2022-08-02T10:36:45.000Z</time>
      </trkpt>
      <trkpt lat="49.38234" lon="-1.07384">
        <ele>6.438816</ele>
        <time>2022-08-02T10:36:46.000Z</time>
      </trkpt>
      <trkpt lat="49.38234" lon="-1.07378">
        <ele>6.478863</ele>
        <time>2022-08-02T10:36:47.000Z</time>
      </trkpt>
      <trkpt lat="49.38236" lon="-1.07373">
        <ele>6.520329</ele>
        <time>2022-08-02T10:36:48.000Z</time>
      </trkpt>
      <trkpt lat="49.38237" lon="-1.07367">
        <ele>6.566538</ele>
        <time>2022-08-02T10:36:49.000Z</time>
      </trkpt>
      <trkpt lat="49.38238" lon="-1.07362">
        <ele>6.609765</ele>
        <time>2022-08-02T10:36:50.000Z</time>
      </trkpt>
      <trkpt lat="49.38239" lon="-1.07356">
        <ele>6.655601</ele>
        <time>2022-08-02T10:36:51.000Z</time>
      </trkpt>
      <trkpt lat="49.3824" lon="-1.0735">
        <ele>6.702444</ele>
        <time>2022-08-02T10:36:52.000Z</time>
      </trkpt>
      <trkpt lat="49.3824" lon="-1.07343">
        <ele>6.749343</ele>
        <time>2022-08-02T10:36:53.000Z</time>
      </trkpt>
      <trkpt lat="49.3824" lon="-1.07337">
        <ele>6.799337</ele>
        <time>2022-08-02T10:36:54.000Z</time>
      </trkpt>
      <trkpt lat="49.3824" lon="-1.0733">
        <ele>6.847846</ele>
        <time>2022-08-02T10:36:55.000Z</time>
      </trkpt>
      <trkpt lat="49.38238" lon="-1.07324">
        <ele>6.894921</ele>
        <time>2022-08-02T10:36:56.000Z</time>
      </trkpt>
      <trkpt lat="49.38237" lon="-1.07318">
        <ele>6.94459</ele>
        <time>2022-08-02T10:36:57.000Z</time>
      </trkpt>
      <trkpt lat="49.38234" lon="-1.07312">
        <ele>7.007257</ele>
        <time>2022-08-02T10:36:58.000Z</time>
      </trkpt>
      <trkpt lat="49.38232" lon="-1.07306">
        <ele>7.094684</ele>
        <time>2022-08-02T10:36:59.000Z</time>
      </trkpt>
      <trkpt lat="49.3823" lon="-1.073">
        <ele>7.186146</ele>
        <time>2022-08-02T10:37:00.000Z</time>
      </trkpt>
      <trkpt lat="49.38228" lon="-1.07295">
        <ele>7.276348</ele>
        <time>2022-08-02T10:37:01.000Z</time>
      </trkpt>
      <trkpt lat="49.38226" lon="-1.07289">
        <ele>7.364967</ele>
        <time>2022-08-02T10:37:02.000Z</time>
      </trkpt>
      <trkpt lat="49.38224" lon="-1.07283">
        <ele>7.454125</ele>
        <time>2022-08-02T10:37:03.000Z</time>
      </trkpt>
      <trkpt lat="49.38222" lon="-1.07277">
        <ele>7.540243</ele>
        <time>2022-08-02T10:37:04.000Z</time>
      </trkpt>
      <trkpt lat="49.38221" lon="-1.07271">
        <ele>7.625134</ele>
        <time>2022-08-02T10:37:05.000Z</time>
      </trkpt>
      <trkpt lat="49.38219" lon="-1.07265">
        <ele>7.713753</ele>
        <time>2022-08-02T10:37:06.000Z</time>
      </trkpt>
      <trkpt lat="49.38217" lon="-1.07259">
        <ele>7.797428</ele>
        <time>2022-08-02T10:37:07.000Z</time>
      </trkpt>
      <trkpt lat="49.38215" lon="-1.07254">
        <ele>7.880126</ele>
        <time>2022-08-02T10:37:08.000Z</time>
      </trkpt>
      <trkpt lat="49.38214" lon="-1.07248">
        <ele>7.95932</ele>
        <time>2022-08-02T10:37:09.000Z</time>
      </trkpt>
      <trkpt lat="49.38213" lon="-1.07242">
        <ele>8.040793</ele>
        <time>2022-08-02T10:37:10.000Z</time>
      </trkpt>
      <trkpt lat="49.38212" lon="-1.07236">
        <ele>8.121755</ele>
        <time>2022-08-02T10:37:11.000Z</time>
      </trkpt>
      <trkpt lat="49.38211" lon="-1.0723">
        <ele>8.203854</ele>
        <time>2022-08-02T10:37:12.000Z</time>
      </trkpt>
      <trkpt lat="49.3821" lon="-1.07225">
        <ele>8.283545</ele>
        <time>2022-08-02T10:37:13.000Z</time>
      </trkpt>
      <trkpt lat="49.38208" lon="-1.07219">
        <ele>8.36599</ele>
        <time>2022-08-02T10:37:14.000Z</time>
      </trkpt>
      <trkpt lat="49.38207" lon="-1.07213">
        <ele>8.444957</ele>
        <time>2022-08-02T10:37:15.000Z</time>
      </trkpt>
      <trkpt lat="49.38206" lon="-1.07208">
        <ele>8.522859</ele>
        <time>2022-08-02T10:37:16.000Z</time>
      </trkpt>
      <trkpt lat="49.38205" lon="-1.07202">
        <ele>8.604332</ele>
        <time>2022-08-02T10:37:17.000Z</time>
      </trkpt>
      <trkpt lat="49.38204" lon="-1.07196">
        <ele>8.685309</ele>
        <time>2022-08-02T10:37:18.000Z</time>
      </trkpt>
      <trkpt lat="49.38202" lon="-1.0719">
        <ele>8.769298</ele>
        <time>2022-08-02T10:37:19.000Z</time>
      </trkpt>
      <trkpt lat="49.38202" lon="-1.07183">
        <ele>8.860442</ele>
        <time>2022-08-02T10:37:20.000Z</time>
      </trkpt>
      <trkpt lat="49.382" lon="-1.07176">
        <ele>8.959682</ele>
        <time>2022-08-02T10:37:21.000Z</time>
      </trkpt>
      <trkpt lat="49.382" lon="-1.07168">
        <ele>9.061365</ele>
        <time>2022-08-02T10:37:22.000Z</time>
      </trkpt>
      <trkpt lat="49.38198" lon="-1.0716">
        <ele>9.170881</ele>
        <time>2022-08-02T10:37:23.000Z</time>
      </trkpt>
      <trkpt lat="49.38197" lon="-1.07152">
        <ele>9.277774</ele>
        <time>2022-08-02T10:37:24.000Z</time>
      </trkpt>
      <trkpt lat="49.38196" lon="-1.07145">
        <ele>9.380354</ele>
        <time>2022-08-02T10:37:25.000Z</time>
      </trkpt>
      <trkpt lat="49.38196" lon="-1.07137">
        <ele>9.480987</ele>
        <time>2022-08-02T10:37:26.000Z</time>
      </trkpt>
      <trkpt lat="49.38194" lon="-1.07131">
        <ele>9.575119</ele>
        <time>2022-08-02T10:37:27.000Z</time>
      </trkpt>
      <trkpt lat="49.38194" lon="-1.07124">
        <ele>9.659686</ele>
        <time>2022-08-02T10:37:28.000Z</time>
      </trkpt>
      <trkpt lat="49.38192" lon="-1.07118">
        <ele>9.742417</ele>
        <time>2022-08-02T10:37:29.000Z</time>
      </trkpt>
      <trkpt lat="49.38192" lon="-1.07113">
        <ele>9.817797</ele>
        <time>2022-08-02T10:37:30.000Z</time>
      </trkpt>
      <trkpt lat="49.38191" lon="-1.07107">
        <ele>9.892365</ele>
        <time>2022-08-02T10:37:31.000Z</time>
      </trkpt>
      <trkpt lat="49.3819" lon="-1.07102">
        <ele>9.966435</ele>
        <time>2022-08-02T10:37:32.000Z</time>
      </trkpt>
      <trkpt lat="49.38189" lon="-1.07096">
        <ele>10.042173</ele>
        <time>2022-08-02T10:37:33.000Z</time>
      </trkpt>
      <trkpt lat="49.38189" lon="-1.07091">
        <ele>10.117497</ele>
        <time>2022-08-02T10:37:34.000Z</time>
      </trkpt>
      <trkpt lat="49.38188" lon="-1.07085">
        <ele>10.197152</ele>
        <time>2022-08-02T10:37:35.000Z</time>
      </trkpt>
      <trkpt lat="49.38187" lon="-1.07079">
        <ele>10.276346</ele>
        <time>2022-08-02T10:37:36.000Z</time>
      </trkpt>
      <trkpt lat="49.38187" lon="-1.07073">
        <ele>10.360246</ele>
        <time>2022-08-02T10:37:37.000Z</time>
      </trkpt>
      <trkpt lat="49.38186" lon="-1.07066">
        <ele>10.446964</ele>
        <time>2022-08-02T10:37:38.000Z</time>
      </trkpt>
      <trkpt lat="49.38186" lon="-1.0706">
        <ele>10.535954</ele>
        <time>2022-08-02T10:37:39.000Z</time>
      </trkpt>
      <trkpt lat="49.38186" lon="-1.07053">
        <ele>10.624944</ele>
        <time>2022-08-02T10:37:40.000Z</time>
      </trkpt>
      <trkpt lat="49.38187" lon="-1.07046">
        <ele>10.696728</ele>
        <time>2022-08-02T10:37:41.000Z</time>
      </trkpt>
      <trkpt lat="49.38187" lon="-1.0704">
        <ele>10.763</ele>
        <time>2022-08-02T10:37:42.000Z</time>
      </trkpt>
      <trkpt lat="49.38187" lon="-1.07033">
        <ele>10.825482</ele>
        <time>2022-08-02T10:37:43.000Z</time>
      </trkpt>
      <trkpt lat="49.38188" lon="-1.07027">
        <ele>10.892741</ele>
        <time>2022-08-02T10:37:44.000Z</time>
      </trkpt>
      <trkpt lat="49.38189" lon="-1.0702">
        <ele>10.959569</ele>
        <time>2022-08-02T10:37:45.000Z</time>
      </trkpt>
      <trkpt lat="49.3819" lon="-1.07014">
        <ele>11.019228</ele>
        <time>2022-08-02T10:37:46.000Z</time>
      </trkpt>
      <trkpt lat="49.3819" lon="-1.07008">
        <ele>11.081227</ele>
        <time>2022-08-02T10:37:47.000Z</time>
      </trkpt>
      <trkpt lat="49.38192" lon="-1.07002">
        <ele>11.145656</ele>
        <time>2022-08-02T10:37:48.000Z</time>
      </trkpt>
      <trkpt lat="49.38193" lon="-1.06996">
        <ele>11.204632</ele>
        <time>2022-08-02T10:37:49.000Z</time>
      </trkpt>
      <trkpt lat="49.38194" lon="-1.0699">
        <ele>11.265307</ele>
        <time>2022-08-02T10:37:50.000Z</time>
      </trkpt>
      <trkpt lat="49.38196" lon="-1.06985">
        <ele>11.323992</ele>
        <time>2022-08-02T10:37:51.000Z</time>
      </trkpt>
      <trkpt lat="49.38197" lon="-1.0698">
        <ele>11.380013</ele>
        <time>2022-08-02T10:37:52.000Z</time>
      </trkpt>
      <trkpt lat="49.38198" lon="-1.06974">
        <ele>11.439753</ele>
        <time>2022-08-02T10:37:53.000Z</time>
      </trkpt>
      <trkpt lat="49.382" lon="-1.06968">
        <ele>11.499339</ele>
        <time>2022-08-02T10:37:54.000Z</time>
      </trkpt>
      <trkpt lat="49.38201" lon="-1.06963">
        <ele>11.558926</ele>
        <time>2022-08-02T10:37:55.000Z</time>
      </trkpt>
      <trkpt lat="49.38202" lon="-1.06957">
        <ele>11.61502</ele>
        <time>2022-08-02T10:37:56.000Z</time>
      </trkpt>
      <trkpt lat="49.38204" lon="-1.06952">
        <ele>11.673828</ele>
        <time>2022-08-02T10:37:57.000Z</time>
      </trkpt>
      <trkpt lat="49.38205" lon="-1.06946">
        <ele>11.730775</ele>
        <time>2022-08-02T10:37:58.000Z</time>
      </trkpt>
      <trkpt lat="49.38206" lon="-1.06941">
        <ele>11.788561</ele>
        <time>2022-08-02T10:37:59.000Z</time>
      </trkpt>
      <trkpt lat="49.38208" lon="-1.06936">
        <ele>11.848408</ele>
        <time>2022-08-02T10:38:00.000Z</time>
      </trkpt>
      <trkpt lat="49.3821" lon="-1.0693">
        <ele>11.909806</ele>
        <time>2022-08-02T10:38:01.000Z</time>
      </trkpt>
      <trkpt lat="49.38211" lon="-1.06924">
        <ele>11.97048</ele>
        <time>2022-08-02T10:38:02.000Z</time>
      </trkpt>
      <trkpt lat="49.38213" lon="-1.06918">
        <ele>12.036476</ele>
        <time>2022-08-02T10:38:03.000Z</time>
      </trkpt>
      <trkpt lat="49.38214" lon="-1.06912">
        <ele>12.099024</ele>
        <time>2022-08-02T10:38:04.000Z</time>
      </trkpt>
      <trkpt lat="49.38216" lon="-1.06906">
        <ele>12.163157</ele>
        <time>2022-08-02T10:38:05.000Z</time>
      </trkpt>
      <trkpt lat="49.38218" lon="-1.069">
        <ele>12.234744</ele>
        <time>2022-08-02T10:38:06.000Z</time>
      </trkpt>
      <trkpt lat="49.3822" lon="-1.06893">
        <ele>12.305857</ele>
        <time>2022-08-02T10:38:07.000Z</time>
      </trkpt>
      <trkpt lat="49.38222" lon="-1.06887">
        <ele>12.376333</ele>
        <time>2022-08-02T10:38:08.000Z</time>
      </trkpt>
      <trkpt lat="49.38224" lon="-1.06881">
        <ele>12.441383</ele>
        <time>2022-08-02T10:38:09.000Z</time>
      </trkpt>
      <trkpt lat="49.38225" lon="-1.06874">
        <ele>12.509194</ele>
        <time>2022-08-02T10:38:10.000Z</time>
      </trkpt>
      <trkpt lat="49.38227" lon="-1.06868">
        <ele>12.579671</ele>
        <time>2022-08-02T10:38:11.000Z</time>
      </trkpt>
      <trkpt lat="49.38229" lon="-1.06861">
        <ele>12.650147</ele>
        <time>2022-08-02T10:38:12.000Z</time>
      </trkpt>
      <trkpt lat="49.38231" lon="-1.06855">
        <ele>12.721527</ele>
        <time>2022-08-02T10:38:13.000Z</time>
      </trkpt>
      <trkpt lat="49.38233" lon="-1.06848">
        <ele>12.792639</ele>
        <time>2022-08-02T10:38:14.000Z</time>
      </trkpt>
      <trkpt lat="49.38234" lon="-1.06842">
        <ele>12.861373</ele>
        <time>2022-08-02T10:38:15.000Z</time>
      </trkpt>
      <trkpt lat="49.38236" lon="-1.06835">
        <ele>12.935179</ele>
        <time>2022-08-02T10:38:16.000Z</time>
      </trkpt>
      <trkpt lat="49.38238" lon="-1.06828">
        <ele>13.010194</ele>
        <time>2022-08-02T10:38:17.000Z</time>
      </trkpt>
      <trkpt lat="49.3824" lon="-1.06821">
        <ele>13.082643</ele>
        <time>2022-08-02T10:38:18.000Z</time>
      </trkpt>
      <trkpt lat="49.38242" lon="-1.06814">
        <ele>13.157659</ele>
        <time>2022-08-02T10:38:19.000Z</time>
      </trkpt>
      <trkpt lat="49.38243" lon="-1.06807">
        <ele>13.231041</ele>
        <time>2022-08-02T10:38:20.000Z</time>
      </trkpt>
      <trkpt lat="49.38245" lon="-1.068">
        <ele>13.306056</ele>
        <time>2022-08-02T10:38:21.000Z</time>
      </trkpt>
      <trkpt lat="49.38246" lon="-1.06793">
        <ele>13.377908</ele>
        <time>2022-08-02T10:38:22.000Z</time>
      </trkpt>
      <trkpt lat="49.38248" lon="-1.06786">
        <ele>13.398454</ele>
        <time>2022-08-02T10:38:23.000Z</time>
      </trkpt>
      <trkpt lat="49.3825" lon="-1.06778">
        <ele>13.415953</ele>
        <time>2022-08-02T10:38:24.000Z</time>
      </trkpt>
      <trkpt lat="49.38252" lon="-1.06771">
        <ele>13.432886</ele>
        <time>2022-08-02T10:38:25.000Z</time>
      </trkpt>
      <trkpt lat="49.38253" lon="-1.06764">
        <ele>13.450385</ele>
        <time>2022-08-02T10:38:26.000Z</time>
      </trkpt>
      <trkpt lat="49.38255" lon="-1.06756">
        <ele>13.468219</ele>
        <time>2022-08-02T10:38:27.000Z</time>
      </trkpt>
      <trkpt lat="49.38257" lon="-1.06749">
        <ele>13.484731</ele>
        <time>2022-08-02T10:38:28.000Z</time>
      </trkpt>
      <trkpt lat="49.38259" lon="-1.06742">
        <ele>13.501817</ele>
        <time>2022-08-02T10:38:29.000Z</time>
      </trkpt>
      <trkpt lat="49.3826" lon="-1.06735">
        <ele>13.517805</ele>
        <time>2022-08-02T10:38:30.000Z</time>
      </trkpt>
      <trkpt lat="49.38262" lon="-1.06728">
        <ele>13.534685</ele>
        <time>2022-08-02T10:38:31.000Z</time>
      </trkpt>
      <trkpt lat="49.38264" lon="-1.06722">
        <ele>13.550361</ele>
        <time>2022-08-02T10:38:32.000Z</time>
      </trkpt>
      <trkpt lat="49.38266" lon="-1.06715">
        <ele>13.566017</ele>
        <time>2022-08-02T10:38:33.000Z</time>
      </trkpt>
      <trkpt lat="49.38268" lon="-1.06709">
        <ele>13.581471</ele>
        <time>2022-08-02T10:38:34.000Z</time>
      </trkpt>
      <trkpt lat="49.38269" lon="-1.06703">
        <ele>13.596522</ele>
        <time>2022-08-02T10:38:35.000Z</time>
      </trkpt>
      <trkpt lat="49.38271" lon="-1.06697">
        <ele>13.611367</ele>
        <time>2022-08-02T10:38:36.000Z</time>
      </trkpt>
      <trkpt lat="49.38272" lon="-1.0669">
        <ele>13.626077</ele>
        <time>2022-08-02T10:38:37.000Z</time>
      </trkpt>
      <trkpt lat="49.38274" lon="-1.06685">
        <ele>13.639893</ele>
        <time>2022-08-02T10:38:38.000Z</time>
      </trkpt>
      <trkpt lat="49.38275" lon="-1.06679">
        <ele>13.653335</ele>
        <time>2022-08-02T10:38:39.000Z</time>
      </trkpt>
      <trkpt lat="49.38276" lon="-1.06674">
        <ele>13.665941</ele>
        <time>2022-08-02T10:38:40.000Z</time>
      </trkpt>
      <trkpt lat="49.38277" lon="-1.06668">
        <ele>13.678133</ele>
        <time>2022-08-02T10:38:41.000Z</time>
      </trkpt>
      <trkpt lat="49.38278" lon="-1.06663">
        <ele>13.689951</ele>
        <time>2022-08-02T10:38:42.000Z</time>
      </trkpt>
      <trkpt lat="49.38278" lon="-1.06658">
        <ele>13.701127</ele>
        <time>2022-08-02T10:38:43.000Z</time>
      </trkpt>
      <trkpt lat="49.38279" lon="-1.06654">
        <ele>13.711605</ele>
        <time>2022-08-02T10:38:44.000Z</time>
      </trkpt>
      <trkpt lat="49.38279" lon="-1.0665">
        <ele>13.720173</ele>
        <time>2022-08-02T10:38:45.000Z</time>
      </trkpt>
      <trkpt lat="49.3828" lon="-1.06647">
        <ele>13.726946</ele>
        <time>2022-08-02T10:38:47.000Z</time>
      </trkpt>
      <trkpt lat="49.38281" lon="-1.06651">
        <ele>13.735433</ele>
        <time>2022-08-02T10:38:50.000Z</time>
      </trkpt>
      <trkpt lat="49.38279" lon="-1.06656">
        <ele>13.747294</ele>
        <time>2022-08-02T10:38:52.000Z</time>
      </trkpt>
      <trkpt lat="49.38279" lon="-1.06659">
        <ele>13.755019</ele>
        <time>2022-08-02T10:38:53.000Z</time>
      </trkpt>
      <trkpt lat="49.38277" lon="-1.06662">
        <ele>13.763414</ele>
        <time>2022-08-02T10:38:54.000Z</time>
      </trkpt>
      <trkpt lat="49.38276" lon="-1.06666">
        <ele>13.773487</ele>
        <time>2022-08-02T10:38:55.000Z</time>
      </trkpt>
      <trkpt lat="49.38275" lon="-1.0667">
        <ele>13.783057</ele>
        <time>2022-08-02T10:38:56.000Z</time>
      </trkpt>
      <trkpt lat="49.38274" lon="-1.06675">
        <ele>13.794699</ele>
        <time>2022-08-02T10:38:57.000Z</time>
      </trkpt>
      <trkpt lat="49.38274" lon="-1.0668">
        <ele>13.806016</ele>
        <time>2022-08-02T10:38:58.000Z</time>
      </trkpt>
      <trkpt lat="49.38273" lon="-1.06685">
        <ele>13.817989</ele>
        <time>2022-08-02T10:38:59.000Z</time>
      </trkpt>
      <trkpt lat="49.38271" lon="-1.0669">
        <ele>13.83039</ele>
        <time>2022-08-02T10:39:00.000Z</time>
      </trkpt>
      <trkpt lat="49.38269" lon="-1.06696">
        <ele>13.844218</ele>
        <time>2022-08-02T10:39:01.000Z</time>
      </trkpt>
      <trkpt lat="49.38268" lon="-1.06702">
        <ele>13.858238</ele>
        <time>2022-08-02T10:39:02.000Z</time>
      </trkpt>
      <trkpt lat="49.38266" lon="-1.06708">
        <ele>13.87267</ele>
        <time>2022-08-02T10:39:03.000Z</time>
      </trkpt>
      <trkpt lat="49.38265" lon="-1.06714">
        <ele>13.887067</ele>
        <time>2022-08-02T10:39:04.000Z</time>
      </trkpt>
      <trkpt lat="49.38263" lon="-1.0672">
        <ele>13.901704</ele>
        <time>2022-08-02T10:39:05.000Z</time>
      </trkpt>
      <trkpt lat="49.38262" lon="-1.06726">
        <ele>13.916963</ele>
        <time>2022-08-02T10:39:06.000Z</time>
      </trkpt>
      <trkpt lat="49.3826" lon="-1.06733">
        <ele>13.932015</ele>
        <time>2022-08-02T10:39:07.000Z</time>
      </trkpt>
      <trkpt lat="49.38258" lon="-1.06739">
        <ele>13.947616</ele>
        <time>2022-08-02T10:39:08.000Z</time>
      </trkpt>
      <trkpt lat="49.38257" lon="-1.06746">
        <ele>13.963082</ele>
        <time>2022-08-02T10:39:09.000Z</time>
      </trkpt>
      <trkpt lat="49.38255" lon="-1.06752">
        <ele>13.978134</ele>
        <time>2022-08-02T10:39:10.000Z</time>
      </trkpt>
      <trkpt lat="49.38254" lon="-1.06758">
        <ele>13.992632</ele>
        <time>2022-08-02T10:39:11.000Z</time>
      </trkpt>
      <trkpt lat="49.38252" lon="-1.06764">
        <ele>14.016811</ele>
        <time>2022-08-02T10:39:12.000Z</time>
      </trkpt>
      <trkpt lat="49.38252" lon="-1.0677">
        <ele>14.039569</ele>
        <time>2022-08-02T10:39:13.000Z</time>
      </trkpt>
      <trkpt lat="49.3825" lon="-1.06775">
        <ele>14.060681</ele>
        <time>2022-08-02T10:39:14.000Z</time>
      </trkpt>
      <trkpt lat="49.38249" lon="-1.06778">
        <ele>14.077101</ele>
        <time>2022-08-02T10:39:15.000Z</time>
      </trkpt>
      <trkpt lat="49.38248" lon="-1.06781">
        <ele>14.089716</ele>
        <time>2022-08-02T10:39:16.000Z</time>
      </trkpt>
      <trkpt lat="49.38251" lon="-1.06776">
        <ele>14.115073</ele>
        <time>2022-08-02T10:41:07.000Z</time>
      </trkpt>
      <trkpt lat="49.38252" lon="-1.06773">
        <ele>14.128596</ele>
        <time>2022-08-02T10:41:08.000Z</time>
      </trkpt>
      <trkpt lat="49.38253" lon="-1.06769">
        <ele>14.144865</ele>
        <time>2022-08-02T10:41:09.000Z</time>
      </trkpt>
      <trkpt lat="49.38254" lon="-1.06765">
        <ele>14.163384</ele>
        <time>2022-08-02T10:41:10.000Z</time>
      </trkpt>
      <trkpt lat="49.38255" lon="-1.06761">
        <ele>14.183132</ele>
        <time>2022-08-02T10:41:11.000Z</time>
      </trkpt>
      <trkpt lat="49.38256" lon="-1.06756">
        <ele>14.203985</ele>
        <time>2022-08-02T10:41:12.000Z</time>
      </trkpt>
      <trkpt lat="49.38257" lon="-1.06751">
        <ele>14.226984</ele>
        <time>2022-08-02T10:41:13.000Z</time>
      </trkpt>
      <trkpt lat="49.38259" lon="-1.06745">
        <ele>14.250708</ele>
        <time>2022-08-02T10:41:14.000Z</time>
      </trkpt>
      <trkpt lat="49.3826" lon="-1.06741">
        <ele>14.270603</ele>
        <time>2022-08-02T10:41:15.000Z</time>
      </trkpt>
      <trkpt lat="49.38261" lon="-1.06736">
        <ele>14.292467</ele>
        <time>2022-08-02T10:41:16.000Z</time>
      </trkpt>
      <trkpt lat="49.38262" lon="-1.0673">
        <ele>14.314485</ele>
        <time>2022-08-02T10:41:17.000Z</time>
      </trkpt>
      <trkpt lat="49.38264" lon="-1.06726">
        <ele>14.336384</ele>
        <time>2022-08-02T10:41:18.000Z</time>
      </trkpt>
      <trkpt lat="49.38265" lon="-1.06721">
        <ele>14.357206</ele>
        <time>2022-08-02T10:41:19.000Z</time>
      </trkpt>
      <trkpt lat="49.38267" lon="-1.06717">
        <ele>14.378027</ele>
        <time>2022-08-02T10:41:20.000Z</time>
      </trkpt>
      <trkpt lat="49.38268" lon="-1.06712">
        <ele>14.397922</ele>
        <time>2022-08-02T10:41:21.000Z</time>
      </trkpt>
      <trkpt lat="49.38269" lon="-1.06707">
        <ele>14.418286</ele>
        <time>2022-08-02T10:41:22.000Z</time>
      </trkpt>
      <trkpt lat="49.3827" lon="-1.06703">
        <ele>14.437211</ele>
        <time>2022-08-02T10:41:23.000Z</time>
      </trkpt>
      <trkpt lat="49.38271" lon="-1.06699">
        <ele>14.455366</ele>
        <time>2022-08-02T10:41:24.000Z</time>
      </trkpt>
      <trkpt lat="49.38272" lon="-1.06695">
        <ele>14.472937</ele>
        <time>2022-08-02T10:41:25.000Z</time>
      </trkpt>
      <trkpt lat="49.38273" lon="-1.06691">
        <ele>14.489958</ele>
        <time>2022-08-02T10:41:26.000Z</time>
      </trkpt>
      <trkpt lat="49.38274" lon="-1.06687">
        <ele>14.505837</ele>
        <time>2022-08-02T10:41:27.000Z</time>
      </trkpt>
      <trkpt lat="49.38275" lon="-1.06683">
        <ele>14.523269</ele>
        <time>2022-08-02T10:41:28.000Z</time>
      </trkpt>
      <trkpt lat="49.38276" lon="-1.0668">
        <ele>14.538753</ele>
        <time>2022-08-02T10:41:29.000Z</time>
      </trkpt>
      <trkpt lat="49.38277" lon="-1.06676">
        <ele>14.555022</ele>
        <time>2022-08-02T10:41:30.000Z</time>
      </trkpt>
      <trkpt lat="49.38277" lon="-1.06672">
        <ele>14.569719</ele>
        <time>2022-08-02T10:41:31.000Z</time>
      </trkpt>
      <trkpt lat="49.38278" lon="-1.06669">
        <ele>14.58335</ele>
        <time>2022-08-02T10:41:32.000Z</time>
      </trkpt>
      <trkpt lat="49.38278" lon="-1.06666">
        <ele>14.595676</ele>
        <time>2022-08-02T10:41:33.000Z</time>
      </trkpt>
      <trkpt lat="49.38279" lon="-1.06663">
        <ele>14.60909</ele>
        <time>2022-08-02T10:41:34.000Z</time>
      </trkpt>
      <trkpt lat="49.38279" lon="-1.0666">
        <ele>14.621525</ele>
        <time>2022-08-02T10:41:35.000Z</time>
      </trkpt>
      <trkpt lat="49.3828" lon="-1.06657">
        <ele>14.633496</ele>
        <time>2022-08-02T10:41:36.000Z</time>
      </trkpt>
      <trkpt lat="49.38281" lon="-1.06655">
        <ele>14.645411</ele>
        <time>2022-08-02T10:41:37.000Z</time>
      </trkpt>
      <trkpt lat="49.38281" lon="-1.0665">
        <ele>14.664589</ele>
        <time>2022-08-02T10:41:39.000Z</time>
      </trkpt>
      <trkpt lat="49.38281" lon="-1.06647">
        <ele>14.675959</ele>
        <time>2022-08-02T10:41:43.000Z</time>
      </trkpt>
      <trkpt lat="49.38282" lon="-1.06633">
        <ele>14.732528</ele>
        <time>2022-08-02T10:43:21.000Z</time>
      </trkpt>
      <trkpt lat="49.38282" lon="-1.06628">
        <ele>14.755346</ele>
        <time>2022-08-02T10:43:22.000Z</time>
      </trkpt>
      <trkpt lat="49.38283" lon="-1.06622">
        <ele>14.781285</ele>
        <time>2022-08-02T10:43:23.000Z</time>
      </trkpt>
      <trkpt lat="49.38284" lon="-1.06615">
        <ele>14.80714</ele>
        <time>2022-08-02T10:43:24.000Z</time>
      </trkpt>
      <trkpt lat="49.38285" lon="-1.06609">
        <ele>14.835054</ele>
        <time>2022-08-02T10:43:25.000Z</time>
      </trkpt>
      <trkpt lat="49.38285" lon="-1.06601">
        <ele>14.864351</ele>
        <time>2022-08-02T10:43:26.000Z</time>
      </trkpt>
      <trkpt lat="49.38286" lon="-1.06594">
        <ele>14.894315</ele>
        <time>2022-08-02T10:43:27.000Z</time>
      </trkpt>
      <trkpt lat="49.38287" lon="-1.06587">
        <ele>14.925285</ele>
        <time>2022-08-02T10:43:28.000Z</time>
      </trkpt>
      <trkpt lat="49.38287" lon="-1.0658">
        <ele>14.954044</ele>
        <time>2022-08-02T10:43:29.000Z</time>
      </trkpt>
      <trkpt lat="49.38289" lon="-1.06573">
        <ele>14.983439</ele>
        <time>2022-08-02T10:43:30.000Z</time>
      </trkpt>
      <trkpt lat="49.38289" lon="-1.06566">
        <ele>15.012198</ele>
        <time>2022-08-02T10:43:31.000Z</time>
      </trkpt>
      <trkpt lat="49.3829" lon="-1.06559">
        <ele>15.040064</ele>
        <time>2022-08-02T10:43:32.000Z</time>
      </trkpt>
      <trkpt lat="49.38291" lon="-1.06552">
        <ele>15.069234</ele>
        <time>2022-08-02T10:43:33.000Z</time>
      </trkpt>
      <trkpt lat="49.38292" lon="-1.06545">
        <ele>15.0971</ele>
        <time>2022-08-02T10:43:34.000Z</time>
      </trkpt>
      <trkpt lat="49.38293" lon="-1.06538">
        <ele>15.131916</ele>
        <time>2022-08-02T10:43:35.000Z</time>
      </trkpt>
      <trkpt lat="49.38294" lon="-1.06531">
        <ele>15.174726</ele>
        <time>2022-08-02T10:43:36.000Z</time>
      </trkpt>
      <trkpt lat="49.38295" lon="-1.06524">
        <ele>15.218536</ele>
        <time>2022-08-02T10:43:37.000Z</time>
      </trkpt>
      <trkpt lat="49.38296" lon="-1.06518">
        <ele>15.259504</ele>
        <time>2022-08-02T10:43:38.000Z</time>
      </trkpt>
      <trkpt lat="49.38297" lon="-1.06511">
        <ele>15.301193</ele>
        <time>2022-08-02T10:43:39.000Z</time>
      </trkpt>
      <trkpt lat="49.38298" lon="-1.06505">
        <ele>15.344342</ele>
        <time>2022-08-02T10:43:40.000Z</time>
      </trkpt>
      <trkpt lat="49.38299" lon="-1.06498">
        <ele>15.389607</ele>
        <time>2022-08-02T10:43:41.000Z</time>
      </trkpt>
      <trkpt lat="49.38301" lon="-1.06491">
        <ele>15.43308</ele>
        <time>2022-08-02T10:43:42.000Z</time>
      </trkpt>
      <trkpt lat="49.38301" lon="-1.06484">
        <ele>15.476229</ele>
        <time>2022-08-02T10:43:43.000Z</time>
      </trkpt>
      <trkpt lat="49.38303" lon="-1.06477">
        <ele>15.521494</ele>
        <time>2022-08-02T10:43:44.000Z</time>
      </trkpt>
      <trkpt lat="49.38303" lon="-1.0647">
        <ele>15.566761</ele>
        <time>2022-08-02T10:43:45.000Z</time>
      </trkpt>
      <trkpt lat="49.38305" lon="-1.06463">
        <ele>15.611773</ele>
        <time>2022-08-02T10:43:46.000Z</time>
      </trkpt>
      <trkpt lat="49.38305" lon="-1.06456">
        <ele>15.656088</ele>
        <time>2022-08-02T10:43:47.000Z</time>
      </trkpt>
      <trkpt lat="49.38306" lon="-1.06448">
        <ele>15.702458</ele>
        <time>2022-08-02T10:43:48.000Z</time>
      </trkpt>
      <trkpt lat="49.38307" lon="-1.06441">
        <ele>15.749519</ele>
        <time>2022-08-02T10:43:49.000Z</time>
      </trkpt>
      <trkpt lat="49.38308" lon="-1.06434">
        <ele>15.795108</ele>
        <time>2022-08-02T10:43:50.000Z</time>
      </trkpt>
      <trkpt lat="49.38309" lon="-1.06427">
        <ele>15.840279</ele>
        <time>2022-08-02T10:43:51.000Z</time>
      </trkpt>
      <trkpt lat="49.3831" lon="-1.06419">
        <ele>15.887275</ele>
        <time>2022-08-02T10:43:52.000Z</time>
      </trkpt>
      <trkpt lat="49.38311" lon="-1.06412">
        <ele>15.934698</ele>
        <time>2022-08-02T10:43:53.000Z</time>
      </trkpt>
      <trkpt lat="49.38311" lon="-1.06404">
        <ele>15.982043</ele>
        <time>2022-08-02T10:43:54.000Z</time>
      </trkpt>
      <trkpt lat="49.3831" lon="-1.06397">
        <ele>16.029031</ele>
        <time>2022-08-02T10:43:55.000Z</time>
      </trkpt>
      <trkpt lat="49.38309" lon="-1.06389">
        <ele>16.076636</ele>
        <time>2022-08-02T10:43:56.000Z</time>
      </trkpt>
      <trkpt lat="49.38308" lon="-1.06382">
        <ele>16.123944</ele>
        <time>2022-08-02T10:43:57.000Z</time>
      </trkpt>
      <trkpt lat="49.38306" lon="-1.06375">
        <ele>16.172278</ele>
        <time>2022-08-02T10:43:58.000Z</time>
      </trkpt>
      <trkpt lat="49.38304" lon="-1.06368">
        <ele>16.21724</ele>
        <time>2022-08-02T10:43:59.000Z</time>
      </trkpt>
      <trkpt lat="49.38302" lon="-1.06361">
        <ele>16.265015</ele>
        <time>2022-08-02T10:44:00.000Z</time>
      </trkpt>
      <trkpt lat="49.383" lon="-1.06354">
        <ele>16.312551</ele>
        <time>2022-08-02T10:44:01.000Z</time>
      </trkpt>
      <trkpt lat="49.38298" lon="-1.06348">
        <ele>16.358106</ele>
        <time>2022-08-02T10:44:02.000Z</time>
      </trkpt>
      <trkpt lat="49.38296" lon="-1.06341">
        <ele>16.40298</ele>
        <time>2022-08-02T10:44:03.000Z</time>
      </trkpt>
      <trkpt lat="49.38294" lon="-1.06334">
        <ele>16.449566</ele>
        <time>2022-08-02T10:44:04.000Z</time>
      </trkpt>
      <trkpt lat="49.38292" lon="-1.06328">
        <ele>16.497217</ele>
        <time>2022-08-02T10:44:05.000Z</time>
      </trkpt>
      <trkpt lat="49.38289" lon="-1.06321">
        <ele>16.544435</ele>
        <time>2022-08-02T10:44:06.000Z</time>
      </trkpt>
      <trkpt lat="49.38287" lon="-1.06314">
        <ele>16.592638</ele>
        <time>2022-08-02T10:44:07.000Z</time>
      </trkpt>
      <trkpt lat="49.38285" lon="-1.06307">
        <ele>16.638746</ele>
        <time>2022-08-02T10:44:08.000Z</time>
      </trkpt>
      <trkpt lat="49.38282" lon="-1.063">
        <ele>16.68886</ele>
        <time>2022-08-02T10:44:09.000Z</time>
      </trkpt>
      <trkpt lat="49.38281" lon="-1.06293">
        <ele>16.734993</ele>
        <time>2022-08-02T10:44:10.000Z</time>
      </trkpt>
      <trkpt lat="49.38278" lon="-1.06286">
        <ele>16.785735</ele>
        <time>2022-08-02T10:44:11.000Z</time>
      </trkpt>
      <trkpt lat="49.38277" lon="-1.06279">
        <ele>16.832197</ele>
        <time>2022-08-02T10:44:12.000Z</time>
      </trkpt>
      <trkpt lat="49.38274" lon="-1.06272">
        <ele>16.933545</ele>
        <time>2022-08-02T10:44:13.000Z</time>
      </trkpt>
      <trkpt lat="49.38272" lon="-1.06265">
        <ele>17.036546</ele>
        <time>2022-08-02T10:44:14.000Z</time>
      </trkpt>
      <trkpt lat="49.3827" lon="-1.06258">
        <ele>17.148268</ele>
        <time>2022-08-02T10:44:15.000Z</time>
      </trkpt>
      <trkpt lat="49.38268" lon="-1.0625">
        <ele>17.257568</ele>
        <time>2022-08-02T10:44:16.000Z</time>
      </trkpt>
      <trkpt lat="49.38266" lon="-1.06243">
        <ele>17.367642</ele>
        <time>2022-08-02T10:44:17.000Z</time>
      </trkpt>
      <trkpt lat="49.38264" lon="-1.06235">
        <ele>17.479364</ele>
        <time>2022-08-02T10:44:18.000Z</time>
      </trkpt>
      <trkpt lat="49.38262" lon="-1.06228">
        <ele>17.586137</ele>
        <time>2022-08-02T10:44:19.000Z</time>
      </trkpt>
      <trkpt lat="49.3826" lon="-1.06221">
        <ele>17.69506</ele>
        <time>2022-08-02T10:44:20.000Z</time>
      </trkpt>
      <trkpt lat="49.38258" lon="-1.06213">
        <ele>17.801833</ele>
        <time>2022-08-02T10:44:21.000Z</time>
      </trkpt>
      <trkpt lat="49.38256" lon="-1.06206">
        <ele>17.909869</ele>
        <time>2022-08-02T10:44:22.000Z</time>
      </trkpt>
      <trkpt lat="49.38254" lon="-1.06199">
        <ele>18.016642</ele>
        <time>2022-08-02T10:44:23.000Z</time>
      </trkpt>
      <trkpt lat="49.38252" lon="-1.06191">
        <ele>18.126786</ele>
        <time>2022-08-02T10:44:24.000Z</time>
      </trkpt>
      <trkpt lat="49.3825" lon="-1.06184">
        <ele>18.238509</ele>
        <time>2022-08-02T10:44:25.000Z</time>
      </trkpt>
      <trkpt lat="49.38247" lon="-1.06176">
        <ele>18.350231</ele>
        <time>2022-08-02T10:44:26.000Z</time>
      </trkpt>
      <trkpt lat="49.38245" lon="-1.06169">
        <ele>18.462823</ele>
        <time>2022-08-02T10:44:27.000Z</time>
      </trkpt>
      <trkpt lat="49.38244" lon="-1.06161">
        <ele>18.569597</ele>
        <time>2022-08-02T10:44:28.000Z</time>
      </trkpt>
      <trkpt lat="49.38241" lon="-1.06154">
        <ele>18.678032</ele>
        <time>2022-08-02T10:44:29.000Z</time>
      </trkpt>
      <trkpt lat="49.38238" lon="-1.06147">
        <ele>18.786309</ele>
        <time>2022-08-02T10:44:30.000Z</time>
      </trkpt>
      <trkpt lat="49.38236" lon="-1.0614">
        <ele>18.891877</ele>
        <time>2022-08-02T10:44:31.000Z</time>
      </trkpt>
      <trkpt lat="49.38234" lon="-1.06134">
        <ele>18.995952</ele>
        <time>2022-08-02T10:44:32.000Z</time>
      </trkpt>
      <trkpt lat="49.38232" lon="-1.06127">
        <ele>19.10152</ele>
        <time>2022-08-02T10:44:33.000Z</time>
      </trkpt>
      <trkpt lat="49.3823" lon="-1.0612">
        <ele>19.200773</ele>
        <time>2022-08-02T10:44:34.000Z</time>
      </trkpt>
      <trkpt lat="49.38228" lon="-1.06113">
        <ele>19.302114</ele>
        <time>2022-08-02T10:44:35.000Z</time>
      </trkpt>
      <trkpt lat="49.38226" lon="-1.06106">
        <ele>19.401368</ele>
        <time>2022-08-02T10:44:36.000Z</time>
      </trkpt>
      <trkpt lat="49.38224" lon="-1.061">
        <ele>19.497018</ele>
        <time>2022-08-02T10:44:37.000Z</time>
      </trkpt>
      <trkpt lat="49.38222" lon="-1.06093">
        <ele>19.596271</ele>
        <time>2022-08-02T10:44:38.000Z</time>
      </trkpt>
      <trkpt lat="49.38221" lon="-1.06086">
        <ele>19.692525</ele>
        <time>2022-08-02T10:44:39.000Z</time>
      </trkpt>
      <trkpt lat="49.38219" lon="-1.0608">
        <ele>19.791778</ele>
        <time>2022-08-02T10:44:40.000Z</time>
      </trkpt>
      <trkpt lat="49.38218" lon="-1.06073">
        <ele>19.886157</ele>
        <time>2022-08-02T10:44:41.000Z</time>
      </trkpt>
      <trkpt lat="49.38216" lon="-1.06066">
        <ele>19.98541</ele>
        <time>2022-08-02T10:44:42.000Z</time>
      </trkpt>
      <trkpt lat="49.38214" lon="-1.0606">
        <ele>20.079709</ele>
        <time>2022-08-02T10:44:43.000Z</time>
      </trkpt>
      <trkpt lat="49.38212" lon="-1.06054">
        <ele>20.177807</ele>
        <time>2022-08-02T10:44:44.000Z</time>
      </trkpt>
      <trkpt lat="49.3821" lon="-1.06048">
        <ele>20.268424</ele>
        <time>2022-08-02T10:44:45.000Z</time>
      </trkpt>
      <trkpt lat="49.38207" lon="-1.06042">
        <ele>20.360768</ele>
        <time>2022-08-02T10:44:46.000Z</time>
      </trkpt>
      <trkpt lat="49.38205" lon="-1.06036">
        <ele>20.449908</ele>
        <time>2022-08-02T10:44:47.000Z</time>
      </trkpt>
      <trkpt lat="49.38203" lon="-1.06031">
        <ele>20.537579</ele>
        <time>2022-08-02T10:44:48.000Z</time>
      </trkpt>
      <trkpt lat="49.38201" lon="-1.06025">
        <ele>20.606651</ele>
        <time>2022-08-02T10:44:49.000Z</time>
      </trkpt>
      <trkpt lat="49.38199" lon="-1.06019">
        <ele>20.649659</ele>
        <time>2022-08-02T10:44:50.000Z</time>
      </trkpt>
      <trkpt lat="49.38197" lon="-1.06013">
        <ele>20.69311</ele>
        <time>2022-08-02T10:44:51.000Z</time>
      </trkpt>
      <trkpt lat="49.38196" lon="-1.06007">
        <ele>20.73554</ele>
        <time>2022-08-02T10:44:52.000Z</time>
      </trkpt>
      <trkpt lat="49.38194" lon="-1.06001">
        <ele>20.776145</ele>
        <time>2022-08-02T10:44:53.000Z</time>
      </trkpt>
      <trkpt lat="49.38192" lon="-1.05995">
        <ele>20.817998</ele>
        <time>2022-08-02T10:44:54.000Z</time>
      </trkpt>
      <trkpt lat="49.3819" lon="-1.05989">
        <ele>20.859197</ele>
        <time>2022-08-02T10:44:55.000Z</time>
      </trkpt>
      <trkpt lat="49.38189" lon="-1.05984">
        <ele>20.898618</ele>
        <time>2022-08-02T10:44:56.000Z</time>
      </trkpt>
      <trkpt lat="49.38187" lon="-1.05978">
        <ele>20.941048</ele>
        <time>2022-08-02T10:44:57.000Z</time>
      </trkpt>
      <trkpt lat="49.38186" lon="-1.05972">
        <ele>20.980589</ele>
        <time>2022-08-02T10:44:58.000Z</time>
      </trkpt>
      <trkpt lat="49.38184" lon="-1.05966">
        <ele>21.021351</ele>
        <time>2022-08-02T10:44:59.000Z</time>
      </trkpt>
      <trkpt lat="49.38183" lon="-1.0596">
        <ele>21.063146</ele>
        <time>2022-08-02T10:45:00.000Z</time>
      </trkpt>
      <trkpt lat="49.38182" lon="-1.05954">
        <ele>21.100953</ele>
        <time>2022-08-02T10:45:01.000Z</time>
      </trkpt>
      <trkpt lat="49.3818" lon="-1.05949">
        <ele>21.140374</ele>
        <time>2022-08-02T10:45:02.000Z</time>
      </trkpt>
      <trkpt lat="49.38179" lon="-1.05943">
        <ele>21.179306</ele>
        <time>2022-08-02T10:45:03.000Z</time>
      </trkpt>
      <trkpt lat="49.38178" lon="-1.05938">
        <ele>21.215814</ele>
        <time>2022-08-02T10:45:04.000Z</time>
      </trkpt>
      <trkpt lat="49.38176" lon="-1.05932">
        <ele>21.254058</ele>
        <time>2022-08-02T10:45:05.000Z</time>
      </trkpt>
      <trkpt lat="49.38175" lon="-1.05927">
        <ele>21.291776</ele>
        <time>2022-08-02T10:45:06.000Z</time>
      </trkpt>
      <trkpt lat="49.38174" lon="-1.05921">
        <ele>21.33021</ele>
        <time>2022-08-02T10:45:07.000Z</time>
      </trkpt>
      <trkpt lat="49.38173" lon="-1.05915">
        <ele>21.368886</ele>
        <time>2022-08-02T10:45:08.000Z</time>
      </trkpt>
      <trkpt lat="49.38172" lon="-1.05909">
        <ele>21.410059</ele>
        <time>2022-08-02T10:45:09.000Z</time>
      </trkpt>
      <trkpt lat="49.38171" lon="-1.05903">
        <ele>21.453611</ele>
        <time>2022-08-02T10:45:10.000Z</time>
      </trkpt>
      <trkpt lat="49.3817" lon="-1.05896">
        <ele>21.497919</ele>
        <time>2022-08-02T10:45:11.000Z</time>
      </trkpt>
      <trkpt lat="49.38168" lon="-1.05889">
        <ele>21.544527</ele>
        <time>2022-08-02T10:45:12.000Z</time>
      </trkpt>
      <trkpt lat="49.38166" lon="-1.05882">
        <ele>21.591135</ele>
        <time>2022-08-02T10:45:13.000Z</time>
      </trkpt>
      <trkpt lat="49.38165" lon="-1.05875">
        <ele>21.638958</ele>
        <time>2022-08-02T10:45:14.000Z</time>
      </trkpt>
      <trkpt lat="49.38164" lon="-1.05869">
        <ele>21.684024</ele>
        <time>2022-08-02T10:45:15.000Z</time>
      </trkpt>
      <trkpt lat="49.38162" lon="-1.05862">
        <ele>21.730632</ele>
        <time>2022-08-02T10:45:16.000Z</time>
      </trkpt>
      <trkpt lat="49.38161" lon="-1.05855">
        <ele>21.778795</ele>
        <time>2022-08-02T10:45:17.000Z</time>
      </trkpt>
      <trkpt lat="49.38159" lon="-1.05847">
        <ele>21.82967</ele>
        <time>2022-08-02T10:45:18.000Z</time>
      </trkpt>
      <trkpt lat="49.38158" lon="-1.0584">
        <ele>21.878203</ele>
        <time>2022-08-02T10:45:19.000Z</time>
      </trkpt>
      <trkpt lat="49.38157" lon="-1.05832">
        <ele>21.928232</ele>
        <time>2022-08-02T10:45:20.000Z</time>
      </trkpt>
      <trkpt lat="49.38155" lon="-1.05825">
        <ele>21.980334</ele>
        <time>2022-08-02T10:45:21.000Z</time>
      </trkpt>
      <trkpt lat="49.38154" lon="-1.05817">
        <ele>22.03161</ele>
        <time>2022-08-02T10:45:22.000Z</time>
      </trkpt>
      <trkpt lat="49.38152" lon="-1.0581">
        <ele>22.079153</ele>
        <time>2022-08-02T10:45:23.000Z</time>
      </trkpt>
      <trkpt lat="49.38151" lon="-1.05802">
        <ele>22.129182</ele>
        <time>2022-08-02T10:45:24.000Z</time>
      </trkpt>
      <trkpt lat="49.3815" lon="-1.05795">
        <ele>22.179611</ele>
        <time>2022-08-02T10:45:25.000Z</time>
      </trkpt>
      <trkpt lat="49.38149" lon="-1.05787">
        <ele>22.232327</ele>
        <time>2022-08-02T10:45:26.000Z</time>
      </trkpt>
      <trkpt lat="49.38147" lon="-1.05779">
        <ele>22.288432</ele>
        <time>2022-08-02T10:45:27.000Z</time>
      </trkpt>
      <trkpt lat="49.38145" lon="-1.05771">
        <ele>22.340534</ele>
        <time>2022-08-02T10:45:28.000Z</time>
      </trkpt>
      <trkpt lat="49.38144" lon="-1.05763">
        <ele>22.395413</ele>
        <time>2022-08-02T10:45:29.000Z</time>
      </trkpt>
      <trkpt lat="49.38142" lon="-1.05756">
        <ele>22.458191</ele>
        <time>2022-08-02T10:45:30.000Z</time>
      </trkpt>
      <trkpt lat="49.38142" lon="-1.05748">
        <ele>22.518559</ele>
        <time>2022-08-02T10:45:31.000Z</time>
      </trkpt>
      <trkpt lat="49.38141" lon="-1.05741">
        <ele>22.581288</ele>
        <time>2022-08-02T10:45:32.000Z</time>
      </trkpt>
      <trkpt lat="49.3814" lon="-1.05733">
        <ele>22.641657</ele>
        <time>2022-08-02T10:45:33.000Z</time>
      </trkpt>
      <trkpt lat="49.38139" lon="-1.05726">
        <ele>22.701254</ele>
        <time>2022-08-02T10:45:34.000Z</time>
      </trkpt>
      <trkpt lat="49.38138" lon="-1.05718">
        <ele>22.762416</ele>
        <time>2022-08-02T10:45:35.000Z</time>
      </trkpt>
      <trkpt lat="49.38138" lon="-1.05711">
        <ele>22.824042</ele>
        <time>2022-08-02T10:45:36.000Z</time>
      </trkpt>
      <trkpt lat="49.38137" lon="-1.05703">
        <ele>22.886048</ele>
        <time>2022-08-02T10:45:37.000Z</time>
      </trkpt>
      <trkpt lat="49.38136" lon="-1.05696">
        <ele>22.946976</ele>
        <time>2022-08-02T10:45:38.000Z</time>
      </trkpt>
      <trkpt lat="49.38134" lon="-1.05688">
        <ele>23.006669</ele>
        <time>2022-08-02T10:45:39.000Z</time>
      </trkpt>
      <trkpt lat="49.38133" lon="-1.05681">
        <ele>23.064823</ele>
        <time>2022-08-02T10:45:40.000Z</time>
      </trkpt>
      <trkpt lat="49.38132" lon="-1.05674">
        <ele>23.122978</ele>
        <time>2022-08-02T10:45:41.000Z</time>
      </trkpt>
      <trkpt lat="49.3813" lon="-1.05668">
        <ele>23.180743</ele>
        <time>2022-08-02T10:45:42.000Z</time>
      </trkpt>
      <trkpt lat="49.38129" lon="-1.05661">
        <ele>23.237758</ele>
        <time>2022-08-02T10:45:43.000Z</time>
      </trkpt>
      <trkpt lat="49.38127" lon="-1.05655">
        <ele>23.2902</ele>
        <time>2022-08-02T10:45:44.000Z</time>
      </trkpt>
      <trkpt lat="49.38126" lon="-1.05648">
        <ele>23.342238</ele>
        <time>2022-08-02T10:45:45.000Z</time>
      </trkpt>
      <trkpt lat="49.38125" lon="-1.05643">
        <ele>23.387859</ele>
        <time>2022-08-02T10:45:46.000Z</time>
      </trkpt>
      <trkpt lat="49.38125" lon="-1.05639">
        <ele>23.420027</ele>
        <time>2022-08-02T10:45:47.000Z</time>
      </trkpt>
      <trkpt lat="49.38124" lon="-1.05636">
        <ele>23.4451</ele>
        <time>2022-08-02T10:45:48.000Z</time>
      </trkpt>
      <trkpt lat="49.38123" lon="-1.05633">
        <ele>23.47274</ele>
        <time>2022-08-02T10:45:50.000Z</time>
      </trkpt>
      <trkpt lat="49.38121" lon="-1.05624">
        <ele>23.551403</ele>
        <time>2022-08-02T10:46:21.000Z</time>
      </trkpt>
      <trkpt lat="49.38119" lon="-1.0562">
        <ele>23.58891</ele>
        <time>2022-08-02T10:46:22.000Z</time>
      </trkpt>
      <trkpt lat="49.38117" lon="-1.05615">
        <ele>23.629873</ele>
        <time>2022-08-02T10:46:23.000Z</time>
      </trkpt>
      <trkpt lat="49.38117" lon="-1.0561">
        <ele>23.669707</ele>
        <time>2022-08-02T10:46:24.000Z</time>
      </trkpt>
      <trkpt lat="49.38117" lon="-1.05606">
        <ele>23.706641</ele>
        <time>2022-08-02T10:46:25.000Z</time>
      </trkpt>
      <trkpt lat="49.38117" lon="-1.05602">
        <ele>23.737798</ele>
        <time>2022-08-02T10:46:26.000Z</time>
      </trkpt>
      <trkpt lat="49.38117" lon="-1.05598">
        <ele>23.76576</ele>
        <time>2022-08-02T10:46:27.000Z</time>
      </trkpt>
      <trkpt lat="49.38117" lon="-1.05595">
        <ele>23.794521</ele>
        <time>2022-08-02T10:46:28.000Z</time>
      </trkpt>
      <trkpt lat="49.38117" lon="-1.05589">
        <ele>23.837819</ele>
        <time>2022-08-02T10:46:30.000Z</time>
      </trkpt>
      <trkpt lat="49.38117" lon="-1.05586">
        <ele>23.862068</ele>
        <time>2022-08-02T10:46:31.000Z</time>
      </trkpt>
      <trkpt lat="49.38117" lon="-1.05581">
        <ele>23.90457</ele>
        <time>2022-08-02T10:46:33.000Z</time>
      </trkpt>
      <trkpt lat="49.38118" lon="-1.05576">
        <ele>23.946992</ele>
        <time>2022-08-02T10:46:35.000Z</time>
      </trkpt>
      <trkpt lat="49.38118" lon="-1.05573">
        <ele>23.969362</ele>
        <time>2022-08-02T10:46:36.000Z</time>
      </trkpt>
      <trkpt lat="49.38119" lon="-1.05568">
        <ele>24.013915</ele>
        <time>2022-08-02T10:46:38.000Z</time>
      </trkpt>
      <trkpt lat="49.38119" lon="-1.05565">
        <ele>24.036585</ele>
        <time>2022-08-02T10:46:39.000Z</time>
      </trkpt>
      <trkpt lat="49.38119" lon="-1.05562">
        <ele>24.060268</ele>
        <time>2022-08-02T10:46:40.000Z</time>
      </trkpt>
      <trkpt lat="49.38119" lon="-1.05557">
        <ele>24.097018</ele>
        <time>2022-08-02T10:46:42.000Z</time>
      </trkpt>
      <trkpt lat="49.38121" lon="-1.05553">
        <ele>24.132204</ele>
        <time>2022-08-02T10:46:44.000Z</time>
      </trkpt>
      <trkpt lat="49.38121" lon="-1.05549">
        <ele>24.163746</ele>
        <time>2022-08-02T10:46:46.000Z</time>
      </trkpt>
      <trkpt lat="49.38121" lon="-1.05547">
        <ele>24.186417</ele>
        <time>2022-08-02T10:46:48.000Z</time>
      </trkpt>
      <trkpt lat="49.38128" lon="-1.05556">
        <ele>24.298439</ele>
        <time>2022-08-02T10:47:25.000Z</time>
      </trkpt>
      <trkpt lat="49.38127" lon="-1.05558">
        <ele>24.319878</ele>
        <time>2022-08-02T10:47:26.000Z</time>
      </trkpt>
      <trkpt lat="49.38126" lon="-1.0556">
        <ele>24.343614</ele>
        <time>2022-08-02T10:47:27.000Z</time>
      </trkpt>
      <trkpt lat="49.38124" lon="-1.05561">
        <ele>24.369139</ele>
        <time>2022-08-02T10:47:28.000Z</time>
      </trkpt>
      <trkpt lat="49.38122" lon="-1.05562">
        <ele>24.397645</ele>
        <time>2022-08-02T10:47:29.000Z</time>
      </trkpt>
      <trkpt lat="49.38119" lon="-1.05561">
        <ele>24.428983</ele>
        <time>2022-08-02T10:47:30.000Z</time>
      </trkpt>
      <trkpt lat="49.38117" lon="-1.05557">
        <ele>24.475285</ele>
        <time>2022-08-02T10:47:32.000Z</time>
      </trkpt>
      <trkpt lat="49.38116" lon="-1.05552">
        <ele>24.514334</ele>
        <time>2022-08-02T10:47:34.000Z</time>
      </trkpt>
      <trkpt lat="49.38115" lon="-1.05548">
        <ele>24.553665</ele>
        <time>2022-08-02T10:47:36.000Z</time>
      </trkpt>
      <trkpt lat="49.38113" lon="-1.05546">
        <ele>24.578064</ele>
        <time>2022-08-02T10:47:37.000Z</time>
      </trkpt>
      <trkpt lat="49.38111" lon="-1.05544">
        <ele>24.618052</ele>
        <time>2022-08-02T10:47:39.000Z</time>
      </trkpt>
      <trkpt lat="49.38108" lon="-1.05543">
        <ele>24.659539</ele>
        <time>2022-08-02T10:47:41.000Z</time>
      </trkpt>
      <trkpt lat="49.38106" lon="-1.05542">
        <ele>24.687154</ele>
        <time>2022-08-02T10:47:42.000Z</time>
      </trkpt>
      <trkpt lat="49.38104" lon="-1.0554">
        <ele>24.718157</ele>
        <time>2022-08-02T10:47:43.000Z</time>
      </trkpt>
      <trkpt lat="49.38101" lon="-1.05538">
        <ele>24.758543</ele>
        <time>2022-08-02T10:47:44.000Z</time>
      </trkpt>
      <trkpt lat="49.38099" lon="-1.05536">
        <ele>24.793162</ele>
        <time>2022-08-02T10:47:45.000Z</time>
      </trkpt>
      <trkpt lat="49.38097" lon="-1.05535">
        <ele>24.830387</ele>
        <time>2022-08-02T10:47:46.000Z</time>
      </trkpt>
      <trkpt lat="49.38094" lon="-1.05534">
        <ele>24.867344</ele>
        <time>2022-08-02T10:47:47.000Z</time>
      </trkpt>
      <trkpt lat="49.38091" lon="-1.05533">
        <ele>24.912697</ele>
        <time>2022-08-02T10:47:48.000Z</time>
      </trkpt>
      <trkpt lat="49.38088" lon="-1.05532">
        <ele>24.950152</ele>
        <time>2022-08-02T10:47:49.000Z</time>
      </trkpt>
      <trkpt lat="49.38085" lon="-1.05531">
        <ele>24.991432</ele>
        <time>2022-08-02T10:47:50.000Z</time>
      </trkpt>
      <trkpt lat="49.38083" lon="-1.0553">
        <ele>25.023296</ele>
        <time>2022-08-02T10:47:51.000Z</time>
      </trkpt>
      <trkpt lat="49.3808" lon="-1.0553">
        <ele>25.063614</ele>
        <time>2022-08-02T10:47:52.000Z</time>
      </trkpt>
      <trkpt lat="49.38077" lon="-1.05529">
        <ele>25.103931</ele>
        <time>2022-08-02T10:47:53.000Z</time>
      </trkpt>
      <trkpt lat="49.38075" lon="-1.05529">
        <ele>25.143081</ele>
        <time>2022-08-02T10:47:54.000Z</time>
      </trkpt>
      <trkpt lat="49.38072" lon="-1.05528">
        <ele>25.183721</ele>
        <time>2022-08-02T10:47:55.000Z</time>
      </trkpt>
      <trkpt lat="49.38069" lon="-1.05528">
        <ele>25.22416</ele>
        <time>2022-08-02T10:47:56.000Z</time>
      </trkpt>
      <trkpt lat="49.38065" lon="-1.05527">
        <ele>25.27298</ele>
        <time>2022-08-02T10:47:57.000Z</time>
      </trkpt>
      <trkpt lat="49.38062" lon="-1.05527">
        <ele>25.313621</ele>
        <time>2022-08-02T10:47:58.000Z</time>
      </trkpt>
      <trkpt lat="49.38059" lon="-1.05526">
        <ele>25.363427</ele>
        <time>2022-08-02T10:47:59.000Z</time>
      </trkpt>
      <trkpt lat="49.38056" lon="-1.05525">
        <ele>25.408781</ele>
        <time>2022-08-02T10:48:00.000Z</time>
      </trkpt>
      <trkpt lat="49.38053" lon="-1.05524">
        <ele>25.449552</ele>
        <time>2022-08-02T10:48:01.000Z</time>
      </trkpt>
      <trkpt lat="49.3805" lon="-1.05523">
        <ele>25.490192</ele>
        <time>2022-08-02T10:48:02.000Z</time>
      </trkpt>
      <trkpt lat="49.38048" lon="-1.05523">
        <ele>25.52108</ele>
        <time>2022-08-02T10:48:03.000Z</time>
      </trkpt>
      <trkpt lat="49.38045" lon="-1.05522">
        <ele>25.553342</ele>
        <time>2022-08-02T10:48:04.000Z</time>
      </trkpt>
      <trkpt lat="49.38043" lon="-1.05522">
        <ele>25.58411</ele>
        <time>2022-08-02T10:48:05.000Z</time>
      </trkpt>
      <trkpt lat="49.3804" lon="-1.05521">
        <ele>25.633022</ele>
        <time>2022-08-02T10:48:07.000Z</time>
      </trkpt>
      <trkpt lat="49.38038" lon="-1.0552">
        <ele>25.662691</ele>
        <time>2022-08-02T10:48:08.000Z</time>
      </trkpt>
      <trkpt lat="49.38037" lon="-1.05517">
        <ele>25.690921</ele>
        <time>2022-08-02T10:48:09.000Z</time>
      </trkpt>
      <trkpt lat="49.38035" lon="-1.05514">
        <ele>25.728765</ele>
        <time>2022-08-02T10:48:10.000Z</time>
      </trkpt>
      <trkpt lat="49.38033" lon="-1.05511">
        <ele>25.768178</ele>
        <time>2022-08-02T10:48:11.000Z</time>
      </trkpt>
      <trkpt lat="49.38031" lon="-1.05506">
        <ele>25.816134</ele>
        <time>2022-08-02T10:48:12.000Z</time>
      </trkpt>
      <trkpt lat="49.3803" lon="-1.05501">
        <ele>25.86516</ele>
        <time>2022-08-02T10:48:13.000Z</time>
      </trkpt>
      <trkpt lat="49.38029" lon="-1.05495">
        <ele>25.918067</ele>
        <time>2022-08-02T10:48:14.000Z</time>
      </trkpt>
      <trkpt lat="49.38029" lon="-1.05489">
        <ele>25.972955</ele>
        <time>2022-08-02T10:48:15.000Z</time>
      </trkpt>
      <trkpt lat="49.38028" lon="-1.05483">
        <ele>26.031588</ele>
        <time>2022-08-02T10:48:16.000Z</time>
      </trkpt>
      <trkpt lat="49.38027" lon="-1.05476">
        <ele>26.092739</ele>
        <time>2022-08-02T10:48:17.000Z</time>
      </trkpt>
      <trkpt lat="49.38026" lon="-1.0547">
        <ele>26.156821</ele>
        <time>2022-08-02T10:48:18.000Z</time>
      </trkpt>
      <trkpt lat="49.38025" lon="-1.05463">
        <ele>26.220661</ele>
        <time>2022-08-02T10:48:19.000Z</time>
      </trkpt>
      <trkpt lat="49.38024" lon="-1.05456">
        <ele>26.28546</ele>
        <time>2022-08-02T10:48:20.000Z</time>
      </trkpt>
      <trkpt lat="49.38023" lon="-1.05449">
        <ele>26.347508</ele>
        <time>2022-08-02T10:48:21.000Z</time>
      </trkpt>
      <trkpt lat="49.38023" lon="-1.05442">
        <ele>26.413332</ele>
        <time>2022-08-02T10:48:22.000Z</time>
      </trkpt>
      <trkpt lat="49.38021" lon="-1.05434">
        <ele>26.480891</ele>
        <time>2022-08-02T10:48:23.000Z</time>
      </trkpt>
      <trkpt lat="49.38021" lon="-1.05427">
        <ele>26.545407</ele>
        <time>2022-08-02T10:48:24.000Z</time>
      </trkpt>
      <trkpt lat="49.3802" lon="-1.0542">
        <ele>26.610207</ele>
        <time>2022-08-02T10:48:25.000Z</time>
      </trkpt>
      <trkpt lat="49.38019" lon="-1.05414">
        <ele>26.670029</ele>
        <time>2022-08-02T10:48:26.000Z</time>
      </trkpt>
      <trkpt lat="49.38018" lon="-1.05407">
        <ele>26.730649</ele>
        <time>2022-08-02T10:48:27.000Z</time>
      </trkpt>
      <trkpt lat="49.38017" lon="-1.05402">
        <ele>26.784561</ele>
        <time>2022-08-02T10:48:28.000Z</time>
      </trkpt>
      <trkpt lat="49.38016" lon="-1.05396">
        <ele>26.840026</ele>
        <time>2022-08-02T10:48:29.000Z</time>
      </trkpt>
      <trkpt lat="49.38014" lon="-1.0539">
        <ele>26.900329</ele>
        <time>2022-08-02T10:48:30.000Z</time>
      </trkpt>
      <trkpt lat="49.38013" lon="-1.05384">
        <ele>26.955445</ele>
        <time>2022-08-02T10:48:31.000Z</time>
      </trkpt>
      <trkpt lat="49.38012" lon="-1.05377">
        <ele>27.014798</ele>
        <time>2022-08-02T10:48:32.000Z</time>
      </trkpt>
      <trkpt lat="49.38011" lon="-1.05371">
        <ele>27.07431</ele>
        <time>2022-08-02T10:48:33.000Z</time>
      </trkpt>
      <trkpt lat="49.3801" lon="-1.05365">
        <ele>27.097764</ele>
        <time>2022-08-02T10:48:34.000Z</time>
      </trkpt>
      <trkpt lat="49.38009" lon="-1.05358">
        <ele>27.120441</ele>
        <time>2022-08-02T10:48:35.000Z</time>
      </trkpt>
      <trkpt lat="49.38007" lon="-1.05352">
        <ele>27.144362</ele>
        <time>2022-08-02T10:48:36.000Z</time>
      </trkpt>
      <trkpt lat="49.38005" lon="-1.05346">
        <ele>27.167971</ele>
        <time>2022-08-02T10:48:37.000Z</time>
      </trkpt>
      <trkpt lat="49.38003" lon="-1.0534">
        <ele>27.19063</ele>
        <time>2022-08-02T10:48:38.000Z</time>
      </trkpt>
      <trkpt lat="49.38002" lon="-1.05333">
        <ele>27.21425</ele>
        <time>2022-08-02T10:48:39.000Z</time>
      </trkpt>
      <trkpt lat="49.38" lon="-1.05327">
        <ele>27.238798</ele>
        <time>2022-08-02T10:48:40.000Z</time>
      </trkpt>
      <trkpt lat="49.37998" lon="-1.0532">
        <ele>27.264293</ele>
        <time>2022-08-02T10:48:41.000Z</time>
      </trkpt>
      <trkpt lat="49.37996" lon="-1.05314">
        <ele>27.288235</ele>
        <time>2022-08-02T10:48:42.000Z</time>
      </trkpt>
      <trkpt lat="49.37994" lon="-1.05307">
        <ele>27.313943</ele>
        <time>2022-08-02T10:48:43.000Z</time>
      </trkpt>
      <trkpt lat="49.37993" lon="-1.053">
        <ele>27.338883</ele>
        <time>2022-08-02T10:48:44.000Z</time>
      </trkpt>
      <trkpt lat="49.37991" lon="-1.05293">
        <ele>27.364443</ele>
        <time>2022-08-02T10:48:45.000Z</time>
      </trkpt>
      <trkpt lat="49.3799" lon="-1.05286">
        <ele>27.390004</ele>
        <time>2022-08-02T10:48:46.000Z</time>
      </trkpt>
      <trkpt lat="49.37988" lon="-1.05279">
        <ele>27.416216</ele>
        <time>2022-08-02T10:48:47.000Z</time>
      </trkpt>
      <trkpt lat="49.37986" lon="-1.05272">
        <ele>27.442554</ele>
        <time>2022-08-02T10:48:48.000Z</time>
      </trkpt>
      <trkpt lat="49.37984" lon="-1.05265">
        <ele>27.468683</ele>
        <time>2022-08-02T10:48:49.000Z</time>
      </trkpt>
      <trkpt lat="49.37982" lon="-1.05258">
        <ele>27.494537</ele>
        <time>2022-08-02T10:48:50.000Z</time>
      </trkpt>
      <trkpt lat="49.37981" lon="-1.05251">
        <ele>27.519948</ele>
        <time>2022-08-02T10:48:51.000Z</time>
      </trkpt>
      <trkpt lat="49.37979" lon="-1.05244">
        <ele>27.546715</ele>
        <time>2022-08-02T10:48:52.000Z</time>
      </trkpt>
      <trkpt lat="49.37977" lon="-1.05236">
        <ele>27.573802</ele>
        <time>2022-08-02T10:48:53.000Z</time>
      </trkpt>
      <trkpt lat="49.37975" lon="-1.05229">
        <ele>27.600994</ele>
        <time>2022-08-02T10:48:54.000Z</time>
      </trkpt>
      <trkpt lat="49.37973" lon="-1.05221">
        <ele>27.628599</ele>
        <time>2022-08-02T10:48:55.000Z</time>
      </trkpt>
      <trkpt lat="49.37971" lon="-1.05214">
        <ele>27.656314</ele>
        <time>2022-08-02T10:48:56.000Z</time>
      </trkpt>
      <trkpt lat="49.37969" lon="-1.05207">
        <ele>27.683717</ele>
        <time>2022-08-02T10:48:57.000Z</time>
      </trkpt>
      <trkpt lat="49.37966" lon="-1.052">
        <ele>27.713187</ele>
        <time>2022-08-02T10:48:58.000Z</time>
      </trkpt>
      <trkpt lat="49.37963" lon="-1.05193">
        <ele>27.741856</ele>
        <time>2022-08-02T10:48:59.000Z</time>
      </trkpt>
      <trkpt lat="49.3796" lon="-1.05186">
        <ele>27.771325</ele>
        <time>2022-08-02T10:49:00.000Z</time>
      </trkpt>
      <trkpt lat="49.37957" lon="-1.05179">
        <ele>27.798198</ele>
        <time>2022-08-02T10:49:01.000Z</time>
      </trkpt>
      <trkpt lat="49.37955" lon="-1.05172">
        <ele>27.82592</ele>
        <time>2022-08-02T10:49:02.000Z</time>
      </trkpt>
      <trkpt lat="49.37952" lon="-1.05165">
        <ele>27.852016</ele>
        <time>2022-08-02T10:49:03.000Z</time>
      </trkpt>
      <trkpt lat="49.3795" lon="-1.05159">
        <ele>27.876647</ele>
        <time>2022-08-02T10:49:04.000Z</time>
      </trkpt>
      <trkpt lat="49.37948" lon="-1.05153">
        <ele>27.899018</ele>
        <time>2022-08-02T10:49:05.000Z</time>
      </trkpt>
      <trkpt lat="49.37946" lon="-1.05148">
        <ele>27.921327</ele>
        <time>2022-08-02T10:49:06.000Z</time>
      </trkpt>
      <trkpt lat="49.37944" lon="-1.05143">
        <ele>27.940388</ele>
        <time>2022-08-02T10:49:07.000Z</time>
      </trkpt>
      <trkpt lat="49.37943" lon="-1.05138">
        <ele>27.95735</ele>
        <time>2022-08-02T10:49:08.000Z</time>
      </trkpt>
      <trkpt lat="49.37942" lon="-1.05134">
        <ele>27.972524</ele>
        <time>2022-08-02T10:49:09.000Z</time>
      </trkpt>
      <trkpt lat="49.37941" lon="-1.05131">
        <ele>27.987314</ele>
        <time>2022-08-02T10:49:10.000Z</time>
      </trkpt>
      <trkpt lat="49.3794" lon="-1.05127">
        <ele>28.000483</ele>
        <time>2022-08-02T10:49:11.000Z</time>
      </trkpt>
      <trkpt lat="49.37939" lon="-1.05123">
        <ele>28.014415</ele>
        <time>2022-08-02T10:49:12.000Z</time>
      </trkpt>
      <trkpt lat="49.37938" lon="-1.0512">
        <ele>28.026659</ele>
        <time>2022-08-02T10:49:13.000Z</time>
      </trkpt>
      <trkpt lat="49.37939" lon="-1.05117">
        <ele>28.027547</ele>
        <time>2022-08-02T10:49:14.000Z</time>
      </trkpt>
      <trkpt lat="49.37942" lon="-1.05114">
        <ele>28.02771</ele>
        <time>2022-08-02T10:49:16.000Z</time>
      </trkpt>
      <trkpt lat="49.37944" lon="-1.05113">
        <ele>28.027803</ele>
        <time>2022-08-02T10:49:17.000Z</time>
      </trkpt>
      <trkpt lat="49.37947" lon="-1.05112">
        <ele>28.027927</ele>
        <time>2022-08-02T10:49:18.000Z</time>
      </trkpt>
      <trkpt lat="49.37949" lon="-1.0511">
        <ele>28.028066</ele>
        <time>2022-08-02T10:49:19.000Z</time>
      </trkpt>
      <trkpt lat="49.37952" lon="-1.05109">
        <ele>28.028209</ele>
        <time>2022-08-02T10:49:20.000Z</time>
      </trkpt>
      <trkpt lat="49.37956" lon="-1.05108">
        <ele>28.028363</ele>
        <time>2022-08-02T10:49:21.000Z</time>
      </trkpt>
      <trkpt lat="49.37958" lon="-1.05107">
        <ele>28.028501</ele>
        <time>2022-08-02T10:49:22.000Z</time>
      </trkpt>
      <trkpt lat="49.37962" lon="-1.05106">
        <ele>28.028667</ele>
        <time>2022-08-02T10:49:23.000Z</time>
      </trkpt>
      <trkpt lat="49.37965" lon="-1.05104">
        <ele>28.028835</ele>
        <time>2022-08-02T10:49:24.000Z</time>
      </trkpt>
      <trkpt lat="49.37969" lon="-1.05103">
        <ele>28.029006</ele>
        <time>2022-08-02T10:49:25.000Z</time>
      </trkpt>
      <trkpt lat="49.37973" lon="-1.05102">
        <ele>28.029188</ele>
        <time>2022-08-02T10:49:26.000Z</time>
      </trkpt>
      <trkpt lat="49.37976" lon="-1.05101">
        <ele>28.029356</ele>
        <time>2022-08-02T10:49:27.000Z</time>
      </trkpt>
      <trkpt lat="49.37981" lon="-1.05099">
        <ele>28.029572</ele>
        <time>2022-08-02T10:49:28.000Z</time>
      </trkpt>
      <trkpt lat="49.37984" lon="-1.05097">
        <ele>28.029731</ele>
        <time>2022-08-02T10:49:29.000Z</time>
      </trkpt>
      <trkpt lat="49.37988" lon="-1.05096">
        <ele>28.029912</ele>
        <time>2022-08-02T10:49:30.000Z</time>
      </trkpt>
      <trkpt lat="49.37992" lon="-1.05094">
        <ele>28.030099</ele>
        <time>2022-08-02T10:49:31.000Z</time>
      </trkpt>
      <trkpt lat="49.37995" lon="-1.05093">
        <ele>28.030268</ele>
        <time>2022-08-02T10:49:32.000Z</time>
      </trkpt>
      <trkpt lat="49.37999" lon="-1.05091">
        <ele>28.030469</ele>
        <time>2022-08-02T10:49:33.000Z</time>
      </trkpt>
      <trkpt lat="49.38003" lon="-1.0509">
        <ele>28.030652</ele>
        <time>2022-08-02T10:49:34.000Z</time>
      </trkpt>
      <trkpt lat="49.38007" lon="-1.05088">
        <ele>28.030854</ele>
        <time>2022-08-02T10:49:35.000Z</time>
      </trkpt>
      <trkpt lat="49.38011" lon="-1.05087">
        <ele>28.031038</ele>
        <time>2022-08-02T10:49:36.000Z</time>
      </trkpt>
      <trkpt lat="49.38015" lon="-1.05084">
        <ele>28.031227</ele>
        <time>2022-08-02T10:49:37.000Z</time>
      </trkpt>
      <trkpt lat="49.38019" lon="-1.05082">
        <ele>28.031433</ele>
        <time>2022-08-02T10:49:38.000Z</time>
      </trkpt>
      <trkpt lat="49.38023" lon="-1.0508">
        <ele>28.031623</ele>
        <time>2022-08-02T10:49:39.000Z</time>
      </trkpt>
      <trkpt lat="49.38027" lon="-1.05078">
        <ele>28.031816</ele>
        <time>2022-08-02T10:49:40.000Z</time>
      </trkpt>
      <trkpt lat="49.38031" lon="-1.05076">
        <ele>28.032004</ele>
        <time>2022-08-02T10:49:41.000Z</time>
      </trkpt>
      <trkpt lat="49.38035" lon="-1.05074">
        <ele>28.032195</ele>
        <time>2022-08-02T10:49:42.000Z</time>
      </trkpt>
      <trkpt lat="49.38038" lon="-1.05072">
        <ele>28.032383</ele>
        <time>2022-08-02T10:49:43.000Z</time>
      </trkpt>
      <trkpt lat="49.38042" lon="-1.0507">
        <ele>28.032544</ele>
        <time>2022-08-02T10:49:44.000Z</time>
      </trkpt>
      <trkpt lat="49.38045" lon="-1.05068">
        <ele>28.032692</ele>
        <time>2022-08-02T10:49:45.000Z</time>
      </trkpt>
      <trkpt lat="49.38046" lon="-1.05066">
        <ele>28.032801</ele>
        <time>2022-08-02T10:49:46.000Z</time>
      </trkpt>
      <trkpt lat="49.38049" lon="-1.05063">
        <ele>28.032932</ele>
        <time>2022-08-02T10:49:48.000Z</time>
      </trkpt>
      <trkpt lat="49.38054" lon="-1.05061">
        <ele>28.033207</ele>
        <time>2022-08-02T10:49:56.000Z</time>
      </trkpt>
      <trkpt lat="49.38057" lon="-1.0506">
        <ele>28.033332</ele>
        <time>2022-08-02T10:49:57.000Z</time>
      </trkpt>
      <trkpt lat="49.3806" lon="-1.05059">
        <ele>28.033457</ele>
        <time>2022-08-02T10:49:58.000Z</time>
      </trkpt>
      <trkpt lat="49.38062" lon="-1.05057">
        <ele>28.033581</ele>
        <time>2022-08-02T10:49:59.000Z</time>
      </trkpt>
      <trkpt lat="49.38064" lon="-1.05055">
        <ele>28.033716</ele>
        <time>2022-08-02T10:50:00.000Z</time>
      </trkpt>
      <trkpt lat="49.38067" lon="-1.05052">
        <ele>28.033844</ele>
        <time>2022-08-02T10:50:01.000Z</time>
      </trkpt>
      <trkpt lat="49.38069" lon="-1.0505">
        <ele>28.033959</ele>
        <time>2022-08-02T10:50:02.000Z</time>
      </trkpt>
      <trkpt lat="49.38071" lon="-1.05048">
        <ele>28.03408</ele>
        <time>2022-08-02T10:50:03.000Z</time>
      </trkpt>
      <trkpt lat="49.38073" lon="-1.05046">
        <ele>28.034206</ele>
        <time>2022-08-02T10:50:04.000Z</time>
      </trkpt>
      <trkpt lat="49.38076" lon="-1.05043">
        <ele>28.03434</ele>
        <time>2022-08-02T10:50:05.000Z</time>
      </trkpt>
      <trkpt lat="49.38079" lon="-1.05041">
        <ele>28.034503</ele>
        <time>2022-08-02T10:50:06.000Z</time>
      </trkpt>
      <trkpt lat="49.38082" lon="-1.05039">
        <ele>28.034656</ele>
        <time>2022-08-02T10:50:07.000Z</time>
      </trkpt>
      <trkpt lat="49.38085" lon="-1.05036">
        <ele>28.034831</ele>
        <time>2022-08-02T10:50:08.000Z</time>
      </trkpt>
      <trkpt lat="49.38088" lon="-1.05033">
        <ele>28.035007</ele>
        <time>2022-08-02T10:50:09.000Z</time>
      </trkpt>
      <trkpt lat="49.38091" lon="-1.05029">
        <ele>28.035177</ele>
        <time>2022-08-02T10:50:10.000Z</time>
      </trkpt>
      <trkpt lat="49.38094" lon="-1.05026">
        <ele>28.035366</ele>
        <time>2022-08-02T10:50:11.000Z</time>
      </trkpt>
      <trkpt lat="49.38098" lon="-1.05023">
        <ele>28.035568</ele>
        <time>2022-08-02T10:50:12.000Z</time>
      </trkpt>
      <trkpt lat="49.38102" lon="-1.0502">
        <ele>28.035771</ele>
        <time>2022-08-02T10:50:13.000Z</time>
      </trkpt>
      <trkpt lat="49.38106" lon="-1.05017">
        <ele>28.010094</ele>
        <time>2022-08-02T10:50:14.000Z</time>
      </trkpt>
      <trkpt lat="49.38109" lon="-1.05013">
        <ele>27.971901</ele>
        <time>2022-08-02T10:50:15.000Z</time>
      </trkpt>
      <trkpt lat="49.38113" lon="-1.05009">
        <ele>27.929873</ele>
        <time>2022-08-02T10:50:16.000Z</time>
      </trkpt>
      <trkpt lat="49.38117" lon="-1.05004">
        <ele>27.888027</ele>
        <time>2022-08-02T10:50:17.000Z</time>
      </trkpt>
      <trkpt lat="49.3812" lon="-1.04999">
        <ele>27.84695</ele>
        <time>2022-08-02T10:50:18.000Z</time>
      </trkpt>
      <trkpt lat="49.38123" lon="-1.04993">
        <ele>27.807052</ele>
        <time>2022-08-02T10:50:19.000Z</time>
      </trkpt>
      <trkpt lat="49.38127" lon="-1.04988">
        <ele>27.763247</ele>
        <time>2022-08-02T10:50:20.000Z</time>
      </trkpt>
      <trkpt lat="49.3813" lon="-1.04983">
        <ele>27.722048</ele>
        <time>2022-08-02T10:50:21.000Z</time>
      </trkpt>
      <trkpt lat="49.38134" lon="-1.04978">
        <ele>27.678785</ele>
        <time>2022-08-02T10:50:22.000Z</time>
      </trkpt>
      <trkpt lat="49.38137" lon="-1.04973">
        <ele>27.639628</ele>
        <time>2022-08-02T10:50:23.000Z</time>
      </trkpt>
      <trkpt lat="49.38141" lon="-1.04968">
        <ele>27.597783</ele>
        <time>2022-08-02T10:50:24.000Z</time>
      </trkpt>
      <trkpt lat="49.38144" lon="-1.04963">
        <ele>27.559021</ele>
        <time>2022-08-02T10:50:25.000Z</time>
      </trkpt>
      <trkpt lat="49.38147" lon="-1.04959">
        <ele>27.517944</ele>
        <time>2022-08-02T10:50:26.000Z</time>
      </trkpt>
      <trkpt lat="49.38151" lon="-1.04954">
        <ele>27.475937</ele>
        <time>2022-08-02T10:50:27.000Z</time>
      </trkpt>
      <trkpt lat="49.38155" lon="-1.04949">
        <ele>27.434203</ele>
        <time>2022-08-02T10:50:28.000Z</time>
      </trkpt>
      <trkpt lat="49.38158" lon="-1.04944">
        <ele>27.392358</ele>
        <time>2022-08-02T10:50:29.000Z</time>
      </trkpt>
      <trkpt lat="49.38162" lon="-1.0494">
        <ele>27.349646</ele>
        <time>2022-08-02T10:50:30.000Z</time>
      </trkpt>
      <trkpt lat="49.38166" lon="-1.04935">
        <ele>27.305894</ele>
        <time>2022-08-02T10:50:31.000Z</time>
      </trkpt>
      <trkpt lat="49.3817" lon="-1.0493">
        <ele>27.262089</ele>
        <time>2022-08-02T10:50:32.000Z</time>
      </trkpt>
      <trkpt lat="49.38173" lon="-1.04925">
        <ele>27.218653</ele>
        <time>2022-08-02T10:50:33.000Z</time>
      </trkpt>
      <trkpt lat="49.38178" lon="-1.0492">
        <ele>27.173493</ele>
        <time>2022-08-02T10:50:34.000Z</time>
      </trkpt>
      <trkpt lat="49.38181" lon="-1.04916">
        <ele>27.131487</ele>
        <time>2022-08-02T10:50:35.000Z</time>
      </trkpt>
      <trkpt lat="49.38186" lon="-1.04911">
        <ele>27.086656</ele>
        <time>2022-08-02T10:50:36.000Z</time>
      </trkpt>
      <trkpt lat="49.38189" lon="-1.04907">
        <ele>27.044995</ele>
        <time>2022-08-02T10:50:37.000Z</time>
      </trkpt>
      <trkpt lat="49.38194" lon="-1.04903">
        <ele>27.001428</ele>
        <time>2022-08-02T10:50:38.000Z</time>
      </trkpt>
      <trkpt lat="49.38197" lon="-1.04898">
        <ele>26.959767</ele>
        <time>2022-08-02T10:50:39.000Z</time>
      </trkpt>
      <trkpt lat="49.38201" lon="-1.04894">
        <ele>26.917063</ele>
        <time>2022-08-02T10:50:40.000Z</time>
      </trkpt>
      <trkpt lat="49.38205" lon="-1.04889">
        <ele>26.877105</ele>
        <time>2022-08-02T10:50:41.000Z</time>
      </trkpt>
      <trkpt lat="49.38209" lon="-1.04885">
        <ele>26.831299</ele>
        <time>2022-08-02T10:50:42.000Z</time>
      </trkpt>
      <trkpt lat="49.38213" lon="-1.04881">
        <ele>26.789638</ele>
        <time>2022-08-02T10:50:43.000Z</time>
      </trkpt>
      <trkpt lat="49.38217" lon="-1.04877">
        <ele>26.746072</ele>
        <time>2022-08-02T10:50:44.000Z</time>
      </trkpt>
      <trkpt lat="49.38221" lon="-1.04873">
        <ele>26.705742</ele>
        <time>2022-08-02T10:50:45.000Z</time>
      </trkpt>
      <trkpt lat="49.38224" lon="-1.04869">
        <ele>26.668893</ele>
        <time>2022-08-02T10:50:46.000Z</time>
      </trkpt>
      <trkpt lat="49.38228" lon="-1.04864">
        <ele>26.630009</ele>
        <time>2022-08-02T10:50:47.000Z</time>
      </trkpt>
      <trkpt lat="49.38231" lon="-1.0486">
        <ele>26.589375</ele>
        <time>2022-08-02T10:50:48.000Z</time>
      </trkpt>
      <trkpt lat="49.38235" lon="-1.04855">
        <ele>26.551393</ele>
        <time>2022-08-02T10:50:49.000Z</time>
      </trkpt>
      <trkpt lat="49.38238" lon="-1.04851">
        <ele>26.512858</ele>
        <time>2022-08-02T10:50:50.000Z</time>
      </trkpt>
      <trkpt lat="49.38241" lon="-1.04847">
        <ele>26.475259</ele>
        <time>2022-08-02T10:50:51.000Z</time>
      </trkpt>
      <trkpt lat="49.38245" lon="-1.04843">
        <ele>26.431808</ele>
        <time>2022-08-02T10:50:52.000Z</time>
      </trkpt>
      <trkpt lat="49.38247" lon="-1.04838">
        <ele>26.385016</ele>
        <time>2022-08-02T10:50:53.000Z</time>
      </trkpt>
      <trkpt lat="49.3825" lon="-1.04834">
        <ele>26.338496</ele>
        <time>2022-08-02T10:50:54.000Z</time>
      </trkpt>
      <trkpt lat="49.38253" lon="-1.0483">
        <ele>26.293754</ele>
        <time>2022-08-02T10:50:55.000Z</time>
      </trkpt>
      <trkpt lat="49.38256" lon="-1.04826">
        <ele>26.25098</ele>
        <time>2022-08-02T10:50:56.000Z</time>
      </trkpt>
      <trkpt lat="49.38259" lon="-1.04822">
        <ele>26.20362</ele>
        <time>2022-08-02T10:50:57.000Z</time>
      </trkpt>
      <trkpt lat="49.38262" lon="-1.04818">
        <ele>26.158878</ele>
        <time>2022-08-02T10:50:58.000Z</time>
      </trkpt>
      <trkpt lat="49.38265" lon="-1.04814">
        <ele>26.111986</ele>
        <time>2022-08-02T10:50:59.000Z</time>
      </trkpt>
      <trkpt lat="49.38268" lon="-1.0481">
        <ele>26.068091</ele>
        <time>2022-08-02T10:51:00.000Z</time>
      </trkpt>
      <trkpt lat="49.38271" lon="-1.04806">
        <ele>26.022559</ele>
        <time>2022-08-02T10:51:01.000Z</time>
      </trkpt>
      <trkpt lat="49.38274" lon="-1.04802">
        <ele>25.975767</ele>
        <time>2022-08-02T10:51:02.000Z</time>
      </trkpt>
      <trkpt lat="49.38277" lon="-1.04798">
        <ele>25.931025</ele>
        <time>2022-08-02T10:51:03.000Z</time>
      </trkpt>
      <trkpt lat="49.3828" lon="-1.04794">
        <ele>25.884594</ele>
        <time>2022-08-02T10:51:04.000Z</time>
      </trkpt>
      <trkpt lat="49.38283" lon="-1.0479">
        <ele>25.838163</ele>
        <time>2022-08-02T10:51:05.000Z</time>
      </trkpt>
      <trkpt lat="49.38287" lon="-1.04787">
        <ele>25.791406</ele>
        <time>2022-08-02T10:51:06.000Z</time>
      </trkpt>
      <trkpt lat="49.3829" lon="-1.04784">
        <ele>25.750416</ele>
        <time>2022-08-02T10:51:07.000Z</time>
      </trkpt>
      <trkpt lat="49.38293" lon="-1.04781">
        <ele>25.702663</ele>
        <time>2022-08-02T10:51:08.000Z</time>
      </trkpt>
      <trkpt lat="49.38297" lon="-1.04779">
        <ele>25.653556</ele>
        <time>2022-08-02T10:51:09.000Z</time>
      </trkpt>
      <trkpt lat="49.38301" lon="-1.04777">
        <ele>25.607444</ele>
        <time>2022-08-02T10:51:10.000Z</time>
      </trkpt>
      <trkpt lat="49.38305" lon="-1.04775">
        <ele>25.560907</ele>
        <time>2022-08-02T10:51:11.000Z</time>
      </trkpt>
      <trkpt lat="49.38309" lon="-1.04774">
        <ele>25.519896</ele>
        <time>2022-08-02T10:51:12.000Z</time>
      </trkpt>
      <trkpt lat="49.38312" lon="-1.04773">
        <ele>25.478729</ele>
        <time>2022-08-02T10:51:13.000Z</time>
      </trkpt>
      <trkpt lat="49.38316" lon="-1.04771">
        <ele>25.437393</ele>
        <time>2022-08-02T10:51:14.000Z</time>
      </trkpt>
      <trkpt lat="49.38319" lon="-1.0477">
        <ele>25.392004</ele>
        <time>2022-08-02T10:51:15.000Z</time>
      </trkpt>
      <trkpt lat="49.38323" lon="-1.04769">
        <ele>25.350837</ele>
        <time>2022-08-02T10:51:16.000Z</time>
      </trkpt>
      <trkpt lat="49.38327" lon="-1.04768">
        <ele>25.303393</ele>
        <time>2022-08-02T10:51:17.000Z</time>
      </trkpt>
      <trkpt lat="49.38331" lon="-1.04768">
        <ele>25.254896</ele>
        <time>2022-08-02T10:51:18.000Z</time>
      </trkpt>
      <trkpt lat="49.38335" lon="-1.04767">
        <ele>25.2064</ele>
        <time>2022-08-02T10:51:19.000Z</time>
      </trkpt>
      <trkpt lat="49.3834" lon="-1.04766">
        <ele>25.155691</ele>
        <time>2022-08-02T10:51:20.000Z</time>
      </trkpt>
      <trkpt lat="49.38345" lon="-1.04765">
        <ele>25.09562</ele>
        <time>2022-08-02T10:51:21.000Z</time>
      </trkpt>
      <trkpt lat="49.38349" lon="-1.04764">
        <ele>25.044561</ele>
        <time>2022-08-02T10:51:22.000Z</time>
      </trkpt>
      <trkpt lat="49.38354" lon="-1.04764">
        <ele>24.989136</ele>
        <time>2022-08-02T10:51:23.000Z</time>
      </trkpt>
      <trkpt lat="49.38359" lon="-1.04763">
        <ele>24.93694</ele>
        <time>2022-08-02T10:51:24.000Z</time>
      </trkpt>
      <trkpt lat="49.38363" lon="-1.04762">
        <ele>24.884938</ele>
        <time>2022-08-02T10:51:25.000Z</time>
      </trkpt>
      <trkpt lat="49.38368" lon="-1.04761">
        <ele>24.829589</ele>
        <time>2022-08-02T10:51:26.000Z</time>
      </trkpt>
      <trkpt lat="49.38373" lon="-1.04761">
        <ele>24.777796</ele>
        <time>2022-08-02T10:51:27.000Z</time>
      </trkpt>
      <trkpt lat="49.38377" lon="-1.0476">
        <ele>24.722649</ele>
        <time>2022-08-02T10:51:28.000Z</time>
      </trkpt>
      <trkpt lat="49.38382" lon="-1.0476">
        <ele>24.6673</ele>
        <time>2022-08-02T10:51:29.000Z</time>
      </trkpt>
      <trkpt lat="49.38387" lon="-1.04759">
        <ele>24.61195</ele>
        <time>2022-08-02T10:51:30.000Z</time>
      </trkpt>
      <trkpt lat="49.38392" lon="-1.04758">
        <ele>24.549799</ele>
        <time>2022-08-02T10:51:31.000Z</time>
      </trkpt>
      <trkpt lat="49.38397" lon="-1.04758">
        <ele>24.494571</ele>
        <time>2022-08-02T10:51:32.000Z</time>
      </trkpt>
      <trkpt lat="49.38403" lon="-1.04758">
        <ele>24.431416</ele>
        <time>2022-08-02T10:51:33.000Z</time>
      </trkpt>
      <trkpt lat="49.38407" lon="-1.04757">
        <ele>24.336318</ele>
        <time>2022-08-02T10:51:34.000Z</time>
      </trkpt>
      <trkpt lat="49.38413" lon="-1.04757">
        <ele>24.161492</ele>
        <time>2022-08-02T10:51:35.000Z</time>
      </trkpt>
      <trkpt lat="49.38418" lon="-1.04758">
        <ele>23.976167</ele>
        <time>2022-08-02T10:51:36.000Z</time>
      </trkpt>
      <trkpt lat="49.38423" lon="-1.04758">
        <ele>23.800986</ele>
        <time>2022-08-02T10:51:37.000Z</time>
      </trkpt>
      <trkpt lat="49.38429" lon="-1.04759">
        <ele>23.611605</ele>
        <time>2022-08-02T10:51:38.000Z</time>
      </trkpt>
      <trkpt lat="49.38434" lon="-1.0476">
        <ele>23.43587</ele>
        <time>2022-08-02T10:51:39.000Z</time>
      </trkpt>
      <trkpt lat="49.38439" lon="-1.04761">
        <ele>23.259625</ele>
        <time>2022-08-02T10:51:40.000Z</time>
      </trkpt>
      <trkpt lat="49.38444" lon="-1.04762">
        <ele>23.070442</ele>
        <time>2022-08-02T10:51:41.000Z</time>
      </trkpt>
      <trkpt lat="49.3845" lon="-1.04763">
        <ele>22.883992</ele>
        <time>2022-08-02T10:51:42.000Z</time>
      </trkpt>
      <trkpt lat="49.38455" lon="-1.04763">
        <ele>22.708257</ele>
        <time>2022-08-02T10:51:43.000Z</time>
      </trkpt>
      <trkpt lat="49.38461" lon="-1.04764">
        <ele>22.508823</ele>
        <time>2022-08-02T10:51:44.000Z</time>
      </trkpt>
      <trkpt lat="49.38467" lon="-1.04765">
        <ele>22.29801</ele>
        <time>2022-08-02T10:51:45.000Z</time>
      </trkpt>
      <trkpt lat="49.38473" lon="-1.04766">
        <ele>22.090873</ele>
        <time>2022-08-02T10:51:46.000Z</time>
      </trkpt>
      <trkpt lat="49.38479" lon="-1.04767">
        <ele>21.880805</ele>
        <time>2022-08-02T10:51:47.000Z</time>
      </trkpt>
      <trkpt lat="49.38485" lon="-1.04768">
        <ele>21.649824</ele>
        <time>2022-08-02T10:51:48.000Z</time>
      </trkpt>
      <trkpt lat="49.38492" lon="-1.04769">
        <ele>21.429517</ele>
        <time>2022-08-02T10:51:49.000Z</time>
      </trkpt>
      <trkpt lat="49.38498" lon="-1.0477">
        <ele>21.20972</ele>
        <time>2022-08-02T10:51:50.000Z</time>
      </trkpt>
      <trkpt lat="49.38505" lon="-1.04771">
        <ele>20.989413</ele>
        <time>2022-08-02T10:51:51.000Z</time>
      </trkpt>
      <trkpt lat="49.38511" lon="-1.04772">
        <ele>20.75563</ele>
        <time>2022-08-02T10:51:52.000Z</time>
      </trkpt>
      <trkpt lat="49.38518" lon="-1.04772">
        <ele>20.525426</ele>
        <time>2022-08-02T10:51:53.000Z</time>
      </trkpt>
      <trkpt lat="49.38525" lon="-1.04773">
        <ele>20.273984</ele>
        <time>2022-08-02T10:51:54.000Z</time>
      </trkpt>
      <trkpt lat="49.38533" lon="-1.04775">
        <ele>20.008189</ele>
        <time>2022-08-02T10:51:55.000Z</time>
      </trkpt>
      <trkpt lat="49.38541" lon="-1.04777">
        <ele>19.741198</ele>
        <time>2022-08-02T10:51:56.000Z</time>
      </trkpt>
      <trkpt lat="49.38548" lon="-1.04778">
        <ele>19.484368</ele>
        <time>2022-08-02T10:51:57.000Z</time>
      </trkpt>
      <trkpt lat="49.38556" lon="-1.0478">
        <ele>19.220049</ele>
        <time>2022-08-02T10:51:58.000Z</time>
      </trkpt>
      <trkpt lat="49.38564" lon="-1.04782">
        <ele>18.928662</ele>
        <time>2022-08-02T10:51:59.000Z</time>
      </trkpt>
      <trkpt lat="49.38572" lon="-1.04784">
        <ele>18.65239</ele>
        <time>2022-08-02T10:52:00.000Z</time>
      </trkpt>
      <trkpt lat="49.38581" lon="-1.04785">
        <ele>18.355935</ele>
        <time>2022-08-02T10:52:01.000Z</time>
      </trkpt>
      <trkpt lat="49.38589" lon="-1.04786">
        <ele>18.002034</ele>
        <time>2022-08-02T10:52:02.000Z</time>
      </trkpt>
      <trkpt lat="49.38597" lon="-1.04787">
        <ele>17.623124</ele>
        <time>2022-08-02T10:52:03.000Z</time>
      </trkpt>
      <trkpt lat="49.38605" lon="-1.04788">
        <ele>17.245224</ele>
        <time>2022-08-02T10:52:04.000Z</time>
      </trkpt>
      <trkpt lat="49.38612" lon="-1.04788">
        <ele>16.901614</ele>
        <time>2022-08-02T10:52:05.000Z</time>
      </trkpt>
      <trkpt lat="49.38617" lon="-1.04789">
        <ele>16.616768</ele>
        <time>2022-08-02T10:52:06.000Z</time>
      </trkpt>
      <trkpt lat="49.38623" lon="-1.04789">
        <ele>16.351907</ele>
        <time>2022-08-02T10:52:07.000Z</time>
      </trkpt>
      <trkpt lat="49.38627" lon="-1.04788">
        <ele>16.144755</ele>
        <time>2022-08-02T10:52:08.000Z</time>
      </trkpt>
      <trkpt lat="49.38631" lon="-1.04787">
        <ele>15.954529</ele>
        <time>2022-08-02T10:52:09.000Z</time>
      </trkpt>
      <trkpt lat="49.38634" lon="-1.04785">
        <ele>15.776356</ele>
        <time>2022-08-02T10:52:10.000Z</time>
      </trkpt>
      <trkpt lat="49.38637" lon="-1.04785">
        <ele>15.631882</ele>
        <time>2022-08-02T10:52:11.000Z</time>
      </trkpt>
      <trkpt lat="49.3864" lon="-1.04785">
        <ele>15.474973</ele>
        <time>2022-08-02T10:52:12.000Z</time>
      </trkpt>
      <trkpt lat="49.38643" lon="-1.04786">
        <ele>15.329236</ele>
        <time>2022-08-02T10:52:13.000Z</time>
      </trkpt>
      <trkpt lat="49.38647" lon="-1.04787">
        <ele>15.151063</ele>
        <time>2022-08-02T10:52:14.000Z</time>
      </trkpt>
      <trkpt lat="49.38651" lon="-1.04788">
        <ele>14.943542</ele>
        <time>2022-08-02T10:52:15.000Z</time>
      </trkpt>
      <trkpt lat="49.38656" lon="-1.04788">
        <ele>14.693468</ele>
        <time>2022-08-02T10:52:16.000Z</time>
      </trkpt>
      <trkpt lat="49.38661" lon="-1.04788">
        <ele>14.472814</ele>
        <time>2022-08-02T10:52:17.000Z</time>
      </trkpt>
      <trkpt lat="49.38666" lon="-1.04788">
        <ele>14.208011</ele>
        <time>2022-08-02T10:52:18.000Z</time>
      </trkpt>
      <trkpt lat="49.38671" lon="-1.04788">
        <ele>13.957753</ele>
        <time>2022-08-02T10:52:19.000Z</time>
      </trkpt>
      <trkpt lat="49.38677" lon="-1.04788">
        <ele>13.688066</ele>
        <time>2022-08-02T10:52:20.000Z</time>
      </trkpt>
      <trkpt lat="49.38682" lon="-1.04789">
        <ele>13.407679</ele>
        <time>2022-08-02T10:52:21.000Z</time>
      </trkpt>
      <trkpt lat="49.38687" lon="-1.0479">
        <ele>13.150296</ele>
        <time>2022-08-02T10:52:22.000Z</time>
      </trkpt>
      <trkpt lat="49.38693" lon="-1.04791">
        <ele>12.883594</ele>
        <time>2022-08-02T10:52:23.000Z</time>
      </trkpt>
      <trkpt lat="49.38699" lon="-1.04792">
        <ele>12.582044</ele>
        <time>2022-08-02T10:52:24.000Z</time>
      </trkpt>
      <trkpt lat="49.38704" lon="-1.04793">
        <ele>12.314028</ele>
        <time>2022-08-02T10:52:25.000Z</time>
      </trkpt>
      <trkpt lat="49.3871" lon="-1.04795">
        <ele>12.025628</ele>
        <time>2022-08-02T10:52:26.000Z</time>
      </trkpt>
      <trkpt lat="49.38716" lon="-1.04797">
        <ele>11.720433</ele>
        <time>2022-08-02T10:52:27.000Z</time>
      </trkpt>
      <trkpt lat="49.38722" lon="-1.04799">
        <ele>11.420671</ele>
        <time>2022-08-02T10:52:28.000Z</time>
      </trkpt>
      <trkpt lat="49.38729" lon="-1.048">
        <ele>11.102196</ele>
        <time>2022-08-02T10:52:29.000Z</time>
      </trkpt>
      <trkpt lat="49.38735" lon="-1.04801">
        <ele>10.801034</ele>
        <time>2022-08-02T10:52:30.000Z</time>
      </trkpt>
      <trkpt lat="49.38741" lon="-1.04803">
        <ele>10.498606</ele>
        <time>2022-08-02T10:52:31.000Z</time>
      </trkpt>
      <trkpt lat="49.38746" lon="-1.04804">
        <ele>10.231905</ele>
        <time>2022-08-02T10:52:32.000Z</time>
      </trkpt>
      <trkpt lat="49.38752" lon="-1.04805">
        <ele>9.961011</ele>
        <time>2022-08-02T10:52:33.000Z</time>
      </trkpt>
      <trkpt lat="49.38756" lon="-1.04805">
        <ele>9.758733</ele>
        <time>2022-08-02T10:52:34.000Z</time>
      </trkpt>
      <trkpt lat="49.38759" lon="-1.04806">
        <ele>9.616212</ele>
        <time>2022-08-02T10:52:35.000Z</time>
      </trkpt>
      <trkpt lat="49.38761" lon="-1.04806">
        <ele>9.488723</ele>
        <time>2022-08-02T10:52:37.000Z</time>
      </trkpt>
      <trkpt lat="49.38765" lon="-1.04799">
        <ele>9.384616</ele>
        <time>2022-08-02T10:52:50.000Z</time>
      </trkpt>
      <trkpt lat="49.38765" lon="-1.04795">
        <ele>9.367283</ele>
        <time>2022-08-02T10:52:51.000Z</time>
      </trkpt>
      <trkpt lat="49.38765" lon="-1.04791">
        <ele>9.347368</ele>
        <time>2022-08-02T10:52:52.000Z</time>
      </trkpt>
      <trkpt lat="49.38766" lon="-1.04786">
        <ele>9.326802</ele>
        <time>2022-08-02T10:52:53.000Z</time>
      </trkpt>
      <trkpt lat="49.38766" lon="-1.04781">
        <ele>9.303162</ele>
        <time>2022-08-02T10:52:54.000Z</time>
      </trkpt>
      <trkpt lat="49.38766" lon="-1.04776">
        <ele>9.279162</ele>
        <time>2022-08-02T10:52:55.000Z</time>
      </trkpt>
      <trkpt lat="49.38767" lon="-1.0477">
        <ele>9.253016</ele>
        <time>2022-08-02T10:52:56.000Z</time>
      </trkpt>
      <trkpt lat="49.38767" lon="-1.04764">
        <ele>9.225413</ele>
        <time>2022-08-02T10:52:57.000Z</time>
      </trkpt>
      <trkpt lat="49.38768" lon="-1.04758">
        <ele>9.198819</ele>
        <time>2022-08-02T10:52:58.000Z</time>
      </trkpt>
      <trkpt lat="49.38768" lon="-1.04752">
        <ele>9.170744</ele>
        <time>2022-08-02T10:52:59.000Z</time>
      </trkpt>
      <trkpt lat="49.38769" lon="-1.04746">
        <ele>9.143255</ele>
        <time>2022-08-02T10:53:00.000Z</time>
      </trkpt>
      <trkpt lat="49.38769" lon="-1.04741">
        <ele>9.119255</ele>
        <time>2022-08-02T10:53:01.000Z</time>
      </trkpt>
      <trkpt lat="49.38769" lon="-1.04736">
        <ele>9.096096</ele>
        <time>2022-08-02T10:53:02.000Z</time>
      </trkpt>
      <trkpt lat="49.3877" lon="-1.04731">
        <ele>9.073809</ele>
        <time>2022-08-02T10:53:03.000Z</time>
      </trkpt>
      <trkpt lat="49.3877" lon="-1.04726">
        <ele>9.051973</ele>
        <time>2022-08-02T10:53:04.000Z</time>
      </trkpt>
      <trkpt lat="49.3877" lon="-1.04721">
        <ele>9.029332</ele>
        <time>2022-08-02T10:53:05.000Z</time>
      </trkpt>
      <trkpt lat="49.3877" lon="-1.04716">
        <ele>9.00669</ele>
        <time>2022-08-02T10:53:06.000Z</time>
      </trkpt>
      <trkpt lat="49.3877" lon="-1.04711">
        <ele>8.983143</ele>
        <time>2022-08-02T10:53:07.000Z</time>
      </trkpt>
      <trkpt lat="49.3877" lon="-1.04706">
        <ele>8.959955</ele>
        <time>2022-08-02T10:53:08.000Z</time>
      </trkpt>
      <trkpt lat="49.38771" lon="-1.047">
        <ele>8.934894</ele>
        <time>2022-08-02T10:53:09.000Z</time>
      </trkpt>
      <trkpt lat="49.38772" lon="-1.04695">
        <ele>8.909213</ele>
        <time>2022-08-02T10:53:10.000Z</time>
      </trkpt>
      <trkpt lat="49.38772" lon="-1.04689">
        <ele>8.88422</ele>
        <time>2022-08-02T10:53:11.000Z</time>
      </trkpt>
      <trkpt lat="49.38773" lon="-1.04684">
        <ele>8.861061</ele>
        <time>2022-08-02T10:53:12.000Z</time>
      </trkpt>
      <trkpt lat="49.38774" lon="-1.04679">
        <ele>8.835837</ele>
        <time>2022-08-02T10:53:13.000Z</time>
      </trkpt>
      <trkpt lat="49.38774" lon="-1.04674">
        <ele>8.812814</ele>
        <time>2022-08-02T10:53:14.000Z</time>
      </trkpt>
      <trkpt lat="49.38775" lon="-1.04669">
        <ele>8.791429</ele>
        <time>2022-08-02T10:53:15.000Z</time>
      </trkpt>
      <trkpt lat="49.38775" lon="-1.04665">
        <ele>8.773316</ele>
        <time>2022-08-02T10:53:16.000Z</time>
      </trkpt>
      <trkpt lat="49.38776" lon="-1.04661">
        <ele>8.753913</ele>
        <time>2022-08-02T10:53:17.000Z</time>
      </trkpt>
      <trkpt lat="49.38776" lon="-1.04658">
        <ele>8.736579</ele>
        <time>2022-08-02T10:53:18.000Z</time>
      </trkpt>
      <trkpt lat="49.38777" lon="-1.04654">
        <ele>8.718872</ele>
        <time>2022-08-02T10:53:19.000Z</time>
      </trkpt>
      <trkpt lat="49.38778" lon="-1.0465">
        <ele>8.698621</ele>
        <time>2022-08-02T10:53:20.000Z</time>
      </trkpt>
      <trkpt lat="49.38778" lon="-1.04645">
        <ele>8.678137</ele>
        <time>2022-08-02T10:53:21.000Z</time>
      </trkpt>
      <trkpt lat="49.38779" lon="-1.0464">
        <ele>8.655863</ele>
        <time>2022-08-02T10:53:22.000Z</time>
      </trkpt>
      <trkpt lat="49.38779" lon="-1.04635">
        <ele>8.633285</ele>
        <time>2022-08-02T10:53:23.000Z</time>
      </trkpt>
      <trkpt lat="49.3878" lon="-1.04631">
        <ele>8.612801</ele>
        <time>2022-08-02T10:53:24.000Z</time>
      </trkpt>
      <trkpt lat="49.3878" lon="-1.04626">
        <ele>8.591866</ele>
        <time>2022-08-02T10:53:25.000Z</time>
      </trkpt>
      <trkpt lat="49.3878" lon="-1.04621">
        <ele>8.568319</ele>
        <time>2022-08-02T10:53:26.000Z</time>
      </trkpt>
      <trkpt lat="49.38781" lon="-1.04616">
        <ele>8.54516</ele>
        <time>2022-08-02T10:53:27.000Z</time>
      </trkpt>
      <trkpt lat="49.38781" lon="-1.04611">
        <ele>8.521246</ele>
        <time>2022-08-02T10:53:28.000Z</time>
      </trkpt>
      <trkpt lat="49.38781" lon="-1.04606">
        <ele>8.498152</ele>
        <time>2022-08-02T10:53:29.000Z</time>
      </trkpt>
      <trkpt lat="49.38781" lon="-1.046">
        <ele>8.473246</ele>
        <time>2022-08-02T10:53:30.000Z</time>
      </trkpt>
      <trkpt lat="49.38782" lon="-1.04595">
        <ele>8.446979</ele>
        <time>2022-08-02T10:53:31.000Z</time>
      </trkpt>
      <trkpt lat="49.38782" lon="-1.04589">
        <ele>8.421726</ele>
        <time>2022-08-02T10:53:32.000Z</time>
      </trkpt>
      <trkpt lat="49.38783" lon="-1.04584">
        <ele>8.396473</ele>
        <time>2022-08-02T10:53:33.000Z</time>
      </trkpt>
      <trkpt lat="49.38783" lon="-1.04578">
        <ele>8.371413</ele>
        <time>2022-08-02T10:53:34.000Z</time>
      </trkpt>
      <trkpt lat="49.38784" lon="-1.04572">
        <ele>8.344819</ele>
        <time>2022-08-02T10:53:35.000Z</time>
      </trkpt>
      <trkpt lat="49.38784" lon="-1.04567">
        <ele>8.319826</ele>
        <time>2022-08-02T10:53:36.000Z</time>
      </trkpt>
      <trkpt lat="49.38785" lon="-1.04561">
        <ele>8.293967</ele>
        <time>2022-08-02T10:53:37.000Z</time>
      </trkpt>
      <trkpt lat="49.38786" lon="-1.04556">
        <ele>8.269426</ele>
        <time>2022-08-02T10:53:38.000Z</time>
      </trkpt>
      <trkpt lat="49.38786" lon="-1.0455">
        <ele>8.244173</ele>
        <time>2022-08-02T10:53:39.000Z</time>
      </trkpt>
      <trkpt lat="49.38787" lon="-1.04545">
        <ele>8.218662</ele>
        <time>2022-08-02T10:53:40.000Z</time>
      </trkpt>
      <trkpt lat="49.38787" lon="-1.04539">
        <ele>8.192515</ele>
        <time>2022-08-02T10:53:41.000Z</time>
      </trkpt>
      <trkpt lat="49.38788" lon="-1.04533">
        <ele>8.166369</ele>
        <time>2022-08-02T10:53:42.000Z</time>
      </trkpt>
      <trkpt lat="49.38788" lon="-1.04528">
        <ele>8.157251</ele>
        <time>2022-08-02T10:53:43.000Z</time>
      </trkpt>
      <trkpt lat="49.38789" lon="-1.04523">
        <ele>8.15381</ele>
        <time>2022-08-02T10:53:44.000Z</time>
      </trkpt>
      <trkpt lat="49.38789" lon="-1.04519">
        <ele>8.151</ele>
        <time>2022-08-02T10:53:45.000Z</time>
      </trkpt>
      <trkpt lat="49.38789" lon="-1.04516">
        <ele>8.148892</ele>
        <time>2022-08-02T10:53:46.000Z</time>
      </trkpt>
      <trkpt lat="49.3879" lon="-1.04514">
        <ele>8.146785</ele>
        <time>2022-08-02T10:53:47.000Z</time>
      </trkpt>
      <trkpt lat="49.38791" lon="-1.04509">
        <ele>8.143369</ele>
        <time>2022-08-02T10:53:49.000Z</time>
      </trkpt>
      <trkpt lat="49.38793" lon="-1.04508">
        <ele>8.141099</ele>
        <time>2022-08-02T10:53:51.000Z</time>
      </trkpt>
      <trkpt lat="49.38794" lon="-1.04511">
        <ele>8.139095</ele>
        <time>2022-08-02T10:53:53.000Z</time>
      </trkpt>
      <trkpt lat="49.38796" lon="-1.04512">
        <ele>8.136203</ele>
        <time>2022-08-02T10:54:20.000Z</time>
      </trkpt>
      <trkpt lat="49.38798" lon="-1.04512">
        <ele>8.134109</ele>
        <time>2022-08-02T10:54:21.000Z</time>
      </trkpt>
      <trkpt lat="49.38802" lon="-1.04514">
        <ele>8.130148</ele>
        <time>2022-08-02T10:54:23.000Z</time>
      </trkpt>
      <trkpt lat="49.38804" lon="-1.04515">
        <ele>8.128067</ele>
        <time>2022-08-02T10:54:24.000Z</time>
      </trkpt>
      <trkpt lat="49.38805" lon="-1.04515">
        <ele>8.126012</ele>
        <time>2022-08-02T10:54:25.000Z</time>
      </trkpt>
      <trkpt lat="49.38807" lon="-1.04515">
        <ele>8.123813</ele>
        <time>2022-08-02T10:54:26.000Z</time>
      </trkpt>
      <trkpt lat="49.3881" lon="-1.04517">
        <ele>8.120941</ele>
        <time>2022-08-02T10:54:27.000Z</time>
      </trkpt>
      <trkpt lat="49.38812" lon="-1.04517">
        <ele>8.11845</ele>
        <time>2022-08-02T10:54:28.000Z</time>
      </trkpt>
      <trkpt lat="49.38815" lon="-1.04518">
        <ele>8.115389</ele>
        <time>2022-08-02T10:54:29.000Z</time>
      </trkpt>
      <trkpt lat="49.38818" lon="-1.04518">
        <ele>8.112552</ele>
        <time>2022-08-02T10:54:30.000Z</time>
      </trkpt>
      <trkpt lat="49.38821" lon="-1.04519">
        <ele>8.109041</ele>
        <time>2022-08-02T10:54:31.000Z</time>
      </trkpt>
      <trkpt lat="49.38823" lon="-1.0452">
        <ele>8.106213</ele>
        <time>2022-08-02T10:54:32.000Z</time>
      </trkpt>
      <trkpt lat="49.38827" lon="-1.04521">
        <ele>8.102327</ele>
        <time>2022-08-02T10:54:33.000Z</time>
      </trkpt>
      <trkpt lat="49.3883" lon="-1.04524">
        <ele>8.098667</ele>
        <time>2022-08-02T10:54:34.000Z</time>
      </trkpt>
      <trkpt lat="49.38833" lon="-1.04526">
        <ele>8.094912</ele>
        <time>2022-08-02T10:54:35.000Z</time>
      </trkpt>
      <trkpt lat="49.38836" lon="-1.04528">
        <ele>8.091962</ele>
        <time>2022-08-02T10:54:36.000Z</time>
      </trkpt>
      <trkpt lat="49.38839" lon="-1.04529">
        <ele>8.088438</ele>
        <time>2022-08-02T10:54:37.000Z</time>
      </trkpt>
      <trkpt lat="49.38842" lon="-1.0453">
        <ele>8.085062</ele>
        <time>2022-08-02T10:54:38.000Z</time>
      </trkpt>
      <trkpt lat="49.38844" lon="-1.04532">
        <ele>8.081924</ele>
        <time>2022-08-02T10:54:39.000Z</time>
      </trkpt>
      <trkpt lat="49.38847" lon="-1.04533">
        <ele>8.0784</ele>
        <time>2022-08-02T10:54:40.000Z</time>
      </trkpt>
      <trkpt lat="49.38851" lon="-1.04534">
        <ele>8.074912</ele>
        <time>2022-08-02T10:54:41.000Z</time>
      </trkpt>
      <trkpt lat="49.38853" lon="-1.04535">
        <ele>8.072063</ele>
        <time>2022-08-02T10:54:42.000Z</time>
      </trkpt>
      <trkpt lat="49.38855" lon="-1.04535">
        <ele>8.070012</ele>
        <time>2022-08-02T10:54:43.000Z</time>
      </trkpt>
      <trkpt lat="49.38857" lon="-1.04534">
        <ele>8.067695</ele>
        <time>2022-08-02T10:54:44.000Z</time>
      </trkpt>
      <trkpt lat="49.38859" lon="-1.04532">
        <ele>8.065286</ele>
        <time>2022-08-02T10:54:45.000Z</time>
      </trkpt>
      <trkpt lat="49.38861" lon="-1.0453">
        <ele>8.062721</ele>
        <time>2022-08-02T10:54:46.000Z</time>
      </trkpt>
      <trkpt lat="49.38862" lon="-1.04526">
        <ele>8.060011</ele>
        <time>2022-08-02T10:54:47.000Z</time>
      </trkpt>
      <trkpt lat="49.38863" lon="-1.04522">
        <ele>8.056917</ele>
        <time>2022-08-02T10:54:48.000Z</time>
      </trkpt>
      <trkpt lat="49.38864" lon="-1.04518">
        <ele>8.053776</ele>
        <time>2022-08-02T10:54:49.000Z</time>
      </trkpt>
      <trkpt lat="49.38865" lon="-1.04513">
        <ele>8.050124</ele>
        <time>2022-08-02T10:54:50.000Z</time>
      </trkpt>
      <trkpt lat="49.38866" lon="-1.04508">
        <ele>8.046552</ele>
        <time>2022-08-02T10:54:51.000Z</time>
      </trkpt>
      <trkpt lat="49.38867" lon="-1.04503">
        <ele>8.042508</ele>
        <time>2022-08-02T10:54:52.000Z</time>
      </trkpt>
      <trkpt lat="49.38868" lon="-1.04498">
        <ele>8.038729</ele>
        <time>2022-08-02T10:54:53.000Z</time>
      </trkpt>
      <trkpt lat="49.38869" lon="-1.04492">
        <ele>8.034998</ele>
        <time>2022-08-02T10:54:54.000Z</time>
      </trkpt>
      <trkpt lat="49.38869" lon="-1.04487">
        <ele>8.031358</ele>
        <time>2022-08-02T10:54:55.000Z</time>
      </trkpt>
      <trkpt lat="49.3887" lon="-1.04482">
        <ele>8.027834</ele>
        <time>2022-08-02T10:54:56.000Z</time>
      </trkpt>
      <trkpt lat="49.38871" lon="-1.04478">
        <ele>8.024794</ele>
        <time>2022-08-02T10:54:57.000Z</time>
      </trkpt>
      <trkpt lat="49.38872" lon="-1.04475">
        <ele>8.022301</ele>
        <time>2022-08-02T10:54:58.000Z</time>
      </trkpt>
      <trkpt lat="49.38873" lon="-1.04471">
        <ele>8.018842</ele>
        <time>2022-08-02T10:55:00.000Z</time>
      </trkpt>
      <trkpt lat="49.38875" lon="-1.04468">
        <ele>8.016525</ele>
        <time>2022-08-02T10:55:03.000Z</time>
      </trkpt>
      <trkpt lat="49.38877" lon="-1.0447">
        <ele>8.013483</ele>
        <time>2022-08-02T10:55:05.000Z</time>
      </trkpt>
      <trkpt lat="49.38879" lon="-1.04471">
        <ele>8.011403</ele>
        <time>2022-08-02T10:55:06.000Z</time>
      </trkpt>
      <trkpt lat="49.38882" lon="-1.04471">
        <ele>8.008597</ele>
        <time>2022-08-02T10:55:07.000Z</time>
      </trkpt>
      <trkpt lat="49.38885" lon="-1.04471">
        <ele>8.005455</ele>
        <time>2022-08-02T10:55:08.000Z</time>
      </trkpt>
      <trkpt lat="49.38887" lon="-1.04472">
        <ele>8.002667</ele>
        <time>2022-08-02T10:55:09.000Z</time>
      </trkpt>
      <trkpt lat="49.38891" lon="-1.04473">
        <ele>7.998437</ele>
        <time>2022-08-02T10:55:10.000Z</time>
      </trkpt>
      <trkpt lat="49.38893" lon="-1.04473">
        <ele>7.996037</ele>
        <time>2022-08-02T10:55:11.000Z</time>
      </trkpt>
      <trkpt lat="49.38896" lon="-1.04474">
        <ele>7.993144</ele>
        <time>2022-08-02T10:55:12.000Z</time>
      </trkpt>
      <trkpt lat="49.38899" lon="-1.04476">
        <ele>7.989241</ele>
        <time>2022-08-02T10:55:13.000Z</time>
      </trkpt>
      <trkpt lat="49.38903" lon="-1.04477">
        <ele>7.985386</ele>
        <time>2022-08-02T10:55:14.000Z</time>
      </trkpt>
      <trkpt lat="49.38906" lon="-1.04477">
        <ele>7.981606</ele>
        <time>2022-08-02T10:55:15.000Z</time>
      </trkpt>
      <trkpt lat="49.38909" lon="-1.04478">
        <ele>7.978118</ele>
        <time>2022-08-02T10:55:16.000Z</time>
      </trkpt>
      <trkpt lat="49.38913" lon="-1.04479">
        <ele>7.973811</ele>
        <time>2022-08-02T10:55:17.000Z</time>
      </trkpt>
      <trkpt lat="49.38917" lon="-1.0448">
        <ele>7.969941</ele>
        <time>2022-08-02T10:55:18.000Z</time>
      </trkpt>
      <trkpt lat="49.38919" lon="-1.04481">
        <ele>7.967127</ele>
        <time>2022-08-02T10:55:19.000Z</time>
      </trkpt>
      <trkpt lat="49.38921" lon="-1.04481">
        <ele>7.974599</ele>
        <time>2022-08-02T10:55:20.000Z</time>
      </trkpt>
      <trkpt lat="49.38923" lon="-1.0448">
        <ele>7.996149</ele>
        <time>2022-08-02T10:55:21.000Z</time>
      </trkpt>
      <trkpt lat="49.38926" lon="-1.04479">
        <ele>8.029781</ele>
        <time>2022-08-02T10:55:23.000Z</time>
      </trkpt>
      <trkpt lat="49.38928" lon="-1.04479">
        <ele>8.05173</ele>
        <time>2022-08-02T10:55:24.000Z</time>
      </trkpt>
      <trkpt lat="49.38931" lon="-1.04479">
        <ele>8.081151</ele>
        <time>2022-08-02T10:55:26.000Z</time>
      </trkpt>
      <trkpt lat="49.38932" lon="-1.04481">
        <ele>8.102841</ele>
        <time>2022-08-02T10:55:29.000Z</time>
      </trkpt>
      <trkpt lat="49.38927" lon="-1.04484">
        <ele>8.156277</ele>
        <time>2022-08-02T10:56:22.000Z</time>
      </trkpt>
      <trkpt lat="49.38927" lon="-1.04487">
        <ele>8.179847</ele>
        <time>2022-08-02T10:56:23.000Z</time>
      </trkpt>
      <trkpt lat="49.38925" lon="-1.04492">
        <ele>8.221547</ele>
        <time>2022-08-02T10:56:25.000Z</time>
      </trkpt>
      <trkpt lat="49.38924" lon="-1.04495">
        <ele>8.254552</ele>
        <time>2022-08-02T10:56:27.000Z</time>
      </trkpt>
      <trkpt lat="49.38909" lon="-1.04482">
        <ele>8.452017</ele>
        <time>2022-08-02T11:47:38.000Z</time>
      </trkpt>
      <trkpt lat="49.38905" lon="-1.04481">
        <ele>8.488703</ele>
        <time>2022-08-02T11:47:39.000Z</time>
      </trkpt>
      <trkpt lat="49.38903" lon="-1.0448">
        <ele>8.518862</ele>
        <time>2022-08-02T11:47:40.000Z</time>
      </trkpt>
      <trkpt lat="49.38899" lon="-1.04479">
        <ele>8.559608</ele>
        <time>2022-08-02T11:47:41.000Z</time>
      </trkpt>
      <trkpt lat="49.38897" lon="-1.04478">
        <ele>8.589612</ele>
        <time>2022-08-02T11:47:42.000Z</time>
      </trkpt>
      <trkpt lat="49.38893" lon="-1.04476">
        <ele>8.627471</ele>
        <time>2022-08-02T11:47:43.000Z</time>
      </trkpt>
      <trkpt lat="49.3889" lon="-1.04474">
        <ele>8.672923</ele>
        <time>2022-08-02T11:47:44.000Z</time>
      </trkpt>
      <trkpt lat="49.38886" lon="-1.04473">
        <ele>8.710573</ele>
        <time>2022-08-02T11:47:45.000Z</time>
      </trkpt>
      <trkpt lat="49.38883" lon="-1.04471">
        <ele>8.75557</ele>
        <time>2022-08-02T11:47:46.000Z</time>
      </trkpt>
      <trkpt lat="49.38879" lon="-1.04469">
        <ele>8.802582</ele>
        <time>2022-08-02T11:47:47.000Z</time>
      </trkpt>
      <trkpt lat="49.38875" lon="-1.04468">
        <ele>8.842866</ele>
        <time>2022-08-02T11:47:48.000Z</time>
      </trkpt>
      <trkpt lat="49.38872" lon="-1.04467">
        <ele>8.883291</ele>
        <time>2022-08-02T11:47:49.000Z</time>
      </trkpt>
      <trkpt lat="49.38868" lon="-1.04466">
        <ele>8.931384</ele>
        <time>2022-08-02T11:47:50.000Z</time>
      </trkpt>
      <trkpt lat="49.38864" lon="-1.04465">
        <ele>8.97154</ele>
        <time>2022-08-02T11:47:51.000Z</time>
      </trkpt>
      <trkpt lat="49.3886" lon="-1.04463">
        <ele>9.020505</ele>
        <time>2022-08-02T11:47:52.000Z</time>
      </trkpt>
      <trkpt lat="49.38856" lon="-1.04462">
        <ele>9.068559</ele>
        <time>2022-08-02T11:47:53.000Z</time>
      </trkpt>
      <trkpt lat="49.38852" lon="-1.04459">
        <ele>9.111635</ele>
        <time>2022-08-02T11:47:54.000Z</time>
      </trkpt>
      <trkpt lat="49.38849" lon="-1.04457">
        <ele>9.154708</ele>
        <time>2022-08-02T11:47:55.000Z</time>
      </trkpt>
      <trkpt lat="49.38845" lon="-1.04456">
        <ele>9.199104</ele>
        <time>2022-08-02T11:47:56.000Z</time>
      </trkpt>
      <trkpt lat="49.38841" lon="-1.04455">
        <ele>9.24273</ele>
        <time>2022-08-02T11:47:57.000Z</time>
      </trkpt>
      <trkpt lat="49.38837" lon="-1.04454">
        <ele>9.284264</ele>
        <time>2022-08-02T11:47:58.000Z</time>
      </trkpt>
      <trkpt lat="49.38834" lon="-1.04452">
        <ele>9.325381</ele>
        <time>2022-08-02T11:47:59.000Z</time>
      </trkpt>
      <trkpt lat="49.38831" lon="-1.04451">
        <ele>9.360505</ele>
        <time>2022-08-02T11:48:00.000Z</time>
      </trkpt>
      <trkpt lat="49.38828" lon="-1.04449">
        <ele>9.398819</ele>
        <time>2022-08-02T11:48:01.000Z</time>
      </trkpt>
      <trkpt lat="49.38825" lon="-1.04448">
        <ele>9.431918</ele>
        <time>2022-08-02T11:48:02.000Z</time>
      </trkpt>
      <trkpt lat="49.38822" lon="-1.04447">
        <ele>9.468869</ele>
        <time>2022-08-02T11:48:03.000Z</time>
      </trkpt>
      <trkpt lat="49.38819" lon="-1.04446">
        <ele>9.499198</ele>
        <time>2022-08-02T11:48:04.000Z</time>
      </trkpt>
      <trkpt lat="49.38816" lon="-1.04444">
        <ele>9.533823</ele>
        <time>2022-08-02T11:48:06.000Z</time>
      </trkpt>
      <trkpt lat="49.38815" lon="-1.0444">
        <ele>9.562917</ele>
        <time>2022-08-02T11:48:09.000Z</time>
      </trkpt>
      <trkpt lat="49.38813" lon="-1.04443">
        <ele>9.599515</ele>
        <time>2022-08-02T11:48:49.000Z</time>
      </trkpt>
      <trkpt lat="49.38815" lon="-1.04443">
        <ele>9.628043</ele>
        <time>2022-08-02T11:48:52.000Z</time>
      </trkpt>
      <trkpt lat="49.38824" lon="-1.04449">
        <ele>9.736878</ele>
        <time>2022-08-02T11:49:15.000Z</time>
      </trkpt>
      <trkpt lat="49.38826" lon="-1.0445">
        <ele>9.76264</ele>
        <time>2022-08-02T11:49:16.000Z</time>
      </trkpt>
      <trkpt lat="49.38828" lon="-1.04451">
        <ele>9.785616</ele>
        <time>2022-08-02T11:49:17.000Z</time>
      </trkpt>
      <trkpt lat="49.3883" lon="-1.04453">
        <ele>9.809912</ele>
        <time>2022-08-02T11:49:18.000Z</time>
      </trkpt>
      <trkpt lat="49.38832" lon="-1.04453">
        <ele>9.835494</ele>
        <time>2022-08-02T11:49:19.000Z</time>
      </trkpt>
      <trkpt lat="49.38835" lon="-1.04454">
        <ele>9.869126</ele>
        <time>2022-08-02T11:49:20.000Z</time>
      </trkpt>
      <trkpt lat="49.38837" lon="-1.04455">
        <ele>9.897881</ele>
        <time>2022-08-02T11:49:21.000Z</time>
      </trkpt>
      <trkpt lat="49.38841" lon="-1.04456">
        <ele>9.934456</ele>
        <time>2022-08-02T11:49:22.000Z</time>
      </trkpt>
      <trkpt lat="49.38844" lon="-1.04457">
        <ele>9.96864</ele>
        <time>2022-08-02T11:49:23.000Z</time>
      </trkpt>
      <trkpt lat="49.38847" lon="-1.04459">
        <ele>9.998263</ele>
        <time>2022-08-02T11:49:24.000Z</time>
      </trkpt>
      <trkpt lat="49.3885" lon="-1.0446">
        <ele>9.980937</ele>
        <time>2022-08-02T11:49:25.000Z</time>
      </trkpt>
      <trkpt lat="49.38853" lon="-1.04461">
        <ele>9.962208</ele>
        <time>2022-08-02T11:49:26.000Z</time>
      </trkpt>
      <trkpt lat="49.38856" lon="-1.04462">
        <ele>9.943479</ele>
        <time>2022-08-02T11:49:27.000Z</time>
      </trkpt>
      <trkpt lat="49.3886" lon="-1.04463">
        <ele>9.922911</ele>
        <time>2022-08-02T11:49:28.000Z</time>
      </trkpt>
      <trkpt lat="49.38862" lon="-1.04465">
        <ele>9.90723</ele>
        <time>2022-08-02T11:49:29.000Z</time>
      </trkpt>
      <trkpt lat="49.38865" lon="-1.04466">
        <ele>9.888041</ele>
        <time>2022-08-02T11:49:30.000Z</time>
      </trkpt>
      <trkpt lat="49.38869" lon="-1.04468">
        <ele>9.868853</ele>
        <time>2022-08-02T11:49:31.000Z</time>
      </trkpt>
      <trkpt lat="49.38871" lon="-1.04469">
        <ele>9.855694</ele>
        <time>2022-08-02T11:49:32.000Z</time>
      </trkpt>
      <trkpt lat="49.38874" lon="-1.0447">
        <ele>9.83671</ele>
        <time>2022-08-02T11:49:34.000Z</time>
      </trkpt>
      <trkpt lat="49.38877" lon="-1.04471">
        <ele>9.821424</ele>
        <time>2022-08-02T11:49:35.000Z</time>
      </trkpt>
      <trkpt lat="49.38879" lon="-1.04472">
        <ele>9.806608</ele>
        <time>2022-08-02T11:49:36.000Z</time>
      </trkpt>
      <trkpt lat="49.38882" lon="-1.04473">
        <ele>9.791236</ele>
        <time>2022-08-02T11:49:37.000Z</time>
      </trkpt>
      <trkpt lat="49.38885" lon="-1.04474">
        <ele>9.770746</ele>
        <time>2022-08-02T11:49:38.000Z</time>
      </trkpt>
      <trkpt lat="49.38889" lon="-1.04475">
        <ele>9.750003</ele>
        <time>2022-08-02T11:49:39.000Z</time>
      </trkpt>
      <trkpt lat="49.38892" lon="-1.04477">
        <ele>9.730702</ele>
        <time>2022-08-02T11:49:40.000Z</time>
      </trkpt>
      <trkpt lat="49.38895" lon="-1.04478">
        <ele>9.709575</ele>
        <time>2022-08-02T11:49:41.000Z</time>
      </trkpt>
      <trkpt lat="49.38899" lon="-1.04479">
        <ele>9.688923</ele>
        <time>2022-08-02T11:49:42.000Z</time>
      </trkpt>
      <trkpt lat="49.38902" lon="-1.04481">
        <ele>9.67112</ele>
        <time>2022-08-02T11:49:43.000Z</time>
      </trkpt>
      <trkpt lat="49.38905" lon="-1.04483">
        <ele>9.651701</ele>
        <time>2022-08-02T11:49:44.000Z</time>
      </trkpt>
      <trkpt lat="49.38908" lon="-1.04484">
        <ele>9.637055</ele>
        <time>2022-08-02T11:49:45.000Z</time>
      </trkpt>
      <trkpt lat="49.3891" lon="-1.04484">
        <ele>9.62353</ele>
        <time>2022-08-02T11:49:46.000Z</time>
      </trkpt>
      <trkpt lat="49.38912" lon="-1.04485">
        <ele>9.612474</ele>
        <time>2022-08-02T11:49:47.000Z</time>
      </trkpt>
      <trkpt lat="49.38914" lon="-1.04485">
        <ele>9.60157</ele>
        <time>2022-08-02T11:49:48.000Z</time>
      </trkpt>
      <trkpt lat="49.38916" lon="-1.04484">
        <ele>9.586431</ele>
        <time>2022-08-02T11:49:50.000Z</time>
      </trkpt>
      <trkpt lat="49.38918" lon="-1.04485">
        <ele>9.573676</ele>
        <time>2022-08-02T11:49:52.000Z</time>
      </trkpt>
      <trkpt lat="49.38921" lon="-1.04485">
        <ele>9.56079</ele>
        <time>2022-08-02T11:49:54.000Z</time>
      </trkpt>
      <trkpt lat="49.38923" lon="-1.04486">
        <ele>9.547265</ele>
        <time>2022-08-02T11:49:56.000Z</time>
      </trkpt>
      <trkpt lat="49.38925" lon="-1.04488">
        <ele>9.53346</ele>
        <time>2022-08-02T11:49:58.000Z</time>
      </trkpt>
      <trkpt lat="49.38927" lon="-1.04492">
        <ele>9.515933</ele>
        <time>2022-08-02T11:50:00.000Z</time>
      </trkpt>
      <trkpt lat="49.38928" lon="-1.04497">
        <ele>9.493385</ele>
        <time>2022-08-02T11:50:02.000Z</time>
      </trkpt>
      <trkpt lat="49.38929" lon="-1.04501">
        <ele>9.479873</ele>
        <time>2022-08-02T11:50:03.000Z</time>
      </trkpt>
      <trkpt lat="49.38929" lon="-1.04505">
        <ele>9.464049</ele>
        <time>2022-08-02T11:50:04.000Z</time>
      </trkpt>
      <trkpt lat="49.38931" lon="-1.04509">
        <ele>9.44567</ele>
        <time>2022-08-02T11:50:05.000Z</time>
      </trkpt>
      <trkpt lat="49.38932" lon="-1.04514">
        <ele>9.42738</ele>
        <time>2022-08-02T11:50:06.000Z</time>
      </trkpt>
      <trkpt lat="49.38933" lon="-1.04519">
        <ele>9.407247</ele>
        <time>2022-08-02T11:50:07.000Z</time>
      </trkpt>
      <trkpt lat="49.38934" lon="-1.04524">
        <ele>9.386288</ele>
        <time>2022-08-02T11:50:08.000Z</time>
      </trkpt>
      <trkpt lat="49.38934" lon="-1.0453">
        <ele>9.364567</ele>
        <time>2022-08-02T11:50:09.000Z</time>
      </trkpt>
      <trkpt lat="49.38935" lon="-1.04536">
        <ele>9.340721</ele>
        <time>2022-08-02T11:50:10.000Z</time>
      </trkpt>
      <trkpt lat="49.38936" lon="-1.04543">
        <ele>9.316212</ele>
        <time>2022-08-02T11:50:11.000Z</time>
      </trkpt>
      <trkpt lat="49.38937" lon="-1.04549">
        <ele>9.291277</ele>
        <time>2022-08-02T11:50:12.000Z</time>
      </trkpt>
      <trkpt lat="49.38938" lon="-1.04556">
        <ele>9.265659</ele>
        <time>2022-08-02T11:50:13.000Z</time>
      </trkpt>
      <trkpt lat="49.38939" lon="-1.04563">
        <ele>9.239997</ele>
        <time>2022-08-02T11:50:14.000Z</time>
      </trkpt>
      <trkpt lat="49.3894" lon="-1.04569">
        <ele>9.214823</ele>
        <time>2022-08-02T11:50:15.000Z</time>
      </trkpt>
      <trkpt lat="49.38941" lon="-1.04576">
        <ele>9.189162</ele>
        <time>2022-08-02T11:50:16.000Z</time>
      </trkpt>
      <trkpt lat="49.38941" lon="-1.04583">
        <ele>9.163913</ele>
        <time>2022-08-02T11:50:17.000Z</time>
      </trkpt>
      <trkpt lat="49.38941" lon="-1.04589">
        <ele>9.139586</ele>
        <time>2022-08-02T11:50:18.000Z</time>
      </trkpt>
      <trkpt lat="49.38942" lon="-1.04596">
        <ele>9.113561</ele>
        <time>2022-08-02T11:50:19.000Z</time>
      </trkpt>
      <trkpt lat="49.38943" lon="-1.04603">
        <ele>9.088626</ele>
        <time>2022-08-02T11:50:20.000Z</time>
      </trkpt>
      <trkpt lat="49.38944" lon="-1.04609">
        <ele>9.063817</ele>
        <time>2022-08-02T11:50:21.000Z</time>
      </trkpt>
      <trkpt lat="49.38945" lon="-1.04616">
        <ele>9.038883</ele>
        <time>2022-08-02T11:50:22.000Z</time>
      </trkpt>
      <trkpt lat="49.38946" lon="-1.04622">
        <ele>9.014074</ele>
        <time>2022-08-02T11:50:23.000Z</time>
      </trkpt>
      <trkpt lat="49.38947" lon="-1.04629">
        <ele>8.988412</ele>
        <time>2022-08-02T11:50:24.000Z</time>
      </trkpt>
      <trkpt lat="49.38948" lon="-1.04635">
        <ele>8.973391</ele>
        <time>2022-08-02T11:50:25.000Z</time>
      </trkpt>
      <trkpt lat="49.38949" lon="-1.04642">
        <ele>8.990607</ele>
        <time>2022-08-02T11:50:26.000Z</time>
      </trkpt>
      <trkpt lat="49.3895" lon="-1.04648">
        <ele>9.007939</ele>
        <time>2022-08-02T11:50:27.000Z</time>
      </trkpt>
      <trkpt lat="49.3895" lon="-1.04654">
        <ele>9.024766</ele>
        <time>2022-08-02T11:50:28.000Z</time>
      </trkpt>
      <trkpt lat="49.38951" lon="-1.0466">
        <ele>9.040809</ele>
        <time>2022-08-02T11:50:29.000Z</time>
      </trkpt>
      <trkpt lat="49.38951" lon="-1.04667">
        <ele>9.057311</ele>
        <time>2022-08-02T11:50:30.000Z</time>
      </trkpt>
      <trkpt lat="49.38952" lon="-1.04672">
        <ele>9.072947</ele>
        <time>2022-08-02T11:50:31.000Z</time>
      </trkpt>
      <trkpt lat="49.38953" lon="-1.04678">
        <ele>9.087644</ele>
        <time>2022-08-02T11:50:32.000Z</time>
      </trkpt>
      <trkpt lat="49.38954" lon="-1.04684">
        <ele>9.103026</ele>
        <time>2022-08-02T11:50:33.000Z</time>
      </trkpt>
      <trkpt lat="49.38955" lon="-1.04689">
        <ele>9.118495</ele>
        <time>2022-08-02T11:50:34.000Z</time>
      </trkpt>
      <trkpt lat="49.38955" lon="-1.04695">
        <ele>9.133637</ele>
        <time>2022-08-02T11:50:35.000Z</time>
      </trkpt>
      <trkpt lat="49.38956" lon="-1.047">
        <ele>9.147745</ele>
        <time>2022-08-02T11:50:36.000Z</time>
      </trkpt>
      <trkpt lat="49.38955" lon="-1.04706">
        <ele>9.162709</ele>
        <time>2022-08-02T11:50:37.000Z</time>
      </trkpt>
      <trkpt lat="49.38953" lon="-1.0471">
        <ele>9.176999</ele>
        <time>2022-08-02T11:50:38.000Z</time>
      </trkpt>
      <trkpt lat="49.38949" lon="-1.04713">
        <ele>9.191836</ele>
        <time>2022-08-02T11:50:39.000Z</time>
      </trkpt>
      <trkpt lat="49.38947" lon="-1.04714">
        <ele>9.20331</ele>
        <time>2022-08-02T11:50:40.000Z</time>
      </trkpt>
      <trkpt lat="49.38943" lon="-1.04713">
        <ele>9.216298</ele>
        <time>2022-08-02T11:50:41.000Z</time>
      </trkpt>
      <trkpt lat="49.3894" lon="-1.04712">
        <ele>9.229703</ele>
        <time>2022-08-02T11:50:42.000Z</time>
      </trkpt>
      <trkpt lat="49.38937" lon="-1.04711">
        <ele>9.242914</ele>
        <time>2022-08-02T11:50:43.000Z</time>
      </trkpt>
      <trkpt lat="49.38933" lon="-1.0471">
        <ele>9.257756</ele>
        <time>2022-08-02T11:50:44.000Z</time>
      </trkpt>
      <trkpt lat="49.38931" lon="-1.04709">
        <ele>9.26923</ele>
        <time>2022-08-02T11:50:45.000Z</time>
      </trkpt>
      <trkpt lat="49.38928" lon="-1.04708">
        <ele>9.279968</ele>
        <time>2022-08-02T11:50:46.000Z</time>
      </trkpt>
      <trkpt lat="49.38925" lon="-1.04707">
        <ele>9.293304</ele>
        <time>2022-08-02T11:50:47.000Z</time>
      </trkpt>
      <trkpt lat="49.38922" lon="-1.04706">
        <ele>9.304102</ele>
        <time>2022-08-02T11:50:48.000Z</time>
      </trkpt>
      <trkpt lat="49.38919" lon="-1.04705">
        <ele>9.315576</ele>
        <time>2022-08-02T11:50:49.000Z</time>
      </trkpt>
      <trkpt lat="49.38917" lon="-1.04704">
        <ele>9.327333</ele>
        <time>2022-08-02T11:50:50.000Z</time>
      </trkpt>
      <trkpt lat="49.38914" lon="-1.04704">
        <ele>9.339029</ele>
        <time>2022-08-02T11:50:51.000Z</time>
      </trkpt>
      <trkpt lat="49.38911" lon="-1.04704">
        <ele>9.349534</ele>
        <time>2022-08-02T11:50:52.000Z</time>
      </trkpt>
      <trkpt lat="49.38908" lon="-1.04703">
        <ele>9.360891</ele>
        <time>2022-08-02T11:50:53.000Z</time>
      </trkpt>
      <trkpt lat="49.38905" lon="-1.04702">
        <ele>9.375585</ele>
        <time>2022-08-02T11:50:54.000Z</time>
      </trkpt>
      <trkpt lat="49.38901" lon="-1.04701">
        <ele>9.389928</ele>
        <time>2022-08-02T11:50:55.000Z</time>
      </trkpt>
      <trkpt lat="49.38898" lon="-1.04701">
        <ele>9.40409</ele>
        <time>2022-08-02T11:50:56.000Z</time>
      </trkpt>
      <trkpt lat="49.38894" lon="-1.047">
        <ele>9.417078</ele>
        <time>2022-08-02T11:50:57.000Z</time>
      </trkpt>
      <trkpt lat="49.38891" lon="-1.04699">
        <ele>9.431376</ele>
        <time>2022-08-02T11:50:58.000Z</time>
      </trkpt>
      <trkpt lat="49.38887" lon="-1.04698">
        <ele>9.447454</ele>
        <time>2022-08-02T11:50:59.000Z</time>
      </trkpt>
      <trkpt lat="49.38883" lon="-1.04697">
        <ele>9.463139</ele>
        <time>2022-08-02T11:51:00.000Z</time>
      </trkpt>
      <trkpt lat="49.38879" lon="-1.04696">
        <ele>9.478672</ele>
        <time>2022-08-02T11:51:01.000Z</time>
      </trkpt>
      <trkpt lat="49.38876" lon="-1.04695">
        <ele>9.494602</ele>
        <time>2022-08-02T11:51:02.000Z</time>
      </trkpt>
      <trkpt lat="49.38871" lon="-1.04694">
        <ele>9.511327</ele>
        <time>2022-08-02T11:51:03.000Z</time>
      </trkpt>
      <trkpt lat="49.38868" lon="-1.04693">
        <ele>9.527216</ele>
        <time>2022-08-02T11:51:04.000Z</time>
      </trkpt>
      <trkpt lat="49.38863" lon="-1.04692">
        <ele>9.543941</ele>
        <time>2022-08-02T11:51:05.000Z</time>
      </trkpt>
      <trkpt lat="49.3886" lon="-1.0469">
        <ele>9.560139</ele>
        <time>2022-08-02T11:51:06.000Z</time>
      </trkpt>
      <trkpt lat="49.38855" lon="-1.04689">
        <ele>9.576864</ele>
        <time>2022-08-02T11:51:07.000Z</time>
      </trkpt>
      <trkpt lat="49.38852" lon="-1.04688">
        <ele>9.592943</ele>
        <time>2022-08-02T11:51:08.000Z</time>
      </trkpt>
      <trkpt lat="49.38847" lon="-1.04687">
        <ele>9.609563</ele>
        <time>2022-08-02T11:51:09.000Z</time>
      </trkpt>
      <trkpt lat="49.38844" lon="-1.04687">
        <ele>9.625354</ele>
        <time>2022-08-02T11:51:10.000Z</time>
      </trkpt>
      <trkpt lat="49.38839" lon="-1.04686">
        <ele>9.641925</ele>
        <time>2022-08-02T11:51:11.000Z</time>
      </trkpt>
      <trkpt lat="49.38835" lon="-1.04686">
        <ele>9.658897</ele>
        <time>2022-08-02T11:51:12.000Z</time>
      </trkpt>
      <trkpt lat="49.38831" lon="-1.04685">
        <ele>9.675982</ele>
        <time>2022-08-02T11:51:13.000Z</time>
      </trkpt>
      <trkpt lat="49.38827" lon="-1.04684">
        <ele>9.691667</ele>
        <time>2022-08-02T11:51:14.000Z</time>
      </trkpt>
      <trkpt lat="49.38823" lon="-1.04682">
        <ele>9.734513</ele>
        <time>2022-08-02T11:51:15.000Z</time>
      </trkpt>
      <trkpt lat="49.3882" lon="-1.04681">
        <ele>9.782661</ele>
        <time>2022-08-02T11:51:16.000Z</time>
      </trkpt>
      <trkpt lat="49.38816" lon="-1.0468">
        <ele>9.826205</ele>
        <time>2022-08-02T11:51:17.000Z</time>
      </trkpt>
      <trkpt lat="49.38812" lon="-1.04679">
        <ele>9.872374</ele>
        <time>2022-08-02T11:51:18.000Z</time>
      </trkpt>
      <trkpt lat="49.38809" lon="-1.0468">
        <ele>9.911262</ele>
        <time>2022-08-02T11:51:19.000Z</time>
      </trkpt>
      <trkpt lat="49.38805" lon="-1.04679">
        <ele>9.958645</ele>
        <time>2022-08-02T11:51:20.000Z</time>
      </trkpt>
      <trkpt lat="49.38802" lon="-1.04679">
        <ele>9.997789</ele>
        <time>2022-08-02T11:51:21.000Z</time>
      </trkpt>
      <trkpt lat="49.38798" lon="-1.04678">
        <ele>10.040647</ele>
        <time>2022-08-02T11:51:22.000Z</time>
      </trkpt>
      <trkpt lat="49.38795" lon="-1.04677">
        <ele>10.080299</ele>
        <time>2022-08-02T11:51:23.000Z</time>
      </trkpt>
      <trkpt lat="49.38792" lon="-1.04676">
        <ele>10.123526</ele>
        <time>2022-08-02T11:51:24.000Z</time>
      </trkpt>
      <trkpt lat="49.38788" lon="-1.04675">
        <ele>10.166493</ele>
        <time>2022-08-02T11:51:25.000Z</time>
      </trkpt>
      <trkpt lat="49.38785" lon="-1.04675">
        <ele>10.201848</ele>
        <time>2022-08-02T11:51:26.000Z</time>
      </trkpt>
      <trkpt lat="49.38782" lon="-1.04675">
        <ele>10.240737</ele>
        <time>2022-08-02T11:51:27.000Z</time>
      </trkpt>
      <trkpt lat="49.3878" lon="-1.04676">
        <ele>10.272934</ele>
        <time>2022-08-02T11:51:28.000Z</time>
      </trkpt>
      <trkpt lat="49.38776" lon="-1.04677">
        <ele>10.312931</ele>
        <time>2022-08-02T11:51:29.000Z</time>
      </trkpt>
      <trkpt lat="49.38774" lon="-1.04679">
        <ele>10.340036</ele>
        <time>2022-08-02T11:51:30.000Z</time>
      </trkpt>
      <trkpt lat="49.38773" lon="-1.04682">
        <ele>10.366581</ele>
        <time>2022-08-02T11:51:31.000Z</time>
      </trkpt>
      <trkpt lat="49.38772" lon="-1.04685">
        <ele>10.397069</ele>
        <time>2022-08-02T11:51:32.000Z</time>
      </trkpt>
      <trkpt lat="49.38771" lon="-1.04689">
        <ele>10.429514</ele>
        <time>2022-08-02T11:51:33.000Z</time>
      </trkpt>
      <trkpt lat="49.38771" lon="-1.04694">
        <ele>10.466663</ele>
        <time>2022-08-02T11:51:34.000Z</time>
      </trkpt>
      <trkpt lat="49.38771" lon="-1.04699">
        <ele>10.508554</ele>
        <time>2022-08-02T11:51:35.000Z</time>
      </trkpt>
      <trkpt lat="49.38771" lon="-1.04705">
        <ele>10.554192</ele>
        <time>2022-08-02T11:51:36.000Z</time>
      </trkpt>
      <trkpt lat="49.3877" lon="-1.04711">
        <ele>10.603929</ele>
        <time>2022-08-02T11:51:37.000Z</time>
      </trkpt>
      <trkpt lat="49.38769" lon="-1.04717">
        <ele>10.65582</ele>
        <time>2022-08-02T11:51:38.000Z</time>
      </trkpt>
      <trkpt lat="49.38769" lon="-1.04724">
        <ele>10.710235</ele>
        <time>2022-08-02T11:51:39.000Z</time>
      </trkpt>
      <trkpt lat="49.38768" lon="-1.04731">
        <ele>10.764106</ele>
        <time>2022-08-02T11:51:40.000Z</time>
      </trkpt>
      <trkpt lat="49.38768" lon="-1.04738">
        <ele>10.819554</ele>
        <time>2022-08-02T11:51:41.000Z</time>
      </trkpt>
      <trkpt lat="49.38767" lon="-1.04745">
        <ele>10.874576</ele>
        <time>2022-08-02T11:51:42.000Z</time>
      </trkpt>
      <trkpt lat="49.38766" lon="-1.04751">
        <ele>10.927368</ele>
        <time>2022-08-02T11:51:43.000Z</time>
      </trkpt>
      <trkpt lat="49.38766" lon="-1.04758">
        <ele>10.980041</ele>
        <time>2022-08-02T11:51:44.000Z</time>
      </trkpt>
      <trkpt lat="49.38765" lon="-1.04765">
        <ele>11.034373</ele>
        <time>2022-08-02T11:51:45.000Z</time>
      </trkpt>
      <trkpt lat="49.38764" lon="-1.04771">
        <ele>11.086263</ele>
        <time>2022-08-02T11:51:46.000Z</time>
      </trkpt>
      <trkpt lat="49.38764" lon="-1.04777">
        <ele>11.136779</ele>
        <time>2022-08-02T11:51:47.000Z</time>
      </trkpt>
      <trkpt lat="49.38763" lon="-1.04784">
        <ele>11.189305</ele>
        <time>2022-08-02T11:51:48.000Z</time>
      </trkpt>
      <trkpt lat="49.38762" lon="-1.0479">
        <ele>11.236191</ele>
        <time>2022-08-02T11:51:49.000Z</time>
      </trkpt>
      <trkpt lat="49.38762" lon="-1.04795">
        <ele>11.277155</ele>
        <time>2022-08-02T11:51:50.000Z</time>
      </trkpt>
      <trkpt lat="49.38761" lon="-1.04799">
        <ele>11.312909</ele>
        <time>2022-08-02T11:51:51.000Z</time>
      </trkpt>
      <trkpt lat="49.38761" lon="-1.04804">
        <ele>11.34871</ele>
        <time>2022-08-02T11:51:52.000Z</time>
      </trkpt>
      <trkpt lat="49.3876" lon="-1.04807">
        <ele>11.378455</ele>
        <time>2022-08-02T11:51:53.000Z</time>
      </trkpt>
      <trkpt lat="49.38758" lon="-1.04809">
        <ele>11.401361</ele>
        <time>2022-08-02T11:51:54.000Z</time>
      </trkpt>
      <trkpt lat="49.38756" lon="-1.04809">
        <ele>11.436574</ele>
        <time>2022-08-02T11:51:56.000Z</time>
      </trkpt>
      <trkpt lat="49.38754" lon="-1.04808">
        <ele>11.461229</ele>
        <time>2022-08-02T11:51:57.000Z</time>
      </trkpt>
      <trkpt lat="49.38751" lon="-1.04807">
        <ele>11.497698</ele>
        <time>2022-08-02T11:51:58.000Z</time>
      </trkpt>
      <trkpt lat="49.38748" lon="-1.04806">
        <ele>11.528554</ele>
        <time>2022-08-02T11:51:59.000Z</time>
      </trkpt>
      <trkpt lat="49.38745" lon="-1.04806">
        <ele>11.572722</ele>
        <time>2022-08-02T11:52:00.000Z</time>
      </trkpt>
      <trkpt lat="49.38742" lon="-1.04805">
        <ele>11.606951</ele>
        <time>2022-08-02T11:52:01.000Z</time>
      </trkpt>
      <trkpt lat="49.38739" lon="-1.04806">
        <ele>11.646007</ele>
        <time>2022-08-02T11:52:02.000Z</time>
      </trkpt>
      <trkpt lat="49.38736" lon="-1.04806">
        <ele>11.677617</ele>
        <time>2022-08-02T11:52:03.000Z</time>
      </trkpt>
      <trkpt lat="49.38733" lon="-1.04805">
        <ele>11.716674</ele>
        <time>2022-08-02T11:52:04.000Z</time>
      </trkpt>
      <trkpt lat="49.3873" lon="-1.04805">
        <ele>11.75232</ele>
        <time>2022-08-02T11:52:05.000Z</time>
      </trkpt>
      <trkpt lat="49.38727" lon="-1.04804">
        <ele>11.791972</ele>
        <time>2022-08-02T11:52:06.000Z</time>
      </trkpt>
      <trkpt lat="49.38724" lon="-1.04803">
        <ele>11.827617</ele>
        <time>2022-08-02T11:52:07.000Z</time>
      </trkpt>
      <trkpt lat="49.3872" lon="-1.04803">
        <ele>11.87382</ele>
        <time>2022-08-02T11:52:08.000Z</time>
      </trkpt>
      <trkpt lat="49.38717" lon="-1.04802">
        <ele>11.96076</ele>
        <time>2022-08-02T11:52:09.000Z</time>
      </trkpt>
      <trkpt lat="49.38713" lon="-1.04801">
        <ele>12.054711</ele>
        <time>2022-08-02T11:52:10.000Z</time>
      </trkpt>
      <trkpt lat="49.3871" lon="-1.048">
        <ele>12.13965</ele>
        <time>2022-08-02T11:52:11.000Z</time>
      </trkpt>
      <trkpt lat="49.38706" lon="-1.04799">
        <ele>12.244978</ele>
        <time>2022-08-02T11:52:12.000Z</time>
      </trkpt>
      <trkpt lat="49.38702" lon="-1.04797">
        <ele>12.354656</ele>
        <time>2022-08-02T11:52:13.000Z</time>
      </trkpt>
      <trkpt lat="49.38697" lon="-1.04796">
        <ele>12.473777</ele>
        <time>2022-08-02T11:52:14.000Z</time>
      </trkpt>
      <trkpt lat="49.38693" lon="-1.04796">
        <ele>12.592274</ele>
        <time>2022-08-02T11:52:15.000Z</time>
      </trkpt>
      <trkpt lat="49.38688" lon="-1.04796">
        <ele>12.710279</ele>
        <time>2022-08-02T11:52:16.000Z</time>
      </trkpt>
      <trkpt lat="49.38684" lon="-1.04797">
        <ele>12.828776</ele>
        <time>2022-08-02T11:52:17.000Z</time>
      </trkpt>
      <trkpt lat="49.38679" lon="-1.04796">
        <ele>12.9441</ele>
        <time>2022-08-02T11:52:18.000Z</time>
      </trkpt>
      <trkpt lat="49.38676" lon="-1.04796">
        <ele>13.038431</ele>
        <time>2022-08-02T11:52:19.000Z</time>
      </trkpt>
      <trkpt lat="49.38672" lon="-1.04796">
        <ele>13.13019</ele>
        <time>2022-08-02T11:52:20.000Z</time>
      </trkpt>
      <trkpt lat="49.38669" lon="-1.04796">
        <ele>13.229803</ele>
        <time>2022-08-02T11:52:21.000Z</time>
      </trkpt>
      <trkpt lat="49.38665" lon="-1.04796">
        <ele>13.313656</ele>
        <time>2022-08-02T11:52:22.000Z</time>
      </trkpt>
      <trkpt lat="49.38662" lon="-1.04796">
        <ele>13.389651</ele>
        <time>2022-08-02T11:52:23.000Z</time>
      </trkpt>
      <trkpt lat="49.38659" lon="-1.04796">
        <ele>13.481362</ele>
        <time>2022-08-02T11:52:24.000Z</time>
      </trkpt>
      <trkpt lat="49.38656" lon="-1.04796">
        <ele>13.549671</ele>
        <time>2022-08-02T11:52:25.000Z</time>
      </trkpt>
      <trkpt lat="49.38653" lon="-1.04796">
        <ele>13.633576</ele>
        <time>2022-08-02T11:52:26.000Z</time>
      </trkpt>
      <trkpt lat="49.3865" lon="-1.04796">
        <ele>13.725287</ele>
        <time>2022-08-02T11:52:27.000Z</time>
      </trkpt>
      <trkpt lat="49.38646" lon="-1.04796">
        <ele>13.809192</ele>
        <time>2022-08-02T11:52:28.000Z</time>
      </trkpt>
      <trkpt lat="49.38644" lon="-1.04795">
        <ele>13.8861</ele>
        <time>2022-08-02T11:52:29.000Z</time>
      </trkpt>
      <trkpt lat="49.38641" lon="-1.04794">
        <ele>13.953002</ele>
        <time>2022-08-02T11:52:30.000Z</time>
      </trkpt>
      <trkpt lat="49.38639" lon="-1.04793">
        <ele>14.015626</ele>
        <time>2022-08-02T11:52:31.000Z</time>
      </trkpt>
      <trkpt lat="49.38637" lon="-1.04792">
        <ele>14.06724</ele>
        <time>2022-08-02T11:52:32.000Z</time>
      </trkpt>
      <trkpt lat="49.38635" lon="-1.04791">
        <ele>14.123205</ele>
        <time>2022-08-02T11:52:33.000Z</time>
      </trkpt>
      <trkpt lat="49.38634" lon="-1.04789">
        <ele>14.173877</ele>
        <time>2022-08-02T11:52:34.000Z</time>
      </trkpt>
      <trkpt lat="49.38633" lon="-1.04785">
        <ele>14.235602</ele>
        <time>2022-08-02T11:52:35.000Z</time>
      </trkpt>
      <trkpt lat="49.38633" lon="-1.04781">
        <ele>14.304619</ele>
        <time>2022-08-02T11:52:36.000Z</time>
      </trkpt>
      <trkpt lat="49.38633" lon="-1.04777">
        <ele>14.381363</ele>
        <time>2022-08-02T11:52:37.000Z</time>
      </trkpt>
      <trkpt lat="49.38633" lon="-1.04772">
        <ele>14.463891</ele>
        <time>2022-08-02T11:52:38.000Z</time>
      </trkpt>
      <trkpt lat="49.38633" lon="-1.04767">
        <ele>14.55292</ele>
        <time>2022-08-02T11:52:39.000Z</time>
      </trkpt>
      <trkpt lat="49.38634" lon="-1.04761">
        <ele>14.647046</ele>
        <time>2022-08-02T11:52:40.000Z</time>
      </trkpt>
      <trkpt lat="49.38635" lon="-1.04756">
        <ele>14.744434</ele>
        <time>2022-08-02T11:52:41.000Z</time>
      </trkpt>
      <trkpt lat="49.38635" lon="-1.0475">
        <ele>14.84196</ele>
        <time>2022-08-02T11:52:42.000Z</time>
      </trkpt>
      <trkpt lat="49.38636" lon="-1.04744">
        <ele>14.937066</ele>
        <time>2022-08-02T11:52:43.000Z</time>
      </trkpt>
      <trkpt lat="49.38636" lon="-1.04739">
        <ele>15.034314</ele>
        <time>2022-08-02T11:52:44.000Z</time>
      </trkpt>
      <trkpt lat="49.38637" lon="-1.04733">
        <ele>15.12942</ele>
        <time>2022-08-02T11:52:45.000Z</time>
      </trkpt>
      <trkpt lat="49.38637" lon="-1.04728">
        <ele>15.224525</ele>
        <time>2022-08-02T11:52:46.000Z</time>
      </trkpt>
      <trkpt lat="49.38638" lon="-1.04722">
        <ele>15.321913</ele>
        <time>2022-08-02T11:52:47.000Z</time>
      </trkpt>
      <trkpt lat="49.38639" lon="-1.04717">
        <ele>15.420385</ele>
        <time>2022-08-02T11:52:48.000Z</time>
      </trkpt>
      <trkpt lat="49.3864" lon="-1.04711">
        <ele>15.519308</ele>
        <time>2022-08-02T11:52:49.000Z</time>
      </trkpt>
      <trkpt lat="49.3864" lon="-1.04705">
        <ele>15.616096</ele>
        <time>2022-08-02T11:52:50.000Z</time>
      </trkpt>
      <trkpt lat="49.38641" lon="-1.047">
        <ele>15.715019</ele>
        <time>2022-08-02T11:52:51.000Z</time>
      </trkpt>
      <trkpt lat="49.38641" lon="-1.04694">
        <ele>15.812545</ele>
        <time>2022-08-02T11:52:52.000Z</time>
      </trkpt>
      <trkpt lat="49.38642" lon="-1.04688">
        <ele>15.91423</ele>
        <time>2022-08-02T11:52:53.000Z</time>
      </trkpt>
      <trkpt lat="49.38643" lon="-1.04682">
        <ele>16.013154</ele>
        <time>2022-08-02T11:52:54.000Z</time>
      </trkpt>
      <trkpt lat="49.38644" lon="-1.04677">
        <ele>16.113309</ele>
        <time>2022-08-02T11:52:55.000Z</time>
      </trkpt>
      <trkpt lat="49.38645" lon="-1.04671">
        <ele>16.215633</ele>
        <time>2022-08-02T11:52:56.000Z</time>
      </trkpt>
      <trkpt lat="49.38645" lon="-1.04665">
        <ele>16.322531</ele>
        <time>2022-08-02T11:52:57.000Z</time>
      </trkpt>
      <trkpt lat="49.38646" lon="-1.04659">
        <ele>16.424855</ele>
        <time>2022-08-02T11:52:58.000Z</time>
      </trkpt>
      <trkpt lat="49.38647" lon="-1.04653">
        <ele>16.526695</ele>
        <time>2022-08-02T11:52:59.000Z</time>
      </trkpt>
      <trkpt lat="49.38647" lon="-1.04647">
        <ele>16.615753</ele>
        <time>2022-08-02T11:53:00.000Z</time>
      </trkpt>
      <trkpt lat="49.38647" lon="-1.04641">
        <ele>16.68269</ele>
        <time>2022-08-02T11:53:01.000Z</time>
      </trkpt>
      <trkpt lat="49.38648" lon="-1.04635">
        <ele>16.747867</ele>
        <time>2022-08-02T11:53:02.000Z</time>
      </trkpt>
      <trkpt lat="49.38649" lon="-1.04629">
        <ele>16.811948</ele>
        <time>2022-08-02T11:53:03.000Z</time>
      </trkpt>
      <trkpt lat="49.38649" lon="-1.04624">
        <ele>16.875233</ele>
        <time>2022-08-02T11:53:04.000Z</time>
      </trkpt>
      <trkpt lat="49.3865" lon="-1.04618">
        <ele>16.942486</ele>
        <time>2022-08-02T11:53:05.000Z</time>
      </trkpt>
      <trkpt lat="49.38651" lon="-1.04612">
        <ele>17.005009</ele>
        <time>2022-08-02T11:53:06.000Z</time>
      </trkpt>
      <trkpt lat="49.38651" lon="-1.04607">
        <ele>17.068268</ele>
        <time>2022-08-02T11:53:07.000Z</time>
      </trkpt>
      <trkpt lat="49.38651" lon="-1.04601">
        <ele>17.132349</ele>
        <time>2022-08-02T11:53:08.000Z</time>
      </trkpt>
      <trkpt lat="49.38651" lon="-1.04595">
        <ele>17.193389</ele>
        <time>2022-08-02T11:53:09.000Z</time>
      </trkpt>
      <trkpt lat="49.38652" lon="-1.0459">
        <ele>17.255749</ele>
        <time>2022-08-02T11:53:10.000Z</time>
      </trkpt>
      <trkpt lat="49.38653" lon="-1.04584">
        <ele>17.319125</ele>
        <time>2022-08-02T11:53:11.000Z</time>
      </trkpt>
      <trkpt lat="49.38653" lon="-1.04579">
        <ele>17.381015</ele>
        <time>2022-08-02T11:53:12.000Z</time>
      </trkpt>
      <trkpt lat="49.38653" lon="-1.04573">
        <ele>17.442269</ele>
        <time>2022-08-02T11:53:13.000Z</time>
      </trkpt>
      <trkpt lat="49.38654" lon="-1.04568">
        <ele>17.507786</ele>
        <time>2022-08-02T11:53:14.000Z</time>
      </trkpt>
      <trkpt lat="49.38655" lon="-1.04562">
        <ele>17.572358</ele>
        <time>2022-08-02T11:53:15.000Z</time>
      </trkpt>
      <trkpt lat="49.38655" lon="-1.04556">
        <ele>17.638915</ele>
        <time>2022-08-02T11:53:16.000Z</time>
      </trkpt>
      <trkpt lat="49.38656" lon="-1.0455">
        <ele>17.701901</ele>
        <time>2022-08-02T11:53:17.000Z</time>
      </trkpt>
      <trkpt lat="49.38657" lon="-1.04545">
        <ele>17.765982</ele>
        <time>2022-08-02T11:53:18.000Z</time>
      </trkpt>
      <trkpt lat="49.38657" lon="-1.04539">
        <ele>17.830711</ele>
        <time>2022-08-02T11:53:19.000Z</time>
      </trkpt>
      <trkpt lat="49.38658" lon="-1.04533">
        <ele>17.895088</ele>
        <time>2022-08-02T11:53:20.000Z</time>
      </trkpt>
      <trkpt lat="49.38659" lon="-1.04528">
        <ele>17.958714</ele>
        <time>2022-08-02T11:53:21.000Z</time>
      </trkpt>
      <trkpt lat="49.38659" lon="-1.04522">
        <ele>18.019968</ele>
        <time>2022-08-02T11:53:22.000Z</time>
      </trkpt>
      <trkpt lat="49.3866" lon="-1.04517">
        <ele>18.07967</ele>
        <time>2022-08-02T11:53:23.000Z</time>
      </trkpt>
      <trkpt lat="49.3866" lon="-1.04511">
        <ele>18.140777</ele>
        <time>2022-08-02T11:53:24.000Z</time>
      </trkpt>
      <trkpt lat="49.38661" lon="-1.04506">
        <ele>18.203137</ele>
        <time>2022-08-02T11:53:25.000Z</time>
      </trkpt>
      <trkpt lat="49.38661" lon="-1.045">
        <ele>18.265027</ele>
        <time>2022-08-02T11:53:26.000Z</time>
      </trkpt>
      <trkpt lat="49.38661" lon="-1.04495">
        <ele>18.326281</ele>
        <time>2022-08-02T11:53:27.000Z</time>
      </trkpt>
      <trkpt lat="49.38662" lon="-1.0449">
        <ele>18.386457</ele>
        <time>2022-08-02T11:53:28.000Z</time>
      </trkpt>
      <trkpt lat="49.38663" lon="-1.04484">
        <ele>18.44771</ele>
        <time>2022-08-02T11:53:29.000Z</time>
      </trkpt>
      <trkpt lat="49.38663" lon="-1.04479">
        <ele>18.507729</ele>
        <time>2022-08-02T11:53:30.000Z</time>
      </trkpt>
      <trkpt lat="49.38664" lon="-1.04473">
        <ele>18.570667</ele>
        <time>2022-08-02T11:53:31.000Z</time>
      </trkpt>
      <trkpt lat="49.38665" lon="-1.04468">
        <ele>18.632863</ele>
        <time>2022-08-02T11:53:32.000Z</time>
      </trkpt>
      <trkpt lat="49.38666" lon="-1.04462">
        <ele>18.697956</ele>
        <time>2022-08-02T11:53:33.000Z</time>
      </trkpt>
      <trkpt lat="49.38666" lon="-1.04456">
        <ele>18.762528</ele>
        <time>2022-08-02T11:53:34.000Z</time>
      </trkpt>
      <trkpt lat="49.38667" lon="-1.0445">
        <ele>18.830178</ele>
        <time>2022-08-02T11:53:35.000Z</time>
      </trkpt>
      <trkpt lat="49.38668" lon="-1.04444">
        <ele>18.901938</ele>
        <time>2022-08-02T11:53:36.000Z</time>
      </trkpt>
      <trkpt lat="49.38668" lon="-1.04438">
        <ele>18.972867</ele>
        <time>2022-08-02T11:53:37.000Z</time>
      </trkpt>
      <trkpt lat="49.38669" lon="-1.04431">
        <ele>19.042972</ele>
        <time>2022-08-02T11:53:38.000Z</time>
      </trkpt>
      <trkpt lat="49.38669" lon="-1.04425">
        <ele>19.115291</ele>
        <time>2022-08-02T11:53:39.000Z</time>
      </trkpt>
      <trkpt lat="49.38669" lon="-1.04418">
        <ele>19.18815</ele>
        <time>2022-08-02T11:53:40.000Z</time>
      </trkpt>
      <trkpt lat="49.3867" lon="-1.04412">
        <ele>19.262275</ele>
        <time>2022-08-02T11:53:41.000Z</time>
      </trkpt>
      <trkpt lat="49.38671" lon="-1.04405">
        <ele>19.334036</ele>
        <time>2022-08-02T11:53:42.000Z</time>
      </trkpt>
      <trkpt lat="49.38671" lon="-1.04399">
        <ele>19.4076</ele>
        <time>2022-08-02T11:53:43.000Z</time>
      </trkpt>
      <trkpt lat="49.38672" lon="-1.04392">
        <ele>19.481351</ele>
        <time>2022-08-02T11:53:44.000Z</time>
      </trkpt>
      <trkpt lat="49.38673" lon="-1.04386">
        <ele>19.554469</ele>
        <time>2022-08-02T11:53:45.000Z</time>
      </trkpt>
      <trkpt lat="49.38673" lon="-1.04379">
        <ele>19.629002</ele>
        <time>2022-08-02T11:53:46.000Z</time>
      </trkpt>
      <trkpt lat="49.38674" lon="-1.04372">
        <ele>19.652973</ele>
        <time>2022-08-02T11:53:47.000Z</time>
      </trkpt>
      <trkpt lat="49.38675" lon="-1.04366">
        <ele>19.646905</ele>
        <time>2022-08-02T11:53:48.000Z</time>
      </trkpt>
      <trkpt lat="49.38675" lon="-1.04359">
        <ele>19.640803</ele>
        <time>2022-08-02T11:53:49.000Z</time>
      </trkpt>
      <trkpt lat="49.38676" lon="-1.04353">
        <ele>19.634505</ele>
        <time>2022-08-02T11:53:50.000Z</time>
      </trkpt>
      <trkpt lat="49.38677" lon="-1.04346">
        <ele>19.62822</ele>
        <time>2022-08-02T11:53:51.000Z</time>
      </trkpt>
      <trkpt lat="49.38677" lon="-1.04339">
        <ele>19.621842</ele>
        <time>2022-08-02T11:53:52.000Z</time>
      </trkpt>
      <trkpt lat="49.38678" lon="-1.04332">
        <ele>19.615272</ele>
        <time>2022-08-02T11:53:53.000Z</time>
      </trkpt>
      <trkpt lat="49.38679" lon="-1.04325">
        <ele>19.608618</ele>
        <time>2022-08-02T11:53:54.000Z</time>
      </trkpt>
      <trkpt lat="49.3868" lon="-1.04318">
        <ele>19.601957</ele>
        <time>2022-08-02T11:53:55.000Z</time>
      </trkpt>
      <trkpt lat="49.38681" lon="-1.04311">
        <ele>19.595211</ele>
        <time>2022-08-02T11:53:56.000Z</time>
      </trkpt>
      <trkpt lat="49.38681" lon="-1.04304">
        <ele>19.588629</ele>
        <time>2022-08-02T11:53:57.000Z</time>
      </trkpt>
      <trkpt lat="49.38682" lon="-1.04297">
        <ele>19.581815</ele>
        <time>2022-08-02T11:53:58.000Z</time>
      </trkpt>
      <trkpt lat="49.38683" lon="-1.04289">
        <ele>19.574773</ele>
        <time>2022-08-02T11:53:59.000Z</time>
      </trkpt>
      <trkpt lat="49.38684" lon="-1.04282">
        <ele>19.567868</ele>
        <time>2022-08-02T11:54:00.000Z</time>
      </trkpt>
      <trkpt lat="49.38685" lon="-1.04275">
        <ele>19.56101</ele>
        <time>2022-08-02T11:54:01.000Z</time>
      </trkpt>
      <trkpt lat="49.38685" lon="-1.04267">
        <ele>19.553987</ele>
        <time>2022-08-02T11:54:02.000Z</time>
      </trkpt>
      <trkpt lat="49.38686" lon="-1.0426">
        <ele>19.546963</ele>
        <time>2022-08-02T11:54:03.000Z</time>
      </trkpt>
      <trkpt lat="49.38687" lon="-1.04252">
        <ele>19.539601</ele>
        <time>2022-08-02T11:54:04.000Z</time>
      </trkpt>
      <trkpt lat="49.38688" lon="-1.04244">
        <ele>19.532212</ele>
        <time>2022-08-02T11:54:05.000Z</time>
      </trkpt>
      <trkpt lat="49.38689" lon="-1.04236">
        <ele>19.524543</ele>
        <time>2022-08-02T11:54:06.000Z</time>
      </trkpt>
      <trkpt lat="49.38689" lon="-1.04228">
        <ele>19.516765</ele>
        <time>2022-08-02T11:54:07.000Z</time>
      </trkpt>
      <trkpt lat="49.3869" lon="-1.04219">
        <ele>19.508853</ele>
        <time>2022-08-02T11:54:08.000Z</time>
      </trkpt>
      <trkpt lat="49.38691" lon="-1.04211">
        <ele>19.500733</ele>
        <time>2022-08-02T11:54:09.000Z</time>
      </trkpt>
      <trkpt lat="49.38692" lon="-1.04202">
        <ele>19.492705</ele>
        <time>2022-08-02T11:54:10.000Z</time>
      </trkpt>
      <trkpt lat="49.38693" lon="-1.04193">
        <ele>19.48439</ele>
        <time>2022-08-02T11:54:11.000Z</time>
      </trkpt>
      <trkpt lat="49.38694" lon="-1.04185">
        <ele>19.476184</ele>
        <time>2022-08-02T11:54:12.000Z</time>
      </trkpt>
      <trkpt lat="49.38695" lon="-1.04176">
        <ele>19.467776</ele>
        <time>2022-08-02T11:54:13.000Z</time>
      </trkpt>
      <trkpt lat="49.38696" lon="-1.04167">
        <ele>19.459382</ele>
        <time>2022-08-02T11:54:14.000Z</time>
      </trkpt>
      <trkpt lat="49.38697" lon="-1.04158">
        <ele>19.450919</ele>
        <time>2022-08-02T11:54:15.000Z</time>
      </trkpt>
      <trkpt lat="49.38697" lon="-1.04149">
        <ele>19.442403</ele>
        <time>2022-08-02T11:54:16.000Z</time>
      </trkpt>
      <trkpt lat="49.38698" lon="-1.0414">
        <ele>19.43394</ele>
        <time>2022-08-02T11:54:17.000Z</time>
      </trkpt>
      <trkpt lat="49.38699" lon="-1.04131">
        <ele>19.425793</ele>
        <time>2022-08-02T11:54:18.000Z</time>
      </trkpt>
      <trkpt lat="49.387" lon="-1.04122">
        <ele>19.417606</ele>
        <time>2022-08-02T11:54:19.000Z</time>
      </trkpt>
      <trkpt lat="49.38701" lon="-1.04114">
        <ele>19.409486</ele>
        <time>2022-08-02T11:54:20.000Z</time>
      </trkpt>
      <trkpt lat="49.38702" lon="-1.04105">
        <ele>19.401092</ele>
        <time>2022-08-02T11:54:21.000Z</time>
      </trkpt>
      <trkpt lat="49.38702" lon="-1.04096">
        <ele>19.471877</ele>
        <time>2022-08-02T11:54:22.000Z</time>
      </trkpt>
      <trkpt lat="49.38703" lon="-1.04087">
        <ele>19.553959</ele>
        <time>2022-08-02T11:54:23.000Z</time>
      </trkpt>
      <trkpt lat="49.38703" lon="-1.04078">
        <ele>19.633312</ele>
        <time>2022-08-02T11:54:24.000Z</time>
      </trkpt>
      <trkpt lat="49.38704" lon="-1.04069">
        <ele>19.71737</ele>
        <time>2022-08-02T11:54:25.000Z</time>
      </trkpt>
      <trkpt lat="49.38704" lon="-1.0406">
        <ele>19.799452</ele>
        <time>2022-08-02T11:54:26.000Z</time>
      </trkpt>
      <trkpt lat="49.38704" lon="-1.04051">
        <ele>19.883248</ele>
        <time>2022-08-02T11:54:27.000Z</time>
      </trkpt>
      <trkpt lat="49.38704" lon="-1.04042">
        <ele>19.967149</ele>
        <time>2022-08-02T11:54:28.000Z</time>
      </trkpt>
      <trkpt lat="49.38704" lon="-1.04033">
        <ele>20.049231</ele>
        <time>2022-08-02T11:54:29.000Z</time>
      </trkpt>
      <trkpt lat="49.38703" lon="-1.04024">
        <ele>20.131789</ele>
        <time>2022-08-02T11:54:30.000Z</time>
      </trkpt>
      <trkpt lat="49.38703" lon="-1.04015">
        <ele>20.212051</ele>
        <time>2022-08-02T11:54:31.000Z</time>
      </trkpt>
      <trkpt lat="49.38702" lon="-1.04006">
        <ele>20.292643</ele>
        <time>2022-08-02T11:54:32.000Z</time>
      </trkpt>
      <trkpt lat="49.38701" lon="-1.03997">
        <ele>20.375722</ele>
        <time>2022-08-02T11:54:33.000Z</time>
      </trkpt>
      <trkpt lat="49.387" lon="-1.03989">
        <ele>20.453596</ele>
        <time>2022-08-02T11:54:34.000Z</time>
      </trkpt>
      <trkpt lat="49.38699" lon="-1.0398">
        <ele>20.533125</ele>
        <time>2022-08-02T11:54:35.000Z</time>
      </trkpt>
      <trkpt lat="49.38698" lon="-1.03972">
        <ele>20.608217</ele>
        <time>2022-08-02T11:54:36.000Z</time>
      </trkpt>
      <trkpt lat="49.38696" lon="-1.03964">
        <ele>20.684445</ele>
        <time>2022-08-02T11:54:37.000Z</time>
      </trkpt>
      <trkpt lat="49.38695" lon="-1.03956">
        <ele>20.759548</ele>
        <time>2022-08-02T11:54:38.000Z</time>
      </trkpt>
      <trkpt lat="49.38693" lon="-1.03948">
        <ele>20.836258</ele>
        <time>2022-08-02T11:54:39.000Z</time>
      </trkpt>
      <trkpt lat="49.38692" lon="-1.03941">
        <ele>20.90695</ele>
        <time>2022-08-02T11:54:40.000Z</time>
      </trkpt>
      <trkpt lat="49.3869" lon="-1.03934">
        <ele>20.977109</ele>
        <time>2022-08-02T11:54:41.000Z</time>
      </trkpt>
      <trkpt lat="49.38689" lon="-1.03927">
        <ele>21.042967</ele>
        <time>2022-08-02T11:54:42.000Z</time>
      </trkpt>
      <trkpt lat="49.38687" lon="-1.0392">
        <ele>21.108899</ele>
        <time>2022-08-02T11:54:43.000Z</time>
      </trkpt>
      <trkpt lat="49.38686" lon="-1.03913">
        <ele>21.169965</ele>
        <time>2022-08-02T11:54:44.000Z</time>
      </trkpt>
      <trkpt lat="49.38685" lon="-1.03907">
        <ele>21.228427</ele>
        <time>2022-08-02T11:54:45.000Z</time>
      </trkpt>
      <trkpt lat="49.38683" lon="-1.03901">
        <ele>21.287485</ele>
        <time>2022-08-02T11:54:46.000Z</time>
      </trkpt>
      <trkpt lat="49.38682" lon="-1.03895">
        <ele>21.345664</ele>
        <time>2022-08-02T11:54:47.000Z</time>
      </trkpt>
      <trkpt lat="49.38681" lon="-1.03889">
        <ele>21.40304</ele>
        <time>2022-08-02T11:54:48.000Z</time>
      </trkpt>
      <trkpt lat="49.38679" lon="-1.03883">
        <ele>21.460212</ele>
        <time>2022-08-02T11:54:49.000Z</time>
      </trkpt>
      <trkpt lat="49.38678" lon="-1.03877">
        <ele>21.516946</ele>
        <time>2022-08-02T11:54:50.000Z</time>
      </trkpt>
      <trkpt lat="49.38677" lon="-1.03871">
        <ele>21.574544</ele>
        <time>2022-08-02T11:54:51.000Z</time>
      </trkpt>
      <trkpt lat="49.38676" lon="-1.03865">
        <ele>21.630956</ele>
        <time>2022-08-02T11:54:52.000Z</time>
      </trkpt>
      <trkpt lat="49.38675" lon="-1.0386">
        <ele>21.686389</ele>
        <time>2022-08-02T11:54:53.000Z</time>
      </trkpt>
      <trkpt lat="49.38673" lon="-1.03854">
        <ele>21.741401</ele>
        <time>2022-08-02T11:54:54.000Z</time>
      </trkpt>
      <trkpt lat="49.38673" lon="-1.03848">
        <ele>21.795129</ele>
        <time>2022-08-02T11:54:55.000Z</time>
      </trkpt>
      <trkpt lat="49.38672" lon="-1.03842">
        <ele>21.848621</ele>
        <time>2022-08-02T11:54:56.000Z</time>
      </trkpt>
      <trkpt lat="49.38671" lon="-1.03836">
        <ele>21.905034</ele>
        <time>2022-08-02T11:54:57.000Z</time>
      </trkpt>
      <trkpt lat="49.3867" lon="-1.0383">
        <ele>21.979817</ele>
        <time>2022-08-02T11:54:58.000Z</time>
      </trkpt>
      <trkpt lat="49.3867" lon="-1.03824">
        <ele>22.061645</ele>
        <time>2022-08-02T11:54:59.000Z</time>
      </trkpt>
      <trkpt lat="49.3867" lon="-1.03818">
        <ele>22.138435</ele>
        <time>2022-08-02T11:55:00.000Z</time>
      </trkpt>
      <trkpt lat="49.38669" lon="-1.03812">
        <ele>22.220177</ele>
        <time>2022-08-02T11:55:01.000Z</time>
      </trkpt>
      <trkpt lat="49.38669" lon="-1.03806">
        <ele>22.302231</ele>
        <time>2022-08-02T11:55:02.000Z</time>
      </trkpt>
      <trkpt lat="49.38669" lon="-1.038">
        <ele>22.384285</ele>
        <time>2022-08-02T11:55:03.000Z</time>
      </trkpt>
      <trkpt lat="49.38669" lon="-1.03794">
        <ele>22.467432</ele>
        <time>2022-08-02T11:55:04.000Z</time>
      </trkpt>
      <trkpt lat="49.38669" lon="-1.03787">
        <ele>22.54926</ele>
        <time>2022-08-02T11:55:05.000Z</time>
      </trkpt>
      <trkpt lat="49.38668" lon="-1.03781">
        <ele>22.629998</ele>
        <time>2022-08-02T11:55:06.000Z</time>
      </trkpt>
      <trkpt lat="49.38668" lon="-1.03775">
        <ele>22.713047</ele>
        <time>2022-08-02T11:55:07.000Z</time>
      </trkpt>
      <trkpt lat="49.38667" lon="-1.03769">
        <ele>22.792469</ele>
        <time>2022-08-02T11:55:08.000Z</time>
      </trkpt>
      <trkpt lat="49.38667" lon="-1.03763">
        <ele>22.869259</ele>
        <time>2022-08-02T11:55:09.000Z</time>
      </trkpt>
      <trkpt lat="49.38667" lon="-1.03758">
        <ele>22.940787</ele>
        <time>2022-08-02T11:55:10.000Z</time>
      </trkpt>
      <trkpt lat="49.38666" lon="-1.03753">
        <ele>23.005708</ele>
        <time>2022-08-02T11:55:11.000Z</time>
      </trkpt>
      <trkpt lat="49.38665" lon="-1.03748">
        <ele>23.068921</ele>
        <time>2022-08-02T11:55:12.000Z</time>
      </trkpt>
      <trkpt lat="49.38666" lon="-1.03744">
        <ele>23.124383</ele>
        <time>2022-08-02T11:55:13.000Z</time>
      </trkpt>
      <trkpt lat="49.38667" lon="-1.03741">
        <ele>23.175237</ele>
        <time>2022-08-02T11:55:14.000Z</time>
      </trkpt>
      <trkpt lat="49.38668" lon="-1.03737">
        <ele>23.231094</ele>
        <time>2022-08-02T11:55:15.000Z</time>
      </trkpt>
      <trkpt lat="49.38669" lon="-1.03732">
        <ele>23.293667</ele>
        <time>2022-08-02T11:55:16.000Z</time>
      </trkpt>
      <trkpt lat="49.38669" lon="-1.03728">
        <ele>23.349432</ele>
        <time>2022-08-02T11:55:17.000Z</time>
      </trkpt>
      <trkpt lat="49.38669" lon="-1.03724">
        <ele>23.402224</ele>
        <time>2022-08-02T11:55:18.000Z</time>
      </trkpt>
      <trkpt lat="49.38669" lon="-1.03721">
        <ele>23.445777</ele>
        <time>2022-08-02T11:55:19.000Z</time>
      </trkpt>
      <trkpt lat="49.3867" lon="-1.03718">
        <ele>23.48909</ele>
        <time>2022-08-02T11:55:21.000Z</time>
      </trkpt>
      <trkpt lat="49.38673" lon="-1.03704">
        <ele>23.68425</ele>
        <time>2022-08-02T11:56:11.000Z</time>
      </trkpt>
      <trkpt lat="49.38674" lon="-1.03697">
        <ele>23.782342</ele>
        <time>2022-08-02T11:56:12.000Z</time>
      </trkpt>
      <trkpt lat="49.38675" lon="-1.03689">
        <ele>23.882339</ele>
        <time>2022-08-02T11:56:13.000Z</time>
      </trkpt>
      <trkpt lat="49.38676" lon="-1.03681">
        <ele>23.989488</ele>
        <time>2022-08-02T11:56:14.000Z</time>
      </trkpt>
      <trkpt lat="49.38677" lon="-1.03672">
        <ele>24.106088</ele>
        <time>2022-08-02T11:56:15.000Z</time>
      </trkpt>
      <trkpt lat="49.38677" lon="-1.03664">
        <ele>24.220241</ele>
        <time>2022-08-02T11:56:16.000Z</time>
      </trkpt>
      <trkpt lat="49.38679" lon="-1.03655">
        <ele>24.34449</ele>
        <time>2022-08-02T11:56:17.000Z</time>
      </trkpt>
      <trkpt lat="49.3868" lon="-1.03645">
        <ele>24.472612</ele>
        <time>2022-08-02T11:56:18.000Z</time>
      </trkpt>
      <trkpt lat="49.38681" lon="-1.03636">
        <ele>24.590511</ele>
        <time>2022-08-02T11:56:19.000Z</time>
      </trkpt>
      <trkpt lat="49.38682" lon="-1.03627">
        <ele>24.710466</ele>
        <time>2022-08-02T11:56:20.000Z</time>
      </trkpt>
      <trkpt lat="49.38683" lon="-1.03618">
        <ele>24.830966</ele>
        <time>2022-08-02T11:56:21.000Z</time>
      </trkpt>
      <trkpt lat="49.38684" lon="-1.03609">
        <ele>24.951466</ele>
        <time>2022-08-02T11:56:22.000Z</time>
      </trkpt>
      <trkpt lat="49.38685" lon="-1.036">
        <ele>25.07087</ele>
        <time>2022-08-02T11:56:23.000Z</time>
      </trkpt>
      <trkpt lat="49.38686" lon="-1.03591">
        <ele>25.192541</ele>
        <time>2022-08-02T11:56:24.000Z</time>
      </trkpt>
      <trkpt lat="49.38687" lon="-1.03583">
        <ele>25.309319</ele>
        <time>2022-08-02T11:56:25.000Z</time>
      </trkpt>
      <trkpt lat="49.38688" lon="-1.03574">
        <ele>25.43099</ele>
        <time>2022-08-02T11:56:26.000Z</time>
      </trkpt>
      <trkpt lat="49.38689" lon="-1.03565">
        <ele>25.547768</ele>
        <time>2022-08-02T11:56:27.000Z</time>
      </trkpt>
      <trkpt lat="49.3869" lon="-1.03556">
        <ele>25.577275</ele>
        <time>2022-08-02T11:56:28.000Z</time>
      </trkpt>
      <trkpt lat="49.38691" lon="-1.03547">
        <ele>25.592666</ele>
        <time>2022-08-02T11:56:29.000Z</time>
      </trkpt>
      <trkpt lat="49.38692" lon="-1.03538">
        <ele>25.608265</ele>
        <time>2022-08-02T11:56:30.000Z</time>
      </trkpt>
      <trkpt lat="49.38693" lon="-1.03529">
        <ele>25.6236</ele>
        <time>2022-08-02T11:56:31.000Z</time>
      </trkpt>
      <trkpt lat="49.38694" lon="-1.0352">
        <ele>25.639419</ele>
        <time>2022-08-02T11:56:32.000Z</time>
      </trkpt>
      <trkpt lat="49.38695" lon="-1.03511">
        <ele>25.654712</ele>
        <time>2022-08-02T11:56:33.000Z</time>
      </trkpt>
      <trkpt lat="49.38696" lon="-1.03502">
        <ele>25.670365</ele>
        <time>2022-08-02T11:56:34.000Z</time>
      </trkpt>
      <trkpt lat="49.38697" lon="-1.03493">
        <ele>25.685667</ele>
        <time>2022-08-02T11:56:35.000Z</time>
      </trkpt>
      <trkpt lat="49.38698" lon="-1.03484">
        <ele>25.700989</ele>
        <time>2022-08-02T11:56:36.000Z</time>
      </trkpt>
      <trkpt lat="49.38699" lon="-1.03475">
        <ele>25.71599</ele>
        <time>2022-08-02T11:56:37.000Z</time>
      </trkpt>
      <trkpt lat="49.387" lon="-1.03467">
        <ele>25.730612</ele>
        <time>2022-08-02T11:56:38.000Z</time>
      </trkpt>
      <trkpt lat="49.38701" lon="-1.03459">
        <ele>25.744486</ele>
        <time>2022-08-02T11:56:39.000Z</time>
      </trkpt>
      <trkpt lat="49.38701" lon="-1.03451">
        <ele>25.75816</ele>
        <time>2022-08-02T11:56:40.000Z</time>
      </trkpt>
      <trkpt lat="49.38702" lon="-1.03443">
        <ele>25.771992</ele>
        <time>2022-08-02T11:56:41.000Z</time>
      </trkpt>
      <trkpt lat="49.38703" lon="-1.03435">
        <ele>25.785665</ele>
        <time>2022-08-02T11:56:42.000Z</time>
      </trkpt>
      <trkpt lat="49.38703" lon="-1.03427">
        <ele>25.799271</ele>
        <time>2022-08-02T11:56:43.000Z</time>
      </trkpt>
      <trkpt lat="49.38704" lon="-1.03419">
        <ele>25.813437</ele>
        <time>2022-08-02T11:56:44.000Z</time>
      </trkpt>
      <trkpt lat="49.38705" lon="-1.0341">
        <ele>25.827602</ele>
        <time>2022-08-02T11:56:45.000Z</time>
      </trkpt>
      <trkpt lat="49.38706" lon="-1.03402">
        <ele>25.841555</ele>
        <time>2022-08-02T11:56:46.000Z</time>
      </trkpt>
      <trkpt lat="49.38707" lon="-1.03394">
        <ele>25.85572</ele>
        <time>2022-08-02T11:56:47.000Z</time>
      </trkpt>
      <trkpt lat="49.38708" lon="-1.03386">
        <ele>25.869505</ele>
        <time>2022-08-02T11:56:48.000Z</time>
      </trkpt>
      <trkpt lat="49.38709" lon="-1.03378">
        <ele>25.883211</ele>
        <time>2022-08-02T11:56:49.000Z</time>
      </trkpt>
      <trkpt lat="49.38709" lon="-1.0337">
        <ele>25.896547</ele>
        <time>2022-08-02T11:56:50.000Z</time>
      </trkpt>
      <trkpt lat="49.3871" lon="-1.03362">
        <ele>25.910548</ele>
        <time>2022-08-02T11:56:51.000Z</time>
      </trkpt>
      <trkpt lat="49.38711" lon="-1.03354">
        <ele>25.925065</ele>
        <time>2022-08-02T11:56:52.000Z</time>
      </trkpt>
      <trkpt lat="49.38712" lon="-1.03345">
        <ele>25.939891</ele>
        <time>2022-08-02T11:56:53.000Z</time>
      </trkpt>
      <trkpt lat="49.38713" lon="-1.03337">
        <ele>25.954775</ele>
        <time>2022-08-02T11:56:54.000Z</time>
      </trkpt>
      <trkpt lat="49.38714" lon="-1.03328">
        <ele>25.970041</ele>
        <time>2022-08-02T11:56:55.000Z</time>
      </trkpt>
      <trkpt lat="49.38716" lon="-1.03319">
        <ele>25.985529</ele>
        <time>2022-08-02T11:56:56.000Z</time>
      </trkpt>
      <trkpt lat="49.38717" lon="-1.0331">
        <ele>26.001032</ele>
        <time>2022-08-02T11:56:57.000Z</time>
      </trkpt>
      <trkpt lat="49.38718" lon="-1.03301">
        <ele>26.016219</ele>
        <time>2022-08-02T11:56:58.000Z</time>
      </trkpt>
      <trkpt lat="49.38719" lon="-1.03292">
        <ele>26.031512</ele>
        <time>2022-08-02T11:56:59.000Z</time>
      </trkpt>
      <trkpt lat="49.38721" lon="-1.03284">
        <ele>25.985963</ele>
        <time>2022-08-02T11:57:00.000Z</time>
      </trkpt>
      <trkpt lat="49.38723" lon="-1.03275">
        <ele>25.934774</ele>
        <time>2022-08-02T11:57:01.000Z</time>
      </trkpt>
      <trkpt lat="49.38725" lon="-1.03266">
        <ele>25.883904</ele>
        <time>2022-08-02T11:57:02.000Z</time>
      </trkpt>
      <trkpt lat="49.38726" lon="-1.03257">
        <ele>25.832513</ele>
        <time>2022-08-02T11:57:03.000Z</time>
      </trkpt>
      <trkpt lat="49.38728" lon="-1.03248">
        <ele>25.7806</ele>
        <time>2022-08-02T11:57:04.000Z</time>
      </trkpt>
      <trkpt lat="49.38731" lon="-1.03239">
        <ele>25.72857</ele>
        <time>2022-08-02T11:57:05.000Z</time>
      </trkpt>
      <trkpt lat="49.38733" lon="-1.0323">
        <ele>25.67736</ele>
        <time>2022-08-02T11:57:06.000Z</time>
      </trkpt>
      <trkpt lat="49.38735" lon="-1.03222">
        <ele>25.627171</ele>
        <time>2022-08-02T11:57:07.000Z</time>
      </trkpt>
      <trkpt lat="49.38738" lon="-1.03213">
        <ele>25.575641</ele>
        <time>2022-08-02T11:57:08.000Z</time>
      </trkpt>
      <trkpt lat="49.3874" lon="-1.03205">
        <ele>25.523614</ele>
        <time>2022-08-02T11:57:09.000Z</time>
      </trkpt>
      <trkpt lat="49.38743" lon="-1.03196">
        <ele>25.472937</ele>
        <time>2022-08-02T11:57:10.000Z</time>
      </trkpt>
      <trkpt lat="49.38745" lon="-1.03188">
        <ele>25.422431</ele>
        <time>2022-08-02T11:57:11.000Z</time>
      </trkpt>
      <trkpt lat="49.38748" lon="-1.0318">
        <ele>25.371139</ele>
        <time>2022-08-02T11:57:12.000Z</time>
      </trkpt>
      <trkpt lat="49.3875" lon="-1.03172">
        <ele>25.322078</ele>
        <time>2022-08-02T11:57:13.000Z</time>
      </trkpt>
      <trkpt lat="49.38753" lon="-1.03164">
        <ele>25.271837</ele>
        <time>2022-08-02T11:57:14.000Z</time>
      </trkpt>
      <trkpt lat="49.38756" lon="-1.03156">
        <ele>25.222552</ele>
        <time>2022-08-02T11:57:15.000Z</time>
      </trkpt>
      <trkpt lat="49.38759" lon="-1.03148">
        <ele>25.174356</ele>
        <time>2022-08-02T11:57:16.000Z</time>
      </trkpt>
      <trkpt lat="49.38762" lon="-1.0314">
        <ele>25.12602</ele>
        <time>2022-08-02T11:57:17.000Z</time>
      </trkpt>
      <trkpt lat="49.38764" lon="-1.03133">
        <ele>25.081801</ele>
        <time>2022-08-02T11:57:18.000Z</time>
      </trkpt>
      <trkpt lat="49.38766" lon="-1.03127">
        <ele>25.041604</ele>
        <time>2022-08-02T11:57:19.000Z</time>
      </trkpt>
      <trkpt lat="49.38769" lon="-1.03121">
        <ele>25.002861</ele>
        <time>2022-08-02T11:57:20.000Z</time>
      </trkpt>
      <trkpt lat="49.38771" lon="-1.03114">
        <ele>24.964895</ele>
        <time>2022-08-02T11:57:21.000Z</time>
      </trkpt>
      <trkpt lat="49.38773" lon="-1.03108">
        <ele>24.925345</ele>
        <time>2022-08-02T11:57:22.000Z</time>
      </trkpt>
      <trkpt lat="49.38774" lon="-1.03102">
        <ele>24.890649</ele>
        <time>2022-08-02T11:57:23.000Z</time>
      </trkpt>
      <trkpt lat="49.38776" lon="-1.03097">
        <ele>24.856486</ele>
        <time>2022-08-02T11:57:24.000Z</time>
      </trkpt>
      <trkpt lat="49.38778" lon="-1.03091">
        <ele>24.822806</ele>
        <time>2022-08-02T11:57:25.000Z</time>
      </trkpt>
      <trkpt lat="49.3878" lon="-1.03086">
        <ele>24.78824</ele>
        <time>2022-08-02T11:57:26.000Z</time>
      </trkpt>
      <trkpt lat="49.38782" lon="-1.03081">
        <ele>24.757177</ele>
        <time>2022-08-02T11:57:27.000Z</time>
      </trkpt>
      <trkpt lat="49.38783" lon="-1.03076">
        <ele>24.726608</ele>
        <time>2022-08-02T11:57:28.000Z</time>
      </trkpt>
      <trkpt lat="49.38784" lon="-1.03072">
        <ele>24.704086</ele>
        <time>2022-08-02T11:57:29.000Z</time>
      </trkpt>
      <trkpt lat="49.38785" lon="-1.03068">
        <ele>24.684228</ele>
        <time>2022-08-02T11:57:30.000Z</time>
      </trkpt>
      <trkpt lat="49.38785" lon="-1.03064">
        <ele>24.658843</ele>
        <time>2022-08-02T11:57:32.000Z</time>
      </trkpt>
      <trkpt lat="49.38791" lon="-1.03064">
        <ele>24.6074</ele>
        <time>2022-08-02T11:57:47.000Z</time>
      </trkpt>
      <trkpt lat="49.38793" lon="-1.03066">
        <ele>24.58893</ele>
        <time>2022-08-02T11:57:48.000Z</time>
      </trkpt>
      <trkpt lat="49.38794" lon="-1.0307">
        <ele>24.568792</ele>
        <time>2022-08-02T11:57:49.000Z</time>
      </trkpt>
      <trkpt lat="49.38795" lon="-1.03074">
        <ele>24.544473</ele>
        <time>2022-08-02T11:57:50.000Z</time>
      </trkpt>
      <trkpt lat="49.38796" lon="-1.03079">
        <ele>24.516347</ele>
        <time>2022-08-02T11:57:51.000Z</time>
      </trkpt>
      <trkpt lat="49.38798" lon="-1.03083">
        <ele>24.48684</ele>
        <time>2022-08-02T11:57:52.000Z</time>
      </trkpt>
      <trkpt lat="49.388" lon="-1.03087">
        <ele>24.459246</ele>
        <time>2022-08-02T11:57:53.000Z</time>
      </trkpt>
      <trkpt lat="49.38802" lon="-1.03091">
        <ele>24.433821</ele>
        <time>2022-08-02T11:57:54.000Z</time>
      </trkpt>
      <trkpt lat="49.38805" lon="-1.03094">
        <ele>24.406989</ele>
        <time>2022-08-02T11:57:55.000Z</time>
      </trkpt>
      <trkpt lat="49.38806" lon="-1.03098">
        <ele>24.382402</ele>
        <time>2022-08-02T11:57:56.000Z</time>
      </trkpt>
      <trkpt lat="49.38809" lon="-1.03101">
        <ele>24.356085</ele>
        <time>2022-08-02T11:57:57.000Z</time>
      </trkpt>
      <trkpt lat="49.38812" lon="-1.03101">
        <ele>24.335023</ele>
        <time>2022-08-02T11:57:58.000Z</time>
      </trkpt>
      <trkpt lat="49.38813" lon="-1.031">
        <ele>24.317558</ele>
        <time>2022-08-02T11:57:59.000Z</time>
      </trkpt>
      <trkpt lat="49.38814" lon="-1.03097">
        <ele>24.301376</ele>
        <time>2022-08-02T11:58:00.000Z</time>
      </trkpt>
      <trkpt lat="49.38815" lon="-1.03094">
        <ele>24.282073</ele>
        <time>2022-08-02T11:58:01.000Z</time>
      </trkpt>
      <trkpt lat="49.38814" lon="-1.0309">
        <ele>24.263068</ele>
        <time>2022-08-02T11:58:02.000Z</time>
      </trkpt>
      <trkpt lat="49.38813" lon="-1.03087">
        <ele>24.242447</ele>
        <time>2022-08-02T11:58:03.000Z</time>
      </trkpt>
      <trkpt lat="49.38812" lon="-1.03084">
        <ele>24.221103</ele>
        <time>2022-08-02T11:58:04.000Z</time>
      </trkpt>
      <trkpt lat="49.3881" lon="-1.0308">
        <ele>24.198468</ele>
        <time>2022-08-02T11:58:05.000Z</time>
      </trkpt>
      <trkpt lat="49.38808" lon="-1.03077">
        <ele>24.1747</ele>
        <time>2022-08-02T11:58:06.000Z</time>
      </trkpt>
      <trkpt lat="49.38807" lon="-1.03074">
        <ele>24.154397</ele>
        <time>2022-08-02T11:58:07.000Z</time>
      </trkpt>
      <trkpt lat="49.38807" lon="-1.0307">
        <ele>24.136817</ele>
        <time>2022-08-02T11:58:08.000Z</time>
      </trkpt>
      <trkpt lat="49.38807" lon="-1.03067">
        <ele>24.119767</ele>
        <time>2022-08-02T11:58:09.000Z</time>
      </trkpt>
      <trkpt lat="49.38808" lon="-1.03064">
        <ele>24.102325</ele>
        <time>2022-08-02T11:58:10.000Z</time>
      </trkpt>
      <trkpt lat="49.38808" lon="-1.03061">
        <ele>24.084883</ele>
        <time>2022-08-02T11:58:11.000Z</time>
      </trkpt>
      <trkpt lat="49.38808" lon="-1.03057">
        <ele>24.066</ele>
        <time>2022-08-02T11:58:12.000Z</time>
      </trkpt>
      <trkpt lat="49.38808" lon="-1.03054">
        <ele>24.04642</ele>
        <time>2022-08-02T11:58:13.000Z</time>
      </trkpt>
      <trkpt lat="49.38809" lon="-1.0305">
        <ele>24.025632</ele>
        <time>2022-08-02T11:58:14.000Z</time>
      </trkpt>
      <trkpt lat="49.38809" lon="-1.03046">
        <ele>24.005516</ele>
        <time>2022-08-02T11:58:15.000Z</time>
      </trkpt>
      <trkpt lat="49.3881" lon="-1.03042">
        <ele>23.983258</ele>
        <time>2022-08-02T11:58:16.000Z</time>
      </trkpt>
      <trkpt lat="49.3881" lon="-1.03038">
        <ele>23.958853</ele>
        <time>2022-08-02T11:58:17.000Z</time>
      </trkpt>
      <trkpt lat="49.3881" lon="-1.03033">
        <ele>23.935115</ele>
        <time>2022-08-02T11:58:18.000Z</time>
      </trkpt>
      <trkpt lat="49.3881" lon="-1.03029">
        <ele>23.91071</ele>
        <time>2022-08-02T11:58:19.000Z</time>
      </trkpt>
      <trkpt lat="49.38811" lon="-1.03024">
        <ele>23.884546</ele>
        <time>2022-08-02T11:58:20.000Z</time>
      </trkpt>
      <trkpt lat="49.38812" lon="-1.03019">
        <ele>23.854991</ele>
        <time>2022-08-02T11:58:21.000Z</time>
      </trkpt>
      <trkpt lat="49.38813" lon="-1.03014">
        <ele>23.827399</ele>
        <time>2022-08-02T11:58:22.000Z</time>
      </trkpt>
      <trkpt lat="49.38813" lon="-1.03009">
        <ele>23.801485</ele>
        <time>2022-08-02T11:58:23.000Z</time>
      </trkpt>
      <trkpt lat="49.38813" lon="-1.03004">
        <ele>23.772352</ele>
        <time>2022-08-02T11:58:24.000Z</time>
      </trkpt>
      <trkpt lat="49.38813" lon="-1.02998">
        <ele>23.74214</ele>
        <time>2022-08-02T11:58:25.000Z</time>
      </trkpt>
      <trkpt lat="49.38814" lon="-1.02993">
        <ele>23.711211</ele>
        <time>2022-08-02T11:58:26.000Z</time>
      </trkpt>
      <trkpt lat="49.38814" lon="-1.02987">
        <ele>23.680059</ele>
        <time>2022-08-02T11:58:27.000Z</time>
      </trkpt>
      <trkpt lat="49.38816" lon="-1.02981">
        <ele>23.648491</ele>
        <time>2022-08-02T11:58:28.000Z</time>
      </trkpt>
      <trkpt lat="49.38816" lon="-1.02976">
        <ele>23.617873</ele>
        <time>2022-08-02T11:58:29.000Z</time>
      </trkpt>
      <trkpt lat="49.38817" lon="-1.0297">
        <ele>23.584458</ele>
        <time>2022-08-02T11:58:30.000Z</time>
      </trkpt>
      <trkpt lat="49.38818" lon="-1.02963">
        <ele>23.549574</ele>
        <time>2022-08-02T11:58:31.000Z</time>
      </trkpt>
      <trkpt lat="49.38819" lon="-1.02957">
        <ele>23.514589</ele>
        <time>2022-08-02T11:58:32.000Z</time>
      </trkpt>
      <trkpt lat="49.3882" lon="-1.02951">
        <ele>23.480239</ele>
        <time>2022-08-02T11:58:33.000Z</time>
      </trkpt>
      <trkpt lat="49.38821" lon="-1.02944">
        <ele>23.444069</ele>
        <time>2022-08-02T11:58:34.000Z</time>
      </trkpt>
      <trkpt lat="49.38821" lon="-1.02938">
        <ele>23.409718</ele>
        <time>2022-08-02T11:58:35.000Z</time>
      </trkpt>
      <trkpt lat="49.38822" lon="-1.02932">
        <ele>23.374174</ele>
        <time>2022-08-02T11:58:36.000Z</time>
      </trkpt>
      <trkpt lat="49.38823" lon="-1.02925">
        <ele>23.335939</ele>
        <time>2022-08-02T11:58:37.000Z</time>
      </trkpt>
      <trkpt lat="49.38824" lon="-1.02918">
        <ele>23.30052</ele>
        <time>2022-08-02T11:58:38.000Z</time>
      </trkpt>
      <trkpt lat="49.38825" lon="-1.02912">
        <ele>23.262802</ele>
        <time>2022-08-02T11:58:39.000Z</time>
      </trkpt>
      <trkpt lat="49.38826" lon="-1.02905">
        <ele>23.225365</ele>
        <time>2022-08-02T11:58:40.000Z</time>
      </trkpt>
      <trkpt lat="49.38828" lon="-1.02898">
        <ele>23.187647</ele>
        <time>2022-08-02T11:58:41.000Z</time>
      </trkpt>
      <trkpt lat="49.38829" lon="-1.02891">
        <ele>23.149929</ele>
        <time>2022-08-02T11:58:42.000Z</time>
      </trkpt>
      <trkpt lat="49.3883" lon="-1.02885">
        <ele>23.113895</ele>
        <time>2022-08-02T11:58:43.000Z</time>
      </trkpt>
      <trkpt lat="49.38831" lon="-1.02878">
        <ele>23.076925</ele>
        <time>2022-08-02T11:58:44.000Z</time>
      </trkpt>
      <trkpt lat="49.38832" lon="-1.02871">
        <ele>23.039251</ele>
        <time>2022-08-02T11:58:45.000Z</time>
      </trkpt>
      <trkpt lat="49.38833" lon="-1.02865">
        <ele>22.966908</ele>
        <time>2022-08-02T11:58:46.000Z</time>
      </trkpt>
      <trkpt lat="49.38834" lon="-1.02858">
        <ele>22.879814</ele>
        <time>2022-08-02T11:58:47.000Z</time>
      </trkpt>
      <trkpt lat="49.38835" lon="-1.02852">
        <ele>22.79614</ele>
        <time>2022-08-02T11:58:48.000Z</time>
      </trkpt>
      <trkpt lat="49.38836" lon="-1.02846">
        <ele>22.707745</ele>
        <time>2022-08-02T11:58:49.000Z</time>
      </trkpt>
      <trkpt lat="49.38837" lon="-1.02839">
        <ele>22.614749</ele>
        <time>2022-08-02T11:58:50.000Z</time>
      </trkpt>
      <trkpt lat="49.38838" lon="-1.02832">
        <ele>22.523316</ele>
        <time>2022-08-02T11:58:51.000Z</time>
      </trkpt>
      <trkpt lat="49.38839" lon="-1.02826">
        <ele>22.431594</ele>
        <time>2022-08-02T11:58:52.000Z</time>
      </trkpt>
      <trkpt lat="49.38841" lon="-1.02819">
        <ele>22.334163</ele>
        <time>2022-08-02T11:58:53.000Z</time>
      </trkpt>
      <trkpt lat="49.38842" lon="-1.02812">
        <ele>22.241861</ele>
        <time>2022-08-02T11:58:54.000Z</time>
      </trkpt>
      <trkpt lat="49.38843" lon="-1.02805">
        <ele>22.145034</ele>
        <time>2022-08-02T11:58:55.000Z</time>
      </trkpt>
      <trkpt lat="49.38844" lon="-1.02798">
        <ele>22.053601</ele>
        <time>2022-08-02T11:58:56.000Z</time>
      </trkpt>
      <trkpt lat="49.38845" lon="-1.02792">
        <ele>21.970403</ele>
        <time>2022-08-02T11:58:57.000Z</time>
      </trkpt>
      <trkpt lat="49.38846" lon="-1.02787">
        <ele>21.902374</ele>
        <time>2022-08-02T11:58:58.000Z</time>
      </trkpt>
      <trkpt lat="49.38847" lon="-1.02783">
        <ele>21.841025</ele>
        <time>2022-08-02T11:58:59.000Z</time>
      </trkpt>
      <trkpt lat="49.38847" lon="-1.02779">
        <ele>21.792322</ele>
        <time>2022-08-02T11:59:00.000Z</time>
      </trkpt>
      <trkpt lat="49.38848" lon="-1.02776">
        <ele>21.750634</ele>
        <time>2022-08-02T11:59:01.000Z</time>
      </trkpt>
      <trkpt lat="49.38849" lon="-1.02774">
        <ele>21.713791</ele>
        <time>2022-08-02T11:59:02.000Z</time>
      </trkpt>
      <trkpt lat="49.38851" lon="-1.02773">
        <ele>21.658683</ele>
        <time>2022-08-02T11:59:04.000Z</time>
      </trkpt>
      <trkpt lat="49.38853" lon="-1.02775">
        <ele>21.611617</ele>
        <time>2022-08-02T11:59:06.000Z</time>
      </trkpt>
      <trkpt lat="49.38855" lon="-1.02776">
        <ele>21.569114</ele>
        <time>2022-08-02T11:59:08.000Z</time>
      </trkpt>
      <trkpt lat="49.38857" lon="-1.02776">
        <ele>21.528158</ele>
        <time>2022-08-02T11:59:10.000Z</time>
      </trkpt>
      <trkpt lat="49.38859" lon="-1.02776">
        <ele>21.48924</ele>
        <time>2022-08-02T11:59:12.000Z</time>
      </trkpt>
      <trkpt lat="49.38861" lon="-1.02777">
        <ele>21.446738</ele>
        <time>2022-08-02T11:59:14.000Z</time>
      </trkpt>
      <trkpt lat="49.38863" lon="-1.0278">
        <ele>21.389197</ele>
        <time>2022-08-02T11:59:16.000Z</time>
      </trkpt>
      <trkpt lat="49.38865" lon="-1.02783">
        <ele>21.329229</ele>
        <time>2022-08-02T11:59:18.000Z</time>
      </trkpt>
      <trkpt lat="49.3888" lon="-1.0279">
        <ele>21.015129</ele>
        <time>2022-08-02T12:00:45.000Z</time>
      </trkpt>
      <trkpt lat="49.38884" lon="-1.02792">
        <ele>20.932605</ele>
        <time>2022-08-02T12:00:46.000Z</time>
      </trkpt>
      <trkpt lat="49.38888" lon="-1.02794">
        <ele>20.846753</ele>
        <time>2022-08-02T12:00:47.000Z</time>
      </trkpt>
      <trkpt lat="49.38892" lon="-1.02796">
        <ele>20.758848</ele>
        <time>2022-08-02T12:00:48.000Z</time>
      </trkpt>
      <trkpt lat="49.38896" lon="-1.02798">
        <ele>20.674399</ele>
        <time>2022-08-02T12:00:49.000Z</time>
      </trkpt>
      <trkpt lat="49.389" lon="-1.028">
        <ele>20.586887</ele>
        <time>2022-08-02T12:00:50.000Z</time>
      </trkpt>
      <trkpt lat="49.38904" lon="-1.02802">
        <ele>20.4925</ele>
        <time>2022-08-02T12:00:51.000Z</time>
      </trkpt>
      <trkpt lat="49.38908" lon="-1.02804">
        <ele>20.408893</ele>
        <time>2022-08-02T12:00:52.000Z</time>
      </trkpt>
      <trkpt lat="49.38912" lon="-1.02806">
        <ele>20.333469</ele>
        <time>2022-08-02T12:00:53.000Z</time>
      </trkpt>
      <trkpt lat="49.38916" lon="-1.02807">
        <ele>20.25221</ele>
        <time>2022-08-02T12:00:54.000Z</time>
      </trkpt>
      <trkpt lat="49.38919" lon="-1.02809">
        <ele>20.169368</ele>
        <time>2022-08-02T12:00:55.000Z</time>
      </trkpt>
      <trkpt lat="49.38924" lon="-1.02811">
        <ele>20.082587</ele>
        <time>2022-08-02T12:00:56.000Z</time>
      </trkpt>
      <trkpt lat="49.38928" lon="-1.02812">
        <ele>19.9882</ele>
        <time>2022-08-02T12:00:57.000Z</time>
      </trkpt>
      <trkpt lat="49.38933" lon="-1.02813">
        <ele>19.895286</ele>
        <time>2022-08-02T12:00:58.000Z</time>
      </trkpt>
      <trkpt lat="49.38937" lon="-1.02814">
        <ele>19.803291</ele>
        <time>2022-08-02T12:00:59.000Z</time>
      </trkpt>
      <trkpt lat="49.38942" lon="-1.02813">
        <ele>19.698531</ele>
        <time>2022-08-02T12:01:00.000Z</time>
      </trkpt>
      <trkpt lat="49.38947" lon="-1.0281">
        <ele>19.598812</ele>
        <time>2022-08-02T12:01:01.000Z</time>
      </trkpt>
      <trkpt lat="49.38951" lon="-1.02806">
        <ele>19.498843</ele>
        <time>2022-08-02T12:01:02.000Z</time>
      </trkpt>
      <trkpt lat="49.38955" lon="-1.028">
        <ele>19.391556</ele>
        <time>2022-08-02T12:01:03.000Z</time>
      </trkpt>
      <trkpt lat="49.38957" lon="-1.02794">
        <ele>19.271048</ele>
        <time>2022-08-02T12:01:04.000Z</time>
      </trkpt>
      <trkpt lat="49.3896" lon="-1.02787">
        <ele>19.124788</ele>
        <time>2022-08-02T12:01:05.000Z</time>
      </trkpt>
      <trkpt lat="49.38962" lon="-1.0278">
        <ele>18.975499</ele>
        <time>2022-08-02T12:01:06.000Z</time>
      </trkpt>
      <trkpt lat="49.38964" lon="-1.02772">
        <ele>18.828414</ele>
        <time>2022-08-02T12:01:07.000Z</time>
      </trkpt>
      <trkpt lat="49.38966" lon="-1.02765">
        <ele>18.678974</ele>
        <time>2022-08-02T12:01:08.000Z</time>
      </trkpt>
      <trkpt lat="49.38968" lon="-1.02757">
        <ele>18.532923</ele>
        <time>2022-08-02T12:01:09.000Z</time>
      </trkpt>
      <trkpt lat="49.3897" lon="-1.0275">
        <ele>18.395117</ele>
        <time>2022-08-02T12:01:10.000Z</time>
      </trkpt>
      <trkpt lat="49.38973" lon="-1.02745">
        <ele>18.263827</ele>
        <time>2022-08-02T12:01:11.000Z</time>
      </trkpt>
      <trkpt lat="49.38977" lon="-1.0274">
        <ele>18.121066</ele>
        <time>2022-08-02T12:01:12.000Z</time>
      </trkpt>
      <trkpt lat="49.38982" lon="-1.02736">
        <ele>17.976119</ele>
        <time>2022-08-02T12:01:13.000Z</time>
      </trkpt>
      <trkpt lat="49.38986" lon="-1.02732">
        <ele>17.83073</ele>
        <time>2022-08-02T12:01:14.000Z</time>
      </trkpt>
      <trkpt lat="49.38991" lon="-1.02727">
        <ele>17.672036</ele>
        <time>2022-08-02T12:01:15.000Z</time>
      </trkpt>
      <trkpt lat="49.38997" lon="-1.02722">
        <ele>17.49657</ele>
        <time>2022-08-02T12:01:16.000Z</time>
      </trkpt>
      <trkpt lat="49.39002" lon="-1.02718">
        <ele>17.322633</ele>
        <time>2022-08-02T12:01:17.000Z</time>
      </trkpt>
      <trkpt lat="49.39007" lon="-1.02712">
        <ele>17.14891</ele>
        <time>2022-08-02T12:01:18.000Z</time>
      </trkpt>
      <trkpt lat="49.39013" lon="-1.02707">
        <ele>16.970734</ele>
        <time>2022-08-02T12:01:19.000Z</time>
      </trkpt>
      <trkpt lat="49.39019" lon="-1.02702">
        <ele>16.777974</ele>
        <time>2022-08-02T12:01:20.000Z</time>
      </trkpt>
      <trkpt lat="49.39025" lon="-1.02697">
        <ele>16.585013</ele>
        <time>2022-08-02T12:01:21.000Z</time>
      </trkpt>
      <trkpt lat="49.39031" lon="-1.02691">
        <ele>16.371599</ele>
        <time>2022-08-02T12:01:22.000Z</time>
      </trkpt>
      <trkpt lat="49.39037" lon="-1.02686">
        <ele>16.175869</ele>
        <time>2022-08-02T12:01:23.000Z</time>
      </trkpt>
      <trkpt lat="49.39044" lon="-1.0268">
        <ele>15.967777</ele>
        <time>2022-08-02T12:01:24.000Z</time>
      </trkpt>
      <trkpt lat="49.3905" lon="-1.02674">
        <ele>15.762434</ele>
        <time>2022-08-02T12:01:25.000Z</time>
      </trkpt>
      <trkpt lat="49.39057" lon="-1.02669">
        <ele>15.557983</ele>
        <time>2022-08-02T12:01:26.000Z</time>
      </trkpt>
      <trkpt lat="49.39064" lon="-1.02663">
        <ele>15.336294</ele>
        <time>2022-08-02T12:01:27.000Z</time>
      </trkpt>
      <trkpt lat="49.3907" lon="-1.02658">
        <ele>15.132723</ele>
        <time>2022-08-02T12:01:28.000Z</time>
      </trkpt>
      <trkpt lat="49.39077" lon="-1.02653">
        <ele>14.915149</ele>
        <time>2022-08-02T12:01:29.000Z</time>
      </trkpt>
      <trkpt lat="49.39084" lon="-1.02647">
        <ele>14.712445</ele>
        <time>2022-08-02T12:01:30.000Z</time>
      </trkpt>
      <trkpt lat="49.3909" lon="-1.02642">
        <ele>14.501504</ele>
        <time>2022-08-02T12:01:31.000Z</time>
      </trkpt>
      <trkpt lat="49.39097" lon="-1.02636">
        <ele>14.305423</ele>
        <time>2022-08-02T12:01:32.000Z</time>
      </trkpt>
      <trkpt lat="49.39103" lon="-1.02631">
        <ele>14.179527</ele>
        <time>2022-08-02T12:01:33.000Z</time>
      </trkpt>
      <trkpt lat="49.3911" lon="-1.02626">
        <ele>14.04845</ele>
        <time>2022-08-02T12:01:34.000Z</time>
      </trkpt>
      <trkpt lat="49.39117" lon="-1.02621">
        <ele>13.912177</ele>
        <time>2022-08-02T12:01:35.000Z</time>
      </trkpt>
      <trkpt lat="49.39123" lon="-1.02615">
        <ele>13.789241</ele>
        <time>2022-08-02T12:01:36.000Z</time>
      </trkpt>
      <trkpt lat="49.3913" lon="-1.0261">
        <ele>13.656592</ele>
        <time>2022-08-02T12:01:37.000Z</time>
      </trkpt>
      <trkpt lat="49.39137" lon="-1.02604">
        <ele>13.523942</ele>
        <time>2022-08-02T12:01:38.000Z</time>
      </trkpt>
      <trkpt lat="49.39143" lon="-1.02599">
        <ele>13.39589</ele>
        <time>2022-08-02T12:01:39.000Z</time>
      </trkpt>
      <trkpt lat="49.39149" lon="-1.02594">
        <ele>13.268931</ele>
        <time>2022-08-02T12:01:40.000Z</time>
      </trkpt>
      <trkpt lat="49.39156" lon="-1.02588">
        <ele>13.142508</ele>
        <time>2022-08-02T12:01:41.000Z</time>
      </trkpt>
      <trkpt lat="49.39163" lon="-1.02583">
        <ele>13.010372</ele>
        <time>2022-08-02T12:01:42.000Z</time>
      </trkpt>
      <trkpt lat="49.39169" lon="-1.02578">
        <ele>12.882871</ele>
        <time>2022-08-02T12:01:43.000Z</time>
      </trkpt>
      <trkpt lat="49.39175" lon="-1.02572">
        <ele>12.76028</ele>
        <time>2022-08-02T12:01:44.000Z</time>
      </trkpt>
      <trkpt lat="49.39181" lon="-1.02566">
        <ele>12.639801</ele>
        <time>2022-08-02T12:01:45.000Z</time>
      </trkpt>
      <trkpt lat="49.39185" lon="-1.02559">
        <ele>12.527166</ele>
        <time>2022-08-02T12:01:46.000Z</time>
      </trkpt>
      <trkpt lat="49.39188" lon="-1.02551">
        <ele>12.418499</ele>
        <time>2022-08-02T12:01:47.000Z</time>
      </trkpt>
      <trkpt lat="49.39189" lon="-1.02542">
        <ele>12.319643</ele>
        <time>2022-08-02T12:01:48.000Z</time>
      </trkpt>
      <trkpt lat="49.39191" lon="-1.02534">
        <ele>12.222346</ele>
        <time>2022-08-02T12:01:49.000Z</time>
      </trkpt>
      <trkpt lat="49.39192" lon="-1.02526">
        <ele>12.129476</ele>
        <time>2022-08-02T12:01:50.000Z</time>
      </trkpt>
      <trkpt lat="49.39192" lon="-1.02518">
        <ele>12.039077</ele>
        <time>2022-08-02T12:01:51.000Z</time>
      </trkpt>
      <trkpt lat="49.39192" lon="-1.0251">
        <ele>11.950424</ele>
        <time>2022-08-02T12:01:52.000Z</time>
      </trkpt>
      <trkpt lat="49.39192" lon="-1.02503">
        <ele>11.865181</ele>
        <time>2022-08-02T12:01:53.000Z</time>
      </trkpt>
      <trkpt lat="49.39193" lon="-1.02495">
        <ele>11.776815</ele>
        <time>2022-08-02T12:01:54.000Z</time>
      </trkpt>
      <trkpt lat="49.39193" lon="-1.02487">
        <ele>11.688008</ele>
        <time>2022-08-02T12:01:55.000Z</time>
      </trkpt>
      <trkpt lat="49.39194" lon="-1.02479">
        <ele>11.597972</ele>
        <time>2022-08-02T12:01:56.000Z</time>
      </trkpt>
      <trkpt lat="49.39195" lon="-1.02471">
        <ele>11.502245</ele>
        <time>2022-08-02T12:01:57.000Z</time>
      </trkpt>
      <trkpt lat="49.39195" lon="-1.02463">
        <ele>11.407764</ele>
        <time>2022-08-02T12:01:58.000Z</time>
      </trkpt>
      <trkpt lat="49.39195" lon="-1.02454">
        <ele>11.308882</ele>
        <time>2022-08-02T12:01:59.000Z</time>
      </trkpt>
      <trkpt lat="49.39195" lon="-1.02445">
        <ele>11.208726</ele>
        <time>2022-08-02T12:02:00.000Z</time>
      </trkpt>
      <trkpt lat="49.39195" lon="-1.02436">
        <ele>11.166932</ele>
        <time>2022-08-02T12:02:01.000Z</time>
      </trkpt>
      <trkpt lat="49.39196" lon="-1.02427">
        <ele>11.134698</ele>
        <time>2022-08-02T12:02:02.000Z</time>
      </trkpt>
      <trkpt lat="49.39197" lon="-1.02418">
        <ele>11.102541</ele>
        <time>2022-08-02T12:02:03.000Z</time>
      </trkpt>
      <trkpt lat="49.39197" lon="-1.0241">
        <ele>11.071331</ele>
        <time>2022-08-02T12:02:04.000Z</time>
      </trkpt>
      <trkpt lat="49.39199" lon="-1.02401">
        <ele>11.03871</ele>
        <time>2022-08-02T12:02:05.000Z</time>
      </trkpt>
      <trkpt lat="49.39201" lon="-1.02393">
        <ele>11.006962</ele>
        <time>2022-08-02T12:02:06.000Z</time>
      </trkpt>
      <trkpt lat="49.39204" lon="-1.02385">
        <ele>10.974235</ele>
        <time>2022-08-02T12:02:07.000Z</time>
      </trkpt>
      <trkpt lat="49.39207" lon="-1.02377">
        <ele>10.941574</ele>
        <time>2022-08-02T12:02:08.000Z</time>
      </trkpt>
      <trkpt lat="49.3921" lon="-1.0237">
        <ele>10.907685</ele>
        <time>2022-08-02T12:02:09.000Z</time>
      </trkpt>
      <trkpt lat="49.39213" lon="-1.02362">
        <ele>10.874644</ele>
        <time>2022-08-02T12:02:10.000Z</time>
      </trkpt>
      <trkpt lat="49.39216" lon="-1.02355">
        <ele>10.846208</ele>
        <time>2022-08-02T12:02:11.000Z</time>
      </trkpt>
      <trkpt lat="49.39219" lon="-1.02347">
        <ele>10.813167</ele>
        <time>2022-08-02T12:02:12.000Z</time>
      </trkpt>
      <trkpt lat="49.39223" lon="-1.02337">
        <ele>10.771433</ele>
        <time>2022-08-02T12:02:13.000Z</time>
      </trkpt>
      <trkpt lat="49.39226" lon="-1.02329">
        <ele>10.737551</ele>
        <time>2022-08-02T12:02:14.000Z</time>
      </trkpt>
      <trkpt lat="49.39229" lon="-1.02321">
        <ele>10.703361</ele>
        <time>2022-08-02T12:02:15.000Z</time>
      </trkpt>
      <trkpt lat="49.39233" lon="-1.02313">
        <ele>10.668267</ele>
        <time>2022-08-02T12:02:16.000Z</time>
      </trkpt>
      <trkpt lat="49.39237" lon="-1.02305">
        <ele>10.633486</ele>
        <time>2022-08-02T12:02:17.000Z</time>
      </trkpt>
      <trkpt lat="49.39239" lon="-1.02299">
        <ele>10.607169</ele>
        <time>2022-08-02T12:02:18.000Z</time>
      </trkpt>
      <trkpt lat="49.39243" lon="-1.0229">
        <ele>10.56725</ele>
        <time>2022-08-02T12:02:19.000Z</time>
      </trkpt>
      <trkpt lat="49.39246" lon="-1.02282">
        <ele>10.534891</ele>
        <time>2022-08-02T12:02:20.000Z</time>
      </trkpt>
      <trkpt lat="49.39249" lon="-1.02275">
        <ele>10.501927</ele>
        <time>2022-08-02T12:02:21.000Z</time>
      </trkpt>
      <trkpt lat="49.39253" lon="-1.02267">
        <ele>10.468657</ele>
        <time>2022-08-02T12:02:22.000Z</time>
      </trkpt>
      <trkpt lat="49.39256" lon="-1.02259">
        <ele>10.434776</ele>
        <time>2022-08-02T12:02:23.000Z</time>
      </trkpt>
      <trkpt lat="49.39258" lon="-1.02251">
        <ele>10.402102</ele>
        <time>2022-08-02T12:02:24.000Z</time>
      </trkpt>
      <trkpt lat="49.39261" lon="-1.02243">
        <ele>10.369061</ele>
        <time>2022-08-02T12:02:25.000Z</time>
      </trkpt>
      <trkpt lat="49.39264" lon="-1.02235">
        <ele>10.335179</ele>
        <time>2022-08-02T12:02:26.000Z</time>
      </trkpt>
      <trkpt lat="49.39267" lon="-1.02226">
        <ele>10.301505</ele>
        <time>2022-08-02T12:02:27.000Z</time>
      </trkpt>
      <trkpt lat="49.3927" lon="-1.02218">
        <ele>10.267514</ele>
        <time>2022-08-02T12:02:28.000Z</time>
      </trkpt>
      <trkpt lat="49.39272" lon="-1.0221">
        <ele>10.235177</ele>
        <time>2022-08-02T12:02:29.000Z</time>
      </trkpt>
      <trkpt lat="49.39275" lon="-1.02201">
        <ele>10.200634</ele>
        <time>2022-08-02T12:02:30.000Z</time>
      </trkpt>
      <trkpt lat="49.39278" lon="-1.02192">
        <ele>10.17593</ele>
        <time>2022-08-02T12:02:31.000Z</time>
      </trkpt>
      <trkpt lat="49.39281" lon="-1.02183">
        <ele>10.152636</ele>
        <time>2022-08-02T12:02:32.000Z</time>
      </trkpt>
      <trkpt lat="49.39284" lon="-1.02174">
        <ele>10.128087</ele>
        <time>2022-08-02T12:02:33.000Z</time>
      </trkpt>
      <trkpt lat="49.39286" lon="-1.02165">
        <ele>10.103959</ele>
        <time>2022-08-02T12:02:34.000Z</time>
      </trkpt>
      <trkpt lat="49.39288" lon="-1.02155">
        <ele>10.079281</ele>
        <time>2022-08-02T12:02:35.000Z</time>
      </trkpt>
      <trkpt lat="49.3929" lon="-1.02145">
        <ele>10.055167</ele>
        <time>2022-08-02T12:02:36.000Z</time>
      </trkpt>
      <trkpt lat="49.39292" lon="-1.02135">
        <ele>10.031053</ele>
        <time>2022-08-02T12:02:37.000Z</time>
      </trkpt>
      <trkpt lat="49.39294" lon="-1.02126">
        <ele>10.006605</ele>
        <time>2022-08-02T12:02:38.000Z</time>
      </trkpt>
      <trkpt lat="49.39296" lon="-1.02116">
        <ele>9.982491</ele>
        <time>2022-08-02T12:02:39.000Z</time>
      </trkpt>
      <trkpt lat="49.39298" lon="-1.02107">
        <ele>9.959287</ele>
        <time>2022-08-02T12:02:40.000Z</time>
      </trkpt>
      <trkpt lat="49.393" lon="-1.02098">
        <ele>9.937216</ele>
        <time>2022-08-02T12:02:41.000Z</time>
      </trkpt>
      <trkpt lat="49.39302" lon="-1.0209">
        <ele>9.915503</ele>
        <time>2022-08-02T12:02:42.000Z</time>
      </trkpt>
      <trkpt lat="49.39306" lon="-1.02083">
        <ele>9.89449</ele>
        <time>2022-08-02T12:02:43.000Z</time>
      </trkpt>
      <trkpt lat="49.39309" lon="-1.02077">
        <ele>9.875067</ele>
        <time>2022-08-02T12:02:44.000Z</time>
      </trkpt>
      <trkpt lat="49.39314" lon="-1.02073">
        <ele>9.856607</ele>
        <time>2022-08-02T12:02:45.000Z</time>
      </trkpt>
      <trkpt lat="49.39317" lon="-1.0207">
        <ele>9.841193</ele>
        <time>2022-08-02T12:02:46.000Z</time>
      </trkpt>
      <trkpt lat="49.39321" lon="-1.02068">
        <ele>9.828558</ele>
        <time>2022-08-02T12:02:47.000Z</time>
      </trkpt>
      <trkpt lat="49.39324" lon="-1.02066">
        <ele>9.814916</ele>
        <time>2022-08-02T12:02:48.000Z</time>
      </trkpt>
      <trkpt lat="49.39328" lon="-1.02065">
        <ele>9.800815</ele>
        <time>2022-08-02T12:02:49.000Z</time>
      </trkpt>
      <trkpt lat="49.39332" lon="-1.02064">
        <ele>9.787795</ele>
        <time>2022-08-02T12:02:50.000Z</time>
      </trkpt>
      <trkpt lat="49.39335" lon="-1.02063">
        <ele>9.775748</ele>
        <time>2022-08-02T12:02:51.000Z</time>
      </trkpt>
      <trkpt lat="49.39338" lon="-1.02062">
        <ele>9.764971</ele>
        <time>2022-08-02T12:02:52.000Z</time>
      </trkpt>
      <trkpt lat="49.3934" lon="-1.02062">
        <ele>9.757957</ele>
        <time>2022-08-02T12:02:53.000Z</time>
      </trkpt>
      <trkpt lat="49.39341" lon="-1.02062">
        <ele>9.750992</ele>
        <time>2022-08-02T12:02:54.000Z</time>
      </trkpt>
      <trkpt lat="49.39344" lon="-1.02063">
        <ele>9.741408</ele>
        <time>2022-08-02T12:02:56.000Z</time>
      </trkpt>
      <trkpt lat="49.39346" lon="-1.0206">
        <ele>9.73065</ele>
        <time>2022-08-02T12:02:58.000Z</time>
      </trkpt>
      <trkpt lat="49.39346" lon="-1.02054">
        <ele>9.718272</ele>
        <time>2022-08-02T12:03:00.000Z</time>
      </trkpt>
      <trkpt lat="49.39345" lon="-1.02049">
        <ele>9.705008</ele>
        <time>2022-08-02T12:03:02.000Z</time>
      </trkpt>
      <trkpt lat="49.39344" lon="-1.02047">
        <ele>9.698253</ele>
        <time>2022-08-02T12:03:03.000Z</time>
      </trkpt>
      <trkpt lat="49.39344" lon="-1.02044">
        <ele>9.691112</ele>
        <time>2022-08-02T12:03:04.000Z</time>
      </trkpt>
      <trkpt lat="49.39344" lon="-1.0204">
        <ele>9.683256</ele>
        <time>2022-08-02T12:03:05.000Z</time>
      </trkpt>
      <trkpt lat="49.39345" lon="-1.02037">
        <ele>9.673719</ele>
        <time>2022-08-02T12:03:06.000Z</time>
      </trkpt>
      <trkpt lat="49.39346" lon="-1.02033">
        <ele>9.664844</ele>
        <time>2022-08-02T12:03:07.000Z</time>
      </trkpt>
      <trkpt lat="49.39346" lon="-1.02029">
        <ele>9.655022</ele>
        <time>2022-08-02T12:03:08.000Z</time>
      </trkpt>
      <trkpt lat="49.39346" lon="-1.02024">
        <ele>9.64431</ele>
        <time>2022-08-02T12:03:09.000Z</time>
      </trkpt>
      <trkpt lat="49.39345" lon="-1.0202">
        <ele>9.632909</ele>
        <time>2022-08-02T12:03:10.000Z</time>
      </trkpt>
      <trkpt lat="49.39345" lon="-1.02015">
        <ele>9.621482</ele>
        <time>2022-08-02T12:03:11.000Z</time>
      </trkpt>
      <trkpt lat="49.39345" lon="-1.0201">
        <ele>9.608842</ele>
        <time>2022-08-02T12:03:12.000Z</time>
      </trkpt>
      <trkpt lat="49.39345" lon="-1.02004">
        <ele>9.596225</ele>
        <time>2022-08-02T12:03:13.000Z</time>
      </trkpt>
      <trkpt lat="49.39344" lon="-1.01999">
        <ele>9.583087</ele>
        <time>2022-08-02T12:03:14.000Z</time>
      </trkpt>
      <trkpt lat="49.39344" lon="-1.01993">
        <ele>9.570232</ele>
        <time>2022-08-02T12:03:15.000Z</time>
      </trkpt>
      <trkpt lat="49.39344" lon="-1.01988">
        <ele>9.556382</ele>
        <time>2022-08-02T12:03:16.000Z</time>
      </trkpt>
      <trkpt lat="49.39344" lon="-1.01982">
        <ele>9.542575</ele>
        <time>2022-08-02T12:03:17.000Z</time>
      </trkpt>
      <trkpt lat="49.39344" lon="-1.01976">
        <ele>9.664685</ele>
        <time>2022-08-02T12:03:18.000Z</time>
      </trkpt>
      <trkpt lat="49.39343" lon="-1.0197">
        <ele>9.818338</ele>
        <time>2022-08-02T12:03:19.000Z</time>
      </trkpt>
      <trkpt lat="49.39343" lon="-1.01964">
        <ele>9.972341</ele>
        <time>2022-08-02T12:03:20.000Z</time>
      </trkpt>
      <trkpt lat="49.39342" lon="-1.01958">
        <ele>10.122295</ele>
        <time>2022-08-02T12:03:21.000Z</time>
      </trkpt>
      <trkpt lat="49.39342" lon="-1.01952">
        <ele>10.283157</ele>
        <time>2022-08-02T12:03:22.000Z</time>
      </trkpt>
      <trkpt lat="49.39342" lon="-1.01946">
        <ele>10.433805</ele>
        <time>2022-08-02T12:03:23.000Z</time>
      </trkpt>
      <trkpt lat="49.39342" lon="-1.0194">
        <ele>10.577277</ele>
        <time>2022-08-02T12:03:24.000Z</time>
      </trkpt>
      <trkpt lat="49.39342" lon="-1.01936">
        <ele>10.692779</ele>
        <time>2022-08-02T12:03:25.000Z</time>
      </trkpt>
      <trkpt lat="49.39341" lon="-1.01932">
        <ele>10.781</ele>
        <time>2022-08-02T12:03:26.000Z</time>
      </trkpt>
      <trkpt lat="49.39339" lon="-1.01922">
        <ele>11.050528</ele>
        <time>2022-08-02T12:04:17.000Z</time>
      </trkpt>
      <trkpt lat="49.39338" lon="-1.01918">
        <ele>11.17624</ele>
        <time>2022-08-02T12:04:18.000Z</time>
      </trkpt>
      <trkpt lat="49.39337" lon="-1.01913">
        <ele>11.3136</ele>
        <time>2022-08-02T12:04:19.000Z</time>
      </trkpt>
      <trkpt lat="49.39336" lon="-1.01907">
        <ele>11.464336</ele>
        <time>2022-08-02T12:04:20.000Z</time>
      </trkpt>
      <trkpt lat="49.39337" lon="-1.01901">
        <ele>11.617989</ele>
        <time>2022-08-02T12:04:21.000Z</time>
      </trkpt>
      <trkpt lat="49.39337" lon="-1.01895">
        <ele>11.773744</ele>
        <time>2022-08-02T12:04:22.000Z</time>
      </trkpt>
      <trkpt lat="49.39337" lon="-1.01888">
        <ele>11.939451</ele>
        <time>2022-08-02T12:04:23.000Z</time>
      </trkpt>
      <trkpt lat="49.39338" lon="-1.01882">
        <ele>12.105836</ele>
        <time>2022-08-02T12:04:24.000Z</time>
      </trkpt>
      <trkpt lat="49.39338" lon="-1.01876">
        <ele>12.249308</ele>
        <time>2022-08-02T12:04:25.000Z</time>
      </trkpt>
      <trkpt lat="49.39338" lon="-1.01871">
        <ele>12.395325</ele>
        <time>2022-08-02T12:04:26.000Z</time>
      </trkpt>
      <trkpt lat="49.39339" lon="-1.01865">
        <ele>12.536634</ele>
        <time>2022-08-02T12:04:27.000Z</time>
      </trkpt>
      <trkpt lat="49.39339" lon="-1.0186">
        <ele>12.677069</ele>
        <time>2022-08-02T12:04:28.000Z</time>
      </trkpt>
      <trkpt lat="49.39339" lon="-1.01854">
        <ele>12.812397</ele>
        <time>2022-08-02T12:04:29.000Z</time>
      </trkpt>
      <trkpt lat="49.39339" lon="-1.01849">
        <ele>12.950278</ele>
        <time>2022-08-02T12:04:30.000Z</time>
      </trkpt>
      <trkpt lat="49.39338" lon="-1.01843">
        <ele>13.091587</ele>
        <time>2022-08-02T12:04:31.000Z</time>
      </trkpt>
      <trkpt lat="49.39337" lon="-1.01838">
        <ele>13.231446</ele>
        <time>2022-08-02T12:04:32.000Z</time>
      </trkpt>
      <trkpt lat="49.39336" lon="-1.01833">
        <ele>13.366878</ele>
        <time>2022-08-02T12:04:33.000Z</time>
      </trkpt>
      <trkpt lat="49.39333" lon="-1.01829">
        <ele>13.505084</ele>
        <time>2022-08-02T12:04:34.000Z</time>
      </trkpt>
      <trkpt lat="49.39331" lon="-1.01826">
        <ele>13.649969</ele>
        <time>2022-08-02T12:04:35.000Z</time>
      </trkpt>
      <trkpt lat="49.39328" lon="-1.01822">
        <ele>13.78558</ele>
        <time>2022-08-02T12:04:36.000Z</time>
      </trkpt>
      <trkpt lat="49.39325" lon="-1.01818">
        <ele>13.92461</ele>
        <time>2022-08-02T12:04:37.000Z</time>
      </trkpt>
      <trkpt lat="49.39323" lon="-1.01814">
        <ele>14.060288</ele>
        <time>2022-08-02T12:04:38.000Z</time>
      </trkpt>
      <trkpt lat="49.39322" lon="-1.0181">
        <ele>14.19572</ele>
        <time>2022-08-02T12:04:39.000Z</time>
      </trkpt>
      <trkpt lat="49.3932" lon="-1.01804">
        <ele>14.34034</ele>
        <time>2022-08-02T12:04:40.000Z</time>
      </trkpt>
      <trkpt lat="49.3932" lon="-1.01799">
        <ele>14.481268</ele>
        <time>2022-08-02T12:04:41.000Z</time>
      </trkpt>
      <trkpt lat="49.3932" lon="-1.01793">
        <ele>14.622195</ele>
        <time>2022-08-02T12:04:42.000Z</time>
      </trkpt>
      <trkpt lat="49.39319" lon="-1.01788">
        <ele>14.763123</ele>
        <time>2022-08-02T12:04:43.000Z</time>
      </trkpt>
      <trkpt lat="49.39319" lon="-1.01782">
        <ele>14.901005</ele>
        <time>2022-08-02T12:04:44.000Z</time>
      </trkpt>
      <trkpt lat="49.39319" lon="-1.01777">
        <ele>15.031227</ele>
        <time>2022-08-02T12:04:45.000Z</time>
      </trkpt>
      <trkpt lat="49.3932" lon="-1.01772">
        <ele>15.159437</ele>
        <time>2022-08-02T12:04:46.000Z</time>
      </trkpt>
      <trkpt lat="49.3932" lon="-1.01767">
        <ele>15.287647</ele>
        <time>2022-08-02T12:04:47.000Z</time>
      </trkpt>
      <trkpt lat="49.3932" lon="-1.01762">
        <ele>15.420423</ele>
        <time>2022-08-02T12:04:48.000Z</time>
      </trkpt>
      <trkpt lat="49.3932" lon="-1.01757">
        <ele>15.556262</ele>
        <time>2022-08-02T12:04:49.000Z</time>
      </trkpt>
      <trkpt lat="49.39321" lon="-1.01751">
        <ele>15.69719</ele>
        <time>2022-08-02T12:04:50.000Z</time>
      </trkpt>
      <trkpt lat="49.39321" lon="-1.01746">
        <ele>15.840285</ele>
        <time>2022-08-02T12:04:51.000Z</time>
      </trkpt>
      <trkpt lat="49.39321" lon="-1.0174">
        <ele>15.985827</ele>
        <time>2022-08-02T12:04:52.000Z</time>
      </trkpt>
      <trkpt lat="49.39322" lon="-1.01734">
        <ele>16.131845</ele>
        <time>2022-08-02T12:04:53.000Z</time>
      </trkpt>
      <trkpt lat="49.39322" lon="-1.01729">
        <ele>16.27994</ele>
        <time>2022-08-02T12:04:54.000Z</time>
      </trkpt>
      <trkpt lat="49.39322" lon="-1.01723">
        <ele>16.43494</ele>
        <time>2022-08-02T12:04:55.000Z</time>
      </trkpt>
      <trkpt lat="49.39322" lon="-1.01716">
        <ele>16.593249</ele>
        <time>2022-08-02T12:04:56.000Z</time>
      </trkpt>
      <trkpt lat="49.39323" lon="-1.0171">
        <ele>16.654786</ele>
        <time>2022-08-02T12:04:57.000Z</time>
      </trkpt>
      <trkpt lat="49.39323" lon="-1.01704">
        <ele>16.714769</ele>
        <time>2022-08-02T12:04:58.000Z</time>
      </trkpt>
      <trkpt lat="49.39324" lon="-1.01697">
        <ele>16.776618</ele>
        <time>2022-08-02T12:04:59.000Z</time>
      </trkpt>
      <trkpt lat="49.39324" lon="-1.01691">
        <ele>16.837188</ele>
        <time>2022-08-02T12:05:00.000Z</time>
      </trkpt>
      <trkpt lat="49.39325" lon="-1.01685">
        <ele>16.895308</ele>
        <time>2022-08-02T12:05:01.000Z</time>
      </trkpt>
      <trkpt lat="49.39326" lon="-1.01679">
        <ele>16.952745</ele>
        <time>2022-08-02T12:05:02.000Z</time>
      </trkpt>
      <trkpt lat="49.39326" lon="-1.01673">
        <ele>17.009436</ele>
        <time>2022-08-02T12:05:03.000Z</time>
      </trkpt>
      <trkpt lat="49.39326" lon="-1.01667">
        <ele>17.062371</ele>
        <time>2022-08-02T12:05:04.000Z</time>
      </trkpt>
      <trkpt lat="49.39327" lon="-1.01662">
        <ele>17.116169</ele>
        <time>2022-08-02T12:05:05.000Z</time>
      </trkpt>
      <trkpt lat="49.39328" lon="-1.01656">
        <ele>17.167227</ele>
        <time>2022-08-02T12:05:06.000Z</time>
      </trkpt>
      <trkpt lat="49.39328" lon="-1.01651">
        <ele>17.215469</ele>
        <time>2022-08-02T12:05:07.000Z</time>
      </trkpt>
      <trkpt lat="49.39329" lon="-1.01646">
        <ele>17.263367</ele>
        <time>2022-08-02T12:05:08.000Z</time>
      </trkpt>
      <trkpt lat="49.39329" lon="-1.01641">
        <ele>17.313392</ele>
        <time>2022-08-02T12:05:09.000Z</time>
      </trkpt>
      <trkpt lat="49.3933" lon="-1.01636">
        <ele>17.363144</ele>
        <time>2022-08-02T12:05:10.000Z</time>
      </trkpt>
      <trkpt lat="49.3933" lon="-1.01631">
        <ele>17.410448</ele>
        <time>2022-08-02T12:05:11.000Z</time>
      </trkpt>
      <trkpt lat="49.39331" lon="-1.01626">
        <ele>17.458842</ele>
        <time>2022-08-02T12:05:12.000Z</time>
      </trkpt>
      <trkpt lat="49.39331" lon="-1.01621">
        <ele>17.503963</ele>
        <time>2022-08-02T12:05:13.000Z</time>
      </trkpt>
      <trkpt lat="49.39332" lon="-1.01617">
        <ele>17.544473</ele>
        <time>2022-08-02T12:05:14.000Z</time>
      </trkpt>
      <trkpt lat="49.39332" lon="-1.01613">
        <ele>17.582598</ele>
        <time>2022-08-02T12:05:15.000Z</time>
      </trkpt>
      <trkpt lat="49.39333" lon="-1.01609">
        <ele>17.623361</ele>
        <time>2022-08-02T12:05:16.000Z</time>
      </trkpt>
      <trkpt lat="49.39334" lon="-1.01604">
        <ele>17.666033</ele>
        <time>2022-08-02T12:05:17.000Z</time>
      </trkpt>
      <trkpt lat="49.39334" lon="-1.016">
        <ele>17.709307</ele>
        <time>2022-08-02T12:05:18.000Z</time>
      </trkpt>
      <trkpt lat="49.39335" lon="-1.01595">
        <ele>17.754996</ele>
        <time>2022-08-02T12:05:19.000Z</time>
      </trkpt>
      <trkpt lat="49.39336" lon="-1.0159">
        <ele>17.802961</ele>
        <time>2022-08-02T12:05:20.000Z</time>
      </trkpt>
      <trkpt lat="49.39338" lon="-1.01585">
        <ele>17.853684</ele>
        <time>2022-08-02T12:05:21.000Z</time>
      </trkpt>
      <trkpt lat="49.39339" lon="-1.0158">
        <ele>17.906174</ele>
        <time>2022-08-02T12:05:22.000Z</time>
      </trkpt>
      <trkpt lat="49.39341" lon="-1.01575">
        <ele>17.961534</ele>
        <time>2022-08-02T12:05:23.000Z</time>
      </trkpt>
      <trkpt lat="49.39343" lon="-1.0157">
        <ele>18.017713</ele>
        <time>2022-08-02T12:05:24.000Z</time>
      </trkpt>
      <trkpt lat="49.39345" lon="-1.01565">
        <ele>18.076943</ele>
        <time>2022-08-02T12:05:25.000Z</time>
      </trkpt>
      <trkpt lat="49.39348" lon="-1.01559">
        <ele>18.13776</ele>
        <time>2022-08-02T12:05:26.000Z</time>
      </trkpt>
      <trkpt lat="49.3935" lon="-1.01554">
        <ele>18.199348</ele>
        <time>2022-08-02T12:05:27.000Z</time>
      </trkpt>
      <trkpt lat="49.39352" lon="-1.01549">
        <ele>18.258746</ele>
        <time>2022-08-02T12:05:28.000Z</time>
      </trkpt>
      <trkpt lat="49.39355" lon="-1.01544">
        <ele>18.321839</ele>
        <time>2022-08-02T12:05:29.000Z</time>
      </trkpt>
      <trkpt lat="49.39358" lon="-1.01539">
        <ele>18.382131</ele>
        <time>2022-08-02T12:05:30.000Z</time>
      </trkpt>
      <trkpt lat="49.3936" lon="-1.01534">
        <ele>18.438988</ele>
        <time>2022-08-02T12:05:31.000Z</time>
      </trkpt>
      <trkpt lat="49.39362" lon="-1.01529">
        <ele>18.492765</ele>
        <time>2022-08-02T12:05:32.000Z</time>
      </trkpt>
      <trkpt lat="49.39365" lon="-1.01525">
        <ele>18.548162</ele>
        <time>2022-08-02T12:05:33.000Z</time>
      </trkpt>
      <trkpt lat="49.39367" lon="-1.0152">
        <ele>18.605345</ele>
        <time>2022-08-02T12:05:34.000Z</time>
      </trkpt>
      <trkpt lat="49.39369" lon="-1.01515">
        <ele>18.65746</ele>
        <time>2022-08-02T12:05:35.000Z</time>
      </trkpt>
      <trkpt lat="49.3937" lon="-1.0151">
        <ele>18.707664</ele>
        <time>2022-08-02T12:05:36.000Z</time>
      </trkpt>
      <trkpt lat="49.39372" lon="-1.01505">
        <ele>18.757514</ele>
        <time>2022-08-02T12:05:37.000Z</time>
      </trkpt>
      <trkpt lat="49.39373" lon="-1.01501">
        <ele>18.808319</ele>
        <time>2022-08-02T12:05:38.000Z</time>
      </trkpt>
      <trkpt lat="49.39374" lon="-1.01496">
        <ele>18.854902</ele>
        <time>2022-08-02T12:05:39.000Z</time>
      </trkpt>
      <trkpt lat="49.39376" lon="-1.01491">
        <ele>18.904038</ele>
        <time>2022-08-02T12:05:40.000Z</time>
      </trkpt>
      <trkpt lat="49.39377" lon="-1.01487">
        <ele>18.94956</ele>
        <time>2022-08-02T12:05:41.000Z</time>
      </trkpt>
      <trkpt lat="49.39378" lon="-1.01482">
        <ele>18.993909</ele>
        <time>2022-08-02T12:05:42.000Z</time>
      </trkpt>
      <trkpt lat="49.39379" lon="-1.01478">
        <ele>19.036927</ele>
        <time>2022-08-02T12:05:43.000Z</time>
      </trkpt>
      <trkpt lat="49.3938" lon="-1.01474">
        <ele>19.077436</ele>
        <time>2022-08-02T12:05:44.000Z</time>
      </trkpt>
      <trkpt lat="49.3938" lon="-1.0147">
        <ele>19.112832</ele>
        <time>2022-08-02T12:05:45.000Z</time>
      </trkpt>
      <trkpt lat="49.39381" lon="-1.01467">
        <ele>19.145672</ele>
        <time>2022-08-02T12:05:46.000Z</time>
      </trkpt>
      <trkpt lat="49.39382" lon="-1.01464">
        <ele>19.175696</ele>
        <time>2022-08-02T12:05:47.000Z</time>
      </trkpt>
      <trkpt lat="49.39382" lon="-1.01461">
        <ele>19.200992</ele>
        <time>2022-08-02T12:05:48.000Z</time>
      </trkpt>
      <trkpt lat="49.39383" lon="-1.01458">
        <ele>19.211674</ele>
        <time>2022-08-02T12:05:49.000Z</time>
      </trkpt>
      <trkpt lat="49.39384" lon="-1.01455">
        <ele>19.2222</ele>
        <time>2022-08-02T12:05:50.000Z</time>
      </trkpt>
      <trkpt lat="49.39384" lon="-1.01452">
        <ele>19.231757</ele>
        <time>2022-08-02T12:05:51.000Z</time>
      </trkpt>
      <trkpt lat="49.39386" lon="-1.01447">
        <ele>19.250802</ele>
        <time>2022-08-02T12:05:53.000Z</time>
      </trkpt>
      <trkpt lat="49.39386" lon="-1.01443">
        <ele>19.262292</ele>
        <time>2022-08-02T12:05:55.000Z</time>
      </trkpt>
      <trkpt lat="49.39384" lon="-1.01453">
        <ele>19.29423</ele>
        <time>2022-08-02T12:06:08.000Z</time>
      </trkpt>
      <trkpt lat="49.39383" lon="-1.01457">
        <ele>19.307086</ele>
        <time>2022-08-02T12:06:09.000Z</time>
      </trkpt>
      <trkpt lat="49.39382" lon="-1.01461">
        <ele>19.32311</ele>
        <time>2022-08-02T12:06:10.000Z</time>
      </trkpt>
      <trkpt lat="49.39381" lon="-1.01467">
        <ele>19.342155</ele>
        <time>2022-08-02T12:06:11.000Z</time>
      </trkpt>
      <trkpt lat="49.3938" lon="-1.01473">
        <ele>19.362736</ele>
        <time>2022-08-02T12:06:12.000Z</time>
      </trkpt>
      <trkpt lat="49.39378" lon="-1.01479">
        <ele>19.384747</ele>
        <time>2022-08-02T12:06:13.000Z</time>
      </trkpt>
      <trkpt lat="49.39376" lon="-1.01485">
        <ele>19.405851</ele>
        <time>2022-08-02T12:06:14.000Z</time>
      </trkpt>
      <trkpt lat="49.39375" lon="-1.01491">
        <ele>19.426124</ele>
        <time>2022-08-02T12:06:15.000Z</time>
      </trkpt>
      <trkpt lat="49.39374" lon="-1.01496">
        <ele>19.443469</ele>
        <time>2022-08-02T12:06:16.000Z</time>
      </trkpt>
      <trkpt lat="49.39372" lon="-1.015">
        <ele>19.459589</ele>
        <time>2022-08-02T12:06:17.000Z</time>
      </trkpt>
      <trkpt lat="49.39372" lon="-1.01504">
        <ele>19.473071</ele>
        <time>2022-08-02T12:06:18.000Z</time>
      </trkpt>
      <trkpt lat="49.39371" lon="-1.01508">
        <ele>19.484851</ele>
        <time>2022-08-02T12:06:19.000Z</time>
      </trkpt>
      <trkpt lat="49.3937" lon="-1.01511">
        <ele>19.497291</ele>
        <time>2022-08-02T12:06:21.000Z</time>
      </trkpt>
      <trkpt lat="49.39374" lon="-1.01501">
        <ele>19.536575</ele>
        <time>2022-08-02T12:06:30.000Z</time>
      </trkpt>
      <trkpt lat="49.39375" lon="-1.01498">
        <ele>19.548221</ele>
        <time>2022-08-02T12:06:32.000Z</time>
      </trkpt>
      <trkpt lat="49.39377" lon="-1.01488">
        <ele>19.58121</ele>
        <time>2022-08-02T12:06:41.000Z</time>
      </trkpt>
      <trkpt lat="49.39378" lon="-1.01484">
        <ele>19.596532</ele>
        <time>2022-08-02T12:06:42.000Z</time>
      </trkpt>
      <trkpt lat="49.3938" lon="-1.01479">
        <ele>19.613221</ele>
        <time>2022-08-02T12:06:43.000Z</time>
      </trkpt>
      <trkpt lat="49.39381" lon="-1.01475">
        <ele>19.628653</ele>
        <time>2022-08-02T12:06:44.000Z</time>
      </trkpt>
      <trkpt lat="49.39382" lon="-1.0147">
        <ele>19.645366</ele>
        <time>2022-08-02T12:06:45.000Z</time>
      </trkpt>
      <trkpt lat="49.39383" lon="-1.01465">
        <ele>19.66289</ele>
        <time>2022-08-02T12:06:46.000Z</time>
      </trkpt>
      <trkpt lat="49.39385" lon="-1.0146">
        <ele>19.681906</ele>
        <time>2022-08-02T12:06:47.000Z</time>
      </trkpt>
      <trkpt lat="49.39386" lon="-1.01454">
        <ele>19.699418</ele>
        <time>2022-08-02T12:06:48.000Z</time>
      </trkpt>
      <trkpt lat="49.39387" lon="-1.0145">
        <ele>19.716339</ele>
        <time>2022-08-02T12:06:49.000Z</time>
      </trkpt>
      <trkpt lat="49.39388" lon="-1.01445">
        <ele>19.731816</ele>
        <time>2022-08-02T12:06:50.000Z</time>
      </trkpt>
      <trkpt lat="49.39389" lon="-1.01442">
        <ele>19.742967</ele>
        <time>2022-08-02T12:06:51.000Z</time>
      </trkpt>
      <trkpt lat="49.39391" lon="-1.01431">
        <ele>19.781669</ele>
        <time>2022-08-02T12:07:20.000Z</time>
      </trkpt>
      <trkpt lat="49.39393" lon="-1.01426">
        <ele>19.799221</ele>
        <time>2022-08-02T12:07:21.000Z</time>
      </trkpt>
      <trkpt lat="49.39394" lon="-1.01421">
        <ele>19.816734</ele>
        <time>2022-08-02T12:07:22.000Z</time>
      </trkpt>
      <trkpt lat="49.39395" lon="-1.01415">
        <ele>19.834864</ele>
        <time>2022-08-02T12:07:23.000Z</time>
      </trkpt>
      <trkpt lat="49.39396" lon="-1.0141">
        <ele>19.853336</ele>
        <time>2022-08-02T12:07:24.000Z</time>
      </trkpt>
      <trkpt lat="49.39397" lon="-1.01404">
        <ele>19.872075</ele>
        <time>2022-08-02T12:07:25.000Z</time>
      </trkpt>
      <trkpt lat="49.39398" lon="-1.01399">
        <ele>19.891603</ele>
        <time>2022-08-02T12:07:26.000Z</time>
      </trkpt>
      <trkpt lat="49.39399" lon="-1.01393">
        <ele>19.911261</ele>
        <time>2022-08-02T12:07:27.000Z</time>
      </trkpt>
      <trkpt lat="49.39401" lon="-1.01388">
        <ele>19.929525</ele>
        <time>2022-08-02T12:07:28.000Z</time>
      </trkpt>
      <trkpt lat="49.39402" lon="-1.01382">
        <ele>19.948569</ele>
        <time>2022-08-02T12:07:29.000Z</time>
      </trkpt>
      <trkpt lat="49.39403" lon="-1.01377">
        <ele>19.967155</ele>
        <time>2022-08-02T12:07:30.000Z</time>
      </trkpt>
      <trkpt lat="49.39404" lon="-1.01371">
        <ele>19.985613</ele>
        <time>2022-08-02T12:07:31.000Z</time>
      </trkpt>
      <trkpt lat="49.39405" lon="-1.01366">
        <ele>20.004658</ele>
        <time>2022-08-02T12:07:32.000Z</time>
      </trkpt>
      <trkpt lat="49.39406" lon="-1.0136">
        <ele>20.024816</ele>
        <time>2022-08-02T12:07:33.000Z</time>
      </trkpt>
      <trkpt lat="49.39407" lon="-1.01354">
        <ele>20.044781</ele>
        <time>2022-08-02T12:07:34.000Z</time>
      </trkpt>
      <trkpt lat="49.39409" lon="-1.01348">
        <ele>20.065211</ele>
        <time>2022-08-02T12:07:35.000Z</time>
      </trkpt>
      <trkpt lat="49.39409" lon="-1.01342">
        <ele>20.085691</ele>
        <time>2022-08-02T12:07:36.000Z</time>
      </trkpt>
      <trkpt lat="49.39411" lon="-1.01335">
        <ele>20.112362</ele>
        <time>2022-08-02T12:07:37.000Z</time>
      </trkpt>
      <trkpt lat="49.39412" lon="-1.01329">
        <ele>20.147057</ele>
        <time>2022-08-02T12:07:38.000Z</time>
      </trkpt>
      <trkpt lat="49.39413" lon="-1.01323">
        <ele>20.183189</ele>
        <time>2022-08-02T12:07:39.000Z</time>
      </trkpt>
      <trkpt lat="49.39414" lon="-1.01317">
        <ele>20.217545</ele>
        <time>2022-08-02T12:07:40.000Z</time>
      </trkpt>
      <trkpt lat="49.39415" lon="-1.01311">
        <ele>20.253425</ele>
        <time>2022-08-02T12:07:41.000Z</time>
      </trkpt>
      <trkpt lat="49.39417" lon="-1.01305">
        <ele>20.289906</ele>
        <time>2022-08-02T12:07:42.000Z</time>
      </trkpt>
      <trkpt lat="49.39418" lon="-1.01299">
        <ele>20.325337</ele>
        <time>2022-08-02T12:07:43.000Z</time>
      </trkpt>
      <trkpt lat="49.39419" lon="-1.01292">
        <ele>20.36285</ele>
        <time>2022-08-02T12:07:44.000Z</time>
      </trkpt>
      <trkpt lat="49.3942" lon="-1.01286">
        <ele>20.398281</ele>
        <time>2022-08-02T12:07:45.000Z</time>
      </trkpt>
      <trkpt lat="49.39421" lon="-1.0128">
        <ele>20.433099</ele>
        <time>2022-08-02T12:07:46.000Z</time>
      </trkpt>
      <trkpt lat="49.39423" lon="-1.01274">
        <ele>20.468177</ele>
        <time>2022-08-02T12:07:47.000Z</time>
      </trkpt>
      <trkpt lat="49.39424" lon="-1.01268">
        <ele>20.503255</ele>
        <time>2022-08-02T12:07:48.000Z</time>
      </trkpt>
      <trkpt lat="49.39426" lon="-1.01262">
        <ele>20.538198</ele>
        <time>2022-08-02T12:07:49.000Z</time>
      </trkpt>
      <trkpt lat="49.39427" lon="-1.01256">
        <ele>20.574165</ele>
        <time>2022-08-02T12:07:50.000Z</time>
      </trkpt>
      <trkpt lat="49.39429" lon="-1.0125">
        <ele>20.612194</ele>
        <time>2022-08-02T12:07:51.000Z</time>
      </trkpt>
      <trkpt lat="49.39431" lon="-1.01244">
        <ele>20.649706</ele>
        <time>2022-08-02T12:07:52.000Z</time>
      </trkpt>
      <trkpt lat="49.39432" lon="-1.01237">
        <ele>20.686896</ele>
        <time>2022-08-02T12:07:53.000Z</time>
      </trkpt>
      <trkpt lat="49.39434" lon="-1.01231">
        <ele>20.727944</ele>
        <time>2022-08-02T12:07:54.000Z</time>
      </trkpt>
      <trkpt lat="49.39436" lon="-1.01224">
        <ele>20.768992</ele>
        <time>2022-08-02T12:07:55.000Z</time>
      </trkpt>
      <trkpt lat="49.39438" lon="-1.01217">
        <ele>20.811398</ele>
        <time>2022-08-02T12:07:56.000Z</time>
      </trkpt>
      <trkpt lat="49.3944" lon="-1.0121">
        <ele>20.854018</ele>
        <time>2022-08-02T12:07:57.000Z</time>
      </trkpt>
      <trkpt lat="49.39442" lon="-1.01203">
        <ele>20.896745</ele>
        <time>2022-08-02T12:07:58.000Z</time>
      </trkpt>
      <trkpt lat="49.39444" lon="-1.01196">
        <ele>20.937794</ele>
        <time>2022-08-02T12:07:59.000Z</time>
      </trkpt>
      <trkpt lat="49.39446" lon="-1.01189">
        <ele>20.98129</ele>
        <time>2022-08-02T12:08:00.000Z</time>
      </trkpt>
      <trkpt lat="49.39448" lon="-1.01182">
        <ele>21.026556</ele>
        <time>2022-08-02T12:08:01.000Z</time>
      </trkpt>
      <trkpt lat="49.39451" lon="-1.01175">
        <ele>21.069065</ele>
        <time>2022-08-02T12:08:02.000Z</time>
      </trkpt>
      <trkpt lat="49.39453" lon="-1.01168">
        <ele>21.113185</ele>
        <time>2022-08-02T12:08:03.000Z</time>
      </trkpt>
      <trkpt lat="49.39455" lon="-1.01161">
        <ele>21.156304</ele>
        <time>2022-08-02T12:08:04.000Z</time>
      </trkpt>
      <trkpt lat="49.39457" lon="-1.01153">
        <ele>21.201292</ele>
        <time>2022-08-02T12:08:05.000Z</time>
      </trkpt>
      <trkpt lat="49.3946" lon="-1.01146">
        <ele>21.246558</ele>
        <time>2022-08-02T12:08:06.000Z</time>
      </trkpt>
      <trkpt lat="49.39462" lon="-1.01139">
        <ele>21.293693</ele>
        <time>2022-08-02T12:08:07.000Z</time>
      </trkpt>
      <trkpt lat="49.39465" lon="-1.01131">
        <ele>21.339853</ele>
        <time>2022-08-02T12:08:08.000Z</time>
      </trkpt>
      <trkpt lat="49.39468" lon="-1.01124">
        <ele>21.387584</ele>
        <time>2022-08-02T12:08:09.000Z</time>
      </trkpt>
      <trkpt lat="49.3947" lon="-1.01116">
        <ele>21.436931</ele>
        <time>2022-08-02T12:08:10.000Z</time>
      </trkpt>
      <trkpt lat="49.39473" lon="-1.01108">
        <ele>21.484085</ele>
        <time>2022-08-02T12:08:11.000Z</time>
      </trkpt>
      <trkpt lat="49.39475" lon="-1.011">
        <ele>21.532597</ele>
        <time>2022-08-02T12:08:12.000Z</time>
      </trkpt>
      <trkpt lat="49.39477" lon="-1.01092">
        <ele>21.579751</ele>
        <time>2022-08-02T12:08:13.000Z</time>
      </trkpt>
      <trkpt lat="49.3948" lon="-1.01084">
        <ele>21.628856</ele>
        <time>2022-08-02T12:08:14.000Z</time>
      </trkpt>
      <trkpt lat="49.39482" lon="-1.01077">
        <ele>21.644097</ele>
        <time>2022-08-02T12:08:15.000Z</time>
      </trkpt>
      <trkpt lat="49.39485" lon="-1.01069">
        <ele>21.657227</ele>
        <time>2022-08-02T12:08:16.000Z</time>
      </trkpt>
      <trkpt lat="49.39487" lon="-1.01061">
        <ele>21.670125</ele>
        <time>2022-08-02T12:08:17.000Z</time>
      </trkpt>
      <trkpt lat="49.39489" lon="-1.01053">
        <ele>21.683118</ele>
        <time>2022-08-02T12:08:18.000Z</time>
      </trkpt>
      <trkpt lat="49.39491" lon="-1.01045">
        <ele>21.695896</ele>
        <time>2022-08-02T12:08:19.000Z</time>
      </trkpt>
      <trkpt lat="49.39493" lon="-1.01038">
        <ele>21.708794</ele>
        <time>2022-08-02T12:08:20.000Z</time>
      </trkpt>
      <trkpt lat="49.39495" lon="-1.0103">
        <ele>21.722063</ele>
        <time>2022-08-02T12:08:21.000Z</time>
      </trkpt>
      <trkpt lat="49.39497" lon="-1.01022">
        <ele>21.734984</ele>
        <time>2022-08-02T12:08:22.000Z</time>
      </trkpt>
      <trkpt lat="49.395" lon="-1.01014">
        <ele>21.748878</ele>
        <time>2022-08-02T12:08:23.000Z</time>
      </trkpt>
      <trkpt lat="49.39502" lon="-1.01006">
        <ele>21.761514</ele>
        <time>2022-08-02T12:08:24.000Z</time>
      </trkpt>
      <trkpt lat="49.39504" lon="-1.00998">
        <ele>21.774551</ele>
        <time>2022-08-02T12:08:25.000Z</time>
      </trkpt>
      <trkpt lat="49.39506" lon="-1.0099">
        <ele>21.787472</ele>
        <time>2022-08-02T12:08:26.000Z</time>
      </trkpt>
      <trkpt lat="49.39508" lon="-1.00982">
        <ele>21.800474</ele>
        <time>2022-08-02T12:08:27.000Z</time>
      </trkpt>
      <trkpt lat="49.3951" lon="-1.00974">
        <ele>21.813395</ele>
        <time>2022-08-02T12:08:28.000Z</time>
      </trkpt>
      <trkpt lat="49.39512" lon="-1.00966">
        <ele>21.826458</ele>
        <time>2022-08-02T12:08:29.000Z</time>
      </trkpt>
      <trkpt lat="49.39514" lon="-1.00958">
        <ele>21.839664</ele>
        <time>2022-08-02T12:08:30.000Z</time>
      </trkpt>
      <trkpt lat="49.39516" lon="-1.0095">
        <ele>21.852301</ele>
        <time>2022-08-02T12:08:31.000Z</time>
      </trkpt>
      <trkpt lat="49.39517" lon="-1.00942">
        <ele>21.864999</ele>
        <time>2022-08-02T12:08:32.000Z</time>
      </trkpt>
      <trkpt lat="49.3952" lon="-1.00934">
        <ele>21.878838</ele>
        <time>2022-08-02T12:08:33.000Z</time>
      </trkpt>
      <trkpt lat="49.39522" lon="-1.00925">
        <ele>21.892044</ele>
        <time>2022-08-02T12:08:34.000Z</time>
      </trkpt>
      <trkpt lat="49.39524" lon="-1.00917">
        <ele>21.904964</ele>
        <time>2022-08-02T12:08:35.000Z</time>
      </trkpt>
      <trkpt lat="49.39526" lon="-1.0091">
        <ele>21.917402</ele>
        <time>2022-08-02T12:08:36.000Z</time>
      </trkpt>
      <trkpt lat="49.39528" lon="-1.00902">
        <ele>21.930161</ele>
        <time>2022-08-02T12:08:37.000Z</time>
      </trkpt>
      <trkpt lat="49.3953" lon="-1.00895">
        <ele>21.942372</ele>
        <time>2022-08-02T12:08:38.000Z</time>
      </trkpt>
      <trkpt lat="49.39532" lon="-1.00887">
        <ele>21.954866</ele>
        <time>2022-08-02T12:08:39.000Z</time>
      </trkpt>
      <trkpt lat="49.39534" lon="-1.00879">
        <ele>21.967304</ele>
        <time>2022-08-02T12:08:40.000Z</time>
      </trkpt>
      <trkpt lat="49.39536" lon="-1.00872">
        <ele>21.979798</ele>
        <time>2022-08-02T12:08:41.000Z</time>
      </trkpt>
      <trkpt lat="49.39538" lon="-1.00864">
        <ele>21.992279</ele>
        <time>2022-08-02T12:08:42.000Z</time>
      </trkpt>
      <trkpt lat="49.39539" lon="-1.00857">
        <ele>22.003762</ele>
        <time>2022-08-02T12:08:43.000Z</time>
      </trkpt>
      <trkpt lat="49.39543" lon="-1.00843">
        <ele>22.0268</ele>
        <time>2022-08-02T12:08:45.000Z</time>
      </trkpt>
      <trkpt lat="49.39544" lon="-1.00836">
        <ele>22.037628</ele>
        <time>2022-08-02T12:08:46.000Z</time>
      </trkpt>
      <trkpt lat="49.39546" lon="-1.00829">
        <ele>22.047945</ele>
        <time>2022-08-02T12:08:47.000Z</time>
      </trkpt>
      <trkpt lat="49.39546" lon="-1.00823">
        <ele>22.091276</ele>
        <time>2022-08-02T12:08:48.000Z</time>
      </trkpt>
      <trkpt lat="49.39547" lon="-1.00817">
        <ele>22.153274</ele>
        <time>2022-08-02T12:08:49.000Z</time>
      </trkpt>
      <trkpt lat="49.39549" lon="-1.00812">
        <ele>22.213735</ele>
        <time>2022-08-02T12:08:50.000Z</time>
      </trkpt>
      <trkpt lat="49.3955" lon="-1.00806">
        <ele>22.274997</ele>
        <time>2022-08-02T12:08:51.000Z</time>
      </trkpt>
      <trkpt lat="49.39552" lon="-1.00801">
        <ele>22.339781</ele>
        <time>2022-08-02T12:08:52.000Z</time>
      </trkpt>
      <trkpt lat="49.39555" lon="-1.00795">
        <ele>22.408907</ele>
        <time>2022-08-02T12:08:53.000Z</time>
      </trkpt>
      <trkpt lat="49.39558" lon="-1.00789">
        <ele>22.48779</ele>
        <time>2022-08-02T12:08:54.000Z</time>
      </trkpt>
      <trkpt lat="49.39561" lon="-1.00782">
        <ele>22.568985</ele>
        <time>2022-08-02T12:08:55.000Z</time>
      </trkpt>
      <trkpt lat="49.39563" lon="-1.00775">
        <ele>22.65146</ele>
        <time>2022-08-02T12:08:56.000Z</time>
      </trkpt>
      <trkpt lat="49.39565" lon="-1.00768">
        <ele>22.733301</ele>
        <time>2022-08-02T12:08:57.000Z</time>
      </trkpt>
      <trkpt lat="49.39567" lon="-1.0076">
        <ele>22.816956</ele>
        <time>2022-08-02T12:08:58.000Z</time>
      </trkpt>
      <trkpt lat="49.3957" lon="-1.00753">
        <ele>22.900687</ele>
        <time>2022-08-02T12:08:59.000Z</time>
      </trkpt>
      <trkpt lat="49.39572" lon="-1.00745">
        <ele>22.982528</ele>
        <time>2022-08-02T12:09:00.000Z</time>
      </trkpt>
      <trkpt lat="49.39573" lon="-1.00738">
        <ele>23.05949</ele>
        <time>2022-08-02T12:09:01.000Z</time>
      </trkpt>
      <trkpt lat="49.39574" lon="-1.0073">
        <ele>23.142654</ele>
        <time>2022-08-02T12:09:02.000Z</time>
      </trkpt>
      <trkpt lat="49.39576" lon="-1.00722">
        <ele>23.230455</ele>
        <time>2022-08-02T12:09:03.000Z</time>
      </trkpt>
      <trkpt lat="49.39576" lon="-1.00714">
        <ele>23.315376</ele>
        <time>2022-08-02T12:09:04.000Z</time>
      </trkpt>
      <trkpt lat="49.39577" lon="-1.00705">
        <ele>23.400484</ele>
        <time>2022-08-02T12:09:05.000Z</time>
      </trkpt>
      <trkpt lat="49.39578" lon="-1.00697">
        <ele>23.483042</ele>
        <time>2022-08-02T12:09:06.000Z</time>
      </trkpt>
      <trkpt lat="49.39578" lon="-1.0069">
        <ele>23.559452</ele>
        <time>2022-08-02T12:09:07.000Z</time>
      </trkpt>
      <trkpt lat="49.39579" lon="-1.00683">
        <ele>23.626449</ele>
        <time>2022-08-02T12:09:08.000Z</time>
      </trkpt>
      <trkpt lat="49.3958" lon="-1.00677">
        <ele>23.688178</ele>
        <time>2022-08-02T12:09:09.000Z</time>
      </trkpt>
      <trkpt lat="49.3958" lon="-1.00671">
        <ele>23.752167</ele>
        <time>2022-08-02T12:09:10.000Z</time>
      </trkpt>
      <trkpt lat="49.39581" lon="-1.00665">
        <ele>23.816914</ele>
        <time>2022-08-02T12:09:11.000Z</time>
      </trkpt>
      <trkpt lat="49.39581" lon="-1.00658">
        <ele>23.887703</ele>
        <time>2022-08-02T12:09:12.000Z</time>
      </trkpt>
      <trkpt lat="49.39582" lon="-1.00651">
        <ele>23.960172</ele>
        <time>2022-08-02T12:09:13.000Z</time>
      </trkpt>
      <trkpt lat="49.39582" lon="-1.00643">
        <ele>24.035568</ele>
        <time>2022-08-02T12:09:14.000Z</time>
      </trkpt>
      <trkpt lat="49.39582" lon="-1.00636">
        <ele>24.109949</ele>
        <time>2022-08-02T12:09:15.000Z</time>
      </trkpt>
      <trkpt lat="49.39583" lon="-1.00629">
        <ele>24.183315</ele>
        <time>2022-08-02T12:09:16.000Z</time>
      </trkpt>
      <trkpt lat="49.39584" lon="-1.00622">
        <ele>24.259174</ele>
        <time>2022-08-02T12:09:17.000Z</time>
      </trkpt>
      <trkpt lat="49.39584" lon="-1.00614">
        <ele>24.333997</ele>
        <time>2022-08-02T12:09:18.000Z</time>
      </trkpt>
      <trkpt lat="49.39584" lon="-1.00606">
        <ele>24.414331</ele>
        <time>2022-08-02T12:09:19.000Z</time>
      </trkpt>
      <trkpt lat="49.39585" lon="-1.00599">
        <ele>24.491757</ele>
        <time>2022-08-02T12:09:20.000Z</time>
      </trkpt>
      <trkpt lat="49.39586" lon="-1.00591">
        <ele>24.571601</ele>
        <time>2022-08-02T12:09:21.000Z</time>
      </trkpt>
      <trkpt lat="49.39586" lon="-1.00584">
        <ele>24.648442</ele>
        <time>2022-08-02T12:09:22.000Z</time>
      </trkpt>
      <trkpt lat="49.39587" lon="-1.00576">
        <ele>24.724964</ele>
        <time>2022-08-02T12:09:23.000Z</time>
      </trkpt>
      <trkpt lat="49.39587" lon="-1.00569">
        <ele>24.799345</ele>
        <time>2022-08-02T12:09:24.000Z</time>
      </trkpt>
      <trkpt lat="49.39587" lon="-1.00562">
        <ele>24.872588</ele>
        <time>2022-08-02T12:09:25.000Z</time>
      </trkpt>
      <trkpt lat="49.39588" lon="-1.00555">
        <ele>24.955842</ele>
        <time>2022-08-02T12:09:26.000Z</time>
      </trkpt>
      <trkpt lat="49.39588" lon="-1.00549">
        <ele>25.03639</ele>
        <time>2022-08-02T12:09:27.000Z</time>
      </trkpt>
      <trkpt lat="49.39588" lon="-1.00542">
        <ele>25.117821</ele>
        <time>2022-08-02T12:09:28.000Z</time>
      </trkpt>
      <trkpt lat="49.39588" lon="-1.00535">
        <ele>25.205517</ele>
        <time>2022-08-02T12:09:29.000Z</time>
      </trkpt>
      <trkpt lat="49.39589" lon="-1.00528">
        <ele>25.299654</ele>
        <time>2022-08-02T12:09:30.000Z</time>
      </trkpt>
      <trkpt lat="49.39589" lon="-1.0052">
        <ele>25.400044</ele>
        <time>2022-08-02T12:09:31.000Z</time>
      </trkpt>
      <trkpt lat="49.3959" lon="-1.00511">
        <ele>25.508257</ele>
        <time>2022-08-02T12:09:32.000Z</time>
      </trkpt>
      <trkpt lat="49.3959" lon="-1.00503">
        <ele>25.619106</ele>
        <time>2022-08-02T12:09:33.000Z</time>
      </trkpt>
      <trkpt lat="49.39591" lon="-1.00494">
        <ele>25.73102</ele>
        <time>2022-08-02T12:09:34.000Z</time>
      </trkpt>
      <trkpt lat="49.39592" lon="-1.00485">
        <ele>25.840166</ele>
        <time>2022-08-02T12:09:35.000Z</time>
      </trkpt>
      <trkpt lat="49.39592" lon="-1.00477">
        <ele>25.947278</ele>
        <time>2022-08-02T12:09:36.000Z</time>
      </trkpt>
      <trkpt lat="49.39593" lon="-1.00468">
        <ele>26.050169</ele>
        <time>2022-08-02T12:09:37.000Z</time>
      </trkpt>
      <trkpt lat="49.39593" lon="-1.00461">
        <ele>26.148811</ele>
        <time>2022-08-02T12:09:38.000Z</time>
      </trkpt>
      <trkpt lat="49.39594" lon="-1.00453">
        <ele>26.242948</ele>
        <time>2022-08-02T12:09:39.000Z</time>
      </trkpt>
      <trkpt lat="49.39594" lon="-1.00446">
        <ele>26.337085</ele>
        <time>2022-08-02T12:09:40.000Z</time>
      </trkpt>
      <trkpt lat="49.39594" lon="-1.00438">
        <ele>26.434973</ele>
        <time>2022-08-02T12:09:41.000Z</time>
      </trkpt>
      <trkpt lat="49.39595" lon="-1.0043">
        <ele>26.53799</ele>
        <time>2022-08-02T12:09:42.000Z</time>
      </trkpt>
      <trkpt lat="49.39594" lon="-1.00421">
        <ele>26.642841</ele>
        <time>2022-08-02T12:09:43.000Z</time>
      </trkpt>
      <trkpt lat="49.39594" lon="-1.00413">
        <ele>26.74557</ele>
        <time>2022-08-02T12:09:44.000Z</time>
      </trkpt>
      <trkpt lat="49.39594" lon="-1.00405">
        <ele>26.849552</ele>
        <time>2022-08-02T12:09:45.000Z</time>
      </trkpt>
      <trkpt lat="49.39594" lon="-1.00396">
        <ele>26.954945</ele>
        <time>2022-08-02T12:09:46.000Z</time>
      </trkpt>
      <trkpt lat="49.39593" lon="-1.00388">
        <ele>27.058231</ele>
        <time>2022-08-02T12:09:47.000Z</time>
      </trkpt>
      <trkpt lat="49.39592" lon="-1.0038">
        <ele>27.162411</ele>
        <time>2022-08-02T12:09:48.000Z</time>
      </trkpt>
      <trkpt lat="49.39591" lon="-1.00372">
        <ele>27.262006</ele>
        <time>2022-08-02T12:09:49.000Z</time>
      </trkpt>
      <trkpt lat="49.3959" lon="-1.00365">
        <ele>27.35755</ele>
        <time>2022-08-02T12:09:50.000Z</time>
      </trkpt>
      <trkpt lat="49.39589" lon="-1.00357">
        <ele>27.453461</ele>
        <time>2022-08-02T12:09:51.000Z</time>
      </trkpt>
      <trkpt lat="49.39588" lon="-1.0035">
        <ele>27.545693</ele>
        <time>2022-08-02T12:09:52.000Z</time>
      </trkpt>
      <trkpt lat="49.39587" lon="-1.00343">
        <ele>27.638773</ele>
        <time>2022-08-02T12:09:53.000Z</time>
      </trkpt>
      <trkpt lat="49.39586" lon="-1.00336">
        <ele>27.731006</ele>
        <time>2022-08-02T12:09:54.000Z</time>
      </trkpt>
      <trkpt lat="49.39585" lon="-1.00328">
        <ele>27.824086</ele>
        <time>2022-08-02T12:09:55.000Z</time>
      </trkpt>
      <trkpt lat="49.39584" lon="-1.00321">
        <ele>27.922453</ele>
        <time>2022-08-02T12:09:56.000Z</time>
      </trkpt>
      <trkpt lat="49.39583" lon="-1.00313">
        <ele>28.023324</ele>
        <time>2022-08-02T12:09:57.000Z</time>
      </trkpt>
      <trkpt lat="49.39582" lon="-1.00304">
        <ele>28.129976</ele>
        <time>2022-08-02T12:09:58.000Z</time>
      </trkpt>
      <trkpt lat="49.39581" lon="-1.00296">
        <ele>28.240584</ele>
        <time>2022-08-02T12:09:59.000Z</time>
      </trkpt>
      <trkpt lat="49.3958" lon="-1.00287">
        <ele>28.348097</ele>
        <time>2022-08-02T12:10:00.000Z</time>
      </trkpt>
      <trkpt lat="49.39578" lon="-1.00278">
        <ele>28.446985</ele>
        <time>2022-08-02T12:10:01.000Z</time>
      </trkpt>
      <trkpt lat="49.39577" lon="-1.0027">
        <ele>28.541177</ele>
        <time>2022-08-02T12:10:02.000Z</time>
      </trkpt>
      <trkpt lat="49.39576" lon="-1.00262">
        <ele>28.631423</ele>
        <time>2022-08-02T12:10:03.000Z</time>
      </trkpt>
      <trkpt lat="49.39575" lon="-1.00254">
        <ele>28.722771</ele>
        <time>2022-08-02T12:10:04.000Z</time>
      </trkpt>
      <trkpt lat="49.39574" lon="-1.00246">
        <ele>28.810529</ele>
        <time>2022-08-02T12:10:05.000Z</time>
      </trkpt>
      <trkpt lat="49.39573" lon="-1.00238">
        <ele>28.900802</ele>
        <time>2022-08-02T12:10:06.000Z</time>
      </trkpt>
      <trkpt lat="49.39572" lon="-1.00231">
        <ele>28.988873</ele>
        <time>2022-08-02T12:10:07.000Z</time>
      </trkpt>
      <trkpt lat="49.3957" lon="-1.00223">
        <ele>29.074857</ele>
        <time>2022-08-02T12:10:08.000Z</time>
      </trkpt>
      <trkpt lat="49.39569" lon="-1.00216">
        <ele>29.160418</ele>
        <time>2022-08-02T12:10:09.000Z</time>
      </trkpt>
      <trkpt lat="49.39568" lon="-1.00208">
        <ele>29.24655</ele>
        <time>2022-08-02T12:10:10.000Z</time>
      </trkpt>
      <trkpt lat="49.39568" lon="-1.002">
        <ele>29.331362</ele>
        <time>2022-08-02T12:10:11.000Z</time>
      </trkpt>
      <trkpt lat="49.39566" lon="-1.00193">
        <ele>29.417346</ele>
        <time>2022-08-02T12:10:12.000Z</time>
      </trkpt>
      <trkpt lat="49.39565" lon="-1.00186">
        <ele>29.500123</ele>
        <time>2022-08-02T12:10:13.000Z</time>
      </trkpt>
      <trkpt lat="49.39565" lon="-1.00178">
        <ele>29.583835</ele>
        <time>2022-08-02T12:10:14.000Z</time>
      </trkpt>
      <trkpt lat="49.39564" lon="-1.00171">
        <ele>29.668649</ele>
        <time>2022-08-02T12:10:15.000Z</time>
      </trkpt>
      <trkpt lat="49.39563" lon="-1.00163">
        <ele>29.753137</ele>
        <time>2022-08-02T12:10:16.000Z</time>
      </trkpt>
      <trkpt lat="49.39562" lon="-1.00156">
        <ele>29.835781</ele>
        <time>2022-08-02T12:10:17.000Z</time>
      </trkpt>
      <trkpt lat="49.3956" lon="-1.00148">
        <ele>29.921764</ele>
        <time>2022-08-02T12:10:18.000Z</time>
      </trkpt>
      <trkpt lat="49.39559" lon="-1.00141">
        <ele>30.009891</ele>
        <time>2022-08-02T12:10:19.000Z</time>
      </trkpt>
      <trkpt lat="49.39558" lon="-1.00133">
        <ele>30.093604</ele>
        <time>2022-08-02T12:10:20.000Z</time>
      </trkpt>
      <trkpt lat="49.39558" lon="-1.00126">
        <ele>30.177317</ele>
        <time>2022-08-02T12:10:21.000Z</time>
      </trkpt>
      <trkpt lat="49.39557" lon="-1.00118">
        <ele>30.262131</ele>
        <time>2022-08-02T12:10:22.000Z</time>
      </trkpt>
      <trkpt lat="49.39556" lon="-1.00111">
        <ele>30.344774</ele>
        <time>2022-08-02T12:10:23.000Z</time>
      </trkpt>
      <trkpt lat="49.39555" lon="-1.00103">
        <ele>30.430336</ele>
        <time>2022-08-02T12:10:24.000Z</time>
      </trkpt>
      <trkpt lat="49.39554" lon="-1.00096">
        <ele>30.51515</ele>
        <time>2022-08-02T12:10:25.000Z</time>
      </trkpt>
      <trkpt lat="49.39552" lon="-1.00088">
        <ele>30.605423</ele>
        <time>2022-08-02T12:10:26.000Z</time>
      </trkpt>
      <trkpt lat="49.39551" lon="-1.0008">
        <ele>30.694622</ele>
        <time>2022-08-02T12:10:27.000Z</time>
      </trkpt>
      <trkpt lat="49.3955" lon="-1.00072">
        <ele>30.781291</ele>
        <time>2022-08-02T12:10:28.000Z</time>
      </trkpt>
      <trkpt lat="49.39549" lon="-1.00065">
        <ele>30.869782</ele>
        <time>2022-08-02T12:10:29.000Z</time>
      </trkpt>
      <trkpt lat="49.39547" lon="-1.00057">
        <ele>30.957219</ele>
        <time>2022-08-02T12:10:30.000Z</time>
      </trkpt>
      <trkpt lat="49.39545" lon="-1.00049">
        <ele>31.050523</ele>
        <time>2022-08-02T12:10:31.000Z</time>
      </trkpt>
      <trkpt lat="49.39544" lon="-1.00042">
        <ele>31.136507</ele>
        <time>2022-08-02T12:10:32.000Z</time>
      </trkpt>
      <trkpt lat="49.39542" lon="-1.00034">
        <ele>31.229224</ele>
        <time>2022-08-02T12:10:33.000Z</time>
      </trkpt>
      <trkpt lat="49.3954" lon="-1.00026">
        <ele>31.32149</ele>
        <time>2022-08-02T12:10:34.000Z</time>
      </trkpt>
      <trkpt lat="49.39538" lon="-1.00018">
        <ele>31.402819</ele>
        <time>2022-08-02T12:10:35.000Z</time>
      </trkpt>
      <trkpt lat="49.39536" lon="-1.0001">
        <ele>31.454566</ele>
        <time>2022-08-02T12:10:36.000Z</time>
      </trkpt>
      <trkpt lat="49.39534" lon="-1.00002">
        <ele>31.5048</ele>
        <time>2022-08-02T12:10:37.000Z</time>
      </trkpt>
      <trkpt lat="49.39531" lon="-0.99994">
        <ele>31.556971</ele>
        <time>2022-08-02T12:10:38.000Z</time>
      </trkpt>
      <trkpt lat="49.39529" lon="-0.99986">
        <ele>31.609141</ele>
        <time>2022-08-02T12:10:39.000Z</time>
      </trkpt>
      <trkpt lat="49.39526" lon="-0.99978">
        <ele>31.658204</ele>
        <time>2022-08-02T12:10:40.000Z</time>
      </trkpt>
      <trkpt lat="49.39524" lon="-0.9997">
        <ele>31.707802</ele>
        <time>2022-08-02T12:10:41.000Z</time>
      </trkpt>
      <trkpt lat="49.39522" lon="-0.99963">
        <ele>31.754551</ele>
        <time>2022-08-02T12:10:42.000Z</time>
      </trkpt>
      <trkpt lat="49.3952" lon="-0.99956">
        <ele>31.801486</ele>
        <time>2022-08-02T12:10:43.000Z</time>
      </trkpt>
      <trkpt lat="49.39518" lon="-0.99948">
        <ele>31.848442</ele>
        <time>2022-08-02T12:10:44.000Z</time>
      </trkpt>
      <trkpt lat="49.39516" lon="-0.99941">
        <ele>31.895237</ele>
        <time>2022-08-02T12:10:45.000Z</time>
      </trkpt>
      <trkpt lat="49.39514" lon="-0.99934">
        <ele>31.941107</ele>
        <time>2022-08-02T12:10:46.000Z</time>
      </trkpt>
      <trkpt lat="49.39511" lon="-0.99926">
        <ele>31.989234</ele>
        <time>2022-08-02T12:10:47.000Z</time>
      </trkpt>
      <trkpt lat="49.39509" lon="-0.99919">
        <ele>32.034908</ele>
        <time>2022-08-02T12:10:48.000Z</time>
      </trkpt>
      <trkpt lat="49.39508" lon="-0.99912">
        <ele>32.080237</ele>
        <time>2022-08-02T12:10:49.000Z</time>
      </trkpt>
      <trkpt lat="49.39506" lon="-0.99905">
        <ele>32.125178</ele>
        <time>2022-08-02T12:10:50.000Z</time>
      </trkpt>
      <trkpt lat="49.39503" lon="-0.99897">
        <ele>32.174342</ele>
        <time>2022-08-02T12:10:51.000Z</time>
      </trkpt>
      <trkpt lat="49.39501" lon="-0.9989">
        <ele>32.222714</ele>
        <time>2022-08-02T12:10:52.000Z</time>
      </trkpt>
      <trkpt lat="49.39499" lon="-0.99882">
        <ele>32.270759</ele>
        <time>2022-08-02T12:10:53.000Z</time>
      </trkpt>
      <trkpt lat="49.39497" lon="-0.99874">
        <ele>32.318756</ele>
        <time>2022-08-02T12:10:54.000Z</time>
      </trkpt>
      <trkpt lat="49.39495" lon="-0.99867">
        <ele>32.363359</ele>
        <time>2022-08-02T12:10:55.000Z</time>
      </trkpt>
      <trkpt lat="49.39493" lon="-0.9986">
        <ele>32.407609</ele>
        <time>2022-08-02T12:10:56.000Z</time>
      </trkpt>
      <trkpt lat="49.39491" lon="-0.99853">
        <ele>32.451859</ele>
        <time>2022-08-02T12:10:57.000Z</time>
      </trkpt>
      <trkpt lat="49.39489" lon="-0.99847">
        <ele>32.496164</ele>
        <time>2022-08-02T12:10:58.000Z</time>
      </trkpt>
      <trkpt lat="49.39487" lon="-0.9984">
        <ele>32.540359</ele>
        <time>2022-08-02T12:10:59.000Z</time>
      </trkpt>
      <trkpt lat="49.39485" lon="-0.99833">
        <ele>32.583645</ele>
        <time>2022-08-02T12:11:00.000Z</time>
      </trkpt>
      <trkpt lat="49.39483" lon="-0.99826">
        <ele>32.629525</ele>
        <time>2022-08-02T12:11:01.000Z</time>
      </trkpt>
      <trkpt lat="49.39481" lon="-0.99819">
        <ele>32.672811</ele>
        <time>2022-08-02T12:11:02.000Z</time>
      </trkpt>
      <trkpt lat="49.39479" lon="-0.99811">
        <ele>32.720656</ele>
        <time>2022-08-02T12:11:03.000Z</time>
      </trkpt>
      <trkpt lat="49.39477" lon="-0.99804">
        <ele>32.766527</ele>
        <time>2022-08-02T12:11:04.000Z</time>
      </trkpt>
      <trkpt lat="49.39475" lon="-0.99797">
        <ele>32.813463</ele>
        <time>2022-08-02T12:11:05.000Z</time>
      </trkpt>
      <trkpt lat="49.39473" lon="-0.99789">
        <ele>32.859876</ele>
        <time>2022-08-02T12:11:06.000Z</time>
      </trkpt>
      <trkpt lat="49.39471" lon="-0.99782">
        <ele>32.907164</ele>
        <time>2022-08-02T12:11:07.000Z</time>
      </trkpt>
      <trkpt lat="49.39469" lon="-0.99775">
        <ele>32.953044</ele>
        <time>2022-08-02T12:11:08.000Z</time>
      </trkpt>
      <trkpt lat="49.39467" lon="-0.99767">
        <ele>32.999689</ele>
        <time>2022-08-02T12:11:09.000Z</time>
      </trkpt>
      <trkpt lat="49.39465" lon="-0.9976">
        <ele>33.052326</ele>
        <time>2022-08-02T12:11:10.000Z</time>
      </trkpt>
      <trkpt lat="49.39463" lon="-0.99753">
        <ele>33.106625</ele>
        <time>2022-08-02T12:11:11.000Z</time>
      </trkpt>
      <trkpt lat="49.39461" lon="-0.99746">
        <ele>33.157402</ele>
        <time>2022-08-02T12:11:12.000Z</time>
      </trkpt>
      <trkpt lat="49.39459" lon="-0.99739">
        <ele>33.208179</ele>
        <time>2022-08-02T12:11:13.000Z</time>
      </trkpt>
      <trkpt lat="49.39457" lon="-0.99731">
        <ele>33.263082</ele>
        <time>2022-08-02T12:11:14.000Z</time>
      </trkpt>
      <trkpt lat="49.39455" lon="-0.99724">
        <ele>33.314478</ele>
        <time>2022-08-02T12:11:15.000Z</time>
      </trkpt>
      <trkpt lat="49.39453" lon="-0.99717">
        <ele>33.36773</ele>
        <time>2022-08-02T12:11:16.000Z</time>
      </trkpt>
      <trkpt lat="49.39451" lon="-0.9971">
        <ele>33.419746</ele>
        <time>2022-08-02T12:11:17.000Z</time>
      </trkpt>
      <trkpt lat="49.39448" lon="-0.99703">
        <ele>33.472843</ele>
        <time>2022-08-02T12:11:18.000Z</time>
      </trkpt>
      <trkpt lat="49.39446" lon="-0.99695">
        <ele>33.526725</ele>
        <time>2022-08-02T12:11:19.000Z</time>
      </trkpt>
      <trkpt lat="49.39445" lon="-0.99688">
        <ele>33.579985</ele>
        <time>2022-08-02T12:11:20.000Z</time>
      </trkpt>
      <trkpt lat="49.39442" lon="-0.9968">
        <ele>33.636876</ele>
        <time>2022-08-02T12:11:21.000Z</time>
      </trkpt>
      <trkpt lat="49.3944" lon="-0.99672">
        <ele>33.693891</ele>
        <time>2022-08-02T12:11:22.000Z</time>
      </trkpt>
      <trkpt lat="49.39439" lon="-0.99664">
        <ele>33.749745</ele>
        <time>2022-08-02T12:11:23.000Z</time>
      </trkpt>
      <trkpt lat="49.39437" lon="-0.99656">
        <ele>33.807059</ele>
        <time>2022-08-02T12:11:24.000Z</time>
      </trkpt>
      <trkpt lat="49.39436" lon="-0.99648">
        <ele>33.862263</ele>
        <time>2022-08-02T12:11:25.000Z</time>
      </trkpt>
      <trkpt lat="49.39435" lon="-0.9964">
        <ele>33.916618</ele>
        <time>2022-08-02T12:11:26.000Z</time>
      </trkpt>
      <trkpt lat="49.39434" lon="-0.99632">
        <ele>33.973123</ele>
        <time>2022-08-02T12:11:27.000Z</time>
      </trkpt>
      <trkpt lat="49.39433" lon="-0.99624">
        <ele>34.027038</ele>
        <time>2022-08-02T12:11:28.000Z</time>
      </trkpt>
      <trkpt lat="49.39431" lon="-0.99608">
        <ele>34.136116</ele>
        <time>2022-08-02T12:11:30.000Z</time>
      </trkpt>
      <trkpt lat="49.3943" lon="-0.996">
        <ele>34.190471</ele>
        <time>2022-08-02T12:11:31.000Z</time>
      </trkpt>
      <trkpt lat="49.3943" lon="-0.99592">
        <ele>34.24412</ele>
        <time>2022-08-02T12:11:32.000Z</time>
      </trkpt>
      <trkpt lat="49.3943" lon="-0.99584">
        <ele>34.299689</ele>
        <time>2022-08-02T12:11:33.000Z</time>
      </trkpt>
      <trkpt lat="49.3943" lon="-0.99576">
        <ele>34.35325</ele>
        <time>2022-08-02T12:11:34.000Z</time>
      </trkpt>
      <trkpt lat="49.3943" lon="-0.99567">
        <ele>34.408149</ele>
        <time>2022-08-02T12:11:35.000Z</time>
      </trkpt>
      <trkpt lat="49.3943" lon="-0.99559">
        <ele>34.46171</ele>
        <time>2022-08-02T12:11:36.000Z</time>
      </trkpt>
      <trkpt lat="49.3943" lon="-0.99551">
        <ele>34.51527</ele>
        <time>2022-08-02T12:11:37.000Z</time>
      </trkpt>
      <trkpt lat="49.3943" lon="-0.99544">
        <ele>34.567492</ele>
        <time>2022-08-02T12:11:38.000Z</time>
      </trkpt>
      <trkpt lat="49.3943" lon="-0.99536">
        <ele>34.619136</ele>
        <time>2022-08-02T12:11:39.000Z</time>
      </trkpt>
      <trkpt lat="49.39431" lon="-0.99528">
        <ele>34.669727</ele>
        <time>2022-08-02T12:11:40.000Z</time>
      </trkpt>
      <trkpt lat="49.39431" lon="-0.99521">
        <ele>34.719128</ele>
        <time>2022-08-02T12:11:41.000Z</time>
      </trkpt>
      <trkpt lat="49.39432" lon="-0.99514">
        <ele>34.768391</ele>
        <time>2022-08-02T12:11:42.000Z</time>
      </trkpt>
      <trkpt lat="49.39433" lon="-0.99507">
        <ele>34.818415</ele>
        <time>2022-08-02T12:11:43.000Z</time>
      </trkpt>
      <trkpt lat="49.39434" lon="-0.995">
        <ele>34.859462</ele>
        <time>2022-08-02T12:11:44.000Z</time>
      </trkpt>
      <trkpt lat="49.39435" lon="-0.99492">
        <ele>34.891324</ele>
        <time>2022-08-02T12:11:45.000Z</time>
      </trkpt>
      <trkpt lat="49.39436" lon="-0.99485">
        <ele>34.922309</ele>
        <time>2022-08-02T12:11:46.000Z</time>
      </trkpt>
      <trkpt lat="49.39437" lon="-0.99478">
        <ele>34.953325</ele>
        <time>2022-08-02T12:11:47.000Z</time>
      </trkpt>
      <trkpt lat="49.39437" lon="-0.99471">
        <ele>34.983881</ele>
        <time>2022-08-02T12:11:48.000Z</time>
      </trkpt>
      <trkpt lat="49.39437" lon="-0.99464">
        <ele>35.01381</ele>
        <time>2022-08-02T12:11:49.000Z</time>
      </trkpt>
      <trkpt lat="49.39438" lon="-0.99458">
        <ele>35.043981</ele>
        <time>2022-08-02T12:11:50.000Z</time>
      </trkpt>
      <trkpt lat="49.39439" lon="-0.99451">
        <ele>35.072393</ele>
        <time>2022-08-02T12:11:51.000Z</time>
      </trkpt>
      <trkpt lat="49.3944" lon="-0.99445">
        <ele>35.100906</ele>
        <time>2022-08-02T12:11:52.000Z</time>
      </trkpt>
      <trkpt lat="49.39441" lon="-0.99438">
        <ele>35.129667</ele>
        <time>2022-08-02T12:11:53.000Z</time>
      </trkpt>
      <trkpt lat="49.39441" lon="-0.99432">
        <ele>35.1569</ele>
        <time>2022-08-02T12:11:54.000Z</time>
      </trkpt>
      <trkpt lat="49.39442" lon="-0.99426">
        <ele>35.183171</ele>
        <time>2022-08-02T12:11:55.000Z</time>
      </trkpt>
      <trkpt lat="49.39443" lon="-0.9942">
        <ele>35.20972</ele>
        <time>2022-08-02T12:11:56.000Z</time>
      </trkpt>
      <trkpt lat="49.39444" lon="-0.99414">
        <ele>35.234709</ele>
        <time>2022-08-02T12:11:57.000Z</time>
      </trkpt>
      <trkpt lat="49.39445" lon="-0.99408">
        <ele>35.261513</ele>
        <time>2022-08-02T12:11:58.000Z</time>
      </trkpt>
      <trkpt lat="49.39445" lon="-0.99403">
        <ele>35.285648</ele>
        <time>2022-08-02T12:11:59.000Z</time>
      </trkpt>
      <trkpt lat="49.39447" lon="-0.99397">
        <ele>35.313016</ele>
        <time>2022-08-02T12:12:00.000Z</time>
      </trkpt>
      <trkpt lat="49.39447" lon="-0.99391">
        <ele>35.339397</ele>
        <time>2022-08-02T12:12:01.000Z</time>
      </trkpt>
      <trkpt lat="49.39449" lon="-0.99385">
        <ele>35.366562</ele>
        <time>2022-08-02T12:12:02.000Z</time>
      </trkpt>
      <trkpt lat="49.3945" lon="-0.99379">
        <ele>35.393786</ele>
        <time>2022-08-02T12:12:03.000Z</time>
      </trkpt>
      <trkpt lat="49.39451" lon="-0.99372">
        <ele>35.423457</ele>
        <time>2022-08-02T12:12:04.000Z</time>
      </trkpt>
      <trkpt lat="49.39453" lon="-0.99366">
        <ele>35.453938</ele>
        <time>2022-08-02T12:12:05.000Z</time>
      </trkpt>
      <trkpt lat="49.39454" lon="-0.99359">
        <ele>35.485799</ele>
        <time>2022-08-02T12:12:06.000Z</time>
      </trkpt>
      <trkpt lat="49.39455" lon="-0.99351">
        <ele>35.519224</ele>
        <time>2022-08-02T12:12:07.000Z</time>
      </trkpt>
      <trkpt lat="49.39457" lon="-0.99343">
        <ele>35.554206</ele>
        <time>2022-08-02T12:12:08.000Z</time>
      </trkpt>
      <trkpt lat="49.39458" lon="-0.99336">
        <ele>35.589599</ele>
        <time>2022-08-02T12:12:09.000Z</time>
      </trkpt>
      <trkpt lat="49.39459" lon="-0.99328">
        <ele>35.624005</ele>
        <time>2022-08-02T12:12:10.000Z</time>
      </trkpt>
      <trkpt lat="49.39461" lon="-0.99319">
        <ele>35.661883</ele>
        <time>2022-08-02T12:12:11.000Z</time>
      </trkpt>
      <trkpt lat="49.39462" lon="-0.99311">
        <ele>35.697563</ele>
        <time>2022-08-02T12:12:12.000Z</time>
      </trkpt>
      <trkpt lat="49.39463" lon="-0.99303">
        <ele>35.733937</ele>
        <time>2022-08-02T12:12:13.000Z</time>
      </trkpt>
      <trkpt lat="49.39464" lon="-0.99295">
        <ele>35.768783</ele>
        <time>2022-08-02T12:12:14.000Z</time>
      </trkpt>
      <trkpt lat="49.39465" lon="-0.99288">
        <ele>35.802167</ele>
        <time>2022-08-02T12:12:15.000Z</time>
      </trkpt>
      <trkpt lat="49.39465" lon="-0.9928">
        <ele>35.833871</ele>
        <time>2022-08-02T12:12:16.000Z</time>
      </trkpt>
      <trkpt lat="49.39465" lon="-0.99273">
        <ele>35.866007</ele>
        <time>2022-08-02T12:12:17.000Z</time>
      </trkpt>
      <trkpt lat="49.39464" lon="-0.99266">
        <ele>35.897663</ele>
        <time>2022-08-02T12:12:18.000Z</time>
      </trkpt>
      <trkpt lat="49.39464" lon="-0.99258">
        <ele>35.929507</ele>
        <time>2022-08-02T12:12:19.000Z</time>
      </trkpt>
      <trkpt lat="49.39463" lon="-0.99251">
        <ele>35.961369</ele>
        <time>2022-08-02T12:12:20.000Z</time>
      </trkpt>
      <trkpt lat="49.39462" lon="-0.99244">
        <ele>35.993098</ele>
        <time>2022-08-02T12:12:21.000Z</time>
      </trkpt>
      <trkpt lat="49.39461" lon="-0.99237">
        <ele>36.025032</ele>
        <time>2022-08-02T12:12:22.000Z</time>
      </trkpt>
      <trkpt lat="49.39461" lon="-0.99229">
        <ele>36.057651</ele>
        <time>2022-08-02T12:12:23.000Z</time>
      </trkpt>
      <trkpt lat="49.3946" lon="-0.99222">
        <ele>36.093085</ele>
        <time>2022-08-02T12:12:24.000Z</time>
      </trkpt>
      <trkpt lat="49.39459" lon="-0.99215">
        <ele>36.127562</ele>
        <time>2022-08-02T12:12:25.000Z</time>
      </trkpt>
      <trkpt lat="49.39458" lon="-0.99207">
        <ele>36.164021</ele>
        <time>2022-08-02T12:12:26.000Z</time>
      </trkpt>
      <trkpt lat="49.39457" lon="-0.992">
        <ele>36.200245</ele>
        <time>2022-08-02T12:12:27.000Z</time>
      </trkpt>
      <trkpt lat="49.39457" lon="-0.99192">
        <ele>36.236233</ele>
        <time>2022-08-02T12:12:28.000Z</time>
      </trkpt>
      <trkpt lat="49.39455" lon="-0.99185">
        <ele>36.272456</ele>
        <time>2022-08-02T12:12:29.000Z</time>
      </trkpt>
      <trkpt lat="49.39454" lon="-0.99177">
        <ele>36.308819</ele>
        <time>2022-08-02T12:12:30.000Z</time>
      </trkpt>
      <trkpt lat="49.39453" lon="-0.9917">
        <ele>36.345684</ele>
        <time>2022-08-02T12:12:31.000Z</time>
      </trkpt>
      <trkpt lat="49.39452" lon="-0.99162">
        <ele>36.384529</ele>
        <time>2022-08-02T12:12:32.000Z</time>
      </trkpt>
      <trkpt lat="49.39451" lon="-0.99155">
        <ele>36.420753</ele>
        <time>2022-08-02T12:12:33.000Z</time>
      </trkpt>
      <trkpt lat="49.39449" lon="-0.99147">
        <ele>36.458242</ele>
        <time>2022-08-02T12:12:34.000Z</time>
      </trkpt>
      <trkpt lat="49.39448" lon="-0.99139">
        <ele>36.496026</ele>
        <time>2022-08-02T12:12:35.000Z</time>
      </trkpt>
      <trkpt lat="49.39447" lon="-0.99132">
        <ele>36.531459</ele>
        <time>2022-08-02T12:12:36.000Z</time>
      </trkpt>
      <trkpt lat="49.39445" lon="-0.99125">
        <ele>36.565122</ele>
        <time>2022-08-02T12:12:37.000Z</time>
      </trkpt>
      <trkpt lat="49.39445" lon="-0.99118">
        <ele>36.599014</ele>
        <time>2022-08-02T12:12:38.000Z</time>
      </trkpt>
      <trkpt lat="49.39444" lon="-0.99111">
        <ele>36.634912</ele>
        <time>2022-08-02T12:12:39.000Z</time>
      </trkpt>
      <trkpt lat="49.39443" lon="-0.99103">
        <ele>36.671603</ele>
        <time>2022-08-02T12:12:40.000Z</time>
      </trkpt>
      <trkpt lat="49.39441" lon="-0.99096">
        <ele>36.708468</ele>
        <time>2022-08-02T12:12:41.000Z</time>
      </trkpt>
      <trkpt lat="49.3944" lon="-0.99088">
        <ele>36.745334</ele>
        <time>2022-08-02T12:12:42.000Z</time>
      </trkpt>
      <trkpt lat="49.39439" lon="-0.99081">
        <ele>36.782169</ele>
        <time>2022-08-02T12:12:43.000Z</time>
      </trkpt>
      <trkpt lat="49.39439" lon="-0.99073">
        <ele>36.819568</ele>
        <time>2022-08-02T12:12:44.000Z</time>
      </trkpt>
      <trkpt lat="49.39437" lon="-0.99065">
        <ele>36.857352</ele>
        <time>2022-08-02T12:12:45.000Z</time>
      </trkpt>
      <trkpt lat="49.39437" lon="-0.99058">
        <ele>36.893244</ele>
        <time>2022-08-02T12:12:46.000Z</time>
      </trkpt>
      <trkpt lat="49.39436" lon="-0.9905">
        <ele>36.930109</ele>
        <time>2022-08-02T12:12:47.000Z</time>
      </trkpt>
      <trkpt lat="49.39435" lon="-0.99043">
        <ele>36.964933</ele>
        <time>2022-08-02T12:12:48.000Z</time>
      </trkpt>
      <trkpt lat="49.39434" lon="-0.99035">
        <ele>37.001296</ele>
        <time>2022-08-02T12:12:49.000Z</time>
      </trkpt>
      <trkpt lat="49.39433" lon="-0.99028">
        <ele>37.037188</ele>
        <time>2022-08-02T12:12:50.000Z</time>
      </trkpt>
      <trkpt lat="49.39433" lon="-0.99021">
        <ele>37.071038</ele>
        <time>2022-08-02T12:12:51.000Z</time>
      </trkpt>
      <trkpt lat="49.39432" lon="-0.99013">
        <ele>37.107262</ele>
        <time>2022-08-02T12:12:52.000Z</time>
      </trkpt>
      <trkpt lat="49.39431" lon="-0.99006">
        <ele>37.14278</ele>
        <time>2022-08-02T12:12:53.000Z</time>
      </trkpt>
      <trkpt lat="49.3943" lon="-0.98998">
        <ele>37.179464</ele>
        <time>2022-08-02T12:12:54.000Z</time>
      </trkpt>
      <trkpt lat="49.39429" lon="-0.98991">
        <ele>37.214898</ele>
        <time>2022-08-02T12:12:55.000Z</time>
      </trkpt>
      <trkpt lat="49.39428" lon="-0.98984">
        <ele>37.249474</ele>
        <time>2022-08-02T12:12:56.000Z</time>
      </trkpt>
      <trkpt lat="49.39427" lon="-0.98977">
        <ele>37.281968</ele>
        <time>2022-08-02T12:12:57.000Z</time>
      </trkpt>
      <trkpt lat="49.39426" lon="-0.98972">
        <ele>37.310468</ele>
        <time>2022-08-02T12:12:58.000Z</time>
      </trkpt>
      <trkpt lat="49.39424" lon="-0.98966">
        <ele>37.339083</ele>
        <time>2022-08-02T12:12:59.000Z</time>
      </trkpt>
      <trkpt lat="49.39422" lon="-0.98961">
        <ele>37.373566</ele>
        <time>2022-08-02T12:13:00.000Z</time>
      </trkpt>
      <trkpt lat="49.39419" lon="-0.98958">
        <ele>37.41733</ele>
        <time>2022-08-02T12:13:01.000Z</time>
      </trkpt>
      <trkpt lat="49.39415" lon="-0.98956">
        <ele>37.466657</ele>
        <time>2022-08-02T12:13:02.000Z</time>
      </trkpt>
      <trkpt lat="49.39411" lon="-0.98955">
        <ele>37.512413</ele>
        <time>2022-08-02T12:13:03.000Z</time>
      </trkpt>
      <trkpt lat="49.39407" lon="-0.98956">
        <ele>37.562952</ele>
        <time>2022-08-02T12:13:04.000Z</time>
      </trkpt>
      <trkpt lat="49.39402" lon="-0.98957">
        <ele>37.621717</ele>
        <time>2022-08-02T12:13:05.000Z</time>
      </trkpt>
      <trkpt lat="49.39399" lon="-0.98959">
        <ele>37.666517</ele>
        <time>2022-08-02T12:13:06.000Z</time>
      </trkpt>
      <trkpt lat="49.39394" lon="-0.98962">
        <ele>37.723172</ele>
        <time>2022-08-02T12:13:07.000Z</time>
      </trkpt>
      <trkpt lat="49.3939" lon="-0.98964">
        <ele>37.776688</ele>
        <time>2022-08-02T12:13:08.000Z</time>
      </trkpt>
      <trkpt lat="49.39386" lon="-0.98967">
        <ele>37.827692</ele>
        <time>2022-08-02T12:13:09.000Z</time>
      </trkpt>
      <trkpt lat="49.39382" lon="-0.9897">
        <ele>37.87792</ele>
        <time>2022-08-02T12:13:10.000Z</time>
      </trkpt>
      <trkpt lat="49.39379" lon="-0.98972">
        <ele>37.924226</ele>
        <time>2022-08-02T12:13:11.000Z</time>
      </trkpt>
      <trkpt lat="49.39375" lon="-0.98975">
        <ele>37.974924</ele>
        <time>2022-08-02T12:13:12.000Z</time>
      </trkpt>
      <trkpt lat="49.39371" lon="-0.98977">
        <ele>38.024517</ele>
        <time>2022-08-02T12:13:13.000Z</time>
      </trkpt>
      <trkpt lat="49.39367" lon="-0.9898">
        <ele>38.074745</ele>
        <time>2022-08-02T12:13:14.000Z</time>
      </trkpt>
      <trkpt lat="49.39364" lon="-0.98983">
        <ele>38.123153</ele>
        <time>2022-08-02T12:13:15.000Z</time>
      </trkpt>
      <trkpt lat="49.39361" lon="-0.98985">
        <ele>38.162813</ele>
        <time>2022-08-02T12:13:16.000Z</time>
      </trkpt>
      <trkpt lat="49.39357" lon="-0.98987">
        <ele>38.209011</ele>
        <time>2022-08-02T12:13:17.000Z</time>
      </trkpt>
      <trkpt lat="49.39355" lon="-0.98989">
        <ele>38.244586</ele>
        <time>2022-08-02T12:13:18.000Z</time>
      </trkpt>
      <trkpt lat="49.39352" lon="-0.98989">
        <ele>38.276023</ele>
        <time>2022-08-02T12:13:19.000Z</time>
      </trkpt>
      <trkpt lat="49.3935" lon="-0.98989">
        <ele>38.298817</ele>
        <time>2022-08-02T12:13:20.000Z</time>
      </trkpt>
      <trkpt lat="49.39348" lon="-0.98987">
        <ele>38.330915</ele>
        <time>2022-08-02T12:13:22.000Z</time>
      </trkpt>
      <trkpt lat="49.39348" lon="-0.98984">
        <ele>38.36003</ele>
        <time>2022-08-02T12:13:25.000Z</time>
      </trkpt>
      <trkpt lat="49.3935" lon="-0.98976">
        <ele>38.424769</ele>
        <time>2022-08-02T12:13:34.000Z</time>
      </trkpt>
      <trkpt lat="49.39352" lon="-0.98975">
        <ele>38.456967</ele>
        <time>2022-08-02T12:13:36.000Z</time>
      </trkpt>
      <trkpt lat="49.39354" lon="-0.98975">
        <ele>38.480094</ele>
        <time>2022-08-02T12:13:39.000Z</time>
      </trkpt>
      <trkpt lat="49.39365" lon="-0.98972">
        <ele>38.606651</ele>
        <time>2022-08-02T12:16:48.000Z</time>
      </trkpt>
      <trkpt lat="49.39367" lon="-0.9897">
        <ele>38.643361</ele>
        <time>2022-08-02T12:16:50.000Z</time>
      </trkpt>
      <trkpt lat="49.3937" lon="-0.98968">
        <ele>38.676161</ele>
        <time>2022-08-02T12:16:52.000Z</time>
      </trkpt>
      <trkpt lat="49.39372" lon="-0.98966">
        <ele>38.706685</ele>
        <time>2022-08-02T12:16:54.000Z</time>
      </trkpt>
      <trkpt lat="49.39374" lon="-0.98964">
        <ele>38.734896</ele>
        <time>2022-08-02T12:16:56.000Z</time>
      </trkpt>
      <trkpt lat="49.39376" lon="-0.98963">
        <ele>38.763174</ele>
        <time>2022-08-02T12:16:59.000Z</time>
      </trkpt>
      <trkpt lat="49.39378" lon="-0.98961">
        <ele>38.786513</ele>
        <time>2022-08-02T12:17:01.000Z</time>
      </trkpt>
      <trkpt lat="49.3938" lon="-0.9896">
        <ele>38.810872</ele>
        <time>2022-08-02T12:17:03.000Z</time>
      </trkpt>
      <trkpt lat="49.39274" lon="-0.9893">
        <ele>40.556481</ele>
        <time>2022-08-02T12:58:22.000Z</time>
      </trkpt>
      <trkpt lat="49.39274" lon="-0.98923">
        <ele>40.650456</ele>
        <time>2022-08-02T12:58:23.000Z</time>
      </trkpt>
      <trkpt lat="49.39274" lon="-0.98916">
        <ele>40.749807</ele>
        <time>2022-08-02T12:58:24.000Z</time>
      </trkpt>
      <trkpt lat="49.39274" lon="-0.98908">
        <ele>40.853557</ele>
        <time>2022-08-02T12:58:25.000Z</time>
      </trkpt>
      <trkpt lat="49.39273" lon="-0.98901">
        <ele>40.956518</ele>
        <time>2022-08-02T12:58:26.000Z</time>
      </trkpt>
      <trkpt lat="49.39273" lon="-0.98894">
        <ele>41.061818</ele>
        <time>2022-08-02T12:58:27.000Z</time>
      </trkpt>
      <trkpt lat="49.39272" lon="-0.98886">
        <ele>41.169758</ele>
        <time>2022-08-02T12:58:28.000Z</time>
      </trkpt>
      <trkpt lat="49.39272" lon="-0.98878">
        <ele>41.278904</ele>
        <time>2022-08-02T12:58:29.000Z</time>
      </trkpt>
      <trkpt lat="49.39272" lon="-0.9887">
        <ele>41.38805</ele>
        <time>2022-08-02T12:58:30.000Z</time>
      </trkpt>
      <trkpt lat="49.39272" lon="-0.98863">
        <ele>41.49599</ele>
        <time>2022-08-02T12:58:31.000Z</time>
      </trkpt>
      <trkpt lat="49.39272" lon="-0.98855">
        <ele>41.601137</ele>
        <time>2022-08-02T12:58:32.000Z</time>
      </trkpt>
      <trkpt lat="49.39272" lon="-0.98847">
        <ele>41.710283</ele>
        <time>2022-08-02T12:58:33.000Z</time>
      </trkpt>
      <trkpt lat="49.39271" lon="-0.9884">
        <ele>41.819076</ele>
        <time>2022-08-02T12:58:34.000Z</time>
      </trkpt>
      <trkpt lat="49.39271" lon="-0.98832">
        <ele>41.924024</ele>
        <time>2022-08-02T12:58:35.000Z</time>
      </trkpt>
      <trkpt lat="49.39271" lon="-0.98825">
        <ele>42.026378</ele>
        <time>2022-08-02T12:58:36.000Z</time>
      </trkpt>
      <trkpt lat="49.39271" lon="-0.98817">
        <ele>42.131326</ele>
        <time>2022-08-02T12:58:37.000Z</time>
      </trkpt>
      <trkpt lat="49.3927" lon="-0.9881">
        <ele>42.239266</ele>
        <time>2022-08-02T12:58:38.000Z</time>
      </trkpt>
      <trkpt lat="49.3927" lon="-0.98802">
        <ele>42.348603</ele>
        <time>2022-08-02T12:58:39.000Z</time>
      </trkpt>
      <trkpt lat="49.3927" lon="-0.98794">
        <ele>42.459336</ele>
        <time>2022-08-02T12:58:40.000Z</time>
      </trkpt>
      <trkpt lat="49.39269" lon="-0.98786">
        <ele>42.569515</ele>
        <time>2022-08-02T12:58:41.000Z</time>
      </trkpt>
      <trkpt lat="49.39269" lon="-0.98779">
        <ele>42.674464</ele>
        <time>2022-08-02T12:58:42.000Z</time>
      </trkpt>
      <trkpt lat="49.39269" lon="-0.98771">
        <ele>42.77961</ele>
        <time>2022-08-02T12:58:43.000Z</time>
      </trkpt>
      <trkpt lat="49.39269" lon="-0.98764">
        <ele>42.881964</ele>
        <time>2022-08-02T12:58:44.000Z</time>
      </trkpt>
      <trkpt lat="49.39268" lon="-0.98756">
        <ele>42.985713</ele>
        <time>2022-08-02T12:58:45.000Z</time>
      </trkpt>
      <trkpt lat="49.39268" lon="-0.98749">
        <ele>43.087863</ele>
        <time>2022-08-02T12:58:46.000Z</time>
      </trkpt>
      <trkpt lat="49.39268" lon="-0.98742">
        <ele>43.18898</ele>
        <time>2022-08-02T12:58:47.000Z</time>
      </trkpt>
      <trkpt lat="49.39268" lon="-0.98735">
        <ele>43.284133</ele>
        <time>2022-08-02T12:58:48.000Z</time>
      </trkpt>
      <trkpt lat="49.39267" lon="-0.98729">
        <ele>43.373229</ele>
        <time>2022-08-02T12:58:49.000Z</time>
      </trkpt>
      <trkpt lat="49.39267" lon="-0.98723">
        <ele>43.394673</ele>
        <time>2022-08-02T12:58:50.000Z</time>
      </trkpt>
      <trkpt lat="49.39267" lon="-0.98718">
        <ele>43.407079</ele>
        <time>2022-08-02T12:58:51.000Z</time>
      </trkpt>
      <trkpt lat="49.39267" lon="-0.98714">
        <ele>43.417749</ele>
        <time>2022-08-02T12:58:52.000Z</time>
      </trkpt>
      <trkpt lat="49.39267" lon="-0.9871">
        <ele>43.427001</ele>
        <time>2022-08-02T12:58:53.000Z</time>
      </trkpt>
      <trkpt lat="49.39267" lon="-0.98707">
        <ele>43.434445</ele>
        <time>2022-08-02T12:58:54.000Z</time>
      </trkpt>
      <trkpt lat="49.39268" lon="-0.98702">
        <ele>43.448036</ele>
        <time>2022-08-02T12:58:56.000Z</time>
      </trkpt>
      <trkpt lat="49.3927" lon="-0.98699">
        <ele>43.457413</ele>
        <time>2022-08-02T12:58:57.000Z</time>
      </trkpt>
      <trkpt lat="49.39272" lon="-0.98698">
        <ele>43.464973</ele>
        <time>2022-08-02T12:58:58.000Z</time>
      </trkpt>
      <trkpt lat="49.39274" lon="-0.98696">
        <ele>43.473117</ele>
        <time>2022-08-02T12:58:59.000Z</time>
      </trkpt>
      <trkpt lat="49.39276" lon="-0.98695">
        <ele>43.482103</ele>
        <time>2022-08-02T12:59:00.000Z</time>
      </trkpt>
      <trkpt lat="49.39278" lon="-0.98693">
        <ele>43.491534</ele>
        <time>2022-08-02T12:59:01.000Z</time>
      </trkpt>
      <trkpt lat="49.3928" lon="-0.98692">
        <ele>43.499191</ele>
        <time>2022-08-02T12:59:02.000Z</time>
      </trkpt>
      <trkpt lat="49.39282" lon="-0.98692">
        <ele>43.506585</ele>
        <time>2022-08-02T12:59:03.000Z</time>
      </trkpt>
      <trkpt lat="49.39284" lon="-0.98693">
        <ele>43.513731</ele>
        <time>2022-08-02T12:59:06.000Z</time>
      </trkpt>
      <trkpt lat="49.39279" lon="-0.98698">
        <ele>43.533934</ele>
        <time>2022-08-02T12:59:25.000Z</time>
      </trkpt>
      <trkpt lat="49.39277" lon="-0.98698">
        <ele>43.543494</ele>
        <time>2022-08-02T12:59:26.000Z</time>
      </trkpt>
      <trkpt lat="49.39274" lon="-0.98698">
        <ele>43.553406</ele>
        <time>2022-08-02T12:59:27.000Z</time>
      </trkpt>
      <trkpt lat="49.39271" lon="-0.98697">
        <ele>43.564922</ele>
        <time>2022-08-02T12:59:28.000Z</time>
      </trkpt>
      <trkpt lat="49.39269" lon="-0.98694">
        <ele>43.576294</ele>
        <time>2022-08-02T12:59:29.000Z</time>
      </trkpt>
      <trkpt lat="49.39267" lon="-0.9869">
        <ele>43.587317</ele>
        <time>2022-08-02T12:59:30.000Z</time>
      </trkpt>
      <trkpt lat="49.39266" lon="-0.98686">
        <ele>43.598797</ele>
        <time>2022-08-02T12:59:31.000Z</time>
      </trkpt>
      <trkpt lat="49.39266" lon="-0.98681">
        <ele>43.611998</ele>
        <time>2022-08-02T12:59:32.000Z</time>
      </trkpt>
      <trkpt lat="49.39266" lon="-0.98674">
        <ele>43.628662</ele>
        <time>2022-08-02T12:59:33.000Z</time>
      </trkpt>
      <trkpt lat="49.39266" lon="-0.98667">
        <ele>43.64628</ele>
        <time>2022-08-02T12:59:34.000Z</time>
      </trkpt>
      <trkpt lat="49.39266" lon="-0.9866">
        <ele>43.664145</ele>
        <time>2022-08-02T12:59:35.000Z</time>
      </trkpt>
      <trkpt lat="49.39265" lon="-0.98652">
        <ele>43.682656</ele>
        <time>2022-08-02T12:59:36.000Z</time>
      </trkpt>
      <trkpt lat="49.39264" lon="-0.98645">
        <ele>43.701301</ele>
        <time>2022-08-02T12:59:37.000Z</time>
      </trkpt>
      <trkpt lat="49.39264" lon="-0.98637">
        <ele>43.719946</ele>
        <time>2022-08-02T12:59:38.000Z</time>
      </trkpt>
      <trkpt lat="49.39264" lon="-0.9863">
        <ele>43.738343</ele>
        <time>2022-08-02T12:59:39.000Z</time>
      </trkpt>
      <trkpt lat="49.39264" lon="-0.98622">
        <ele>43.757698</ele>
        <time>2022-08-02T12:59:40.000Z</time>
      </trkpt>
      <trkpt lat="49.39264" lon="-0.98615">
        <ele>43.776308</ele>
        <time>2022-08-02T12:59:41.000Z</time>
      </trkpt>
      <trkpt lat="49.39264" lon="-0.98607">
        <ele>43.795414</ele>
        <time>2022-08-02T12:59:42.000Z</time>
      </trkpt>
      <trkpt lat="49.39263" lon="-0.98599">
        <ele>43.814214</ele>
        <time>2022-08-02T12:59:43.000Z</time>
      </trkpt>
      <trkpt lat="49.39263" lon="-0.98592">
        <ele>43.831869</ele>
        <time>2022-08-02T12:59:44.000Z</time>
      </trkpt>
      <trkpt lat="49.39262" lon="-0.98585">
        <ele>43.849142</ele>
        <time>2022-08-02T12:59:45.000Z</time>
      </trkpt>
      <trkpt lat="49.39262" lon="-0.98579">
        <ele>43.864278</ele>
        <time>2022-08-02T12:59:46.000Z</time>
      </trkpt>
      <trkpt lat="49.39262" lon="-0.98574">
        <ele>43.878422</ele>
        <time>2022-08-02T12:59:47.000Z</time>
      </trkpt>
      <trkpt lat="49.39263" lon="-0.98569">
        <ele>43.89055</ele>
        <time>2022-08-02T12:59:48.000Z</time>
      </trkpt>
      <trkpt lat="49.39264" lon="-0.98565">
        <ele>43.901573</ele>
        <time>2022-08-02T12:59:49.000Z</time>
      </trkpt>
      <trkpt lat="49.39266" lon="-0.98562">
        <ele>43.91232</ele>
        <time>2022-08-02T12:59:50.000Z</time>
      </trkpt>
      <trkpt lat="49.39269" lon="-0.9856">
        <ele>43.924543</ele>
        <time>2022-08-02T12:59:51.000Z</time>
      </trkpt>
      <trkpt lat="49.39272" lon="-0.98559">
        <ele>43.936945</ele>
        <time>2022-08-02T12:59:52.000Z</time>
      </trkpt>
      <trkpt lat="49.39276" lon="-0.98559">
        <ele>43.951815</ele>
        <time>2022-08-02T12:59:53.000Z</time>
      </trkpt>
      <trkpt lat="49.3928" lon="-0.98559">
        <ele>43.967447</ele>
        <time>2022-08-02T12:59:54.000Z</time>
      </trkpt>
      <trkpt lat="49.39285" lon="-0.98559">
        <ele>43.984631</ele>
        <time>2022-08-02T12:59:55.000Z</time>
      </trkpt>
      <trkpt lat="49.3929" lon="-0.9856">
        <ele>44.002946</ele>
        <time>2022-08-02T12:59:56.000Z</time>
      </trkpt>
      <trkpt lat="49.39294" lon="-0.9856">
        <ele>44.019005</ele>
        <time>2022-08-02T12:59:57.000Z</time>
      </trkpt>
      <trkpt lat="49.39298" lon="-0.9856">
        <ele>44.035796</ele>
        <time>2022-08-02T12:59:58.000Z</time>
      </trkpt>
      <trkpt lat="49.39303" lon="-0.9856">
        <ele>44.052952</ele>
        <time>2022-08-02T12:59:59.000Z</time>
      </trkpt>
      <trkpt lat="49.39308" lon="-0.9856">
        <ele>44.061245</ele>
        <time>2022-08-02T13:00:00.000Z</time>
      </trkpt>
      <trkpt lat="49.39312" lon="-0.98558">
        <ele>44.036244</ele>
        <time>2022-08-02T13:00:01.000Z</time>
      </trkpt>
      <trkpt lat="49.39317" lon="-0.98557">
        <ele>44.011102</ele>
        <time>2022-08-02T13:00:02.000Z</time>
      </trkpt>
      <trkpt lat="49.39322" lon="-0.98555">
        <ele>43.982814</ele>
        <time>2022-08-02T13:00:03.000Z</time>
      </trkpt>
      <trkpt lat="49.39326" lon="-0.98554">
        <ele>43.957813</ele>
        <time>2022-08-02T13:00:04.000Z</time>
      </trkpt>
      <trkpt lat="49.39331" lon="-0.98553">
        <ele>43.929586</ele>
        <time>2022-08-02T13:00:05.000Z</time>
      </trkpt>
      <trkpt lat="49.39336" lon="-0.98552">
        <ele>43.903183</ele>
        <time>2022-08-02T13:00:06.000Z</time>
      </trkpt>
      <trkpt lat="49.39341" lon="-0.98551">
        <ele>43.873621</ele>
        <time>2022-08-02T13:00:07.000Z</time>
      </trkpt>
      <trkpt lat="49.39346" lon="-0.98551">
        <ele>43.847353</ele>
        <time>2022-08-02T13:00:08.000Z</time>
      </trkpt>
      <trkpt lat="49.39351" lon="-0.9855">
        <ele>43.818851</ele>
        <time>2022-08-02T13:00:09.000Z</time>
      </trkpt>
      <trkpt lat="49.39357" lon="-0.98549">
        <ele>43.790894</ele>
        <time>2022-08-02T13:00:10.000Z</time>
      </trkpt>
      <trkpt lat="49.39362" lon="-0.98549">
        <ele>43.761356</ele>
        <time>2022-08-02T13:00:11.000Z</time>
      </trkpt>
      <trkpt lat="49.39367" lon="-0.98549">
        <ele>43.733509</ele>
        <time>2022-08-02T13:00:12.000Z</time>
      </trkpt>
      <trkpt lat="49.39373" lon="-0.98549">
        <ele>43.70346</ele>
        <time>2022-08-02T13:00:13.000Z</time>
      </trkpt>
      <trkpt lat="49.39378" lon="-0.98548">
        <ele>43.673967</ele>
        <time>2022-08-02T13:00:14.000Z</time>
      </trkpt>
      <trkpt lat="49.39383" lon="-0.98547">
        <ele>43.643727</ele>
        <time>2022-08-02T13:00:15.000Z</time>
      </trkpt>
      <trkpt lat="49.39389" lon="-0.98546">
        <ele>43.613556</ele>
        <time>2022-08-02T13:00:16.000Z</time>
      </trkpt>
      <trkpt lat="49.39394" lon="-0.98543">
        <ele>43.584103</ele>
        <time>2022-08-02T13:00:17.000Z</time>
      </trkpt>
      <trkpt lat="49.39399" lon="-0.98539">
        <ele>43.551176</ele>
        <time>2022-08-02T13:00:18.000Z</time>
      </trkpt>
      <trkpt lat="49.39405" lon="-0.98535">
        <ele>43.51725</ele>
        <time>2022-08-02T13:00:19.000Z</time>
      </trkpt>
      <trkpt lat="49.39411" lon="-0.98532">
        <ele>43.483226</ele>
        <time>2022-08-02T13:00:20.000Z</time>
      </trkpt>
      <trkpt lat="49.39417" lon="-0.9853">
        <ele>43.451136</ele>
        <time>2022-08-02T13:00:21.000Z</time>
      </trkpt>
      <trkpt lat="49.39423" lon="-0.98529">
        <ele>43.417737</ele>
        <time>2022-08-02T13:00:22.000Z</time>
      </trkpt>
      <trkpt lat="49.39429" lon="-0.98528">
        <ele>43.386019</ele>
        <time>2022-08-02T13:00:23.000Z</time>
      </trkpt>
      <trkpt lat="49.39434" lon="-0.98529">
        <ele>43.356481</ele>
        <time>2022-08-02T13:00:24.000Z</time>
      </trkpt>
      <trkpt lat="49.3944" lon="-0.98529">
        <ele>43.323127</ele>
        <time>2022-08-02T13:00:25.000Z</time>
      </trkpt>
      <trkpt lat="49.39445" lon="-0.9853">
        <ele>43.293589</ele>
        <time>2022-08-02T13:00:26.000Z</time>
      </trkpt>
      <trkpt lat="49.39451" lon="-0.98531">
        <ele>43.263388</ele>
        <time>2022-08-02T13:00:27.000Z</time>
      </trkpt>
      <trkpt lat="49.39457" lon="-0.98531">
        <ele>43.232215</ele>
        <time>2022-08-02T13:00:28.000Z</time>
      </trkpt>
      <trkpt lat="49.39463" lon="-0.98531">
        <ele>43.198908</ele>
        <time>2022-08-02T13:00:29.000Z</time>
      </trkpt>
      <trkpt lat="49.39469" lon="-0.98531">
        <ele>43.16724</ele>
        <time>2022-08-02T13:00:30.000Z</time>
      </trkpt>
      <trkpt lat="49.39475" lon="-0.98531">
        <ele>43.13384</ele>
        <time>2022-08-02T13:00:31.000Z</time>
      </trkpt>
      <trkpt lat="49.3948" lon="-0.98529">
        <ele>43.101916</ele>
        <time>2022-08-02T13:00:32.000Z</time>
      </trkpt>
      <trkpt lat="49.39486" lon="-0.98525">
        <ele>43.073628</ele>
        <time>2022-08-02T13:00:33.000Z</time>
      </trkpt>
      <trkpt lat="49.39491" lon="-0.98522">
        <ele>43.054046</ele>
        <time>2022-08-02T13:00:34.000Z</time>
      </trkpt>
      <trkpt lat="49.39496" lon="-0.98519">
        <ele>43.033247</ele>
        <time>2022-08-02T13:00:35.000Z</time>
      </trkpt>
      <trkpt lat="49.39501" lon="-0.98515">
        <ele>43.012734</ele>
        <time>2022-08-02T13:00:36.000Z</time>
      </trkpt>
      <trkpt lat="49.39506" lon="-0.98512">
        <ele>42.992128</ele>
        <time>2022-08-02T13:00:37.000Z</time>
      </trkpt>
      <trkpt lat="49.39511" lon="-0.98508">
        <ele>42.972134</ele>
        <time>2022-08-02T13:00:38.000Z</time>
      </trkpt>
      <trkpt lat="49.39514" lon="-0.98502">
        <ele>42.953143</ele>
        <time>2022-08-02T13:00:39.000Z</time>
      </trkpt>
      <trkpt lat="49.39516" lon="-0.98496">
        <ele>42.937428</ele>
        <time>2022-08-02T13:00:40.000Z</time>
      </trkpt>
      <trkpt lat="49.39516" lon="-0.98489">
        <ele>42.921364</ele>
        <time>2022-08-02T13:00:41.000Z</time>
      </trkpt>
      <trkpt lat="49.39516" lon="-0.98482">
        <ele>42.904399</ele>
        <time>2022-08-02T13:00:42.000Z</time>
      </trkpt>
      <trkpt lat="49.39515" lon="-0.98475">
        <ele>42.885823</ele>
        <time>2022-08-02T13:00:43.000Z</time>
      </trkpt>
      <trkpt lat="49.39513" lon="-0.98468">
        <ele>42.866769</ele>
        <time>2022-08-02T13:00:44.000Z</time>
      </trkpt>
      <trkpt lat="49.39511" lon="-0.9846">
        <ele>42.847574</ele>
        <time>2022-08-02T13:00:45.000Z</time>
      </trkpt>
      <trkpt lat="49.39509" lon="-0.98453">
        <ele>42.828295</ele>
        <time>2022-08-02T13:00:46.000Z</time>
      </trkpt>
      <trkpt lat="49.39508" lon="-0.98445">
        <ele>42.809573</ele>
        <time>2022-08-02T13:00:47.000Z</time>
      </trkpt>
      <trkpt lat="49.39508" lon="-0.98437">
        <ele>42.790251</ele>
        <time>2022-08-02T13:00:48.000Z</time>
      </trkpt>
      <trkpt lat="49.39508" lon="-0.9843">
        <ele>42.771648</ele>
        <time>2022-08-02T13:00:49.000Z</time>
      </trkpt>
      <trkpt lat="49.39509" lon="-0.98422">
        <ele>42.75246</ele>
        <time>2022-08-02T13:00:50.000Z</time>
      </trkpt>
      <trkpt lat="49.39512" lon="-0.98415">
        <ele>42.731866</ele>
        <time>2022-08-02T13:00:51.000Z</time>
      </trkpt>
      <trkpt lat="49.39515" lon="-0.98407">
        <ele>42.71191</ele>
        <time>2022-08-02T13:00:52.000Z</time>
      </trkpt>
      <trkpt lat="49.39517" lon="-0.984">
        <ele>42.691752</ele>
        <time>2022-08-02T13:00:53.000Z</time>
      </trkpt>
      <trkpt lat="49.39517" lon="-0.98392">
        <ele>42.673439</ele>
        <time>2022-08-02T13:00:54.000Z</time>
      </trkpt>
      <trkpt lat="49.39517" lon="-0.98385">
        <ele>42.654744</ele>
        <time>2022-08-02T13:00:55.000Z</time>
      </trkpt>
      <trkpt lat="49.39516" lon="-0.98378">
        <ele>42.638264</ele>
        <time>2022-08-02T13:00:56.000Z</time>
      </trkpt>
      <trkpt lat="49.39513" lon="-0.98372">
        <ele>42.621404</ele>
        <time>2022-08-02T13:00:57.000Z</time>
      </trkpt>
      <trkpt lat="49.39511" lon="-0.98366">
        <ele>42.604109</ele>
        <time>2022-08-02T13:00:58.000Z</time>
      </trkpt>
      <trkpt lat="49.39509" lon="-0.98359">
        <ele>42.585922</ele>
        <time>2022-08-02T13:00:59.000Z</time>
      </trkpt>
      <trkpt lat="49.39507" lon="-0.98352">
        <ele>42.566868</ele>
        <time>2022-08-02T13:01:00.000Z</time>
      </trkpt>
      <trkpt lat="49.39505" lon="-0.98344">
        <ele>42.546684</ele>
        <time>2022-08-02T13:01:01.000Z</time>
      </trkpt>
      <trkpt lat="49.39503" lon="-0.98336">
        <ele>42.525488</ele>
        <time>2022-08-02T13:01:02.000Z</time>
      </trkpt>
      <trkpt lat="49.39501" lon="-0.98329">
        <ele>42.505108</ele>
        <time>2022-08-02T13:01:03.000Z</time>
      </trkpt>
      <trkpt lat="49.39497" lon="-0.98321">
        <ele>42.483374</ele>
        <time>2022-08-02T13:01:04.000Z</time>
      </trkpt>
      <trkpt lat="49.39494" lon="-0.98314">
        <ele>42.463264</ele>
        <time>2022-08-02T13:01:05.000Z</time>
      </trkpt>
      <trkpt lat="49.39491" lon="-0.98307">
        <ele>42.442927</ele>
        <time>2022-08-02T13:01:06.000Z</time>
      </trkpt>
      <trkpt lat="49.39488" lon="-0.98301">
        <ele>42.422482</ele>
        <time>2022-08-02T13:01:07.000Z</time>
      </trkpt>
      <trkpt lat="49.39484" lon="-0.98294">
        <ele>42.431656</ele>
        <time>2022-08-02T13:01:08.000Z</time>
      </trkpt>
      <trkpt lat="49.39481" lon="-0.98288">
        <ele>42.458003</ele>
        <time>2022-08-02T13:01:09.000Z</time>
      </trkpt>
      <trkpt lat="49.39477" lon="-0.9828">
        <ele>42.485014</ele>
        <time>2022-08-02T13:01:10.000Z</time>
      </trkpt>
      <trkpt lat="49.39475" lon="-0.98273">
        <ele>42.51061</ele>
        <time>2022-08-02T13:01:11.000Z</time>
      </trkpt>
      <trkpt lat="49.39472" lon="-0.98265">
        <ele>42.537448</ele>
        <time>2022-08-02T13:01:12.000Z</time>
      </trkpt>
      <trkpt lat="49.39471" lon="-0.98256">
        <ele>42.564044</ele>
        <time>2022-08-02T13:01:13.000Z</time>
      </trkpt>
      <trkpt lat="49.39471" lon="-0.98247">
        <ele>42.590495</ele>
        <time>2022-08-02T13:01:14.000Z</time>
      </trkpt>
      <trkpt lat="49.39471" lon="-0.98239">
        <ele>42.616644</ele>
        <time>2022-08-02T13:01:15.000Z</time>
      </trkpt>
      <trkpt lat="49.39472" lon="-0.9823">
        <ele>42.643199</ele>
        <time>2022-08-02T13:01:16.000Z</time>
      </trkpt>
      <trkpt lat="49.39474" lon="-0.98222">
        <ele>42.670144</ele>
        <time>2022-08-02T13:01:17.000Z</time>
      </trkpt>
      <trkpt lat="49.39477" lon="-0.98214">
        <ele>42.695686</ele>
        <time>2022-08-02T13:01:18.000Z</time>
      </trkpt>
      <trkpt lat="49.3948" lon="-0.98207">
        <ele>42.72198</ele>
        <time>2022-08-02T13:01:19.000Z</time>
      </trkpt>
      <trkpt lat="49.39484" lon="-0.98201">
        <ele>42.748114</ele>
        <time>2022-08-02T13:01:20.000Z</time>
      </trkpt>
      <trkpt lat="49.39488" lon="-0.98195">
        <ele>42.773471</ele>
        <time>2022-08-02T13:01:21.000Z</time>
      </trkpt>
      <trkpt lat="49.39492" lon="-0.98188">
        <ele>42.799733</ele>
        <time>2022-08-02T13:01:22.000Z</time>
      </trkpt>
      <trkpt lat="49.39495" lon="-0.98181">
        <ele>42.826265</ele>
        <time>2022-08-02T13:01:23.000Z</time>
      </trkpt>
      <trkpt lat="49.39498" lon="-0.98174">
        <ele>42.851806</ele>
        <time>2022-08-02T13:01:24.000Z</time>
      </trkpt>
      <trkpt lat="49.395" lon="-0.98166">
        <ele>42.875997</ele>
        <time>2022-08-02T13:01:25.000Z</time>
      </trkpt>
      <trkpt lat="49.39501" lon="-0.98159">
        <ele>42.899325</ele>
        <time>2022-08-02T13:01:26.000Z</time>
      </trkpt>
      <trkpt lat="49.39502" lon="-0.98151">
        <ele>42.921784</ele>
        <time>2022-08-02T13:01:27.000Z</time>
      </trkpt>
      <trkpt lat="49.39502" lon="-0.98144">
        <ele>42.943169</ele>
        <time>2022-08-02T13:01:28.000Z</time>
      </trkpt>
      <trkpt lat="49.39503" lon="-0.98137">
        <ele>42.964255</ele>
        <time>2022-08-02T13:01:29.000Z</time>
      </trkpt>
      <trkpt lat="49.39503" lon="-0.98131">
        <ele>42.984651</ele>
        <time>2022-08-02T13:01:30.000Z</time>
      </trkpt>
      <trkpt lat="49.39504" lon="-0.98124">
        <ele>43.005873</ele>
        <time>2022-08-02T13:01:31.000Z</time>
      </trkpt>
      <trkpt lat="49.39504" lon="-0.98117">
        <ele>43.026959</ele>
        <time>2022-08-02T13:01:32.000Z</time>
      </trkpt>
      <trkpt lat="49.39504" lon="-0.9811">
        <ele>43.047097</ele>
        <time>2022-08-02T13:01:33.000Z</time>
      </trkpt>
      <trkpt lat="49.39505" lon="-0.98103">
        <ele>43.066983</ele>
        <time>2022-08-02T13:01:34.000Z</time>
      </trkpt>
      <trkpt lat="49.39505" lon="-0.98097">
        <ele>43.08622</ele>
        <time>2022-08-02T13:01:35.000Z</time>
      </trkpt>
      <trkpt lat="49.39504" lon="-0.98091">
        <ele>43.103708</ele>
        <time>2022-08-02T13:01:36.000Z</time>
      </trkpt>
      <trkpt lat="49.39503" lon="-0.98086">
        <ele>43.120754</ele>
        <time>2022-08-02T13:01:37.000Z</time>
      </trkpt>
      <trkpt lat="49.39503" lon="-0.9808">
        <ele>43.136492</ele>
        <time>2022-08-02T13:01:38.000Z</time>
      </trkpt>
      <trkpt lat="49.39502" lon="-0.98075">
        <ele>43.152662</ele>
        <time>2022-08-02T13:01:39.000Z</time>
      </trkpt>
      <trkpt lat="49.39501" lon="-0.9807">
        <ele>43.169686</ele>
        <time>2022-08-02T13:01:40.000Z</time>
      </trkpt>
      <trkpt lat="49.39501" lon="-0.98065">
        <ele>43.185559</ele>
        <time>2022-08-02T13:01:41.000Z</time>
      </trkpt>
      <trkpt lat="49.395" lon="-0.98059">
        <ele>43.201857</ele>
        <time>2022-08-02T13:01:42.000Z</time>
      </trkpt>
      <trkpt lat="49.39499" lon="-0.98055">
        <ele>43.216548</ele>
        <time>2022-08-02T13:01:43.000Z</time>
      </trkpt>
      <trkpt lat="49.39498" lon="-0.9805">
        <ele>43.231347</ele>
        <time>2022-08-02T13:01:44.000Z</time>
      </trkpt>
      <trkpt lat="49.39497" lon="-0.98045">
        <ele>43.250225</ele>
        <time>2022-08-02T13:01:45.000Z</time>
      </trkpt>
      <trkpt lat="49.39495" lon="-0.9804">
        <ele>43.293785</ele>
        <time>2022-08-02T13:01:46.000Z</time>
      </trkpt>
      <trkpt lat="49.39494" lon="-0.98034">
        <ele>43.338113</ele>
        <time>2022-08-02T13:01:47.000Z</time>
      </trkpt>
      <trkpt lat="49.39493" lon="-0.98028">
        <ele>43.3863</ele>
        <time>2022-08-02T13:01:48.000Z</time>
      </trkpt>
      <trkpt lat="49.39492" lon="-0.98023">
        <ele>43.432452</ele>
        <time>2022-08-02T13:01:49.000Z</time>
      </trkpt>
      <trkpt lat="49.3949" lon="-0.98017">
        <ele>43.483551</ele>
        <time>2022-08-02T13:01:50.000Z</time>
      </trkpt>
      <trkpt lat="49.39488" lon="-0.9801">
        <ele>43.536336</ele>
        <time>2022-08-02T13:01:51.000Z</time>
      </trkpt>
      <trkpt lat="49.39486" lon="-0.98003">
        <ele>43.595927</ele>
        <time>2022-08-02T13:01:52.000Z</time>
      </trkpt>
      <trkpt lat="49.39485" lon="-0.97996">
        <ele>43.657679</ele>
        <time>2022-08-02T13:01:53.000Z</time>
      </trkpt>
      <trkpt lat="49.39483" lon="-0.97988">
        <ele>43.720877</ele>
        <time>2022-08-02T13:01:54.000Z</time>
      </trkpt>
      <trkpt lat="49.39481" lon="-0.97981">
        <ele>43.781125</ele>
        <time>2022-08-02T13:01:55.000Z</time>
      </trkpt>
      <trkpt lat="49.39479" lon="-0.97973">
        <ele>43.845049</ele>
        <time>2022-08-02T13:01:56.000Z</time>
      </trkpt>
      <trkpt lat="49.39478" lon="-0.97965">
        <ele>43.910563</ele>
        <time>2022-08-02T13:01:57.000Z</time>
      </trkpt>
      <trkpt lat="49.39477" lon="-0.97957">
        <ele>43.975529</ele>
        <time>2022-08-02T13:01:58.000Z</time>
      </trkpt>
      <trkpt lat="49.39475" lon="-0.97948">
        <ele>44.046455</ele>
        <time>2022-08-02T13:01:59.000Z</time>
      </trkpt>
      <trkpt lat="49.39474" lon="-0.97939">
        <ele>44.115274</ele>
        <time>2022-08-02T13:02:00.000Z</time>
      </trkpt>
      <trkpt lat="49.39473" lon="-0.9793">
        <ele>44.187492</ele>
        <time>2022-08-02T13:02:01.000Z</time>
      </trkpt>
      <trkpt lat="49.39473" lon="-0.97921">
        <ele>44.259684</ele>
        <time>2022-08-02T13:02:02.000Z</time>
      </trkpt>
      <trkpt lat="49.39473" lon="-0.97911">
        <ele>44.332652</ele>
        <time>2022-08-02T13:02:03.000Z</time>
      </trkpt>
      <trkpt lat="49.39474" lon="-0.97902">
        <ele>44.403335</ele>
        <time>2022-08-02T13:02:04.000Z</time>
      </trkpt>
      <trkpt lat="49.39475" lon="-0.97893">
        <ele>44.473696</ele>
        <time>2022-08-02T13:02:05.000Z</time>
      </trkpt>
      <trkpt lat="49.39476" lon="-0.97885">
        <ele>44.543744</ele>
        <time>2022-08-02T13:02:06.000Z</time>
      </trkpt>
      <trkpt lat="49.39477" lon="-0.97876">
        <ele>44.614427</ele>
        <time>2022-08-02T13:02:07.000Z</time>
      </trkpt>
      <trkpt lat="49.39479" lon="-0.97867">
        <ele>44.686849</ele>
        <time>2022-08-02T13:02:08.000Z</time>
      </trkpt>
      <trkpt lat="49.3948" lon="-0.97858">
        <ele>44.759272</ele>
        <time>2022-08-02T13:02:09.000Z</time>
      </trkpt>
      <trkpt lat="49.39482" lon="-0.97849">
        <ele>44.828563</ele>
        <time>2022-08-02T13:02:10.000Z</time>
      </trkpt>
      <trkpt lat="49.39483" lon="-0.9784">
        <ele>44.899489</ele>
        <time>2022-08-02T13:02:11.000Z</time>
      </trkpt>
      <trkpt lat="49.39485" lon="-0.97831">
        <ele>44.971912</ele>
        <time>2022-08-02T13:02:12.000Z</time>
      </trkpt>
      <trkpt lat="49.39485" lon="-0.97822">
        <ele>45.04214</ele>
        <time>2022-08-02T13:02:13.000Z</time>
      </trkpt>
      <trkpt lat="49.39486" lon="-0.97813">
        <ele>45.114042</ele>
        <time>2022-08-02T13:02:14.000Z</time>
      </trkpt>
      <trkpt lat="49.39486" lon="-0.97804">
        <ele>45.182353</ele>
        <time>2022-08-02T13:02:15.000Z</time>
      </trkpt>
      <trkpt lat="49.39485" lon="-0.97796">
        <ele>45.24886</ele>
        <time>2022-08-02T13:02:16.000Z</time>
      </trkpt>
      <trkpt lat="49.39485" lon="-0.97788">
        <ele>45.311882</ele>
        <time>2022-08-02T13:02:17.000Z</time>
      </trkpt>
      <trkpt lat="49.39483" lon="-0.9778">
        <ele>45.373632</ele>
        <time>2022-08-02T13:02:18.000Z</time>
      </trkpt>
      <trkpt lat="49.39482" lon="-0.97772">
        <ele>45.426669</ele>
        <time>2022-08-02T13:02:19.000Z</time>
      </trkpt>
      <trkpt lat="49.39481" lon="-0.97765">
        <ele>45.477031</ele>
        <time>2022-08-02T13:02:20.000Z</time>
      </trkpt>
      <trkpt lat="49.39479" lon="-0.97757">
        <ele>45.52862</ele>
        <time>2022-08-02T13:02:21.000Z</time>
      </trkpt>
      <trkpt lat="49.39477" lon="-0.9775">
        <ele>45.580824</ele>
        <time>2022-08-02T13:02:22.000Z</time>
      </trkpt>
      <trkpt lat="49.39476" lon="-0.97742">
        <ele>45.63259</ele>
        <time>2022-08-02T13:02:23.000Z</time>
      </trkpt>
      <trkpt lat="49.39474" lon="-0.97733">
        <ele>45.690358</ele>
        <time>2022-08-02T13:02:24.000Z</time>
      </trkpt>
      <trkpt lat="49.39473" lon="-0.97725">
        <ele>45.74937</ele>
        <time>2022-08-02T13:02:25.000Z</time>
      </trkpt>
      <trkpt lat="49.39471" lon="-0.97716">
        <ele>45.809627</ele>
        <time>2022-08-02T13:02:26.000Z</time>
      </trkpt>
      <trkpt lat="49.3947" lon="-0.97707">
        <ele>45.868962</ele>
        <time>2022-08-02T13:02:27.000Z</time>
      </trkpt>
      <trkpt lat="49.39469" lon="-0.97698">
        <ele>45.927243</ele>
        <time>2022-08-02T13:02:28.000Z</time>
      </trkpt>
      <trkpt lat="49.39468" lon="-0.97689">
        <ele>45.986212</ele>
        <time>2022-08-02T13:02:29.000Z</time>
      </trkpt>
      <trkpt lat="49.39467" lon="-0.9768">
        <ele>46.045706</ele>
        <time>2022-08-02T13:02:30.000Z</time>
      </trkpt>
      <trkpt lat="49.39467" lon="-0.97671">
        <ele>46.103909</ele>
        <time>2022-08-02T13:02:31.000Z</time>
      </trkpt>
      <trkpt lat="49.39467" lon="-0.97661">
        <ele>46.163974</ele>
        <time>2022-08-02T13:02:32.000Z</time>
      </trkpt>
      <trkpt lat="49.39467" lon="-0.97652">
        <ele>46.223394</ele>
        <time>2022-08-02T13:02:33.000Z</time>
      </trkpt>
      <trkpt lat="49.39467" lon="-0.97643">
        <ele>46.280307</ele>
        <time>2022-08-02T13:02:34.000Z</time>
      </trkpt>
      <trkpt lat="49.39467" lon="-0.97634">
        <ele>46.338435</ele>
        <time>2022-08-02T13:02:35.000Z</time>
      </trkpt>
      <trkpt lat="49.39467" lon="-0.97625">
        <ele>46.396562</ele>
        <time>2022-08-02T13:02:36.000Z</time>
      </trkpt>
      <trkpt lat="49.39467" lon="-0.97616">
        <ele>46.454766</ele>
        <time>2022-08-02T13:02:37.000Z</time>
      </trkpt>
      <trkpt lat="49.39468" lon="-0.97608">
        <ele>46.512418</ele>
        <time>2022-08-02T13:02:38.000Z</time>
      </trkpt>
      <trkpt lat="49.39469" lon="-0.97599">
        <ele>46.568038</ele>
        <time>2022-08-02T13:02:39.000Z</time>
      </trkpt>
      <trkpt lat="49.39471" lon="-0.9759">
        <ele>46.627307</ele>
        <time>2022-08-02T13:02:40.000Z</time>
      </trkpt>
      <trkpt lat="49.39473" lon="-0.97582">
        <ele>46.685682</ele>
        <time>2022-08-02T13:02:41.000Z</time>
      </trkpt>
      <trkpt lat="49.39475" lon="-0.97573">
        <ele>46.74283</ele>
        <time>2022-08-02T13:02:42.000Z</time>
      </trkpt>
      <trkpt lat="49.39477" lon="-0.97565">
        <ele>46.802511</ele>
        <time>2022-08-02T13:02:43.000Z</time>
      </trkpt>
      <trkpt lat="49.39479" lon="-0.97556">
        <ele>46.860556</ele>
        <time>2022-08-02T13:02:44.000Z</time>
      </trkpt>
      <trkpt lat="49.39481" lon="-0.97548">
        <ele>46.918602</ele>
        <time>2022-08-02T13:02:45.000Z</time>
      </trkpt>
      <trkpt lat="49.39483" lon="-0.97539">
        <ele>46.976978</ele>
        <time>2022-08-02T13:02:46.000Z</time>
      </trkpt>
      <trkpt lat="49.39485" lon="-0.97531">
        <ele>47.037259</ele>
        <time>2022-08-02T13:02:47.000Z</time>
      </trkpt>
      <trkpt lat="49.39487" lon="-0.97522">
        <ele>47.098144</ele>
        <time>2022-08-02T13:02:48.000Z</time>
      </trkpt>
      <trkpt lat="49.39489" lon="-0.97513">
        <ele>47.158792</ele>
        <time>2022-08-02T13:02:49.000Z</time>
      </trkpt>
      <trkpt lat="49.39491" lon="-0.97504">
        <ele>47.172887</ele>
        <time>2022-08-02T13:02:50.000Z</time>
      </trkpt>
      <trkpt lat="49.39493" lon="-0.97495">
        <ele>47.168247</ele>
        <time>2022-08-02T13:02:51.000Z</time>
      </trkpt>
      <trkpt lat="49.39494" lon="-0.97486">
        <ele>47.163615</ele>
        <time>2022-08-02T13:02:52.000Z</time>
      </trkpt>
      <trkpt lat="49.39495" lon="-0.97477">
        <ele>47.158869</ele>
        <time>2022-08-02T13:02:53.000Z</time>
      </trkpt>
      <trkpt lat="49.39495" lon="-0.97467">
        <ele>47.154016</ele>
        <time>2022-08-02T13:02:54.000Z</time>
      </trkpt>
      <trkpt lat="49.39496" lon="-0.97458">
        <ele>47.149369</ele>
        <time>2022-08-02T13:02:55.000Z</time>
      </trkpt>
      <trkpt lat="49.39497" lon="-0.97448">
        <ele>47.144623</ele>
        <time>2022-08-02T13:02:56.000Z</time>
      </trkpt>
      <trkpt lat="49.39497" lon="-0.97439">
        <ele>47.139889</ele>
        <time>2022-08-02T13:02:57.000Z</time>
      </trkpt>
      <trkpt lat="49.39497" lon="-0.97431">
        <ele>47.136053</ele>
        <time>2022-08-02T13:02:58.000Z</time>
      </trkpt>
      <trkpt lat="49.39498" lon="-0.9742">
        <ele>47.130294</ele>
        <time>2022-08-02T13:02:59.000Z</time>
      </trkpt>
      <trkpt lat="49.39499" lon="-0.9741">
        <ele>47.12556</ele>
        <time>2022-08-02T13:03:00.000Z</time>
      </trkpt>
      <trkpt lat="49.39499" lon="-0.974">
        <ele>47.120715</ele>
        <time>2022-08-02T13:03:01.000Z</time>
      </trkpt>
      <trkpt lat="49.395" lon="-0.97391">
        <ele>47.115986</ele>
        <time>2022-08-02T13:03:02.000Z</time>
      </trkpt>
      <trkpt lat="49.395" lon="-0.97381">
        <ele>47.111182</ele>
        <time>2022-08-02T13:03:03.000Z</time>
      </trkpt>
      <trkpt lat="49.395" lon="-0.97372">
        <ele>47.106458</ele>
        <time>2022-08-02T13:03:04.000Z</time>
      </trkpt>
      <trkpt lat="49.39501" lon="-0.97362">
        <ele>47.101729</ele>
        <time>2022-08-02T13:03:05.000Z</time>
      </trkpt>
      <trkpt lat="49.39501" lon="-0.97353">
        <ele>47.0969</ele>
        <time>2022-08-02T13:03:06.000Z</time>
      </trkpt>
      <trkpt lat="49.39501" lon="-0.97343">
        <ele>47.092154</ele>
        <time>2022-08-02T13:03:07.000Z</time>
      </trkpt>
      <trkpt lat="49.39502" lon="-0.97334">
        <ele>47.087369</ele>
        <time>2022-08-02T13:03:08.000Z</time>
      </trkpt>
      <trkpt lat="49.39503" lon="-0.97324">
        <ele>47.082524</ele>
        <time>2022-08-02T13:03:09.000Z</time>
      </trkpt>
      <trkpt lat="49.39504" lon="-0.97315">
        <ele>47.077794</ele>
        <time>2022-08-02T13:03:10.000Z</time>
      </trkpt>
      <trkpt lat="49.39505" lon="-0.97305">
        <ele>47.073009</ele>
        <time>2022-08-02T13:03:11.000Z</time>
      </trkpt>
      <trkpt lat="49.39507" lon="-0.97296">
        <ele>47.068226</ele>
        <time>2022-08-02T13:03:12.000Z</time>
      </trkpt>
      <trkpt lat="49.39509" lon="-0.97286">
        <ele>47.063331</ele>
        <time>2022-08-02T13:03:13.000Z</time>
      </trkpt>
      <trkpt lat="49.3951" lon="-0.97277">
        <ele>47.058548</ele>
        <time>2022-08-02T13:03:14.000Z</time>
      </trkpt>
      <trkpt lat="49.39512" lon="-0.97268">
        <ele>47.053765</ele>
        <time>2022-08-02T13:03:15.000Z</time>
      </trkpt>
      <trkpt lat="49.39514" lon="-0.97259">
        <ele>47.048984</ele>
        <time>2022-08-02T13:03:16.000Z</time>
      </trkpt>
      <trkpt lat="49.39516" lon="-0.9725">
        <ele>47.044161</ele>
        <time>2022-08-02T13:03:17.000Z</time>
      </trkpt>
      <trkpt lat="49.39518" lon="-0.9724">
        <ele>47.039315</ele>
        <time>2022-08-02T13:03:18.000Z</time>
      </trkpt>
      <trkpt lat="49.3952" lon="-0.97231">
        <ele>46.975058</ele>
        <time>2022-08-02T13:03:19.000Z</time>
      </trkpt>
      <trkpt lat="49.39522" lon="-0.97222">
        <ele>46.901864</ele>
        <time>2022-08-02T13:03:20.000Z</time>
      </trkpt>
      <trkpt lat="49.39525" lon="-0.97212">
        <ele>46.826251</ele>
        <time>2022-08-02T13:03:21.000Z</time>
      </trkpt>
      <trkpt lat="49.39528" lon="-0.97204">
        <ele>46.752975</ele>
        <time>2022-08-02T13:03:22.000Z</time>
      </trkpt>
      <trkpt lat="49.39532" lon="-0.97196">
        <ele>46.68044</ele>
        <time>2022-08-02T13:03:23.000Z</time>
      </trkpt>
      <trkpt lat="49.39536" lon="-0.97188">
        <ele>46.607685</ele>
        <time>2022-08-02T13:03:24.000Z</time>
      </trkpt>
      <trkpt lat="49.3954" lon="-0.9718">
        <ele>46.532365</ele>
        <time>2022-08-02T13:03:25.000Z</time>
      </trkpt>
      <trkpt lat="49.39544" lon="-0.97171">
        <ele>46.454013</ele>
        <time>2022-08-02T13:03:26.000Z</time>
      </trkpt>
      <trkpt lat="49.39547" lon="-0.97163">
        <ele>46.379449</ele>
        <time>2022-08-02T13:03:27.000Z</time>
      </trkpt>
      <trkpt lat="49.39551" lon="-0.97154">
        <ele>46.300096</ele>
        <time>2022-08-02T13:03:28.000Z</time>
      </trkpt>
      <trkpt lat="49.39554" lon="-0.97144">
        <ele>46.220972</ele>
        <time>2022-08-02T13:03:29.000Z</time>
      </trkpt>
      <trkpt lat="49.39558" lon="-0.97135">
        <ele>46.140934</ele>
        <time>2022-08-02T13:03:30.000Z</time>
      </trkpt>
      <trkpt lat="49.3956" lon="-0.97125">
        <ele>46.065822</ele>
        <time>2022-08-02T13:03:31.000Z</time>
      </trkpt>
      <trkpt lat="49.39564" lon="-0.97116">
        <ele>45.986698</ele>
        <time>2022-08-02T13:03:32.000Z</time>
      </trkpt>
      <trkpt lat="49.39566" lon="-0.97106">
        <ele>45.909083</ele>
        <time>2022-08-02T13:03:33.000Z</time>
      </trkpt>
      <trkpt lat="49.39569" lon="-0.97097">
        <ele>45.8338</ele>
        <time>2022-08-02T13:03:34.000Z</time>
      </trkpt>
      <trkpt lat="49.39572" lon="-0.97087">
        <ele>45.756185</ele>
        <time>2022-08-02T13:03:35.000Z</time>
      </trkpt>
      <trkpt lat="49.39574" lon="-0.97078">
        <ele>45.681903</ele>
        <time>2022-08-02T13:03:36.000Z</time>
      </trkpt>
      <trkpt lat="49.39576" lon="-0.97069">
        <ele>45.607476</ele>
        <time>2022-08-02T13:03:37.000Z</time>
      </trkpt>
      <trkpt lat="49.39579" lon="-0.9706">
        <ele>45.535956</ele>
        <time>2022-08-02T13:03:38.000Z</time>
      </trkpt>
      <trkpt lat="49.39581" lon="-0.97051">
        <ele>45.466227</ele>
        <time>2022-08-02T13:03:39.000Z</time>
      </trkpt>
      <trkpt lat="49.39583" lon="-0.97042">
        <ele>45.395415</ele>
        <time>2022-08-02T13:03:40.000Z</time>
      </trkpt>
      <trkpt lat="49.39586" lon="-0.97034">
        <ele>45.327753</ele>
        <time>2022-08-02T13:03:41.000Z</time>
      </trkpt>
      <trkpt lat="49.39588" lon="-0.97026">
        <ele>45.261611</ele>
        <time>2022-08-02T13:03:42.000Z</time>
      </trkpt>
      <trkpt lat="49.39591" lon="-0.97018">
        <ele>45.195969</ele>
        <time>2022-08-02T13:03:43.000Z</time>
      </trkpt>
      <trkpt lat="49.39593" lon="-0.9701">
        <ele>45.129827</ele>
        <time>2022-08-02T13:03:44.000Z</time>
      </trkpt>
      <trkpt lat="49.39596" lon="-0.97002">
        <ele>45.064184</ele>
        <time>2022-08-02T13:03:45.000Z</time>
      </trkpt>
      <trkpt lat="49.39598" lon="-0.96993">
        <ele>44.996716</ele>
        <time>2022-08-02T13:03:46.000Z</time>
      </trkpt>
      <trkpt lat="49.39601" lon="-0.96985">
        <ele>44.878745</ele>
        <time>2022-08-02T13:03:47.000Z</time>
      </trkpt>
      <trkpt lat="49.39604" lon="-0.96977">
        <ele>44.761571</ele>
        <time>2022-08-02T13:03:48.000Z</time>
      </trkpt>
      <trkpt lat="49.39606" lon="-0.96969">
        <ele>44.643539</ele>
        <time>2022-08-02T13:03:49.000Z</time>
      </trkpt>
      <trkpt lat="49.39609" lon="-0.96961">
        <ele>44.531157</ele>
        <time>2022-08-02T13:03:50.000Z</time>
      </trkpt>
      <trkpt lat="49.39612" lon="-0.96953">
        <ele>44.412662</ele>
        <time>2022-08-02T13:03:51.000Z</time>
      </trkpt>
      <trkpt lat="49.39614" lon="-0.96945">
        <ele>44.298306</ele>
        <time>2022-08-02T13:03:52.000Z</time>
      </trkpt>
      <trkpt lat="49.39616" lon="-0.96936">
        <ele>44.177605</ele>
        <time>2022-08-02T13:03:53.000Z</time>
      </trkpt>
      <trkpt lat="49.39619" lon="-0.96928">
        <ele>44.059681</ele>
        <time>2022-08-02T13:03:54.000Z</time>
      </trkpt>
      <trkpt lat="49.39621" lon="-0.96919">
        <ele>43.93898</ele>
        <time>2022-08-02T13:03:55.000Z</time>
      </trkpt>
      <trkpt lat="49.39624" lon="-0.96911">
        <ele>43.816275</ele>
        <time>2022-08-02T13:03:56.000Z</time>
      </trkpt>
      <trkpt lat="49.39626" lon="-0.96902">
        <ele>43.69084</ele>
        <time>2022-08-02T13:03:57.000Z</time>
      </trkpt>
      <trkpt lat="49.39629" lon="-0.96893">
        <ele>43.568129</ele>
        <time>2022-08-02T13:03:58.000Z</time>
      </trkpt>
      <trkpt lat="49.39631" lon="-0.96884">
        <ele>43.437925</ele>
        <time>2022-08-02T13:03:59.000Z</time>
      </trkpt>
      <trkpt lat="49.39633" lon="-0.96874">
        <ele>43.300682</ele>
        <time>2022-08-02T13:04:00.000Z</time>
      </trkpt>
      <trkpt lat="49.39635" lon="-0.96863">
        <ele>43.159832</ele>
        <time>2022-08-02T13:04:01.000Z</time>
      </trkpt>
      <trkpt lat="49.39636" lon="-0.96852">
        <ele>43.00766</ele>
        <time>2022-08-02T13:04:02.000Z</time>
      </trkpt>
      <trkpt lat="49.39638" lon="-0.9684">
        <ele>42.858018</ele>
        <time>2022-08-02T13:04:03.000Z</time>
      </trkpt>
      <trkpt lat="49.39639" lon="-0.96829">
        <ele>42.713692</ele>
        <time>2022-08-02T13:04:04.000Z</time>
      </trkpt>
      <trkpt lat="49.3964" lon="-0.96819">
        <ele>42.573814</ele>
        <time>2022-08-02T13:04:05.000Z</time>
      </trkpt>
      <trkpt lat="49.39641" lon="-0.96808">
        <ele>42.438049</ele>
        <time>2022-08-02T13:04:06.000Z</time>
      </trkpt>
      <trkpt lat="49.39642" lon="-0.96798">
        <ele>42.308699</ele>
        <time>2022-08-02T13:04:07.000Z</time>
      </trkpt>
      <trkpt lat="49.39644" lon="-0.96789">
        <ele>42.17928</ele>
        <time>2022-08-02T13:04:08.000Z</time>
      </trkpt>
      <trkpt lat="49.39645" lon="-0.96779">
        <ele>42.057307</ele>
        <time>2022-08-02T13:04:09.000Z</time>
      </trkpt>
      <trkpt lat="49.39646" lon="-0.9677">
        <ele>41.932955</ele>
        <time>2022-08-02T13:04:10.000Z</time>
      </trkpt>
      <trkpt lat="49.39646" lon="-0.96761">
        <ele>41.814599</ele>
        <time>2022-08-02T13:04:11.000Z</time>
      </trkpt>
      <trkpt lat="49.39647" lon="-0.96752">
        <ele>41.696454</ele>
        <time>2022-08-02T13:04:12.000Z</time>
      </trkpt>
      <trkpt lat="49.39648" lon="-0.96743">
        <ele>41.577257</ele>
        <time>2022-08-02T13:04:13.000Z</time>
      </trkpt>
      <trkpt lat="49.39648" lon="-0.96733">
        <ele>41.454327</ele>
        <time>2022-08-02T13:04:14.000Z</time>
      </trkpt>
      <trkpt lat="49.39648" lon="-0.96723">
        <ele>41.446851</ele>
        <time>2022-08-02T13:04:15.000Z</time>
      </trkpt>
      <trkpt lat="49.39647" lon="-0.96713">
        <ele>41.487097</ele>
        <time>2022-08-02T13:04:16.000Z</time>
      </trkpt>
      <trkpt lat="49.39646" lon="-0.96704">
        <ele>41.526519</ele>
        <time>2022-08-02T13:04:17.000Z</time>
      </trkpt>
      <trkpt lat="49.39645" lon="-0.96694">
        <ele>41.565598</ele>
        <time>2022-08-02T13:04:18.000Z</time>
      </trkpt>
      <trkpt lat="49.39644" lon="-0.96685">
        <ele>41.603877</ele>
        <time>2022-08-02T13:04:19.000Z</time>
      </trkpt>
      <trkpt lat="49.39642" lon="-0.96677">
        <ele>41.640589</ele>
        <time>2022-08-02T13:04:20.000Z</time>
      </trkpt>
      <trkpt lat="49.3964" lon="-0.96668">
        <ele>41.676319</ele>
        <time>2022-08-02T13:04:21.000Z</time>
      </trkpt>
      <trkpt lat="49.39638" lon="-0.9666">
        <ele>41.71052</ele>
        <time>2022-08-02T13:04:22.000Z</time>
      </trkpt>
      <trkpt lat="49.39636" lon="-0.96653">
        <ele>41.742363</ele>
        <time>2022-08-02T13:04:23.000Z</time>
      </trkpt>
      <trkpt lat="49.39634" lon="-0.96647">
        <ele>41.772476</ele>
        <time>2022-08-02T13:04:24.000Z</time>
      </trkpt>
      <trkpt lat="49.39632" lon="-0.9664">
        <ele>41.801041</ele>
        <time>2022-08-02T13:04:25.000Z</time>
      </trkpt>
      <trkpt lat="49.3963" lon="-0.96634">
        <ele>41.827749</ele>
        <time>2022-08-02T13:04:26.000Z</time>
      </trkpt>
      <trkpt lat="49.39629" lon="-0.96628">
        <ele>41.854872</ele>
        <time>2022-08-02T13:04:27.000Z</time>
      </trkpt>
      <trkpt lat="49.39628" lon="-0.96621">
        <ele>41.884042</ele>
        <time>2022-08-02T13:04:28.000Z</time>
      </trkpt>
      <trkpt lat="49.39627" lon="-0.96614">
        <ele>41.91187</ele>
        <time>2022-08-02T13:04:29.000Z</time>
      </trkpt>
      <trkpt lat="49.39626" lon="-0.96607">
        <ele>41.940228</ele>
        <time>2022-08-02T13:04:30.000Z</time>
      </trkpt>
      <trkpt lat="49.39626" lon="-0.966">
        <ele>41.970742</ele>
        <time>2022-08-02T13:04:31.000Z</time>
      </trkpt>
      <trkpt lat="49.39626" lon="-0.96592">
        <ele>42.003635</ele>
        <time>2022-08-02T13:04:32.000Z</time>
      </trkpt>
      <trkpt lat="49.39626" lon="-0.96583">
        <ele>42.038965</ele>
        <time>2022-08-02T13:04:33.000Z</time>
      </trkpt>
      <trkpt lat="49.39625" lon="-0.96574">
        <ele>42.076372</ele>
        <time>2022-08-02T13:04:34.000Z</time>
      </trkpt>
      <trkpt lat="49.39624" lon="-0.96564">
        <ele>42.116191</ele>
        <time>2022-08-02T13:04:35.000Z</time>
      </trkpt>
      <trkpt lat="49.39623" lon="-0.96555">
        <ele>42.15495</ele>
        <time>2022-08-02T13:04:36.000Z</time>
      </trkpt>
      <trkpt lat="49.39622" lon="-0.96545">
        <ele>42.194832</ele>
        <time>2022-08-02T13:04:37.000Z</time>
      </trkpt>
      <trkpt lat="49.39622" lon="-0.96535">
        <ele>42.234267</ele>
        <time>2022-08-02T13:04:38.000Z</time>
      </trkpt>
      <trkpt lat="49.39622" lon="-0.96526">
        <ele>42.273296</ele>
        <time>2022-08-02T13:04:39.000Z</time>
      </trkpt>
      <trkpt lat="49.39622" lon="-0.96516">
        <ele>42.314717</ele>
        <time>2022-08-02T13:04:40.000Z</time>
      </trkpt>
      <trkpt lat="49.39621" lon="-0.96505">
        <ele>42.356213</ele>
        <time>2022-08-02T13:04:41.000Z</time>
      </trkpt>
      <trkpt lat="49.39621" lon="-0.96495">
        <ele>42.39727</ele>
        <time>2022-08-02T13:04:42.000Z</time>
      </trkpt>
      <trkpt lat="49.39621" lon="-0.96485">
        <ele>42.43886</ele>
        <time>2022-08-02T13:04:43.000Z</time>
      </trkpt>
      <trkpt lat="49.3962" lon="-0.96475">
        <ele>42.480323</ele>
        <time>2022-08-02T13:04:44.000Z</time>
      </trkpt>
      <trkpt lat="49.3962" lon="-0.96465">
        <ele>42.521008</ele>
        <time>2022-08-02T13:04:45.000Z</time>
      </trkpt>
      <trkpt lat="49.3962" lon="-0.96455">
        <ele>42.509508</ele>
        <time>2022-08-02T13:04:46.000Z</time>
      </trkpt>
      <trkpt lat="49.39619" lon="-0.96445">
        <ele>42.444354</ele>
        <time>2022-08-02T13:04:47.000Z</time>
      </trkpt>
      <trkpt lat="49.39619" lon="-0.96436">
        <ele>42.381223</ele>
        <time>2022-08-02T13:04:48.000Z</time>
      </trkpt>
      <trkpt lat="49.3962" lon="-0.96426">
        <ele>42.318019</ele>
        <time>2022-08-02T13:04:49.000Z</time>
      </trkpt>
      <trkpt lat="49.3962" lon="-0.96416">
        <ele>42.256117</ele>
        <time>2022-08-02T13:04:50.000Z</time>
      </trkpt>
      <trkpt lat="49.3962" lon="-0.96407">
        <ele>42.195456</ele>
        <time>2022-08-02T13:04:51.000Z</time>
      </trkpt>
      <trkpt lat="49.39621" lon="-0.96398">
        <ele>42.132974</ele>
        <time>2022-08-02T13:04:52.000Z</time>
      </trkpt>
      <trkpt lat="49.39621" lon="-0.96388">
        <ele>42.071072</ele>
        <time>2022-08-02T13:04:53.000Z</time>
      </trkpt>
      <trkpt lat="49.39622" lon="-0.96378">
        <ele>42.007164</ele>
        <time>2022-08-02T13:04:54.000Z</time>
      </trkpt>
      <trkpt lat="49.39622" lon="-0.96368">
        <ele>41.94201</ele>
        <time>2022-08-02T13:04:55.000Z</time>
      </trkpt>
      <trkpt lat="49.39622" lon="-0.96358">
        <ele>41.875556</ele>
        <time>2022-08-02T13:04:56.000Z</time>
      </trkpt>
      <trkpt lat="49.39623" lon="-0.96348">
        <ele>41.808453</ele>
        <time>2022-08-02T13:04:57.000Z</time>
      </trkpt>
      <trkpt lat="49.39623" lon="-0.96337">
        <ele>41.738461</ele>
        <time>2022-08-02T13:04:58.000Z</time>
      </trkpt>
      <trkpt lat="49.39624" lon="-0.96327">
        <ele>41.671358</ele>
        <time>2022-08-02T13:04:59.000Z</time>
      </trkpt>
      <trkpt lat="49.39624" lon="-0.96316">
        <ele>41.603019</ele>
        <time>2022-08-02T13:05:00.000Z</time>
      </trkpt>
      <trkpt lat="49.39624" lon="-0.96306">
        <ele>41.533314</ele>
        <time>2022-08-02T13:05:01.000Z</time>
      </trkpt>
      <trkpt lat="49.39624" lon="-0.96295">
        <ele>41.463609</ele>
        <time>2022-08-02T13:05:02.000Z</time>
      </trkpt>
      <trkpt lat="49.39625" lon="-0.96284">
        <ele>41.394555</ele>
        <time>2022-08-02T13:05:03.000Z</time>
      </trkpt>
      <trkpt lat="49.39625" lon="-0.96274">
        <ele>41.324564</ele>
        <time>2022-08-02T13:05:04.000Z</time>
      </trkpt>
      <trkpt lat="49.39625" lon="-0.96263">
        <ele>41.256225</ele>
        <time>2022-08-02T13:05:05.000Z</time>
      </trkpt>
      <trkpt lat="49.39625" lon="-0.96252">
        <ele>41.186585</ele>
        <time>2022-08-02T13:05:06.000Z</time>
      </trkpt>
      <trkpt lat="49.39624" lon="-0.96242">
        <ele>41.120094</ele>
        <time>2022-08-02T13:05:07.000Z</time>
      </trkpt>
      <trkpt lat="49.39623" lon="-0.96232">
        <ele>41.05439</ele>
        <time>2022-08-02T13:05:08.000Z</time>
      </trkpt>
      <trkpt lat="49.39622" lon="-0.96222">
        <ele>40.988</ele>
        <time>2022-08-02T13:05:09.000Z</time>
      </trkpt>
      <trkpt lat="49.3962" lon="-0.96213">
        <ele>40.923015</ele>
        <time>2022-08-02T13:05:10.000Z</time>
      </trkpt>
      <trkpt lat="49.39618" lon="-0.96204">
        <ele>40.859834</ele>
        <time>2022-08-02T13:05:11.000Z</time>
      </trkpt>
      <trkpt lat="49.39615" lon="-0.96195">
        <ele>40.796043</ele>
        <time>2022-08-02T13:05:12.000Z</time>
      </trkpt>
      <trkpt lat="49.39613" lon="-0.96186">
        <ele>40.745491</ele>
        <time>2022-08-02T13:05:13.000Z</time>
      </trkpt>
      <trkpt lat="49.3961" lon="-0.96176">
        <ele>40.766168</ele>
        <time>2022-08-02T13:05:14.000Z</time>
      </trkpt>
      <trkpt lat="49.39607" lon="-0.96167">
        <ele>40.78653</ele>
        <time>2022-08-02T13:05:15.000Z</time>
      </trkpt>
      <trkpt lat="49.39605" lon="-0.96158">
        <ele>40.807975</ele>
        <time>2022-08-02T13:05:16.000Z</time>
      </trkpt>
      <trkpt lat="49.39602" lon="-0.96148">
        <ele>40.829064</ele>
        <time>2022-08-02T13:05:17.000Z</time>
      </trkpt>
      <trkpt lat="49.396" lon="-0.96138">
        <ele>40.85063</ele>
        <time>2022-08-02T13:05:18.000Z</time>
      </trkpt>
      <trkpt lat="49.39597" lon="-0.96129">
        <ele>40.872065</ele>
        <time>2022-08-02T13:05:19.000Z</time>
      </trkpt>
      <trkpt lat="49.39596" lon="-0.96119">
        <ele>40.893343</ele>
        <time>2022-08-02T13:05:20.000Z</time>
      </trkpt>
      <trkpt lat="49.39593" lon="-0.96109">
        <ele>40.914325</ele>
        <time>2022-08-02T13:05:21.000Z</time>
      </trkpt>
      <trkpt lat="49.39591" lon="-0.961">
        <ele>40.935951</ele>
        <time>2022-08-02T13:05:22.000Z</time>
      </trkpt>
      <trkpt lat="49.39589" lon="-0.9609">
        <ele>40.957321</ele>
        <time>2022-08-02T13:05:23.000Z</time>
      </trkpt>
      <trkpt lat="49.39587" lon="-0.9608">
        <ele>40.978599</ele>
        <time>2022-08-02T13:05:24.000Z</time>
      </trkpt>
      <trkpt lat="49.39584" lon="-0.9607">
        <ele>41.000464</ele>
        <time>2022-08-02T13:05:25.000Z</time>
      </trkpt>
      <trkpt lat="49.39582" lon="-0.9606">
        <ele>41.022812</ele>
        <time>2022-08-02T13:05:26.000Z</time>
      </trkpt>
      <trkpt lat="49.3958" lon="-0.96049">
        <ele>41.044882</ele>
        <time>2022-08-02T13:05:27.000Z</time>
      </trkpt>
      <trkpt lat="49.39579" lon="-0.96039">
        <ele>41.065904</ele>
        <time>2022-08-02T13:05:28.000Z</time>
      </trkpt>
      <trkpt lat="49.39578" lon="-0.9603">
        <ele>41.085715</ele>
        <time>2022-08-02T13:05:29.000Z</time>
      </trkpt>
      <trkpt lat="49.39576" lon="-0.96021">
        <ele>41.103916</ele>
        <time>2022-08-02T13:05:30.000Z</time>
      </trkpt>
      <trkpt lat="49.39576" lon="-0.96013">
        <ele>41.120517</ele>
        <time>2022-08-02T13:05:31.000Z</time>
      </trkpt>
      <trkpt lat="49.39575" lon="-0.96006">
        <ele>41.1363</ele>
        <time>2022-08-02T13:05:32.000Z</time>
      </trkpt>
      <trkpt lat="49.39575" lon="-0.95998">
        <ele>41.151555</ele>
        <time>2022-08-02T13:05:33.000Z</time>
      </trkpt>
      <trkpt lat="49.39574" lon="-0.95991">
        <ele>41.166634</ele>
        <time>2022-08-02T13:05:34.000Z</time>
      </trkpt>
      <trkpt lat="49.39574" lon="-0.95984">
        <ele>41.181096</ele>
        <time>2022-08-02T13:05:35.000Z</time>
      </trkpt>
      <trkpt lat="49.39574" lon="-0.95977">
        <ele>41.195969</ele>
        <time>2022-08-02T13:05:36.000Z</time>
      </trkpt>
      <trkpt lat="49.39573" lon="-0.9597">
        <ele>41.211348</ele>
        <time>2022-08-02T13:05:37.000Z</time>
      </trkpt>
      <trkpt lat="49.39573" lon="-0.95962">
        <ele>41.226397</ele>
        <time>2022-08-02T13:05:38.000Z</time>
      </trkpt>
      <trkpt lat="49.39573" lon="-0.95955">
        <ele>41.241858</ele>
        <time>2022-08-02T13:05:39.000Z</time>
      </trkpt>
      <trkpt lat="49.39573" lon="-0.95947">
        <ele>41.257732</ele>
        <time>2022-08-02T13:05:40.000Z</time>
      </trkpt>
      <trkpt lat="49.39573" lon="-0.9594">
        <ele>41.273193</ele>
        <time>2022-08-02T13:05:41.000Z</time>
      </trkpt>
      <trkpt lat="49.39573" lon="-0.95932">
        <ele>41.288655</ele>
        <time>2022-08-02T13:05:42.000Z</time>
      </trkpt>
      <trkpt lat="49.39573" lon="-0.95925">
        <ele>41.303704</ele>
        <time>2022-08-02T13:05:43.000Z</time>
      </trkpt>
      <trkpt lat="49.39573" lon="-0.95917">
        <ele>41.321855</ele>
        <time>2022-08-02T13:05:44.000Z</time>
      </trkpt>
      <trkpt lat="49.39573" lon="-0.9591">
        <ele>41.343411</ele>
        <time>2022-08-02T13:05:45.000Z</time>
      </trkpt>
      <trkpt lat="49.39573" lon="-0.95902">
        <ele>41.365247</ele>
        <time>2022-08-02T13:05:46.000Z</time>
      </trkpt>
      <trkpt lat="49.39573" lon="-0.95894">
        <ele>41.386282</ele>
        <time>2022-08-02T13:05:47.000Z</time>
      </trkpt>
      <trkpt lat="49.39572" lon="-0.95887">
        <ele>41.407877</ele>
        <time>2022-08-02T13:05:48.000Z</time>
      </trkpt>
      <trkpt lat="49.39572" lon="-0.95879">
        <ele>41.428873</ele>
        <time>2022-08-02T13:05:49.000Z</time>
      </trkpt>
      <trkpt lat="49.39572" lon="-0.95871">
        <ele>41.450709</ele>
        <time>2022-08-02T13:05:50.000Z</time>
      </trkpt>
      <trkpt lat="49.39573" lon="-0.95863">
        <ele>41.473701</ele>
        <time>2022-08-02T13:05:51.000Z</time>
      </trkpt>
      <trkpt lat="49.39573" lon="-0.95855">
        <ele>41.497809</ele>
        <time>2022-08-02T13:05:52.000Z</time>
      </trkpt>
      <trkpt lat="49.39573" lon="-0.95846">
        <ele>41.523004</ele>
        <time>2022-08-02T13:05:53.000Z</time>
      </trkpt>
      <trkpt lat="49.39574" lon="-0.95836">
        <ele>41.548817</ele>
        <time>2022-08-02T13:05:54.000Z</time>
      </trkpt>
      <trkpt lat="49.39574" lon="-0.95827">
        <ele>41.574292</ele>
        <time>2022-08-02T13:05:55.000Z</time>
      </trkpt>
      <trkpt lat="49.39573" lon="-0.95818">
        <ele>41.600105</ele>
        <time>2022-08-02T13:05:56.000Z</time>
      </trkpt>
      <trkpt lat="49.39573" lon="-0.95809">
        <ele>41.625989</ele>
        <time>2022-08-02T13:05:57.000Z</time>
      </trkpt>
      <trkpt lat="49.39573" lon="-0.958">
        <ele>41.652056</ele>
        <time>2022-08-02T13:05:58.000Z</time>
      </trkpt>
      <trkpt lat="49.39572" lon="-0.9579">
        <ele>41.678123</ele>
        <time>2022-08-02T13:05:59.000Z</time>
      </trkpt>
      <trkpt lat="49.39572" lon="-0.95781">
        <ele>41.704718</ele>
        <time>2022-08-02T13:06:00.000Z</time>
      </trkpt>
      <trkpt lat="49.39572" lon="-0.95771">
        <ele>41.731873</ele>
        <time>2022-08-02T13:06:01.000Z</time>
      </trkpt>
      <trkpt lat="49.39572" lon="-0.95761">
        <ele>41.759028</ele>
        <time>2022-08-02T13:06:02.000Z</time>
      </trkpt>
      <trkpt lat="49.39572" lon="-0.95752">
        <ele>41.785623</ele>
        <time>2022-08-02T13:06:03.000Z</time>
      </trkpt>
      <trkpt lat="49.39572" lon="-0.95742">
        <ele>41.812218</ele>
        <time>2022-08-02T13:06:04.000Z</time>
      </trkpt>
      <trkpt lat="49.39572" lon="-0.95733">
        <ele>41.839653</ele>
        <time>2022-08-02T13:06:05.000Z</time>
      </trkpt>
      <trkpt lat="49.39572" lon="-0.95723">
        <ele>41.866808</ele>
        <time>2022-08-02T13:06:06.000Z</time>
      </trkpt>
      <trkpt lat="49.39572" lon="-0.95713">
        <ele>41.894297</ele>
        <time>2022-08-02T13:06:07.000Z</time>
      </trkpt>
      <trkpt lat="49.39572" lon="-0.95703">
        <ele>41.921731</ele>
        <time>2022-08-02T13:06:08.000Z</time>
      </trkpt>
      <trkpt lat="49.39572" lon="-0.95693">
        <ele>41.949476</ele>
        <time>2022-08-02T13:06:09.000Z</time>
      </trkpt>
      <trkpt lat="49.39572" lon="-0.95684">
        <ele>41.976351</ele>
        <time>2022-08-02T13:06:10.000Z</time>
      </trkpt>
      <trkpt lat="49.39571" lon="-0.95674">
        <ele>42.003071</ele>
        <time>2022-08-02T13:06:11.000Z</time>
      </trkpt>
      <trkpt lat="49.39571" lon="-0.95665">
        <ele>42.029666</ele>
        <time>2022-08-02T13:06:12.000Z</time>
      </trkpt>
      <trkpt lat="49.39571" lon="-0.95655">
        <ele>42.055981</ele>
        <time>2022-08-02T13:06:13.000Z</time>
      </trkpt>
      <trkpt lat="49.39571" lon="-0.95646">
        <ele>42.081457</ele>
        <time>2022-08-02T13:06:14.000Z</time>
      </trkpt>
      <trkpt lat="49.39571" lon="-0.95637">
        <ele>42.109392</ele>
        <time>2022-08-02T13:06:15.000Z</time>
      </trkpt>
      <trkpt lat="49.39571" lon="-0.95628">
        <ele>42.138669</ele>
        <time>2022-08-02T13:06:16.000Z</time>
      </trkpt>
      <trkpt lat="49.39571" lon="-0.95618">
        <ele>42.167912</ele>
        <time>2022-08-02T13:06:17.000Z</time>
      </trkpt>
      <trkpt lat="49.39571" lon="-0.95609">
        <ele>42.197154</ele>
        <time>2022-08-02T13:06:18.000Z</time>
      </trkpt>
      <trkpt lat="49.39571" lon="-0.95599">
        <ele>42.227046</ele>
        <time>2022-08-02T13:06:19.000Z</time>
      </trkpt>
      <trkpt lat="49.39571" lon="-0.95589">
        <ele>42.256289</ele>
        <time>2022-08-02T13:06:20.000Z</time>
      </trkpt>
      <trkpt lat="49.39571" lon="-0.9558">
        <ele>42.286456</ele>
        <time>2022-08-02T13:06:21.000Z</time>
      </trkpt>
      <trkpt lat="49.39571" lon="-0.9557">
        <ele>42.316314</ele>
        <time>2022-08-02T13:06:22.000Z</time>
      </trkpt>
      <trkpt lat="49.39571" lon="-0.9556">
        <ele>42.34648</ele>
        <time>2022-08-02T13:06:23.000Z</time>
      </trkpt>
      <trkpt lat="49.39571" lon="-0.9555">
        <ele>42.376647</ele>
        <time>2022-08-02T13:06:24.000Z</time>
      </trkpt>
      <trkpt lat="49.39571" lon="-0.95541">
        <ele>42.405889</ele>
        <time>2022-08-02T13:06:25.000Z</time>
      </trkpt>
      <trkpt lat="49.39571" lon="-0.95531">
        <ele>42.435167</ele>
        <time>2022-08-02T13:06:26.000Z</time>
      </trkpt>
      <trkpt lat="49.3957" lon="-0.95522">
        <ele>42.463549</ele>
        <time>2022-08-02T13:06:27.000Z</time>
      </trkpt>
      <trkpt lat="49.3957" lon="-0.95513">
        <ele>42.491253</ele>
        <time>2022-08-02T13:06:28.000Z</time>
      </trkpt>
      <trkpt lat="49.3957" lon="-0.95504">
        <ele>42.518956</ele>
        <time>2022-08-02T13:06:29.000Z</time>
      </trkpt>
      <trkpt lat="49.3957" lon="-0.95495">
        <ele>42.546045</ele>
        <time>2022-08-02T13:06:30.000Z</time>
      </trkpt>
      <trkpt lat="49.3957" lon="-0.95486">
        <ele>42.574399</ele>
        <time>2022-08-02T13:06:31.000Z</time>
      </trkpt>
      <trkpt lat="49.3957" lon="-0.95477">
        <ele>42.602103</ele>
        <time>2022-08-02T13:06:32.000Z</time>
      </trkpt>
      <trkpt lat="49.3957" lon="-0.95468">
        <ele>42.63073</ele>
        <time>2022-08-02T13:06:33.000Z</time>
      </trkpt>
      <trkpt lat="49.3957" lon="-0.95459">
        <ele>42.65905</ele>
        <time>2022-08-02T13:06:34.000Z</time>
      </trkpt>
      <trkpt lat="49.3957" lon="-0.95449">
        <ele>42.687369</ele>
        <time>2022-08-02T13:06:35.000Z</time>
      </trkpt>
      <trkpt lat="49.3957" lon="-0.9544">
        <ele>42.715073</ele>
        <time>2022-08-02T13:06:36.000Z</time>
      </trkpt>
      <trkpt lat="49.3957" lon="-0.95432">
        <ele>42.741583</ele>
        <time>2022-08-02T13:06:37.000Z</time>
      </trkpt>
      <trkpt lat="49.39571" lon="-0.95423">
        <ele>42.76843</ele>
        <time>2022-08-02T13:06:38.000Z</time>
      </trkpt>
      <trkpt lat="49.3957" lon="-0.95415">
        <ele>42.794049</ele>
        <time>2022-08-02T13:06:39.000Z</time>
      </trkpt>
      <trkpt lat="49.3957" lon="-0.95406">
        <ele>42.820252</ele>
        <time>2022-08-02T13:06:40.000Z</time>
      </trkpt>
      <trkpt lat="49.39569" lon="-0.95398">
        <ele>42.84585</ele>
        <time>2022-08-02T13:06:41.000Z</time>
      </trkpt>
      <trkpt lat="49.39568" lon="-0.9539">
        <ele>42.871307</ele>
        <time>2022-08-02T13:06:42.000Z</time>
      </trkpt>
      <trkpt lat="49.39567" lon="-0.95382">
        <ele>42.896689</ele>
        <time>2022-08-02T13:06:43.000Z</time>
      </trkpt>
      <trkpt lat="49.39566" lon="-0.95374">
        <ele>42.921983</ele>
        <time>2022-08-02T13:06:44.000Z</time>
      </trkpt>
      <trkpt lat="49.39565" lon="-0.95366">
        <ele>42.947104</ele>
        <time>2022-08-02T13:06:45.000Z</time>
      </trkpt>
      <trkpt lat="49.39564" lon="-0.95358">
        <ele>42.971309</ele>
        <time>2022-08-02T13:06:46.000Z</time>
      </trkpt>
      <trkpt lat="49.39563" lon="-0.9535">
        <ele>42.996293</ele>
        <time>2022-08-02T13:06:47.000Z</time>
      </trkpt>
      <trkpt lat="49.39562" lon="-0.95342">
        <ele>43.020498</ele>
        <time>2022-08-02T13:06:48.000Z</time>
      </trkpt>
      <trkpt lat="49.3956" lon="-0.95334">
        <ele>43.045589</ele>
        <time>2022-08-02T13:06:49.000Z</time>
      </trkpt>
      <trkpt lat="49.3956" lon="-0.95326">
        <ele>43.070407</ele>
        <time>2022-08-02T13:06:50.000Z</time>
      </trkpt>
      <trkpt lat="49.39558" lon="-0.95317">
        <ele>43.09579</ele>
        <time>2022-08-02T13:06:51.000Z</time>
      </trkpt>
      <trkpt lat="49.39557" lon="-0.95309">
        <ele>43.121465</ele>
        <time>2022-08-02T13:06:52.000Z</time>
      </trkpt>
      <trkpt lat="49.39557" lon="-0.95301">
        <ele>43.146582</ele>
        <time>2022-08-02T13:06:53.000Z</time>
      </trkpt>
      <trkpt lat="49.39555" lon="-0.95292">
        <ele>43.17255</ele>
        <time>2022-08-02T13:06:54.000Z</time>
      </trkpt>
      <trkpt lat="49.39554" lon="-0.95284">
        <ele>43.197345</ele>
        <time>2022-08-02T13:06:55.000Z</time>
      </trkpt>
      <trkpt lat="49.39553" lon="-0.95276">
        <ele>43.222037</ele>
        <time>2022-08-02T13:06:56.000Z</time>
      </trkpt>
      <trkpt lat="49.39552" lon="-0.95268">
        <ele>43.246537</ele>
        <time>2022-08-02T13:06:57.000Z</time>
      </trkpt>
      <trkpt lat="49.39551" lon="-0.9526">
        <ele>43.271628</ele>
        <time>2022-08-02T13:06:58.000Z</time>
      </trkpt>
      <trkpt lat="49.3955" lon="-0.95252">
        <ele>43.296935</ele>
        <time>2022-08-02T13:06:59.000Z</time>
      </trkpt>
      <trkpt lat="49.39549" lon="-0.95243">
        <ele>43.323782</ele>
        <time>2022-08-02T13:07:00.000Z</time>
      </trkpt>
      <trkpt lat="49.39548" lon="-0.95234">
        <ele>43.351242</ele>
        <time>2022-08-02T13:07:01.000Z</time>
      </trkpt>
      <trkpt lat="49.39547" lon="-0.95225">
        <ele>43.379757</ele>
        <time>2022-08-02T13:07:02.000Z</time>
      </trkpt>
      <trkpt lat="49.39546" lon="-0.95215">
        <ele>43.408403</ele>
        <time>2022-08-02T13:07:03.000Z</time>
      </trkpt>
      <trkpt lat="49.39544" lon="-0.95206">
        <ele>43.437334</ele>
        <time>2022-08-02T13:07:04.000Z</time>
      </trkpt>
      <trkpt lat="49.39543" lon="-0.95197">
        <ele>43.465942</ele>
        <time>2022-08-02T13:07:05.000Z</time>
      </trkpt>
      <trkpt lat="49.39542" lon="-0.95188">
        <ele>43.493923</ele>
        <time>2022-08-02T13:07:06.000Z</time>
      </trkpt>
      <trkpt lat="49.39541" lon="-0.95179">
        <ele>43.521063</ele>
        <time>2022-08-02T13:07:07.000Z</time>
      </trkpt>
      <trkpt lat="49.39539" lon="-0.9517">
        <ele>43.54791</ele>
        <time>2022-08-02T13:07:08.000Z</time>
      </trkpt>
      <trkpt lat="49.39538" lon="-0.95162">
        <ele>43.57417</ele>
        <time>2022-08-02T13:07:09.000Z</time>
      </trkpt>
      <trkpt lat="49.39537" lon="-0.95153">
        <ele>43.599554</ele>
        <time>2022-08-02T13:07:10.000Z</time>
      </trkpt>
      <trkpt lat="49.39536" lon="-0.95146">
        <ele>43.623176</ele>
        <time>2022-08-02T13:07:11.000Z</time>
      </trkpt>
      <trkpt lat="49.39535" lon="-0.95138">
        <ele>43.646791</ele>
        <time>2022-08-02T13:07:12.000Z</time>
      </trkpt>
      <trkpt lat="49.39534" lon="-0.95131">
        <ele>43.669137</ele>
        <time>2022-08-02T13:07:13.000Z</time>
      </trkpt>
      <trkpt lat="49.39533" lon="-0.95123">
        <ele>43.69248</ele>
        <time>2022-08-02T13:07:14.000Z</time>
      </trkpt>
      <trkpt lat="49.39532" lon="-0.95116">
        <ele>43.714916</ele>
        <time>2022-08-02T13:07:15.000Z</time>
      </trkpt>
      <trkpt lat="49.39531" lon="-0.95108">
        <ele>43.737854</ele>
        <time>2022-08-02T13:07:16.000Z</time>
      </trkpt>
      <trkpt lat="49.3953" lon="-0.95102">
        <ele>43.75619</ele>
        <time>2022-08-02T13:07:17.000Z</time>
      </trkpt>
      <trkpt lat="49.39529" lon="-0.95095">
        <ele>43.770618</ele>
        <time>2022-08-02T13:07:18.000Z</time>
      </trkpt>
      <trkpt lat="49.39528" lon="-0.95087">
        <ele>43.777261</ele>
        <time>2022-08-02T13:07:19.000Z</time>
      </trkpt>
      <trkpt lat="49.39527" lon="-0.9508">
        <ele>43.78403</ele>
        <time>2022-08-02T13:07:20.000Z</time>
      </trkpt>
      <trkpt lat="49.39526" lon="-0.95072">
        <ele>43.790747</ele>
        <time>2022-08-02T13:07:21.000Z</time>
      </trkpt>
      <trkpt lat="49.39525" lon="-0.95063">
        <ele>43.798725</ele>
        <time>2022-08-02T13:07:22.000Z</time>
      </trkpt>
      <trkpt lat="49.39524" lon="-0.95055">
        <ele>43.805519</ele>
        <time>2022-08-02T13:07:23.000Z</time>
      </trkpt>
      <trkpt lat="49.39523" lon="-0.95048">
        <ele>43.812455</ele>
        <time>2022-08-02T13:07:24.000Z</time>
      </trkpt>
      <trkpt lat="49.39522" lon="-0.9504">
        <ele>43.819269</ele>
        <time>2022-08-02T13:07:25.000Z</time>
      </trkpt>
      <trkpt lat="49.39521" lon="-0.95032">
        <ele>43.826294</ele>
        <time>2022-08-02T13:07:26.000Z</time>
      </trkpt>
      <trkpt lat="49.3952" lon="-0.95023">
        <ele>43.833684</ele>
        <time>2022-08-02T13:07:27.000Z</time>
      </trkpt>
      <trkpt lat="49.39519" lon="-0.95015">
        <ele>43.841159</ele>
        <time>2022-08-02T13:07:28.000Z</time>
      </trkpt>
      <trkpt lat="49.39519" lon="-0.95006">
        <ele>43.848612</ele>
        <time>2022-08-02T13:07:29.000Z</time>
      </trkpt>
      <trkpt lat="49.39518" lon="-0.94998">
        <ele>43.856151</ele>
        <time>2022-08-02T13:07:30.000Z</time>
      </trkpt>
      <trkpt lat="49.39518" lon="-0.94989">
        <ele>43.863939</ele>
        <time>2022-08-02T13:07:31.000Z</time>
      </trkpt>
      <trkpt lat="49.39519" lon="-0.9498">
        <ele>43.871738</ele>
        <time>2022-08-02T13:07:32.000Z</time>
      </trkpt>
      <trkpt lat="49.39519" lon="-0.94971">
        <ele>43.879581</ele>
        <time>2022-08-02T13:07:33.000Z</time>
      </trkpt>
      <trkpt lat="49.3952" lon="-0.94962">
        <ele>43.887461</ele>
        <time>2022-08-02T13:07:34.000Z</time>
      </trkpt>
      <trkpt lat="49.39521" lon="-0.94953">
        <ele>43.895</ele>
        <time>2022-08-02T13:07:35.000Z</time>
      </trkpt>
      <trkpt lat="49.39521" lon="-0.94944">
        <ele>43.902634</ele>
        <time>2022-08-02T13:07:36.000Z</time>
      </trkpt>
      <trkpt lat="49.39522" lon="-0.94935">
        <ele>43.910343</ele>
        <time>2022-08-02T13:07:37.000Z</time>
      </trkpt>
      <trkpt lat="49.39522" lon="-0.94927">
        <ele>43.917882</ele>
        <time>2022-08-02T13:07:38.000Z</time>
      </trkpt>
      <trkpt lat="49.39523" lon="-0.94918">
        <ele>43.925527</ele>
        <time>2022-08-02T13:07:39.000Z</time>
      </trkpt>
      <trkpt lat="49.39524" lon="-0.94909">
        <ele>43.933257</ele>
        <time>2022-08-02T13:07:40.000Z</time>
      </trkpt>
      <trkpt lat="49.39525" lon="-0.949">
        <ele>43.940828</ele>
        <time>2022-08-02T13:07:41.000Z</time>
      </trkpt>
      <trkpt lat="49.39525" lon="-0.94891">
        <ele>43.948627</ele>
        <time>2022-08-02T13:07:42.000Z</time>
      </trkpt>
      <trkpt lat="49.39526" lon="-0.94882">
        <ele>43.956528</ele>
        <time>2022-08-02T13:07:43.000Z</time>
      </trkpt>
      <trkpt lat="49.39526" lon="-0.94873">
        <ele>43.964326</ele>
        <time>2022-08-02T13:07:44.000Z</time>
      </trkpt>
      <trkpt lat="49.39527" lon="-0.94864">
        <ele>43.972241</ele>
        <time>2022-08-02T13:07:45.000Z</time>
      </trkpt>
      <trkpt lat="49.39527" lon="-0.94855">
        <ele>43.98022</ele>
        <time>2022-08-02T13:07:46.000Z</time>
      </trkpt>
      <trkpt lat="49.39528" lon="-0.94846">
        <ele>43.988308</ele>
        <time>2022-08-02T13:07:47.000Z</time>
      </trkpt>
      <trkpt lat="49.39528" lon="-0.94836">
        <ele>43.996452</ele>
        <time>2022-08-02T13:07:48.000Z</time>
      </trkpt>
      <trkpt lat="49.39529" lon="-0.94827">
        <ele>44.004553</ele>
        <time>2022-08-02T13:07:49.000Z</time>
      </trkpt>
      <trkpt lat="49.3953" lon="-0.94818">
        <ele>43.949959</ele>
        <time>2022-08-02T13:07:50.000Z</time>
      </trkpt>
      <trkpt lat="49.39531" lon="-0.94808">
        <ele>43.878531</ele>
        <time>2022-08-02T13:07:51.000Z</time>
      </trkpt>
      <trkpt lat="49.39531" lon="-0.94799">
        <ele>43.807224</ele>
        <time>2022-08-02T13:07:52.000Z</time>
      </trkpt>
      <trkpt lat="49.39532" lon="-0.94789">
        <ele>43.733852</ele>
        <time>2022-08-02T13:07:53.000Z</time>
      </trkpt>
      <trkpt lat="49.39533" lon="-0.94779">
        <ele>43.658081</ele>
        <time>2022-08-02T13:07:54.000Z</time>
      </trkpt>
      <trkpt lat="49.39534" lon="-0.94768">
        <ele>43.57954</ele>
        <time>2022-08-02T13:07:55.000Z</time>
      </trkpt>
      <trkpt lat="49.39534" lon="-0.94758">
        <ele>43.500273</ele>
        <time>2022-08-02T13:07:56.000Z</time>
      </trkpt>
      <trkpt lat="49.39534" lon="-0.94747">
        <ele>43.421752</ele>
        <time>2022-08-02T13:07:57.000Z</time>
      </trkpt>
      <trkpt lat="49.39534" lon="-0.94737">
        <ele>43.341812</ele>
        <time>2022-08-02T13:07:58.000Z</time>
      </trkpt>
      <trkpt lat="49.39534" lon="-0.94726">
        <ele>43.263065</ele>
        <time>2022-08-02T13:07:59.000Z</time>
      </trkpt>
      <trkpt lat="49.39533" lon="-0.94716">
        <ele>43.185263</ele>
        <time>2022-08-02T13:08:00.000Z</time>
      </trkpt>
      <trkpt lat="49.39531" lon="-0.94705">
        <ele>43.105424</ele>
        <time>2022-08-02T13:08:01.000Z</time>
      </trkpt>
      <trkpt lat="49.3953" lon="-0.94695">
        <ele>43.027621</ele>
        <time>2022-08-02T13:08:02.000Z</time>
      </trkpt>
      <trkpt lat="49.39529" lon="-0.94685">
        <ele>42.950182</ele>
        <time>2022-08-02T13:08:03.000Z</time>
      </trkpt>
      <trkpt lat="49.39528" lon="-0.94675">
        <ele>42.87238</ele>
        <time>2022-08-02T13:08:04.000Z</time>
      </trkpt>
      <trkpt lat="49.39526" lon="-0.94664">
        <ele>42.793267</ele>
        <time>2022-08-02T13:08:05.000Z</time>
      </trkpt>
      <trkpt lat="49.39525" lon="-0.94654">
        <ele>42.714881</ele>
        <time>2022-08-02T13:08:06.000Z</time>
      </trkpt>
      <trkpt lat="49.39523" lon="-0.94644">
        <ele>42.637947</ele>
        <time>2022-08-02T13:08:07.000Z</time>
      </trkpt>
      <trkpt lat="49.39522" lon="-0.94634">
        <ele>42.563957</ele>
        <time>2022-08-02T13:08:08.000Z</time>
      </trkpt>
      <trkpt lat="49.3952" lon="-0.94625">
        <ele>42.489922</ele>
        <time>2022-08-02T13:08:09.000Z</time>
      </trkpt>
      <trkpt lat="49.39519" lon="-0.94615">
        <ele>42.418126</ele>
        <time>2022-08-02T13:08:10.000Z</time>
      </trkpt>
      <trkpt lat="49.39518" lon="-0.94607">
        <ele>42.351575</ele>
        <time>2022-08-02T13:08:11.000Z</time>
      </trkpt>
      <trkpt lat="49.39517" lon="-0.94598">
        <ele>42.285469</ele>
        <time>2022-08-02T13:08:12.000Z</time>
      </trkpt>
      <trkpt lat="49.39515" lon="-0.9459">
        <ele>42.220797</ele>
        <time>2022-08-02T13:08:13.000Z</time>
      </trkpt>
      <trkpt lat="49.39514" lon="-0.94581">
        <ele>42.156999</ele>
        <time>2022-08-02T13:08:14.000Z</time>
      </trkpt>
      <trkpt lat="49.39513" lon="-0.94573">
        <ele>42.093219</ele>
        <time>2022-08-02T13:08:15.000Z</time>
      </trkpt>
      <trkpt lat="49.39511" lon="-0.94565">
        <ele>42.028239</ele>
        <time>2022-08-02T13:08:16.000Z</time>
      </trkpt>
      <trkpt lat="49.3951" lon="-0.94556">
        <ele>41.963706</ele>
        <time>2022-08-02T13:08:17.000Z</time>
      </trkpt>
      <trkpt lat="49.39509" lon="-0.94547">
        <ele>41.909009</ele>
        <time>2022-08-02T13:08:18.000Z</time>
      </trkpt>
      <trkpt lat="49.39508" lon="-0.94538">
        <ele>41.860583</ele>
        <time>2022-08-02T13:08:19.000Z</time>
      </trkpt>
      <trkpt lat="49.39507" lon="-0.9453">
        <ele>41.812553</ele>
        <time>2022-08-02T13:08:20.000Z</time>
      </trkpt>
      <trkpt lat="49.39506" lon="-0.9452">
        <ele>41.762404</ele>
        <time>2022-08-02T13:08:21.000Z</time>
      </trkpt>
      <trkpt lat="49.39506" lon="-0.94512">
        <ele>41.716099</ele>
        <time>2022-08-02T13:08:22.000Z</time>
      </trkpt>
      <trkpt lat="49.39506" lon="-0.94503">
        <ele>41.67033</ele>
        <time>2022-08-02T13:08:23.000Z</time>
      </trkpt>
      <trkpt lat="49.39507" lon="-0.94495">
        <ele>41.626532</ele>
        <time>2022-08-02T13:08:24.000Z</time>
      </trkpt>
      <trkpt lat="49.39509" lon="-0.94487">
        <ele>41.578958</ele>
        <time>2022-08-02T13:08:25.000Z</time>
      </trkpt>
      <trkpt lat="49.3951" lon="-0.94478">
        <ele>41.529916</ele>
        <time>2022-08-02T13:08:26.000Z</time>
      </trkpt>
      <trkpt lat="49.3951" lon="-0.94469">
        <ele>41.483611</ele>
        <time>2022-08-02T13:08:27.000Z</time>
      </trkpt>
      <trkpt lat="49.3951" lon="-0.94461">
        <ele>41.437843</ele>
        <time>2022-08-02T13:08:28.000Z</time>
      </trkpt>
      <trkpt lat="49.39509" lon="-0.94452">
        <ele>41.39193</ele>
        <time>2022-08-02T13:08:29.000Z</time>
      </trkpt>
      <trkpt lat="49.39509" lon="-0.94444">
        <ele>41.348632</ele>
        <time>2022-08-02T13:08:30.000Z</time>
      </trkpt>
      <trkpt lat="49.39508" lon="-0.94437">
        <ele>41.305889</ele>
        <time>2022-08-02T13:08:31.000Z</time>
      </trkpt>
      <trkpt lat="49.39507" lon="-0.94429">
        <ele>41.26366</ele>
        <time>2022-08-02T13:08:32.000Z</time>
      </trkpt>
      <trkpt lat="49.39506" lon="-0.94422">
        <ele>41.225582</ele>
        <time>2022-08-02T13:08:33.000Z</time>
      </trkpt>
      <trkpt lat="49.39505" lon="-0.94415">
        <ele>41.185622</ele>
        <time>2022-08-02T13:08:34.000Z</time>
      </trkpt>
      <trkpt lat="49.39504" lon="-0.94408">
        <ele>41.149711</ele>
        <time>2022-08-02T13:08:35.000Z</time>
      </trkpt>
      <trkpt lat="49.39502" lon="-0.94402">
        <ele>41.113851</ele>
        <time>2022-08-02T13:08:36.000Z</time>
      </trkpt>
      <trkpt lat="49.395" lon="-0.94396">
        <ele>41.076824</ele>
        <time>2022-08-02T13:08:37.000Z</time>
      </trkpt>
      <trkpt lat="49.39499" lon="-0.9439">
        <ele>41.041464</ele>
        <time>2022-08-02T13:08:38.000Z</time>
      </trkpt>
      <trkpt lat="49.39497" lon="-0.94383">
        <ele>41.000852</ele>
        <time>2022-08-02T13:08:39.000Z</time>
      </trkpt>
      <trkpt lat="49.39495" lon="-0.94375">
        <ele>40.956881</ele>
        <time>2022-08-02T13:08:40.000Z</time>
      </trkpt>
      <trkpt lat="49.39493" lon="-0.94366">
        <ele>40.907755</ele>
        <time>2022-08-02T13:08:41.000Z</time>
      </trkpt>
      <trkpt lat="49.39492" lon="-0.94356">
        <ele>40.852261</ele>
        <time>2022-08-02T13:08:42.000Z</time>
      </trkpt>
      <trkpt lat="49.39489" lon="-0.94346">
        <ele>40.792441</ele>
        <time>2022-08-02T13:08:43.000Z</time>
      </trkpt>
      <trkpt lat="49.39487" lon="-0.94334">
        <ele>40.725698</ele>
        <time>2022-08-02T13:08:44.000Z</time>
      </trkpt>
      <trkpt lat="49.39485" lon="-0.94321">
        <ele>40.655389</ele>
        <time>2022-08-02T13:08:45.000Z</time>
      </trkpt>
      <trkpt lat="49.39482" lon="-0.94309">
        <ele>40.583532</ele>
        <time>2022-08-02T13:08:46.000Z</time>
      </trkpt>
      <trkpt lat="49.3948" lon="-0.94296">
        <ele>40.514516</ele>
        <time>2022-08-02T13:08:47.000Z</time>
      </trkpt>
      <trkpt lat="49.39477" lon="-0.94284">
        <ele>40.473414</ele>
        <time>2022-08-02T13:08:48.000Z</time>
      </trkpt>
      <trkpt lat="49.39476" lon="-0.94273">
        <ele>40.598477</ele>
        <time>2022-08-02T13:08:49.000Z</time>
      </trkpt>
      <trkpt lat="49.39475" lon="-0.94264">
        <ele>40.705972</ele>
        <time>2022-08-02T13:08:50.000Z</time>
      </trkpt>
      <trkpt lat="49.39474" lon="-0.94255">
        <ele>40.800614</ele>
        <time>2022-08-02T13:08:51.000Z</time>
      </trkpt>
      <trkpt lat="49.39474" lon="-0.94248">
        <ele>40.883737</ele>
        <time>2022-08-02T13:08:52.000Z</time>
      </trkpt>
      <trkpt lat="49.39475" lon="-0.94241">
        <ele>40.957761</ele>
        <time>2022-08-02T13:08:53.000Z</time>
      </trkpt>
      <trkpt lat="49.39476" lon="-0.94236">
        <ele>41.023845</ele>
        <time>2022-08-02T13:08:54.000Z</time>
      </trkpt>
      <trkpt lat="49.39477" lon="-0.9423">
        <ele>41.086618</ele>
        <time>2022-08-02T13:08:55.000Z</time>
      </trkpt>
      <trkpt lat="49.39478" lon="-0.94225">
        <ele>41.146291</ele>
        <time>2022-08-02T13:08:56.000Z</time>
      </trkpt>
      <trkpt lat="49.39479" lon="-0.9422">
        <ele>41.204821</ele>
        <time>2022-08-02T13:08:57.000Z</time>
      </trkpt>
      <trkpt lat="49.39479" lon="-0.94216">
        <ele>41.253946</ele>
        <time>2022-08-02T13:08:58.000Z</time>
      </trkpt>
      <trkpt lat="49.3948" lon="-0.9421">
        <ele>41.321108</ele>
        <time>2022-08-02T13:08:59.000Z</time>
      </trkpt>
      <trkpt lat="49.39481" lon="-0.94203">
        <ele>41.401619</ele>
        <time>2022-08-02T13:09:00.000Z</time>
      </trkpt>
      <trkpt lat="49.39482" lon="-0.94198">
        <ele>41.457269</ele>
        <time>2022-08-02T13:09:01.000Z</time>
      </trkpt>
      <trkpt lat="49.39482" lon="-0.94191">
        <ele>41.5282</ele>
        <time>2022-08-02T13:09:02.000Z</time>
      </trkpt>
      <trkpt lat="49.39481" lon="-0.94185">
        <ele>41.59821</ele>
        <time>2022-08-02T13:09:03.000Z</time>
      </trkpt>
      <trkpt lat="49.39481" lon="-0.94179">
        <ele>41.668033</ele>
        <time>2022-08-02T13:09:04.000Z</time>
      </trkpt>
      <trkpt lat="49.39481" lon="-0.94172">
        <ele>41.739148</ele>
        <time>2022-08-02T13:09:05.000Z</time>
      </trkpt>
      <trkpt lat="49.39481" lon="-0.94166">
        <ele>41.807096</ele>
        <time>2022-08-02T13:09:06.000Z</time>
      </trkpt>
      <trkpt lat="49.39481" lon="-0.9416">
        <ele>41.873594</ele>
        <time>2022-08-02T13:09:07.000Z</time>
      </trkpt>
      <trkpt lat="49.3948" lon="-0.94154">
        <ele>41.941835</ele>
        <time>2022-08-02T13:09:08.000Z</time>
      </trkpt>
      <trkpt lat="49.39479" lon="-0.94148">
        <ele>42.007424</ele>
        <time>2022-08-02T13:09:09.000Z</time>
      </trkpt>
      <trkpt lat="49.39479" lon="-0.94141">
        <ele>42.091397</ele>
        <time>2022-08-02T13:09:10.000Z</time>
      </trkpt>
      <trkpt lat="49.39478" lon="-0.94134">
        <ele>42.163618</ele>
        <time>2022-08-02T13:09:11.000Z</time>
      </trkpt>
      <trkpt lat="49.39478" lon="-0.94128">
        <ele>42.235838</ele>
        <time>2022-08-02T13:09:12.000Z</time>
      </trkpt>
      <trkpt lat="49.39477" lon="-0.94121">
        <ele>42.313103</ele>
        <time>2022-08-02T13:09:13.000Z</time>
      </trkpt>
      <trkpt lat="49.39477" lon="-0.94114">
        <ele>42.39417</ele>
        <time>2022-08-02T13:09:14.000Z</time>
      </trkpt>
      <trkpt lat="49.39476" lon="-0.94106">
        <ele>42.477918</ele>
        <time>2022-08-02T13:09:15.000Z</time>
      </trkpt>
      <trkpt lat="49.39476" lon="-0.94098">
        <ele>42.56738</ele>
        <time>2022-08-02T13:09:16.000Z</time>
      </trkpt>
      <trkpt lat="49.39475" lon="-0.94091">
        <ele>42.644532</ele>
        <time>2022-08-02T13:09:17.000Z</time>
      </trkpt>
      <trkpt lat="49.39473" lon="-0.94081">
        <ele>42.759739</ele>
        <time>2022-08-02T13:09:18.000Z</time>
      </trkpt>
      <trkpt lat="49.39472" lon="-0.94074">
        <ele>42.84092</ele>
        <time>2022-08-02T13:09:19.000Z</time>
      </trkpt>
      <trkpt lat="49.3947" lon="-0.94066">
        <ele>42.933382</ele>
        <time>2022-08-02T13:09:20.000Z</time>
      </trkpt>
      <trkpt lat="49.39469" lon="-0.94058">
        <ele>43.026138</ele>
        <time>2022-08-02T13:09:21.000Z</time>
      </trkpt>
      <trkpt lat="49.39467" lon="-0.94051">
        <ele>43.115721</ele>
        <time>2022-08-02T13:09:22.000Z</time>
      </trkpt>
      <trkpt lat="49.39466" lon="-0.94043">
        <ele>43.205305</ele>
        <time>2022-08-02T13:09:23.000Z</time>
      </trkpt>
      <trkpt lat="49.39464" lon="-0.94034">
        <ele>43.311223</ele>
        <time>2022-08-02T13:09:24.000Z</time>
      </trkpt>
      <trkpt lat="49.39462" lon="-0.94026">
        <ele>43.399387</ele>
        <time>2022-08-02T13:09:25.000Z</time>
      </trkpt>
      <trkpt lat="49.39461" lon="-0.94018">
        <ele>43.490027</ele>
        <time>2022-08-02T13:09:26.000Z</time>
      </trkpt>
      <trkpt lat="49.39459" lon="-0.94011">
        <ele>43.58076</ele>
        <time>2022-08-02T13:09:27.000Z</time>
      </trkpt>
      <trkpt lat="49.39457" lon="-0.94003">
        <ele>43.674339</ele>
        <time>2022-08-02T13:09:28.000Z</time>
      </trkpt>
      <trkpt lat="49.39455" lon="-0.93995">
        <ele>43.766305</ele>
        <time>2022-08-02T13:09:29.000Z</time>
      </trkpt>
      <trkpt lat="49.39453" lon="-0.93987">
        <ele>43.860476</ele>
        <time>2022-08-02T13:09:30.000Z</time>
      </trkpt>
      <trkpt lat="49.39452" lon="-0.93979">
        <ele>43.954055</ele>
        <time>2022-08-02T13:09:31.000Z</time>
      </trkpt>
      <trkpt lat="49.3945" lon="-0.9397">
        <ele>44.049701</ele>
        <time>2022-08-02T13:09:32.000Z</time>
      </trkpt>
      <trkpt lat="49.39448" lon="-0.93962">
        <ele>44.14328</ele>
        <time>2022-08-02T13:09:33.000Z</time>
      </trkpt>
      <trkpt lat="49.39446" lon="-0.93954">
        <ele>44.236859</ele>
        <time>2022-08-02T13:09:34.000Z</time>
      </trkpt>
      <trkpt lat="49.39445" lon="-0.93946">
        <ele>44.328534</ele>
        <time>2022-08-02T13:09:35.000Z</time>
      </trkpt>
      <trkpt lat="49.39443" lon="-0.93938">
        <ele>44.423412</ele>
        <time>2022-08-02T13:09:36.000Z</time>
      </trkpt>
      <trkpt lat="49.39442" lon="-0.9393">
        <ele>44.516429</ele>
        <time>2022-08-02T13:09:37.000Z</time>
      </trkpt>
      <trkpt lat="49.3944" lon="-0.93922">
        <ele>44.608395</ele>
        <time>2022-08-02T13:09:38.000Z</time>
      </trkpt>
      <trkpt lat="49.39439" lon="-0.93914">
        <ele>44.701137</ele>
        <time>2022-08-02T13:09:39.000Z</time>
      </trkpt>
      <trkpt lat="49.39437" lon="-0.93906">
        <ele>44.791744</ele>
        <time>2022-08-02T13:09:40.000Z</time>
      </trkpt>
      <trkpt lat="49.39437" lon="-0.93898">
        <ele>44.880235</ele>
        <time>2022-08-02T13:09:41.000Z</time>
      </trkpt>
      <trkpt lat="49.39436" lon="-0.9389">
        <ele>44.967648</ele>
        <time>2022-08-02T13:09:42.000Z</time>
      </trkpt>
      <trkpt lat="49.39435" lon="-0.93883">
        <ele>45.047134</ele>
        <time>2022-08-02T13:09:43.000Z</time>
      </trkpt>
      <trkpt lat="49.39433" lon="-0.93876">
        <ele>45.127624</ele>
        <time>2022-08-02T13:09:44.000Z</time>
      </trkpt>
      <trkpt lat="49.39431" lon="-0.93869">
        <ele>45.20708</ele>
        <time>2022-08-02T13:09:45.000Z</time>
      </trkpt>
      <trkpt lat="49.3943" lon="-0.93863">
        <ele>45.281803</ele>
        <time>2022-08-02T13:09:46.000Z</time>
      </trkpt>
      <trkpt lat="49.39429" lon="-0.93856">
        <ele>45.3542</ele>
        <time>2022-08-02T13:09:47.000Z</time>
      </trkpt>
      <trkpt lat="49.39429" lon="-0.9385">
        <ele>45.421861</ele>
        <time>2022-08-02T13:09:48.000Z</time>
      </trkpt>
      <trkpt lat="49.39427" lon="-0.93844">
        <ele>45.489268</ele>
        <time>2022-08-02T13:09:49.000Z</time>
      </trkpt>
      <trkpt lat="49.39426" lon="-0.93838">
        <ele>45.558758</ele>
        <time>2022-08-02T13:09:50.000Z</time>
      </trkpt>
      <trkpt lat="49.39425" lon="-0.93832">
        <ele>45.624378</ele>
        <time>2022-08-02T13:09:51.000Z</time>
      </trkpt>
      <trkpt lat="49.39425" lon="-0.93827">
        <ele>45.689199</ele>
        <time>2022-08-02T13:09:52.000Z</time>
      </trkpt>
      <trkpt lat="49.39423" lon="-0.93821">
        <ele>45.752942</ele>
        <time>2022-08-02T13:09:53.000Z</time>
      </trkpt>
      <trkpt lat="49.39422" lon="-0.93816">
        <ele>45.81518</ele>
        <time>2022-08-02T13:09:54.000Z</time>
      </trkpt>
      <trkpt lat="49.39421" lon="-0.9381">
        <ele>45.876763</ele>
        <time>2022-08-02T13:09:55.000Z</time>
      </trkpt>
      <trkpt lat="49.3942" lon="-0.93805">
        <ele>45.940506</ele>
        <time>2022-08-02T13:09:56.000Z</time>
      </trkpt>
      <trkpt lat="49.3942" lon="-0.93799">
        <ele>46.002089</ele>
        <time>2022-08-02T13:09:57.000Z</time>
      </trkpt>
      <trkpt lat="49.39419" lon="-0.93794">
        <ele>46.06337</ele>
        <time>2022-08-02T13:09:58.000Z</time>
      </trkpt>
      <trkpt lat="49.39418" lon="-0.93788">
        <ele>46.12767</ele>
        <time>2022-08-02T13:09:59.000Z</time>
      </trkpt>
      <trkpt lat="49.39417" lon="-0.93783">
        <ele>46.18895</ele>
        <time>2022-08-02T13:10:00.000Z</time>
      </trkpt>
      <trkpt lat="49.39416" lon="-0.93777">
        <ele>46.253822</ele>
        <time>2022-08-02T13:10:01.000Z</time>
      </trkpt>
      <trkpt lat="49.39415" lon="-0.93771">
        <ele>46.318693</ele>
        <time>2022-08-02T13:10:02.000Z</time>
      </trkpt>
      <trkpt lat="49.39415" lon="-0.93766">
        <ele>46.382628</ele>
        <time>2022-08-02T13:10:03.000Z</time>
      </trkpt>
      <trkpt lat="49.39414" lon="-0.9376">
        <ele>46.450289</ele>
        <time>2022-08-02T13:10:04.000Z</time>
      </trkpt>
      <trkpt lat="49.39413" lon="-0.93754">
        <ele>46.516222</ele>
        <time>2022-08-02T13:10:05.000Z</time>
      </trkpt>
      <trkpt lat="49.39412" lon="-0.93748">
        <ele>46.560599</ele>
        <time>2022-08-02T13:10:06.000Z</time>
      </trkpt>
      <trkpt lat="49.39411" lon="-0.93742">
        <ele>46.572397</ele>
        <time>2022-08-02T13:10:07.000Z</time>
      </trkpt>
      <trkpt lat="49.3941" lon="-0.93735">
        <ele>46.584603</ele>
        <time>2022-08-02T13:10:08.000Z</time>
      </trkpt>
      <trkpt lat="49.3941" lon="-0.93729">
        <ele>46.59668</ele>
        <time>2022-08-02T13:10:09.000Z</time>
      </trkpt>
      <trkpt lat="49.39409" lon="-0.93723">
        <ele>46.608292</ele>
        <time>2022-08-02T13:10:10.000Z</time>
      </trkpt>
      <trkpt lat="49.39408" lon="-0.93717">
        <ele>46.620315</ele>
        <time>2022-08-02T13:10:11.000Z</time>
      </trkpt>
      <trkpt lat="49.39407" lon="-0.93711">
        <ele>46.631369</ele>
        <time>2022-08-02T13:10:12.000Z</time>
      </trkpt>
      <trkpt lat="49.39406" lon="-0.93705">
        <ele>46.642738</ele>
        <time>2022-08-02T13:10:13.000Z</time>
      </trkpt>
      <trkpt lat="49.39405" lon="-0.937">
        <ele>46.653286</ele>
        <time>2022-08-02T13:10:14.000Z</time>
      </trkpt>
      <trkpt lat="49.39405" lon="-0.93694">
        <ele>46.663412</ele>
        <time>2022-08-02T13:10:15.000Z</time>
      </trkpt>
      <trkpt lat="49.39404" lon="-0.9369">
        <ele>46.671873</ele>
        <time>2022-08-02T13:10:16.000Z</time>
      </trkpt>
      <trkpt lat="49.39403" lon="-0.93683">
        <ele>46.684445</ele>
        <time>2022-08-02T13:10:17.000Z</time>
      </trkpt>
      <trkpt lat="49.39402" lon="-0.93678">
        <ele>46.695375</ele>
        <time>2022-08-02T13:10:18.000Z</time>
      </trkpt>
      <trkpt lat="49.39402" lon="-0.93672">
        <ele>46.706139</ele>
        <time>2022-08-02T13:10:19.000Z</time>
      </trkpt>
      <trkpt lat="49.39401" lon="-0.93666">
        <ele>46.717193</ele>
        <time>2022-08-02T13:10:20.000Z</time>
      </trkpt>
      <trkpt lat="49.394" lon="-0.9366">
        <ele>46.729454</ele>
        <time>2022-08-02T13:10:21.000Z</time>
      </trkpt>
      <trkpt lat="49.39399" lon="-0.93654">
        <ele>46.74088</ele>
        <time>2022-08-02T13:10:22.000Z</time>
      </trkpt>
      <trkpt lat="49.39398" lon="-0.93648">
        <ele>46.753319</ele>
        <time>2022-08-02T13:10:23.000Z</time>
      </trkpt>
      <trkpt lat="49.39397" lon="-0.93641">
        <ele>46.765891</ele>
        <time>2022-08-02T13:10:24.000Z</time>
      </trkpt>
      <trkpt lat="49.39396" lon="-0.93635">
        <ele>46.77869</ele>
        <time>2022-08-02T13:10:25.000Z</time>
      </trkpt>
      <trkpt lat="49.39394" lon="-0.93628">
        <ele>46.791595</ele>
        <time>2022-08-02T13:10:26.000Z</time>
      </trkpt>
      <trkpt lat="49.39393" lon="-0.93622">
        <ele>46.80395</ele>
        <time>2022-08-02T13:10:27.000Z</time>
      </trkpt>
      <trkpt lat="49.39392" lon="-0.93616">
        <ele>46.81639</ele>
        <time>2022-08-02T13:10:28.000Z</time>
      </trkpt>
      <trkpt lat="49.3939" lon="-0.9361">
        <ele>46.828944</ele>
        <time>2022-08-02T13:10:29.000Z</time>
      </trkpt>
      <trkpt lat="49.39389" lon="-0.93603">
        <ele>46.841204</ele>
        <time>2022-08-02T13:10:30.000Z</time>
      </trkpt>
      <trkpt lat="49.39388" lon="-0.93597">
        <ele>46.853107</ele>
        <time>2022-08-02T13:10:31.000Z</time>
      </trkpt>
      <trkpt lat="49.39386" lon="-0.93591">
        <ele>46.865312</ele>
        <time>2022-08-02T13:10:32.000Z</time>
      </trkpt>
      <trkpt lat="49.39385" lon="-0.93586">
        <ele>46.876535</ele>
        <time>2022-08-02T13:10:33.000Z</time>
      </trkpt>
      <trkpt lat="49.39383" lon="-0.9358">
        <ele>46.888392</ele>
        <time>2022-08-02T13:10:34.000Z</time>
      </trkpt>
      <trkpt lat="49.39382" lon="-0.93574">
        <ele>46.900597</ele>
        <time>2022-08-02T13:10:35.000Z</time>
      </trkpt>
      <trkpt lat="49.3938" lon="-0.93568">
        <ele>46.91315</ele>
        <time>2022-08-02T13:10:36.000Z</time>
      </trkpt>
      <trkpt lat="49.39379" lon="-0.93561">
        <ele>46.92559</ele>
        <time>2022-08-02T13:10:37.000Z</time>
      </trkpt>
      <trkpt lat="49.39377" lon="-0.93555">
        <ele>46.938671</ele>
        <time>2022-08-02T13:10:38.000Z</time>
      </trkpt>
      <trkpt lat="49.39376" lon="-0.93549">
        <ele>46.951224</ele>
        <time>2022-08-02T13:10:39.000Z</time>
      </trkpt>
      <trkpt lat="49.39374" lon="-0.93542">
        <ele>46.963953</ele>
        <time>2022-08-02T13:10:40.000Z</time>
      </trkpt>
      <trkpt lat="49.39372" lon="-0.93536">
        <ele>46.976513</ele>
        <time>2022-08-02T13:10:41.000Z</time>
      </trkpt>
      <trkpt lat="49.39371" lon="-0.9353">
        <ele>46.989312</ele>
        <time>2022-08-02T13:10:42.000Z</time>
      </trkpt>
      <trkpt lat="49.39369" lon="-0.93523">
        <ele>47.002745</ele>
        <time>2022-08-02T13:10:43.000Z</time>
      </trkpt>
      <trkpt lat="49.39368" lon="-0.93516">
        <ele>47.016085</ele>
        <time>2022-08-02T13:10:44.000Z</time>
      </trkpt>
      <trkpt lat="49.39367" lon="-0.93509">
        <ele>47.029391</ele>
        <time>2022-08-02T13:10:45.000Z</time>
      </trkpt>
      <trkpt lat="49.39366" lon="-0.93503">
        <ele>47.042452</ele>
        <time>2022-08-02T13:10:46.000Z</time>
      </trkpt>
      <trkpt lat="49.39365" lon="-0.93495">
        <ele>47.056155</ele>
        <time>2022-08-02T13:10:47.000Z</time>
      </trkpt>
      <trkpt lat="49.39365" lon="-0.93488">
        <ele>47.070298</ele>
        <time>2022-08-02T13:10:48.000Z</time>
      </trkpt>
      <trkpt lat="49.39364" lon="-0.9348">
        <ele>47.04925</ele>
        <time>2022-08-02T13:10:49.000Z</time>
      </trkpt>
      <trkpt lat="49.39364" lon="-0.93473">
        <ele>47.006314</ele>
        <time>2022-08-02T13:10:50.000Z</time>
      </trkpt>
      <trkpt lat="49.39363" lon="-0.93464">
        <ele>46.960968</ele>
        <time>2022-08-02T13:10:51.000Z</time>
      </trkpt>
      <trkpt lat="49.39362" lon="-0.93456">
        <ele>46.91641</ele>
        <time>2022-08-02T13:10:52.000Z</time>
      </trkpt>
      <trkpt lat="49.39361" lon="-0.93448">
        <ele>46.87033</ele>
        <time>2022-08-02T13:10:53.000Z</time>
      </trkpt>
      <trkpt lat="49.3936" lon="-0.93439">
        <ele>46.823228</ele>
        <time>2022-08-02T13:10:54.000Z</time>
      </trkpt>
      <trkpt lat="49.3936" lon="-0.93431">
        <ele>46.778773</ele>
        <time>2022-08-02T13:10:55.000Z</time>
      </trkpt>
      <trkpt lat="49.39358" lon="-0.93423">
        <ele>46.73116</ele>
        <time>2022-08-02T13:10:56.000Z</time>
      </trkpt>
      <trkpt lat="49.39358" lon="-0.93414">
        <ele>46.685079</ele>
        <time>2022-08-02T13:10:57.000Z</time>
      </trkpt>
      <trkpt lat="49.39357" lon="-0.93406">
        <ele>46.638359</ele>
        <time>2022-08-02T13:10:58.000Z</time>
      </trkpt>
      <trkpt lat="49.39356" lon="-0.93397">
        <ele>46.590861</ele>
        <time>2022-08-02T13:10:59.000Z</time>
      </trkpt>
      <trkpt lat="49.39356" lon="-0.93389">
        <ele>46.54414</ele>
        <time>2022-08-02T13:11:00.000Z</time>
      </trkpt>
      <trkpt lat="49.39355" lon="-0.9338">
        <ele>46.497718</ele>
        <time>2022-08-02T13:11:01.000Z</time>
      </trkpt>
      <trkpt lat="49.39354" lon="-0.93372">
        <ele>46.450457</ele>
        <time>2022-08-02T13:11:02.000Z</time>
      </trkpt>
      <trkpt lat="49.39353" lon="-0.93363">
        <ele>46.40275</ele>
        <time>2022-08-02T13:11:03.000Z</time>
      </trkpt>
      <trkpt lat="49.39352" lon="-0.93354">
        <ele>46.354574</ele>
        <time>2022-08-02T13:11:04.000Z</time>
      </trkpt>
      <trkpt lat="49.39352" lon="-0.93346">
        <ele>46.306325</ele>
        <time>2022-08-02T13:11:05.000Z</time>
      </trkpt>
      <trkpt lat="49.39351" lon="-0.93337">
        <ele>46.258522</ele>
        <time>2022-08-02T13:11:06.000Z</time>
      </trkpt>
      <trkpt lat="49.3935" lon="-0.93328">
        <ele>46.209946</ele>
        <time>2022-08-02T13:11:07.000Z</time>
      </trkpt>
      <trkpt lat="49.39349" lon="-0.93319">
        <ele>46.161771</ele>
        <time>2022-08-02T13:11:08.000Z</time>
      </trkpt>
      <trkpt lat="49.39348" lon="-0.93311">
        <ele>46.114157</ele>
        <time>2022-08-02T13:11:09.000Z</time>
      </trkpt>
      <trkpt lat="49.39347" lon="-0.93302">
        <ele>46.066196</ele>
        <time>2022-08-02T13:11:10.000Z</time>
      </trkpt>
      <trkpt lat="49.39346" lon="-0.93294">
        <ele>46.019094</ele>
        <time>2022-08-02T13:11:11.000Z</time>
      </trkpt>
      <trkpt lat="49.39344" lon="-0.93285">
        <ele>45.971367</ele>
        <time>2022-08-02T13:11:12.000Z</time>
      </trkpt>
      <trkpt lat="49.39342" lon="-0.93277">
        <ele>45.925208</ele>
        <time>2022-08-02T13:11:13.000Z</time>
      </trkpt>
      <trkpt lat="49.39341" lon="-0.9327">
        <ele>45.880303</ele>
        <time>2022-08-02T13:11:14.000Z</time>
      </trkpt>
      <trkpt lat="49.39339" lon="-0.93262">
        <ele>45.837937</ele>
        <time>2022-08-02T13:11:15.000Z</time>
      </trkpt>
      <trkpt lat="49.39337" lon="-0.93255">
        <ele>45.797717</ele>
        <time>2022-08-02T13:11:16.000Z</time>
      </trkpt>
      <trkpt lat="49.39335" lon="-0.93249">
        <ele>45.757864</ele>
        <time>2022-08-02T13:11:17.000Z</time>
      </trkpt>
      <trkpt lat="49.39333" lon="-0.93242">
        <ele>45.717173</ele>
        <time>2022-08-02T13:11:18.000Z</time>
      </trkpt>
      <trkpt lat="49.39332" lon="-0.93235">
        <ele>45.676318</ele>
        <time>2022-08-02T13:11:19.000Z</time>
      </trkpt>
      <trkpt lat="49.3933" lon="-0.93228">
        <ele>45.635965</ele>
        <time>2022-08-02T13:11:20.000Z</time>
      </trkpt>
      <trkpt lat="49.39327" lon="-0.93221">
        <ele>45.594555</ele>
        <time>2022-08-02T13:11:21.000Z</time>
      </trkpt>
      <trkpt lat="49.39325" lon="-0.93214">
        <ele>45.54784</ele>
        <time>2022-08-02T13:11:22.000Z</time>
      </trkpt>
      <trkpt lat="49.39323" lon="-0.93208">
        <ele>45.491435</ele>
        <time>2022-08-02T13:11:23.000Z</time>
      </trkpt>
      <trkpt lat="49.39321" lon="-0.93201">
        <ele>45.431569</ele>
        <time>2022-08-02T13:11:24.000Z</time>
      </trkpt>
      <trkpt lat="49.39319" lon="-0.93193">
        <ele>45.373171</ele>
        <time>2022-08-02T13:11:25.000Z</time>
      </trkpt>
      <trkpt lat="49.39317" lon="-0.93186">
        <ele>45.312742</ele>
        <time>2022-08-02T13:11:26.000Z</time>
      </trkpt>
      <trkpt lat="49.39314" lon="-0.93178">
        <ele>45.251159</ele>
        <time>2022-08-02T13:11:27.000Z</time>
      </trkpt>
      <trkpt lat="49.39312" lon="-0.93171">
        <ele>45.187906</ele>
        <time>2022-08-02T13:11:28.000Z</time>
      </trkpt>
      <trkpt lat="49.39309" lon="-0.93163">
        <ele>45.126994</ele>
        <time>2022-08-02T13:11:29.000Z</time>
      </trkpt>
      <trkpt lat="49.39307" lon="-0.93156">
        <ele>45.067033</ele>
        <time>2022-08-02T13:11:30.000Z</time>
      </trkpt>
      <trkpt lat="49.39305" lon="-0.93149">
        <ele>45.00545</ele>
        <time>2022-08-02T13:11:31.000Z</time>
      </trkpt>
      <trkpt lat="49.39302" lon="-0.93141">
        <ele>44.945021</ele>
        <time>2022-08-02T13:11:32.000Z</time>
      </trkpt>
      <trkpt lat="49.393" lon="-0.93134">
        <ele>44.886612</ele>
        <time>2022-08-02T13:11:33.000Z</time>
      </trkpt>
      <trkpt lat="49.39298" lon="-0.93127">
        <ele>44.824148</ele>
        <time>2022-08-02T13:11:34.000Z</time>
      </trkpt>
      <trkpt lat="49.39295" lon="-0.9312">
        <ele>44.760622</ele>
        <time>2022-08-02T13:11:35.000Z</time>
      </trkpt>
      <trkpt lat="49.39293" lon="-0.93112">
        <ele>44.698159</ele>
        <time>2022-08-02T13:11:36.000Z</time>
      </trkpt>
      <trkpt lat="49.3929" lon="-0.93104">
        <ele>44.633065</ele>
        <time>2022-08-02T13:11:37.000Z</time>
      </trkpt>
      <trkpt lat="49.39288" lon="-0.93097">
        <ele>44.571959</ele>
        <time>2022-08-02T13:11:38.000Z</time>
      </trkpt>
      <trkpt lat="49.39285" lon="-0.93089">
        <ele>44.50716</ele>
        <time>2022-08-02T13:11:39.000Z</time>
      </trkpt>
      <trkpt lat="49.39282" lon="-0.93082">
        <ele>44.44858</ele>
        <time>2022-08-02T13:11:40.000Z</time>
      </trkpt>
      <trkpt lat="49.3928" lon="-0.93076">
        <ele>44.392498</ele>
        <time>2022-08-02T13:11:41.000Z</time>
      </trkpt>
      <trkpt lat="49.39277" lon="-0.93069">
        <ele>44.336459</ele>
        <time>2022-08-02T13:11:42.000Z</time>
      </trkpt>
      <trkpt lat="49.39275" lon="-0.93064">
        <ele>44.287873</ele>
        <time>2022-08-02T13:11:43.000Z</time>
      </trkpt>
      <trkpt lat="49.39272" lon="-0.93057">
        <ele>44.231834</ele>
        <time>2022-08-02T13:11:44.000Z</time>
      </trkpt>
      <trkpt lat="49.3927" lon="-0.9305">
        <ele>44.173424</ele>
        <time>2022-08-02T13:11:45.000Z</time>
      </trkpt>
      <trkpt lat="49.39267" lon="-0.93043">
        <ele>44.110531</ele>
        <time>2022-08-02T13:11:46.000Z</time>
      </trkpt>
      <trkpt lat="49.39265" lon="-0.93036">
        <ele>44.05195</ele>
        <time>2022-08-02T13:11:47.000Z</time>
      </trkpt>
      <trkpt lat="49.39262" lon="-0.93029">
        <ele>43.992641</ele>
        <time>2022-08-02T13:11:48.000Z</time>
      </trkpt>
      <trkpt lat="49.39259" lon="-0.93022">
        <ele>43.929748</ele>
        <time>2022-08-02T13:11:49.000Z</time>
      </trkpt>
      <trkpt lat="49.39257" lon="-0.93015">
        <ele>43.868641</ele>
        <time>2022-08-02T13:11:50.000Z</time>
      </trkpt>
      <trkpt lat="49.39255" lon="-0.93007">
        <ele>43.807058</ele>
        <time>2022-08-02T13:11:51.000Z</time>
      </trkpt>
      <trkpt lat="49.39252" lon="-0.93">
        <ele>43.744467</ele>
        <time>2022-08-02T13:11:52.000Z</time>
      </trkpt>
      <trkpt lat="49.3925" lon="-0.92992">
        <ele>43.680811</ele>
        <time>2022-08-02T13:11:53.000Z</time>
      </trkpt>
      <trkpt lat="49.39248" lon="-0.92984">
        <ele>43.6163</ele>
        <time>2022-08-02T13:11:54.000Z</time>
      </trkpt>
      <trkpt lat="49.39246" lon="-0.92976">
        <ele>43.55179</ele>
        <time>2022-08-02T13:11:55.000Z</time>
      </trkpt>
      <trkpt lat="49.39243" lon="-0.92968">
        <ele>43.470909</ele>
        <time>2022-08-02T13:11:56.000Z</time>
      </trkpt>
      <trkpt lat="49.39241" lon="-0.9296">
        <ele>43.367783</ele>
        <time>2022-08-02T13:11:57.000Z</time>
      </trkpt>
      <trkpt lat="49.39239" lon="-0.92952">
        <ele>43.259408</ele>
        <time>2022-08-02T13:11:58.000Z</time>
      </trkpt>
      <trkpt lat="49.39237" lon="-0.92944">
        <ele>43.154974</ele>
        <time>2022-08-02T13:11:59.000Z</time>
      </trkpt>
      <trkpt lat="49.39234" lon="-0.92936">
        <ele>43.039797</ele>
        <time>2022-08-02T13:12:00.000Z</time>
      </trkpt>
      <trkpt lat="49.39232" lon="-0.92927">
        <ele>42.92143</ele>
        <time>2022-08-02T13:12:01.000Z</time>
      </trkpt>
      <trkpt lat="49.3923" lon="-0.92917">
        <ele>42.797205</ele>
        <time>2022-08-02T13:12:02.000Z</time>
      </trkpt>
      <trkpt lat="49.39229" lon="-0.92907">
        <ele>42.6733</ele>
        <time>2022-08-02T13:12:03.000Z</time>
      </trkpt>
      <trkpt lat="49.39227" lon="-0.92897">
        <ele>42.544632</ele>
        <time>2022-08-02T13:12:04.000Z</time>
      </trkpt>
      <trkpt lat="49.39226" lon="-0.92887">
        <ele>42.415965</ele>
        <time>2022-08-02T13:12:05.000Z</time>
      </trkpt>
      <trkpt lat="49.39225" lon="-0.92876">
        <ele>42.281274</ele>
        <time>2022-08-02T13:12:06.000Z</time>
      </trkpt>
      <trkpt lat="49.39223" lon="-0.92865">
        <ele>42.144245</ele>
        <time>2022-08-02T13:12:07.000Z</time>
      </trkpt>
      <trkpt lat="49.39222" lon="-0.92854">
        <ele>42.005208</ele>
        <time>2022-08-02T13:12:08.000Z</time>
      </trkpt>
      <trkpt lat="49.39221" lon="-0.92842">
        <ele>41.864483</ele>
        <time>2022-08-02T13:12:09.000Z</time>
      </trkpt>
      <trkpt lat="49.3922" lon="-0.92831">
        <ele>41.720267</ele>
        <time>2022-08-02T13:12:10.000Z</time>
      </trkpt>
      <trkpt lat="49.39219" lon="-0.92819">
        <ele>41.579439</ele>
        <time>2022-08-02T13:12:11.000Z</time>
      </trkpt>
      <trkpt lat="49.39217" lon="-0.92808">
        <ele>41.435223</ele>
        <time>2022-08-02T13:12:12.000Z</time>
      </trkpt>
      <trkpt lat="49.39215" lon="-0.92796">
        <ele>41.291007</ele>
        <time>2022-08-02T13:12:13.000Z</time>
      </trkpt>
      <trkpt lat="49.39214" lon="-0.92785">
        <ele>41.14424</ele>
        <time>2022-08-02T13:12:14.000Z</time>
      </trkpt>
      <trkpt lat="49.39213" lon="-0.92773">
        <ele>41.000024</ele>
        <time>2022-08-02T13:12:15.000Z</time>
      </trkpt>
      <trkpt lat="49.39211" lon="-0.92761">
        <ele>40.853408</ele>
        <time>2022-08-02T13:12:16.000Z</time>
      </trkpt>
      <trkpt lat="49.39209" lon="-0.9275">
        <ele>40.709192</ele>
        <time>2022-08-02T13:12:17.000Z</time>
      </trkpt>
      <trkpt lat="49.39208" lon="-0.92739">
        <ele>40.570966</ele>
        <time>2022-08-02T13:12:18.000Z</time>
      </trkpt>
      <trkpt lat="49.39207" lon="-0.92728">
        <ele>40.437187</ele>
        <time>2022-08-02T13:12:19.000Z</time>
      </trkpt>
      <trkpt lat="49.39205" lon="-0.92717">
        <ele>40.302496</ele>
        <time>2022-08-02T13:12:20.000Z</time>
      </trkpt>
      <trkpt lat="49.39205" lon="-0.92706">
        <ele>40.167752</ele>
        <time>2022-08-02T13:12:21.000Z</time>
      </trkpt>
      <trkpt lat="49.39204" lon="-0.92696">
        <ele>40.093555</ele>
        <time>2022-08-02T13:12:22.000Z</time>
      </trkpt>
      <trkpt lat="49.39203" lon="-0.92685">
        <ele>40.047167</ele>
        <time>2022-08-02T13:12:23.000Z</time>
      </trkpt>
      <trkpt lat="49.39203" lon="-0.92674">
        <ele>39.999326</ele>
        <time>2022-08-02T13:12:24.000Z</time>
      </trkpt>
      <trkpt lat="49.39201" lon="-0.92663">
        <ele>39.950416</ele>
        <time>2022-08-02T13:12:25.000Z</time>
      </trkpt>
      <trkpt lat="49.39201" lon="-0.92653">
        <ele>39.90339</ele>
        <time>2022-08-02T13:12:26.000Z</time>
      </trkpt>
      <trkpt lat="49.392" lon="-0.92642">
        <ele>39.855771</ele>
        <time>2022-08-02T13:12:27.000Z</time>
      </trkpt>
      <trkpt lat="49.39199" lon="-0.92631">
        <ele>39.808501</ele>
        <time>2022-08-02T13:12:28.000Z</time>
      </trkpt>
      <trkpt lat="49.39199" lon="-0.92621">
        <ele>39.760756</ele>
        <time>2022-08-02T13:12:29.000Z</time>
      </trkpt>
      <trkpt lat="49.39199" lon="-0.9261">
        <ele>39.713529</ele>
        <time>2022-08-02T13:12:30.000Z</time>
      </trkpt>
      <trkpt lat="49.39199" lon="-0.92599">
        <ele>39.667106</ele>
        <time>2022-08-02T13:12:31.000Z</time>
      </trkpt>
      <trkpt lat="49.392" lon="-0.92589">
        <ele>39.620717</ele>
        <time>2022-08-02T13:12:32.000Z</time>
      </trkpt>
      <trkpt lat="49.392" lon="-0.92579">
        <ele>39.575075</ele>
        <time>2022-08-02T13:12:33.000Z</time>
      </trkpt>
      <trkpt lat="49.392" lon="-0.92568">
        <ele>39.530055</ele>
        <time>2022-08-02T13:12:34.000Z</time>
      </trkpt>
      <trkpt lat="49.39201" lon="-0.92558">
        <ele>39.484548</ele>
        <time>2022-08-02T13:12:35.000Z</time>
      </trkpt>
      <trkpt lat="49.39201" lon="-0.92548">
        <ele>39.439529</ele>
        <time>2022-08-02T13:12:36.000Z</time>
      </trkpt>
      <trkpt lat="49.39201" lon="-0.92538">
        <ele>39.395392</ele>
        <time>2022-08-02T13:12:37.000Z</time>
      </trkpt>
      <trkpt lat="49.39201" lon="-0.92528">
        <ele>39.351172</ele>
        <time>2022-08-02T13:12:38.000Z</time>
      </trkpt>
      <trkpt lat="49.39201" lon="-0.92518">
        <ele>39.306988</ele>
        <time>2022-08-02T13:12:39.000Z</time>
      </trkpt>
      <trkpt lat="49.39202" lon="-0.92508">
        <ele>39.264568</ele>
        <time>2022-08-02T13:12:40.000Z</time>
      </trkpt>
      <trkpt lat="49.39202" lon="-0.92498">
        <ele>39.220683</ele>
        <time>2022-08-02T13:12:41.000Z</time>
      </trkpt>
      <trkpt lat="49.39203" lon="-0.92489">
        <ele>39.178665</ele>
        <time>2022-08-02T13:12:42.000Z</time>
      </trkpt>
      <trkpt lat="49.39203" lon="-0.92479">
        <ele>39.135411</ele>
        <time>2022-08-02T13:12:43.000Z</time>
      </trkpt>
      <trkpt lat="49.39203" lon="-0.92469">
        <ele>39.09255</ele>
        <time>2022-08-02T13:12:44.000Z</time>
      </trkpt>
      <trkpt lat="49.39203" lon="-0.9246">
        <ele>39.05062</ele>
        <time>2022-08-02T13:12:45.000Z</time>
      </trkpt>
      <trkpt lat="49.39202" lon="-0.92451">
        <ele>39.009299</ele>
        <time>2022-08-02T13:12:46.000Z</time>
      </trkpt>
      <trkpt lat="49.39201" lon="-0.92441">
        <ele>38.967886</ele>
        <time>2022-08-02T13:12:47.000Z</time>
      </trkpt>
      <trkpt lat="49.39199" lon="-0.92433">
        <ele>38.926031</ele>
        <time>2022-08-02T13:12:48.000Z</time>
      </trkpt>
      <trkpt lat="49.39196" lon="-0.92424">
        <ele>38.908064</ele>
        <time>2022-08-02T13:12:49.000Z</time>
      </trkpt>
      <trkpt lat="49.39192" lon="-0.92417">
        <ele>38.909445</ele>
        <time>2022-08-02T13:12:50.000Z</time>
      </trkpt>
      <trkpt lat="49.39189" lon="-0.9241">
        <ele>38.910704</ele>
        <time>2022-08-02T13:12:51.000Z</time>
      </trkpt>
      <trkpt lat="49.39185" lon="-0.92403">
        <ele>38.912062</ele>
        <time>2022-08-02T13:12:52.000Z</time>
      </trkpt>
      <trkpt lat="49.39181" lon="-0.92396">
        <ele>38.913342</ele>
        <time>2022-08-02T13:12:53.000Z</time>
      </trkpt>
      <trkpt lat="49.39176" lon="-0.9239">
        <ele>38.914609</ele>
        <time>2022-08-02T13:12:54.000Z</time>
      </trkpt>
      <trkpt lat="49.39172" lon="-0.92384">
        <ele>38.915905</ele>
        <time>2022-08-02T13:12:55.000Z</time>
      </trkpt>
      <trkpt lat="49.39168" lon="-0.92379">
        <ele>38.917098</ele>
        <time>2022-08-02T13:12:56.000Z</time>
      </trkpt>
      <trkpt lat="49.39164" lon="-0.92373">
        <ele>38.918336</ele>
        <time>2022-08-02T13:12:57.000Z</time>
      </trkpt>
      <trkpt lat="49.39159" lon="-0.92367">
        <ele>38.919547</ele>
        <time>2022-08-02T13:12:58.000Z</time>
      </trkpt>
      <trkpt lat="49.39155" lon="-0.92362">
        <ele>38.920766</ele>
        <time>2022-08-02T13:12:59.000Z</time>
      </trkpt>
      <trkpt lat="49.39151" lon="-0.92356">
        <ele>38.921975</ele>
        <time>2022-08-02T13:13:00.000Z</time>
      </trkpt>
      <trkpt lat="49.39147" lon="-0.92351">
        <ele>38.923119</ele>
        <time>2022-08-02T13:13:01.000Z</time>
      </trkpt>
      <trkpt lat="49.39143" lon="-0.92345">
        <ele>38.924347</ele>
        <time>2022-08-02T13:13:02.000Z</time>
      </trkpt>
      <trkpt lat="49.39139" lon="-0.92339">
        <ele>38.925521</ele>
        <time>2022-08-02T13:13:03.000Z</time>
      </trkpt>
      <trkpt lat="49.39135" lon="-0.92334">
        <ele>38.926721</ele>
        <time>2022-08-02T13:13:04.000Z</time>
      </trkpt>
      <trkpt lat="49.39131" lon="-0.92329">
        <ele>38.927877</ele>
        <time>2022-08-02T13:13:05.000Z</time>
      </trkpt>
      <trkpt lat="49.39126" lon="-0.92324">
        <ele>38.929125</ele>
        <time>2022-08-02T13:13:06.000Z</time>
      </trkpt>
      <trkpt lat="49.39122" lon="-0.92319">
        <ele>38.930263</ele>
        <time>2022-08-02T13:13:07.000Z</time>
      </trkpt>
      <trkpt lat="49.39118" lon="-0.92315">
        <ele>38.931376</ele>
        <time>2022-08-02T13:13:08.000Z</time>
      </trkpt>
      <trkpt lat="49.39114" lon="-0.9231">
        <ele>38.932532</ele>
        <time>2022-08-02T13:13:09.000Z</time>
      </trkpt>
      <trkpt lat="49.39109" lon="-0.92305">
        <ele>38.933732</ele>
        <time>2022-08-02T13:13:10.000Z</time>
      </trkpt>
      <trkpt lat="49.39105" lon="-0.923">
        <ele>38.934879</ele>
        <time>2022-08-02T13:13:11.000Z</time>
      </trkpt>
      <trkpt lat="49.39101" lon="-0.92295">
        <ele>38.936039</ele>
        <time>2022-08-02T13:13:12.000Z</time>
      </trkpt>
      <trkpt lat="49.39097" lon="-0.92289">
        <ele>38.937213</ele>
        <time>2022-08-02T13:13:13.000Z</time>
      </trkpt>
      <trkpt lat="49.39094" lon="-0.92282">
        <ele>38.938405</ele>
        <time>2022-08-02T13:13:14.000Z</time>
      </trkpt>
      <trkpt lat="49.3909" lon="-0.92276">
        <ele>38.939634</ele>
        <time>2022-08-02T13:13:15.000Z</time>
      </trkpt>
      <trkpt lat="49.39087" lon="-0.9227">
        <ele>38.94071</ele>
        <time>2022-08-02T13:13:16.000Z</time>
      </trkpt>
      <trkpt lat="49.39084" lon="-0.92263">
        <ele>38.94195</ele>
        <time>2022-08-02T13:13:17.000Z</time>
      </trkpt>
      <trkpt lat="49.3908" lon="-0.92257">
        <ele>38.943101</ele>
        <time>2022-08-02T13:13:18.000Z</time>
      </trkpt>
      <trkpt lat="49.39077" lon="-0.92251">
        <ele>38.944219</ele>
        <time>2022-08-02T13:13:19.000Z</time>
      </trkpt>
      <trkpt lat="49.39074" lon="-0.92245">
        <ele>38.945389</ele>
        <time>2022-08-02T13:13:20.000Z</time>
      </trkpt>
      <trkpt lat="49.3907" lon="-0.92238">
        <ele>38.946593</ele>
        <time>2022-08-02T13:13:21.000Z</time>
      </trkpt>
      <trkpt lat="49.39067" lon="-0.92231">
        <ele>38.962428</ele>
        <time>2022-08-02T13:13:22.000Z</time>
      </trkpt>
      <trkpt lat="49.39064" lon="-0.92224">
        <ele>38.98025</ele>
        <time>2022-08-02T13:13:23.000Z</time>
      </trkpt>
      <trkpt lat="49.3906" lon="-0.92217">
        <ele>38.999039</ele>
        <time>2022-08-02T13:13:24.000Z</time>
      </trkpt>
      <trkpt lat="49.39057" lon="-0.9221">
        <ele>39.017042</ele>
        <time>2022-08-02T13:13:25.000Z</time>
      </trkpt>
      <trkpt lat="49.39054" lon="-0.92203">
        <ele>39.036689</ele>
        <time>2022-08-02T13:13:26.000Z</time>
      </trkpt>
      <trkpt lat="49.39051" lon="-0.92195">
        <ele>39.05613</ele>
        <time>2022-08-02T13:13:27.000Z</time>
      </trkpt>
      <trkpt lat="49.39047" lon="-0.92187">
        <ele>39.076116</ele>
        <time>2022-08-02T13:13:28.000Z</time>
      </trkpt>
      <trkpt lat="49.39044" lon="-0.9218">
        <ele>39.095557</ele>
        <time>2022-08-02T13:13:29.000Z</time>
      </trkpt>
      <trkpt lat="49.39041" lon="-0.92172">
        <ele>39.115572</ele>
        <time>2022-08-02T13:13:30.000Z</time>
      </trkpt>
      <trkpt lat="49.39038" lon="-0.92165">
        <ele>39.134143</ele>
        <time>2022-08-02T13:13:31.000Z</time>
      </trkpt>
      <trkpt lat="49.39035" lon="-0.92157">
        <ele>39.154678</ele>
        <time>2022-08-02T13:13:32.000Z</time>
      </trkpt>
      <trkpt lat="49.39032" lon="-0.92149">
        <ele>39.173883</ele>
        <time>2022-08-02T13:13:33.000Z</time>
      </trkpt>
      <trkpt lat="49.3903" lon="-0.9214">
        <ele>39.193132</ele>
        <time>2022-08-02T13:13:34.000Z</time>
      </trkpt>
      <trkpt lat="49.39028" lon="-0.92132">
        <ele>39.211539</ele>
        <time>2022-08-02T13:13:35.000Z</time>
      </trkpt>
      <trkpt lat="49.39026" lon="-0.92124">
        <ele>39.229628</ele>
        <time>2022-08-02T13:13:36.000Z</time>
      </trkpt>
      <trkpt lat="49.39024" lon="-0.92116">
        <ele>39.247919</ele>
        <time>2022-08-02T13:13:37.000Z</time>
      </trkpt>
      <trkpt lat="49.39022" lon="-0.92108">
        <ele>39.266412</ele>
        <time>2022-08-02T13:13:38.000Z</time>
      </trkpt>
      <trkpt lat="49.39021" lon="-0.921">
        <ele>39.284182</ele>
        <time>2022-08-02T13:13:39.000Z</time>
      </trkpt>
      <trkpt lat="49.39019" lon="-0.92092">
        <ele>39.302473</ele>
        <time>2022-08-02T13:13:40.000Z</time>
      </trkpt>
      <trkpt lat="49.39017" lon="-0.92085">
        <ele>39.32008</ele>
        <time>2022-08-02T13:13:41.000Z</time>
      </trkpt>
      <trkpt lat="49.39015" lon="-0.92078">
        <ele>39.336768</ele>
        <time>2022-08-02T13:13:42.000Z</time>
      </trkpt>
      <trkpt lat="49.39013" lon="-0.92071">
        <ele>39.352072</ele>
        <time>2022-08-02T13:13:43.000Z</time>
      </trkpt>
      <trkpt lat="49.39011" lon="-0.92065">
        <ele>39.367376</ele>
        <time>2022-08-02T13:13:44.000Z</time>
      </trkpt>
      <trkpt lat="49.3901" lon="-0.92059">
        <ele>39.380552</ele>
        <time>2022-08-02T13:13:45.000Z</time>
      </trkpt>
      <trkpt lat="49.39008" lon="-0.92053">
        <ele>39.39393</ele>
        <time>2022-08-02T13:13:46.000Z</time>
      </trkpt>
      <trkpt lat="49.39007" lon="-0.92048">
        <ele>39.406479</ele>
        <time>2022-08-02T13:13:47.000Z</time>
      </trkpt>
      <trkpt lat="49.39006" lon="-0.92043">
        <ele>39.417621</ele>
        <time>2022-08-02T13:13:48.000Z</time>
      </trkpt>
      <trkpt lat="49.39004" lon="-0.92038">
        <ele>39.429204</ele>
        <time>2022-08-02T13:13:49.000Z</time>
      </trkpt>
      <trkpt lat="49.39002" lon="-0.92033">
        <ele>39.441265</ele>
        <time>2022-08-02T13:13:50.000Z</time>
      </trkpt>
      <trkpt lat="49.39001" lon="-0.92029">
        <ele>39.452278</ele>
        <time>2022-08-02T13:13:51.000Z</time>
      </trkpt>
      <trkpt lat="49.38999" lon="-0.92024">
        <ele>39.46367</ele>
        <time>2022-08-02T13:13:52.000Z</time>
      </trkpt>
      <trkpt lat="49.38997" lon="-0.9202">
        <ele>39.475083</ele>
        <time>2022-08-02T13:13:53.000Z</time>
      </trkpt>
      <trkpt lat="49.38995" lon="-0.92016">
        <ele>39.484872</ele>
        <time>2022-08-02T13:13:54.000Z</time>
      </trkpt>
      <trkpt lat="49.38992" lon="-0.92013">
        <ele>39.496139</ele>
        <time>2022-08-02T13:13:55.000Z</time>
      </trkpt>
      <trkpt lat="49.3899" lon="-0.9201">
        <ele>39.506285</ele>
        <time>2022-08-02T13:13:56.000Z</time>
      </trkpt>
      <trkpt lat="49.38987" lon="-0.92006">
        <ele>39.518067</ele>
        <time>2022-08-02T13:13:57.000Z</time>
      </trkpt>
      <trkpt lat="49.38984" lon="-0.92004">
        <ele>39.529913</ele>
        <time>2022-08-02T13:13:58.000Z</time>
      </trkpt>
      <trkpt lat="49.38981" lon="-0.92002">
        <ele>39.566022</ele>
        <time>2022-08-02T13:13:59.000Z</time>
      </trkpt>
      <trkpt lat="49.38977" lon="-0.92">
        <ele>39.727007</ele>
        <time>2022-08-02T13:14:00.000Z</time>
      </trkpt>
      <trkpt lat="49.38973" lon="-0.91998">
        <ele>39.881974</ele>
        <time>2022-08-02T13:14:01.000Z</time>
      </trkpt>
      <trkpt lat="49.38969" lon="-0.91996">
        <ele>40.051403</ele>
        <time>2022-08-02T13:14:02.000Z</time>
      </trkpt>
      <trkpt lat="49.38965" lon="-0.91995">
        <ele>40.21768</ele>
        <time>2022-08-02T13:14:03.000Z</time>
      </trkpt>
      <trkpt lat="49.3896" lon="-0.91993">
        <ele>40.387741</ele>
        <time>2022-08-02T13:14:04.000Z</time>
      </trkpt>
      <trkpt lat="49.38956" lon="-0.91991">
        <ele>40.553373</ele>
        <time>2022-08-02T13:14:05.000Z</time>
      </trkpt>
      <trkpt lat="49.38951" lon="-0.9199">
        <ele>40.745163</ele>
        <time>2022-08-02T13:14:06.000Z</time>
      </trkpt>
      <trkpt lat="49.38947" lon="-0.91988">
        <ele>40.913997</ele>
        <time>2022-08-02T13:14:07.000Z</time>
      </trkpt>
      <trkpt lat="49.38943" lon="-0.91987">
        <ele>41.095441</ele>
        <time>2022-08-02T13:14:08.000Z</time>
      </trkpt>
      <trkpt lat="49.38938" lon="-0.91985">
        <ele>41.274724</ele>
        <time>2022-08-02T13:14:09.000Z</time>
      </trkpt>
      <trkpt lat="49.38934" lon="-0.91983">
        <ele>41.442402</ele>
        <time>2022-08-02T13:14:10.000Z</time>
      </trkpt>
      <trkpt lat="49.3893" lon="-0.91981">
        <ele>41.625822</ele>
        <time>2022-08-02T13:14:11.000Z</time>
      </trkpt>
      <trkpt lat="49.38925" lon="-0.91979">
        <ele>41.800406</ele>
        <time>2022-08-02T13:14:12.000Z</time>
      </trkpt>
      <trkpt lat="49.38922" lon="-0.91976">
        <ele>41.967689</ele>
        <time>2022-08-02T13:14:13.000Z</time>
      </trkpt>
      <trkpt lat="49.38918" lon="-0.91973">
        <ele>42.131204</ele>
        <time>2022-08-02T13:14:14.000Z</time>
      </trkpt>
      <trkpt lat="49.38914" lon="-0.91969">
        <ele>42.310677</ele>
        <time>2022-08-02T13:14:15.000Z</time>
      </trkpt>
      <trkpt lat="49.38911" lon="-0.91964">
        <ele>42.489377</ele>
        <time>2022-08-02T13:14:16.000Z</time>
      </trkpt>
      <trkpt lat="49.38907" lon="-0.91959">
        <ele>42.678255</ele>
        <time>2022-08-02T13:14:17.000Z</time>
      </trkpt>
      <trkpt lat="49.38904" lon="-0.91954">
        <ele>42.874289</ele>
        <time>2022-08-02T13:14:18.000Z</time>
      </trkpt>
      <trkpt lat="49.38901" lon="-0.91948">
        <ele>43.054684</ele>
        <time>2022-08-02T13:14:19.000Z</time>
      </trkpt>
      <trkpt lat="49.38897" lon="-0.91943">
        <ele>43.250718</ele>
        <time>2022-08-02T13:14:20.000Z</time>
      </trkpt>
      <trkpt lat="49.38894" lon="-0.91937">
        <ele>43.431113</ele>
        <time>2022-08-02T13:14:21.000Z</time>
      </trkpt>
      <trkpt lat="49.38891" lon="-0.91932">
        <ele>43.609824</ele>
        <time>2022-08-02T13:14:22.000Z</time>
      </trkpt>
      <trkpt lat="49.38888" lon="-0.91927">
        <ele>43.780506</ele>
        <time>2022-08-02T13:14:23.000Z</time>
      </trkpt>
      <trkpt lat="49.38885" lon="-0.91923">
        <ele>43.945557</ele>
        <time>2022-08-02T13:14:24.000Z</time>
      </trkpt>
      <trkpt lat="49.38883" lon="-0.91918">
        <ele>44.09634</ele>
        <time>2022-08-02T13:14:25.000Z</time>
      </trkpt>
      <trkpt lat="49.3888" lon="-0.91914">
        <ele>44.254148</ele>
        <time>2022-08-02T13:14:26.000Z</time>
      </trkpt>
      <trkpt lat="49.38877" lon="-0.91909">
        <ele>44.405605</ele>
        <time>2022-08-02T13:14:27.000Z</time>
      </trkpt>
      <trkpt lat="49.38875" lon="-0.91905">
        <ele>44.560621</ele>
        <time>2022-08-02T13:14:28.000Z</time>
      </trkpt>
      <trkpt lat="49.38871" lon="-0.91901">
        <ele>44.725415</ele>
        <time>2022-08-02T13:14:29.000Z</time>
      </trkpt>
      <trkpt lat="49.38868" lon="-0.91897">
        <ele>44.893602</ele>
        <time>2022-08-02T13:14:30.000Z</time>
      </trkpt>
      <trkpt lat="49.38864" lon="-0.91894">
        <ele>45.063276</ele>
        <time>2022-08-02T13:14:31.000Z</time>
      </trkpt>
      <trkpt lat="49.38861" lon="-0.91892">
        <ele>45.211344</ele>
        <time>2022-08-02T13:14:32.000Z</time>
      </trkpt>
      <trkpt lat="49.38856" lon="-0.9189">
        <ele>45.391639</ele>
        <time>2022-08-02T13:14:33.000Z</time>
      </trkpt>
      <trkpt lat="49.38852" lon="-0.91889">
        <ele>45.558051</ele>
        <time>2022-08-02T13:14:34.000Z</time>
      </trkpt>
      <trkpt lat="49.38847" lon="-0.91888">
        <ele>45.732205</ele>
        <time>2022-08-02T13:14:35.000Z</time>
      </trkpt>
      <trkpt lat="49.38843" lon="-0.91888">
        <ele>45.909577</ele>
        <time>2022-08-02T13:14:36.000Z</time>
      </trkpt>
      <trkpt lat="49.38838" lon="-0.91887">
        <ele>46.11006</ele>
        <time>2022-08-02T13:14:37.000Z</time>
      </trkpt>
      <trkpt lat="49.38833" lon="-0.91887">
        <ele>46.298157</ele>
        <time>2022-08-02T13:14:38.000Z</time>
      </trkpt>
      <trkpt lat="49.38828" lon="-0.91887">
        <ele>46.486168</ele>
        <time>2022-08-02T13:14:39.000Z</time>
      </trkpt>
      <trkpt lat="49.38823" lon="-0.91887">
        <ele>46.659845</ele>
        <time>2022-08-02T13:14:40.000Z</time>
      </trkpt>
      <trkpt lat="49.38819" lon="-0.91888">
        <ele>46.809047</ele>
        <time>2022-08-02T13:14:41.000Z</time>
      </trkpt>
      <trkpt lat="49.38814" lon="-0.9189">
        <ele>46.969369</ele>
        <time>2022-08-02T13:14:42.000Z</time>
      </trkpt>
      <trkpt lat="49.3881" lon="-0.91892">
        <ele>47.113659</ele>
        <time>2022-08-02T13:14:43.000Z</time>
      </trkpt>
      <trkpt lat="49.38805" lon="-0.91894">
        <ele>47.275792</ele>
        <time>2022-08-02T13:14:44.000Z</time>
      </trkpt>
      <trkpt lat="49.388" lon="-0.91895">
        <ele>47.437926</ele>
        <time>2022-08-02T13:14:45.000Z</time>
      </trkpt>
      <trkpt lat="49.38796" lon="-0.91897">
        <ele>47.589026</ele>
        <time>2022-08-02T13:14:46.000Z</time>
      </trkpt>
      <trkpt lat="49.38792" lon="-0.91899">
        <ele>47.730185</ele>
        <time>2022-08-02T13:14:47.000Z</time>
      </trkpt>
      <trkpt lat="49.38787" lon="-0.91901">
        <ele>47.882249</ele>
        <time>2022-08-02T13:14:48.000Z</time>
      </trkpt>
      <trkpt lat="49.38782" lon="-0.91902">
        <ele>48.042984</ele>
        <time>2022-08-02T13:14:49.000Z</time>
      </trkpt>
      <trkpt lat="49.38778" lon="-0.91904">
        <ele>48.203718</ele>
        <time>2022-08-02T13:14:50.000Z</time>
      </trkpt>
      <trkpt lat="49.38773" lon="-0.91905">
        <ele>48.374966</ele>
        <time>2022-08-02T13:14:51.000Z</time>
      </trkpt>
      <trkpt lat="49.38768" lon="-0.91907">
        <ele>48.526066</ele>
        <time>2022-08-02T13:14:52.000Z</time>
      </trkpt>
      <trkpt lat="49.38763" lon="-0.91908">
        <ele>48.70653</ele>
        <time>2022-08-02T13:14:53.000Z</time>
      </trkpt>
      <trkpt lat="49.38758" lon="-0.9191">
        <ele>48.869183</ele>
        <time>2022-08-02T13:14:54.000Z</time>
      </trkpt>
      <trkpt lat="49.38753" lon="-0.91911">
        <ele>49.041428</ele>
        <time>2022-08-02T13:14:55.000Z</time>
      </trkpt>
      <trkpt lat="49.38748" lon="-0.91913">
        <ele>49.202163</ele>
        <time>2022-08-02T13:14:56.000Z</time>
      </trkpt>
      <trkpt lat="49.38743" lon="-0.91914">
        <ele>49.372556</ele>
        <time>2022-08-02T13:14:57.000Z</time>
      </trkpt>
      <trkpt lat="49.38738" lon="-0.91916">
        <ele>49.53329</ele>
        <time>2022-08-02T13:14:58.000Z</time>
      </trkpt>
      <trkpt lat="49.38733" lon="-0.91917">
        <ele>49.703294</ele>
        <time>2022-08-02T13:14:59.000Z</time>
      </trkpt>
      <trkpt lat="49.38728" lon="-0.91918">
        <ele>49.861728</ele>
        <time>2022-08-02T13:15:00.000Z</time>
      </trkpt>
      <trkpt lat="49.38723" lon="-0.91919">
        <ele>50.029951</ele>
        <time>2022-08-02T13:15:01.000Z</time>
      </trkpt>
      <trkpt lat="49.38718" lon="-0.9192">
        <ele>50.197971</ele>
        <time>2022-08-02T13:15:02.000Z</time>
      </trkpt>
      <trkpt lat="49.38713" lon="-0.9192">
        <ele>50.368726</ele>
        <time>2022-08-02T13:15:03.000Z</time>
      </trkpt>
      <trkpt lat="49.38708" lon="-0.9192">
        <ele>50.513251</ele>
        <time>2022-08-02T13:15:04.000Z</time>
      </trkpt>
      <trkpt lat="49.38703" lon="-0.91919">
        <ele>50.68474</ele>
        <time>2022-08-02T13:15:05.000Z</time>
      </trkpt>
      <trkpt lat="49.38699" lon="-0.91917">
        <ele>50.835311</ele>
        <time>2022-08-02T13:15:06.000Z</time>
      </trkpt>
      <trkpt lat="49.38694" lon="-0.91913">
        <ele>51.000822</ele>
        <time>2022-08-02T13:15:07.000Z</time>
      </trkpt>
      <trkpt lat="49.3869" lon="-0.91909">
        <ele>51.162979</ele>
        <time>2022-08-02T13:15:08.000Z</time>
      </trkpt>
      <trkpt lat="49.38686" lon="-0.91905">
        <ele>51.323065</ele>
        <time>2022-08-02T13:15:09.000Z</time>
      </trkpt>
      <trkpt lat="49.38683" lon="-0.91899">
        <ele>51.484333</ele>
        <time>2022-08-02T13:15:10.000Z</time>
      </trkpt>
      <trkpt lat="49.38679" lon="-0.91893">
        <ele>51.658634</ele>
        <time>2022-08-02T13:15:11.000Z</time>
      </trkpt>
      <trkpt lat="49.38676" lon="-0.91887">
        <ele>51.823348</ele>
        <time>2022-08-02T13:15:12.000Z</time>
      </trkpt>
      <trkpt lat="49.38673" lon="-0.9188">
        <ele>51.999136</ele>
        <time>2022-08-02T13:15:13.000Z</time>
      </trkpt>
      <trkpt lat="49.3867" lon="-0.91873">
        <ele>52.176374</ele>
        <time>2022-08-02T13:15:14.000Z</time>
      </trkpt>
      <trkpt lat="49.38667" lon="-0.91866">
        <ele>52.368321</ele>
        <time>2022-08-02T13:15:15.000Z</time>
      </trkpt>
      <trkpt lat="49.38663" lon="-0.91859">
        <ele>52.49851</ele>
        <time>2022-08-02T13:15:16.000Z</time>
      </trkpt>
      <trkpt lat="49.3866" lon="-0.91852">
        <ele>52.538112</ele>
        <time>2022-08-02T13:15:17.000Z</time>
      </trkpt>
      <trkpt lat="49.38657" lon="-0.91845">
        <ele>52.579415</ele>
        <time>2022-08-02T13:15:18.000Z</time>
      </trkpt>
      <trkpt lat="49.38653" lon="-0.91838">
        <ele>52.621019</ele>
        <time>2022-08-02T13:15:19.000Z</time>
      </trkpt>
      <trkpt lat="49.3865" lon="-0.91831">
        <ele>52.66022</ele>
        <time>2022-08-02T13:15:20.000Z</time>
      </trkpt>
      <trkpt lat="49.38647" lon="-0.91824">
        <ele>52.702196</ele>
        <time>2022-08-02T13:15:21.000Z</time>
      </trkpt>
      <trkpt lat="49.38644" lon="-0.91816">
        <ele>52.742559</ele>
        <time>2022-08-02T13:15:22.000Z</time>
      </trkpt>
      <trkpt lat="49.3864" lon="-0.91809">
        <ele>52.782541</ele>
        <time>2022-08-02T13:15:23.000Z</time>
      </trkpt>
      <trkpt lat="49.38637" lon="-0.91802">
        <ele>52.822905</ele>
        <time>2022-08-02T13:15:24.000Z</time>
      </trkpt>
      <trkpt lat="49.38634" lon="-0.91795">
        <ele>52.863041</ele>
        <time>2022-08-02T13:15:25.000Z</time>
      </trkpt>
      <trkpt lat="49.38631" lon="-0.91789">
        <ele>52.900292</ele>
        <time>2022-08-02T13:15:26.000Z</time>
      </trkpt>
      <trkpt lat="49.38627" lon="-0.91782">
        <ele>52.940066</ele>
        <time>2022-08-02T13:15:27.000Z</time>
      </trkpt>
      <trkpt lat="49.38624" lon="-0.91775">
        <ele>52.980201</ele>
        <time>2022-08-02T13:15:28.000Z</time>
      </trkpt>
      <trkpt lat="49.38621" lon="-0.91768">
        <ele>53.019049</ele>
        <time>2022-08-02T13:15:29.000Z</time>
      </trkpt>
      <trkpt lat="49.38617" lon="-0.91761">
        <ele>53.059916</ele>
        <time>2022-08-02T13:15:30.000Z</time>
      </trkpt>
      <trkpt lat="49.38613" lon="-0.91754">
        <ele>53.102574</ele>
        <time>2022-08-02T13:15:31.000Z</time>
      </trkpt>
      <trkpt lat="49.3861" lon="-0.91747">
        <ele>53.144924</ele>
        <time>2022-08-02T13:15:32.000Z</time>
      </trkpt>
      <trkpt lat="49.38607" lon="-0.9174">
        <ele>53.184519</ele>
        <time>2022-08-02T13:15:33.000Z</time>
      </trkpt>
      <trkpt lat="49.38604" lon="-0.91732">
        <ele>53.226815</ele>
        <time>2022-08-02T13:15:34.000Z</time>
      </trkpt>
      <trkpt lat="49.38601" lon="-0.91724">
        <ele>53.267023</ele>
        <time>2022-08-02T13:15:35.000Z</time>
      </trkpt>
      <trkpt lat="49.38599" lon="-0.91715">
        <ele>53.310506</ele>
        <time>2022-08-02T13:15:36.000Z</time>
      </trkpt>
      <trkpt lat="49.38597" lon="-0.91707">
        <ele>53.353287</ele>
        <time>2022-08-02T13:15:37.000Z</time>
      </trkpt>
      <trkpt lat="49.38594" lon="-0.91698">
        <ele>53.398452</ele>
        <time>2022-08-02T13:15:38.000Z</time>
      </trkpt>
      <trkpt lat="49.38591" lon="-0.91689">
        <ele>53.442906</ele>
        <time>2022-08-02T13:15:39.000Z</time>
      </trkpt>
      <trkpt lat="49.38589" lon="-0.9168">
        <ele>53.488495</ele>
        <time>2022-08-02T13:15:40.000Z</time>
      </trkpt>
      <trkpt lat="49.38586" lon="-0.91671">
        <ele>53.535164</ele>
        <time>2022-08-02T13:15:41.000Z</time>
      </trkpt>
      <trkpt lat="49.38582" lon="-0.91663">
        <ele>53.58134</ele>
        <time>2022-08-02T13:15:42.000Z</time>
      </trkpt>
      <trkpt lat="49.38579" lon="-0.91654">
        <ele>53.625771</ele>
        <time>2022-08-02T13:15:43.000Z</time>
      </trkpt>
      <trkpt lat="49.38576" lon="-0.91646">
        <ele>53.670784</ele>
        <time>2022-08-02T13:15:44.000Z</time>
      </trkpt>
      <trkpt lat="49.38572" lon="-0.91638">
        <ele>53.716182</ele>
        <time>2022-08-02T13:15:45.000Z</time>
      </trkpt>
      <trkpt lat="49.38569" lon="-0.9163">
        <ele>53.758578</ele>
        <time>2022-08-02T13:15:46.000Z</time>
      </trkpt>
      <trkpt lat="49.38566" lon="-0.91622">
        <ele>53.753588</ele>
        <time>2022-08-02T13:15:47.000Z</time>
      </trkpt>
      <trkpt lat="49.38563" lon="-0.91614">
        <ele>53.741833</ele>
        <time>2022-08-02T13:15:48.000Z</time>
      </trkpt>
      <trkpt lat="49.3856" lon="-0.91606">
        <ele>53.730006</ele>
        <time>2022-08-02T13:15:49.000Z</time>
      </trkpt>
      <trkpt lat="49.38557" lon="-0.91598">
        <ele>53.718691</ele>
        <time>2022-08-02T13:15:50.000Z</time>
      </trkpt>
      <trkpt lat="49.38554" lon="-0.9159">
        <ele>53.706648</ele>
        <time>2022-08-02T13:15:51.000Z</time>
      </trkpt>
      <trkpt lat="49.38551" lon="-0.91581">
        <ele>53.694336</ele>
        <time>2022-08-02T13:15:52.000Z</time>
      </trkpt>
      <trkpt lat="49.38548" lon="-0.91572">
        <ele>53.682223</ele>
        <time>2022-08-02T13:15:53.000Z</time>
      </trkpt>
      <trkpt lat="49.38546" lon="-0.91563">
        <ele>53.66982</ele>
        <time>2022-08-02T13:15:54.000Z</time>
      </trkpt>
      <trkpt lat="49.38542" lon="-0.91554">
        <ele>53.657013</ele>
        <time>2022-08-02T13:15:55.000Z</time>
      </trkpt>
      <trkpt lat="49.3854" lon="-0.91545">
        <ele>53.644495</ele>
        <time>2022-08-02T13:15:56.000Z</time>
      </trkpt>
      <trkpt lat="49.38538" lon="-0.91536">
        <ele>53.632385</ele>
        <time>2022-08-02T13:15:57.000Z</time>
      </trkpt>
      <trkpt lat="49.38535" lon="-0.91527">
        <ele>53.619802</ele>
        <time>2022-08-02T13:15:58.000Z</time>
      </trkpt>
      <trkpt lat="49.38533" lon="-0.91518">
        <ele>53.607506</ele>
        <time>2022-08-02T13:15:59.000Z</time>
      </trkpt>
      <trkpt lat="49.38531" lon="-0.91509">
        <ele>53.595514</ele>
        <time>2022-08-02T13:16:00.000Z</time>
      </trkpt>
      <trkpt lat="49.38528" lon="-0.915">
        <ele>53.58357</ele>
        <time>2022-08-02T13:16:01.000Z</time>
      </trkpt>
      <trkpt lat="49.38526" lon="-0.91492">
        <ele>53.572047</ele>
        <time>2022-08-02T13:16:02.000Z</time>
      </trkpt>
      <trkpt lat="49.38524" lon="-0.91483">
        <ele>53.560488</ele>
        <time>2022-08-02T13:16:03.000Z</time>
      </trkpt>
      <trkpt lat="49.38522" lon="-0.91474">
        <ele>53.548866</ele>
        <time>2022-08-02T13:16:04.000Z</time>
      </trkpt>
      <trkpt lat="49.3852" lon="-0.91466">
        <ele>53.537344</ele>
        <time>2022-08-02T13:16:05.000Z</time>
      </trkpt>
      <trkpt lat="49.38518" lon="-0.91458">
        <ele>53.526261</ele>
        <time>2022-08-02T13:16:06.000Z</time>
      </trkpt>
      <trkpt lat="49.38516" lon="-0.91449">
        <ele>53.514898</ele>
        <time>2022-08-02T13:16:07.000Z</time>
      </trkpt>
      <trkpt lat="49.38514" lon="-0.91441">
        <ele>53.503577</ele>
        <time>2022-08-02T13:16:08.000Z</time>
      </trkpt>
      <trkpt lat="49.38512" lon="-0.91433">
        <ele>53.492405</ele>
        <time>2022-08-02T13:16:09.000Z</time>
      </trkpt>
      <trkpt lat="49.3851" lon="-0.91424">
        <ele>53.481441</ele>
        <time>2022-08-02T13:16:10.000Z</time>
      </trkpt>
      <trkpt lat="49.38508" lon="-0.91416">
        <ele>53.470293</ele>
        <time>2022-08-02T13:16:11.000Z</time>
      </trkpt>
      <trkpt lat="49.38505" lon="-0.91408">
        <ele>53.458773</ele>
        <time>2022-08-02T13:16:12.000Z</time>
      </trkpt>
      <trkpt lat="49.38503" lon="-0.91399">
        <ele>53.447294</ele>
        <time>2022-08-02T13:16:13.000Z</time>
      </trkpt>
      <trkpt lat="49.385" lon="-0.91392">
        <ele>53.43568</ele>
        <time>2022-08-02T13:16:14.000Z</time>
      </trkpt>
      <trkpt lat="49.38496" lon="-0.91384">
        <ele>53.423408</ele>
        <time>2022-08-02T13:16:15.000Z</time>
      </trkpt>
      <trkpt lat="49.38492" lon="-0.91376">
        <ele>53.422117</ele>
        <time>2022-08-02T13:16:16.000Z</time>
      </trkpt>
      <trkpt lat="49.38488" lon="-0.91369">
        <ele>53.437691</ele>
        <time>2022-08-02T13:16:17.000Z</time>
      </trkpt>
      <trkpt lat="49.38484" lon="-0.91362">
        <ele>53.452793</ele>
        <time>2022-08-02T13:16:18.000Z</time>
      </trkpt>
      <trkpt lat="49.38479" lon="-0.91355">
        <ele>53.468344</ele>
        <time>2022-08-02T13:16:19.000Z</time>
      </trkpt>
      <trkpt lat="49.38475" lon="-0.91348">
        <ele>53.484364</ele>
        <time>2022-08-02T13:16:20.000Z</time>
      </trkpt>
      <trkpt lat="49.3847" lon="-0.91341">
        <ele>53.49997</ele>
        <time>2022-08-02T13:16:21.000Z</time>
      </trkpt>
      <trkpt lat="49.38466" lon="-0.91334">
        <ele>53.51484</ele>
        <time>2022-08-02T13:16:22.000Z</time>
      </trkpt>
      <trkpt lat="49.38462" lon="-0.91327">
        <ele>53.529778</ele>
        <time>2022-08-02T13:16:23.000Z</time>
      </trkpt>
      <trkpt lat="49.38458" lon="-0.9132">
        <ele>53.544759</ele>
        <time>2022-08-02T13:16:24.000Z</time>
      </trkpt>
      <trkpt lat="49.38454" lon="-0.91313">
        <ele>53.55958</ele>
        <time>2022-08-02T13:16:25.000Z</time>
      </trkpt>
      <trkpt lat="49.3845" lon="-0.91306">
        <ele>53.57445</ele>
        <time>2022-08-02T13:16:26.000Z</time>
      </trkpt>
      <trkpt lat="49.38445" lon="-0.91299">
        <ele>53.58932</ele>
        <time>2022-08-02T13:16:27.000Z</time>
      </trkpt>
      <trkpt lat="49.38441" lon="-0.91293">
        <ele>53.604913</ele>
        <time>2022-08-02T13:16:28.000Z</time>
      </trkpt>
      <trkpt lat="49.38437" lon="-0.91286">
        <ele>53.619501</ele>
        <time>2022-08-02T13:16:29.000Z</time>
      </trkpt>
      <trkpt lat="49.38432" lon="-0.9128">
        <ele>53.634554</ele>
        <time>2022-08-02T13:16:30.000Z</time>
      </trkpt>
      <trkpt lat="49.38427" lon="-0.91273">
        <ele>53.650147</ele>
        <time>2022-08-02T13:16:31.000Z</time>
      </trkpt>
      <trkpt lat="49.38423" lon="-0.91267">
        <ele>53.664878</ele>
        <time>2022-08-02T13:16:32.000Z</time>
      </trkpt>
      <trkpt lat="49.38418" lon="-0.91261">
        <ele>53.680263</ele>
        <time>2022-08-02T13:16:33.000Z</time>
      </trkpt>
      <trkpt lat="49.38413" lon="-0.91255">
        <ele>53.695343</ele>
        <time>2022-08-02T13:16:34.000Z</time>
      </trkpt>
      <trkpt lat="49.38409" lon="-0.91248">
        <ele>53.710074</ele>
        <time>2022-08-02T13:16:35.000Z</time>
      </trkpt>
      <trkpt lat="49.38404" lon="-0.91243">
        <ele>53.724203</ele>
        <time>2022-08-02T13:16:36.000Z</time>
      </trkpt>
      <trkpt lat="49.38399" lon="-0.91237">
        <ele>53.739284</ele>
        <time>2022-08-02T13:16:37.000Z</time>
      </trkpt>
      <trkpt lat="49.38395" lon="-0.91231">
        <ele>53.754364</ele>
        <time>2022-08-02T13:16:38.000Z</time>
      </trkpt>
      <trkpt lat="49.3839" lon="-0.91225">
        <ele>53.768885</ele>
        <time>2022-08-02T13:16:39.000Z</time>
      </trkpt>
      <trkpt lat="49.38385" lon="-0.91219">
        <ele>53.78454</ele>
        <time>2022-08-02T13:16:40.000Z</time>
      </trkpt>
      <trkpt lat="49.38381" lon="-0.91212">
        <ele>53.79927</ele>
        <time>2022-08-02T13:16:41.000Z</time>
      </trkpt>
      <trkpt lat="49.38375" lon="-0.91206">
        <ele>53.814925</ele>
        <time>2022-08-02T13:16:42.000Z</time>
      </trkpt>
      <trkpt lat="49.38371" lon="-0.912">
        <ele>53.830106</ele>
        <time>2022-08-02T13:16:43.000Z</time>
      </trkpt>
      <trkpt lat="49.38365" lon="-0.91194">
        <ele>53.845955</ele>
        <time>2022-08-02T13:16:44.000Z</time>
      </trkpt>
      <trkpt lat="49.38361" lon="-0.91188">
        <ele>53.842021</ele>
        <time>2022-08-02T13:16:45.000Z</time>
      </trkpt>
      <trkpt lat="49.38356" lon="-0.91182">
        <ele>53.814391</ele>
        <time>2022-08-02T13:16:46.000Z</time>
      </trkpt>
      <trkpt lat="49.38351" lon="-0.91176">
        <ele>53.786131</ele>
        <time>2022-08-02T13:16:47.000Z</time>
      </trkpt>
      <trkpt lat="49.38347" lon="-0.9117">
        <ele>53.758753</ele>
        <time>2022-08-02T13:16:48.000Z</time>
      </trkpt>
      <trkpt lat="49.38342" lon="-0.91165">
        <ele>53.731953</ele>
        <time>2022-08-02T13:16:49.000Z</time>
      </trkpt>
      <trkpt lat="49.38338" lon="-0.91159">
        <ele>53.706019</ele>
        <time>2022-08-02T13:16:50.000Z</time>
      </trkpt>
      <trkpt lat="49.38334" lon="-0.91153">
        <ele>53.679188</ele>
        <time>2022-08-02T13:16:51.000Z</time>
      </trkpt>
      <trkpt lat="49.3833" lon="-0.91148">
        <ele>53.653843</ele>
        <time>2022-08-02T13:16:52.000Z</time>
      </trkpt>
      <trkpt lat="49.38325" lon="-0.91143">
        <ele>53.629069</ele>
        <time>2022-08-02T13:16:53.000Z</time>
      </trkpt>
      <trkpt lat="49.38321" lon="-0.91137">
        <ele>53.604077</ele>
        <time>2022-08-02T13:16:54.000Z</time>
      </trkpt>
      <trkpt lat="49.38317" lon="-0.91132">
        <ele>53.578537</ele>
        <time>2022-08-02T13:16:55.000Z</time>
      </trkpt>
      <trkpt lat="49.38313" lon="-0.91127">
        <ele>53.55374</ele>
        <time>2022-08-02T13:16:56.000Z</time>
      </trkpt>
      <trkpt lat="49.38309" lon="-0.91121">
        <ele>53.52675</ele>
        <time>2022-08-02T13:16:57.000Z</time>
      </trkpt>
      <trkpt lat="49.38304" lon="-0.91115">
        <ele>53.498489</ele>
        <time>2022-08-02T13:16:58.000Z</time>
      </trkpt>
      <trkpt lat="49.38299" lon="-0.91109">
        <ele>53.471306</ele>
        <time>2022-08-02T13:16:59.000Z</time>
      </trkpt>
      <trkpt lat="49.38295" lon="-0.91103">
        <ele>53.44435</ele>
        <time>2022-08-02T13:17:00.000Z</time>
      </trkpt>
      <trkpt lat="49.38291" lon="-0.91097">
        <ele>53.418697</ele>
        <time>2022-08-02T13:17:01.000Z</time>
      </trkpt>
      <trkpt lat="49.38287" lon="-0.91091">
        <ele>53.39195</ele>
        <time>2022-08-02T13:17:02.000Z</time>
      </trkpt>
      <trkpt lat="49.38283" lon="-0.91085">
        <ele>53.366732</ele>
        <time>2022-08-02T13:17:03.000Z</time>
      </trkpt>
      <trkpt lat="49.38279" lon="-0.91079">
        <ele>53.341729</ele>
        <time>2022-08-02T13:17:04.000Z</time>
      </trkpt>
      <trkpt lat="49.38275" lon="-0.91073">
        <ele>53.31619</ele>
        <time>2022-08-02T13:17:05.000Z</time>
      </trkpt>
      <trkpt lat="49.38272" lon="-0.91068">
        <ele>53.292803</ele>
        <time>2022-08-02T13:17:06.000Z</time>
      </trkpt>
      <trkpt lat="49.38268" lon="-0.91062">
        <ele>53.267473</ele>
        <time>2022-08-02T13:17:07.000Z</time>
      </trkpt>
      <trkpt lat="49.38264" lon="-0.91056">
        <ele>53.243648</ele>
        <time>2022-08-02T13:17:08.000Z</time>
      </trkpt>
      <trkpt lat="49.38261" lon="-0.9105">
        <ele>53.220044</ele>
        <time>2022-08-02T13:17:09.000Z</time>
      </trkpt>
      <trkpt lat="49.38257" lon="-0.91045">
        <ele>53.195883</ele>
        <time>2022-08-02T13:17:10.000Z</time>
      </trkpt>
      <trkpt lat="49.38253" lon="-0.91039">
        <ele>53.171383</ele>
        <time>2022-08-02T13:17:11.000Z</time>
      </trkpt>
      <trkpt lat="49.38249" lon="-0.91034">
        <ele>53.147014</ele>
        <time>2022-08-02T13:17:12.000Z</time>
      </trkpt>
      <trkpt lat="49.38245" lon="-0.91028">
        <ele>53.121684</ele>
        <time>2022-08-02T13:17:13.000Z</time>
      </trkpt>
      <trkpt lat="49.38242" lon="-0.91022">
        <ele>53.096466</ele>
        <time>2022-08-02T13:17:14.000Z</time>
      </trkpt>
      <trkpt lat="49.38238" lon="-0.91016">
        <ele>53.071032</ele>
        <time>2022-08-02T13:17:15.000Z</time>
      </trkpt>
      <trkpt lat="49.38234" lon="-0.9101">
        <ele>53.044694</ele>
        <time>2022-08-02T13:17:16.000Z</time>
      </trkpt>
      <trkpt lat="49.3823" lon="-0.91003">
        <ele>53.022199</ele>
        <time>2022-08-02T13:17:17.000Z</time>
      </trkpt>
      <trkpt lat="49.38226" lon="-0.90997">
        <ele>53.022552</ele>
        <time>2022-08-02T13:17:18.000Z</time>
      </trkpt>
      <trkpt lat="49.38222" lon="-0.90991">
        <ele>53.022894</ele>
        <time>2022-08-02T13:17:19.000Z</time>
      </trkpt>
      <trkpt lat="49.38218" lon="-0.90984">
        <ele>53.023241</ele>
        <time>2022-08-02T13:17:20.000Z</time>
      </trkpt>
      <trkpt lat="49.38214" lon="-0.90978">
        <ele>53.02358</ele>
        <time>2022-08-02T13:17:21.000Z</time>
      </trkpt>
      <trkpt lat="49.3821" lon="-0.90972">
        <ele>53.023932</ele>
        <time>2022-08-02T13:17:22.000Z</time>
      </trkpt>
      <trkpt lat="49.38207" lon="-0.90966">
        <ele>53.024247</ele>
        <time>2022-08-02T13:17:23.000Z</time>
      </trkpt>
      <trkpt lat="49.38204" lon="-0.9096">
        <ele>53.024553</ele>
        <time>2022-08-02T13:17:24.000Z</time>
      </trkpt>
      <trkpt lat="49.382" lon="-0.90955">
        <ele>53.024854</ele>
        <time>2022-08-02T13:17:25.000Z</time>
      </trkpt>
      <trkpt lat="49.38197" lon="-0.9095">
        <ele>53.025128</ele>
        <time>2022-08-02T13:17:26.000Z</time>
      </trkpt>
      <trkpt lat="49.38194" lon="-0.90946">
        <ele>53.025386</ele>
        <time>2022-08-02T13:17:27.000Z</time>
      </trkpt>
      <trkpt lat="49.38191" lon="-0.90941">
        <ele>53.025658</ele>
        <time>2022-08-02T13:17:28.000Z</time>
      </trkpt>
      <trkpt lat="49.38188" lon="-0.90936">
        <ele>53.025897</ele>
        <time>2022-08-02T13:17:29.000Z</time>
      </trkpt>
      <trkpt lat="49.38185" lon="-0.90932">
        <ele>53.026168</ele>
        <time>2022-08-02T13:17:30.000Z</time>
      </trkpt>
      <trkpt lat="49.38182" lon="-0.90927">
        <ele>53.026414</ele>
        <time>2022-08-02T13:17:31.000Z</time>
      </trkpt>
      <trkpt lat="49.3818" lon="-0.90922">
        <ele>53.026666</ele>
        <time>2022-08-02T13:17:32.000Z</time>
      </trkpt>
      <trkpt lat="49.38177" lon="-0.90918">
        <ele>53.026896</ele>
        <time>2022-08-02T13:17:33.000Z</time>
      </trkpt>
      <trkpt lat="49.38175" lon="-0.90914">
        <ele>53.027109</ele>
        <time>2022-08-02T13:17:34.000Z</time>
      </trkpt>
      <trkpt lat="49.38173" lon="-0.9091">
        <ele>53.027309</ele>
        <time>2022-08-02T13:17:35.000Z</time>
      </trkpt>
      <trkpt lat="49.3817" lon="-0.90908">
        <ele>53.027499</ele>
        <time>2022-08-02T13:17:36.000Z</time>
      </trkpt>
      <trkpt lat="49.38167" lon="-0.90906">
        <ele>53.027703</ele>
        <time>2022-08-02T13:17:37.000Z</time>
      </trkpt>
      <trkpt lat="49.38164" lon="-0.90907">
        <ele>53.027899</ele>
        <time>2022-08-02T13:17:38.000Z</time>
      </trkpt>
      <trkpt lat="49.3816" lon="-0.90908">
        <ele>53.028124</ele>
        <time>2022-08-02T13:17:39.000Z</time>
      </trkpt>
      <trkpt lat="49.38157" lon="-0.90911">
        <ele>53.028371</ele>
        <time>2022-08-02T13:17:40.000Z</time>
      </trkpt>
      <trkpt lat="49.38153" lon="-0.90915">
        <ele>53.028638</ele>
        <time>2022-08-02T13:17:41.000Z</time>
      </trkpt>
      <trkpt lat="49.3815" lon="-0.9092">
        <ele>53.028896</ele>
        <time>2022-08-02T13:17:42.000Z</time>
      </trkpt>
      <trkpt lat="49.38146" lon="-0.90924">
        <ele>53.029183</ele>
        <time>2022-08-02T13:17:43.000Z</time>
      </trkpt>
      <trkpt lat="49.38142" lon="-0.90927">
        <ele>53.029461</ele>
        <time>2022-08-02T13:17:44.000Z</time>
      </trkpt>
      <trkpt lat="49.38138" lon="-0.90931">
        <ele>53.029762</ele>
        <time>2022-08-02T13:17:45.000Z</time>
      </trkpt>
      <trkpt lat="49.38134" lon="-0.90935">
        <ele>53.030035</ele>
        <time>2022-08-02T13:17:46.000Z</time>
      </trkpt>
      <trkpt lat="49.3813" lon="-0.90939">
        <ele>53.030322</ele>
        <time>2022-08-02T13:17:47.000Z</time>
      </trkpt>
      <trkpt lat="49.38126" lon="-0.90943">
        <ele>53.030624</ele>
        <time>2022-08-02T13:17:48.000Z</time>
      </trkpt>
      <trkpt lat="49.38122" lon="-0.90947">
        <ele>53.030931</ele>
        <time>2022-08-02T13:17:49.000Z</time>
      </trkpt>
      <trkpt lat="49.38118" lon="-0.90952">
        <ele>53.031225</ele>
        <time>2022-08-02T13:17:50.000Z</time>
      </trkpt>
      <trkpt lat="49.38114" lon="-0.90956">
        <ele>53.031524</ele>
        <time>2022-08-02T13:17:51.000Z</time>
      </trkpt>
      <trkpt lat="49.38109" lon="-0.9096">
        <ele>53.031846</ele>
        <time>2022-08-02T13:17:52.000Z</time>
      </trkpt>
      <trkpt lat="49.38105" lon="-0.90964">
        <ele>53.032146</ele>
        <time>2022-08-02T13:17:53.000Z</time>
      </trkpt>
      <trkpt lat="49.38101" lon="-0.90968">
        <ele>53.032438</ele>
        <time>2022-08-02T13:17:54.000Z</time>
      </trkpt>
      <trkpt lat="49.38098" lon="-0.90972">
        <ele>53.03271</ele>
        <time>2022-08-02T13:17:55.000Z</time>
      </trkpt>
      <trkpt lat="49.38094" lon="-0.90976">
        <ele>53.032994</ele>
        <time>2022-08-02T13:17:56.000Z</time>
      </trkpt>
      <trkpt lat="49.3809" lon="-0.90981">
        <ele>53.052257</ele>
        <time>2022-08-02T13:17:57.000Z</time>
      </trkpt>
      <trkpt lat="49.38086" lon="-0.90985">
        <ele>53.098421</ele>
        <time>2022-08-02T13:17:58.000Z</time>
      </trkpt>
      <trkpt lat="49.38083" lon="-0.90989">
        <ele>53.144965</ele>
        <time>2022-08-02T13:17:59.000Z</time>
      </trkpt>
      <trkpt lat="49.38078" lon="-0.90994">
        <ele>53.19505</ele>
        <time>2022-08-02T13:18:00.000Z</time>
      </trkpt>
      <trkpt lat="49.38075" lon="-0.90998">
        <ele>53.241214</ele>
        <time>2022-08-02T13:18:01.000Z</time>
      </trkpt>
      <trkpt lat="49.38071" lon="-0.91002">
        <ele>53.284671</ele>
        <time>2022-08-02T13:18:02.000Z</time>
      </trkpt>
      <trkpt lat="49.38067" lon="-0.91006">
        <ele>53.329728</ele>
        <time>2022-08-02T13:18:03.000Z</time>
      </trkpt>
      <trkpt lat="49.38064" lon="-0.9101">
        <ele>53.371649</ele>
        <time>2022-08-02T13:18:04.000Z</time>
      </trkpt>
      <trkpt lat="49.3806" lon="-0.91014">
        <ele>53.418235</ele>
        <time>2022-08-02T13:18:05.000Z</time>
      </trkpt>
      <trkpt lat="49.38057" lon="-0.91018">
        <ele>53.456514</ele>
        <time>2022-08-02T13:18:06.000Z</time>
      </trkpt>
      <trkpt lat="49.38053" lon="-0.91022">
        <ele>53.499237</ele>
        <time>2022-08-02T13:18:07.000Z</time>
      </trkpt>
      <trkpt lat="49.3805" lon="-0.91026">
        <ele>53.540085</ele>
        <time>2022-08-02T13:18:08.000Z</time>
      </trkpt>
      <trkpt lat="49.38047" lon="-0.91029">
        <ele>53.576158</ele>
        <time>2022-08-02T13:18:09.000Z</time>
      </trkpt>
      <trkpt lat="49.38044" lon="-0.91033">
        <ele>53.615333</ele>
        <time>2022-08-02T13:18:10.000Z</time>
      </trkpt>
      <trkpt lat="49.38041" lon="-0.91036">
        <ele>53.648417</ele>
        <time>2022-08-02T13:18:11.000Z</time>
      </trkpt>
      <trkpt lat="49.38038" lon="-0.9104">
        <ele>53.689265</ele>
        <time>2022-08-02T13:18:12.000Z</time>
      </trkpt>
      <trkpt lat="49.38035" lon="-0.91044">
        <ele>53.724368</ele>
        <time>2022-08-02T13:18:13.000Z</time>
      </trkpt>
      <trkpt lat="49.38032" lon="-0.91047">
        <ele>53.763929</ele>
        <time>2022-08-02T13:18:14.000Z</time>
      </trkpt>
      <trkpt lat="49.38029" lon="-0.91051">
        <ele>53.801628</ele>
        <time>2022-08-02T13:18:15.000Z</time>
      </trkpt>
      <trkpt lat="49.38026" lon="-0.91055">
        <ele>53.839326</ele>
        <time>2022-08-02T13:18:16.000Z</time>
      </trkpt>
      <trkpt lat="49.38023" lon="-0.91058">
        <ele>53.871156</ele>
        <time>2022-08-02T13:18:17.000Z</time>
      </trkpt>
      <trkpt lat="49.38021" lon="-0.91061">
        <ele>53.89986</ele>
        <time>2022-08-02T13:18:18.000Z</time>
      </trkpt>
      <trkpt lat="49.38019" lon="-0.91063">
        <ele>53.925177</ele>
        <time>2022-08-02T13:18:19.000Z</time>
      </trkpt>
      <trkpt lat="49.38017" lon="-0.91066">
        <ele>53.955178</ele>
        <time>2022-08-02T13:18:20.000Z</time>
      </trkpt>
      <trkpt lat="49.38013" lon="-0.91067">
        <ele>53.990895</ele>
        <time>2022-08-02T13:18:21.000Z</time>
      </trkpt>
      <trkpt lat="49.3801" lon="-0.91068">
        <ele>54.025715</ele>
        <time>2022-08-02T13:18:22.000Z</time>
      </trkpt>
      <trkpt lat="49.38006" lon="-0.91068">
        <ele>54.059948</ele>
        <time>2022-08-02T13:18:23.000Z</time>
      </trkpt>
      <trkpt lat="49.38002" lon="-0.91068">
        <ele>54.098431</ele>
        <time>2022-08-02T13:18:24.000Z</time>
      </trkpt>
      <trkpt lat="49.37999" lon="-0.91067">
        <ele>54.133251</ele>
        <time>2022-08-02T13:18:25.000Z</time>
      </trkpt>
      <trkpt lat="49.37994" lon="-0.91065">
        <ele>54.177923</ele>
        <time>2022-08-02T13:18:26.000Z</time>
      </trkpt>
      <trkpt lat="49.37991" lon="-0.91064">
        <ele>54.212865</ele>
        <time>2022-08-02T13:18:27.000Z</time>
      </trkpt>
      <trkpt lat="49.37986" lon="-0.91063">
        <ele>54.257337</ele>
        <time>2022-08-02T13:18:28.000Z</time>
      </trkpt>
      <trkpt lat="49.37982" lon="-0.91062">
        <ele>54.295045</ele>
        <time>2022-08-02T13:18:29.000Z</time>
      </trkpt>
      <trkpt lat="49.37979" lon="-0.91061">
        <ele>54.33042</ele>
        <time>2022-08-02T13:18:30.000Z</time>
      </trkpt>
      <trkpt lat="49.37974" lon="-0.9106">
        <ele>54.375205</ele>
        <time>2022-08-02T13:18:31.000Z</time>
      </trkpt>
      <trkpt lat="49.37971" lon="-0.91058">
        <ele>54.410745</ele>
        <time>2022-08-02T13:18:32.000Z</time>
      </trkpt>
      <trkpt lat="49.37966" lon="-0.91057">
        <ele>54.45553</ele>
        <time>2022-08-02T13:18:33.000Z</time>
      </trkpt>
      <trkpt lat="49.37962" lon="-0.91056">
        <ele>54.497314</ele>
        <time>2022-08-02T13:18:34.000Z</time>
      </trkpt>
      <trkpt lat="49.37958" lon="-0.91054">
        <ele>54.535258</ele>
        <time>2022-08-02T13:18:35.000Z</time>
      </trkpt>
      <trkpt lat="49.37954" lon="-0.91053">
        <ele>54.576931</ele>
        <time>2022-08-02T13:18:36.000Z</time>
      </trkpt>
      <trkpt lat="49.3795" lon="-0.91052">
        <ele>54.618467</ele>
        <time>2022-08-02T13:18:37.000Z</time>
      </trkpt>
      <trkpt lat="49.37946" lon="-0.9105">
        <ele>54.660372</ele>
        <time>2022-08-02T13:18:38.000Z</time>
      </trkpt>
      <trkpt lat="49.37941" lon="-0.91049">
        <ele>54.705697</ele>
        <time>2022-08-02T13:18:39.000Z</time>
      </trkpt>
      <trkpt lat="49.37937" lon="-0.91047">
        <ele>54.746644</ele>
        <time>2022-08-02T13:18:40.000Z</time>
      </trkpt>
      <trkpt lat="49.37933" lon="-0.91046">
        <ele>54.794123</ele>
        <time>2022-08-02T13:18:41.000Z</time>
      </trkpt>
      <trkpt lat="49.37928" lon="-0.91043">
        <ele>54.82907</ele>
        <time>2022-08-02T13:18:42.000Z</time>
      </trkpt>
      <trkpt lat="49.37923" lon="-0.91041">
        <ele>54.862456</ele>
        <time>2022-08-02T13:18:43.000Z</time>
      </trkpt>
      <trkpt lat="49.37918" lon="-0.91039">
        <ele>54.897276</ele>
        <time>2022-08-02T13:18:44.000Z</time>
      </trkpt>
      <trkpt lat="49.37914" lon="-0.91037">
        <ele>54.931975</ele>
        <time>2022-08-02T13:18:45.000Z</time>
      </trkpt>
      <trkpt lat="49.37909" lon="-0.91035">
        <ele>54.966558</ele>
        <time>2022-08-02T13:18:46.000Z</time>
      </trkpt>
      <trkpt lat="49.37904" lon="-0.91033">
        <ele>54.999</ele>
        <time>2022-08-02T13:18:47.000Z</time>
      </trkpt>
      <trkpt lat="49.379" lon="-0.91031">
        <ele>55.031947</ele>
        <time>2022-08-02T13:18:48.000Z</time>
      </trkpt>
      <trkpt lat="49.37895" lon="-0.91029">
        <ele>55.064093</ele>
        <time>2022-08-02T13:18:49.000Z</time>
      </trkpt>
      <trkpt lat="49.37891" lon="-0.91026">
        <ele>55.097799</ele>
        <time>2022-08-02T13:18:50.000Z</time>
      </trkpt>
      <trkpt lat="49.37886" lon="-0.91023">
        <ele>55.131504</ele>
        <time>2022-08-02T13:18:51.000Z</time>
      </trkpt>
      <trkpt lat="49.37882" lon="-0.91021">
        <ele>55.16489</ele>
        <time>2022-08-02T13:18:52.000Z</time>
      </trkpt>
      <trkpt lat="49.37877" lon="-0.91019">
        <ele>55.201613</ele>
        <time>2022-08-02T13:18:53.000Z</time>
      </trkpt>
      <trkpt lat="49.37872" lon="-0.91017">
        <ele>55.234056</ele>
        <time>2022-08-02T13:18:54.000Z</time>
      </trkpt>
      <trkpt lat="49.37867" lon="-0.91016">
        <ele>55.270284</ele>
        <time>2022-08-02T13:18:55.000Z</time>
      </trkpt>
      <trkpt lat="49.37863" lon="-0.91014">
        <ele>55.300368</ele>
        <time>2022-08-02T13:18:56.000Z</time>
      </trkpt>
      <trkpt lat="49.37859" lon="-0.91012">
        <ele>55.330118</ele>
        <time>2022-08-02T13:18:57.000Z</time>
      </trkpt>
      <trkpt lat="49.37855" lon="-0.91011">
        <ele>55.360202</ele>
        <time>2022-08-02T13:18:58.000Z</time>
      </trkpt>
      <trkpt lat="49.37851" lon="-0.91009">
        <ele>55.38983</ele>
        <time>2022-08-02T13:18:59.000Z</time>
      </trkpt>
      <trkpt lat="49.37847" lon="-0.91007">
        <ele>55.418114</ele>
        <time>2022-08-02T13:19:00.000Z</time>
      </trkpt>
      <trkpt lat="49.37842" lon="-0.91006">
        <ele>55.450557</ele>
        <time>2022-08-02T13:19:01.000Z</time>
      </trkpt>
      <trkpt lat="49.37838" lon="-0.91004">
        <ele>55.480569</ele>
        <time>2022-08-02T13:19:02.000Z</time>
      </trkpt>
      <trkpt lat="49.37834" lon="-0.91002">
        <ele>55.511248</ele>
        <time>2022-08-02T13:19:03.000Z</time>
      </trkpt>
      <trkpt lat="49.37829" lon="-0.90999">
        <ele>55.546328</ele>
        <time>2022-08-02T13:19:04.000Z</time>
      </trkpt>
      <trkpt lat="49.37825" lon="-0.90997">
        <ele>55.577104</ele>
        <time>2022-08-02T13:19:05.000Z</time>
      </trkpt>
      <trkpt lat="49.37821" lon="-0.90994">
        <ele>55.61049</ele>
        <time>2022-08-02T13:19:06.000Z</time>
      </trkpt>
      <trkpt lat="49.37816" lon="-0.90992">
        <ele>55.643437</ele>
        <time>2022-08-02T13:19:07.000Z</time>
      </trkpt>
      <trkpt lat="49.37812" lon="-0.9099">
        <ele>55.676525</ele>
        <time>2022-08-02T13:19:08.000Z</time>
      </trkpt>
      <trkpt lat="49.37807" lon="-0.90987">
        <ele>55.709911</ele>
        <time>2022-08-02T13:19:09.000Z</time>
      </trkpt>
      <trkpt lat="49.37803" lon="-0.90985">
        <ele>55.740688</ele>
        <time>2022-08-02T13:19:10.000Z</time>
      </trkpt>
      <trkpt lat="49.37798" lon="-0.90982">
        <ele>55.774074</ele>
        <time>2022-08-02T13:19:11.000Z</time>
      </trkpt>
      <trkpt lat="49.37794" lon="-0.9098">
        <ele>55.809435</ele>
        <time>2022-08-02T13:19:12.000Z</time>
      </trkpt>
      <trkpt lat="49.37789" lon="-0.90977">
        <ele>55.845421</ele>
        <time>2022-08-02T13:19:13.000Z</time>
      </trkpt>
      <trkpt lat="49.37784" lon="-0.90974">
        <ele>55.883523</ele>
        <time>2022-08-02T13:19:14.000Z</time>
      </trkpt>
      <trkpt lat="49.37779" lon="-0.90971">
        <ele>55.919678</ele>
        <time>2022-08-02T13:19:15.000Z</time>
      </trkpt>
      <trkpt lat="49.37774" lon="-0.90968">
        <ele>55.954086</ele>
        <time>2022-08-02T13:19:16.000Z</time>
      </trkpt>
      <trkpt lat="49.37769" lon="-0.90964">
        <ele>55.992875</ele>
        <time>2022-08-02T13:19:17.000Z</time>
      </trkpt>
      <trkpt lat="49.37765" lon="-0.90961">
        <ele>56.029565</ele>
        <time>2022-08-02T13:19:18.000Z</time>
      </trkpt>
      <trkpt lat="49.37759" lon="-0.90957">
        <ele>56.057736</ele>
        <time>2022-08-02T13:19:19.000Z</time>
      </trkpt>
      <trkpt lat="49.37755" lon="-0.90953">
        <ele>56.07504</ele>
        <time>2022-08-02T13:19:20.000Z</time>
      </trkpt>
      <trkpt lat="49.3775" lon="-0.90949">
        <ele>56.094158</ele>
        <time>2022-08-02T13:19:21.000Z</time>
      </trkpt>
      <trkpt lat="49.37745" lon="-0.90944">
        <ele>56.112864</ele>
        <time>2022-08-02T13:19:22.000Z</time>
      </trkpt>
      <trkpt lat="49.37741" lon="-0.90939">
        <ele>56.13051</ele>
        <time>2022-08-02T13:19:23.000Z</time>
      </trkpt>
      <trkpt lat="49.37735" lon="-0.90934">
        <ele>56.150392</ele>
        <time>2022-08-02T13:19:24.000Z</time>
      </trkpt>
      <trkpt lat="49.37731" lon="-0.9093">
        <ele>56.168396</ele>
        <time>2022-08-02T13:19:25.000Z</time>
      </trkpt>
      <trkpt lat="49.37726" lon="-0.90924">
        <ele>56.187822</ele>
        <time>2022-08-02T13:19:26.000Z</time>
      </trkpt>
      <trkpt lat="49.37722" lon="-0.90919">
        <ele>56.20624</ele>
        <time>2022-08-02T13:19:27.000Z</time>
      </trkpt>
      <trkpt lat="49.37718" lon="-0.90913">
        <ele>56.22485</ele>
        <time>2022-08-02T13:19:28.000Z</time>
      </trkpt>
      <trkpt lat="49.37714" lon="-0.90906">
        <ele>56.243294</ele>
        <time>2022-08-02T13:19:29.000Z</time>
      </trkpt>
      <trkpt lat="49.3771" lon="-0.909">
        <ele>56.261203</ele>
        <time>2022-08-02T13:19:30.000Z</time>
      </trkpt>
      <trkpt lat="49.37706" lon="-0.90894">
        <ele>56.279802</ele>
        <time>2022-08-02T13:19:31.000Z</time>
      </trkpt>
      <trkpt lat="49.37703" lon="-0.90887">
        <ele>56.297016</ele>
        <time>2022-08-02T13:19:32.000Z</time>
      </trkpt>
      <trkpt lat="49.377" lon="-0.9088">
        <ele>56.315934</ele>
        <time>2022-08-02T13:19:33.000Z</time>
      </trkpt>
      <trkpt lat="49.37696" lon="-0.90874">
        <ele>56.33448</ele>
        <time>2022-08-02T13:19:34.000Z</time>
      </trkpt>
      <trkpt lat="49.37693" lon="-0.90866">
        <ele>56.352594</ele>
        <time>2022-08-02T13:19:35.000Z</time>
      </trkpt>
      <trkpt lat="49.37691" lon="-0.90859">
        <ele>56.369864</ele>
        <time>2022-08-02T13:19:36.000Z</time>
      </trkpt>
      <trkpt lat="49.37688" lon="-0.90852">
        <ele>56.388516</ele>
        <time>2022-08-02T13:19:37.000Z</time>
      </trkpt>
      <trkpt lat="49.37685" lon="-0.90845">
        <ele>56.406318</ele>
        <time>2022-08-02T13:19:38.000Z</time>
      </trkpt>
      <trkpt lat="49.37682" lon="-0.90837">
        <ele>56.425863</ele>
        <time>2022-08-02T13:19:39.000Z</time>
      </trkpt>
      <trkpt lat="49.37679" lon="-0.9083">
        <ele>56.444159</ele>
        <time>2022-08-02T13:19:40.000Z</time>
      </trkpt>
      <trkpt lat="49.37676" lon="-0.90823">
        <ele>56.461737</ele>
        <time>2022-08-02T13:19:41.000Z</time>
      </trkpt>
      <trkpt lat="49.37673" lon="-0.90816">
        <ele>56.478595</ele>
        <time>2022-08-02T13:19:42.000Z</time>
      </trkpt>
      <trkpt lat="49.3767" lon="-0.90811">
        <ele>56.494898</ele>
        <time>2022-08-02T13:19:43.000Z</time>
      </trkpt>
      <trkpt lat="49.37666" lon="-0.90807">
        <ele>56.509499</ele>
        <time>2022-08-02T13:19:44.000Z</time>
      </trkpt>
      <trkpt lat="49.37663" lon="-0.90804">
        <ele>56.522165</ele>
        <time>2022-08-02T13:19:45.000Z</time>
      </trkpt>
      <trkpt lat="49.3766" lon="-0.90801">
        <ele>56.534267</ele>
        <time>2022-08-02T13:19:46.000Z</time>
      </trkpt>
      <trkpt lat="49.37657" lon="-0.90799">
        <ele>56.54353</ele>
        <time>2022-08-02T13:19:47.000Z</time>
      </trkpt>
      <trkpt lat="49.37655" lon="-0.90798">
        <ele>56.552451</ele>
        <time>2022-08-02T13:19:48.000Z</time>
      </trkpt>
      <trkpt lat="49.37652" lon="-0.90796">
        <ele>56.561125</ele>
        <time>2022-08-02T13:19:49.000Z</time>
      </trkpt>
      <trkpt lat="49.37651" lon="-0.90794">
        <ele>56.567771</ele>
        <time>2022-08-02T13:19:50.000Z</time>
      </trkpt>
      <trkpt lat="49.37649" lon="-0.90792">
        <ele>56.574287</ele>
        <time>2022-08-02T13:19:51.000Z</time>
      </trkpt>
      <trkpt lat="49.37649" lon="-0.90789">
        <ele>56.581134</ele>
        <time>2022-08-02T13:19:52.000Z</time>
      </trkpt>
      <trkpt lat="49.37649" lon="-0.90785">
        <ele>56.589692</ele>
        <time>2022-08-02T13:19:53.000Z</time>
      </trkpt>
      <trkpt lat="49.37649" lon="-0.9078">
        <ele>56.60039</ele>
        <time>2022-08-02T13:19:54.000Z</time>
      </trkpt>
      <trkpt lat="49.37649" lon="-0.90774">
        <ele>56.613642</ele>
        <time>2022-08-02T13:19:55.000Z</time>
      </trkpt>
      <trkpt lat="49.37648" lon="-0.90767">
        <ele>56.628536</ele>
        <time>2022-08-02T13:19:56.000Z</time>
      </trkpt>
      <trkpt lat="49.37647" lon="-0.9076">
        <ele>56.630881</ele>
        <time>2022-08-02T13:19:57.000Z</time>
      </trkpt>
      <trkpt lat="49.37645" lon="-0.90753">
        <ele>56.610715</ele>
        <time>2022-08-02T13:19:58.000Z</time>
      </trkpt>
      <trkpt lat="49.37644" lon="-0.90746">
        <ele>56.590688</ele>
        <time>2022-08-02T13:19:59.000Z</time>
      </trkpt>
      <trkpt lat="49.37643" lon="-0.90739">
        <ele>56.571951</ele>
        <time>2022-08-02T13:20:00.000Z</time>
      </trkpt>
      <trkpt lat="49.37641" lon="-0.90733">
        <ele>56.55362</ele>
        <time>2022-08-02T13:20:01.000Z</time>
      </trkpt>
      <trkpt lat="49.3764" lon="-0.90727">
        <ele>56.537364</ele>
        <time>2022-08-02T13:20:02.000Z</time>
      </trkpt>
      <trkpt lat="49.37639" lon="-0.90722">
        <ele>56.521366</ele>
        <time>2022-08-02T13:20:03.000Z</time>
      </trkpt>
      <trkpt lat="49.37638" lon="-0.90716">
        <ele>56.506387</ele>
        <time>2022-08-02T13:20:04.000Z</time>
      </trkpt>
      <trkpt lat="49.37637" lon="-0.90712">
        <ele>56.492937</ele>
        <time>2022-08-02T13:20:05.000Z</time>
      </trkpt>
      <trkpt lat="49.37636" lon="-0.90707">
        <ele>56.479396</ele>
        <time>2022-08-02T13:20:06.000Z</time>
      </trkpt>
      <trkpt lat="49.37634" lon="-0.90704">
        <ele>56.467144</ele>
        <time>2022-08-02T13:20:07.000Z</time>
      </trkpt>
      <trkpt lat="49.37631" lon="-0.90702">
        <ele>56.455307</ele>
        <time>2022-08-02T13:20:08.000Z</time>
      </trkpt>
      <trkpt lat="49.37628" lon="-0.90702">
        <ele>56.441857</ele>
        <time>2022-08-02T13:20:09.000Z</time>
      </trkpt>
      <trkpt lat="49.37625" lon="-0.90703">
        <ele>56.426327</ele>
        <time>2022-08-02T13:20:10.000Z</time>
      </trkpt>
      <trkpt lat="49.37621" lon="-0.90706">
        <ele>56.409072</ele>
        <time>2022-08-02T13:20:11.000Z</time>
      </trkpt>
      <trkpt lat="49.37617" lon="-0.90709">
        <ele>56.391372</ele>
        <time>2022-08-02T13:20:12.000Z</time>
      </trkpt>
      <trkpt lat="49.37613" lon="-0.90711">
        <ele>56.372252</ele>
        <time>2022-08-02T13:20:13.000Z</time>
      </trkpt>
      <trkpt lat="49.37609" lon="-0.90714">
        <ele>56.353526</ele>
        <time>2022-08-02T13:20:14.000Z</time>
      </trkpt>
      <trkpt lat="49.37605" lon="-0.90716">
        <ele>56.335001</ele>
        <time>2022-08-02T13:20:15.000Z</time>
      </trkpt>
      <trkpt lat="49.376" lon="-0.90718">
        <ele>56.316275</ele>
        <time>2022-08-02T13:20:16.000Z</time>
      </trkpt>
      <trkpt lat="49.37596" lon="-0.90721">
        <ele>56.297541</ele>
        <time>2022-08-02T13:20:17.000Z</time>
      </trkpt>
      <trkpt lat="49.37592" lon="-0.90724">
        <ele>56.278972</ele>
        <time>2022-08-02T13:20:18.000Z</time>
      </trkpt>
      <trkpt lat="49.37589" lon="-0.90727">
        <ele>56.261029</ele>
        <time>2022-08-02T13:20:19.000Z</time>
      </trkpt>
      <trkpt lat="49.37584" lon="-0.9073">
        <ele>56.24146</ele>
        <time>2022-08-02T13:20:20.000Z</time>
      </trkpt>
      <trkpt lat="49.37581" lon="-0.90733">
        <ele>56.223517</ele>
        <time>2022-08-02T13:20:21.000Z</time>
      </trkpt>
      <trkpt lat="49.37577" lon="-0.90736">
        <ele>56.205321</ele>
        <time>2022-08-02T13:20:22.000Z</time>
      </trkpt>
      <trkpt lat="49.37573" lon="-0.90739">
        <ele>56.187251</ele>
        <time>2022-08-02T13:20:23.000Z</time>
      </trkpt>
      <trkpt lat="49.37569" lon="-0.90742">
        <ele>56.169308</ele>
        <time>2022-08-02T13:20:24.000Z</time>
      </trkpt>
      <trkpt lat="49.37565" lon="-0.90745">
        <ele>56.15099</ele>
        <time>2022-08-02T13:20:25.000Z</time>
      </trkpt>
      <trkpt lat="49.37561" lon="-0.90748">
        <ele>56.131918</ele>
        <time>2022-08-02T13:20:26.000Z</time>
      </trkpt>
      <trkpt lat="49.37557" lon="-0.90752">
        <ele>56.112229</ele>
        <time>2022-08-02T13:20:27.000Z</time>
      </trkpt>
      <trkpt lat="49.37553" lon="-0.90755">
        <ele>56.09254</ele>
        <time>2022-08-02T13:20:28.000Z</time>
      </trkpt>
      <trkpt lat="49.37549" lon="-0.90758">
        <ele>56.074597</ele>
        <time>2022-08-02T13:20:29.000Z</time>
      </trkpt>
      <trkpt lat="49.37545" lon="-0.90761">
        <ele>56.05763</ele>
        <time>2022-08-02T13:20:30.000Z</time>
      </trkpt>
      <trkpt lat="49.37541" lon="-0.90764">
        <ele>56.039665</ele>
        <time>2022-08-02T13:20:31.000Z</time>
      </trkpt>
      <trkpt lat="49.37538" lon="-0.90766">
        <ele>56.023677</ele>
        <time>2022-08-02T13:20:32.000Z</time>
      </trkpt>
      <trkpt lat="49.37534" lon="-0.90768">
        <ele>56.007995</ele>
        <time>2022-08-02T13:20:33.000Z</time>
      </trkpt>
      <trkpt lat="49.37531" lon="-0.9077">
        <ele>55.992405</ele>
        <time>2022-08-02T13:20:34.000Z</time>
      </trkpt>
      <trkpt lat="49.37528" lon="-0.90772">
        <ele>55.980194</ele>
        <time>2022-08-02T13:20:35.000Z</time>
      </trkpt>
      <trkpt lat="49.37526" lon="-0.90774">
        <ele>55.969316</ele>
        <time>2022-08-02T13:20:36.000Z</time>
      </trkpt>
      <trkpt lat="49.37524" lon="-0.90775">
        <ele>55.960466</ele>
        <time>2022-08-02T13:20:37.000Z</time>
      </trkpt>
      <trkpt lat="49.37522" lon="-0.90775">
        <ele>55.951956</ele>
        <time>2022-08-02T13:20:38.000Z</time>
      </trkpt>
      <trkpt lat="49.3752" lon="-0.90772">
        <ele>55.939428</ele>
        <time>2022-08-02T13:20:39.000Z</time>
      </trkpt>
      <trkpt lat="49.37518" lon="-0.90768">
        <ele>55.927204</ele>
        <time>2022-08-02T13:20:40.000Z</time>
      </trkpt>
      <trkpt lat="49.37517" lon="-0.90762">
        <ele>55.909206</ele>
        <time>2022-08-02T13:20:41.000Z</time>
      </trkpt>
      <trkpt lat="49.37515" lon="-0.90756">
        <ele>55.889724</ele>
        <time>2022-08-02T13:20:42.000Z</time>
      </trkpt>
      <trkpt lat="49.37512" lon="-0.90749">
        <ele>55.715157</ele>
        <time>2022-08-02T13:20:43.000Z</time>
      </trkpt>
      <trkpt lat="49.3751" lon="-0.90742">
        <ele>55.478018</ele>
        <time>2022-08-02T13:20:44.000Z</time>
      </trkpt>
      <trkpt lat="49.37508" lon="-0.90735">
        <ele>55.234972</ele>
        <time>2022-08-02T13:20:45.000Z</time>
      </trkpt>
      <trkpt lat="49.37506" lon="-0.90728">
        <ele>54.993078</ele>
        <time>2022-08-02T13:20:46.000Z</time>
      </trkpt>
      <trkpt lat="49.37505" lon="-0.9072">
        <ele>54.731393</ele>
        <time>2022-08-02T13:20:47.000Z</time>
      </trkpt>
      <trkpt lat="49.37503" lon="-0.90711">
        <ele>54.433635</ele>
        <time>2022-08-02T13:20:48.000Z</time>
      </trkpt>
      <trkpt lat="49.37502" lon="-0.907">
        <ele>54.113395</ele>
        <time>2022-08-02T13:20:49.000Z</time>
      </trkpt>
      <trkpt lat="49.37501" lon="-0.90689">
        <ele>53.766102</ele>
        <time>2022-08-02T13:20:50.000Z</time>
      </trkpt>
      <trkpt lat="49.37501" lon="-0.90678">
        <ele>53.410132</ele>
        <time>2022-08-02T13:20:51.000Z</time>
      </trkpt>
      <trkpt lat="49.37499" lon="-0.90667">
        <ele>53.060319</ele>
        <time>2022-08-02T13:20:52.000Z</time>
      </trkpt>
      <trkpt lat="49.37497" lon="-0.90656">
        <ele>52.706214</ele>
        <time>2022-08-02T13:20:53.000Z</time>
      </trkpt>
      <trkpt lat="49.37495" lon="-0.90646">
        <ele>52.375107</ele>
        <time>2022-08-02T13:20:54.000Z</time>
      </trkpt>
      <trkpt lat="49.37494" lon="-0.90637">
        <ele>52.078651</ele>
        <time>2022-08-02T13:20:55.000Z</time>
      </trkpt>
      <trkpt lat="49.37493" lon="-0.90628">
        <ele>51.811639</ele>
        <time>2022-08-02T13:20:56.000Z</time>
      </trkpt>
      <trkpt lat="49.37492" lon="-0.90622">
        <ele>51.590035</ele>
        <time>2022-08-02T13:20:57.000Z</time>
      </trkpt>
      <trkpt lat="49.37491" lon="-0.90616">
        <ele>51.406637</ele>
        <time>2022-08-02T13:20:58.000Z</time>
      </trkpt>
      <trkpt lat="49.37489" lon="-0.90611">
        <ele>51.24408</ele>
        <time>2022-08-02T13:20:59.000Z</time>
      </trkpt>
      <trkpt lat="49.37489" lon="-0.90607">
        <ele>51.09941</ele>
        <time>2022-08-02T13:21:00.000Z</time>
      </trkpt>
      <trkpt lat="49.37488" lon="-0.90602">
        <ele>50.952212</ele>
        <time>2022-08-02T13:21:01.000Z</time>
      </trkpt>
      <trkpt lat="49.37487" lon="-0.90597">
        <ele>50.804544</ele>
        <time>2022-08-02T13:21:02.000Z</time>
      </trkpt>
      <trkpt lat="49.37488" lon="-0.90593">
        <ele>50.648354</ele>
        <time>2022-08-02T13:21:03.000Z</time>
      </trkpt>
      <trkpt lat="49.3749" lon="-0.90588">
        <ele>50.480649</ele>
        <time>2022-08-02T13:21:04.000Z</time>
      </trkpt>
      <trkpt lat="49.37493" lon="-0.90584">
        <ele>50.303916</ele>
        <time>2022-08-02T13:21:05.000Z</time>
      </trkpt>
      <trkpt lat="49.37496" lon="-0.9058">
        <ele>50.098074</ele>
        <time>2022-08-02T13:21:06.000Z</time>
      </trkpt>
      <trkpt lat="49.375" lon="-0.90576">
        <ele>49.869325</ele>
        <time>2022-08-02T13:21:07.000Z</time>
      </trkpt>
      <trkpt lat="49.37503" lon="-0.90572">
        <ele>49.671182</ele>
        <time>2022-08-02T13:21:08.000Z</time>
      </trkpt>
      <trkpt lat="49.37507" lon="-0.90568">
        <ele>49.446348</ele>
        <time>2022-08-02T13:21:09.000Z</time>
      </trkpt>
      <trkpt lat="49.37512" lon="-0.90564">
        <ele>49.195074</ele>
        <time>2022-08-02T13:21:10.000Z</time>
      </trkpt>
      <trkpt lat="49.37516" lon="-0.9056">
        <ele>48.945381</ele>
        <time>2022-08-02T13:21:11.000Z</time>
      </trkpt>
      <trkpt lat="49.37521" lon="-0.90555">
        <ele>48.675314</ele>
        <time>2022-08-02T13:21:12.000Z</time>
      </trkpt>
      <trkpt lat="49.37526" lon="-0.90551">
        <ele>48.389682</ele>
        <time>2022-08-02T13:21:13.000Z</time>
      </trkpt>
      <trkpt lat="49.37531" lon="-0.90546">
        <ele>48.116305</ele>
        <time>2022-08-02T13:21:14.000Z</time>
      </trkpt>
      <trkpt lat="49.37536" lon="-0.90541">
        <ele>47.816673</ele>
        <time>2022-08-02T13:21:15.000Z</time>
      </trkpt>
      <trkpt lat="49.37541" lon="-0.90536">
        <ele>47.529421</ele>
        <time>2022-08-02T13:21:16.000Z</time>
      </trkpt>
      <trkpt lat="49.37548" lon="-0.90532">
        <ele>47.189403</ele>
        <time>2022-08-02T13:21:17.000Z</time>
      </trkpt>
      <trkpt lat="49.37553" lon="-0.90527">
        <ele>46.906139</ele>
        <time>2022-08-02T13:21:18.000Z</time>
      </trkpt>
      <trkpt lat="49.37559" lon="-0.90523">
        <ele>46.589249</ele>
        <time>2022-08-02T13:21:19.000Z</time>
      </trkpt>
      <trkpt lat="49.37565" lon="-0.90519">
        <ele>46.287512</ele>
        <time>2022-08-02T13:21:20.000Z</time>
      </trkpt>
      <trkpt lat="49.3757" lon="-0.90515">
        <ele>46.009349</ele>
        <time>2022-08-02T13:21:21.000Z</time>
      </trkpt>
      <trkpt lat="49.37576" lon="-0.90512">
        <ele>45.729115</ele>
        <time>2022-08-02T13:21:22.000Z</time>
      </trkpt>
      <trkpt lat="49.37581" lon="-0.90509">
        <ele>45.484322</ele>
        <time>2022-08-02T13:21:23.000Z</time>
      </trkpt>
      <trkpt lat="49.37584" lon="-0.90507">
        <ele>45.295596</ele>
        <time>2022-08-02T13:21:24.000Z</time>
      </trkpt>
      <trkpt lat="49.37587" lon="-0.90506">
        <ele>45.153059</ele>
        <time>2022-08-02T13:21:25.000Z</time>
      </trkpt>
      <trkpt lat="49.3759" lon="-0.90505">
        <ele>45.023292</ele>
        <time>2022-08-02T13:21:26.000Z</time>
      </trkpt>
      <trkpt lat="49.37592" lon="-0.90501">
        <ele>44.866847</ele>
        <time>2022-08-02T13:21:28.000Z</time>
      </trkpt>
      <trkpt lat="49.37592" lon="-0.90494">
        <ele>44.628917</ele>
        <time>2022-08-02T13:21:36.000Z</time>
      </trkpt>
      <trkpt lat="49.37591" lon="-0.9049">
        <ele>44.504406</ele>
        <time>2022-08-02T13:21:38.000Z</time>
      </trkpt>
      <trkpt lat="49.3759" lon="-0.90487">
        <ele>44.393852</ele>
        <time>2022-08-02T13:21:40.000Z</time>
      </trkpt>
      <trkpt lat="49.3759" lon="-0.90481">
        <ele>44.201743</ele>
        <time>2022-08-02T13:21:42.000Z</time>
      </trkpt>
      <trkpt lat="49.37592" lon="-0.90476">
        <ele>44.05138</ele>
        <time>2022-08-02T13:21:43.000Z</time>
      </trkpt>
      <trkpt lat="49.37595" lon="-0.90474">
        <ele>43.900677</ele>
        <time>2022-08-02T13:21:44.000Z</time>
      </trkpt>
      <trkpt lat="49.37597" lon="-0.90473">
        <ele>43.779483</ele>
        <time>2022-08-02T13:21:45.000Z</time>
      </trkpt>
      <trkpt lat="49.376" lon="-0.90473">
        <ele>43.655742</ele>
        <time>2022-08-02T13:21:46.000Z</time>
      </trkpt>
      <trkpt lat="49.37602" lon="-0.90474">
        <ele>43.536094</ele>
        <time>2022-08-02T13:21:47.000Z</time>
      </trkpt>
      <trkpt lat="49.37605" lon="-0.90474">
        <ele>43.426546</ele>
        <time>2022-08-02T13:21:48.000Z</time>
      </trkpt>
      <trkpt lat="49.37607" lon="-0.90473">
        <ele>43.321</ele>
        <time>2022-08-02T13:21:49.000Z</time>
      </trkpt>
      <trkpt lat="49.37609" lon="-0.90473">
        <ele>43.20908</ele>
        <time>2022-08-02T13:21:50.000Z</time>
      </trkpt>
      <trkpt lat="49.37612" lon="-0.90471">
        <ele>43.079325</ele>
        <time>2022-08-02T13:21:51.000Z</time>
      </trkpt>
      <trkpt lat="49.37613" lon="-0.90469">
        <ele>42.977939</ele>
        <time>2022-08-02T13:21:52.000Z</time>
      </trkpt>
      <trkpt lat="49.37617" lon="-0.90467">
        <ele>42.80613</ele>
        <time>2022-08-02T13:21:54.000Z</time>
      </trkpt>
      <trkpt lat="49.37619" lon="-0.90466">
        <ele>42.695887</ele>
        <time>2022-08-02T13:21:55.000Z</time>
      </trkpt>
      <trkpt lat="49.37622" lon="-0.90466">
        <ele>42.557392</ele>
        <time>2022-08-02T13:21:56.000Z</time>
      </trkpt>
      <trkpt lat="49.37624" lon="-0.90465">
        <ele>42.434787</ele>
        <time>2022-08-02T13:21:57.000Z</time>
      </trkpt>
      <trkpt lat="49.37628" lon="-0.90463">
        <ele>42.274091</ele>
        <time>2022-08-02T13:21:58.000Z</time>
      </trkpt>
      <trkpt lat="49.37631" lon="-0.90461">
        <ele>42.080826</ele>
        <time>2022-08-02T13:21:59.000Z</time>
      </trkpt>
      <trkpt lat="49.37635" lon="-0.90459">
        <ele>41.884634</ele>
        <time>2022-08-02T13:22:00.000Z</time>
      </trkpt>
      <trkpt lat="49.37639" lon="-0.90457">
        <ele>41.675947</ele>
        <time>2022-08-02T13:22:01.000Z</time>
      </trkpt>
      <trkpt lat="49.37644" lon="-0.90455">
        <ele>41.458176</ele>
        <time>2022-08-02T13:22:02.000Z</time>
      </trkpt>
      <trkpt lat="49.37649" lon="-0.90453">
        <ele>41.224396</ele>
        <time>2022-08-02T13:22:03.000Z</time>
      </trkpt>
      <trkpt lat="49.37653" lon="-0.90451">
        <ele>40.986668</ele>
        <time>2022-08-02T13:22:04.000Z</time>
      </trkpt>
      <trkpt lat="49.37658" lon="-0.90449">
        <ele>40.753563</ele>
        <time>2022-08-02T13:22:05.000Z</time>
      </trkpt>
      <trkpt lat="49.37662" lon="-0.90448">
        <ele>40.547431</ele>
        <time>2022-08-02T13:22:06.000Z</time>
      </trkpt>
      <trkpt lat="49.37667" lon="-0.90446">
        <ele>40.342786</ele>
        <time>2022-08-02T13:22:07.000Z</time>
      </trkpt>
      <trkpt lat="49.37671" lon="-0.90445">
        <ele>40.110317</ele>
        <time>2022-08-02T13:22:08.000Z</time>
      </trkpt>
      <trkpt lat="49.37676" lon="-0.90443">
        <ele>39.911633</ele>
        <time>2022-08-02T13:22:09.000Z</time>
      </trkpt>
      <trkpt lat="49.3768" lon="-0.90442">
        <ele>39.708887</ele>
        <time>2022-08-02T13:22:10.000Z</time>
      </trkpt>
      <trkpt lat="49.37684" lon="-0.90441">
        <ele>39.511868</ele>
        <time>2022-08-02T13:22:11.000Z</time>
      </trkpt>
      <trkpt lat="49.37688" lon="-0.9044">
        <ele>39.296878</ele>
        <time>2022-08-02T13:22:12.000Z</time>
      </trkpt>
      <trkpt lat="49.37693" lon="-0.90439">
        <ele>39.052015</ele>
        <time>2022-08-02T13:22:13.000Z</time>
      </trkpt>
      <trkpt lat="49.37698" lon="-0.90438">
        <ele>38.833479</ele>
        <time>2022-08-02T13:22:14.000Z</time>
      </trkpt>
      <trkpt lat="49.37703" lon="-0.90436">
        <ele>38.589481</ele>
        <time>2022-08-02T13:22:15.000Z</time>
      </trkpt>
      <trkpt lat="49.37708" lon="-0.90434">
        <ele>38.360487</ele>
        <time>2022-08-02T13:22:16.000Z</time>
      </trkpt>
      <trkpt lat="49.37713" lon="-0.90432">
        <ele>38.10329</ele>
        <time>2022-08-02T13:22:17.000Z</time>
      </trkpt>
      <trkpt lat="49.37719" lon="-0.90431">
        <ele>37.839139</ele>
        <time>2022-08-02T13:22:18.000Z</time>
      </trkpt>
      <trkpt lat="49.37724" lon="-0.90431">
        <ele>37.599548</ele>
        <time>2022-08-02T13:22:19.000Z</time>
      </trkpt>
      <trkpt lat="49.37728" lon="-0.9043">
        <ele>37.420297</ele>
        <time>2022-08-02T13:22:20.000Z</time>
      </trkpt>
      <trkpt lat="49.37731" lon="-0.9043">
        <ele>37.272838</ele>
        <time>2022-08-02T13:22:21.000Z</time>
      </trkpt>
      <trkpt lat="49.37734" lon="-0.9043">
        <ele>37.153127</ele>
        <time>2022-08-02T13:22:22.000Z</time>
      </trkpt>
      <trkpt lat="49.37737" lon="-0.9043">
        <ele>37.003851</ele>
        <time>2022-08-02T13:22:24.000Z</time>
      </trkpt>
      <trkpt lat="49.37739" lon="-0.9043">
        <ele>36.915095</ele>
        <time>2022-08-02T13:22:26.000Z</time>
      </trkpt>
      <trkpt lat="49.37741" lon="-0.90429">
        <ele>36.825783</ele>
        <time>2022-08-02T13:22:28.000Z</time>
      </trkpt>
      <trkpt lat="49.37743" lon="-0.90428">
        <ele>36.714957</ele>
        <time>2022-08-02T13:22:30.000Z</time>
      </trkpt>
      <trkpt lat="49.37747" lon="-0.90426">
        <ele>36.543212</ele>
        <time>2022-08-02T13:22:32.000Z</time>
      </trkpt>
      <trkpt lat="49.37749" lon="-0.90425">
        <ele>36.450737</ele>
        <time>2022-08-02T13:22:33.000Z</time>
      </trkpt>
      <trkpt lat="49.37751" lon="-0.90424">
        <ele>36.345911</ele>
        <time>2022-08-02T13:22:34.000Z</time>
      </trkpt>
      <trkpt lat="49.37753" lon="-0.90424">
        <ele>36.238496</ele>
        <time>2022-08-02T13:22:35.000Z</time>
      </trkpt>
      <trkpt lat="49.37756" lon="-0.90423">
        <ele>36.104652</ele>
        <time>2022-08-02T13:22:36.000Z</time>
      </trkpt>
      <trkpt lat="49.37759" lon="-0.90421">
        <ele>35.952248</ele>
        <time>2022-08-02T13:22:37.000Z</time>
      </trkpt>
      <trkpt lat="49.37763" lon="-0.9042">
        <ele>35.767842</ele>
        <time>2022-08-02T13:22:38.000Z</time>
      </trkpt>
      <trkpt lat="49.37767" lon="-0.90418">
        <ele>35.569774</ele>
        <time>2022-08-02T13:22:39.000Z</time>
      </trkpt>
      <trkpt lat="49.37771" lon="-0.90416">
        <ele>35.367313</ele>
        <time>2022-08-02T13:22:40.000Z</time>
      </trkpt>
      <trkpt lat="49.37776" lon="-0.90414">
        <ele>35.150768</ele>
        <time>2022-08-02T13:22:41.000Z</time>
      </trkpt>
      <trkpt lat="49.3778" lon="-0.90411">
        <ele>34.945373</ele>
        <time>2022-08-02T13:22:42.000Z</time>
      </trkpt>
      <trkpt lat="49.37784" lon="-0.90409">
        <ele>34.725043</ele>
        <time>2022-08-02T13:22:43.000Z</time>
      </trkpt>
      <trkpt lat="49.37789" lon="-0.90407">
        <ele>34.49605</ele>
        <time>2022-08-02T13:22:44.000Z</time>
      </trkpt>
      <trkpt lat="49.37794" lon="-0.90404">
        <ele>34.278614</ele>
        <time>2022-08-02T13:22:45.000Z</time>
      </trkpt>
      <trkpt lat="49.37799" lon="-0.90402">
        <ele>34.035504</ele>
        <time>2022-08-02T13:22:46.000Z</time>
      </trkpt>
      <trkpt lat="49.37805" lon="-0.904">
        <ele>33.758934</ele>
        <time>2022-08-02T13:22:47.000Z</time>
      </trkpt>
      <trkpt lat="49.3781" lon="-0.90397">
        <ele>33.48151</ele>
        <time>2022-08-02T13:22:48.000Z</time>
      </trkpt>
      <trkpt lat="49.37815" lon="-0.90394">
        <ele>33.225754</ele>
        <time>2022-08-02T13:22:49.000Z</time>
      </trkpt>
      <trkpt lat="49.37821" lon="-0.90391">
        <ele>32.945285</ele>
        <time>2022-08-02T13:22:50.000Z</time>
      </trkpt>
      <trkpt lat="49.37827" lon="-0.90387">
        <ele>32.673414</ele>
        <time>2022-08-02T13:22:51.000Z</time>
      </trkpt>
      <trkpt lat="49.37832" lon="-0.90384">
        <ele>32.388495</ele>
        <time>2022-08-02T13:22:52.000Z</time>
      </trkpt>
      <trkpt lat="49.37838" lon="-0.9038">
        <ele>32.086526</ele>
        <time>2022-08-02T13:22:53.000Z</time>
      </trkpt>
      <trkpt lat="49.37845" lon="-0.90376">
        <ele>31.772713</ele>
        <time>2022-08-02T13:22:54.000Z</time>
      </trkpt>
      <trkpt lat="49.37852" lon="-0.90373">
        <ele>31.414398</ele>
        <time>2022-08-02T13:22:55.000Z</time>
      </trkpt>
      <trkpt lat="49.37859" lon="-0.90368">
        <ele>31.081208</ele>
        <time>2022-08-02T13:22:56.000Z</time>
      </trkpt>
      <trkpt lat="49.37866" lon="-0.90365">
        <ele>30.73937</ele>
        <time>2022-08-02T13:22:57.000Z</time>
      </trkpt>
      <trkpt lat="49.37872" lon="-0.90361">
        <ele>30.421713</ele>
        <time>2022-08-02T13:22:58.000Z</time>
      </trkpt>
      <trkpt lat="49.37878" lon="-0.90357">
        <ele>30.001486</ele>
        <time>2022-08-02T13:22:59.000Z</time>
      </trkpt>
      <trkpt lat="49.37884" lon="-0.90353">
        <ele>29.617381</ele>
        <time>2022-08-02T13:23:00.000Z</time>
      </trkpt>
      <trkpt lat="49.37887" lon="-0.9035">
        <ele>29.358762</ele>
        <time>2022-08-02T13:23:01.000Z</time>
      </trkpt>
      <trkpt lat="49.3789" lon="-0.90348">
        <ele>29.152144</ele>
        <time>2022-08-02T13:23:02.000Z</time>
      </trkpt>
      <trkpt lat="49.37893" lon="-0.90347">
        <ele>28.965245</ele>
        <time>2022-08-02T13:23:03.000Z</time>
      </trkpt>
      <trkpt lat="49.37895" lon="-0.90345">
        <ele>28.801889</ele>
        <time>2022-08-02T13:23:04.000Z</time>
      </trkpt>
      <trkpt lat="49.37896" lon="-0.90343">
        <ele>28.679045</ele>
        <time>2022-08-02T13:23:05.000Z</time>
      </trkpt>
      <trkpt lat="49.37902" lon="-0.90335">
        <ele>28.168178</ele>
        <time>2022-08-02T13:23:14.000Z</time>
      </trkpt>
      <trkpt lat="49.37904" lon="-0.9033">
        <ele>27.93429</ele>
        <time>2022-08-02T13:23:16.000Z</time>
      </trkpt>
      <trkpt lat="49.37904" lon="-0.90327">
        <ele>27.800387</ele>
        <time>2022-08-02T13:23:17.000Z</time>
      </trkpt>
      <trkpt lat="49.37905" lon="-0.90324">
        <ele>27.637307</ele>
        <time>2022-08-02T13:23:18.000Z</time>
      </trkpt>
      <trkpt lat="49.37906" lon="-0.9032">
        <ele>27.482454</ele>
        <time>2022-08-02T13:23:19.000Z</time>
      </trkpt>
      <trkpt lat="49.37906" lon="-0.90316">
        <ele>27.30218</ele>
        <time>2022-08-02T13:23:20.000Z</time>
      </trkpt>
      <trkpt lat="49.37906" lon="-0.90312">
        <ele>27.109176</ele>
        <time>2022-08-02T13:23:21.000Z</time>
      </trkpt>
      <trkpt lat="49.37906" lon="-0.90306">
        <ele>26.887311</ele>
        <time>2022-08-02T13:23:22.000Z</time>
      </trkpt>
      <trkpt lat="49.37907" lon="-0.90301">
        <ele>26.646944</ele>
        <time>2022-08-02T13:23:23.000Z</time>
      </trkpt>
      <trkpt lat="49.37907" lon="-0.90295">
        <ele>26.403745</ele>
        <time>2022-08-02T13:23:24.000Z</time>
      </trkpt>
      <trkpt lat="49.37907" lon="-0.90289">
        <ele>26.156279</ele>
        <time>2022-08-02T13:23:25.000Z</time>
      </trkpt>
      <trkpt lat="49.37906" lon="-0.90283">
        <ele>25.903186</ele>
        <time>2022-08-02T13:23:26.000Z</time>
      </trkpt>
      <trkpt lat="49.37906" lon="-0.90278">
        <ele>25.65572</ele>
        <time>2022-08-02T13:23:27.000Z</time>
      </trkpt>
      <trkpt lat="49.37906" lon="-0.90272">
        <ele>25.408254</ele>
        <time>2022-08-02T13:23:28.000Z</time>
      </trkpt>
      <trkpt lat="49.37906" lon="-0.90266">
        <ele>25.156522</ele>
        <time>2022-08-02T13:23:29.000Z</time>
      </trkpt>
      <trkpt lat="49.37906" lon="-0.9026">
        <ele>24.908276</ele>
        <time>2022-08-02T13:23:30.000Z</time>
      </trkpt>
      <trkpt lat="49.37906" lon="-0.90254">
        <ele>24.651523</ele>
        <time>2022-08-02T13:23:31.000Z</time>
      </trkpt>
      <trkpt lat="49.37905" lon="-0.90248">
        <ele>24.382006</ele>
        <time>2022-08-02T13:23:32.000Z</time>
      </trkpt>
      <trkpt lat="49.37904" lon="-0.90241">
        <ele>24.101186</ele>
        <time>2022-08-02T13:23:33.000Z</time>
      </trkpt>
      <trkpt lat="49.37904" lon="-0.90235">
        <ele>23.837967</ele>
        <time>2022-08-02T13:23:34.000Z</time>
      </trkpt>
      <trkpt lat="49.37902" lon="-0.90229">
        <ele>23.551919</ele>
        <time>2022-08-02T13:23:35.000Z</time>
      </trkpt>
      <trkpt lat="49.37901" lon="-0.90223">
        <ele>23.275278</ele>
        <time>2022-08-02T13:23:36.000Z</time>
      </trkpt>
      <trkpt lat="49.379" lon="-0.90217">
        <ele>23.006888</ele>
        <time>2022-08-02T13:23:37.000Z</time>
      </trkpt>
      <trkpt lat="49.37898" lon="-0.9021">
        <ele>22.714382</ele>
        <time>2022-08-02T13:23:38.000Z</time>
      </trkpt>
      <trkpt lat="49.37896" lon="-0.90205">
        <ele>22.44495</ele>
        <time>2022-08-02T13:23:39.000Z</time>
      </trkpt>
      <trkpt lat="49.37895" lon="-0.90199">
        <ele>22.160394</ele>
        <time>2022-08-02T13:23:40.000Z</time>
      </trkpt>
      <trkpt lat="49.37893" lon="-0.90192">
        <ele>21.88248</ele>
        <time>2022-08-02T13:23:41.000Z</time>
      </trkpt>
      <trkpt lat="49.37892" lon="-0.90186">
        <ele>21.605838</ele>
        <time>2022-08-02T13:23:42.000Z</time>
      </trkpt>
      <trkpt lat="49.3789" lon="-0.90181">
        <ele>21.348811</ele>
        <time>2022-08-02T13:23:43.000Z</time>
      </trkpt>
      <trkpt lat="49.37888" lon="-0.90175">
        <ele>21.071784</ele>
        <time>2022-08-02T13:23:44.000Z</time>
      </trkpt>
      <trkpt lat="49.37886" lon="-0.90169">
        <ele>20.798561</ele>
        <time>2022-08-02T13:23:45.000Z</time>
      </trkpt>
      <trkpt lat="49.37885" lon="-0.90164">
        <ele>20.521534</ele>
        <time>2022-08-02T13:23:46.000Z</time>
      </trkpt>
      <trkpt lat="49.37883" lon="-0.90158">
        <ele>20.248311</ele>
        <time>2022-08-02T13:23:47.000Z</time>
      </trkpt>
      <trkpt lat="49.37881" lon="-0.90153">
        <ele>19.99905</ele>
        <time>2022-08-02T13:23:48.000Z</time>
      </trkpt>
      <trkpt lat="49.37879" lon="-0.90147">
        <ele>19.737677</ele>
        <time>2022-08-02T13:23:49.000Z</time>
      </trkpt>
      <trkpt lat="49.37878" lon="-0.90142">
        <ele>19.490184</ele>
        <time>2022-08-02T13:23:50.000Z</time>
      </trkpt>
      <trkpt lat="49.37876" lon="-0.90136">
        <ele>19.225111</ele>
        <time>2022-08-02T13:23:51.000Z</time>
      </trkpt>
      <trkpt lat="49.37874" lon="-0.90131">
        <ele>18.975849</ele>
        <time>2022-08-02T13:23:52.000Z</time>
      </trkpt>
      <trkpt lat="49.37873" lon="-0.90126">
        <ele>18.730452</ele>
        <time>2022-08-02T13:23:53.000Z</time>
      </trkpt>
      <trkpt lat="49.37871" lon="-0.90121">
        <ele>18.629438</ele>
        <time>2022-08-02T13:23:54.000Z</time>
      </trkpt>
      <trkpt lat="49.37869" lon="-0.90115">
        <ele>18.611915</ele>
        <time>2022-08-02T13:23:55.000Z</time>
      </trkpt>
      <trkpt lat="49.37867" lon="-0.9011">
        <ele>18.595754</ele>
        <time>2022-08-02T13:23:56.000Z</time>
      </trkpt>
      <trkpt lat="49.37866" lon="-0.90105">
        <ele>18.578816</ele>
        <time>2022-08-02T13:23:57.000Z</time>
      </trkpt>
      <trkpt lat="49.37863" lon="-0.901">
        <ele>18.560549</ele>
        <time>2022-08-02T13:23:58.000Z</time>
      </trkpt>
      <trkpt lat="49.37861" lon="-0.90095">
        <ele>18.543321</ele>
        <time>2022-08-02T13:23:59.000Z</time>
      </trkpt>
      <trkpt lat="49.37859" lon="-0.9009">
        <ele>18.526793</ele>
        <time>2022-08-02T13:24:00.000Z</time>
      </trkpt>
      <trkpt lat="49.37857" lon="-0.90085">
        <ele>18.50861</ele>
        <time>2022-08-02T13:24:01.000Z</time>
      </trkpt>
      <trkpt lat="49.37855" lon="-0.90079">
        <ele>18.490836</ele>
        <time>2022-08-02T13:24:02.000Z</time>
      </trkpt>
      <trkpt lat="49.37853" lon="-0.90074">
        <ele>18.472892</ele>
        <time>2022-08-02T13:24:03.000Z</time>
      </trkpt>
      <trkpt lat="49.3785" lon="-0.90068">
        <ele>18.454231</ele>
        <time>2022-08-02T13:24:04.000Z</time>
      </trkpt>
      <trkpt lat="49.37848" lon="-0.90063">
        <ele>18.435803</ele>
        <time>2022-08-02T13:24:05.000Z</time>
      </trkpt>
      <trkpt lat="49.37845" lon="-0.90057">
        <ele>18.415598</ele>
        <time>2022-08-02T13:24:06.000Z</time>
      </trkpt>
      <trkpt lat="49.37843" lon="-0.90052">
        <ele>18.39717</ele>
        <time>2022-08-02T13:24:07.000Z</time>
      </trkpt>
      <trkpt lat="49.37841" lon="-0.90046">
        <ele>18.378749</ele>
        <time>2022-08-02T13:24:08.000Z</time>
      </trkpt>
      <trkpt lat="49.37838" lon="-0.90041">
        <ele>18.359599</ele>
        <time>2022-08-02T13:24:09.000Z</time>
      </trkpt>
      <trkpt lat="49.37835" lon="-0.90035">
        <ele>18.339172</ele>
        <time>2022-08-02T13:24:10.000Z</time>
      </trkpt>
      <trkpt lat="49.37833" lon="-0.9003">
        <ele>18.319768</ele>
        <time>2022-08-02T13:24:11.000Z</time>
      </trkpt>
      <trkpt lat="49.3783" lon="-0.90024">
        <ele>18.30011</ele>
        <time>2022-08-02T13:24:12.000Z</time>
      </trkpt>
      <trkpt lat="49.37828" lon="-0.90018">
        <ele>18.280241</ele>
        <time>2022-08-02T13:24:13.000Z</time>
      </trkpt>
      <trkpt lat="49.37825" lon="-0.90012">
        <ele>18.259167</ele>
        <time>2022-08-02T13:24:14.000Z</time>
      </trkpt>
      <trkpt lat="49.37823" lon="-0.90006">
        <ele>18.238547</ele>
        <time>2022-08-02T13:24:15.000Z</time>
      </trkpt>
      <trkpt lat="49.3782" lon="-0.9">
        <ele>18.218211</ele>
        <time>2022-08-02T13:24:16.000Z</time>
      </trkpt>
      <trkpt lat="49.37817" lon="-0.89994">
        <ele>18.197107</ele>
        <time>2022-08-02T13:24:17.000Z</time>
      </trkpt>
      <trkpt lat="49.37815" lon="-0.89988">
        <ele>18.176531</ele>
        <time>2022-08-02T13:24:18.000Z</time>
      </trkpt>
      <trkpt lat="49.37812" lon="-0.89982">
        <ele>18.155468</ele>
        <time>2022-08-02T13:24:19.000Z</time>
      </trkpt>
      <trkpt lat="49.37809" lon="-0.89975">
        <ele>18.133442</ele>
        <time>2022-08-02T13:24:20.000Z</time>
      </trkpt>
      <trkpt lat="49.37807" lon="-0.89969">
        <ele>18.111906</ele>
        <time>2022-08-02T13:24:21.000Z</time>
      </trkpt>
      <trkpt lat="49.37804" lon="-0.89963">
        <ele>18.089764</ele>
        <time>2022-08-02T13:24:22.000Z</time>
      </trkpt>
      <trkpt lat="49.37801" lon="-0.89957">
        <ele>18.069428</ele>
        <time>2022-08-02T13:24:23.000Z</time>
      </trkpt>
      <trkpt lat="49.37798" lon="-0.89951">
        <ele>18.047401</ele>
        <time>2022-08-02T13:24:24.000Z</time>
      </trkpt>
      <trkpt lat="49.37795" lon="-0.89944">
        <ele>18.024137</ele>
        <time>2022-08-02T13:24:25.000Z</time>
      </trkpt>
      <trkpt lat="49.37792" lon="-0.89938">
        <ele>18.002359</ele>
        <time>2022-08-02T13:24:26.000Z</time>
      </trkpt>
      <trkpt lat="49.37789" lon="-0.89931">
        <ele>17.979864</ele>
        <time>2022-08-02T13:24:27.000Z</time>
      </trkpt>
      <trkpt lat="49.37787" lon="-0.89925">
        <ele>17.95895</ele>
        <time>2022-08-02T13:24:28.000Z</time>
      </trkpt>
      <trkpt lat="49.37784" lon="-0.89918">
        <ele>17.935981</ele>
        <time>2022-08-02T13:24:29.000Z</time>
      </trkpt>
      <trkpt lat="49.37781" lon="-0.89911">
        <ele>17.913486</ele>
        <time>2022-08-02T13:24:30.000Z</time>
      </trkpt>
      <trkpt lat="49.37779" lon="-0.89905">
        <ele>17.891688</ele>
        <time>2022-08-02T13:24:31.000Z</time>
      </trkpt>
      <trkpt lat="49.37776" lon="-0.89898">
        <ele>17.870152</ele>
        <time>2022-08-02T13:24:32.000Z</time>
      </trkpt>
      <trkpt lat="49.37773" lon="-0.89892">
        <ele>17.852176</ele>
        <time>2022-08-02T13:24:33.000Z</time>
      </trkpt>
      <trkpt lat="49.37771" lon="-0.89885">
        <ele>17.855547</ele>
        <time>2022-08-02T13:24:34.000Z</time>
      </trkpt>
      <trkpt lat="49.37768" lon="-0.89878">
        <ele>17.858883</ele>
        <time>2022-08-02T13:24:35.000Z</time>
      </trkpt>
      <trkpt lat="49.37765" lon="-0.89872">
        <ele>17.862113</ele>
        <time>2022-08-02T13:24:36.000Z</time>
      </trkpt>
      <trkpt lat="49.37762" lon="-0.89866">
        <ele>17.865496</ele>
        <time>2022-08-02T13:24:37.000Z</time>
      </trkpt>
      <trkpt lat="49.37759" lon="-0.89859">
        <ele>17.86862</ele>
        <time>2022-08-02T13:24:38.000Z</time>
      </trkpt>
      <trkpt lat="49.37757" lon="-0.89853">
        <ele>17.871922</ele>
        <time>2022-08-02T13:24:39.000Z</time>
      </trkpt>
      <trkpt lat="49.37754" lon="-0.89847">
        <ele>17.87512</ele>
        <time>2022-08-02T13:24:40.000Z</time>
      </trkpt>
      <trkpt lat="49.37751" lon="-0.8984">
        <ele>17.878222</ele>
        <time>2022-08-02T13:24:41.000Z</time>
      </trkpt>
      <trkpt lat="49.37749" lon="-0.89834">
        <ele>17.881454</ele>
        <time>2022-08-02T13:24:42.000Z</time>
      </trkpt>
      <trkpt lat="49.37746" lon="-0.89828">
        <ele>17.884721</ele>
        <time>2022-08-02T13:24:43.000Z</time>
      </trkpt>
      <trkpt lat="49.37743" lon="-0.89822">
        <ele>17.887844</ele>
        <time>2022-08-02T13:24:44.000Z</time>
      </trkpt>
      <trkpt lat="49.37741" lon="-0.89815">
        <ele>17.890968</ele>
        <time>2022-08-02T13:24:45.000Z</time>
      </trkpt>
      <trkpt lat="49.37738" lon="-0.89809">
        <ele>17.894098</ele>
        <time>2022-08-02T13:24:46.000Z</time>
      </trkpt>
      <trkpt lat="49.37735" lon="-0.89803">
        <ele>17.897149</ele>
        <time>2022-08-02T13:24:47.000Z</time>
      </trkpt>
      <trkpt lat="49.37732" lon="-0.89798">
        <ele>17.900207</ele>
        <time>2022-08-02T13:24:48.000Z</time>
      </trkpt>
      <trkpt lat="49.3773" lon="-0.89792">
        <ele>17.903046</ele>
        <time>2022-08-02T13:24:49.000Z</time>
      </trkpt>
      <trkpt lat="49.37728" lon="-0.89786">
        <ele>17.905815</ele>
        <time>2022-08-02T13:24:50.000Z</time>
      </trkpt>
      <trkpt lat="49.37725" lon="-0.8978">
        <ele>17.908727</ele>
        <time>2022-08-02T13:24:51.000Z</time>
      </trkpt>
      <trkpt lat="49.37723" lon="-0.89775">
        <ele>17.911388</ele>
        <time>2022-08-02T13:24:52.000Z</time>
      </trkpt>
      <trkpt lat="49.37721" lon="-0.8977">
        <ele>17.914198</ele>
        <time>2022-08-02T13:24:53.000Z</time>
      </trkpt>
      <trkpt lat="49.37718" lon="-0.89765">
        <ele>17.916868</ele>
        <time>2022-08-02T13:24:54.000Z</time>
      </trkpt>
      <trkpt lat="49.37716" lon="-0.8976">
        <ele>17.919425</ele>
        <time>2022-08-02T13:24:55.000Z</time>
      </trkpt>
      <trkpt lat="49.37714" lon="-0.89756">
        <ele>17.921626</ele>
        <time>2022-08-02T13:24:56.000Z</time>
      </trkpt>
      <trkpt lat="49.37711" lon="-0.89751">
        <ele>17.924035</ele>
        <time>2022-08-02T13:24:57.000Z</time>
      </trkpt>
      <trkpt lat="49.37709" lon="-0.89747">
        <ele>17.926459</ele>
        <time>2022-08-02T13:24:58.000Z</time>
      </trkpt>
      <trkpt lat="49.37707" lon="-0.89742">
        <ele>17.928983</ele>
        <time>2022-08-02T13:24:59.000Z</time>
      </trkpt>
      <trkpt lat="49.37705" lon="-0.89737">
        <ele>17.931545</ele>
        <time>2022-08-02T13:25:00.000Z</time>
      </trkpt>
      <trkpt lat="49.37703" lon="-0.89731">
        <ele>17.934277</ele>
        <time>2022-08-02T13:25:01.000Z</time>
      </trkpt>
      <trkpt lat="49.377" lon="-0.89726">
        <ele>17.937118</ele>
        <time>2022-08-02T13:25:02.000Z</time>
      </trkpt>
      <trkpt lat="49.37698" lon="-0.89721">
        <ele>17.93971</ele>
        <time>2022-08-02T13:25:03.000Z</time>
      </trkpt>
      <trkpt lat="49.37695" lon="-0.89716">
        <ele>17.942481</ele>
        <time>2022-08-02T13:25:04.000Z</time>
      </trkpt>
      <trkpt lat="49.37693" lon="-0.8971">
        <ele>17.945075</ele>
        <time>2022-08-02T13:25:05.000Z</time>
      </trkpt>
      <trkpt lat="49.37692" lon="-0.89705">
        <ele>17.947674</ele>
        <time>2022-08-02T13:25:06.000Z</time>
      </trkpt>
      <trkpt lat="49.37689" lon="-0.89699">
        <ele>17.950407</ele>
        <time>2022-08-02T13:25:07.000Z</time>
      </trkpt>
      <trkpt lat="49.37687" lon="-0.89694">
        <ele>17.952969</ele>
        <time>2022-08-02T13:25:08.000Z</time>
      </trkpt>
      <trkpt lat="49.37685" lon="-0.89689">
        <ele>17.955666</ele>
        <time>2022-08-02T13:25:09.000Z</time>
      </trkpt>
      <trkpt lat="49.37683" lon="-0.89684">
        <ele>17.958291</ele>
        <time>2022-08-02T13:25:10.000Z</time>
      </trkpt>
      <trkpt lat="49.3768" lon="-0.89679">
        <ele>17.961001</ele>
        <time>2022-08-02T13:25:11.000Z</time>
      </trkpt>
      <trkpt lat="49.37678" lon="-0.89673">
        <ele>17.963627</ele>
        <time>2022-08-02T13:25:12.000Z</time>
      </trkpt>
      <trkpt lat="49.37676" lon="-0.89668">
        <ele>17.966336</ele>
        <time>2022-08-02T13:25:13.000Z</time>
      </trkpt>
      <trkpt lat="49.37673" lon="-0.89663">
        <ele>17.967555</ele>
        <time>2022-08-02T13:25:14.000Z</time>
      </trkpt>
      <trkpt lat="49.37671" lon="-0.89658">
        <ele>17.962617</ele>
        <time>2022-08-02T13:25:15.000Z</time>
      </trkpt>
      <trkpt lat="49.37669" lon="-0.89653">
        <ele>17.957255</ele>
        <time>2022-08-02T13:25:16.000Z</time>
      </trkpt>
      <trkpt lat="49.37667" lon="-0.89648">
        <ele>17.952169</ele>
        <time>2022-08-02T13:25:17.000Z</time>
      </trkpt>
      <trkpt lat="49.37665" lon="-0.89643">
        <ele>17.946509</ele>
        <time>2022-08-02T13:25:18.000Z</time>
      </trkpt>
      <trkpt lat="49.37662" lon="-0.89637">
        <ele>17.941003</ele>
        <time>2022-08-02T13:25:19.000Z</time>
      </trkpt>
      <trkpt lat="49.3766" lon="-0.89632">
        <ele>17.935642</ele>
        <time>2022-08-02T13:25:20.000Z</time>
      </trkpt>
      <trkpt lat="49.37658" lon="-0.89626">
        <ele>17.929923</ele>
        <time>2022-08-02T13:25:21.000Z</time>
      </trkpt>
      <trkpt lat="49.37656" lon="-0.8962">
        <ele>17.924461</ele>
        <time>2022-08-02T13:25:22.000Z</time>
      </trkpt>
      <trkpt lat="49.37653" lon="-0.89615">
        <ele>17.918594</ele>
        <time>2022-08-02T13:25:23.000Z</time>
      </trkpt>
      <trkpt lat="49.37652" lon="-0.89609">
        <ele>17.91298</ele>
        <time>2022-08-02T13:25:24.000Z</time>
      </trkpt>
      <trkpt lat="49.37649" lon="-0.89603">
        <ele>17.906882</ele>
        <time>2022-08-02T13:25:25.000Z</time>
      </trkpt>
      <trkpt lat="49.37646" lon="-0.89596">
        <ele>17.900161</ele>
        <time>2022-08-02T13:25:26.000Z</time>
      </trkpt>
      <trkpt lat="49.37644" lon="-0.8959">
        <ele>17.893655</ele>
        <time>2022-08-02T13:25:27.000Z</time>
      </trkpt>
      <trkpt lat="49.37641" lon="-0.89583">
        <ele>17.887215</ele>
        <time>2022-08-02T13:25:28.000Z</time>
      </trkpt>
      <trkpt lat="49.37638" lon="-0.89576">
        <ele>17.880353</ele>
        <time>2022-08-02T13:25:29.000Z</time>
      </trkpt>
      <trkpt lat="49.37636" lon="-0.8957">
        <ele>17.873991</ele>
        <time>2022-08-02T13:25:30.000Z</time>
      </trkpt>
      <trkpt lat="49.37634" lon="-0.89564">
        <ele>17.867968</ele>
        <time>2022-08-02T13:25:31.000Z</time>
      </trkpt>
      <trkpt lat="49.37631" lon="-0.89558">
        <ele>17.861595</ele>
        <time>2022-08-02T13:25:32.000Z</time>
      </trkpt>
      <trkpt lat="49.37629" lon="-0.89552">
        <ele>17.855647</ele>
        <time>2022-08-02T13:25:33.000Z</time>
      </trkpt>
      <trkpt lat="49.37626" lon="-0.89546">
        <ele>17.849781</ele>
        <time>2022-08-02T13:25:34.000Z</time>
      </trkpt>
      <trkpt lat="49.37624" lon="-0.8954">
        <ele>17.844091</ele>
        <time>2022-08-02T13:25:35.000Z</time>
      </trkpt>
      <trkpt lat="49.37622" lon="-0.89534">
        <ele>17.838365</ele>
        <time>2022-08-02T13:25:36.000Z</time>
      </trkpt>
      <trkpt lat="49.3762" lon="-0.89528">
        <ele>17.832827</ele>
        <time>2022-08-02T13:25:37.000Z</time>
      </trkpt>
      <trkpt lat="49.37618" lon="-0.89522">
        <ele>17.827154</ele>
        <time>2022-08-02T13:25:38.000Z</time>
      </trkpt>
      <trkpt lat="49.37616" lon="-0.89517">
        <ele>17.821768</ele>
        <time>2022-08-02T13:25:39.000Z</time>
      </trkpt>
      <trkpt lat="49.37614" lon="-0.89511">
        <ele>17.815968</ele>
        <time>2022-08-02T13:25:40.000Z</time>
      </trkpt>
      <trkpt lat="49.37612" lon="-0.89505">
        <ele>17.810582</ele>
        <time>2022-08-02T13:25:41.000Z</time>
      </trkpt>
      <trkpt lat="49.3761" lon="-0.895">
        <ele>17.804862</ele>
        <time>2022-08-02T13:25:42.000Z</time>
      </trkpt>
      <trkpt lat="49.37608" lon="-0.89494">
        <ele>17.799401</ele>
        <time>2022-08-02T13:25:43.000Z</time>
      </trkpt>
      <trkpt lat="49.37606" lon="-0.89488">
        <ele>17.794014</ele>
        <time>2022-08-02T13:25:44.000Z</time>
      </trkpt>
      <trkpt lat="49.37604" lon="-0.89483">
        <ele>17.788704</ele>
        <time>2022-08-02T13:25:45.000Z</time>
      </trkpt>
      <trkpt lat="49.37602" lon="-0.89477">
        <ele>17.783405</ele>
        <time>2022-08-02T13:25:46.000Z</time>
      </trkpt>
      <trkpt lat="49.376" lon="-0.89472">
        <ele>17.778094</ele>
        <time>2022-08-02T13:25:47.000Z</time>
      </trkpt>
      <trkpt lat="49.37599" lon="-0.89466">
        <ele>17.772956</ele>
        <time>2022-08-02T13:25:48.000Z</time>
      </trkpt>
      <trkpt lat="49.37597" lon="-0.89461">
        <ele>17.767645</ele>
        <time>2022-08-02T13:25:49.000Z</time>
      </trkpt>
      <trkpt lat="49.37595" lon="-0.89456">
        <ele>17.762485</ele>
        <time>2022-08-02T13:25:50.000Z</time>
      </trkpt>
      <trkpt lat="49.37594" lon="-0.8945">
        <ele>17.757654</ele>
        <time>2022-08-02T13:25:51.000Z</time>
      </trkpt>
      <trkpt lat="49.37592" lon="-0.89445">
        <ele>17.752748</ele>
        <time>2022-08-02T13:25:52.000Z</time>
      </trkpt>
      <trkpt lat="49.3759" lon="-0.8944">
        <ele>17.74781</ele>
        <time>2022-08-02T13:25:53.000Z</time>
      </trkpt>
      <trkpt lat="49.37589" lon="-0.89435">
        <ele>17.743058</ele>
        <time>2022-08-02T13:25:54.000Z</time>
      </trkpt>
      <trkpt lat="49.37587" lon="-0.8943">
        <ele>17.738459</ele>
        <time>2022-08-02T13:25:55.000Z</time>
      </trkpt>
      <trkpt lat="49.37586" lon="-0.89425">
        <ele>17.733946</ele>
        <time>2022-08-02T13:25:56.000Z</time>
      </trkpt>
      <trkpt lat="49.37584" lon="-0.89421">
        <ele>17.734447</ele>
        <time>2022-08-02T13:25:57.000Z</time>
      </trkpt>
      <trkpt lat="49.37582" lon="-0.89415">
        <ele>17.736578</ele>
        <time>2022-08-02T13:25:58.000Z</time>
      </trkpt>
      <trkpt lat="49.37581" lon="-0.8941">
        <ele>17.738676</ele>
        <time>2022-08-02T13:25:59.000Z</time>
      </trkpt>
      <trkpt lat="49.37579" lon="-0.89405">
        <ele>17.740741</ele>
        <time>2022-08-02T13:26:00.000Z</time>
      </trkpt>
      <trkpt lat="49.37577" lon="-0.894">
        <ele>17.742886</ele>
        <time>2022-08-02T13:26:01.000Z</time>
      </trkpt>
      <trkpt lat="49.37576" lon="-0.89396">
        <ele>17.744778</ele>
        <time>2022-08-02T13:26:02.000Z</time>
      </trkpt>
      <trkpt lat="49.37574" lon="-0.89391">
        <ele>17.746923</ele>
        <time>2022-08-02T13:26:03.000Z</time>
      </trkpt>
      <trkpt lat="49.37572" lon="-0.89386">
        <ele>17.749098</ele>
        <time>2022-08-02T13:26:04.000Z</time>
      </trkpt>
      <trkpt lat="49.3757" lon="-0.89381">
        <ele>17.751243</ele>
        <time>2022-08-02T13:26:05.000Z</time>
      </trkpt>
      <trkpt lat="49.37568" lon="-0.89375">
        <ele>17.753635</ele>
        <time>2022-08-02T13:26:06.000Z</time>
      </trkpt>
      <trkpt lat="49.37566" lon="-0.8937">
        <ele>17.755942</ele>
        <time>2022-08-02T13:26:07.000Z</time>
      </trkpt>
      <trkpt lat="49.37564" lon="-0.89364">
        <ele>17.758342</ele>
        <time>2022-08-02T13:26:08.000Z</time>
      </trkpt>
      <trkpt lat="49.37562" lon="-0.89358">
        <ele>17.760649</ele>
        <time>2022-08-02T13:26:09.000Z</time>
      </trkpt>
      <trkpt lat="49.37559" lon="-0.89353">
        <ele>17.763135</ele>
        <time>2022-08-02T13:26:10.000Z</time>
      </trkpt>
      <trkpt lat="49.37558" lon="-0.89347">
        <ele>17.765408</ele>
        <time>2022-08-02T13:26:11.000Z</time>
      </trkpt>
      <trkpt lat="49.37556" lon="-0.89341">
        <ele>17.76788</ele>
        <time>2022-08-02T13:26:12.000Z</time>
      </trkpt>
      <trkpt lat="49.37554" lon="-0.89335">
        <ele>17.770279</ele>
        <time>2022-08-02T13:26:13.000Z</time>
      </trkpt>
      <trkpt lat="49.37552" lon="-0.8933">
        <ele>17.772619</ele>
        <time>2022-08-02T13:26:14.000Z</time>
      </trkpt>
      <trkpt lat="49.3755" lon="-0.89324">
        <ele>17.775011</ele>
        <time>2022-08-02T13:26:15.000Z</time>
      </trkpt>
      <trkpt lat="49.37548" lon="-0.89318">
        <ele>17.77756</ele>
        <time>2022-08-02T13:26:16.000Z</time>
      </trkpt>
      <trkpt lat="49.37546" lon="-0.89312">
        <ele>17.780032</ele>
        <time>2022-08-02T13:26:17.000Z</time>
      </trkpt>
      <trkpt lat="49.37543" lon="-0.89306">
        <ele>17.782891</ele>
        <time>2022-08-02T13:26:18.000Z</time>
      </trkpt>
      <trkpt lat="49.37541" lon="-0.893">
        <ele>17.78554</ele>
        <time>2022-08-02T13:26:19.000Z</time>
      </trkpt>
      <trkpt lat="49.37539" lon="-0.89293">
        <ele>17.788255</ele>
        <time>2022-08-02T13:26:20.000Z</time>
      </trkpt>
      <trkpt lat="49.37537" lon="-0.89287">
        <ele>17.790986</ele>
        <time>2022-08-02T13:26:21.000Z</time>
      </trkpt>
      <trkpt lat="49.37534" lon="-0.8928">
        <ele>17.793767</ele>
        <time>2022-08-02T13:26:22.000Z</time>
      </trkpt>
      <trkpt lat="49.37533" lon="-0.89273">
        <ele>17.796441</ele>
        <time>2022-08-02T13:26:23.000Z</time>
      </trkpt>
      <trkpt lat="49.3753" lon="-0.89267">
        <ele>17.799248</ele>
        <time>2022-08-02T13:26:24.000Z</time>
      </trkpt>
      <trkpt lat="49.37528" lon="-0.8926">
        <ele>17.801897</ele>
        <time>2022-08-02T13:26:25.000Z</time>
      </trkpt>
      <trkpt lat="49.37525" lon="-0.89254">
        <ele>17.804878</ele>
        <time>2022-08-02T13:26:26.000Z</time>
      </trkpt>
      <trkpt lat="49.37523" lon="-0.89247">
        <ele>17.807659</ele>
        <time>2022-08-02T13:26:27.000Z</time>
      </trkpt>
      <trkpt lat="49.37521" lon="-0.8924">
        <ele>17.810498</ele>
        <time>2022-08-02T13:26:28.000Z</time>
      </trkpt>
      <trkpt lat="49.37518" lon="-0.89233">
        <ele>17.813392</ele>
        <time>2022-08-02T13:26:29.000Z</time>
      </trkpt>
      <trkpt lat="49.37516" lon="-0.89226">
        <ele>17.816443</ele>
        <time>2022-08-02T13:26:30.000Z</time>
      </trkpt>
      <trkpt lat="49.37513" lon="-0.89219">
        <ele>17.81939</ele>
        <time>2022-08-02T13:26:31.000Z</time>
      </trkpt>
      <trkpt lat="49.37511" lon="-0.89212">
        <ele>17.822376</ele>
        <time>2022-08-02T13:26:32.000Z</time>
      </trkpt>
      <trkpt lat="49.37509" lon="-0.89205">
        <ele>17.825357</ele>
        <time>2022-08-02T13:26:33.000Z</time>
      </trkpt>
      <trkpt lat="49.37506" lon="-0.89197">
        <ele>17.828497</ele>
        <time>2022-08-02T13:26:34.000Z</time>
      </trkpt>
      <trkpt lat="49.37504" lon="-0.89189">
        <ele>17.831718</ele>
        <time>2022-08-02T13:26:35.000Z</time>
      </trkpt>
      <trkpt lat="49.37501" lon="-0.89181">
        <ele>17.834965</ele>
        <time>2022-08-02T13:26:36.000Z</time>
      </trkpt>
      <trkpt lat="49.37499" lon="-0.89173">
        <ele>17.837487</ele>
        <time>2022-08-02T13:26:37.000Z</time>
      </trkpt>
      <trkpt lat="49.37495" lon="-0.89166">
        <ele>17.839999</ele>
        <time>2022-08-02T13:26:38.000Z</time>
      </trkpt>
      <trkpt lat="49.37493" lon="-0.89159">
        <ele>17.842348</ele>
        <time>2022-08-02T13:26:39.000Z</time>
      </trkpt>
      <trkpt lat="49.37489" lon="-0.89152">
        <ele>17.844791</ele>
        <time>2022-08-02T13:26:40.000Z</time>
      </trkpt>
      <trkpt lat="49.37487" lon="-0.89144">
        <ele>17.847122</ele>
        <time>2022-08-02T13:26:41.000Z</time>
      </trkpt>
      <trkpt lat="49.37484" lon="-0.89137">
        <ele>17.849612</ele>
        <time>2022-08-02T13:26:42.000Z</time>
      </trkpt>
      <trkpt lat="49.37481" lon="-0.8913">
        <ele>17.851923</ele>
        <time>2022-08-02T13:26:43.000Z</time>
      </trkpt>
      <trkpt lat="49.37478" lon="-0.89122">
        <ele>17.854304</ele>
        <time>2022-08-02T13:26:44.000Z</time>
      </trkpt>
      <trkpt lat="49.37476" lon="-0.89115">
        <ele>17.8567</ele>
        <time>2022-08-02T13:26:45.000Z</time>
      </trkpt>
      <trkpt lat="49.37473" lon="-0.89107">
        <ele>17.859145</ele>
        <time>2022-08-02T13:26:46.000Z</time>
      </trkpt>
      <trkpt lat="49.3747" lon="-0.891">
        <ele>17.861567</ele>
        <time>2022-08-02T13:26:47.000Z</time>
      </trkpt>
      <trkpt lat="49.37467" lon="-0.89092">
        <ele>17.863923</ele>
        <time>2022-08-02T13:26:48.000Z</time>
      </trkpt>
      <trkpt lat="49.37465" lon="-0.89085">
        <ele>17.866255</ele>
        <time>2022-08-02T13:26:49.000Z</time>
      </trkpt>
      <trkpt lat="49.37462" lon="-0.89078">
        <ele>17.868678</ele>
        <time>2022-08-02T13:26:50.000Z</time>
      </trkpt>
      <trkpt lat="49.37459" lon="-0.8907">
        <ele>17.871108</ele>
        <time>2022-08-02T13:26:51.000Z</time>
      </trkpt>
      <trkpt lat="49.37457" lon="-0.89062">
        <ele>17.873413</ele>
        <time>2022-08-02T13:26:52.000Z</time>
      </trkpt>
      <trkpt lat="49.37454" lon="-0.89055">
        <ele>17.875882</ele>
        <time>2022-08-02T13:26:53.000Z</time>
      </trkpt>
      <trkpt lat="49.37452" lon="-0.89047">
        <ele>17.878307</ele>
        <time>2022-08-02T13:26:54.000Z</time>
      </trkpt>
      <trkpt lat="49.37449" lon="-0.89039">
        <ele>17.880743</ele>
        <time>2022-08-02T13:26:55.000Z</time>
      </trkpt>
      <trkpt lat="49.37446" lon="-0.89031">
        <ele>17.883303</ele>
        <time>2022-08-02T13:26:56.000Z</time>
      </trkpt>
      <trkpt lat="49.37444" lon="-0.89024">
        <ele>17.885684</ele>
        <time>2022-08-02T13:26:57.000Z</time>
      </trkpt>
      <trkpt lat="49.37441" lon="-0.89016">
        <ele>17.88812</ele>
        <time>2022-08-02T13:26:58.000Z</time>
      </trkpt>
      <trkpt lat="49.37438" lon="-0.89009">
        <ele>17.890633</ele>
        <time>2022-08-02T13:26:59.000Z</time>
      </trkpt>
      <trkpt lat="49.37435" lon="-0.89001">
        <ele>17.893014</ele>
        <time>2022-08-02T13:27:00.000Z</time>
      </trkpt>
      <trkpt lat="49.37433" lon="-0.88993">
        <ele>17.89537</ele>
        <time>2022-08-02T13:27:01.000Z</time>
      </trkpt>
      <trkpt lat="49.3743" lon="-0.88986">
        <ele>17.897906</ele>
        <time>2022-08-02T13:27:02.000Z</time>
      </trkpt>
      <trkpt lat="49.37427" lon="-0.88978">
        <ele>17.900337</ele>
        <time>2022-08-02T13:27:03.000Z</time>
      </trkpt>
      <trkpt lat="49.37425" lon="-0.8897">
        <ele>17.902693</ele>
        <time>2022-08-02T13:27:04.000Z</time>
      </trkpt>
      <trkpt lat="49.37422" lon="-0.88963">
        <ele>17.905162</ele>
        <time>2022-08-02T13:27:05.000Z</time>
      </trkpt>
      <trkpt lat="49.3742" lon="-0.88955">
        <ele>17.907642</ele>
        <time>2022-08-02T13:27:06.000Z</time>
      </trkpt>
      <trkpt lat="49.37417" lon="-0.88947">
        <ele>17.910078</ele>
        <time>2022-08-02T13:27:07.000Z</time>
      </trkpt>
      <trkpt lat="49.37414" lon="-0.8894">
        <ele>17.912523</ele>
        <time>2022-08-02T13:27:08.000Z</time>
      </trkpt>
      <trkpt lat="49.37412" lon="-0.88932">
        <ele>17.924693</ele>
        <time>2022-08-02T13:27:09.000Z</time>
      </trkpt>
      <trkpt lat="49.37409" lon="-0.88924">
        <ele>17.937074</ele>
        <time>2022-08-02T13:27:10.000Z</time>
      </trkpt>
      <trkpt lat="49.37406" lon="-0.88917">
        <ele>17.950145</ele>
        <time>2022-08-02T13:27:11.000Z</time>
      </trkpt>
      <trkpt lat="49.37404" lon="-0.88909">
        <ele>17.963022</ele>
        <time>2022-08-02T13:27:12.000Z</time>
      </trkpt>
      <trkpt lat="49.37401" lon="-0.88901">
        <ele>17.976239</ele>
        <time>2022-08-02T13:27:13.000Z</time>
      </trkpt>
      <trkpt lat="49.37398" lon="-0.88893">
        <ele>17.989438</ele>
        <time>2022-08-02T13:27:14.000Z</time>
      </trkpt>
      <trkpt lat="49.37396" lon="-0.88885">
        <ele>18.002184</ele>
        <time>2022-08-02T13:27:15.000Z</time>
      </trkpt>
      <trkpt lat="49.37393" lon="-0.88878">
        <ele>18.014959</ele>
        <time>2022-08-02T13:27:16.000Z</time>
      </trkpt>
      <trkpt lat="49.3739" lon="-0.8887">
        <ele>18.028031</ele>
        <time>2022-08-02T13:27:17.000Z</time>
      </trkpt>
      <trkpt lat="49.37388" lon="-0.88862">
        <ele>18.040647</ele>
        <time>2022-08-02T13:27:18.000Z</time>
      </trkpt>
      <trkpt lat="49.37385" lon="-0.88855">
        <ele>18.052734</ele>
        <time>2022-08-02T13:27:19.000Z</time>
      </trkpt>
      <trkpt lat="49.37382" lon="-0.88847">
        <ele>18.065806</ele>
        <time>2022-08-02T13:27:20.000Z</time>
      </trkpt>
      <trkpt lat="49.3738" lon="-0.8884">
        <ele>18.078292</ele>
        <time>2022-08-02T13:27:21.000Z</time>
      </trkpt>
      <trkpt lat="49.37378" lon="-0.88832">
        <ele>18.09038</ele>
        <time>2022-08-02T13:27:22.000Z</time>
      </trkpt>
      <trkpt lat="49.37374" lon="-0.88825">
        <ele>18.103311</ele>
        <time>2022-08-02T13:27:23.000Z</time>
      </trkpt>
      <trkpt lat="49.37372" lon="-0.88817">
        <ele>18.115797</ele>
        <time>2022-08-02T13:27:24.000Z</time>
      </trkpt>
      <trkpt lat="49.37369" lon="-0.8881">
        <ele>18.128974</ele>
        <time>2022-08-02T13:27:25.000Z</time>
      </trkpt>
      <trkpt lat="49.37366" lon="-0.88802">
        <ele>18.141355</ele>
        <time>2022-08-02T13:27:26.000Z</time>
      </trkpt>
      <trkpt lat="49.37364" lon="-0.88795">
        <ele>18.153841</ele>
        <time>2022-08-02T13:27:27.000Z</time>
      </trkpt>
      <trkpt lat="49.37361" lon="-0.88787">
        <ele>18.166197</ele>
        <time>2022-08-02T13:27:28.000Z</time>
      </trkpt>
      <trkpt lat="49.37358" lon="-0.8878">
        <ele>18.179015</ele>
        <time>2022-08-02T13:27:29.000Z</time>
      </trkpt>
      <trkpt lat="49.37356" lon="-0.88772">
        <ele>18.191501</ele>
        <time>2022-08-02T13:27:30.000Z</time>
      </trkpt>
      <trkpt lat="49.37353" lon="-0.88765">
        <ele>18.203882</ele>
        <time>2022-08-02T13:27:31.000Z</time>
      </trkpt>
      <trkpt lat="49.3735" lon="-0.88757">
        <ele>18.2167</ele>
        <time>2022-08-02T13:27:32.000Z</time>
      </trkpt>
      <trkpt lat="49.37348" lon="-0.8875">
        <ele>18.229267</ele>
        <time>2022-08-02T13:27:33.000Z</time>
      </trkpt>
      <trkpt lat="49.37345" lon="-0.88742">
        <ele>18.242085</ele>
        <time>2022-08-02T13:27:34.000Z</time>
      </trkpt>
      <trkpt lat="49.37342" lon="-0.88734">
        <ele>18.254992</ele>
        <time>2022-08-02T13:27:35.000Z</time>
      </trkpt>
      <trkpt lat="49.3734" lon="-0.88726">
        <ele>18.268131</ele>
        <time>2022-08-02T13:27:36.000Z</time>
      </trkpt>
      <trkpt lat="49.37337" lon="-0.88719">
        <ele>18.280697</ele>
        <time>2022-08-02T13:27:37.000Z</time>
      </trkpt>
      <trkpt lat="49.37334" lon="-0.88711">
        <ele>18.293657</ele>
        <time>2022-08-02T13:27:38.000Z</time>
      </trkpt>
      <trkpt lat="49.37332" lon="-0.88704">
        <ele>18.30624</ele>
        <time>2022-08-02T13:27:39.000Z</time>
      </trkpt>
      <trkpt lat="49.37329" lon="-0.88696">
        <ele>18.318429</ele>
        <time>2022-08-02T13:27:40.000Z</time>
      </trkpt>
      <trkpt lat="49.37326" lon="-0.88688">
        <ele>18.31678</ele>
        <time>2022-08-02T13:27:41.000Z</time>
      </trkpt>
      <trkpt lat="49.37323" lon="-0.88681">
        <ele>18.315084</ele>
        <time>2022-08-02T13:27:42.000Z</time>
      </trkpt>
      <trkpt lat="49.3732" lon="-0.88673">
        <ele>18.313463</ele>
        <time>2022-08-02T13:27:43.000Z</time>
      </trkpt>
      <trkpt lat="49.37318" lon="-0.88666">
        <ele>18.311857</ele>
        <time>2022-08-02T13:27:44.000Z</time>
      </trkpt>
      <trkpt lat="49.37315" lon="-0.88658">
        <ele>18.310226</ele>
        <time>2022-08-02T13:27:45.000Z</time>
      </trkpt>
      <trkpt lat="49.37312" lon="-0.88651">
        <ele>18.308578</ele>
        <time>2022-08-02T13:27:46.000Z</time>
      </trkpt>
      <trkpt lat="49.37309" lon="-0.88643">
        <ele>18.306915</ele>
        <time>2022-08-02T13:27:47.000Z</time>
      </trkpt>
      <trkpt lat="49.37307" lon="-0.88636">
        <ele>18.305291</ele>
        <time>2022-08-02T13:27:48.000Z</time>
      </trkpt>
      <trkpt lat="49.37304" lon="-0.88628">
        <ele>18.30367</ele>
        <time>2022-08-02T13:27:49.000Z</time>
      </trkpt>
      <trkpt lat="49.37301" lon="-0.88621">
        <ele>18.301974</ele>
        <time>2022-08-02T13:27:50.000Z</time>
      </trkpt>
      <trkpt lat="49.37299" lon="-0.88613">
        <ele>18.300367</ele>
        <time>2022-08-02T13:27:51.000Z</time>
      </trkpt>
      <trkpt lat="49.37296" lon="-0.88606">
        <ele>18.29878</ele>
        <time>2022-08-02T13:27:52.000Z</time>
      </trkpt>
      <trkpt lat="49.37293" lon="-0.88598">
        <ele>18.297086</ele>
        <time>2022-08-02T13:27:53.000Z</time>
      </trkpt>
      <trkpt lat="49.3729" lon="-0.88591">
        <ele>18.295532</ele>
        <time>2022-08-02T13:27:54.000Z</time>
      </trkpt>
      <trkpt lat="49.37288" lon="-0.88584">
        <ele>18.293925</ele>
        <time>2022-08-02T13:27:55.000Z</time>
      </trkpt>
      <trkpt lat="49.37285" lon="-0.88576">
        <ele>18.292196</ele>
        <time>2022-08-02T13:27:56.000Z</time>
      </trkpt>
      <trkpt lat="49.37283" lon="-0.88568">
        <ele>18.290574</ele>
        <time>2022-08-02T13:27:57.000Z</time>
      </trkpt>
      <trkpt lat="49.3728" lon="-0.8856">
        <ele>18.288941</ele>
        <time>2022-08-02T13:27:58.000Z</time>
      </trkpt>
      <trkpt lat="49.37278" lon="-0.88553">
        <ele>18.287334</ele>
        <time>2022-08-02T13:27:59.000Z</time>
      </trkpt>
      <trkpt lat="49.37275" lon="-0.88545">
        <ele>18.285714</ele>
        <time>2022-08-02T13:28:00.000Z</time>
      </trkpt>
      <trkpt lat="49.37273" lon="-0.88538">
        <ele>18.284093</ele>
        <time>2022-08-02T13:28:01.000Z</time>
      </trkpt>
      <trkpt lat="49.3727" lon="-0.8853">
        <ele>18.282452</ele>
        <time>2022-08-02T13:28:02.000Z</time>
      </trkpt>
      <trkpt lat="49.37267" lon="-0.88523">
        <ele>18.280822</ele>
        <time>2022-08-02T13:28:03.000Z</time>
      </trkpt>
      <trkpt lat="49.37264" lon="-0.88515">
        <ele>18.279174</ele>
        <time>2022-08-02T13:28:04.000Z</time>
      </trkpt>
      <trkpt lat="49.37262" lon="-0.88508">
        <ele>18.277588</ele>
        <time>2022-08-02T13:28:05.000Z</time>
      </trkpt>
      <trkpt lat="49.37259" lon="-0.885">
        <ele>18.275924</ele>
        <time>2022-08-02T13:28:06.000Z</time>
      </trkpt>
      <trkpt lat="49.37257" lon="-0.88492">
        <ele>18.274236</ele>
        <time>2022-08-02T13:28:07.000Z</time>
      </trkpt>
      <trkpt lat="49.37253" lon="-0.88485">
        <ele>18.272526</ele>
        <time>2022-08-02T13:28:08.000Z</time>
      </trkpt>
      <trkpt lat="49.37251" lon="-0.88478">
        <ele>18.270953</ele>
        <time>2022-08-02T13:28:09.000Z</time>
      </trkpt>
      <trkpt lat="49.37249" lon="-0.8847">
        <ele>18.269372</ele>
        <time>2022-08-02T13:28:10.000Z</time>
      </trkpt>
      <trkpt lat="49.37246" lon="-0.88462">
        <ele>18.267714</ele>
        <time>2022-08-02T13:28:11.000Z</time>
      </trkpt>
      <trkpt lat="49.37244" lon="-0.88454">
        <ele>18.266026</ele>
        <time>2022-08-02T13:28:12.000Z</time>
      </trkpt>
      <trkpt lat="49.37241" lon="-0.88447">
        <ele>18.266697</ele>
        <time>2022-08-02T13:28:13.000Z</time>
      </trkpt>
      <trkpt lat="49.37238" lon="-0.88439">
        <ele>18.267642</ele>
        <time>2022-08-02T13:28:14.000Z</time>
      </trkpt>
      <trkpt lat="49.37235" lon="-0.88431">
        <ele>18.268638</ele>
        <time>2022-08-02T13:28:15.000Z</time>
      </trkpt>
      <trkpt lat="49.37233" lon="-0.88424">
        <ele>18.269545</ele>
        <time>2022-08-02T13:28:16.000Z</time>
      </trkpt>
      <trkpt lat="49.3723" lon="-0.88416">
        <ele>18.270507</ele>
        <time>2022-08-02T13:28:17.000Z</time>
      </trkpt>
      <trkpt lat="49.37227" lon="-0.88409">
        <ele>18.271433</ele>
        <time>2022-08-02T13:28:18.000Z</time>
      </trkpt>
      <trkpt lat="49.37225" lon="-0.88401">
        <ele>18.27234</ele>
        <time>2022-08-02T13:28:19.000Z</time>
      </trkpt>
      <trkpt lat="49.37222" lon="-0.88394">
        <ele>18.273285</ele>
        <time>2022-08-02T13:28:20.000Z</time>
      </trkpt>
      <trkpt lat="49.3722" lon="-0.88386">
        <ele>18.274236</ele>
        <time>2022-08-02T13:28:21.000Z</time>
      </trkpt>
      <trkpt lat="49.37217" lon="-0.88379">
        <ele>18.275155</ele>
        <time>2022-08-02T13:28:22.000Z</time>
      </trkpt>
      <trkpt lat="49.37214" lon="-0.88371">
        <ele>18.2761</ele>
        <time>2022-08-02T13:28:23.000Z</time>
      </trkpt>
      <trkpt lat="49.37212" lon="-0.88363">
        <ele>18.277051</ele>
        <time>2022-08-02T13:28:24.000Z</time>
      </trkpt>
      <trkpt lat="49.37209" lon="-0.88356">
        <ele>18.277979</ele>
        <time>2022-08-02T13:28:25.000Z</time>
      </trkpt>
      <trkpt lat="49.37207" lon="-0.88348">
        <ele>18.278903</ele>
        <time>2022-08-02T13:28:26.000Z</time>
      </trkpt>
      <trkpt lat="49.37204" lon="-0.8834">
        <ele>18.279873</ele>
        <time>2022-08-02T13:28:27.000Z</time>
      </trkpt>
      <trkpt lat="49.37201" lon="-0.88333">
        <ele>18.28082</ele>
        <time>2022-08-02T13:28:28.000Z</time>
      </trkpt>
      <trkpt lat="49.37199" lon="-0.88325">
        <ele>18.281766</ele>
        <time>2022-08-02T13:28:29.000Z</time>
      </trkpt>
      <trkpt lat="49.37196" lon="-0.88317">
        <ele>18.282717</ele>
        <time>2022-08-02T13:28:30.000Z</time>
      </trkpt>
      <trkpt lat="49.37193" lon="-0.8831">
        <ele>18.283665</ele>
        <time>2022-08-02T13:28:31.000Z</time>
      </trkpt>
      <trkpt lat="49.37191" lon="-0.88302">
        <ele>18.28462</ele>
        <time>2022-08-02T13:28:32.000Z</time>
      </trkpt>
      <trkpt lat="49.37188" lon="-0.88294">
        <ele>18.28559</ele>
        <time>2022-08-02T13:28:33.000Z</time>
      </trkpt>
      <trkpt lat="49.37185" lon="-0.88287">
        <ele>18.286489</ele>
        <time>2022-08-02T13:28:34.000Z</time>
      </trkpt>
      <trkpt lat="49.37182" lon="-0.88279">
        <ele>18.287457</ele>
        <time>2022-08-02T13:28:35.000Z</time>
      </trkpt>
      <trkpt lat="49.3718" lon="-0.88272">
        <ele>18.288391</ele>
        <time>2022-08-02T13:28:36.000Z</time>
      </trkpt>
      <trkpt lat="49.37177" lon="-0.88264">
        <ele>18.289338</ele>
        <time>2022-08-02T13:28:37.000Z</time>
      </trkpt>
      <trkpt lat="49.37175" lon="-0.88256">
        <ele>18.290265</ele>
        <time>2022-08-02T13:28:38.000Z</time>
      </trkpt>
      <trkpt lat="49.37172" lon="-0.88249">
        <ele>18.291215</ele>
        <time>2022-08-02T13:28:39.000Z</time>
      </trkpt>
      <trkpt lat="49.37169" lon="-0.88241">
        <ele>18.292134</ele>
        <time>2022-08-02T13:28:40.000Z</time>
      </trkpt>
      <trkpt lat="49.37167" lon="-0.88234">
        <ele>18.29306</ele>
        <time>2022-08-02T13:28:41.000Z</time>
      </trkpt>
      <trkpt lat="49.37164" lon="-0.88226">
        <ele>18.29403</ele>
        <time>2022-08-02T13:28:42.000Z</time>
      </trkpt>
      <trkpt lat="49.37161" lon="-0.88219">
        <ele>18.294948</ele>
        <time>2022-08-02T13:28:43.000Z</time>
      </trkpt>
      <trkpt lat="49.37159" lon="-0.88211">
        <ele>18.295872</ele>
        <time>2022-08-02T13:28:44.000Z</time>
      </trkpt>
      <trkpt lat="49.37156" lon="-0.88203">
        <ele>18.315562</ele>
        <time>2022-08-02T13:28:45.000Z</time>
      </trkpt>
      <trkpt lat="49.37154" lon="-0.88196">
        <ele>18.337396</ele>
        <time>2022-08-02T13:28:46.000Z</time>
      </trkpt>
      <trkpt lat="49.37151" lon="-0.88188">
        <ele>18.359581</ele>
        <time>2022-08-02T13:28:47.000Z</time>
      </trkpt>
      <trkpt lat="49.37148" lon="-0.88181">
        <ele>18.38101</ele>
        <time>2022-08-02T13:28:48.000Z</time>
      </trkpt>
      <trkpt lat="49.37146" lon="-0.88173">
        <ele>18.403071</ele>
        <time>2022-08-02T13:28:49.000Z</time>
      </trkpt>
      <trkpt lat="49.37143" lon="-0.88166">
        <ele>18.423529</ele>
        <time>2022-08-02T13:28:50.000Z</time>
      </trkpt>
      <trkpt lat="49.37141" lon="-0.88158">
        <ele>18.444915</ele>
        <time>2022-08-02T13:28:51.000Z</time>
      </trkpt>
      <trkpt lat="49.37138" lon="-0.88151">
        <ele>18.466664</ele>
        <time>2022-08-02T13:28:52.000Z</time>
      </trkpt>
      <trkpt lat="49.37135" lon="-0.88144">
        <ele>18.488413</ele>
        <time>2022-08-02T13:28:53.000Z</time>
      </trkpt>
      <trkpt lat="49.37132" lon="-0.88137">
        <ele>18.509308</ele>
        <time>2022-08-02T13:28:54.000Z</time>
      </trkpt>
      <trkpt lat="49.3713" lon="-0.88129">
        <ele>18.530694</ele>
        <time>2022-08-02T13:28:55.000Z</time>
      </trkpt>
      <trkpt lat="49.37127" lon="-0.88122">
        <ele>18.551411</ele>
        <time>2022-08-02T13:28:56.000Z</time>
      </trkpt>
      <trkpt lat="49.37124" lon="-0.88115">
        <ele>18.573179</ele>
        <time>2022-08-02T13:28:57.000Z</time>
      </trkpt>
      <trkpt lat="49.37122" lon="-0.88108">
        <ele>18.594341</ele>
        <time>2022-08-02T13:28:58.000Z</time>
      </trkpt>
      <trkpt lat="49.37119" lon="-0.881">
        <ele>18.615263</ele>
        <time>2022-08-02T13:28:59.000Z</time>
      </trkpt>
      <trkpt lat="49.37117" lon="-0.88093">
        <ele>18.635889</ele>
        <time>2022-08-02T13:29:00.000Z</time>
      </trkpt>
      <trkpt lat="49.37114" lon="-0.88085">
        <ele>18.657855</ele>
        <time>2022-08-02T13:29:01.000Z</time>
      </trkpt>
      <trkpt lat="49.37111" lon="-0.88078">
        <ele>18.678967</ele>
        <time>2022-08-02T13:29:02.000Z</time>
      </trkpt>
      <trkpt lat="49.37109" lon="-0.88071">
        <ele>18.700499</ele>
        <time>2022-08-02T13:29:03.000Z</time>
      </trkpt>
      <trkpt lat="49.37106" lon="-0.88064">
        <ele>18.720996</ele>
        <time>2022-08-02T13:29:04.000Z</time>
      </trkpt>
      <trkpt lat="49.37103" lon="-0.88057">
        <ele>18.740636</ele>
        <time>2022-08-02T13:29:05.000Z</time>
      </trkpt>
      <trkpt lat="49.371" lon="-0.88051">
        <ele>18.761361</ele>
        <time>2022-08-02T13:29:06.000Z</time>
      </trkpt>
      <trkpt lat="49.37097" lon="-0.88045">
        <ele>18.78057</ele>
        <time>2022-08-02T13:29:07.000Z</time>
      </trkpt>
      <trkpt lat="49.37094" lon="-0.88039">
        <ele>18.800497</ele>
        <time>2022-08-02T13:29:08.000Z</time>
      </trkpt>
      <trkpt lat="49.3709" lon="-0.88034">
        <ele>18.819801</ele>
        <time>2022-08-02T13:29:09.000Z</time>
      </trkpt>
      <trkpt lat="49.37086" lon="-0.8803">
        <ele>18.837795</ele>
        <time>2022-08-02T13:29:10.000Z</time>
      </trkpt>
      <trkpt lat="49.37083" lon="-0.88026">
        <ele>18.855102</ele>
        <time>2022-08-02T13:29:11.000Z</time>
      </trkpt>
      <trkpt lat="49.37079" lon="-0.88023">
        <ele>18.87214</ele>
        <time>2022-08-02T13:29:12.000Z</time>
      </trkpt>
      <trkpt lat="49.37075" lon="-0.88021">
        <ele>18.889021</ele>
        <time>2022-08-02T13:29:13.000Z</time>
      </trkpt>
      <trkpt lat="49.3707" lon="-0.8802">
        <ele>18.905864</ele>
        <time>2022-08-02T13:29:14.000Z</time>
      </trkpt>
      <trkpt lat="49.37066" lon="-0.88019">
        <ele>18.92255</ele>
        <time>2022-08-02T13:29:15.000Z</time>
      </trkpt>
      <trkpt lat="49.37062" lon="-0.88018">
        <ele>18.938693</ele>
        <time>2022-08-02T13:29:16.000Z</time>
      </trkpt>
      <trkpt lat="49.37058" lon="-0.88017">
        <ele>18.956299</ele>
        <time>2022-08-02T13:29:17.000Z</time>
      </trkpt>
      <trkpt lat="49.37054" lon="-0.88018">
        <ele>18.97115</ele>
        <time>2022-08-02T13:29:18.000Z</time>
      </trkpt>
      <trkpt lat="49.3705" lon="-0.88018">
        <ele>18.987605</ele>
        <time>2022-08-02T13:29:19.000Z</time>
      </trkpt>
      <trkpt lat="49.37045" lon="-0.88019">
        <ele>19.002933</ele>
        <time>2022-08-02T13:29:20.000Z</time>
      </trkpt>
      <trkpt lat="49.37042" lon="-0.8802">
        <ele>19.014541</ele>
        <time>2022-08-02T13:29:21.000Z</time>
      </trkpt>
      <trkpt lat="49.37037" lon="-0.88021">
        <ele>19.028332</ele>
        <time>2022-08-02T13:29:22.000Z</time>
      </trkpt>
      <trkpt lat="49.37034" lon="-0.88022">
        <ele>19.039064</ele>
        <time>2022-08-02T13:29:23.000Z</time>
      </trkpt>
      <trkpt lat="49.3703" lon="-0.88023">
        <ele>19.050758</ele>
        <time>2022-08-02T13:29:24.000Z</time>
      </trkpt>
      <trkpt lat="49.37026" lon="-0.88024">
        <ele>19.06275</ele>
        <time>2022-08-02T13:29:25.000Z</time>
      </trkpt>
      <trkpt lat="49.37022" lon="-0.88025">
        <ele>19.074444</ele>
        <time>2022-08-02T13:29:26.000Z</time>
      </trkpt>
      <trkpt lat="49.37018" lon="-0.88025">
        <ele>19.086377</ele>
        <time>2022-08-02T13:29:27.000Z</time>
      </trkpt>
      <trkpt lat="49.37014" lon="-0.88026">
        <ele>19.098039</ele>
        <time>2022-08-02T13:29:28.000Z</time>
      </trkpt>
      <trkpt lat="49.37011" lon="-0.88027">
        <ele>19.108875</ele>
        <time>2022-08-02T13:29:29.000Z</time>
      </trkpt>
      <trkpt lat="49.37008" lon="-0.88028">
        <ele>19.118742</ele>
        <time>2022-08-02T13:29:30.000Z</time>
      </trkpt>
      <trkpt lat="49.37004" lon="-0.88029">
        <ele>19.129474</ele>
        <time>2022-08-02T13:29:31.000Z</time>
      </trkpt>
      <trkpt lat="49.37" lon="-0.8803">
        <ele>19.141383</ele>
        <time>2022-08-02T13:29:32.000Z</time>
      </trkpt>
      <trkpt lat="49.36997" lon="-0.88031">
        <ele>19.152181</ele>
        <time>2022-08-02T13:29:33.000Z</time>
      </trkpt>
      <trkpt lat="49.36993" lon="-0.88033">
        <ele>19.16443</ele>
        <time>2022-08-02T13:29:34.000Z</time>
      </trkpt>
      <trkpt lat="49.3699" lon="-0.88036">
        <ele>19.17395</ele>
        <time>2022-08-02T13:29:35.000Z</time>
      </trkpt>
      <trkpt lat="49.36987" lon="-0.88039">
        <ele>19.185321</ele>
        <time>2022-08-02T13:29:36.000Z</time>
      </trkpt>
      <trkpt lat="49.36984" lon="-0.88041">
        <ele>19.195711</ele>
        <time>2022-08-02T13:29:37.000Z</time>
      </trkpt>
      <trkpt lat="49.36981" lon="-0.88044">
        <ele>19.206207</ele>
        <time>2022-08-02T13:29:38.000Z</time>
      </trkpt>
      <trkpt lat="49.36979" lon="-0.88046">
        <ele>19.215658</ele>
        <time>2022-08-02T13:29:39.000Z</time>
      </trkpt>
      <trkpt lat="49.36975" lon="-0.88048">
        <ele>19.225649</ele>
        <time>2022-08-02T13:29:40.000Z</time>
      </trkpt>
      <trkpt lat="49.36973" lon="-0.88048">
        <ele>19.233534</ele>
        <time>2022-08-02T13:29:41.000Z</time>
      </trkpt>
      <trkpt lat="49.3697" lon="-0.88048">
        <ele>19.24324</ele>
        <time>2022-08-02T13:29:42.000Z</time>
      </trkpt>
      <trkpt lat="49.36967" lon="-0.88047">
        <ele>19.249924</ele>
        <time>2022-08-02T13:29:43.000Z</time>
      </trkpt>
      <trkpt lat="49.36965" lon="-0.88047">
        <ele>19.2569</ele>
        <time>2022-08-02T13:29:44.000Z</time>
      </trkpt>
      <trkpt lat="49.36963" lon="-0.88047">
        <ele>19.262747</ele>
        <time>2022-08-02T13:29:45.000Z</time>
      </trkpt>
      <trkpt lat="49.3696" lon="-0.88046">
        <ele>19.271622</ele>
        <time>2022-08-02T13:29:47.000Z</time>
      </trkpt>
      <trkpt lat="49.36957" lon="-0.8804">
        <ele>19.287559</ele>
        <time>2022-08-02T13:30:18.000Z</time>
      </trkpt>
      <trkpt lat="49.36956" lon="-0.88037">
        <ele>19.294082</ele>
        <time>2022-08-02T13:30:19.000Z</time>
      </trkpt>
      <trkpt lat="49.36955" lon="-0.88033">
        <ele>19.301812</ele>
        <time>2022-08-02T13:30:20.000Z</time>
      </trkpt>
      <trkpt lat="49.36954" lon="-0.88029">
        <ele>19.310645</ele>
        <time>2022-08-02T13:30:21.000Z</time>
      </trkpt>
      <trkpt lat="49.36953" lon="-0.88025">
        <ele>19.319884</ele>
        <time>2022-08-02T13:30:22.000Z</time>
      </trkpt>
      <trkpt lat="49.36951" lon="-0.8802">
        <ele>19.329838</ele>
        <time>2022-08-02T13:30:23.000Z</time>
      </trkpt>
      <trkpt lat="49.3695" lon="-0.88016">
        <ele>19.339741</ele>
        <time>2022-08-02T13:30:24.000Z</time>
      </trkpt>
      <trkpt lat="49.36949" lon="-0.8801">
        <ele>19.351112</ele>
        <time>2022-08-02T13:30:25.000Z</time>
      </trkpt>
      <trkpt lat="49.36948" lon="-0.88005">
        <ele>19.361745</ele>
        <time>2022-08-02T13:30:26.000Z</time>
      </trkpt>
      <trkpt lat="49.36948" lon="-0.88">
        <ele>19.372213</ele>
        <time>2022-08-02T13:30:27.000Z</time>
      </trkpt>
      <trkpt lat="49.36949" lon="-0.87996">
        <ele>19.382339</ele>
        <time>2022-08-02T13:30:28.000Z</time>
      </trkpt>
      <trkpt lat="49.36951" lon="-0.87992">
        <ele>19.391339</ele>
        <time>2022-08-02T13:30:29.000Z</time>
      </trkpt>
      <trkpt lat="49.36953" lon="-0.87989">
        <ele>19.400752</ele>
        <time>2022-08-02T13:30:30.000Z</time>
      </trkpt>
      <trkpt lat="49.36955" lon="-0.87986">
        <ele>19.408411</ele>
        <time>2022-08-02T13:30:31.000Z</time>
      </trkpt>
      <trkpt lat="49.36957" lon="-0.87983">
        <ele>19.415768</ele>
        <time>2022-08-02T13:30:32.000Z</time>
      </trkpt>
      <trkpt lat="49.36958" lon="-0.87981">
        <ele>19.422415</ele>
        <time>2022-08-02T13:30:33.000Z</time>
      </trkpt>
      <trkpt lat="49.36959" lon="-0.87979">
        <ele>19.427996</ele>
        <time>2022-08-02T13:30:34.000Z</time>
      </trkpt>
      <trkpt lat="49.36961" lon="-0.87977">
        <ele>19.433582</ele>
        <time>2022-08-02T13:30:35.000Z</time>
      </trkpt>
      <trkpt lat="49.36964" lon="-0.87975">
        <ele>19.442224</ele>
        <time>2022-08-02T13:30:37.000Z</time>
      </trkpt>
      <trkpt lat="49.36965" lon="-0.87974">
        <ele>19.44781</ele>
        <time>2022-08-02T13:30:38.000Z</time>
      </trkpt>
      <trkpt lat="49.36968" lon="-0.87971">
        <ele>19.458199</ele>
        <time>2022-08-02T13:30:40.000Z</time>
      </trkpt>
      <trkpt lat="49.36971" lon="-0.87968">
        <ele>19.468305</ele>
        <time>2022-08-02T13:30:42.000Z</time>
      </trkpt>
      <trkpt lat="49.36972" lon="-0.87966">
        <ele>19.474096</ele>
        <time>2022-08-02T13:30:43.000Z</time>
      </trkpt>
      <trkpt lat="49.36974" lon="-0.87964">
        <ele>19.482638</ele>
        <time>2022-08-02T13:30:45.000Z</time>
      </trkpt>
      <trkpt lat="49.36982" lon="-0.87953">
        <ele>19.514945</ele>
        <time>2022-08-02T13:31:20.000Z</time>
      </trkpt>
      <trkpt lat="49.36983" lon="-0.8795">
        <ele>19.521079</ele>
        <time>2022-08-02T13:31:21.000Z</time>
      </trkpt>
      <trkpt lat="49.36985" lon="-0.87948">
        <ele>19.527337</ele>
        <time>2022-08-02T13:31:22.000Z</time>
      </trkpt>
      <trkpt lat="49.36987" lon="-0.87948">
        <ele>19.53313</ele>
        <time>2022-08-02T13:31:24.000Z</time>
      </trkpt>
      <trkpt lat="49.36985" lon="-0.87951">
        <ele>19.54183</ele>
        <time>2022-08-02T13:31:27.000Z</time>
      </trkpt>
      <trkpt lat="49.36983" lon="-0.87952">
        <ele>19.555759</ele>
        <time>2022-08-02T13:31:28.000Z</time>
      </trkpt>
      <trkpt lat="49.36981" lon="-0.87954">
        <ele>19.575767</ele>
        <time>2022-08-02T13:31:29.000Z</time>
      </trkpt>
      <trkpt lat="49.36979" lon="-0.87956">
        <ele>19.597095</ele>
        <time>2022-08-02T13:31:30.000Z</time>
      </trkpt>
      <trkpt lat="49.36977" lon="-0.87959">
        <ele>19.618382</ele>
        <time>2022-08-02T13:31:31.000Z</time>
      </trkpt>
      <trkpt lat="49.36974" lon="-0.87962">
        <ele>19.641936</ele>
        <time>2022-08-02T13:31:32.000Z</time>
      </trkpt>
      <trkpt lat="49.36972" lon="-0.87965">
        <ele>19.670641</ele>
        <time>2022-08-02T13:31:33.000Z</time>
      </trkpt>
      <trkpt lat="49.36969" lon="-0.87968">
        <ele>19.694542</ele>
        <time>2022-08-02T13:31:34.000Z</time>
      </trkpt>
      <trkpt lat="49.36967" lon="-0.87971">
        <ele>19.718718</ele>
        <time>2022-08-02T13:31:35.000Z</time>
      </trkpt>
      <trkpt lat="49.36965" lon="-0.87973">
        <ele>19.740339</ele>
        <time>2022-08-02T13:31:36.000Z</time>
      </trkpt>
      <trkpt lat="49.36963" lon="-0.87975">
        <ele>19.761667</ele>
        <time>2022-08-02T13:31:37.000Z</time>
      </trkpt>
      <trkpt lat="49.36961" lon="-0.87977">
        <ele>19.780499</ele>
        <time>2022-08-02T13:31:38.000Z</time>
      </trkpt>
      <trkpt lat="49.36959" lon="-0.87979">
        <ele>19.798363</ele>
        <time>2022-08-02T13:31:39.000Z</time>
      </trkpt>
      <trkpt lat="49.36957" lon="-0.87981">
        <ele>19.816499</ele>
        <time>2022-08-02T13:31:40.000Z</time>
      </trkpt>
      <trkpt lat="49.36954" lon="-0.8798">
        <ele>19.842517</ele>
        <time>2022-08-02T13:31:42.000Z</time>
      </trkpt>
      <trkpt lat="49.36952" lon="-0.87978">
        <ele>19.858628</ele>
        <time>2022-08-02T13:31:43.000Z</time>
      </trkpt>
      <trkpt lat="49.36951" lon="-0.87975">
        <ele>19.879142</ele>
        <time>2022-08-02T13:31:44.000Z</time>
      </trkpt>
      <trkpt lat="49.36949" lon="-0.87972">
        <ele>19.902444</ele>
        <time>2022-08-02T13:31:45.000Z</time>
      </trkpt>
      <trkpt lat="49.36947" lon="-0.87968">
        <ele>19.928185</ele>
        <time>2022-08-02T13:31:46.000Z</time>
      </trkpt>
      <trkpt lat="49.36945" lon="-0.87963">
        <ele>19.955675</ele>
        <time>2022-08-02T13:31:47.000Z</time>
      </trkpt>
      <trkpt lat="49.36943" lon="-0.87959">
        <ele>19.983904</ele>
        <time>2022-08-02T13:31:48.000Z</time>
      </trkpt>
      <trkpt lat="49.36941" lon="-0.87955">
        <ele>20.013234</ele>
        <time>2022-08-02T13:31:49.000Z</time>
      </trkpt>
      <trkpt lat="49.36938" lon="-0.87952">
        <ele>20.043198</ele>
        <time>2022-08-02T13:31:50.000Z</time>
      </trkpt>
      <trkpt lat="49.36935" lon="-0.87948">
        <ele>20.074514</ele>
        <time>2022-08-02T13:31:51.000Z</time>
      </trkpt>
      <trkpt lat="49.36933" lon="-0.87944">
        <ele>20.102618</ele>
        <time>2022-08-02T13:31:52.000Z</time>
      </trkpt>
      <trkpt lat="49.3693" lon="-0.8794">
        <ele>20.134285</ele>
        <time>2022-08-02T13:31:53.000Z</time>
      </trkpt>
      <trkpt lat="49.36927" lon="-0.87936">
        <ele>20.16079</ele>
        <time>2022-08-02T13:31:54.000Z</time>
      </trkpt>
      <trkpt lat="49.36925" lon="-0.87932">
        <ele>20.189949</ele>
        <time>2022-08-02T13:31:55.000Z</time>
      </trkpt>
      <trkpt lat="49.36923" lon="-0.87928">
        <ele>20.218005</ele>
        <time>2022-08-02T13:31:56.000Z</time>
      </trkpt>
      <trkpt lat="49.36922" lon="-0.87923">
        <ele>20.247477</ele>
        <time>2022-08-02T13:31:57.000Z</time>
      </trkpt>
      <trkpt lat="49.36919" lon="-0.87918">
        <ele>20.278529</ele>
        <time>2022-08-02T13:31:58.000Z</time>
      </trkpt>
      <trkpt lat="49.36917" lon="-0.87913">
        <ele>20.309571</ele>
        <time>2022-08-02T13:31:59.000Z</time>
      </trkpt>
      <trkpt lat="49.36916" lon="-0.87908">
        <ele>20.339042</ele>
        <time>2022-08-02T13:32:00.000Z</time>
      </trkpt>
      <trkpt lat="49.36915" lon="-0.87903">
        <ele>20.368227</ele>
        <time>2022-08-02T13:32:01.000Z</time>
      </trkpt>
      <trkpt lat="49.36914" lon="-0.87898">
        <ele>20.394888</ele>
        <time>2022-08-02T13:32:02.000Z</time>
      </trkpt>
      <trkpt lat="49.36912" lon="-0.87893">
        <ele>20.423885</ele>
        <time>2022-08-02T13:32:03.000Z</time>
      </trkpt>
      <trkpt lat="49.36911" lon="-0.87888">
        <ele>20.448703</ele>
        <time>2022-08-02T13:32:04.000Z</time>
      </trkpt>
      <trkpt lat="49.3691" lon="-0.87884">
        <ele>20.473857</ele>
        <time>2022-08-02T13:32:05.000Z</time>
      </trkpt>
      <trkpt lat="49.36909" lon="-0.8788">
        <ele>20.498457</ele>
        <time>2022-08-02T13:32:06.000Z</time>
      </trkpt>
      <trkpt lat="49.36909" lon="-0.87876">
        <ele>20.520172</ele>
        <time>2022-08-02T13:32:07.000Z</time>
      </trkpt>
      <trkpt lat="49.36908" lon="-0.87872">
        <ele>20.540391</ele>
        <time>2022-08-02T13:32:08.000Z</time>
      </trkpt>
      <trkpt lat="49.36907" lon="-0.87869">
        <ele>20.557494</ele>
        <time>2022-08-02T13:32:09.000Z</time>
      </trkpt>
      <trkpt lat="49.36907" lon="-0.87866">
        <ele>20.572506</ele>
        <time>2022-08-02T13:32:10.000Z</time>
      </trkpt>
      <trkpt lat="49.36907" lon="-0.87862">
        <ele>20.596311</ele>
        <time>2022-08-02T13:32:12.000Z</time>
      </trkpt>
      <trkpt lat="49.36906" lon="-0.87858">
        <ele>20.618977</ele>
        <time>2022-08-02T13:32:14.000Z</time>
      </trkpt>
      <trkpt lat="49.36905" lon="-0.87854">
        <ele>20.640293</ele>
        <time>2022-08-02T13:32:16.000Z</time>
      </trkpt>
      <trkpt lat="49.36904" lon="-0.8785">
        <ele>20.665196</ele>
        <time>2022-08-02T13:32:18.000Z</time>
      </trkpt>
      <trkpt lat="49.36903" lon="-0.87845">
        <ele>20.690179</ele>
        <time>2022-08-02T13:32:20.000Z</time>
      </trkpt>
      <trkpt lat="49.36902" lon="-0.87839">
        <ele>20.721629</ele>
        <time>2022-08-02T13:32:22.000Z</time>
      </trkpt>
      <trkpt lat="49.36901" lon="-0.87836">
        <ele>20.739487</ele>
        <time>2022-08-02T13:32:23.000Z</time>
      </trkpt>
      <trkpt lat="49.36901" lon="-0.87833">
        <ele>20.757104</ele>
        <time>2022-08-02T13:32:24.000Z</time>
      </trkpt>
      <trkpt lat="49.36901" lon="-0.87829">
        <ele>20.775779</ele>
        <time>2022-08-02T13:32:25.000Z</time>
      </trkpt>
      <trkpt lat="49.36899" lon="-0.87826">
        <ele>20.798486</ele>
        <time>2022-08-02T13:32:26.000Z</time>
      </trkpt>
      <trkpt lat="49.36899" lon="-0.87822">
        <ele>20.818736</ele>
        <time>2022-08-02T13:32:27.000Z</time>
      </trkpt>
      <trkpt lat="49.36898" lon="-0.87818">
        <ele>20.840052</ele>
        <time>2022-08-02T13:32:28.000Z</time>
      </trkpt>
      <trkpt lat="49.36897" lon="-0.87814">
        <ele>20.862225</ele>
        <time>2022-08-02T13:32:29.000Z</time>
      </trkpt>
      <trkpt lat="49.36896" lon="-0.87811">
        <ele>20.882132</ele>
        <time>2022-08-02T13:32:30.000Z</time>
      </trkpt>
      <trkpt lat="49.36895" lon="-0.87808">
        <ele>20.898106</ele>
        <time>2022-08-02T13:32:31.000Z</time>
      </trkpt>
      <trkpt lat="49.36893" lon="-0.87805">
        <ele>20.919868</ele>
        <time>2022-08-02T13:32:33.000Z</time>
      </trkpt>
      <trkpt lat="49.36893" lon="-0.87796">
        <ele>20.970184</ele>
        <time>2022-08-02T13:33:47.000Z</time>
      </trkpt>
      <trkpt lat="49.36892" lon="-0.8779">
        <ele>21.003271</ele>
        <time>2022-08-02T13:33:48.000Z</time>
      </trkpt>
      <trkpt lat="49.36891" lon="-0.87783">
        <ele>20.955191</ele>
        <time>2022-08-02T13:33:49.000Z</time>
      </trkpt>
      <trkpt lat="49.3689" lon="-0.87777">
        <ele>20.899741</ele>
        <time>2022-08-02T13:33:50.000Z</time>
      </trkpt>
      <trkpt lat="49.36889" lon="-0.87769">
        <ele>20.841591</ele>
        <time>2022-08-02T13:33:51.000Z</time>
      </trkpt>
      <trkpt lat="49.36888" lon="-0.87762">
        <ele>20.780871</ele>
        <time>2022-08-02T13:33:52.000Z</time>
      </trkpt>
      <trkpt lat="49.36887" lon="-0.87754">
        <ele>20.717818</ele>
        <time>2022-08-02T13:33:53.000Z</time>
      </trkpt>
      <trkpt lat="49.36886" lon="-0.87746">
        <ele>20.65502</ele>
        <time>2022-08-02T13:33:54.000Z</time>
      </trkpt>
      <trkpt lat="49.36885" lon="-0.87739">
        <ele>20.598849</ele>
        <time>2022-08-02T13:33:55.000Z</time>
      </trkpt>
      <trkpt lat="49.36884" lon="-0.87733">
        <ele>20.546432</ele>
        <time>2022-08-02T13:33:56.000Z</time>
      </trkpt>
      <trkpt lat="49.36883" lon="-0.87728">
        <ele>20.506106</ele>
        <time>2022-08-02T13:33:57.000Z</time>
      </trkpt>
      <trkpt lat="49.36883" lon="-0.87725">
        <ele>20.478346</ele>
        <time>2022-08-02T13:33:58.000Z</time>
      </trkpt>
      <trkpt lat="49.36885" lon="-0.87721">
        <ele>20.443118</ele>
        <time>2022-08-02T13:34:00.000Z</time>
      </trkpt>
      <trkpt lat="49.36887" lon="-0.87719">
        <ele>20.406571</ele>
        <time>2022-08-02T13:34:02.000Z</time>
      </trkpt>
      <trkpt lat="49.3689" lon="-0.87717">
        <ele>20.37786</ele>
        <time>2022-08-02T13:34:03.000Z</time>
      </trkpt>
      <trkpt lat="49.36892" lon="-0.87715">
        <ele>20.342441</ele>
        <time>2022-08-02T13:34:04.000Z</time>
      </trkpt>
      <trkpt lat="49.36896" lon="-0.87713">
        <ele>20.294734</ele>
        <time>2022-08-02T13:34:05.000Z</time>
      </trkpt>
      <trkpt lat="49.369" lon="-0.87709">
        <ele>20.237599</ele>
        <time>2022-08-02T13:34:06.000Z</time>
      </trkpt>
      <trkpt lat="49.36904" lon="-0.87705">
        <ele>20.178224</ele>
        <time>2022-08-02T13:34:07.000Z</time>
      </trkpt>
      <trkpt lat="49.36908" lon="-0.87702">
        <ele>20.124656</ele>
        <time>2022-08-02T13:34:08.000Z</time>
      </trkpt>
      <trkpt lat="49.36911" lon="-0.87699">
        <ele>20.082067</ele>
        <time>2022-08-02T13:34:09.000Z</time>
      </trkpt>
      <trkpt lat="49.36913" lon="-0.87696">
        <ele>20.046318</ele>
        <time>2022-08-02T13:34:10.000Z</time>
      </trkpt>
      <trkpt lat="49.36915" lon="-0.87694">
        <ele>20.018261</ele>
        <time>2022-08-02T13:34:11.000Z</time>
      </trkpt>
      <trkpt lat="49.36917" lon="-0.87693">
        <ele>19.995429</ele>
        <time>2022-08-02T13:34:15.000Z</time>
      </trkpt>
      <trkpt lat="49.3692" lon="-0.87692">
        <ele>19.948712</ele>
        <time>2022-08-02T13:34:17.000Z</time>
      </trkpt>
      <trkpt lat="49.36923" lon="-0.8769">
        <ele>19.915153</ele>
        <time>2022-08-02T13:34:18.000Z</time>
      </trkpt>
      <trkpt lat="49.36926" lon="-0.87688">
        <ele>19.876432</ele>
        <time>2022-08-02T13:34:19.000Z</time>
      </trkpt>
      <trkpt lat="49.36929" lon="-0.87686">
        <ele>19.833398</ele>
        <time>2022-08-02T13:34:20.000Z</time>
      </trkpt>
      <trkpt lat="49.36932" lon="-0.87683">
        <ele>19.793128</ele>
        <time>2022-08-02T13:34:21.000Z</time>
      </trkpt>
      <trkpt lat="49.36936" lon="-0.87681">
        <ele>19.740691</ele>
        <time>2022-08-02T13:34:22.000Z</time>
      </trkpt>
      <trkpt lat="49.36939" lon="-0.87678">
        <ele>19.696219</ele>
        <time>2022-08-02T13:34:23.000Z</time>
      </trkpt>
      <trkpt lat="49.36942" lon="-0.87675">
        <ele>19.654495</ele>
        <time>2022-08-02T13:34:24.000Z</time>
      </trkpt>
      <trkpt lat="49.36945" lon="-0.87672">
        <ele>19.606427</ele>
        <time>2022-08-02T13:34:25.000Z</time>
      </trkpt>
      <trkpt lat="49.36949" lon="-0.8767">
        <ele>19.562697</ele>
        <time>2022-08-02T13:34:26.000Z</time>
      </trkpt>
      <trkpt lat="49.36952" lon="-0.87667">
        <ele>19.518967</ele>
        <time>2022-08-02T13:34:27.000Z</time>
      </trkpt>
      <trkpt lat="49.36955" lon="-0.87665">
        <ele>19.471951</ele>
        <time>2022-08-02T13:34:28.000Z</time>
      </trkpt>
      <trkpt lat="49.36958" lon="-0.87662">
        <ele>19.426694</ele>
        <time>2022-08-02T13:34:29.000Z</time>
      </trkpt>
      <trkpt lat="49.36961" lon="-0.87659">
        <ele>19.387083</ele>
        <time>2022-08-02T13:34:30.000Z</time>
      </trkpt>
      <trkpt lat="49.36963" lon="-0.87657">
        <ele>19.355532</ele>
        <time>2022-08-02T13:34:31.000Z</time>
      </trkpt>
      <trkpt lat="49.36965" lon="-0.87656">
        <ele>19.33051</ele>
        <time>2022-08-02T13:34:32.000Z</time>
      </trkpt>
      <trkpt lat="49.36967" lon="-0.87654">
        <ele>19.305487</ele>
        <time>2022-08-02T13:34:33.000Z</time>
      </trkpt>
      <trkpt lat="49.36969" lon="-0.87652">
        <ele>19.273293</ele>
        <time>2022-08-02T13:34:35.000Z</time>
      </trkpt>
      <trkpt lat="49.3697" lon="-0.87648">
        <ele>19.23747</ele>
        <time>2022-08-02T13:34:37.000Z</time>
      </trkpt>
      <trkpt lat="49.36969" lon="-0.87645">
        <ele>19.209823</ele>
        <time>2022-08-02T13:34:38.000Z</time>
      </trkpt>
      <trkpt lat="49.36968" lon="-0.87642">
        <ele>19.181242</ele>
        <time>2022-08-02T13:34:39.000Z</time>
      </trkpt>
      <trkpt lat="49.36966" lon="-0.87639">
        <ele>19.149868</ele>
        <time>2022-08-02T13:34:40.000Z</time>
      </trkpt>
      <trkpt lat="49.36965" lon="-0.87636">
        <ele>19.117869</ele>
        <time>2022-08-02T13:34:41.000Z</time>
      </trkpt>
      <trkpt lat="49.36964" lon="-0.87632">
        <ele>19.090694</ele>
        <time>2022-08-02T13:34:42.000Z</time>
      </trkpt>
      <trkpt lat="49.36964" lon="-0.87629">
        <ele>19.0669</ele>
        <time>2022-08-02T13:34:43.000Z</time>
      </trkpt>
      <trkpt lat="49.36965" lon="-0.87626">
        <ele>19.035574</ele>
        <time>2022-08-02T13:34:44.000Z</time>
      </trkpt>
      <trkpt lat="49.36965" lon="-0.87621">
        <ele>19.002262</ele>
        <time>2022-08-02T13:34:45.000Z</time>
      </trkpt>
      <trkpt lat="49.36965" lon="-0.87618">
        <ele>18.971902</ele>
        <time>2022-08-02T13:34:46.000Z</time>
      </trkpt>
      <trkpt lat="49.36964" lon="-0.87614">
        <ele>18.936445</ele>
        <time>2022-08-02T13:34:47.000Z</time>
      </trkpt>
      <trkpt lat="49.36962" lon="-0.87609">
        <ele>18.895883</ele>
        <time>2022-08-02T13:34:48.000Z</time>
      </trkpt>
      <trkpt lat="49.3696" lon="-0.87604">
        <ele>18.853182</ele>
        <time>2022-08-02T13:34:49.000Z</time>
      </trkpt>
      <trkpt lat="49.36958" lon="-0.87599">
        <ele>18.817097</ele>
        <time>2022-08-02T13:34:50.000Z</time>
      </trkpt>
      <trkpt lat="49.36957" lon="-0.87594">
        <ele>18.833017</ele>
        <time>2022-08-02T13:34:51.000Z</time>
      </trkpt>
      <trkpt lat="49.36955" lon="-0.87589">
        <ele>18.84774</ele>
        <time>2022-08-02T13:34:52.000Z</time>
      </trkpt>
      <trkpt lat="49.36953" lon="-0.87584">
        <ele>18.86304</ele>
        <time>2022-08-02T13:34:53.000Z</time>
      </trkpt>
      <trkpt lat="49.36952" lon="-0.87579">
        <ele>18.877526</ele>
        <time>2022-08-02T13:34:54.000Z</time>
      </trkpt>
      <trkpt lat="49.3695" lon="-0.87574">
        <ele>18.892001</ele>
        <time>2022-08-02T13:34:55.000Z</time>
      </trkpt>
      <trkpt lat="49.36949" lon="-0.87568">
        <ele>18.908222</ele>
        <time>2022-08-02T13:34:56.000Z</time>
      </trkpt>
      <trkpt lat="49.36947" lon="-0.87563">
        <ele>18.924676</ele>
        <time>2022-08-02T13:34:57.000Z</time>
      </trkpt>
      <trkpt lat="49.36945" lon="-0.87557">
        <ele>18.942021</ele>
        <time>2022-08-02T13:34:58.000Z</time>
      </trkpt>
      <trkpt lat="49.36943" lon="-0.87551">
        <ele>18.95918</ele>
        <time>2022-08-02T13:34:59.000Z</time>
      </trkpt>
      <trkpt lat="49.36941" lon="-0.87545">
        <ele>18.977378</ele>
        <time>2022-08-02T13:35:00.000Z</time>
      </trkpt>
      <trkpt lat="49.36939" lon="-0.87539">
        <ele>18.99501</ele>
        <time>2022-08-02T13:35:01.000Z</time>
      </trkpt>
      <trkpt lat="49.36937" lon="-0.87533">
        <ele>19.013375</ele>
        <time>2022-08-02T13:35:02.000Z</time>
      </trkpt>
      <trkpt lat="49.36935" lon="-0.87526">
        <ele>19.032854</ele>
        <time>2022-08-02T13:35:03.000Z</time>
      </trkpt>
      <trkpt lat="49.36933" lon="-0.8752">
        <ele>19.051203</ele>
        <time>2022-08-02T13:35:04.000Z</time>
      </trkpt>
      <trkpt lat="49.36931" lon="-0.87513">
        <ele>19.070563</ele>
        <time>2022-08-02T13:35:05.000Z</time>
      </trkpt>
      <trkpt lat="49.36929" lon="-0.87507">
        <ele>19.089393</ele>
        <time>2022-08-02T13:35:06.000Z</time>
      </trkpt>
      <trkpt lat="49.36927" lon="-0.875">
        <ele>19.108154</ele>
        <time>2022-08-02T13:35:07.000Z</time>
      </trkpt>
      <trkpt lat="49.36925" lon="-0.87494">
        <ele>19.127749</ele>
        <time>2022-08-02T13:35:08.000Z</time>
      </trkpt>
      <trkpt lat="49.36923" lon="-0.87487">
        <ele>19.146579</ele>
        <time>2022-08-02T13:35:09.000Z</time>
      </trkpt>
      <trkpt lat="49.36921" lon="-0.87481">
        <ele>19.165892</ele>
        <time>2022-08-02T13:35:10.000Z</time>
      </trkpt>
      <trkpt lat="49.36919" lon="-0.87474">
        <ele>19.186143</ele>
        <time>2022-08-02T13:35:11.000Z</time>
      </trkpt>
      <trkpt lat="49.36917" lon="-0.87467">
        <ele>19.205942</ele>
        <time>2022-08-02T13:35:12.000Z</time>
      </trkpt>
      <trkpt lat="49.36915" lon="-0.8746">
        <ele>19.226229</ele>
        <time>2022-08-02T13:35:13.000Z</time>
      </trkpt>
      <trkpt lat="49.36913" lon="-0.87453">
        <ele>19.246951</ele>
        <time>2022-08-02T13:35:14.000Z</time>
      </trkpt>
      <trkpt lat="49.36911" lon="-0.87446">
        <ele>19.26675</ele>
        <time>2022-08-02T13:35:15.000Z</time>
      </trkpt>
      <trkpt lat="49.36909" lon="-0.87439">
        <ele>19.286345</ele>
        <time>2022-08-02T13:35:16.000Z</time>
      </trkpt>
      <trkpt lat="49.36907" lon="-0.87433">
        <ele>19.305175</ele>
        <time>2022-08-02T13:35:17.000Z</time>
      </trkpt>
      <trkpt lat="49.36905" lon="-0.87426">
        <ele>19.324174</ele>
        <time>2022-08-02T13:35:18.000Z</time>
      </trkpt>
      <trkpt lat="49.36903" lon="-0.8742">
        <ele>19.343004</ele>
        <time>2022-08-02T13:35:19.000Z</time>
      </trkpt>
      <trkpt lat="49.36901" lon="-0.87413">
        <ele>19.361593</ele>
        <time>2022-08-02T13:35:20.000Z</time>
      </trkpt>
      <trkpt lat="49.36899" lon="-0.87407">
        <ele>19.379958</ele>
        <time>2022-08-02T13:35:21.000Z</time>
      </trkpt>
      <trkpt lat="49.36897" lon="-0.874">
        <ele>19.399319</ele>
        <time>2022-08-02T13:35:22.000Z</time>
      </trkpt>
      <trkpt lat="49.36895" lon="-0.87394">
        <ele>19.419038</ele>
        <time>2022-08-02T13:35:23.000Z</time>
      </trkpt>
      <trkpt lat="49.36893" lon="-0.87387">
        <ele>19.438399</ele>
        <time>2022-08-02T13:35:24.000Z</time>
      </trkpt>
      <trkpt lat="49.36891" lon="-0.8738">
        <ele>19.457954</ele>
        <time>2022-08-02T13:35:25.000Z</time>
      </trkpt>
      <trkpt lat="49.36889" lon="-0.87373">
        <ele>19.47844</ele>
        <time>2022-08-02T13:35:26.000Z</time>
      </trkpt>
      <trkpt lat="49.36887" lon="-0.87367">
        <ele>19.497996</ele>
        <time>2022-08-02T13:35:27.000Z</time>
      </trkpt>
      <trkpt lat="49.36884" lon="-0.8736">
        <ele>19.519096</ele>
        <time>2022-08-02T13:35:28.000Z</time>
      </trkpt>
      <trkpt lat="49.36882" lon="-0.87353">
        <ele>19.539818</ele>
        <time>2022-08-02T13:35:29.000Z</time>
      </trkpt>
      <trkpt lat="49.3688" lon="-0.87345">
        <ele>19.552422</ele>
        <time>2022-08-02T13:35:30.000Z</time>
      </trkpt>
      <trkpt lat="49.36877" lon="-0.87338">
        <ele>19.562811</ele>
        <time>2022-08-02T13:35:31.000Z</time>
      </trkpt>
      <trkpt lat="49.36875" lon="-0.87331">
        <ele>19.573003</ele>
        <time>2022-08-02T13:35:32.000Z</time>
      </trkpt>
      <trkpt lat="49.36873" lon="-0.87323">
        <ele>19.583992</ele>
        <time>2022-08-02T13:35:33.000Z</time>
      </trkpt>
      <trkpt lat="49.3687" lon="-0.87315">
        <ele>19.594667</ele>
        <time>2022-08-02T13:35:34.000Z</time>
      </trkpt>
      <trkpt lat="49.36868" lon="-0.87308">
        <ele>19.605516</ele>
        <time>2022-08-02T13:35:35.000Z</time>
      </trkpt>
      <trkpt lat="49.36865" lon="-0.873">
        <ele>19.616417</ele>
        <time>2022-08-02T13:35:36.000Z</time>
      </trkpt>
      <trkpt lat="49.36863" lon="-0.87292">
        <ele>19.627294</ele>
        <time>2022-08-02T13:35:37.000Z</time>
      </trkpt>
      <trkpt lat="49.36861" lon="-0.87284">
        <ele>19.638084</ele>
        <time>2022-08-02T13:35:38.000Z</time>
      </trkpt>
      <trkpt lat="49.36858" lon="-0.87277">
        <ele>19.649354</ele>
        <time>2022-08-02T13:35:39.000Z</time>
      </trkpt>
      <trkpt lat="49.36856" lon="-0.87269">
        <ele>19.660356</ele>
        <time>2022-08-02T13:35:40.000Z</time>
      </trkpt>
      <trkpt lat="49.36853" lon="-0.87261">
        <ele>19.671685</ele>
        <time>2022-08-02T13:35:41.000Z</time>
      </trkpt>
      <trkpt lat="49.36851" lon="-0.87253">
        <ele>19.682107</ele>
        <time>2022-08-02T13:35:42.000Z</time>
      </trkpt>
      <trkpt lat="49.36848" lon="-0.87246">
        <ele>19.692872</ele>
        <time>2022-08-02T13:35:43.000Z</time>
      </trkpt>
      <trkpt lat="49.36846" lon="-0.87238">
        <ele>19.702949</ele>
        <time>2022-08-02T13:35:44.000Z</time>
      </trkpt>
      <trkpt lat="49.36844" lon="-0.87231">
        <ele>19.712558</ele>
        <time>2022-08-02T13:35:45.000Z</time>
      </trkpt>
      <trkpt lat="49.36842" lon="-0.87225">
        <ele>19.722011</ele>
        <time>2022-08-02T13:35:46.000Z</time>
      </trkpt>
      <trkpt lat="49.3684" lon="-0.87218">
        <ele>19.731632</ele>
        <time>2022-08-02T13:35:47.000Z</time>
      </trkpt>
      <trkpt lat="49.36838" lon="-0.87211">
        <ele>19.74124</ele>
        <time>2022-08-02T13:35:48.000Z</time>
      </trkpt>
      <trkpt lat="49.36836" lon="-0.87204">
        <ele>19.751175</ele>
        <time>2022-08-02T13:35:49.000Z</time>
      </trkpt>
      <trkpt lat="49.36834" lon="-0.87197">
        <ele>19.760783</ele>
        <time>2022-08-02T13:35:50.000Z</time>
      </trkpt>
      <trkpt lat="49.36832" lon="-0.8719">
        <ele>19.770517</ele>
        <time>2022-08-02T13:35:51.000Z</time>
      </trkpt>
      <trkpt lat="49.3683" lon="-0.87183">
        <ele>19.779893</ele>
        <time>2022-08-02T13:35:52.000Z</time>
      </trkpt>
      <trkpt lat="49.36828" lon="-0.87176">
        <ele>19.78981</ele>
        <time>2022-08-02T13:35:53.000Z</time>
      </trkpt>
      <trkpt lat="49.36826" lon="-0.87169">
        <ele>19.799092</ele>
        <time>2022-08-02T13:35:54.000Z</time>
      </trkpt>
      <trkpt lat="49.36824" lon="-0.87163">
        <ele>19.807545</ele>
        <time>2022-08-02T13:35:55.000Z</time>
      </trkpt>
      <trkpt lat="49.36822" lon="-0.87158">
        <ele>19.814721</ele>
        <time>2022-08-02T13:35:56.000Z</time>
      </trkpt>
      <trkpt lat="49.36821" lon="-0.87154">
        <ele>19.820728</ele>
        <time>2022-08-02T13:35:57.000Z</time>
      </trkpt>
      <trkpt lat="49.3682" lon="-0.8715">
        <ele>19.825833</ele>
        <time>2022-08-02T13:35:58.000Z</time>
      </trkpt>
      <trkpt lat="49.36819" lon="-0.87147">
        <ele>19.830294</ele>
        <time>2022-08-02T13:35:59.000Z</time>
      </trkpt>
      <trkpt lat="49.36817" lon="-0.87143">
        <ele>19.836531</ele>
        <time>2022-08-02T13:36:01.000Z</time>
      </trkpt>
      <trkpt lat="49.36812" lon="-0.87142">
        <ele>19.847918</ele>
        <time>2022-08-02T13:36:21.000Z</time>
      </trkpt>
      <trkpt lat="49.36809" lon="-0.87142">
        <ele>19.852206</ele>
        <time>2022-08-02T13:36:22.000Z</time>
      </trkpt>
      <trkpt lat="49.36806" lon="-0.87139">
        <ele>19.859636</ele>
        <time>2022-08-02T13:36:24.000Z</time>
      </trkpt>
      <trkpt lat="49.36805" lon="-0.87135">
        <ele>19.864712</ele>
        <time>2022-08-02T13:36:25.000Z</time>
      </trkpt>
      <trkpt lat="49.36803" lon="-0.8713">
        <ele>19.871613</ele>
        <time>2022-08-02T13:36:26.000Z</time>
      </trkpt>
      <trkpt lat="49.36801" lon="-0.87125">
        <ele>19.878948</ele>
        <time>2022-08-02T13:36:27.000Z</time>
      </trkpt>
      <trkpt lat="49.36799" lon="-0.8712">
        <ele>19.886837</ele>
        <time>2022-08-02T13:36:28.000Z</time>
      </trkpt>
      <trkpt lat="49.36797" lon="-0.87114">
        <ele>19.889381</ele>
        <time>2022-08-02T13:36:29.000Z</time>
      </trkpt>
      <trkpt lat="49.36795" lon="-0.87107">
        <ele>19.85979</ele>
        <time>2022-08-02T13:36:30.000Z</time>
      </trkpt>
      <trkpt lat="49.36792" lon="-0.87101">
        <ele>19.829541</ele>
        <time>2022-08-02T13:36:31.000Z</time>
      </trkpt>
      <trkpt lat="49.3679" lon="-0.87094">
        <ele>19.799588</ele>
        <time>2022-08-02T13:36:32.000Z</time>
      </trkpt>
      <trkpt lat="49.36788" lon="-0.87088">
        <ele>19.768396</ele>
        <time>2022-08-02T13:36:33.000Z</time>
      </trkpt>
      <trkpt lat="49.36786" lon="-0.87081">
        <ele>19.73814</ele>
        <time>2022-08-02T13:36:34.000Z</time>
      </trkpt>
      <trkpt lat="49.36783" lon="-0.87074">
        <ele>19.704903</ele>
        <time>2022-08-02T13:36:35.000Z</time>
      </trkpt>
      <trkpt lat="49.36781" lon="-0.87067">
        <ele>19.673893</ele>
        <time>2022-08-02T13:36:36.000Z</time>
      </trkpt>
      <trkpt lat="49.36778" lon="-0.8706">
        <ele>19.641296</ele>
        <time>2022-08-02T13:36:37.000Z</time>
      </trkpt>
      <trkpt lat="49.36776" lon="-0.87053">
        <ele>19.609515</ele>
        <time>2022-08-02T13:36:38.000Z</time>
      </trkpt>
      <trkpt lat="49.36774" lon="-0.87046">
        <ele>19.576624</ele>
        <time>2022-08-02T13:36:39.000Z</time>
      </trkpt>
      <trkpt lat="49.36772" lon="-0.87039">
        <ele>19.543832</ele>
        <time>2022-08-02T13:36:40.000Z</time>
      </trkpt>
      <trkpt lat="49.3677" lon="-0.87032">
        <ele>19.512444</ele>
        <time>2022-08-02T13:36:41.000Z</time>
      </trkpt>
      <trkpt lat="49.36767" lon="-0.87025">
        <ele>19.478864</ele>
        <time>2022-08-02T13:36:42.000Z</time>
      </trkpt>
      <trkpt lat="49.36765" lon="-0.87018">
        <ele>19.448911</ele>
        <time>2022-08-02T13:36:43.000Z</time>
      </trkpt>
      <trkpt lat="49.36762" lon="-0.87013">
        <ele>19.42112</ele>
        <time>2022-08-02T13:36:44.000Z</time>
      </trkpt>
      <trkpt lat="49.36759" lon="-0.87009">
        <ele>19.396644</ele>
        <time>2022-08-02T13:36:45.000Z</time>
      </trkpt>
      <trkpt lat="49.36756" lon="-0.87007">
        <ele>19.374459</ele>
        <time>2022-08-02T13:36:46.000Z</time>
      </trkpt>
      <trkpt lat="49.36752" lon="-0.87006">
        <ele>19.352387</ele>
        <time>2022-08-02T13:36:47.000Z</time>
      </trkpt>
      <trkpt lat="49.36749" lon="-0.87007">
        <ele>19.329776</ele>
        <time>2022-08-02T13:36:48.000Z</time>
      </trkpt>
      <trkpt lat="49.36745" lon="-0.8701">
        <ele>19.303818</ele>
        <time>2022-08-02T13:36:49.000Z</time>
      </trkpt>
      <trkpt lat="49.36742" lon="-0.87013">
        <ele>19.281862</ele>
        <time>2022-08-02T13:36:50.000Z</time>
      </trkpt>
      <trkpt lat="49.36738" lon="-0.87015">
        <ele>19.255774</ele>
        <time>2022-08-02T13:36:51.000Z</time>
      </trkpt>
      <trkpt lat="49.36734" lon="-0.87015">
        <ele>19.231899</ele>
        <time>2022-08-02T13:36:52.000Z</time>
      </trkpt>
      <trkpt lat="49.36731" lon="-0.87012">
        <ele>19.208358</ele>
        <time>2022-08-02T13:36:53.000Z</time>
      </trkpt>
      <trkpt lat="49.36729" lon="-0.87007">
        <ele>19.182194</ele>
        <time>2022-08-02T13:36:54.000Z</time>
      </trkpt>
      <trkpt lat="49.36726" lon="-0.87001">
        <ele>19.153068</ele>
        <time>2022-08-02T13:36:55.000Z</time>
      </trkpt>
      <trkpt lat="49.36723" lon="-0.86995">
        <ele>19.12085</ele>
        <time>2022-08-02T13:36:56.000Z</time>
      </trkpt>
      <trkpt lat="49.36721" lon="-0.86988">
        <ele>19.088329</ele>
        <time>2022-08-02T13:36:57.000Z</time>
      </trkpt>
      <trkpt lat="49.36718" lon="-0.8698">
        <ele>19.054665</ele>
        <time>2022-08-02T13:36:58.000Z</time>
      </trkpt>
      <trkpt lat="49.36716" lon="-0.86973">
        <ele>19.019923</ele>
        <time>2022-08-02T13:36:59.000Z</time>
      </trkpt>
      <trkpt lat="49.36713" lon="-0.86965">
        <ele>18.984217</ele>
        <time>2022-08-02T13:37:00.000Z</time>
      </trkpt>
      <trkpt lat="49.3671" lon="-0.86957">
        <ele>18.948023</ele>
        <time>2022-08-02T13:37:01.000Z</time>
      </trkpt>
      <trkpt lat="49.36707" lon="-0.8695">
        <ele>18.911017</ele>
        <time>2022-08-02T13:37:02.000Z</time>
      </trkpt>
      <trkpt lat="49.36705" lon="-0.86942">
        <ele>18.874457</ele>
        <time>2022-08-02T13:37:03.000Z</time>
      </trkpt>
      <trkpt lat="49.36702" lon="-0.86933">
        <ele>18.836692</ele>
        <time>2022-08-02T13:37:04.000Z</time>
      </trkpt>
      <trkpt lat="49.367" lon="-0.86925">
        <ele>18.797922</ele>
        <time>2022-08-02T13:37:05.000Z</time>
      </trkpt>
      <trkpt lat="49.36698" lon="-0.86916">
        <ele>18.761074</ele>
        <time>2022-08-02T13:37:06.000Z</time>
      </trkpt>
      <trkpt lat="49.36696" lon="-0.86907">
        <ele>18.729224</ele>
        <time>2022-08-02T13:37:07.000Z</time>
      </trkpt>
      <trkpt lat="49.36694" lon="-0.86898">
        <ele>18.696733</ele>
        <time>2022-08-02T13:37:08.000Z</time>
      </trkpt>
      <trkpt lat="49.36693" lon="-0.86889">
        <ele>18.664883</ele>
        <time>2022-08-02T13:37:09.000Z</time>
      </trkpt>
      <trkpt lat="49.3669" lon="-0.86879">
        <ele>18.630475</ele>
        <time>2022-08-02T13:37:10.000Z</time>
      </trkpt>
      <trkpt lat="49.36687" lon="-0.86871">
        <ele>18.597273</ele>
        <time>2022-08-02T13:37:11.000Z</time>
      </trkpt>
      <trkpt lat="49.36684" lon="-0.86862">
        <ele>18.564221</ele>
        <time>2022-08-02T13:37:12.000Z</time>
      </trkpt>
      <trkpt lat="49.36681" lon="-0.86854">
        <ele>18.532809</ele>
        <time>2022-08-02T13:37:13.000Z</time>
      </trkpt>
      <trkpt lat="49.36677" lon="-0.86846">
        <ele>18.500916</ele>
        <time>2022-08-02T13:37:14.000Z</time>
      </trkpt>
      <trkpt lat="49.36675" lon="-0.86837">
        <ele>18.469824</ele>
        <time>2022-08-02T13:37:15.000Z</time>
      </trkpt>
      <trkpt lat="49.36672" lon="-0.86829">
        <ele>18.438819</ele>
        <time>2022-08-02T13:37:16.000Z</time>
      </trkpt>
      <trkpt lat="49.36669" lon="-0.86821">
        <ele>18.407213</ele>
        <time>2022-08-02T13:37:17.000Z</time>
      </trkpt>
      <trkpt lat="49.36666" lon="-0.86813">
        <ele>18.376977</ele>
        <time>2022-08-02T13:37:18.000Z</time>
      </trkpt>
      <trkpt lat="49.36663" lon="-0.86805">
        <ele>18.344532</ele>
        <time>2022-08-02T13:37:19.000Z</time>
      </trkpt>
      <trkpt lat="49.3666" lon="-0.86797">
        <ele>18.314052</ele>
        <time>2022-08-02T13:37:20.000Z</time>
      </trkpt>
      <trkpt lat="49.36657" lon="-0.86789">
        <ele>18.282639</ele>
        <time>2022-08-02T13:37:21.000Z</time>
      </trkpt>
      <trkpt lat="49.36655" lon="-0.86781">
        <ele>18.252239</ele>
        <time>2022-08-02T13:37:22.000Z</time>
      </trkpt>
      <trkpt lat="49.36653" lon="-0.86773">
        <ele>18.223314</ele>
        <time>2022-08-02T13:37:23.000Z</time>
      </trkpt>
      <trkpt lat="49.3665" lon="-0.86765">
        <ele>18.192491</ele>
        <time>2022-08-02T13:37:24.000Z</time>
      </trkpt>
      <trkpt lat="49.36647" lon="-0.86757">
        <ele>18.162392</ele>
        <time>2022-08-02T13:37:25.000Z</time>
      </trkpt>
      <trkpt lat="49.36645" lon="-0.86749">
        <ele>18.132848</ele>
        <time>2022-08-02T13:37:26.000Z</time>
      </trkpt>
      <trkpt lat="49.36643" lon="-0.8674">
        <ele>18.102369</ele>
        <time>2022-08-02T13:37:27.000Z</time>
      </trkpt>
      <trkpt lat="49.3664" lon="-0.86732">
        <ele>18.072929</ele>
        <time>2022-08-02T13:37:28.000Z</time>
      </trkpt>
      <trkpt lat="49.36638" lon="-0.86724">
        <ele>18.043058</ele>
        <time>2022-08-02T13:37:29.000Z</time>
      </trkpt>
      <trkpt lat="49.36636" lon="-0.86716">
        <ele>18.013618</ele>
        <time>2022-08-02T13:37:30.000Z</time>
      </trkpt>
      <trkpt lat="49.36633" lon="-0.86709">
        <ele>17.984255</ele>
        <time>2022-08-02T13:37:31.000Z</time>
      </trkpt>
      <trkpt lat="49.3663" lon="-0.86701">
        <ele>17.956256</ele>
        <time>2022-08-02T13:37:32.000Z</time>
      </trkpt>
      <trkpt lat="49.36629" lon="-0.86693">
        <ele>17.927589</ele>
        <time>2022-08-02T13:37:33.000Z</time>
      </trkpt>
      <trkpt lat="49.36626" lon="-0.86685">
        <ele>17.897791</ele>
        <time>2022-08-02T13:37:34.000Z</time>
      </trkpt>
      <trkpt lat="49.36624" lon="-0.86678">
        <ele>17.869792</ele>
        <time>2022-08-02T13:37:35.000Z</time>
      </trkpt>
      <trkpt lat="49.36621" lon="-0.8667">
        <ele>17.841885</ele>
        <time>2022-08-02T13:37:36.000Z</time>
      </trkpt>
      <trkpt lat="49.36619" lon="-0.86663">
        <ele>17.86401</ele>
        <time>2022-08-02T13:37:37.000Z</time>
      </trkpt>
      <trkpt lat="49.36617" lon="-0.86655">
        <ele>17.901825</ele>
        <time>2022-08-02T13:37:38.000Z</time>
      </trkpt>
      <trkpt lat="49.36614" lon="-0.86647">
        <ele>17.940232</ele>
        <time>2022-08-02T13:37:39.000Z</time>
      </trkpt>
      <trkpt lat="49.36612" lon="-0.8664">
        <ele>17.977642</ele>
        <time>2022-08-02T13:37:40.000Z</time>
      </trkpt>
      <trkpt lat="49.3661" lon="-0.86632">
        <ele>18.015177</ele>
        <time>2022-08-02T13:37:41.000Z</time>
      </trkpt>
      <trkpt lat="49.36607" lon="-0.86624">
        <ele>18.054291</ele>
        <time>2022-08-02T13:37:42.000Z</time>
      </trkpt>
      <trkpt lat="49.36605" lon="-0.86616">
        <ele>18.091222</ele>
        <time>2022-08-02T13:37:43.000Z</time>
      </trkpt>
      <trkpt lat="49.36603" lon="-0.86609">
        <ele>18.129166</ele>
        <time>2022-08-02T13:37:44.000Z</time>
      </trkpt>
      <trkpt lat="49.36601" lon="-0.86601">
        <ele>18.165923</ele>
        <time>2022-08-02T13:37:45.000Z</time>
      </trkpt>
      <trkpt lat="49.36599" lon="-0.86593">
        <ele>18.203097</ele>
        <time>2022-08-02T13:37:46.000Z</time>
      </trkpt>
      <trkpt lat="49.36598" lon="-0.86585">
        <ele>18.239176</ele>
        <time>2022-08-02T13:37:47.000Z</time>
      </trkpt>
      <trkpt lat="49.36596" lon="-0.86578">
        <ele>18.275354</ele>
        <time>2022-08-02T13:37:48.000Z</time>
      </trkpt>
      <trkpt lat="49.36594" lon="-0.8657">
        <ele>18.311277</ele>
        <time>2022-08-02T13:37:49.000Z</time>
      </trkpt>
      <trkpt lat="49.36593" lon="-0.86563">
        <ele>18.34506</ele>
        <time>2022-08-02T13:37:50.000Z</time>
      </trkpt>
      <trkpt lat="49.36591" lon="-0.86556">
        <ele>18.380153</ele>
        <time>2022-08-02T13:37:51.000Z</time>
      </trkpt>
      <trkpt lat="49.36589" lon="-0.86548">
        <ele>18.415661</ele>
        <time>2022-08-02T13:37:52.000Z</time>
      </trkpt>
      <trkpt lat="49.36587" lon="-0.86541">
        <ele>18.450753</ele>
        <time>2022-08-02T13:37:53.000Z</time>
      </trkpt>
      <trkpt lat="49.36585" lon="-0.86534">
        <ele>18.484606</ele>
        <time>2022-08-02T13:37:54.000Z</time>
      </trkpt>
      <trkpt lat="49.36583" lon="-0.86527">
        <ele>18.518729</ele>
        <time>2022-08-02T13:37:55.000Z</time>
      </trkpt>
      <trkpt lat="49.36581" lon="-0.8652">
        <ele>18.552582</ele>
        <time>2022-08-02T13:37:56.000Z</time>
      </trkpt>
      <trkpt lat="49.3658" lon="-0.86513">
        <ele>18.584857</ele>
        <time>2022-08-02T13:37:57.000Z</time>
      </trkpt>
      <trkpt lat="49.36577" lon="-0.86506">
        <ele>18.619152</ele>
        <time>2022-08-02T13:37:58.000Z</time>
      </trkpt>
      <trkpt lat="49.36576" lon="-0.86499">
        <ele>18.652268</ele>
        <time>2022-08-02T13:37:59.000Z</time>
      </trkpt>
      <trkpt lat="49.36574" lon="-0.86492">
        <ele>18.685384</ele>
        <time>2022-08-02T13:38:00.000Z</time>
      </trkpt>
      <trkpt lat="49.36572" lon="-0.86485">
        <ele>18.719237</ele>
        <time>2022-08-02T13:38:01.000Z</time>
      </trkpt>
      <trkpt lat="49.3657" lon="-0.86479">
        <ele>18.750524</ele>
        <time>2022-08-02T13:38:02.000Z</time>
      </trkpt>
      <trkpt lat="49.36569" lon="-0.86473">
        <ele>18.780683</ele>
        <time>2022-08-02T13:38:03.000Z</time>
      </trkpt>
      <trkpt lat="49.36566" lon="-0.86466">
        <ele>18.814734</ele>
        <time>2022-08-02T13:38:04.000Z</time>
      </trkpt>
      <trkpt lat="49.36565" lon="-0.8646">
        <ele>18.84381</ele>
        <time>2022-08-02T13:38:05.000Z</time>
      </trkpt>
      <trkpt lat="49.36563" lon="-0.86453">
        <ele>18.875614</ele>
        <time>2022-08-02T13:38:06.000Z</time>
      </trkpt>
      <trkpt lat="49.36562" lon="-0.86447">
        <ele>18.907052</ele>
        <time>2022-08-02T13:38:07.000Z</time>
      </trkpt>
      <trkpt lat="49.3656" lon="-0.86441">
        <ele>18.936822</ele>
        <time>2022-08-02T13:38:08.000Z</time>
      </trkpt>
      <trkpt lat="49.36558" lon="-0.86434">
        <ele>18.966592</ele>
        <time>2022-08-02T13:38:09.000Z</time>
      </trkpt>
      <trkpt lat="49.36557" lon="-0.86428">
        <ele>18.995243</ele>
        <time>2022-08-02T13:38:10.000Z</time>
      </trkpt>
      <trkpt lat="49.36555" lon="-0.86422">
        <ele>19.025025</ele>
        <time>2022-08-02T13:38:11.000Z</time>
      </trkpt>
      <trkpt lat="49.36554" lon="-0.86416">
        <ele>19.053555</ele>
        <time>2022-08-02T13:38:12.000Z</time>
      </trkpt>
      <trkpt lat="49.36552" lon="-0.86411">
        <ele>19.154739</ele>
        <time>2022-08-02T13:38:13.000Z</time>
      </trkpt>
      <trkpt lat="49.3655" lon="-0.86405">
        <ele>19.318264</ele>
        <time>2022-08-02T13:38:14.000Z</time>
      </trkpt>
      <trkpt lat="49.36549" lon="-0.864">
        <ele>19.469546</ele>
        <time>2022-08-02T13:38:15.000Z</time>
      </trkpt>
      <trkpt lat="49.36548" lon="-0.86395">
        <ele>19.626245</ele>
        <time>2022-08-02T13:38:16.000Z</time>
      </trkpt>
      <trkpt lat="49.36547" lon="-0.8639">
        <ele>19.769389</ele>
        <time>2022-08-02T13:38:17.000Z</time>
      </trkpt>
      <trkpt lat="49.36545" lon="-0.86386">
        <ele>19.921719</ele>
        <time>2022-08-02T13:38:18.000Z</time>
      </trkpt>
      <trkpt lat="49.36544" lon="-0.86382">
        <ele>20.053804</ele>
        <time>2022-08-02T13:38:19.000Z</time>
      </trkpt>
      <trkpt lat="49.36542" lon="-0.86378">
        <ele>20.182333</ele>
        <time>2022-08-02T13:38:20.000Z</time>
      </trkpt>
      <trkpt lat="49.36542" lon="-0.86374">
        <ele>20.298923</ele>
        <time>2022-08-02T13:38:21.000Z</time>
      </trkpt>
      <trkpt lat="49.36541" lon="-0.8637">
        <ele>20.416569</ele>
        <time>2022-08-02T13:38:22.000Z</time>
      </trkpt>
      <trkpt lat="49.3654" lon="-0.86366">
        <ele>20.548653</ele>
        <time>2022-08-02T13:38:23.000Z</time>
      </trkpt>
      <trkpt lat="49.36539" lon="-0.86361">
        <ele>20.670786</ele>
        <time>2022-08-02T13:38:24.000Z</time>
      </trkpt>
      <trkpt lat="49.36538" lon="-0.86358">
        <ele>20.794583</ele>
        <time>2022-08-02T13:38:25.000Z</time>
      </trkpt>
      <trkpt lat="49.36536" lon="-0.86355">
        <ele>20.909174</ele>
        <time>2022-08-02T13:38:26.000Z</time>
      </trkpt>
      <trkpt lat="49.36534" lon="-0.86351">
        <ele>21.026032</ele>
        <time>2022-08-02T13:38:27.000Z</time>
      </trkpt>
      <trkpt lat="49.36533" lon="-0.86348">
        <ele>21.131997</ele>
        <time>2022-08-02T13:38:28.000Z</time>
      </trkpt>
      <trkpt lat="49.36531" lon="-0.86345">
        <ele>21.256626</ele>
        <time>2022-08-02T13:38:29.000Z</time>
      </trkpt>
      <trkpt lat="49.36529" lon="-0.86343">
        <ele>21.381018</ele>
        <time>2022-08-02T13:38:30.000Z</time>
      </trkpt>
      <trkpt lat="49.36526" lon="-0.86342">
        <ele>21.482846</ele>
        <time>2022-08-02T13:38:31.000Z</time>
      </trkpt>
      <trkpt lat="49.36524" lon="-0.86342">
        <ele>21.596388</ele>
        <time>2022-08-02T13:38:32.000Z</time>
      </trkpt>
      <trkpt lat="49.36521" lon="-0.86342">
        <ele>21.706017</ele>
        <time>2022-08-02T13:38:33.000Z</time>
      </trkpt>
      <trkpt lat="49.36518" lon="-0.86342">
        <ele>21.832534</ele>
        <time>2022-08-02T13:38:34.000Z</time>
      </trkpt>
      <trkpt lat="49.36516" lon="-0.86343">
        <ele>21.959528</ele>
        <time>2022-08-02T13:38:35.000Z</time>
      </trkpt>
      <trkpt lat="49.36513" lon="-0.86343">
        <ele>22.055859</ele>
        <time>2022-08-02T13:38:36.000Z</time>
      </trkpt>
      <trkpt lat="49.3651" lon="-0.86344">
        <ele>22.19953</ele>
        <time>2022-08-02T13:38:37.000Z</time>
      </trkpt>
      <trkpt lat="49.36508" lon="-0.86345">
        <ele>22.316433</ele>
        <time>2022-08-02T13:38:38.000Z</time>
      </trkpt>
      <trkpt lat="49.36505" lon="-0.86346">
        <ele>22.444061</ele>
        <time>2022-08-02T13:38:39.000Z</time>
      </trkpt>
      <trkpt lat="49.36502" lon="-0.86346">
        <ele>22.540685</ele>
        <time>2022-08-02T13:38:40.000Z</time>
      </trkpt>
      <trkpt lat="49.365" lon="-0.86346">
        <ele>22.654121</ele>
        <time>2022-08-02T13:38:41.000Z</time>
      </trkpt>
      <trkpt lat="49.36498" lon="-0.86347">
        <ele>22.750745</ele>
        <time>2022-08-02T13:38:42.000Z</time>
      </trkpt>
      <trkpt lat="49.36495" lon="-0.86347">
        <ele>22.846741</ele>
        <time>2022-08-02T13:38:43.000Z</time>
      </trkpt>
      <trkpt lat="49.36493" lon="-0.86347">
        <ele>22.960176</ele>
        <time>2022-08-02T13:38:44.000Z</time>
      </trkpt>
      <trkpt lat="49.36491" lon="-0.86346">
        <ele>23.058169</ele>
        <time>2022-08-02T13:38:45.000Z</time>
      </trkpt>
      <trkpt lat="49.36488" lon="-0.86345">
        <ele>23.160435</ele>
        <time>2022-08-02T13:38:46.000Z</time>
      </trkpt>
      <trkpt lat="49.36485" lon="-0.86344">
        <ele>23.294837</ele>
        <time>2022-08-02T13:38:48.000Z</time>
      </trkpt>
      <trkpt lat="49.36484" lon="-0.86342">
        <ele>23.3766</ele>
        <time>2022-08-02T13:38:49.000Z</time>
      </trkpt>
      <trkpt lat="49.36482" lon="-0.86341">
        <ele>23.458363</ele>
        <time>2022-08-02T13:38:50.000Z</time>
      </trkpt>
      <trkpt lat="49.3648" lon="-0.86338">
        <ele>23.571273</ele>
        <time>2022-08-02T13:38:52.000Z</time>
      </trkpt>
      <trkpt lat="49.3648" lon="-0.86335">
        <ele>23.665859</ele>
        <time>2022-08-02T13:38:54.000Z</time>
      </trkpt>
      <trkpt lat="49.36478" lon="-0.86331">
        <ele>23.792838</ele>
        <time>2022-08-02T13:38:56.000Z</time>
      </trkpt>
      <trkpt lat="49.36477" lon="-0.8633">
        <ele>23.871789</ele>
        <time>2022-08-02T13:38:57.000Z</time>
      </trkpt>
      <trkpt lat="49.36475" lon="-0.86329">
        <ele>23.95701</ele>
        <time>2022-08-02T13:38:58.000Z</time>
      </trkpt>
      <trkpt lat="49.36473" lon="-0.86329">
        <ele>24.057487</ele>
        <time>2022-08-02T13:38:59.000Z</time>
      </trkpt>
      <trkpt lat="49.3647" lon="-0.8633">
        <ele>24.159315</ele>
        <time>2022-08-02T13:39:00.000Z</time>
      </trkpt>
      <trkpt lat="49.36468" lon="-0.86332">
        <ele>24.262128</ele>
        <time>2022-08-02T13:39:01.000Z</time>
      </trkpt>
      <trkpt lat="49.36466" lon="-0.86333">
        <ele>24.371117</ele>
        <time>2022-08-02T13:39:02.000Z</time>
      </trkpt>
      <trkpt lat="49.36464" lon="-0.86335">
        <ele>24.478535</ele>
        <time>2022-08-02T13:39:03.000Z</time>
      </trkpt>
      <trkpt lat="49.36461" lon="-0.86336">
        <ele>24.612937</ele>
        <time>2022-08-02T13:39:04.000Z</time>
      </trkpt>
      <trkpt lat="49.36458" lon="-0.86338">
        <ele>24.738524</ele>
        <time>2022-08-02T13:39:05.000Z</time>
      </trkpt>
      <trkpt lat="49.36456" lon="-0.8634">
        <ele>24.861473</ele>
        <time>2022-08-02T13:39:06.000Z</time>
      </trkpt>
      <trkpt lat="49.36453" lon="-0.86343">
        <ele>25.003833</ele>
        <time>2022-08-02T13:39:07.000Z</time>
      </trkpt>
      <trkpt lat="49.3645" lon="-0.86345">
        <ele>25.133311</ele>
        <time>2022-08-02T13:39:08.000Z</time>
      </trkpt>
      <trkpt lat="49.36448" lon="-0.86347">
        <ele>25.256261</ele>
        <time>2022-08-02T13:39:09.000Z</time>
      </trkpt>
      <trkpt lat="49.36445" lon="-0.86349">
        <ele>25.4049</ele>
        <time>2022-08-02T13:39:10.000Z</time>
      </trkpt>
      <trkpt lat="49.36441" lon="-0.86351">
        <ele>25.555588</ele>
        <time>2022-08-02T13:39:11.000Z</time>
      </trkpt>
      <trkpt lat="49.36438" lon="-0.86353">
        <ele>25.697948</ele>
        <time>2022-08-02T13:39:12.000Z</time>
      </trkpt>
      <trkpt lat="49.36435" lon="-0.86355">
        <ele>25.854543</ele>
        <time>2022-08-02T13:39:13.000Z</time>
      </trkpt>
      <trkpt lat="49.36433" lon="-0.86358">
        <ele>25.991442</ele>
        <time>2022-08-02T13:39:14.000Z</time>
      </trkpt>
      <trkpt lat="49.36429" lon="-0.86361">
        <ele>26.157999</ele>
        <time>2022-08-02T13:39:15.000Z</time>
      </trkpt>
      <trkpt lat="49.36427" lon="-0.86364">
        <ele>26.292961</ele>
        <time>2022-08-02T13:39:16.000Z</time>
      </trkpt>
      <trkpt lat="49.36424" lon="-0.86367">
        <ele>26.44088</ele>
        <time>2022-08-02T13:39:17.000Z</time>
      </trkpt>
      <trkpt lat="49.36421" lon="-0.8637">
        <ele>26.601519</ele>
        <time>2022-08-02T13:39:18.000Z</time>
      </trkpt>
      <trkpt lat="49.36418" lon="-0.86373">
        <ele>26.754031</ele>
        <time>2022-08-02T13:39:19.000Z</time>
      </trkpt>
      <trkpt lat="49.36415" lon="-0.86376">
        <ele>26.909787</ele>
        <time>2022-08-02T13:39:20.000Z</time>
      </trkpt>
      <trkpt lat="49.36412" lon="-0.86379">
        <ele>27.213825</ele>
        <time>2022-08-02T13:39:21.000Z</time>
      </trkpt>
      <trkpt lat="49.36409" lon="-0.86382">
        <ele>27.554526</ele>
        <time>2022-08-02T13:39:22.000Z</time>
      </trkpt>
      <trkpt lat="49.36406" lon="-0.86384">
        <ele>27.830761</ele>
        <time>2022-08-02T13:39:23.000Z</time>
      </trkpt>
      <trkpt lat="49.36403" lon="-0.86387">
        <ele>28.16837</ele>
        <time>2022-08-02T13:39:24.000Z</time>
      </trkpt>
      <trkpt lat="49.364" lon="-0.8639">
        <ele>28.473757</ele>
        <time>2022-08-02T13:39:25.000Z</time>
      </trkpt>
      <trkpt lat="49.36397" lon="-0.86392">
        <ele>28.79191</ele>
        <time>2022-08-02T13:39:26.000Z</time>
      </trkpt>
      <trkpt lat="49.36394" lon="-0.86395">
        <ele>29.091383</ele>
        <time>2022-08-02T13:39:27.000Z</time>
      </trkpt>
      <trkpt lat="49.36391" lon="-0.86398">
        <ele>29.425974</ele>
        <time>2022-08-02T13:39:28.000Z</time>
      </trkpt>
      <trkpt lat="49.36388" lon="-0.86401">
        <ele>29.726857</ele>
        <time>2022-08-02T13:39:29.000Z</time>
      </trkpt>
      <trkpt lat="49.36385" lon="-0.86403">
        <ele>30.035325</ele>
        <time>2022-08-02T13:39:30.000Z</time>
      </trkpt>
      <trkpt lat="49.36383" lon="-0.86406">
        <ele>30.311561</ele>
        <time>2022-08-02T13:39:31.000Z</time>
      </trkpt>
      <trkpt lat="49.3638" lon="-0.86408">
        <ele>30.571025</ele>
        <time>2022-08-02T13:39:32.000Z</time>
      </trkpt>
      <trkpt lat="49.36377" lon="-0.8641">
        <ele>30.864935</ele>
        <time>2022-08-02T13:39:33.000Z</time>
      </trkpt>
      <trkpt lat="49.36375" lon="-0.86413">
        <ele>31.11868</ele>
        <time>2022-08-02T13:39:34.000Z</time>
      </trkpt>
      <trkpt lat="49.36373" lon="-0.86415">
        <ele>31.384172</ele>
        <time>2022-08-02T13:39:35.000Z</time>
      </trkpt>
      <trkpt lat="49.3637" lon="-0.86418">
        <ele>31.64135</ele>
        <time>2022-08-02T13:39:36.000Z</time>
      </trkpt>
      <trkpt lat="49.36368" lon="-0.86421">
        <ele>31.874462</ele>
        <time>2022-08-02T13:39:37.000Z</time>
      </trkpt>
      <trkpt lat="49.36365" lon="-0.86423">
        <ele>32.182931</ele>
        <time>2022-08-02T13:39:38.000Z</time>
      </trkpt>
      <trkpt lat="49.36363" lon="-0.86426">
        <ele>32.436534</ele>
        <time>2022-08-02T13:39:39.000Z</time>
      </trkpt>
      <trkpt lat="49.36361" lon="-0.86428">
        <ele>32.672943</ele>
        <time>2022-08-02T13:39:40.000Z</time>
      </trkpt>
      <trkpt lat="49.36359" lon="-0.8643">
        <ele>32.913897</ele>
        <time>2022-08-02T13:39:41.000Z</time>
      </trkpt>
      <trkpt lat="49.36357" lon="-0.86433">
        <ele>33.156906</ele>
        <time>2022-08-02T13:39:42.000Z</time>
      </trkpt>
      <trkpt lat="49.36355" lon="-0.86435">
        <ele>33.374767</ele>
        <time>2022-08-02T13:39:43.000Z</time>
      </trkpt>
      <trkpt lat="49.36352" lon="-0.86437">
        <ele>33.644961</ele>
        <time>2022-08-02T13:39:44.000Z</time>
      </trkpt>
      <trkpt lat="49.3635" lon="-0.8644">
        <ele>33.88137</ele>
        <time>2022-08-02T13:39:45.000Z</time>
      </trkpt>
      <trkpt lat="49.36348" lon="-0.86442">
        <ele>34.128524</ele>
        <time>2022-08-02T13:39:46.000Z</time>
      </trkpt>
      <trkpt lat="49.36346" lon="-0.86444">
        <ele>34.350064</ele>
        <time>2022-08-02T13:39:47.000Z</time>
      </trkpt>
      <trkpt lat="49.36343" lon="-0.86446">
        <ele>34.580282</ele>
        <time>2022-08-02T13:39:48.000Z</time>
      </trkpt>
      <trkpt lat="49.36341" lon="-0.86448">
        <ele>34.812738</ele>
        <time>2022-08-02T13:39:49.000Z</time>
      </trkpt>
      <trkpt lat="49.36339" lon="-0.8645">
        <ele>35.058941</ele>
        <time>2022-08-02T13:39:50.000Z</time>
      </trkpt>
      <trkpt lat="49.36336" lon="-0.86452">
        <ele>35.315757</ele>
        <time>2022-08-02T13:39:51.000Z</time>
      </trkpt>
      <trkpt lat="49.36334" lon="-0.86453">
        <ele>35.53753</ele>
        <time>2022-08-02T13:39:52.000Z</time>
      </trkpt>
      <trkpt lat="49.36331" lon="-0.86455">
        <ele>35.802064</ele>
        <time>2022-08-02T13:39:53.000Z</time>
      </trkpt>
      <trkpt lat="49.36329" lon="-0.86458">
        <ele>36.045073</ele>
        <time>2022-08-02T13:39:54.000Z</time>
      </trkpt>
      <trkpt lat="49.36327" lon="-0.8646">
        <ele>36.25999</ele>
        <time>2022-08-02T13:39:55.000Z</time>
      </trkpt>
      <trkpt lat="49.36324" lon="-0.86462">
        <ele>36.538065</ele>
        <time>2022-08-02T13:39:56.000Z</time>
      </trkpt>
      <trkpt lat="49.36323" lon="-0.86464">
        <ele>36.723843</ele>
        <time>2022-08-02T13:39:57.000Z</time>
      </trkpt>
      <trkpt lat="49.3632" lon="-0.86466">
        <ele>37.005505</ele>
        <time>2022-08-02T13:39:58.000Z</time>
      </trkpt>
      <trkpt lat="49.36317" lon="-0.86468">
        <ele>37.243517</ele>
        <time>2022-08-02T13:39:59.000Z</time>
      </trkpt>
      <trkpt lat="49.36315" lon="-0.8647">
        <ele>37.479926</ele>
        <time>2022-08-02T13:40:00.000Z</time>
      </trkpt>
      <trkpt lat="49.36313" lon="-0.86472">
        <ele>37.719586</ele>
        <time>2022-08-02T13:40:01.000Z</time>
      </trkpt>
      <trkpt lat="49.36311" lon="-0.86474">
        <ele>37.963591</ele>
        <time>2022-08-02T13:40:02.000Z</time>
      </trkpt>
      <trkpt lat="49.36308" lon="-0.86477">
        <ele>38.232238</ele>
        <time>2022-08-02T13:40:03.000Z</time>
      </trkpt>
      <trkpt lat="49.36305" lon="-0.86479">
        <ele>38.531713</ele>
        <time>2022-08-02T13:40:04.000Z</time>
      </trkpt>
      <trkpt lat="49.36303" lon="-0.86482">
        <ele>38.785459</ele>
        <time>2022-08-02T13:40:05.000Z</time>
      </trkpt>
      <trkpt lat="49.363" lon="-0.86484">
        <ele>39.0714</ele>
        <time>2022-08-02T13:40:06.000Z</time>
      </trkpt>
      <trkpt lat="49.36298" lon="-0.86486">
        <ele>39.341595</ele>
        <time>2022-08-02T13:40:07.000Z</time>
      </trkpt>
      <trkpt lat="49.36295" lon="-0.86489">
        <ele>39.60891</ele>
        <time>2022-08-02T13:40:08.000Z</time>
      </trkpt>
      <trkpt lat="49.36292" lon="-0.86491">
        <ele>39.894851</ele>
        <time>2022-08-02T13:40:09.000Z</time>
      </trkpt>
      <trkpt lat="49.3629" lon="-0.86493">
        <ele>40.16802</ele>
        <time>2022-08-02T13:40:10.000Z</time>
      </trkpt>
      <trkpt lat="49.36286" lon="-0.86496">
        <ele>40.491321</ele>
        <time>2022-08-02T13:40:11.000Z</time>
      </trkpt>
      <trkpt lat="49.36284" lon="-0.86498">
        <ele>40.761516</ele>
        <time>2022-08-02T13:40:12.000Z</time>
      </trkpt>
      <trkpt lat="49.36281" lon="-0.86501">
        <ele>41.03674</ele>
        <time>2022-08-02T13:40:13.000Z</time>
      </trkpt>
      <trkpt lat="49.36278" lon="-0.86503">
        <ele>41.336215</ele>
        <time>2022-08-02T13:40:14.000Z</time>
      </trkpt>
      <trkpt lat="49.36276" lon="-0.86506">
        <ele>41.612452</ele>
        <time>2022-08-02T13:40:15.000Z</time>
      </trkpt>
      <trkpt lat="49.36273" lon="-0.86508">
        <ele>41.8811</ele>
        <time>2022-08-02T13:40:16.000Z</time>
      </trkpt>
      <trkpt lat="49.36271" lon="-0.86511">
        <ele>42.13828</ele>
        <time>2022-08-02T13:40:17.000Z</time>
      </trkpt>
      <trkpt lat="49.36268" lon="-0.86513">
        <ele>42.429937</ele>
        <time>2022-08-02T13:40:18.000Z</time>
      </trkpt>
      <trkpt lat="49.36266" lon="-0.86516">
        <ele>42.703107</ele>
        <time>2022-08-02T13:40:19.000Z</time>
      </trkpt>
      <trkpt lat="49.36262" lon="-0.86518">
        <ele>43.02911</ele>
        <time>2022-08-02T13:40:20.000Z</time>
      </trkpt>
      <trkpt lat="49.3626" lon="-0.86521">
        <ele>43.296888</ele>
        <time>2022-08-02T13:40:21.000Z</time>
      </trkpt>
      <trkpt lat="49.36257" lon="-0.86524">
        <ele>43.546796</ele>
        <time>2022-08-02T13:40:22.000Z</time>
      </trkpt>
      <trkpt lat="49.36254" lon="-0.86527">
        <ele>43.84168</ele>
        <time>2022-08-02T13:40:23.000Z</time>
      </trkpt>
      <trkpt lat="49.36251" lon="-0.86529">
        <ele>44.112889</ele>
        <time>2022-08-02T13:40:24.000Z</time>
      </trkpt>
      <trkpt lat="49.36248" lon="-0.86532">
        <ele>44.381484</ele>
        <time>2022-08-02T13:40:25.000Z</time>
      </trkpt>
      <trkpt lat="49.36245" lon="-0.86534">
        <ele>44.65008</ele>
        <time>2022-08-02T13:40:26.000Z</time>
      </trkpt>
      <trkpt lat="49.36243" lon="-0.86537">
        <ele>44.87112</ele>
        <time>2022-08-02T13:40:27.000Z</time>
      </trkpt>
      <trkpt lat="49.36241" lon="-0.86539">
        <ele>45.116122</ele>
        <time>2022-08-02T13:40:28.000Z</time>
      </trkpt>
      <trkpt lat="49.36238" lon="-0.86542">
        <ele>45.351493</ele>
        <time>2022-08-02T13:40:29.000Z</time>
      </trkpt>
      <trkpt lat="49.36236" lon="-0.86544">
        <ele>45.579075</ele>
        <time>2022-08-02T13:40:30.000Z</time>
      </trkpt>
      <trkpt lat="49.36234" lon="-0.86546">
        <ele>45.794024</ele>
        <time>2022-08-02T13:40:31.000Z</time>
      </trkpt>
      <trkpt lat="49.36231" lon="-0.86549">
        <ele>46.015064</ele>
        <time>2022-08-02T13:40:32.000Z</time>
      </trkpt>
      <trkpt lat="49.36229" lon="-0.86552">
        <ele>46.288963</ele>
        <time>2022-08-02T13:40:33.000Z</time>
      </trkpt>
      <trkpt lat="49.36226" lon="-0.86554">
        <ele>46.526013</ele>
        <time>2022-08-02T13:40:34.000Z</time>
      </trkpt>
      <trkpt lat="49.36224" lon="-0.86557">
        <ele>46.779057</ele>
        <time>2022-08-02T13:40:35.000Z</time>
      </trkpt>
      <trkpt lat="49.36221" lon="-0.8656">
        <ele>47.07651</ele>
        <time>2022-08-02T13:40:36.000Z</time>
      </trkpt>
      <trkpt lat="49.36218" lon="-0.86563">
        <ele>47.350409</ele>
        <time>2022-08-02T13:40:37.000Z</time>
      </trkpt>
      <trkpt lat="49.36215" lon="-0.86565">
        <ele>47.621618</ele>
        <time>2022-08-02T13:40:38.000Z</time>
      </trkpt>
      <trkpt lat="49.36212" lon="-0.86568">
        <ele>47.901117</ele>
        <time>2022-08-02T13:40:39.000Z</time>
      </trkpt>
      <trkpt lat="49.36209" lon="-0.86571">
        <ele>48.193505</ele>
        <time>2022-08-02T13:40:40.000Z</time>
      </trkpt>
      <trkpt lat="49.36206" lon="-0.86573">
        <ele>48.452484</ele>
        <time>2022-08-02T13:40:41.000Z</time>
      </trkpt>
      <trkpt lat="49.36203" lon="-0.86576">
        <ele>48.72108</ele>
        <time>2022-08-02T13:40:42.000Z</time>
      </trkpt>
      <trkpt lat="49.362" lon="-0.86578">
        <ele>48.989676</ele>
        <time>2022-08-02T13:40:43.000Z</time>
      </trkpt>
      <trkpt lat="49.36197" lon="-0.86581">
        <ele>49.287129</ele>
        <time>2022-08-02T13:40:44.000Z</time>
      </trkpt>
      <trkpt lat="49.36194" lon="-0.86584">
        <ele>49.540623</ele>
        <time>2022-08-02T13:40:45.000Z</time>
      </trkpt>
      <trkpt lat="49.36191" lon="-0.86586">
        <ele>49.825972</ele>
        <time>2022-08-02T13:40:46.000Z</time>
      </trkpt>
      <trkpt lat="49.36189" lon="-0.86588">
        <ele>50.061343</ele>
        <time>2022-08-02T13:40:47.000Z</time>
      </trkpt>
      <trkpt lat="49.36186" lon="-0.86591">
        <ele>50.335243</ele>
        <time>2022-08-02T13:40:48.000Z</time>
      </trkpt>
      <trkpt lat="49.36182" lon="-0.86594">
        <ele>50.651577</ele>
        <time>2022-08-02T13:40:49.000Z</time>
      </trkpt>
      <trkpt lat="49.36179" lon="-0.86596">
        <ele>50.941542</ele>
        <time>2022-08-02T13:40:50.000Z</time>
      </trkpt>
      <trkpt lat="49.36176" lon="-0.86599">
        <ele>51.210138</ele>
        <time>2022-08-02T13:40:51.000Z</time>
      </trkpt>
      <trkpt lat="49.36173" lon="-0.86601">
        <ele>51.495487</ele>
        <time>2022-08-02T13:40:52.000Z</time>
      </trkpt>
      <trkpt lat="49.3617" lon="-0.86604">
        <ele>51.764084</ele>
        <time>2022-08-02T13:40:53.000Z</time>
      </trkpt>
      <trkpt lat="49.36167" lon="-0.86606">
        <ele>52.037984</ele>
        <time>2022-08-02T13:40:54.000Z</time>
      </trkpt>
      <trkpt lat="49.36164" lon="-0.86609">
        <ele>52.294441</ele>
        <time>2022-08-02T13:40:55.000Z</time>
      </trkpt>
      <trkpt lat="49.36161" lon="-0.86611">
        <ele>52.5776</ele>
        <time>2022-08-02T13:40:56.000Z</time>
      </trkpt>
      <trkpt lat="49.36158" lon="-0.86613">
        <ele>52.836547</ele>
        <time>2022-08-02T13:40:57.000Z</time>
      </trkpt>
      <trkpt lat="49.36155" lon="-0.86615">
        <ele>53.097781</ele>
        <time>2022-08-02T13:40:58.000Z</time>
      </trkpt>
      <trkpt lat="49.36152" lon="-0.86617">
        <ele>53.373013</ele>
        <time>2022-08-02T13:40:59.000Z</time>
      </trkpt>
      <trkpt lat="49.36149" lon="-0.86618">
        <ele>53.643224</ele>
        <time>2022-08-02T13:41:00.000Z</time>
      </trkpt>
      <trkpt lat="49.36146" lon="-0.8662">
        <ele>53.893919</ele>
        <time>2022-08-02T13:41:01.000Z</time>
      </trkpt>
      <trkpt lat="49.36143" lon="-0.86622">
        <ele>54.16413</ele>
        <time>2022-08-02T13:41:02.000Z</time>
      </trkpt>
      <trkpt lat="49.3614" lon="-0.86623">
        <ele>54.372771</ele>
        <time>2022-08-02T13:41:03.000Z</time>
      </trkpt>
      <trkpt lat="49.36137" lon="-0.86624">
        <ele>54.638803</ele>
        <time>2022-08-02T13:41:04.000Z</time>
      </trkpt>
      <trkpt lat="49.36134" lon="-0.86625">
        <ele>54.855269</ele>
        <time>2022-08-02T13:41:05.000Z</time>
      </trkpt>
      <trkpt lat="49.36131" lon="-0.86626">
        <ele>55.122598</ele>
        <time>2022-08-02T13:41:06.000Z</time>
      </trkpt>
      <trkpt lat="49.36128" lon="-0.86627">
        <ele>55.362638</ele>
        <time>2022-08-02T13:41:07.000Z</time>
      </trkpt>
      <trkpt lat="49.36125" lon="-0.86628">
        <ele>55.62867</ele>
        <time>2022-08-02T13:41:08.000Z</time>
      </trkpt>
      <trkpt lat="49.36123" lon="-0.86629">
        <ele>55.834911</ele>
        <time>2022-08-02T13:41:09.000Z</time>
      </trkpt>
      <trkpt lat="49.36119" lon="-0.8663">
        <ele>56.102239</ele>
        <time>2022-08-02T13:41:10.000Z</time>
      </trkpt>
      <trkpt lat="49.36117" lon="-0.86632">
        <ele>56.344802</ele>
        <time>2022-08-02T13:41:11.000Z</time>
      </trkpt>
      <trkpt lat="49.36114" lon="-0.86633">
        <ele>56.588787</ele>
        <time>2022-08-02T13:41:12.000Z</time>
      </trkpt>
      <trkpt lat="49.36111" lon="-0.86634">
        <ele>56.783192</ele>
        <time>2022-08-02T13:41:13.000Z</time>
      </trkpt>
      <trkpt lat="49.36109" lon="-0.86636">
        <ele>57.018048</ele>
        <time>2022-08-02T13:41:14.000Z</time>
      </trkpt>
      <trkpt lat="49.36107" lon="-0.86639">
        <ele>57.245506</ele>
        <time>2022-08-02T13:41:15.000Z</time>
      </trkpt>
      <trkpt lat="49.36105" lon="-0.86642">
        <ele>57.482609</ele>
        <time>2022-08-02T13:41:16.000Z</time>
      </trkpt>
      <trkpt lat="49.36103" lon="-0.86647">
        <ele>57.675332</ele>
        <time>2022-08-02T13:41:17.000Z</time>
      </trkpt>
      <trkpt lat="49.36103" lon="-0.86652">
        <ele>57.765955</ele>
        <time>2022-08-02T13:41:18.000Z</time>
      </trkpt>
      <trkpt lat="49.36103" lon="-0.86656">
        <ele>57.856579</ele>
        <time>2022-08-02T13:41:19.000Z</time>
      </trkpt>
      <trkpt lat="49.36104" lon="-0.86662">
        <ele>57.956371</ele>
        <time>2022-08-02T13:41:20.000Z</time>
      </trkpt>
      <trkpt lat="49.36105" lon="-0.86666">
        <ele>58.054069</ele>
        <time>2022-08-02T13:41:21.000Z</time>
      </trkpt>
      <trkpt lat="49.36106" lon="-0.86671">
        <ele>58.152453</ele>
        <time>2022-08-02T13:41:22.000Z</time>
      </trkpt>
      <trkpt lat="49.36107" lon="-0.86676">
        <ele>58.244895</ele>
        <time>2022-08-02T13:41:23.000Z</time>
      </trkpt>
      <trkpt lat="49.36108" lon="-0.8668">
        <ele>58.33399</ele>
        <time>2022-08-02T13:41:24.000Z</time>
      </trkpt>
      <trkpt lat="49.36109" lon="-0.86685">
        <ele>58.417085</ele>
        <time>2022-08-02T13:41:25.000Z</time>
      </trkpt>
      <trkpt lat="49.36111" lon="-0.86689">
        <ele>58.510157</ele>
        <time>2022-08-02T13:41:26.000Z</time>
      </trkpt>
      <trkpt lat="49.36112" lon="-0.86693">
        <ele>58.594199</ele>
        <time>2022-08-02T13:41:27.000Z</time>
      </trkpt>
      <trkpt lat="49.36113" lon="-0.86698">
        <ele>58.686716</ele>
        <time>2022-08-02T13:41:28.000Z</time>
      </trkpt>
      <trkpt lat="49.36114" lon="-0.86702">
        <ele>58.774634</ele>
        <time>2022-08-02T13:41:29.000Z</time>
      </trkpt>
      <trkpt lat="49.36116" lon="-0.86706">
        <ele>58.865437</ele>
        <time>2022-08-02T13:41:30.000Z</time>
      </trkpt>
      <trkpt lat="49.36117" lon="-0.8671">
        <ele>58.947716</ele>
        <time>2022-08-02T13:41:31.000Z</time>
      </trkpt>
      <trkpt lat="49.36117" lon="-0.86714">
        <ele>59.02725</ele>
        <time>2022-08-02T13:41:32.000Z</time>
      </trkpt>
      <trkpt lat="49.36118" lon="-0.86719">
        <ele>59.111292</ele>
        <time>2022-08-02T13:41:33.000Z</time>
      </trkpt>
      <trkpt lat="49.36119" lon="-0.86723">
        <ele>59.188434</ele>
        <time>2022-08-02T13:41:34.000Z</time>
      </trkpt>
      <trkpt lat="49.3612" lon="-0.86726">
        <ele>59.259314</ele>
        <time>2022-08-02T13:41:35.000Z</time>
      </trkpt>
      <trkpt lat="49.36122" lon="-0.86728">
        <ele>59.331517</ele>
        <time>2022-08-02T13:41:36.000Z</time>
      </trkpt>
      <trkpt lat="49.36124" lon="-0.8673">
        <ele>59.396593</ele>
        <time>2022-08-02T13:41:37.000Z</time>
      </trkpt>
      <trkpt lat="49.36126" lon="-0.86731">
        <ele>59.462799</ele>
        <time>2022-08-02T13:41:38.000Z</time>
      </trkpt>
      <trkpt lat="49.3613" lon="-0.86733">
        <ele>59.574189</ele>
        <time>2022-08-02T13:41:40.000Z</time>
      </trkpt>
      <trkpt lat="49.36131" lon="-0.86737">
        <ele>59.656525</ele>
        <time>2022-08-02T13:41:42.000Z</time>
      </trkpt>
      <trkpt lat="49.36129" lon="-0.86742">
        <ele>59.763781</ele>
        <time>2022-08-02T13:41:44.000Z</time>
      </trkpt>
      <trkpt lat="49.36128" lon="-0.86745">
        <ele>59.835609</ele>
        <time>2022-08-02T13:41:45.000Z</time>
      </trkpt>
      <trkpt lat="49.36127" lon="-0.8675">
        <ele>59.928532</ele>
        <time>2022-08-02T13:41:46.000Z</time>
      </trkpt>
      <trkpt lat="49.36128" lon="-0.86754">
        <ele>60.012574</ele>
        <time>2022-08-02T13:41:47.000Z</time>
      </trkpt>
      <trkpt lat="49.36129" lon="-0.86759">
        <ele>60.09522</ele>
        <time>2022-08-02T13:41:48.000Z</time>
      </trkpt>
      <trkpt lat="49.3613" lon="-0.86763">
        <ele>60.184314</ele>
        <time>2022-08-02T13:41:49.000Z</time>
      </trkpt>
      <trkpt lat="49.36131" lon="-0.86767">
        <ele>60.269437</ele>
        <time>2022-08-02T13:41:50.000Z</time>
      </trkpt>
      <trkpt lat="49.36131" lon="-0.86772">
        <ele>60.355761</ele>
        <time>2022-08-02T13:41:51.000Z</time>
      </trkpt>
      <trkpt lat="49.36132" lon="-0.86777">
        <ele>60.450126</ele>
        <time>2022-08-02T13:41:52.000Z</time>
      </trkpt>
      <trkpt lat="49.36132" lon="-0.86782">
        <ele>60.553491</ele>
        <time>2022-08-02T13:41:53.000Z</time>
      </trkpt>
      <trkpt lat="49.36131" lon="-0.86788">
        <ele>60.662836</ele>
        <time>2022-08-02T13:41:54.000Z</time>
      </trkpt>
      <trkpt lat="49.36131" lon="-0.86794">
        <ele>60.781551</ele>
        <time>2022-08-02T13:41:55.000Z</time>
      </trkpt>
      <trkpt lat="49.36131" lon="-0.86801">
        <ele>60.91339</ele>
        <time>2022-08-02T13:41:56.000Z</time>
      </trkpt>
      <trkpt lat="49.3613" lon="-0.86809">
        <ele>61.052939</ele>
        <time>2022-08-02T13:41:57.000Z</time>
      </trkpt>
      <trkpt lat="49.36129" lon="-0.86816">
        <ele>61.198082</ele>
        <time>2022-08-02T13:41:58.000Z</time>
      </trkpt>
      <trkpt lat="49.36128" lon="-0.86824">
        <ele>61.336753</ele>
        <time>2022-08-02T13:41:59.000Z</time>
      </trkpt>
      <trkpt lat="49.36127" lon="-0.86831">
        <ele>61.482611</ele>
        <time>2022-08-02T13:42:00.000Z</time>
      </trkpt>
      <trkpt lat="49.36126" lon="-0.86839">
        <ele>61.629632</ele>
        <time>2022-08-02T13:42:01.000Z</time>
      </trkpt>
      <trkpt lat="49.36124" lon="-0.86847">
        <ele>61.791432</ele>
        <time>2022-08-02T13:42:02.000Z</time>
      </trkpt>
      <trkpt lat="49.36123" lon="-0.86855">
        <ele>61.952306</ele>
        <time>2022-08-02T13:42:03.000Z</time>
      </trkpt>
      <trkpt lat="49.3612" lon="-0.86863">
        <ele>62.120097</ele>
        <time>2022-08-02T13:42:04.000Z</time>
      </trkpt>
      <trkpt lat="49.36117" lon="-0.86871">
        <ele>62.292164</ele>
        <time>2022-08-02T13:42:05.000Z</time>
      </trkpt>
      <trkpt lat="49.36115" lon="-0.86879">
        <ele>62.455543</ele>
        <time>2022-08-02T13:42:06.000Z</time>
      </trkpt>
      <trkpt lat="49.36112" lon="-0.86887">
        <ele>62.618546</ele>
        <time>2022-08-02T13:42:07.000Z</time>
      </trkpt>
      <trkpt lat="49.36109" lon="-0.86895">
        <ele>62.792258</ele>
        <time>2022-08-02T13:42:08.000Z</time>
      </trkpt>
      <trkpt lat="49.36107" lon="-0.86903">
        <ele>62.782332</ele>
        <time>2022-08-02T13:42:09.000Z</time>
      </trkpt>
      <trkpt lat="49.36103" lon="-0.86911">
        <ele>62.729854</ele>
        <time>2022-08-02T13:42:10.000Z</time>
      </trkpt>
      <trkpt lat="49.361" lon="-0.86919">
        <ele>62.678326</ele>
        <time>2022-08-02T13:42:11.000Z</time>
      </trkpt>
      <trkpt lat="49.36096" lon="-0.86927">
        <ele>62.623802</ele>
        <time>2022-08-02T13:42:12.000Z</time>
      </trkpt>
      <trkpt lat="49.36092" lon="-0.86934">
        <ele>62.566801</ele>
        <time>2022-08-02T13:42:13.000Z</time>
      </trkpt>
      <trkpt lat="49.36088" lon="-0.86942">
        <ele>62.514771</ele>
        <time>2022-08-02T13:42:14.000Z</time>
      </trkpt>
      <trkpt lat="49.36084" lon="-0.86949">
        <ele>62.45777</ele>
        <time>2022-08-02T13:42:15.000Z</time>
      </trkpt>
      <trkpt lat="49.3608" lon="-0.86957">
        <ele>62.405284</ele>
        <time>2022-08-02T13:42:16.000Z</time>
      </trkpt>
      <trkpt lat="49.36077" lon="-0.86965">
        <ele>62.350836</ele>
        <time>2022-08-02T13:42:17.000Z</time>
      </trkpt>
      <trkpt lat="49.36073" lon="-0.86973">
        <ele>62.295425</ele>
        <time>2022-08-02T13:42:18.000Z</time>
      </trkpt>
      <trkpt lat="49.36069" lon="-0.8698">
        <ele>62.240262</ele>
        <time>2022-08-02T13:42:19.000Z</time>
      </trkpt>
      <trkpt lat="49.36064" lon="-0.86988">
        <ele>62.182433</ele>
        <time>2022-08-02T13:42:20.000Z</time>
      </trkpt>
      <trkpt lat="49.36061" lon="-0.86996">
        <ele>62.129487</ele>
        <time>2022-08-02T13:42:21.000Z</time>
      </trkpt>
      <trkpt lat="49.36057" lon="-0.87004">
        <ele>62.075617</ele>
        <time>2022-08-02T13:42:22.000Z</time>
      </trkpt>
      <trkpt lat="49.36053" lon="-0.87012">
        <ele>62.018941</ele>
        <time>2022-08-02T13:42:23.000Z</time>
      </trkpt>
      <trkpt lat="49.36051" lon="-0.87021">
        <ele>61.964763</ele>
        <time>2022-08-02T13:42:24.000Z</time>
      </trkpt>
      <trkpt lat="49.36049" lon="-0.8703">
        <ele>61.910721</ele>
        <time>2022-08-02T13:42:25.000Z</time>
      </trkpt>
      <trkpt lat="49.36047" lon="-0.87039">
        <ele>61.85965</ele>
        <time>2022-08-02T13:42:26.000Z</time>
      </trkpt>
      <trkpt lat="49.36045" lon="-0.87048">
        <ele>61.807502</ele>
        <time>2022-08-02T13:42:27.000Z</time>
      </trkpt>
      <trkpt lat="49.36044" lon="-0.87057">
        <ele>61.756209</ele>
        <time>2022-08-02T13:42:28.000Z</time>
      </trkpt>
      <trkpt lat="49.36041" lon="-0.87065">
        <ele>61.705082</ele>
        <time>2022-08-02T13:42:29.000Z</time>
      </trkpt>
      <trkpt lat="49.36039" lon="-0.87073">
        <ele>61.656103</ele>
        <time>2022-08-02T13:42:30.000Z</time>
      </trkpt>
      <trkpt lat="49.36035" lon="-0.8708">
        <ele>61.606019</ele>
        <time>2022-08-02T13:42:31.000Z</time>
      </trkpt>
      <trkpt lat="49.3603" lon="-0.87085">
        <ele>61.55285</ele>
        <time>2022-08-02T13:42:32.000Z</time>
      </trkpt>
      <trkpt lat="49.36024" lon="-0.87089">
        <ele>61.500618</ele>
        <time>2022-08-02T13:42:33.000Z</time>
      </trkpt>
      <trkpt lat="49.36019" lon="-0.87092">
        <ele>61.453542</ele>
        <time>2022-08-02T13:42:34.000Z</time>
      </trkpt>
      <trkpt lat="49.36013" lon="-0.87095">
        <ele>61.401987</ele>
        <time>2022-08-02T13:42:35.000Z</time>
      </trkpt>
      <trkpt lat="49.36008" lon="-0.87097">
        <ele>61.352043</ele>
        <time>2022-08-02T13:42:36.000Z</time>
      </trkpt>
      <trkpt lat="49.36002" lon="-0.87099">
        <ele>61.303534</ele>
        <time>2022-08-02T13:42:37.000Z</time>
      </trkpt>
      <trkpt lat="49.35997" lon="-0.87102">
        <ele>61.310163</ele>
        <time>2022-08-02T13:42:38.000Z</time>
      </trkpt>
      <trkpt lat="49.35992" lon="-0.87106">
        <ele>61.366528</ele>
        <time>2022-08-02T13:42:39.000Z</time>
      </trkpt>
      <trkpt lat="49.35988" lon="-0.87112">
        <ele>61.417119</ele>
        <time>2022-08-02T13:42:40.000Z</time>
      </trkpt>
      <trkpt lat="49.35984" lon="-0.87118">
        <ele>61.470603</ele>
        <time>2022-08-02T13:42:41.000Z</time>
      </trkpt>
      <trkpt lat="49.35981" lon="-0.87124">
        <ele>61.521012</ele>
        <time>2022-08-02T13:42:42.000Z</time>
      </trkpt>
      <trkpt lat="49.35978" lon="-0.8713">
        <ele>61.57374</ele>
        <time>2022-08-02T13:42:43.000Z</time>
      </trkpt>
      <trkpt lat="49.35974" lon="-0.87137">
        <ele>61.625654</ele>
        <time>2022-08-02T13:42:44.000Z</time>
      </trkpt>
      <trkpt lat="49.35972" lon="-0.87144">
        <ele>61.675951</ele>
        <time>2022-08-02T13:42:45.000Z</time>
      </trkpt>
      <trkpt lat="49.35969" lon="-0.87151">
        <ele>61.730428</ele>
        <time>2022-08-02T13:42:46.000Z</time>
      </trkpt>
      <trkpt lat="49.35966" lon="-0.87158">
        <ele>61.781723</ele>
        <time>2022-08-02T13:42:47.000Z</time>
      </trkpt>
      <trkpt lat="49.35963" lon="-0.87164">
        <ele>61.833133</ele>
        <time>2022-08-02T13:42:48.000Z</time>
      </trkpt>
      <trkpt lat="49.3596" lon="-0.87171">
        <ele>61.883366</ele>
        <time>2022-08-02T13:42:49.000Z</time>
      </trkpt>
      <trkpt lat="49.35957" lon="-0.87178">
        <ele>61.93571</ele>
        <time>2022-08-02T13:42:50.000Z</time>
      </trkpt>
      <trkpt lat="49.35954" lon="-0.87185">
        <ele>61.987654</ele>
        <time>2022-08-02T13:42:51.000Z</time>
      </trkpt>
      <trkpt lat="49.35951" lon="-0.87192">
        <ele>62.038414</ele>
        <time>2022-08-02T13:42:52.000Z</time>
      </trkpt>
      <trkpt lat="49.35949" lon="-0.87199">
        <ele>62.090228</ele>
        <time>2022-08-02T13:42:53.000Z</time>
      </trkpt>
      <trkpt lat="49.35946" lon="-0.87206">
        <ele>62.141512</ele>
        <time>2022-08-02T13:42:54.000Z</time>
      </trkpt>
      <trkpt lat="49.35943" lon="-0.87212">
        <ele>62.19227</ele>
        <time>2022-08-02T13:42:55.000Z</time>
      </trkpt>
      <trkpt lat="49.3594" lon="-0.87219">
        <ele>62.239899</ele>
        <time>2022-08-02T13:42:56.000Z</time>
      </trkpt>
      <trkpt lat="49.35938" lon="-0.87225">
        <ele>62.288028</ele>
        <time>2022-08-02T13:42:57.000Z</time>
      </trkpt>
      <trkpt lat="49.35935" lon="-0.87232">
        <ele>62.334808</ele>
        <time>2022-08-02T13:42:58.000Z</time>
      </trkpt>
      <trkpt lat="49.35933" lon="-0.87239">
        <ele>62.385565</ele>
        <time>2022-08-02T13:42:59.000Z</time>
      </trkpt>
      <trkpt lat="49.3593" lon="-0.87245">
        <ele>62.433911</ele>
        <time>2022-08-02T13:43:00.000Z</time>
      </trkpt>
      <trkpt lat="49.35928" lon="-0.87252">
        <ele>62.480018</ele>
        <time>2022-08-02T13:43:01.000Z</time>
      </trkpt>
      <trkpt lat="49.35926" lon="-0.87259">
        <ele>62.526238</ele>
        <time>2022-08-02T13:43:02.000Z</time>
      </trkpt>
      <trkpt lat="49.35925" lon="-0.87265">
        <ele>62.568903</ele>
        <time>2022-08-02T13:43:03.000Z</time>
      </trkpt>
      <trkpt lat="49.35922" lon="-0.87271">
        <ele>62.615577</ele>
        <time>2022-08-02T13:43:04.000Z</time>
      </trkpt>
      <trkpt lat="49.35921" lon="-0.87278">
        <ele>62.660603</ele>
        <time>2022-08-02T13:43:05.000Z</time>
      </trkpt>
      <trkpt lat="49.35919" lon="-0.87285">
        <ele>62.704447</ele>
        <time>2022-08-02T13:43:06.000Z</time>
      </trkpt>
      <trkpt lat="49.35917" lon="-0.87291">
        <ele>62.747112</ele>
        <time>2022-08-02T13:43:07.000Z</time>
      </trkpt>
      <trkpt lat="49.35916" lon="-0.87297">
        <ele>62.789207</ele>
        <time>2022-08-02T13:43:08.000Z</time>
      </trkpt>
      <trkpt lat="49.35914" lon="-0.87303">
        <ele>62.831302</ele>
        <time>2022-08-02T13:43:09.000Z</time>
      </trkpt>
      <trkpt lat="49.35911" lon="-0.87309">
        <ele>62.876249</ele>
        <time>2022-08-02T13:43:10.000Z</time>
      </trkpt>
      <trkpt lat="49.3591" lon="-0.87315">
        <ele>62.914646</ele>
        <time>2022-08-02T13:43:11.000Z</time>
      </trkpt>
      <trkpt lat="49.35908" lon="-0.87321">
        <ele>62.958867</ele>
        <time>2022-08-02T13:43:12.000Z</time>
      </trkpt>
      <trkpt lat="49.35906" lon="-0.87328">
        <ele>63.003893</ele>
        <time>2022-08-02T13:43:13.000Z</time>
      </trkpt>
      <trkpt lat="49.35906" lon="-0.87335">
        <ele>63.012729</ele>
        <time>2022-08-02T13:43:14.000Z</time>
      </trkpt>
      <trkpt lat="49.35905" lon="-0.87341">
        <ele>62.992723</ele>
        <time>2022-08-02T13:43:15.000Z</time>
      </trkpt>
      <trkpt lat="49.35904" lon="-0.87348">
        <ele>62.972885</ele>
        <time>2022-08-02T13:43:16.000Z</time>
      </trkpt>
      <trkpt lat="49.35904" lon="-0.87355">
        <ele>62.953048</ele>
        <time>2022-08-02T13:43:17.000Z</time>
      </trkpt>
      <trkpt lat="49.35904" lon="-0.87362">
        <ele>62.931468</ele>
        <time>2022-08-02T13:43:18.000Z</time>
      </trkpt>
      <trkpt lat="49.35903" lon="-0.8737">
        <ele>62.909127</ele>
        <time>2022-08-02T13:43:19.000Z</time>
      </trkpt>
      <trkpt lat="49.35903" lon="-0.87378">
        <ele>62.886133</ele>
        <time>2022-08-02T13:43:20.000Z</time>
      </trkpt>
      <trkpt lat="49.35903" lon="-0.87385">
        <ele>62.864012</ele>
        <time>2022-08-02T13:43:21.000Z</time>
      </trkpt>
      <trkpt lat="49.35903" lon="-0.87393">
        <ele>62.841601</ele>
        <time>2022-08-02T13:43:22.000Z</time>
      </trkpt>
      <trkpt lat="49.35903" lon="-0.87401">
        <ele>62.819189</ele>
        <time>2022-08-02T13:43:23.000Z</time>
      </trkpt>
      <trkpt lat="49.35903" lon="-0.87408">
        <ele>62.797942</ele>
        <time>2022-08-02T13:43:24.000Z</time>
      </trkpt>
      <trkpt lat="49.35903" lon="-0.87415">
        <ele>62.77815</ele>
        <time>2022-08-02T13:43:25.000Z</time>
      </trkpt>
      <trkpt lat="49.35904" lon="-0.87421">
        <ele>62.758974</ele>
        <time>2022-08-02T13:43:26.000Z</time>
      </trkpt>
      <trkpt lat="49.35904" lon="-0.87428">
        <ele>62.740055</ele>
        <time>2022-08-02T13:43:27.000Z</time>
      </trkpt>
      <trkpt lat="49.35904" lon="-0.87434">
        <ele>62.721379</ele>
        <time>2022-08-02T13:43:28.000Z</time>
      </trkpt>
      <trkpt lat="49.35904" lon="-0.87441">
        <ele>62.701587</ele>
        <time>2022-08-02T13:43:29.000Z</time>
      </trkpt>
      <trkpt lat="49.35904" lon="-0.87448">
        <ele>62.68063</ele>
        <time>2022-08-02T13:43:30.000Z</time>
      </trkpt>
      <trkpt lat="49.35904" lon="-0.87456">
        <ele>62.657345</ele>
        <time>2022-08-02T13:43:31.000Z</time>
      </trkpt>
      <trkpt lat="49.35904" lon="-0.87465">
        <ele>62.633187</ele>
        <time>2022-08-02T13:43:32.000Z</time>
      </trkpt>
      <trkpt lat="49.35904" lon="-0.87474">
        <ele>62.606958</ele>
        <time>2022-08-02T13:43:33.000Z</time>
      </trkpt>
      <trkpt lat="49.35903" lon="-0.87483">
        <ele>62.580576</ele>
        <time>2022-08-02T13:43:34.000Z</time>
      </trkpt>
      <trkpt lat="49.35902" lon="-0.87492">
        <ele>62.554244</ele>
        <time>2022-08-02T13:43:35.000Z</time>
      </trkpt>
      <trkpt lat="49.35901" lon="-0.87501">
        <ele>62.526559</ele>
        <time>2022-08-02T13:43:36.000Z</time>
      </trkpt>
      <trkpt lat="49.359" lon="-0.8751">
        <ele>62.498617</ele>
        <time>2022-08-02T13:43:37.000Z</time>
      </trkpt>
      <trkpt lat="49.35899" lon="-0.87519">
        <ele>62.471744</ele>
        <time>2022-08-02T13:43:38.000Z</time>
      </trkpt>
      <trkpt lat="49.35897" lon="-0.87528">
        <ele>62.444616</ele>
        <time>2022-08-02T13:43:39.000Z</time>
      </trkpt>
      <trkpt lat="49.35894" lon="-0.87536">
        <ele>62.418534</ele>
        <time>2022-08-02T13:43:40.000Z</time>
      </trkpt>
      <trkpt lat="49.35891" lon="-0.87545">
        <ele>62.390711</ele>
        <time>2022-08-02T13:43:41.000Z</time>
      </trkpt>
      <trkpt lat="49.35889" lon="-0.87553">
        <ele>62.364166</ele>
        <time>2022-08-02T13:43:42.000Z</time>
      </trkpt>
      <trkpt lat="49.35886" lon="-0.87561">
        <ele>62.338077</ele>
        <time>2022-08-02T13:43:43.000Z</time>
      </trkpt>
      <trkpt lat="49.35883" lon="-0.87569">
        <ele>62.310918</ele>
        <time>2022-08-02T13:43:44.000Z</time>
      </trkpt>
      <trkpt lat="49.35881" lon="-0.87577">
        <ele>62.284111</ele>
        <time>2022-08-02T13:43:45.000Z</time>
      </trkpt>
      <trkpt lat="49.35878" lon="-0.87586">
        <ele>62.256966</ele>
        <time>2022-08-02T13:43:46.000Z</time>
      </trkpt>
      <trkpt lat="49.35876" lon="-0.87595">
        <ele>62.230258</ele>
        <time>2022-08-02T13:43:47.000Z</time>
      </trkpt>
      <trkpt lat="49.35874" lon="-0.87603">
        <ele>62.286622</ele>
        <time>2022-08-02T13:43:48.000Z</time>
      </trkpt>
      <trkpt lat="49.35872" lon="-0.87612">
        <ele>62.387703</ele>
        <time>2022-08-02T13:43:49.000Z</time>
      </trkpt>
      <trkpt lat="49.35871" lon="-0.87619">
        <ele>62.480207</ele>
        <time>2022-08-02T13:43:50.000Z</time>
      </trkpt>
      <trkpt lat="49.3587" lon="-0.87627">
        <ele>62.567828</ele>
        <time>2022-08-02T13:43:51.000Z</time>
      </trkpt>
      <trkpt lat="49.35869" lon="-0.87634">
        <ele>62.651459</ele>
        <time>2022-08-02T13:43:52.000Z</time>
      </trkpt>
      <trkpt lat="49.35868" lon="-0.8764">
        <ele>62.722616</ele>
        <time>2022-08-02T13:43:53.000Z</time>
      </trkpt>
      <trkpt lat="49.35867" lon="-0.87644">
        <ele>62.773416</ele>
        <time>2022-08-02T13:43:54.000Z</time>
      </trkpt>
      <trkpt lat="49.35866" lon="-0.87647">
        <ele>62.806805</ele>
        <time>2022-08-02T13:43:55.000Z</time>
      </trkpt>
      <trkpt lat="49.35864" lon="-0.87648">
        <ele>62.842236</ele>
        <time>2022-08-02T13:43:57.000Z</time>
      </trkpt>
      <trkpt lat="49.35862" lon="-0.87647">
        <ele>62.87624</ele>
        <time>2022-08-02T13:43:58.000Z</time>
      </trkpt>
      <trkpt lat="49.3586" lon="-0.87647">
        <ele>62.915472</ele>
        <time>2022-08-02T13:43:59.000Z</time>
      </trkpt>
      <trkpt lat="49.35857" lon="-0.87646">
        <ele>62.967902</ele>
        <time>2022-08-02T13:44:00.000Z</time>
      </trkpt>
      <trkpt lat="49.35854" lon="-0.87644">
        <ele>63.023521</ele>
        <time>2022-08-02T13:44:01.000Z</time>
      </trkpt>
      <trkpt lat="49.35851" lon="-0.87642">
        <ele>63.08491</ele>
        <time>2022-08-02T13:44:02.000Z</time>
      </trkpt>
      <trkpt lat="49.35848" lon="-0.8764">
        <ele>63.146759</ele>
        <time>2022-08-02T13:44:03.000Z</time>
      </trkpt>
      <trkpt lat="49.35845" lon="-0.87638">
        <ele>63.206877</ele>
        <time>2022-08-02T13:44:04.000Z</time>
      </trkpt>
      <trkpt lat="49.35842" lon="-0.87636">
        <ele>63.266609</ele>
        <time>2022-08-02T13:44:05.000Z</time>
      </trkpt>
      <trkpt lat="49.35839" lon="-0.87635">
        <ele>63.313385</ele>
        <time>2022-08-02T13:44:06.000Z</time>
      </trkpt>
      <trkpt lat="49.35837" lon="-0.87636">
        <ele>63.35762</ele>
        <time>2022-08-02T13:44:07.000Z</time>
      </trkpt>
      <trkpt lat="49.35834" lon="-0.87637">
        <ele>63.399787</ele>
        <time>2022-08-02T13:44:08.000Z</time>
      </trkpt>
      <trkpt lat="49.35832" lon="-0.87637">
        <ele>63.444615</ele>
        <time>2022-08-02T13:44:09.000Z</time>
      </trkpt>
      <trkpt lat="49.35828" lon="-0.87638">
        <ele>63.506739</ele>
        <time>2022-08-02T13:44:11.000Z</time>
      </trkpt>
      <trkpt lat="49.35826" lon="-0.87639">
        <ele>63.553754</ele>
        <time>2022-08-02T13:44:12.000Z</time>
      </trkpt>
      <trkpt lat="49.35823" lon="-0.8764">
        <ele>63.593636</ele>
        <time>2022-08-02T13:44:13.000Z</time>
      </trkpt>
      <trkpt lat="49.35821" lon="-0.8764">
        <ele>63.634355</ele>
        <time>2022-08-02T13:44:14.000Z</time>
      </trkpt>
      <trkpt lat="49.35819" lon="-0.87641">
        <ele>63.668822</ele>
        <time>2022-08-02T13:44:15.000Z</time>
      </trkpt>
      <trkpt lat="49.35817" lon="-0.87641">
        <ele>63.707783</ele>
        <time>2022-08-02T13:44:16.000Z</time>
      </trkpt>
      <trkpt lat="49.35815" lon="-0.87641">
        <ele>63.748421</ele>
        <time>2022-08-02T13:44:17.000Z</time>
      </trkpt>
      <trkpt lat="49.35812" lon="-0.87641">
        <ele>63.799693</ele>
        <time>2022-08-02T13:44:18.000Z</time>
      </trkpt>
      <trkpt lat="49.3581" lon="-0.87642">
        <ele>63.838924</ele>
        <time>2022-08-02T13:44:19.000Z</time>
      </trkpt>
      <trkpt lat="49.35807" lon="-0.87643">
        <ele>63.878557</ele>
        <time>2022-08-02T13:44:20.000Z</time>
      </trkpt>
      <trkpt lat="49.35805" lon="-0.87643">
        <ele>63.920157</ele>
        <time>2022-08-02T13:44:21.000Z</time>
      </trkpt>
      <trkpt lat="49.35803" lon="-0.87644">
        <ele>63.965453</ele>
        <time>2022-08-02T13:44:22.000Z</time>
      </trkpt>
      <trkpt lat="49.358" lon="-0.87645">
        <ele>64.007054</ele>
        <time>2022-08-02T13:44:23.000Z</time>
      </trkpt>
      <trkpt lat="49.35798" lon="-0.87646">
        <ele>64.052102</ele>
        <time>2022-08-02T13:44:24.000Z</time>
      </trkpt>
      <trkpt lat="49.35796" lon="-0.87647">
        <ele>64.094269</ele>
        <time>2022-08-02T13:44:25.000Z</time>
      </trkpt>
      <trkpt lat="49.35794" lon="-0.87648">
        <ele>64.128737</ele>
        <time>2022-08-02T13:44:26.000Z</time>
      </trkpt>
      <trkpt lat="49.35792" lon="-0.87648">
        <ele>64.162742</ele>
        <time>2022-08-02T13:44:27.000Z</time>
      </trkpt>
      <trkpt lat="49.35789" lon="-0.87649">
        <ele>64.204104</ele>
        <time>2022-08-02T13:44:28.000Z</time>
      </trkpt>
      <trkpt lat="49.35788" lon="-0.87649">
        <ele>64.238322</ele>
        <time>2022-08-02T13:44:29.000Z</time>
      </trkpt>
      <trkpt lat="49.35786" lon="-0.8765">
        <ele>64.272151</ele>
        <time>2022-08-02T13:44:30.000Z</time>
      </trkpt>
      <trkpt lat="49.35784" lon="-0.8765">
        <ele>64.306156</ele>
        <time>2022-08-02T13:44:31.000Z</time>
      </trkpt>
      <trkpt lat="49.35782" lon="-0.87651">
        <ele>64.339849</ele>
        <time>2022-08-02T13:44:32.000Z</time>
      </trkpt>
      <trkpt lat="49.3578" lon="-0.87651">
        <ele>64.381211</ele>
        <time>2022-08-02T13:44:33.000Z</time>
      </trkpt>
      <trkpt lat="49.35777" lon="-0.87652">
        <ele>64.420442</ele>
        <time>2022-08-02T13:44:34.000Z</time>
      </trkpt>
      <trkpt lat="49.35774" lon="-0.87652">
        <ele>64.476996</ele>
        <time>2022-08-02T13:44:35.000Z</time>
      </trkpt>
      <trkpt lat="49.35772" lon="-0.87653">
        <ele>64.517972</ele>
        <time>2022-08-02T13:44:36.000Z</time>
      </trkpt>
      <trkpt lat="49.35769" lon="-0.87653">
        <ele>64.562073</ele>
        <time>2022-08-02T13:44:37.000Z</time>
      </trkpt>
      <trkpt lat="49.35767" lon="-0.87653">
        <ele>64.60305</ele>
        <time>2022-08-02T13:44:38.000Z</time>
      </trkpt>
      <trkpt lat="49.35764" lon="-0.87655">
        <ele>64.655362</ele>
        <time>2022-08-02T13:44:39.000Z</time>
      </trkpt>
      <trkpt lat="49.35762" lon="-0.87656">
        <ele>64.69753</ele>
        <time>2022-08-02T13:44:40.000Z</time>
      </trkpt>
      <trkpt lat="49.3576" lon="-0.87656">
        <ele>64.736491</ele>
        <time>2022-08-02T13:44:41.000Z</time>
      </trkpt>
      <trkpt lat="49.35757" lon="-0.87656">
        <ele>64.777128</ele>
        <time>2022-08-02T13:44:42.000Z</time>
      </trkpt>
      <trkpt lat="49.35755" lon="-0.87657">
        <ele>64.816761</ele>
        <time>2022-08-02T13:44:43.000Z</time>
      </trkpt>
      <trkpt lat="49.35753" lon="-0.87658">
        <ele>64.856643</ele>
        <time>2022-08-02T13:44:44.000Z</time>
      </trkpt>
      <trkpt lat="49.35751" lon="-0.87658">
        <ele>64.898005</ele>
        <time>2022-08-02T13:44:45.000Z</time>
      </trkpt>
      <trkpt lat="49.35748" lon="-0.87659">
        <ele>64.942239</ele>
        <time>2022-08-02T13:44:46.000Z</time>
      </trkpt>
      <trkpt lat="49.35746" lon="-0.87659">
        <ele>64.988462</ele>
        <time>2022-08-02T13:44:47.000Z</time>
      </trkpt>
      <trkpt lat="49.35743" lon="-0.87659">
        <ele>65.027338</ele>
        <time>2022-08-02T13:44:48.000Z</time>
      </trkpt>
      <trkpt lat="49.35741" lon="-0.8766">
        <ele>65.073332</ele>
        <time>2022-08-02T13:44:49.000Z</time>
      </trkpt>
      <trkpt lat="49.35739" lon="-0.8766">
        <ele>65.108086</ele>
        <time>2022-08-02T13:44:50.000Z</time>
      </trkpt>
      <trkpt lat="49.35736" lon="-0.87661">
        <ele>65.15465</ele>
        <time>2022-08-02T13:44:51.000Z</time>
      </trkpt>
      <trkpt lat="49.35734" lon="-0.87662">
        <ele>65.194532</ele>
        <time>2022-08-02T13:44:52.000Z</time>
      </trkpt>
      <trkpt lat="49.35732" lon="-0.87663">
        <ele>65.235893</ele>
        <time>2022-08-02T13:44:53.000Z</time>
      </trkpt>
      <trkpt lat="49.3573" lon="-0.87663">
        <ele>65.275775</ele>
        <time>2022-08-02T13:44:54.000Z</time>
      </trkpt>
      <trkpt lat="49.35728" lon="-0.87664">
        <ele>65.310243</ele>
        <time>2022-08-02T13:44:55.000Z</time>
      </trkpt>
      <trkpt lat="49.35726" lon="-0.87665">
        <ele>65.346484</ele>
        <time>2022-08-02T13:44:57.000Z</time>
      </trkpt>
      <trkpt lat="49.35718" lon="-0.87668">
        <ele>65.468283</ele>
        <time>2022-08-02T13:45:08.000Z</time>
      </trkpt>
      <trkpt lat="49.35716" lon="-0.87669">
        <ele>65.505942</ele>
        <time>2022-08-02T13:45:09.000Z</time>
      </trkpt>
      <trkpt lat="49.35713" lon="-0.8767">
        <ele>65.5428</ele>
        <time>2022-08-02T13:45:10.000Z</time>
      </trkpt>
      <trkpt lat="49.3571" lon="-0.8767">
        <ele>65.58869</ele>
        <time>2022-08-02T13:45:11.000Z</time>
      </trkpt>
      <trkpt lat="49.35707" lon="-0.8767">
        <ele>65.625796</ele>
        <time>2022-08-02T13:45:12.000Z</time>
      </trkpt>
      <trkpt lat="49.35704" lon="-0.87671">
        <ele>65.671601</ele>
        <time>2022-08-02T13:45:13.000Z</time>
      </trkpt>
      <trkpt lat="49.35701" lon="-0.87672">
        <ele>65.713637</ele>
        <time>2022-08-02T13:45:14.000Z</time>
      </trkpt>
      <trkpt lat="49.35698" lon="-0.87672">
        <ele>65.755519</ele>
        <time>2022-08-02T13:45:15.000Z</time>
      </trkpt>
      <trkpt lat="49.35696" lon="-0.87673">
        <ele>65.792377</ele>
        <time>2022-08-02T13:45:16.000Z</time>
      </trkpt>
      <trkpt lat="49.35693" lon="-0.87674">
        <ele>65.838967</ele>
        <time>2022-08-02T13:45:17.000Z</time>
      </trkpt>
      <trkpt lat="49.3569" lon="-0.87675">
        <ele>65.876351</ele>
        <time>2022-08-02T13:45:18.000Z</time>
      </trkpt>
      <trkpt lat="49.35687" lon="-0.87675">
        <ele>65.922014</ele>
        <time>2022-08-02T13:45:19.000Z</time>
      </trkpt>
      <trkpt lat="49.35684" lon="-0.87676">
        <ele>65.958649</ele>
        <time>2022-08-02T13:45:20.000Z</time>
      </trkpt>
      <trkpt lat="49.35681" lon="-0.87677">
        <ele>66.000685</ele>
        <time>2022-08-02T13:45:21.000Z</time>
      </trkpt>
      <trkpt lat="49.35678" lon="-0.87678">
        <ele>66.043536</ele>
        <time>2022-08-02T13:45:22.000Z</time>
      </trkpt>
      <trkpt lat="49.35676" lon="-0.87679">
        <ele>66.082547</ele>
        <time>2022-08-02T13:45:23.000Z</time>
      </trkpt>
      <trkpt lat="49.35674" lon="-0.8768">
        <ele>66.116179</ele>
        <time>2022-08-02T13:45:24.000Z</time>
      </trkpt>
      <trkpt lat="49.35671" lon="-0.87681">
        <ele>66.147908</ele>
        <time>2022-08-02T13:45:25.000Z</time>
      </trkpt>
      <trkpt lat="49.35669" lon="-0.8768">
        <ele>66.176981</ele>
        <time>2022-08-02T13:45:26.000Z</time>
      </trkpt>
      <trkpt lat="49.35668" lon="-0.87678">
        <ele>66.207625</ele>
        <time>2022-08-02T13:45:27.000Z</time>
      </trkpt>
      <trkpt lat="49.35667" lon="-0.87675">
        <ele>66.24087</ele>
        <time>2022-08-02T13:45:28.000Z</time>
      </trkpt>
      <trkpt lat="49.35666" lon="-0.87671">
        <ele>66.276674</ele>
        <time>2022-08-02T13:45:29.000Z</time>
      </trkpt>
      <trkpt lat="49.35665" lon="-0.87668">
        <ele>66.311642</ele>
        <time>2022-08-02T13:45:30.000Z</time>
      </trkpt>
      <trkpt lat="49.35664" lon="-0.87664">
        <ele>66.350708</ele>
        <time>2022-08-02T13:45:31.000Z</time>
      </trkpt>
      <trkpt lat="49.35663" lon="-0.8766">
        <ele>66.38434</ele>
        <time>2022-08-02T13:45:32.000Z</time>
      </trkpt>
      <trkpt lat="49.35662" lon="-0.87657">
        <ele>66.420709</ele>
        <time>2022-08-02T13:45:33.000Z</time>
      </trkpt>
      <trkpt lat="49.35662" lon="-0.87653">
        <ele>66.453514</ele>
        <time>2022-08-02T13:45:34.000Z</time>
      </trkpt>
      <trkpt lat="49.35661" lon="-0.8765">
        <ele>66.486998</ele>
        <time>2022-08-02T13:45:35.000Z</time>
      </trkpt>
      <trkpt lat="49.3566" lon="-0.87648">
        <ele>66.513508</ele>
        <time>2022-08-02T13:45:36.000Z</time>
      </trkpt>
      <trkpt lat="49.35659" lon="-0.87643">
        <ele>66.560959</ele>
        <time>2022-08-02T13:45:38.000Z</time>
      </trkpt>
      <trkpt lat="49.35658" lon="-0.87627">
        <ele>66.710325</ele>
        <time>2022-08-02T13:45:53.000Z</time>
      </trkpt>
      <trkpt lat="49.35657" lon="-0.87622">
        <ele>66.756741</ele>
        <time>2022-08-02T13:45:54.000Z</time>
      </trkpt>
      <trkpt lat="49.35656" lon="-0.87618">
        <ele>66.800925</ele>
        <time>2022-08-02T13:45:55.000Z</time>
      </trkpt>
      <trkpt lat="49.35655" lon="-0.87613">
        <ele>66.850954</ele>
        <time>2022-08-02T13:45:56.000Z</time>
      </trkpt>
      <trkpt lat="49.35653" lon="-0.87608">
        <ele>66.899261</ele>
        <time>2022-08-02T13:45:57.000Z</time>
      </trkpt>
      <trkpt lat="49.35652" lon="-0.87602">
        <ele>66.955237</ele>
        <time>2022-08-02T13:45:58.000Z</time>
      </trkpt>
      <trkpt lat="49.3565" lon="-0.87597">
        <ele>67.014739</ele>
        <time>2022-08-02T13:45:59.000Z</time>
      </trkpt>
      <trkpt lat="49.35648" lon="-0.87591">
        <ele>67.076309</ele>
        <time>2022-08-02T13:46:00.000Z</time>
      </trkpt>
      <trkpt lat="49.35645" lon="-0.87586">
        <ele>67.13922</ele>
        <time>2022-08-02T13:46:01.000Z</time>
      </trkpt>
      <trkpt lat="49.35642" lon="-0.8758">
        <ele>67.202372</ele>
        <time>2022-08-02T13:46:02.000Z</time>
      </trkpt>
      <trkpt lat="49.3564" lon="-0.87574">
        <ele>67.265548</ele>
        <time>2022-08-02T13:46:03.000Z</time>
      </trkpt>
      <trkpt lat="49.35637" lon="-0.87568">
        <ele>67.337611</ele>
        <time>2022-08-02T13:46:04.000Z</time>
      </trkpt>
      <trkpt lat="49.35634" lon="-0.87562">
        <ele>67.40779</ele>
        <time>2022-08-02T13:46:05.000Z</time>
      </trkpt>
      <trkpt lat="49.3563" lon="-0.87556">
        <ele>67.486902</ele>
        <time>2022-08-02T13:46:06.000Z</time>
      </trkpt>
      <trkpt lat="49.35627" lon="-0.8755">
        <ele>67.563144</ele>
        <time>2022-08-02T13:46:07.000Z</time>
      </trkpt>
      <trkpt lat="49.35623" lon="-0.87544">
        <ele>67.639638</ele>
        <time>2022-08-02T13:46:08.000Z</time>
      </trkpt>
      <trkpt lat="49.3562" lon="-0.87538">
        <ele>67.711701</ele>
        <time>2022-08-02T13:46:09.000Z</time>
      </trkpt>
      <trkpt lat="49.35616" lon="-0.87532">
        <ele>67.784496</ele>
        <time>2022-08-02T13:46:10.000Z</time>
      </trkpt>
      <trkpt lat="49.35613" lon="-0.87527">
        <ele>67.851652</ele>
        <time>2022-08-02T13:46:11.000Z</time>
      </trkpt>
      <trkpt lat="49.3561" lon="-0.87521">
        <ele>67.91741</ele>
        <time>2022-08-02T13:46:12.000Z</time>
      </trkpt>
      <trkpt lat="49.35607" lon="-0.87516">
        <ele>67.988762</ele>
        <time>2022-08-02T13:46:13.000Z</time>
      </trkpt>
      <trkpt lat="49.35604" lon="-0.8751">
        <ele>68.064509</ele>
        <time>2022-08-02T13:46:14.000Z</time>
      </trkpt>
      <trkpt lat="49.35601" lon="-0.87505">
        <ele>68.135778</ele>
        <time>2022-08-02T13:46:15.000Z</time>
      </trkpt>
      <trkpt lat="49.35597" lon="-0.87501">
        <ele>68.20843</ele>
        <time>2022-08-02T13:46:16.000Z</time>
      </trkpt>
      <trkpt lat="49.35594" lon="-0.87496">
        <ele>68.27345</ele>
        <time>2022-08-02T13:46:17.000Z</time>
      </trkpt>
      <trkpt lat="49.35591" lon="-0.87492">
        <ele>68.341189</ele>
        <time>2022-08-02T13:46:18.000Z</time>
      </trkpt>
      <trkpt lat="49.35589" lon="-0.87488">
        <ele>68.398874</ele>
        <time>2022-08-02T13:46:19.000Z</time>
      </trkpt>
      <trkpt lat="49.35586" lon="-0.87484">
        <ele>68.452911</ele>
        <time>2022-08-02T13:46:20.000Z</time>
      </trkpt>
      <trkpt lat="49.35583" lon="-0.8748">
        <ele>68.509848</ele>
        <time>2022-08-02T13:46:21.000Z</time>
      </trkpt>
      <trkpt lat="49.35581" lon="-0.87477">
        <ele>68.556146</ele>
        <time>2022-08-02T13:46:22.000Z</time>
      </trkpt>
      <trkpt lat="49.35579" lon="-0.87475">
        <ele>68.603194</ele>
        <time>2022-08-02T13:46:23.000Z</time>
      </trkpt>
      <trkpt lat="49.35576" lon="-0.87473">
        <ele>68.649052</ele>
        <time>2022-08-02T13:46:24.000Z</time>
      </trkpt>
      <trkpt lat="49.35573" lon="-0.8747">
        <ele>68.700523</ele>
        <time>2022-08-02T13:46:25.000Z</time>
      </trkpt>
      <trkpt lat="49.35571" lon="-0.87467">
        <ele>68.748312</ele>
        <time>2022-08-02T13:46:26.000Z</time>
      </trkpt>
      <trkpt lat="49.35569" lon="-0.87464">
        <ele>68.801508</ele>
        <time>2022-08-02T13:46:27.000Z</time>
      </trkpt>
      <trkpt lat="49.35565" lon="-0.87461">
        <ele>68.865745</ele>
        <time>2022-08-02T13:46:28.000Z</time>
      </trkpt>
      <trkpt lat="49.35562" lon="-0.87458">
        <ele>68.916753</ele>
        <time>2022-08-02T13:46:29.000Z</time>
      </trkpt>
      <trkpt lat="49.35559" lon="-0.87457">
        <ele>68.974958</ele>
        <time>2022-08-02T13:46:30.000Z</time>
      </trkpt>
      <trkpt lat="49.35556" lon="-0.87456">
        <ele>69.026454</ele>
        <time>2022-08-02T13:46:31.000Z</time>
      </trkpt>
      <trkpt lat="49.35553" lon="-0.87455">
        <ele>69.07223</ele>
        <time>2022-08-02T13:46:32.000Z</time>
      </trkpt>
      <trkpt lat="49.3555" lon="-0.87456">
        <ele>69.111985</ele>
        <time>2022-08-02T13:46:33.000Z</time>
      </trkpt>
      <trkpt lat="49.35547" lon="-0.87457">
        <ele>69.16348</ele>
        <time>2022-08-02T13:46:34.000Z</time>
      </trkpt>
      <trkpt lat="49.35544" lon="-0.87458">
        <ele>69.21624</ele>
        <time>2022-08-02T13:46:35.000Z</time>
      </trkpt>
      <trkpt lat="49.35541" lon="-0.8746">
        <ele>69.261647</ele>
        <time>2022-08-02T13:46:36.000Z</time>
      </trkpt>
      <trkpt lat="49.35539" lon="-0.87461">
        <ele>69.302656</ele>
        <time>2022-08-02T13:46:37.000Z</time>
      </trkpt>
      <trkpt lat="49.35535" lon="-0.87462">
        <ele>69.353957</ele>
        <time>2022-08-02T13:46:38.000Z</time>
      </trkpt>
      <trkpt lat="49.35533" lon="-0.87463">
        <ele>69.391944</ele>
        <time>2022-08-02T13:46:39.000Z</time>
      </trkpt>
      <trkpt lat="49.35531" lon="-0.87465">
        <ele>69.433248</ele>
        <time>2022-08-02T13:46:40.000Z</time>
      </trkpt>
      <trkpt lat="49.35528" lon="-0.87465">
        <ele>69.470436</ele>
        <time>2022-08-02T13:46:41.000Z</time>
      </trkpt>
      <trkpt lat="49.35525" lon="-0.87466">
        <ele>69.516728</ele>
        <time>2022-08-02T13:46:42.000Z</time>
      </trkpt>
      <trkpt lat="49.35523" lon="-0.87467">
        <ele>69.562059</ele>
        <time>2022-08-02T13:46:43.000Z</time>
      </trkpt>
      <trkpt lat="49.35519" lon="-0.87468">
        <ele>69.61303</ele>
        <time>2022-08-02T13:46:44.000Z</time>
      </trkpt>
      <trkpt lat="49.35517" lon="-0.87469">
        <ele>69.659899</ele>
        <time>2022-08-02T13:46:45.000Z</time>
      </trkpt>
      <trkpt lat="49.35514" lon="-0.87469">
        <ele>69.706042</ele>
        <time>2022-08-02T13:46:46.000Z</time>
      </trkpt>
      <trkpt lat="49.35511" lon="-0.8747">
        <ele>69.752911</ele>
        <time>2022-08-02T13:46:47.000Z</time>
      </trkpt>
      <trkpt lat="49.35507" lon="-0.87472">
        <ele>69.809462</ele>
        <time>2022-08-02T13:46:48.000Z</time>
      </trkpt>
      <trkpt lat="49.35504" lon="-0.87473">
        <ele>69.8656</ele>
        <time>2022-08-02T13:46:49.000Z</time>
      </trkpt>
      <trkpt lat="49.35501" lon="-0.87474">
        <ele>69.917798</ele>
        <time>2022-08-02T13:46:50.000Z</time>
      </trkpt>
      <trkpt lat="49.35497" lon="-0.87475">
        <ele>69.973937</ele>
        <time>2022-08-02T13:46:51.000Z</time>
      </trkpt>
      <trkpt lat="49.35493" lon="-0.87476">
        <ele>70.031626</ele>
        <time>2022-08-02T13:46:52.000Z</time>
      </trkpt>
      <trkpt lat="49.3549" lon="-0.87477">
        <ele>70.087586</ele>
        <time>2022-08-02T13:46:53.000Z</time>
      </trkpt>
      <trkpt lat="49.35487" lon="-0.87477">
        <ele>70.133729</ele>
        <time>2022-08-02T13:46:54.000Z</time>
      </trkpt>
      <trkpt lat="49.35483" lon="-0.87478">
        <ele>70.194081</ele>
        <time>2022-08-02T13:46:55.000Z</time>
      </trkpt>
      <trkpt lat="49.3548" lon="-0.87479">
        <ele>70.249739</ele>
        <time>2022-08-02T13:46:56.000Z</time>
      </trkpt>
      <trkpt lat="49.35476" lon="-0.87479">
        <ele>70.305273</ele>
        <time>2022-08-02T13:46:57.000Z</time>
      </trkpt>
      <trkpt lat="49.35473" lon="-0.8748">
        <ele>70.356243</ele>
        <time>2022-08-02T13:46:58.000Z</time>
      </trkpt>
      <trkpt lat="49.35469" lon="-0.87481">
        <ele>70.413243</ele>
        <time>2022-08-02T13:46:59.000Z</time>
      </trkpt>
      <trkpt lat="49.35466" lon="-0.87482">
        <ele>70.469381</ele>
        <time>2022-08-02T13:47:00.000Z</time>
      </trkpt>
      <trkpt lat="49.35463" lon="-0.87482">
        <ele>70.515673</ele>
        <time>2022-08-02T13:47:01.000Z</time>
      </trkpt>
      <trkpt lat="49.3546" lon="-0.87483">
        <ele>70.566227</ele>
        <time>2022-08-02T13:47:02.000Z</time>
      </trkpt>
      <trkpt lat="49.35457" lon="-0.87483">
        <ele>70.610428</ele>
        <time>2022-08-02T13:47:03.000Z</time>
      </trkpt>
      <trkpt lat="49.35454" lon="-0.87483">
        <ele>70.656262</ele>
        <time>2022-08-02T13:47:04.000Z</time>
      </trkpt>
      <trkpt lat="49.35451" lon="-0.87483">
        <ele>70.702095</ele>
        <time>2022-08-02T13:47:05.000Z</time>
      </trkpt>
      <trkpt lat="49.35448" lon="-0.87484">
        <ele>70.757525</ele>
        <time>2022-08-02T13:47:06.000Z</time>
      </trkpt>
      <trkpt lat="49.35445" lon="-0.87484">
        <ele>70.804166</ele>
        <time>2022-08-02T13:47:07.000Z</time>
      </trkpt>
      <trkpt lat="49.35442" lon="-0.87484">
        <ele>70.854962</ele>
        <time>2022-08-02T13:47:08.000Z</time>
      </trkpt>
      <trkpt lat="49.35439" lon="-0.87484">
        <ele>70.90572</ele>
        <time>2022-08-02T13:47:09.000Z</time>
      </trkpt>
      <trkpt lat="49.35436" lon="-0.87484">
        <ele>70.954715</ele>
        <time>2022-08-02T13:47:10.000Z</time>
      </trkpt>
      <trkpt lat="49.35433" lon="-0.87484">
        <ele>71.005778</ele>
        <time>2022-08-02T13:47:11.000Z</time>
      </trkpt>
      <trkpt lat="49.3543" lon="-0.87484">
        <ele>71.061784</ele>
        <time>2022-08-02T13:47:12.000Z</time>
      </trkpt>
      <trkpt lat="49.35428" lon="-0.87484">
        <ele>71.107294</ele>
        <time>2022-08-02T13:47:13.000Z</time>
      </trkpt>
      <trkpt lat="49.35425" lon="-0.87484">
        <ele>71.151099</ele>
        <time>2022-08-02T13:47:14.000Z</time>
      </trkpt>
      <trkpt lat="49.35422" lon="-0.87484">
        <ele>71.207139</ele>
        <time>2022-08-02T13:47:15.000Z</time>
      </trkpt>
      <trkpt lat="49.35419" lon="-0.87484">
        <ele>71.263145</ele>
        <time>2022-08-02T13:47:16.000Z</time>
      </trkpt>
      <trkpt lat="49.35416" lon="-0.87484">
        <ele>71.308641</ele>
        <time>2022-08-02T13:47:17.000Z</time>
      </trkpt>
      <trkpt lat="49.35413" lon="-0.87485">
        <ele>71.354491</ele>
        <time>2022-08-02T13:47:18.000Z</time>
      </trkpt>
      <trkpt lat="49.3541" lon="-0.87485">
        <ele>71.410532</ele>
        <time>2022-08-02T13:47:19.000Z</time>
      </trkpt>
      <trkpt lat="49.35407" lon="-0.87485">
        <ele>71.45958</ele>
        <time>2022-08-02T13:47:20.000Z</time>
      </trkpt>
      <trkpt lat="49.35404" lon="-0.87485">
        <ele>71.522584</ele>
        <time>2022-08-02T13:47:21.000Z</time>
      </trkpt>
      <trkpt lat="49.35401" lon="-0.87485">
        <ele>71.566344</ele>
        <time>2022-08-02T13:47:22.000Z</time>
      </trkpt>
      <trkpt lat="49.35398" lon="-0.87485">
        <ele>71.622524</ele>
        <time>2022-08-02T13:47:23.000Z</time>
      </trkpt>
      <trkpt lat="49.35395" lon="-0.87485">
        <ele>71.673281</ele>
        <time>2022-08-02T13:47:24.000Z</time>
      </trkpt>
      <trkpt lat="49.35392" lon="-0.87485">
        <ele>71.724077</ele>
        <time>2022-08-02T13:47:25.000Z</time>
      </trkpt>
      <trkpt lat="49.35389" lon="-0.87485">
        <ele>71.774873</ele>
        <time>2022-08-02T13:47:26.000Z</time>
      </trkpt>
      <trkpt lat="49.35387" lon="-0.87484">
        <ele>71.818856</ele>
        <time>2022-08-02T13:47:27.000Z</time>
      </trkpt>
      <trkpt lat="49.35383" lon="-0.87484">
        <ele>71.892348</ele>
        <time>2022-08-02T13:47:29.000Z</time>
      </trkpt>
      <trkpt lat="49.3538" lon="-0.87485">
        <ele>71.937554</ele>
        <time>2022-08-02T13:47:30.000Z</time>
      </trkpt>
      <trkpt lat="49.35378" lon="-0.87486">
        <ele>71.984456</ele>
        <time>2022-08-02T13:47:31.000Z</time>
      </trkpt>
      <trkpt lat="49.35374" lon="-0.87487">
        <ele>72.041016</ele>
        <time>2022-08-02T13:47:32.000Z</time>
      </trkpt>
      <trkpt lat="49.35371" lon="-0.87488">
        <ele>72.102524</ele>
        <time>2022-08-02T13:47:33.000Z</time>
      </trkpt>
      <trkpt lat="49.35368" lon="-0.87488">
        <ele>72.148148</ele>
        <time>2022-08-02T13:47:34.000Z</time>
      </trkpt>
      <trkpt lat="49.35365" lon="-0.87488">
        <ele>72.209656</ele>
        <time>2022-08-02T13:47:35.000Z</time>
      </trkpt>
      <trkpt lat="49.35362" lon="-0.87488">
        <ele>72.255151</ele>
        <time>2022-08-02T13:47:36.000Z</time>
      </trkpt>
      <trkpt lat="49.35359" lon="-0.87489">
        <ele>72.311192</ele>
        <time>2022-08-02T13:47:37.000Z</time>
      </trkpt>
      <trkpt lat="49.35357" lon="-0.87489">
        <ele>72.354997</ele>
        <time>2022-08-02T13:47:38.000Z</time>
      </trkpt>
      <trkpt lat="49.35353" lon="-0.87489">
        <ele>72.416505</ele>
        <time>2022-08-02T13:47:39.000Z</time>
      </trkpt>
      <trkpt lat="49.3535" lon="-0.87489">
        <ele>72.467263</ele>
        <time>2022-08-02T13:47:40.000Z</time>
      </trkpt>
      <trkpt lat="49.35348" lon="-0.87489">
        <ele>72.512772</ele>
        <time>2022-08-02T13:47:41.000Z</time>
      </trkpt>
      <trkpt lat="49.35344" lon="-0.87489">
        <ele>72.568767</ele>
        <time>2022-08-02T13:47:42.000Z</time>
      </trkpt>
      <trkpt lat="49.35341" lon="-0.87489">
        <ele>72.624807</ele>
        <time>2022-08-02T13:47:43.000Z</time>
      </trkpt>
      <trkpt lat="49.35338" lon="-0.87489">
        <ele>72.675667</ele>
        <time>2022-08-02T13:47:44.000Z</time>
      </trkpt>
      <trkpt lat="49.35335" lon="-0.87489">
        <ele>72.731661</ele>
        <time>2022-08-02T13:47:45.000Z</time>
      </trkpt>
      <trkpt lat="49.35332" lon="-0.87489">
        <ele>72.787656</ele>
        <time>2022-08-02T13:47:46.000Z</time>
      </trkpt>
      <trkpt lat="49.35329" lon="-0.87489">
        <ele>72.843696</ele>
        <time>2022-08-02T13:47:47.000Z</time>
      </trkpt>
      <trkpt lat="49.35325" lon="-0.87488">
        <ele>72.905205</ele>
        <time>2022-08-02T13:47:48.000Z</time>
      </trkpt>
      <trkpt lat="49.35322" lon="-0.87488">
        <ele>72.956269</ele>
        <time>2022-08-02T13:47:49.000Z</time>
      </trkpt>
      <trkpt lat="49.35319" lon="-0.87487">
        <ele>73.005594</ele>
        <time>2022-08-02T13:47:50.000Z</time>
      </trkpt>
      <trkpt lat="49.35317" lon="-0.87487">
        <ele>73.051089</ele>
        <time>2022-08-02T13:47:51.000Z</time>
      </trkpt>
      <trkpt lat="49.35314" lon="-0.87487">
        <ele>73.096585</ele>
        <time>2022-08-02T13:47:52.000Z</time>
      </trkpt>
      <trkpt lat="49.35311" lon="-0.87487">
        <ele>73.152683</ele>
        <time>2022-08-02T13:47:53.000Z</time>
      </trkpt>
      <trkpt lat="49.35308" lon="-0.87487">
        <ele>73.201691</ele>
        <time>2022-08-02T13:47:54.000Z</time>
      </trkpt>
      <trkpt lat="49.35305" lon="-0.87487">
        <ele>73.257686</ele>
        <time>2022-08-02T13:47:55.000Z</time>
      </trkpt>
      <trkpt lat="49.35301" lon="-0.87487">
        <ele>73.320844</ele>
        <time>2022-08-02T13:47:56.000Z</time>
      </trkpt>
      <trkpt lat="49.35299" lon="-0.87487">
        <ele>73.370051</ele>
        <time>2022-08-02T13:47:57.000Z</time>
      </trkpt>
      <trkpt lat="49.35295" lon="-0.87488">
        <ele>73.426461</ele>
        <time>2022-08-02T13:47:58.000Z</time>
      </trkpt>
      <trkpt lat="49.35293" lon="-0.87489">
        <ele>73.47847</ele>
        <time>2022-08-02T13:47:59.000Z</time>
      </trkpt>
      <trkpt lat="49.35289" lon="-0.8749">
        <ele>73.540567</ele>
        <time>2022-08-02T13:48:00.000Z</time>
      </trkpt>
      <trkpt lat="49.35286" lon="-0.8749">
        <ele>73.591631</ele>
        <time>2022-08-02T13:48:01.000Z</time>
      </trkpt>
      <trkpt lat="49.35283" lon="-0.8749">
        <ele>73.647625</ele>
        <time>2022-08-02T13:48:02.000Z</time>
      </trkpt>
      <trkpt lat="49.35281" lon="-0.8749">
        <ele>73.688129</ele>
        <time>2022-08-02T13:48:03.000Z</time>
      </trkpt>
      <trkpt lat="49.35277" lon="-0.8749">
        <ele>73.744169</ele>
        <time>2022-08-02T13:48:04.000Z</time>
      </trkpt>
      <trkpt lat="49.35274" lon="-0.8749">
        <ele>73.80021</ele>
        <time>2022-08-02T13:48:05.000Z</time>
      </trkpt>
      <trkpt lat="49.35271" lon="-0.87491">
        <ele>73.85662</ele>
        <time>2022-08-02T13:48:06.000Z</time>
      </trkpt>
      <trkpt lat="49.35268" lon="-0.87492">
        <ele>73.906261</ele>
        <time>2022-08-02T13:48:07.000Z</time>
      </trkpt>
      <trkpt lat="49.35265" lon="-0.87491">
        <ele>73.960946</ele>
        <time>2022-08-02T13:48:08.000Z</time>
      </trkpt>
      <trkpt lat="49.35262" lon="-0.87492">
        <ele>74.01311</ele>
        <time>2022-08-02T13:48:09.000Z</time>
      </trkpt>
      <trkpt lat="49.35259" lon="-0.87492">
        <ele>74.065499</ele>
        <time>2022-08-02T13:48:10.000Z</time>
      </trkpt>
      <trkpt lat="49.35255" lon="-0.87493">
        <ele>74.124374</ele>
        <time>2022-08-02T13:48:11.000Z</time>
      </trkpt>
      <trkpt lat="49.35252" lon="-0.87493">
        <ele>74.176764</ele>
        <time>2022-08-02T13:48:12.000Z</time>
      </trkpt>
      <trkpt lat="49.35248" lon="-0.87494">
        <ele>74.234399</ele>
        <time>2022-08-02T13:48:13.000Z</time>
      </trkpt>
      <trkpt lat="49.35245" lon="-0.87495">
        <ele>74.292384</ele>
        <time>2022-08-02T13:48:14.000Z</time>
      </trkpt>
      <trkpt lat="49.35241" lon="-0.87496">
        <ele>74.354721</ele>
        <time>2022-08-02T13:48:15.000Z</time>
      </trkpt>
      <trkpt lat="49.35237" lon="-0.87497">
        <ele>74.419506</ele>
        <time>2022-08-02T13:48:16.000Z</time>
      </trkpt>
      <trkpt lat="49.35233" lon="-0.87498">
        <ele>74.482302</ele>
        <time>2022-08-02T13:48:17.000Z</time>
      </trkpt>
      <trkpt lat="49.3523" lon="-0.87498">
        <ele>74.539398</ele>
        <time>2022-08-02T13:48:18.000Z</time>
      </trkpt>
      <trkpt lat="49.35227" lon="-0.87499">
        <ele>74.582076</ele>
        <time>2022-08-02T13:48:19.000Z</time>
      </trkpt>
      <trkpt lat="49.35224" lon="-0.87499">
        <ele>74.634466</ele>
        <time>2022-08-02T13:48:20.000Z</time>
      </trkpt>
      <trkpt lat="49.35221" lon="-0.875">
        <ele>74.692452</ele>
        <time>2022-08-02T13:48:21.000Z</time>
      </trkpt>
      <trkpt lat="49.35217" lon="-0.87501">
        <ele>74.750437</ele>
        <time>2022-08-02T13:48:22.000Z</time>
      </trkpt>
      <trkpt lat="49.35213" lon="-0.87502">
        <ele>74.81418</ele>
        <time>2022-08-02T13:48:23.000Z</time>
      </trkpt>
      <trkpt lat="49.3521" lon="-0.87502">
        <ele>74.871433</ele>
        <time>2022-08-02T13:48:24.000Z</time>
      </trkpt>
      <trkpt lat="49.35206" lon="-0.87502">
        <ele>74.928528</ele>
        <time>2022-08-02T13:48:25.000Z</time>
      </trkpt>
      <trkpt lat="49.35203" lon="-0.87502">
        <ele>74.980649</ele>
        <time>2022-08-02T13:48:26.000Z</time>
      </trkpt>
      <trkpt lat="49.35199" lon="-0.87502">
        <ele>75.037665</ele>
        <time>2022-08-02T13:48:27.000Z</time>
      </trkpt>
      <trkpt lat="49.35197" lon="-0.87502">
        <ele>75.080066</ele>
        <time>2022-08-02T13:48:28.000Z</time>
      </trkpt>
      <trkpt lat="49.35194" lon="-0.87502">
        <ele>75.127407</ele>
        <time>2022-08-02T13:48:29.000Z</time>
      </trkpt>
      <trkpt lat="49.35191" lon="-0.87501">
        <ele>75.174939</ele>
        <time>2022-08-02T13:48:30.000Z</time>
      </trkpt>
      <trkpt lat="49.35187" lon="-0.875">
        <ele>75.237564</ele>
        <time>2022-08-02T13:48:31.000Z</time>
      </trkpt>
      <trkpt lat="49.35184" lon="-0.87499">
        <ele>75.290753</ele>
        <time>2022-08-02T13:48:32.000Z</time>
      </trkpt>
      <trkpt lat="49.35181" lon="-0.87499">
        <ele>75.338414</ele>
        <time>2022-08-02T13:48:33.000Z</time>
      </trkpt>
      <trkpt lat="49.35178" lon="-0.87498">
        <ele>75.396215</ele>
        <time>2022-08-02T13:48:34.000Z</time>
      </trkpt>
      <trkpt lat="49.35174" lon="-0.87497">
        <ele>75.454404</ele>
        <time>2022-08-02T13:48:35.000Z</time>
      </trkpt>
      <trkpt lat="49.35171" lon="-0.87495">
        <ele>75.5089</ele>
        <time>2022-08-02T13:48:36.000Z</time>
      </trkpt>
      <trkpt lat="49.35167" lon="-0.87494">
        <ele>75.566886</ele>
        <time>2022-08-02T13:48:37.000Z</time>
      </trkpt>
      <trkpt lat="49.35164" lon="-0.87494">
        <ele>75.63084</ele>
        <time>2022-08-02T13:48:38.000Z</time>
      </trkpt>
      <trkpt lat="49.3516" lon="-0.87493">
        <ele>75.692769</ele>
        <time>2022-08-02T13:48:39.000Z</time>
      </trkpt>
      <trkpt lat="49.35156" lon="-0.87494">
        <ele>75.756724</ele>
        <time>2022-08-02T13:48:40.000Z</time>
      </trkpt>
      <trkpt lat="49.35153" lon="-0.87495">
        <ele>75.803547</ele>
        <time>2022-08-02T13:48:41.000Z</time>
      </trkpt>
      <trkpt lat="49.35149" lon="-0.87496">
        <ele>75.862651</ele>
        <time>2022-08-02T13:48:42.000Z</time>
      </trkpt>
      <trkpt lat="49.35146" lon="-0.87496">
        <ele>75.920012</ele>
        <time>2022-08-02T13:48:43.000Z</time>
      </trkpt>
      <trkpt lat="49.35142" lon="-0.87497">
        <ele>75.9775</ele>
        <time>2022-08-02T13:48:44.000Z</time>
      </trkpt>
      <trkpt lat="49.35139" lon="-0.87498">
        <ele>76.031153</ele>
        <time>2022-08-02T13:48:45.000Z</time>
      </trkpt>
      <trkpt lat="49.35136" lon="-0.875">
        <ele>76.09034</ele>
        <time>2022-08-02T13:48:46.000Z</time>
      </trkpt>
      <trkpt lat="49.35132" lon="-0.87501">
        <ele>76.149821</ele>
        <time>2022-08-02T13:48:47.000Z</time>
      </trkpt>
      <trkpt lat="49.35128" lon="-0.87503">
        <ele>76.215854</ele>
        <time>2022-08-02T13:48:48.000Z</time>
      </trkpt>
      <trkpt lat="49.35125" lon="-0.87505">
        <ele>76.280321</ele>
        <time>2022-08-02T13:48:49.000Z</time>
      </trkpt>
      <trkpt lat="49.35121" lon="-0.87506">
        <ele>76.345806</ele>
        <time>2022-08-02T13:48:50.000Z</time>
      </trkpt>
      <trkpt lat="49.35117" lon="-0.87508">
        <ele>76.409713</ele>
        <time>2022-08-02T13:48:51.000Z</time>
      </trkpt>
      <trkpt lat="49.35113" lon="-0.87509">
        <ele>76.469193</ele>
        <time>2022-08-02T13:48:52.000Z</time>
      </trkpt>
      <trkpt lat="49.35109" lon="-0.87511">
        <ele>76.534678</ele>
        <time>2022-08-02T13:48:53.000Z</time>
      </trkpt>
      <trkpt lat="49.35106" lon="-0.87513">
        <ele>76.599146</ele>
        <time>2022-08-02T13:48:54.000Z</time>
      </trkpt>
      <trkpt lat="49.35102" lon="-0.87515">
        <ele>76.659974</ele>
        <time>2022-08-02T13:48:55.000Z</time>
      </trkpt>
      <trkpt lat="49.35099" lon="-0.87516">
        <ele>76.719766</ele>
        <time>2022-08-02T13:48:56.000Z</time>
      </trkpt>
      <trkpt lat="49.35096" lon="-0.87517">
        <ele>76.768421</ele>
        <time>2022-08-02T13:48:57.000Z</time>
      </trkpt>
      <trkpt lat="49.35092" lon="-0.87519">
        <ele>76.828213</ele>
        <time>2022-08-02T13:48:58.000Z</time>
      </trkpt>
      <trkpt lat="49.35089" lon="-0.8752">
        <ele>76.875427</ele>
        <time>2022-08-02T13:48:59.000Z</time>
      </trkpt>
      <trkpt lat="49.35086" lon="-0.87522">
        <ele>76.893081</ele>
        <time>2022-08-02T13:49:00.000Z</time>
      </trkpt>
      <trkpt lat="49.35082" lon="-0.87523">
        <ele>76.912361</ele>
        <time>2022-08-02T13:49:01.000Z</time>
      </trkpt>
      <trkpt lat="49.35079" lon="-0.87525">
        <ele>76.931217</ele>
        <time>2022-08-02T13:49:02.000Z</time>
      </trkpt>
      <trkpt lat="49.35076" lon="-0.87526">
        <ele>76.947171</ele>
        <time>2022-08-02T13:49:03.000Z</time>
      </trkpt>
      <trkpt lat="49.35072" lon="-0.87528">
        <ele>76.967903</ele>
        <time>2022-08-02T13:49:04.000Z</time>
      </trkpt>
      <trkpt lat="49.35069" lon="-0.8753">
        <ele>76.986848</ele>
        <time>2022-08-02T13:49:05.000Z</time>
      </trkpt>
      <trkpt lat="49.35065" lon="-0.87531">
        <ele>77.006091</ele>
        <time>2022-08-02T13:49:06.000Z</time>
      </trkpt>
      <trkpt lat="49.35061" lon="-0.87533">
        <ele>77.027052</ele>
        <time>2022-08-02T13:49:07.000Z</time>
      </trkpt>
      <trkpt lat="49.35058" lon="-0.87534">
        <ele>77.044495</ele>
        <time>2022-08-02T13:49:08.000Z</time>
      </trkpt>
      <trkpt lat="49.35054" lon="-0.87536">
        <ele>77.06495</ele>
        <time>2022-08-02T13:49:09.000Z</time>
      </trkpt>
      <trkpt lat="49.3505" lon="-0.87537">
        <ele>77.085686</ele>
        <time>2022-08-02T13:49:10.000Z</time>
      </trkpt>
      <trkpt lat="49.35047" lon="-0.87538">
        <ele>77.104246</ele>
        <time>2022-08-02T13:49:11.000Z</time>
      </trkpt>
      <trkpt lat="49.35043" lon="-0.87539">
        <ele>77.124543</ele>
        <time>2022-08-02T13:49:12.000Z</time>
      </trkpt>
      <trkpt lat="49.3504" lon="-0.87541">
        <ele>77.141986</ele>
        <time>2022-08-02T13:49:13.000Z</time>
      </trkpt>
      <trkpt lat="49.35036" lon="-0.87543">
        <ele>77.163423</ele>
        <time>2022-08-02T13:49:14.000Z</time>
      </trkpt>
      <trkpt lat="49.35032" lon="-0.87545">
        <ele>77.182893</ele>
        <time>2022-08-02T13:49:15.000Z</time>
      </trkpt>
      <trkpt lat="49.35029" lon="-0.87546">
        <ele>77.201749</ele>
        <time>2022-08-02T13:49:16.000Z</time>
      </trkpt>
      <trkpt lat="49.35026" lon="-0.87546">
        <ele>77.216867</ele>
        <time>2022-08-02T13:49:17.000Z</time>
      </trkpt>
      <trkpt lat="49.35023" lon="-0.87545">
        <ele>77.233828</ele>
        <time>2022-08-02T13:49:18.000Z</time>
      </trkpt>
      <trkpt lat="49.35021" lon="-0.87543">
        <ele>77.247334</ele>
        <time>2022-08-02T13:49:19.000Z</time>
      </trkpt>
      <trkpt lat="49.35019" lon="-0.8754">
        <ele>77.261543</ele>
        <time>2022-08-02T13:49:20.000Z</time>
      </trkpt>
      <trkpt lat="49.35017" lon="-0.87536">
        <ele>77.276422</ele>
        <time>2022-08-02T13:49:21.000Z</time>
      </trkpt>
      <trkpt lat="49.35016" lon="-0.87532">
        <ele>77.29129</ele>
        <time>2022-08-02T13:49:22.000Z</time>
      </trkpt>
      <trkpt lat="49.35015" lon="-0.87527">
        <ele>77.309562</ele>
        <time>2022-08-02T13:49:23.000Z</time>
      </trkpt>
      <trkpt lat="49.35015" lon="-0.87521">
        <ele>77.329032</ele>
        <time>2022-08-02T13:49:24.000Z</time>
      </trkpt>
      <trkpt lat="49.35014" lon="-0.87516">
        <ele>77.348977</ele>
        <time>2022-08-02T13:49:25.000Z</time>
      </trkpt>
      <trkpt lat="49.35014" lon="-0.87509">
        <ele>77.370091</ele>
        <time>2022-08-02T13:49:26.000Z</time>
      </trkpt>
      <trkpt lat="49.35013" lon="-0.87503">
        <ele>77.391126</ele>
        <time>2022-08-02T13:49:27.000Z</time>
      </trkpt>
      <trkpt lat="49.35013" lon="-0.87497">
        <ele>77.411164</ele>
        <time>2022-08-02T13:49:28.000Z</time>
      </trkpt>
      <trkpt lat="49.35013" lon="-0.87492">
        <ele>77.428555</ele>
        <time>2022-08-02T13:49:29.000Z</time>
      </trkpt>
      <trkpt lat="49.35013" lon="-0.87487">
        <ele>77.447299</ele>
        <time>2022-08-02T13:49:30.000Z</time>
      </trkpt>
      <trkpt lat="49.35013" lon="-0.87481">
        <ele>77.467736</ele>
        <time>2022-08-02T13:49:31.000Z</time>
      </trkpt>
      <trkpt lat="49.35012" lon="-0.87475">
        <ele>77.488769</ele>
        <time>2022-08-02T13:49:32.000Z</time>
      </trkpt>
      <trkpt lat="49.35011" lon="-0.87468">
        <ele>77.51056</ele>
        <time>2022-08-02T13:49:33.000Z</time>
      </trkpt>
      <trkpt lat="49.35011" lon="-0.87462">
        <ele>77.532013</ele>
        <time>2022-08-02T13:49:34.000Z</time>
      </trkpt>
      <trkpt lat="49.35011" lon="-0.87456">
        <ele>77.554088</ele>
        <time>2022-08-02T13:49:35.000Z</time>
      </trkpt>
      <trkpt lat="49.35011" lon="-0.87449">
        <ele>77.575202</ele>
        <time>2022-08-02T13:49:36.000Z</time>
      </trkpt>
      <trkpt lat="49.3501" lon="-0.87443">
        <ele>77.596699</ele>
        <time>2022-08-02T13:49:37.000Z</time>
      </trkpt>
      <trkpt lat="49.3501" lon="-0.87437">
        <ele>77.61883</ele>
        <time>2022-08-02T13:49:38.000Z</time>
      </trkpt>
      <trkpt lat="49.35009" lon="-0.8743">
        <ele>77.640453</ele>
        <time>2022-08-02T13:49:39.000Z</time>
      </trkpt>
      <trkpt lat="49.35009" lon="-0.87424">
        <ele>77.662244</ele>
        <time>2022-08-02T13:49:40.000Z</time>
      </trkpt>
      <trkpt lat="49.35009" lon="-0.87418">
        <ele>77.683066</ele>
        <time>2022-08-02T13:49:41.000Z</time>
      </trkpt>
      <trkpt lat="49.35008" lon="-0.87412">
        <ele>77.703681</ele>
        <time>2022-08-02T13:49:42.000Z</time>
      </trkpt>
      <trkpt lat="49.35007" lon="-0.87406">
        <ele>77.725373</ele>
        <time>2022-08-02T13:49:43.000Z</time>
      </trkpt>
      <trkpt lat="49.35007" lon="-0.87399">
        <ele>77.746487</ele>
        <time>2022-08-02T13:49:44.000Z</time>
      </trkpt>
      <trkpt lat="49.35006" lon="-0.87393">
        <ele>77.767103</ele>
        <time>2022-08-02T13:49:45.000Z</time>
      </trkpt>
      <trkpt lat="49.35005" lon="-0.87387">
        <ele>77.788808</ele>
        <time>2022-08-02T13:49:46.000Z</time>
      </trkpt>
      <trkpt lat="49.35005" lon="-0.87381">
        <ele>77.809922</ele>
        <time>2022-08-02T13:49:47.000Z</time>
      </trkpt>
      <trkpt lat="49.35005" lon="-0.87375">
        <ele>77.838041</ele>
        <time>2022-08-02T13:49:48.000Z</time>
      </trkpt>
      <trkpt lat="49.35004" lon="-0.87368">
        <ele>77.867279</ele>
        <time>2022-08-02T13:49:49.000Z</time>
      </trkpt>
      <trkpt lat="49.35004" lon="-0.87362">
        <ele>77.895303</ele>
        <time>2022-08-02T13:49:50.000Z</time>
      </trkpt>
      <trkpt lat="49.35003" lon="-0.87355">
        <ele>77.924324</ele>
        <time>2022-08-02T13:49:51.000Z</time>
      </trkpt>
      <trkpt lat="49.35003" lon="-0.87349">
        <ele>77.954678</ele>
        <time>2022-08-02T13:49:52.000Z</time>
      </trkpt>
      <trkpt lat="49.35003" lon="-0.87342">
        <ele>77.984588</ele>
        <time>2022-08-02T13:49:53.000Z</time>
      </trkpt>
      <trkpt lat="49.35002" lon="-0.87335">
        <ele>78.014767</ele>
        <time>2022-08-02T13:49:54.000Z</time>
      </trkpt>
      <trkpt lat="49.35001" lon="-0.87329">
        <ele>78.044005</ele>
        <time>2022-08-02T13:49:55.000Z</time>
      </trkpt>
      <trkpt lat="49.35001" lon="-0.87322">
        <ele>78.073082</ele>
        <time>2022-08-02T13:49:56.000Z</time>
      </trkpt>
      <trkpt lat="49.35" lon="-0.87316">
        <ele>78.101879</ele>
        <time>2022-08-02T13:49:57.000Z</time>
      </trkpt>
      <trkpt lat="49.34999" lon="-0.8731">
        <ele>78.129354</ele>
        <time>2022-08-02T13:49:58.000Z</time>
      </trkpt>
      <trkpt lat="49.34999" lon="-0.87303">
        <ele>78.158696</ele>
        <time>2022-08-02T13:49:59.000Z</time>
      </trkpt>
      <trkpt lat="49.34998" lon="-0.87297">
        <ele>78.187493</ele>
        <time>2022-08-02T13:50:00.000Z</time>
      </trkpt>
      <trkpt lat="49.34997" lon="-0.8729">
        <ele>78.217775</ele>
        <time>2022-08-02T13:50:01.000Z</time>
      </trkpt>
      <trkpt lat="49.34996" lon="-0.87284">
        <ele>78.247454</ele>
        <time>2022-08-02T13:50:02.000Z</time>
      </trkpt>
      <trkpt lat="49.34995" lon="-0.87277">
        <ele>78.278936</ele>
        <time>2022-08-02T13:50:03.000Z</time>
      </trkpt>
      <trkpt lat="49.34995" lon="-0.8727">
        <ele>78.308173</ele>
        <time>2022-08-02T13:50:04.000Z</time>
      </trkpt>
      <trkpt lat="49.34993" lon="-0.87263">
        <ele>78.340591</ele>
        <time>2022-08-02T13:50:05.000Z</time>
      </trkpt>
      <trkpt lat="49.34993" lon="-0.87256">
        <ele>78.372132</ele>
        <time>2022-08-02T13:50:06.000Z</time>
      </trkpt>
      <trkpt lat="49.34992" lon="-0.87249">
        <ele>78.403909</ele>
        <time>2022-08-02T13:50:07.000Z</time>
      </trkpt>
      <trkpt lat="49.34991" lon="-0.87243">
        <ele>78.434956</ele>
        <time>2022-08-02T13:50:08.000Z</time>
      </trkpt>
      <trkpt lat="49.3499" lon="-0.87236">
        <ele>78.465517</ele>
        <time>2022-08-02T13:50:09.000Z</time>
      </trkpt>
      <trkpt lat="49.34989" lon="-0.87229">
        <ele>78.496999</ele>
        <time>2022-08-02T13:50:10.000Z</time>
      </trkpt>
      <trkpt lat="49.34988" lon="-0.87222">
        <ele>78.52703</ele>
        <time>2022-08-02T13:50:11.000Z</time>
      </trkpt>
      <trkpt lat="49.34987" lon="-0.87215">
        <ele>78.55902</ele>
        <time>2022-08-02T13:50:12.000Z</time>
      </trkpt>
      <trkpt lat="49.34986" lon="-0.87209">
        <ele>78.588801</ele>
        <time>2022-08-02T13:50:13.000Z</time>
      </trkpt>
      <trkpt lat="49.34985" lon="-0.87202">
        <ele>78.620141</ele>
        <time>2022-08-02T13:50:14.000Z</time>
      </trkpt>
      <trkpt lat="49.34984" lon="-0.87195">
        <ele>78.649886</ele>
        <time>2022-08-02T13:50:15.000Z</time>
      </trkpt>
      <trkpt lat="49.34983" lon="-0.87189">
        <ele>78.68079</ele>
        <time>2022-08-02T13:50:16.000Z</time>
      </trkpt>
      <trkpt lat="49.34982" lon="-0.87182">
        <ele>78.709669</ele>
        <time>2022-08-02T13:50:17.000Z</time>
      </trkpt>
      <trkpt lat="49.34981" lon="-0.87176">
        <ele>78.739951</ele>
        <time>2022-08-02T13:50:18.000Z</time>
      </trkpt>
      <trkpt lat="49.3498" lon="-0.87169">
        <ele>78.770418</ele>
        <time>2022-08-02T13:50:19.000Z</time>
      </trkpt>
      <trkpt lat="49.34979" lon="-0.87163">
        <ele>78.800701</ele>
        <time>2022-08-02T13:50:20.000Z</time>
      </trkpt>
      <trkpt lat="49.34978" lon="-0.87156">
        <ele>78.831836</ele>
        <time>2022-08-02T13:50:21.000Z</time>
      </trkpt>
      <trkpt lat="49.34977" lon="-0.87149">
        <ele>78.861515</ele>
        <time>2022-08-02T13:50:22.000Z</time>
      </trkpt>
      <trkpt lat="49.34976" lon="-0.87143">
        <ele>78.89265</ele>
        <time>2022-08-02T13:50:23.000Z</time>
      </trkpt>
      <trkpt lat="49.34975" lon="-0.87136">
        <ele>78.921113</ele>
        <time>2022-08-02T13:50:24.000Z</time>
      </trkpt>
      <trkpt lat="49.34973" lon="-0.8713">
        <ele>78.95206</ele>
        <time>2022-08-02T13:50:25.000Z</time>
      </trkpt>
      <trkpt lat="49.34972" lon="-0.87124">
        <ele>78.980013</ele>
        <time>2022-08-02T13:50:26.000Z</time>
      </trkpt>
      <trkpt lat="49.34971" lon="-0.87118">
        <ele>79.006909</ele>
        <time>2022-08-02T13:50:27.000Z</time>
      </trkpt>
      <trkpt lat="49.3497" lon="-0.87112">
        <ele>79.035917</ele>
        <time>2022-08-02T13:50:28.000Z</time>
      </trkpt>
      <trkpt lat="49.34969" lon="-0.87106">
        <ele>79.062947</ele>
        <time>2022-08-02T13:50:29.000Z</time>
      </trkpt>
      <trkpt lat="49.34967" lon="-0.871">
        <ele>79.089423</ele>
        <time>2022-08-02T13:50:30.000Z</time>
      </trkpt>
      <trkpt lat="49.34966" lon="-0.87094">
        <ele>79.117211</ele>
        <time>2022-08-02T13:50:31.000Z</time>
      </trkpt>
      <trkpt lat="49.34965" lon="-0.87088">
        <ele>79.144576</ele>
        <time>2022-08-02T13:50:32.000Z</time>
      </trkpt>
      <trkpt lat="49.34964" lon="-0.87082">
        <ele>79.173589</ele>
        <time>2022-08-02T13:50:33.000Z</time>
      </trkpt>
      <trkpt lat="49.34963" lon="-0.87076">
        <ele>79.199528</ele>
        <time>2022-08-02T13:50:34.000Z</time>
      </trkpt>
      <trkpt lat="49.34962" lon="-0.8707">
        <ele>79.225619</ele>
        <time>2022-08-02T13:50:35.000Z</time>
      </trkpt>
      <trkpt lat="49.34961" lon="-0.87064">
        <ele>79.250713</ele>
        <time>2022-08-02T13:50:36.000Z</time>
      </trkpt>
      <trkpt lat="49.34961" lon="-0.87059">
        <ele>79.274666</ele>
        <time>2022-08-02T13:50:37.000Z</time>
      </trkpt>
      <trkpt lat="49.3496" lon="-0.87053">
        <ele>79.29976</ele>
        <time>2022-08-02T13:50:38.000Z</time>
      </trkpt>
      <trkpt lat="49.34959" lon="-0.87048">
        <ele>79.323713</ele>
        <time>2022-08-02T13:50:39.000Z</time>
      </trkpt>
      <trkpt lat="49.34958" lon="-0.87043">
        <ele>79.34626</ele>
        <time>2022-08-02T13:50:40.000Z</time>
      </trkpt>
      <trkpt lat="49.34957" lon="-0.87038">
        <ele>79.3686</ele>
        <time>2022-08-02T13:50:41.000Z</time>
      </trkpt>
      <trkpt lat="49.34957" lon="-0.87034">
        <ele>79.387731</ele>
        <time>2022-08-02T13:50:42.000Z</time>
      </trkpt>
      <trkpt lat="49.34956" lon="-0.87029">
        <ele>79.409148</ele>
        <time>2022-08-02T13:50:43.000Z</time>
      </trkpt>
      <trkpt lat="49.34955" lon="-0.87024">
        <ele>79.431716</ele>
        <time>2022-08-02T13:50:44.000Z</time>
      </trkpt>
      <trkpt lat="49.34953" lon="-0.87019">
        <ele>79.454331</ele>
        <time>2022-08-02T13:50:45.000Z</time>
      </trkpt>
      <trkpt lat="49.34952" lon="-0.87014">
        <ele>79.477086</ele>
        <time>2022-08-02T13:50:46.000Z</time>
      </trkpt>
      <trkpt lat="49.34951" lon="-0.87009">
        <ele>79.501322</ele>
        <time>2022-08-02T13:50:47.000Z</time>
      </trkpt>
      <trkpt lat="49.34949" lon="-0.87004">
        <ele>79.524743</ele>
        <time>2022-08-02T13:50:48.000Z</time>
      </trkpt>
      <trkpt lat="49.34949" lon="-0.86999">
        <ele>79.548151</ele>
        <time>2022-08-02T13:50:49.000Z</time>
      </trkpt>
      <trkpt lat="49.34947" lon="-0.86994">
        <ele>79.572789</ele>
        <time>2022-08-02T13:50:50.000Z</time>
      </trkpt>
      <trkpt lat="49.34946" lon="-0.86988">
        <ele>79.598244</ele>
        <time>2022-08-02T13:50:51.000Z</time>
      </trkpt>
      <trkpt lat="49.34945" lon="-0.86983">
        <ele>79.622493</ele>
        <time>2022-08-02T13:50:52.000Z</time>
      </trkpt>
      <trkpt lat="49.34944" lon="-0.86977">
        <ele>79.647948</ele>
        <time>2022-08-02T13:50:53.000Z</time>
      </trkpt>
      <trkpt lat="49.34943" lon="-0.86972">
        <ele>79.67321</ele>
        <time>2022-08-02T13:50:54.000Z</time>
      </trkpt>
      <trkpt lat="49.34941" lon="-0.86966">
        <ele>79.700212</ele>
        <time>2022-08-02T13:50:55.000Z</time>
      </trkpt>
      <trkpt lat="49.3494" lon="-0.86961">
        <ele>79.725667</ele>
        <time>2022-08-02T13:50:56.000Z</time>
      </trkpt>
      <trkpt lat="49.34939" lon="-0.86955">
        <ele>79.751606</ele>
        <time>2022-08-02T13:50:57.000Z</time>
      </trkpt>
      <trkpt lat="49.34939" lon="-0.86949">
        <ele>79.776485</ele>
        <time>2022-08-02T13:50:58.000Z</time>
      </trkpt>
      <trkpt lat="49.34937" lon="-0.86943">
        <ele>79.803995</ele>
        <time>2022-08-02T13:50:59.000Z</time>
      </trkpt>
      <trkpt lat="49.34936" lon="-0.86937">
        <ele>79.831504</ele>
        <time>2022-08-02T13:51:00.000Z</time>
      </trkpt>
      <trkpt lat="49.34935" lon="-0.86932">
        <ele>79.856959</ele>
        <time>2022-08-02T13:51:01.000Z</time>
      </trkpt>
      <trkpt lat="49.34933" lon="-0.86926">
        <ele>79.884043</ele>
        <time>2022-08-02T13:51:02.000Z</time>
      </trkpt>
      <trkpt lat="49.34931" lon="-0.86921">
        <ele>79.909457</ele>
        <time>2022-08-02T13:51:03.000Z</time>
      </trkpt>
      <trkpt lat="49.34929" lon="-0.86916">
        <ele>79.935395</ele>
        <time>2022-08-02T13:51:04.000Z</time>
      </trkpt>
      <trkpt lat="49.34927" lon="-0.8691">
        <ele>79.961334</ele>
        <time>2022-08-02T13:51:05.000Z</time>
      </trkpt>
      <trkpt lat="49.34926" lon="-0.86905">
        <ele>79.986748</ele>
        <time>2022-08-02T13:51:06.000Z</time>
      </trkpt>
      <trkpt lat="49.34924" lon="-0.86899">
        <ele>80.014914</ele>
        <time>2022-08-02T13:51:07.000Z</time>
      </trkpt>
      <trkpt lat="49.34922" lon="-0.86894">
        <ele>80.041999</ele>
        <time>2022-08-02T13:51:08.000Z</time>
      </trkpt>
      <trkpt lat="49.34921" lon="-0.86889">
        <ele>80.066637</ele>
        <time>2022-08-02T13:51:09.000Z</time>
      </trkpt>
      <trkpt lat="49.34919" lon="-0.86883">
        <ele>80.09364</ele>
        <time>2022-08-02T13:51:10.000Z</time>
      </trkpt>
      <trkpt lat="49.34917" lon="-0.86878">
        <ele>80.119053</ele>
        <time>2022-08-02T13:51:11.000Z</time>
      </trkpt>
      <trkpt lat="49.34916" lon="-0.86872">
        <ele>80.144288</ele>
        <time>2022-08-02T13:51:12.000Z</time>
      </trkpt>
      <trkpt lat="49.34915" lon="-0.86866">
        <ele>80.16997</ele>
        <time>2022-08-02T13:51:13.000Z</time>
      </trkpt>
      <trkpt lat="49.34914" lon="-0.86861">
        <ele>80.194608</ele>
        <time>2022-08-02T13:51:14.000Z</time>
      </trkpt>
      <trkpt lat="49.34913" lon="-0.86856">
        <ele>80.21928</ele>
        <time>2022-08-02T13:51:15.000Z</time>
      </trkpt>
      <trkpt lat="49.34912" lon="-0.8685">
        <ele>80.242272</ele>
        <time>2022-08-02T13:51:16.000Z</time>
      </trkpt>
      <trkpt lat="49.34911" lon="-0.86845">
        <ele>80.254451</ele>
        <time>2022-08-02T13:51:17.000Z</time>
      </trkpt>
      <trkpt lat="49.3491" lon="-0.8684">
        <ele>80.267341</ele>
        <time>2022-08-02T13:51:18.000Z</time>
      </trkpt>
      <trkpt lat="49.34909" lon="-0.86835">
        <ele>80.280234</ele>
        <time>2022-08-02T13:51:19.000Z</time>
      </trkpt>
      <trkpt lat="49.34908" lon="-0.86829">
        <ele>80.293686</ele>
        <time>2022-08-02T13:51:20.000Z</time>
      </trkpt>
      <trkpt lat="49.34906" lon="-0.86824">
        <ele>80.306913</ele>
        <time>2022-08-02T13:51:21.000Z</time>
      </trkpt>
      <trkpt lat="49.34905" lon="-0.86819">
        <ele>80.320164</ele>
        <time>2022-08-02T13:51:22.000Z</time>
      </trkpt>
      <trkpt lat="49.34904" lon="-0.86813">
        <ele>80.334409</ele>
        <time>2022-08-02T13:51:23.000Z</time>
      </trkpt>
      <trkpt lat="49.34903" lon="-0.86807">
        <ele>80.348428</ele>
        <time>2022-08-02T13:51:24.000Z</time>
      </trkpt>
      <trkpt lat="49.34902" lon="-0.86801">
        <ele>80.362648</ele>
        <time>2022-08-02T13:51:25.000Z</time>
      </trkpt>
      <trkpt lat="49.34901" lon="-0.86796">
        <ele>80.376441</ele>
        <time>2022-08-02T13:51:26.000Z</time>
      </trkpt>
      <trkpt lat="49.349" lon="-0.8679">
        <ele>80.389784</ele>
        <time>2022-08-02T13:51:27.000Z</time>
      </trkpt>
      <trkpt lat="49.34899" lon="-0.86785">
        <ele>80.402123</ele>
        <time>2022-08-02T13:51:28.000Z</time>
      </trkpt>
      <trkpt lat="49.34898" lon="-0.8678">
        <ele>80.41492</ele>
        <time>2022-08-02T13:51:29.000Z</time>
      </trkpt>
      <trkpt lat="49.34897" lon="-0.86775">
        <ele>80.425919</ele>
        <time>2022-08-02T13:51:30.000Z</time>
      </trkpt>
      <trkpt lat="49.34896" lon="-0.86771">
        <ele>80.437472</ele>
        <time>2022-08-02T13:51:31.000Z</time>
      </trkpt>
      <trkpt lat="49.34895" lon="-0.86766">
        <ele>80.448663</ele>
        <time>2022-08-02T13:51:32.000Z</time>
      </trkpt>
      <trkpt lat="49.34895" lon="-0.86762">
        <ele>80.458567</ele>
        <time>2022-08-02T13:51:33.000Z</time>
      </trkpt>
      <trkpt lat="49.34893" lon="-0.86758">
        <ele>80.469012</ele>
        <time>2022-08-02T13:51:34.000Z</time>
      </trkpt>
      <trkpt lat="49.34893" lon="-0.86754">
        <ele>80.478189</ele>
        <time>2022-08-02T13:51:35.000Z</time>
      </trkpt>
      <trkpt lat="49.34893" lon="-0.8675">
        <ele>80.487597</ele>
        <time>2022-08-02T13:51:36.000Z</time>
      </trkpt>
      <trkpt lat="49.34893" lon="-0.86745">
        <ele>80.498112</ele>
        <time>2022-08-02T13:51:37.000Z</time>
      </trkpt>
      <trkpt lat="49.34892" lon="-0.86741">
        <ele>80.509614</ele>
        <time>2022-08-02T13:51:38.000Z</time>
      </trkpt>
      <trkpt lat="49.34892" lon="-0.86737">
        <ele>80.519662</ele>
        <time>2022-08-02T13:51:39.000Z</time>
      </trkpt>
      <trkpt lat="49.34891" lon="-0.86733">
        <ele>80.528606</ele>
        <time>2022-08-02T13:51:40.000Z</time>
      </trkpt>
      <trkpt lat="49.3489" lon="-0.86728">
        <ele>80.539495</ele>
        <time>2022-08-02T13:51:42.000Z</time>
      </trkpt>
      <trkpt lat="49.3489" lon="-0.86726">
        <ele>80.546126</ele>
        <time>2022-08-02T13:51:44.000Z</time>
      </trkpt>
      <trkpt lat="49.34884" lon="-0.86724">
        <ele>80.569463</ele>
        <time>2022-08-02T13:52:37.000Z</time>
      </trkpt>
      <trkpt lat="49.34881" lon="-0.86723">
        <ele>80.57744</ele>
        <time>2022-08-02T13:52:38.000Z</time>
      </trkpt>
      <trkpt lat="49.34878" lon="-0.86723">
        <ele>80.588978</ele>
        <time>2022-08-02T13:52:39.000Z</time>
      </trkpt>
      <trkpt lat="49.34876" lon="-0.86722">
        <ele>80.59835</ele>
        <time>2022-08-02T13:52:40.000Z</time>
      </trkpt>
      <trkpt lat="49.34872" lon="-0.86722">
        <ele>80.61203</ele>
        <time>2022-08-02T13:52:41.000Z</time>
      </trkpt>
      <trkpt lat="49.34868" lon="-0.86721">
        <ele>80.626089</ele>
        <time>2022-08-02T13:52:42.000Z</time>
      </trkpt>
      <trkpt lat="49.34864" lon="-0.8672">
        <ele>80.640944</ele>
        <time>2022-08-02T13:52:43.000Z</time>
      </trkpt>
      <trkpt lat="49.34859" lon="-0.8672">
        <ele>80.657087</ele>
        <time>2022-08-02T13:52:44.000Z</time>
      </trkpt>
      <trkpt lat="49.34854" lon="-0.8672">
        <ele>80.674304</ele>
        <time>2022-08-02T13:52:45.000Z</time>
      </trkpt>
      <trkpt lat="49.3485" lon="-0.8672">
        <ele>80.690451</ele>
        <time>2022-08-02T13:52:46.000Z</time>
      </trkpt>
      <trkpt lat="49.34845" lon="-0.86719">
        <ele>80.706968</ele>
        <time>2022-08-02T13:52:47.000Z</time>
      </trkpt>
      <trkpt lat="49.34841" lon="-0.86717">
        <ele>80.721985</ele>
        <time>2022-08-02T13:52:48.000Z</time>
      </trkpt>
      <trkpt lat="49.34837" lon="-0.86716">
        <ele>80.739359</ele>
        <time>2022-08-02T13:52:49.000Z</time>
      </trkpt>
      <trkpt lat="49.34832" lon="-0.86716">
        <ele>80.755583</ele>
        <time>2022-08-02T13:52:50.000Z</time>
      </trkpt>
      <trkpt lat="49.34828" lon="-0.86715">
        <ele>80.771831</ele>
        <time>2022-08-02T13:52:51.000Z</time>
      </trkpt>
      <trkpt lat="49.34823" lon="-0.86714">
        <ele>80.789176</ele>
        <time>2022-08-02T13:52:52.000Z</time>
      </trkpt>
      <trkpt lat="49.34818" lon="-0.86714">
        <ele>80.807475</ele>
        <time>2022-08-02T13:52:53.000Z</time>
      </trkpt>
      <trkpt lat="49.34813" lon="-0.86714">
        <ele>80.825805</ele>
        <time>2022-08-02T13:52:54.000Z</time>
      </trkpt>
      <trkpt lat="49.34808" lon="-0.86714">
        <ele>80.843099</ele>
        <time>2022-08-02T13:52:55.000Z</time>
      </trkpt>
      <trkpt lat="49.34803" lon="-0.86714">
        <ele>80.860318</ele>
        <time>2022-08-02T13:52:56.000Z</time>
      </trkpt>
      <trkpt lat="49.34798" lon="-0.86715">
        <ele>80.876501</ele>
        <time>2022-08-02T13:52:57.000Z</time>
      </trkpt>
      <trkpt lat="49.34794" lon="-0.86715">
        <ele>80.913791</ele>
        <time>2022-08-02T13:52:58.000Z</time>
      </trkpt>
      <trkpt lat="49.3479" lon="-0.86715">
        <ele>80.992118</ele>
        <time>2022-08-02T13:52:59.000Z</time>
      </trkpt>
      <trkpt lat="49.34786" lon="-0.86715">
        <ele>81.061583</ele>
        <time>2022-08-02T13:53:00.000Z</time>
      </trkpt>
      <trkpt lat="49.34782" lon="-0.86715">
        <ele>81.134607</ele>
        <time>2022-08-02T13:53:01.000Z</time>
      </trkpt>
      <trkpt lat="49.34777" lon="-0.86715">
        <ele>81.22044</ele>
        <time>2022-08-02T13:53:02.000Z</time>
      </trkpt>
      <trkpt lat="49.34773" lon="-0.86716">
        <ele>81.29553</ele>
        <time>2022-08-02T13:53:03.000Z</time>
      </trkpt>
      <trkpt lat="49.34769" lon="-0.86716">
        <ele>81.37044</ele>
        <time>2022-08-02T13:53:04.000Z</time>
      </trkpt>
      <trkpt lat="49.34765" lon="-0.86717">
        <ele>81.444014</ele>
        <time>2022-08-02T13:53:05.000Z</time>
      </trkpt>
      <trkpt lat="49.3476" lon="-0.86717">
        <ele>81.518781</ele>
        <time>2022-08-02T13:53:06.000Z</time>
      </trkpt>
      <trkpt lat="49.34755" lon="-0.86717">
        <ele>81.60957</ele>
        <time>2022-08-02T13:53:07.000Z</time>
      </trkpt>
      <trkpt lat="49.34751" lon="-0.86717">
        <ele>81.684373</ele>
        <time>2022-08-02T13:53:08.000Z</time>
      </trkpt>
      <trkpt lat="49.34747" lon="-0.86718">
        <ele>81.762914</ele>
        <time>2022-08-02T13:53:09.000Z</time>
      </trkpt>
      <trkpt lat="49.34743" lon="-0.86718">
        <ele>81.827</ele>
        <time>2022-08-02T13:53:10.000Z</time>
      </trkpt>
      <trkpt lat="49.3474" lon="-0.86718">
        <ele>81.88426</ele>
        <time>2022-08-02T13:53:11.000Z</time>
      </trkpt>
      <trkpt lat="49.34737" lon="-0.86719">
        <ele>81.934588</ele>
        <time>2022-08-02T13:53:12.000Z</time>
      </trkpt>
      <trkpt lat="49.34734" lon="-0.86719">
        <ele>81.981104</ele>
        <time>2022-08-02T13:53:13.000Z</time>
      </trkpt>
      <trkpt lat="49.34731" lon="-0.86719">
        <ele>82.04875</ele>
        <time>2022-08-02T13:53:14.000Z</time>
      </trkpt>
      <trkpt lat="49.34726" lon="-0.8672">
        <ele>82.123742</ele>
        <time>2022-08-02T13:53:15.000Z</time>
      </trkpt>
      <trkpt lat="49.34723" lon="-0.8672">
        <ele>82.191636</ele>
        <time>2022-08-02T13:53:16.000Z</time>
      </trkpt>
      <trkpt lat="49.34717" lon="-0.86721">
        <ele>82.284386</ele>
        <time>2022-08-02T13:53:17.000Z</time>
      </trkpt>
      <trkpt lat="49.34713" lon="-0.86722">
        <ele>82.364622</ele>
        <time>2022-08-02T13:53:18.000Z</time>
      </trkpt>
      <trkpt lat="49.34709" lon="-0.86723">
        <ele>82.434396</ele>
        <time>2022-08-02T13:53:19.000Z</time>
      </trkpt>
      <trkpt lat="49.34705" lon="-0.86724">
        <ele>82.502843</ele>
        <time>2022-08-02T13:53:20.000Z</time>
      </trkpt>
      <trkpt lat="49.34701" lon="-0.86725">
        <ele>82.57869</ele>
        <time>2022-08-02T13:53:21.000Z</time>
      </trkpt>
      <trkpt lat="49.34697" lon="-0.86726">
        <ele>82.647323</ele>
        <time>2022-08-02T13:53:22.000Z</time>
      </trkpt>
      <trkpt lat="49.34693" lon="-0.86728">
        <ele>82.720522</ele>
        <time>2022-08-02T13:53:23.000Z</time>
      </trkpt>
      <trkpt lat="49.3469" lon="-0.86729">
        <ele>82.790369</ele>
        <time>2022-08-02T13:53:24.000Z</time>
      </trkpt>
      <trkpt lat="49.34686" lon="-0.86731">
        <ele>82.859432</ele>
        <time>2022-08-02T13:53:25.000Z</time>
      </trkpt>
      <trkpt lat="49.34682" lon="-0.86732">
        <ele>82.936196</ele>
        <time>2022-08-02T13:53:26.000Z</time>
      </trkpt>
      <trkpt lat="49.34677" lon="-0.86733">
        <ele>83.017503</ele>
        <time>2022-08-02T13:53:27.000Z</time>
      </trkpt>
      <trkpt lat="49.34673" lon="-0.86734">
        <ele>83.098146</ele>
        <time>2022-08-02T13:53:28.000Z</time>
      </trkpt>
      <trkpt lat="49.34669" lon="-0.86735">
        <ele>83.172674</ele>
        <time>2022-08-02T13:53:29.000Z</time>
      </trkpt>
      <trkpt lat="49.34664" lon="-0.86737">
        <ele>83.259651</ele>
        <time>2022-08-02T13:53:30.000Z</time>
      </trkpt>
      <trkpt lat="49.34659" lon="-0.86739">
        <ele>83.353649</ele>
        <time>2022-08-02T13:53:31.000Z</time>
      </trkpt>
      <trkpt lat="49.34653" lon="-0.86741">
        <ele>83.454007</ele>
        <time>2022-08-02T13:53:32.000Z</time>
      </trkpt>
      <trkpt lat="49.34649" lon="-0.86742">
        <ele>83.535124</ele>
        <time>2022-08-02T13:53:33.000Z</time>
      </trkpt>
      <trkpt lat="49.34644" lon="-0.86743">
        <ele>83.622325</ele>
        <time>2022-08-02T13:53:34.000Z</time>
      </trkpt>
      <trkpt lat="49.34639" lon="-0.86746">
        <ele>83.704703</ele>
        <time>2022-08-02T13:53:35.000Z</time>
      </trkpt>
      <trkpt lat="49.34635" lon="-0.86747">
        <ele>83.782025</ele>
        <time>2022-08-02T13:53:36.000Z</time>
      </trkpt>
      <trkpt lat="49.34631" lon="-0.86748">
        <ele>83.850305</ele>
        <time>2022-08-02T13:53:37.000Z</time>
      </trkpt>
      <trkpt lat="49.34628" lon="-0.86749">
        <ele>83.907846</ele>
        <time>2022-08-02T13:53:38.000Z</time>
      </trkpt>
      <trkpt lat="49.34626" lon="-0.86749">
        <ele>83.95465</ele>
        <time>2022-08-02T13:53:39.000Z</time>
      </trkpt>
      <trkpt lat="49.34623" lon="-0.8675">
        <ele>84.007562</ele>
        <time>2022-08-02T13:53:40.000Z</time>
      </trkpt>
      <trkpt lat="49.34619" lon="-0.86752">
        <ele>84.072912</ele>
        <time>2022-08-02T13:53:41.000Z</time>
      </trkpt>
      <trkpt lat="49.34615" lon="-0.86754">
        <ele>84.133517</ele>
        <time>2022-08-02T13:53:42.000Z</time>
      </trkpt>
      <trkpt lat="49.34612" lon="-0.86755">
        <ele>84.191063</ele>
        <time>2022-08-02T13:53:43.000Z</time>
      </trkpt>
      <trkpt lat="49.34607" lon="-0.86756">
        <ele>84.251482</ele>
        <time>2022-08-02T13:53:44.000Z</time>
      </trkpt>
      <trkpt lat="49.34603" lon="-0.86757">
        <ele>84.317954</ele>
        <time>2022-08-02T13:53:45.000Z</time>
      </trkpt>
      <trkpt lat="49.34598" lon="-0.86758">
        <ele>84.388453</ele>
        <time>2022-08-02T13:53:46.000Z</time>
      </trkpt>
      <trkpt lat="49.34593" lon="-0.8676">
        <ele>84.459744</ele>
        <time>2022-08-02T13:53:47.000Z</time>
      </trkpt>
      <trkpt lat="49.34589" lon="-0.86761">
        <ele>84.523207</ele>
        <time>2022-08-02T13:53:48.000Z</time>
      </trkpt>
      <trkpt lat="49.34585" lon="-0.86764">
        <ele>84.587069</ele>
        <time>2022-08-02T13:53:49.000Z</time>
      </trkpt>
      <trkpt lat="49.34581" lon="-0.86766">
        <ele>84.64722</ele>
        <time>2022-08-02T13:53:50.000Z</time>
      </trkpt>
      <trkpt lat="49.34577" lon="-0.86769">
        <ele>84.70941</ele>
        <time>2022-08-02T13:53:51.000Z</time>
      </trkpt>
      <trkpt lat="49.34574" lon="-0.86772">
        <ele>84.769692</ele>
        <time>2022-08-02T13:53:52.000Z</time>
      </trkpt>
      <trkpt lat="49.34571" lon="-0.86776">
        <ele>84.826878</ele>
        <time>2022-08-02T13:53:53.000Z</time>
      </trkpt>
      <trkpt lat="49.34567" lon="-0.86779">
        <ele>84.88195</ele>
        <time>2022-08-02T13:53:54.000Z</time>
      </trkpt>
      <trkpt lat="49.34564" lon="-0.86782">
        <ele>84.936521</ele>
        <time>2022-08-02T13:53:55.000Z</time>
      </trkpt>
      <trkpt lat="49.34561" lon="-0.86785">
        <ele>84.998038</ele>
        <time>2022-08-02T13:53:56.000Z</time>
      </trkpt>
      <trkpt lat="49.34557" lon="-0.86788">
        <ele>85.056849</ele>
        <time>2022-08-02T13:53:57.000Z</time>
      </trkpt>
      <trkpt lat="49.34553" lon="-0.86791">
        <ele>85.115956</ele>
        <time>2022-08-02T13:53:58.000Z</time>
      </trkpt>
      <trkpt lat="49.34549" lon="-0.86792">
        <ele>85.17447</ele>
        <time>2022-08-02T13:53:59.000Z</time>
      </trkpt>
      <trkpt lat="49.34546" lon="-0.86793">
        <ele>85.231131</ele>
        <time>2022-08-02T13:54:00.000Z</time>
      </trkpt>
      <trkpt lat="49.34542" lon="-0.86794">
        <ele>85.28709</ele>
        <time>2022-08-02T13:54:01.000Z</time>
      </trkpt>
      <trkpt lat="49.34538" lon="-0.86795">
        <ele>85.344047</ele>
        <time>2022-08-02T13:54:02.000Z</time>
      </trkpt>
      <trkpt lat="49.34534" lon="-0.86795">
        <ele>85.399383</ele>
        <time>2022-08-02T13:54:03.000Z</time>
      </trkpt>
      <trkpt lat="49.34531" lon="-0.86794">
        <ele>85.450401</ele>
        <time>2022-08-02T13:54:04.000Z</time>
      </trkpt>
      <trkpt lat="49.34526" lon="-0.86794">
        <ele>85.511885</ele>
        <time>2022-08-02T13:54:05.000Z</time>
      </trkpt>
      <trkpt lat="49.34523" lon="-0.86793">
        <ele>85.567222</ele>
        <time>2022-08-02T13:54:06.000Z</time>
      </trkpt>
      <trkpt lat="49.34519" lon="-0.86792">
        <ele>85.624932</ele>
        <time>2022-08-02T13:54:07.000Z</time>
      </trkpt>
      <trkpt lat="49.34516" lon="-0.86791">
        <ele>85.672873</ele>
        <time>2022-08-02T13:54:08.000Z</time>
      </trkpt>
      <trkpt lat="49.34511" lon="-0.8679">
        <ele>85.739048</ele>
        <time>2022-08-02T13:54:09.000Z</time>
      </trkpt>
      <trkpt lat="49.34508" lon="-0.86788">
        <ele>85.788649</ele>
        <time>2022-08-02T13:54:10.000Z</time>
      </trkpt>
      <trkpt lat="49.34504" lon="-0.86787">
        <ele>85.844607</ele>
        <time>2022-08-02T13:54:11.000Z</time>
      </trkpt>
      <trkpt lat="49.34499" lon="-0.86787">
        <ele>85.919049</ele>
        <time>2022-08-02T13:54:12.000Z</time>
      </trkpt>
      <trkpt lat="49.34495" lon="-0.86786">
        <ele>85.976446</ele>
        <time>2022-08-02T13:54:13.000Z</time>
      </trkpt>
      <trkpt lat="49.34491" lon="-0.86785">
        <ele>86.040658</ele>
        <time>2022-08-02T13:54:14.000Z</time>
      </trkpt>
      <trkpt lat="49.34486" lon="-0.86785">
        <ele>86.101849</ele>
        <time>2022-08-02T13:54:15.000Z</time>
      </trkpt>
      <trkpt lat="49.34481" lon="-0.86785">
        <ele>86.176097</ele>
        <time>2022-08-02T13:54:16.000Z</time>
      </trkpt>
      <trkpt lat="49.34477" lon="-0.86785">
        <ele>86.246013</ele>
        <time>2022-08-02T13:54:17.000Z</time>
      </trkpt>
      <trkpt lat="49.34471" lon="-0.86784">
        <ele>86.320533</ele>
        <time>2022-08-02T13:54:18.000Z</time>
      </trkpt>
      <trkpt lat="49.34467" lon="-0.86783">
        <ele>86.390552</ele>
        <time>2022-08-02T13:54:19.000Z</time>
      </trkpt>
      <trkpt lat="49.34462" lon="-0.86783">
        <ele>86.451941</ele>
        <time>2022-08-02T13:54:20.000Z</time>
      </trkpt>
      <trkpt lat="49.34458" lon="-0.86782">
        <ele>86.518414</ele>
        <time>2022-08-02T13:54:21.000Z</time>
      </trkpt>
      <trkpt lat="49.34453" lon="-0.86781">
        <ele>86.592662</ele>
        <time>2022-08-02T13:54:22.000Z</time>
      </trkpt>
      <trkpt lat="49.34448" lon="-0.86781">
        <ele>86.658161</ele>
        <time>2022-08-02T13:54:23.000Z</time>
      </trkpt>
      <trkpt lat="49.34445" lon="-0.86781">
        <ele>86.70745</ele>
        <time>2022-08-02T13:54:24.000Z</time>
      </trkpt>
      <trkpt lat="49.34441" lon="-0.8678">
        <ele>86.720774</ele>
        <time>2022-08-02T13:54:25.000Z</time>
      </trkpt>
      <trkpt lat="49.34437" lon="-0.8678">
        <ele>86.733759</ele>
        <time>2022-08-02T13:54:26.000Z</time>
      </trkpt>
      <trkpt lat="49.34433" lon="-0.86779">
        <ele>86.748101</ele>
        <time>2022-08-02T13:54:27.000Z</time>
      </trkpt>
      <trkpt lat="49.34429" lon="-0.86779">
        <ele>86.761068</ele>
        <time>2022-08-02T13:54:28.000Z</time>
      </trkpt>
      <trkpt lat="49.34425" lon="-0.86779">
        <ele>86.772993</ele>
        <time>2022-08-02T13:54:29.000Z</time>
      </trkpt>
      <trkpt lat="49.34421" lon="-0.86779">
        <ele>86.787299</ele>
        <time>2022-08-02T13:54:30.000Z</time>
      </trkpt>
      <trkpt lat="49.34417" lon="-0.86778">
        <ele>86.801469</ele>
        <time>2022-08-02T13:54:31.000Z</time>
      </trkpt>
      <trkpt lat="49.34413" lon="-0.86775">
        <ele>86.815775</ele>
        <time>2022-08-02T13:54:32.000Z</time>
      </trkpt>
      <trkpt lat="49.34409" lon="-0.86771">
        <ele>86.831462</ele>
        <time>2022-08-02T13:54:33.000Z</time>
      </trkpt>
      <trkpt lat="49.34407" lon="-0.86766">
        <ele>86.845826</ele>
        <time>2022-08-02T13:54:34.000Z</time>
      </trkpt>
      <trkpt lat="49.34405" lon="-0.8676">
        <ele>86.861098</ele>
        <time>2022-08-02T13:54:35.000Z</time>
      </trkpt>
      <trkpt lat="49.34403" lon="-0.86754">
        <ele>86.876901</ele>
        <time>2022-08-02T13:54:36.000Z</time>
      </trkpt>
      <trkpt lat="49.34401" lon="-0.86747">
        <ele>86.892729</ele>
        <time>2022-08-02T13:54:37.000Z</time>
      </trkpt>
      <trkpt lat="49.344" lon="-0.8674">
        <ele>86.908236</ele>
        <time>2022-08-02T13:54:38.000Z</time>
      </trkpt>
      <trkpt lat="49.34399" lon="-0.86734">
        <ele>86.922188</ele>
        <time>2022-08-02T13:54:39.000Z</time>
      </trkpt>
      <trkpt lat="49.34397" lon="-0.86728">
        <ele>86.936003</ele>
        <time>2022-08-02T13:54:40.000Z</time>
      </trkpt>
      <trkpt lat="49.34397" lon="-0.86723">
        <ele>86.947141</ele>
        <time>2022-08-02T13:54:41.000Z</time>
      </trkpt>
      <trkpt lat="49.34397" lon="-0.86719">
        <ele>86.956246</ele>
        <time>2022-08-02T13:54:42.000Z</time>
      </trkpt>
      <trkpt lat="49.34396" lon="-0.86716">
        <ele>86.965336</ele>
        <time>2022-08-02T13:54:43.000Z</time>
      </trkpt>
      <trkpt lat="49.34395" lon="-0.86712">
        <ele>86.974097</ele>
        <time>2022-08-02T13:54:44.000Z</time>
      </trkpt>
      <trkpt lat="49.34393" lon="-0.86709">
        <ele>86.981723</ele>
        <time>2022-08-02T13:54:45.000Z</time>
      </trkpt>
      <trkpt lat="49.34391" lon="-0.86706">
        <ele>86.991828</ele>
        <time>2022-08-02T13:54:47.000Z</time>
      </trkpt>
      <trkpt lat="49.34389" lon="-0.86696">
        <ele>87.013893</ele>
        <time>2022-08-02T13:56:09.000Z</time>
      </trkpt>
      <trkpt lat="49.34389" lon="-0.8669">
        <ele>87.027684</ele>
        <time>2022-08-02T13:56:10.000Z</time>
      </trkpt>
      <trkpt lat="49.34389" lon="-0.86683">
        <ele>87.042545</ele>
        <time>2022-08-02T13:56:11.000Z</time>
      </trkpt>
      <trkpt lat="49.34389" lon="-0.86676">
        <ele>87.058866</ele>
        <time>2022-08-02T13:56:12.000Z</time>
      </trkpt>
      <trkpt lat="49.34389" lon="-0.86668">
        <ele>87.075976</ele>
        <time>2022-08-02T13:56:13.000Z</time>
      </trkpt>
      <trkpt lat="49.34389" lon="-0.86661">
        <ele>87.092834</ele>
        <time>2022-08-02T13:56:14.000Z</time>
      </trkpt>
      <trkpt lat="49.34389" lon="-0.86653">
        <ele>87.109914</ele>
        <time>2022-08-02T13:56:15.000Z</time>
      </trkpt>
      <trkpt lat="49.34388" lon="-0.86646">
        <ele>87.126895</ele>
        <time>2022-08-02T13:56:16.000Z</time>
      </trkpt>
      <trkpt lat="49.34387" lon="-0.86639">
        <ele>87.142116</ele>
        <time>2022-08-02T13:56:17.000Z</time>
      </trkpt>
      <trkpt lat="49.34387" lon="-0.86632">
        <ele>87.157643</ele>
        <time>2022-08-02T13:56:18.000Z</time>
      </trkpt>
      <trkpt lat="49.34387" lon="-0.86625">
        <ele>87.17317</ele>
        <time>2022-08-02T13:56:19.000Z</time>
      </trkpt>
      <trkpt lat="49.34387" lon="-0.86618">
        <ele>87.18873</ele>
        <time>2022-08-02T13:56:20.000Z</time>
      </trkpt>
      <trkpt lat="49.34388" lon="-0.86611">
        <ele>87.20407</ele>
        <time>2022-08-02T13:56:21.000Z</time>
      </trkpt>
      <trkpt lat="49.34388" lon="-0.86603">
        <ele>87.220737</ele>
        <time>2022-08-02T13:56:22.000Z</time>
      </trkpt>
      <trkpt lat="49.34388" lon="-0.86596">
        <ele>87.236298</ele>
        <time>2022-08-02T13:56:23.000Z</time>
      </trkpt>
      <trkpt lat="49.34388" lon="-0.8659">
        <ele>87.251416</ele>
        <time>2022-08-02T13:56:24.000Z</time>
      </trkpt>
      <trkpt lat="49.34389" lon="-0.86582">
        <ele>87.267563</ele>
        <time>2022-08-02T13:56:25.000Z</time>
      </trkpt>
      <trkpt lat="49.34389" lon="-0.86575">
        <ele>87.283312</ele>
        <time>2022-08-02T13:56:26.000Z</time>
      </trkpt>
      <trkpt lat="49.34389" lon="-0.86567">
        <ele>87.301174</ele>
        <time>2022-08-02T13:56:27.000Z</time>
      </trkpt>
      <trkpt lat="49.34389" lon="-0.86559">
        <ele>87.31871</ele>
        <time>2022-08-02T13:56:28.000Z</time>
      </trkpt>
      <trkpt lat="49.34389" lon="-0.86551">
        <ele>87.328035</ele>
        <time>2022-08-02T13:56:29.000Z</time>
      </trkpt>
      <trkpt lat="49.3439" lon="-0.86543">
        <ele>87.337628</ele>
        <time>2022-08-02T13:56:30.000Z</time>
      </trkpt>
      <trkpt lat="49.3439" lon="-0.86535">
        <ele>87.347255</ele>
        <time>2022-08-02T13:56:31.000Z</time>
      </trkpt>
      <trkpt lat="49.3439" lon="-0.86527">
        <ele>87.35682</ele>
        <time>2022-08-02T13:56:32.000Z</time>
      </trkpt>
      <trkpt lat="49.34391" lon="-0.8652">
        <ele>87.366042</ele>
        <time>2022-08-02T13:56:33.000Z</time>
      </trkpt>
      <trkpt lat="49.34391" lon="-0.86512">
        <ele>87.374769</ele>
        <time>2022-08-02T13:56:34.000Z</time>
      </trkpt>
      <trkpt lat="49.34391" lon="-0.86505">
        <ele>87.383616</ele>
        <time>2022-08-02T13:56:35.000Z</time>
      </trkpt>
      <trkpt lat="49.34391" lon="-0.86497">
        <ele>87.392958</ele>
        <time>2022-08-02T13:56:36.000Z</time>
      </trkpt>
      <trkpt lat="49.34391" lon="-0.86489">
        <ele>87.402192</ele>
        <time>2022-08-02T13:56:37.000Z</time>
      </trkpt>
      <trkpt lat="49.34392" lon="-0.86482">
        <ele>87.41131</ele>
        <time>2022-08-02T13:56:38.000Z</time>
      </trkpt>
      <trkpt lat="49.34393" lon="-0.86474">
        <ele>87.420412</ele>
        <time>2022-08-02T13:56:39.000Z</time>
      </trkpt>
      <trkpt lat="49.34393" lon="-0.86467">
        <ele>87.429409</ele>
        <time>2022-08-02T13:56:40.000Z</time>
      </trkpt>
      <trkpt lat="49.34393" lon="-0.86459">
        <ele>87.438854</ele>
        <time>2022-08-02T13:56:41.000Z</time>
      </trkpt>
      <trkpt lat="49.34393" lon="-0.86451">
        <ele>87.448553</ele>
        <time>2022-08-02T13:56:42.000Z</time>
      </trkpt>
      <trkpt lat="49.34394" lon="-0.86442">
        <ele>87.458656</ele>
        <time>2022-08-02T13:56:43.000Z</time>
      </trkpt>
      <trkpt lat="49.34395" lon="-0.86434">
        <ele>87.468982</ele>
        <time>2022-08-02T13:56:44.000Z</time>
      </trkpt>
      <trkpt lat="49.34395" lon="-0.86425">
        <ele>87.479279</ele>
        <time>2022-08-02T13:56:45.000Z</time>
      </trkpt>
      <trkpt lat="49.34396" lon="-0.86416">
        <ele>87.489933</ele>
        <time>2022-08-02T13:56:46.000Z</time>
      </trkpt>
      <trkpt lat="49.34397" lon="-0.86407">
        <ele>87.500966</ele>
        <time>2022-08-02T13:56:47.000Z</time>
      </trkpt>
      <trkpt lat="49.34397" lon="-0.86398">
        <ele>87.51174</ele>
        <time>2022-08-02T13:56:48.000Z</time>
      </trkpt>
      <trkpt lat="49.34397" lon="-0.86389">
        <ele>87.522794</ele>
        <time>2022-08-02T13:56:49.000Z</time>
      </trkpt>
      <trkpt lat="49.34399" lon="-0.8638">
        <ele>87.533582</ele>
        <time>2022-08-02T13:56:50.000Z</time>
      </trkpt>
      <trkpt lat="49.34399" lon="-0.86371">
        <ele>87.544418</ele>
        <time>2022-08-02T13:56:51.000Z</time>
      </trkpt>
      <trkpt lat="49.34401" lon="-0.86362">
        <ele>87.55587</ele>
        <time>2022-08-02T13:56:52.000Z</time>
      </trkpt>
      <trkpt lat="49.34401" lon="-0.86353">
        <ele>87.567062</ele>
        <time>2022-08-02T13:56:53.000Z</time>
      </trkpt>
      <trkpt lat="49.34403" lon="-0.86343">
        <ele>87.578667</ele>
        <time>2022-08-02T13:56:54.000Z</time>
      </trkpt>
      <trkpt lat="49.34403" lon="-0.86334">
        <ele>87.590078</ele>
        <time>2022-08-02T13:56:55.000Z</time>
      </trkpt>
      <trkpt lat="49.34404" lon="-0.86324">
        <ele>87.601132</ele>
        <time>2022-08-02T13:56:56.000Z</time>
      </trkpt>
      <trkpt lat="49.34405" lon="-0.86315">
        <ele>87.612504</ele>
        <time>2022-08-02T13:56:57.000Z</time>
      </trkpt>
      <trkpt lat="49.34405" lon="-0.86306">
        <ele>87.623516</ele>
        <time>2022-08-02T13:56:58.000Z</time>
      </trkpt>
      <trkpt lat="49.34407" lon="-0.86297">
        <ele>87.635016</ele>
        <time>2022-08-02T13:56:59.000Z</time>
      </trkpt>
      <trkpt lat="49.34408" lon="-0.86287">
        <ele>87.646446</ele>
        <time>2022-08-02T13:57:00.000Z</time>
      </trkpt>
      <trkpt lat="49.34409" lon="-0.86277">
        <ele>87.587911</ele>
        <time>2022-08-02T13:57:01.000Z</time>
      </trkpt>
      <trkpt lat="49.3441" lon="-0.86267">
        <ele>87.51864</ele>
        <time>2022-08-02T13:57:02.000Z</time>
      </trkpt>
      <trkpt lat="49.34411" lon="-0.86258">
        <ele>87.450404</ele>
        <time>2022-08-02T13:57:03.000Z</time>
      </trkpt>
      <trkpt lat="49.34413" lon="-0.86248">
        <ele>87.383627</ele>
        <time>2022-08-02T13:57:04.000Z</time>
      </trkpt>
      <trkpt lat="49.34413" lon="-0.86238">
        <ele>87.316227</ele>
        <time>2022-08-02T13:57:05.000Z</time>
      </trkpt>
      <trkpt lat="49.34415" lon="-0.86229">
        <ele>87.249451</ele>
        <time>2022-08-02T13:57:06.000Z</time>
      </trkpt>
      <trkpt lat="49.34416" lon="-0.86219">
        <ele>87.181285</ele>
        <time>2022-08-02T13:57:07.000Z</time>
      </trkpt>
      <trkpt lat="49.34417" lon="-0.8621">
        <ele>87.115087</ele>
        <time>2022-08-02T13:57:08.000Z</time>
      </trkpt>
      <trkpt lat="49.34418" lon="-0.862">
        <ele>87.046325</ele>
        <time>2022-08-02T13:57:09.000Z</time>
      </trkpt>
      <trkpt lat="49.34419" lon="-0.8619">
        <ele>86.980127</ele>
        <time>2022-08-02T13:57:10.000Z</time>
      </trkpt>
      <trkpt lat="49.34421" lon="-0.86181">
        <ele>86.913351</ele>
        <time>2022-08-02T13:57:11.000Z</time>
      </trkpt>
      <trkpt lat="49.34421" lon="-0.86171">
        <ele>86.847313</ele>
        <time>2022-08-02T13:57:12.000Z</time>
      </trkpt>
      <trkpt lat="49.34423" lon="-0.86162">
        <ele>86.781145</ele>
        <time>2022-08-02T13:57:13.000Z</time>
      </trkpt>
      <trkpt lat="49.34424" lon="-0.86153">
        <ele>86.715714</ele>
        <time>2022-08-02T13:57:14.000Z</time>
      </trkpt>
      <trkpt lat="49.34425" lon="-0.86144">
        <ele>86.651553</ele>
        <time>2022-08-02T13:57:15.000Z</time>
      </trkpt>
      <trkpt lat="49.34427" lon="-0.86134">
        <ele>86.584776</ele>
        <time>2022-08-02T13:57:16.000Z</time>
      </trkpt>
      <trkpt lat="49.34427" lon="-0.86125">
        <ele>86.52141</ele>
        <time>2022-08-02T13:57:17.000Z</time>
      </trkpt>
      <trkpt lat="49.34428" lon="-0.86116">
        <ele>86.457324</ele>
        <time>2022-08-02T13:57:18.000Z</time>
      </trkpt>
      <trkpt lat="49.34429" lon="-0.86106">
        <ele>86.391667</ele>
        <time>2022-08-02T13:57:19.000Z</time>
      </trkpt>
      <trkpt lat="49.3443" lon="-0.86097">
        <ele>86.324891</ele>
        <time>2022-08-02T13:57:20.000Z</time>
      </trkpt>
      <trkpt lat="49.34431" lon="-0.86087">
        <ele>86.257864</ele>
        <time>2022-08-02T13:57:21.000Z</time>
      </trkpt>
      <trkpt lat="49.34432" lon="-0.86077">
        <ele>86.189628</ele>
        <time>2022-08-02T13:57:22.000Z</time>
      </trkpt>
      <trkpt lat="49.34433" lon="-0.86067">
        <ele>86.120185</ele>
        <time>2022-08-02T13:57:23.000Z</time>
      </trkpt>
      <trkpt lat="49.34434" lon="-0.86057">
        <ele>86.051269</ele>
        <time>2022-08-02T13:57:24.000Z</time>
      </trkpt>
      <trkpt lat="49.34435" lon="-0.86048">
        <ele>85.98382</ele>
        <time>2022-08-02T13:57:25.000Z</time>
      </trkpt>
      <trkpt lat="49.34436" lon="-0.86038">
        <ele>85.914739</ele>
        <time>2022-08-02T13:57:26.000Z</time>
      </trkpt>
      <trkpt lat="49.34437" lon="-0.86027">
        <ele>85.841229</ele>
        <time>2022-08-02T13:57:27.000Z</time>
      </trkpt>
      <trkpt lat="49.34438" lon="-0.86017">
        <ele>85.770409</ele>
        <time>2022-08-02T13:57:28.000Z</time>
      </trkpt>
      <trkpt lat="49.34439" lon="-0.86007">
        <ele>85.634071</ele>
        <time>2022-08-02T13:57:29.000Z</time>
      </trkpt>
      <trkpt lat="49.3444" lon="-0.85998">
        <ele>85.474216</ele>
        <time>2022-08-02T13:57:30.000Z</time>
      </trkpt>
      <trkpt lat="49.34441" lon="-0.85988">
        <ele>85.306156</ele>
        <time>2022-08-02T13:57:31.000Z</time>
      </trkpt>
      <trkpt lat="49.34442" lon="-0.85977">
        <ele>85.130709</ele>
        <time>2022-08-02T13:57:32.000Z</time>
      </trkpt>
      <trkpt lat="49.34444" lon="-0.85967">
        <ele>84.951535</ele>
        <time>2022-08-02T13:57:33.000Z</time>
      </trkpt>
      <trkpt lat="49.34445" lon="-0.85956">
        <ele>84.767038</ele>
        <time>2022-08-02T13:57:34.000Z</time>
      </trkpt>
      <trkpt lat="49.34446" lon="-0.85944">
        <ele>84.571699</ele>
        <time>2022-08-02T13:57:35.000Z</time>
      </trkpt>
      <trkpt lat="49.34447" lon="-0.85933">
        <ele>84.374539</ele>
        <time>2022-08-02T13:57:36.000Z</time>
      </trkpt>
      <trkpt lat="49.34449" lon="-0.85921">
        <ele>84.174324</ele>
        <time>2022-08-02T13:57:37.000Z</time>
      </trkpt>
      <trkpt lat="49.3445" lon="-0.85909">
        <ele>83.982498</ele>
        <time>2022-08-02T13:57:38.000Z</time>
      </trkpt>
      <trkpt lat="49.34452" lon="-0.85898">
        <ele>83.783173</ele>
        <time>2022-08-02T13:57:39.000Z</time>
      </trkpt>
      <trkpt lat="49.34454" lon="-0.85886">
        <ele>83.582872</ele>
        <time>2022-08-02T13:57:40.000Z</time>
      </trkpt>
      <trkpt lat="49.34456" lon="-0.85875">
        <ele>83.388553</ele>
        <time>2022-08-02T13:57:41.000Z</time>
      </trkpt>
      <trkpt lat="49.34459" lon="-0.85864">
        <ele>83.194174</ele>
        <time>2022-08-02T13:57:42.000Z</time>
      </trkpt>
      <trkpt lat="49.34462" lon="-0.85853">
        <ele>82.99677</ele>
        <time>2022-08-02T13:57:43.000Z</time>
      </trkpt>
      <trkpt lat="49.34466" lon="-0.85843">
        <ele>82.798698</ele>
        <time>2022-08-02T13:57:44.000Z</time>
      </trkpt>
      <trkpt lat="49.34469" lon="-0.85833">
        <ele>82.615352</ele>
        <time>2022-08-02T13:57:45.000Z</time>
      </trkpt>
      <trkpt lat="49.34473" lon="-0.85822">
        <ele>82.420907</ele>
        <time>2022-08-02T13:57:46.000Z</time>
      </trkpt>
      <trkpt lat="49.34476" lon="-0.85812">
        <ele>82.22381</ele>
        <time>2022-08-02T13:57:47.000Z</time>
      </trkpt>
      <trkpt lat="49.34479" lon="-0.85802">
        <ele>82.038416</ele>
        <time>2022-08-02T13:57:48.000Z</time>
      </trkpt>
      <trkpt lat="49.34482" lon="-0.85791">
        <ele>81.848862</ele>
        <time>2022-08-02T13:57:49.000Z</time>
      </trkpt>
      <trkpt lat="49.34485" lon="-0.85781">
        <ele>81.670009</ele>
        <time>2022-08-02T13:57:50.000Z</time>
      </trkpt>
      <trkpt lat="49.34488" lon="-0.85772">
        <ele>81.493832</ele>
        <time>2022-08-02T13:57:51.000Z</time>
      </trkpt>
      <trkpt lat="49.34491" lon="-0.85762">
        <ele>81.319561</ele>
        <time>2022-08-02T13:57:52.000Z</time>
      </trkpt>
      <trkpt lat="49.34494" lon="-0.85754">
        <ele>81.160276</ele>
        <time>2022-08-02T13:57:53.000Z</time>
      </trkpt>
      <trkpt lat="49.34498" lon="-0.85745">
        <ele>81.129075</ele>
        <time>2022-08-02T13:57:54.000Z</time>
      </trkpt>
      <trkpt lat="49.34502" lon="-0.85737">
        <ele>81.099072</ele>
        <time>2022-08-02T13:57:55.000Z</time>
      </trkpt>
      <trkpt lat="49.34506" lon="-0.85728">
        <ele>81.068609</ele>
        <time>2022-08-02T13:57:56.000Z</time>
      </trkpt>
      <trkpt lat="49.3451" lon="-0.8572">
        <ele>81.038125</ele>
        <time>2022-08-02T13:57:57.000Z</time>
      </trkpt>
      <trkpt lat="49.34514" lon="-0.85711">
        <ele>81.006924</ele>
        <time>2022-08-02T13:57:58.000Z</time>
      </trkpt>
      <trkpt lat="49.34517" lon="-0.85703">
        <ele>80.97597</ele>
        <time>2022-08-02T13:57:59.000Z</time>
      </trkpt>
      <trkpt lat="49.34519" lon="-0.85693">
        <ele>80.945296</ele>
        <time>2022-08-02T13:58:00.000Z</time>
      </trkpt>
      <trkpt lat="49.3452" lon="-0.85682">
        <ele>80.913981</ele>
        <time>2022-08-02T13:58:01.000Z</time>
      </trkpt>
      <trkpt lat="49.3452" lon="-0.85672">
        <ele>80.882673</ele>
        <time>2022-08-02T13:58:02.000Z</time>
      </trkpt>
      <trkpt lat="49.3452" lon="-0.85662">
        <ele>80.853481</ele>
        <time>2022-08-02T13:58:03.000Z</time>
      </trkpt>
      <trkpt lat="49.3452" lon="-0.85653">
        <ele>80.825777</ele>
        <time>2022-08-02T13:58:04.000Z</time>
      </trkpt>
      <trkpt lat="49.34522" lon="-0.85643">
        <ele>80.797153</ele>
        <time>2022-08-02T13:58:05.000Z</time>
      </trkpt>
      <trkpt lat="49.34523" lon="-0.85634">
        <ele>80.769692</ele>
        <time>2022-08-02T13:58:06.000Z</time>
      </trkpt>
      <trkpt lat="49.34525" lon="-0.85626">
        <ele>80.743908</ele>
        <time>2022-08-02T13:58:07.000Z</time>
      </trkpt>
      <trkpt lat="49.34527" lon="-0.85618">
        <ele>80.717414</ele>
        <time>2022-08-02T13:58:08.000Z</time>
      </trkpt>
      <trkpt lat="49.34531" lon="-0.85611">
        <ele>80.691941</ele>
        <time>2022-08-02T13:58:09.000Z</time>
      </trkpt>
      <trkpt lat="49.34534" lon="-0.85605">
        <ele>80.666127</ele>
        <time>2022-08-02T13:58:10.000Z</time>
      </trkpt>
      <trkpt lat="49.34538" lon="-0.85598">
        <ele>80.639665</ele>
        <time>2022-08-02T13:58:11.000Z</time>
      </trkpt>
      <trkpt lat="49.34542" lon="-0.85592">
        <ele>80.615247</ele>
        <time>2022-08-02T13:58:12.000Z</time>
      </trkpt>
      <trkpt lat="49.34546" lon="-0.85588">
        <ele>80.592934</ele>
        <time>2022-08-02T13:58:13.000Z</time>
      </trkpt>
      <trkpt lat="49.34548" lon="-0.85585">
        <ele>80.578412</ele>
        <time>2022-08-02T13:58:14.000Z</time>
      </trkpt>
      <trkpt lat="49.3455" lon="-0.85583">
        <ele>80.56859</ele>
        <time>2022-08-02T13:58:15.000Z</time>
      </trkpt>
      <trkpt lat="49.34551" lon="-0.85578">
        <ele>80.553711</ele>
        <time>2022-08-02T13:58:17.000Z</time>
      </trkpt>
      <trkpt lat="49.3455" lon="-0.85573">
        <ele>80.539689</ele>
        <time>2022-08-02T13:58:19.000Z</time>
      </trkpt>
      <trkpt lat="49.34548" lon="-0.85572">
        <ele>80.531117</ele>
        <time>2022-08-02T13:58:20.000Z</time>
      </trkpt>
      <trkpt lat="49.34546" lon="-0.8557">
        <ele>80.519867</ele>
        <time>2022-08-02T13:58:21.000Z</time>
      </trkpt>
      <trkpt lat="49.34545" lon="-0.85566">
        <ele>80.507851</ele>
        <time>2022-08-02T13:58:22.000Z</time>
      </trkpt>
      <trkpt lat="49.34542" lon="-0.85562">
        <ele>80.491123</ele>
        <time>2022-08-02T13:58:23.000Z</time>
      </trkpt>
      <trkpt lat="49.3454" lon="-0.85558">
        <ele>80.476617</ele>
        <time>2022-08-02T13:58:24.000Z</time>
      </trkpt>
      <trkpt lat="49.34538" lon="-0.85555">
        <ele>80.463191</ele>
        <time>2022-08-02T13:58:25.000Z</time>
      </trkpt>
      <trkpt lat="49.34536" lon="-0.85551">
        <ele>80.447597</ele>
        <time>2022-08-02T13:58:26.000Z</time>
      </trkpt>
      <trkpt lat="49.34534" lon="-0.85547">
        <ele>80.433564</ele>
        <time>2022-08-02T13:58:27.000Z</time>
      </trkpt>
      <trkpt lat="49.34532" lon="-0.85544">
        <ele>80.418755</ele>
        <time>2022-08-02T13:58:28.000Z</time>
      </trkpt>
      <trkpt lat="49.3453" lon="-0.8554">
        <ele>80.404486</ele>
        <time>2022-08-02T13:58:29.000Z</time>
      </trkpt>
      <trkpt lat="49.34527" lon="-0.85536">
        <ele>80.387975</ele>
        <time>2022-08-02T13:58:30.000Z</time>
      </trkpt>
      <trkpt lat="49.34525" lon="-0.85532">
        <ele>80.370148</ele>
        <time>2022-08-02T13:58:31.000Z</time>
      </trkpt>
      <trkpt lat="49.34522" lon="-0.85528">
        <ele>80.351918</ele>
        <time>2022-08-02T13:58:32.000Z</time>
      </trkpt>
      <trkpt lat="49.34519" lon="-0.85524">
        <ele>80.368648</ele>
        <time>2022-08-02T13:58:33.000Z</time>
      </trkpt>
      <trkpt lat="49.34516" lon="-0.8552">
        <ele>80.43619</ele>
        <time>2022-08-02T13:58:34.000Z</time>
      </trkpt>
      <trkpt lat="49.34514" lon="-0.85516">
        <ele>80.500989</ele>
        <time>2022-08-02T13:58:35.000Z</time>
      </trkpt>
      <trkpt lat="49.34511" lon="-0.85513">
        <ele>80.572737</ele>
        <time>2022-08-02T13:58:36.000Z</time>
      </trkpt>
      <trkpt lat="49.34509" lon="-0.85509">
        <ele>80.641165</ele>
        <time>2022-08-02T13:58:37.000Z</time>
      </trkpt>
      <trkpt lat="49.34507" lon="-0.85505">
        <ele>80.703889</ele>
        <time>2022-08-02T13:58:38.000Z</time>
      </trkpt>
      <trkpt lat="49.34504" lon="-0.85501">
        <ele>80.77341</ele>
        <time>2022-08-02T13:58:39.000Z</time>
      </trkpt>
      <trkpt lat="49.34502" lon="-0.85497">
        <ele>80.837823</ele>
        <time>2022-08-02T13:58:40.000Z</time>
      </trkpt>
      <trkpt lat="49.345" lon="-0.85494">
        <ele>80.900812</ele>
        <time>2022-08-02T13:58:41.000Z</time>
      </trkpt>
      <trkpt lat="49.34498" lon="-0.8549">
        <ele>80.962436</ele>
        <time>2022-08-02T13:58:42.000Z</time>
      </trkpt>
      <trkpt lat="49.34496" lon="-0.85487">
        <ele>81.017295</ele>
        <time>2022-08-02T13:58:43.000Z</time>
      </trkpt>
      <trkpt lat="49.34494" lon="-0.85484">
        <ele>81.064009</ele>
        <time>2022-08-02T13:58:44.000Z</time>
      </trkpt>
      <trkpt lat="49.34493" lon="-0.85481">
        <ele>81.111792</ele>
        <time>2022-08-02T13:58:45.000Z</time>
      </trkpt>
      <trkpt lat="49.34493" lon="-0.85478">
        <ele>81.151556</ele>
        <time>2022-08-02T13:58:46.000Z</time>
      </trkpt>
      <trkpt lat="49.34493" lon="-0.85474">
        <ele>81.19337</ele>
        <time>2022-08-02T13:58:47.000Z</time>
      </trkpt>
      <trkpt lat="49.34492" lon="-0.85471">
        <ele>81.240614</ele>
        <time>2022-08-02T13:58:48.000Z</time>
      </trkpt>
      <trkpt lat="49.34493" lon="-0.85467">
        <ele>81.289115</ele>
        <time>2022-08-02T13:58:49.000Z</time>
      </trkpt>
      <trkpt lat="49.34492" lon="-0.85463">
        <ele>81.342652</ele>
        <time>2022-08-02T13:58:50.000Z</time>
      </trkpt>
      <trkpt lat="49.34493" lon="-0.85458">
        <ele>81.397448</ele>
        <time>2022-08-02T13:58:51.000Z</time>
      </trkpt>
      <trkpt lat="49.34492" lon="-0.85454">
        <ele>81.454765</ele>
        <time>2022-08-02T13:58:52.000Z</time>
      </trkpt>
      <trkpt lat="49.34492" lon="-0.85449">
        <ele>81.517338</ele>
        <time>2022-08-02T13:58:53.000Z</time>
      </trkpt>
      <trkpt lat="49.34491" lon="-0.85444">
        <ele>81.575538</ele>
        <time>2022-08-02T13:58:54.000Z</time>
      </trkpt>
      <trkpt lat="49.34491" lon="-0.8544">
        <ele>81.634981</ele>
        <time>2022-08-02T13:58:55.000Z</time>
      </trkpt>
      <trkpt lat="49.3449" lon="-0.85435">
        <ele>81.691273</ele>
        <time>2022-08-02T13:58:56.000Z</time>
      </trkpt>
      <trkpt lat="49.3449" lon="-0.85431">
        <ele>81.749851</ele>
        <time>2022-08-02T13:58:57.000Z</time>
      </trkpt>
      <trkpt lat="49.34489" lon="-0.85426">
        <ele>81.818064</ele>
        <time>2022-08-02T13:58:58.000Z</time>
      </trkpt>
      <trkpt lat="49.34488" lon="-0.8542">
        <ele>81.886735</ele>
        <time>2022-08-02T13:58:59.000Z</time>
      </trkpt>
      <trkpt lat="49.34488" lon="-0.85415">
        <ele>81.957395</ele>
        <time>2022-08-02T13:59:00.000Z</time>
      </trkpt>
      <trkpt lat="49.34488" lon="-0.85409">
        <ele>82.027085</ele>
        <time>2022-08-02T13:59:01.000Z</time>
      </trkpt>
      <trkpt lat="49.34487" lon="-0.85404">
        <ele>82.093125</ele>
        <time>2022-08-02T13:59:02.000Z</time>
      </trkpt>
      <trkpt lat="49.34487" lon="-0.854">
        <ele>82.146661</ele>
        <time>2022-08-02T13:59:03.000Z</time>
      </trkpt>
      <trkpt lat="49.34486" lon="-0.85395">
        <ele>82.207761</ele>
        <time>2022-08-02T13:59:04.000Z</time>
      </trkpt>
      <trkpt lat="49.34486" lon="-0.8539">
        <ele>82.271383</ele>
        <time>2022-08-02T13:59:05.000Z</time>
      </trkpt>
      <trkpt lat="49.34485" lon="-0.85385">
        <ele>82.336446</ele>
        <time>2022-08-02T13:59:06.000Z</time>
      </trkpt>
      <trkpt lat="49.34484" lon="-0.85381">
        <ele>82.399735</ele>
        <time>2022-08-02T13:59:07.000Z</time>
      </trkpt>
      <trkpt lat="49.34483" lon="-0.85376">
        <ele>82.463589</ele>
        <time>2022-08-02T13:59:08.000Z</time>
      </trkpt>
      <trkpt lat="49.34483" lon="-0.85371">
        <ele>82.526763</ele>
        <time>2022-08-02T13:59:09.000Z</time>
      </trkpt>
      <trkpt lat="49.34482" lon="-0.85366">
        <ele>82.589089</ele>
        <time>2022-08-02T13:59:10.000Z</time>
      </trkpt>
      <trkpt lat="49.34481" lon="-0.85361">
        <ele>82.649775</ele>
        <time>2022-08-02T13:59:11.000Z</time>
      </trkpt>
      <trkpt lat="49.34481" lon="-0.85356">
        <ele>82.715815</ele>
        <time>2022-08-02T13:59:12.000Z</time>
      </trkpt>
      <trkpt lat="49.3448" lon="-0.85352">
        <ele>82.775653</ele>
        <time>2022-08-02T13:59:13.000Z</time>
      </trkpt>
      <trkpt lat="49.3448" lon="-0.85347">
        <ele>82.836339</ele>
        <time>2022-08-02T13:59:14.000Z</time>
      </trkpt>
      <trkpt lat="49.34479" lon="-0.85342">
        <ele>82.896194</ele>
        <time>2022-08-02T13:59:15.000Z</time>
      </trkpt>
      <trkpt lat="49.34478" lon="-0.85337">
        <ele>82.961922</ele>
        <time>2022-08-02T13:59:16.000Z</time>
      </trkpt>
      <trkpt lat="49.34477" lon="-0.85332">
        <ele>83.02896</ele>
        <time>2022-08-02T13:59:17.000Z</time>
      </trkpt>
      <trkpt lat="49.34476" lon="-0.85327">
        <ele>83.094627</ele>
        <time>2022-08-02T13:59:18.000Z</time>
      </trkpt>
      <trkpt lat="49.34475" lon="-0.85322">
        <ele>83.163326</ele>
        <time>2022-08-02T13:59:19.000Z</time>
      </trkpt>
      <trkpt lat="49.34475" lon="-0.85317">
        <ele>83.231488</ele>
        <time>2022-08-02T13:59:20.000Z</time>
      </trkpt>
      <trkpt lat="49.34474" lon="-0.85312">
        <ele>83.296289</ele>
        <time>2022-08-02T13:59:21.000Z</time>
      </trkpt>
      <trkpt lat="49.34473" lon="-0.85306">
        <ele>83.366916</ele>
        <time>2022-08-02T13:59:22.000Z</time>
      </trkpt>
      <trkpt lat="49.34473" lon="-0.85301">
        <ele>83.437039</ele>
        <time>2022-08-02T13:59:23.000Z</time>
      </trkpt>
      <trkpt lat="49.34472" lon="-0.85295">
        <ele>83.507699</ele>
        <time>2022-08-02T13:59:24.000Z</time>
      </trkpt>
      <trkpt lat="49.34471" lon="-0.8529">
        <ele>83.580052</ele>
        <time>2022-08-02T13:59:25.000Z</time>
      </trkpt>
      <trkpt lat="49.3447" lon="-0.85285">
        <ele>83.648214</ele>
        <time>2022-08-02T13:59:26.000Z</time>
      </trkpt>
      <trkpt lat="49.3447" lon="-0.85279">
        <ele>83.716376</ele>
        <time>2022-08-02T13:59:27.000Z</time>
      </trkpt>
      <trkpt lat="49.34469" lon="-0.85274">
        <ele>83.791174</ele>
        <time>2022-08-02T13:59:28.000Z</time>
      </trkpt>
      <trkpt lat="49.34468" lon="-0.85268">
        <ele>83.850179</ele>
        <time>2022-08-02T13:59:29.000Z</time>
      </trkpt>
      <trkpt lat="49.34468" lon="-0.85263">
        <ele>83.885083</ele>
        <time>2022-08-02T13:59:30.000Z</time>
      </trkpt>
      <trkpt lat="49.34467" lon="-0.85257">
        <ele>83.922122</ele>
        <time>2022-08-02T13:59:31.000Z</time>
      </trkpt>
      <trkpt lat="49.34467" lon="-0.85251">
        <ele>83.959334</ele>
        <time>2022-08-02T13:59:32.000Z</time>
      </trkpt>
      <trkpt lat="49.34467" lon="-0.85245">
        <ele>83.994773</ele>
        <time>2022-08-02T13:59:33.000Z</time>
      </trkpt>
      <trkpt lat="49.34466" lon="-0.85239">
        <ele>84.032597</ele>
        <time>2022-08-02T13:59:34.000Z</time>
      </trkpt>
      <trkpt lat="49.34465" lon="-0.85234">
        <ele>84.070978</ele>
        <time>2022-08-02T13:59:35.000Z</time>
      </trkpt>
      <trkpt lat="49.34465" lon="-0.85228">
        <ele>84.104629</ele>
        <time>2022-08-02T13:59:36.000Z</time>
      </trkpt>
      <trkpt lat="49.34464" lon="-0.85223">
        <ele>84.139179</ele>
        <time>2022-08-02T13:59:37.000Z</time>
      </trkpt>
      <trkpt lat="49.34463" lon="-0.85218">
        <ele>84.172167</ele>
        <time>2022-08-02T13:59:38.000Z</time>
      </trkpt>
      <trkpt lat="49.34462" lon="-0.85213">
        <ele>84.201756</ele>
        <time>2022-08-02T13:59:39.000Z</time>
      </trkpt>
      <trkpt lat="49.34462" lon="-0.85209">
        <ele>84.228404</ele>
        <time>2022-08-02T13:59:40.000Z</time>
      </trkpt>
      <trkpt lat="49.34461" lon="-0.85205">
        <ele>84.2572</ele>
        <time>2022-08-02T13:59:41.000Z</time>
      </trkpt>
      <trkpt lat="49.34461" lon="-0.85201">
        <ele>84.283849</ele>
        <time>2022-08-02T13:59:42.000Z</time>
      </trkpt>
      <trkpt lat="49.3446" lon="-0.85196">
        <ele>84.310968</ele>
        <time>2022-08-02T13:59:43.000Z</time>
      </trkpt>
      <trkpt lat="49.3446" lon="-0.85192">
        <ele>84.337116</ele>
        <time>2022-08-02T13:59:44.000Z</time>
      </trkpt>
      <trkpt lat="49.34459" lon="-0.85188">
        <ele>84.366041</ele>
        <time>2022-08-02T13:59:45.000Z</time>
      </trkpt>
      <trkpt lat="49.34458" lon="-0.85184">
        <ele>84.394685</ele>
        <time>2022-08-02T13:59:46.000Z</time>
      </trkpt>
      <trkpt lat="49.34458" lon="-0.85179">
        <ele>84.425098</ele>
        <time>2022-08-02T13:59:47.000Z</time>
      </trkpt>
      <trkpt lat="49.34457" lon="-0.85174">
        <ele>84.459033</ele>
        <time>2022-08-02T13:59:48.000Z</time>
      </trkpt>
      <trkpt lat="49.34457" lon="-0.85168">
        <ele>84.493937</ele>
        <time>2022-08-02T13:59:49.000Z</time>
      </trkpt>
      <trkpt lat="49.34456" lon="-0.85162">
        <ele>84.531891</ele>
        <time>2022-08-02T13:59:50.000Z</time>
      </trkpt>
      <trkpt lat="49.34455" lon="-0.85157">
        <ele>84.568793</ele>
        <time>2022-08-02T13:59:51.000Z</time>
      </trkpt>
      <trkpt lat="49.34454" lon="-0.85151">
        <ele>84.6021</ele>
        <time>2022-08-02T13:59:52.000Z</time>
      </trkpt>
      <trkpt lat="49.34453" lon="-0.85146">
        <ele>84.63664</ele>
        <time>2022-08-02T13:59:53.000Z</time>
      </trkpt>
      <trkpt lat="49.34453" lon="-0.85141">
        <ele>84.671191</ele>
        <time>2022-08-02T13:59:54.000Z</time>
      </trkpt>
      <trkpt lat="49.34452" lon="-0.85135">
        <ele>84.707813</ele>
        <time>2022-08-02T13:59:55.000Z</time>
      </trkpt>
      <trkpt lat="49.34451" lon="-0.85129">
        <ele>84.747346</ele>
        <time>2022-08-02T13:59:56.000Z</time>
      </trkpt>
      <trkpt lat="49.3445" lon="-0.85122">
        <ele>84.790144</ele>
        <time>2022-08-02T13:59:57.000Z</time>
      </trkpt>
      <trkpt lat="49.34449" lon="-0.85116">
        <ele>84.834577</ele>
        <time>2022-08-02T13:59:58.000Z</time>
      </trkpt>
      <trkpt lat="49.34447" lon="-0.85109">
        <ele>84.881365</ele>
        <time>2022-08-02T13:59:59.000Z</time>
      </trkpt>
      <trkpt lat="49.34446" lon="-0.85101">
        <ele>84.928488</ele>
        <time>2022-08-02T14:00:00.000Z</time>
      </trkpt>
      <trkpt lat="49.34445" lon="-0.85095">
        <ele>84.973185</ele>
        <time>2022-08-02T14:00:01.000Z</time>
      </trkpt>
      <trkpt lat="49.34443" lon="-0.85088">
        <ele>85.018784</ele>
        <time>2022-08-02T14:00:02.000Z</time>
      </trkpt>
      <trkpt lat="49.34442" lon="-0.85081">
        <ele>85.060908</ele>
        <time>2022-08-02T14:00:03.000Z</time>
      </trkpt>
      <trkpt lat="49.34441" lon="-0.85074">
        <ele>85.106561</ele>
        <time>2022-08-02T14:00:04.000Z</time>
      </trkpt>
      <trkpt lat="49.34441" lon="-0.85067">
        <ele>85.150252</ele>
        <time>2022-08-02T14:00:05.000Z</time>
      </trkpt>
      <trkpt lat="49.3444" lon="-0.85061">
        <ele>85.191657</ele>
        <time>2022-08-02T14:00:06.000Z</time>
      </trkpt>
      <trkpt lat="49.34439" lon="-0.85054">
        <ele>85.236856</ele>
        <time>2022-08-02T14:00:07.000Z</time>
      </trkpt>
      <trkpt lat="49.34438" lon="-0.85047">
        <ele>85.281386</ele>
        <time>2022-08-02T14:00:08.000Z</time>
      </trkpt>
      <trkpt lat="49.34438" lon="-0.85039">
        <ele>85.328779</ele>
        <time>2022-08-02T14:00:09.000Z</time>
      </trkpt>
      <trkpt lat="49.34437" lon="-0.85032">
        <ele>85.375828</ele>
        <time>2022-08-02T14:00:10.000Z</time>
      </trkpt>
      <trkpt lat="49.34436" lon="-0.85025">
        <ele>85.423808</ele>
        <time>2022-08-02T14:00:11.000Z</time>
      </trkpt>
      <trkpt lat="49.34435" lon="-0.85018">
        <ele>85.469428</ele>
        <time>2022-08-02T14:00:12.000Z</time>
      </trkpt>
      <trkpt lat="49.34433" lon="-0.85011">
        <ele>85.517408</ele>
        <time>2022-08-02T14:00:13.000Z</time>
      </trkpt>
      <trkpt lat="49.34432" lon="-0.85003">
        <ele>85.564531</ele>
        <time>2022-08-02T14:00:14.000Z</time>
      </trkpt>
      <trkpt lat="49.34431" lon="-0.84996">
        <ele>85.608409</ele>
        <time>2022-08-02T14:00:15.000Z</time>
      </trkpt>
      <trkpt lat="49.34429" lon="-0.8499">
        <ele>85.648569</ele>
        <time>2022-08-02T14:00:16.000Z</time>
      </trkpt>
      <trkpt lat="49.34429" lon="-0.84983">
        <ele>85.691871</ele>
        <time>2022-08-02T14:00:17.000Z</time>
      </trkpt>
      <trkpt lat="49.34427" lon="-0.84976">
        <ele>85.734864</ele>
        <time>2022-08-02T14:00:18.000Z</time>
      </trkpt>
      <trkpt lat="49.34426" lon="-0.84969">
        <ele>85.777567</ele>
        <time>2022-08-02T14:00:19.000Z</time>
      </trkpt>
      <trkpt lat="49.34424" lon="-0.84962">
        <ele>85.823449</ele>
        <time>2022-08-02T14:00:20.000Z</time>
      </trkpt>
      <trkpt lat="49.34423" lon="-0.84955">
        <ele>85.864624</ele>
        <time>2022-08-02T14:00:21.000Z</time>
      </trkpt>
      <trkpt lat="49.34421" lon="-0.84948">
        <ele>85.90844</ele>
        <time>2022-08-02T14:00:22.000Z</time>
      </trkpt>
      <trkpt lat="49.3442" lon="-0.84941">
        <ele>85.953372</ele>
        <time>2022-08-02T14:00:23.000Z</time>
      </trkpt>
      <trkpt lat="49.34418" lon="-0.84933">
        <ele>86.000902</ele>
        <time>2022-08-02T14:00:24.000Z</time>
      </trkpt>
      <trkpt lat="49.34416" lon="-0.84926">
        <ele>86.045601</ele>
        <time>2022-08-02T14:00:25.000Z</time>
      </trkpt>
      <trkpt lat="49.34415" lon="-0.84919">
        <ele>86.089417</ele>
        <time>2022-08-02T14:00:26.000Z</time>
      </trkpt>
      <trkpt lat="49.34413" lon="-0.84912">
        <ele>86.132676</ele>
        <time>2022-08-02T14:00:27.000Z</time>
      </trkpt>
      <trkpt lat="49.34412" lon="-0.84905">
        <ele>86.175379</ele>
        <time>2022-08-02T14:00:28.000Z</time>
      </trkpt>
      <trkpt lat="49.34411" lon="-0.84898">
        <ele>86.217522</ele>
        <time>2022-08-02T14:00:29.000Z</time>
      </trkpt>
      <trkpt lat="49.34409" lon="-0.84891">
        <ele>86.258813</ele>
        <time>2022-08-02T14:00:30.000Z</time>
      </trkpt>
      <trkpt lat="49.34408" lon="-0.84884">
        <ele>86.302629</ele>
        <time>2022-08-02T14:00:31.000Z</time>
      </trkpt>
      <trkpt lat="49.34407" lon="-0.84877">
        <ele>86.345534</ele>
        <time>2022-08-02T14:00:32.000Z</time>
      </trkpt>
      <trkpt lat="49.34405" lon="-0.8487">
        <ele>86.392147</ele>
        <time>2022-08-02T14:00:33.000Z</time>
      </trkpt>
      <trkpt lat="49.34404" lon="-0.84863">
        <ele>86.435963</ele>
        <time>2022-08-02T14:00:34.000Z</time>
      </trkpt>
      <trkpt lat="49.34401" lon="-0.84856">
        <ele>86.479227</ele>
        <time>2022-08-02T14:00:35.000Z</time>
      </trkpt>
      <trkpt lat="49.34399" lon="-0.8485">
        <ele>86.523775</ele>
        <time>2022-08-02T14:00:36.000Z</time>
      </trkpt>
      <trkpt lat="49.34397" lon="-0.84843">
        <ele>86.565854</ele>
        <time>2022-08-02T14:00:37.000Z</time>
      </trkpt>
      <trkpt lat="49.34395" lon="-0.84838">
        <ele>86.605495</ele>
        <time>2022-08-02T14:00:38.000Z</time>
      </trkpt>
      <trkpt lat="49.34393" lon="-0.84831">
        <ele>86.646358</ele>
        <time>2022-08-02T14:00:39.000Z</time>
      </trkpt>
      <trkpt lat="49.3439" lon="-0.84826">
        <ele>86.685999</ele>
        <time>2022-08-02T14:00:40.000Z</time>
      </trkpt>
      <trkpt lat="49.34388" lon="-0.8482">
        <ele>86.728561</ele>
        <time>2022-08-02T14:00:41.000Z</time>
      </trkpt>
      <trkpt lat="49.34385" lon="-0.84814">
        <ele>86.769146</ele>
        <time>2022-08-02T14:00:42.000Z</time>
      </trkpt>
      <trkpt lat="49.34383" lon="-0.84808">
        <ele>86.807748</ele>
        <time>2022-08-02T14:00:43.000Z</time>
      </trkpt>
      <trkpt lat="49.34381" lon="-0.84803">
        <ele>86.846373</ele>
        <time>2022-08-02T14:00:44.000Z</time>
      </trkpt>
      <trkpt lat="49.34379" lon="-0.84796">
        <ele>86.889113</ele>
        <time>2022-08-02T14:00:45.000Z</time>
      </trkpt>
      <trkpt lat="49.34376" lon="-0.8479">
        <ele>86.931675</ele>
        <time>2022-08-02T14:00:46.000Z</time>
      </trkpt>
      <trkpt lat="49.34373" lon="-0.84784">
        <ele>86.97473</ele>
        <time>2022-08-02T14:00:47.000Z</time>
      </trkpt>
      <trkpt lat="49.34371" lon="-0.84778">
        <ele>87.020756</ele>
        <time>2022-08-02T14:00:48.000Z</time>
      </trkpt>
      <trkpt lat="49.34368" lon="-0.84771">
        <ele>87.068267</ele>
        <time>2022-08-02T14:00:49.000Z</time>
      </trkpt>
      <trkpt lat="49.34365" lon="-0.84765">
        <ele>87.110922</ele>
        <time>2022-08-02T14:00:50.000Z</time>
      </trkpt>
      <trkpt lat="49.34363" lon="-0.84758">
        <ele>87.154186</ele>
        <time>2022-08-02T14:00:51.000Z</time>
      </trkpt>
      <trkpt lat="49.34361" lon="-0.84752">
        <ele>87.200248</ele>
        <time>2022-08-02T14:00:52.000Z</time>
      </trkpt>
      <trkpt lat="49.34358" lon="-0.84745">
        <ele>87.225684</ele>
        <time>2022-08-02T14:00:53.000Z</time>
      </trkpt>
      <trkpt lat="49.34355" lon="-0.84739">
        <ele>87.245208</ele>
        <time>2022-08-02T14:00:54.000Z</time>
      </trkpt>
      <trkpt lat="49.34353" lon="-0.84732">
        <ele>87.265624</ele>
        <time>2022-08-02T14:00:55.000Z</time>
      </trkpt>
      <trkpt lat="49.3435" lon="-0.84726">
        <ele>87.286243</ele>
        <time>2022-08-02T14:00:56.000Z</time>
      </trkpt>
      <trkpt lat="49.34347" lon="-0.84719">
        <ele>87.307111</ele>
        <time>2022-08-02T14:00:57.000Z</time>
      </trkpt>
      <trkpt lat="49.34345" lon="-0.84712">
        <ele>87.327079</ele>
        <time>2022-08-02T14:00:58.000Z</time>
      </trkpt>
      <trkpt lat="49.34342" lon="-0.84706">
        <ele>87.347698</ele>
        <time>2022-08-02T14:00:59.000Z</time>
      </trkpt>
      <trkpt lat="49.34339" lon="-0.84699">
        <ele>87.368115</ele>
        <time>2022-08-02T14:01:00.000Z</time>
      </trkpt>
      <trkpt lat="49.34337" lon="-0.84692">
        <ele>87.387757</ele>
        <time>2022-08-02T14:01:01.000Z</time>
      </trkpt>
      <trkpt lat="49.34335" lon="-0.84685">
        <ele>87.408282</ele>
        <time>2022-08-02T14:01:02.000Z</time>
      </trkpt>
      <trkpt lat="49.34333" lon="-0.84678">
        <ele>87.429349</ele>
        <time>2022-08-02T14:01:03.000Z</time>
      </trkpt>
      <trkpt lat="49.34331" lon="-0.84671">
        <ele>87.448277</ele>
        <time>2022-08-02T14:01:04.000Z</time>
      </trkpt>
      <trkpt lat="49.34329" lon="-0.84664">
        <ele>87.468624</ele>
        <time>2022-08-02T14:01:05.000Z</time>
      </trkpt>
      <trkpt lat="49.34327" lon="-0.84657">
        <ele>87.488634</ele>
        <time>2022-08-02T14:01:06.000Z</time>
      </trkpt>
      <trkpt lat="49.34325" lon="-0.8465">
        <ele>87.508981</ele>
        <time>2022-08-02T14:01:07.000Z</time>
      </trkpt>
      <trkpt lat="49.34323" lon="-0.84643">
        <ele>87.528352</ele>
        <time>2022-08-02T14:01:08.000Z</time>
      </trkpt>
      <trkpt lat="49.34321" lon="-0.84636">
        <ele>87.547963</ele>
        <time>2022-08-02T14:01:09.000Z</time>
      </trkpt>
      <trkpt lat="49.34319" lon="-0.8463">
        <ele>87.566311</ele>
        <time>2022-08-02T14:01:10.000Z</time>
      </trkpt>
      <trkpt lat="49.34317" lon="-0.84624">
        <ele>87.584013</ele>
        <time>2022-08-02T14:01:11.000Z</time>
      </trkpt>
      <trkpt lat="49.34316" lon="-0.84617">
        <ele>87.602695</ele>
        <time>2022-08-02T14:01:12.000Z</time>
      </trkpt>
      <trkpt lat="49.34314" lon="-0.8461">
        <ele>87.622065</ele>
        <time>2022-08-02T14:01:13.000Z</time>
      </trkpt>
      <trkpt lat="49.34312" lon="-0.84604">
        <ele>87.640717</ele>
        <time>2022-08-02T14:01:14.000Z</time>
      </trkpt>
      <trkpt lat="49.3431" lon="-0.84597">
        <ele>87.659847</ele>
        <time>2022-08-02T14:01:15.000Z</time>
      </trkpt>
      <trkpt lat="49.34309" lon="-0.84591">
        <ele>87.676823</ele>
        <time>2022-08-02T14:01:16.000Z</time>
      </trkpt>
      <trkpt lat="49.34308" lon="-0.84585">
        <ele>87.693796</ele>
        <time>2022-08-02T14:01:17.000Z</time>
      </trkpt>
      <trkpt lat="49.34306" lon="-0.84579">
        <ele>87.708868</ele>
        <time>2022-08-02T14:01:18.000Z</time>
      </trkpt>
      <trkpt lat="49.34305" lon="-0.84575">
        <ele>87.720397</ele>
        <time>2022-08-02T14:01:19.000Z</time>
      </trkpt>
      <trkpt lat="49.34304" lon="-0.84572">
        <ele>87.729829</ele>
        <time>2022-08-02T14:01:20.000Z</time>
      </trkpt>
      <trkpt lat="49.34302" lon="-0.84568">
        <ele>87.741767</ele>
        <time>2022-08-02T14:01:22.000Z</time>
      </trkpt>
      <trkpt lat="49.34299" lon="-0.84555">
        <ele>87.779869</ele>
        <time>2022-08-02T14:02:51.000Z</time>
      </trkpt>
      <trkpt lat="49.34298" lon="-0.8455">
        <ele>87.791822</ele>
        <time>2022-08-02T14:02:52.000Z</time>
      </trkpt>
      <trkpt lat="49.34297" lon="-0.84545">
        <ele>87.806669</ele>
        <time>2022-08-02T14:02:53.000Z</time>
      </trkpt>
      <trkpt lat="49.34296" lon="-0.84539">
        <ele>87.823642</ele>
        <time>2022-08-02T14:02:54.000Z</time>
      </trkpt>
      <trkpt lat="49.34294" lon="-0.84532">
        <ele>87.841944</ele>
        <time>2022-08-02T14:02:55.000Z</time>
      </trkpt>
      <trkpt lat="49.34293" lon="-0.84525">
        <ele>87.861074</ele>
        <time>2022-08-02T14:02:56.000Z</time>
      </trkpt>
      <trkpt lat="49.34292" lon="-0.84518">
        <ele>87.879836</ele>
        <time>2022-08-02T14:02:57.000Z</time>
      </trkpt>
      <trkpt lat="49.3429" lon="-0.84511">
        <ele>87.899504</ele>
        <time>2022-08-02T14:02:58.000Z</time>
      </trkpt>
      <trkpt lat="49.34289" lon="-0.84504">
        <ele>87.91856</ele>
        <time>2022-08-02T14:02:59.000Z</time>
      </trkpt>
      <trkpt lat="49.34288" lon="-0.84497">
        <ele>87.940515</ele>
        <time>2022-08-02T14:03:00.000Z</time>
      </trkpt>
      <trkpt lat="49.34286" lon="-0.8449">
        <ele>87.974338</ele>
        <time>2022-08-02T14:03:01.000Z</time>
      </trkpt>
      <trkpt lat="49.34285" lon="-0.84483">
        <ele>88.006666</ele>
        <time>2022-08-02T14:03:02.000Z</time>
      </trkpt>
      <trkpt lat="49.34284" lon="-0.84476">
        <ele>88.038452</ele>
        <time>2022-08-02T14:03:03.000Z</time>
      </trkpt>
      <trkpt lat="49.34283" lon="-0.84468">
        <ele>88.07121</ele>
        <time>2022-08-02T14:03:04.000Z</time>
      </trkpt>
      <trkpt lat="49.34282" lon="-0.84461">
        <ele>88.105689</ele>
        <time>2022-08-02T14:03:05.000Z</time>
      </trkpt>
      <trkpt lat="49.34281" lon="-0.84453">
        <ele>88.140043</ele>
        <time>2022-08-02T14:03:06.000Z</time>
      </trkpt>
      <trkpt lat="49.3428" lon="-0.84446">
        <ele>88.172801</ele>
        <time>2022-08-02T14:03:07.000Z</time>
      </trkpt>
      <trkpt lat="49.3428" lon="-0.84438">
        <ele>88.205113</ele>
        <time>2022-08-02T14:03:08.000Z</time>
      </trkpt>
      <trkpt lat="49.34279" lon="-0.84431">
        <ele>88.237672</ele>
        <time>2022-08-02T14:03:09.000Z</time>
      </trkpt>
      <trkpt lat="49.34278" lon="-0.84423">
        <ele>88.27129</ele>
        <time>2022-08-02T14:03:10.000Z</time>
      </trkpt>
      <trkpt lat="49.34278" lon="-0.84416">
        <ele>88.304726</ele>
        <time>2022-08-02T14:03:11.000Z</time>
      </trkpt>
      <trkpt lat="49.34277" lon="-0.84408">
        <ele>88.337998</ele>
        <time>2022-08-02T14:03:12.000Z</time>
      </trkpt>
      <trkpt lat="49.34277" lon="-0.84401">
        <ele>88.370996</ele>
        <time>2022-08-02T14:03:13.000Z</time>
      </trkpt>
      <trkpt lat="49.34277" lon="-0.84393">
        <ele>88.406127</ele>
        <time>2022-08-02T14:03:14.000Z</time>
      </trkpt>
      <trkpt lat="49.34277" lon="-0.84385">
        <ele>88.441054</ele>
        <time>2022-08-02T14:03:15.000Z</time>
      </trkpt>
      <trkpt lat="49.34276" lon="-0.84377">
        <ele>88.474052</ele>
        <time>2022-08-02T14:03:16.000Z</time>
      </trkpt>
      <trkpt lat="49.34276" lon="-0.84371">
        <ele>88.50316</ele>
        <time>2022-08-02T14:03:17.000Z</time>
      </trkpt>
      <trkpt lat="49.34275" lon="-0.84364">
        <ele>88.532859</ele>
        <time>2022-08-02T14:03:18.000Z</time>
      </trkpt>
      <trkpt lat="49.34275" lon="-0.84357">
        <ele>88.562993</ele>
        <time>2022-08-02T14:03:19.000Z</time>
      </trkpt>
      <trkpt lat="49.34274" lon="-0.8435">
        <ele>88.593659</ele>
        <time>2022-08-02T14:03:20.000Z</time>
      </trkpt>
      <trkpt lat="49.34274" lon="-0.84343">
        <ele>88.624904</ele>
        <time>2022-08-02T14:03:21.000Z</time>
      </trkpt>
      <trkpt lat="49.34273" lon="-0.84336">
        <ele>88.657232</ele>
        <time>2022-08-02T14:03:22.000Z</time>
      </trkpt>
      <trkpt lat="49.34272" lon="-0.84329">
        <ele>88.69023</ele>
        <time>2022-08-02T14:03:23.000Z</time>
      </trkpt>
      <trkpt lat="49.34272" lon="-0.84321">
        <ele>88.724483</ele>
        <time>2022-08-02T14:03:24.000Z</time>
      </trkpt>
      <trkpt lat="49.34272" lon="-0.84313">
        <ele>88.759234</ele>
        <time>2022-08-02T14:03:25.000Z</time>
      </trkpt>
      <trkpt lat="49.34272" lon="-0.84305">
        <ele>88.794424</ele>
        <time>2022-08-02T14:03:26.000Z</time>
      </trkpt>
      <trkpt lat="49.34271" lon="-0.84297">
        <ele>88.830627</ele>
        <time>2022-08-02T14:03:27.000Z</time>
      </trkpt>
      <trkpt lat="49.3427" lon="-0.84289">
        <ele>88.865378</ele>
        <time>2022-08-02T14:03:28.000Z</time>
      </trkpt>
      <trkpt lat="49.3427" lon="-0.84281">
        <ele>88.898561</ele>
        <time>2022-08-02T14:03:29.000Z</time>
      </trkpt>
      <trkpt lat="49.34269" lon="-0.84274">
        <ele>88.930732</ele>
        <time>2022-08-02T14:03:30.000Z</time>
      </trkpt>
      <trkpt lat="49.34269" lon="-0.84267">
        <ele>88.96235</ele>
        <time>2022-08-02T14:03:31.000Z</time>
      </trkpt>
      <trkpt lat="49.34269" lon="-0.8426">
        <ele>88.994114</ele>
        <time>2022-08-02T14:03:32.000Z</time>
      </trkpt>
      <trkpt lat="49.34268" lon="-0.84252">
        <ele>89.026951</ele>
        <time>2022-08-02T14:03:33.000Z</time>
      </trkpt>
      <trkpt lat="49.34268" lon="-0.84245">
        <ele>89.059072</ele>
        <time>2022-08-02T14:03:34.000Z</time>
      </trkpt>
      <trkpt lat="49.34267" lon="-0.84238">
        <ele>89.09207</ele>
        <time>2022-08-02T14:03:35.000Z</time>
      </trkpt>
      <trkpt lat="49.34267" lon="-0.84231">
        <ele>89.123075</ele>
        <time>2022-08-02T14:03:36.000Z</time>
      </trkpt>
      <trkpt lat="49.34267" lon="-0.84224">
        <ele>89.136304</ele>
        <time>2022-08-02T14:03:37.000Z</time>
      </trkpt>
      <trkpt lat="49.34266" lon="-0.84217">
        <ele>89.102048</ele>
        <time>2022-08-02T14:03:38.000Z</time>
      </trkpt>
      <trkpt lat="49.34266" lon="-0.84209">
        <ele>89.066663</ele>
        <time>2022-08-02T14:03:39.000Z</time>
      </trkpt>
      <trkpt lat="49.34265" lon="-0.84202">
        <ele>89.032464</ele>
        <time>2022-08-02T14:03:40.000Z</time>
      </trkpt>
      <trkpt lat="49.34264" lon="-0.84196">
        <ele>88.999317</ele>
        <time>2022-08-02T14:03:41.000Z</time>
      </trkpt>
      <trkpt lat="49.34263" lon="-0.8419">
        <ele>88.969243</ele>
        <time>2022-08-02T14:03:42.000Z</time>
      </trkpt>
      <trkpt lat="49.34262" lon="-0.84184">
        <ele>88.939523</ele>
        <time>2022-08-02T14:03:43.000Z</time>
      </trkpt>
      <trkpt lat="49.34261" lon="-0.84178">
        <ele>88.910275</ele>
        <time>2022-08-02T14:03:44.000Z</time>
      </trkpt>
      <trkpt lat="49.3426" lon="-0.84172">
        <ele>88.881073</ele>
        <time>2022-08-02T14:03:45.000Z</time>
      </trkpt>
      <trkpt lat="49.3426" lon="-0.84167">
        <ele>88.85361</ele>
        <time>2022-08-02T14:03:46.000Z</time>
      </trkpt>
      <trkpt lat="49.34259" lon="-0.84161">
        <ele>88.824408</ele>
        <time>2022-08-02T14:03:47.000Z</time>
      </trkpt>
      <trkpt lat="49.34258" lon="-0.84156">
        <ele>88.798045</ele>
        <time>2022-08-02T14:03:48.000Z</time>
      </trkpt>
      <trkpt lat="49.34257" lon="-0.8415">
        <ele>88.768934</ele>
        <time>2022-08-02T14:03:49.000Z</time>
      </trkpt>
      <trkpt lat="49.34256" lon="-0.84144">
        <ele>88.739686</ele>
        <time>2022-08-02T14:03:50.000Z</time>
      </trkpt>
      <trkpt lat="49.34256" lon="-0.84139">
        <ele>88.714237</ele>
        <time>2022-08-02T14:03:51.000Z</time>
      </trkpt>
      <trkpt lat="49.34256" lon="-0.84134">
        <ele>88.690729</ele>
        <time>2022-08-02T14:03:52.000Z</time>
      </trkpt>
      <trkpt lat="49.34255" lon="-0.84129">
        <ele>88.667222</ele>
        <time>2022-08-02T14:03:53.000Z</time>
      </trkpt>
      <trkpt lat="49.34254" lon="-0.84124">
        <ele>88.639854</ele>
        <time>2022-08-02T14:03:54.000Z</time>
      </trkpt>
      <trkpt lat="49.34254" lon="-0.84118">
        <ele>88.611225</ele>
        <time>2022-08-02T14:03:55.000Z</time>
      </trkpt>
      <trkpt lat="49.34253" lon="-0.84112">
        <ele>88.581324</ele>
        <time>2022-08-02T14:03:56.000Z</time>
      </trkpt>
      <trkpt lat="49.34252" lon="-0.84106">
        <ele>88.551609</ele>
        <time>2022-08-02T14:03:57.000Z</time>
      </trkpt>
      <trkpt lat="49.34251" lon="-0.841">
        <ele>88.521593</ele>
        <time>2022-08-02T14:03:58.000Z</time>
      </trkpt>
      <trkpt lat="49.34251" lon="-0.84095">
        <ele>88.494687</ele>
        <time>2022-08-02T14:03:59.000Z</time>
      </trkpt>
      <trkpt lat="49.34251" lon="-0.8409">
        <ele>88.47312</ele>
        <time>2022-08-02T14:04:00.000Z</time>
      </trkpt>
      <trkpt lat="49.34253" lon="-0.84087">
        <ele>88.45422</ele>
        <time>2022-08-02T14:04:01.000Z</time>
      </trkpt>
      <trkpt lat="49.34254" lon="-0.84086">
        <ele>88.440674</ele>
        <time>2022-08-02T14:04:02.000Z</time>
      </trkpt>
      <trkpt lat="49.34256" lon="-0.84085">
        <ele>88.426054</ele>
        <time>2022-08-02T14:04:03.000Z</time>
      </trkpt>
      <trkpt lat="49.34259" lon="-0.84085">
        <ele>88.406545</ele>
        <time>2022-08-02T14:04:05.000Z</time>
      </trkpt>
      <trkpt lat="49.34253" lon="-0.84081">
        <ele>88.357468</ele>
        <time>2022-08-02T14:07:11.000Z</time>
      </trkpt>
      <trkpt lat="49.34256" lon="-0.8408">
        <ele>88.330524</ele>
        <time>2022-08-02T14:07:12.000Z</time>
      </trkpt>
      <trkpt lat="49.3426" lon="-0.84079">
        <ele>88.30358</ele>
        <time>2022-08-02T14:07:13.000Z</time>
      </trkpt>
      <trkpt lat="49.34263" lon="-0.84078">
        <ele>88.279145</ele>
        <time>2022-08-02T14:07:14.000Z</time>
      </trkpt>
      <trkpt lat="49.34267" lon="-0.84077">
        <ele>88.245124</ele>
        <time>2022-08-02T14:07:15.000Z</time>
      </trkpt>
      <trkpt lat="49.34271" lon="-0.84076">
        <ele>88.218714</ele>
        <time>2022-08-02T14:07:16.000Z</time>
      </trkpt>
      <trkpt lat="49.34275" lon="-0.84075">
        <ele>88.184819</ele>
        <time>2022-08-02T14:07:17.000Z</time>
      </trkpt>
      <trkpt lat="49.34278" lon="-0.84074">
        <ele>88.160171</ele>
        <time>2022-08-02T14:07:18.000Z</time>
      </trkpt>
      <trkpt lat="49.34282" lon="-0.84073">
        <ele>88.133338</ele>
        <time>2022-08-02T14:07:19.000Z</time>
      </trkpt>
      <trkpt lat="49.34285" lon="-0.84072">
        <ele>88.106987</ele>
        <time>2022-08-02T14:07:20.000Z</time>
      </trkpt>
      <trkpt lat="49.34288" lon="-0.84071">
        <ele>88.086931</ele>
        <time>2022-08-02T14:07:21.000Z</time>
      </trkpt>
      <trkpt lat="49.34292" lon="-0.8407">
        <ele>88.060293</ele>
        <time>2022-08-02T14:07:22.000Z</time>
      </trkpt>
      <trkpt lat="49.34295" lon="-0.84069">
        <ele>88.03374</ele>
        <time>2022-08-02T14:07:23.000Z</time>
      </trkpt>
      <trkpt lat="49.34298" lon="-0.84068">
        <ele>88.009204</ele>
        <time>2022-08-02T14:07:24.000Z</time>
      </trkpt>
      <trkpt lat="49.34302" lon="-0.84067">
        <ele>87.981639</ele>
        <time>2022-08-02T14:07:25.000Z</time>
      </trkpt>
      <trkpt lat="49.34305" lon="-0.84066">
        <ele>87.956992</ele>
        <time>2022-08-02T14:07:26.000Z</time>
      </trkpt>
      <trkpt lat="49.34308" lon="-0.84065">
        <ele>87.932455</ele>
        <time>2022-08-02T14:07:27.000Z</time>
      </trkpt>
      <trkpt lat="49.34312" lon="-0.84064">
        <ele>87.905622</ele>
        <time>2022-08-02T14:07:28.000Z</time>
      </trkpt>
      <trkpt lat="49.34316" lon="-0.84062">
        <ele>87.876264</ele>
        <time>2022-08-02T14:07:29.000Z</time>
      </trkpt>
      <trkpt lat="49.34319" lon="-0.8406">
        <ele>87.845929</ele>
        <time>2022-08-02T14:07:30.000Z</time>
      </trkpt>
      <trkpt lat="49.34323" lon="-0.84059">
        <ele>87.816445</ele>
        <time>2022-08-02T14:07:31.000Z</time>
      </trkpt>
      <trkpt lat="49.34327" lon="-0.84057">
        <ele>87.779212</ele>
        <time>2022-08-02T14:07:32.000Z</time>
      </trkpt>
      <trkpt lat="49.34331" lon="-0.84056">
        <ele>87.730891</ele>
        <time>2022-08-02T14:07:33.000Z</time>
      </trkpt>
      <trkpt lat="49.34335" lon="-0.84055">
        <ele>87.675263</ele>
        <time>2022-08-02T14:07:34.000Z</time>
      </trkpt>
      <trkpt lat="49.34339" lon="-0.84053">
        <ele>87.627597</ele>
        <time>2022-08-02T14:07:35.000Z</time>
      </trkpt>
      <trkpt lat="49.34343" lon="-0.84051">
        <ele>87.574174</ele>
        <time>2022-08-02T14:07:36.000Z</time>
      </trkpt>
      <trkpt lat="49.34347" lon="-0.84049">
        <ele>87.525371</ele>
        <time>2022-08-02T14:07:37.000Z</time>
      </trkpt>
      <trkpt lat="49.34351" lon="-0.84048">
        <ele>87.477896</ele>
        <time>2022-08-02T14:07:38.000Z</time>
      </trkpt>
      <trkpt lat="49.34355" lon="-0.84046">
        <ele>87.425324</ele>
        <time>2022-08-02T14:07:39.000Z</time>
      </trkpt>
      <trkpt lat="49.34359" lon="-0.84045">
        <ele>87.372938</ele>
        <time>2022-08-02T14:07:40.000Z</time>
      </trkpt>
      <trkpt lat="49.34364" lon="-0.84043">
        <ele>87.320908</ele>
        <time>2022-08-02T14:07:41.000Z</time>
      </trkpt>
      <trkpt lat="49.34368" lon="-0.84041">
        <ele>87.264414</ele>
        <time>2022-08-02T14:07:42.000Z</time>
      </trkpt>
      <trkpt lat="49.34373" lon="-0.84039">
        <ele>87.208115</ele>
        <time>2022-08-02T14:07:43.000Z</time>
      </trkpt>
      <trkpt lat="49.34377" lon="-0.84039">
        <ele>87.157905</ele>
        <time>2022-08-02T14:07:44.000Z</time>
      </trkpt>
      <trkpt lat="49.34381" lon="-0.84038">
        <ele>87.106827</ele>
        <time>2022-08-02T14:07:45.000Z</time>
      </trkpt>
      <trkpt lat="49.34385" lon="-0.84038">
        <ele>87.060331</ele>
        <time>2022-08-02T14:07:46.000Z</time>
      </trkpt>
      <trkpt lat="49.34389" lon="-0.84038">
        <ele>87.012952</ele>
        <time>2022-08-02T14:07:47.000Z</time>
      </trkpt>
      <trkpt lat="49.34392" lon="-0.84038">
        <ele>86.966356</ele>
        <time>2022-08-02T14:07:48.000Z</time>
      </trkpt>
      <trkpt lat="49.34395" lon="-0.84041">
        <ele>86.929498</ele>
        <time>2022-08-02T14:07:49.000Z</time>
      </trkpt>
      <trkpt lat="49.34397" lon="-0.84045">
        <ele>86.893687</ele>
        <time>2022-08-02T14:07:50.000Z</time>
      </trkpt>
      <trkpt lat="49.34398" lon="-0.84049">
        <ele>86.856167</ele>
        <time>2022-08-02T14:07:51.000Z</time>
      </trkpt>
      <trkpt lat="49.34399" lon="-0.84054">
        <ele>86.813993</ele>
        <time>2022-08-02T14:07:52.000Z</time>
      </trkpt>
      <trkpt lat="49.344" lon="-0.84059">
        <ele>86.767685</ele>
        <time>2022-08-02T14:07:53.000Z</time>
      </trkpt>
      <trkpt lat="49.34401" lon="-0.84065">
        <ele>86.722489</ele>
        <time>2022-08-02T14:07:54.000Z</time>
      </trkpt>
      <trkpt lat="49.34403" lon="-0.84071">
        <ele>86.673193</ele>
        <time>2022-08-02T14:07:55.000Z</time>
      </trkpt>
      <trkpt lat="49.34404" lon="-0.84077">
        <ele>86.624461</ele>
        <time>2022-08-02T14:07:56.000Z</time>
      </trkpt>
      <trkpt lat="49.34405" lon="-0.84082">
        <ele>86.577408</ele>
        <time>2022-08-02T14:07:57.000Z</time>
      </trkpt>
      <trkpt lat="49.34407" lon="-0.84088">
        <ele>86.53022</ele>
        <time>2022-08-02T14:07:58.000Z</time>
      </trkpt>
      <trkpt lat="49.34409" lon="-0.84092">
        <ele>86.484365</ele>
        <time>2022-08-02T14:07:59.000Z</time>
      </trkpt>
      <trkpt lat="49.34413" lon="-0.84094">
        <ele>86.437127</ele>
        <time>2022-08-02T14:08:00.000Z</time>
      </trkpt>
      <trkpt lat="49.34417" lon="-0.84096">
        <ele>86.389461</ele>
        <time>2022-08-02T14:08:01.000Z</time>
      </trkpt>
      <trkpt lat="49.34421" lon="-0.84097">
        <ele>86.338137</ele>
        <time>2022-08-02T14:08:02.000Z</time>
      </trkpt>
      <trkpt lat="49.34426" lon="-0.84097">
        <ele>86.279691</ele>
        <time>2022-08-02T14:08:03.000Z</time>
      </trkpt>
      <trkpt lat="49.34431" lon="-0.84098">
        <ele>86.21397</ele>
        <time>2022-08-02T14:08:04.000Z</time>
      </trkpt>
      <trkpt lat="49.34436" lon="-0.84098">
        <ele>86.15925</ele>
        <time>2022-08-02T14:08:05.000Z</time>
      </trkpt>
      <trkpt lat="49.3444" lon="-0.84098">
        <ele>86.104439</ele>
        <time>2022-08-02T14:08:06.000Z</time>
      </trkpt>
      <trkpt lat="49.34445" lon="-0.84099">
        <ele>86.046041</ele>
        <time>2022-08-02T14:08:07.000Z</time>
      </trkpt>
      <trkpt lat="49.34449" lon="-0.84098">
        <ele>85.994864</ele>
        <time>2022-08-02T14:08:08.000Z</time>
      </trkpt>
      <trkpt lat="49.34453" lon="-0.84098">
        <ele>85.941124</ele>
        <time>2022-08-02T14:08:09.000Z</time>
      </trkpt>
      <trkpt lat="49.34459" lon="-0.84097">
        <ele>85.877933</ele>
        <time>2022-08-02T14:08:10.000Z</time>
      </trkpt>
      <trkpt lat="49.34463" lon="-0.84097">
        <ele>85.81962</ele>
        <time>2022-08-02T14:08:11.000Z</time>
      </trkpt>
      <trkpt lat="49.34469" lon="-0.84097">
        <ele>85.753899</ele>
        <time>2022-08-02T14:08:12.000Z</time>
      </trkpt>
      <trkpt lat="49.34474" lon="-0.84095">
        <ele>85.686769</ele>
        <time>2022-08-02T14:08:13.000Z</time>
      </trkpt>
      <trkpt lat="49.34479" lon="-0.84094">
        <ele>85.627555</ele>
        <time>2022-08-02T14:08:14.000Z</time>
      </trkpt>
      <trkpt lat="49.34483" lon="-0.84092">
        <ele>85.554185</ele>
        <time>2022-08-02T14:08:15.000Z</time>
      </trkpt>
      <trkpt lat="49.34488" lon="-0.84091">
        <ele>85.457938</ele>
        <time>2022-08-02T14:08:16.000Z</time>
      </trkpt>
      <trkpt lat="49.34493" lon="-0.8409">
        <ele>85.372963</ele>
        <time>2022-08-02T14:08:17.000Z</time>
      </trkpt>
      <trkpt lat="49.34498" lon="-0.84089">
        <ele>85.282077</ele>
        <time>2022-08-02T14:08:18.000Z</time>
      </trkpt>
      <trkpt lat="49.34501" lon="-0.84088">
        <ele>85.214165</ele>
        <time>2022-08-02T14:08:19.000Z</time>
      </trkpt>
      <trkpt lat="49.34506" lon="-0.84086">
        <ele>85.122621</ele>
        <time>2022-08-02T14:08:20.000Z</time>
      </trkpt>
      <trkpt lat="49.3451" lon="-0.84085">
        <ele>85.042549</ele>
        <time>2022-08-02T14:08:21.000Z</time>
      </trkpt>
      <trkpt lat="49.34515" lon="-0.84083">
        <ele>84.956741</ele>
        <time>2022-08-02T14:08:22.000Z</time>
      </trkpt>
      <trkpt lat="49.34519" lon="-0.84082">
        <ele>84.878501</ele>
        <time>2022-08-02T14:08:23.000Z</time>
      </trkpt>
      <trkpt lat="49.34524" lon="-0.84081">
        <ele>84.786956</ele>
        <time>2022-08-02T14:08:24.000Z</time>
      </trkpt>
      <trkpt lat="49.34528" lon="-0.84079">
        <ele>84.700349</ele>
        <time>2022-08-02T14:08:25.000Z</time>
      </trkpt>
      <trkpt lat="49.34533" lon="-0.84078">
        <ele>84.614774</ele>
        <time>2022-08-02T14:08:26.000Z</time>
      </trkpt>
      <trkpt lat="49.34537" lon="-0.84076">
        <ele>84.523684</ele>
        <time>2022-08-02T14:08:27.000Z</time>
      </trkpt>
      <trkpt lat="49.34541" lon="-0.84075">
        <ele>84.4461</ele>
        <time>2022-08-02T14:08:28.000Z</time>
      </trkpt>
      <trkpt lat="49.34546" lon="-0.84074">
        <ele>84.355729</ele>
        <time>2022-08-02T14:08:29.000Z</time>
      </trkpt>
      <trkpt lat="49.3455" lon="-0.84073">
        <ele>84.276103</ele>
        <time>2022-08-02T14:08:30.000Z</time>
      </trkpt>
      <trkpt lat="49.34555" lon="-0.84073">
        <ele>84.197461</ele>
        <time>2022-08-02T14:08:31.000Z</time>
      </trkpt>
      <trkpt lat="49.34559" lon="-0.84072">
        <ele>84.10755</ele>
        <time>2022-08-02T14:08:32.000Z</time>
      </trkpt>
      <trkpt lat="49.34564" lon="-0.84072">
        <ele>84.02524</ele>
        <time>2022-08-02T14:08:33.000Z</time>
      </trkpt>
      <trkpt lat="49.34568" lon="-0.84072">
        <ele>83.946711</ele>
        <time>2022-08-02T14:08:34.000Z</time>
      </trkpt>
      <trkpt lat="49.34572" lon="-0.84072">
        <ele>83.875695</ele>
        <time>2022-08-02T14:08:35.000Z</time>
      </trkpt>
      <trkpt lat="49.34576" lon="-0.84072">
        <ele>83.802769</ele>
        <time>2022-08-02T14:08:36.000Z</time>
      </trkpt>
      <trkpt lat="49.3458" lon="-0.84072">
        <ele>83.731712</ele>
        <time>2022-08-02T14:08:37.000Z</time>
      </trkpt>
      <trkpt lat="49.34583" lon="-0.84072">
        <ele>83.658664</ele>
        <time>2022-08-02T14:08:38.000Z</time>
      </trkpt>
      <trkpt lat="49.34587" lon="-0.84071">
        <ele>83.598417</ele>
        <time>2022-08-02T14:08:39.000Z</time>
      </trkpt>
      <trkpt lat="49.34591" lon="-0.8407">
        <ele>83.515461</ele>
        <time>2022-08-02T14:08:40.000Z</time>
      </trkpt>
      <trkpt lat="49.34595" lon="-0.8407">
        <ele>83.441928</ele>
        <time>2022-08-02T14:08:41.000Z</time>
      </trkpt>
      <trkpt lat="49.34599" lon="-0.84069">
        <ele>83.364344</ele>
        <time>2022-08-02T14:08:42.000Z</time>
      </trkpt>
      <trkpt lat="49.34603" lon="-0.84068">
        <ele>83.290963</ele>
        <time>2022-08-02T14:08:43.000Z</time>
      </trkpt>
      <trkpt lat="49.34607" lon="-0.84068">
        <ele>83.214253</ele>
        <time>2022-08-02T14:08:44.000Z</time>
      </trkpt>
      <trkpt lat="49.34611" lon="-0.84069">
        <ele>83.140359</ele>
        <time>2022-08-02T14:08:45.000Z</time>
      </trkpt>
      <trkpt lat="49.34615" lon="-0.84069">
        <ele>83.063649</ele>
        <time>2022-08-02T14:08:46.000Z</time>
      </trkpt>
      <trkpt lat="49.34619" lon="-0.84069">
        <ele>82.985148</ele>
        <time>2022-08-02T14:08:47.000Z</time>
      </trkpt>
      <trkpt lat="49.34623" lon="-0.84068">
        <ele>82.906506</ele>
        <time>2022-08-02T14:08:48.000Z</time>
      </trkpt>
      <trkpt lat="49.34628" lon="-0.84068">
        <ele>82.829642</ele>
        <time>2022-08-02T14:08:49.000Z</time>
      </trkpt>
      <trkpt lat="49.34632" lon="-0.84068">
        <ele>82.745465</ele>
        <time>2022-08-02T14:08:50.000Z</time>
      </trkpt>
      <trkpt lat="49.34636" lon="-0.84068">
        <ele>82.666738</ele>
        <time>2022-08-02T14:08:51.000Z</time>
      </trkpt>
      <trkpt lat="49.34641" lon="-0.84068">
        <ele>82.584473</ele>
        <time>2022-08-02T14:08:52.000Z</time>
      </trkpt>
      <trkpt lat="49.34644" lon="-0.84068">
        <ele>82.51715</ele>
        <time>2022-08-02T14:08:53.000Z</time>
      </trkpt>
      <trkpt lat="49.34649" lon="-0.84068">
        <ele>82.427413</ele>
        <time>2022-08-02T14:08:54.000Z</time>
      </trkpt>
      <trkpt lat="49.34654" lon="-0.84067">
        <ele>82.337181</ele>
        <time>2022-08-02T14:08:55.000Z</time>
      </trkpt>
      <trkpt lat="49.34658" lon="-0.84067">
        <ele>82.260471</ele>
        <time>2022-08-02T14:08:56.000Z</time>
      </trkpt>
      <trkpt lat="49.34663" lon="-0.84067">
        <ele>82.17188</ele>
        <time>2022-08-02T14:08:57.000Z</time>
      </trkpt>
      <trkpt lat="49.34667" lon="-0.84067">
        <ele>82.094478</ele>
        <time>2022-08-02T14:08:58.000Z</time>
      </trkpt>
      <trkpt lat="49.34671" lon="-0.84067">
        <ele>82.011513</ele>
        <time>2022-08-02T14:08:59.000Z</time>
      </trkpt>
      <trkpt lat="49.34677" lon="-0.84067">
        <ele>81.911997</ele>
        <time>2022-08-02T14:09:00.000Z</time>
      </trkpt>
      <trkpt lat="49.34682" lon="-0.84066">
        <ele>81.823407</ele>
        <time>2022-08-02T14:09:01.000Z</time>
      </trkpt>
      <trkpt lat="49.34687" lon="-0.84066">
        <ele>81.723884</ele>
        <time>2022-08-02T14:09:02.000Z</time>
      </trkpt>
      <trkpt lat="49.34692" lon="-0.84066">
        <ele>81.628023</ele>
        <time>2022-08-02T14:09:03.000Z</time>
      </trkpt>
      <trkpt lat="49.34697" lon="-0.84066">
        <ele>81.534005</ele>
        <time>2022-08-02T14:09:04.000Z</time>
      </trkpt>
      <trkpt lat="49.34702" lon="-0.84066">
        <ele>81.45104</ele>
        <time>2022-08-02T14:09:05.000Z</time>
      </trkpt>
      <trkpt lat="49.34707" lon="-0.84066">
        <ele>81.362507</ele>
        <time>2022-08-02T14:09:06.000Z</time>
      </trkpt>
      <trkpt lat="49.34711" lon="-0.84066">
        <ele>81.274048</ele>
        <time>2022-08-02T14:09:07.000Z</time>
      </trkpt>
      <trkpt lat="49.34717" lon="-0.84066">
        <ele>81.174532</ele>
        <time>2022-08-02T14:09:08.000Z</time>
      </trkpt>
      <trkpt lat="49.34722" lon="-0.84066">
        <ele>81.086065</ele>
        <time>2022-08-02T14:09:09.000Z</time>
      </trkpt>
      <trkpt lat="49.34727" lon="-0.84066">
        <ele>80.986433</ele>
        <time>2022-08-02T14:09:10.000Z</time>
      </trkpt>
      <trkpt lat="49.34732" lon="-0.84066">
        <ele>80.890572</ele>
        <time>2022-08-02T14:09:11.000Z</time>
      </trkpt>
      <trkpt lat="49.34737" lon="-0.84066">
        <ele>80.80191</ele>
        <time>2022-08-02T14:09:12.000Z</time>
      </trkpt>
      <trkpt lat="49.34741" lon="-0.84065">
        <ele>80.720388</ele>
        <time>2022-08-02T14:09:13.000Z</time>
      </trkpt>
      <trkpt lat="49.34746" lon="-0.84065">
        <ele>80.637457</ele>
        <time>2022-08-02T14:09:14.000Z</time>
      </trkpt>
      <trkpt lat="49.3475" lon="-0.84065">
        <ele>80.560019</ele>
        <time>2022-08-02T14:09:15.000Z</time>
      </trkpt>
      <trkpt lat="49.34754" lon="-0.84065">
        <ele>80.484422</ele>
        <time>2022-08-02T14:09:16.000Z</time>
      </trkpt>
      <trkpt lat="49.34758" lon="-0.84066">
        <ele>80.412299</ele>
        <time>2022-08-02T14:09:17.000Z</time>
      </trkpt>
      <trkpt lat="49.34762" lon="-0.84066">
        <ele>80.336397</ele>
        <time>2022-08-02T14:09:18.000Z</time>
      </trkpt>
      <trkpt lat="49.34767" lon="-0.84067">
        <ele>80.252766</ele>
        <time>2022-08-02T14:09:19.000Z</time>
      </trkpt>
      <trkpt lat="49.34771" lon="-0.84068">
        <ele>80.169619</ele>
        <time>2022-08-02T14:09:20.000Z</time>
      </trkpt>
      <trkpt lat="49.34777" lon="-0.84068">
        <ele>80.069921</ele>
        <time>2022-08-02T14:09:21.000Z</time>
      </trkpt>
      <trkpt lat="49.34782" lon="-0.84069">
        <ele>79.968384</ele>
        <time>2022-08-02T14:09:22.000Z</time>
      </trkpt>
      <trkpt lat="49.34788" lon="-0.84069">
        <ele>79.868868</ele>
        <time>2022-08-02T14:09:23.000Z</time>
      </trkpt>
      <trkpt lat="49.34792" lon="-0.84069">
        <ele>79.780116</ele>
        <time>2022-08-02T14:09:24.000Z</time>
      </trkpt>
      <trkpt lat="49.34798" lon="-0.8407">
        <ele>79.678643</ele>
        <time>2022-08-02T14:09:25.000Z</time>
      </trkpt>
      <trkpt lat="49.34803" lon="-0.84071">
        <ele>79.589664</ele>
        <time>2022-08-02T14:09:26.000Z</time>
      </trkpt>
      <trkpt lat="49.34808" lon="-0.84071">
        <ele>79.489794</ele>
        <time>2022-08-02T14:09:27.000Z</time>
      </trkpt>
      <trkpt lat="49.34813" lon="-0.84071">
        <ele>79.39027</ele>
        <time>2022-08-02T14:09:28.000Z</time>
      </trkpt>
      <trkpt lat="49.34818" lon="-0.84072">
        <ele>79.301681</ele>
        <time>2022-08-02T14:09:29.000Z</time>
      </trkpt>
      <trkpt lat="49.34824" lon="-0.84073">
        <ele>79.199868</ele>
        <time>2022-08-02T14:09:30.000Z</time>
      </trkpt>
      <trkpt lat="49.34829" lon="-0.84074">
        <ele>79.110243</ele>
        <time>2022-08-02T14:09:31.000Z</time>
      </trkpt>
      <trkpt lat="49.34834" lon="-0.84075">
        <ele>79.014546</ele>
        <time>2022-08-02T14:09:32.000Z</time>
      </trkpt>
      <trkpt lat="49.34839" lon="-0.84076">
        <ele>78.936048</ele>
        <time>2022-08-02T14:09:33.000Z</time>
      </trkpt>
      <trkpt lat="49.34844" lon="-0.84078">
        <ele>78.924188</ele>
        <time>2022-08-02T14:09:34.000Z</time>
      </trkpt>
      <trkpt lat="49.34848" lon="-0.84079">
        <ele>78.912376</ele>
        <time>2022-08-02T14:09:35.000Z</time>
      </trkpt>
      <trkpt lat="49.34853" lon="-0.8408">
        <ele>78.899838</ele>
        <time>2022-08-02T14:09:36.000Z</time>
      </trkpt>
      <trkpt lat="49.34858" lon="-0.84081">
        <ele>78.887978</ele>
        <time>2022-08-02T14:09:37.000Z</time>
      </trkpt>
      <trkpt lat="49.34863" lon="-0.84082">
        <ele>78.875178</ele>
        <time>2022-08-02T14:09:38.000Z</time>
      </trkpt>
      <trkpt lat="49.34868" lon="-0.84083">
        <ele>78.863263</ele>
        <time>2022-08-02T14:09:39.000Z</time>
      </trkpt>
      <trkpt lat="49.34873" lon="-0.84085">
        <ele>78.850502</ele>
        <time>2022-08-02T14:09:40.000Z</time>
      </trkpt>
      <trkpt lat="49.34877" lon="-0.84087">
        <ele>78.840103</ele>
        <time>2022-08-02T14:09:41.000Z</time>
      </trkpt>
      <trkpt lat="49.34881" lon="-0.84088">
        <ele>78.831006</ele>
        <time>2022-08-02T14:09:42.000Z</time>
      </trkpt>
      <trkpt lat="49.34884" lon="-0.8409">
        <ele>78.823825</ele>
        <time>2022-08-02T14:09:43.000Z</time>
      </trkpt>
      <trkpt lat="49.34886" lon="-0.8409">
        <ele>78.818136</ele>
        <time>2022-08-02T14:09:44.000Z</time>
      </trkpt>
      <trkpt lat="49.34889" lon="-0.84091">
        <ele>78.811057</ele>
        <time>2022-08-02T14:09:46.000Z</time>
      </trkpt>
      <trkpt lat="49.34895" lon="-0.84084">
        <ele>78.79333</ele>
        <time>2022-08-02T14:09:55.000Z</time>
      </trkpt>
      <trkpt lat="49.34895" lon="-0.84081">
        <ele>78.788723</ele>
        <time>2022-08-02T14:09:56.000Z</time>
      </trkpt>
      <trkpt lat="49.34895" lon="-0.84078">
        <ele>78.783957</ele>
        <time>2022-08-02T14:09:57.000Z</time>
      </trkpt>
      <trkpt lat="49.34895" lon="-0.84076">
        <ele>78.779449</ele>
        <time>2022-08-02T14:09:58.000Z</time>
      </trkpt>
      <trkpt lat="49.34895" lon="-0.84073">
        <ele>78.774628</ele>
        <time>2022-08-02T14:09:59.000Z</time>
      </trkpt>
      <trkpt lat="49.34895" lon="-0.8407">
        <ele>78.770074</ele>
        <time>2022-08-02T14:10:00.000Z</time>
      </trkpt>
      <trkpt lat="49.34896" lon="-0.84065">
        <ele>78.761526</ele>
        <time>2022-08-02T14:10:02.000Z</time>
      </trkpt>
      <trkpt lat="49.34897" lon="-0.8406">
        <ele>78.753712</ele>
        <time>2022-08-02T14:10:04.000Z</time>
      </trkpt>
      <trkpt lat="49.34898" lon="-0.84055">
        <ele>78.746234</ele>
        <time>2022-08-02T14:10:06.000Z</time>
      </trkpt>
      <trkpt lat="49.34899" lon="-0.84053">
        <ele>78.7413</ele>
        <time>2022-08-02T14:10:09.000Z</time>
      </trkpt>
      <trkpt lat="49.34902" lon="-0.84041">
        <ele>78.722154</ele>
        <time>2022-08-02T14:10:37.000Z</time>
      </trkpt>
      <trkpt lat="49.34903" lon="-0.84036">
        <ele>78.712939</ele>
        <time>2022-08-02T14:10:38.000Z</time>
      </trkpt>
      <trkpt lat="49.34904" lon="-0.8403">
        <ele>78.703868</ele>
        <time>2022-08-02T14:10:39.000Z</time>
      </trkpt>
      <trkpt lat="49.34906" lon="-0.84025">
        <ele>78.693862</ele>
        <time>2022-08-02T14:10:40.000Z</time>
      </trkpt>
      <trkpt lat="49.34907" lon="-0.84018">
        <ele>78.683268</ele>
        <time>2022-08-02T14:10:41.000Z</time>
      </trkpt>
      <trkpt lat="49.34909" lon="-0.84012">
        <ele>78.672821</ele>
        <time>2022-08-02T14:10:42.000Z</time>
      </trkpt>
      <trkpt lat="49.34911" lon="-0.84006">
        <ele>78.661937</ele>
        <time>2022-08-02T14:10:43.000Z</time>
      </trkpt>
      <trkpt lat="49.34913" lon="-0.84">
        <ele>78.651623</ele>
        <time>2022-08-02T14:10:44.000Z</time>
      </trkpt>
      <trkpt lat="49.34915" lon="-0.83995">
        <ele>78.641241</ele>
        <time>2022-08-02T14:10:45.000Z</time>
      </trkpt>
      <trkpt lat="49.34919" lon="-0.83984">
        <ele>78.620831</ele>
        <time>2022-08-02T14:10:47.000Z</time>
      </trkpt>
      <trkpt lat="49.34921" lon="-0.83978">
        <ele>78.610715</ele>
        <time>2022-08-02T14:10:48.000Z</time>
      </trkpt>
      <trkpt lat="49.34923" lon="-0.83973">
        <ele>78.600965</ele>
        <time>2022-08-02T14:10:49.000Z</time>
      </trkpt>
      <trkpt lat="49.34925" lon="-0.83967">
        <ele>78.590712</ele>
        <time>2022-08-02T14:10:50.000Z</time>
      </trkpt>
      <trkpt lat="49.34928" lon="-0.83962">
        <ele>78.580329</ele>
        <time>2022-08-02T14:10:51.000Z</time>
      </trkpt>
      <trkpt lat="49.34931" lon="-0.83956">
        <ele>78.569089</ele>
        <time>2022-08-02T14:10:52.000Z</time>
      </trkpt>
      <trkpt lat="49.34933" lon="-0.83951">
        <ele>78.5587</ele>
        <time>2022-08-02T14:10:53.000Z</time>
      </trkpt>
      <trkpt lat="49.34935" lon="-0.83945">
        <ele>78.548175</ele>
        <time>2022-08-02T14:10:54.000Z</time>
      </trkpt>
      <trkpt lat="49.34938" lon="-0.83939">
        <ele>78.537121</ele>
        <time>2022-08-02T14:10:55.000Z</time>
      </trkpt>
      <trkpt lat="49.34941" lon="-0.83933">
        <ele>78.525252</ele>
        <time>2022-08-02T14:10:56.000Z</time>
      </trkpt>
      <trkpt lat="49.34943" lon="-0.83928">
        <ele>78.514204</ele>
        <time>2022-08-02T14:10:57.000Z</time>
      </trkpt>
      <trkpt lat="49.34945" lon="-0.83921">
        <ele>78.502731</ele>
        <time>2022-08-02T14:10:58.000Z</time>
      </trkpt>
      <trkpt lat="49.34948" lon="-0.83915">
        <ele>78.543889</ele>
        <time>2022-08-02T14:10:59.000Z</time>
      </trkpt>
      <trkpt lat="49.3495" lon="-0.83908">
        <ele>78.603252</ele>
        <time>2022-08-02T14:11:00.000Z</time>
      </trkpt>
      <trkpt lat="49.34953" lon="-0.83902">
        <ele>78.66579</ele>
        <time>2022-08-02T14:11:01.000Z</time>
      </trkpt>
      <trkpt lat="49.34955" lon="-0.83895">
        <ele>78.725153</ele>
        <time>2022-08-02T14:11:02.000Z</time>
      </trkpt>
      <trkpt lat="49.34958" lon="-0.83889">
        <ele>78.787062</ele>
        <time>2022-08-02T14:11:03.000Z</time>
      </trkpt>
      <trkpt lat="49.34961" lon="-0.83882">
        <ele>78.854383</ele>
        <time>2022-08-02T14:11:04.000Z</time>
      </trkpt>
      <trkpt lat="49.34963" lon="-0.83875">
        <ele>78.919663</ele>
        <time>2022-08-02T14:11:05.000Z</time>
      </trkpt>
      <trkpt lat="49.34966" lon="-0.83868">
        <ele>78.986432</ele>
        <time>2022-08-02T14:11:06.000Z</time>
      </trkpt>
      <trkpt lat="49.34969" lon="-0.8386">
        <ele>79.057203</ele>
        <time>2022-08-02T14:11:07.000Z</time>
      </trkpt>
      <trkpt lat="49.34971" lon="-0.83852">
        <ele>79.123728</ele>
        <time>2022-08-02T14:11:08.000Z</time>
      </trkpt>
      <trkpt lat="49.34974" lon="-0.83845">
        <ele>79.193722</ele>
        <time>2022-08-02T14:11:09.000Z</time>
      </trkpt>
      <trkpt lat="49.34977" lon="-0.83837">
        <ele>79.263096</ele>
        <time>2022-08-02T14:11:10.000Z</time>
      </trkpt>
      <trkpt lat="49.34979" lon="-0.8383">
        <ele>79.330348</ele>
        <time>2022-08-02T14:11:11.000Z</time>
      </trkpt>
      <trkpt lat="49.34981" lon="-0.83821">
        <ele>79.401709</ele>
        <time>2022-08-02T14:11:12.000Z</time>
      </trkpt>
      <trkpt lat="49.34983" lon="-0.83813">
        <ele>79.470799</ele>
        <time>2022-08-02T14:11:13.000Z</time>
      </trkpt>
      <trkpt lat="49.34984" lon="-0.83805">
        <ele>79.540118</ele>
        <time>2022-08-02T14:11:14.000Z</time>
      </trkpt>
      <trkpt lat="49.34985" lon="-0.83796">
        <ele>79.611123</ele>
        <time>2022-08-02T14:11:15.000Z</time>
      </trkpt>
      <trkpt lat="49.34987" lon="-0.83788">
        <ele>79.680412</ele>
        <time>2022-08-02T14:11:16.000Z</time>
      </trkpt>
      <trkpt lat="49.34988" lon="-0.83779">
        <ele>79.751418</ele>
        <time>2022-08-02T14:11:17.000Z</time>
      </trkpt>
      <trkpt lat="49.34989" lon="-0.83771">
        <ele>79.818944</ele>
        <time>2022-08-02T14:11:18.000Z</time>
      </trkpt>
      <trkpt lat="49.3499" lon="-0.83763">
        <ele>79.888262</ele>
        <time>2022-08-02T14:11:19.000Z</time>
      </trkpt>
      <trkpt lat="49.34991" lon="-0.83754">
        <ele>79.958473</ele>
        <time>2022-08-02T14:11:20.000Z</time>
      </trkpt>
      <trkpt lat="49.34992" lon="-0.83745">
        <ele>80.027791</ele>
        <time>2022-08-02T14:11:21.000Z</time>
      </trkpt>
      <trkpt lat="49.34993" lon="-0.83737">
        <ele>80.096901</ele>
        <time>2022-08-02T14:11:22.000Z</time>
      </trkpt>
      <trkpt lat="49.34993" lon="-0.83728">
        <ele>80.165659</ele>
        <time>2022-08-02T14:11:23.000Z</time>
      </trkpt>
      <trkpt lat="49.34994" lon="-0.8372">
        <ele>80.234769</ele>
        <time>2022-08-02T14:11:24.000Z</time>
      </trkpt>
      <trkpt lat="49.34995" lon="-0.83712">
        <ele>80.301561</ele>
        <time>2022-08-02T14:11:25.000Z</time>
      </trkpt>
      <trkpt lat="49.34995" lon="-0.83703">
        <ele>80.371478</ele>
        <time>2022-08-02T14:11:26.000Z</time>
      </trkpt>
      <trkpt lat="49.34995" lon="-0.83695">
        <ele>80.436588</ele>
        <time>2022-08-02T14:11:27.000Z</time>
      </trkpt>
      <trkpt lat="49.34996" lon="-0.83686">
        <ele>80.506506</ele>
        <time>2022-08-02T14:11:28.000Z</time>
      </trkpt>
      <trkpt lat="49.34996" lon="-0.83677">
        <ele>80.576856</ele>
        <time>2022-08-02T14:11:29.000Z</time>
      </trkpt>
      <trkpt lat="49.34996" lon="-0.83669">
        <ele>80.645873</ele>
        <time>2022-08-02T14:11:30.000Z</time>
      </trkpt>
      <trkpt lat="49.34997" lon="-0.8366">
        <ele>80.714188</ele>
        <time>2022-08-02T14:11:31.000Z</time>
      </trkpt>
      <trkpt lat="49.34997" lon="-0.83652">
        <ele>80.751971</ele>
        <time>2022-08-02T14:11:32.000Z</time>
      </trkpt>
      <trkpt lat="49.34997" lon="-0.83643">
        <ele>80.788552</ele>
        <time>2022-08-02T14:11:33.000Z</time>
      </trkpt>
      <trkpt lat="49.34997" lon="-0.83635">
        <ele>80.823883</ele>
        <time>2022-08-02T14:11:34.000Z</time>
      </trkpt>
      <trkpt lat="49.34997" lon="-0.83627">
        <ele>80.859593</ele>
        <time>2022-08-02T14:11:35.000Z</time>
      </trkpt>
      <trkpt lat="49.34997" lon="-0.83619">
        <ele>80.894432</ele>
        <time>2022-08-02T14:11:36.000Z</time>
      </trkpt>
      <trkpt lat="49.34997" lon="-0.83611">
        <ele>80.929271</ele>
        <time>2022-08-02T14:11:37.000Z</time>
      </trkpt>
      <trkpt lat="49.34997" lon="-0.83604">
        <ele>80.961994</ele>
        <time>2022-08-02T14:11:38.000Z</time>
      </trkpt>
      <trkpt lat="49.34997" lon="-0.83596">
        <ele>80.993785</ele>
        <time>2022-08-02T14:11:39.000Z</time>
      </trkpt>
      <trkpt lat="49.34998" lon="-0.83589">
        <ele>81.026349</ele>
        <time>2022-08-02T14:11:40.000Z</time>
      </trkpt>
      <trkpt lat="49.34998" lon="-0.83582">
        <ele>81.058203</ele>
        <time>2022-08-02T14:11:41.000Z</time>
      </trkpt>
      <trkpt lat="49.34998" lon="-0.83574">
        <ele>81.089993</ele>
        <time>2022-08-02T14:11:42.000Z</time>
      </trkpt>
      <trkpt lat="49.34999" lon="-0.83567">
        <ele>81.122716</ele>
        <time>2022-08-02T14:11:43.000Z</time>
      </trkpt>
      <trkpt lat="49.34999" lon="-0.83559">
        <ele>81.155378</ele>
        <time>2022-08-02T14:11:44.000Z</time>
      </trkpt>
      <trkpt lat="49.34999" lon="-0.83552">
        <ele>81.18897</ele>
        <time>2022-08-02T14:11:45.000Z</time>
      </trkpt>
      <trkpt lat="49.34999" lon="-0.83544">
        <ele>81.222938</ele>
        <time>2022-08-02T14:11:46.000Z</time>
      </trkpt>
      <trkpt lat="49.34999" lon="-0.83536">
        <ele>81.25788</ele>
        <time>2022-08-02T14:11:47.000Z</time>
      </trkpt>
      <trkpt lat="49.35" lon="-0.83528">
        <ele>81.292516</ele>
        <time>2022-08-02T14:11:48.000Z</time>
      </trkpt>
      <trkpt lat="49.35" lon="-0.8352">
        <ele>81.32779</ele>
        <time>2022-08-02T14:11:49.000Z</time>
      </trkpt>
      <trkpt lat="49.35" lon="-0.83512">
        <ele>81.363557</ele>
        <time>2022-08-02T14:11:50.000Z</time>
      </trkpt>
      <trkpt lat="49.35001" lon="-0.83504">
        <ele>81.398453</ele>
        <time>2022-08-02T14:11:51.000Z</time>
      </trkpt>
      <trkpt lat="49.35001" lon="-0.83495">
        <ele>81.434263</ele>
        <time>2022-08-02T14:11:52.000Z</time>
      </trkpt>
      <trkpt lat="49.35001" lon="-0.83487">
        <ele>81.47128</ele>
        <time>2022-08-02T14:11:53.000Z</time>
      </trkpt>
      <trkpt lat="49.35001" lon="-0.83479">
        <ele>81.506611</ele>
        <time>2022-08-02T14:11:54.000Z</time>
      </trkpt>
      <trkpt lat="49.35002" lon="-0.83471">
        <ele>81.541073</ele>
        <time>2022-08-02T14:11:55.000Z</time>
      </trkpt>
      <trkpt lat="49.35002" lon="-0.83463">
        <ele>81.575277</ele>
        <time>2022-08-02T14:11:56.000Z</time>
      </trkpt>
      <trkpt lat="49.35002" lon="-0.83455">
        <ele>81.608809</ele>
        <time>2022-08-02T14:11:57.000Z</time>
      </trkpt>
      <trkpt lat="49.35002" lon="-0.83448">
        <ele>81.642777</ele>
        <time>2022-08-02T14:11:58.000Z</time>
      </trkpt>
      <trkpt lat="49.35002" lon="-0.8344">
        <ele>81.677616</ele>
        <time>2022-08-02T14:11:59.000Z</time>
      </trkpt>
      <trkpt lat="49.35002" lon="-0.83431">
        <ele>81.713326</ele>
        <time>2022-08-02T14:12:00.000Z</time>
      </trkpt>
      <trkpt lat="49.35003" lon="-0.83423">
        <ele>81.74957</ele>
        <time>2022-08-02T14:12:01.000Z</time>
      </trkpt>
      <trkpt lat="49.35003" lon="-0.83415">
        <ele>81.786587</ele>
        <time>2022-08-02T14:12:02.000Z</time>
      </trkpt>
      <trkpt lat="49.35003" lon="-0.83406">
        <ele>81.823657</ele>
        <time>2022-08-02T14:12:03.000Z</time>
      </trkpt>
      <trkpt lat="49.35003" lon="-0.83398">
        <ele>81.860674</ele>
        <time>2022-08-02T14:12:04.000Z</time>
      </trkpt>
      <trkpt lat="49.35003" lon="-0.83389">
        <ele>81.898561</ele>
        <time>2022-08-02T14:12:05.000Z</time>
      </trkpt>
      <trkpt lat="49.35003" lon="-0.8338">
        <ele>81.930579</ele>
        <time>2022-08-02T14:12:06.000Z</time>
      </trkpt>
      <trkpt lat="49.35003" lon="-0.83371">
        <ele>81.95747</ele>
        <time>2022-08-02T14:12:07.000Z</time>
      </trkpt>
      <trkpt lat="49.35004" lon="-0.83363">
        <ele>81.983493</ele>
        <time>2022-08-02T14:12:08.000Z</time>
      </trkpt>
      <trkpt lat="49.35004" lon="-0.83354">
        <ele>82.010686</ele>
        <time>2022-08-02T14:12:09.000Z</time>
      </trkpt>
      <trkpt lat="49.35004" lon="-0.83345">
        <ele>82.038073</ele>
        <time>2022-08-02T14:12:10.000Z</time>
      </trkpt>
      <trkpt lat="49.35005" lon="-0.83336">
        <ele>82.065001</ele>
        <time>2022-08-02T14:12:11.000Z</time>
      </trkpt>
      <trkpt lat="49.35005" lon="-0.83327">
        <ele>82.091627</ele>
        <time>2022-08-02T14:12:12.000Z</time>
      </trkpt>
      <trkpt lat="49.35005" lon="-0.83318">
        <ele>82.118216</ele>
        <time>2022-08-02T14:12:13.000Z</time>
      </trkpt>
      <trkpt lat="49.35005" lon="-0.83309">
        <ele>82.146014</ele>
        <time>2022-08-02T14:12:14.000Z</time>
      </trkpt>
      <trkpt lat="49.35005" lon="-0.833">
        <ele>82.17264</ele>
        <time>2022-08-02T14:12:15.000Z</time>
      </trkpt>
      <trkpt lat="49.35005" lon="-0.83291">
        <ele>82.199834</ele>
        <time>2022-08-02T14:12:16.000Z</time>
      </trkpt>
      <trkpt lat="49.35005" lon="-0.83282">
        <ele>82.226725</ele>
        <time>2022-08-02T14:12:17.000Z</time>
      </trkpt>
      <trkpt lat="49.35005" lon="-0.83274">
        <ele>82.253315</ele>
        <time>2022-08-02T14:12:18.000Z</time>
      </trkpt>
      <trkpt lat="49.35005" lon="-0.83265">
        <ele>82.280509</ele>
        <time>2022-08-02T14:12:19.000Z</time>
      </trkpt>
      <trkpt lat="49.35005" lon="-0.83255">
        <ele>82.308643</ele>
        <time>2022-08-02T14:12:20.000Z</time>
      </trkpt>
      <trkpt lat="49.35005" lon="-0.83246">
        <ele>82.337046</ele>
        <time>2022-08-02T14:12:21.000Z</time>
      </trkpt>
      <trkpt lat="49.35006" lon="-0.83237">
        <ele>82.365333</ele>
        <time>2022-08-02T14:12:22.000Z</time>
      </trkpt>
      <trkpt lat="49.35006" lon="-0.83227">
        <ele>82.394071</ele>
        <time>2022-08-02T14:12:23.000Z</time>
      </trkpt>
      <trkpt lat="49.35006" lon="-0.83218">
        <ele>82.421869</ele>
        <time>2022-08-02T14:12:24.000Z</time>
      </trkpt>
      <trkpt lat="49.35007" lon="-0.83209">
        <ele>82.4494</ele>
        <time>2022-08-02T14:12:25.000Z</time>
      </trkpt>
      <trkpt lat="49.35007" lon="-0.832">
        <ele>82.477233</ele>
        <time>2022-08-02T14:12:26.000Z</time>
      </trkpt>
      <trkpt lat="49.35007" lon="-0.8319">
        <ele>82.505031</ele>
        <time>2022-08-02T14:12:27.000Z</time>
      </trkpt>
      <trkpt lat="49.35007" lon="-0.83181">
        <ele>82.53259</ele>
        <time>2022-08-02T14:12:28.000Z</time>
      </trkpt>
      <trkpt lat="49.35007" lon="-0.83172">
        <ele>82.560992</ele>
        <time>2022-08-02T14:12:29.000Z</time>
      </trkpt>
      <trkpt lat="49.35008" lon="-0.83163">
        <ele>82.588628</ele>
        <time>2022-08-02T14:12:30.000Z</time>
      </trkpt>
      <trkpt lat="49.35008" lon="-0.83154">
        <ele>82.616461</ele>
        <time>2022-08-02T14:12:31.000Z</time>
      </trkpt>
      <trkpt lat="49.35009" lon="-0.83145">
        <ele>82.64369</ele>
        <time>2022-08-02T14:12:32.000Z</time>
      </trkpt>
      <trkpt lat="49.35009" lon="-0.83136">
        <ele>82.670345</ele>
        <time>2022-08-02T14:12:33.000Z</time>
      </trkpt>
      <trkpt lat="49.35009" lon="-0.83127">
        <ele>82.697538</ele>
        <time>2022-08-02T14:12:34.000Z</time>
      </trkpt>
      <trkpt lat="49.35009" lon="-0.83118">
        <ele>82.724466</ele>
        <time>2022-08-02T14:12:35.000Z</time>
      </trkpt>
      <trkpt lat="49.3501" lon="-0.83109">
        <ele>82.752277</ele>
        <time>2022-08-02T14:12:36.000Z</time>
      </trkpt>
      <trkpt lat="49.3501" lon="-0.831">
        <ele>82.736506</ele>
        <time>2022-08-02T14:12:37.000Z</time>
      </trkpt>
      <trkpt lat="49.35011" lon="-0.83082">
        <ele>82.705052</ele>
        <time>2022-08-02T14:12:39.000Z</time>
      </trkpt>
      <trkpt lat="49.35011" lon="-0.83074">
        <ele>82.690138</ele>
        <time>2022-08-02T14:12:40.000Z</time>
      </trkpt>
      <trkpt lat="49.35012" lon="-0.83065">
        <ele>82.674508</ele>
        <time>2022-08-02T14:12:41.000Z</time>
      </trkpt>
      <trkpt lat="49.35012" lon="-0.83057">
        <ele>82.65896</ele>
        <time>2022-08-02T14:12:42.000Z</time>
      </trkpt>
      <trkpt lat="49.35013" lon="-0.83048">
        <ele>82.643265</ele>
        <time>2022-08-02T14:12:43.000Z</time>
      </trkpt>
      <trkpt lat="49.35013" lon="-0.8304">
        <ele>82.627993</ele>
        <time>2022-08-02T14:12:44.000Z</time>
      </trkpt>
      <trkpt lat="49.35013" lon="-0.83031">
        <ele>82.612184</ele>
        <time>2022-08-02T14:12:45.000Z</time>
      </trkpt>
      <trkpt lat="49.35014" lon="-0.83022">
        <ele>82.596335</ele>
        <time>2022-08-02T14:12:46.000Z</time>
      </trkpt>
      <trkpt lat="49.35014" lon="-0.83013">
        <ele>82.580727</ele>
        <time>2022-08-02T14:12:47.000Z</time>
      </trkpt>
      <trkpt lat="49.35015" lon="-0.83005">
        <ele>82.565388</ele>
        <time>2022-08-02T14:12:48.000Z</time>
      </trkpt>
      <trkpt lat="49.35016" lon="-0.82997">
        <ele>82.550246</ele>
        <time>2022-08-02T14:12:49.000Z</time>
      </trkpt>
      <trkpt lat="49.35017" lon="-0.82988">
        <ele>82.534907</ele>
        <time>2022-08-02T14:12:50.000Z</time>
      </trkpt>
      <trkpt lat="49.35017" lon="-0.8298">
        <ele>82.519618</ele>
        <time>2022-08-02T14:12:51.000Z</time>
      </trkpt>
      <trkpt lat="49.35018" lon="-0.82971">
        <ele>82.504169</ele>
        <time>2022-08-02T14:12:52.000Z</time>
      </trkpt>
      <trkpt lat="49.35019" lon="-0.82963">
        <ele>82.488798</ele>
        <time>2022-08-02T14:12:53.000Z</time>
      </trkpt>
      <trkpt lat="49.35019" lon="-0.82954">
        <ele>82.47346</ele>
        <time>2022-08-02T14:12:54.000Z</time>
      </trkpt>
      <trkpt lat="49.3502" lon="-0.82945">
        <ele>82.457611</ele>
        <time>2022-08-02T14:12:55.000Z</time>
      </trkpt>
      <trkpt lat="49.35021" lon="-0.82937">
        <ele>82.442272</ele>
        <time>2022-08-02T14:12:56.000Z</time>
      </trkpt>
      <trkpt lat="49.35022" lon="-0.82928">
        <ele>82.426609</ele>
        <time>2022-08-02T14:12:57.000Z</time>
      </trkpt>
      <trkpt lat="49.35023" lon="-0.8292">
        <ele>82.411092</ele>
        <time>2022-08-02T14:12:58.000Z</time>
      </trkpt>
      <trkpt lat="49.35024" lon="-0.82911">
        <ele>82.395078</ele>
        <time>2022-08-02T14:12:59.000Z</time>
      </trkpt>
      <trkpt lat="49.35025" lon="-0.82902">
        <ele>82.379053</ele>
        <time>2022-08-02T14:13:00.000Z</time>
      </trkpt>
      <trkpt lat="49.35026" lon="-0.82894">
        <ele>82.363099</ele>
        <time>2022-08-02T14:13:01.000Z</time>
      </trkpt>
      <trkpt lat="49.35027" lon="-0.82885">
        <ele>82.347073</ele>
        <time>2022-08-02T14:13:02.000Z</time>
      </trkpt>
      <trkpt lat="49.35029" lon="-0.82876">
        <ele>82.330336</ele>
        <time>2022-08-02T14:13:03.000Z</time>
      </trkpt>
      <trkpt lat="49.3503" lon="-0.82867">
        <ele>82.313798</ele>
        <time>2022-08-02T14:13:04.000Z</time>
      </trkpt>
      <trkpt lat="49.35031" lon="-0.82858">
        <ele>82.29726</ele>
        <time>2022-08-02T14:13:05.000Z</time>
      </trkpt>
      <trkpt lat="49.35033" lon="-0.82849">
        <ele>82.280779</ele>
        <time>2022-08-02T14:13:06.000Z</time>
      </trkpt>
      <trkpt lat="49.35034" lon="-0.8284">
        <ele>82.264766</ele>
        <time>2022-08-02T14:13:07.000Z</time>
      </trkpt>
      <trkpt lat="49.35035" lon="-0.82831">
        <ele>82.235233</ele>
        <time>2022-08-02T14:13:08.000Z</time>
      </trkpt>
      <trkpt lat="49.35036" lon="-0.82822">
        <ele>82.194942</ele>
        <time>2022-08-02T14:13:09.000Z</time>
      </trkpt>
      <trkpt lat="49.35038" lon="-0.82814">
        <ele>82.154569</ele>
        <time>2022-08-02T14:13:10.000Z</time>
      </trkpt>
      <trkpt lat="49.35038" lon="-0.82805">
        <ele>82.11418</ele>
        <time>2022-08-02T14:13:11.000Z</time>
      </trkpt>
      <trkpt lat="49.3504" lon="-0.82796">
        <ele>82.072567</ele>
        <time>2022-08-02T14:13:12.000Z</time>
      </trkpt>
      <trkpt lat="49.35041" lon="-0.82787">
        <ele>82.031465</ele>
        <time>2022-08-02T14:13:13.000Z</time>
      </trkpt>
      <trkpt lat="49.35041" lon="-0.82778">
        <ele>81.990103</ele>
        <time>2022-08-02T14:13:14.000Z</time>
      </trkpt>
      <trkpt lat="49.35042" lon="-0.82769">
        <ele>81.949001</ele>
        <time>2022-08-02T14:13:15.000Z</time>
      </trkpt>
      <trkpt lat="49.35043" lon="-0.8276">
        <ele>81.90719</ele>
        <time>2022-08-02T14:13:16.000Z</time>
      </trkpt>
      <trkpt lat="49.35043" lon="-0.8275">
        <ele>81.865609</ele>
        <time>2022-08-02T14:13:17.000Z</time>
      </trkpt>
      <trkpt lat="49.35044" lon="-0.82741">
        <ele>81.823423</ele>
        <time>2022-08-02T14:13:18.000Z</time>
      </trkpt>
      <trkpt lat="49.35044" lon="-0.82732">
        <ele>81.781443</ele>
        <time>2022-08-02T14:13:19.000Z</time>
      </trkpt>
      <trkpt lat="49.35043" lon="-0.82722">
        <ele>81.738808</ele>
        <time>2022-08-02T14:13:20.000Z</time>
      </trkpt>
      <trkpt lat="49.35043" lon="-0.82713">
        <ele>81.695926</ele>
        <time>2022-08-02T14:13:21.000Z</time>
      </trkpt>
      <trkpt lat="49.35043" lon="-0.82703">
        <ele>81.652541</ele>
        <time>2022-08-02T14:13:22.000Z</time>
      </trkpt>
      <trkpt lat="49.35042" lon="-0.82694">
        <ele>81.608488</ele>
        <time>2022-08-02T14:13:23.000Z</time>
      </trkpt>
      <trkpt lat="49.35042" lon="-0.82684">
        <ele>81.565554</ele>
        <time>2022-08-02T14:13:24.000Z</time>
      </trkpt>
      <trkpt lat="49.35041" lon="-0.82675">
        <ele>81.521736</ele>
        <time>2022-08-02T14:13:25.000Z</time>
      </trkpt>
      <trkpt lat="49.3504" lon="-0.82665">
        <ele>81.479704</ele>
        <time>2022-08-02T14:13:26.000Z</time>
      </trkpt>
      <trkpt lat="49.3504" lon="-0.82656">
        <ele>81.437069</ele>
        <time>2022-08-02T14:13:27.000Z</time>
      </trkpt>
      <trkpt lat="49.35038" lon="-0.82647">
        <ele>81.395456</ele>
        <time>2022-08-02T14:13:28.000Z</time>
      </trkpt>
      <trkpt lat="49.35037" lon="-0.82638">
        <ele>81.353844</ele>
        <time>2022-08-02T14:13:29.000Z</time>
      </trkpt>
      <trkpt lat="49.35037" lon="-0.82629">
        <ele>81.313005</ele>
        <time>2022-08-02T14:13:30.000Z</time>
      </trkpt>
      <trkpt lat="49.35035" lon="-0.8262">
        <ele>81.272274</ele>
        <time>2022-08-02T14:13:31.000Z</time>
      </trkpt>
      <trkpt lat="49.35035" lon="-0.82611">
        <ele>81.232333</ele>
        <time>2022-08-02T14:13:32.000Z</time>
      </trkpt>
      <trkpt lat="49.35033" lon="-0.82602">
        <ele>81.190721</ele>
        <time>2022-08-02T14:13:33.000Z</time>
      </trkpt>
      <trkpt lat="49.35033" lon="-0.82593">
        <ele>81.149806</ele>
        <time>2022-08-02T14:13:34.000Z</time>
      </trkpt>
      <trkpt lat="49.35031" lon="-0.82584">
        <ele>81.108338</ele>
        <time>2022-08-02T14:13:35.000Z</time>
      </trkpt>
      <trkpt lat="49.3503" lon="-0.82575">
        <ele>81.067166</ele>
        <time>2022-08-02T14:13:36.000Z</time>
      </trkpt>
      <trkpt lat="49.35029" lon="-0.82567">
        <ele>81.027732</ele>
        <time>2022-08-02T14:13:37.000Z</time>
      </trkpt>
      <trkpt lat="49.35029" lon="-0.82558">
        <ele>81.012623</ele>
        <time>2022-08-02T14:13:38.000Z</time>
      </trkpt>
      <trkpt lat="49.35027" lon="-0.82549">
        <ele>81.015871</ele>
        <time>2022-08-02T14:13:39.000Z</time>
      </trkpt>
      <trkpt lat="49.35026" lon="-0.8254">
        <ele>81.019194</ele>
        <time>2022-08-02T14:13:40.000Z</time>
      </trkpt>
      <trkpt lat="49.35025" lon="-0.82532">
        <ele>81.022556</ele>
        <time>2022-08-02T14:13:41.000Z</time>
      </trkpt>
      <trkpt lat="49.35023" lon="-0.82523">
        <ele>81.025828</ele>
        <time>2022-08-02T14:13:42.000Z</time>
      </trkpt>
      <trkpt lat="49.35022" lon="-0.82514">
        <ele>81.029077</ele>
        <time>2022-08-02T14:13:43.000Z</time>
      </trkpt>
      <trkpt lat="49.3502" lon="-0.82506">
        <ele>81.032383</ele>
        <time>2022-08-02T14:13:44.000Z</time>
      </trkpt>
      <trkpt lat="49.35018" lon="-0.82497">
        <ele>81.035708</ele>
        <time>2022-08-02T14:13:45.000Z</time>
      </trkpt>
      <trkpt lat="49.35017" lon="-0.82488">
        <ele>81.039105</ele>
        <time>2022-08-02T14:13:46.000Z</time>
      </trkpt>
      <trkpt lat="49.35014" lon="-0.8248">
        <ele>81.042505</ele>
        <time>2022-08-02T14:13:47.000Z</time>
      </trkpt>
      <trkpt lat="49.35013" lon="-0.82471">
        <ele>81.045938</ele>
        <time>2022-08-02T14:13:48.000Z</time>
      </trkpt>
      <trkpt lat="49.35011" lon="-0.82462">
        <ele>81.049419</ele>
        <time>2022-08-02T14:13:49.000Z</time>
      </trkpt>
      <trkpt lat="49.35009" lon="-0.82453">
        <ele>81.052865</ele>
        <time>2022-08-02T14:13:50.000Z</time>
      </trkpt>
      <trkpt lat="49.35007" lon="-0.82444">
        <ele>81.056354</ele>
        <time>2022-08-02T14:13:51.000Z</time>
      </trkpt>
      <trkpt lat="49.35005" lon="-0.82435">
        <ele>81.05973</ele>
        <time>2022-08-02T14:13:52.000Z</time>
      </trkpt>
      <trkpt lat="49.35003" lon="-0.82427">
        <ele>81.062967</ele>
        <time>2022-08-02T14:13:53.000Z</time>
      </trkpt>
      <trkpt lat="49.35001" lon="-0.82419">
        <ele>81.066169</ele>
        <time>2022-08-02T14:13:54.000Z</time>
      </trkpt>
      <trkpt lat="49.34999" lon="-0.82411">
        <ele>81.069319</ele>
        <time>2022-08-02T14:13:55.000Z</time>
      </trkpt>
      <trkpt lat="49.34997" lon="-0.82403">
        <ele>81.072452</ele>
        <time>2022-08-02T14:13:56.000Z</time>
      </trkpt>
      <trkpt lat="49.34995" lon="-0.82395">
        <ele>81.07575</ele>
        <time>2022-08-02T14:13:57.000Z</time>
      </trkpt>
      <trkpt lat="49.34993" lon="-0.82386">
        <ele>81.079005</ele>
        <time>2022-08-02T14:13:58.000Z</time>
      </trkpt>
      <trkpt lat="49.34991" lon="-0.82378">
        <ele>81.082296</ele>
        <time>2022-08-02T14:13:59.000Z</time>
      </trkpt>
      <trkpt lat="49.34989" lon="-0.8237">
        <ele>81.085463</ele>
        <time>2022-08-02T14:14:00.000Z</time>
      </trkpt>
      <trkpt lat="49.34988" lon="-0.82361">
        <ele>81.08879</ele>
        <time>2022-08-02T14:14:01.000Z</time>
      </trkpt>
      <trkpt lat="49.34986" lon="-0.82353">
        <ele>81.092096</ele>
        <time>2022-08-02T14:14:02.000Z</time>
      </trkpt>
      <trkpt lat="49.34984" lon="-0.82344">
        <ele>81.095333</ele>
        <time>2022-08-02T14:14:03.000Z</time>
      </trkpt>
      <trkpt lat="49.34982" lon="-0.82336">
        <ele>81.098536</ele>
        <time>2022-08-02T14:14:04.000Z</time>
      </trkpt>
      <trkpt lat="49.3498" lon="-0.82328">
        <ele>81.101791</ele>
        <time>2022-08-02T14:14:05.000Z</time>
      </trkpt>
      <trkpt lat="49.34978" lon="-0.82319">
        <ele>81.105047</ele>
        <time>2022-08-02T14:14:06.000Z</time>
      </trkpt>
      <trkpt lat="49.34977" lon="-0.82311">
        <ele>81.108197</ele>
        <time>2022-08-02T14:14:07.000Z</time>
      </trkpt>
      <trkpt lat="49.34975" lon="-0.82303">
        <ele>81.111399</ele>
        <time>2022-08-02T14:14:08.000Z</time>
      </trkpt>
      <trkpt lat="49.34973" lon="-0.82295">
        <ele>81.102425</ele>
        <time>2022-08-02T14:14:09.000Z</time>
      </trkpt>
      <trkpt lat="49.34971" lon="-0.82286">
        <ele>81.088515</ele>
        <time>2022-08-02T14:14:10.000Z</time>
      </trkpt>
      <trkpt lat="49.34969" lon="-0.82278">
        <ele>81.074151</ele>
        <time>2022-08-02T14:14:11.000Z</time>
      </trkpt>
      <trkpt lat="49.34968" lon="-0.8227">
        <ele>81.06066</ele>
        <time>2022-08-02T14:14:12.000Z</time>
      </trkpt>
      <trkpt lat="49.34967" lon="-0.82261">
        <ele>81.046978</ele>
        <time>2022-08-02T14:14:13.000Z</time>
      </trkpt>
      <trkpt lat="49.34965" lon="-0.82253">
        <ele>81.033602</ele>
        <time>2022-08-02T14:14:14.000Z</time>
      </trkpt>
      <trkpt lat="49.34964" lon="-0.82245">
        <ele>81.020226</ele>
        <time>2022-08-02T14:14:15.000Z</time>
      </trkpt>
      <trkpt lat="49.34962" lon="-0.82238">
        <ele>81.007215</ele>
        <time>2022-08-02T14:14:16.000Z</time>
      </trkpt>
      <trkpt lat="49.3496" lon="-0.8223">
        <ele>80.99481</ele>
        <time>2022-08-02T14:14:17.000Z</time>
      </trkpt>
      <trkpt lat="49.34959" lon="-0.82223">
        <ele>80.981892</ele>
        <time>2022-08-02T14:14:18.000Z</time>
      </trkpt>
      <trkpt lat="49.34957" lon="-0.82215">
        <ele>80.968974</ele>
        <time>2022-08-02T14:14:19.000Z</time>
      </trkpt>
      <trkpt lat="49.34955" lon="-0.82207">
        <ele>80.955963</ele>
        <time>2022-08-02T14:14:20.000Z</time>
      </trkpt>
      <trkpt lat="49.34953" lon="-0.82199">
        <ele>80.942503</ele>
        <time>2022-08-02T14:14:21.000Z</time>
      </trkpt>
      <trkpt lat="49.34952" lon="-0.82191">
        <ele>80.928974</ele>
        <time>2022-08-02T14:14:22.000Z</time>
      </trkpt>
      <trkpt lat="49.3495" lon="-0.82183">
        <ele>80.914707</ele>
        <time>2022-08-02T14:14:23.000Z</time>
      </trkpt>
      <trkpt lat="49.34949" lon="-0.82174">
        <ele>80.900565</ele>
        <time>2022-08-02T14:14:24.000Z</time>
      </trkpt>
      <trkpt lat="49.34947" lon="-0.82166">
        <ele>80.886504</ele>
        <time>2022-08-02T14:14:25.000Z</time>
      </trkpt>
      <trkpt lat="49.34945" lon="-0.82158">
        <ele>80.872593</ele>
        <time>2022-08-02T14:14:26.000Z</time>
      </trkpt>
      <trkpt lat="49.34943" lon="-0.82149">
        <ele>80.858598</ele>
        <time>2022-08-02T14:14:27.000Z</time>
      </trkpt>
      <trkpt lat="49.34941" lon="-0.82141">
        <ele>80.844837</ele>
        <time>2022-08-02T14:14:28.000Z</time>
      </trkpt>
      <trkpt lat="49.34939" lon="-0.82133">
        <ele>80.830625</ele>
        <time>2022-08-02T14:14:29.000Z</time>
      </trkpt>
      <trkpt lat="49.34937" lon="-0.82125">
        <ele>80.816563</ele>
        <time>2022-08-02T14:14:30.000Z</time>
      </trkpt>
      <trkpt lat="49.34935" lon="-0.82116">
        <ele>80.8022</ele>
        <time>2022-08-02T14:14:31.000Z</time>
      </trkpt>
      <trkpt lat="49.34934" lon="-0.82108">
        <ele>80.788058</ele>
        <time>2022-08-02T14:14:32.000Z</time>
      </trkpt>
      <trkpt lat="49.34932" lon="-0.82099">
        <ele>80.773913</ele>
        <time>2022-08-02T14:14:33.000Z</time>
      </trkpt>
      <trkpt lat="49.34931" lon="-0.82091">
        <ele>80.76048</ele>
        <time>2022-08-02T14:14:34.000Z</time>
      </trkpt>
      <trkpt lat="49.34929" lon="-0.82083">
        <ele>80.746338</ele>
        <time>2022-08-02T14:14:35.000Z</time>
      </trkpt>
      <trkpt lat="49.34927" lon="-0.82074">
        <ele>80.732503</ele>
        <time>2022-08-02T14:14:36.000Z</time>
      </trkpt>
      <trkpt lat="49.34926" lon="-0.82066">
        <ele>80.718054</ele>
        <time>2022-08-02T14:14:37.000Z</time>
      </trkpt>
      <trkpt lat="49.34924" lon="-0.82057">
        <ele>80.704219</ele>
        <time>2022-08-02T14:14:38.000Z</time>
      </trkpt>
      <trkpt lat="49.34923" lon="-0.82049">
        <ele>80.690263</ele>
        <time>2022-08-02T14:14:39.000Z</time>
      </trkpt>
      <trkpt lat="49.34921" lon="-0.82041">
        <ele>80.676352</ele>
        <time>2022-08-02T14:14:40.000Z</time>
      </trkpt>
      <trkpt lat="49.34919" lon="-0.82032">
        <ele>80.671981</ele>
        <time>2022-08-02T14:14:41.000Z</time>
      </trkpt>
      <trkpt lat="49.34917" lon="-0.82024">
        <ele>80.673557</ele>
        <time>2022-08-02T14:14:42.000Z</time>
      </trkpt>
      <trkpt lat="49.34916" lon="-0.82015">
        <ele>80.675142</ele>
        <time>2022-08-02T14:14:43.000Z</time>
      </trkpt>
      <trkpt lat="49.34915" lon="-0.82007">
        <ele>80.676697</ele>
        <time>2022-08-02T14:14:44.000Z</time>
      </trkpt>
      <trkpt lat="49.34914" lon="-0.81998">
        <ele>80.678287</ele>
        <time>2022-08-02T14:14:45.000Z</time>
      </trkpt>
      <trkpt lat="49.34913" lon="-0.81989">
        <ele>80.679864</ele>
        <time>2022-08-02T14:14:46.000Z</time>
      </trkpt>
      <trkpt lat="49.34912" lon="-0.8198">
        <ele>80.681438</ele>
        <time>2022-08-02T14:14:47.000Z</time>
      </trkpt>
      <trkpt lat="49.34911" lon="-0.81972">
        <ele>80.682994</ele>
        <time>2022-08-02T14:14:48.000Z</time>
      </trkpt>
      <trkpt lat="49.3491" lon="-0.81963">
        <ele>80.684598</ele>
        <time>2022-08-02T14:14:49.000Z</time>
      </trkpt>
      <trkpt lat="49.34909" lon="-0.81954">
        <ele>80.686142</ele>
        <time>2022-08-02T14:14:50.000Z</time>
      </trkpt>
      <trkpt lat="49.34908" lon="-0.81945">
        <ele>80.687762</ele>
        <time>2022-08-02T14:14:51.000Z</time>
      </trkpt>
      <trkpt lat="49.34907" lon="-0.81937">
        <ele>80.689318</ele>
        <time>2022-08-02T14:14:52.000Z</time>
      </trkpt>
      <trkpt lat="49.34906" lon="-0.81928">
        <ele>80.690908</ele>
        <time>2022-08-02T14:14:53.000Z</time>
      </trkpt>
      <trkpt lat="49.34904" lon="-0.81919">
        <ele>80.692519</ele>
        <time>2022-08-02T14:14:54.000Z</time>
      </trkpt>
      <trkpt lat="49.34903" lon="-0.81911">
        <ele>80.69407</ele>
        <time>2022-08-02T14:14:55.000Z</time>
      </trkpt>
      <trkpt lat="49.34902" lon="-0.81902">
        <ele>80.695647</ele>
        <time>2022-08-02T14:14:56.000Z</time>
      </trkpt>
      <trkpt lat="49.349" lon="-0.81894">
        <ele>80.697223</ele>
        <time>2022-08-02T14:14:57.000Z</time>
      </trkpt>
      <trkpt lat="49.34899" lon="-0.81885">
        <ele>80.698778</ele>
        <time>2022-08-02T14:14:58.000Z</time>
      </trkpt>
      <trkpt lat="49.34897" lon="-0.81877">
        <ele>80.700355</ele>
        <time>2022-08-02T14:14:59.000Z</time>
      </trkpt>
      <trkpt lat="49.34896" lon="-0.81868">
        <ele>80.70191</ele>
        <time>2022-08-02T14:15:00.000Z</time>
      </trkpt>
      <trkpt lat="49.34895" lon="-0.8186">
        <ele>80.7035</ele>
        <time>2022-08-02T14:15:01.000Z</time>
      </trkpt>
      <trkpt lat="49.34893" lon="-0.81851">
        <ele>80.70509</ele>
        <time>2022-08-02T14:15:02.000Z</time>
      </trkpt>
      <trkpt lat="49.34892" lon="-0.81842">
        <ele>80.706684</ele>
        <time>2022-08-02T14:15:03.000Z</time>
      </trkpt>
      <trkpt lat="49.3489" lon="-0.81833">
        <ele>80.708329</ele>
        <time>2022-08-02T14:15:04.000Z</time>
      </trkpt>
      <trkpt lat="49.34889" lon="-0.81825">
        <ele>80.709895</ele>
        <time>2022-08-02T14:15:05.000Z</time>
      </trkpt>
      <trkpt lat="49.34887" lon="-0.81816">
        <ele>80.711506</ele>
        <time>2022-08-02T14:15:06.000Z</time>
      </trkpt>
      <trkpt lat="49.34886" lon="-0.81808">
        <ele>80.713082</ele>
        <time>2022-08-02T14:15:07.000Z</time>
      </trkpt>
      <trkpt lat="49.34884" lon="-0.81799">
        <ele>80.714693</ele>
        <time>2022-08-02T14:15:08.000Z</time>
      </trkpt>
      <trkpt lat="49.34882" lon="-0.8179">
        <ele>80.716319</ele>
        <time>2022-08-02T14:15:09.000Z</time>
      </trkpt>
      <trkpt lat="49.34881" lon="-0.81782">
        <ele>80.717869</ele>
        <time>2022-08-02T14:15:10.000Z</time>
      </trkpt>
      <trkpt lat="49.3488" lon="-0.81774">
        <ele>80.719372</ele>
        <time>2022-08-02T14:15:11.000Z</time>
      </trkpt>
      <trkpt lat="49.34878" lon="-0.81765">
        <ele>80.721486</ele>
        <time>2022-08-02T14:15:12.000Z</time>
      </trkpt>
      <trkpt lat="49.34878" lon="-0.81756">
        <ele>80.72421</ele>
        <time>2022-08-02T14:15:13.000Z</time>
      </trkpt>
      <trkpt lat="49.34878" lon="-0.81748">
        <ele>80.726962</ele>
        <time>2022-08-02T14:15:14.000Z</time>
      </trkpt>
      <trkpt lat="49.34878" lon="-0.81739">
        <ele>80.729717</ele>
        <time>2022-08-02T14:15:15.000Z</time>
      </trkpt>
      <trkpt lat="49.34878" lon="-0.8173">
        <ele>80.7325</ele>
        <time>2022-08-02T14:15:16.000Z</time>
      </trkpt>
      <trkpt lat="49.34878" lon="-0.81721">
        <ele>80.735318</ele>
        <time>2022-08-02T14:15:17.000Z</time>
      </trkpt>
      <trkpt lat="49.34878" lon="-0.81712">
        <ele>80.738132</ele>
        <time>2022-08-02T14:15:18.000Z</time>
      </trkpt>
      <trkpt lat="49.34878" lon="-0.81703">
        <ele>80.741043</ele>
        <time>2022-08-02T14:15:19.000Z</time>
      </trkpt>
      <trkpt lat="49.34879" lon="-0.81693">
        <ele>80.743934</ele>
        <time>2022-08-02T14:15:20.000Z</time>
      </trkpt>
      <trkpt lat="49.34879" lon="-0.81685">
        <ele>80.746693</ele>
        <time>2022-08-02T14:15:21.000Z</time>
      </trkpt>
      <trkpt lat="49.3488" lon="-0.81675">
        <ele>80.749604</ele>
        <time>2022-08-02T14:15:22.000Z</time>
      </trkpt>
      <trkpt lat="49.3488" lon="-0.81666">
        <ele>80.752495</ele>
        <time>2022-08-02T14:15:23.000Z</time>
      </trkpt>
      <trkpt lat="49.34881" lon="-0.81657">
        <ele>80.755422</ele>
        <time>2022-08-02T14:15:24.000Z</time>
      </trkpt>
      <trkpt lat="49.34881" lon="-0.81648">
        <ele>80.758299</ele>
        <time>2022-08-02T14:15:25.000Z</time>
      </trkpt>
      <trkpt lat="49.34881" lon="-0.81638">
        <ele>80.761179</ele>
        <time>2022-08-02T14:15:26.000Z</time>
      </trkpt>
      <trkpt lat="49.34882" lon="-0.81629">
        <ele>80.764008</ele>
        <time>2022-08-02T14:15:27.000Z</time>
      </trkpt>
      <trkpt lat="49.34882" lon="-0.8162">
        <ele>80.766857</ele>
        <time>2022-08-02T14:15:28.000Z</time>
      </trkpt>
      <trkpt lat="49.34883" lon="-0.81611">
        <ele>80.769753</ele>
        <time>2022-08-02T14:15:29.000Z</time>
      </trkpt>
      <trkpt lat="49.34883" lon="-0.81602">
        <ele>80.772509</ele>
        <time>2022-08-02T14:15:30.000Z</time>
      </trkpt>
      <trkpt lat="49.34884" lon="-0.81593">
        <ele>80.775295</ele>
        <time>2022-08-02T14:15:31.000Z</time>
      </trkpt>
      <trkpt lat="49.34884" lon="-0.81585">
        <ele>80.777988</ele>
        <time>2022-08-02T14:15:32.000Z</time>
      </trkpt>
      <trkpt lat="49.34885" lon="-0.81576">
        <ele>80.780689</ele>
        <time>2022-08-02T14:15:33.000Z</time>
      </trkpt>
      <trkpt lat="49.34885" lon="-0.81568">
        <ele>80.783347</ele>
        <time>2022-08-02T14:15:34.000Z</time>
      </trkpt>
      <trkpt lat="49.34885" lon="-0.8156">
        <ele>80.785821</ele>
        <time>2022-08-02T14:15:35.000Z</time>
      </trkpt>
      <trkpt lat="49.34885" lon="-0.81552">
        <ele>80.788166</ele>
        <time>2022-08-02T14:15:36.000Z</time>
      </trkpt>
      <trkpt lat="49.34885" lon="-0.81546">
        <ele>80.790079</ele>
        <time>2022-08-02T14:15:37.000Z</time>
      </trkpt>
      <trkpt lat="49.34885" lon="-0.81541">
        <ele>80.791642</ele>
        <time>2022-08-02T14:15:38.000Z</time>
      </trkpt>
      <trkpt lat="49.34885" lon="-0.81537">
        <ele>80.79287</ele>
        <time>2022-08-02T14:15:39.000Z</time>
      </trkpt>
      <trkpt lat="49.34886" lon="-0.81533">
        <ele>80.79421</ele>
        <time>2022-08-02T14:15:41.000Z</time>
      </trkpt>
      <trkpt lat="49.34888" lon="-0.81524">
        <ele>80.797168</ele>
        <time>2022-08-02T14:16:14.000Z</time>
      </trkpt>
      <trkpt lat="49.34889" lon="-0.8152">
        <ele>80.798744</ele>
        <time>2022-08-02T14:16:15.000Z</time>
      </trkpt>
      <trkpt lat="49.34889" lon="-0.81515">
        <ele>80.800314</ele>
        <time>2022-08-02T14:16:16.000Z</time>
      </trkpt>
      <trkpt lat="49.3489" lon="-0.8151">
        <ele>80.801903</ele>
        <time>2022-08-02T14:16:17.000Z</time>
      </trkpt>
      <trkpt lat="49.34891" lon="-0.81504">
        <ele>80.803792</ele>
        <time>2022-08-02T14:16:18.000Z</time>
      </trkpt>
      <trkpt lat="49.34892" lon="-0.81498">
        <ele>80.805611</ele>
        <time>2022-08-02T14:16:19.000Z</time>
      </trkpt>
      <trkpt lat="49.34892" lon="-0.81491">
        <ele>80.797948</ele>
        <time>2022-08-02T14:16:20.000Z</time>
      </trkpt>
      <trkpt lat="49.34892" lon="-0.81485">
        <ele>80.783302</ele>
        <time>2022-08-02T14:16:21.000Z</time>
      </trkpt>
      <trkpt lat="49.34891" lon="-0.81479">
        <ele>80.770103</ele>
        <time>2022-08-02T14:16:22.000Z</time>
      </trkpt>
      <trkpt lat="49.3489" lon="-0.81474">
        <ele>80.757949</ele>
        <time>2022-08-02T14:16:23.000Z</time>
      </trkpt>
      <trkpt lat="49.3489" lon="-0.81468">
        <ele>80.745768</ele>
        <time>2022-08-02T14:16:24.000Z</time>
      </trkpt>
      <trkpt lat="49.3489" lon="-0.81463">
        <ele>80.733812</ele>
        <time>2022-08-02T14:16:25.000Z</time>
      </trkpt>
      <trkpt lat="49.34889" lon="-0.81458">
        <ele>80.721407</ele>
        <time>2022-08-02T14:16:26.000Z</time>
      </trkpt>
      <trkpt lat="49.34889" lon="-0.81452">
        <ele>80.70945</ele>
        <time>2022-08-02T14:16:27.000Z</time>
      </trkpt>
      <trkpt lat="49.34888" lon="-0.81447">
        <ele>80.696414</ele>
        <time>2022-08-02T14:16:28.000Z</time>
      </trkpt>
      <trkpt lat="49.34888" lon="-0.81441">
        <ele>80.683337</ele>
        <time>2022-08-02T14:16:29.000Z</time>
      </trkpt>
      <trkpt lat="49.34887" lon="-0.81435">
        <ele>80.669694</ele>
        <time>2022-08-02T14:16:30.000Z</time>
      </trkpt>
      <trkpt lat="49.34886" lon="-0.81429">
        <ele>80.655992</ele>
        <time>2022-08-02T14:16:31.000Z</time>
      </trkpt>
      <trkpt lat="49.34886" lon="-0.81423">
        <ele>80.642127</ele>
        <time>2022-08-02T14:16:32.000Z</time>
      </trkpt>
      <trkpt lat="49.34884" lon="-0.81417">
        <ele>80.627139</ele>
        <time>2022-08-02T14:16:33.000Z</time>
      </trkpt>
      <trkpt lat="49.34883" lon="-0.8141">
        <ele>80.612783</ele>
        <time>2022-08-02T14:16:34.000Z</time>
      </trkpt>
      <trkpt lat="49.34882" lon="-0.81404">
        <ele>80.598359</ele>
        <time>2022-08-02T14:16:35.000Z</time>
      </trkpt>
      <trkpt lat="49.34881" lon="-0.81398">
        <ele>80.583423</ele>
        <time>2022-08-02T14:16:36.000Z</time>
      </trkpt>
      <trkpt lat="49.3488" lon="-0.81391">
        <ele>80.568356</ele>
        <time>2022-08-02T14:16:37.000Z</time>
      </trkpt>
      <trkpt lat="49.34878" lon="-0.81385">
        <ele>80.553503</ele>
        <time>2022-08-02T14:16:38.000Z</time>
      </trkpt>
      <trkpt lat="49.34878" lon="-0.81379">
        <ele>80.539306</ele>
        <time>2022-08-02T14:16:39.000Z</time>
      </trkpt>
      <trkpt lat="49.34877" lon="-0.81373">
        <ele>80.525607</ele>
        <time>2022-08-02T14:16:40.000Z</time>
      </trkpt>
      <trkpt lat="49.34877" lon="-0.81367">
        <ele>80.512754</ele>
        <time>2022-08-02T14:16:41.000Z</time>
      </trkpt>
      <trkpt lat="49.34876" lon="-0.81361">
        <ele>80.497472</ele>
        <time>2022-08-02T14:16:42.000Z</time>
      </trkpt>
      <trkpt lat="49.34875" lon="-0.81354">
        <ele>80.482272</ele>
        <time>2022-08-02T14:16:43.000Z</time>
      </trkpt>
      <trkpt lat="49.34874" lon="-0.81347">
        <ele>80.465696</ele>
        <time>2022-08-02T14:16:44.000Z</time>
      </trkpt>
      <trkpt lat="49.34873" lon="-0.8134">
        <ele>80.449828</ele>
        <time>2022-08-02T14:16:45.000Z</time>
      </trkpt>
      <trkpt lat="49.34872" lon="-0.81332">
        <ele>80.432842</ele>
        <time>2022-08-02T14:16:46.000Z</time>
      </trkpt>
      <trkpt lat="49.34872" lon="-0.81325">
        <ele>80.416751</ele>
        <time>2022-08-02T14:16:47.000Z</time>
      </trkpt>
      <trkpt lat="49.34871" lon="-0.81318">
        <ele>80.399277</ele>
        <time>2022-08-02T14:16:48.000Z</time>
      </trkpt>
      <trkpt lat="49.3487" lon="-0.8131">
        <ele>80.38274</ele>
        <time>2022-08-02T14:16:49.000Z</time>
      </trkpt>
      <trkpt lat="49.3487" lon="-0.81303">
        <ele>80.365852</ele>
        <time>2022-08-02T14:16:50.000Z</time>
      </trkpt>
      <trkpt lat="49.3487" lon="-0.81295">
        <ele>80.348996</ele>
        <time>2022-08-02T14:16:51.000Z</time>
      </trkpt>
      <trkpt lat="49.3487" lon="-0.81288">
        <ele>80.331659</ele>
        <time>2022-08-02T14:16:52.000Z</time>
      </trkpt>
      <trkpt lat="49.3487" lon="-0.8128">
        <ele>80.314802</ele>
        <time>2022-08-02T14:16:53.000Z</time>
      </trkpt>
      <trkpt lat="49.3487" lon="-0.81272">
        <ele>80.297496</ele>
        <time>2022-08-02T14:16:54.000Z</time>
      </trkpt>
      <trkpt lat="49.3487" lon="-0.81265">
        <ele>80.279966</ele>
        <time>2022-08-02T14:16:55.000Z</time>
      </trkpt>
      <trkpt lat="49.3487" lon="-0.81257">
        <ele>80.262435</ele>
        <time>2022-08-02T14:16:56.000Z</time>
      </trkpt>
      <trkpt lat="49.3487" lon="-0.81249">
        <ele>80.245129</ele>
        <time>2022-08-02T14:16:57.000Z</time>
      </trkpt>
      <trkpt lat="49.3487" lon="-0.81241">
        <ele>80.227598</ele>
        <time>2022-08-02T14:16:58.000Z</time>
      </trkpt>
      <trkpt lat="49.34869" lon="-0.81233">
        <ele>80.208669</ele>
        <time>2022-08-02T14:16:59.000Z</time>
      </trkpt>
      <trkpt lat="49.34869" lon="-0.81225">
        <ele>80.190434</ele>
        <time>2022-08-02T14:17:00.000Z</time>
      </trkpt>
      <trkpt lat="49.34869" lon="-0.81217">
        <ele>80.143068</ele>
        <time>2022-08-02T14:17:01.000Z</time>
      </trkpt>
      <trkpt lat="49.34869" lon="-0.81208">
        <ele>80.086487</ele>
        <time>2022-08-02T14:17:02.000Z</time>
      </trkpt>
      <trkpt lat="49.34869" lon="-0.812">
        <ele>80.030237</ele>
        <time>2022-08-02T14:17:03.000Z</time>
      </trkpt>
      <trkpt lat="49.34869" lon="-0.81192">
        <ele>79.970206</ele>
        <time>2022-08-02T14:17:04.000Z</time>
      </trkpt>
      <trkpt lat="49.34869" lon="-0.81183">
        <ele>79.909485</ele>
        <time>2022-08-02T14:17:05.000Z</time>
      </trkpt>
      <trkpt lat="49.34869" lon="-0.81174">
        <ele>79.847385</ele>
        <time>2022-08-02T14:17:06.000Z</time>
      </trkpt>
      <trkpt lat="49.34869" lon="-0.81165">
        <ele>79.785974</ele>
        <time>2022-08-02T14:17:07.000Z</time>
      </trkpt>
      <trkpt lat="49.34869" lon="-0.81156">
        <ele>79.723873</ele>
        <time>2022-08-02T14:17:08.000Z</time>
      </trkpt>
      <trkpt lat="49.34868" lon="-0.81147">
        <ele>79.661691</ele>
        <time>2022-08-02T14:17:09.000Z</time>
      </trkpt>
      <trkpt lat="49.34868" lon="-0.81138">
        <ele>79.600823</ele>
        <time>2022-08-02T14:17:10.000Z</time>
      </trkpt>
      <trkpt lat="49.34867" lon="-0.81129">
        <ele>79.537025</ele>
        <time>2022-08-02T14:17:11.000Z</time>
      </trkpt>
      <trkpt lat="49.34866" lon="-0.8112">
        <ele>79.473347</ele>
        <time>2022-08-02T14:17:12.000Z</time>
      </trkpt>
      <trkpt lat="49.34865" lon="-0.81111">
        <ele>79.409155</ele>
        <time>2022-08-02T14:17:13.000Z</time>
      </trkpt>
      <trkpt lat="49.34864" lon="-0.81102">
        <ele>79.346114</ele>
        <time>2022-08-02T14:17:14.000Z</time>
      </trkpt>
      <trkpt lat="49.34862" lon="-0.81093">
        <ele>79.282408</ele>
        <time>2022-08-02T14:17:15.000Z</time>
      </trkpt>
      <trkpt lat="49.3486" lon="-0.81084">
        <ele>79.216982</ele>
        <time>2022-08-02T14:17:16.000Z</time>
      </trkpt>
      <trkpt lat="49.34858" lon="-0.81076">
        <ele>79.156279</ele>
        <time>2022-08-02T14:17:17.000Z</time>
      </trkpt>
      <trkpt lat="49.34855" lon="-0.81067">
        <ele>79.092556</ele>
        <time>2022-08-02T14:17:18.000Z</time>
      </trkpt>
      <trkpt lat="49.34852" lon="-0.81059">
        <ele>79.027191</ele>
        <time>2022-08-02T14:17:19.000Z</time>
      </trkpt>
      <trkpt lat="49.34849" lon="-0.81051">
        <ele>78.96281</ele>
        <time>2022-08-02T14:17:20.000Z</time>
      </trkpt>
      <trkpt lat="49.34846" lon="-0.81043">
        <ele>78.898034</ele>
        <time>2022-08-02T14:17:21.000Z</time>
      </trkpt>
      <trkpt lat="49.34843" lon="-0.81035">
        <ele>78.833046</ele>
        <time>2022-08-02T14:17:22.000Z</time>
      </trkpt>
      <trkpt lat="49.3484" lon="-0.81026">
        <ele>78.764244</ele>
        <time>2022-08-02T14:17:23.000Z</time>
      </trkpt>
      <trkpt lat="49.34836" lon="-0.81018">
        <ele>78.69775</ele>
        <time>2022-08-02T14:17:24.000Z</time>
      </trkpt>
      <trkpt lat="49.34833" lon="-0.8101">
        <ele>78.630091</ele>
        <time>2022-08-02T14:17:25.000Z</time>
      </trkpt>
      <trkpt lat="49.34829" lon="-0.81002">
        <ele>78.564135</ele>
        <time>2022-08-02T14:17:26.000Z</time>
      </trkpt>
      <trkpt lat="49.34826" lon="-0.80994">
        <ele>78.493002</ele>
        <time>2022-08-02T14:17:27.000Z</time>
      </trkpt>
      <trkpt lat="49.34822" lon="-0.80985">
        <ele>78.422447</ele>
        <time>2022-08-02T14:17:28.000Z</time>
      </trkpt>
      <trkpt lat="49.34819" lon="-0.80977">
        <ele>78.355379</ele>
        <time>2022-08-02T14:17:29.000Z</time>
      </trkpt>
      <trkpt lat="49.34815" lon="-0.80969">
        <ele>78.288079</ele>
        <time>2022-08-02T14:17:30.000Z</time>
      </trkpt>
      <trkpt lat="49.34811" lon="-0.80961">
        <ele>78.076106</ele>
        <time>2022-08-02T14:17:31.000Z</time>
      </trkpt>
      <trkpt lat="49.34807" lon="-0.80954">
        <ele>77.839677</ele>
        <time>2022-08-02T14:17:32.000Z</time>
      </trkpt>
      <trkpt lat="49.34803" lon="-0.80946">
        <ele>77.606589</ele>
        <time>2022-08-02T14:17:33.000Z</time>
      </trkpt>
      <trkpt lat="49.34799" lon="-0.80938">
        <ele>77.364702</ele>
        <time>2022-08-02T14:17:34.000Z</time>
      </trkpt>
      <trkpt lat="49.34795" lon="-0.8093">
        <ele>77.135402</ele>
        <time>2022-08-02T14:17:35.000Z</time>
      </trkpt>
      <trkpt lat="49.34791" lon="-0.80922">
        <ele>76.896379</ele>
        <time>2022-08-02T14:17:36.000Z</time>
      </trkpt>
      <trkpt lat="49.34787" lon="-0.80913">
        <ele>76.647385</ele>
        <time>2022-08-02T14:17:37.000Z</time>
      </trkpt>
      <trkpt lat="49.34783" lon="-0.80904">
        <ele>76.398759</ele>
        <time>2022-08-02T14:17:38.000Z</time>
      </trkpt>
      <trkpt lat="49.34779" lon="-0.80896">
        <ele>76.149764</ele>
        <time>2022-08-02T14:17:39.000Z</time>
      </trkpt>
      <trkpt lat="49.34775" lon="-0.80887">
        <ele>75.896723</ele>
        <time>2022-08-02T14:17:40.000Z</time>
      </trkpt>
      <trkpt lat="49.3477" lon="-0.80879">
        <ele>75.635194</ele>
        <time>2022-08-02T14:17:41.000Z</time>
      </trkpt>
      <trkpt lat="49.34766" lon="-0.8087">
        <ele>75.380488</ele>
        <time>2022-08-02T14:17:42.000Z</time>
      </trkpt>
      <trkpt lat="49.34761" lon="-0.80861">
        <ele>75.102996</ele>
        <time>2022-08-02T14:17:43.000Z</time>
      </trkpt>
      <trkpt lat="49.34757" lon="-0.80851">
        <ele>74.832149</ele>
        <time>2022-08-02T14:17:44.000Z</time>
      </trkpt>
      <trkpt lat="49.34753" lon="-0.80842">
        <ele>74.569593</ele>
        <time>2022-08-02T14:17:45.000Z</time>
      </trkpt>
      <trkpt lat="49.34748" lon="-0.80833">
        <ele>74.292101</ele>
        <time>2022-08-02T14:17:46.000Z</time>
      </trkpt>
      <trkpt lat="49.34743" lon="-0.80824">
        <ele>74.007705</ele>
        <time>2022-08-02T14:17:47.000Z</time>
      </trkpt>
      <trkpt lat="49.34738" lon="-0.80815">
        <ele>73.732046</ele>
        <time>2022-08-02T14:17:48.000Z</time>
      </trkpt>
      <trkpt lat="49.34733" lon="-0.80805">
        <ele>73.44527</ele>
        <time>2022-08-02T14:17:49.000Z</time>
      </trkpt>
      <trkpt lat="49.34729" lon="-0.80795">
        <ele>73.162998</ele>
        <time>2022-08-02T14:17:50.000Z</time>
      </trkpt>
      <trkpt lat="49.34725" lon="-0.80785">
        <ele>72.876811</ele>
        <time>2022-08-02T14:17:51.000Z</time>
      </trkpt>
      <trkpt lat="49.3472" lon="-0.80774">
        <ele>72.584724</ele>
        <time>2022-08-02T14:17:52.000Z</time>
      </trkpt>
      <trkpt lat="49.34716" lon="-0.80763">
        <ele>72.286362</ele>
        <time>2022-08-02T14:17:53.000Z</time>
      </trkpt>
      <trkpt lat="49.34713" lon="-0.80752">
        <ele>71.981732</ele>
        <time>2022-08-02T14:17:54.000Z</time>
      </trkpt>
      <trkpt lat="49.34709" lon="-0.8074">
        <ele>71.746119</ele>
        <time>2022-08-02T14:17:55.000Z</time>
      </trkpt>
      <trkpt lat="49.34707" lon="-0.80727">
        <ele>71.643846</ele>
        <time>2022-08-02T14:17:56.000Z</time>
      </trkpt>
      <trkpt lat="49.34704" lon="-0.80714">
        <ele>71.538865</ele>
        <time>2022-08-02T14:17:57.000Z</time>
      </trkpt>
      <trkpt lat="49.34702" lon="-0.80702">
        <ele>71.435817</ele>
        <time>2022-08-02T14:17:58.000Z</time>
      </trkpt>
      <trkpt lat="49.347" lon="-0.80689">
        <ele>71.336452</ele>
        <time>2022-08-02T14:17:59.000Z</time>
      </trkpt>
      <trkpt lat="49.34698" lon="-0.80677">
        <ele>71.239225</ele>
        <time>2022-08-02T14:18:00.000Z</time>
      </trkpt>
      <trkpt lat="49.34696" lon="-0.80666">
        <ele>71.143814</ele>
        <time>2022-08-02T14:18:01.000Z</time>
      </trkpt>
      <trkpt lat="49.34694" lon="-0.80654">
        <ele>71.046416</ele>
        <time>2022-08-02T14:18:02.000Z</time>
      </trkpt>
      <trkpt lat="49.34692" lon="-0.80642">
        <ele>70.95027</ele>
        <time>2022-08-02T14:18:03.000Z</time>
      </trkpt>
      <trkpt lat="49.34691" lon="-0.8063">
        <ele>70.857965</ele>
        <time>2022-08-02T14:18:04.000Z</time>
      </trkpt>
      <trkpt lat="49.34689" lon="-0.80619">
        <ele>70.767962</ele>
        <time>2022-08-02T14:18:05.000Z</time>
      </trkpt>
      <trkpt lat="49.34687" lon="-0.80609">
        <ele>70.684846</ele>
        <time>2022-08-02T14:18:06.000Z</time>
      </trkpt>
      <trkpt lat="49.34686" lon="-0.80599">
        <ele>70.607758</ele>
        <time>2022-08-02T14:18:07.000Z</time>
      </trkpt>
      <trkpt lat="49.34685" lon="-0.8059">
        <ele>70.53377</ele>
        <time>2022-08-02T14:18:08.000Z</time>
      </trkpt>
      <trkpt lat="49.34685" lon="-0.80581">
        <ele>70.461194</ele>
        <time>2022-08-02T14:18:09.000Z</time>
      </trkpt>
      <trkpt lat="49.34685" lon="-0.80572">
        <ele>70.392808</ele>
        <time>2022-08-02T14:18:10.000Z</time>
      </trkpt>
      <trkpt lat="49.34685" lon="-0.80563">
        <ele>70.326087</ele>
        <time>2022-08-02T14:18:11.000Z</time>
      </trkpt>
      <trkpt lat="49.34685" lon="-0.80556">
        <ele>70.264436</ele>
        <time>2022-08-02T14:18:12.000Z</time>
      </trkpt>
      <trkpt lat="49.34686" lon="-0.80548">
        <ele>70.206517</ele>
        <time>2022-08-02T14:18:13.000Z</time>
      </trkpt>
      <trkpt lat="49.34687" lon="-0.80541">
        <ele>70.149701</ele>
        <time>2022-08-02T14:18:14.000Z</time>
      </trkpt>
      <trkpt lat="49.34688" lon="-0.80534">
        <ele>70.09332</ele>
        <time>2022-08-02T14:18:15.000Z</time>
      </trkpt>
      <trkpt lat="49.3469" lon="-0.80528">
        <ele>70.036681</ele>
        <time>2022-08-02T14:18:16.000Z</time>
      </trkpt>
      <trkpt lat="49.34692" lon="-0.80521">
        <ele>69.978831</ele>
        <time>2022-08-02T14:18:17.000Z</time>
      </trkpt>
      <trkpt lat="49.34695" lon="-0.80515">
        <ele>69.919582</ele>
        <time>2022-08-02T14:18:18.000Z</time>
      </trkpt>
      <trkpt lat="49.34697" lon="-0.80508">
        <ele>69.85944</ele>
        <time>2022-08-02T14:18:19.000Z</time>
      </trkpt>
      <trkpt lat="49.34699" lon="-0.80501">
        <ele>69.801944</ele>
        <time>2022-08-02T14:18:20.000Z</time>
      </trkpt>
      <trkpt lat="49.34701" lon="-0.80495">
        <ele>69.744586</ele>
        <time>2022-08-02T14:18:21.000Z</time>
      </trkpt>
      <trkpt lat="49.34703" lon="-0.80488">
        <ele>69.684444</ele>
        <time>2022-08-02T14:18:22.000Z</time>
      </trkpt>
      <trkpt lat="49.34706" lon="-0.80481">
        <ele>69.625551</ele>
        <time>2022-08-02T14:18:23.000Z</time>
      </trkpt>
      <trkpt lat="49.34708" lon="-0.80474">
        <ele>69.784999</ele>
        <time>2022-08-02T14:18:24.000Z</time>
      </trkpt>
      <trkpt lat="49.3471" lon="-0.80468">
        <ele>69.986303</ele>
        <time>2022-08-02T14:18:25.000Z</time>
      </trkpt>
      <trkpt lat="49.34713" lon="-0.80461">
        <ele>70.190027</ele>
        <time>2022-08-02T14:18:26.000Z</time>
      </trkpt>
      <trkpt lat="49.34715" lon="-0.80454">
        <ele>70.395662</ele>
        <time>2022-08-02T14:18:27.000Z</time>
      </trkpt>
      <trkpt lat="49.34717" lon="-0.80448">
        <ele>70.601814</ele>
        <time>2022-08-02T14:18:28.000Z</time>
      </trkpt>
      <trkpt lat="49.34719" lon="-0.80441">
        <ele>70.800226</ele>
        <time>2022-08-02T14:18:29.000Z</time>
      </trkpt>
      <trkpt lat="49.34721" lon="-0.80434">
        <ele>71.00777</ele>
        <time>2022-08-02T14:18:30.000Z</time>
      </trkpt>
      <trkpt lat="49.34723" lon="-0.80427">
        <ele>71.213923</ele>
        <time>2022-08-02T14:18:31.000Z</time>
      </trkpt>
      <trkpt lat="49.34725" lon="-0.80421">
        <ele>71.412813</ele>
        <time>2022-08-02T14:18:32.000Z</time>
      </trkpt>
      <trkpt lat="49.34728" lon="-0.80414">
        <ele>71.626726</ele>
        <time>2022-08-02T14:18:33.000Z</time>
      </trkpt>
      <trkpt lat="49.3473" lon="-0.80408">
        <ele>71.820169</ele>
        <time>2022-08-02T14:18:34.000Z</time>
      </trkpt>
      <trkpt lat="49.34732" lon="-0.80401">
        <ele>72.02028</ele>
        <time>2022-08-02T14:18:35.000Z</time>
      </trkpt>
      <trkpt lat="49.34734" lon="-0.80394">
        <ele>72.221183</ele>
        <time>2022-08-02T14:18:36.000Z</time>
      </trkpt>
      <trkpt lat="49.34735" lon="-0.80388">
        <ele>72.405805</ele>
        <time>2022-08-02T14:18:37.000Z</time>
      </trkpt>
      <trkpt lat="49.34738" lon="-0.80381">
        <ele>72.610645</ele>
        <time>2022-08-02T14:18:38.000Z</time>
      </trkpt>
      <trkpt lat="49.34741" lon="-0.80375">
        <ele>72.806309</ele>
        <time>2022-08-02T14:18:39.000Z</time>
      </trkpt>
      <trkpt lat="49.34743" lon="-0.8037">
        <ele>72.988543</ele>
        <time>2022-08-02T14:18:40.000Z</time>
      </trkpt>
      <trkpt lat="49.34745" lon="-0.80364">
        <ele>73.171546</ele>
        <time>2022-08-02T14:18:41.000Z</time>
      </trkpt>
      <trkpt lat="49.34747" lon="-0.80357">
        <ele>73.355145</ele>
        <time>2022-08-02T14:18:42.000Z</time>
      </trkpt>
      <trkpt lat="49.34748" lon="-0.80351">
        <ele>73.536218</ele>
        <time>2022-08-02T14:18:43.000Z</time>
      </trkpt>
      <trkpt lat="49.3475" lon="-0.80345">
        <ele>73.72472</ele>
        <time>2022-08-02T14:18:44.000Z</time>
      </trkpt>
      <trkpt lat="49.34751" lon="-0.80339">
        <ele>73.891897</ele>
        <time>2022-08-02T14:18:45.000Z</time>
      </trkpt>
      <trkpt lat="49.34753" lon="-0.80333">
        <ele>74.060422</ele>
        <time>2022-08-02T14:18:46.000Z</time>
      </trkpt>
      <trkpt lat="49.34754" lon="-0.80328">
        <ele>74.214193</ele>
        <time>2022-08-02T14:18:47.000Z</time>
      </trkpt>
      <trkpt lat="49.34755" lon="-0.80322">
        <ele>74.371688</ele>
        <time>2022-08-02T14:18:48.000Z</time>
      </trkpt>
      <trkpt lat="49.34756" lon="-0.80316">
        <ele>74.542107</ele>
        <time>2022-08-02T14:18:49.000Z</time>
      </trkpt>
      <trkpt lat="49.34758" lon="-0.8031">
        <ele>74.725109</ele>
        <time>2022-08-02T14:18:50.000Z</time>
      </trkpt>
      <trkpt lat="49.3476" lon="-0.80304">
        <ele>74.91361</ele>
        <time>2022-08-02T14:18:51.000Z</time>
      </trkpt>
      <trkpt lat="49.34761" lon="-0.80298">
        <ele>75.086084</ele>
        <time>2022-08-02T14:18:52.000Z</time>
      </trkpt>
      <trkpt lat="49.34761" lon="-0.80291">
        <ele>75.256939</ele>
        <time>2022-08-02T14:18:53.000Z</time>
      </trkpt>
      <trkpt lat="49.34762" lon="-0.80286">
        <ele>75.410916</ele>
        <time>2022-08-02T14:18:54.000Z</time>
      </trkpt>
      <trkpt lat="49.34763" lon="-0.8028">
        <ele>75.565743</ele>
        <time>2022-08-02T14:18:55.000Z</time>
      </trkpt>
      <trkpt lat="49.34764" lon="-0.80274">
        <ele>75.738217</ele>
        <time>2022-08-02T14:18:56.000Z</time>
      </trkpt>
      <trkpt lat="49.34764" lon="-0.80268">
        <ele>75.910088</ele>
        <time>2022-08-02T14:18:57.000Z</time>
      </trkpt>
      <trkpt lat="49.34765" lon="-0.80261">
        <ele>76.092438</ele>
        <time>2022-08-02T14:18:58.000Z</time>
      </trkpt>
      <trkpt lat="49.34765" lon="-0.80254">
        <ele>76.274789</ele>
        <time>2022-08-02T14:18:59.000Z</time>
      </trkpt>
      <trkpt lat="49.34765" lon="-0.80248">
        <ele>76.451722</ele>
        <time>2022-08-02T14:19:00.000Z</time>
      </trkpt>
      <trkpt lat="49.34766" lon="-0.80242">
        <ele>76.619902</ele>
        <time>2022-08-02T14:19:01.000Z</time>
      </trkpt>
      <trkpt lat="49.34766" lon="-0.80235">
        <ele>76.802252</ele>
        <time>2022-08-02T14:19:02.000Z</time>
      </trkpt>
      <trkpt lat="49.34766" lon="-0.80228">
        <ele>76.984603</ele>
        <time>2022-08-02T14:19:03.000Z</time>
      </trkpt>
      <trkpt lat="49.34767" lon="-0.80222">
        <ele>77.119886</ele>
        <time>2022-08-02T14:19:04.000Z</time>
      </trkpt>
      <trkpt lat="49.34768" lon="-0.80215">
        <ele>77.150129</ele>
        <time>2022-08-02T14:19:05.000Z</time>
      </trkpt>
      <trkpt lat="49.34768" lon="-0.80208">
        <ele>77.180279</ele>
        <time>2022-08-02T14:19:06.000Z</time>
      </trkpt>
      <trkpt lat="49.34769" lon="-0.80201">
        <ele>77.209383</ele>
        <time>2022-08-02T14:19:07.000Z</time>
      </trkpt>
      <trkpt lat="49.34769" lon="-0.80194">
        <ele>77.239625</ele>
        <time>2022-08-02T14:19:08.000Z</time>
      </trkpt>
      <trkpt lat="49.3477" lon="-0.80187">
        <ele>77.269775</ele>
        <time>2022-08-02T14:19:09.000Z</time>
      </trkpt>
      <trkpt lat="49.3477" lon="-0.8018">
        <ele>77.300584</ele>
        <time>2022-08-02T14:19:10.000Z</time>
      </trkpt>
      <trkpt lat="49.34771" lon="-0.80172">
        <ele>77.331868</ele>
        <time>2022-08-02T14:19:11.000Z</time>
      </trkpt>
      <trkpt lat="49.34771" lon="-0.80165">
        <ele>77.363468</ele>
        <time>2022-08-02T14:19:12.000Z</time>
      </trkpt>
      <trkpt lat="49.34771" lon="-0.80157">
        <ele>77.395982</ele>
        <time>2022-08-02T14:19:13.000Z</time>
      </trkpt>
      <trkpt lat="49.34771" lon="-0.8015">
        <ele>77.428922</ele>
        <time>2022-08-02T14:19:14.000Z</time>
      </trkpt>
      <trkpt lat="49.34771" lon="-0.80142">
        <ele>77.46223</ele>
        <time>2022-08-02T14:19:15.000Z</time>
      </trkpt>
      <trkpt lat="49.34771" lon="-0.80134">
        <ele>77.495966</ele>
        <time>2022-08-02T14:19:16.000Z</time>
      </trkpt>
      <trkpt lat="49.34771" lon="-0.80126">
        <ele>77.529274</ele>
        <time>2022-08-02T14:19:17.000Z</time>
      </trkpt>
      <trkpt lat="49.34771" lon="-0.80118">
        <ele>77.562156</ele>
        <time>2022-08-02T14:19:18.000Z</time>
      </trkpt>
      <trkpt lat="49.34771" lon="-0.80111">
        <ele>77.594669</ele>
        <time>2022-08-02T14:19:19.000Z</time>
      </trkpt>
      <trkpt lat="49.34771" lon="-0.80103">
        <ele>77.62627</ele>
        <time>2022-08-02T14:19:20.000Z</time>
      </trkpt>
      <trkpt lat="49.34771" lon="-0.80096">
        <ele>77.656653</ele>
        <time>2022-08-02T14:19:21.000Z</time>
      </trkpt>
      <trkpt lat="49.3477" lon="-0.80089">
        <ele>77.688584</ele>
        <time>2022-08-02T14:19:22.000Z</time>
      </trkpt>
      <trkpt lat="49.34769" lon="-0.80082">
        <ele>77.717888</ele>
        <time>2022-08-02T14:19:23.000Z</time>
      </trkpt>
      <trkpt lat="49.34769" lon="-0.80076">
        <ele>77.744436</ele>
        <time>2022-08-02T14:19:24.000Z</time>
      </trkpt>
      <trkpt lat="49.34769" lon="-0.8007">
        <ele>77.768493</ele>
        <time>2022-08-02T14:19:25.000Z</time>
      </trkpt>
      <trkpt lat="49.34768" lon="-0.80064">
        <ele>77.793765</ele>
        <time>2022-08-02T14:19:26.000Z</time>
      </trkpt>
      <trkpt lat="49.34768" lon="-0.80059">
        <ele>77.817759</ele>
        <time>2022-08-02T14:19:27.000Z</time>
      </trkpt>
      <trkpt lat="49.34768" lon="-0.80054">
        <ele>77.836976</ele>
        <time>2022-08-02T14:19:28.000Z</time>
      </trkpt>
      <trkpt lat="49.34769" lon="-0.80051">
        <ele>77.852431</ele>
        <time>2022-08-02T14:19:29.000Z</time>
      </trkpt>
      <trkpt lat="49.34771" lon="-0.80048">
        <ele>77.870661</ele>
        <time>2022-08-02T14:19:31.000Z</time>
      </trkpt>
      <trkpt lat="49.34777" lon="-0.80045">
        <ele>77.910593</ele>
        <time>2022-08-02T14:21:07.000Z</time>
      </trkpt>
      <trkpt lat="49.3478" lon="-0.80043">
        <ele>77.933754</ele>
        <time>2022-08-02T14:21:08.000Z</time>
      </trkpt>
      <trkpt lat="49.34783" lon="-0.8004">
        <ele>77.95769</ele>
        <time>2022-08-02T14:21:09.000Z</time>
      </trkpt>
      <trkpt lat="49.34787" lon="-0.80038">
        <ele>77.98325</ele>
        <time>2022-08-02T14:21:10.000Z</time>
      </trkpt>
      <trkpt lat="49.3479" lon="-0.80035">
        <ele>78.008377</ele>
        <time>2022-08-02T14:21:11.000Z</time>
      </trkpt>
      <trkpt lat="49.34794" lon="-0.80033">
        <ele>78.035648</ele>
        <time>2022-08-02T14:21:12.000Z</time>
      </trkpt>
      <trkpt lat="49.34798" lon="-0.8003">
        <ele>78.065496</ele>
        <time>2022-08-02T14:21:13.000Z</time>
      </trkpt>
      <trkpt lat="49.34803" lon="-0.80027">
        <ele>78.097324</ele>
        <time>2022-08-02T14:21:14.000Z</time>
      </trkpt>
      <trkpt lat="49.34807" lon="-0.80024">
        <ele>78.128076</ele>
        <time>2022-08-02T14:21:15.000Z</time>
      </trkpt>
      <trkpt lat="49.34811" lon="-0.8002">
        <ele>78.160252</ele>
        <time>2022-08-02T14:21:16.000Z</time>
      </trkpt>
      <trkpt lat="49.34815" lon="-0.80015">
        <ele>78.191711</ele>
        <time>2022-08-02T14:21:17.000Z</time>
      </trkpt>
      <trkpt lat="49.34818" lon="-0.80011">
        <ele>78.222476</ele>
        <time>2022-08-02T14:21:18.000Z</time>
      </trkpt>
      <trkpt lat="49.34826" lon="-0.8">
        <ele>78.287955</ele>
        <time>2022-08-02T14:21:20.000Z</time>
      </trkpt>
      <trkpt lat="49.34829" lon="-0.79994">
        <ele>78.276055</ele>
        <time>2022-08-02T14:21:21.000Z</time>
      </trkpt>
      <trkpt lat="49.34832" lon="-0.79988">
        <ele>78.260172</ele>
        <time>2022-08-02T14:21:22.000Z</time>
      </trkpt>
      <trkpt lat="49.34835" lon="-0.79981">
        <ele>78.245645</ele>
        <time>2022-08-02T14:21:23.000Z</time>
      </trkpt>
      <trkpt lat="49.34838" lon="-0.79975">
        <ele>78.22947</ele>
        <time>2022-08-02T14:21:24.000Z</time>
      </trkpt>
      <trkpt lat="49.34842" lon="-0.79968">
        <ele>78.213147</ele>
        <time>2022-08-02T14:21:25.000Z</time>
      </trkpt>
      <trkpt lat="49.34848" lon="-0.79954">
        <ele>78.181396</ele>
        <time>2022-08-02T14:21:27.000Z</time>
      </trkpt>
      <trkpt lat="49.34854" lon="-0.7994">
        <ele>78.148874</ele>
        <time>2022-08-02T14:21:29.000Z</time>
      </trkpt>
      <trkpt lat="49.34858" lon="-0.79933">
        <ele>78.132255</ele>
        <time>2022-08-02T14:21:30.000Z</time>
      </trkpt>
      <trkpt lat="49.34861" lon="-0.79926">
        <ele>78.115933</ele>
        <time>2022-08-02T14:21:31.000Z</time>
      </trkpt>
      <trkpt lat="49.34865" lon="-0.79919">
        <ele>78.098869</ele>
        <time>2022-08-02T14:21:32.000Z</time>
      </trkpt>
      <trkpt lat="49.34869" lon="-0.79912">
        <ele>78.082917</ele>
        <time>2022-08-02T14:21:33.000Z</time>
      </trkpt>
      <trkpt lat="49.34872" lon="-0.79905">
        <ele>78.066297</ele>
        <time>2022-08-02T14:21:34.000Z</time>
      </trkpt>
      <trkpt lat="49.34876" lon="-0.79898">
        <ele>78.049528</ele>
        <time>2022-08-02T14:21:35.000Z</time>
      </trkpt>
      <trkpt lat="49.34878" lon="-0.79891">
        <ele>78.034062</ele>
        <time>2022-08-02T14:21:36.000Z</time>
      </trkpt>
      <trkpt lat="49.34882" lon="-0.79884">
        <ele>78.017802</ele>
        <time>2022-08-02T14:21:37.000Z</time>
      </trkpt>
      <trkpt lat="49.34885" lon="-0.79877">
        <ele>78.001073</ele>
        <time>2022-08-02T14:21:38.000Z</time>
      </trkpt>
      <trkpt lat="49.34888" lon="-0.79869">
        <ele>77.984647</ele>
        <time>2022-08-02T14:21:39.000Z</time>
      </trkpt>
      <trkpt lat="49.3489" lon="-0.79861">
        <ele>77.967936</ele>
        <time>2022-08-02T14:21:40.000Z</time>
      </trkpt>
      <trkpt lat="49.34895" lon="-0.79845">
        <ele>77.934588</ele>
        <time>2022-08-02T14:21:42.000Z</time>
      </trkpt>
      <trkpt lat="49.34898" lon="-0.79829">
        <ele>77.903164</ele>
        <time>2022-08-02T14:21:44.000Z</time>
      </trkpt>
      <trkpt lat="49.34899" lon="-0.79814">
        <ele>77.873979</ele>
        <time>2022-08-02T14:21:46.000Z</time>
      </trkpt>
      <trkpt lat="49.349" lon="-0.79806">
        <ele>77.859451</ele>
        <time>2022-08-02T14:21:47.000Z</time>
      </trkpt>
      <trkpt lat="49.349" lon="-0.79798">
        <ele>77.844808</ele>
        <time>2022-08-02T14:21:48.000Z</time>
      </trkpt>
      <trkpt lat="49.34901" lon="-0.79791">
        <ele>77.83039</ele>
        <time>2022-08-02T14:21:49.000Z</time>
      </trkpt>
      <trkpt lat="49.34902" lon="-0.79775">
        <ele>77.800208</ele>
        <time>2022-08-02T14:21:51.000Z</time>
      </trkpt>
      <trkpt lat="49.34903" lon="-0.79767">
        <ele>77.784918</ele>
        <time>2022-08-02T14:21:52.000Z</time>
      </trkpt>
      <trkpt lat="49.34904" lon="-0.79759">
        <ele>77.769946</ele>
        <time>2022-08-02T14:21:53.000Z</time>
      </trkpt>
      <trkpt lat="49.34905" lon="-0.79751">
        <ele>77.798359</ele>
        <time>2022-08-02T14:21:54.000Z</time>
      </trkpt>
      <trkpt lat="49.34907" lon="-0.79735">
        <ele>77.857527</ele>
        <time>2022-08-02T14:21:56.000Z</time>
      </trkpt>
      <trkpt lat="49.34907" lon="-0.79727">
        <ele>77.887218</ele>
        <time>2022-08-02T14:21:57.000Z</time>
      </trkpt>
      <trkpt lat="49.34908" lon="-0.79719">
        <ele>77.917056</ele>
        <time>2022-08-02T14:21:58.000Z</time>
      </trkpt>
      <trkpt lat="49.34909" lon="-0.79712">
        <ele>77.946511</ele>
        <time>2022-08-02T14:21:59.000Z</time>
      </trkpt>
      <trkpt lat="49.34909" lon="-0.79704">
        <ele>77.975042</ele>
        <time>2022-08-02T14:22:00.000Z</time>
      </trkpt>
      <trkpt lat="49.3491" lon="-0.79688">
        <ele>78.034598</ele>
        <time>2022-08-02T14:22:02.000Z</time>
      </trkpt>
      <trkpt lat="49.34911" lon="-0.7968">
        <ele>78.065044</ele>
        <time>2022-08-02T14:22:03.000Z</time>
      </trkpt>
      <trkpt lat="49.34912" lon="-0.79672">
        <ele>78.095227</ele>
        <time>2022-08-02T14:22:04.000Z</time>
      </trkpt>
      <trkpt lat="49.34913" lon="-0.79664">
        <ele>78.125308</ele>
        <time>2022-08-02T14:22:05.000Z</time>
      </trkpt>
      <trkpt lat="49.34913" lon="-0.79647">
        <ele>78.186205</ele>
        <time>2022-08-02T14:22:07.000Z</time>
      </trkpt>
      <trkpt lat="49.34914" lon="-0.79639">
        <ele>78.216411</ele>
        <time>2022-08-02T14:22:08.000Z</time>
      </trkpt>
      <trkpt lat="49.34915" lon="-0.79631">
        <ele>78.247322</ele>
        <time>2022-08-02T14:22:09.000Z</time>
      </trkpt>
      <trkpt lat="49.34916" lon="-0.79615">
        <ele>78.308169</ele>
        <time>2022-08-02T14:22:11.000Z</time>
      </trkpt>
      <trkpt lat="49.34917" lon="-0.79607">
        <ele>78.339309</ele>
        <time>2022-08-02T14:22:12.000Z</time>
      </trkpt>
      <trkpt lat="49.34918" lon="-0.79598">
        <ele>78.371054</ele>
        <time>2022-08-02T14:22:13.000Z</time>
      </trkpt>
      <trkpt lat="49.34919" lon="-0.7959">
        <ele>78.402962</ele>
        <time>2022-08-02T14:22:14.000Z</time>
      </trkpt>
      <trkpt lat="49.3492" lon="-0.79573">
        <ele>78.46547</ele>
        <time>2022-08-02T14:22:16.000Z</time>
      </trkpt>
      <trkpt lat="49.34921" lon="-0.79564">
        <ele>78.496781</ele>
        <time>2022-08-02T14:22:17.000Z</time>
      </trkpt>
      <trkpt lat="49.34921" lon="-0.79556">
        <ele>78.528526</ele>
        <time>2022-08-02T14:22:18.000Z</time>
      </trkpt>
      <trkpt lat="49.34922" lon="-0.79548">
        <ele>78.558587</ele>
        <time>2022-08-02T14:22:19.000Z</time>
      </trkpt>
      <trkpt lat="49.34923" lon="-0.79539">
        <ele>78.590227</ele>
        <time>2022-08-02T14:22:20.000Z</time>
      </trkpt>
      <trkpt lat="49.34923" lon="-0.79531">
        <ele>78.621169</ele>
        <time>2022-08-02T14:22:21.000Z</time>
      </trkpt>
      <trkpt lat="49.34924" lon="-0.79523">
        <ele>78.65271</ele>
        <time>2022-08-02T14:22:22.000Z</time>
      </trkpt>
      <trkpt lat="49.34924" lon="-0.79506">
        <ele>78.713976</ele>
        <time>2022-08-02T14:22:24.000Z</time>
      </trkpt>
      <trkpt lat="49.34925" lon="-0.79498">
        <ele>78.74455</ele>
        <time>2022-08-02T14:22:25.000Z</time>
      </trkpt>
      <trkpt lat="49.34925" lon="-0.7949">
        <ele>78.774388</ele>
        <time>2022-08-02T14:22:26.000Z</time>
      </trkpt>
      <trkpt lat="49.34926" lon="-0.79473">
        <ele>78.78725</ele>
        <time>2022-08-02T14:22:28.000Z</time>
      </trkpt>
      <trkpt lat="49.34926" lon="-0.79465">
        <ele>78.783468</ele>
        <time>2022-08-02T14:22:29.000Z</time>
      </trkpt>
      <trkpt lat="49.34927" lon="-0.79456">
        <ele>78.779757</ele>
        <time>2022-08-02T14:22:30.000Z</time>
      </trkpt>
      <trkpt lat="49.34927" lon="-0.79448">
        <ele>78.775975</ele>
        <time>2022-08-02T14:22:31.000Z</time>
      </trkpt>
      <trkpt lat="49.34927" lon="-0.79439">
        <ele>78.772144</ele>
        <time>2022-08-02T14:22:32.000Z</time>
      </trkpt>
      <trkpt lat="49.34928" lon="-0.79431">
        <ele>78.768406</ele>
        <time>2022-08-02T14:22:33.000Z</time>
      </trkpt>
      <trkpt lat="49.34928" lon="-0.79422">
        <ele>78.76458</ele>
        <time>2022-08-02T14:22:34.000Z</time>
      </trkpt>
      <trkpt lat="49.34929" lon="-0.79413">
        <ele>78.760694</ele>
        <time>2022-08-02T14:22:35.000Z</time>
      </trkpt>
      <trkpt lat="49.34929" lon="-0.79404">
        <ele>78.756873</ele>
        <time>2022-08-02T14:22:36.000Z</time>
      </trkpt>
      <trkpt lat="49.34929" lon="-0.79396">
        <ele>78.753218</ele>
        <time>2022-08-02T14:22:37.000Z</time>
      </trkpt>
      <trkpt lat="49.3493" lon="-0.79379">
        <ele>78.745829</ele>
        <time>2022-08-02T14:22:39.000Z</time>
      </trkpt>
      <trkpt lat="49.3493" lon="-0.79371">
        <ele>78.74231</ele>
        <time>2022-08-02T14:22:40.000Z</time>
      </trkpt>
      <trkpt lat="49.34931" lon="-0.79363">
        <ele>78.738765</ele>
        <time>2022-08-02T14:22:41.000Z</time>
      </trkpt>
      <trkpt lat="49.34931" lon="-0.79347">
        <ele>78.73165</ele>
        <time>2022-08-02T14:22:43.000Z</time>
      </trkpt>
      <trkpt lat="49.34931" lon="-0.79339">
        <ele>78.728225</ele>
        <time>2022-08-02T14:22:44.000Z</time>
      </trkpt>
      <trkpt lat="49.34931" lon="-0.79332">
        <ele>78.724969</ele>
        <time>2022-08-02T14:22:45.000Z</time>
      </trkpt>
      <trkpt lat="49.34931" lon="-0.79325">
        <ele>78.721756</ele>
        <time>2022-08-02T14:22:46.000Z</time>
      </trkpt>
      <trkpt lat="49.34931" lon="-0.79317">
        <ele>78.718594</ele>
        <time>2022-08-02T14:22:47.000Z</time>
      </trkpt>
      <trkpt lat="49.34931" lon="-0.79304">
        <ele>78.712622</ele>
        <time>2022-08-02T14:22:49.000Z</time>
      </trkpt>
      <trkpt lat="49.34931" lon="-0.79297">
        <ele>78.70946</ele>
        <time>2022-08-02T14:22:50.000Z</time>
      </trkpt>
      <trkpt lat="49.34932" lon="-0.7929">
        <ele>78.70651</ele>
        <time>2022-08-02T14:22:51.000Z</time>
      </trkpt>
      <trkpt lat="49.34933" lon="-0.79284">
        <ele>78.70379</ele>
        <time>2022-08-02T14:22:52.000Z</time>
      </trkpt>
      <trkpt lat="49.34933" lon="-0.79278">
        <ele>78.701257</ele>
        <time>2022-08-02T14:22:53.000Z</time>
      </trkpt>
      <trkpt lat="49.34934" lon="-0.79269">
        <ele>78.697077</ele>
        <time>2022-08-02T14:22:55.000Z</time>
      </trkpt>
      <trkpt lat="49.34933" lon="-0.79265">
        <ele>78.695398</ele>
        <time>2022-08-02T14:22:56.000Z</time>
      </trkpt>
      <trkpt lat="49.34931" lon="-0.79262">
        <ele>78.69352</ele>
        <time>2022-08-02T14:22:57.000Z</time>
      </trkpt>
      <trkpt lat="49.3493" lon="-0.79258">
        <ele>78.691643</ele>
        <time>2022-08-02T14:22:58.000Z</time>
      </trkpt>
      <trkpt lat="49.34928" lon="-0.79255">
        <ele>78.689675</ele>
        <time>2022-08-02T14:22:59.000Z</time>
      </trkpt>
      <trkpt lat="49.34926" lon="-0.79252">
        <ele>78.687741</ele>
        <time>2022-08-02T14:23:00.000Z</time>
      </trkpt>
      <trkpt lat="49.34923" lon="-0.79248">
        <ele>78.685351</ele>
        <time>2022-08-02T14:23:01.000Z</time>
      </trkpt>
      <trkpt lat="49.34919" lon="-0.79239">
        <ele>78.680368</ele>
        <time>2022-08-02T14:23:03.000Z</time>
      </trkpt>
      <trkpt lat="49.34916" lon="-0.79234">
        <ele>78.677443</ele>
        <time>2022-08-02T14:23:04.000Z</time>
      </trkpt>
      <trkpt lat="49.34913" lon="-0.7923">
        <ele>78.674663</ele>
        <time>2022-08-02T14:23:05.000Z</time>
      </trkpt>
      <trkpt lat="49.3491" lon="-0.79225">
        <ele>78.671833</ele>
        <time>2022-08-02T14:23:06.000Z</time>
      </trkpt>
      <trkpt lat="49.34905" lon="-0.79215">
        <ele>78.618918</ele>
        <time>2022-08-02T14:23:08.000Z</time>
      </trkpt>
      <trkpt lat="49.34905" lon="-0.79209">
        <ele>78.591618</ele>
        <time>2022-08-02T14:23:09.000Z</time>
      </trkpt>
      <trkpt lat="49.34906" lon="-0.79203">
        <ele>78.564546</ele>
        <time>2022-08-02T14:23:10.000Z</time>
      </trkpt>
      <trkpt lat="49.34913" lon="-0.79195">
        <ele>78.49827</ele>
        <time>2022-08-02T14:23:12.000Z</time>
      </trkpt>
      <trkpt lat="49.34922" lon="-0.79189">
        <ele>78.427038</ele>
        <time>2022-08-02T14:23:14.000Z</time>
      </trkpt>
      <trkpt lat="49.34927" lon="-0.79186">
        <ele>78.387806</ele>
        <time>2022-08-02T14:23:15.000Z</time>
      </trkpt>
      <trkpt lat="49.34933" lon="-0.79184">
        <ele>78.345772</ele>
        <time>2022-08-02T14:23:16.000Z</time>
      </trkpt>
      <trkpt lat="49.34938" lon="-0.79181">
        <ele>78.306539</ele>
        <time>2022-08-02T14:23:17.000Z</time>
      </trkpt>
      <trkpt lat="49.34943" lon="-0.79179">
        <ele>78.262393</ele>
        <time>2022-08-02T14:23:18.000Z</time>
      </trkpt>
      <trkpt lat="49.34949" lon="-0.79176">
        <ele>78.22047</ele>
        <time>2022-08-02T14:23:19.000Z</time>
      </trkpt>
      <trkpt lat="49.34954" lon="-0.79173">
        <ele>78.180447</ele>
        <time>2022-08-02T14:23:20.000Z</time>
      </trkpt>
      <trkpt lat="49.34959" lon="-0.7917">
        <ele>78.137674</ele>
        <time>2022-08-02T14:23:21.000Z</time>
      </trkpt>
      <trkpt lat="49.34964" lon="-0.79167">
        <ele>78.102393</ele>
        <time>2022-08-02T14:23:22.000Z</time>
      </trkpt>
      <trkpt lat="49.3497" lon="-0.79159">
        <ele>78.041911</ele>
        <time>2022-08-02T14:23:24.000Z</time>
      </trkpt>
      <trkpt lat="49.34971" lon="-0.79153">
        <ele>78.015159</ele>
        <time>2022-08-02T14:23:25.000Z</time>
      </trkpt>
      <trkpt lat="49.34969" lon="-0.79147">
        <ele>77.982881</ele>
        <time>2022-08-02T14:23:26.000Z</time>
      </trkpt>
      <trkpt lat="49.34967" lon="-0.79141">
        <ele>77.948996</ele>
        <time>2022-08-02T14:23:27.000Z</time>
      </trkpt>
      <trkpt lat="49.34965" lon="-0.79129">
        <ele>77.889025</ele>
        <time>2022-08-02T14:23:29.000Z</time>
      </trkpt>
      <trkpt lat="49.34963" lon="-0.79116">
        <ele>77.826291</ele>
        <time>2022-08-02T14:23:31.000Z</time>
      </trkpt>
      <trkpt lat="49.34962" lon="-0.7911">
        <ele>77.794408</ele>
        <time>2022-08-02T14:23:32.000Z</time>
      </trkpt>
      <trkpt lat="49.34959" lon="-0.79095">
        <ele>77.723993</ele>
        <time>2022-08-02T14:23:34.000Z</time>
      </trkpt>
      <trkpt lat="49.34957" lon="-0.79088">
        <ele>77.687225</ele>
        <time>2022-08-02T14:23:35.000Z</time>
      </trkpt>
      <trkpt lat="49.34956" lon="-0.7908">
        <ele>77.647276</ele>
        <time>2022-08-02T14:23:36.000Z</time>
      </trkpt>
      <trkpt lat="49.34954" lon="-0.79064">
        <ele>77.569212</ele>
        <time>2022-08-02T14:23:38.000Z</time>
      </trkpt>
      <trkpt lat="49.34952" lon="-0.79055">
        <ele>77.526601</ele>
        <time>2022-08-02T14:23:39.000Z</time>
      </trkpt>
      <trkpt lat="49.34951" lon="-0.79046">
        <ele>77.482128</ele>
        <time>2022-08-02T14:23:40.000Z</time>
      </trkpt>
      <trkpt lat="49.34948" lon="-0.79027">
        <ele>77.386593</ele>
        <time>2022-08-02T14:23:42.000Z</time>
      </trkpt>
      <trkpt lat="49.34944" lon="-0.79007">
        <ele>77.312489</ele>
        <time>2022-08-02T14:23:44.000Z</time>
      </trkpt>
      <trkpt lat="49.34942" lon="-0.78997">
        <ele>77.283412</ele>
        <time>2022-08-02T14:23:45.000Z</time>
      </trkpt>
      <trkpt lat="49.34941" lon="-0.78988">
        <ele>77.255635</ele>
        <time>2022-08-02T14:23:46.000Z</time>
      </trkpt>
      <trkpt lat="49.34939" lon="-0.78979">
        <ele>77.230723</ele>
        <time>2022-08-02T14:23:47.000Z</time>
      </trkpt>
      <trkpt lat="49.34938" lon="-0.78972">
        <ele>77.20869</ele>
        <time>2022-08-02T14:23:48.000Z</time>
      </trkpt>
      <trkpt lat="49.34938" lon="-0.78965">
        <ele>77.190271</ele>
        <time>2022-08-02T14:23:49.000Z</time>
      </trkpt>
      <trkpt lat="49.34939" lon="-0.7896">
        <ele>77.17439</ele>
        <time>2022-08-02T14:23:50.000Z</time>
      </trkpt>
      <trkpt lat="49.3494" lon="-0.78955">
        <ele>77.160606</ele>
        <time>2022-08-02T14:23:51.000Z</time>
      </trkpt>
      <trkpt lat="49.34941" lon="-0.78951">
        <ele>77.146962</ele>
        <time>2022-08-02T14:23:52.000Z</time>
      </trkpt>
      <trkpt lat="49.34942" lon="-0.78947">
        <ele>77.134632</ele>
        <time>2022-08-02T14:23:53.000Z</time>
      </trkpt>
      <trkpt lat="49.34944" lon="-0.78944">
        <ele>77.121519</ele>
        <time>2022-08-02T14:23:54.000Z</time>
      </trkpt>
      <trkpt lat="49.34948" lon="-0.78938">
        <ele>77.099029</ele>
        <time>2022-08-02T14:23:56.000Z</time>
      </trkpt>
      <trkpt lat="49.34949" lon="-0.78937">
        <ele>77.089839</ele>
        <time>2022-08-02T14:23:57.000Z</time>
      </trkpt>
      <trkpt lat="49.34953" lon="-0.78936">
        <ele>77.072491</ele>
        <time>2022-08-02T14:23:59.000Z</time>
      </trkpt>
      <trkpt lat="49.34959" lon="-0.78937">
        <ele>77.048591</ele>
        <time>2022-08-02T14:24:02.000Z</time>
      </trkpt>
      <trkpt lat="49.34961" lon="-0.78938">
        <ele>77.039806</ele>
        <time>2022-08-02T14:24:03.000Z</time>
      </trkpt>
      <trkpt lat="49.34963" lon="-0.78939">
        <ele>77.030675</ele>
        <time>2022-08-02T14:24:04.000Z</time>
      </trkpt>
      <trkpt lat="49.34967" lon="-0.7894">
        <ele>77.01063</ele>
        <time>2022-08-02T14:24:06.000Z</time>
      </trkpt>
      <trkpt lat="49.3497" lon="-0.78941">
        <ele>76.996142</ele>
        <time>2022-08-02T14:24:07.000Z</time>
      </trkpt>
      <trkpt lat="49.34973" lon="-0.78942">
        <ele>76.984301</ele>
        <time>2022-08-02T14:24:08.000Z</time>
      </trkpt>
      <trkpt lat="49.34976" lon="-0.78944">
        <ele>76.97087</ele>
        <time>2022-08-02T14:24:09.000Z</time>
      </trkpt>
      <trkpt lat="49.34982" lon="-0.78946">
        <ele>76.943251</ele>
        <time>2022-08-02T14:24:11.000Z</time>
      </trkpt>
      <trkpt lat="49.34985" lon="-0.78947">
        <ele>76.927657</ele>
        <time>2022-08-02T14:24:12.000Z</time>
      </trkpt>
      <trkpt lat="49.34989" lon="-0.78947">
        <ele>76.910869</ele>
        <time>2022-08-02T14:24:13.000Z</time>
      </trkpt>
      <trkpt lat="49.34997" lon="-0.78945">
        <ele>76.877963</ele>
        <time>2022-08-02T14:24:15.000Z</time>
      </trkpt>
      <trkpt lat="49.35003" lon="-0.78944">
        <ele>76.847961</ele>
        <time>2022-08-02T14:24:17.000Z</time>
      </trkpt>
      <trkpt lat="49.35007" lon="-0.78942">
        <ele>76.832117</ele>
        <time>2022-08-02T14:24:18.000Z</time>
      </trkpt>
      <trkpt lat="49.35014" lon="-0.7894">
        <ele>76.797566</ele>
        <time>2022-08-02T14:24:20.000Z</time>
      </trkpt>
      <trkpt lat="49.35018" lon="-0.7894">
        <ele>76.780738</ele>
        <time>2022-08-02T14:24:21.000Z</time>
      </trkpt>
      <trkpt lat="49.35022" lon="-0.78939">
        <ele>76.763422</ele>
        <time>2022-08-02T14:24:22.000Z</time>
      </trkpt>
      <trkpt lat="49.35026" lon="-0.78938">
        <ele>76.744982</ele>
        <time>2022-08-02T14:24:23.000Z</time>
      </trkpt>
      <trkpt lat="49.3503" lon="-0.78937">
        <ele>76.726205</ele>
        <time>2022-08-02T14:24:24.000Z</time>
      </trkpt>
      <trkpt lat="49.35035" lon="-0.78936">
        <ele>76.705975</ele>
        <time>2022-08-02T14:24:25.000Z</time>
      </trkpt>
      <trkpt lat="49.3504" lon="-0.78934">
        <ele>76.684075</ele>
        <time>2022-08-02T14:24:26.000Z</time>
      </trkpt>
      <trkpt lat="49.35044" lon="-0.78931">
        <ele>76.662932</ele>
        <time>2022-08-02T14:24:27.000Z</time>
      </trkpt>
      <trkpt lat="49.35049" lon="-0.78929">
        <ele>76.642103</ele>
        <time>2022-08-02T14:24:28.000Z</time>
      </trkpt>
      <trkpt lat="49.35053" lon="-0.78926">
        <ele>76.620428</ele>
        <time>2022-08-02T14:24:29.000Z</time>
      </trkpt>
      <trkpt lat="49.35058" lon="-0.78923">
        <ele>76.596087</ele>
        <time>2022-08-02T14:24:30.000Z</time>
      </trkpt>
      <trkpt lat="49.35063" lon="-0.78919">
        <ele>76.572851</ele>
        <time>2022-08-02T14:24:31.000Z</time>
      </trkpt>
      <trkpt lat="49.35068" lon="-0.78916">
        <ele>76.562046</ele>
        <time>2022-08-02T14:24:32.000Z</time>
      </trkpt>
      <trkpt lat="49.35073" lon="-0.78912">
        <ele>76.569429</ele>
        <time>2022-08-02T14:24:33.000Z</time>
      </trkpt>
      <trkpt lat="49.35078" lon="-0.78909">
        <ele>76.577862</ele>
        <time>2022-08-02T14:24:34.000Z</time>
      </trkpt>
      <trkpt lat="49.35086" lon="-0.78902">
        <ele>76.592316</ele>
        <time>2022-08-02T14:24:36.000Z</time>
      </trkpt>
      <trkpt lat="49.3509" lon="-0.78898">
        <ele>76.599034</ele>
        <time>2022-08-02T14:24:37.000Z</time>
      </trkpt>
      <trkpt lat="49.35093" lon="-0.78893">
        <ele>76.605669</ele>
        <time>2022-08-02T14:24:38.000Z</time>
      </trkpt>
      <trkpt lat="49.35094" lon="-0.78881">
        <ele>76.617353</ele>
        <time>2022-08-02T14:24:40.000Z</time>
      </trkpt>
      <trkpt lat="49.35093" lon="-0.78875">
        <ele>76.623305</ele>
        <time>2022-08-02T14:24:41.000Z</time>
      </trkpt>
      <trkpt lat="49.35092" lon="-0.78869">
        <ele>76.629446</ele>
        <time>2022-08-02T14:24:42.000Z</time>
      </trkpt>
      <trkpt lat="49.35089" lon="-0.78856">
        <ele>76.643196</ele>
        <time>2022-08-02T14:24:44.000Z</time>
      </trkpt>
      <trkpt lat="49.35087" lon="-0.78849">
        <ele>76.649605</ele>
        <time>2022-08-02T14:24:45.000Z</time>
      </trkpt>
      <trkpt lat="49.35086" lon="-0.78843">
        <ele>76.656243</ele>
        <time>2022-08-02T14:24:46.000Z</time>
      </trkpt>
      <trkpt lat="49.35085" lon="-0.78836">
        <ele>76.662788</ele>
        <time>2022-08-02T14:24:47.000Z</time>
      </trkpt>
      <trkpt lat="49.35084" lon="-0.7883">
        <ele>76.66924</ele>
        <time>2022-08-02T14:24:48.000Z</time>
      </trkpt>
      <trkpt lat="49.35082" lon="-0.78823">
        <ele>76.676207</ele>
        <time>2022-08-02T14:24:49.000Z</time>
      </trkpt>
      <trkpt lat="49.35081" lon="-0.78817">
        <ele>76.682939</ele>
        <time>2022-08-02T14:24:50.000Z</time>
      </trkpt>
      <trkpt lat="49.35078" lon="-0.78803">
        <ele>76.696904</ele>
        <time>2022-08-02T14:24:52.000Z</time>
      </trkpt>
      <trkpt lat="49.35077" lon="-0.78796">
        <ele>76.70352</ele>
        <time>2022-08-02T14:24:53.000Z</time>
      </trkpt>
      <trkpt lat="49.35076" lon="-0.7879">
        <ele>76.710487</ele>
        <time>2022-08-02T14:24:54.000Z</time>
      </trkpt>
      <trkpt lat="49.35075" lon="-0.78783">
        <ele>76.717553</ele>
        <time>2022-08-02T14:24:55.000Z</time>
      </trkpt>
      <trkpt lat="49.35074" lon="-0.78776">
        <ele>76.724264</ele>
        <time>2022-08-02T14:24:56.000Z</time>
      </trkpt>
      <trkpt lat="49.35072" lon="-0.78769">
        <ele>76.73137</ele>
        <time>2022-08-02T14:24:57.000Z</time>
      </trkpt>
      <trkpt lat="49.35071" lon="-0.78762">
        <ele>76.738289</ele>
        <time>2022-08-02T14:24:58.000Z</time>
      </trkpt>
      <trkpt lat="49.3507" lon="-0.78755">
        <ele>76.744968</ele>
        <time>2022-08-02T14:24:59.000Z</time>
      </trkpt>
      <trkpt lat="49.35069" lon="-0.78749">
        <ele>76.751607</ele>
        <time>2022-08-02T14:25:00.000Z</time>
      </trkpt>
      <trkpt lat="49.35067" lon="-0.78743">
        <ele>76.757945</ele>
        <time>2022-08-02T14:25:01.000Z</time>
      </trkpt>
      <trkpt lat="49.35065" lon="-0.78738">
        <ele>76.764162</ele>
        <time>2022-08-02T14:25:02.000Z</time>
      </trkpt>
      <trkpt lat="49.35062" lon="-0.78733">
        <ele>76.770238</ele>
        <time>2022-08-02T14:25:03.000Z</time>
      </trkpt>
      <trkpt lat="49.35054" lon="-0.78728">
        <ele>76.782966</ele>
        <time>2022-08-02T14:25:05.000Z</time>
      </trkpt>
      <trkpt lat="49.3505" lon="-0.78726">
        <ele>76.789429</ele>
        <time>2022-08-02T14:25:06.000Z</time>
      </trkpt>
      <trkpt lat="49.35041" lon="-0.78723">
        <ele>76.803671</ele>
        <time>2022-08-02T14:25:08.000Z</time>
      </trkpt>
      <trkpt lat="49.35037" lon="-0.78721">
        <ele>76.809947</ele>
        <time>2022-08-02T14:25:09.000Z</time>
      </trkpt>
      <trkpt lat="49.35033" lon="-0.78717">
        <ele>76.816316</ele>
        <time>2022-08-02T14:25:10.000Z</time>
      </trkpt>
      <trkpt lat="49.35031" lon="-0.78712">
        <ele>76.82241</ele>
        <time>2022-08-02T14:25:11.000Z</time>
      </trkpt>
      <trkpt lat="49.35029" lon="-0.78707">
        <ele>76.827894</ele>
        <time>2022-08-02T14:25:12.000Z</time>
      </trkpt>
      <trkpt lat="49.35027" lon="-0.78702">
        <ele>76.857806</ele>
        <time>2022-08-02T14:25:13.000Z</time>
      </trkpt>
      <trkpt lat="49.35026" lon="-0.78698">
        <ele>76.88574</ele>
        <time>2022-08-02T14:25:14.000Z</time>
      </trkpt>
      <trkpt lat="49.35027" lon="-0.78692">
        <ele>76.914765</ele>
        <time>2022-08-02T14:25:15.000Z</time>
      </trkpt>
      <trkpt lat="49.35028" lon="-0.78687">
        <ele>76.945867</ele>
        <time>2022-08-02T14:25:16.000Z</time>
      </trkpt>
      <trkpt lat="49.3503" lon="-0.78682">
        <ele>76.980707</ele>
        <time>2022-08-02T14:25:17.000Z</time>
      </trkpt>
      <trkpt lat="49.35033" lon="-0.78676">
        <ele>77.020361</ele>
        <time>2022-08-02T14:25:18.000Z</time>
      </trkpt>
      <trkpt lat="49.35037" lon="-0.78671">
        <ele>77.06557</ele>
        <time>2022-08-02T14:25:19.000Z</time>
      </trkpt>
      <trkpt lat="49.35041" lon="-0.78664">
        <ele>77.112757</ele>
        <time>2022-08-02T14:25:20.000Z</time>
      </trkpt>
      <trkpt lat="49.35046" lon="-0.78658">
        <ele>77.168444</ele>
        <time>2022-08-02T14:25:21.000Z</time>
      </trkpt>
      <trkpt lat="49.35051" lon="-0.78652">
        <ele>77.222784</ele>
        <time>2022-08-02T14:25:22.000Z</time>
      </trkpt>
      <trkpt lat="49.35057" lon="-0.78648">
        <ele>77.276826</ele>
        <time>2022-08-02T14:25:23.000Z</time>
      </trkpt>
      <trkpt lat="49.35063" lon="-0.78645">
        <ele>77.334274</ele>
        <time>2022-08-02T14:25:24.000Z</time>
      </trkpt>
      <trkpt lat="49.35069" lon="-0.78641">
        <ele>77.389686</ele>
        <time>2022-08-02T14:25:25.000Z</time>
      </trkpt>
      <trkpt lat="49.35075" lon="-0.78638">
        <ele>77.442515</ele>
        <time>2022-08-02T14:25:26.000Z</time>
      </trkpt>
      <trkpt lat="49.3508" lon="-0.78634">
        <ele>77.492609</ele>
        <time>2022-08-02T14:25:27.000Z</time>
      </trkpt>
      <trkpt lat="49.35085" lon="-0.78631">
        <ele>77.534355</ele>
        <time>2022-08-02T14:25:28.000Z</time>
      </trkpt>
      <trkpt lat="49.35089" lon="-0.78629">
        <ele>77.5731</ele>
        <time>2022-08-02T14:25:29.000Z</time>
      </trkpt>
      <trkpt lat="49.35094" lon="-0.78627">
        <ele>77.615422</ele>
        <time>2022-08-02T14:25:30.000Z</time>
      </trkpt>
      <trkpt lat="49.35103" lon="-0.78623">
        <ele>77.693598</ele>
        <time>2022-08-02T14:25:32.000Z</time>
      </trkpt>
      <trkpt lat="49.35108" lon="-0.78621">
        <ele>77.735919</ele>
        <time>2022-08-02T14:25:33.000Z</time>
      </trkpt>
      <trkpt lat="49.35112" lon="-0.78619">
        <ele>77.77368</ele>
        <time>2022-08-02T14:25:34.000Z</time>
      </trkpt>
      <trkpt lat="49.3512" lon="-0.78612">
        <ele>77.854262</ele>
        <time>2022-08-02T14:25:36.000Z</time>
      </trkpt>
      <trkpt lat="49.35124" lon="-0.78607">
        <ele>77.89544</ele>
        <time>2022-08-02T14:25:37.000Z</time>
      </trkpt>
      <trkpt lat="49.35126" lon="-0.78602">
        <ele>77.934011</ele>
        <time>2022-08-02T14:25:38.000Z</time>
      </trkpt>
      <trkpt lat="49.35128" lon="-0.78595">
        <ele>77.97199</ele>
        <time>2022-08-02T14:25:39.000Z</time>
      </trkpt>
      <trkpt lat="49.3513" lon="-0.78588">
        <ele>78.013634</ele>
        <time>2022-08-02T14:25:40.000Z</time>
      </trkpt>
      <trkpt lat="49.35132" lon="-0.78573">
        <ele>78.09898</ele>
        <time>2022-08-02T14:25:42.000Z</time>
      </trkpt>
      <trkpt lat="49.35132" lon="-0.78565">
        <ele>78.143722</ele>
        <time>2022-08-02T14:25:43.000Z</time>
      </trkpt>
      <trkpt lat="49.35134" lon="-0.7855">
        <ele>78.231653</ele>
        <time>2022-08-02T14:25:45.000Z</time>
      </trkpt>
      <trkpt lat="49.35136" lon="-0.78542">
        <ele>78.276281</ele>
        <time>2022-08-02T14:25:46.000Z</time>
      </trkpt>
      <trkpt lat="49.35137" lon="-0.78534">
        <ele>78.322374</ele>
        <time>2022-08-02T14:25:47.000Z</time>
      </trkpt>
      <trkpt lat="49.35138" lon="-0.78525">
        <ele>78.360912</ele>
        <time>2022-08-02T14:25:48.000Z</time>
      </trkpt>
      <trkpt lat="49.3514" lon="-0.78517">
        <ele>78.37086</ele>
        <time>2022-08-02T14:25:49.000Z</time>
      </trkpt>
      <trkpt lat="49.35142" lon="-0.78501">
        <ele>78.391468</ele>
        <time>2022-08-02T14:25:51.000Z</time>
      </trkpt>
      <trkpt lat="49.35144" lon="-0.78492">
        <ele>78.402112</ele>
        <time>2022-08-02T14:25:52.000Z</time>
      </trkpt>
      <trkpt lat="49.35145" lon="-0.78484">
        <ele>78.412433</ele>
        <time>2022-08-02T14:25:53.000Z</time>
      </trkpt>
      <trkpt lat="49.35146" lon="-0.78475">
        <ele>78.422937</ele>
        <time>2022-08-02T14:25:54.000Z</time>
      </trkpt>
      <trkpt lat="49.35148" lon="-0.78466">
        <ele>78.433831</ele>
        <time>2022-08-02T14:25:55.000Z</time>
      </trkpt>
      <trkpt lat="49.35149" lon="-0.78458">
        <ele>78.444242</ele>
        <time>2022-08-02T14:25:56.000Z</time>
      </trkpt>
      <trkpt lat="49.3515" lon="-0.78449">
        <ele>78.454776</ele>
        <time>2022-08-02T14:25:57.000Z</time>
      </trkpt>
      <trkpt lat="49.35151" lon="-0.78441">
        <ele>78.464724</ele>
        <time>2022-08-02T14:25:58.000Z</time>
      </trkpt>
      <trkpt lat="49.35152" lon="-0.78432">
        <ele>78.474992</ele>
        <time>2022-08-02T14:25:59.000Z</time>
      </trkpt>
      <trkpt lat="49.35154" lon="-0.78424">
        <ele>78.485403</ele>
        <time>2022-08-02T14:26:00.000Z</time>
      </trkpt>
      <trkpt lat="49.35155" lon="-0.78415">
        <ele>78.495839</ele>
        <time>2022-08-02T14:26:01.000Z</time>
      </trkpt>
      <trkpt lat="49.35156" lon="-0.78407">
        <ele>78.506138</ele>
        <time>2022-08-02T14:26:02.000Z</time>
      </trkpt>
      <trkpt lat="49.35157" lon="-0.78398">
        <ele>78.516625</ele>
        <time>2022-08-02T14:26:03.000Z</time>
      </trkpt>
      <trkpt lat="49.35158" lon="-0.7839">
        <ele>78.526925</ele>
        <time>2022-08-02T14:26:04.000Z</time>
      </trkpt>
      <trkpt lat="49.3516" lon="-0.78381">
        <ele>78.537475</ele>
        <time>2022-08-02T14:26:05.000Z</time>
      </trkpt>
      <trkpt lat="49.35161" lon="-0.78373">
        <ele>78.548118</ele>
        <time>2022-08-02T14:26:06.000Z</time>
      </trkpt>
      <trkpt lat="49.35162" lon="-0.78364">
        <ele>78.558622</ele>
        <time>2022-08-02T14:26:07.000Z</time>
      </trkpt>
      <trkpt lat="49.35164" lon="-0.78355">
        <ele>78.569382</ele>
        <time>2022-08-02T14:26:08.000Z</time>
      </trkpt>
      <trkpt lat="49.35165" lon="-0.78346">
        <ele>78.580141</ele>
        <time>2022-08-02T14:26:09.000Z</time>
      </trkpt>
      <trkpt lat="49.35166" lon="-0.78337">
        <ele>78.591028</ele>
        <time>2022-08-02T14:26:10.000Z</time>
      </trkpt>
      <trkpt lat="49.35167" lon="-0.78328">
        <ele>78.601982</ele>
        <time>2022-08-02T14:26:11.000Z</time>
      </trkpt>
      <trkpt lat="49.35168" lon="-0.78319">
        <ele>78.612869</ele>
        <time>2022-08-02T14:26:12.000Z</time>
      </trkpt>
      <trkpt lat="49.35169" lon="-0.7831">
        <ele>78.624094</ele>
        <time>2022-08-02T14:26:13.000Z</time>
      </trkpt>
      <trkpt lat="49.3517" lon="-0.78301">
        <ele>78.635305</ele>
        <time>2022-08-02T14:26:14.000Z</time>
      </trkpt>
      <trkpt lat="49.35171" lon="-0.78292">
        <ele>78.646427</ele>
        <time>2022-08-02T14:26:15.000Z</time>
      </trkpt>
      <trkpt lat="49.35172" lon="-0.78283">
        <ele>78.656977</ele>
        <time>2022-08-02T14:26:16.000Z</time>
      </trkpt>
      <trkpt lat="49.35173" lon="-0.78274">
        <ele>78.667746</ele>
        <time>2022-08-02T14:26:17.000Z</time>
      </trkpt>
      <trkpt lat="49.35173" lon="-0.78265">
        <ele>78.678016</ele>
        <time>2022-08-02T14:26:18.000Z</time>
      </trkpt>
      <trkpt lat="49.35174" lon="-0.78257">
        <ele>78.688352</ele>
        <time>2022-08-02T14:26:19.000Z</time>
      </trkpt>
      <trkpt lat="49.35174" lon="-0.78248">
        <ele>78.69725</ele>
        <time>2022-08-02T14:26:20.000Z</time>
      </trkpt>
      <trkpt lat="49.35175" lon="-0.78239">
        <ele>78.706083</ele>
        <time>2022-08-02T14:26:21.000Z</time>
      </trkpt>
      <trkpt lat="49.35175" lon="-0.7823">
        <ele>78.71488</ele>
        <time>2022-08-02T14:26:22.000Z</time>
      </trkpt>
      <trkpt lat="49.35175" lon="-0.78222">
        <ele>78.723787</ele>
        <time>2022-08-02T14:26:23.000Z</time>
      </trkpt>
      <trkpt lat="49.35175" lon="-0.78213">
        <ele>78.732875</ele>
        <time>2022-08-02T14:26:24.000Z</time>
      </trkpt>
      <trkpt lat="49.35175" lon="-0.78204">
        <ele>78.741962</ele>
        <time>2022-08-02T14:26:25.000Z</time>
      </trkpt>
      <trkpt lat="49.35175" lon="-0.78195">
        <ele>78.750847</ele>
        <time>2022-08-02T14:26:26.000Z</time>
      </trkpt>
      <trkpt lat="49.35176" lon="-0.78186">
        <ele>78.759947</ele>
        <time>2022-08-02T14:26:27.000Z</time>
      </trkpt>
      <trkpt lat="49.35176" lon="-0.78177">
        <ele>78.768933</ele>
        <time>2022-08-02T14:26:28.000Z</time>
      </trkpt>
      <trkpt lat="49.35176" lon="-0.78168">
        <ele>78.777831</ele>
        <time>2022-08-02T14:26:29.000Z</time>
      </trkpt>
      <trkpt lat="49.35177" lon="-0.78151">
        <ele>78.795367</ele>
        <time>2022-08-02T14:26:31.000Z</time>
      </trkpt>
      <trkpt lat="49.35177" lon="-0.78142">
        <ele>78.804164</ele>
        <time>2022-08-02T14:26:32.000Z</time>
      </trkpt>
      <trkpt lat="49.35178" lon="-0.78134">
        <ele>78.812797</ele>
        <time>2022-08-02T14:26:33.000Z</time>
      </trkpt>
      <trkpt lat="49.35178" lon="-0.78125">
        <ele>78.821379</ele>
        <time>2022-08-02T14:26:34.000Z</time>
      </trkpt>
      <trkpt lat="49.35178" lon="-0.78116">
        <ele>78.830176</ele>
        <time>2022-08-02T14:26:35.000Z</time>
      </trkpt>
      <trkpt lat="49.35178" lon="-0.78108">
        <ele>78.838872</ele>
        <time>2022-08-02T14:26:36.000Z</time>
      </trkpt>
      <trkpt lat="49.35178" lon="-0.78099">
        <ele>78.847354</ele>
        <time>2022-08-02T14:26:37.000Z</time>
      </trkpt>
      <trkpt lat="49.35178" lon="-0.78091">
        <ele>78.85605</ele>
        <time>2022-08-02T14:26:38.000Z</time>
      </trkpt>
      <trkpt lat="49.35178" lon="-0.78082">
        <ele>78.864834</ele>
        <time>2022-08-02T14:26:39.000Z</time>
      </trkpt>
      <trkpt lat="49.35177" lon="-0.78073">
        <ele>78.873631</ele>
        <time>2022-08-02T14:26:40.000Z</time>
      </trkpt>
      <trkpt lat="49.35177" lon="-0.78065">
        <ele>78.882327</ele>
        <time>2022-08-02T14:26:41.000Z</time>
      </trkpt>
      <trkpt lat="49.35176" lon="-0.78056">
        <ele>78.891178</ele>
        <time>2022-08-02T14:26:42.000Z</time>
      </trkpt>
      <trkpt lat="49.35176" lon="-0.78047">
        <ele>78.899963</ele>
        <time>2022-08-02T14:26:43.000Z</time>
      </trkpt>
      <trkpt lat="49.35176" lon="-0.78039">
        <ele>78.908558</ele>
        <time>2022-08-02T14:26:44.000Z</time>
      </trkpt>
      <trkpt lat="49.35176" lon="-0.78031">
        <ele>78.916938</ele>
        <time>2022-08-02T14:26:45.000Z</time>
      </trkpt>
      <trkpt lat="49.35175" lon="-0.78022">
        <ele>78.92527</ele>
        <time>2022-08-02T14:26:46.000Z</time>
      </trkpt>
      <trkpt lat="49.35175" lon="-0.78014">
        <ele>78.933449</ele>
        <time>2022-08-02T14:26:47.000Z</time>
      </trkpt>
      <trkpt lat="49.35175" lon="-0.78006">
        <ele>78.94145</ele>
        <time>2022-08-02T14:26:48.000Z</time>
      </trkpt>
      <trkpt lat="49.35174" lon="-0.77998">
        <ele>78.949647</ele>
        <time>2022-08-02T14:26:49.000Z</time>
      </trkpt>
      <trkpt lat="49.35173" lon="-0.77991">
        <ele>78.957597</ele>
        <time>2022-08-02T14:26:50.000Z</time>
      </trkpt>
      <trkpt lat="49.35173" lon="-0.77983">
        <ele>78.965227</ele>
        <time>2022-08-02T14:26:51.000Z</time>
      </trkpt>
      <trkpt lat="49.35172" lon="-0.77976">
        <ele>78.965807</ele>
        <time>2022-08-02T14:26:52.000Z</time>
      </trkpt>
      <trkpt lat="49.35171" lon="-0.77968">
        <ele>78.964974</ele>
        <time>2022-08-02T14:26:53.000Z</time>
      </trkpt>
      <trkpt lat="49.3517" lon="-0.77961">
        <ele>78.964179</ele>
        <time>2022-08-02T14:26:54.000Z</time>
      </trkpt>
      <trkpt lat="49.3517" lon="-0.77954">
        <ele>78.963381</ele>
        <time>2022-08-02T14:26:55.000Z</time>
      </trkpt>
      <trkpt lat="49.35169" lon="-0.77946">
        <ele>78.962577</ele>
        <time>2022-08-02T14:26:56.000Z</time>
      </trkpt>
      <trkpt lat="49.35168" lon="-0.77939">
        <ele>78.961752</ele>
        <time>2022-08-02T14:26:57.000Z</time>
      </trkpt>
      <trkpt lat="49.35167" lon="-0.77931">
        <ele>78.960895</ele>
        <time>2022-08-02T14:26:58.000Z</time>
      </trkpt>
      <trkpt lat="49.35165" lon="-0.77924">
        <ele>78.960026</ele>
        <time>2022-08-02T14:26:59.000Z</time>
      </trkpt>
      <trkpt lat="49.35163" lon="-0.77917">
        <ele>78.959148</ele>
        <time>2022-08-02T14:27:00.000Z</time>
      </trkpt>
      <trkpt lat="49.3516" lon="-0.7791">
        <ele>78.958215</ele>
        <time>2022-08-02T14:27:01.000Z</time>
      </trkpt>
      <trkpt lat="49.35156" lon="-0.77903">
        <ele>78.957251</ele>
        <time>2022-08-02T14:27:02.000Z</time>
      </trkpt>
      <trkpt lat="49.35153" lon="-0.77896">
        <ele>78.956318</ele>
        <time>2022-08-02T14:27:03.000Z</time>
      </trkpt>
      <trkpt lat="49.3515" lon="-0.77888">
        <ele>78.955339</ele>
        <time>2022-08-02T14:27:04.000Z</time>
      </trkpt>
      <trkpt lat="49.35146" lon="-0.77881">
        <ele>78.954322</ele>
        <time>2022-08-02T14:27:05.000Z</time>
      </trkpt>
      <trkpt lat="49.35144" lon="-0.77873">
        <ele>78.953373</ele>
        <time>2022-08-02T14:27:06.000Z</time>
      </trkpt>
      <trkpt lat="49.35141" lon="-0.77865">
        <ele>78.952397</ele>
        <time>2022-08-02T14:27:07.000Z</time>
      </trkpt>
      <trkpt lat="49.35139" lon="-0.77857">
        <ele>78.951438</ele>
        <time>2022-08-02T14:27:08.000Z</time>
      </trkpt>
      <trkpt lat="49.35137" lon="-0.77849">
        <ele>78.95058</ele>
        <time>2022-08-02T14:27:09.000Z</time>
      </trkpt>
      <trkpt lat="49.35136" lon="-0.77842">
        <ele>78.949729</ele>
        <time>2022-08-02T14:27:10.000Z</time>
      </trkpt>
      <trkpt lat="49.35135" lon="-0.77835">
        <ele>78.948923</ele>
        <time>2022-08-02T14:27:11.000Z</time>
      </trkpt>
      <trkpt lat="49.35134" lon="-0.77827">
        <ele>78.94812</ele>
        <time>2022-08-02T14:27:12.000Z</time>
      </trkpt>
      <trkpt lat="49.35134" lon="-0.7782">
        <ele>78.947327</ele>
        <time>2022-08-02T14:27:13.000Z</time>
      </trkpt>
      <trkpt lat="49.35133" lon="-0.77813">
        <ele>78.946539</ele>
        <time>2022-08-02T14:27:14.000Z</time>
      </trkpt>
      <trkpt lat="49.35133" lon="-0.77806">
        <ele>78.945794</ele>
        <time>2022-08-02T14:27:15.000Z</time>
      </trkpt>
      <trkpt lat="49.35133" lon="-0.778">
        <ele>78.94511</ele>
        <time>2022-08-02T14:27:16.000Z</time>
      </trkpt>
      <trkpt lat="49.35132" lon="-0.77795">
        <ele>78.94452</ele>
        <time>2022-08-02T14:27:17.000Z</time>
      </trkpt>
      <trkpt lat="49.3513" lon="-0.7779">
        <ele>78.943888</ele>
        <time>2022-08-02T14:27:18.000Z</time>
      </trkpt>
      <trkpt lat="49.35127" lon="-0.77786">
        <ele>78.943298</ele>
        <time>2022-08-02T14:27:19.000Z</time>
      </trkpt>
      <trkpt lat="49.35124" lon="-0.77784">
        <ele>78.942649</ele>
        <time>2022-08-02T14:27:20.000Z</time>
      </trkpt>
      <trkpt lat="49.3512" lon="-0.77783">
        <ele>78.94196</ele>
        <time>2022-08-02T14:27:21.000Z</time>
      </trkpt>
      <trkpt lat="49.35115" lon="-0.77784">
        <ele>78.941103</ele>
        <time>2022-08-02T14:27:22.000Z</time>
      </trkpt>
      <trkpt lat="49.3511" lon="-0.77785">
        <ele>78.940291</ele>
        <time>2022-08-02T14:27:23.000Z</time>
      </trkpt>
      <trkpt lat="49.35104" lon="-0.77786">
        <ele>78.939355</ele>
        <time>2022-08-02T14:27:24.000Z</time>
      </trkpt>
      <trkpt lat="49.35099" lon="-0.77788">
        <ele>78.938386</ele>
        <time>2022-08-02T14:27:25.000Z</time>
      </trkpt>
      <trkpt lat="49.35093" lon="-0.77789">
        <ele>78.937495</ele>
        <time>2022-08-02T14:27:26.000Z</time>
      </trkpt>
      <trkpt lat="49.35087" lon="-0.77791">
        <ele>78.93647</ele>
        <time>2022-08-02T14:27:27.000Z</time>
      </trkpt>
      <trkpt lat="49.35082" lon="-0.77793">
        <ele>78.981605</ele>
        <time>2022-08-02T14:27:28.000Z</time>
      </trkpt>
      <trkpt lat="49.35076" lon="-0.77794">
        <ele>79.032522</ele>
        <time>2022-08-02T14:27:29.000Z</time>
      </trkpt>
      <trkpt lat="49.3507" lon="-0.77796">
        <ele>79.082586</ele>
        <time>2022-08-02T14:27:30.000Z</time>
      </trkpt>
      <trkpt lat="49.35064" lon="-0.77797">
        <ele>79.133703</ele>
        <time>2022-08-02T14:27:31.000Z</time>
      </trkpt>
      <trkpt lat="49.35059" lon="-0.77799">
        <ele>79.178766</ele>
        <time>2022-08-02T14:27:32.000Z</time>
      </trkpt>
      <trkpt lat="49.35054" lon="-0.77801">
        <ele>79.224197</ele>
        <time>2022-08-02T14:27:33.000Z</time>
      </trkpt>
      <trkpt lat="49.35049" lon="-0.77802">
        <ele>79.272371</ele>
        <time>2022-08-02T14:27:34.000Z</time>
      </trkpt>
      <trkpt lat="49.35043" lon="-0.77804">
        <ele>79.320092</ele>
        <time>2022-08-02T14:27:35.000Z</time>
      </trkpt>
      <trkpt lat="49.35038" lon="-0.77805">
        <ele>79.365154</ele>
        <time>2022-08-02T14:27:36.000Z</time>
      </trkpt>
      <trkpt lat="49.35033" lon="-0.77807">
        <ele>79.413958</ele>
        <time>2022-08-02T14:27:37.000Z</time>
      </trkpt>
      <trkpt lat="49.35027" lon="-0.77809">
        <ele>79.461794</ele>
        <time>2022-08-02T14:27:38.000Z</time>
      </trkpt>
      <trkpt lat="49.35022" lon="-0.77811">
        <ele>79.506973</ele>
        <time>2022-08-02T14:27:39.000Z</time>
      </trkpt>
      <trkpt lat="49.35017" lon="-0.77812">
        <ele>79.555332</ele>
        <time>2022-08-02T14:27:40.000Z</time>
      </trkpt>
      <trkpt lat="49.35012" lon="-0.77814">
        <ele>79.600285</ele>
        <time>2022-08-02T14:27:41.000Z</time>
      </trkpt>
      <trkpt lat="49.35006" lon="-0.77815">
        <ele>79.645238</ele>
        <time>2022-08-02T14:27:42.000Z</time>
      </trkpt>
      <trkpt lat="49.35001" lon="-0.77817">
        <ele>79.692848</ele>
        <time>2022-08-02T14:27:43.000Z</time>
      </trkpt>
      <trkpt lat="49.34996" lon="-0.77819">
        <ele>79.735761</ele>
        <time>2022-08-02T14:27:44.000Z</time>
      </trkpt>
      <trkpt lat="49.34991" lon="-0.7782">
        <ele>79.781672</ele>
        <time>2022-08-02T14:27:45.000Z</time>
      </trkpt>
      <trkpt lat="49.34987" lon="-0.77822">
        <ele>79.82069</ele>
        <time>2022-08-02T14:27:46.000Z</time>
      </trkpt>
      <trkpt lat="49.34981" lon="-0.77823">
        <ele>79.866494</ele>
        <time>2022-08-02T14:27:47.000Z</time>
      </trkpt>
      <trkpt lat="49.34977" lon="-0.77825">
        <ele>79.903259</ele>
        <time>2022-08-02T14:27:48.000Z</time>
      </trkpt>
      <trkpt lat="49.34973" lon="-0.77827">
        <ele>79.943815</ele>
        <time>2022-08-02T14:27:49.000Z</time>
      </trkpt>
      <trkpt lat="49.34969" lon="-0.77829">
        <ele>79.978242</ele>
        <time>2022-08-02T14:27:50.000Z</time>
      </trkpt>
      <trkpt lat="49.34965" lon="-0.7783">
        <ele>80.010391</ele>
        <time>2022-08-02T14:27:51.000Z</time>
      </trkpt>
      <trkpt lat="49.34962" lon="-0.77832">
        <ele>80.044502</ele>
        <time>2022-08-02T14:27:52.000Z</time>
      </trkpt>
      <trkpt lat="49.34959" lon="-0.77834">
        <ele>80.071798</ele>
        <time>2022-08-02T14:27:53.000Z</time>
      </trkpt>
      <trkpt lat="49.34955" lon="-0.77835">
        <ele>80.103256</ele>
        <time>2022-08-02T14:27:54.000Z</time>
      </trkpt>
      <trkpt lat="49.34952" lon="-0.77837">
        <ele>80.129748</ele>
        <time>2022-08-02T14:27:55.000Z</time>
      </trkpt>
      <trkpt lat="49.34949" lon="-0.77837">
        <ele>80.15508</ele>
        <time>2022-08-02T14:27:56.000Z</time>
      </trkpt>
      <trkpt lat="49.34947" lon="-0.77837">
        <ele>80.176729</ele>
        <time>2022-08-02T14:27:57.000Z</time>
      </trkpt>
      <trkpt lat="49.34944" lon="-0.77835">
        <ele>80.204252</ele>
        <time>2022-08-02T14:27:58.000Z</time>
      </trkpt>
      <trkpt lat="49.34942" lon="-0.77832">
        <ele>80.231277</ele>
        <time>2022-08-02T14:27:59.000Z</time>
      </trkpt>
      <trkpt lat="49.34941" lon="-0.77827">
        <ele>80.259554</ele>
        <time>2022-08-02T14:28:00.000Z</time>
      </trkpt>
      <trkpt lat="49.34939" lon="-0.77821">
        <ele>80.296116</ele>
        <time>2022-08-02T14:28:01.000Z</time>
      </trkpt>
      <trkpt lat="49.34938" lon="-0.77814">
        <ele>80.33598</ele>
        <time>2022-08-02T14:28:02.000Z</time>
      </trkpt>
      <trkpt lat="49.34937" lon="-0.77807">
        <ele>80.380274</ele>
        <time>2022-08-02T14:28:03.000Z</time>
      </trkpt>
      <trkpt lat="49.34937" lon="-0.77798">
        <ele>80.426913</ele>
        <time>2022-08-02T14:28:04.000Z</time>
      </trkpt>
      <trkpt lat="49.34936" lon="-0.7779">
        <ele>80.476034</ele>
        <time>2022-08-02T14:28:05.000Z</time>
      </trkpt>
      <trkpt lat="49.34936" lon="-0.77781">
        <ele>80.504762</ele>
        <time>2022-08-02T14:28:06.000Z</time>
      </trkpt>
      <trkpt lat="49.34935" lon="-0.77772">
        <ele>80.52213</ele>
        <time>2022-08-02T14:28:07.000Z</time>
      </trkpt>
      <trkpt lat="49.34935" lon="-0.77762">
        <ele>80.540142</ele>
        <time>2022-08-02T14:28:08.000Z</time>
      </trkpt>
      <trkpt lat="49.34935" lon="-0.77753">
        <ele>80.558367</ele>
        <time>2022-08-02T14:28:09.000Z</time>
      </trkpt>
      <trkpt lat="49.34934" lon="-0.77743">
        <ele>80.576952</ele>
        <time>2022-08-02T14:28:10.000Z</time>
      </trkpt>
      <trkpt lat="49.34933" lon="-0.77734">
        <ele>80.595194</ele>
        <time>2022-08-02T14:28:11.000Z</time>
      </trkpt>
      <trkpt lat="49.34933" lon="-0.77725">
        <ele>80.612529</ele>
        <time>2022-08-02T14:28:12.000Z</time>
      </trkpt>
      <trkpt lat="49.34932" lon="-0.77716">
        <ele>80.629458</ele>
        <time>2022-08-02T14:28:13.000Z</time>
      </trkpt>
      <trkpt lat="49.34931" lon="-0.77707">
        <ele>80.647175</ele>
        <time>2022-08-02T14:28:14.000Z</time>
      </trkpt>
      <trkpt lat="49.34931" lon="-0.77698">
        <ele>80.664634</ele>
        <time>2022-08-02T14:28:15.000Z</time>
      </trkpt>
      <trkpt lat="49.3493" lon="-0.77689">
        <ele>80.68194</ele>
        <time>2022-08-02T14:28:16.000Z</time>
      </trkpt>
      <trkpt lat="49.3493" lon="-0.7768">
        <ele>80.6994</ele>
        <time>2022-08-02T14:28:17.000Z</time>
      </trkpt>
      <trkpt lat="49.34929" lon="-0.77671">
        <ele>80.716735</ele>
        <time>2022-08-02T14:28:18.000Z</time>
      </trkpt>
      <trkpt lat="49.34929" lon="-0.77662">
        <ele>80.734403</ele>
        <time>2022-08-02T14:28:19.000Z</time>
      </trkpt>
      <trkpt lat="49.34928" lon="-0.77652">
        <ele>80.75223</ele>
        <time>2022-08-02T14:28:20.000Z</time>
      </trkpt>
      <trkpt lat="49.34927" lon="-0.77643">
        <ele>80.770169</ele>
        <time>2022-08-02T14:28:21.000Z</time>
      </trkpt>
      <trkpt lat="49.34926" lon="-0.77634">
        <ele>80.788148</ele>
        <time>2022-08-02T14:28:22.000Z</time>
      </trkpt>
      <trkpt lat="49.34925" lon="-0.77625">
        <ele>80.806209</ele>
        <time>2022-08-02T14:28:23.000Z</time>
      </trkpt>
      <trkpt lat="49.34924" lon="-0.77615">
        <ele>80.824248</ele>
        <time>2022-08-02T14:28:24.000Z</time>
      </trkpt>
      <trkpt lat="49.34923" lon="-0.77606">
        <ele>80.841775</ele>
        <time>2022-08-02T14:28:25.000Z</time>
      </trkpt>
      <trkpt lat="49.34922" lon="-0.77597">
        <ele>80.859439</ele>
        <time>2022-08-02T14:28:26.000Z</time>
      </trkpt>
      <trkpt lat="49.34921" lon="-0.77589">
        <ele>80.875802</ele>
        <time>2022-08-02T14:28:27.000Z</time>
      </trkpt>
      <trkpt lat="49.34919" lon="-0.77581">
        <ele>80.891159</ele>
        <time>2022-08-02T14:28:28.000Z</time>
      </trkpt>
      <trkpt lat="49.34918" lon="-0.77574">
        <ele>80.906281</ele>
        <time>2022-08-02T14:28:29.000Z</time>
      </trkpt>
      <trkpt lat="49.34917" lon="-0.77567">
        <ele>80.919079</ele>
        <time>2022-08-02T14:28:30.000Z</time>
      </trkpt>
      <trkpt lat="49.34915" lon="-0.77561">
        <ele>80.930972</ele>
        <time>2022-08-02T14:28:31.000Z</time>
      </trkpt>
      <trkpt lat="49.34914" lon="-0.77557">
        <ele>80.94058</ele>
        <time>2022-08-02T14:28:32.000Z</time>
      </trkpt>
      <trkpt lat="49.34913" lon="-0.77552">
        <ele>80.949838</ele>
        <time>2022-08-02T14:28:33.000Z</time>
      </trkpt>
      <trkpt lat="49.34911" lon="-0.77548">
        <ele>80.958277</ele>
        <time>2022-08-02T14:28:34.000Z</time>
      </trkpt>
      <trkpt lat="49.34911" lon="-0.77545">
        <ele>80.965844</ele>
        <time>2022-08-02T14:28:35.000Z</time>
      </trkpt>
      <trkpt lat="49.3491" lon="-0.77541">
        <ele>80.972523</ele>
        <time>2022-08-02T14:28:36.000Z</time>
      </trkpt>
      <trkpt lat="49.34909" lon="-0.77537">
        <ele>80.981271</ele>
        <time>2022-08-02T14:28:38.000Z</time>
      </trkpt>
      <trkpt lat="49.34913" lon="-0.77554">
        <ele>81.016433</ele>
        <time>2022-08-02T14:28:53.000Z</time>
      </trkpt>
      <trkpt lat="49.34914" lon="-0.7756">
        <ele>81.025282</ele>
        <time>2022-08-02T14:28:54.000Z</time>
      </trkpt>
      <trkpt lat="49.34916" lon="-0.77565">
        <ele>81.032005</ele>
        <time>2022-08-02T14:28:55.000Z</time>
      </trkpt>
      <trkpt lat="49.34917" lon="-0.77571">
        <ele>81.039044</ele>
        <time>2022-08-02T14:28:56.000Z</time>
      </trkpt>
      <trkpt lat="49.34918" lon="-0.77578">
        <ele>81.046588</ele>
        <time>2022-08-02T14:28:57.000Z</time>
      </trkpt>
      <trkpt lat="49.34919" lon="-0.77585">
        <ele>81.055078</ele>
        <time>2022-08-02T14:28:58.000Z</time>
      </trkpt>
      <trkpt lat="49.3492" lon="-0.77593">
        <ele>81.063709</ele>
        <time>2022-08-02T14:28:59.000Z</time>
      </trkpt>
      <trkpt lat="49.34921" lon="-0.77601">
        <ele>81.072565</ele>
        <time>2022-08-02T14:29:00.000Z</time>
      </trkpt>
      <trkpt lat="49.34922" lon="-0.77608">
        <ele>81.081198</ele>
        <time>2022-08-02T14:29:01.000Z</time>
      </trkpt>
      <trkpt lat="49.34923" lon="-0.77616">
        <ele>81.090485</ele>
        <time>2022-08-02T14:29:02.000Z</time>
      </trkpt>
      <trkpt lat="49.34924" lon="-0.77624">
        <ele>81.099554</ele>
        <time>2022-08-02T14:29:03.000Z</time>
      </trkpt>
      <trkpt lat="49.34925" lon="-0.77633">
        <ele>81.109141</ele>
        <time>2022-08-02T14:29:04.000Z</time>
      </trkpt>
      <trkpt lat="49.34926" lon="-0.77641">
        <ele>81.118756</ele>
        <time>2022-08-02T14:29:05.000Z</time>
      </trkpt>
      <trkpt lat="49.34927" lon="-0.7765">
        <ele>81.128343</ele>
        <time>2022-08-02T14:29:06.000Z</time>
      </trkpt>
      <trkpt lat="49.34928" lon="-0.77659">
        <ele>81.138655</ele>
        <time>2022-08-02T14:29:07.000Z</time>
      </trkpt>
      <trkpt lat="49.34929" lon="-0.77668">
        <ele>81.149012</ele>
        <time>2022-08-02T14:29:08.000Z</time>
      </trkpt>
      <trkpt lat="49.34929" lon="-0.77677">
        <ele>81.159213</ele>
        <time>2022-08-02T14:29:09.000Z</time>
      </trkpt>
      <trkpt lat="49.3493" lon="-0.77687">
        <ele>81.16969</ele>
        <time>2022-08-02T14:29:10.000Z</time>
      </trkpt>
      <trkpt lat="49.34931" lon="-0.77696">
        <ele>81.179854</ele>
        <time>2022-08-02T14:29:11.000Z</time>
      </trkpt>
      <trkpt lat="49.34931" lon="-0.77705">
        <ele>81.189705</ele>
        <time>2022-08-02T14:29:12.000Z</time>
      </trkpt>
      <trkpt lat="49.34932" lon="-0.77713">
        <ele>81.199555</ele>
        <time>2022-08-02T14:29:13.000Z</time>
      </trkpt>
      <trkpt lat="49.34933" lon="-0.77722">
        <ele>81.209609</ele>
        <time>2022-08-02T14:29:14.000Z</time>
      </trkpt>
      <trkpt lat="49.34933" lon="-0.77731">
        <ele>81.21946</ele>
        <time>2022-08-02T14:29:15.000Z</time>
      </trkpt>
      <trkpt lat="49.34934" lon="-0.7774">
        <ele>81.229169</ele>
        <time>2022-08-02T14:29:16.000Z</time>
      </trkpt>
      <trkpt lat="49.34935" lon="-0.77748">
        <ele>81.238536</ele>
        <time>2022-08-02T14:29:17.000Z</time>
      </trkpt>
      <trkpt lat="49.34935" lon="-0.77756">
        <ele>81.247854</ele>
        <time>2022-08-02T14:29:18.000Z</time>
      </trkpt>
      <trkpt lat="49.34936" lon="-0.77764">
        <ele>81.256819</ele>
        <time>2022-08-02T14:29:19.000Z</time>
      </trkpt>
      <trkpt lat="49.34937" lon="-0.77772">
        <ele>81.265778</ele>
        <time>2022-08-02T14:29:20.000Z</time>
      </trkpt>
      <trkpt lat="49.34938" lon="-0.7778">
        <ele>81.27419</ele>
        <time>2022-08-02T14:29:21.000Z</time>
      </trkpt>
      <trkpt lat="49.34938" lon="-0.77787">
        <ele>81.282666</ele>
        <time>2022-08-02T14:29:22.000Z</time>
      </trkpt>
      <trkpt lat="49.34939" lon="-0.77795">
        <ele>81.29108</ele>
        <time>2022-08-02T14:29:23.000Z</time>
      </trkpt>
      <trkpt lat="49.3494" lon="-0.77802">
        <ele>81.29905</ele>
        <time>2022-08-02T14:29:24.000Z</time>
      </trkpt>
      <trkpt lat="49.34941" lon="-0.77809">
        <ele>81.30692</ele>
        <time>2022-08-02T14:29:25.000Z</time>
      </trkpt>
      <trkpt lat="49.34941" lon="-0.77815">
        <ele>81.314228</ele>
        <time>2022-08-02T14:29:26.000Z</time>
      </trkpt>
      <trkpt lat="49.34941" lon="-0.77821">
        <ele>81.321038</ele>
        <time>2022-08-02T14:29:27.000Z</time>
      </trkpt>
      <trkpt lat="49.34943" lon="-0.77827">
        <ele>81.327552</ele>
        <time>2022-08-02T14:29:28.000Z</time>
      </trkpt>
      <trkpt lat="49.34943" lon="-0.77832">
        <ele>81.334108</ele>
        <time>2022-08-02T14:29:29.000Z</time>
      </trkpt>
      <trkpt lat="49.34945" lon="-0.77836">
        <ele>81.34026</ele>
        <time>2022-08-02T14:29:30.000Z</time>
      </trkpt>
      <trkpt lat="49.34947" lon="-0.77839">
        <ele>81.346256</ele>
        <time>2022-08-02T14:29:31.000Z</time>
      </trkpt>
      <trkpt lat="49.34949" lon="-0.7784">
        <ele>81.352614</ele>
        <time>2022-08-02T14:29:32.000Z</time>
      </trkpt>
      <trkpt lat="49.34953" lon="-0.7784">
        <ele>81.359477</ele>
        <time>2022-08-02T14:29:33.000Z</time>
      </trkpt>
      <trkpt lat="49.34957" lon="-0.77839">
        <ele>81.368098</ele>
        <time>2022-08-02T14:29:34.000Z</time>
      </trkpt>
      <trkpt lat="49.34961" lon="-0.77837">
        <ele>81.378225</ele>
        <time>2022-08-02T14:29:35.000Z</time>
      </trkpt>
      <trkpt lat="49.34966" lon="-0.77834">
        <ele>81.389007</ele>
        <time>2022-08-02T14:29:36.000Z</time>
      </trkpt>
      <trkpt lat="49.34972" lon="-0.77832">
        <ele>81.40168</ele>
        <time>2022-08-02T14:29:37.000Z</time>
      </trkpt>
      <trkpt lat="49.34977" lon="-0.7783">
        <ele>81.414525</ele>
        <time>2022-08-02T14:29:38.000Z</time>
      </trkpt>
      <trkpt lat="49.34984" lon="-0.77827">
        <ele>81.428685</ele>
        <time>2022-08-02T14:29:39.000Z</time>
      </trkpt>
      <trkpt lat="49.3499" lon="-0.77825">
        <ele>81.442779</ele>
        <time>2022-08-02T14:29:40.000Z</time>
      </trkpt>
      <trkpt lat="49.34996" lon="-0.77823">
        <ele>81.456153</ele>
        <time>2022-08-02T14:29:41.000Z</time>
      </trkpt>
      <trkpt lat="49.35002" lon="-0.77821">
        <ele>81.469236</ele>
        <time>2022-08-02T14:29:42.000Z</time>
      </trkpt>
      <trkpt lat="49.35008" lon="-0.77819">
        <ele>81.48261</ele>
        <time>2022-08-02T14:29:43.000Z</time>
      </trkpt>
      <trkpt lat="49.35014" lon="-0.77817">
        <ele>81.495904</ele>
        <time>2022-08-02T14:29:44.000Z</time>
      </trkpt>
      <trkpt lat="49.35021" lon="-0.77815">
        <ele>81.509308</ele>
        <time>2022-08-02T14:29:45.000Z</time>
      </trkpt>
      <trkpt lat="49.35026" lon="-0.77813">
        <ele>81.521846</ele>
        <time>2022-08-02T14:29:46.000Z</time>
      </trkpt>
      <trkpt lat="49.35032" lon="-0.77811">
        <ele>81.53522</ele>
        <time>2022-08-02T14:29:47.000Z</time>
      </trkpt>
      <trkpt lat="49.34858" lon="-0.7728">
        <ele>80.967582</ele>
        <time>2022-08-02T14:45:58.000Z</time>
      </trkpt>
      <trkpt lat="49.34858" lon="-0.77275">
        <ele>80.945104</ele>
        <time>2022-08-02T14:45:59.000Z</time>
      </trkpt>
      <trkpt lat="49.34858" lon="-0.7727">
        <ele>80.922278</ele>
        <time>2022-08-02T14:46:00.000Z</time>
      </trkpt>
      <trkpt lat="49.34858" lon="-0.77264">
        <ele>80.898136</ele>
        <time>2022-08-02T14:46:01.000Z</time>
      </trkpt>
      <trkpt lat="49.34857" lon="-0.77258">
        <ele>80.872791</ele>
        <time>2022-08-02T14:46:02.000Z</time>
      </trkpt>
      <trkpt lat="49.34857" lon="-0.77253">
        <ele>80.847761</ele>
        <time>2022-08-02T14:46:03.000Z</time>
      </trkpt>
      <trkpt lat="49.34856" lon="-0.77247">
        <ele>80.821783</ele>
        <time>2022-08-02T14:46:04.000Z</time>
      </trkpt>
      <trkpt lat="49.34856" lon="-0.77241">
        <ele>80.797119</ele>
        <time>2022-08-02T14:46:05.000Z</time>
      </trkpt>
      <trkpt lat="49.34856" lon="-0.77236">
        <ele>80.772017</ele>
        <time>2022-08-02T14:46:06.000Z</time>
      </trkpt>
      <trkpt lat="49.34855" lon="-0.7723">
        <ele>80.745602</ele>
        <time>2022-08-02T14:46:07.000Z</time>
      </trkpt>
      <trkpt lat="49.34855" lon="-0.77224">
        <ele>80.720436</ele>
        <time>2022-08-02T14:46:08.000Z</time>
      </trkpt>
      <trkpt lat="49.34854" lon="-0.77218">
        <ele>80.69379</ele>
        <time>2022-08-02T14:46:09.000Z</time>
      </trkpt>
      <trkpt lat="49.34854" lon="-0.77212">
        <ele>80.667453</ele>
        <time>2022-08-02T14:46:10.000Z</time>
      </trkpt>
      <trkpt lat="49.34854" lon="-0.77206">
        <ele>80.641115</ele>
        <time>2022-08-02T14:46:11.000Z</time>
      </trkpt>
      <trkpt lat="49.34854" lon="-0.77199">
        <ele>80.612512</ele>
        <time>2022-08-02T14:46:12.000Z</time>
      </trkpt>
      <trkpt lat="49.34854" lon="-0.77193">
        <ele>80.585152</ele>
        <time>2022-08-02T14:46:13.000Z</time>
      </trkpt>
      <trkpt lat="49.34853" lon="-0.77187">
        <ele>80.560493</ele>
        <time>2022-08-02T14:46:14.000Z</time>
      </trkpt>
      <trkpt lat="49.34853" lon="-0.7718">
        <ele>80.535497</ele>
        <time>2022-08-02T14:46:15.000Z</time>
      </trkpt>
      <trkpt lat="49.34853" lon="-0.77174">
        <ele>80.510694</ele>
        <time>2022-08-02T14:46:16.000Z</time>
      </trkpt>
      <trkpt lat="49.34852" lon="-0.77168">
        <ele>80.486474</ele>
        <time>2022-08-02T14:46:17.000Z</time>
      </trkpt>
      <trkpt lat="49.34852" lon="-0.77162">
        <ele>80.462978</ele>
        <time>2022-08-02T14:46:18.000Z</time>
      </trkpt>
      <trkpt lat="49.34852" lon="-0.77156">
        <ele>80.441553</ele>
        <time>2022-08-02T14:46:19.000Z</time>
      </trkpt>
      <trkpt lat="49.34851" lon="-0.77151">
        <ele>80.418957</ele>
        <time>2022-08-02T14:46:20.000Z</time>
      </trkpt>
      <trkpt lat="49.3485" lon="-0.77145">
        <ele>80.397011</ele>
        <time>2022-08-02T14:46:21.000Z</time>
      </trkpt>
      <trkpt lat="49.3485" lon="-0.7714">
        <ele>80.374518</ele>
        <time>2022-08-02T14:46:22.000Z</time>
      </trkpt>
      <trkpt lat="49.34849" lon="-0.77134">
        <ele>80.351145</ele>
        <time>2022-08-02T14:46:23.000Z</time>
      </trkpt>
      <trkpt lat="49.34848" lon="-0.77128">
        <ele>80.32754</ele>
        <time>2022-08-02T14:46:24.000Z</time>
      </trkpt>
      <trkpt lat="49.34846" lon="-0.77122">
        <ele>80.302907</ele>
        <time>2022-08-02T14:46:25.000Z</time>
      </trkpt>
      <trkpt lat="49.34846" lon="-0.77116">
        <ele>80.27926</ele>
        <time>2022-08-02T14:46:26.000Z</time>
      </trkpt>
      <trkpt lat="49.34845" lon="-0.7711">
        <ele>80.254601</ele>
        <time>2022-08-02T14:46:27.000Z</time>
      </trkpt>
      <trkpt lat="49.34844" lon="-0.77103">
        <ele>80.229031</ele>
        <time>2022-08-02T14:46:28.000Z</time>
      </trkpt>
      <trkpt lat="49.34844" lon="-0.77097">
        <ele>80.203366</ele>
        <time>2022-08-02T14:46:29.000Z</time>
      </trkpt>
      <trkpt lat="49.34843" lon="-0.7709">
        <ele>80.177479</ele>
        <time>2022-08-02T14:46:30.000Z</time>
      </trkpt>
      <trkpt lat="49.34842" lon="-0.77084">
        <ele>80.153733</ele>
        <time>2022-08-02T14:46:31.000Z</time>
      </trkpt>
      <trkpt lat="49.34841" lon="-0.77078">
        <ele>80.130086</ele>
        <time>2022-08-02T14:46:32.000Z</time>
      </trkpt>
      <trkpt lat="49.3484" lon="-0.77072">
        <ele>80.105959</ele>
        <time>2022-08-02T14:46:33.000Z</time>
      </trkpt>
      <trkpt lat="49.3484" lon="-0.77067">
        <ele>80.083466</ele>
        <time>2022-08-02T14:46:34.000Z</time>
      </trkpt>
      <trkpt lat="49.34839" lon="-0.77061">
        <ele>80.060094</ele>
        <time>2022-08-02T14:46:35.000Z</time>
      </trkpt>
      <trkpt lat="49.34838" lon="-0.77055">
        <ele>80.037816</ele>
        <time>2022-08-02T14:46:36.000Z</time>
      </trkpt>
      <trkpt lat="49.34838" lon="-0.77049">
        <ele>80.014169</ele>
        <time>2022-08-02T14:46:37.000Z</time>
      </trkpt>
      <trkpt lat="49.34837" lon="-0.77043">
        <ele>79.989287</ele>
        <time>2022-08-02T14:46:38.000Z</time>
      </trkpt>
      <trkpt lat="49.34836" lon="-0.77037">
        <ele>79.964483</ele>
        <time>2022-08-02T14:46:39.000Z</time>
      </trkpt>
      <trkpt lat="49.34835" lon="-0.7703">
        <ele>79.938465</ele>
        <time>2022-08-02T14:46:40.000Z</time>
      </trkpt>
      <trkpt lat="49.34834" lon="-0.77024">
        <ele>79.913205</ele>
        <time>2022-08-02T14:46:41.000Z</time>
      </trkpt>
      <trkpt lat="49.34833" lon="-0.77017">
        <ele>79.887699</ele>
        <time>2022-08-02T14:46:42.000Z</time>
      </trkpt>
      <trkpt lat="49.34832" lon="-0.77011">
        <ele>79.860838</ele>
        <time>2022-08-02T14:46:43.000Z</time>
      </trkpt>
      <trkpt lat="49.34831" lon="-0.77004">
        <ele>79.83372</ele>
        <time>2022-08-02T14:46:44.000Z</time>
      </trkpt>
      <trkpt lat="49.3483" lon="-0.76997">
        <ele>79.805422</ele>
        <time>2022-08-02T14:46:45.000Z</time>
      </trkpt>
      <trkpt lat="49.34829" lon="-0.7699">
        <ele>79.778645</ele>
        <time>2022-08-02T14:46:46.000Z</time>
      </trkpt>
      <trkpt lat="49.34829" lon="-0.76983">
        <ele>79.751613</ele>
        <time>2022-08-02T14:46:47.000Z</time>
      </trkpt>
      <trkpt lat="49.34828" lon="-0.76976">
        <ele>79.724409</ele>
        <time>2022-08-02T14:46:48.000Z</time>
      </trkpt>
      <trkpt lat="49.34827" lon="-0.7697">
        <ele>79.698449</ele>
        <time>2022-08-02T14:46:49.000Z</time>
      </trkpt>
      <trkpt lat="49.34827" lon="-0.76963">
        <ele>79.672875</ele>
        <time>2022-08-02T14:46:50.000Z</time>
      </trkpt>
      <trkpt lat="49.34826" lon="-0.76957">
        <ele>79.64644</ele>
        <time>2022-08-02T14:46:51.000Z</time>
      </trkpt>
      <trkpt lat="49.34825" lon="-0.7695">
        <ele>79.620866</ele>
        <time>2022-08-02T14:46:52.000Z</time>
      </trkpt>
      <trkpt lat="49.34825" lon="-0.76943">
        <ele>79.594047</ele>
        <time>2022-08-02T14:46:53.000Z</time>
      </trkpt>
      <trkpt lat="49.34824" lon="-0.76937">
        <ele>79.568662</ele>
        <time>2022-08-02T14:46:54.000Z</time>
      </trkpt>
      <trkpt lat="49.34824" lon="-0.7693">
        <ele>79.54334</ele>
        <time>2022-08-02T14:46:55.000Z</time>
      </trkpt>
      <trkpt lat="49.34824" lon="-0.76924">
        <ele>79.518344</ele>
        <time>2022-08-02T14:46:56.000Z</time>
      </trkpt>
      <trkpt lat="49.34823" lon="-0.76918">
        <ele>79.494292</ele>
        <time>2022-08-02T14:46:57.000Z</time>
      </trkpt>
      <trkpt lat="49.34823" lon="-0.76912">
        <ele>79.470521</ele>
        <time>2022-08-02T14:46:58.000Z</time>
      </trkpt>
      <trkpt lat="49.34822" lon="-0.76906">
        <ele>79.446848</ele>
        <time>2022-08-02T14:46:59.000Z</time>
      </trkpt>
      <trkpt lat="49.34822" lon="-0.769">
        <ele>79.423769</ele>
        <time>2022-08-02T14:47:00.000Z</time>
      </trkpt>
      <trkpt lat="49.34821" lon="-0.76894">
        <ele>79.401024</ele>
        <time>2022-08-02T14:47:01.000Z</time>
      </trkpt>
      <trkpt lat="49.34821" lon="-0.76888">
        <ele>79.377013</ele>
        <time>2022-08-02T14:47:02.000Z</time>
      </trkpt>
      <trkpt lat="49.3482" lon="-0.76882">
        <ele>79.352474</ele>
        <time>2022-08-02T14:47:03.000Z</time>
      </trkpt>
      <trkpt lat="49.34819" lon="-0.76876">
        <ele>79.328463</ele>
        <time>2022-08-02T14:47:04.000Z</time>
      </trkpt>
      <trkpt lat="49.34819" lon="-0.7687">
        <ele>79.305773</ele>
        <time>2022-08-02T14:47:05.000Z</time>
      </trkpt>
      <trkpt lat="49.34818" lon="-0.76864">
        <ele>79.282769</ele>
        <time>2022-08-02T14:47:06.000Z</time>
      </trkpt>
      <trkpt lat="49.34817" lon="-0.76859">
        <ele>79.261022</ele>
        <time>2022-08-02T14:47:07.000Z</time>
      </trkpt>
      <trkpt lat="49.34816" lon="-0.76853">
        <ele>79.239128</ele>
        <time>2022-08-02T14:47:08.000Z</time>
      </trkpt>
      <trkpt lat="49.34815" lon="-0.76848">
        <ele>79.217013</ele>
        <time>2022-08-02T14:47:09.000Z</time>
      </trkpt>
      <trkpt lat="49.34814" lon="-0.76842">
        <ele>79.194196</ele>
        <time>2022-08-02T14:47:10.000Z</time>
      </trkpt>
      <trkpt lat="49.34813" lon="-0.76837">
        <ele>79.172342</ele>
        <time>2022-08-02T14:47:11.000Z</time>
      </trkpt>
      <trkpt lat="49.34812" lon="-0.76831">
        <ele>79.147865</ele>
        <time>2022-08-02T14:47:12.000Z</time>
      </trkpt>
      <trkpt lat="49.34811" lon="-0.76825">
        <ele>79.123302</ele>
        <time>2022-08-02T14:47:13.000Z</time>
      </trkpt>
      <trkpt lat="49.34809" lon="-0.76819">
        <ele>79.09771</ele>
        <time>2022-08-02T14:47:14.000Z</time>
      </trkpt>
      <trkpt lat="49.34807" lon="-0.76813">
        <ele>79.072487</ele>
        <time>2022-08-02T14:47:15.000Z</time>
      </trkpt>
      <trkpt lat="49.34805" lon="-0.76807">
        <ele>79.045506</ele>
        <time>2022-08-02T14:47:16.000Z</time>
      </trkpt>
      <trkpt lat="49.34803" lon="-0.768">
        <ele>79.015733</ele>
        <time>2022-08-02T14:47:17.000Z</time>
      </trkpt>
      <trkpt lat="49.34801" lon="-0.76794">
        <ele>78.987949</ele>
        <time>2022-08-02T14:47:18.000Z</time>
      </trkpt>
      <trkpt lat="49.34799" lon="-0.76787">
        <ele>78.958497</ele>
        <time>2022-08-02T14:47:19.000Z</time>
      </trkpt>
      <trkpt lat="49.34797" lon="-0.7678">
        <ele>78.931034</ele>
        <time>2022-08-02T14:47:20.000Z</time>
      </trkpt>
      <trkpt lat="49.34795" lon="-0.76774">
        <ele>78.901598</ele>
        <time>2022-08-02T14:47:21.000Z</time>
      </trkpt>
      <trkpt lat="49.34793" lon="-0.76767">
        <ele>78.874169</ele>
        <time>2022-08-02T14:47:22.000Z</time>
      </trkpt>
      <trkpt lat="49.34791" lon="-0.76761">
        <ele>78.846006</ele>
        <time>2022-08-02T14:47:23.000Z</time>
      </trkpt>
      <trkpt lat="49.34789" lon="-0.76755">
        <ele>78.819155</ele>
        <time>2022-08-02T14:47:24.000Z</time>
      </trkpt>
      <trkpt lat="49.34787" lon="-0.76749">
        <ele>78.793138</ele>
        <time>2022-08-02T14:47:25.000Z</time>
      </trkpt>
      <trkpt lat="49.34784" lon="-0.76744">
        <ele>78.766637</ele>
        <time>2022-08-02T14:47:26.000Z</time>
      </trkpt>
      <trkpt lat="49.34781" lon="-0.76738">
        <ele>78.738433</ele>
        <time>2022-08-02T14:47:27.000Z</time>
      </trkpt>
      <trkpt lat="49.34779" lon="-0.76733">
        <ele>78.712915</ele>
        <time>2022-08-02T14:47:28.000Z</time>
      </trkpt>
      <trkpt lat="49.34776" lon="-0.76728">
        <ele>78.686807</ele>
        <time>2022-08-02T14:47:29.000Z</time>
      </trkpt>
      <trkpt lat="49.34773" lon="-0.76723">
        <ele>78.660295</ele>
        <time>2022-08-02T14:47:30.000Z</time>
      </trkpt>
      <trkpt lat="49.3477" lon="-0.76718">
        <ele>78.636545</ele>
        <time>2022-08-02T14:47:31.000Z</time>
      </trkpt>
      <trkpt lat="49.34767" lon="-0.76713">
        <ele>78.610728</ele>
        <time>2022-08-02T14:47:32.000Z</time>
      </trkpt>
      <trkpt lat="49.34765" lon="-0.76708">
        <ele>78.586147</ele>
        <time>2022-08-02T14:47:33.000Z</time>
      </trkpt>
      <trkpt lat="49.34762" lon="-0.76703">
        <ele>78.560892</ele>
        <time>2022-08-02T14:47:34.000Z</time>
      </trkpt>
      <trkpt lat="49.34759" lon="-0.76698">
        <ele>78.534785</ele>
        <time>2022-08-02T14:47:35.000Z</time>
      </trkpt>
      <trkpt lat="49.34757" lon="-0.76693">
        <ele>78.50895</ele>
        <time>2022-08-02T14:47:36.000Z</time>
      </trkpt>
      <trkpt lat="49.34754" lon="-0.76688">
        <ele>78.484115</ele>
        <time>2022-08-02T14:47:37.000Z</time>
      </trkpt>
      <trkpt lat="49.34752" lon="-0.76682">
        <ele>78.458945</ele>
        <time>2022-08-02T14:47:38.000Z</time>
      </trkpt>
      <trkpt lat="49.3475" lon="-0.76677">
        <ele>78.432615</ele>
        <time>2022-08-02T14:47:39.000Z</time>
      </trkpt>
      <trkpt lat="49.34747" lon="-0.76671">
        <ele>78.371025</ele>
        <time>2022-08-02T14:47:40.000Z</time>
      </trkpt>
      <trkpt lat="49.34745" lon="-0.76666">
        <ele>78.313923</ele>
        <time>2022-08-02T14:47:41.000Z</time>
      </trkpt>
      <trkpt lat="49.34743" lon="-0.7666">
        <ele>78.256821</ele>
        <time>2022-08-02T14:47:42.000Z</time>
      </trkpt>
      <trkpt lat="49.34742" lon="-0.76655">
        <ele>78.203561</ele>
        <time>2022-08-02T14:47:43.000Z</time>
      </trkpt>
      <trkpt lat="49.34741" lon="-0.76649">
        <ele>78.144095</ele>
        <time>2022-08-02T14:47:44.000Z</time>
      </trkpt>
      <trkpt lat="49.3474" lon="-0.76642">
        <ele>78.083727</ele>
        <time>2022-08-02T14:47:45.000Z</time>
      </trkpt>
      <trkpt lat="49.34739" lon="-0.76636">
        <ele>78.020876</ele>
        <time>2022-08-02T14:47:46.000Z</time>
      </trkpt>
      <trkpt lat="49.34738" lon="-0.76629">
        <ele>77.958636</ele>
        <time>2022-08-02T14:47:47.000Z</time>
      </trkpt>
      <trkpt lat="49.34737" lon="-0.76623">
        <ele>77.897684</ele>
        <time>2022-08-02T14:47:48.000Z</time>
      </trkpt>
      <trkpt lat="49.34736" lon="-0.76616">
        <ele>77.839098</ele>
        <time>2022-08-02T14:47:49.000Z</time>
      </trkpt>
      <trkpt lat="49.34735" lon="-0.76611">
        <ele>77.785232</ele>
        <time>2022-08-02T14:47:50.000Z</time>
      </trkpt>
      <trkpt lat="49.34735" lon="-0.76605">
        <ele>77.729322</ele>
        <time>2022-08-02T14:47:51.000Z</time>
      </trkpt>
      <trkpt lat="49.34734" lon="-0.76598">
        <ele>77.671382</ele>
        <time>2022-08-02T14:47:52.000Z</time>
      </trkpt>
      <trkpt lat="49.34734" lon="-0.76592">
        <ele>77.612678</ele>
        <time>2022-08-02T14:47:53.000Z</time>
      </trkpt>
      <trkpt lat="49.34735" lon="-0.76585">
        <ele>77.551993</ele>
        <time>2022-08-02T14:47:54.000Z</time>
      </trkpt>
      <trkpt lat="49.34735" lon="-0.76578">
        <ele>77.487941</ele>
        <time>2022-08-02T14:47:55.000Z</time>
      </trkpt>
      <trkpt lat="49.34736" lon="-0.76572">
        <ele>77.424295</ele>
        <time>2022-08-02T14:47:56.000Z</time>
      </trkpt>
      <trkpt lat="49.34737" lon="-0.76565">
        <ele>77.359336</ele>
        <time>2022-08-02T14:47:57.000Z</time>
      </trkpt>
      <trkpt lat="49.34738" lon="-0.76558">
        <ele>77.29569</ele>
        <time>2022-08-02T14:47:58.000Z</time>
      </trkpt>
      <trkpt lat="49.34739" lon="-0.76551">
        <ele>77.230853</ele>
        <time>2022-08-02T14:47:59.000Z</time>
      </trkpt>
      <trkpt lat="49.3474" lon="-0.76544">
        <ele>77.164089</ele>
        <time>2022-08-02T14:48:00.000Z</time>
      </trkpt>
      <trkpt lat="49.34741" lon="-0.76537">
        <ele>77.102239</ele>
        <time>2022-08-02T14:48:01.000Z</time>
      </trkpt>
      <trkpt lat="49.34742" lon="-0.76531">
        <ele>77.039872</ele>
        <time>2022-08-02T14:48:02.000Z</time>
      </trkpt>
      <trkpt lat="49.34744" lon="-0.76524">
        <ele>76.976995</ele>
        <time>2022-08-02T14:48:03.000Z</time>
      </trkpt>
      <trkpt lat="49.34745" lon="-0.76518">
        <ele>76.918126</ele>
        <time>2022-08-02T14:48:04.000Z</time>
      </trkpt>
      <trkpt lat="49.34747" lon="-0.76512">
        <ele>76.85866</ele>
        <time>2022-08-02T14:48:05.000Z</time>
      </trkpt>
      <trkpt lat="49.34749" lon="-0.76506">
        <ele>76.797492</ele>
        <time>2022-08-02T14:48:06.000Z</time>
      </trkpt>
      <trkpt lat="49.3475" lon="-0.76499">
        <ele>76.732038</ele>
        <time>2022-08-02T14:48:07.000Z</time>
      </trkpt>
      <trkpt lat="49.34752" lon="-0.76493">
        <ele>76.664852</ele>
        <time>2022-08-02T14:48:08.000Z</time>
      </trkpt>
      <trkpt lat="49.34754" lon="-0.76486">
        <ele>76.595296</ele>
        <time>2022-08-02T14:48:09.000Z</time>
      </trkpt>
      <trkpt lat="49.34756" lon="-0.76479">
        <ele>76.522657</ele>
        <time>2022-08-02T14:48:10.000Z</time>
      </trkpt>
      <trkpt lat="49.34758" lon="-0.76471">
        <ele>76.448882</ele>
        <time>2022-08-02T14:48:11.000Z</time>
      </trkpt>
      <trkpt lat="49.34761" lon="-0.76464">
        <ele>76.373438</ele>
        <time>2022-08-02T14:48:12.000Z</time>
      </trkpt>
      <trkpt lat="49.34763" lon="-0.76457">
        <ele>76.299885</ele>
        <time>2022-08-02T14:48:13.000Z</time>
      </trkpt>
      <trkpt lat="49.34765" lon="-0.76449">
        <ele>76.227781</ele>
        <time>2022-08-02T14:48:14.000Z</time>
      </trkpt>
      <trkpt lat="49.34767" lon="-0.76442">
        <ele>76.152336</ele>
        <time>2022-08-02T14:48:15.000Z</time>
      </trkpt>
      <trkpt lat="49.3477" lon="-0.76435">
        <ele>76.074693</ele>
        <time>2022-08-02T14:48:16.000Z</time>
      </trkpt>
      <trkpt lat="49.34772" lon="-0.76427">
        <ele>76.000315</ele>
        <time>2022-08-02T14:48:17.000Z</time>
      </trkpt>
      <trkpt lat="49.34774" lon="-0.7642">
        <ele>75.925707</ele>
        <time>2022-08-02T14:48:18.000Z</time>
      </trkpt>
      <trkpt lat="49.34777" lon="-0.76413">
        <ele>75.819829</ele>
        <time>2022-08-02T14:48:19.000Z</time>
      </trkpt>
      <trkpt lat="49.34779" lon="-0.76405">
        <ele>75.700389</ele>
        <time>2022-08-02T14:48:20.000Z</time>
      </trkpt>
      <trkpt lat="49.34781" lon="-0.76399">
        <ele>75.590183</ele>
        <time>2022-08-02T14:48:21.000Z</time>
      </trkpt>
      <trkpt lat="49.34783" lon="-0.76392">
        <ele>75.478429</ele>
        <time>2022-08-02T14:48:22.000Z</time>
      </trkpt>
      <trkpt lat="49.34786" lon="-0.76385">
        <ele>75.364821</ele>
        <time>2022-08-02T14:48:23.000Z</time>
      </trkpt>
      <trkpt lat="49.34788" lon="-0.76379">
        <ele>75.258354</ele>
        <time>2022-08-02T14:48:24.000Z</time>
      </trkpt>
      <trkpt lat="49.3479" lon="-0.76373">
        <ele>75.150788</ele>
        <time>2022-08-02T14:48:25.000Z</time>
      </trkpt>
      <trkpt lat="49.34792" lon="-0.76366">
        <ele>75.043006</ele>
        <time>2022-08-02T14:48:26.000Z</time>
      </trkpt>
      <trkpt lat="49.34795" lon="-0.7636">
        <ele>74.931521</ele>
        <time>2022-08-02T14:48:27.000Z</time>
      </trkpt>
      <trkpt lat="49.34797" lon="-0.76353">
        <ele>74.819945</ele>
        <time>2022-08-02T14:48:28.000Z</time>
      </trkpt>
      <trkpt lat="49.34799" lon="-0.76346">
        <ele>74.70952</ele>
        <time>2022-08-02T14:48:29.000Z</time>
      </trkpt>
      <trkpt lat="49.34802" lon="-0.7634">
        <ele>74.593403</ele>
        <time>2022-08-02T14:48:30.000Z</time>
      </trkpt>
      <trkpt lat="49.34804" lon="-0.76334">
        <ele>74.486936</ele>
        <time>2022-08-02T14:48:31.000Z</time>
      </trkpt>
      <trkpt lat="49.34806" lon="-0.76327">
        <ele>74.376763</ele>
        <time>2022-08-02T14:48:32.000Z</time>
      </trkpt>
      <trkpt lat="49.34808" lon="-0.76321">
        <ele>74.267661</ele>
        <time>2022-08-02T14:48:33.000Z</time>
      </trkpt>
      <trkpt lat="49.34811" lon="-0.76314">
        <ele>74.157837</ele>
        <time>2022-08-02T14:48:34.000Z</time>
      </trkpt>
      <trkpt lat="49.34813" lon="-0.76308">
        <ele>74.054434</ele>
        <time>2022-08-02T14:48:35.000Z</time>
      </trkpt>
      <trkpt lat="49.34815" lon="-0.76302">
        <ele>73.943354</ele>
        <time>2022-08-02T14:48:36.000Z</time>
      </trkpt>
      <trkpt lat="49.34817" lon="-0.76295">
        <ele>73.83724</ele>
        <time>2022-08-02T14:48:37.000Z</time>
      </trkpt>
      <trkpt lat="49.3482" lon="-0.76288">
        <ele>73.72282</ele>
        <time>2022-08-02T14:48:38.000Z</time>
      </trkpt>
      <trkpt lat="49.34821" lon="-0.76282">
        <ele>73.612614</ele>
        <time>2022-08-02T14:48:39.000Z</time>
      </trkpt>
      <trkpt lat="49.34824" lon="-0.76274">
        <ele>73.490001</ele>
        <time>2022-08-02T14:48:40.000Z</time>
      </trkpt>
      <trkpt lat="49.34827" lon="-0.76267">
        <ele>73.369983</ele>
        <time>2022-08-02T14:48:41.000Z</time>
      </trkpt>
      <trkpt lat="49.34829" lon="-0.76261">
        <ele>73.256899</ele>
        <time>2022-08-02T14:48:42.000Z</time>
      </trkpt>
      <trkpt lat="49.34831" lon="-0.76253">
        <ele>73.134285</ele>
        <time>2022-08-02T14:48:43.000Z</time>
      </trkpt>
      <trkpt lat="49.34834" lon="-0.76246">
        <ele>73.017182</ele>
        <time>2022-08-02T14:48:44.000Z</time>
      </trkpt>
      <trkpt lat="49.34836" lon="-0.76239">
        <ele>72.898731</ele>
        <time>2022-08-02T14:48:45.000Z</time>
      </trkpt>
      <trkpt lat="49.34838" lon="-0.76232">
        <ele>72.781293</ele>
        <time>2022-08-02T14:48:46.000Z</time>
      </trkpt>
      <trkpt lat="49.34841" lon="-0.76225">
        <ele>72.655212</ele>
        <time>2022-08-02T14:48:47.000Z</time>
      </trkpt>
      <trkpt lat="49.34844" lon="-0.76218">
        <ele>72.535411</ele>
        <time>2022-08-02T14:48:48.000Z</time>
      </trkpt>
      <trkpt lat="49.34846" lon="-0.76211">
        <ele>72.415973</ele>
        <time>2022-08-02T14:48:49.000Z</time>
      </trkpt>
      <trkpt lat="49.34848" lon="-0.76203">
        <ele>72.294451</ele>
        <time>2022-08-02T14:48:50.000Z</time>
      </trkpt>
      <trkpt lat="49.34851" lon="-0.76196">
        <ele>72.173673</ele>
        <time>2022-08-02T14:48:51.000Z</time>
      </trkpt>
      <trkpt lat="49.34853" lon="-0.76189">
        <ele>72.054773</ele>
        <time>2022-08-02T14:48:52.000Z</time>
      </trkpt>
      <trkpt lat="49.34855" lon="-0.76182">
        <ele>71.937687</ele>
        <time>2022-08-02T14:48:53.000Z</time>
      </trkpt>
      <trkpt lat="49.34857" lon="-0.76174">
        <ele>71.815567</ele>
        <time>2022-08-02T14:48:54.000Z</time>
      </trkpt>
      <trkpt lat="49.3486" lon="-0.76168">
        <ele>71.471756</ele>
        <time>2022-08-02T14:48:55.000Z</time>
      </trkpt>
      <trkpt lat="49.34861" lon="-0.76161">
        <ele>71.087274</ele>
        <time>2022-08-02T14:48:56.000Z</time>
      </trkpt>
      <trkpt lat="49.34864" lon="-0.76155">
        <ele>70.665224</ele>
        <time>2022-08-02T14:48:57.000Z</time>
      </trkpt>
      <trkpt lat="49.34866" lon="-0.76149">
        <ele>70.296083</ele>
        <time>2022-08-02T14:48:58.000Z</time>
      </trkpt>
      <trkpt lat="49.34868" lon="-0.76143">
        <ele>69.919924</ele>
        <time>2022-08-02T14:48:59.000Z</time>
      </trkpt>
      <trkpt lat="49.3487" lon="-0.76138">
        <ele>69.56755</ele>
        <time>2022-08-02T14:49:00.000Z</time>
      </trkpt>
      <trkpt lat="49.34872" lon="-0.76133">
        <ele>69.259311</ele>
        <time>2022-08-02T14:49:01.000Z</time>
      </trkpt>
      <trkpt lat="49.34873" lon="-0.76127">
        <ele>68.941102</ele>
        <time>2022-08-02T14:49:02.000Z</time>
      </trkpt>
      <trkpt lat="49.34874" lon="-0.76122">
        <ele>68.63804</ele>
        <time>2022-08-02T14:49:03.000Z</time>
      </trkpt>
      <trkpt lat="49.34876" lon="-0.76117">
        <ele>68.340156</ele>
        <time>2022-08-02T14:49:04.000Z</time>
      </trkpt>
      <trkpt lat="49.34876" lon="-0.76112">
        <ele>68.046348</ele>
        <time>2022-08-02T14:49:05.000Z</time>
      </trkpt>
      <trkpt lat="49.34877" lon="-0.76107">
        <ele>67.751508</ele>
        <time>2022-08-02T14:49:06.000Z</time>
      </trkpt>
      <trkpt lat="49.34879" lon="-0.76102">
        <ele>67.467839</ele>
        <time>2022-08-02T14:49:07.000Z</time>
      </trkpt>
      <trkpt lat="49.3488" lon="-0.76097">
        <ele>67.169955</ele>
        <time>2022-08-02T14:49:08.000Z</time>
      </trkpt>
      <trkpt lat="49.34881" lon="-0.76092">
        <ele>66.875254</ele>
        <time>2022-08-02T14:49:09.000Z</time>
      </trkpt>
      <trkpt lat="49.34882" lon="-0.76087">
        <ele>66.566688</ele>
        <time>2022-08-02T14:49:10.000Z</time>
      </trkpt>
      <trkpt lat="49.34883" lon="-0.76082">
        <ele>66.268804</ele>
        <time>2022-08-02T14:49:11.000Z</time>
      </trkpt>
      <trkpt lat="49.34884" lon="-0.76077">
        <ele>66.010951</ele>
        <time>2022-08-02T14:49:12.000Z</time>
      </trkpt>
      <trkpt lat="49.34885" lon="-0.76073">
        <ele>65.767279</ele>
        <time>2022-08-02T14:49:13.000Z</time>
      </trkpt>
      <trkpt lat="49.34886" lon="-0.7607">
        <ele>65.548772</ele>
        <time>2022-08-02T14:49:14.000Z</time>
      </trkpt>
      <trkpt lat="49.34886" lon="-0.76066">
        <ele>65.32598</ele>
        <time>2022-08-02T14:49:15.000Z</time>
      </trkpt>
      <trkpt lat="49.34887" lon="-0.76061">
        <ele>65.082653</ele>
        <time>2022-08-02T14:49:16.000Z</time>
      </trkpt>
      <trkpt lat="49.34887" lon="-0.76057">
        <ele>64.850257</ele>
        <time>2022-08-02T14:49:17.000Z</time>
      </trkpt>
      <trkpt lat="49.34887" lon="-0.76053">
        <ele>64.61539</ele>
        <time>2022-08-02T14:49:18.000Z</time>
      </trkpt>
      <trkpt lat="49.34887" lon="-0.76049">
        <ele>64.377461</ele>
        <time>2022-08-02T14:49:19.000Z</time>
      </trkpt>
      <trkpt lat="49.34887" lon="-0.76044">
        <ele>64.126157</ele>
        <time>2022-08-02T14:49:20.000Z</time>
      </trkpt>
      <trkpt lat="49.34886" lon="-0.76039">
        <ele>63.839128</ele>
        <time>2022-08-02T14:49:21.000Z</time>
      </trkpt>
      <trkpt lat="49.34886" lon="-0.76034">
        <ele>63.544761</ele>
        <time>2022-08-02T14:49:22.000Z</time>
      </trkpt>
      <trkpt lat="49.34885" lon="-0.76028">
        <ele>63.234679</ele>
        <time>2022-08-02T14:49:23.000Z</time>
      </trkpt>
      <trkpt lat="49.34884" lon="-0.76023">
        <ele>62.936968</ele>
        <time>2022-08-02T14:49:24.000Z</time>
      </trkpt>
      <trkpt lat="49.34884" lon="-0.76018">
        <ele>62.653989</ele>
        <time>2022-08-02T14:49:25.000Z</time>
      </trkpt>
      <trkpt lat="49.34883" lon="-0.76013">
        <ele>62.387174</ele>
        <time>2022-08-02T14:49:26.000Z</time>
      </trkpt>
      <trkpt lat="49.34882" lon="-0.76009">
        <ele>62.113592</ele>
        <time>2022-08-02T14:49:27.000Z</time>
      </trkpt>
      <trkpt lat="49.34881" lon="-0.76004">
        <ele>61.863683</ele>
        <time>2022-08-02T14:49:28.000Z</time>
      </trkpt>
      <trkpt lat="49.3488" lon="-0.76">
        <ele>61.596351</ele>
        <time>2022-08-02T14:49:29.000Z</time>
      </trkpt>
      <trkpt lat="49.34879" lon="-0.75996">
        <ele>61.363834</ele>
        <time>2022-08-02T14:49:30.000Z</time>
      </trkpt>
      <trkpt lat="49.34878" lon="-0.75992">
        <ele>61.131923</ele>
        <time>2022-08-02T14:49:31.000Z</time>
      </trkpt>
      <trkpt lat="49.34878" lon="-0.75988">
        <ele>60.909131</ele>
        <time>2022-08-02T14:49:32.000Z</time>
      </trkpt>
      <trkpt lat="49.34877" lon="-0.75984">
        <ele>60.679954</ele>
        <time>2022-08-02T14:49:33.000Z</time>
      </trkpt>
      <trkpt lat="49.34877" lon="-0.7598">
        <ele>60.456225</ele>
        <time>2022-08-02T14:49:34.000Z</time>
      </trkpt>
      <trkpt lat="49.34876" lon="-0.75976">
        <ele>60.208793</ele>
        <time>2022-08-02T14:49:35.000Z</time>
      </trkpt>
      <trkpt lat="49.34875" lon="-0.75972">
        <ele>59.996991</ele>
        <time>2022-08-02T14:49:36.000Z</time>
      </trkpt>
      <trkpt lat="49.34874" lon="-0.75968">
        <ele>59.77534</ele>
        <time>2022-08-02T14:49:37.000Z</time>
      </trkpt>
      <trkpt lat="49.34874" lon="-0.75965">
        <ele>59.558989</ele>
        <time>2022-08-02T14:49:38.000Z</time>
      </trkpt>
      <trkpt lat="49.34874" lon="-0.75961">
        <ele>59.352678</ele>
        <time>2022-08-02T14:49:39.000Z</time>
      </trkpt>
      <trkpt lat="49.34874" lon="-0.75957">
        <ele>59.124388</ele>
        <time>2022-08-02T14:49:40.000Z</time>
      </trkpt>
      <trkpt lat="49.34876" lon="-0.75952">
        <ele>58.831636</ele>
        <time>2022-08-02T14:49:41.000Z</time>
      </trkpt>
      <trkpt lat="49.34877" lon="-0.75946">
        <ele>58.493282</ele>
        <time>2022-08-02T14:49:42.000Z</time>
      </trkpt>
      <trkpt lat="49.34878" lon="-0.7594">
        <ele>58.132888</ele>
        <time>2022-08-02T14:49:43.000Z</time>
      </trkpt>
      <trkpt lat="49.3488" lon="-0.75934">
        <ele>57.75874</ele>
        <time>2022-08-02T14:49:44.000Z</time>
      </trkpt>
      <trkpt lat="49.34882" lon="-0.75927">
        <ele>57.343581</ele>
        <time>2022-08-02T14:49:45.000Z</time>
      </trkpt>
      <trkpt lat="49.34884" lon="-0.7592">
        <ele>56.922646</ele>
        <time>2022-08-02T14:49:46.000Z</time>
      </trkpt>
      <trkpt lat="49.34885" lon="-0.75912">
        <ele>56.449584</ele>
        <time>2022-08-02T14:49:47.000Z</time>
      </trkpt>
      <trkpt lat="49.34886" lon="-0.75904">
        <ele>55.584612</ele>
        <time>2022-08-02T14:49:48.000Z</time>
      </trkpt>
      <trkpt lat="49.34886" lon="-0.75896">
        <ele>54.684476</ele>
        <time>2022-08-02T14:49:49.000Z</time>
      </trkpt>
      <trkpt lat="49.34885" lon="-0.75888">
        <ele>53.808882</ele>
        <time>2022-08-02T14:49:50.000Z</time>
      </trkpt>
      <trkpt lat="49.34884" lon="-0.7588">
        <ele>52.912118</ele>
        <time>2022-08-02T14:49:51.000Z</time>
      </trkpt>
      <trkpt lat="49.34882" lon="-0.75872">
        <ele>52.076605</ele>
        <time>2022-08-02T14:49:52.000Z</time>
      </trkpt>
      <trkpt lat="49.34881" lon="-0.75865">
        <ele>51.290586</ele>
        <time>2022-08-02T14:49:53.000Z</time>
      </trkpt>
      <trkpt lat="49.3488" lon="-0.75858">
        <ele>50.489953</ele>
        <time>2022-08-02T14:49:54.000Z</time>
      </trkpt>
      <trkpt lat="49.34878" lon="-0.75851">
        <ele>49.664603</ele>
        <time>2022-08-02T14:49:55.000Z</time>
      </trkpt>
      <trkpt lat="49.34876" lon="-0.75844">
        <ele>48.851982</ele>
        <time>2022-08-02T14:49:56.000Z</time>
      </trkpt>
      <trkpt lat="49.34875" lon="-0.75837">
        <ele>48.071982</ele>
        <time>2022-08-02T14:49:57.000Z</time>
      </trkpt>
      <trkpt lat="49.34873" lon="-0.7583">
        <ele>47.277034</ele>
        <time>2022-08-02T14:49:58.000Z</time>
      </trkpt>
      <trkpt lat="49.34872" lon="-0.75823">
        <ele>46.507333</ele>
        <time>2022-08-02T14:49:59.000Z</time>
      </trkpt>
      <trkpt lat="49.34871" lon="-0.75816">
        <ele>45.760313</ele>
        <time>2022-08-02T14:50:00.000Z</time>
      </trkpt>
      <trkpt lat="49.34869" lon="-0.75809">
        <ele>44.985555</ele>
        <time>2022-08-02T14:50:01.000Z</time>
      </trkpt>
      <trkpt lat="49.34868" lon="-0.75802">
        <ele>44.15004</ele>
        <time>2022-08-02T14:50:02.000Z</time>
      </trkpt>
      <trkpt lat="49.34866" lon="-0.75794">
        <ele>43.294156</ele>
        <time>2022-08-02T14:50:03.000Z</time>
      </trkpt>
      <trkpt lat="49.34866" lon="-0.75787">
        <ele>42.516321</ele>
        <time>2022-08-02T14:50:04.000Z</time>
      </trkpt>
      <trkpt lat="49.34866" lon="-0.75781">
        <ele>41.841215</ele>
        <time>2022-08-02T14:50:05.000Z</time>
      </trkpt>
      <trkpt lat="49.34866" lon="-0.75775">
        <ele>41.201317</ele>
        <time>2022-08-02T14:50:06.000Z</time>
      </trkpt>
      <trkpt lat="49.34867" lon="-0.75769">
        <ele>40.589415</ele>
        <time>2022-08-02T14:50:07.000Z</time>
      </trkpt>
      <trkpt lat="49.34868" lon="-0.75764">
        <ele>40.012958</ele>
        <time>2022-08-02T14:50:08.000Z</time>
      </trkpt>
      <trkpt lat="49.34868" lon="-0.75759">
        <ele>39.498592</ele>
        <time>2022-08-02T14:50:09.000Z</time>
      </trkpt>
      <trkpt lat="49.34869" lon="-0.75754">
        <ele>38.950561</ele>
        <time>2022-08-02T14:50:10.000Z</time>
      </trkpt>
      <trkpt lat="49.34869" lon="-0.75749">
        <ele>38.394687</ele>
        <time>2022-08-02T14:50:11.000Z</time>
      </trkpt>
      <trkpt lat="49.3487" lon="-0.75744">
        <ele>37.801649</ele>
        <time>2022-08-02T14:50:12.000Z</time>
      </trkpt>
      <trkpt lat="49.3487" lon="-0.75738">
        <ele>37.188849</ele>
        <time>2022-08-02T14:50:13.000Z</time>
      </trkpt>
      <trkpt lat="49.34871" lon="-0.75733">
        <ele>36.601926</ele>
        <time>2022-08-02T14:50:14.000Z</time>
      </trkpt>
      <trkpt lat="49.34872" lon="-0.75728">
        <ele>36.064368</ele>
        <time>2022-08-02T14:50:15.000Z</time>
      </trkpt>
      <trkpt lat="49.34872" lon="-0.75723">
        <ele>35.568971</ele>
        <time>2022-08-02T14:50:16.000Z</time>
      </trkpt>
      <trkpt lat="49.34873" lon="-0.75719">
        <ele>35.089783</ele>
        <time>2022-08-02T14:50:17.000Z</time>
      </trkpt>
      <trkpt lat="49.34874" lon="-0.75715">
        <ele>34.681194</ele>
        <time>2022-08-02T14:50:18.000Z</time>
      </trkpt>
      <trkpt lat="49.34875" lon="-0.75711">
        <ele>34.143876</ele>
        <time>2022-08-02T14:50:20.000Z</time>
      </trkpt>
      <trkpt lat="49.34876" lon="-0.75707">
        <ele>33.75605</ele>
        <time>2022-08-02T14:50:22.000Z</time>
      </trkpt>
      <trkpt lat="49.34875" lon="-0.75703">
        <ele>33.263836</ele>
        <time>2022-08-02T14:50:24.000Z</time>
      </trkpt>
      <trkpt lat="49.34874" lon="-0.757">
        <ele>32.90211</ele>
        <time>2022-08-02T14:50:25.000Z</time>
      </trkpt>
      <trkpt lat="49.34875" lon="-0.75696">
        <ele>32.53021</ele>
        <time>2022-08-02T14:50:26.000Z</time>
      </trkpt>
      <trkpt lat="49.34876" lon="-0.75693">
        <ele>32.121621</ele>
        <time>2022-08-02T14:50:27.000Z</time>
      </trkpt>
      <trkpt lat="49.34877" lon="-0.75689">
        <ele>31.64573</ele>
        <time>2022-08-02T14:50:28.000Z</time>
      </trkpt>
      <trkpt lat="49.34878" lon="-0.75685">
        <ele>31.185791</ele>
        <time>2022-08-02T14:50:29.000Z</time>
      </trkpt>
      <trkpt lat="49.3488" lon="-0.75681">
        <ele>30.700936</ele>
        <time>2022-08-02T14:50:30.000Z</time>
      </trkpt>
      <trkpt lat="49.34881" lon="-0.75678">
        <ele>30.250457</ele>
        <time>2022-08-02T14:50:31.000Z</time>
      </trkpt>
      <trkpt lat="49.34882" lon="-0.75674">
        <ele>29.867093</ele>
        <time>2022-08-02T14:50:32.000Z</time>
      </trkpt>
      <trkpt lat="49.34884" lon="-0.75671">
        <ele>29.416614</ele>
        <time>2022-08-02T14:50:33.000Z</time>
      </trkpt>
      <trkpt lat="49.34884" lon="-0.75667">
        <ele>28.985146</ele>
        <time>2022-08-02T14:50:34.000Z</time>
      </trkpt>
      <trkpt lat="49.34884" lon="-0.75663">
        <ele>28.583234</ele>
        <time>2022-08-02T14:50:35.000Z</time>
      </trkpt>
      <trkpt lat="49.34884" lon="-0.7566">
        <ele>28.251041</ele>
        <time>2022-08-02T14:50:36.000Z</time>
      </trkpt>
      <trkpt lat="49.34884" lon="-0.75655">
        <ele>27.755268</ele>
        <time>2022-08-02T14:50:38.000Z</time>
      </trkpt>
      <trkpt lat="49.34882" lon="-0.75652">
        <ele>27.332808</ele>
        <time>2022-08-02T14:50:42.000Z</time>
      </trkpt>
      <trkpt lat="49.3488" lon="-0.75651">
        <ele>26.926349</ele>
        <time>2022-08-02T14:50:44.000Z</time>
      </trkpt>
      <trkpt lat="49.34877" lon="-0.75651">
        <ele>26.885243</ele>
        <time>2022-08-02T14:50:45.000Z</time>
      </trkpt>
      <trkpt lat="49.34874" lon="-0.75652">
        <ele>26.82785</ele>
        <time>2022-08-02T14:50:46.000Z</time>
      </trkpt>
      <trkpt lat="49.34871" lon="-0.75653">
        <ele>26.768785</ele>
        <time>2022-08-02T14:50:47.000Z</time>
      </trkpt>
      <trkpt lat="49.34868" lon="-0.75654">
        <ele>26.70526</ele>
        <time>2022-08-02T14:50:48.000Z</time>
      </trkpt>
      <trkpt lat="49.34864" lon="-0.75655">
        <ele>26.636969</ele>
        <time>2022-08-02T14:50:49.000Z</time>
      </trkpt>
      <trkpt lat="49.3486" lon="-0.75655">
        <ele>26.57442</ele>
        <time>2022-08-02T14:50:50.000Z</time>
      </trkpt>
      <trkpt lat="49.34857" lon="-0.75656">
        <ele>26.509337</ele>
        <time>2022-08-02T14:50:51.000Z</time>
      </trkpt>
      <trkpt lat="49.34853" lon="-0.75657">
        <ele>26.445813</ele>
        <time>2022-08-02T14:50:52.000Z</time>
      </trkpt>
      <trkpt lat="49.3485" lon="-0.75657">
        <ele>26.383091</ele>
        <time>2022-08-02T14:50:53.000Z</time>
      </trkpt>
      <trkpt lat="49.34846" lon="-0.75657">
        <ele>26.325945</ele>
        <time>2022-08-02T14:50:54.000Z</time>
      </trkpt>
      <trkpt lat="49.34844" lon="-0.75656">
        <ele>26.285603</ele>
        <time>2022-08-02T14:50:55.000Z</time>
      </trkpt>
      <trkpt lat="49.34842" lon="-0.75655">
        <ele>26.246381</ele>
        <time>2022-08-02T14:50:56.000Z</time>
      </trkpt>
      <trkpt lat="49.3484" lon="-0.75652">
        <ele>26.197745</ele>
        <time>2022-08-02T14:50:58.000Z</time>
      </trkpt>
      <trkpt lat="49.34838" lon="-0.75652">
        <ele>26.158335</ele>
        <time>2022-08-02T14:51:00.000Z</time>
      </trkpt>
      <trkpt lat="49.34837" lon="-0.75655">
        <ele>26.113266</ele>
        <time>2022-08-02T14:51:02.000Z</time>
      </trkpt>
      <trkpt lat="49.3484" lon="-0.75651">
        <ele>26.040576</ele>
        <time>2022-08-02T14:51:22.000Z</time>
      </trkpt>
      <trkpt lat="49.3484" lon="-0.75646">
        <ele>25.976419</ele>
        <time>2022-08-02T14:51:24.000Z</time>
      </trkpt>
      <trkpt lat="49.3484" lon="-0.75642">
        <ele>25.932247</ele>
        <time>2022-08-02T14:51:25.000Z</time>
      </trkpt>
      <trkpt lat="49.3484" lon="-0.75638">
        <ele>25.879665</ele>
        <time>2022-08-02T14:51:26.000Z</time>
      </trkpt>
      <trkpt lat="49.3484" lon="-0.75633">
        <ele>25.829395</ele>
        <time>2022-08-02T14:51:27.000Z</time>
      </trkpt>
      <trkpt lat="49.34841" lon="-0.75628">
        <ele>25.772185</ele>
        <time>2022-08-02T14:51:28.000Z</time>
      </trkpt>
      <trkpt lat="49.34841" lon="-0.75623">
        <ele>25.709324</ele>
        <time>2022-08-02T14:51:29.000Z</time>
      </trkpt>
      <trkpt lat="49.34842" lon="-0.75618">
        <ele>25.647483</ele>
        <time>2022-08-02T14:51:30.000Z</time>
      </trkpt>
      <trkpt lat="49.34843" lon="-0.75612">
        <ele>25.582226</ele>
        <time>2022-08-02T14:51:31.000Z</time>
      </trkpt>
      <trkpt lat="49.34844" lon="-0.75608">
        <ele>25.522462</ele>
        <time>2022-08-02T14:51:32.000Z</time>
      </trkpt>
      <trkpt lat="49.34845" lon="-0.75603">
        <ele>25.467358</ele>
        <time>2022-08-02T14:51:33.000Z</time>
      </trkpt>
      <trkpt lat="49.34846" lon="-0.756">
        <ele>25.424799</ele>
        <time>2022-08-02T14:51:34.000Z</time>
      </trkpt>
      <trkpt lat="49.34846" lon="-0.75596">
        <ele>25.384916</ele>
        <time>2022-08-02T14:51:35.000Z</time>
      </trkpt>
      <trkpt lat="49.34846" lon="-0.75592">
        <ele>25.336957</ele>
        <time>2022-08-02T14:51:37.000Z</time>
      </trkpt>
      <trkpt lat="49.34845" lon="-0.75589">
        <ele>25.290124</ele>
        <time>2022-08-02T14:51:39.000Z</time>
      </trkpt>
      <trkpt lat="49.34842" lon="-0.75587">
        <ele>25.238232</ele>
        <time>2022-08-02T14:51:41.000Z</time>
      </trkpt>
      <trkpt lat="49.3484" lon="-0.75586">
        <ele>25.203367</ele>
        <time>2022-08-02T14:51:43.000Z</time>
      </trkpt>
      <trkpt lat="49.34831" lon="-0.75585">
        <ele>25.036737</ele>
        <time>2022-08-02T14:52:53.000Z</time>
      </trkpt>
      <trkpt lat="49.34828" lon="-0.75585">
        <ele>24.979532</ele>
        <time>2022-08-02T14:52:54.000Z</time>
      </trkpt>
      <trkpt lat="49.34824" lon="-0.75587">
        <ele>24.909521</ele>
        <time>2022-08-02T14:52:55.000Z</time>
      </trkpt>
      <trkpt lat="49.3482" lon="-0.75588">
        <ele>24.843657</ele>
        <time>2022-08-02T14:52:56.000Z</time>
      </trkpt>
      <trkpt lat="49.34816" lon="-0.7559">
        <ele>24.766713</ele>
        <time>2022-08-02T14:52:57.000Z</time>
      </trkpt>
      <trkpt lat="49.34812" lon="-0.75592">
        <ele>24.688584</ele>
        <time>2022-08-02T14:52:58.000Z</time>
      </trkpt>
      <trkpt lat="49.34807" lon="-0.75594">
        <ele>24.595208</ele>
        <time>2022-08-02T14:52:59.000Z</time>
      </trkpt>
      <trkpt lat="49.34803" lon="-0.75596">
        <ele>24.523529</ele>
        <time>2022-08-02T14:53:00.000Z</time>
      </trkpt>
      <trkpt lat="49.348" lon="-0.75598">
        <ele>24.466857</ele>
        <time>2022-08-02T14:53:01.000Z</time>
      </trkpt>
      <trkpt lat="49.34798" lon="-0.75601">
        <ele>24.412314</ele>
        <time>2022-08-02T14:53:02.000Z</time>
      </trkpt>
      <trkpt lat="49.34795" lon="-0.75604">
        <ele>24.351183</ele>
        <time>2022-08-02T14:53:03.000Z</time>
      </trkpt>
      <trkpt lat="49.34793" lon="-0.75607">
        <ele>24.298073</ele>
        <time>2022-08-02T14:53:04.000Z</time>
      </trkpt>
      <trkpt lat="49.3479" lon="-0.75609">
        <ele>24.244833</ele>
        <time>2022-08-02T14:53:05.000Z</time>
      </trkpt>
      <trkpt lat="49.34788" lon="-0.75612">
        <ele>24.189464</ele>
        <time>2022-08-02T14:53:06.000Z</time>
      </trkpt>
      <trkpt lat="49.34784" lon="-0.75614">
        <ele>24.125395</ele>
        <time>2022-08-02T14:53:07.000Z</time>
      </trkpt>
      <trkpt lat="49.34782" lon="-0.75617">
        <ele>24.073976</ele>
        <time>2022-08-02T14:53:08.000Z</time>
      </trkpt>
      <trkpt lat="49.34779" lon="-0.75618">
        <ele>24.013164</ele>
        <time>2022-08-02T14:53:09.000Z</time>
      </trkpt>
      <trkpt lat="49.34776" lon="-0.7562">
        <ele>23.957773</ele>
        <time>2022-08-02T14:53:10.000Z</time>
      </trkpt>
      <trkpt lat="49.34773" lon="-0.75622">
        <ele>23.896962</ele>
        <time>2022-08-02T14:53:11.000Z</time>
      </trkpt>
      <trkpt lat="49.34769" lon="-0.75624">
        <ele>23.83654</ele>
        <time>2022-08-02T14:53:12.000Z</time>
      </trkpt>
      <trkpt lat="49.34766" lon="-0.75626">
        <ele>23.774889</ele>
        <time>2022-08-02T14:53:13.000Z</time>
      </trkpt>
      <trkpt lat="49.34762" lon="-0.75627">
        <ele>23.755564</ele>
        <time>2022-08-02T14:53:14.000Z</time>
      </trkpt>
      <trkpt lat="49.34758" lon="-0.75629">
        <ele>23.932554</ele>
        <time>2022-08-02T14:53:15.000Z</time>
      </trkpt>
      <trkpt lat="49.34755" lon="-0.75631">
        <ele>24.095935</ele>
        <time>2022-08-02T14:53:16.000Z</time>
      </trkpt>
      <trkpt lat="49.34751" lon="-0.75633">
        <ele>24.284033</ele>
        <time>2022-08-02T14:53:17.000Z</time>
      </trkpt>
      <trkpt lat="49.34747" lon="-0.75636">
        <ele>24.478342</ele>
        <time>2022-08-02T14:53:18.000Z</time>
      </trkpt>
      <trkpt lat="49.34743" lon="-0.7564">
        <ele>24.671241</ele>
        <time>2022-08-02T14:53:19.000Z</time>
      </trkpt>
      <trkpt lat="49.34739" lon="-0.75642">
        <ele>24.875032</ele>
        <time>2022-08-02T14:53:20.000Z</time>
      </trkpt>
      <trkpt lat="49.34735" lon="-0.75645">
        <ele>25.063901</ele>
        <time>2022-08-02T14:53:21.000Z</time>
      </trkpt>
      <trkpt lat="49.34731" lon="-0.75648">
        <ele>25.265452</ele>
        <time>2022-08-02T14:53:22.000Z</time>
      </trkpt>
      <trkpt lat="49.34727" lon="-0.75651">
        <ele>25.468105</ele>
        <time>2022-08-02T14:53:23.000Z</time>
      </trkpt>
      <trkpt lat="49.34723" lon="-0.75653">
        <ele>25.662381</ele>
        <time>2022-08-02T14:53:24.000Z</time>
      </trkpt>
      <trkpt lat="49.34718" lon="-0.75655">
        <ele>25.872567</ele>
        <time>2022-08-02T14:53:25.000Z</time>
      </trkpt>
      <trkpt lat="49.34715" lon="-0.75657">
        <ele>26.053317</ele>
        <time>2022-08-02T14:53:26.000Z</time>
      </trkpt>
      <trkpt lat="49.3471" lon="-0.7566">
        <ele>26.266305</ele>
        <time>2022-08-02T14:53:27.000Z</time>
      </trkpt>
      <trkpt lat="49.34706" lon="-0.75662">
        <ele>26.47563</ele>
        <time>2022-08-02T14:53:28.000Z</time>
      </trkpt>
      <trkpt lat="49.34701" lon="-0.75664">
        <ele>26.683342</ele>
        <time>2022-08-02T14:53:29.000Z</time>
      </trkpt>
      <trkpt lat="49.34697" lon="-0.75666">
        <ele>26.877618</ele>
        <time>2022-08-02T14:53:30.000Z</time>
      </trkpt>
      <trkpt lat="49.34693" lon="-0.75668">
        <ele>27.075125</ele>
        <time>2022-08-02T14:53:31.000Z</time>
      </trkpt>
      <trkpt lat="49.34689" lon="-0.75671">
        <ele>27.248176</ele>
        <time>2022-08-02T14:53:32.000Z</time>
      </trkpt>
      <trkpt lat="49.34685" lon="-0.75673">
        <ele>27.435176</ele>
        <time>2022-08-02T14:53:33.000Z</time>
      </trkpt>
      <trkpt lat="49.34682" lon="-0.75675">
        <ele>27.612166</ele>
        <time>2022-08-02T14:53:34.000Z</time>
      </trkpt>
      <trkpt lat="49.34678" lon="-0.75677">
        <ele>27.765936</ele>
        <time>2022-08-02T14:53:35.000Z</time>
      </trkpt>
      <trkpt lat="49.34674" lon="-0.75679">
        <ele>27.974437</ele>
        <time>2022-08-02T14:53:36.000Z</time>
      </trkpt>
      <trkpt lat="49.3467" lon="-0.75681">
        <ele>28.165901</ele>
        <time>2022-08-02T14:53:37.000Z</time>
      </trkpt>
      <trkpt lat="49.34666" lon="-0.75684">
        <ele>28.354</ele>
        <time>2022-08-02T14:53:38.000Z</time>
      </trkpt>
      <trkpt lat="49.34661" lon="-0.75686">
        <ele>28.564186</ele>
        <time>2022-08-02T14:53:39.000Z</time>
      </trkpt>
      <trkpt lat="49.34657" lon="-0.75688">
        <ele>28.756549</ele>
        <time>2022-08-02T14:53:40.000Z</time>
      </trkpt>
      <trkpt lat="49.34653" lon="-0.7569">
        <ele>28.956004</ele>
        <time>2022-08-02T14:53:41.000Z</time>
      </trkpt>
      <trkpt lat="49.34649" lon="-0.75692">
        <ele>29.165329</ele>
        <time>2022-08-02T14:53:42.000Z</time>
      </trkpt>
      <trkpt lat="49.34644" lon="-0.75694">
        <ele>29.369558</ele>
        <time>2022-08-02T14:53:43.000Z</time>
      </trkpt>
      <trkpt lat="49.3464" lon="-0.75696">
        <ele>29.575809</ele>
        <time>2022-08-02T14:53:44.000Z</time>
      </trkpt>
      <trkpt lat="49.34635" lon="-0.75697">
        <ele>29.791393</ele>
        <time>2022-08-02T14:53:45.000Z</time>
      </trkpt>
      <trkpt lat="49.3463" lon="-0.75698">
        <ele>30.00551</ele>
        <time>2022-08-02T14:53:46.000Z</time>
      </trkpt>
      <trkpt lat="49.34626" lon="-0.75697">
        <ele>30.206308</ele>
        <time>2022-08-02T14:53:47.000Z</time>
      </trkpt>
      <trkpt lat="49.34621" lon="-0.75695">
        <ele>30.425547</ele>
        <time>2022-08-02T14:53:48.000Z</time>
      </trkpt>
      <trkpt lat="49.34616" lon="-0.75693">
        <ele>30.659814</ele>
        <time>2022-08-02T14:53:49.000Z</time>
      </trkpt>
      <trkpt lat="49.34611" lon="-0.75691">
        <ele>30.881948</ele>
        <time>2022-08-02T14:53:50.000Z</time>
      </trkpt>
      <trkpt lat="49.34606" lon="-0.75689">
        <ele>31.107537</ele>
        <time>2022-08-02T14:53:51.000Z</time>
      </trkpt>
      <trkpt lat="49.34602" lon="-0.75686">
        <ele>31.306992</ele>
        <time>2022-08-02T14:53:52.000Z</time>
      </trkpt>
      <trkpt lat="49.34598" lon="-0.75685">
        <ele>31.496781</ele>
        <time>2022-08-02T14:53:53.000Z</time>
      </trkpt>
      <trkpt lat="49.34594" lon="-0.75682">
        <ele>31.68488</ele>
        <time>2022-08-02T14:53:54.000Z</time>
      </trkpt>
      <trkpt lat="49.3459" lon="-0.7568">
        <ele>31.782427</ele>
        <time>2022-08-02T14:53:55.000Z</time>
      </trkpt>
      <trkpt lat="49.34587" lon="-0.75677">
        <ele>31.851405</ele>
        <time>2022-08-02T14:53:56.000Z</time>
      </trkpt>
      <trkpt lat="49.34583" lon="-0.75675">
        <ele>31.913567</ele>
        <time>2022-08-02T14:53:57.000Z</time>
      </trkpt>
      <trkpt lat="49.3458" lon="-0.75674">
        <ele>31.972978</ele>
        <time>2022-08-02T14:53:58.000Z</time>
      </trkpt>
      <trkpt lat="49.34577" lon="-0.75674">
        <ele>32.026164</ele>
        <time>2022-08-02T14:53:59.000Z</time>
      </trkpt>
      <trkpt lat="49.34574" lon="-0.75673">
        <ele>32.078757</ele>
        <time>2022-08-02T14:54:00.000Z</time>
      </trkpt>
      <trkpt lat="49.34572" lon="-0.75673">
        <ele>32.118633</ele>
        <time>2022-08-02T14:54:01.000Z</time>
      </trkpt>
      <trkpt lat="49.3457" lon="-0.75673">
        <ele>32.165738</ele>
        <time>2022-08-02T14:54:02.000Z</time>
      </trkpt>
      <trkpt lat="49.34567" lon="-0.75673">
        <ele>32.205666</ele>
        <time>2022-08-02T14:54:03.000Z</time>
      </trkpt>
      <trkpt lat="49.34565" lon="-0.75673">
        <ele>32.258259</ele>
        <time>2022-08-02T14:54:04.000Z</time>
      </trkpt>
      <trkpt lat="49.34562" lon="-0.75674">
        <ele>32.300079</ele>
        <time>2022-08-02T14:54:05.000Z</time>
      </trkpt>
      <trkpt lat="49.3456" lon="-0.75673">
        <ele>32.340372</ele>
        <time>2022-08-02T14:54:06.000Z</time>
      </trkpt>
      <trkpt lat="49.34557" lon="-0.75672">
        <ele>32.388933</ele>
        <time>2022-08-02T14:54:07.000Z</time>
      </trkpt>
      <trkpt lat="49.34555" lon="-0.75671">
        <ele>32.430502</ele>
        <time>2022-08-02T14:54:08.000Z</time>
      </trkpt>
      <trkpt lat="49.34552" lon="-0.7567">
        <ele>32.489064</ele>
        <time>2022-08-02T14:54:09.000Z</time>
      </trkpt>
      <trkpt lat="49.34549" lon="-0.7567">
        <ele>32.547147</ele>
        <time>2022-08-02T14:54:10.000Z</time>
      </trkpt>
      <trkpt lat="49.34546" lon="-0.7567">
        <ele>32.59974</ele>
        <time>2022-08-02T14:54:11.000Z</time>
      </trkpt>
      <trkpt lat="49.34543" lon="-0.7567">
        <ele>32.657824</ele>
        <time>2022-08-02T14:54:12.000Z</time>
      </trkpt>
      <trkpt lat="49.3454" lon="-0.75669">
        <ele>32.716989</ele>
        <time>2022-08-02T14:54:13.000Z</time>
      </trkpt>
      <trkpt lat="49.34536" lon="-0.75667">
        <ele>32.782825</ele>
        <time>2022-08-02T14:54:14.000Z</time>
      </trkpt>
      <trkpt lat="49.34533" lon="-0.75666">
        <ele>32.843443</ele>
        <time>2022-08-02T14:54:15.000Z</time>
      </trkpt>
      <trkpt lat="49.3453" lon="-0.75664">
        <ele>32.903415</ele>
        <time>2022-08-02T14:54:16.000Z</time>
      </trkpt>
      <trkpt lat="49.34526" lon="-0.75663">
        <ele>32.968944</ele>
        <time>2022-08-02T14:54:17.000Z</time>
      </trkpt>
      <trkpt lat="49.34523" lon="-0.75661">
        <ele>33.035819</ele>
        <time>2022-08-02T14:54:18.000Z</time>
      </trkpt>
      <trkpt lat="49.34519" lon="-0.75658">
        <ele>33.113331</ele>
        <time>2022-08-02T14:54:19.000Z</time>
      </trkpt>
      <trkpt lat="49.34515" lon="-0.75656">
        <ele>33.188707</ele>
        <time>2022-08-02T14:54:20.000Z</time>
      </trkpt>
      <trkpt lat="49.34511" lon="-0.75653">
        <ele>33.267741</ele>
        <time>2022-08-02T14:54:21.000Z</time>
      </trkpt>
      <trkpt lat="49.34507" lon="-0.75649">
        <ele>33.35513</ele>
        <time>2022-08-02T14:54:22.000Z</time>
      </trkpt>
      <trkpt lat="49.34502" lon="-0.75645">
        <ele>33.449939</ele>
        <time>2022-08-02T14:54:23.000Z</time>
      </trkpt>
      <trkpt lat="49.34498" lon="-0.75641">
        <ele>33.545357</ele>
        <time>2022-08-02T14:54:24.000Z</time>
      </trkpt>
      <trkpt lat="49.34493" lon="-0.75636">
        <ele>33.655034</ele>
        <time>2022-08-02T14:54:25.000Z</time>
      </trkpt>
      <trkpt lat="49.34487" lon="-0.75632">
        <ele>33.765809</ele>
        <time>2022-08-02T14:54:26.000Z</time>
      </trkpt>
      <trkpt lat="49.34482" lon="-0.75628">
        <ele>33.871803</ele>
        <time>2022-08-02T14:54:27.000Z</time>
      </trkpt>
      <trkpt lat="49.34477" lon="-0.75624">
        <ele>33.982019</ele>
        <time>2022-08-02T14:54:28.000Z</time>
      </trkpt>
      <trkpt lat="49.34471" lon="-0.75619">
        <ele>34.098207</ele>
        <time>2022-08-02T14:54:29.000Z</time>
      </trkpt>
      <trkpt lat="49.34465" lon="-0.75615">
        <ele>34.207356</ele>
        <time>2022-08-02T14:54:30.000Z</time>
      </trkpt>
      <trkpt lat="49.34461" lon="-0.75611">
        <ele>34.307457</ele>
        <time>2022-08-02T14:54:31.000Z</time>
      </trkpt>
      <trkpt lat="49.34456" lon="-0.75607">
        <ele>34.398274</ele>
        <time>2022-08-02T14:54:32.000Z</time>
      </trkpt>
      <trkpt lat="49.34453" lon="-0.75602">
        <ele>34.485229</ele>
        <time>2022-08-02T14:54:33.000Z</time>
      </trkpt>
      <trkpt lat="49.34449" lon="-0.75598">
        <ele>34.56871</ele>
        <time>2022-08-02T14:54:34.000Z</time>
      </trkpt>
      <trkpt lat="49.34445" lon="-0.75592">
        <ele>34.659905</ele>
        <time>2022-08-02T14:54:35.000Z</time>
      </trkpt>
      <trkpt lat="49.34442" lon="-0.75587">
        <ele>34.746944</ele>
        <time>2022-08-02T14:54:36.000Z</time>
      </trkpt>
      <trkpt lat="49.34439" lon="-0.75581">
        <ele>34.838542</ele>
        <time>2022-08-02T14:54:37.000Z</time>
      </trkpt>
      <trkpt lat="49.34435" lon="-0.75576">
        <ele>34.930995</ele>
        <time>2022-08-02T14:54:38.000Z</time>
      </trkpt>
      <trkpt lat="49.34432" lon="-0.7557">
        <ele>35.006884</ele>
        <time>2022-08-02T14:54:39.000Z</time>
      </trkpt>
      <trkpt lat="49.34429" lon="-0.75566">
        <ele>35.061234</ele>
        <time>2022-08-02T14:54:40.000Z</time>
      </trkpt>
      <trkpt lat="49.34425" lon="-0.75561">
        <ele>35.116693</ele>
        <time>2022-08-02T14:54:41.000Z</time>
      </trkpt>
      <trkpt lat="49.34421" lon="-0.75557">
        <ele>35.170678</ele>
        <time>2022-08-02T14:54:42.000Z</time>
      </trkpt>
      <trkpt lat="49.34419" lon="-0.75553">
        <ele>35.217141</ele>
        <time>2022-08-02T14:54:43.000Z</time>
      </trkpt>
      <trkpt lat="49.34416" lon="-0.75549">
        <ele>35.258189</ele>
        <time>2022-08-02T14:54:44.000Z</time>
      </trkpt>
      <trkpt lat="49.34415" lon="-0.75546">
        <ele>35.288871</ele>
        <time>2022-08-02T14:54:45.000Z</time>
      </trkpt>
      <trkpt lat="49.34413" lon="-0.75544">
        <ele>35.31927</ele>
        <time>2022-08-02T14:54:46.000Z</time>
      </trkpt>
      <trkpt lat="49.34411" lon="-0.75542">
        <ele>35.344335</ele>
        <time>2022-08-02T14:54:47.000Z</time>
      </trkpt>
      <trkpt lat="49.34409" lon="-0.7554">
        <ele>35.369935</ele>
        <time>2022-08-02T14:54:48.000Z</time>
      </trkpt>
      <trkpt lat="49.34407" lon="-0.7554">
        <ele>35.398274</ele>
        <time>2022-08-02T14:54:49.000Z</time>
      </trkpt>
      <trkpt lat="49.34405" lon="-0.7554">
        <ele>35.421408</ele>
        <time>2022-08-02T14:54:50.000Z</time>
      </trkpt>
      <trkpt lat="49.34403" lon="-0.7554">
        <ele>35.444609</ele>
        <time>2022-08-02T14:54:51.000Z</time>
      </trkpt>
      <trkpt lat="49.344" lon="-0.75541">
        <ele>35.480713</ele>
        <time>2022-08-02T14:54:53.000Z</time>
      </trkpt>
      <trkpt lat="49.34398" lon="-0.75541">
        <ele>35.504129</ele>
        <time>2022-08-02T14:54:54.000Z</time>
      </trkpt>
      <trkpt lat="49.34397" lon="-0.75542">
        <ele>35.527864</ele>
        <time>2022-08-02T14:54:55.000Z</time>
      </trkpt>
      <trkpt lat="49.34394" lon="-0.75543">
        <ele>35.559693</ele>
        <time>2022-08-02T14:54:56.000Z</time>
      </trkpt>
      <trkpt lat="49.34391" lon="-0.75543">
        <ele>35.590153</ele>
        <time>2022-08-02T14:54:57.000Z</time>
      </trkpt>
      <trkpt lat="49.34389" lon="-0.75543">
        <ele>35.621774</ele>
        <time>2022-08-02T14:54:58.000Z</time>
      </trkpt>
      <trkpt lat="49.34386" lon="-0.75543">
        <ele>35.65708</ele>
        <time>2022-08-02T14:54:59.000Z</time>
      </trkpt>
      <trkpt lat="49.34383" lon="-0.75544">
        <ele>35.687489</ele>
        <time>2022-08-02T14:55:00.000Z</time>
      </trkpt>
      <trkpt lat="49.34381" lon="-0.75544">
        <ele>35.722751</ele>
        <time>2022-08-02T14:55:01.000Z</time>
      </trkpt>
      <trkpt lat="49.34378" lon="-0.75545">
        <ele>35.758541</ele>
        <time>2022-08-02T14:55:02.000Z</time>
      </trkpt>
      <trkpt lat="49.34375" lon="-0.75546">
        <ele>35.7911</ele>
        <time>2022-08-02T14:55:03.000Z</time>
      </trkpt>
      <trkpt lat="49.34373" lon="-0.75547">
        <ele>35.822482</ele>
        <time>2022-08-02T14:55:04.000Z</time>
      </trkpt>
      <trkpt lat="49.3437" lon="-0.75548">
        <ele>35.858966</ele>
        <time>2022-08-02T14:55:05.000Z</time>
      </trkpt>
      <trkpt lat="49.34367" lon="-0.75549">
        <ele>35.891176</ele>
        <time>2022-08-02T14:55:06.000Z</time>
      </trkpt>
      <trkpt lat="49.34364" lon="-0.75549">
        <ele>35.925417</ele>
        <time>2022-08-02T14:55:07.000Z</time>
      </trkpt>
      <trkpt lat="49.34361" lon="-0.7555">
        <ele>35.969325</ele>
        <time>2022-08-02T14:55:09.000Z</time>
      </trkpt>
      <trkpt lat="49.34358" lon="-0.75546">
        <ele>36.012206</ele>
        <time>2022-08-02T14:55:11.000Z</time>
      </trkpt>
      <trkpt lat="49.34357" lon="-0.75543">
        <ele>36.037993</ele>
        <time>2022-08-02T14:55:12.000Z</time>
      </trkpt>
      <trkpt lat="49.34357" lon="-0.7554">
        <ele>36.063318</ele>
        <time>2022-08-02T14:55:13.000Z</time>
      </trkpt>
      <trkpt lat="49.34359" lon="-0.75536">
        <ele>36.099125</ele>
        <time>2022-08-02T14:55:15.000Z</time>
      </trkpt>
      <trkpt lat="49.34365" lon="-0.75533">
        <ele>36.177689</ele>
        <time>2022-08-02T14:55:26.000Z</time>
      </trkpt>
      <trkpt lat="49.34367" lon="-0.75535">
        <ele>36.208609</ele>
        <time>2022-08-02T14:55:27.000Z</time>
      </trkpt>
      <trkpt lat="49.34369" lon="-0.7554">
        <ele>36.250576</ele>
        <time>2022-08-02T14:55:28.000Z</time>
      </trkpt>
      <trkpt lat="49.3437" lon="-0.75545">
        <ele>36.293484</ele>
        <time>2022-08-02T14:55:29.000Z</time>
      </trkpt>
      <trkpt lat="49.34369" lon="-0.75551">
        <ele>36.341897</ele>
        <time>2022-08-02T14:55:30.000Z</time>
      </trkpt>
      <trkpt lat="49.34369" lon="-0.75558">
        <ele>36.395045</ele>
        <time>2022-08-02T14:55:31.000Z</time>
      </trkpt>
      <trkpt lat="49.34369" lon="-0.75564">
        <ele>36.44514</ele>
        <time>2022-08-02T14:55:32.000Z</time>
      </trkpt>
      <trkpt lat="49.34369" lon="-0.75571">
        <ele>36.498163</ele>
        <time>2022-08-02T14:55:33.000Z</time>
      </trkpt>
      <trkpt lat="49.34369" lon="-0.75578">
        <ele>36.551187</ele>
        <time>2022-08-02T14:55:34.000Z</time>
      </trkpt>
      <trkpt lat="49.34369" lon="-0.75584">
        <ele>36.599706</ele>
        <time>2022-08-02T14:55:35.000Z</time>
      </trkpt>
      <trkpt lat="49.34369" lon="-0.7559">
        <ele>36.651147</ele>
        <time>2022-08-02T14:55:36.000Z</time>
      </trkpt>
      <trkpt lat="49.34369" lon="-0.75597">
        <ele>36.701928</ele>
        <time>2022-08-02T14:55:37.000Z</time>
      </trkpt>
      <trkpt lat="49.34369" lon="-0.75603">
        <ele>36.750341</ele>
        <time>2022-08-02T14:55:38.000Z</time>
      </trkpt>
      <trkpt lat="49.34369" lon="-0.75609">
        <ele>36.797285</ele>
        <time>2022-08-02T14:55:39.000Z</time>
      </trkpt>
      <trkpt lat="49.34368" lon="-0.75615">
        <ele>36.846108</ele>
        <time>2022-08-02T14:55:40.000Z</time>
      </trkpt>
      <trkpt lat="49.34369" lon="-0.75621">
        <ele>36.897279</ele>
        <time>2022-08-02T14:55:41.000Z</time>
      </trkpt>
      <trkpt lat="49.34369" lon="-0.75627">
        <ele>36.944763</ele>
        <time>2022-08-02T14:55:42.000Z</time>
      </trkpt>
      <trkpt lat="49.34369" lon="-0.75633">
        <ele>36.990664</ele>
        <time>2022-08-02T14:55:43.000Z</time>
      </trkpt>
      <trkpt lat="49.34369" lon="-0.75638">
        <ele>37.032686</ele>
        <time>2022-08-02T14:55:44.000Z</time>
      </trkpt>
      <trkpt lat="49.34369" lon="-0.75643">
        <ele>37.068299</ele>
        <time>2022-08-02T14:55:45.000Z</time>
      </trkpt>
      <trkpt lat="49.34369" lon="-0.75646">
        <ele>37.096236</ele>
        <time>2022-08-02T14:55:46.000Z</time>
      </trkpt>
      <trkpt lat="49.34369" lon="-0.75649">
        <ele>37.12047</ele>
        <time>2022-08-02T14:55:47.000Z</time>
      </trkpt>
      <trkpt lat="49.34366" lon="-0.75652">
        <ele>37.160222</ele>
        <time>2022-08-02T14:55:49.000Z</time>
      </trkpt>
      <trkpt lat="49.34364" lon="-0.75653">
        <ele>37.166537</ele>
        <time>2022-08-02T14:55:51.000Z</time>
      </trkpt>
      <trkpt lat="49.34362" lon="-0.75652">
        <ele>37.166537</ele>
        <time>2022-08-02T14:55:53.000Z</time>
      </trkpt>
      <trkpt lat="49.34356" lon="-0.75653">
        <ele>37.166537</ele>
        <time>2022-08-02T14:56:02.000Z</time>
      </trkpt>
      <trkpt lat="49.34354" lon="-0.75655">
        <ele>37.166537</ele>
        <time>2022-08-02T14:56:03.000Z</time>
      </trkpt>
      <trkpt lat="49.34352" lon="-0.75656">
        <ele>37.166537</ele>
        <time>2022-08-02T14:56:04.000Z</time>
      </trkpt>
      <trkpt lat="49.3435" lon="-0.75657">
        <ele>37.166537</ele>
        <time>2022-08-02T14:56:05.000Z</time>
      </trkpt>
      <trkpt lat="49.34346" lon="-0.75658">
        <ele>37.166537</ele>
        <time>2022-08-02T14:56:07.000Z</time>
      </trkpt>
      <trkpt lat="49.34344" lon="-0.75658">
        <ele>37.166537</ele>
        <time>2022-08-02T14:56:08.000Z</time>
      </trkpt>
      <trkpt lat="49.34342" lon="-0.75658">
        <ele>37.166537</ele>
        <time>2022-08-02T14:56:09.000Z</time>
      </trkpt>
      <trkpt lat="49.34338" lon="-0.75658">
        <ele>37.166537</ele>
        <time>2022-08-02T14:56:11.000Z</time>
      </trkpt>
      <trkpt lat="49.34336" lon="-0.75658">
        <ele>37.166537</ele>
        <time>2022-08-02T14:56:12.000Z</time>
      </trkpt>
      <trkpt lat="49.34334" lon="-0.75658">
        <ele>37.166537</ele>
        <time>2022-08-02T14:56:13.000Z</time>
      </trkpt>
      <trkpt lat="49.34332" lon="-0.75658">
        <ele>37.166537</ele>
        <time>2022-08-02T14:56:14.000Z</time>
      </trkpt>
      <trkpt lat="49.3433" lon="-0.75656">
        <ele>37.166537</ele>
        <time>2022-08-02T14:56:16.000Z</time>
      </trkpt>
      <trkpt lat="49.34328" lon="-0.75654">
        <ele>37.166537</ele>
        <time>2022-08-02T14:56:18.000Z</time>
      </trkpt>
      <trkpt lat="49.34334" lon="-0.75667">
        <ele>37.166537</ele>
        <time>2022-08-02T14:56:48.000Z</time>
      </trkpt>
      <trkpt lat="49.3433" lon="-0.75653">
        <ele>37.166537</ele>
        <time>2022-08-02T14:57:13.000Z</time>
      </trkpt>
      <trkpt lat="49.34334" lon="-0.75641">
        <ele>37.166537</ele>
        <time>2022-08-02T14:57:45.000Z</time>
      </trkpt>
      <trkpt lat="49.34333" lon="-0.75645">
        <ele>37.166537</ele>
        <time>2022-08-02T14:57:54.000Z</time>
      </trkpt>
      <trkpt lat="49.34335" lon="-0.75646">
        <ele>37.166537</ele>
        <time>2022-08-02T14:57:57.000Z</time>
      </trkpt>
      <trkpt lat="49.34332" lon="-0.75646">
        <ele>37.166537</ele>
        <time>2022-08-02T14:58:02.000Z</time>
      </trkpt>
      <trkpt lat="49.34331" lon="-0.75654">
        <ele>37.166537</ele>
        <time>2022-08-02T14:58:12.000Z</time>
      </trkpt>
      <trkpt lat="49.34331" lon="-0.75657">
        <ele>37.166537</ele>
        <time>2022-08-02T14:58:13.000Z</time>
      </trkpt>
      <trkpt lat="49.3433" lon="-0.7566">
        <ele>37.166537</ele>
        <time>2022-08-02T14:58:14.000Z</time>
      </trkpt>
      <trkpt lat="49.3433" lon="-0.75665">
        <ele>37.166537</ele>
        <time>2022-08-02T14:58:16.000Z</time>
      </trkpt>
      <trkpt lat="49.3433" lon="-0.7567">
        <ele>37.166537</ele>
        <time>2022-08-02T14:58:18.000Z</time>
      </trkpt>
      <trkpt lat="49.34329" lon="-0.75661">
        <ele>37.166537</ele>
        <time>2022-08-02T14:59:17.000Z</time>
      </trkpt>
      <trkpt lat="49.34328" lon="-0.75658">
        <ele>37.166537</ele>
        <time>2022-08-02T14:59:19.000Z</time>
      </trkpt>
      <trkpt lat="49.34327" lon="-0.75655">
        <ele>37.166537</ele>
        <time>2022-08-02T14:59:26.000Z</time>
      </trkpt>
      <trkpt lat="49.3433" lon="-0.75654">
        <ele>37.166537</ele>
        <time>2022-08-02T15:00:03.000Z</time>
      </trkpt>
      <trkpt lat="49.34329" lon="-0.75651">
        <ele>37.166537</ele>
        <time>2022-08-02T15:00:05.000Z</time>
      </trkpt>
      <trkpt lat="49.34328" lon="-0.75648">
        <ele>37.166537</ele>
        <time>2022-08-02T15:00:07.000Z</time>
      </trkpt>
      <trkpt lat="49.34328" lon="-0.75645">
        <ele>37.166537</ele>
        <time>2022-08-02T15:00:09.000Z</time>
      </trkpt>
      <trkpt lat="49.34331" lon="-0.75645">
        <ele>37.166537</ele>
        <time>2022-08-02T15:00:16.000Z</time>
      </trkpt>
      <trkpt lat="49.34333" lon="-0.75647">
        <ele>37.166537</ele>
        <time>2022-08-02T15:00:19.000Z</time>
      </trkpt>
      <trkpt lat="49.34335" lon="-0.75648">
        <ele>37.166537</ele>
        <time>2022-08-02T15:00:21.000Z</time>
      </trkpt>
      <trkpt lat="49.34333" lon="-0.75649">
        <ele>37.166537</ele>
        <time>2022-08-02T15:00:24.000Z</time>
      </trkpt>
      <trkpt lat="49.34331" lon="-0.75656">
        <ele>37.166537</ele>
        <time>2022-08-02T15:02:04.000Z</time>
      </trkpt>
      <trkpt lat="49.34331" lon="-0.7566">
        <ele>37.166537</ele>
        <time>2022-08-02T15:02:06.000Z</time>
      </trkpt>
      <trkpt lat="49.34332" lon="-0.75664">
        <ele>37.166537</ele>
        <time>2022-08-02T15:02:08.000Z</time>
      </trkpt>
      <trkpt lat="49.34331" lon="-0.75667">
        <ele>37.166537</ele>
        <time>2022-08-02T15:02:10.000Z</time>
      </trkpt>
      <trkpt lat="49.3433" lon="-0.75665">
        <ele>37.166537</ele>
        <time>2022-08-02T15:03:26.000Z</time>
      </trkpt>
      <trkpt lat="49.3433" lon="-0.75662">
        <ele>37.166537</ele>
        <time>2022-08-02T15:03:27.000Z</time>
      </trkpt>
      <trkpt lat="49.34329" lon="-0.75658">
        <ele>37.166537</ele>
        <time>2022-08-02T15:03:29.000Z</time>
      </trkpt>
      <trkpt lat="49.34329" lon="-0.75655">
        <ele>37.166537</ele>
        <time>2022-08-02T15:03:31.000Z</time>
      </trkpt>
      <trkpt lat="49.34324" lon="-0.75654">
        <ele>37.166537</ele>
        <time>2022-08-02T15:03:40.000Z</time>
      </trkpt>
      <trkpt lat="49.34321" lon="-0.75655">
        <ele>37.166537</ele>
        <time>2022-08-02T15:03:42.000Z</time>
      </trkpt>
      <trkpt lat="49.34248" lon="-0.75208">
        <ele>20.422722</ele>
        <time>2022-08-03T09:43:39.000Z</time>
      </trkpt>
      <trkpt lat="49.34247" lon="-0.75208">
        <ele>20.422722</ele>
        <time>2022-08-03T09:44:12.000Z</time>
      </trkpt>
      <trkpt lat="49.34244" lon="-0.75206">
        <ele>20.422722</ele>
        <time>2022-08-03T09:44:15.000Z</time>
      </trkpt>
      <trkpt lat="49.34242" lon="-0.75205">
        <ele>20.422722</ele>
        <time>2022-08-03T09:44:17.000Z</time>
      </trkpt>
      <trkpt lat="49.34239" lon="-0.75204">
        <ele>20.422722</ele>
        <time>2022-08-03T09:44:23.000Z</time>
      </trkpt>
      <trkpt lat="49.34237" lon="-0.75202">
        <ele>20.422722</ele>
        <time>2022-08-03T09:44:26.000Z</time>
      </trkpt>
      <trkpt lat="49.34236" lon="-0.75199">
        <ele>20.422722</ele>
        <time>2022-08-03T09:44:30.000Z</time>
      </trkpt>
      <trkpt lat="49.34233" lon="-0.75198">
        <ele>20.422722</ele>
        <time>2022-08-03T09:44:33.000Z</time>
      </trkpt>
      <trkpt lat="49.34235" lon="-0.75195">
        <ele>20.422722</ele>
        <time>2022-08-03T09:44:44.000Z</time>
      </trkpt>
      <trkpt lat="49.34232" lon="-0.75202">
        <ele>20.422722</ele>
        <time>2022-08-03T09:45:25.000Z</time>
      </trkpt>
      <trkpt lat="49.34232" lon="-0.75207">
        <ele>20.422722</ele>
        <time>2022-08-03T09:45:27.000Z</time>
      </trkpt>
      <trkpt lat="49.34233" lon="-0.75211">
        <ele>20.422722</ele>
        <time>2022-08-03T09:45:28.000Z</time>
      </trkpt>
      <trkpt lat="49.34233" lon="-0.75214">
        <ele>20.422722</ele>
        <time>2022-08-03T09:45:29.000Z</time>
      </trkpt>
      <trkpt lat="49.34233" lon="-0.75217">
        <ele>20.422722</ele>
        <time>2022-08-03T09:45:30.000Z</time>
      </trkpt>
      <trkpt lat="49.34233" lon="-0.7522">
        <ele>20.422722</ele>
        <time>2022-08-03T09:45:31.000Z</time>
      </trkpt>
      <trkpt lat="49.34234" lon="-0.75223">
        <ele>20.422722</ele>
        <time>2022-08-03T09:45:32.000Z</time>
      </trkpt>
      <trkpt lat="49.34234" lon="-0.75226">
        <ele>20.422722</ele>
        <time>2022-08-03T09:45:33.000Z</time>
      </trkpt>
      <trkpt lat="49.34235" lon="-0.7523">
        <ele>20.422722</ele>
        <time>2022-08-03T09:45:34.000Z</time>
      </trkpt>
      <trkpt lat="49.34235" lon="-0.75234">
        <ele>20.422722</ele>
        <time>2022-08-03T09:45:35.000Z</time>
      </trkpt>
      <trkpt lat="49.34236" lon="-0.75239">
        <ele>20.422722</ele>
        <time>2022-08-03T09:45:36.000Z</time>
      </trkpt>
      <trkpt lat="49.34236" lon="-0.75244">
        <ele>20.422722</ele>
        <time>2022-08-03T09:45:37.000Z</time>
      </trkpt>
      <trkpt lat="49.34237" lon="-0.75251">
        <ele>20.422722</ele>
        <time>2022-08-03T09:45:38.000Z</time>
      </trkpt>
      <trkpt lat="49.34238" lon="-0.75258">
        <ele>20.422722</ele>
        <time>2022-08-03T09:45:39.000Z</time>
      </trkpt>
      <trkpt lat="49.34239" lon="-0.75264">
        <ele>20.422722</ele>
        <time>2022-08-03T09:45:40.000Z</time>
      </trkpt>
      <trkpt lat="49.34241" lon="-0.75267">
        <ele>20.422722</ele>
        <time>2022-08-03T09:45:41.000Z</time>
      </trkpt>
      <trkpt lat="49.34242" lon="-0.7527">
        <ele>20.422722</ele>
        <time>2022-08-03T09:45:42.000Z</time>
      </trkpt>
      <trkpt lat="49.34244" lon="-0.75272">
        <ele>20.422722</ele>
        <time>2022-08-03T09:45:44.000Z</time>
      </trkpt>
      <trkpt lat="49.34251" lon="-0.75272">
        <ele>20.422722</ele>
        <time>2022-08-03T09:45:51.000Z</time>
      </trkpt>
      <trkpt lat="49.34254" lon="-0.75272">
        <ele>20.422722</ele>
        <time>2022-08-03T09:45:52.000Z</time>
      </trkpt>
      <trkpt lat="49.34257" lon="-0.75273">
        <ele>20.422722</ele>
        <time>2022-08-03T09:45:53.000Z</time>
      </trkpt>
      <trkpt lat="49.34261" lon="-0.75272">
        <ele>20.422722</ele>
        <time>2022-08-03T09:45:54.000Z</time>
      </trkpt>
      <trkpt lat="49.34264" lon="-0.75272">
        <ele>20.485608</ele>
        <time>2022-08-03T09:45:55.000Z</time>
      </trkpt>
      <trkpt lat="49.34268" lon="-0.75272">
        <ele>20.549151</ele>
        <time>2022-08-03T09:45:56.000Z</time>
      </trkpt>
      <trkpt lat="49.3427" lon="-0.75271">
        <ele>20.597042</ele>
        <time>2022-08-03T09:45:57.000Z</time>
      </trkpt>
      <trkpt lat="49.34274" lon="-0.75271">
        <ele>20.660936</ele>
        <time>2022-08-03T09:45:58.000Z</time>
      </trkpt>
      <trkpt lat="49.34278" lon="-0.7527">
        <ele>20.732488</ele>
        <time>2022-08-03T09:45:59.000Z</time>
      </trkpt>
      <trkpt lat="49.34282" lon="-0.75269">
        <ele>20.813186</ele>
        <time>2022-08-03T09:46:00.000Z</time>
      </trkpt>
      <trkpt lat="49.34287" lon="-0.75268">
        <ele>20.90047</ele>
        <time>2022-08-03T09:46:01.000Z</time>
      </trkpt>
      <trkpt lat="49.34292" lon="-0.75268">
        <ele>20.987755</ele>
        <time>2022-08-03T09:46:02.000Z</time>
      </trkpt>
      <trkpt lat="49.34297" lon="-0.75267">
        <ele>21.088716</ele>
        <time>2022-08-03T09:46:03.000Z</time>
      </trkpt>
      <trkpt lat="49.34303" lon="-0.75265">
        <ele>21.194797</ele>
        <time>2022-08-03T09:46:04.000Z</time>
      </trkpt>
      <trkpt lat="49.34309" lon="-0.75263">
        <ele>21.307276</ele>
        <time>2022-08-03T09:46:05.000Z</time>
      </trkpt>
      <trkpt lat="49.34315" lon="-0.75262">
        <ele>21.41362</ele>
        <time>2022-08-03T09:46:06.000Z</time>
      </trkpt>
      <trkpt lat="49.3432" lon="-0.7526">
        <ele>21.51363</ele>
        <time>2022-08-03T09:46:07.000Z</time>
      </trkpt>
      <trkpt lat="49.34326" lon="-0.75258">
        <ele>21.62148</ele>
        <time>2022-08-03T09:46:08.000Z</time>
      </trkpt>
      <trkpt lat="49.34332" lon="-0.75256">
        <ele>21.723152</ele>
        <time>2022-08-03T09:46:09.000Z</time>
      </trkpt>
      <trkpt lat="49.34336" lon="-0.75255">
        <ele>21.810437</ele>
        <time>2022-08-03T09:46:10.000Z</time>
      </trkpt>
      <trkpt lat="49.3434" lon="-0.75257">
        <ele>21.885038</ele>
        <time>2022-08-03T09:46:11.000Z</time>
      </trkpt>
      <trkpt lat="49.34344" lon="-0.7526">
        <ele>21.957768</ele>
        <time>2022-08-03T09:46:12.000Z</time>
      </trkpt>
      <trkpt lat="49.34346" lon="-0.75266">
        <ele>22.041953</ele>
        <time>2022-08-03T09:46:13.000Z</time>
      </trkpt>
      <trkpt lat="49.34348" lon="-0.75274">
        <ele>22.138614</ele>
        <time>2022-08-03T09:46:14.000Z</time>
      </trkpt>
      <trkpt lat="49.34349" lon="-0.75282">
        <ele>22.234901</ele>
        <time>2022-08-03T09:46:15.000Z</time>
      </trkpt>
      <trkpt lat="49.3435" lon="-0.7529">
        <ele>22.333511</ele>
        <time>2022-08-03T09:46:16.000Z</time>
      </trkpt>
      <trkpt lat="49.34351" lon="-0.75298">
        <ele>22.430548</ele>
        <time>2022-08-03T09:46:17.000Z</time>
      </trkpt>
      <trkpt lat="49.34352" lon="-0.75306">
        <ele>22.524514</ele>
        <time>2022-08-03T09:46:18.000Z</time>
      </trkpt>
      <trkpt lat="49.34354" lon="-0.75314">
        <ele>22.620048</ele>
        <time>2022-08-03T09:46:19.000Z</time>
      </trkpt>
      <trkpt lat="49.34355" lon="-0.75321">
        <ele>22.708362</ele>
        <time>2022-08-03T09:46:20.000Z</time>
      </trkpt>
      <trkpt lat="49.34356" lon="-0.75328">
        <ele>22.7927</ele>
        <time>2022-08-03T09:46:21.000Z</time>
      </trkpt>
      <trkpt lat="49.34357" lon="-0.75335">
        <ele>22.8751</ele>
        <time>2022-08-03T09:46:22.000Z</time>
      </trkpt>
      <trkpt lat="49.34358" lon="-0.75342">
        <ele>22.959808</ele>
        <time>2022-08-03T09:46:23.000Z</time>
      </trkpt>
      <trkpt lat="49.34359" lon="-0.75348">
        <ele>23.043082</ele>
        <time>2022-08-03T09:46:24.000Z</time>
      </trkpt>
      <trkpt lat="49.3436" lon="-0.75355">
        <ele>23.125625</ele>
        <time>2022-08-03T09:46:25.000Z</time>
      </trkpt>
      <trkpt lat="49.34361" lon="-0.75362">
        <ele>23.205996</ele>
        <time>2022-08-03T09:46:26.000Z</time>
      </trkpt>
      <trkpt lat="49.34362" lon="-0.75368">
        <ele>23.282233</ele>
        <time>2022-08-03T09:46:27.000Z</time>
      </trkpt>
      <trkpt lat="49.34363" lon="-0.75375">
        <ele>23.362603</ele>
        <time>2022-08-03T09:46:28.000Z</time>
      </trkpt>
      <trkpt lat="49.34364" lon="-0.75381">
        <ele>23.441548</ele>
        <time>2022-08-03T09:46:29.000Z</time>
      </trkpt>
      <trkpt lat="49.34365" lon="-0.75387">
        <ele>23.519133</ele>
        <time>2022-08-03T09:46:30.000Z</time>
      </trkpt>
      <trkpt lat="49.34367" lon="-0.75394">
        <ele>23.596121</ele>
        <time>2022-08-03T09:46:31.000Z</time>
      </trkpt>
      <trkpt lat="49.34368" lon="-0.754">
        <ele>23.672767</ele>
        <time>2022-08-03T09:46:32.000Z</time>
      </trkpt>
      <trkpt lat="49.34369" lon="-0.75406">
        <ele>23.790287</ele>
        <time>2022-08-03T09:46:33.000Z</time>
      </trkpt>
      <trkpt lat="49.34371" lon="-0.75412">
        <ele>23.911336</ele>
        <time>2022-08-03T09:46:34.000Z</time>
      </trkpt>
      <trkpt lat="49.34371" lon="-0.75418">
        <ele>24.031236</ele>
        <time>2022-08-03T09:46:35.000Z</time>
      </trkpt>
      <trkpt lat="49.34372" lon="-0.75424">
        <ele>24.148191</ele>
        <time>2022-08-03T09:46:36.000Z</time>
      </trkpt>
      <trkpt lat="49.34372" lon="-0.7543">
        <ele>24.269023</ele>
        <time>2022-08-03T09:46:37.000Z</time>
      </trkpt>
      <trkpt lat="49.34373" lon="-0.75436">
        <ele>24.38749</ele>
        <time>2022-08-03T09:46:38.000Z</time>
      </trkpt>
      <trkpt lat="49.34373" lon="-0.75442">
        <ele>24.504102</ele>
        <time>2022-08-03T09:46:39.000Z</time>
      </trkpt>
      <trkpt lat="49.34372" lon="-0.75448">
        <ele>24.626398</ele>
        <time>2022-08-03T09:46:40.000Z</time>
      </trkpt>
      <trkpt lat="49.34371" lon="-0.75454">
        <ele>24.746297</ele>
        <time>2022-08-03T09:46:41.000Z</time>
      </trkpt>
      <trkpt lat="49.3437" lon="-0.75461">
        <ele>24.872884</ele>
        <time>2022-08-03T09:46:42.000Z</time>
      </trkpt>
      <trkpt lat="49.34369" lon="-0.75466">
        <ele>24.988762</ele>
        <time>2022-08-03T09:46:43.000Z</time>
      </trkpt>
      <trkpt lat="49.34368" lon="-0.75472">
        <ele>25.107248</ele>
        <time>2022-08-03T09:46:44.000Z</time>
      </trkpt>
      <trkpt lat="49.34367" lon="-0.75478">
        <ele>25.227616</ele>
        <time>2022-08-03T09:46:45.000Z</time>
      </trkpt>
      <trkpt lat="49.34367" lon="-0.75484">
        <ele>25.331011</ele>
        <time>2022-08-03T09:46:46.000Z</time>
      </trkpt>
      <trkpt lat="49.34366" lon="-0.75489">
        <ele>25.433648</ele>
        <time>2022-08-03T09:46:47.000Z</time>
      </trkpt>
      <trkpt lat="49.34366" lon="-0.75493">
        <ele>25.521108</ele>
        <time>2022-08-03T09:46:48.000Z</time>
      </trkpt>
      <trkpt lat="49.34366" lon="-0.75497">
        <ele>25.599363</ele>
        <time>2022-08-03T09:46:49.000Z</time>
      </trkpt>
      <trkpt lat="49.34366" lon="-0.75501">
        <ele>25.667387</ele>
        <time>2022-08-03T09:46:50.000Z</time>
      </trkpt>
      <trkpt lat="49.34366" lon="-0.75504">
        <ele>25.735997</ele>
        <time>2022-08-03T09:46:51.000Z</time>
      </trkpt>
      <trkpt lat="49.34366" lon="-0.75508">
        <ele>25.804021</ele>
        <time>2022-08-03T09:46:52.000Z</time>
      </trkpt>
      <trkpt lat="49.34367" lon="-0.75511">
        <ele>25.866874</ele>
        <time>2022-08-03T09:46:53.000Z</time>
      </trkpt>
      <trkpt lat="49.34367" lon="-0.75516">
        <ele>25.958658</ele>
        <time>2022-08-03T09:46:55.000Z</time>
      </trkpt>
      <trkpt lat="49.34367" lon="-0.75526">
        <ele>26.157258</ele>
        <time>2022-08-03T09:47:26.000Z</time>
      </trkpt>
      <trkpt lat="49.34368" lon="-0.75531">
        <ele>26.257982</ele>
        <time>2022-08-03T09:47:27.000Z</time>
      </trkpt>
      <trkpt lat="49.34369" lon="-0.75537">
        <ele>26.383649</ele>
        <time>2022-08-03T09:47:28.000Z</time>
      </trkpt>
      <trkpt lat="49.34369" lon="-0.75544">
        <ele>26.512477</ele>
        <time>2022-08-03T09:47:29.000Z</time>
      </trkpt>
      <trkpt lat="49.34369" lon="-0.75551">
        <ele>26.656577</ele>
        <time>2022-08-03T09:47:30.000Z</time>
      </trkpt>
      <trkpt lat="49.34369" lon="-0.75559">
        <ele>26.804287</ele>
        <time>2022-08-03T09:47:31.000Z</time>
      </trkpt>
      <trkpt lat="49.34369" lon="-0.75566">
        <ele>26.950052</ele>
        <time>2022-08-03T09:47:32.000Z</time>
      </trkpt>
      <trkpt lat="49.3437" lon="-0.75574">
        <ele>27.099973</ele>
        <time>2022-08-03T09:47:33.000Z</time>
      </trkpt>
      <trkpt lat="49.3437" lon="-0.75581">
        <ele>27.236021</ele>
        <time>2022-08-03T09:47:34.000Z</time>
      </trkpt>
      <trkpt lat="49.3437" lon="-0.75588">
        <ele>27.376242</ele>
        <time>2022-08-03T09:47:35.000Z</time>
      </trkpt>
      <trkpt lat="49.34371" lon="-0.75595">
        <ele>27.515522</ele>
        <time>2022-08-03T09:47:36.000Z</time>
      </trkpt>
      <trkpt lat="49.34371" lon="-0.75602">
        <ele>27.647985</ele>
        <time>2022-08-03T09:47:37.000Z</time>
      </trkpt>
      <trkpt lat="49.34372" lon="-0.75609">
        <ele>27.77851</ele>
        <time>2022-08-03T09:47:38.000Z</time>
      </trkpt>
      <trkpt lat="49.34372" lon="-0.75616">
        <ele>27.914852</ele>
        <time>2022-08-03T09:47:39.000Z</time>
      </trkpt>
      <trkpt lat="49.34373" lon="-0.75623">
        <ele>28.054414</ele>
        <time>2022-08-03T09:47:40.000Z</time>
      </trkpt>
      <trkpt lat="49.34373" lon="-0.7563">
        <ele>28.194349</ele>
        <time>2022-08-03T09:47:41.000Z</time>
      </trkpt>
      <trkpt lat="49.34373" lon="-0.75637">
        <ele>28.324566</ele>
        <time>2022-08-03T09:47:42.000Z</time>
      </trkpt>
      <trkpt lat="49.34373" lon="-0.75643">
        <ele>28.450896</ele>
        <time>2022-08-03T09:47:43.000Z</time>
      </trkpt>
      <trkpt lat="49.34373" lon="-0.7565">
        <ele>28.585757</ele>
        <time>2022-08-03T09:47:44.000Z</time>
      </trkpt>
      <trkpt lat="49.34373" lon="-0.75657">
        <ele>28.717918</ele>
        <time>2022-08-03T09:47:45.000Z</time>
      </trkpt>
      <trkpt lat="49.34374" lon="-0.75664">
        <ele>28.84868</ele>
        <time>2022-08-03T09:47:46.000Z</time>
      </trkpt>
      <trkpt lat="49.34374" lon="-0.75671">
        <ele>28.984728</ele>
        <time>2022-08-03T09:47:47.000Z</time>
      </trkpt>
      <trkpt lat="49.34375" lon="-0.75677">
        <ele>29.093997</ele>
        <time>2022-08-03T09:47:48.000Z</time>
      </trkpt>
      <trkpt lat="49.34376" lon="-0.75684">
        <ele>29.178889</ele>
        <time>2022-08-03T09:47:49.000Z</time>
      </trkpt>
      <trkpt lat="49.34378" lon="-0.7569">
        <ele>29.266811</ele>
        <time>2022-08-03T09:47:50.000Z</time>
      </trkpt>
      <trkpt lat="49.34379" lon="-0.75699">
        <ele>29.373682</ele>
        <time>2022-08-03T09:47:51.000Z</time>
      </trkpt>
      <trkpt lat="49.34381" lon="-0.75704">
        <ele>29.449082</ele>
        <time>2022-08-03T09:47:52.000Z</time>
      </trkpt>
      <trkpt lat="49.34382" lon="-0.75711">
        <ele>29.543759</ele>
        <time>2022-08-03T09:47:53.000Z</time>
      </trkpt>
      <trkpt lat="49.34383" lon="-0.75718">
        <ele>29.634451</ele>
        <time>2022-08-03T09:47:54.000Z</time>
      </trkpt>
      <trkpt lat="49.34385" lon="-0.75725">
        <ele>29.727977</ele>
        <time>2022-08-03T09:47:55.000Z</time>
      </trkpt>
      <trkpt lat="49.34387" lon="-0.75732">
        <ele>29.820596</ele>
        <time>2022-08-03T09:47:56.000Z</time>
      </trkpt>
      <trkpt lat="49.34389" lon="-0.75739">
        <ele>29.915273</ele>
        <time>2022-08-03T09:47:57.000Z</time>
      </trkpt>
      <trkpt lat="49.3439" lon="-0.75747">
        <ele>30.011433</ele>
        <time>2022-08-03T09:47:58.000Z</time>
      </trkpt>
      <trkpt lat="49.34392" lon="-0.75754">
        <ele>30.106111</ele>
        <time>2022-08-03T09:47:59.000Z</time>
      </trkpt>
      <trkpt lat="49.34395" lon="-0.75761">
        <ele>30.203992</ele>
        <time>2022-08-03T09:48:00.000Z</time>
      </trkpt>
      <trkpt lat="49.34397" lon="-0.75768">
        <ele>30.304411</ele>
        <time>2022-08-03T09:48:01.000Z</time>
      </trkpt>
      <trkpt lat="49.34398" lon="-0.75775">
        <ele>30.399389</ele>
        <time>2022-08-03T09:48:02.000Z</time>
      </trkpt>
      <trkpt lat="49.344" lon="-0.75782">
        <ele>30.490267</ele>
        <time>2022-08-03T09:48:03.000Z</time>
      </trkpt>
      <trkpt lat="49.34401" lon="-0.7579">
        <ele>30.588797</ele>
        <time>2022-08-03T09:48:04.000Z</time>
      </trkpt>
      <trkpt lat="49.34403" lon="-0.75797">
        <ele>30.684958</ele>
        <time>2022-08-03T09:48:05.000Z</time>
      </trkpt>
      <trkpt lat="49.34405" lon="-0.75804">
        <ele>30.784263</ele>
        <time>2022-08-03T09:48:06.000Z</time>
      </trkpt>
      <trkpt lat="49.34406" lon="-0.75812">
        <ele>30.879842</ele>
        <time>2022-08-03T09:48:07.000Z</time>
      </trkpt>
      <trkpt lat="49.34407" lon="-0.75819">
        <ele>30.976284</ele>
        <time>2022-08-03T09:48:08.000Z</time>
      </trkpt>
      <trkpt lat="49.34407" lon="-0.75827">
        <ele>31.070878</ele>
        <time>2022-08-03T09:48:09.000Z</time>
      </trkpt>
      <trkpt lat="49.34408" lon="-0.75835">
        <ele>31.168548</ele>
        <time>2022-08-03T09:48:10.000Z</time>
      </trkpt>
      <trkpt lat="49.34409" lon="-0.75842">
        <ele>31.264855</ele>
        <time>2022-08-03T09:48:11.000Z</time>
      </trkpt>
      <trkpt lat="49.34409" lon="-0.7585">
        <ele>31.362239</ele>
        <time>2022-08-03T09:48:12.000Z</time>
      </trkpt>
      <trkpt lat="49.34409" lon="-0.75858">
        <ele>31.458374</ele>
        <time>2022-08-03T09:48:13.000Z</time>
      </trkpt>
      <trkpt lat="49.34409" lon="-0.75865">
        <ele>31.553261</ele>
        <time>2022-08-03T09:48:14.000Z</time>
      </trkpt>
      <trkpt lat="49.34409" lon="-0.75874">
        <ele>31.665627</ele>
        <time>2022-08-03T09:48:15.000Z</time>
      </trkpt>
      <trkpt lat="49.34409" lon="-0.75881">
        <ele>31.743413</ele>
        <time>2022-08-03T09:48:16.000Z</time>
      </trkpt>
      <trkpt lat="49.34409" lon="-0.75888">
        <ele>31.834876</ele>
        <time>2022-08-03T09:48:17.000Z</time>
      </trkpt>
      <trkpt lat="49.34408" lon="-0.75896">
        <ele>31.931183</ele>
        <time>2022-08-03T09:48:18.000Z</time>
      </trkpt>
      <trkpt lat="49.34407" lon="-0.75903">
        <ele>32.030493</ele>
        <time>2022-08-03T09:48:19.000Z</time>
      </trkpt>
      <trkpt lat="49.34407" lon="-0.75911">
        <ele>32.124308</ele>
        <time>2022-08-03T09:48:20.000Z</time>
      </trkpt>
      <trkpt lat="49.34405" lon="-0.75918">
        <ele>32.218793</ele>
        <time>2022-08-03T09:48:21.000Z</time>
      </trkpt>
      <trkpt lat="49.34405" lon="-0.75926">
        <ele>32.313134</ele>
        <time>2022-08-03T09:48:22.000Z</time>
      </trkpt>
      <trkpt lat="49.34404" lon="-0.75933">
        <ele>32.408713</ele>
        <time>2022-08-03T09:48:23.000Z</time>
      </trkpt>
      <trkpt lat="49.34403" lon="-0.75941">
        <ele>32.5043</ele>
        <time>2022-08-03T09:48:24.000Z</time>
      </trkpt>
      <trkpt lat="49.34401" lon="-0.75948">
        <ele>32.577688</ele>
        <time>2022-08-03T09:48:25.000Z</time>
      </trkpt>
      <trkpt lat="49.344" lon="-0.75956">
        <ele>32.648877</ele>
        <time>2022-08-03T09:48:26.000Z</time>
      </trkpt>
      <trkpt lat="49.34399" lon="-0.75963">
        <ele>32.723149</ele>
        <time>2022-08-03T09:48:27.000Z</time>
      </trkpt>
      <trkpt lat="49.34397" lon="-0.75971">
        <ele>32.797117</ele>
        <time>2022-08-03T09:48:28.000Z</time>
      </trkpt>
      <trkpt lat="49.34397" lon="-0.75979">
        <ele>32.869864</ele>
        <time>2022-08-03T09:48:29.000Z</time>
      </trkpt>
      <trkpt lat="49.34395" lon="-0.75987">
        <ele>32.944734</ele>
        <time>2022-08-03T09:48:30.000Z</time>
      </trkpt>
      <trkpt lat="49.34394" lon="-0.75994">
        <ele>33.019603</ele>
        <time>2022-08-03T09:48:31.000Z</time>
      </trkpt>
      <trkpt lat="49.34393" lon="-0.76002">
        <ele>33.094181</ele>
        <time>2022-08-03T09:48:32.000Z</time>
      </trkpt>
      <trkpt lat="49.34392" lon="-0.7601">
        <ele>33.170853</ele>
        <time>2022-08-03T09:48:33.000Z</time>
      </trkpt>
      <trkpt lat="49.34391" lon="-0.76018">
        <ele>33.247517</ele>
        <time>2022-08-03T09:48:34.000Z</time>
      </trkpt>
      <trkpt lat="49.34389" lon="-0.76027">
        <ele>33.325996</ele>
        <time>2022-08-03T09:48:35.000Z</time>
      </trkpt>
      <trkpt lat="49.34388" lon="-0.76035">
        <ele>33.406487</ele>
        <time>2022-08-03T09:48:36.000Z</time>
      </trkpt>
      <trkpt lat="49.34387" lon="-0.76044">
        <ele>33.488403</ele>
        <time>2022-08-03T09:48:37.000Z</time>
      </trkpt>
      <trkpt lat="49.34386" lon="-0.76052">
        <ele>33.572313</ele>
        <time>2022-08-03T09:48:38.000Z</time>
      </trkpt>
      <trkpt lat="49.34384" lon="-0.76061">
        <ele>33.658169</ele>
        <time>2022-08-03T09:48:39.000Z</time>
      </trkpt>
      <trkpt lat="49.34383" lon="-0.7607">
        <ele>33.74307</ele>
        <time>2022-08-03T09:48:40.000Z</time>
      </trkpt>
      <trkpt lat="49.34381" lon="-0.76079">
        <ele>33.82803</ele>
        <time>2022-08-03T09:48:41.000Z</time>
      </trkpt>
      <trkpt lat="49.34381" lon="-0.76088">
        <ele>33.910865</ele>
        <time>2022-08-03T09:48:42.000Z</time>
      </trkpt>
      <trkpt lat="49.3438" lon="-0.76097">
        <ele>33.99485</ele>
        <time>2022-08-03T09:48:43.000Z</time>
      </trkpt>
      <trkpt lat="49.34379" lon="-0.76106">
        <ele>34.077685</ele>
        <time>2022-08-03T09:48:44.000Z</time>
      </trkpt>
      <trkpt lat="49.34377" lon="-0.76115">
        <ele>34.16341</ele>
        <time>2022-08-03T09:48:45.000Z</time>
      </trkpt>
      <trkpt lat="49.34377" lon="-0.76123">
        <ele>34.24585</ele>
        <time>2022-08-03T09:48:46.000Z</time>
      </trkpt>
      <trkpt lat="49.34375" lon="-0.76132">
        <ele>34.328547</ele>
        <time>2022-08-03T09:48:47.000Z</time>
      </trkpt>
      <trkpt lat="49.34375" lon="-0.76141">
        <ele>34.410064</ele>
        <time>2022-08-03T09:48:48.000Z</time>
      </trkpt>
      <trkpt lat="49.34374" lon="-0.76149">
        <ele>34.490145</ele>
        <time>2022-08-03T09:48:49.000Z</time>
      </trkpt>
      <trkpt lat="49.34373" lon="-0.76158">
        <ele>34.569817</ele>
        <time>2022-08-03T09:48:50.000Z</time>
      </trkpt>
      <trkpt lat="49.34372" lon="-0.76166">
        <ele>34.651009</ele>
        <time>2022-08-03T09:48:51.000Z</time>
      </trkpt>
      <trkpt lat="49.34371" lon="-0.76175">
        <ele>34.728666</ele>
        <time>2022-08-03T09:48:52.000Z</time>
      </trkpt>
      <trkpt lat="49.3437" lon="-0.76183">
        <ele>34.807145</ele>
        <time>2022-08-03T09:48:53.000Z</time>
      </trkpt>
      <trkpt lat="49.34369" lon="-0.76191">
        <ele>34.883556</ele>
        <time>2022-08-03T09:48:54.000Z</time>
      </trkpt>
      <trkpt lat="49.34368" lon="-0.76199">
        <ele>34.963843</ele>
        <time>2022-08-03T09:48:55.000Z</time>
      </trkpt>
      <trkpt lat="49.34367" lon="-0.76207">
        <ele>35.040507</ele>
        <time>2022-08-03T09:48:56.000Z</time>
      </trkpt>
      <trkpt lat="49.34365" lon="-0.76216">
        <ele>35.158836</ele>
        <time>2022-08-03T09:48:57.000Z</time>
      </trkpt>
      <trkpt lat="49.34365" lon="-0.76224">
        <ele>35.289456</ele>
        <time>2022-08-03T09:48:58.000Z</time>
      </trkpt>
      <trkpt lat="49.34364" lon="-0.76232">
        <ele>35.424774</ele>
        <time>2022-08-03T09:48:59.000Z</time>
      </trkpt>
      <trkpt lat="49.34363" lon="-0.7624">
        <ele>35.555395</ele>
        <time>2022-08-03T09:49:00.000Z</time>
      </trkpt>
      <trkpt lat="49.34362" lon="-0.76248">
        <ele>35.690708</ele>
        <time>2022-08-03T09:49:01.000Z</time>
      </trkpt>
      <trkpt lat="49.34362" lon="-0.76256">
        <ele>35.823716</ele>
        <time>2022-08-03T09:49:02.000Z</time>
      </trkpt>
      <trkpt lat="49.34362" lon="-0.76265">
        <ele>35.964834</ele>
        <time>2022-08-03T09:49:03.000Z</time>
      </trkpt>
      <trkpt lat="49.34362" lon="-0.76273">
        <ele>36.094813</ele>
        <time>2022-08-03T09:49:04.000Z</time>
      </trkpt>
      <trkpt lat="49.34361" lon="-0.76281">
        <ele>36.227045</ele>
        <time>2022-08-03T09:49:05.000Z</time>
      </trkpt>
      <trkpt lat="49.34361" lon="-0.76289">
        <ele>36.35719</ele>
        <time>2022-08-03T09:49:06.000Z</time>
      </trkpt>
      <trkpt lat="49.34359" lon="-0.76297">
        <ele>36.496679</ele>
        <time>2022-08-03T09:49:07.000Z</time>
      </trkpt>
      <trkpt lat="49.34359" lon="-0.76305">
        <ele>36.629216</ele>
        <time>2022-08-03T09:49:08.000Z</time>
      </trkpt>
      <trkpt lat="49.34358" lon="-0.76314">
        <ele>36.764098</ele>
        <time>2022-08-03T09:49:09.000Z</time>
      </trkpt>
      <trkpt lat="49.34357" lon="-0.76322">
        <ele>36.896229</ele>
        <time>2022-08-03T09:49:10.000Z</time>
      </trkpt>
      <trkpt lat="49.34356" lon="-0.76329">
        <ele>37.026823</ele>
        <time>2022-08-03T09:49:11.000Z</time>
      </trkpt>
      <trkpt lat="49.34355" lon="-0.76337">
        <ele>37.158507</ele>
        <time>2022-08-03T09:49:12.000Z</time>
      </trkpt>
      <trkpt lat="49.34354" lon="-0.76345">
        <ele>37.289436</ele>
        <time>2022-08-03T09:49:13.000Z</time>
      </trkpt>
      <trkpt lat="49.34353" lon="-0.76353">
        <ele>37.418445</ele>
        <time>2022-08-03T09:49:14.000Z</time>
      </trkpt>
      <trkpt lat="49.34353" lon="-0.76361">
        <ele>37.542947</ele>
        <time>2022-08-03T09:49:15.000Z</time>
      </trkpt>
      <trkpt lat="49.34352" lon="-0.76369">
        <ele>37.668735</ele>
        <time>2022-08-03T09:49:16.000Z</time>
      </trkpt>
      <trkpt lat="49.34352" lon="-0.76376">
        <ele>37.793856</ele>
        <time>2022-08-03T09:49:17.000Z</time>
      </trkpt>
      <trkpt lat="49.34352" lon="-0.76384">
        <ele>37.91551</ele>
        <time>2022-08-03T09:49:18.000Z</time>
      </trkpt>
      <trkpt lat="49.34351" lon="-0.76393">
        <ele>38.064142</ele>
        <time>2022-08-03T09:49:19.000Z</time>
      </trkpt>
      <trkpt lat="49.3435" lon="-0.76399">
        <ele>38.167175</ele>
        <time>2022-08-03T09:49:20.000Z</time>
      </trkpt>
      <trkpt lat="49.3435" lon="-0.76408">
        <ele>38.31335</ele>
        <time>2022-08-03T09:49:21.000Z</time>
      </trkpt>
      <trkpt lat="49.34349" lon="-0.76414">
        <ele>38.412221</ele>
        <time>2022-08-03T09:49:22.000Z</time>
      </trkpt>
      <trkpt lat="49.34349" lon="-0.76422">
        <ele>38.537342</ele>
        <time>2022-08-03T09:49:23.000Z</time>
      </trkpt>
      <trkpt lat="49.34348" lon="-0.7643">
        <ele>38.666289</ele>
        <time>2022-08-03T09:49:24.000Z</time>
      </trkpt>
      <trkpt lat="49.34347" lon="-0.76439">
        <ele>38.824335</ele>
        <time>2022-08-03T09:49:25.000Z</time>
      </trkpt>
      <trkpt lat="49.34347" lon="-0.76446">
        <ele>38.926797</ele>
        <time>2022-08-03T09:49:26.000Z</time>
      </trkpt>
      <trkpt lat="49.34346" lon="-0.76453">
        <ele>39.055743</ele>
        <time>2022-08-03T09:49:27.000Z</time>
      </trkpt>
      <trkpt lat="49.34346" lon="-0.76461">
        <ele>39.180865</ele>
        <time>2022-08-03T09:49:28.000Z</time>
      </trkpt>
      <trkpt lat="49.34345" lon="-0.76469">
        <ele>39.307605</ele>
        <time>2022-08-03T09:49:29.000Z</time>
      </trkpt>
      <trkpt lat="49.34345" lon="-0.76478">
        <ele>39.453781</ele>
        <time>2022-08-03T09:49:30.000Z</time>
      </trkpt>
      <trkpt lat="49.34345" lon="-0.76484">
        <ele>39.553023</ele>
        <time>2022-08-03T09:49:31.000Z</time>
      </trkpt>
      <trkpt lat="49.34344" lon="-0.76491">
        <ele>39.715368</ele>
        <time>2022-08-03T09:49:32.000Z</time>
      </trkpt>
      <trkpt lat="49.34344" lon="-0.76497">
        <ele>39.864813</ele>
        <time>2022-08-03T09:49:33.000Z</time>
      </trkpt>
      <trkpt lat="49.34343" lon="-0.76502">
        <ele>39.995389</ele>
        <time>2022-08-03T09:49:34.000Z</time>
      </trkpt>
      <trkpt lat="49.34343" lon="-0.76508">
        <ele>40.119267</ele>
        <time>2022-08-03T09:49:35.000Z</time>
      </trkpt>
      <trkpt lat="49.34342" lon="-0.76513">
        <ele>40.248845</ele>
        <time>2022-08-03T09:49:36.000Z</time>
      </trkpt>
      <trkpt lat="49.34342" lon="-0.76519">
        <ele>40.384136</ele>
        <time>2022-08-03T09:49:37.000Z</time>
      </trkpt>
      <trkpt lat="49.34341" lon="-0.76524">
        <ele>40.521364</ele>
        <time>2022-08-03T09:49:38.000Z</time>
      </trkpt>
      <trkpt lat="49.34341" lon="-0.7653">
        <ele>40.654297</ele>
        <time>2022-08-03T09:49:39.000Z</time>
      </trkpt>
      <trkpt lat="49.3434" lon="-0.76536">
        <ele>40.801648</ele>
        <time>2022-08-03T09:49:40.000Z</time>
      </trkpt>
      <trkpt lat="49.34339" lon="-0.76543">
        <ele>40.963993</ele>
        <time>2022-08-03T09:49:41.000Z</time>
      </trkpt>
      <trkpt lat="49.34338" lon="-0.76547">
        <ele>41.076478</ele>
        <time>2022-08-03T09:49:42.000Z</time>
      </trkpt>
      <trkpt lat="49.34338" lon="-0.76553">
        <ele>41.223564</ele>
        <time>2022-08-03T09:49:43.000Z</time>
      </trkpt>
      <trkpt lat="49.34337" lon="-0.76559">
        <ele>41.350832</ele>
        <time>2022-08-03T09:49:44.000Z</time>
      </trkpt>
      <trkpt lat="49.34336" lon="-0.76563">
        <ele>41.452193</ele>
        <time>2022-08-03T09:49:45.000Z</time>
      </trkpt>
      <trkpt lat="49.34335" lon="-0.76567">
        <ele>41.565502</ele>
        <time>2022-08-03T09:49:46.000Z</time>
      </trkpt>
      <trkpt lat="49.34335" lon="-0.76572">
        <ele>41.681872</ele>
        <time>2022-08-03T09:49:47.000Z</time>
      </trkpt>
      <trkpt lat="49.34333" lon="-0.76576">
        <ele>41.794022</ele>
        <time>2022-08-03T09:49:48.000Z</time>
      </trkpt>
      <trkpt lat="49.34333" lon="-0.76581">
        <ele>41.900374</ele>
        <time>2022-08-03T09:49:49.000Z</time>
      </trkpt>
      <trkpt lat="49.34332" lon="-0.76585">
        <ele>41.997483</ele>
        <time>2022-08-03T09:49:50.000Z</time>
      </trkpt>
      <trkpt lat="49.34331" lon="-0.76589">
        <ele>42.109968</ele>
        <time>2022-08-03T09:49:51.000Z</time>
      </trkpt>
      <trkpt lat="49.3433" lon="-0.76594">
        <ele>42.237528</ele>
        <time>2022-08-03T09:49:52.000Z</time>
      </trkpt>
      <trkpt lat="49.34328" lon="-0.76599">
        <ele>42.370404</ele>
        <time>2022-08-03T09:49:53.000Z</time>
      </trkpt>
      <trkpt lat="49.34326" lon="-0.76604">
        <ele>42.495862</ele>
        <time>2022-08-03T09:49:54.000Z</time>
      </trkpt>
      <trkpt lat="49.34325" lon="-0.76608">
        <ele>42.618843</ele>
        <time>2022-08-03T09:49:55.000Z</time>
      </trkpt>
      <trkpt lat="49.34324" lon="-0.76614">
        <ele>42.750613</ele>
        <time>2022-08-03T09:49:56.000Z</time>
      </trkpt>
      <trkpt lat="49.34322" lon="-0.76619">
        <ele>42.884594</ele>
        <time>2022-08-03T09:49:57.000Z</time>
      </trkpt>
      <trkpt lat="49.34322" lon="-0.76624">
        <ele>43.008099</ele>
        <time>2022-08-03T09:49:58.000Z</time>
      </trkpt>
      <trkpt lat="49.34321" lon="-0.76629">
        <ele>43.135368</ele>
        <time>2022-08-03T09:49:59.000Z</time>
      </trkpt>
      <trkpt lat="49.3432" lon="-0.76636">
        <ele>43.300759</ele>
        <time>2022-08-03T09:50:00.000Z</time>
      </trkpt>
      <trkpt lat="49.3432" lon="-0.76641">
        <ele>43.407778</ele>
        <time>2022-08-03T09:50:01.000Z</time>
      </trkpt>
      <trkpt lat="49.34319" lon="-0.76646">
        <ele>43.538355</ele>
        <time>2022-08-03T09:50:02.000Z</time>
      </trkpt>
      <trkpt lat="49.3432" lon="-0.76653">
        <ele>43.6996</ele>
        <time>2022-08-03T09:50:03.000Z</time>
      </trkpt>
      <trkpt lat="49.3432" lon="-0.76659">
        <ele>43.839185</ele>
        <time>2022-08-03T09:50:04.000Z</time>
      </trkpt>
      <trkpt lat="49.34319" lon="-0.76664">
        <ele>43.953267</ele>
        <time>2022-08-03T09:50:05.000Z</time>
      </trkpt>
      <trkpt lat="49.34319" lon="-0.76669">
        <ele>44.091253</ele>
        <time>2022-08-03T09:50:06.000Z</time>
      </trkpt>
      <trkpt lat="49.34319" lon="-0.76675">
        <ele>44.221374</ele>
        <time>2022-08-03T09:50:07.000Z</time>
      </trkpt>
      <trkpt lat="49.34319" lon="-0.7668">
        <ele>44.351495</ele>
        <time>2022-08-03T09:50:08.000Z</time>
      </trkpt>
      <trkpt lat="49.34319" lon="-0.76686">
        <ele>44.486348</ele>
        <time>2022-08-03T09:50:09.000Z</time>
      </trkpt>
      <trkpt lat="49.34319" lon="-0.76691">
        <ele>44.612577</ele>
        <time>2022-08-03T09:50:10.000Z</time>
      </trkpt>
      <trkpt lat="49.3432" lon="-0.76697">
        <ele>44.736082</ele>
        <time>2022-08-03T09:50:11.000Z</time>
      </trkpt>
      <trkpt lat="49.3432" lon="-0.76702">
        <ele>44.859106</ele>
        <time>2022-08-03T09:50:12.000Z</time>
      </trkpt>
      <trkpt lat="49.3432" lon="-0.76707">
        <ele>44.984495</ele>
        <time>2022-08-03T09:50:13.000Z</time>
      </trkpt>
      <trkpt lat="49.34319" lon="-0.76712">
        <ele>45.108001</ele>
        <time>2022-08-03T09:50:14.000Z</time>
      </trkpt>
      <trkpt lat="49.34319" lon="-0.76718">
        <ele>45.23339</ele>
        <time>2022-08-03T09:50:15.000Z</time>
      </trkpt>
      <trkpt lat="49.34319" lon="-0.76723">
        <ele>45.357269</ele>
        <time>2022-08-03T09:50:16.000Z</time>
      </trkpt>
      <trkpt lat="49.34319" lon="-0.76728">
        <ele>45.477927</ele>
        <time>2022-08-03T09:50:17.000Z</time>
      </trkpt>
      <trkpt lat="49.3432" lon="-0.76733">
        <ele>45.603549</ele>
        <time>2022-08-03T09:50:18.000Z</time>
      </trkpt>
      <trkpt lat="49.3432" lon="-0.76739">
        <ele>45.738402</ele>
        <time>2022-08-03T09:50:19.000Z</time>
      </trkpt>
      <trkpt lat="49.3432" lon="-0.76744">
        <ele>45.863792</ele>
        <time>2022-08-03T09:50:20.000Z</time>
      </trkpt>
      <trkpt lat="49.3432" lon="-0.76749">
        <ele>45.987297</ele>
        <time>2022-08-03T09:50:21.000Z</time>
      </trkpt>
      <trkpt lat="49.34321" lon="-0.76756">
        <ele>46.204372</ele>
        <time>2022-08-03T09:50:22.000Z</time>
      </trkpt>
      <trkpt lat="49.3432" lon="-0.76761">
        <ele>46.47852</ele>
        <time>2022-08-03T09:50:23.000Z</time>
      </trkpt>
      <trkpt lat="49.3432" lon="-0.76766">
        <ele>46.698003</ele>
        <time>2022-08-03T09:50:24.000Z</time>
      </trkpt>
      <trkpt lat="49.3432" lon="-0.76772">
        <ele>46.954516</ele>
        <time>2022-08-03T09:50:25.000Z</time>
      </trkpt>
      <trkpt lat="49.3432" lon="-0.76777">
        <ele>47.210135</ele>
        <time>2022-08-03T09:50:26.000Z</time>
      </trkpt>
      <trkpt lat="49.3432" lon="-0.76784">
        <ele>47.526172</ele>
        <time>2022-08-03T09:50:27.000Z</time>
      </trkpt>
      <trkpt lat="49.34321" lon="-0.76789">
        <ele>47.750245</ele>
        <time>2022-08-03T09:50:28.000Z</time>
      </trkpt>
      <trkpt lat="49.34321" lon="-0.76795">
        <ele>48.062369</ele>
        <time>2022-08-03T09:50:29.000Z</time>
      </trkpt>
      <trkpt lat="49.34321" lon="-0.768">
        <ele>48.276159</ele>
        <time>2022-08-03T09:50:30.000Z</time>
      </trkpt>
      <trkpt lat="49.34322" lon="-0.76807">
        <ele>48.597557</ele>
        <time>2022-08-03T09:50:31.000Z</time>
      </trkpt>
      <trkpt lat="49.34322" lon="-0.76812">
        <ele>48.861319</ele>
        <time>2022-08-03T09:50:32.000Z</time>
      </trkpt>
      <trkpt lat="49.34322" lon="-0.76817">
        <ele>49.070462</ele>
        <time>2022-08-03T09:50:33.000Z</time>
      </trkpt>
      <trkpt lat="49.34323" lon="-0.76823">
        <ele>49.34918</ele>
        <time>2022-08-03T09:50:34.000Z</time>
      </trkpt>
      <trkpt lat="49.34323" lon="-0.76829">
        <ele>49.641979</ele>
        <time>2022-08-03T09:50:35.000Z</time>
      </trkpt>
      <trkpt lat="49.34323" lon="-0.76837">
        <ele>50.014403</ele>
        <time>2022-08-03T09:50:36.000Z</time>
      </trkpt>
      <trkpt lat="49.34323" lon="-0.76843">
        <ele>50.283965</ele>
        <time>2022-08-03T09:50:37.000Z</time>
      </trkpt>
      <trkpt lat="49.34324" lon="-0.7685">
        <ele>50.61</ele>
        <time>2022-08-03T09:50:38.000Z</time>
      </trkpt>
      <trkpt lat="49.34324" lon="-0.76857">
        <ele>50.934549</ele>
        <time>2022-08-03T09:50:39.000Z</time>
      </trkpt>
      <trkpt lat="49.34325" lon="-0.76864">
        <ele>51.253472</ele>
        <time>2022-08-03T09:50:40.000Z</time>
      </trkpt>
      <trkpt lat="49.34325" lon="-0.7687">
        <ele>51.544785</ele>
        <time>2022-08-03T09:50:41.000Z</time>
      </trkpt>
      <trkpt lat="49.34326" lon="-0.76875">
        <ele>51.814649</ele>
        <time>2022-08-03T09:50:42.000Z</time>
      </trkpt>
      <trkpt lat="49.34328" lon="-0.76879">
        <ele>52.021041</ele>
        <time>2022-08-03T09:50:43.000Z</time>
      </trkpt>
      <trkpt lat="49.3433" lon="-0.76881">
        <ele>52.180315</ele>
        <time>2022-08-03T09:50:44.000Z</time>
      </trkpt>
      <trkpt lat="49.34332" lon="-0.76882">
        <ele>52.311693</ele>
        <time>2022-08-03T09:50:45.000Z</time>
      </trkpt>
      <trkpt lat="49.34333" lon="-0.76884">
        <ele>52.464107</ele>
        <time>2022-08-03T09:50:46.000Z</time>
      </trkpt>
      <trkpt lat="49.34335" lon="-0.76886">
        <ele>52.595407</ele>
        <time>2022-08-03T09:50:47.000Z</time>
      </trkpt>
      <trkpt lat="49.34336" lon="-0.76891">
        <ele>52.854303</ele>
        <time>2022-08-03T09:50:49.000Z</time>
      </trkpt>
      <trkpt lat="49.34337" lon="-0.76894">
        <ele>53.015597</ele>
        <time>2022-08-03T09:50:50.000Z</time>
      </trkpt>
      <trkpt lat="49.34338" lon="-0.76899">
        <ele>53.234371</ele>
        <time>2022-08-03T09:50:51.000Z</time>
      </trkpt>
      <trkpt lat="49.34339" lon="-0.76902">
        <ele>53.390988</ele>
        <time>2022-08-03T09:50:52.000Z</time>
      </trkpt>
      <trkpt lat="49.34339" lon="-0.76905">
        <ele>53.541242</ele>
        <time>2022-08-03T09:50:53.000Z</time>
      </trkpt>
      <trkpt lat="49.3434" lon="-0.76908">
        <ele>53.689644</ele>
        <time>2022-08-03T09:50:54.000Z</time>
      </trkpt>
      <trkpt lat="49.34341" lon="-0.76911">
        <ele>53.873458</ele>
        <time>2022-08-03T09:50:55.000Z</time>
      </trkpt>
      <trkpt lat="49.34343" lon="-0.76915">
        <ele>54.072171</ele>
        <time>2022-08-03T09:50:56.000Z</time>
      </trkpt>
      <trkpt lat="49.34344" lon="-0.76917">
        <ele>54.207226</ele>
        <time>2022-08-03T09:50:57.000Z</time>
      </trkpt>
      <trkpt lat="49.34345" lon="-0.7692">
        <ele>54.352334</ele>
        <time>2022-08-03T09:50:58.000Z</time>
      </trkpt>
      <trkpt lat="49.34346" lon="-0.76923">
        <ele>54.517279</ele>
        <time>2022-08-03T09:50:59.000Z</time>
      </trkpt>
      <trkpt lat="49.34346" lon="-0.76926">
        <ele>54.662935</ele>
        <time>2022-08-03T09:51:00.000Z</time>
      </trkpt>
      <trkpt lat="49.34347" lon="-0.76929">
        <ele>54.818968</ele>
        <time>2022-08-03T09:51:01.000Z</time>
      </trkpt>
      <trkpt lat="49.34349" lon="-0.76932">
        <ele>54.999153</ele>
        <time>2022-08-03T09:51:02.000Z</time>
      </trkpt>
      <trkpt lat="49.3435" lon="-0.76935">
        <ele>55.147554</ele>
        <time>2022-08-03T09:51:03.000Z</time>
      </trkpt>
      <trkpt lat="49.34351" lon="-0.76938">
        <ele>55.299455</ele>
        <time>2022-08-03T09:51:04.000Z</time>
      </trkpt>
      <trkpt lat="49.34352" lon="-0.76941">
        <ele>55.456337</ele>
        <time>2022-08-03T09:51:05.000Z</time>
      </trkpt>
      <trkpt lat="49.34353" lon="-0.76944">
        <ele>55.614069</ele>
        <time>2022-08-03T09:51:06.000Z</time>
      </trkpt>
      <trkpt lat="49.34354" lon="-0.76947">
        <ele>55.779014</ele>
        <time>2022-08-03T09:51:07.000Z</time>
      </trkpt>
      <trkpt lat="49.34355" lon="-0.76951">
        <ele>55.985405</ele>
        <time>2022-08-03T09:51:08.000Z</time>
      </trkpt>
      <trkpt lat="49.34356" lon="-0.76954">
        <ele>56.16729</ele>
        <time>2022-08-03T09:51:09.000Z</time>
      </trkpt>
      <trkpt lat="49.34357" lon="-0.76958">
        <ele>56.350844</ele>
        <time>2022-08-03T09:51:10.000Z</time>
      </trkpt>
      <trkpt lat="49.34358" lon="-0.76962">
        <ele>56.529907</ele>
        <time>2022-08-03T09:51:11.000Z</time>
      </trkpt>
      <trkpt lat="49.34359" lon="-0.76965">
        <ele>56.705549</ele>
        <time>2022-08-03T09:51:12.000Z</time>
      </trkpt>
      <trkpt lat="49.34361" lon="-0.76968">
        <ele>56.878641</ele>
        <time>2022-08-03T09:51:13.000Z</time>
      </trkpt>
      <trkpt lat="49.34362" lon="-0.76971">
        <ele>57.034674</ele>
        <time>2022-08-03T09:51:14.000Z</time>
      </trkpt>
      <trkpt lat="49.34364" lon="-0.76974">
        <ele>57.23589</ele>
        <time>2022-08-03T09:51:15.000Z</time>
      </trkpt>
      <trkpt lat="49.34365" lon="-0.76977">
        <ele>57.419695</ele>
        <time>2022-08-03T09:51:16.000Z</time>
      </trkpt>
      <trkpt lat="49.34366" lon="-0.7698">
        <ele>57.585414</ele>
        <time>2022-08-03T09:51:17.000Z</time>
      </trkpt>
      <trkpt lat="49.34367" lon="-0.76984">
        <ele>57.776707</ele>
        <time>2022-08-03T09:51:18.000Z</time>
      </trkpt>
      <trkpt lat="49.34369" lon="-0.76987">
        <ele>57.956421</ele>
        <time>2022-08-03T09:51:19.000Z</time>
      </trkpt>
      <trkpt lat="49.34369" lon="-0.7699">
        <ele>58.10452</ele>
        <time>2022-08-03T09:51:20.000Z</time>
      </trkpt>
      <trkpt lat="49.3437" lon="-0.76994">
        <ele>58.26375</ele>
        <time>2022-08-03T09:51:21.000Z</time>
      </trkpt>
      <trkpt lat="49.34371" lon="-0.76996">
        <ele>58.412151</ele>
        <time>2022-08-03T09:51:22.000Z</time>
      </trkpt>
      <trkpt lat="49.34372" lon="-0.76999">
        <ele>58.557999</ele>
        <time>2022-08-03T09:51:23.000Z</time>
      </trkpt>
      <trkpt lat="49.34373" lon="-0.77002">
        <ele>58.714614</ele>
        <time>2022-08-03T09:51:24.000Z</time>
      </trkpt>
      <trkpt lat="49.34373" lon="-0.77006">
        <ele>58.885176</ele>
        <time>2022-08-03T09:51:25.000Z</time>
      </trkpt>
      <trkpt lat="49.34375" lon="-0.77009">
        <ele>59.092103</ele>
        <time>2022-08-03T09:51:26.000Z</time>
      </trkpt>
      <trkpt lat="49.34377" lon="-0.77013">
        <ele>59.325373</ele>
        <time>2022-08-03T09:51:27.000Z</time>
      </trkpt>
      <trkpt lat="49.34379" lon="-0.77017">
        <ele>59.548766</ele>
        <time>2022-08-03T09:51:28.000Z</time>
      </trkpt>
      <trkpt lat="49.3438" lon="-0.77021">
        <ele>59.772803</ele>
        <time>2022-08-03T09:51:29.000Z</time>
      </trkpt>
      <trkpt lat="49.34381" lon="-0.77026">
        <ele>59.998417</ele>
        <time>2022-08-03T09:51:30.000Z</time>
      </trkpt>
      <trkpt lat="49.34383" lon="-0.77029">
        <ele>60.213755</ele>
        <time>2022-08-03T09:51:31.000Z</time>
      </trkpt>
      <trkpt lat="49.34384" lon="-0.77033">
        <ele>60.413229</ele>
        <time>2022-08-03T09:51:32.000Z</time>
      </trkpt>
      <trkpt lat="49.34385" lon="-0.77037">
        <ele>60.609125</ele>
        <time>2022-08-03T09:51:33.000Z</time>
      </trkpt>
      <trkpt lat="49.34387" lon="-0.77041">
        <ele>60.860359</ele>
        <time>2022-08-03T09:51:34.000Z</time>
      </trkpt>
      <trkpt lat="49.34389" lon="-0.77046">
        <ele>61.096037</ele>
        <time>2022-08-03T09:51:35.000Z</time>
      </trkpt>
      <trkpt lat="49.34389" lon="-0.77049">
        <ele>61.284007</ele>
        <time>2022-08-03T09:51:36.000Z</time>
      </trkpt>
      <trkpt lat="49.3439" lon="-0.77053">
        <ele>61.4659</ele>
        <time>2022-08-03T09:51:37.000Z</time>
      </trkpt>
      <trkpt lat="49.34392" lon="-0.77057">
        <ele>61.678647</ele>
        <time>2022-08-03T09:51:38.000Z</time>
      </trkpt>
      <trkpt lat="49.34393" lon="-0.7706">
        <ele>61.862166</ele>
        <time>2022-08-03T09:51:39.000Z</time>
      </trkpt>
      <trkpt lat="49.34395" lon="-0.77064">
        <ele>62.073213</ele>
        <time>2022-08-03T09:51:40.000Z</time>
      </trkpt>
      <trkpt lat="49.34395" lon="-0.77066">
        <ele>62.208986</ele>
        <time>2022-08-03T09:51:41.000Z</time>
      </trkpt>
      <trkpt lat="49.34397" lon="-0.77069">
        <ele>62.391802</ele>
        <time>2022-08-03T09:51:42.000Z</time>
      </trkpt>
      <trkpt lat="49.34399" lon="-0.77071">
        <ele>62.554908</ele>
        <time>2022-08-03T09:51:43.000Z</time>
      </trkpt>
      <trkpt lat="49.34401" lon="-0.77072">
        <ele>62.733955</ele>
        <time>2022-08-03T09:51:44.000Z</time>
      </trkpt>
      <trkpt lat="49.34403" lon="-0.77073">
        <ele>62.879211</ele>
        <time>2022-08-03T09:51:45.000Z</time>
      </trkpt>
      <trkpt lat="49.34407" lon="-0.77075">
        <ele>63.152033</ele>
        <time>2022-08-03T09:51:46.000Z</time>
      </trkpt>
      <trkpt lat="49.34409" lon="-0.77076">
        <ele>63.351789</ele>
        <time>2022-08-03T09:51:47.000Z</time>
      </trkpt>
      <trkpt lat="49.34412" lon="-0.77077">
        <ele>63.571199</ele>
        <time>2022-08-03T09:51:48.000Z</time>
      </trkpt>
      <trkpt lat="49.34414" lon="-0.77078">
        <ele>63.73881</ele>
        <time>2022-08-03T09:51:49.000Z</time>
      </trkpt>
      <trkpt lat="49.34417" lon="-0.77079">
        <ele>63.906421</ele>
        <time>2022-08-03T09:51:50.000Z</time>
      </trkpt>
      <trkpt lat="49.34419" lon="-0.7708">
        <ele>64.078698</ele>
        <time>2022-08-03T09:51:51.000Z</time>
      </trkpt>
      <trkpt lat="49.34421" lon="-0.77081">
        <ele>64.228786</ele>
        <time>2022-08-03T09:51:52.000Z</time>
      </trkpt>
      <trkpt lat="49.34423" lon="-0.77083">
        <ele>64.410905</ele>
        <time>2022-08-03T09:51:53.000Z</time>
      </trkpt>
      <trkpt lat="49.34425" lon="-0.77084">
        <ele>64.569567</ele>
        <time>2022-08-03T09:51:54.000Z</time>
      </trkpt>
      <trkpt lat="49.34427" lon="-0.77086">
        <ele>64.71172</ele>
        <time>2022-08-03T09:51:55.000Z</time>
      </trkpt>
      <trkpt lat="49.34429" lon="-0.77087">
        <ele>64.883931</ele>
        <time>2022-08-03T09:51:56.000Z</time>
      </trkpt>
      <trkpt lat="49.34432" lon="-0.77089">
        <ele>65.110703</ele>
        <time>2022-08-03T09:51:57.000Z</time>
      </trkpt>
      <trkpt lat="49.34434" lon="-0.7709">
        <ele>65.26079</ele>
        <time>2022-08-03T09:51:58.000Z</time>
      </trkpt>
      <trkpt lat="49.34436" lon="-0.77092">
        <ele>65.41687</ele>
        <time>2022-08-03T09:51:59.000Z</time>
      </trkpt>
      <trkpt lat="49.34437" lon="-0.77093">
        <ele>65.565212</ele>
        <time>2022-08-03T09:52:00.000Z</time>
      </trkpt>
      <trkpt lat="49.34441" lon="-0.77095">
        <ele>65.85193</ele>
        <time>2022-08-03T09:52:02.000Z</time>
      </trkpt>
      <trkpt lat="49.34444" lon="-0.77097">
        <ele>66.044753</ele>
        <time>2022-08-03T09:52:03.000Z</time>
      </trkpt>
      <trkpt lat="49.34445" lon="-0.77098">
        <ele>66.196715</ele>
        <time>2022-08-03T09:52:04.000Z</time>
      </trkpt>
      <trkpt lat="49.34448" lon="-0.77099">
        <ele>66.397996</ele>
        <time>2022-08-03T09:52:05.000Z</time>
      </trkpt>
      <trkpt lat="49.34451" lon="-0.77102">
        <ele>66.630015</ele>
        <time>2022-08-03T09:52:07.000Z</time>
      </trkpt>
      <trkpt lat="49.34452" lon="-0.77105">
        <ele>66.795898</ele>
        <time>2022-08-03T09:52:09.000Z</time>
      </trkpt>
      <trkpt lat="49.34451" lon="-0.77104">
        <ele>66.860599</ele>
        <time>2022-08-03T09:52:53.000Z</time>
      </trkpt>
      <trkpt lat="49.34449" lon="-0.77102">
        <ele>67.03446</ele>
        <time>2022-08-03T09:52:55.000Z</time>
      </trkpt>
      <trkpt lat="49.34447" lon="-0.77101">
        <ele>67.193123</ele>
        <time>2022-08-03T09:52:57.000Z</time>
      </trkpt>
      <trkpt lat="49.34452" lon="-0.77112">
        <ele>67.832263</ele>
        <time>2022-08-03T09:53:13.000Z</time>
      </trkpt>
      <trkpt lat="49.34452" lon="-0.77114">
        <ele>67.965524</ele>
        <time>2022-08-03T09:53:17.000Z</time>
      </trkpt>
      <trkpt lat="49.34454" lon="-0.77126">
        <ele>68.525559</ele>
        <time>2022-08-03T09:54:02.000Z</time>
      </trkpt>
      <trkpt lat="49.34453" lon="-0.77129">
        <ele>68.711818</ele>
        <time>2022-08-03T09:54:03.000Z</time>
      </trkpt>
      <trkpt lat="49.34453" lon="-0.77135">
        <ele>68.959303</ele>
        <time>2022-08-03T09:54:04.000Z</time>
      </trkpt>
      <trkpt lat="49.34453" lon="-0.7714">
        <ele>69.207756</ele>
        <time>2022-08-03T09:54:05.000Z</time>
      </trkpt>
      <trkpt lat="49.34452" lon="-0.77145">
        <ele>69.46378</ele>
        <time>2022-08-03T09:54:06.000Z</time>
      </trkpt>
      <trkpt lat="49.34452" lon="-0.77151">
        <ele>69.730491</ele>
        <time>2022-08-03T09:54:07.000Z</time>
      </trkpt>
      <trkpt lat="49.34452" lon="-0.77156">
        <ele>69.982735</ele>
        <time>2022-08-03T09:54:08.000Z</time>
      </trkpt>
      <trkpt lat="49.34451" lon="-0.77161">
        <ele>70.231189</ele>
        <time>2022-08-03T09:54:09.000Z</time>
      </trkpt>
      <trkpt lat="49.34451" lon="-0.77166">
        <ele>70.449797</ele>
        <time>2022-08-03T09:54:10.000Z</time>
      </trkpt>
      <trkpt lat="49.3445" lon="-0.7717">
        <ele>70.656524</ele>
        <time>2022-08-03T09:54:11.000Z</time>
      </trkpt>
      <trkpt lat="49.34449" lon="-0.77174">
        <ele>70.85793</ele>
        <time>2022-08-03T09:54:12.000Z</time>
      </trkpt>
      <trkpt lat="49.34449" lon="-0.77178">
        <ele>71.073494</ele>
        <time>2022-08-03T09:54:13.000Z</time>
      </trkpt>
      <trkpt lat="49.34447" lon="-0.77183">
        <ele>71.309321</ele>
        <time>2022-08-03T09:54:14.000Z</time>
      </trkpt>
      <trkpt lat="49.34446" lon="-0.77188">
        <ele>71.553702</ele>
        <time>2022-08-03T09:54:15.000Z</time>
      </trkpt>
      <trkpt lat="49.34445" lon="-0.77193">
        <ele>71.793545</ele>
        <time>2022-08-03T09:54:16.000Z</time>
      </trkpt>
      <trkpt lat="49.34445" lon="-0.77198">
        <ele>72.035515</ele>
        <time>2022-08-03T09:54:17.000Z</time>
      </trkpt>
      <trkpt lat="49.34444" lon="-0.77202">
        <ele>72.063718</ele>
        <time>2022-08-03T09:54:18.000Z</time>
      </trkpt>
      <trkpt lat="49.34444" lon="-0.77206">
        <ele>72.081032</ele>
        <time>2022-08-03T09:54:19.000Z</time>
      </trkpt>
      <trkpt lat="49.34443" lon="-0.77209">
        <ele>72.094339</ele>
        <time>2022-08-03T09:54:20.000Z</time>
      </trkpt>
      <trkpt lat="49.34442" lon="-0.77213">
        <ele>72.116817</ele>
        <time>2022-08-03T09:54:22.000Z</time>
      </trkpt>
      <trkpt lat="49.34441" lon="-0.77217">
        <ele>72.131416</ele>
        <time>2022-08-03T09:54:24.000Z</time>
      </trkpt>
      <trkpt lat="49.34441" lon="-0.77219">
        <ele>72.143985</ele>
        <time>2022-08-03T09:54:26.000Z</time>
      </trkpt>
      <trkpt lat="49.3444" lon="-0.77225">
        <ele>72.168435</ele>
        <time>2022-08-03T09:54:28.000Z</time>
      </trkpt>
      <trkpt lat="49.3444" lon="-0.77229">
        <ele>72.184658</ele>
        <time>2022-08-03T09:54:29.000Z</time>
      </trkpt>
      <trkpt lat="49.34439" lon="-0.77233">
        <ele>72.206336</ele>
        <time>2022-08-03T09:54:30.000Z</time>
      </trkpt>
      <trkpt lat="49.34438" lon="-0.77238">
        <ele>72.226475</ele>
        <time>2022-08-03T09:54:31.000Z</time>
      </trkpt>
      <trkpt lat="49.34438" lon="-0.77242">
        <ele>72.246745</ele>
        <time>2022-08-03T09:54:32.000Z</time>
      </trkpt>
      <trkpt lat="49.34438" lon="-0.77246">
        <ele>72.263844</ele>
        <time>2022-08-03T09:54:33.000Z</time>
      </trkpt>
      <trkpt lat="49.34437" lon="-0.7725">
        <ele>72.281813</ele>
        <time>2022-08-03T09:54:34.000Z</time>
      </trkpt>
      <trkpt lat="49.34436" lon="-0.77254">
        <ele>72.301616</ele>
        <time>2022-08-03T09:54:35.000Z</time>
      </trkpt>
      <trkpt lat="49.34436" lon="-0.77259">
        <ele>72.322223</ele>
        <time>2022-08-03T09:54:36.000Z</time>
      </trkpt>
      <trkpt lat="49.34437" lon="-0.77263">
        <ele>72.341184</ele>
        <time>2022-08-03T09:54:37.000Z</time>
      </trkpt>
      <trkpt lat="49.34437" lon="-0.77268">
        <ele>72.36189</ele>
        <time>2022-08-03T09:54:38.000Z</time>
      </trkpt>
      <trkpt lat="49.34437" lon="-0.77273">
        <ele>72.381723</ele>
        <time>2022-08-03T09:54:39.000Z</time>
      </trkpt>
      <trkpt lat="49.34437" lon="-0.77276">
        <ele>72.398071</ele>
        <time>2022-08-03T09:54:40.000Z</time>
      </trkpt>
      <trkpt lat="49.34437" lon="-0.7728">
        <ele>72.413984</ele>
        <time>2022-08-03T09:54:41.000Z</time>
      </trkpt>
      <trkpt lat="49.34438" lon="-0.77283">
        <ele>72.43034</ele>
        <time>2022-08-03T09:54:42.000Z</time>
      </trkpt>
      <trkpt lat="49.34438" lon="-0.77287">
        <ele>72.445818</ele>
        <time>2022-08-03T09:54:43.000Z</time>
      </trkpt>
      <trkpt lat="49.34439" lon="-0.7729">
        <ele>72.459559</ele>
        <time>2022-08-03T09:54:44.000Z</time>
      </trkpt>
      <trkpt lat="49.34439" lon="-0.77295">
        <ele>72.483321</ele>
        <time>2022-08-03T09:54:46.000Z</time>
      </trkpt>
      <trkpt lat="49.34439" lon="-0.773">
        <ele>72.502365</ele>
        <time>2022-08-03T09:54:48.000Z</time>
      </trkpt>
      <trkpt lat="49.34439" lon="-0.77305">
        <ele>72.525323</ele>
        <time>2022-08-03T09:54:50.000Z</time>
      </trkpt>
      <trkpt lat="49.34438" lon="-0.77308">
        <ele>72.539502</ele>
        <time>2022-08-03T09:54:51.000Z</time>
      </trkpt>
      <trkpt lat="49.34437" lon="-0.77313">
        <ele>72.563274</ele>
        <time>2022-08-03T09:54:53.000Z</time>
      </trkpt>
      <trkpt lat="49.34437" lon="-0.77317">
        <ele>72.581689</ele>
        <time>2022-08-03T09:54:55.000Z</time>
      </trkpt>
      <trkpt lat="49.34439" lon="-0.7732">
        <ele>72.596059</ele>
        <time>2022-08-03T09:54:58.000Z</time>
      </trkpt>
      <trkpt lat="49.34444" lon="-0.77322">
        <ele>72.630032</ele>
        <time>2022-08-03T09:55:08.000Z</time>
      </trkpt>
      <trkpt lat="49.34445" lon="-0.77323">
        <ele>72.643698</ele>
        <time>2022-08-03T09:55:10.000Z</time>
      </trkpt>
      <trkpt lat="49.34448" lon="-0.77324">
        <ele>72.663454</ele>
        <time>2022-08-03T09:55:12.000Z</time>
      </trkpt>
      <trkpt lat="49.34451" lon="-0.77324">
        <ele>72.683015</ele>
        <time>2022-08-03T09:55:14.000Z</time>
      </trkpt>
      <trkpt lat="49.34454" lon="-0.77324">
        <ele>72.70471</ele>
        <time>2022-08-03T09:55:16.000Z</time>
      </trkpt>
      <trkpt lat="49.34457" lon="-0.77324">
        <ele>72.722229</ele>
        <time>2022-08-03T09:55:18.000Z</time>
      </trkpt>
      <trkpt lat="49.34452" lon="-0.77323">
        <ele>72.759253</ele>
        <time>2022-08-03T09:55:30.000Z</time>
      </trkpt>
      <trkpt lat="49.34449" lon="-0.77322">
        <ele>72.775637</ele>
        <time>2022-08-03T09:55:34.000Z</time>
      </trkpt>
      <trkpt lat="49.34447" lon="-0.77321">
        <ele>72.791985</ele>
        <time>2022-08-03T09:55:36.000Z</time>
      </trkpt>
      <trkpt lat="49.34445" lon="-0.77318">
        <ele>72.809898</ele>
        <time>2022-08-03T09:55:38.000Z</time>
      </trkpt>
      <trkpt lat="49.34443" lon="-0.77315">
        <ele>72.829414</ele>
        <time>2022-08-03T09:55:40.000Z</time>
      </trkpt>
      <trkpt lat="49.34443" lon="-0.77312">
        <ele>72.843883</ele>
        <time>2022-08-03T09:55:42.000Z</time>
      </trkpt>
      <trkpt lat="49.34437" lon="-0.77305">
        <ele>72.891904</ele>
        <time>2022-08-03T09:55:56.000Z</time>
      </trkpt>
      <trkpt lat="49.34437" lon="-0.773">
        <ele>72.913383</ele>
        <time>2022-08-03T09:55:58.000Z</time>
      </trkpt>
      <trkpt lat="49.34438" lon="-0.77298">
        <ele>72.928887</ele>
        <time>2022-08-03T09:56:00.000Z</time>
      </trkpt>
      <trkpt lat="49.34438" lon="-0.77301">
        <ele>72.942917</ele>
        <time>2022-08-03T09:56:02.000Z</time>
      </trkpt>
      <trkpt lat="49.34437" lon="-0.77304">
        <ele>72.956918</ele>
        <time>2022-08-03T09:56:03.000Z</time>
      </trkpt>
      <trkpt lat="49.34437" lon="-0.77307">
        <ele>72.971961</ele>
        <time>2022-08-03T09:56:04.000Z</time>
      </trkpt>
      <trkpt lat="49.34436" lon="-0.77311">
        <ele>72.99093</ele>
        <time>2022-08-03T09:56:05.000Z</time>
      </trkpt>
      <trkpt lat="49.34436" lon="-0.77314">
        <ele>73.004084</ele>
        <time>2022-08-03T09:56:06.000Z</time>
      </trkpt>
      <trkpt lat="49.34437" lon="-0.77317">
        <ele>73.017391</ele>
        <time>2022-08-03T09:56:07.000Z</time>
      </trkpt>
      <trkpt lat="49.34437" lon="-0.7732">
        <ele>73.031872</ele>
        <time>2022-08-03T09:56:09.000Z</time>
      </trkpt>
      <trkpt lat="49.34447" lon="-0.77326">
        <ele>73.099763</ele>
        <time>2022-08-03T09:56:18.000Z</time>
      </trkpt>
      <trkpt lat="49.34449" lon="-0.77327">
        <ele>73.115543</ele>
        <time>2022-08-03T09:56:19.000Z</time>
      </trkpt>
      <trkpt lat="49.34451" lon="-0.77327">
        <ele>73.130374</ele>
        <time>2022-08-03T09:56:20.000Z</time>
      </trkpt>
      <trkpt lat="49.34453" lon="-0.77327">
        <ele>73.143191</ele>
        <time>2022-08-03T09:56:22.000Z</time>
      </trkpt>
      <trkpt lat="49.34461" lon="-0.7733">
        <ele>73.198315</ele>
        <time>2022-08-03T09:57:21.000Z</time>
      </trkpt>
      <trkpt lat="49.34464" lon="-0.77332">
        <ele>73.220283</ele>
        <time>2022-08-03T09:57:22.000Z</time>
      </trkpt>
      <trkpt lat="49.34467" lon="-0.77335">
        <ele>73.24093</ele>
        <time>2022-08-03T09:57:23.000Z</time>
      </trkpt>
      <trkpt lat="49.34469" lon="-0.77336">
        <ele>73.254261</ele>
        <time>2022-08-03T09:57:24.000Z</time>
      </trkpt>
      <trkpt lat="49.34472" lon="-0.77338">
        <ele>73.251646</ele>
        <time>2022-08-03T09:57:25.000Z</time>
      </trkpt>
      <trkpt lat="49.34475" lon="-0.7734">
        <ele>73.24914</ele>
        <time>2022-08-03T09:57:26.000Z</time>
      </trkpt>
      <trkpt lat="49.34477" lon="-0.77341">
        <ele>73.247185</ele>
        <time>2022-08-03T09:57:27.000Z</time>
      </trkpt>
      <trkpt lat="49.3448" lon="-0.77342">
        <ele>73.244664</ele>
        <time>2022-08-03T09:57:28.000Z</time>
      </trkpt>
      <trkpt lat="49.34482" lon="-0.77343">
        <ele>73.242745</ele>
        <time>2022-08-03T09:57:29.000Z</time>
      </trkpt>
      <trkpt lat="49.34485" lon="-0.77344">
        <ele>73.240776</ele>
        <time>2022-08-03T09:57:30.000Z</time>
      </trkpt>
      <trkpt lat="49.34487" lon="-0.77345">
        <ele>73.238874</ele>
        <time>2022-08-03T09:57:31.000Z</time>
      </trkpt>
      <trkpt lat="49.34489" lon="-0.77346">
        <ele>73.237208</ele>
        <time>2022-08-03T09:57:32.000Z</time>
      </trkpt>
      <trkpt lat="49.34491" lon="-0.77347">
        <ele>73.235225</ele>
        <time>2022-08-03T09:57:33.000Z</time>
      </trkpt>
      <trkpt lat="49.34493" lon="-0.77348">
        <ele>73.233616</ele>
        <time>2022-08-03T09:57:34.000Z</time>
      </trkpt>
      <trkpt lat="49.34496" lon="-0.7735">
        <ele>73.230708</ele>
        <time>2022-08-03T09:57:36.000Z</time>
      </trkpt>
      <trkpt lat="49.34499" lon="-0.77351">
        <ele>73.22844</ele>
        <time>2022-08-03T09:57:38.000Z</time>
      </trkpt>
      <trkpt lat="49.34501" lon="-0.77351">
        <ele>73.226361</ele>
        <time>2022-08-03T09:57:40.000Z</time>
      </trkpt>
      <trkpt lat="49.34503" lon="-0.77351">
        <ele>73.224781</ele>
        <time>2022-08-03T09:57:41.000Z</time>
      </trkpt>
      <trkpt lat="49.34505" lon="-0.77351">
        <ele>73.223108</ele>
        <time>2022-08-03T09:57:42.000Z</time>
      </trkpt>
      <trkpt lat="49.34507" lon="-0.77352">
        <ele>73.221524</ele>
        <time>2022-08-03T09:57:43.000Z</time>
      </trkpt>
      <trkpt lat="49.34509" lon="-0.77352">
        <ele>73.2197</ele>
        <time>2022-08-03T09:57:44.000Z</time>
      </trkpt>
      <trkpt lat="49.34512" lon="-0.77352">
        <ele>73.217289</ele>
        <time>2022-08-03T09:57:45.000Z</time>
      </trkpt>
      <trkpt lat="49.34515" lon="-0.77352">
        <ele>73.214869</ele>
        <time>2022-08-03T09:57:46.000Z</time>
      </trkpt>
      <trkpt lat="49.34518" lon="-0.77353">
        <ele>73.212171</ele>
        <time>2022-08-03T09:57:47.000Z</time>
      </trkpt>
      <trkpt lat="49.34521" lon="-0.77353">
        <ele>73.209765</ele>
        <time>2022-08-03T09:57:48.000Z</time>
      </trkpt>
      <trkpt lat="49.34524" lon="-0.77354">
        <ele>73.20744</ele>
        <time>2022-08-03T09:57:49.000Z</time>
      </trkpt>
      <trkpt lat="49.34527" lon="-0.77354">
        <ele>73.205035</ele>
        <time>2022-08-03T09:57:50.000Z</time>
      </trkpt>
      <trkpt lat="49.3453" lon="-0.77354">
        <ele>73.202625</ele>
        <time>2022-08-03T09:57:51.000Z</time>
      </trkpt>
      <trkpt lat="49.34532" lon="-0.77354">
        <ele>73.200457</ele>
        <time>2022-08-03T09:57:52.000Z</time>
      </trkpt>
      <trkpt lat="49.34535" lon="-0.77355">
        <ele>73.197798</ele>
        <time>2022-08-03T09:57:53.000Z</time>
      </trkpt>
      <trkpt lat="49.34539" lon="-0.77355">
        <ele>73.195145</ele>
        <time>2022-08-03T09:57:54.000Z</time>
      </trkpt>
      <trkpt lat="49.34542" lon="-0.77354">
        <ele>73.192488</ele>
        <time>2022-08-03T09:57:55.000Z</time>
      </trkpt>
      <trkpt lat="49.34545" lon="-0.77354">
        <ele>73.189586</ele>
        <time>2022-08-03T09:57:56.000Z</time>
      </trkpt>
      <trkpt lat="49.34548" lon="-0.77354">
        <ele>73.18718</ele>
        <time>2022-08-03T09:57:57.000Z</time>
      </trkpt>
      <trkpt lat="49.34551" lon="-0.77354">
        <ele>73.185107</ele>
        <time>2022-08-03T09:57:58.000Z</time>
      </trkpt>
      <trkpt lat="49.34554" lon="-0.77354">
        <ele>73.182192</ele>
        <time>2022-08-03T09:57:59.000Z</time>
      </trkpt>
      <trkpt lat="49.34557" lon="-0.77354">
        <ele>73.179533</ele>
        <time>2022-08-03T09:58:00.000Z</time>
      </trkpt>
      <trkpt lat="49.3456" lon="-0.77354">
        <ele>73.177376</ele>
        <time>2022-08-03T09:58:01.000Z</time>
      </trkpt>
      <trkpt lat="49.34564" lon="-0.77354">
        <ele>73.174474</ele>
        <time>2022-08-03T09:58:02.000Z</time>
      </trkpt>
      <trkpt lat="49.34566" lon="-0.77353">
        <ele>73.172063</ele>
        <time>2022-08-03T09:58:03.000Z</time>
      </trkpt>
      <trkpt lat="49.3457" lon="-0.77353">
        <ele>73.1694</ele>
        <time>2022-08-03T09:58:04.000Z</time>
      </trkpt>
      <trkpt lat="49.34573" lon="-0.77353">
        <ele>73.166496</ele>
        <time>2022-08-03T09:58:05.000Z</time>
      </trkpt>
      <trkpt lat="49.34576" lon="-0.77353">
        <ele>73.163839</ele>
        <time>2022-08-03T09:58:06.000Z</time>
      </trkpt>
      <trkpt lat="49.3458" lon="-0.77353">
        <ele>73.160936</ele>
        <time>2022-08-03T09:58:07.000Z</time>
      </trkpt>
      <trkpt lat="49.34584" lon="-0.77353">
        <ele>73.157702</ele>
        <time>2022-08-03T09:58:08.000Z</time>
      </trkpt>
      <trkpt lat="49.34587" lon="-0.77353">
        <ele>73.154786</ele>
        <time>2022-08-03T09:58:09.000Z</time>
      </trkpt>
      <trkpt lat="49.3459" lon="-0.77352">
        <ele>73.152119</ele>
        <time>2022-08-03T09:58:10.000Z</time>
      </trkpt>
      <trkpt lat="49.34594" lon="-0.77352">
        <ele>73.14946</ele>
        <time>2022-08-03T09:58:11.000Z</time>
      </trkpt>
      <trkpt lat="49.34597" lon="-0.77352">
        <ele>73.146552</ele>
        <time>2022-08-03T09:58:12.000Z</time>
      </trkpt>
      <trkpt lat="49.346" lon="-0.77351">
        <ele>73.143844</ele>
        <time>2022-08-03T09:58:13.000Z</time>
      </trkpt>
      <trkpt lat="49.34604" lon="-0.7735">
        <ele>73.141146</ele>
        <time>2022-08-03T09:58:14.000Z</time>
      </trkpt>
      <trkpt lat="49.34606" lon="-0.7735">
        <ele>73.138735</ele>
        <time>2022-08-03T09:58:15.000Z</time>
      </trkpt>
      <trkpt lat="49.3461" lon="-0.7735">
        <ele>73.136068</ele>
        <time>2022-08-03T09:58:16.000Z</time>
      </trkpt>
      <trkpt lat="49.34613" lon="-0.77351">
        <ele>73.133379</ele>
        <time>2022-08-03T09:58:17.000Z</time>
      </trkpt>
      <trkpt lat="49.34616" lon="-0.77351">
        <ele>73.130723</ele>
        <time>2022-08-03T09:58:18.000Z</time>
      </trkpt>
      <trkpt lat="49.34619" lon="-0.77351">
        <ele>73.128302</ele>
        <time>2022-08-03T09:58:19.000Z</time>
      </trkpt>
      <trkpt lat="49.34622" lon="-0.77348">
        <ele>73.125595</ele>
        <time>2022-08-03T09:58:20.000Z</time>
      </trkpt>
      <trkpt lat="49.34624" lon="-0.77347">
        <ele>73.123659</ele>
        <time>2022-08-03T09:58:21.000Z</time>
      </trkpt>
      <trkpt lat="49.34627" lon="-0.77346">
        <ele>73.12097</ele>
        <time>2022-08-03T09:58:22.000Z</time>
      </trkpt>
      <trkpt lat="49.34631" lon="-0.77346">
        <ele>73.117807</ele>
        <time>2022-08-03T09:58:23.000Z</time>
      </trkpt>
      <trkpt lat="49.34634" lon="-0.77345">
        <ele>73.115109</ele>
        <time>2022-08-03T09:58:24.000Z</time>
      </trkpt>
      <trkpt lat="49.34637" lon="-0.77345">
        <ele>73.112454</ele>
        <time>2022-08-03T09:58:25.000Z</time>
      </trkpt>
      <trkpt lat="49.34641" lon="-0.77344">
        <ele>73.109791</ele>
        <time>2022-08-03T09:58:26.000Z</time>
      </trkpt>
      <trkpt lat="49.34644" lon="-0.77344">
        <ele>73.107371</ele>
        <time>2022-08-03T09:58:27.000Z</time>
      </trkpt>
      <trkpt lat="49.34647" lon="-0.77344">
        <ele>73.096837</ele>
        <time>2022-08-03T09:58:28.000Z</time>
      </trkpt>
      <trkpt lat="49.34649" lon="-0.77344">
        <ele>73.076752</ele>
        <time>2022-08-03T09:58:29.000Z</time>
      </trkpt>
      <trkpt lat="49.34652" lon="-0.77344">
        <ele>73.059639</ele>
        <time>2022-08-03T09:58:30.000Z</time>
      </trkpt>
      <trkpt lat="49.34654" lon="-0.77344">
        <ele>73.041864</ele>
        <time>2022-08-03T09:58:31.000Z</time>
      </trkpt>
      <trkpt lat="49.34657" lon="-0.77344">
        <ele>73.020182</ele>
        <time>2022-08-03T09:58:32.000Z</time>
      </trkpt>
      <trkpt lat="49.34659" lon="-0.77344">
        <ele>73.004699</ele>
        <time>2022-08-03T09:58:33.000Z</time>
      </trkpt>
      <trkpt lat="49.34661" lon="-0.77345">
        <ele>72.989808</ele>
        <time>2022-08-03T09:58:34.000Z</time>
      </trkpt>
      <trkpt lat="49.34663" lon="-0.77345">
        <ele>72.972746</ele>
        <time>2022-08-03T09:58:35.000Z</time>
      </trkpt>
      <trkpt lat="49.34666" lon="-0.77345">
        <ele>72.94798</ele>
        <time>2022-08-03T09:58:37.000Z</time>
      </trkpt>
      <trkpt lat="49.34669" lon="-0.77346">
        <ele>72.927589</ele>
        <time>2022-08-03T09:58:38.000Z</time>
      </trkpt>
      <trkpt lat="49.34671" lon="-0.77347">
        <ele>72.909865</ele>
        <time>2022-08-03T09:58:39.000Z</time>
      </trkpt>
      <trkpt lat="49.34673" lon="-0.77348">
        <ele>72.889623</ele>
        <time>2022-08-03T09:58:40.000Z</time>
      </trkpt>
      <trkpt lat="49.34676" lon="-0.77348">
        <ele>72.872628</ele>
        <time>2022-08-03T09:58:41.000Z</time>
      </trkpt>
      <trkpt lat="49.34677" lon="-0.77347">
        <ele>72.857409</ele>
        <time>2022-08-03T09:58:42.000Z</time>
      </trkpt>
      <trkpt lat="49.34679" lon="-0.77346">
        <ele>72.841562</ele>
        <time>2022-08-03T09:58:43.000Z</time>
      </trkpt>
      <trkpt lat="49.34681" lon="-0.77346">
        <ele>72.826851</ele>
        <time>2022-08-03T09:58:44.000Z</time>
      </trkpt>
      <trkpt lat="49.34685" lon="-0.77346">
        <ele>72.799739</ele>
        <time>2022-08-03T09:58:46.000Z</time>
      </trkpt>
      <trkpt lat="49.34687" lon="-0.77346">
        <ele>72.785061</ele>
        <time>2022-08-03T09:58:47.000Z</time>
      </trkpt>
      <trkpt lat="49.3469" lon="-0.77346">
        <ele>72.758019</ele>
        <time>2022-08-03T09:58:49.000Z</time>
      </trkpt>
      <trkpt lat="49.34693" lon="-0.77345">
        <ele>72.737314</ele>
        <time>2022-08-03T09:58:51.000Z</time>
      </trkpt>
      <trkpt lat="49.34696" lon="-0.77345">
        <ele>72.71016</ele>
        <time>2022-08-03T09:58:53.000Z</time>
      </trkpt>
      <trkpt lat="49.34699" lon="-0.77345">
        <ele>72.692393</ele>
        <time>2022-08-03T09:58:54.000Z</time>
      </trkpt>
      <trkpt lat="49.34701" lon="-0.77345">
        <ele>72.672917</ele>
        <time>2022-08-03T09:58:55.000Z</time>
      </trkpt>
      <trkpt lat="49.34703" lon="-0.77346">
        <ele>72.655036</ele>
        <time>2022-08-03T09:58:56.000Z</time>
      </trkpt>
      <trkpt lat="49.34706" lon="-0.77346">
        <ele>72.63326</ele>
        <time>2022-08-03T09:58:57.000Z</time>
      </trkpt>
      <trkpt lat="49.34709" lon="-0.77346">
        <ele>72.613176</ele>
        <time>2022-08-03T09:58:58.000Z</time>
      </trkpt>
      <trkpt lat="49.34711" lon="-0.77346">
        <ele>72.598284</ele>
        <time>2022-08-03T09:58:59.000Z</time>
      </trkpt>
      <trkpt lat="49.34713" lon="-0.77345">
        <ele>72.58347</ele>
        <time>2022-08-03T09:59:00.000Z</time>
      </trkpt>
      <trkpt lat="49.34715" lon="-0.77345">
        <ele>72.567946</ele>
        <time>2022-08-03T09:59:01.000Z</time>
      </trkpt>
      <trkpt lat="49.34719" lon="-0.77344">
        <ele>72.536079</ele>
        <time>2022-08-03T09:59:03.000Z</time>
      </trkpt>
      <trkpt lat="49.34721" lon="-0.77345">
        <ele>72.521367</ele>
        <time>2022-08-03T09:59:04.000Z</time>
      </trkpt>
      <trkpt lat="49.34723" lon="-0.77345">
        <ele>72.505714</ele>
        <time>2022-08-03T09:59:05.000Z</time>
      </trkpt>
      <trkpt lat="49.34726" lon="-0.77345">
        <ele>72.478658</ele>
        <time>2022-08-03T09:59:07.000Z</time>
      </trkpt>
      <trkpt lat="49.34729" lon="-0.77345">
        <ele>72.45598</ele>
        <time>2022-08-03T09:59:09.000Z</time>
      </trkpt>
      <trkpt lat="49.34733" lon="-0.77344">
        <ele>72.428924</ele>
        <time>2022-08-03T09:59:11.000Z</time>
      </trkpt>
      <trkpt lat="49.34734" lon="-0.77345">
        <ele>72.414213</ele>
        <time>2022-08-03T09:59:12.000Z</time>
      </trkpt>
      <trkpt lat="49.34737" lon="-0.77345">
        <ele>72.397218</ele>
        <time>2022-08-03T09:59:13.000Z</time>
      </trkpt>
      <trkpt lat="49.34739" lon="-0.77345">
        <ele>72.379451</ele>
        <time>2022-08-03T09:59:14.000Z</time>
      </trkpt>
      <trkpt lat="49.34741" lon="-0.77344">
        <ele>72.362426</ele>
        <time>2022-08-03T09:59:15.000Z</time>
      </trkpt>
      <trkpt lat="49.34745" lon="-0.77345">
        <ele>72.33537</ele>
        <time>2022-08-03T09:59:16.000Z</time>
      </trkpt>
      <trkpt lat="49.34747" lon="-0.77344">
        <ele>72.314979</ele>
        <time>2022-08-03T09:59:17.000Z</time>
      </trkpt>
      <trkpt lat="49.3475" lon="-0.77344">
        <ele>72.292526</ele>
        <time>2022-08-03T09:59:18.000Z</time>
      </trkpt>
      <trkpt lat="49.34753" lon="-0.77343">
        <ele>72.270073</ele>
        <time>2022-08-03T09:59:19.000Z</time>
      </trkpt>
      <trkpt lat="49.34755" lon="-0.77343">
        <ele>72.255258</ele>
        <time>2022-08-03T09:59:20.000Z</time>
      </trkpt>
      <trkpt lat="49.34758" lon="-0.77343">
        <ele>72.230492</ele>
        <time>2022-08-03T09:59:21.000Z</time>
      </trkpt>
      <trkpt lat="49.34761" lon="-0.77342">
        <ele>72.211154</ele>
        <time>2022-08-03T09:59:22.000Z</time>
      </trkpt>
      <trkpt lat="49.34764" lon="-0.77342">
        <ele>72.186429</ele>
        <time>2022-08-03T09:59:23.000Z</time>
      </trkpt>
      <trkpt lat="49.34767" lon="-0.77342">
        <ele>72.164004</ele>
        <time>2022-08-03T09:59:24.000Z</time>
      </trkpt>
      <trkpt lat="49.3477" lon="-0.77342">
        <ele>72.139264</ele>
        <time>2022-08-03T09:59:25.000Z</time>
      </trkpt>
      <trkpt lat="49.34773" lon="-0.77342">
        <ele>72.119154</ele>
        <time>2022-08-03T09:59:26.000Z</time>
      </trkpt>
      <trkpt lat="49.34775" lon="-0.77342">
        <ele>72.099679</ele>
        <time>2022-08-03T09:59:27.000Z</time>
      </trkpt>
      <trkpt lat="49.34778" lon="-0.77341">
        <ele>72.074831</ele>
        <time>2022-08-03T09:59:28.000Z</time>
      </trkpt>
      <trkpt lat="49.34781" lon="-0.7734">
        <ele>72.05207</ele>
        <time>2022-08-03T09:59:29.000Z</time>
      </trkpt>
      <trkpt lat="49.34784" lon="-0.7734">
        <ele>72.031679</ele>
        <time>2022-08-03T09:59:30.000Z</time>
      </trkpt>
      <trkpt lat="49.34786" lon="-0.77339">
        <ele>72.012048</ele>
        <time>2022-08-03T09:59:31.000Z</time>
      </trkpt>
      <trkpt lat="49.34789" lon="-0.77339">
        <ele>71.98964</ele>
        <time>2022-08-03T09:59:32.000Z</time>
      </trkpt>
      <trkpt lat="49.34794" lon="-0.77338">
        <ele>71.952506</ele>
        <time>2022-08-03T09:59:33.000Z</time>
      </trkpt>
      <trkpt lat="49.34798" lon="-0.77338">
        <ele>71.922274</ele>
        <time>2022-08-03T09:59:34.000Z</time>
      </trkpt>
      <trkpt lat="49.34801" lon="-0.77338">
        <ele>71.900591</ele>
        <time>2022-08-03T09:59:35.000Z</time>
      </trkpt>
      <trkpt lat="49.34805" lon="-0.77337">
        <ele>71.870359</ele>
        <time>2022-08-03T09:59:36.000Z</time>
      </trkpt>
      <trkpt lat="49.3481" lon="-0.77337">
        <ele>71.830882</ele>
        <time>2022-08-03T09:59:37.000Z</time>
      </trkpt>
      <trkpt lat="49.34814" lon="-0.77336">
        <ele>71.79834</ele>
        <time>2022-08-03T09:59:38.000Z</time>
      </trkpt>
      <trkpt lat="49.34818" lon="-0.77336">
        <ele>71.766568</ele>
        <time>2022-08-03T09:59:39.000Z</time>
      </trkpt>
      <trkpt lat="49.34821" lon="-0.77335">
        <ele>71.739489</ele>
        <time>2022-08-03T09:59:40.000Z</time>
      </trkpt>
      <trkpt lat="49.34826" lon="-0.77335">
        <ele>71.713485</ele>
        <time>2022-08-03T09:59:41.000Z</time>
      </trkpt>
      <trkpt lat="49.3483" lon="-0.77334">
        <ele>71.702436</ele>
        <time>2022-08-03T09:59:42.000Z</time>
      </trkpt>
      <trkpt lat="49.34834" lon="-0.77333">
        <ele>71.69439</ele>
        <time>2022-08-03T09:59:43.000Z</time>
      </trkpt>
      <trkpt lat="49.34837" lon="-0.77333">
        <ele>71.686371</ele>
        <time>2022-08-03T09:59:44.000Z</time>
      </trkpt>
      <trkpt lat="49.3484" lon="-0.77332">
        <ele>71.679685</ele>
        <time>2022-08-03T09:59:45.000Z</time>
      </trkpt>
      <trkpt lat="49.34844" lon="-0.77332">
        <ele>71.671621</ele>
        <time>2022-08-03T09:59:46.000Z</time>
      </trkpt>
      <trkpt lat="49.34847" lon="-0.77331">
        <ele>71.664953</ele>
        <time>2022-08-03T09:59:47.000Z</time>
      </trkpt>
      <trkpt lat="49.3485" lon="-0.77331">
        <ele>71.657636</ele>
        <time>2022-08-03T09:59:48.000Z</time>
      </trkpt>
      <trkpt lat="49.34852" lon="-0.77332">
        <ele>71.653204</ele>
        <time>2022-08-03T09:59:49.000Z</time>
      </trkpt>
      <trkpt lat="49.34854" lon="-0.77334">
        <ele>71.646272</ele>
        <time>2022-08-03T09:59:50.000Z</time>
      </trkpt>
      <trkpt lat="49.34856" lon="-0.77338">
        <ele>71.639716</ele>
        <time>2022-08-03T09:59:51.000Z</time>
      </trkpt>
      <trkpt lat="49.34858" lon="-0.77341">
        <ele>71.633459</ele>
        <time>2022-08-03T09:59:52.000Z</time>
      </trkpt>
      <trkpt lat="49.34859" lon="-0.77347">
        <ele>71.62496</ele>
        <time>2022-08-03T09:59:53.000Z</time>
      </trkpt>
      <trkpt lat="49.3486" lon="-0.77353">
        <ele>71.614904</ele>
        <time>2022-08-03T09:59:54.000Z</time>
      </trkpt>
      <trkpt lat="49.34861" lon="-0.77362">
        <ele>71.601473</ele>
        <time>2022-08-03T09:59:55.000Z</time>
      </trkpt>
      <trkpt lat="49.34862" lon="-0.7737">
        <ele>71.589787</ele>
        <time>2022-08-03T09:59:56.000Z</time>
      </trkpt>
      <trkpt lat="49.34864" lon="-0.77377">
        <ele>71.57804</ele>
        <time>2022-08-03T09:59:57.000Z</time>
      </trkpt>
      <trkpt lat="49.34864" lon="-0.77383">
        <ele>71.569005</ele>
        <time>2022-08-03T09:59:58.000Z</time>
      </trkpt>
      <trkpt lat="49.34866" lon="-0.7739">
        <ele>71.557992</ele>
        <time>2022-08-03T09:59:59.000Z</time>
      </trkpt>
      <trkpt lat="49.34868" lon="-0.77397">
        <ele>71.54737</ele>
        <time>2022-08-03T10:00:00.000Z</time>
      </trkpt>
      <trkpt lat="49.34869" lon="-0.77404">
        <ele>71.536609</ele>
        <time>2022-08-03T10:00:01.000Z</time>
      </trkpt>
      <trkpt lat="49.3487" lon="-0.77408">
        <ele>71.529813</ele>
        <time>2022-08-03T10:00:02.000Z</time>
      </trkpt>
      <trkpt lat="49.34872" lon="-0.77413">
        <ele>71.5218</ele>
        <time>2022-08-03T10:00:03.000Z</time>
      </trkpt>
      <trkpt lat="49.34873" lon="-0.77418">
        <ele>71.513925</ele>
        <time>2022-08-03T10:00:04.000Z</time>
      </trkpt>
      <trkpt lat="49.34874" lon="-0.77422">
        <ele>71.506549</ele>
        <time>2022-08-03T10:00:05.000Z</time>
      </trkpt>
      <trkpt lat="49.34876" lon="-0.77427">
        <ele>71.498656</ele>
        <time>2022-08-03T10:00:06.000Z</time>
      </trkpt>
      <trkpt lat="49.34877" lon="-0.77432">
        <ele>71.491056</ele>
        <time>2022-08-03T10:00:07.000Z</time>
      </trkpt>
      <trkpt lat="49.34878" lon="-0.77436">
        <ele>71.483593</ele>
        <time>2022-08-03T10:00:08.000Z</time>
      </trkpt>
      <trkpt lat="49.3488" lon="-0.77441">
        <ele>71.475718</ele>
        <time>2022-08-03T10:00:09.000Z</time>
      </trkpt>
      <trkpt lat="49.34881" lon="-0.77447">
        <ele>71.467023</ele>
        <time>2022-08-03T10:00:10.000Z</time>
      </trkpt>
      <trkpt lat="49.34883" lon="-0.77452">
        <ele>71.458057</ele>
        <time>2022-08-03T10:00:11.000Z</time>
      </trkpt>
      <trkpt lat="49.34884" lon="-0.77458">
        <ele>71.449617</ele>
        <time>2022-08-03T10:00:12.000Z</time>
      </trkpt>
      <trkpt lat="49.34885" lon="-0.77463">
        <ele>71.440379</ele>
        <time>2022-08-03T10:00:13.000Z</time>
      </trkpt>
      <trkpt lat="49.34887" lon="-0.77469">
        <ele>71.430347</ele>
        <time>2022-08-03T10:00:14.000Z</time>
      </trkpt>
      <trkpt lat="49.34889" lon="-0.77475">
        <ele>71.420972</ele>
        <time>2022-08-03T10:00:15.000Z</time>
      </trkpt>
      <trkpt lat="49.34891" lon="-0.77481">
        <ele>71.411042</ele>
        <time>2022-08-03T10:00:16.000Z</time>
      </trkpt>
      <trkpt lat="49.34892" lon="-0.77487">
        <ele>71.40163</ele>
        <time>2022-08-03T10:00:17.000Z</time>
      </trkpt>
      <trkpt lat="49.34894" lon="-0.77493">
        <ele>71.391432</ele>
        <time>2022-08-03T10:00:18.000Z</time>
      </trkpt>
      <trkpt lat="49.34896" lon="-0.775">
        <ele>71.381099</ele>
        <time>2022-08-03T10:00:19.000Z</time>
      </trkpt>
      <trkpt lat="49.34898" lon="-0.77506">
        <ele>71.370765</ele>
        <time>2022-08-03T10:00:20.000Z</time>
      </trkpt>
      <trkpt lat="49.349" lon="-0.77512">
        <ele>71.360161</ele>
        <time>2022-08-03T10:00:21.000Z</time>
      </trkpt>
      <trkpt lat="49.34902" lon="-0.77519">
        <ele>71.349864</ele>
        <time>2022-08-03T10:00:22.000Z</time>
      </trkpt>
      <trkpt lat="49.34903" lon="-0.77525">
        <ele>71.339242</ele>
        <time>2022-08-03T10:00:23.000Z</time>
      </trkpt>
      <trkpt lat="49.34905" lon="-0.77532">
        <ele>71.3289</ele>
        <time>2022-08-03T10:00:24.000Z</time>
      </trkpt>
      <trkpt lat="49.34906" lon="-0.77538">
        <ele>71.319415</ele>
        <time>2022-08-03T10:00:25.000Z</time>
      </trkpt>
      <trkpt lat="49.34908" lon="-0.77544">
        <ele>71.309212</ele>
        <time>2022-08-03T10:00:26.000Z</time>
      </trkpt>
      <trkpt lat="49.34909" lon="-0.7755">
        <ele>71.308009</ele>
        <time>2022-08-03T10:00:27.000Z</time>
      </trkpt>
      <trkpt lat="49.34911" lon="-0.77557">
        <ele>71.313055</ele>
        <time>2022-08-03T10:00:28.000Z</time>
      </trkpt>
      <trkpt lat="49.34912" lon="-0.77564">
        <ele>71.317948</ele>
        <time>2022-08-03T10:00:29.000Z</time>
      </trkpt>
      <trkpt lat="49.34913" lon="-0.7757">
        <ele>71.322749</ele>
        <time>2022-08-03T10:00:30.000Z</time>
      </trkpt>
      <trkpt lat="49.34914" lon="-0.77577">
        <ele>71.32793</ele>
        <time>2022-08-03T10:00:31.000Z</time>
      </trkpt>
      <trkpt lat="49.34915" lon="-0.77584">
        <ele>71.333044</ele>
        <time>2022-08-03T10:00:32.000Z</time>
      </trkpt>
      <trkpt lat="49.34916" lon="-0.77591">
        <ele>71.338007</ele>
        <time>2022-08-03T10:00:33.000Z</time>
      </trkpt>
      <trkpt lat="49.34917" lon="-0.77598">
        <ele>71.343086</ele>
        <time>2022-08-03T10:00:34.000Z</time>
      </trkpt>
      <trkpt lat="49.34918" lon="-0.77605">
        <ele>71.348049</ele>
        <time>2022-08-03T10:00:35.000Z</time>
      </trkpt>
      <trkpt lat="49.34919" lon="-0.77612">
        <ele>71.353163</ele>
        <time>2022-08-03T10:00:36.000Z</time>
      </trkpt>
      <trkpt lat="49.34921" lon="-0.77619">
        <ele>71.358385</ele>
        <time>2022-08-03T10:00:37.000Z</time>
      </trkpt>
      <trkpt lat="49.34921" lon="-0.77626">
        <ele>71.363742</ele>
        <time>2022-08-03T10:00:38.000Z</time>
      </trkpt>
      <trkpt lat="49.34922" lon="-0.77634">
        <ele>71.369121</ele>
        <time>2022-08-03T10:00:39.000Z</time>
      </trkpt>
      <trkpt lat="49.34923" lon="-0.77641">
        <ele>71.374303</ele>
        <time>2022-08-03T10:00:40.000Z</time>
      </trkpt>
      <trkpt lat="49.34923" lon="-0.77648">
        <ele>71.379298</ele>
        <time>2022-08-03T10:00:41.000Z</time>
      </trkpt>
      <trkpt lat="49.34924" lon="-0.77655">
        <ele>71.384324</ele>
        <time>2022-08-03T10:00:42.000Z</time>
      </trkpt>
      <trkpt lat="49.34924" lon="-0.77662">
        <ele>71.389326</ele>
        <time>2022-08-03T10:00:43.000Z</time>
      </trkpt>
      <trkpt lat="49.34925" lon="-0.77669">
        <ele>71.394546</ele>
        <time>2022-08-03T10:00:44.000Z</time>
      </trkpt>
      <trkpt lat="49.34926" lon="-0.77676">
        <ele>71.399377</ele>
        <time>2022-08-03T10:00:45.000Z</time>
      </trkpt>
      <trkpt lat="49.34927" lon="-0.77683">
        <ele>71.404456</ele>
        <time>2022-08-03T10:00:46.000Z</time>
      </trkpt>
      <trkpt lat="49.34927" lon="-0.7769">
        <ele>71.40945</ele>
        <time>2022-08-03T10:00:47.000Z</time>
      </trkpt>
      <trkpt lat="49.34927" lon="-0.77697">
        <ele>71.414311</ele>
        <time>2022-08-03T10:00:48.000Z</time>
      </trkpt>
      <trkpt lat="49.34928" lon="-0.77703">
        <ele>71.419163</ele>
        <time>2022-08-03T10:00:49.000Z</time>
      </trkpt>
      <trkpt lat="49.34928" lon="-0.7771">
        <ele>71.423944</ele>
        <time>2022-08-03T10:00:50.000Z</time>
      </trkpt>
      <trkpt lat="49.34929" lon="-0.77717">
        <ele>71.428618</ele>
        <time>2022-08-03T10:00:51.000Z</time>
      </trkpt>
      <trkpt lat="49.34929" lon="-0.77723">
        <ele>71.433449</ele>
        <time>2022-08-03T10:00:52.000Z</time>
      </trkpt>
      <trkpt lat="49.3493" lon="-0.7773">
        <ele>71.438088</ele>
        <time>2022-08-03T10:00:53.000Z</time>
      </trkpt>
      <trkpt lat="49.34931" lon="-0.77736">
        <ele>71.442912</ele>
        <time>2022-08-03T10:00:54.000Z</time>
      </trkpt>
      <trkpt lat="49.34931" lon="-0.77743">
        <ele>71.447585</ele>
        <time>2022-08-03T10:00:55.000Z</time>
      </trkpt>
      <trkpt lat="49.34932" lon="-0.7775">
        <ele>71.452366</ele>
        <time>2022-08-03T10:00:56.000Z</time>
      </trkpt>
      <trkpt lat="49.34933" lon="-0.77756">
        <ele>71.45726</ele>
        <time>2022-08-03T10:00:57.000Z</time>
      </trkpt>
      <trkpt lat="49.34933" lon="-0.77763">
        <ele>71.461958</ele>
        <time>2022-08-03T10:00:58.000Z</time>
      </trkpt>
      <trkpt lat="49.34933" lon="-0.77769">
        <ele>71.466632</ele>
        <time>2022-08-03T10:00:59.000Z</time>
      </trkpt>
      <trkpt lat="49.34934" lon="-0.77775">
        <ele>71.470972</ele>
        <time>2022-08-03T10:01:00.000Z</time>
      </trkpt>
      <trkpt lat="49.34934" lon="-0.7778">
        <ele>71.474546</ele>
        <time>2022-08-03T10:01:01.000Z</time>
      </trkpt>
      <trkpt lat="49.34935" lon="-0.77788">
        <ele>71.479765</ele>
        <time>2022-08-03T10:01:02.000Z</time>
      </trkpt>
      <trkpt lat="49.34935" lon="-0.77793">
        <ele>71.483918</ele>
        <time>2022-08-03T10:01:03.000Z</time>
      </trkpt>
      <trkpt lat="49.34936" lon="-0.77799">
        <ele>71.487888</ele>
        <time>2022-08-03T10:01:04.000Z</time>
      </trkpt>
      <trkpt lat="49.34937" lon="-0.77804">
        <ele>71.491858</ele>
        <time>2022-08-03T10:01:05.000Z</time>
      </trkpt>
      <trkpt lat="49.34937" lon="-0.7781">
        <ele>71.495638</ele>
        <time>2022-08-03T10:01:06.000Z</time>
      </trkpt>
      <trkpt lat="49.34938" lon="-0.77814">
        <ele>71.499</ele>
        <time>2022-08-03T10:01:07.000Z</time>
      </trkpt>
      <trkpt lat="49.34938" lon="-0.77819">
        <ele>71.497665</ele>
        <time>2022-08-03T10:01:08.000Z</time>
      </trkpt>
      <trkpt lat="49.34939" lon="-0.77823">
        <ele>71.467268</ele>
        <time>2022-08-03T10:01:09.000Z</time>
      </trkpt>
      <trkpt lat="49.34939" lon="-0.77827">
        <ele>71.44248</ele>
        <time>2022-08-03T10:01:10.000Z</time>
      </trkpt>
      <trkpt lat="49.3494" lon="-0.77831">
        <ele>71.415705</ele>
        <time>2022-08-03T10:01:11.000Z</time>
      </trkpt>
      <trkpt lat="49.3494" lon="-0.77834">
        <ele>71.393971</ele>
        <time>2022-08-03T10:01:12.000Z</time>
      </trkpt>
      <trkpt lat="49.34941" lon="-0.77837">
        <ele>71.372567</ele>
        <time>2022-08-03T10:01:13.000Z</time>
      </trkpt>
      <trkpt lat="49.34944" lon="-0.77841">
        <ele>71.335222</ele>
        <time>2022-08-03T10:01:15.000Z</time>
      </trkpt>
      <trkpt lat="49.34946" lon="-0.77842">
        <ele>71.312725</ele>
        <time>2022-08-03T10:01:16.000Z</time>
      </trkpt>
      <trkpt lat="49.34949" lon="-0.77842">
        <ele>71.283686</ele>
        <time>2022-08-03T10:01:17.000Z</time>
      </trkpt>
      <trkpt lat="49.34952" lon="-0.77841">
        <ele>71.254291</ele>
        <time>2022-08-03T10:01:18.000Z</time>
      </trkpt>
      <trkpt lat="49.34955" lon="-0.7784">
        <ele>71.225071</ele>
        <time>2022-08-03T10:01:19.000Z</time>
      </trkpt>
      <trkpt lat="49.34957" lon="-0.7784">
        <ele>71.196845</ele>
        <time>2022-08-03T10:01:20.000Z</time>
      </trkpt>
      <trkpt lat="49.34961" lon="-0.77839">
        <ele>71.164564</ele>
        <time>2022-08-03T10:01:21.000Z</time>
      </trkpt>
      <trkpt lat="49.34965" lon="-0.77838">
        <ele>71.124736</ele>
        <time>2022-08-03T10:01:22.000Z</time>
      </trkpt>
      <trkpt lat="49.34969" lon="-0.77837">
        <ele>71.078886</ele>
        <time>2022-08-03T10:01:23.000Z</time>
      </trkpt>
      <trkpt lat="49.34973" lon="-0.77835">
        <ele>71.036002</ele>
        <time>2022-08-03T10:01:24.000Z</time>
      </trkpt>
      <trkpt lat="49.34978" lon="-0.77833">
        <ele>70.983879</ele>
        <time>2022-08-03T10:01:25.000Z</time>
      </trkpt>
      <trkpt lat="49.34983" lon="-0.77831">
        <ele>70.937146</ele>
        <time>2022-08-03T10:01:26.000Z</time>
      </trkpt>
      <trkpt lat="49.34987" lon="-0.7783">
        <ele>70.890582</ele>
        <time>2022-08-03T10:01:27.000Z</time>
      </trkpt>
      <trkpt lat="49.34992" lon="-0.77828">
        <ele>70.844179</ele>
        <time>2022-08-03T10:01:28.000Z</time>
      </trkpt>
      <trkpt lat="49.34997" lon="-0.77826">
        <ele>70.794702</ele>
        <time>2022-08-03T10:01:29.000Z</time>
      </trkpt>
      <trkpt lat="49.35001" lon="-0.77824">
        <ele>70.748138</ele>
        <time>2022-08-03T10:01:30.000Z</time>
      </trkpt>
      <trkpt lat="49.35006" lon="-0.77822">
        <ele>70.695589</ele>
        <time>2022-08-03T10:01:31.000Z</time>
      </trkpt>
      <trkpt lat="49.35011" lon="-0.77821">
        <ele>70.646405</ele>
        <time>2022-08-03T10:01:32.000Z</time>
      </trkpt>
      <trkpt lat="49.35016" lon="-0.7782">
        <ele>70.594742</ele>
        <time>2022-08-03T10:01:33.000Z</time>
      </trkpt>
      <trkpt lat="49.35021" lon="-0.77818">
        <ele>70.548178</ele>
        <time>2022-08-03T10:01:34.000Z</time>
      </trkpt>
      <trkpt lat="49.35025" lon="-0.77816">
        <ele>70.502202</ele>
        <time>2022-08-03T10:01:35.000Z</time>
      </trkpt>
      <trkpt lat="49.3503" lon="-0.77816">
        <ele>70.44799</ele>
        <time>2022-08-03T10:01:36.000Z</time>
      </trkpt>
      <trkpt lat="49.35035" lon="-0.77814">
        <ele>70.398664</ele>
        <time>2022-08-03T10:01:37.000Z</time>
      </trkpt>
      <trkpt lat="49.3504" lon="-0.77812">
        <ele>70.349187</ele>
        <time>2022-08-03T10:01:38.000Z</time>
      </trkpt>
      <trkpt lat="49.35045" lon="-0.77811">
        <ele>70.300138</ele>
        <time>2022-08-03T10:01:39.000Z</time>
      </trkpt>
      <trkpt lat="49.3505" lon="-0.77809">
        <ele>70.248142</ele>
        <time>2022-08-03T10:01:40.000Z</time>
      </trkpt>
      <trkpt lat="49.35055" lon="-0.77808">
        <ele>70.199093</ele>
        <time>2022-08-03T10:01:41.000Z</time>
      </trkpt>
      <trkpt lat="49.3506" lon="-0.77806">
        <ele>70.147216</ele>
        <time>2022-08-03T10:01:42.000Z</time>
      </trkpt>
      <trkpt lat="49.35065" lon="-0.77805">
        <ele>70.098167</ele>
        <time>2022-08-03T10:01:43.000Z</time>
      </trkpt>
      <trkpt lat="49.3507" lon="-0.77803">
        <ele>70.045187</ele>
        <time>2022-08-03T10:01:44.000Z</time>
      </trkpt>
      <trkpt lat="49.35075" lon="-0.77802">
        <ele>69.993064</ele>
        <time>2022-08-03T10:01:45.000Z</time>
      </trkpt>
      <trkpt lat="49.3508" lon="-0.778">
        <ele>69.941068</ele>
        <time>2022-08-03T10:01:46.000Z</time>
      </trkpt>
      <trkpt lat="49.35085" lon="-0.77799">
        <ele>69.894959</ele>
        <time>2022-08-03T10:01:47.000Z</time>
      </trkpt>
      <trkpt lat="49.3509" lon="-0.77797">
        <ele>69.842962</ele>
        <time>2022-08-03T10:01:48.000Z</time>
      </trkpt>
      <trkpt lat="49.35094" lon="-0.77796">
        <ele>69.794039</ele>
        <time>2022-08-03T10:01:49.000Z</time>
      </trkpt>
      <trkpt lat="49.351" lon="-0.77795">
        <ele>69.742557</ele>
        <time>2022-08-03T10:01:50.000Z</time>
      </trkpt>
      <trkpt lat="49.35104" lon="-0.77794">
        <ele>69.697272</ele>
        <time>2022-08-03T10:01:51.000Z</time>
      </trkpt>
      <trkpt lat="49.35109" lon="-0.77793">
        <ele>69.669626</ele>
        <time>2022-08-03T10:01:52.000Z</time>
      </trkpt>
      <trkpt lat="49.35114" lon="-0.77792">
        <ele>69.645004</ele>
        <time>2022-08-03T10:01:53.000Z</time>
      </trkpt>
      <trkpt lat="49.35118" lon="-0.77791">
        <ele>69.620444</ele>
        <time>2022-08-03T10:01:54.000Z</time>
      </trkpt>
      <trkpt lat="49.35123" lon="-0.7779">
        <ele>69.597687</ele>
        <time>2022-08-03T10:01:55.000Z</time>
      </trkpt>
      <trkpt lat="49.35126" lon="-0.7779">
        <ele>69.577227</ele>
        <time>2022-08-03T10:01:56.000Z</time>
      </trkpt>
      <trkpt lat="49.3513" lon="-0.77792">
        <ele>69.557145</ele>
        <time>2022-08-03T10:01:57.000Z</time>
      </trkpt>
      <trkpt lat="49.35132" lon="-0.77796">
        <ele>69.539731</ele>
        <time>2022-08-03T10:01:58.000Z</time>
      </trkpt>
      <trkpt lat="49.35133" lon="-0.778">
        <ele>69.522699</ele>
        <time>2022-08-03T10:01:59.000Z</time>
      </trkpt>
      <trkpt lat="49.35134" lon="-0.77805">
        <ele>69.505054</ele>
        <time>2022-08-03T10:02:00.000Z</time>
      </trkpt>
      <trkpt lat="49.35134" lon="-0.77811">
        <ele>69.48552</ele>
        <time>2022-08-03T10:02:01.000Z</time>
      </trkpt>
      <trkpt lat="49.35134" lon="-0.77816">
        <ele>69.465554</ele>
        <time>2022-08-03T10:02:02.000Z</time>
      </trkpt>
      <trkpt lat="49.35135" lon="-0.77822">
        <ele>69.44386</ele>
        <time>2022-08-03T10:02:03.000Z</time>
      </trkpt>
      <trkpt lat="49.35136" lon="-0.77828">
        <ele>69.422433</ele>
        <time>2022-08-03T10:02:04.000Z</time>
      </trkpt>
      <trkpt lat="49.35136" lon="-0.77835">
        <ele>69.400477</ele>
        <time>2022-08-03T10:02:05.000Z</time>
      </trkpt>
      <trkpt lat="49.35137" lon="-0.77841">
        <ele>69.378351</ele>
        <time>2022-08-03T10:02:06.000Z</time>
      </trkpt>
      <trkpt lat="49.35138" lon="-0.77847">
        <ele>69.355297</ele>
        <time>2022-08-03T10:02:07.000Z</time>
      </trkpt>
      <trkpt lat="49.35139" lon="-0.77853">
        <ele>69.333603</ele>
        <time>2022-08-03T10:02:08.000Z</time>
      </trkpt>
      <trkpt lat="49.3514" lon="-0.77859">
        <ele>69.311619</ele>
        <time>2022-08-03T10:02:09.000Z</time>
      </trkpt>
      <trkpt lat="49.35141" lon="-0.77865">
        <ele>69.288909</ele>
        <time>2022-08-03T10:02:10.000Z</time>
      </trkpt>
      <trkpt lat="49.35143" lon="-0.77871">
        <ele>69.265301</ele>
        <time>2022-08-03T10:02:11.000Z</time>
      </trkpt>
      <trkpt lat="49.35145" lon="-0.77877">
        <ele>69.241932</ele>
        <time>2022-08-03T10:02:12.000Z</time>
      </trkpt>
      <trkpt lat="49.35148" lon="-0.77883">
        <ele>69.216688</ele>
        <time>2022-08-03T10:02:13.000Z</time>
      </trkpt>
      <trkpt lat="49.3515" lon="-0.7789">
        <ele>69.19086</ele>
        <time>2022-08-03T10:02:14.000Z</time>
      </trkpt>
      <trkpt lat="49.35153" lon="-0.77896">
        <ele>69.164125</ele>
        <time>2022-08-03T10:02:15.000Z</time>
      </trkpt>
      <trkpt lat="49.35156" lon="-0.77902">
        <ele>69.138285</ele>
        <time>2022-08-03T10:02:16.000Z</time>
      </trkpt>
      <trkpt lat="49.35158" lon="-0.77908">
        <ele>69.113043</ele>
        <time>2022-08-03T10:02:17.000Z</time>
      </trkpt>
      <trkpt lat="49.35161" lon="-0.77914">
        <ele>69.087801</ele>
        <time>2022-08-03T10:02:18.000Z</time>
      </trkpt>
      <trkpt lat="49.35164" lon="-0.77921">
        <ele>69.061361</ele>
        <time>2022-08-03T10:02:19.000Z</time>
      </trkpt>
      <trkpt lat="49.35165" lon="-0.77927">
        <ele>69.037043</ele>
        <time>2022-08-03T10:02:20.000Z</time>
      </trkpt>
      <trkpt lat="49.35167" lon="-0.77934">
        <ele>69.011228</ele>
        <time>2022-08-03T10:02:21.000Z</time>
      </trkpt>
      <trkpt lat="49.35169" lon="-0.77941">
        <ele>68.985243</ele>
        <time>2022-08-03T10:02:22.000Z</time>
      </trkpt>
      <trkpt lat="49.3517" lon="-0.77948">
        <ele>68.960513</ele>
        <time>2022-08-03T10:02:23.000Z</time>
      </trkpt>
      <trkpt lat="49.3517" lon="-0.77955">
        <ele>68.935087</ele>
        <time>2022-08-03T10:02:24.000Z</time>
      </trkpt>
      <trkpt lat="49.35172" lon="-0.77962">
        <ele>68.909591</ele>
        <time>2022-08-03T10:02:25.000Z</time>
      </trkpt>
      <trkpt lat="49.35173" lon="-0.77969">
        <ele>68.884095</ele>
        <time>2022-08-03T10:02:26.000Z</time>
      </trkpt>
      <trkpt lat="49.35174" lon="-0.77976">
        <ele>68.858993</ele>
        <time>2022-08-03T10:02:27.000Z</time>
      </trkpt>
      <trkpt lat="49.35175" lon="-0.77983">
        <ele>68.834</ele>
        <time>2022-08-03T10:02:28.000Z</time>
      </trkpt>
      <trkpt lat="49.35175" lon="-0.7799">
        <ele>68.808848</ele>
        <time>2022-08-03T10:02:29.000Z</time>
      </trkpt>
      <trkpt lat="49.35176" lon="-0.77997">
        <ele>68.782135</ele>
        <time>2022-08-03T10:02:30.000Z</time>
      </trkpt>
      <trkpt lat="49.35177" lon="-0.78005">
        <ele>68.754633</ele>
        <time>2022-08-03T10:02:31.000Z</time>
      </trkpt>
      <trkpt lat="49.35178" lon="-0.78013">
        <ele>68.734002</ele>
        <time>2022-08-03T10:02:32.000Z</time>
      </trkpt>
      <trkpt lat="49.35178" lon="-0.7802">
        <ele>68.73566</ele>
        <time>2022-08-03T10:02:33.000Z</time>
      </trkpt>
      <trkpt lat="49.35178" lon="-0.78028">
        <ele>68.737297</ele>
        <time>2022-08-03T10:02:34.000Z</time>
      </trkpt>
      <trkpt lat="49.35179" lon="-0.78036">
        <ele>68.738988</ele>
        <time>2022-08-03T10:02:35.000Z</time>
      </trkpt>
      <trkpt lat="49.35179" lon="-0.78043">
        <ele>68.74056</ele>
        <time>2022-08-03T10:02:36.000Z</time>
      </trkpt>
      <trkpt lat="49.35179" lon="-0.7805">
        <ele>68.742111</ele>
        <time>2022-08-03T10:02:37.000Z</time>
      </trkpt>
      <trkpt lat="49.35179" lon="-0.78057">
        <ele>68.743618</ele>
        <time>2022-08-03T10:02:38.000Z</time>
      </trkpt>
      <trkpt lat="49.35179" lon="-0.78064">
        <ele>68.745172</ele>
        <time>2022-08-03T10:02:39.000Z</time>
      </trkpt>
      <trkpt lat="49.35179" lon="-0.78071">
        <ele>68.746701</ele>
        <time>2022-08-03T10:02:40.000Z</time>
      </trkpt>
      <trkpt lat="49.35179" lon="-0.78079">
        <ele>68.748252</ele>
        <time>2022-08-03T10:02:41.000Z</time>
      </trkpt>
      <trkpt lat="49.3518" lon="-0.78086">
        <ele>68.749806</ele>
        <time>2022-08-03T10:02:42.000Z</time>
      </trkpt>
      <trkpt lat="49.3518" lon="-0.78093">
        <ele>68.751378</ele>
        <time>2022-08-03T10:02:43.000Z</time>
      </trkpt>
      <trkpt lat="49.3518" lon="-0.78101">
        <ele>68.752996</ele>
        <time>2022-08-03T10:02:44.000Z</time>
      </trkpt>
      <trkpt lat="49.3518" lon="-0.78108">
        <ele>68.754614</ele>
        <time>2022-08-03T10:02:45.000Z</time>
      </trkpt>
      <trkpt lat="49.3518" lon="-0.78115">
        <ele>68.756186</ele>
        <time>2022-08-03T10:02:46.000Z</time>
      </trkpt>
      <trkpt lat="49.3518" lon="-0.78123">
        <ele>68.75778</ele>
        <time>2022-08-03T10:02:47.000Z</time>
      </trkpt>
      <trkpt lat="49.3518" lon="-0.7813">
        <ele>68.759309</ele>
        <time>2022-08-03T10:02:48.000Z</time>
      </trkpt>
      <trkpt lat="49.35179" lon="-0.78137">
        <ele>68.760906</ele>
        <time>2022-08-03T10:02:49.000Z</time>
      </trkpt>
      <trkpt lat="49.35179" lon="-0.78145">
        <ele>68.762481</ele>
        <time>2022-08-03T10:02:50.000Z</time>
      </trkpt>
      <trkpt lat="49.35178" lon="-0.78152">
        <ele>68.764049</ele>
        <time>2022-08-03T10:02:51.000Z</time>
      </trkpt>
      <trkpt lat="49.35178" lon="-0.78159">
        <ele>68.765581</ele>
        <time>2022-08-03T10:02:52.000Z</time>
      </trkpt>
      <trkpt lat="49.35177" lon="-0.78166">
        <ele>68.767145</ele>
        <time>2022-08-03T10:02:53.000Z</time>
      </trkpt>
      <trkpt lat="49.35176" lon="-0.78173">
        <ele>68.76873</ele>
        <time>2022-08-03T10:02:54.000Z</time>
      </trkpt>
      <trkpt lat="49.35176" lon="-0.7818">
        <ele>68.770263</ele>
        <time>2022-08-03T10:02:55.000Z</time>
      </trkpt>
      <trkpt lat="49.35176" lon="-0.78188">
        <ele>68.771859</ele>
        <time>2022-08-03T10:02:56.000Z</time>
      </trkpt>
      <trkpt lat="49.35175" lon="-0.78195">
        <ele>68.773478</ele>
        <time>2022-08-03T10:02:57.000Z</time>
      </trkpt>
      <trkpt lat="49.35175" lon="-0.78203">
        <ele>68.775093</ele>
        <time>2022-08-03T10:02:58.000Z</time>
      </trkpt>
      <trkpt lat="49.35175" lon="-0.7821">
        <ele>68.776708</ele>
        <time>2022-08-03T10:02:59.000Z</time>
      </trkpt>
      <trkpt lat="49.35175" lon="-0.78218">
        <ele>68.778329</ele>
        <time>2022-08-03T10:03:00.000Z</time>
      </trkpt>
      <trkpt lat="49.35175" lon="-0.78225">
        <ele>68.779947</ele>
        <time>2022-08-03T10:03:01.000Z</time>
      </trkpt>
      <trkpt lat="49.35175" lon="-0.78232">
        <ele>68.781455</ele>
        <time>2022-08-03T10:03:02.000Z</time>
      </trkpt>
      <trkpt lat="49.35174" lon="-0.7824">
        <ele>68.783103</ele>
        <time>2022-08-03T10:03:03.000Z</time>
      </trkpt>
      <trkpt lat="49.35173" lon="-0.78248">
        <ele>68.784778</ele>
        <time>2022-08-03T10:03:04.000Z</time>
      </trkpt>
      <trkpt lat="49.35173" lon="-0.78255">
        <ele>68.786439</ele>
        <time>2022-08-03T10:03:05.000Z</time>
      </trkpt>
      <trkpt lat="49.35173" lon="-0.78263">
        <ele>68.788057</ele>
        <time>2022-08-03T10:03:06.000Z</time>
      </trkpt>
      <trkpt lat="49.35172" lon="-0.7827">
        <ele>68.789685</ele>
        <time>2022-08-03T10:03:07.000Z</time>
      </trkpt>
      <trkpt lat="49.35172" lon="-0.78278">
        <ele>68.791338</ele>
        <time>2022-08-03T10:03:08.000Z</time>
      </trkpt>
      <trkpt lat="49.35172" lon="-0.78285">
        <ele>68.792888</ele>
        <time>2022-08-03T10:03:09.000Z</time>
      </trkpt>
      <trkpt lat="49.35172" lon="-0.78292">
        <ele>68.792083</ele>
        <time>2022-08-03T10:03:10.000Z</time>
      </trkpt>
      <trkpt lat="49.3517" lon="-0.783">
        <ele>68.790768</ele>
        <time>2022-08-03T10:03:11.000Z</time>
      </trkpt>
      <trkpt lat="49.3517" lon="-0.78307">
        <ele>68.789539</ele>
        <time>2022-08-03T10:03:12.000Z</time>
      </trkpt>
      <trkpt lat="49.35169" lon="-0.78314">
        <ele>68.788378</ele>
        <time>2022-08-03T10:03:13.000Z</time>
      </trkpt>
      <trkpt lat="49.35168" lon="-0.78321">
        <ele>68.787145</ele>
        <time>2022-08-03T10:03:14.000Z</time>
      </trkpt>
      <trkpt lat="49.35167" lon="-0.78328">
        <ele>68.785963</ele>
        <time>2022-08-03T10:03:15.000Z</time>
      </trkpt>
      <trkpt lat="49.35166" lon="-0.78335">
        <ele>68.784755</ele>
        <time>2022-08-03T10:03:16.000Z</time>
      </trkpt>
      <trkpt lat="49.35165" lon="-0.78342">
        <ele>68.783589</ele>
        <time>2022-08-03T10:03:17.000Z</time>
      </trkpt>
      <trkpt lat="49.35164" lon="-0.78348">
        <ele>68.782396</ele>
        <time>2022-08-03T10:03:18.000Z</time>
      </trkpt>
      <trkpt lat="49.35164" lon="-0.78355">
        <ele>68.781197</ele>
        <time>2022-08-03T10:03:19.000Z</time>
      </trkpt>
      <trkpt lat="49.35162" lon="-0.78363">
        <ele>68.779932</ele>
        <time>2022-08-03T10:03:20.000Z</time>
      </trkpt>
      <trkpt lat="49.35162" lon="-0.7837">
        <ele>68.778652</ele>
        <time>2022-08-03T10:03:21.000Z</time>
      </trkpt>
      <trkpt lat="49.3516" lon="-0.78377">
        <ele>68.777371</ele>
        <time>2022-08-03T10:03:22.000Z</time>
      </trkpt>
      <trkpt lat="49.3516" lon="-0.78385">
        <ele>68.776108</ele>
        <time>2022-08-03T10:03:23.000Z</time>
      </trkpt>
      <trkpt lat="49.35158" lon="-0.78392">
        <ele>68.774827</ele>
        <time>2022-08-03T10:03:24.000Z</time>
      </trkpt>
      <trkpt lat="49.35158" lon="-0.784">
        <ele>68.773547</ele>
        <time>2022-08-03T10:03:25.000Z</time>
      </trkpt>
      <trkpt lat="49.35157" lon="-0.78407">
        <ele>68.772231</ele>
        <time>2022-08-03T10:03:26.000Z</time>
      </trkpt>
      <trkpt lat="49.35156" lon="-0.78415">
        <ele>68.77094</ele>
        <time>2022-08-03T10:03:27.000Z</time>
      </trkpt>
      <trkpt lat="49.35155" lon="-0.78422">
        <ele>68.769658</ele>
        <time>2022-08-03T10:03:28.000Z</time>
      </trkpt>
      <trkpt lat="49.35153" lon="-0.7843">
        <ele>68.76829</ele>
        <time>2022-08-03T10:03:29.000Z</time>
      </trkpt>
      <trkpt lat="49.35152" lon="-0.78437">
        <ele>68.766959</ele>
        <time>2022-08-03T10:03:30.000Z</time>
      </trkpt>
      <trkpt lat="49.3515" lon="-0.78445">
        <ele>68.765623</ele>
        <time>2022-08-03T10:03:31.000Z</time>
      </trkpt>
      <trkpt lat="49.3515" lon="-0.78452">
        <ele>68.764344</ele>
        <time>2022-08-03T10:03:32.000Z</time>
      </trkpt>
      <trkpt lat="49.35149" lon="-0.7846">
        <ele>68.76303</ele>
        <time>2022-08-03T10:03:33.000Z</time>
      </trkpt>
      <trkpt lat="49.35147" lon="-0.78467">
        <ele>68.761716</ele>
        <time>2022-08-03T10:03:34.000Z</time>
      </trkpt>
      <trkpt lat="49.35146" lon="-0.78475">
        <ele>68.760386</ele>
        <time>2022-08-03T10:03:35.000Z</time>
      </trkpt>
      <trkpt lat="49.35146" lon="-0.78483">
        <ele>68.759056</ele>
        <time>2022-08-03T10:03:36.000Z</time>
      </trkpt>
      <trkpt lat="49.35144" lon="-0.7849">
        <ele>68.757742</ele>
        <time>2022-08-03T10:03:37.000Z</time>
      </trkpt>
      <trkpt lat="49.35144" lon="-0.78498">
        <ele>68.756513</ele>
        <time>2022-08-03T10:03:38.000Z</time>
      </trkpt>
      <trkpt lat="49.35142" lon="-0.78505">
        <ele>68.755177</ele>
        <time>2022-08-03T10:03:39.000Z</time>
      </trkpt>
      <trkpt lat="49.35141" lon="-0.78512">
        <ele>68.75393</ele>
        <time>2022-08-03T10:03:40.000Z</time>
      </trkpt>
      <trkpt lat="49.3514" lon="-0.78519">
        <ele>68.752681</ele>
        <time>2022-08-03T10:03:41.000Z</time>
      </trkpt>
      <trkpt lat="49.35139" lon="-0.78527">
        <ele>68.75139</ele>
        <time>2022-08-03T10:03:42.000Z</time>
      </trkpt>
      <trkpt lat="49.35138" lon="-0.78534">
        <ele>68.750107</ele>
        <time>2022-08-03T10:03:43.000Z</time>
      </trkpt>
      <trkpt lat="49.35137" lon="-0.78542">
        <ele>68.748826</ele>
        <time>2022-08-03T10:03:44.000Z</time>
      </trkpt>
      <trkpt lat="49.35136" lon="-0.78549">
        <ele>68.747618</ele>
        <time>2022-08-03T10:03:45.000Z</time>
      </trkpt>
      <trkpt lat="49.35135" lon="-0.78556">
        <ele>68.746419</ele>
        <time>2022-08-03T10:03:46.000Z</time>
      </trkpt>
      <trkpt lat="49.35134" lon="-0.78563">
        <ele>68.703184</ele>
        <time>2022-08-03T10:03:47.000Z</time>
      </trkpt>
      <trkpt lat="49.35133" lon="-0.7857">
        <ele>68.65822</ele>
        <time>2022-08-03T10:03:48.000Z</time>
      </trkpt>
      <trkpt lat="49.35133" lon="-0.78577">
        <ele>68.612945</ele>
        <time>2022-08-03T10:03:49.000Z</time>
      </trkpt>
      <trkpt lat="49.35132" lon="-0.78585">
        <ele>68.566891</ele>
        <time>2022-08-03T10:03:50.000Z</time>
      </trkpt>
      <trkpt lat="49.3513" lon="-0.78592">
        <ele>68.519597</ele>
        <time>2022-08-03T10:03:51.000Z</time>
      </trkpt>
      <trkpt lat="49.35129" lon="-0.786">
        <ele>68.472525</ele>
        <time>2022-08-03T10:03:52.000Z</time>
      </trkpt>
      <trkpt lat="49.35127" lon="-0.78608">
        <ele>68.422349</ele>
        <time>2022-08-03T10:03:53.000Z</time>
      </trkpt>
      <trkpt lat="49.35125" lon="-0.78614">
        <ele>68.377273</ele>
        <time>2022-08-03T10:03:54.000Z</time>
      </trkpt>
      <trkpt lat="49.35121" lon="-0.78619">
        <ele>68.329651</ele>
        <time>2022-08-03T10:03:55.000Z</time>
      </trkpt>
      <trkpt lat="49.35117" lon="-0.78623">
        <ele>68.281007</ele>
        <time>2022-08-03T10:03:56.000Z</time>
      </trkpt>
      <trkpt lat="49.35112" lon="-0.78626">
        <ele>68.232526</ele>
        <time>2022-08-03T10:03:57.000Z</time>
      </trkpt>
      <trkpt lat="49.35106" lon="-0.78629">
        <ele>68.173303</ele>
        <time>2022-08-03T10:03:58.000Z</time>
      </trkpt>
      <trkpt lat="49.35099" lon="-0.78632">
        <ele>68.105316</ele>
        <time>2022-08-03T10:03:59.000Z</time>
      </trkpt>
      <trkpt lat="49.35092" lon="-0.78636">
        <ele>68.038708</ele>
        <time>2022-08-03T10:04:00.000Z</time>
      </trkpt>
      <trkpt lat="49.35086" lon="-0.7864">
        <ele>67.972339</ele>
        <time>2022-08-03T10:04:01.000Z</time>
      </trkpt>
      <trkpt lat="49.35079" lon="-0.78645">
        <ele>67.901807</ele>
        <time>2022-08-03T10:04:02.000Z</time>
      </trkpt>
      <trkpt lat="49.35072" lon="-0.7865">
        <ele>67.832641</ele>
        <time>2022-08-03T10:04:03.000Z</time>
      </trkpt>
      <trkpt lat="49.35065" lon="-0.78654">
        <ele>67.755991</ele>
        <time>2022-08-03T10:04:04.000Z</time>
      </trkpt>
      <trkpt lat="49.35057" lon="-0.78659">
        <ele>67.675417</ele>
        <time>2022-08-03T10:04:05.000Z</time>
      </trkpt>
      <trkpt lat="49.3505" lon="-0.78665">
        <ele>67.604341</ele>
        <time>2022-08-03T10:04:06.000Z</time>
      </trkpt>
      <trkpt lat="49.35044" lon="-0.78671">
        <ele>67.534877</ele>
        <time>2022-08-03T10:04:07.000Z</time>
      </trkpt>
      <trkpt lat="49.35038" lon="-0.78677">
        <ele>67.472158</ele>
        <time>2022-08-03T10:04:08.000Z</time>
      </trkpt>
      <trkpt lat="49.35034" lon="-0.78683">
        <ele>67.417582</ele>
        <time>2022-08-03T10:04:09.000Z</time>
      </trkpt>
      <trkpt lat="49.3503" lon="-0.78688">
        <ele>67.36996</ele>
        <time>2022-08-03T10:04:10.000Z</time>
      </trkpt>
      <trkpt lat="49.35027" lon="-0.78693">
        <ele>67.33095</ele>
        <time>2022-08-03T10:04:11.000Z</time>
      </trkpt>
      <trkpt lat="49.35027" lon="-0.78697">
        <ele>67.302959</ele>
        <time>2022-08-03T10:04:12.000Z</time>
      </trkpt>
      <trkpt lat="49.35027" lon="-0.78702">
        <ele>67.275393</ele>
        <time>2022-08-03T10:04:13.000Z</time>
      </trkpt>
      <trkpt lat="49.35027" lon="-0.78707">
        <ele>67.244794</ele>
        <time>2022-08-03T10:04:14.000Z</time>
      </trkpt>
      <trkpt lat="49.35029" lon="-0.78712">
        <ele>67.211987</ele>
        <time>2022-08-03T10:04:15.000Z</time>
      </trkpt>
      <trkpt lat="49.3503" lon="-0.78717">
        <ele>67.175654</ele>
        <time>2022-08-03T10:04:16.000Z</time>
      </trkpt>
      <trkpt lat="49.35033" lon="-0.78722">
        <ele>67.138885</ele>
        <time>2022-08-03T10:04:17.000Z</time>
      </trkpt>
      <trkpt lat="49.35036" lon="-0.78726">
        <ele>67.096215</ele>
        <time>2022-08-03T10:04:18.000Z</time>
      </trkpt>
      <trkpt lat="49.3504" lon="-0.7873">
        <ele>67.056432</ele>
        <time>2022-08-03T10:04:19.000Z</time>
      </trkpt>
      <trkpt lat="49.35045" lon="-0.78732">
        <ele>67.014269</ele>
        <time>2022-08-03T10:04:20.000Z</time>
      </trkpt>
      <trkpt lat="49.3505" lon="-0.78733">
        <ele>66.967425</ele>
        <time>2022-08-03T10:04:21.000Z</time>
      </trkpt>
      <trkpt lat="49.35056" lon="-0.78736">
        <ele>66.918127</ele>
        <time>2022-08-03T10:04:22.000Z</time>
      </trkpt>
      <trkpt lat="49.35062" lon="-0.7874">
        <ele>66.861896</ele>
        <time>2022-08-03T10:04:23.000Z</time>
      </trkpt>
      <trkpt lat="49.35066" lon="-0.78747">
        <ele>66.812719</ele>
        <time>2022-08-03T10:04:24.000Z</time>
      </trkpt>
      <trkpt lat="49.35069" lon="-0.78756">
        <ele>66.753658</ele>
        <time>2022-08-03T10:04:25.000Z</time>
      </trkpt>
      <trkpt lat="49.3507" lon="-0.78763">
        <ele>66.711866</ele>
        <time>2022-08-03T10:04:26.000Z</time>
      </trkpt>
      <trkpt lat="49.35072" lon="-0.78772">
        <ele>66.660348</ele>
        <time>2022-08-03T10:04:27.000Z</time>
      </trkpt>
      <trkpt lat="49.35074" lon="-0.78782">
        <ele>66.607051</ele>
        <time>2022-08-03T10:04:28.000Z</time>
      </trkpt>
      <trkpt lat="49.35075" lon="-0.78791">
        <ele>66.556633</ele>
        <time>2022-08-03T10:04:29.000Z</time>
      </trkpt>
      <trkpt lat="49.35077" lon="-0.788">
        <ele>66.503515</ele>
        <time>2022-08-03T10:04:30.000Z</time>
      </trkpt>
      <trkpt lat="49.35078" lon="-0.78809">
        <ele>66.449908</ele>
        <time>2022-08-03T10:04:31.000Z</time>
      </trkpt>
      <trkpt lat="49.35079" lon="-0.78818">
        <ele>66.400171</ele>
        <time>2022-08-03T10:04:32.000Z</time>
      </trkpt>
      <trkpt lat="49.35081" lon="-0.78828">
        <ele>66.344204</ele>
        <time>2022-08-03T10:04:33.000Z</time>
      </trkpt>
      <trkpt lat="49.35083" lon="-0.78837">
        <ele>66.29375</ele>
        <time>2022-08-03T10:04:34.000Z</time>
      </trkpt>
      <trkpt lat="49.35084" lon="-0.78845">
        <ele>66.243829</ele>
        <time>2022-08-03T10:04:35.000Z</time>
      </trkpt>
      <trkpt lat="49.35086" lon="-0.78854">
        <ele>66.191058</ele>
        <time>2022-08-03T10:04:36.000Z</time>
      </trkpt>
      <trkpt lat="49.35088" lon="-0.78863">
        <ele>66.140386</ele>
        <time>2022-08-03T10:04:37.000Z</time>
      </trkpt>
      <trkpt lat="49.3509" lon="-0.78871">
        <ele>66.092587</ele>
        <time>2022-08-03T10:04:38.000Z</time>
      </trkpt>
      <trkpt lat="49.35091" lon="-0.78879">
        <ele>66.049729</ele>
        <time>2022-08-03T10:04:39.000Z</time>
      </trkpt>
      <trkpt lat="49.35092" lon="-0.78886">
        <ele>66.009243</ele>
        <time>2022-08-03T10:04:40.000Z</time>
      </trkpt>
      <trkpt lat="49.35092" lon="-0.78893">
        <ele>65.970587</ele>
        <time>2022-08-03T10:04:41.000Z</time>
      </trkpt>
      <trkpt lat="49.35091" lon="-0.789">
        <ele>65.932215</ele>
        <time>2022-08-03T10:04:42.000Z</time>
      </trkpt>
      <trkpt lat="49.35088" lon="-0.78906">
        <ele>65.89377</ele>
        <time>2022-08-03T10:04:43.000Z</time>
      </trkpt>
      <trkpt lat="49.35085" lon="-0.7891">
        <ele>65.853086</ele>
        <time>2022-08-03T10:04:44.000Z</time>
      </trkpt>
      <trkpt lat="49.3508" lon="-0.78914">
        <ele>65.813089</ele>
        <time>2022-08-03T10:04:45.000Z</time>
      </trkpt>
      <trkpt lat="49.35076" lon="-0.78916">
        <ele>65.775048</ele>
        <time>2022-08-03T10:04:46.000Z</time>
      </trkpt>
      <trkpt lat="49.35072" lon="-0.78919">
        <ele>65.73922</ele>
        <time>2022-08-03T10:04:47.000Z</time>
      </trkpt>
      <trkpt lat="49.35069" lon="-0.78921">
        <ele>65.704387</ele>
        <time>2022-08-03T10:04:48.000Z</time>
      </trkpt>
      <trkpt lat="49.35064" lon="-0.78924">
        <ele>65.665996</ele>
        <time>2022-08-03T10:04:49.000Z</time>
      </trkpt>
      <trkpt lat="49.35061" lon="-0.78927">
        <ele>65.6305</ele>
        <time>2022-08-03T10:04:50.000Z</time>
      </trkpt>
      <trkpt lat="49.35057" lon="-0.78929">
        <ele>65.594232</ele>
        <time>2022-08-03T10:04:51.000Z</time>
      </trkpt>
      <trkpt lat="49.35053" lon="-0.78932">
        <ele>65.556834</ele>
        <time>2022-08-03T10:04:52.000Z</time>
      </trkpt>
      <trkpt lat="49.35049" lon="-0.78934">
        <ele>65.553649</ele>
        <time>2022-08-03T10:04:53.000Z</time>
      </trkpt>
      <trkpt lat="49.35044" lon="-0.78936">
        <ele>65.587033</ele>
        <time>2022-08-03T10:04:54.000Z</time>
      </trkpt>
      <trkpt lat="49.3504" lon="-0.78938">
        <ele>65.619502</ele>
        <time>2022-08-03T10:04:55.000Z</time>
      </trkpt>
      <trkpt lat="49.35036" lon="-0.7894">
        <ele>65.651363</ele>
        <time>2022-08-03T10:04:56.000Z</time>
      </trkpt>
      <trkpt lat="49.35031" lon="-0.78942">
        <ele>65.684354</ele>
        <time>2022-08-03T10:04:57.000Z</time>
      </trkpt>
      <trkpt lat="49.35027" lon="-0.78943">
        <ele>65.717445</ele>
        <time>2022-08-03T10:04:58.000Z</time>
      </trkpt>
      <trkpt lat="49.35022" lon="-0.78944">
        <ele>65.750389</ele>
        <time>2022-08-03T10:04:59.000Z</time>
      </trkpt>
      <trkpt lat="49.35018" lon="-0.78945">
        <ele>65.783115</ele>
        <time>2022-08-03T10:05:00.000Z</time>
      </trkpt>
      <trkpt lat="49.35013" lon="-0.78946">
        <ele>65.81815</ele>
        <time>2022-08-03T10:05:01.000Z</time>
      </trkpt>
      <trkpt lat="49.35009" lon="-0.78947">
        <ele>65.848228</ele>
        <time>2022-08-03T10:05:02.000Z</time>
      </trkpt>
      <trkpt lat="49.35005" lon="-0.78948">
        <ele>65.881403</ele>
        <time>2022-08-03T10:05:03.000Z</time>
      </trkpt>
      <trkpt lat="49.35" lon="-0.7895">
        <ele>65.914766</ele>
        <time>2022-08-03T10:05:04.000Z</time>
      </trkpt>
      <trkpt lat="49.34996" lon="-0.78951">
        <ele>65.947858</ele>
        <time>2022-08-03T10:05:05.000Z</time>
      </trkpt>
      <trkpt lat="49.34991" lon="-0.78951">
        <ele>65.982715</ele>
        <time>2022-08-03T10:05:06.000Z</time>
      </trkpt>
      <trkpt lat="49.34986" lon="-0.78951">
        <ele>66.015332</ele>
        <time>2022-08-03T10:05:07.000Z</time>
      </trkpt>
      <trkpt lat="49.34981" lon="-0.78951">
        <ele>66.052357</ele>
        <time>2022-08-03T10:05:08.000Z</time>
      </trkpt>
      <trkpt lat="49.34977" lon="-0.7895">
        <ele>66.082302</ele>
        <time>2022-08-03T10:05:09.000Z</time>
      </trkpt>
      <trkpt lat="49.34973" lon="-0.78949">
        <ele>66.113095</ele>
        <time>2022-08-03T10:05:10.000Z</time>
      </trkpt>
      <trkpt lat="49.34968" lon="-0.78947">
        <ele>66.146361</ele>
        <time>2022-08-03T10:05:11.000Z</time>
      </trkpt>
      <trkpt lat="49.34964" lon="-0.78946">
        <ele>66.179724</ele>
        <time>2022-08-03T10:05:12.000Z</time>
      </trkpt>
      <trkpt lat="49.34959" lon="-0.78944">
        <ele>66.21238</ele>
        <time>2022-08-03T10:05:13.000Z</time>
      </trkpt>
      <trkpt lat="49.34955" lon="-0.78943">
        <ele>66.243173</ele>
        <time>2022-08-03T10:05:14.000Z</time>
      </trkpt>
      <trkpt lat="49.34951" lon="-0.78943">
        <ele>66.273636</ele>
        <time>2022-08-03T10:05:15.000Z</time>
      </trkpt>
      <trkpt lat="49.34947" lon="-0.78944">
        <ele>66.303876</ele>
        <time>2022-08-03T10:05:16.000Z</time>
      </trkpt>
      <trkpt lat="49.34943" lon="-0.78947">
        <ele>66.335696</ele>
        <time>2022-08-03T10:05:17.000Z</time>
      </trkpt>
      <trkpt lat="49.34941" lon="-0.78953">
        <ele>66.366964</ele>
        <time>2022-08-03T10:05:18.000Z</time>
      </trkpt>
      <trkpt lat="49.34938" lon="-0.7896">
        <ele>66.40732</ele>
        <time>2022-08-03T10:05:19.000Z</time>
      </trkpt>
      <trkpt lat="49.34936" lon="-0.78969">
        <ele>66.450441</ele>
        <time>2022-08-03T10:05:20.000Z</time>
      </trkpt>
      <trkpt lat="49.34936" lon="-0.78979">
        <ele>66.49769</ele>
        <time>2022-08-03T10:05:21.000Z</time>
      </trkpt>
      <trkpt lat="49.34937" lon="-0.78989">
        <ele>66.548126</ele>
        <time>2022-08-03T10:05:22.000Z</time>
      </trkpt>
      <trkpt lat="49.34939" lon="-0.79">
        <ele>66.600927</ele>
        <time>2022-08-03T10:05:23.000Z</time>
      </trkpt>
      <trkpt lat="49.34941" lon="-0.79011">
        <ele>66.655552</ele>
        <time>2022-08-03T10:05:24.000Z</time>
      </trkpt>
      <trkpt lat="49.34943" lon="-0.79022">
        <ele>66.708352</ele>
        <time>2022-08-03T10:05:25.000Z</time>
      </trkpt>
      <trkpt lat="49.34945" lon="-0.79032">
        <ele>66.758329</ele>
        <time>2022-08-03T10:05:26.000Z</time>
      </trkpt>
      <trkpt lat="49.34946" lon="-0.79042">
        <ele>66.804146</ele>
        <time>2022-08-03T10:05:27.000Z</time>
      </trkpt>
      <trkpt lat="49.34948" lon="-0.79051">
        <ele>66.843597</ele>
        <time>2022-08-03T10:05:28.000Z</time>
      </trkpt>
      <trkpt lat="49.34949" lon="-0.79059">
        <ele>66.85355</ele>
        <time>2022-08-03T10:05:29.000Z</time>
      </trkpt>
      <trkpt lat="49.3495" lon="-0.79067">
        <ele>66.863503</ele>
        <time>2022-08-03T10:05:30.000Z</time>
      </trkpt>
      <trkpt lat="49.34951" lon="-0.79075">
        <ele>66.873064</ele>
        <time>2022-08-03T10:05:31.000Z</time>
      </trkpt>
      <trkpt lat="49.34953" lon="-0.79083">
        <ele>66.882935</ele>
        <time>2022-08-03T10:05:32.000Z</time>
      </trkpt>
      <trkpt lat="49.34954" lon="-0.79091">
        <ele>66.892419</ele>
        <time>2022-08-03T10:05:33.000Z</time>
      </trkpt>
      <trkpt lat="49.34955" lon="-0.79098">
        <ele>66.902175</ele>
        <time>2022-08-03T10:05:34.000Z</time>
      </trkpt>
      <trkpt lat="49.34957" lon="-0.79106">
        <ele>66.912045</ele>
        <time>2022-08-03T10:05:35.000Z</time>
      </trkpt>
      <trkpt lat="49.34958" lon="-0.79114">
        <ele>66.921881</ele>
        <time>2022-08-03T10:05:36.000Z</time>
      </trkpt>
      <trkpt lat="49.34959" lon="-0.79123">
        <ele>66.932093</ele>
        <time>2022-08-03T10:05:37.000Z</time>
      </trkpt>
      <trkpt lat="49.34961" lon="-0.79131">
        <ele>66.942236</ele>
        <time>2022-08-03T10:05:38.000Z</time>
      </trkpt>
      <trkpt lat="49.34962" lon="-0.79139">
        <ele>66.952189</ele>
        <time>2022-08-03T10:05:39.000Z</time>
      </trkpt>
      <trkpt lat="49.34962" lon="-0.79147">
        <ele>66.961797</ele>
        <time>2022-08-03T10:05:40.000Z</time>
      </trkpt>
      <trkpt lat="49.34963" lon="-0.79155">
        <ele>66.970836</ele>
        <time>2022-08-03T10:05:41.000Z</time>
      </trkpt>
      <trkpt lat="49.34963" lon="-0.79161">
        <ele>66.978967</ele>
        <time>2022-08-03T10:05:42.000Z</time>
      </trkpt>
      <trkpt lat="49.34961" lon="-0.79167">
        <ele>66.986702</ele>
        <time>2022-08-03T10:05:43.000Z</time>
      </trkpt>
      <trkpt lat="49.34958" lon="-0.79172">
        <ele>66.994058</ele>
        <time>2022-08-03T10:05:44.000Z</time>
      </trkpt>
      <trkpt lat="49.34955" lon="-0.79175">
        <ele>67.000925</ele>
        <time>2022-08-03T10:05:45.000Z</time>
      </trkpt>
      <trkpt lat="49.34951" lon="-0.79178">
        <ele>67.008497</ele>
        <time>2022-08-03T10:05:46.000Z</time>
      </trkpt>
      <trkpt lat="49.34948" lon="-0.7918">
        <ele>67.015593</ele>
        <time>2022-08-03T10:05:47.000Z</time>
      </trkpt>
      <trkpt lat="49.34945" lon="-0.79182">
        <ele>67.022224</ele>
        <time>2022-08-03T10:05:48.000Z</time>
      </trkpt>
      <trkpt lat="49.34941" lon="-0.79185">
        <ele>67.028746</ele>
        <time>2022-08-03T10:05:49.000Z</time>
      </trkpt>
      <trkpt lat="49.34938" lon="-0.79187">
        <ele>67.035586</ele>
        <time>2022-08-03T10:05:50.000Z</time>
      </trkpt>
      <trkpt lat="49.34935" lon="-0.79189">
        <ele>67.041913</ele>
        <time>2022-08-03T10:05:51.000Z</time>
      </trkpt>
      <trkpt lat="49.34931" lon="-0.79191">
        <ele>67.048673</ele>
        <time>2022-08-03T10:05:52.000Z</time>
      </trkpt>
      <trkpt lat="49.34927" lon="-0.79192">
        <ele>67.055957</ele>
        <time>2022-08-03T10:05:53.000Z</time>
      </trkpt>
      <trkpt lat="49.34924" lon="-0.79195">
        <ele>67.063193</ele>
        <time>2022-08-03T10:05:54.000Z</time>
      </trkpt>
      <trkpt lat="49.34921" lon="-0.79197">
        <ele>67.069769</ele>
        <time>2022-08-03T10:05:55.000Z</time>
      </trkpt>
      <trkpt lat="49.34917" lon="-0.792">
        <ele>67.07619</ele>
        <time>2022-08-03T10:05:56.000Z</time>
      </trkpt>
      <trkpt lat="49.34914" lon="-0.79202">
        <ele>67.08303</ele>
        <time>2022-08-03T10:05:57.000Z</time>
      </trkpt>
      <trkpt lat="49.34911" lon="-0.79204">
        <ele>67.089451</ele>
        <time>2022-08-03T10:05:58.000Z</time>
      </trkpt>
      <trkpt lat="49.34907" lon="-0.79206">
        <ele>67.096572</ele>
        <time>2022-08-03T10:05:59.000Z</time>
      </trkpt>
      <trkpt lat="49.34904" lon="-0.7921">
        <ele>67.103255</ele>
        <time>2022-08-03T10:06:00.000Z</time>
      </trkpt>
      <trkpt lat="49.34903" lon="-0.79214">
        <ele>67.108588</ele>
        <time>2022-08-03T10:06:01.000Z</time>
      </trkpt>
      <trkpt lat="49.34903" lon="-0.79218">
        <ele>67.11351</ele>
        <time>2022-08-03T10:06:02.000Z</time>
      </trkpt>
      <trkpt lat="49.34903" lon="-0.79222">
        <ele>67.118521</ele>
        <time>2022-08-03T10:06:03.000Z</time>
      </trkpt>
      <trkpt lat="49.34904" lon="-0.79226">
        <ele>67.124069</ele>
        <time>2022-08-03T10:06:04.000Z</time>
      </trkpt>
      <trkpt lat="49.34906" lon="-0.7923">
        <ele>67.129597</ele>
        <time>2022-08-03T10:06:05.000Z</time>
      </trkpt>
      <trkpt lat="49.34908" lon="-0.79233">
        <ele>67.135528</ele>
        <time>2022-08-03T10:06:06.000Z</time>
      </trkpt>
      <trkpt lat="49.34911" lon="-0.79237">
        <ele>67.141888</ele>
        <time>2022-08-03T10:06:07.000Z</time>
      </trkpt>
      <trkpt lat="49.34913" lon="-0.79241">
        <ele>67.147603</ele>
        <time>2022-08-03T10:06:08.000Z</time>
      </trkpt>
      <trkpt lat="49.34915" lon="-0.79245">
        <ele>67.153704</ele>
        <time>2022-08-03T10:06:09.000Z</time>
      </trkpt>
      <trkpt lat="49.34917" lon="-0.79248">
        <ele>67.159769</ele>
        <time>2022-08-03T10:06:10.000Z</time>
      </trkpt>
      <trkpt lat="49.34919" lon="-0.79252">
        <ele>67.16558</ele>
        <time>2022-08-03T10:06:11.000Z</time>
      </trkpt>
      <trkpt lat="49.34921" lon="-0.79256">
        <ele>67.171093</ele>
        <time>2022-08-03T10:06:12.000Z</time>
      </trkpt>
      <trkpt lat="49.34923" lon="-0.7926">
        <ele>67.153341</ele>
        <time>2022-08-03T10:06:13.000Z</time>
      </trkpt>
      <trkpt lat="49.34925" lon="-0.79264">
        <ele>67.134995</ele>
        <time>2022-08-03T10:06:14.000Z</time>
      </trkpt>
      <trkpt lat="49.34927" lon="-0.79268">
        <ele>67.117535</ele>
        <time>2022-08-03T10:06:15.000Z</time>
      </trkpt>
      <trkpt lat="49.34929" lon="-0.79271">
        <ele>67.101689</ele>
        <time>2022-08-03T10:06:16.000Z</time>
      </trkpt>
      <trkpt lat="49.3493" lon="-0.79274">
        <ele>67.088536</ele>
        <time>2022-08-03T10:06:17.000Z</time>
      </trkpt>
      <trkpt lat="49.34931" lon="-0.79277">
        <ele>67.076065</ele>
        <time>2022-08-03T10:06:18.000Z</time>
      </trkpt>
      <trkpt lat="49.34933" lon="-0.79279">
        <ele>67.063323</ele>
        <time>2022-08-03T10:06:20.000Z</time>
      </trkpt>
      <trkpt lat="49.34944" lon="-0.79277">
        <ele>66.997248</ele>
        <time>2022-08-03T10:08:43.000Z</time>
      </trkpt>
      <trkpt lat="49.34948" lon="-0.79276">
        <ele>66.977118</ele>
        <time>2022-08-03T10:08:44.000Z</time>
      </trkpt>
      <trkpt lat="49.34952" lon="-0.79275">
        <ele>66.953041</ele>
        <time>2022-08-03T10:08:45.000Z</time>
      </trkpt>
      <trkpt lat="49.34957" lon="-0.79274">
        <ele>66.925532</ele>
        <time>2022-08-03T10:08:46.000Z</time>
      </trkpt>
      <trkpt lat="49.34961" lon="-0.79274">
        <ele>66.899865</ele>
        <time>2022-08-03T10:08:47.000Z</time>
      </trkpt>
      <trkpt lat="49.34965" lon="-0.79273">
        <ele>66.874561</ele>
        <time>2022-08-03T10:08:48.000Z</time>
      </trkpt>
      <trkpt lat="49.3497" lon="-0.79272">
        <ele>66.846833</ele>
        <time>2022-08-03T10:08:49.000Z</time>
      </trkpt>
      <trkpt lat="49.34975" lon="-0.79271">
        <ele>66.819404</ele>
        <time>2022-08-03T10:08:50.000Z</time>
      </trkpt>
      <trkpt lat="49.3498" lon="-0.7927">
        <ele>66.793708</ele>
        <time>2022-08-03T10:08:51.000Z</time>
      </trkpt>
      <trkpt lat="49.34984" lon="-0.79269">
        <ele>66.769583</ele>
        <time>2022-08-03T10:08:52.000Z</time>
      </trkpt>
      <trkpt lat="49.34989" lon="-0.79268">
        <ele>66.741974</ele>
        <time>2022-08-03T10:08:53.000Z</time>
      </trkpt>
      <trkpt lat="49.34994" lon="-0.79268">
        <ele>66.712845</ele>
        <time>2022-08-03T10:08:54.000Z</time>
      </trkpt>
      <trkpt lat="49.34999" lon="-0.79267">
        <ele>66.683596</ele>
        <time>2022-08-03T10:08:55.000Z</time>
      </trkpt>
      <trkpt lat="49.35004" lon="-0.79265">
        <ele>66.655572</ele>
        <time>2022-08-03T10:08:56.000Z</time>
      </trkpt>
      <trkpt lat="49.35008" lon="-0.79264">
        <ele>66.627844</ele>
        <time>2022-08-03T10:08:57.000Z</time>
      </trkpt>
      <trkpt lat="49.35013" lon="-0.79263">
        <ele>66.600377</ele>
        <time>2022-08-03T10:08:58.000Z</time>
      </trkpt>
      <trkpt lat="49.35018" lon="-0.79262">
        <ele>66.571173</ele>
        <time>2022-08-03T10:08:59.000Z</time>
      </trkpt>
      <trkpt lat="49.35023" lon="-0.79261">
        <ele>66.543706</ele>
        <time>2022-08-03T10:09:00.000Z</time>
      </trkpt>
      <trkpt lat="49.35029" lon="-0.7926">
        <ele>66.51231</ele>
        <time>2022-08-03T10:09:01.000Z</time>
      </trkpt>
      <trkpt lat="49.35034" lon="-0.7926">
        <ele>66.481447</ele>
        <time>2022-08-03T10:09:02.000Z</time>
      </trkpt>
      <trkpt lat="49.35039" lon="-0.79259">
        <ele>66.452283</ele>
        <time>2022-08-03T10:09:03.000Z</time>
      </trkpt>
      <trkpt lat="49.35045" lon="-0.79258">
        <ele>66.419254</ele>
        <time>2022-08-03T10:09:04.000Z</time>
      </trkpt>
      <trkpt lat="49.35051" lon="-0.79258">
        <ele>66.386184</ele>
        <time>2022-08-03T10:09:05.000Z</time>
      </trkpt>
      <trkpt lat="49.35056" lon="-0.79257">
        <ele>66.356935</ele>
        <time>2022-08-03T10:09:06.000Z</time>
      </trkpt>
      <trkpt lat="49.35061" lon="-0.79256">
        <ele>66.325993</ele>
        <time>2022-08-03T10:09:07.000Z</time>
      </trkpt>
      <trkpt lat="49.35067" lon="-0.79254">
        <ele>66.294277</ele>
        <time>2022-08-03T10:09:08.000Z</time>
      </trkpt>
      <trkpt lat="49.35073" lon="-0.79254">
        <ele>66.2578</ele>
        <time>2022-08-03T10:09:09.000Z</time>
      </trkpt>
      <trkpt lat="49.35081" lon="-0.79253">
        <ele>66.214436</ele>
        <time>2022-08-03T10:09:10.000Z</time>
      </trkpt>
      <trkpt lat="49.35088" lon="-0.79251">
        <ele>66.170281</ele>
        <time>2022-08-03T10:09:11.000Z</time>
      </trkpt>
      <trkpt lat="49.35096" lon="-0.79251">
        <ele>66.086136</ele>
        <time>2022-08-03T10:09:12.000Z</time>
      </trkpt>
      <trkpt lat="49.35102" lon="-0.79251">
        <ele>65.968322</ele>
        <time>2022-08-03T10:09:13.000Z</time>
      </trkpt>
      <trkpt lat="49.35109" lon="-0.7925">
        <ele>65.855751</ele>
        <time>2022-08-03T10:09:14.000Z</time>
      </trkpt>
      <trkpt lat="49.35116" lon="-0.79249">
        <ele>65.73802</ele>
        <time>2022-08-03T10:09:15.000Z</time>
      </trkpt>
      <trkpt lat="49.35121" lon="-0.79248">
        <ele>65.635699</ele>
        <time>2022-08-03T10:09:16.000Z</time>
      </trkpt>
      <trkpt lat="49.35127" lon="-0.79246">
        <ele>65.538825</ele>
        <time>2022-08-03T10:09:17.000Z</time>
      </trkpt>
      <trkpt lat="49.35133" lon="-0.79245">
        <ele>65.435711</ele>
        <time>2022-08-03T10:09:18.000Z</time>
      </trkpt>
      <trkpt lat="49.35138" lon="-0.79244">
        <ele>65.345257</ele>
        <time>2022-08-03T10:09:19.000Z</time>
      </trkpt>
      <trkpt lat="49.35142" lon="-0.79243">
        <ele>65.271193</ele>
        <time>2022-08-03T10:09:20.000Z</time>
      </trkpt>
      <trkpt lat="49.35146" lon="-0.79242">
        <ele>65.193845</ele>
        <time>2022-08-03T10:09:21.000Z</time>
      </trkpt>
      <trkpt lat="49.3515" lon="-0.79242">
        <ele>65.125463</ele>
        <time>2022-08-03T10:09:22.000Z</time>
      </trkpt>
      <trkpt lat="49.35154" lon="-0.79242">
        <ele>65.053549</ele>
        <time>2022-08-03T10:09:23.000Z</time>
      </trkpt>
      <trkpt lat="49.35158" lon="-0.79242">
        <ele>64.990344</ele>
        <time>2022-08-03T10:09:24.000Z</time>
      </trkpt>
      <trkpt lat="49.3516" lon="-0.79242">
        <ele>64.951775</ele>
        <time>2022-08-03T10:09:25.000Z</time>
      </trkpt>
      <trkpt lat="49.35166" lon="-0.79239">
        <ele>64.83948</ele>
        <time>2022-08-03T10:11:05.000Z</time>
      </trkpt>
      <trkpt lat="49.3517" lon="-0.79238">
        <ele>64.77189</ele>
        <time>2022-08-03T10:11:06.000Z</time>
      </trkpt>
      <trkpt lat="49.35175" lon="-0.79237">
        <ele>64.686969</ele>
        <time>2022-08-03T10:11:07.000Z</time>
      </trkpt>
      <trkpt lat="49.3518" lon="-0.79236">
        <ele>64.602047</ele>
        <time>2022-08-03T10:11:08.000Z</time>
      </trkpt>
      <trkpt lat="49.35184" lon="-0.79235">
        <ele>64.522753</ele>
        <time>2022-08-03T10:11:09.000Z</time>
      </trkpt>
      <trkpt lat="49.35189" lon="-0.79234">
        <ele>64.438224</ele>
        <time>2022-08-03T10:11:10.000Z</time>
      </trkpt>
      <trkpt lat="49.35194" lon="-0.79233">
        <ele>64.353303</ele>
        <time>2022-08-03T10:11:11.000Z</time>
      </trkpt>
      <trkpt lat="49.35198" lon="-0.79233">
        <ele>64.279353</ele>
        <time>2022-08-03T10:11:12.000Z</time>
      </trkpt>
      <trkpt lat="49.35202" lon="-0.79232">
        <ele>64.211947</ele>
        <time>2022-08-03T10:11:13.000Z</time>
      </trkpt>
      <trkpt lat="49.35206" lon="-0.79231">
        <ele>64.13285</ele>
        <time>2022-08-03T10:11:14.000Z</time>
      </trkpt>
      <trkpt lat="49.3521" lon="-0.79231">
        <ele>64.065607</ele>
        <time>2022-08-03T10:11:15.000Z</time>
      </trkpt>
      <trkpt lat="49.35214" lon="-0.7923">
        <ele>63.991543</ele>
        <time>2022-08-03T10:11:16.000Z</time>
      </trkpt>
      <trkpt lat="49.35218" lon="-0.79229">
        <ele>63.924681</ele>
        <time>2022-08-03T10:11:17.000Z</time>
      </trkpt>
      <trkpt lat="49.35221" lon="-0.7923">
        <ele>63.863056</ele>
        <time>2022-08-03T10:11:18.000Z</time>
      </trkpt>
      <trkpt lat="49.35225" lon="-0.79232">
        <ele>63.790214</ele>
        <time>2022-08-03T10:11:19.000Z</time>
      </trkpt>
      <trkpt lat="49.35229" lon="-0.79236">
        <ele>63.719982</ele>
        <time>2022-08-03T10:11:20.000Z</time>
      </trkpt>
      <trkpt lat="49.35231" lon="-0.79241">
        <ele>63.651077</ele>
        <time>2022-08-03T10:11:21.000Z</time>
      </trkpt>
      <trkpt lat="49.35232" lon="-0.79247">
        <ele>63.579243</ele>
        <time>2022-08-03T10:11:22.000Z</time>
      </trkpt>
      <trkpt lat="49.35233" lon="-0.79255">
        <ele>63.486191</ele>
        <time>2022-08-03T10:11:23.000Z</time>
      </trkpt>
      <trkpt lat="49.35234" lon="-0.79262">
        <ele>63.399898</ele>
        <time>2022-08-03T10:11:24.000Z</time>
      </trkpt>
      <trkpt lat="49.35235" lon="-0.79269">
        <ele>63.315674</ele>
        <time>2022-08-03T10:11:25.000Z</time>
      </trkpt>
      <trkpt lat="49.35236" lon="-0.79277">
        <ele>63.231951</ele>
        <time>2022-08-03T10:11:26.000Z</time>
      </trkpt>
      <trkpt lat="49.35237" lon="-0.79284">
        <ele>63.147879</ele>
        <time>2022-08-03T10:11:27.000Z</time>
      </trkpt>
      <trkpt lat="49.35238" lon="-0.79291">
        <ele>63.060454</ele>
        <time>2022-08-03T10:11:28.000Z</time>
      </trkpt>
      <trkpt lat="49.35239" lon="-0.79298">
        <ele>62.964148</ele>
        <time>2022-08-03T10:11:29.000Z</time>
      </trkpt>
      <trkpt lat="49.35241" lon="-0.79305">
        <ele>62.826264</ele>
        <time>2022-08-03T10:11:30.000Z</time>
      </trkpt>
      <trkpt lat="49.35244" lon="-0.79311">
        <ele>62.689649</ele>
        <time>2022-08-03T10:11:31.000Z</time>
      </trkpt>
      <trkpt lat="49.35247" lon="-0.79316">
        <ele>62.55017</ele>
        <time>2022-08-03T10:11:32.000Z</time>
      </trkpt>
      <trkpt lat="49.35251" lon="-0.79319">
        <ele>62.412948</ele>
        <time>2022-08-03T10:11:33.000Z</time>
      </trkpt>
      <trkpt lat="49.35256" lon="-0.79321">
        <ele>62.273887</ele>
        <time>2022-08-03T10:11:34.000Z</time>
      </trkpt>
      <trkpt lat="49.35261" lon="-0.79323">
        <ele>62.128836</ele>
        <time>2022-08-03T10:11:35.000Z</time>
      </trkpt>
      <trkpt lat="49.35265" lon="-0.79325">
        <ele>62.002162</ele>
        <time>2022-08-03T10:11:36.000Z</time>
      </trkpt>
      <trkpt lat="49.35269" lon="-0.79327">
        <ele>61.863671</ele>
        <time>2022-08-03T10:11:37.000Z</time>
      </trkpt>
      <trkpt lat="49.35274" lon="-0.7933">
        <ele>61.704821</ele>
        <time>2022-08-03T10:11:38.000Z</time>
      </trkpt>
      <trkpt lat="49.35279" lon="-0.79333">
        <ele>61.557975</ele>
        <time>2022-08-03T10:11:39.000Z</time>
      </trkpt>
      <trkpt lat="49.35283" lon="-0.79337">
        <ele>61.402903</ele>
        <time>2022-08-03T10:11:40.000Z</time>
      </trkpt>
      <trkpt lat="49.35287" lon="-0.79342">
        <ele>61.249863</ele>
        <time>2022-08-03T10:11:41.000Z</time>
      </trkpt>
      <trkpt lat="49.35291" lon="-0.79348">
        <ele>61.098215</ele>
        <time>2022-08-03T10:11:42.000Z</time>
      </trkpt>
      <trkpt lat="49.35295" lon="-0.79354">
        <ele>60.937703</ele>
        <time>2022-08-03T10:11:43.000Z</time>
      </trkpt>
      <trkpt lat="49.35298" lon="-0.7936">
        <ele>60.772973</ele>
        <time>2022-08-03T10:11:44.000Z</time>
      </trkpt>
      <trkpt lat="49.35302" lon="-0.79367">
        <ele>60.602055</ele>
        <time>2022-08-03T10:11:45.000Z</time>
      </trkpt>
      <trkpt lat="49.35305" lon="-0.79375">
        <ele>60.419708</ele>
        <time>2022-08-03T10:11:46.000Z</time>
      </trkpt>
      <trkpt lat="49.35308" lon="-0.79382">
        <ele>60.260513</ele>
        <time>2022-08-03T10:11:47.000Z</time>
      </trkpt>
      <trkpt lat="49.3531" lon="-0.7939">
        <ele>60.101514</ele>
        <time>2022-08-03T10:11:48.000Z</time>
      </trkpt>
      <trkpt lat="49.35311" lon="-0.79396">
        <ele>59.980231</ele>
        <time>2022-08-03T10:11:49.000Z</time>
      </trkpt>
      <trkpt lat="49.35313" lon="-0.79405">
        <ele>59.791453</ele>
        <time>2022-08-03T10:11:50.000Z</time>
      </trkpt>
      <trkpt lat="49.35315" lon="-0.79414">
        <ele>59.627717</ele>
        <time>2022-08-03T10:11:51.000Z</time>
      </trkpt>
      <trkpt lat="49.35315" lon="-0.7942">
        <ele>59.496098</ele>
        <time>2022-08-03T10:11:52.000Z</time>
      </trkpt>
      <trkpt lat="49.35316" lon="-0.7943">
        <ele>59.318755</ele>
        <time>2022-08-03T10:11:53.000Z</time>
      </trkpt>
      <trkpt lat="49.35316" lon="-0.79439">
        <ele>59.141901</ele>
        <time>2022-08-03T10:11:54.000Z</time>
      </trkpt>
      <trkpt lat="49.35317" lon="-0.79448">
        <ele>58.968375</ele>
        <time>2022-08-03T10:11:55.000Z</time>
      </trkpt>
      <trkpt lat="49.35317" lon="-0.79457">
        <ele>58.79575</ele>
        <time>2022-08-03T10:11:56.000Z</time>
      </trkpt>
      <trkpt lat="49.35317" lon="-0.79466">
        <ele>58.621207</ele>
        <time>2022-08-03T10:11:57.000Z</time>
      </trkpt>
      <trkpt lat="49.35317" lon="-0.79475">
        <ele>58.440693</ele>
        <time>2022-08-03T10:11:58.000Z</time>
      </trkpt>
      <trkpt lat="49.35317" lon="-0.79485">
        <ele>58.252724</ele>
        <time>2022-08-03T10:11:59.000Z</time>
      </trkpt>
      <trkpt lat="49.35316" lon="-0.79495">
        <ele>58.063628</ele>
        <time>2022-08-03T10:12:00.000Z</time>
      </trkpt>
      <trkpt lat="49.35315" lon="-0.79505">
        <ele>57.870481</ele>
        <time>2022-08-03T10:12:01.000Z</time>
      </trkpt>
      <trkpt lat="49.35313" lon="-0.79514">
        <ele>57.674914</ele>
        <time>2022-08-03T10:12:02.000Z</time>
      </trkpt>
      <trkpt lat="49.35311" lon="-0.79524">
        <ele>57.395715</ele>
        <time>2022-08-03T10:12:03.000Z</time>
      </trkpt>
      <trkpt lat="49.3531" lon="-0.79534">
        <ele>57.122042</ele>
        <time>2022-08-03T10:12:04.000Z</time>
      </trkpt>
      <trkpt lat="49.35309" lon="-0.79543">
        <ele>56.853779</ele>
        <time>2022-08-03T10:12:05.000Z</time>
      </trkpt>
      <trkpt lat="49.35307" lon="-0.79552">
        <ele>56.601297</ele>
        <time>2022-08-03T10:12:06.000Z</time>
      </trkpt>
      <trkpt lat="49.35307" lon="-0.7956">
        <ele>56.384246</ele>
        <time>2022-08-03T10:12:07.000Z</time>
      </trkpt>
      <trkpt lat="49.35305" lon="-0.79566">
        <ele>56.212125</ele>
        <time>2022-08-03T10:12:08.000Z</time>
      </trkpt>
      <trkpt lat="49.35305" lon="-0.7957">
        <ele>56.100855</ele>
        <time>2022-08-03T10:12:09.000Z</time>
      </trkpt>
      <trkpt lat="49.35305" lon="-0.79573">
        <ele>56.023477</ele>
        <time>2022-08-03T10:12:10.000Z</time>
      </trkpt>
      <trkpt lat="49.35305" lon="-0.79575">
        <ele>55.946099</ele>
        <time>2022-08-03T10:12:13.000Z</time>
      </trkpt>
      <trkpt lat="49.35308" lon="-0.79584">
        <ele>55.672965</ele>
        <time>2022-08-03T10:13:08.000Z</time>
      </trkpt>
      <trkpt lat="49.35309" lon="-0.79589">
        <ele>55.528424</ele>
        <time>2022-08-03T10:13:09.000Z</time>
      </trkpt>
      <trkpt lat="49.3531" lon="-0.79595">
        <ele>55.353683</ele>
        <time>2022-08-03T10:13:10.000Z</time>
      </trkpt>
      <trkpt lat="49.35311" lon="-0.79602">
        <ele>55.167339</ele>
        <time>2022-08-03T10:13:11.000Z</time>
      </trkpt>
      <trkpt lat="49.35312" lon="-0.79609">
        <ele>54.963895</ele>
        <time>2022-08-03T10:13:12.000Z</time>
      </trkpt>
      <trkpt lat="49.35313" lon="-0.79616">
        <ele>54.771248</ele>
        <time>2022-08-03T10:13:13.000Z</time>
      </trkpt>
      <trkpt lat="49.35314" lon="-0.79622">
        <ele>54.592508</ele>
        <time>2022-08-03T10:13:14.000Z</time>
      </trkpt>
      <trkpt lat="49.35315" lon="-0.79627">
        <ele>54.453296</ele>
        <time>2022-08-03T10:13:15.000Z</time>
      </trkpt>
      <trkpt lat="49.35315" lon="-0.79631">
        <ele>54.351046</ele>
        <time>2022-08-03T10:13:16.000Z</time>
      </trkpt>
      <trkpt lat="49.35314" lon="-0.79635">
        <ele>54.225537</ele>
        <time>2022-08-03T10:13:18.000Z</time>
      </trkpt>
      <trkpt lat="49.35314" lon="-0.79638">
        <ele>54.138928</ele>
        <time>2022-08-03T10:13:20.000Z</time>
      </trkpt>
      <trkpt lat="49.35307" lon="-0.79643">
        <ele>53.812544</ele>
        <time>2022-08-03T10:16:57.000Z</time>
      </trkpt>
      <trkpt lat="49.35303" lon="-0.79646">
        <ele>53.620421</ele>
        <time>2022-08-03T10:16:58.000Z</time>
      </trkpt>
      <trkpt lat="49.35299" lon="-0.79648">
        <ele>53.433263</ele>
        <time>2022-08-03T10:16:59.000Z</time>
      </trkpt>
      <trkpt lat="49.35293" lon="-0.79651">
        <ele>53.188291</ele>
        <time>2022-08-03T10:17:00.000Z</time>
      </trkpt>
      <trkpt lat="49.35287" lon="-0.79654">
        <ele>52.932656</ele>
        <time>2022-08-03T10:17:01.000Z</time>
      </trkpt>
      <trkpt lat="49.35282" lon="-0.79657">
        <ele>52.671187</ele>
        <time>2022-08-03T10:17:02.000Z</time>
      </trkpt>
      <trkpt lat="49.35275" lon="-0.79661">
        <ele>52.384766</ele>
        <time>2022-08-03T10:17:03.000Z</time>
      </trkpt>
      <trkpt lat="49.35269" lon="-0.79663">
        <ele>52.102441</ele>
        <time>2022-08-03T10:17:04.000Z</time>
      </trkpt>
      <trkpt lat="49.35263" lon="-0.79665">
        <ele>51.839423</ele>
        <time>2022-08-03T10:17:05.000Z</time>
      </trkpt>
      <trkpt lat="49.35257" lon="-0.79666">
        <ele>51.595342</ele>
        <time>2022-08-03T10:17:06.000Z</time>
      </trkpt>
      <trkpt lat="49.35251" lon="-0.79667">
        <ele>51.334775</ele>
        <time>2022-08-03T10:17:07.000Z</time>
      </trkpt>
      <trkpt lat="49.35245" lon="-0.79669">
        <ele>51.098257</ele>
        <time>2022-08-03T10:17:08.000Z</time>
      </trkpt>
      <trkpt lat="49.35239" lon="-0.7967">
        <ele>50.841903</ele>
        <time>2022-08-03T10:17:09.000Z</time>
      </trkpt>
      <trkpt lat="49.35234" lon="-0.79671">
        <ele>50.594295</ele>
        <time>2022-08-03T10:17:10.000Z</time>
      </trkpt>
      <trkpt lat="49.35228" lon="-0.79672">
        <ele>50.345212</ele>
        <time>2022-08-03T10:17:11.000Z</time>
      </trkpt>
      <trkpt lat="49.35222" lon="-0.79673">
        <ele>50.114113</ele>
        <time>2022-08-03T10:17:12.000Z</time>
      </trkpt>
      <trkpt lat="49.35217" lon="-0.79674">
        <ele>50.050825</ele>
        <time>2022-08-03T10:17:13.000Z</time>
      </trkpt>
      <trkpt lat="49.3521" lon="-0.79675">
        <ele>50.0249</ele>
        <time>2022-08-03T10:17:14.000Z</time>
      </trkpt>
      <trkpt lat="49.35205" lon="-0.79676">
        <ele>50.009366</ele>
        <time>2022-08-03T10:17:15.000Z</time>
      </trkpt>
      <trkpt lat="49.352" lon="-0.79676">
        <ele>49.988324</ele>
        <time>2022-08-03T10:17:16.000Z</time>
      </trkpt>
      <trkpt lat="49.35194" lon="-0.79676">
        <ele>49.966935</ele>
        <time>2022-08-03T10:17:17.000Z</time>
      </trkpt>
      <trkpt lat="49.35188" lon="-0.79677">
        <ele>49.943329</ele>
        <time>2022-08-03T10:17:18.000Z</time>
      </trkpt>
      <trkpt lat="49.35183" lon="-0.79676">
        <ele>49.928202</ele>
        <time>2022-08-03T10:17:19.000Z</time>
      </trkpt>
      <trkpt lat="49.35178" lon="-0.79676">
        <ele>49.907908</ele>
        <time>2022-08-03T10:17:20.000Z</time>
      </trkpt>
      <trkpt lat="49.35173" lon="-0.79676">
        <ele>49.889087</ele>
        <time>2022-08-03T10:17:21.000Z</time>
      </trkpt>
      <trkpt lat="49.35166" lon="-0.79675">
        <ele>49.865426</ele>
        <time>2022-08-03T10:17:22.000Z</time>
      </trkpt>
      <trkpt lat="49.35162" lon="-0.79675">
        <ele>49.849931</ele>
        <time>2022-08-03T10:17:23.000Z</time>
      </trkpt>
      <trkpt lat="49.35157" lon="-0.79676">
        <ele>49.830971</ele>
        <time>2022-08-03T10:17:24.000Z</time>
      </trkpt>
      <trkpt lat="49.35152" lon="-0.79678">
        <ele>49.811229</ele>
        <time>2022-08-03T10:17:25.000Z</time>
      </trkpt>
      <trkpt lat="49.35146" lon="-0.79683">
        <ele>49.786272</ele>
        <time>2022-08-03T10:17:26.000Z</time>
      </trkpt>
      <trkpt lat="49.35141" lon="-0.79687">
        <ele>49.765898</ele>
        <time>2022-08-03T10:17:27.000Z</time>
      </trkpt>
      <trkpt lat="49.35136" lon="-0.79691">
        <ele>49.743788</ele>
        <time>2022-08-03T10:17:28.000Z</time>
      </trkpt>
      <trkpt lat="49.35132" lon="-0.79695">
        <ele>49.727129</ele>
        <time>2022-08-03T10:17:29.000Z</time>
      </trkpt>
      <trkpt lat="49.35126" lon="-0.79701">
        <ele>49.700048</ele>
        <time>2022-08-03T10:17:30.000Z</time>
      </trkpt>
      <trkpt lat="49.35122" lon="-0.79708">
        <ele>49.677712</ele>
        <time>2022-08-03T10:17:31.000Z</time>
      </trkpt>
      <trkpt lat="49.35119" lon="-0.79716">
        <ele>49.654449</ele>
        <time>2022-08-03T10:17:32.000Z</time>
      </trkpt>
      <trkpt lat="49.35118" lon="-0.79724">
        <ele>49.635919</ele>
        <time>2022-08-03T10:17:33.000Z</time>
      </trkpt>
      <trkpt lat="49.35117" lon="-0.79736">
        <ele>49.607671</ele>
        <time>2022-08-03T10:17:34.000Z</time>
      </trkpt>
      <trkpt lat="49.35116" lon="-0.79745">
        <ele>49.584822</ele>
        <time>2022-08-03T10:17:35.000Z</time>
      </trkpt>
      <trkpt lat="49.35114" lon="-0.79754">
        <ele>49.562208</ele>
        <time>2022-08-03T10:17:36.000Z</time>
      </trkpt>
      <trkpt lat="49.35113" lon="-0.79761">
        <ele>49.545066</ele>
        <time>2022-08-03T10:17:37.000Z</time>
      </trkpt>
      <trkpt lat="49.3511" lon="-0.79769">
        <ele>49.524206</ele>
        <time>2022-08-03T10:17:38.000Z</time>
      </trkpt>
      <trkpt lat="49.35106" lon="-0.79777">
        <ele>49.498959</ele>
        <time>2022-08-03T10:17:39.000Z</time>
      </trkpt>
      <trkpt lat="49.35103" lon="-0.79783">
        <ele>49.479967</ele>
        <time>2022-08-03T10:17:40.000Z</time>
      </trkpt>
      <trkpt lat="49.351" lon="-0.79787">
        <ele>49.46665</ele>
        <time>2022-08-03T10:17:41.000Z</time>
      </trkpt>
      <trkpt lat="49.35097" lon="-0.7979">
        <ele>49.451064</ele>
        <time>2022-08-03T10:17:42.000Z</time>
      </trkpt>
      <trkpt lat="49.35093" lon="-0.79793">
        <ele>49.437712</ele>
        <time>2022-08-03T10:17:43.000Z</time>
      </trkpt>
      <trkpt lat="49.3509" lon="-0.79795">
        <ele>49.42256</ele>
        <time>2022-08-03T10:17:44.000Z</time>
      </trkpt>
      <trkpt lat="49.35086" lon="-0.79797">
        <ele>49.408788</ele>
        <time>2022-08-03T10:17:45.000Z</time>
      </trkpt>
      <trkpt lat="49.35083" lon="-0.79799">
        <ele>49.583847</ele>
        <time>2022-08-03T10:17:46.000Z</time>
      </trkpt>
      <trkpt lat="49.3508" lon="-0.79802">
        <ele>49.793499</ele>
        <time>2022-08-03T10:17:47.000Z</time>
      </trkpt>
      <trkpt lat="49.35077" lon="-0.79804">
        <ele>50.005055</ele>
        <time>2022-08-03T10:17:48.000Z</time>
      </trkpt>
      <trkpt lat="49.35074" lon="-0.79806">
        <ele>50.203893</ele>
        <time>2022-08-03T10:17:49.000Z</time>
      </trkpt>
      <trkpt lat="49.35072" lon="-0.79808">
        <ele>50.353205</ele>
        <time>2022-08-03T10:17:50.000Z</time>
      </trkpt>
      <trkpt lat="49.35071" lon="-0.79811">
        <ele>50.47861</ele>
        <time>2022-08-03T10:17:51.000Z</time>
      </trkpt>
      <trkpt lat="49.3507" lon="-0.79814">
        <ele>50.656903</ele>
        <time>2022-08-03T10:17:53.000Z</time>
      </trkpt>
      <trkpt lat="49.35069" lon="-0.79818">
        <ele>50.845634</ele>
        <time>2022-08-03T10:17:55.000Z</time>
      </trkpt>
      <trkpt lat="49.35066" lon="-0.79821">
        <ele>51.044472</ele>
        <time>2022-08-03T10:17:57.000Z</time>
      </trkpt>
      <trkpt lat="49.35064" lon="-0.79822">
        <ele>51.17111</ele>
        <time>2022-08-03T10:17:58.000Z</time>
      </trkpt>
      <trkpt lat="49.35062" lon="-0.79821">
        <ele>51.31525</ele>
        <time>2022-08-03T10:18:00.000Z</time>
      </trkpt>
      <trkpt lat="49.35059" lon="-0.7982">
        <ele>51.526901</ele>
        <time>2022-08-03T10:18:02.000Z</time>
      </trkpt>
      <trkpt lat="49.35056" lon="-0.79819">
        <ele>51.704124</ele>
        <time>2022-08-03T10:18:04.000Z</time>
      </trkpt>
      <trkpt lat="49.35054" lon="-0.79818">
        <ele>51.851686</ele>
        <time>2022-08-03T10:18:05.000Z</time>
      </trkpt>
      <trkpt lat="49.35052" lon="-0.79818">
        <ele>51.981926</ele>
        <time>2022-08-03T10:18:06.000Z</time>
      </trkpt>
      <trkpt lat="49.35049" lon="-0.79817">
        <ele>52.16384</ele>
        <time>2022-08-03T10:18:07.000Z</time>
      </trkpt>
      <trkpt lat="49.35047" lon="-0.79817">
        <ele>52.31386</ele>
        <time>2022-08-03T10:18:08.000Z</time>
      </trkpt>
      <trkpt lat="49.35044" lon="-0.79817">
        <ele>52.476109</ele>
        <time>2022-08-03T10:18:09.000Z</time>
      </trkpt>
      <trkpt lat="49.35041" lon="-0.79817">
        <ele>52.683677</ele>
        <time>2022-08-03T10:18:10.000Z</time>
      </trkpt>
      <trkpt lat="49.35038" lon="-0.79817">
        <ele>52.872813</ele>
        <time>2022-08-03T10:18:11.000Z</time>
      </trkpt>
      <trkpt lat="49.35035" lon="-0.79816">
        <ele>53.061948</ele>
        <time>2022-08-03T10:18:12.000Z</time>
      </trkpt>
      <trkpt lat="49.35033" lon="-0.79815">
        <ele>53.210653</ele>
        <time>2022-08-03T10:18:13.000Z</time>
      </trkpt>
      <trkpt lat="49.35031" lon="-0.79814">
        <ele>53.368094</ele>
        <time>2022-08-03T10:18:14.000Z</time>
      </trkpt>
      <trkpt lat="49.35029" lon="-0.79813">
        <ele>53.516799</ele>
        <time>2022-08-03T10:18:15.000Z</time>
      </trkpt>
      <trkpt lat="49.35026" lon="-0.79812">
        <ele>53.668767</ele>
        <time>2022-08-03T10:18:16.000Z</time>
      </trkpt>
      <trkpt lat="49.35023" lon="-0.79812">
        <ele>53.850681</ele>
        <time>2022-08-03T10:18:17.000Z</time>
      </trkpt>
      <trkpt lat="49.35021" lon="-0.79812">
        <ele>54.019666</ele>
        <time>2022-08-03T10:18:18.000Z</time>
      </trkpt>
      <trkpt lat="49.35018" lon="-0.79811">
        <ele>54.18902</ele>
        <time>2022-08-03T10:18:19.000Z</time>
      </trkpt>
      <trkpt lat="49.35015" lon="-0.79811">
        <ele>54.371716</ele>
        <time>2022-08-03T10:18:20.000Z</time>
      </trkpt>
      <trkpt lat="49.35013" lon="-0.7981">
        <ele>54.52292</ele>
        <time>2022-08-03T10:18:21.000Z</time>
      </trkpt>
      <trkpt lat="49.35011" lon="-0.7981">
        <ele>54.687622</ele>
        <time>2022-08-03T10:18:22.000Z</time>
      </trkpt>
      <trkpt lat="49.35008" lon="-0.79809">
        <ele>54.837226</ele>
        <time>2022-08-03T10:18:23.000Z</time>
      </trkpt>
      <trkpt lat="49.35006" lon="-0.79809">
        <ele>54.979874</ele>
        <time>2022-08-03T10:18:24.000Z</time>
      </trkpt>
      <trkpt lat="49.35003" lon="-0.79809">
        <ele>55.167827</ele>
        <time>2022-08-03T10:18:25.000Z</time>
      </trkpt>
      <trkpt lat="49.35001" lon="-0.79809">
        <ele>55.336813</ele>
        <time>2022-08-03T10:18:26.000Z</time>
      </trkpt>
      <trkpt lat="49.34998" lon="-0.79808">
        <ele>55.483344</ele>
        <time>2022-08-03T10:18:27.000Z</time>
      </trkpt>
      <trkpt lat="49.34996" lon="-0.79808">
        <ele>55.673607</ele>
        <time>2022-08-03T10:18:28.000Z</time>
      </trkpt>
      <trkpt lat="49.34993" lon="-0.79807">
        <ele>55.837005</ele>
        <time>2022-08-03T10:18:29.000Z</time>
      </trkpt>
      <trkpt lat="49.3499" lon="-0.79807">
        <ele>56.00599</ele>
        <time>2022-08-03T10:18:30.000Z</time>
      </trkpt>
      <trkpt lat="49.34988" lon="-0.79806">
        <ele>56.15013</ele>
        <time>2022-08-03T10:18:31.000Z</time>
      </trkpt>
      <trkpt lat="49.34985" lon="-0.79805">
        <ele>56.341886</ele>
        <time>2022-08-03T10:18:32.000Z</time>
      </trkpt>
      <trkpt lat="49.34983" lon="-0.79805">
        <ele>56.466824</ele>
        <time>2022-08-03T10:18:33.000Z</time>
      </trkpt>
      <trkpt lat="49.34981" lon="-0.79804">
        <ele>56.5989</ele>
        <time>2022-08-03T10:18:34.000Z</time>
      </trkpt>
      <trkpt lat="49.34979" lon="-0.79804">
        <ele>56.743039</ele>
        <time>2022-08-03T10:18:35.000Z</time>
      </trkpt>
      <trkpt lat="49.34977" lon="-0.79804">
        <ele>56.86647</ele>
        <time>2022-08-03T10:18:36.000Z</time>
      </trkpt>
      <trkpt lat="49.34975" lon="-0.79804">
        <ele>56.990262</ele>
        <time>2022-08-03T10:18:37.000Z</time>
      </trkpt>
      <trkpt lat="49.34973" lon="-0.79805">
        <ele>57.132726</ele>
        <time>2022-08-03T10:18:38.000Z</time>
      </trkpt>
      <trkpt lat="49.34972" lon="-0.7981">
        <ele>57.341936</ele>
        <time>2022-08-03T10:18:40.000Z</time>
      </trkpt>
      <trkpt lat="49.34972" lon="-0.79813">
        <ele>57.464376</ele>
        <time>2022-08-03T10:18:41.000Z</time>
      </trkpt>
      <trkpt lat="49.34973" lon="-0.79816">
        <ele>57.588826</ele>
        <time>2022-08-03T10:18:42.000Z</time>
      </trkpt>
      <trkpt lat="49.34975" lon="-0.7982">
        <ele>57.825965</ele>
        <time>2022-08-03T10:18:44.000Z</time>
      </trkpt>
      <trkpt lat="49.34976" lon="-0.79823">
        <ele>57.957097</ele>
        <time>2022-08-03T10:18:45.000Z</time>
      </trkpt>
      <trkpt lat="49.34977" lon="-0.79826">
        <ele>58.088923</ele>
        <time>2022-08-03T10:18:46.000Z</time>
      </trkpt>
      <trkpt lat="49.34977" lon="-0.79831">
        <ele>58.300721</ele>
        <time>2022-08-03T10:18:48.000Z</time>
      </trkpt>
      <trkpt lat="49.34979" lon="-0.79834">
        <ele>58.45638</ele>
        <time>2022-08-03T10:18:50.000Z</time>
      </trkpt>
      <trkpt lat="49.34981" lon="-0.79843">
        <ele>58.86947</ele>
        <time>2022-08-03T10:19:13.000Z</time>
      </trkpt>
      <trkpt lat="49.34982" lon="-0.79847">
        <ele>59.04696</ele>
        <time>2022-08-03T10:19:14.000Z</time>
      </trkpt>
      <trkpt lat="49.34983" lon="-0.7985">
        <ele>59.216087</ele>
        <time>2022-08-03T10:19:15.000Z</time>
      </trkpt>
      <trkpt lat="49.34984" lon="-0.79854">
        <ele>59.3777</ele>
        <time>2022-08-03T10:19:16.000Z</time>
      </trkpt>
      <trkpt lat="49.34985" lon="-0.79858">
        <ele>59.558917</ele>
        <time>2022-08-03T10:19:17.000Z</time>
      </trkpt>
      <trkpt lat="49.34986" lon="-0.79862">
        <ele>59.741021</ele>
        <time>2022-08-03T10:19:18.000Z</time>
      </trkpt>
      <trkpt lat="49.34987" lon="-0.79866">
        <ele>59.919973</ele>
        <time>2022-08-03T10:19:19.000Z</time>
      </trkpt>
      <trkpt lat="49.34988" lon="-0.7987">
        <ele>60.123957</ele>
        <time>2022-08-03T10:19:20.000Z</time>
      </trkpt>
      <trkpt lat="49.34989" lon="-0.79874">
        <ele>60.301376</ele>
        <time>2022-08-03T10:19:21.000Z</time>
      </trkpt>
      <trkpt lat="49.34989" lon="-0.79879">
        <ele>60.482917</ele>
        <time>2022-08-03T10:19:22.000Z</time>
      </trkpt>
      <trkpt lat="49.3499" lon="-0.79883">
        <ele>60.675688</ele>
        <time>2022-08-03T10:19:23.000Z</time>
      </trkpt>
      <trkpt lat="49.34991" lon="-0.79887">
        <ele>60.865485</ele>
        <time>2022-08-03T10:19:24.000Z</time>
      </trkpt>
      <trkpt lat="49.34993" lon="-0.79892">
        <ele>61.059703</ele>
        <time>2022-08-03T10:19:25.000Z</time>
      </trkpt>
      <trkpt lat="49.34994" lon="-0.79897">
        <ele>61.011091</ele>
        <time>2022-08-03T10:19:26.000Z</time>
      </trkpt>
      <trkpt lat="49.34995" lon="-0.79902">
        <ele>60.957642</ele>
        <time>2022-08-03T10:19:27.000Z</time>
      </trkpt>
      <trkpt lat="49.34997" lon="-0.79907">
        <ele>60.903038</ele>
        <time>2022-08-03T10:19:28.000Z</time>
      </trkpt>
      <trkpt lat="49.34999" lon="-0.79913">
        <ele>60.843641</ele>
        <time>2022-08-03T10:19:29.000Z</time>
      </trkpt>
      <trkpt lat="49.35" lon="-0.79919">
        <ele>60.783385</ele>
        <time>2022-08-03T10:19:30.000Z</time>
      </trkpt>
      <trkpt lat="49.35002" lon="-0.79925">
        <ele>60.721381</ele>
        <time>2022-08-03T10:19:31.000Z</time>
      </trkpt>
      <trkpt lat="49.35003" lon="-0.7993">
        <ele>60.667414</ele>
        <time>2022-08-03T10:19:32.000Z</time>
      </trkpt>
      <trkpt lat="49.35005" lon="-0.79936">
        <ele>60.606245</ele>
        <time>2022-08-03T10:19:33.000Z</time>
      </trkpt>
      <trkpt lat="49.35007" lon="-0.79942">
        <ele>60.544717</ele>
        <time>2022-08-03T10:19:34.000Z</time>
      </trkpt>
      <trkpt lat="49.35009" lon="-0.79948">
        <ele>60.482713</ele>
        <time>2022-08-03T10:19:35.000Z</time>
      </trkpt>
      <trkpt lat="49.35011" lon="-0.79954">
        <ele>60.419032</ele>
        <time>2022-08-03T10:19:36.000Z</time>
      </trkpt>
      <trkpt lat="49.35013" lon="-0.7996">
        <ele>60.358776</ele>
        <time>2022-08-03T10:19:37.000Z</time>
      </trkpt>
      <trkpt lat="49.35015" lon="-0.79966">
        <ele>60.298438</ele>
        <time>2022-08-03T10:19:38.000Z</time>
      </trkpt>
      <trkpt lat="49.35017" lon="-0.79972">
        <ele>60.234757</ele>
        <time>2022-08-03T10:19:39.000Z</time>
      </trkpt>
      <trkpt lat="49.35019" lon="-0.79978">
        <ele>60.169622</ele>
        <time>2022-08-03T10:19:40.000Z</time>
      </trkpt>
      <trkpt lat="49.35021" lon="-0.79985">
        <ele>60.101707</ele>
        <time>2022-08-03T10:19:41.000Z</time>
      </trkpt>
      <trkpt lat="49.35022" lon="-0.79992">
        <ele>60.035493</ele>
        <time>2022-08-03T10:19:42.000Z</time>
      </trkpt>
      <trkpt lat="49.35024" lon="-0.79998">
        <ele>59.969278</ele>
        <time>2022-08-03T10:19:43.000Z</time>
      </trkpt>
      <trkpt lat="49.35027" lon="-0.80005">
        <ele>59.898067</ele>
        <time>2022-08-03T10:19:44.000Z</time>
      </trkpt>
      <trkpt lat="49.35029" lon="-0.80012">
        <ele>59.827588</ele>
        <time>2022-08-03T10:19:45.000Z</time>
      </trkpt>
      <trkpt lat="49.3503" lon="-0.80019">
        <ele>59.759673</ele>
        <time>2022-08-03T10:19:46.000Z</time>
      </trkpt>
      <trkpt lat="49.35032" lon="-0.80025">
        <ele>59.691758</ele>
        <time>2022-08-03T10:19:47.000Z</time>
      </trkpt>
      <trkpt lat="49.35034" lon="-0.80031">
        <ele>59.631421</ele>
        <time>2022-08-03T10:19:48.000Z</time>
      </trkpt>
      <trkpt lat="49.35036" lon="-0.80037">
        <ele>59.572881</ele>
        <time>2022-08-03T10:19:49.000Z</time>
      </trkpt>
      <trkpt lat="49.35038" lon="-0.80042">
        <ele>59.512138</ele>
        <time>2022-08-03T10:19:50.000Z</time>
      </trkpt>
      <trkpt lat="49.35039" lon="-0.80049">
        <ele>59.453883</ele>
        <time>2022-08-03T10:19:51.000Z</time>
      </trkpt>
      <trkpt lat="49.3504" lon="-0.80055">
        <ele>59.391903</ele>
        <time>2022-08-03T10:19:52.000Z</time>
      </trkpt>
      <trkpt lat="49.35041" lon="-0.80063">
        <ele>59.316194</ele>
        <time>2022-08-03T10:19:53.000Z</time>
      </trkpt>
      <trkpt lat="49.35043" lon="-0.80069">
        <ele>59.252111</ele>
        <time>2022-08-03T10:19:54.000Z</time>
      </trkpt>
      <trkpt lat="49.35045" lon="-0.80075">
        <ele>59.19507</ele>
        <time>2022-08-03T10:19:55.000Z</time>
      </trkpt>
      <trkpt lat="49.35046" lon="-0.80079">
        <ele>59.147423</ele>
        <time>2022-08-03T10:19:56.000Z</time>
      </trkpt>
      <trkpt lat="49.35047" lon="-0.80083">
        <ele>59.114173</ele>
        <time>2022-08-03T10:19:57.000Z</time>
      </trkpt>
      <trkpt lat="49.35048" lon="-0.80085">
        <ele>59.084496</ele>
        <time>2022-08-03T10:19:58.000Z</time>
      </trkpt>
      <trkpt lat="49.35047" lon="-0.8009">
        <ele>59.042935</ele>
        <time>2022-08-03T10:20:00.000Z</time>
      </trkpt>
      <trkpt lat="49.35045" lon="-0.80093">
        <ele>58.995894</ele>
        <time>2022-08-03T10:20:02.000Z</time>
      </trkpt>
      <trkpt lat="49.35042" lon="-0.80095">
        <ele>58.95863</ele>
        <time>2022-08-03T10:20:03.000Z</time>
      </trkpt>
      <trkpt lat="49.3504" lon="-0.80096">
        <ele>58.923898</ele>
        <time>2022-08-03T10:20:04.000Z</time>
      </trkpt>
      <trkpt lat="49.35038" lon="-0.80098">
        <ele>58.888758</ele>
        <time>2022-08-03T10:20:05.000Z</time>
      </trkpt>
      <trkpt lat="49.35035" lon="-0.801">
        <ele>58.840135</ele>
        <time>2022-08-03T10:20:06.000Z</time>
      </trkpt>
      <trkpt lat="49.35032" lon="-0.80102">
        <ele>58.797778</ele>
        <time>2022-08-03T10:20:07.000Z</time>
      </trkpt>
      <trkpt lat="49.35029" lon="-0.80104">
        <ele>58.747367</ele>
        <time>2022-08-03T10:20:08.000Z</time>
      </trkpt>
      <trkpt lat="49.35025" lon="-0.80107">
        <ele>58.692677</ele>
        <time>2022-08-03T10:20:09.000Z</time>
      </trkpt>
      <trkpt lat="49.35022" lon="-0.80109">
        <ele>58.644762</ele>
        <time>2022-08-03T10:20:10.000Z</time>
      </trkpt>
      <trkpt lat="49.35019" lon="-0.80112">
        <ele>58.584217</ele>
        <time>2022-08-03T10:20:11.000Z</time>
      </trkpt>
      <trkpt lat="49.35015" lon="-0.80115">
        <ele>58.525326</ele>
        <time>2022-08-03T10:20:12.000Z</time>
      </trkpt>
      <trkpt lat="49.35011" lon="-0.80119">
        <ele>58.425302</ele>
        <time>2022-08-03T10:20:13.000Z</time>
      </trkpt>
      <trkpt lat="49.35007" lon="-0.80121">
        <ele>58.295047</ele>
        <time>2022-08-03T10:20:14.000Z</time>
      </trkpt>
      <trkpt lat="49.35004" lon="-0.80124">
        <ele>58.16284</ele>
        <time>2022-08-03T10:20:15.000Z</time>
      </trkpt>
      <trkpt lat="49.35" lon="-0.80127">
        <ele>58.046971</ele>
        <time>2022-08-03T10:20:16.000Z</time>
      </trkpt>
      <trkpt lat="49.34997" lon="-0.8013">
        <ele>57.927842</ele>
        <time>2022-08-03T10:20:17.000Z</time>
      </trkpt>
      <trkpt lat="49.34993" lon="-0.80134">
        <ele>57.790899</ele>
        <time>2022-08-03T10:20:18.000Z</time>
      </trkpt>
      <trkpt lat="49.3499" lon="-0.80137">
        <ele>57.678135</ele>
        <time>2022-08-03T10:20:19.000Z</time>
      </trkpt>
      <trkpt lat="49.34987" lon="-0.8014">
        <ele>57.564312</ele>
        <time>2022-08-03T10:20:20.000Z</time>
      </trkpt>
      <trkpt lat="49.34984" lon="-0.80143">
        <ele>57.44502</ele>
        <time>2022-08-03T10:20:21.000Z</time>
      </trkpt>
      <trkpt lat="49.3498" lon="-0.80145">
        <ele>57.327369</ele>
        <time>2022-08-03T10:20:22.000Z</time>
      </trkpt>
      <trkpt lat="49.34977" lon="-0.80148">
        <ele>57.203554</ele>
        <time>2022-08-03T10:20:23.000Z</time>
      </trkpt>
      <trkpt lat="49.34973" lon="-0.8015">
        <ele>57.08159</ele>
        <time>2022-08-03T10:20:24.000Z</time>
      </trkpt>
      <trkpt lat="49.3497" lon="-0.80153">
        <ele>56.974637</ele>
        <time>2022-08-03T10:20:25.000Z</time>
      </trkpt>
      <trkpt lat="49.34967" lon="-0.80156">
        <ele>56.86368</ele>
        <time>2022-08-03T10:20:26.000Z</time>
      </trkpt>
      <trkpt lat="49.34964" lon="-0.80158">
        <ele>56.754491</ele>
        <time>2022-08-03T10:20:27.000Z</time>
      </trkpt>
      <trkpt lat="49.34961" lon="-0.8016">
        <ele>56.667374</ele>
        <time>2022-08-03T10:20:28.000Z</time>
      </trkpt>
      <trkpt lat="49.34959" lon="-0.80162">
        <ele>56.575631</ele>
        <time>2022-08-03T10:20:29.000Z</time>
      </trkpt>
      <trkpt lat="49.34956" lon="-0.80165">
        <ele>56.474761</ele>
        <time>2022-08-03T10:20:30.000Z</time>
      </trkpt>
      <trkpt lat="49.34953" lon="-0.80166">
        <ele>56.393194</ele>
        <time>2022-08-03T10:20:31.000Z</time>
      </trkpt>
      <trkpt lat="49.34951" lon="-0.80167">
        <ele>56.315971</ele>
        <time>2022-08-03T10:20:32.000Z</time>
      </trkpt>
      <trkpt lat="49.34949" lon="-0.80168">
        <ele>56.256401</ele>
        <time>2022-08-03T10:20:33.000Z</time>
      </trkpt>
      <trkpt lat="49.34949" lon="-0.80175">
        <ele>56.116265</ele>
        <time>2022-08-03T10:21:28.000Z</time>
      </trkpt>
      <trkpt lat="49.3495" lon="-0.8018">
        <ele>56.002259</ele>
        <time>2022-08-03T10:21:29.000Z</time>
      </trkpt>
      <trkpt lat="49.34951" lon="-0.80186">
        <ele>55.868011</ele>
        <time>2022-08-03T10:21:30.000Z</time>
      </trkpt>
      <trkpt lat="49.34952" lon="-0.80194">
        <ele>55.714736</ele>
        <time>2022-08-03T10:21:31.000Z</time>
      </trkpt>
      <trkpt lat="49.34952" lon="-0.80203">
        <ele>55.539597</ele>
        <time>2022-08-03T10:21:32.000Z</time>
      </trkpt>
      <trkpt lat="49.3495" lon="-0.80213">
        <ele>55.320483</ele>
        <time>2022-08-03T10:21:33.000Z</time>
      </trkpt>
      <trkpt lat="49.34948" lon="-0.80221">
        <ele>55.140506</ele>
        <time>2022-08-03T10:21:34.000Z</time>
      </trkpt>
      <trkpt lat="49.34944" lon="-0.80233">
        <ele>54.871907</ele>
        <time>2022-08-03T10:21:35.000Z</time>
      </trkpt>
      <trkpt lat="49.34941" lon="-0.80241">
        <ele>54.699782</ele>
        <time>2022-08-03T10:21:36.000Z</time>
      </trkpt>
      <trkpt lat="49.34937" lon="-0.80251">
        <ele>54.443394</ele>
        <time>2022-08-03T10:21:37.000Z</time>
      </trkpt>
      <trkpt lat="49.34932" lon="-0.80259">
        <ele>54.224446</ele>
        <time>2022-08-03T10:21:38.000Z</time>
      </trkpt>
      <trkpt lat="49.34927" lon="-0.80268">
        <ele>53.997992</ele>
        <time>2022-08-03T10:21:39.000Z</time>
      </trkpt>
      <trkpt lat="49.34923" lon="-0.80276">
        <ele>53.796229</ele>
        <time>2022-08-03T10:21:40.000Z</time>
      </trkpt>
      <trkpt lat="49.34919" lon="-0.80283">
        <ele>53.599882</ele>
        <time>2022-08-03T10:21:41.000Z</time>
      </trkpt>
      <trkpt lat="49.34916" lon="-0.80291">
        <ele>53.414157</ele>
        <time>2022-08-03T10:21:42.000Z</time>
      </trkpt>
      <trkpt lat="49.34912" lon="-0.80298">
        <ele>53.228433</ele>
        <time>2022-08-03T10:21:43.000Z</time>
      </trkpt>
      <trkpt lat="49.34909" lon="-0.80305">
        <ele>53.069705</ele>
        <time>2022-08-03T10:21:44.000Z</time>
      </trkpt>
      <trkpt lat="49.34907" lon="-0.8031">
        <ele>52.948241</ele>
        <time>2022-08-03T10:21:45.000Z</time>
      </trkpt>
      <trkpt lat="49.34904" lon="-0.80316">
        <ele>52.730988</ele>
        <time>2022-08-03T10:21:46.000Z</time>
      </trkpt>
      <trkpt lat="49.34901" lon="-0.80322">
        <ele>52.51295</ele>
        <time>2022-08-03T10:21:47.000Z</time>
      </trkpt>
      <trkpt lat="49.34897" lon="-0.80329">
        <ele>52.261328</ele>
        <time>2022-08-03T10:21:48.000Z</time>
      </trkpt>
      <trkpt lat="49.34894" lon="-0.80335">
        <ele>52.028587</ele>
        <time>2022-08-03T10:21:49.000Z</time>
      </trkpt>
      <trkpt lat="49.34892" lon="-0.80343">
        <ele>51.788409</ele>
        <time>2022-08-03T10:21:50.000Z</time>
      </trkpt>
      <trkpt lat="49.3489" lon="-0.80351">
        <ele>51.531696</ele>
        <time>2022-08-03T10:21:51.000Z</time>
      </trkpt>
      <trkpt lat="49.34889" lon="-0.80359">
        <ele>51.302785</ele>
        <time>2022-08-03T10:21:52.000Z</time>
      </trkpt>
      <trkpt lat="49.3489" lon="-0.80368">
        <ele>51.042496</ele>
        <time>2022-08-03T10:21:53.000Z</time>
      </trkpt>
      <trkpt lat="49.34891" lon="-0.80376">
        <ele>50.803436</ele>
        <time>2022-08-03T10:21:54.000Z</time>
      </trkpt>
      <trkpt lat="49.34894" lon="-0.80388">
        <ele>50.440487</ele>
        <time>2022-08-03T10:21:55.000Z</time>
      </trkpt>
      <trkpt lat="49.34897" lon="-0.80398">
        <ele>50.127335</ele>
        <time>2022-08-03T10:21:56.000Z</time>
      </trkpt>
      <trkpt lat="49.349" lon="-0.80408">
        <ele>49.809415</ele>
        <time>2022-08-03T10:21:57.000Z</time>
      </trkpt>
      <trkpt lat="49.34903" lon="-0.80416">
        <ele>49.549988</ele>
        <time>2022-08-03T10:21:58.000Z</time>
      </trkpt>
      <trkpt lat="49.34906" lon="-0.80427">
        <ele>49.229102</ele>
        <time>2022-08-03T10:21:59.000Z</time>
      </trkpt>
      <trkpt lat="49.34908" lon="-0.80435">
        <ele>48.973709</ele>
        <time>2022-08-03T10:22:00.000Z</time>
      </trkpt>
      <trkpt lat="49.3491" lon="-0.8044">
        <ele>48.800896</ele>
        <time>2022-08-03T10:22:01.000Z</time>
      </trkpt>
      <trkpt lat="49.34912" lon="-0.80445">
        <ele>48.63554</ele>
        <time>2022-08-03T10:22:02.000Z</time>
      </trkpt>
      <trkpt lat="49.34912" lon="-0.80452">
        <ele>48.449858</ele>
        <time>2022-08-03T10:22:03.000Z</time>
      </trkpt>
      <trkpt lat="49.34911" lon="-0.80456">
        <ele>48.324236</ele>
        <time>2022-08-03T10:22:04.000Z</time>
      </trkpt>
      <trkpt lat="49.34909" lon="-0.80458">
        <ele>48.200654</ele>
        <time>2022-08-03T10:22:05.000Z</time>
      </trkpt>
      <trkpt lat="49.34906" lon="-0.80461">
        <ele>48.046901</ele>
        <time>2022-08-03T10:22:06.000Z</time>
      </trkpt>
      <trkpt lat="49.34903" lon="-0.80462">
        <ele>47.912709</ele>
        <time>2022-08-03T10:22:07.000Z</time>
      </trkpt>
      <trkpt lat="49.349" lon="-0.80464">
        <ele>47.764221</ele>
        <time>2022-08-03T10:22:08.000Z</time>
      </trkpt>
      <trkpt lat="49.34897" lon="-0.80466">
        <ele>47.631106</ele>
        <time>2022-08-03T10:22:09.000Z</time>
      </trkpt>
      <trkpt lat="49.34894" lon="-0.80468">
        <ele>47.477353</ele>
        <time>2022-08-03T10:22:10.000Z</time>
      </trkpt>
      <trkpt lat="49.3489" lon="-0.8047">
        <ele>47.311327</ele>
        <time>2022-08-03T10:22:11.000Z</time>
      </trkpt>
      <trkpt lat="49.34888" lon="-0.80472">
        <ele>47.187813</ele>
        <time>2022-08-03T10:22:12.000Z</time>
      </trkpt>
      <trkpt lat="49.34885" lon="-0.80474">
        <ele>47.050643</ele>
        <time>2022-08-03T10:22:13.000Z</time>
      </trkpt>
      <trkpt lat="49.34882" lon="-0.80476">
        <ele>46.891296</ele>
        <time>2022-08-03T10:22:14.000Z</time>
      </trkpt>
      <trkpt lat="49.34878" lon="-0.80478">
        <ele>46.72545</ele>
        <time>2022-08-03T10:22:15.000Z</time>
      </trkpt>
      <trkpt lat="49.34875" lon="-0.80481">
        <ele>46.570486</ele>
        <time>2022-08-03T10:22:16.000Z</time>
      </trkpt>
      <trkpt lat="49.34872" lon="-0.80483">
        <ele>46.402391</ele>
        <time>2022-08-03T10:22:17.000Z</time>
      </trkpt>
      <trkpt lat="49.34869" lon="-0.80486">
        <ele>46.244941</ele>
        <time>2022-08-03T10:22:18.000Z</time>
      </trkpt>
      <trkpt lat="49.34866" lon="-0.80488">
        <ele>46.097672</ele>
        <time>2022-08-03T10:22:19.000Z</time>
      </trkpt>
      <trkpt lat="49.34862" lon="-0.80491">
        <ele>45.943919</ele>
        <time>2022-08-03T10:22:20.000Z</time>
      </trkpt>
      <trkpt lat="49.3486" lon="-0.80493">
        <ele>45.81233</ele>
        <time>2022-08-03T10:22:21.000Z</time>
      </trkpt>
      <trkpt lat="49.34858" lon="-0.80495">
        <ele>45.6923</ele>
        <time>2022-08-03T10:22:22.000Z</time>
      </trkpt>
      <trkpt lat="49.34855" lon="-0.80498">
        <ele>45.57227</ele>
        <time>2022-08-03T10:22:23.000Z</time>
      </trkpt>
      <trkpt lat="49.34852" lon="-0.805">
        <ele>45.418517</ele>
        <time>2022-08-03T10:22:24.000Z</time>
      </trkpt>
      <trkpt lat="49.3485" lon="-0.80502">
        <ele>45.28833</ele>
        <time>2022-08-03T10:22:25.000Z</time>
      </trkpt>
      <trkpt lat="49.34846" lon="-0.80505">
        <ele>45.129563</ele>
        <time>2022-08-03T10:22:26.000Z</time>
      </trkpt>
      <trkpt lat="49.34844" lon="-0.80509">
        <ele>45.136195</ele>
        <time>2022-08-03T10:22:27.000Z</time>
      </trkpt>
      <trkpt lat="49.34842" lon="-0.80512">
        <ele>45.28298</ele>
        <time>2022-08-03T10:22:28.000Z</time>
      </trkpt>
      <trkpt lat="49.3484" lon="-0.80515">
        <ele>45.388749</ele>
        <time>2022-08-03T10:22:29.000Z</time>
      </trkpt>
      <trkpt lat="49.34838" lon="-0.80518">
        <ele>45.531252</ele>
        <time>2022-08-03T10:22:30.000Z</time>
      </trkpt>
      <trkpt lat="49.34836" lon="-0.80521">
        <ele>45.665392</ele>
        <time>2022-08-03T10:22:31.000Z</time>
      </trkpt>
      <trkpt lat="49.34833" lon="-0.80523">
        <ele>45.820979</ele>
        <time>2022-08-03T10:22:32.000Z</time>
      </trkpt>
      <trkpt lat="49.3483" lon="-0.80526">
        <ele>45.969549</ele>
        <time>2022-08-03T10:22:33.000Z</time>
      </trkpt>
      <trkpt lat="49.34827" lon="-0.80528">
        <ele>46.129614</ele>
        <time>2022-08-03T10:22:34.000Z</time>
      </trkpt>
      <trkpt lat="49.34824" lon="-0.80529">
        <ele>46.246599</ele>
        <time>2022-08-03T10:22:35.000Z</time>
      </trkpt>
      <trkpt lat="49.34822" lon="-0.80531">
        <ele>46.363543</ele>
        <time>2022-08-03T10:22:36.000Z</time>
      </trkpt>
      <trkpt lat="49.3482" lon="-0.80532">
        <ele>46.456595</ele>
        <time>2022-08-03T10:22:37.000Z</time>
      </trkpt>
      <trkpt lat="49.34819" lon="-0.80534">
        <ele>46.540462</ele>
        <time>2022-08-03T10:22:38.000Z</time>
      </trkpt>
      <trkpt lat="49.34816" lon="-0.80537">
        <ele>46.702474</ele>
        <time>2022-08-03T10:22:40.000Z</time>
      </trkpt>
      <trkpt lat="49.34814" lon="-0.80539">
        <ele>46.799014</ele>
        <time>2022-08-03T10:22:41.000Z</time>
      </trkpt>
      <trkpt lat="49.34813" lon="-0.80542">
        <ele>46.900719</ele>
        <time>2022-08-03T10:22:42.000Z</time>
      </trkpt>
      <trkpt lat="49.34812" lon="-0.80544">
        <ele>46.996311</ele>
        <time>2022-08-03T10:22:43.000Z</time>
      </trkpt>
      <trkpt lat="49.3481" lon="-0.80546">
        <ele>47.114765</ele>
        <time>2022-08-03T10:22:44.000Z</time>
      </trkpt>
      <trkpt lat="49.34807" lon="-0.80548">
        <ele>47.265987</ele>
        <time>2022-08-03T10:22:45.000Z</time>
      </trkpt>
      <trkpt lat="49.34805" lon="-0.80551">
        <ele>47.379981</ele>
        <time>2022-08-03T10:22:46.000Z</time>
      </trkpt>
      <trkpt lat="49.34803" lon="-0.80553">
        <ele>47.50679</ele>
        <time>2022-08-03T10:22:47.000Z</time>
      </trkpt>
      <trkpt lat="49.348" lon="-0.80556">
        <ele>47.64859</ele>
        <time>2022-08-03T10:22:48.000Z</time>
      </trkpt>
      <trkpt lat="49.34798" lon="-0.8056">
        <ele>47.809474</ele>
        <time>2022-08-03T10:22:49.000Z</time>
      </trkpt>
      <trkpt lat="49.34795" lon="-0.80564">
        <ele>47.990094</ele>
        <time>2022-08-03T10:22:50.000Z</time>
      </trkpt>
      <trkpt lat="49.34793" lon="-0.80568">
        <ele>48.155688</ele>
        <time>2022-08-03T10:22:51.000Z</time>
      </trkpt>
      <trkpt lat="49.3479" lon="-0.80573">
        <ele>48.325491</ele>
        <time>2022-08-03T10:22:52.000Z</time>
      </trkpt>
      <trkpt lat="49.34789" lon="-0.80578">
        <ele>48.502803</ele>
        <time>2022-08-03T10:22:53.000Z</time>
      </trkpt>
      <trkpt lat="49.34786" lon="-0.80584">
        <ele>48.71281</ele>
        <time>2022-08-03T10:22:54.000Z</time>
      </trkpt>
      <trkpt lat="49.34783" lon="-0.8059">
        <ele>48.945624</ele>
        <time>2022-08-03T10:22:55.000Z</time>
      </trkpt>
      <trkpt lat="49.34781" lon="-0.80597">
        <ele>49.178655</ele>
        <time>2022-08-03T10:22:56.000Z</time>
      </trkpt>
      <trkpt lat="49.34778" lon="-0.80604">
        <ele>49.421845</ele>
        <time>2022-08-03T10:22:57.000Z</time>
      </trkpt>
      <trkpt lat="49.34775" lon="-0.80612">
        <ele>49.716793</ele>
        <time>2022-08-03T10:22:58.000Z</time>
      </trkpt>
      <trkpt lat="49.34773" lon="-0.80618">
        <ele>49.912726</ele>
        <time>2022-08-03T10:22:59.000Z</time>
      </trkpt>
      <trkpt lat="49.34771" lon="-0.80625">
        <ele>50.141595</ele>
        <time>2022-08-03T10:23:00.000Z</time>
      </trkpt>
      <trkpt lat="49.34769" lon="-0.80632">
        <ele>50.362134</ele>
        <time>2022-08-03T10:23:01.000Z</time>
      </trkpt>
      <trkpt lat="49.34768" lon="-0.80638">
        <ele>50.566643</ele>
        <time>2022-08-03T10:23:02.000Z</time>
      </trkpt>
      <trkpt lat="49.34768" lon="-0.80645">
        <ele>50.764778</ele>
        <time>2022-08-03T10:23:03.000Z</time>
      </trkpt>
      <trkpt lat="49.34767" lon="-0.80651">
        <ele>50.966349</ele>
        <time>2022-08-03T10:23:04.000Z</time>
      </trkpt>
      <trkpt lat="49.34766" lon="-0.80658">
        <ele>51.155524</ele>
        <time>2022-08-03T10:23:05.000Z</time>
      </trkpt>
      <trkpt lat="49.34765" lon="-0.80664">
        <ele>51.351226</ele>
        <time>2022-08-03T10:23:06.000Z</time>
      </trkpt>
      <trkpt lat="49.34765" lon="-0.8067">
        <ele>51.546373</ele>
        <time>2022-08-03T10:23:07.000Z</time>
      </trkpt>
      <trkpt lat="49.34763" lon="-0.80677">
        <ele>51.745822</ele>
        <time>2022-08-03T10:23:08.000Z</time>
      </trkpt>
      <trkpt lat="49.34763" lon="-0.80682">
        <ele>51.920084</ele>
        <time>2022-08-03T10:23:09.000Z</time>
      </trkpt>
      <trkpt lat="49.34761" lon="-0.80688">
        <ele>52.101877</ele>
        <time>2022-08-03T10:23:10.000Z</time>
      </trkpt>
      <trkpt lat="49.3476" lon="-0.80693">
        <ele>52.267162</ele>
        <time>2022-08-03T10:23:11.000Z</time>
      </trkpt>
      <trkpt lat="49.34758" lon="-0.80698">
        <ele>52.435288</ele>
        <time>2022-08-03T10:23:12.000Z</time>
      </trkpt>
      <trkpt lat="49.34756" lon="-0.80702">
        <ele>52.607912</ele>
        <time>2022-08-03T10:23:13.000Z</time>
      </trkpt>
      <trkpt lat="49.34753" lon="-0.80707">
        <ele>52.789281</ele>
        <time>2022-08-03T10:23:14.000Z</time>
      </trkpt>
      <trkpt lat="49.3475" lon="-0.80711">
        <ele>52.976075</ele>
        <time>2022-08-03T10:23:15.000Z</time>
      </trkpt>
      <trkpt lat="49.34747" lon="-0.80716">
        <ele>53.201733</ele>
        <time>2022-08-03T10:23:16.000Z</time>
      </trkpt>
      <trkpt lat="49.34745" lon="-0.8072">
        <ele>53.342244</ele>
        <time>2022-08-03T10:23:17.000Z</time>
      </trkpt>
      <trkpt lat="49.34742" lon="-0.80724">
        <ele>53.377409</ele>
        <time>2022-08-03T10:23:18.000Z</time>
      </trkpt>
      <trkpt lat="49.34739" lon="-0.80728">
        <ele>53.368414</ele>
        <time>2022-08-03T10:23:19.000Z</time>
      </trkpt>
      <trkpt lat="49.34737" lon="-0.80732">
        <ele>53.360384</ele>
        <time>2022-08-03T10:23:20.000Z</time>
      </trkpt>
      <trkpt lat="49.34733" lon="-0.80737">
        <ele>53.350147</ele>
        <time>2022-08-03T10:23:21.000Z</time>
      </trkpt>
      <trkpt lat="49.34731" lon="-0.80741">
        <ele>53.341957</ele>
        <time>2022-08-03T10:23:22.000Z</time>
      </trkpt>
      <trkpt lat="49.34729" lon="-0.80745">
        <ele>53.335341</ele>
        <time>2022-08-03T10:23:23.000Z</time>
      </trkpt>
      <trkpt lat="49.34726" lon="-0.80749">
        <ele>53.327459</ele>
        <time>2022-08-03T10:23:24.000Z</time>
      </trkpt>
      <trkpt lat="49.34724" lon="-0.80754">
        <ele>53.318767</ele>
        <time>2022-08-03T10:23:25.000Z</time>
      </trkpt>
      <trkpt lat="49.34723" lon="-0.80759">
        <ele>53.311511</ele>
        <time>2022-08-03T10:23:26.000Z</time>
      </trkpt>
      <trkpt lat="49.34723" lon="-0.80763">
        <ele>53.305366</ele>
        <time>2022-08-03T10:23:27.000Z</time>
      </trkpt>
      <trkpt lat="49.34722" lon="-0.80769">
        <ele>53.297389</ele>
        <time>2022-08-03T10:23:28.000Z</time>
      </trkpt>
      <trkpt lat="49.34722" lon="-0.80774">
        <ele>53.289464</ele>
        <time>2022-08-03T10:23:29.000Z</time>
      </trkpt>
      <trkpt lat="49.34723" lon="-0.80777">
        <ele>53.284973</ele>
        <time>2022-08-03T10:23:30.000Z</time>
      </trkpt>
      <trkpt lat="49.34723" lon="-0.80781">
        <ele>53.279715</ele>
        <time>2022-08-03T10:23:31.000Z</time>
      </trkpt>
      <trkpt lat="49.34721" lon="-0.80781">
        <ele>53.275332</ele>
        <time>2022-08-03T10:23:34.000Z</time>
      </trkpt>
      <trkpt lat="49.34719" lon="-0.80779">
        <ele>53.271145</ele>
        <time>2022-08-03T10:23:35.000Z</time>
      </trkpt>
      <trkpt lat="49.34718" lon="-0.80774">
        <ele>53.26323</ele>
        <time>2022-08-03T10:23:37.000Z</time>
      </trkpt>
      <trkpt lat="49.34717" lon="-0.8077">
        <ele>53.257131</ele>
        <time>2022-08-03T10:23:38.000Z</time>
      </trkpt>
      <trkpt lat="49.34716" lon="-0.80766">
        <ele>53.251032</ele>
        <time>2022-08-03T10:23:39.000Z</time>
      </trkpt>
      <trkpt lat="49.34716" lon="-0.80762">
        <ele>53.245063</ele>
        <time>2022-08-03T10:23:40.000Z</time>
      </trkpt>
      <trkpt lat="49.34716" lon="-0.80758">
        <ele>53.239588</ele>
        <time>2022-08-03T10:23:41.000Z</time>
      </trkpt>
      <trkpt lat="49.34718" lon="-0.80755">
        <ele>53.233004</ele>
        <time>2022-08-03T10:23:42.000Z</time>
      </trkpt>
      <trkpt lat="49.34721" lon="-0.80752">
        <ele>53.226169</ele>
        <time>2022-08-03T10:23:43.000Z</time>
      </trkpt>
      <trkpt lat="49.34724" lon="-0.80749">
        <ele>53.218844</ele>
        <time>2022-08-03T10:23:44.000Z</time>
      </trkpt>
      <trkpt lat="49.34727" lon="-0.80747">
        <ele>53.210879</ele>
        <time>2022-08-03T10:23:45.000Z</time>
      </trkpt>
      <trkpt lat="49.34731" lon="-0.80742">
        <ele>53.200487</ele>
        <time>2022-08-03T10:23:46.000Z</time>
      </trkpt>
      <trkpt lat="49.34733" lon="-0.80739">
        <ele>53.193473</ele>
        <time>2022-08-03T10:23:47.000Z</time>
      </trkpt>
      <trkpt lat="49.34737" lon="-0.80733">
        <ele>53.18208</ele>
        <time>2022-08-03T10:23:48.000Z</time>
      </trkpt>
      <trkpt lat="49.34739" lon="-0.8073">
        <ele>53.174813</ele>
        <time>2022-08-03T10:23:49.000Z</time>
      </trkpt>
      <trkpt lat="49.34742" lon="-0.80725">
        <ele>53.164669</ele>
        <time>2022-08-03T10:23:50.000Z</time>
      </trkpt>
      <trkpt lat="49.34745" lon="-0.8072">
        <ele>53.155156</ele>
        <time>2022-08-03T10:23:51.000Z</time>
      </trkpt>
      <trkpt lat="49.34749" lon="-0.80715">
        <ele>53.144727</ele>
        <time>2022-08-03T10:23:52.000Z</time>
      </trkpt>
      <trkpt lat="49.34753" lon="-0.80709">
        <ele>53.133237</ele>
        <time>2022-08-03T10:23:53.000Z</time>
      </trkpt>
      <trkpt lat="49.34755" lon="-0.80705">
        <ele>53.124884</ele>
        <time>2022-08-03T10:23:54.000Z</time>
      </trkpt>
      <trkpt lat="49.34758" lon="-0.80699">
        <ele>53.114083</ele>
        <time>2022-08-03T10:23:55.000Z</time>
      </trkpt>
      <trkpt lat="49.34761" lon="-0.80693">
        <ele>53.103722</ele>
        <time>2022-08-03T10:23:56.000Z</time>
      </trkpt>
      <trkpt lat="49.34763" lon="-0.80685">
        <ele>53.091397</ele>
        <time>2022-08-03T10:23:57.000Z</time>
      </trkpt>
      <trkpt lat="49.34765" lon="-0.80679">
        <ele>53.082708</ele>
        <time>2022-08-03T10:23:58.000Z</time>
      </trkpt>
      <trkpt lat="49.34767" lon="-0.8067">
        <ele>53.069399</ele>
        <time>2022-08-03T10:23:59.000Z</time>
      </trkpt>
      <trkpt lat="49.34768" lon="-0.80659">
        <ele>53.053244</ele>
        <time>2022-08-03T10:24:00.000Z</time>
      </trkpt>
      <trkpt lat="49.34769" lon="-0.8065">
        <ele>53.039289</ele>
        <time>2022-08-03T10:24:01.000Z</time>
      </trkpt>
      <trkpt lat="49.34771" lon="-0.8064">
        <ele>53.025346</ele>
        <time>2022-08-03T10:24:02.000Z</time>
      </trkpt>
      <trkpt lat="49.34773" lon="-0.80632">
        <ele>53.013725</ele>
        <time>2022-08-03T10:24:03.000Z</time>
      </trkpt>
      <trkpt lat="49.34776" lon="-0.8062">
        <ele>52.9953</ele>
        <time>2022-08-03T10:24:04.000Z</time>
      </trkpt>
      <trkpt lat="49.34778" lon="-0.8061">
        <ele>53.038838</ele>
        <time>2022-08-03T10:24:05.000Z</time>
      </trkpt>
      <trkpt lat="49.34781" lon="-0.80601">
        <ele>53.099484</ele>
        <time>2022-08-03T10:24:06.000Z</time>
      </trkpt>
      <trkpt lat="49.34784" lon="-0.80593">
        <ele>53.154328</ele>
        <time>2022-08-03T10:24:07.000Z</time>
      </trkpt>
      <trkpt lat="49.34787" lon="-0.80586">
        <ele>53.203176</ele>
        <time>2022-08-03T10:24:08.000Z</time>
      </trkpt>
      <trkpt lat="49.34789" lon="-0.8058">
        <ele>53.240467</ele>
        <time>2022-08-03T10:24:09.000Z</time>
      </trkpt>
      <trkpt lat="49.34792" lon="-0.80574">
        <ele>53.288256</ele>
        <time>2022-08-03T10:24:10.000Z</time>
      </trkpt>
      <trkpt lat="49.34795" lon="-0.80568">
        <ele>53.331016</ele>
        <time>2022-08-03T10:24:11.000Z</time>
      </trkpt>
      <trkpt lat="49.34798" lon="-0.80562">
        <ele>53.378365</ele>
        <time>2022-08-03T10:24:12.000Z</time>
      </trkpt>
      <trkpt lat="49.34802" lon="-0.80557">
        <ele>53.422122</ele>
        <time>2022-08-03T10:24:13.000Z</time>
      </trkpt>
      <trkpt lat="49.34805" lon="-0.80552">
        <ele>53.468098</ele>
        <time>2022-08-03T10:24:14.000Z</time>
      </trkpt>
      <trkpt lat="49.3481" lon="-0.80546">
        <ele>53.519161</ele>
        <time>2022-08-03T10:24:15.000Z</time>
      </trkpt>
      <trkpt lat="49.34812" lon="-0.80543">
        <ele>53.549516</ele>
        <time>2022-08-03T10:24:16.000Z</time>
      </trkpt>
      <trkpt lat="49.34816" lon="-0.80539">
        <ele>53.588563</ele>
        <time>2022-08-03T10:24:17.000Z</time>
      </trkpt>
      <trkpt lat="49.34818" lon="-0.80536">
        <ele>53.619383</ele>
        <time>2022-08-03T10:24:18.000Z</time>
      </trkpt>
      <trkpt lat="49.34821" lon="-0.80534">
        <ele>53.645124</ele>
        <time>2022-08-03T10:24:19.000Z</time>
      </trkpt>
      <trkpt lat="49.34823" lon="-0.80533">
        <ele>53.669072</ele>
        <time>2022-08-03T10:24:20.000Z</time>
      </trkpt>
      <trkpt lat="49.34825" lon="-0.80534">
        <ele>53.68674</ele>
        <time>2022-08-03T10:24:21.000Z</time>
      </trkpt>
      <trkpt lat="49.34829" lon="-0.80537">
        <ele>53.722188</ele>
        <time>2022-08-03T10:24:23.000Z</time>
      </trkpt>
      <trkpt lat="49.3483" lon="-0.8054">
        <ele>53.744228</ele>
        <time>2022-08-03T10:24:24.000Z</time>
      </trkpt>
      <trkpt lat="49.34833" lon="-0.80542">
        <ele>53.773692</ele>
        <time>2022-08-03T10:24:25.000Z</time>
      </trkpt>
      <trkpt lat="49.34836" lon="-0.80544">
        <ele>53.80265</ele>
        <time>2022-08-03T10:24:26.000Z</time>
      </trkpt>
      <trkpt lat="49.34839" lon="-0.80546">
        <ele>53.835628</ele>
        <time>2022-08-03T10:24:27.000Z</time>
      </trkpt>
      <trkpt lat="49.34842" lon="-0.80549">
        <ele>53.865132</ele>
        <time>2022-08-03T10:24:28.000Z</time>
      </trkpt>
      <trkpt lat="49.34845" lon="-0.80551">
        <ele>53.895427</ele>
        <time>2022-08-03T10:24:29.000Z</time>
      </trkpt>
      <trkpt lat="49.34848" lon="-0.80554">
        <ele>53.925436</ele>
        <time>2022-08-03T10:24:30.000Z</time>
      </trkpt>
      <trkpt lat="49.34852" lon="-0.80556">
        <ele>53.959664</ele>
        <time>2022-08-03T10:24:31.000Z</time>
      </trkpt>
      <trkpt lat="49.34854" lon="-0.80557">
        <ele>53.981791</ele>
        <time>2022-08-03T10:24:32.000Z</time>
      </trkpt>
      <trkpt lat="49.34856" lon="-0.80558">
        <ele>54.005833</ele>
        <time>2022-08-03T10:24:33.000Z</time>
      </trkpt>
      <trkpt lat="49.34859" lon="-0.8056">
        <ele>54.033706</ele>
        <time>2022-08-03T10:24:34.000Z</time>
      </trkpt>
      <trkpt lat="49.34861" lon="-0.80562">
        <ele>54.056141</ele>
        <time>2022-08-03T10:24:35.000Z</time>
      </trkpt>
      <trkpt lat="49.34864" lon="-0.80564">
        <ele>54.080218</ele>
        <time>2022-08-03T10:24:36.000Z</time>
      </trkpt>
      <trkpt lat="49.34866" lon="-0.80566">
        <ele>54.106465</ele>
        <time>2022-08-03T10:24:37.000Z</time>
      </trkpt>
      <trkpt lat="49.34869" lon="-0.80568">
        <ele>54.130841</ele>
        <time>2022-08-03T10:24:38.000Z</time>
      </trkpt>
      <trkpt lat="49.34871" lon="-0.8057">
        <ele>54.157088</ele>
        <time>2022-08-03T10:24:39.000Z</time>
      </trkpt>
      <trkpt lat="49.34873" lon="-0.80573">
        <ele>54.181744</ele>
        <time>2022-08-03T10:24:40.000Z</time>
      </trkpt>
      <trkpt lat="49.34875" lon="-0.80576">
        <ele>54.207435</ele>
        <time>2022-08-03T10:24:41.000Z</time>
      </trkpt>
      <trkpt lat="49.34877" lon="-0.8058">
        <ele>54.237159</ele>
        <time>2022-08-03T10:24:42.000Z</time>
      </trkpt>
      <trkpt lat="49.34879" lon="-0.80583">
        <ele>54.264193</ele>
        <time>2022-08-03T10:24:43.000Z</time>
      </trkpt>
      <trkpt lat="49.34881" lon="-0.80587">
        <ele>54.291818</ele>
        <time>2022-08-03T10:24:44.000Z</time>
      </trkpt>
      <trkpt lat="49.34883" lon="-0.80591">
        <ele>54.322881</ele>
        <time>2022-08-03T10:24:45.000Z</time>
      </trkpt>
      <trkpt lat="49.34884" lon="-0.80594">
        <ele>54.341828</ele>
        <time>2022-08-03T10:24:46.000Z</time>
      </trkpt>
      <trkpt lat="49.34885" lon="-0.80597">
        <ele>54.364155</ele>
        <time>2022-08-03T10:24:47.000Z</time>
      </trkpt>
      <trkpt lat="49.34886" lon="-0.80601">
        <ele>54.387924</ele>
        <time>2022-08-03T10:24:48.000Z</time>
      </trkpt>
      <trkpt lat="49.34887" lon="-0.80604">
        <ele>54.409304</ele>
        <time>2022-08-03T10:24:49.000Z</time>
      </trkpt>
      <trkpt lat="49.34889" lon="-0.80607">
        <ele>54.431404</ele>
        <time>2022-08-03T10:24:50.000Z</time>
      </trkpt>
      <trkpt lat="49.3489" lon="-0.80609">
        <ele>54.449401</ele>
        <time>2022-08-03T10:24:51.000Z</time>
      </trkpt>
      <trkpt lat="49.34891" lon="-0.80614">
        <ele>54.47861</ele>
        <time>2022-08-03T10:24:53.000Z</time>
      </trkpt>
      <trkpt lat="49.34892" lon="-0.80618">
        <ele>54.505702</ele>
        <time>2022-08-03T10:24:55.000Z</time>
      </trkpt>
      <trkpt lat="49.34893" lon="-0.80621">
        <ele>54.524128</ele>
        <time>2022-08-03T10:24:56.000Z</time>
      </trkpt>
      <trkpt lat="49.34895" lon="-0.80623">
        <ele>54.543109</ele>
        <time>2022-08-03T10:24:57.000Z</time>
      </trkpt>
      <trkpt lat="49.34896" lon="-0.80626">
        <ele>54.565992</ele>
        <time>2022-08-03T10:24:58.000Z</time>
      </trkpt>
      <trkpt lat="49.34897" lon="-0.80628">
        <ele>54.582756</ele>
        <time>2022-08-03T10:24:59.000Z</time>
      </trkpt>
      <trkpt lat="49.34899" lon="-0.80633">
        <ele>54.617103</ele>
        <time>2022-08-03T10:25:01.000Z</time>
      </trkpt>
      <trkpt lat="49.349" lon="-0.80637">
        <ele>54.700156</ele>
        <time>2022-08-03T10:25:03.000Z</time>
      </trkpt>
      <trkpt lat="49.34909" lon="-0.80643">
        <ele>55.239321</ele>
        <time>2022-08-03T10:30:31.000Z</time>
      </trkpt>
      <trkpt lat="49.3491" lon="-0.80647">
        <ele>55.404089</ele>
        <time>2022-08-03T10:30:32.000Z</time>
      </trkpt>
      <trkpt lat="49.34912" lon="-0.80652">
        <ele>55.589827</ele>
        <time>2022-08-03T10:30:33.000Z</time>
      </trkpt>
      <trkpt lat="49.34914" lon="-0.80657">
        <ele>55.815288</ele>
        <time>2022-08-03T10:30:34.000Z</time>
      </trkpt>
      <trkpt lat="49.34915" lon="-0.80661">
        <ele>55.986683</ele>
        <time>2022-08-03T10:30:35.000Z</time>
      </trkpt>
      <trkpt lat="49.34917" lon="-0.80666">
        <ele>56.20908</ele>
        <time>2022-08-03T10:30:36.000Z</time>
      </trkpt>
      <trkpt lat="49.34919" lon="-0.80671">
        <ele>56.407822</ele>
        <time>2022-08-03T10:30:37.000Z</time>
      </trkpt>
      <trkpt lat="49.3492" lon="-0.80676">
        <ele>56.597088</ele>
        <time>2022-08-03T10:30:38.000Z</time>
      </trkpt>
      <trkpt lat="49.34921" lon="-0.8068">
        <ele>56.77182</ele>
        <time>2022-08-03T10:30:39.000Z</time>
      </trkpt>
      <trkpt lat="49.34923" lon="-0.80683">
        <ele>56.895573</ele>
        <time>2022-08-03T10:30:40.000Z</time>
      </trkpt>
      <trkpt lat="49.34924" lon="-0.80686">
        <ele>57.053176</ele>
        <time>2022-08-03T10:30:41.000Z</time>
      </trkpt>
      <trkpt lat="49.34926" lon="-0.80689">
        <ele>57.202201</ele>
        <time>2022-08-03T10:30:42.000Z</time>
      </trkpt>
      <trkpt lat="49.34928" lon="-0.80692">
        <ele>57.345111</ele>
        <time>2022-08-03T10:30:43.000Z</time>
      </trkpt>
      <trkpt lat="49.3493" lon="-0.80696">
        <ele>57.51304</ele>
        <time>2022-08-03T10:30:44.000Z</time>
      </trkpt>
      <trkpt lat="49.34932" lon="-0.80698">
        <ele>57.659537</ele>
        <time>2022-08-03T10:30:45.000Z</time>
      </trkpt>
      <trkpt lat="49.34934" lon="-0.80701">
        <ele>57.82563</ele>
        <time>2022-08-03T10:30:46.000Z</time>
      </trkpt>
      <trkpt lat="49.34936" lon="-0.80704">
        <ele>57.979852</ele>
        <time>2022-08-03T10:30:47.000Z</time>
      </trkpt>
      <trkpt lat="49.34939" lon="-0.80708">
        <ele>58.193214</ele>
        <time>2022-08-03T10:30:48.000Z</time>
      </trkpt>
      <trkpt lat="49.34941" lon="-0.80711">
        <ele>58.354912</ele>
        <time>2022-08-03T10:30:49.000Z</time>
      </trkpt>
      <trkpt lat="49.34943" lon="-0.80713">
        <ele>58.491821</ele>
        <time>2022-08-03T10:30:50.000Z</time>
      </trkpt>
      <trkpt lat="49.34945" lon="-0.80717">
        <ele>58.692422</ele>
        <time>2022-08-03T10:30:51.000Z</time>
      </trkpt>
      <trkpt lat="49.34947" lon="-0.80719">
        <ele>58.8216</ele>
        <time>2022-08-03T10:30:52.000Z</time>
      </trkpt>
      <trkpt lat="49.34949" lon="-0.80723">
        <ele>59.008984</ele>
        <time>2022-08-03T10:30:53.000Z</time>
      </trkpt>
      <trkpt lat="49.34951" lon="-0.80726">
        <ele>59.184619</ele>
        <time>2022-08-03T10:30:54.000Z</time>
      </trkpt>
      <trkpt lat="49.34953" lon="-0.80729">
        <ele>59.338841</ele>
        <time>2022-08-03T10:30:55.000Z</time>
      </trkpt>
      <trkpt lat="49.34956" lon="-0.80732">
        <ele>59.498212</ele>
        <time>2022-08-03T10:30:56.000Z</time>
      </trkpt>
      <trkpt lat="49.34958" lon="-0.80735">
        <ele>59.664305</ele>
        <time>2022-08-03T10:30:57.000Z</time>
      </trkpt>
      <trkpt lat="49.3496" lon="-0.80738">
        <ele>59.843849</ele>
        <time>2022-08-03T10:30:58.000Z</time>
      </trkpt>
      <trkpt lat="49.34962" lon="-0.8074">
        <ele>59.980758</ele>
        <time>2022-08-03T10:30:59.000Z</time>
      </trkpt>
      <trkpt lat="49.34965" lon="-0.80743">
        <ele>60.176588</ele>
        <time>2022-08-03T10:31:00.000Z</time>
      </trkpt>
      <trkpt lat="49.34968" lon="-0.80746">
        <ele>60.390687</ele>
        <time>2022-08-03T10:31:01.000Z</time>
      </trkpt>
      <trkpt lat="49.34971" lon="-0.80749">
        <ele>60.582593</ele>
        <time>2022-08-03T10:31:02.000Z</time>
      </trkpt>
      <trkpt lat="49.34974" lon="-0.80751">
        <ele>60.756181</ele>
        <time>2022-08-03T10:31:03.000Z</time>
      </trkpt>
      <trkpt lat="49.34977" lon="-0.80754">
        <ele>60.939457</ele>
        <time>2022-08-03T10:31:04.000Z</time>
      </trkpt>
      <trkpt lat="49.34978" lon="-0.80756">
        <ele>61.073992</ele>
        <time>2022-08-03T10:31:05.000Z</time>
      </trkpt>
      <trkpt lat="49.3498" lon="-0.80759">
        <ele>61.227149</ele>
        <time>2022-08-03T10:31:06.000Z</time>
      </trkpt>
      <trkpt lat="49.34981" lon="-0.80761">
        <ele>61.32737</ele>
        <time>2022-08-03T10:31:07.000Z</time>
      </trkpt>
      <trkpt lat="49.34984" lon="-0.80766">
        <ele>61.547</ele>
        <time>2022-08-03T10:31:09.000Z</time>
      </trkpt>
      <trkpt lat="49.34986" lon="-0.80771">
        <ele>61.750883</ele>
        <time>2022-08-03T10:31:10.000Z</time>
      </trkpt>
      <trkpt lat="49.34987" lon="-0.80774">
        <ele>61.905832</ele>
        <time>2022-08-03T10:31:11.000Z</time>
      </trkpt>
      <trkpt lat="49.34989" lon="-0.80779">
        <ele>62.104572</ele>
        <time>2022-08-03T10:31:12.000Z</time>
      </trkpt>
      <trkpt lat="49.34989" lon="-0.80784">
        <ele>62.302888</ele>
        <time>2022-08-03T10:31:13.000Z</time>
      </trkpt>
      <trkpt lat="49.34991" lon="-0.80789">
        <ele>62.501627</ele>
        <time>2022-08-03T10:31:14.000Z</time>
      </trkpt>
      <trkpt lat="49.34993" lon="-0.80795">
        <ele>62.733796</ele>
        <time>2022-08-03T10:31:15.000Z</time>
      </trkpt>
      <trkpt lat="49.34995" lon="-0.80799">
        <ele>62.916264</ele>
        <time>2022-08-03T10:31:16.000Z</time>
      </trkpt>
      <trkpt lat="49.34996" lon="-0.80802">
        <ele>63.064766</ele>
        <time>2022-08-03T10:31:17.000Z</time>
      </trkpt>
      <trkpt lat="49.34997" lon="-0.80807">
        <ele>63.238272</ele>
        <time>2022-08-03T10:31:18.000Z</time>
      </trkpt>
      <trkpt lat="49.34999" lon="-0.80812">
        <ele>63.473001</ele>
        <time>2022-08-03T10:31:19.000Z</time>
      </trkpt>
      <trkpt lat="49.35001" lon="-0.80816">
        <ele>63.642044</ele>
        <time>2022-08-03T10:31:20.000Z</time>
      </trkpt>
      <trkpt lat="49.35003" lon="-0.80821">
        <ele>63.864623</ele>
        <time>2022-08-03T10:31:21.000Z</time>
      </trkpt>
      <trkpt lat="49.35005" lon="-0.80827">
        <ele>64.094087</ele>
        <time>2022-08-03T10:31:22.000Z</time>
      </trkpt>
      <trkpt lat="49.35006" lon="-0.80832">
        <ele>64.323552</ele>
        <time>2022-08-03T10:31:23.000Z</time>
      </trkpt>
      <trkpt lat="49.35008" lon="-0.80838">
        <ele>64.556279</ele>
        <time>2022-08-03T10:31:24.000Z</time>
      </trkpt>
      <trkpt lat="49.3501" lon="-0.80843">
        <ele>64.782493</ele>
        <time>2022-08-03T10:31:25.000Z</time>
      </trkpt>
      <trkpt lat="49.35013" lon="-0.80849">
        <ele>64.84499</ele>
        <time>2022-08-03T10:31:26.000Z</time>
      </trkpt>
      <trkpt lat="49.35014" lon="-0.80854">
        <ele>64.888205</ele>
        <time>2022-08-03T10:31:27.000Z</time>
      </trkpt>
      <trkpt lat="49.35017" lon="-0.8086">
        <ele>64.932341</ele>
        <time>2022-08-03T10:31:28.000Z</time>
      </trkpt>
      <trkpt lat="49.35018" lon="-0.80865">
        <ele>64.972379</ele>
        <time>2022-08-03T10:31:29.000Z</time>
      </trkpt>
      <trkpt lat="49.3502" lon="-0.80871">
        <ele>65.016671</ele>
        <time>2022-08-03T10:31:30.000Z</time>
      </trkpt>
      <trkpt lat="49.35022" lon="-0.80877">
        <ele>65.06023</ele>
        <time>2022-08-03T10:31:31.000Z</time>
      </trkpt>
      <trkpt lat="49.35024" lon="-0.80882">
        <ele>65.102247</ele>
        <time>2022-08-03T10:31:32.000Z</time>
      </trkpt>
      <trkpt lat="49.35026" lon="-0.80888">
        <ele>65.144264</ele>
        <time>2022-08-03T10:31:33.000Z</time>
      </trkpt>
      <trkpt lat="49.35028" lon="-0.80893">
        <ele>65.183078</ele>
        <time>2022-08-03T10:31:34.000Z</time>
      </trkpt>
      <trkpt lat="49.3503" lon="-0.80898">
        <ele>65.223255</ele>
        <time>2022-08-03T10:31:35.000Z</time>
      </trkpt>
      <trkpt lat="49.35031" lon="-0.80903">
        <ele>65.259218</ele>
        <time>2022-08-03T10:31:36.000Z</time>
      </trkpt>
      <trkpt lat="49.35033" lon="-0.80908">
        <ele>65.295009</ele>
        <time>2022-08-03T10:31:37.000Z</time>
      </trkpt>
      <trkpt lat="49.35034" lon="-0.80912">
        <ele>65.330801</ele>
        <time>2022-08-03T10:31:38.000Z</time>
      </trkpt>
      <trkpt lat="49.35037" lon="-0.80917">
        <ele>65.372112</ele>
        <time>2022-08-03T10:31:39.000Z</time>
      </trkpt>
      <trkpt lat="49.35039" lon="-0.80923">
        <ele>65.417375</ele>
        <time>2022-08-03T10:31:40.000Z</time>
      </trkpt>
      <trkpt lat="49.35041" lon="-0.80927">
        <ele>65.450347</ele>
        <time>2022-08-03T10:31:41.000Z</time>
      </trkpt>
      <trkpt lat="49.35043" lon="-0.80932">
        <ele>65.492194</ele>
        <time>2022-08-03T10:31:42.000Z</time>
      </trkpt>
      <trkpt lat="49.35045" lon="-0.80937">
        <ele>65.531846</ele>
        <time>2022-08-03T10:31:43.000Z</time>
      </trkpt>
      <trkpt lat="49.35047" lon="-0.80942">
        <ele>65.572086</ele>
        <time>2022-08-03T10:31:44.000Z</time>
      </trkpt>
      <trkpt lat="49.35049" lon="-0.80947">
        <ele>65.614507</ele>
        <time>2022-08-03T10:31:45.000Z</time>
      </trkpt>
      <trkpt lat="49.35051" lon="-0.80953">
        <ele>65.655336</ele>
        <time>2022-08-03T10:31:46.000Z</time>
      </trkpt>
      <trkpt lat="49.35053" lon="-0.80958">
        <ele>65.695989</ele>
        <time>2022-08-03T10:31:47.000Z</time>
      </trkpt>
      <trkpt lat="49.35055" lon="-0.80964">
        <ele>65.740705</ele>
        <time>2022-08-03T10:31:48.000Z</time>
      </trkpt>
      <trkpt lat="49.35058" lon="-0.80971">
        <ele>65.795559</ele>
        <time>2022-08-03T10:31:49.000Z</time>
      </trkpt>
      <trkpt lat="49.35059" lon="-0.80975">
        <ele>65.830643</ele>
        <time>2022-08-03T10:31:50.000Z</time>
      </trkpt>
      <trkpt lat="49.35061" lon="-0.80982">
        <ele>65.876887</ele>
        <time>2022-08-03T10:31:51.000Z</time>
      </trkpt>
      <trkpt lat="49.35064" lon="-0.80987">
        <ele>65.92385</ele>
        <time>2022-08-03T10:31:52.000Z</time>
      </trkpt>
      <trkpt lat="49.35066" lon="-0.80993">
        <ele>65.969669</ele>
        <time>2022-08-03T10:31:53.000Z</time>
      </trkpt>
      <trkpt lat="49.35069" lon="-0.81">
        <ele>66.026801</ele>
        <time>2022-08-03T10:31:54.000Z</time>
      </trkpt>
      <trkpt lat="49.35071" lon="-0.81005">
        <ele>66.064709</ele>
        <time>2022-08-03T10:31:55.000Z</time>
      </trkpt>
      <trkpt lat="49.35074" lon="-0.81011">
        <ele>66.11788</ele>
        <time>2022-08-03T10:31:56.000Z</time>
      </trkpt>
      <trkpt lat="49.35076" lon="-0.81018">
        <ele>66.164124</ele>
        <time>2022-08-03T10:31:57.000Z</time>
      </trkpt>
      <trkpt lat="49.35078" lon="-0.81025">
        <ele>66.217037</ele>
        <time>2022-08-03T10:31:58.000Z</time>
      </trkpt>
      <trkpt lat="49.3508" lon="-0.81029">
        <ele>66.249875</ele>
        <time>2022-08-03T10:31:59.000Z</time>
      </trkpt>
      <trkpt lat="49.35082" lon="-0.81034">
        <ele>66.290704</ele>
        <time>2022-08-03T10:32:00.000Z</time>
      </trkpt>
      <trkpt lat="49.35082" lon="-0.81039">
        <ele>66.326345</ele>
        <time>2022-08-03T10:32:01.000Z</time>
      </trkpt>
      <trkpt lat="49.35082" lon="-0.81044">
        <ele>66.360906</ele>
        <time>2022-08-03T10:32:02.000Z</time>
      </trkpt>
      <trkpt lat="49.35081" lon="-0.81049">
        <ele>66.395266</ele>
        <time>2022-08-03T10:32:03.000Z</time>
      </trkpt>
      <trkpt lat="49.35078" lon="-0.81054">
        <ele>66.434862</ele>
        <time>2022-08-03T10:32:04.000Z</time>
      </trkpt>
      <trkpt lat="49.35076" lon="-0.81055">
        <ele>66.46069</ele>
        <time>2022-08-03T10:32:05.000Z</time>
      </trkpt>
      <trkpt lat="49.35073" lon="-0.81057">
        <ele>66.500355</ele>
        <time>2022-08-03T10:32:06.000Z</time>
      </trkpt>
      <trkpt lat="49.35069" lon="-0.81059">
        <ele>66.539048</ele>
        <time>2022-08-03T10:32:07.000Z</time>
      </trkpt>
      <trkpt lat="49.35066" lon="-0.81061">
        <ele>66.574844</ele>
        <time>2022-08-03T10:32:08.000Z</time>
      </trkpt>
      <trkpt lat="49.35062" lon="-0.81064">
        <ele>66.619843</ele>
        <time>2022-08-03T10:32:09.000Z</time>
      </trkpt>
      <trkpt lat="49.35058" lon="-0.81066">
        <ele>66.666043</ele>
        <time>2022-08-03T10:32:10.000Z</time>
      </trkpt>
      <trkpt lat="49.35053" lon="-0.81068">
        <ele>66.682059</ele>
        <time>2022-08-03T10:32:11.000Z</time>
      </trkpt>
      <trkpt lat="49.35049" lon="-0.8107">
        <ele>66.692613</ele>
        <time>2022-08-03T10:32:12.000Z</time>
      </trkpt>
      <trkpt lat="49.35046" lon="-0.81072">
        <ele>66.700965</ele>
        <time>2022-08-03T10:32:13.000Z</time>
      </trkpt>
      <trkpt lat="49.35043" lon="-0.81075">
        <ele>66.710398</ele>
        <time>2022-08-03T10:32:14.000Z</time>
      </trkpt>
      <trkpt lat="49.3504" lon="-0.81078">
        <ele>66.719781</ele>
        <time>2022-08-03T10:32:15.000Z</time>
      </trkpt>
      <trkpt lat="49.35038" lon="-0.81082">
        <ele>66.72941</ele>
        <time>2022-08-03T10:32:16.000Z</time>
      </trkpt>
      <trkpt lat="49.35036" lon="-0.81088">
        <ele>66.740641</ele>
        <time>2022-08-03T10:32:17.000Z</time>
      </trkpt>
      <trkpt lat="49.35035" lon="-0.81096">
        <ele>66.753912</ele>
        <time>2022-08-03T10:32:18.000Z</time>
      </trkpt>
      <trkpt lat="49.35037" lon="-0.81103">
        <ele>66.76736</ele>
        <time>2022-08-03T10:32:19.000Z</time>
      </trkpt>
      <trkpt lat="49.35038" lon="-0.8111">
        <ele>66.779572</ele>
        <time>2022-08-03T10:32:20.000Z</time>
      </trkpt>
      <trkpt lat="49.35039" lon="-0.81116">
        <ele>66.79061</ele>
        <time>2022-08-03T10:32:21.000Z</time>
      </trkpt>
      <trkpt lat="49.35041" lon="-0.81124">
        <ele>66.804769</ele>
        <time>2022-08-03T10:32:22.000Z</time>
      </trkpt>
      <trkpt lat="49.35042" lon="-0.81129">
        <ele>66.814141</ele>
        <time>2022-08-03T10:32:23.000Z</time>
      </trkpt>
      <trkpt lat="49.35043" lon="-0.81136">
        <ele>66.825905</ele>
        <time>2022-08-03T10:32:24.000Z</time>
      </trkpt>
      <trkpt lat="49.35045" lon="-0.81144">
        <ele>66.839996</ele>
        <time>2022-08-03T10:32:25.000Z</time>
      </trkpt>
      <trkpt lat="49.35047" lon="-0.8115">
        <ele>66.852189</ele>
        <time>2022-08-03T10:32:26.000Z</time>
      </trkpt>
      <trkpt lat="49.35048" lon="-0.81157">
        <ele>66.864317</ele>
        <time>2022-08-03T10:32:27.000Z</time>
      </trkpt>
      <trkpt lat="49.35049" lon="-0.81162">
        <ele>66.873596</ele>
        <time>2022-08-03T10:32:28.000Z</time>
      </trkpt>
      <trkpt lat="49.35051" lon="-0.81169">
        <ele>66.885969</ele>
        <time>2022-08-03T10:32:29.000Z</time>
      </trkpt>
      <trkpt lat="49.35053" lon="-0.81176">
        <ele>66.898963</ele>
        <time>2022-08-03T10:32:30.000Z</time>
      </trkpt>
      <trkpt lat="49.35055" lon="-0.81184">
        <ele>66.913535</ele>
        <time>2022-08-03T10:32:31.000Z</time>
      </trkpt>
      <trkpt lat="49.35056" lon="-0.81189">
        <ele>66.923308</ele>
        <time>2022-08-03T10:32:32.000Z</time>
      </trkpt>
      <trkpt lat="49.35057" lon="-0.81196">
        <ele>66.9356</ele>
        <time>2022-08-03T10:32:33.000Z</time>
      </trkpt>
      <trkpt lat="49.35058" lon="-0.81203">
        <ele>66.947988</ele>
        <time>2022-08-03T10:32:34.000Z</time>
      </trkpt>
      <trkpt lat="49.3506" lon="-0.8121">
        <ele>66.96004</ele>
        <time>2022-08-03T10:32:35.000Z</time>
      </trkpt>
      <trkpt lat="49.35061" lon="-0.81218">
        <ele>66.973984</ele>
        <time>2022-08-03T10:32:36.000Z</time>
      </trkpt>
      <trkpt lat="49.35062" lon="-0.81223">
        <ele>66.983676</ele>
        <time>2022-08-03T10:32:37.000Z</time>
      </trkpt>
      <trkpt lat="49.35064" lon="-0.8123">
        <ele>66.996049</ele>
        <time>2022-08-03T10:32:38.000Z</time>
      </trkpt>
      <trkpt lat="49.35066" lon="-0.81238">
        <ele>67.011226</ele>
        <time>2022-08-03T10:32:39.000Z</time>
      </trkpt>
      <trkpt lat="49.35068" lon="-0.81245">
        <ele>67.024246</ele>
        <time>2022-08-03T10:32:40.000Z</time>
      </trkpt>
      <trkpt lat="49.35069" lon="-0.81251">
        <ele>67.034018</ele>
        <time>2022-08-03T10:32:41.000Z</time>
      </trkpt>
      <trkpt lat="49.35071" lon="-0.81258">
        <ele>67.046996</ele>
        <time>2022-08-03T10:32:42.000Z</time>
      </trkpt>
      <trkpt lat="49.35073" lon="-0.81265">
        <ele>67.060413</ele>
        <time>2022-08-03T10:32:43.000Z</time>
      </trkpt>
      <trkpt lat="49.35076" lon="-0.81273">
        <ele>67.076106</ele>
        <time>2022-08-03T10:32:44.000Z</time>
      </trkpt>
      <trkpt lat="49.35078" lon="-0.81278">
        <ele>67.086886</ele>
        <time>2022-08-03T10:32:45.000Z</time>
      </trkpt>
      <trkpt lat="49.3508" lon="-0.81286">
        <ele>67.10018</ele>
        <time>2022-08-03T10:32:46.000Z</time>
      </trkpt>
      <trkpt lat="49.35082" lon="-0.81294">
        <ele>67.11661</ele>
        <time>2022-08-03T10:32:47.000Z</time>
      </trkpt>
      <trkpt lat="49.35084" lon="-0.81302">
        <ele>67.130321</ele>
        <time>2022-08-03T10:32:48.000Z</time>
      </trkpt>
      <trkpt lat="49.35086" lon="-0.81309">
        <ele>67.143432</ele>
        <time>2022-08-03T10:32:49.000Z</time>
      </trkpt>
      <trkpt lat="49.35088" lon="-0.81315">
        <ele>67.151997</ele>
        <time>2022-08-03T10:32:50.000Z</time>
      </trkpt>
      <trkpt lat="49.35091" lon="-0.81324">
        <ele>67.164052</ele>
        <time>2022-08-03T10:32:51.000Z</time>
      </trkpt>
      <trkpt lat="49.35093" lon="-0.81331">
        <ele>67.173788</ele>
        <time>2022-08-03T10:32:52.000Z</time>
      </trkpt>
      <trkpt lat="49.35095" lon="-0.81338">
        <ele>67.183766</ele>
        <time>2022-08-03T10:32:53.000Z</time>
      </trkpt>
      <trkpt lat="49.35097" lon="-0.81344">
        <ele>67.193266</ele>
        <time>2022-08-03T10:32:54.000Z</time>
      </trkpt>
      <trkpt lat="49.35098" lon="-0.8135">
        <ele>67.201235</ele>
        <time>2022-08-03T10:32:55.000Z</time>
      </trkpt>
      <trkpt lat="49.35099" lon="-0.81358">
        <ele>67.211216</ele>
        <time>2022-08-03T10:32:56.000Z</time>
      </trkpt>
      <trkpt lat="49.351" lon="-0.81366">
        <ele>67.222426</ele>
        <time>2022-08-03T10:32:57.000Z</time>
      </trkpt>
      <trkpt lat="49.351" lon="-0.81373">
        <ele>67.230771</ele>
        <time>2022-08-03T10:32:58.000Z</time>
      </trkpt>
      <trkpt lat="49.35099" lon="-0.81377">
        <ele>67.237466</ele>
        <time>2022-08-03T10:32:59.000Z</time>
      </trkpt>
      <trkpt lat="49.35096" lon="-0.81382">
        <ele>67.245325</ele>
        <time>2022-08-03T10:33:00.000Z</time>
      </trkpt>
      <trkpt lat="49.35093" lon="-0.81388">
        <ele>67.254925</ele>
        <time>2022-08-03T10:33:01.000Z</time>
      </trkpt>
      <trkpt lat="49.3509" lon="-0.81391">
        <ele>67.262315</ele>
        <time>2022-08-03T10:33:02.000Z</time>
      </trkpt>
      <trkpt lat="49.35085" lon="-0.81395">
        <ele>67.273268</ele>
        <time>2022-08-03T10:33:03.000Z</time>
      </trkpt>
      <trkpt lat="49.35082" lon="-0.81398">
        <ele>67.280658</ele>
        <time>2022-08-03T10:33:04.000Z</time>
      </trkpt>
      <trkpt lat="49.35077" lon="-0.81402">
        <ele>67.290399</ele>
        <time>2022-08-03T10:33:05.000Z</time>
      </trkpt>
      <trkpt lat="49.35073" lon="-0.81406">
        <ele>67.300985</ele>
        <time>2022-08-03T10:33:06.000Z</time>
      </trkpt>
      <trkpt lat="49.35069" lon="-0.81409">
        <ele>67.310359</ele>
        <time>2022-08-03T10:33:07.000Z</time>
      </trkpt>
      <trkpt lat="49.35064" lon="-0.81413">
        <ele>67.321003</ele>
        <time>2022-08-03T10:33:08.000Z</time>
      </trkpt>
      <trkpt lat="49.35058" lon="-0.81418">
        <ele>67.33341</ele>
        <time>2022-08-03T10:33:09.000Z</time>
      </trkpt>
      <trkpt lat="49.35054" lon="-0.81421">
        <ele>67.343236</ele>
        <time>2022-08-03T10:33:10.000Z</time>
      </trkpt>
      <trkpt lat="49.35049" lon="-0.81425">
        <ele>67.354643</ele>
        <time>2022-08-03T10:33:11.000Z</time>
      </trkpt>
      <trkpt lat="49.35045" lon="-0.81428">
        <ele>67.362607</ele>
        <time>2022-08-03T10:33:12.000Z</time>
      </trkpt>
      <trkpt lat="49.35041" lon="-0.81432">
        <ele>67.372855</ele>
        <time>2022-08-03T10:33:13.000Z</time>
      </trkpt>
      <trkpt lat="49.35035" lon="-0.81437">
        <ele>67.385608</ele>
        <time>2022-08-03T10:33:14.000Z</time>
      </trkpt>
      <trkpt lat="49.3503" lon="-0.81441">
        <ele>67.39573</ele>
        <time>2022-08-03T10:33:15.000Z</time>
      </trkpt>
      <trkpt lat="49.35025" lon="-0.81444">
        <ele>67.40674</ele>
        <time>2022-08-03T10:33:16.000Z</time>
      </trkpt>
      <trkpt lat="49.35022" lon="-0.81447">
        <ele>67.413937</ele>
        <time>2022-08-03T10:33:17.000Z</time>
      </trkpt>
      <trkpt lat="49.35016" lon="-0.81452">
        <ele>67.427276</ele>
        <time>2022-08-03T10:33:18.000Z</time>
      </trkpt>
      <trkpt lat="49.35011" lon="-0.81456">
        <ele>67.43804</ele>
        <time>2022-08-03T10:33:19.000Z</time>
      </trkpt>
      <trkpt lat="49.35007" lon="-0.8146">
        <ele>67.448289</ele>
        <time>2022-08-03T10:33:20.000Z</time>
      </trkpt>
      <trkpt lat="49.35003" lon="-0.81463">
        <ele>67.45724</ele>
        <time>2022-08-03T10:33:21.000Z</time>
      </trkpt>
      <trkpt lat="49.34997" lon="-0.81466">
        <ele>67.46833</ele>
        <time>2022-08-03T10:33:22.000Z</time>
      </trkpt>
      <trkpt lat="49.34992" lon="-0.8147">
        <ele>67.480791</ele>
        <time>2022-08-03T10:33:23.000Z</time>
      </trkpt>
      <trkpt lat="49.34987" lon="-0.81473">
        <ele>67.4917</ele>
        <time>2022-08-03T10:33:24.000Z</time>
      </trkpt>
      <trkpt lat="49.34981" lon="-0.81477">
        <ele>67.490725</ele>
        <time>2022-08-03T10:33:25.000Z</time>
      </trkpt>
      <trkpt lat="49.34978" lon="-0.8148">
        <ele>67.482998</ele>
        <time>2022-08-03T10:33:26.000Z</time>
      </trkpt>
      <trkpt lat="49.34973" lon="-0.81486">
        <ele>67.470189</ele>
        <time>2022-08-03T10:33:27.000Z</time>
      </trkpt>
      <trkpt lat="49.34972" lon="-0.81493">
        <ele>67.461203</ele>
        <time>2022-08-03T10:33:28.000Z</time>
      </trkpt>
      <trkpt lat="49.34972" lon="-0.81499">
        <ele>67.452956</ele>
        <time>2022-08-03T10:33:29.000Z</time>
      </trkpt>
      <trkpt lat="49.34973" lon="-0.81503">
        <ele>67.446694</ele>
        <time>2022-08-03T10:33:30.000Z</time>
      </trkpt>
      <trkpt lat="49.34975" lon="-0.81509">
        <ele>67.438648</ele>
        <time>2022-08-03T10:33:31.000Z</time>
      </trkpt>
      <trkpt lat="49.34977" lon="-0.81515">
        <ele>67.428844</ele>
        <time>2022-08-03T10:33:32.000Z</time>
      </trkpt>
      <trkpt lat="49.34979" lon="-0.8152">
        <ele>67.422258</ele>
        <time>2022-08-03T10:33:33.000Z</time>
      </trkpt>
      <trkpt lat="49.34981" lon="-0.81526">
        <ele>67.411987</ele>
        <time>2022-08-03T10:33:34.000Z</time>
      </trkpt>
      <trkpt lat="49.34982" lon="-0.81531">
        <ele>67.405439</ele>
        <time>2022-08-03T10:33:35.000Z</time>
      </trkpt>
      <trkpt lat="49.34984" lon="-0.81538">
        <ele>67.395597</ele>
        <time>2022-08-03T10:33:36.000Z</time>
      </trkpt>
      <trkpt lat="49.34986" lon="-0.81543">
        <ele>67.387316</ele>
        <time>2022-08-03T10:33:37.000Z</time>
      </trkpt>
      <trkpt lat="49.34988" lon="-0.81548">
        <ele>67.379849</ele>
        <time>2022-08-03T10:33:38.000Z</time>
      </trkpt>
      <trkpt lat="49.34989" lon="-0.81551">
        <ele>67.37472</ele>
        <time>2022-08-03T10:33:39.000Z</time>
      </trkpt>
      <trkpt lat="49.34991" lon="-0.81556">
        <ele>67.367901</ele>
        <time>2022-08-03T10:33:40.000Z</time>
      </trkpt>
      <trkpt lat="49.34992" lon="-0.81561">
        <ele>67.360847</ele>
        <time>2022-08-03T10:33:41.000Z</time>
      </trkpt>
      <trkpt lat="49.34994" lon="-0.81566">
        <ele>67.352566</ele>
        <time>2022-08-03T10:33:42.000Z</time>
      </trkpt>
      <trkpt lat="49.34995" lon="-0.8157">
        <ele>67.347238</ele>
        <time>2022-08-03T10:33:43.000Z</time>
      </trkpt>
      <trkpt lat="49.34997" lon="-0.81574">
        <ele>67.340302</ele>
        <time>2022-08-03T10:33:44.000Z</time>
      </trkpt>
      <trkpt lat="49.34998" lon="-0.8158">
        <ele>67.332652</ele>
        <time>2022-08-03T10:33:45.000Z</time>
      </trkpt>
      <trkpt lat="49.35" lon="-0.81586">
        <ele>67.323782</ele>
        <time>2022-08-03T10:33:46.000Z</time>
      </trkpt>
      <trkpt lat="49.35001" lon="-0.8159">
        <ele>67.317958</ele>
        <time>2022-08-03T10:33:47.000Z</time>
      </trkpt>
      <trkpt lat="49.35003" lon="-0.81595">
        <ele>67.310259</ele>
        <time>2022-08-03T10:33:48.000Z</time>
      </trkpt>
      <trkpt lat="49.35005" lon="-0.816">
        <ele>67.302343</ele>
        <time>2022-08-03T10:33:49.000Z</time>
      </trkpt>
      <trkpt lat="49.35007" lon="-0.81605">
        <ele>67.294296</ele>
        <time>2022-08-03T10:33:50.000Z</time>
      </trkpt>
      <trkpt lat="49.35009" lon="-0.81612">
        <ele>67.284493</ele>
        <time>2022-08-03T10:33:51.000Z</time>
      </trkpt>
      <trkpt lat="49.35011" lon="-0.81617">
        <ele>67.276095</ele>
        <time>2022-08-03T10:33:52.000Z</time>
      </trkpt>
      <trkpt lat="49.35013" lon="-0.81622">
        <ele>67.269275</ele>
        <time>2022-08-03T10:33:53.000Z</time>
      </trkpt>
      <trkpt lat="49.35014" lon="-0.81627">
        <ele>67.260995</ele>
        <time>2022-08-03T10:33:54.000Z</time>
      </trkpt>
      <trkpt lat="49.35017" lon="-0.81633">
        <ele>67.252523</ele>
        <time>2022-08-03T10:33:55.000Z</time>
      </trkpt>
      <trkpt lat="49.35019" lon="-0.8164">
        <ele>67.242599</ele>
        <time>2022-08-03T10:33:56.000Z</time>
      </trkpt>
      <trkpt lat="49.3502" lon="-0.81644">
        <ele>67.236376</ele>
        <time>2022-08-03T10:33:57.000Z</time>
      </trkpt>
      <trkpt lat="49.35021" lon="-0.81649">
        <ele>67.228727</ele>
        <time>2022-08-03T10:33:58.000Z</time>
      </trkpt>
      <trkpt lat="49.35023" lon="-0.81654">
        <ele>67.220957</ele>
        <time>2022-08-03T10:33:59.000Z</time>
      </trkpt>
      <trkpt lat="49.35025" lon="-0.81659">
        <ele>67.213153</ele>
        <time>2022-08-03T10:34:00.000Z</time>
      </trkpt>
      <trkpt lat="49.35027" lon="-0.81664">
        <ele>67.205743</ele>
        <time>2022-08-03T10:34:01.000Z</time>
      </trkpt>
      <trkpt lat="49.35029" lon="-0.81669">
        <ele>67.198043</ele>
        <time>2022-08-03T10:34:02.000Z</time>
      </trkpt>
      <trkpt lat="49.3503" lon="-0.81674">
        <ele>67.190753</ele>
        <time>2022-08-03T10:34:03.000Z</time>
      </trkpt>
      <trkpt lat="49.35031" lon="-0.81679">
        <ele>67.184083</ele>
        <time>2022-08-03T10:34:04.000Z</time>
      </trkpt>
      <trkpt lat="49.35033" lon="-0.81683">
        <ele>67.17738</ele>
        <time>2022-08-03T10:34:05.000Z</time>
      </trkpt>
      <trkpt lat="49.35035" lon="-0.81688">
        <ele>67.170793</ele>
        <time>2022-08-03T10:34:06.000Z</time>
      </trkpt>
      <trkpt lat="49.35037" lon="-0.81692">
        <ele>67.163992</ele>
        <time>2022-08-03T10:34:07.000Z</time>
      </trkpt>
      <trkpt lat="49.35038" lon="-0.81696">
        <ele>67.157748</ele>
        <time>2022-08-03T10:34:08.000Z</time>
      </trkpt>
      <trkpt lat="49.3504" lon="-0.817">
        <ele>67.151056</ele>
        <time>2022-08-03T10:34:09.000Z</time>
      </trkpt>
      <trkpt lat="49.35041" lon="-0.81704">
        <ele>67.144629</ele>
        <time>2022-08-03T10:34:10.000Z</time>
      </trkpt>
      <trkpt lat="49.35043" lon="-0.81709">
        <ele>67.137718</ele>
        <time>2022-08-03T10:34:11.000Z</time>
      </trkpt>
      <trkpt lat="49.35045" lon="-0.81714">
        <ele>67.130308</ele>
        <time>2022-08-03T10:34:12.000Z</time>
      </trkpt>
      <trkpt lat="49.35046" lon="-0.81719">
        <ele>67.140408</ele>
        <time>2022-08-03T10:34:13.000Z</time>
      </trkpt>
      <trkpt lat="49.35048" lon="-0.81725">
        <ele>67.152542</ele>
        <time>2022-08-03T10:34:14.000Z</time>
      </trkpt>
      <trkpt lat="49.35049" lon="-0.81731">
        <ele>67.166021</ele>
        <time>2022-08-03T10:34:15.000Z</time>
      </trkpt>
      <trkpt lat="49.35051" lon="-0.81738">
        <ele>67.180524</ele>
        <time>2022-08-03T10:34:16.000Z</time>
      </trkpt>
      <trkpt lat="49.35053" lon="-0.81746">
        <ele>67.195766</ele>
        <time>2022-08-03T10:34:17.000Z</time>
      </trkpt>
      <trkpt lat="49.35055" lon="-0.81752">
        <ele>67.20974</ele>
        <time>2022-08-03T10:34:18.000Z</time>
      </trkpt>
      <trkpt lat="49.35057" lon="-0.81759">
        <ele>67.224025</ele>
        <time>2022-08-03T10:34:19.000Z</time>
      </trkpt>
      <trkpt lat="49.35059" lon="-0.81765">
        <ele>67.239104</ele>
        <time>2022-08-03T10:34:20.000Z</time>
      </trkpt>
      <trkpt lat="49.35061" lon="-0.81772">
        <ele>67.253422</ele>
        <time>2022-08-03T10:34:21.000Z</time>
      </trkpt>
      <trkpt lat="49.35063" lon="-0.8178">
        <ele>67.26879</ele>
        <time>2022-08-03T10:34:22.000Z</time>
      </trkpt>
      <trkpt lat="49.35064" lon="-0.81785">
        <ele>67.280923</ele>
        <time>2022-08-03T10:34:23.000Z</time>
      </trkpt>
      <trkpt lat="49.35066" lon="-0.81793">
        <ele>67.297283</ele>
        <time>2022-08-03T10:34:24.000Z</time>
      </trkpt>
      <trkpt lat="49.35068" lon="-0.81798">
        <ele>67.307477</ele>
        <time>2022-08-03T10:34:25.000Z</time>
      </trkpt>
      <trkpt lat="49.3507" lon="-0.81803">
        <ele>67.319284</ele>
        <time>2022-08-03T10:34:26.000Z</time>
      </trkpt>
      <trkpt lat="49.35071" lon="-0.81808">
        <ele>67.329425</ele>
        <time>2022-08-03T10:34:27.000Z</time>
      </trkpt>
      <trkpt lat="49.35072" lon="-0.81813">
        <ele>67.341379</ele>
        <time>2022-08-03T10:34:28.000Z</time>
      </trkpt>
      <trkpt lat="49.35073" lon="-0.81817">
        <ele>67.34828</ele>
        <time>2022-08-03T10:34:29.000Z</time>
      </trkpt>
      <trkpt lat="49.35074" lon="-0.81822">
        <ele>67.358319</ele>
        <time>2022-08-03T10:34:30.000Z</time>
      </trkpt>
      <trkpt lat="49.35074" lon="-0.81827">
        <ele>67.367873</ele>
        <time>2022-08-03T10:34:31.000Z</time>
      </trkpt>
      <trkpt lat="49.35076" lon="-0.81832">
        <ele>67.380187</ele>
        <time>2022-08-03T10:34:32.000Z</time>
      </trkpt>
      <trkpt lat="49.35077" lon="-0.81837">
        <ele>67.389482</ele>
        <time>2022-08-03T10:34:33.000Z</time>
      </trkpt>
      <trkpt lat="49.35078" lon="-0.81841">
        <ele>67.3977</ele>
        <time>2022-08-03T10:34:34.000Z</time>
      </trkpt>
      <trkpt lat="49.3508" lon="-0.81845">
        <ele>67.40824</ele>
        <time>2022-08-03T10:34:35.000Z</time>
      </trkpt>
      <trkpt lat="49.35082" lon="-0.81851">
        <ele>67.420758</ele>
        <time>2022-08-03T10:34:36.000Z</time>
      </trkpt>
      <trkpt lat="49.35084" lon="-0.81855">
        <ele>67.430754</ele>
        <time>2022-08-03T10:34:37.000Z</time>
      </trkpt>
      <trkpt lat="49.35085" lon="-0.81859">
        <ele>67.438801</ele>
        <time>2022-08-03T10:34:38.000Z</time>
      </trkpt>
      <trkpt lat="49.35086" lon="-0.81864">
        <ele>67.449516</ele>
        <time>2022-08-03T10:34:39.000Z</time>
      </trkpt>
      <trkpt lat="49.35088" lon="-0.8187">
        <ele>67.462735</ele>
        <time>2022-08-03T10:34:40.000Z</time>
      </trkpt>
      <trkpt lat="49.3509" lon="-0.81875">
        <ele>67.473977</ele>
        <time>2022-08-03T10:34:41.000Z</time>
      </trkpt>
      <trkpt lat="49.35091" lon="-0.81881">
        <ele>67.485328</ele>
        <time>2022-08-03T10:34:42.000Z</time>
      </trkpt>
      <trkpt lat="49.35091" lon="-0.81885">
        <ele>67.493006</ele>
        <time>2022-08-03T10:34:43.000Z</time>
      </trkpt>
      <trkpt lat="49.35093" lon="-0.8189">
        <ele>67.504322</ele>
        <time>2022-08-03T10:34:44.000Z</time>
      </trkpt>
      <trkpt lat="49.35094" lon="-0.81896">
        <ele>67.517905</ele>
        <time>2022-08-03T10:34:45.000Z</time>
      </trkpt>
      <trkpt lat="49.35096" lon="-0.81902">
        <ele>67.530076</ele>
        <time>2022-08-03T10:34:46.000Z</time>
      </trkpt>
      <trkpt lat="49.35098" lon="-0.81906">
        <ele>67.539699</ele>
        <time>2022-08-03T10:34:47.000Z</time>
      </trkpt>
      <trkpt lat="49.351" lon="-0.81913">
        <ele>67.553805</ele>
        <time>2022-08-03T10:34:48.000Z</time>
      </trkpt>
      <trkpt lat="49.35101" lon="-0.81918">
        <ele>67.564404</ele>
        <time>2022-08-03T10:34:49.000Z</time>
      </trkpt>
      <trkpt lat="49.35102" lon="-0.81923">
        <ele>67.575476</ele>
        <time>2022-08-03T10:34:50.000Z</time>
      </trkpt>
      <trkpt lat="49.35102" lon="-0.81929">
        <ele>67.586763</ele>
        <time>2022-08-03T10:34:51.000Z</time>
      </trkpt>
      <trkpt lat="49.35103" lon="-0.81934">
        <ele>67.59619</ele>
        <time>2022-08-03T10:34:52.000Z</time>
      </trkpt>
      <trkpt lat="49.35104" lon="-0.8194">
        <ele>67.608297</ele>
        <time>2022-08-03T10:34:53.000Z</time>
      </trkpt>
      <trkpt lat="49.35105" lon="-0.81946">
        <ele>67.620791</ele>
        <time>2022-08-03T10:34:54.000Z</time>
      </trkpt>
      <trkpt lat="49.35107" lon="-0.8195">
        <ele>67.630593</ele>
        <time>2022-08-03T10:34:55.000Z</time>
      </trkpt>
      <trkpt lat="49.35108" lon="-0.81954">
        <ele>67.639202</ele>
        <time>2022-08-03T10:34:56.000Z</time>
      </trkpt>
      <trkpt lat="49.35109" lon="-0.8196">
        <ele>67.650177</ele>
        <time>2022-08-03T10:34:57.000Z</time>
      </trkpt>
      <trkpt lat="49.35111" lon="-0.81966">
        <ele>67.663748</ele>
        <time>2022-08-03T10:34:58.000Z</time>
      </trkpt>
      <trkpt lat="49.35112" lon="-0.8197">
        <ele>67.668106</ele>
        <time>2022-08-03T10:34:59.000Z</time>
      </trkpt>
      <trkpt lat="49.35113" lon="-0.81977">
        <ele>67.662743</ele>
        <time>2022-08-03T10:35:00.000Z</time>
      </trkpt>
      <trkpt lat="49.35114" lon="-0.81982">
        <ele>67.658962</ele>
        <time>2022-08-03T10:35:01.000Z</time>
      </trkpt>
      <trkpt lat="49.35116" lon="-0.81988">
        <ele>67.653599</ele>
        <time>2022-08-03T10:35:02.000Z</time>
      </trkpt>
      <trkpt lat="49.35117" lon="-0.81992">
        <ele>67.649843</ele>
        <time>2022-08-03T10:35:03.000Z</time>
      </trkpt>
      <trkpt lat="49.35119" lon="-0.81997">
        <ele>67.645616</ele>
        <time>2022-08-03T10:35:04.000Z</time>
      </trkpt>
      <trkpt lat="49.3512" lon="-0.82003">
        <ele>67.641178</ele>
        <time>2022-08-03T10:35:05.000Z</time>
      </trkpt>
      <trkpt lat="49.35122" lon="-0.82007">
        <ele>67.637016</ele>
        <time>2022-08-03T10:35:06.000Z</time>
      </trkpt>
      <trkpt lat="49.35123" lon="-0.82013">
        <ele>67.632209</ele>
        <time>2022-08-03T10:35:07.000Z</time>
      </trkpt>
      <trkpt lat="49.35124" lon="-0.82017">
        <ele>67.629341</ele>
        <time>2022-08-03T10:35:08.000Z</time>
      </trkpt>
      <trkpt lat="49.35125" lon="-0.82021">
        <ele>67.625585</ele>
        <time>2022-08-03T10:35:09.000Z</time>
      </trkpt>
      <trkpt lat="49.35126" lon="-0.82025">
        <ele>67.622164</ele>
        <time>2022-08-03T10:35:10.000Z</time>
      </trkpt>
      <trkpt lat="49.35128" lon="-0.8203">
        <ele>67.618409</ele>
        <time>2022-08-03T10:35:11.000Z</time>
      </trkpt>
      <trkpt lat="49.35128" lon="-0.82034">
        <ele>67.61509</ele>
        <time>2022-08-03T10:35:12.000Z</time>
      </trkpt>
      <trkpt lat="49.3513" lon="-0.82038">
        <ele>67.610886</ele>
        <time>2022-08-03T10:35:13.000Z</time>
      </trkpt>
      <trkpt lat="49.35131" lon="-0.82041">
        <ele>67.608354</ele>
        <time>2022-08-03T10:35:14.000Z</time>
      </trkpt>
      <trkpt lat="49.35132" lon="-0.82046">
        <ele>67.60443</ele>
        <time>2022-08-03T10:35:15.000Z</time>
      </trkpt>
      <trkpt lat="49.35133" lon="-0.82051">
        <ele>67.600771</ele>
        <time>2022-08-03T10:35:16.000Z</time>
      </trkpt>
      <trkpt lat="49.35134" lon="-0.82055">
        <ele>67.597319</ele>
        <time>2022-08-03T10:35:17.000Z</time>
      </trkpt>
      <trkpt lat="49.35136" lon="-0.82059">
        <ele>67.593295</ele>
        <time>2022-08-03T10:35:18.000Z</time>
      </trkpt>
      <trkpt lat="49.35136" lon="-0.82063">
        <ele>67.590284</ele>
        <time>2022-08-03T10:35:19.000Z</time>
      </trkpt>
      <trkpt lat="49.35137" lon="-0.82068">
        <ele>67.586577</ele>
        <time>2022-08-03T10:35:20.000Z</time>
      </trkpt>
      <trkpt lat="49.35138" lon="-0.82073">
        <ele>67.581928</ele>
        <time>2022-08-03T10:35:21.000Z</time>
      </trkpt>
      <trkpt lat="49.3514" lon="-0.82078">
        <ele>67.577629</ele>
        <time>2022-08-03T10:35:22.000Z</time>
      </trkpt>
      <trkpt lat="49.35141" lon="-0.82082">
        <ele>67.574178</ele>
        <time>2022-08-03T10:35:23.000Z</time>
      </trkpt>
      <trkpt lat="49.35142" lon="-0.82089">
        <ele>67.569004</ele>
        <time>2022-08-03T10:35:24.000Z</time>
      </trkpt>
      <trkpt lat="49.35143" lon="-0.82093">
        <ele>67.565625</ele>
        <time>2022-08-03T10:35:25.000Z</time>
      </trkpt>
      <trkpt lat="49.35145" lon="-0.82099">
        <ele>67.560197</ele>
        <time>2022-08-03T10:35:26.000Z</time>
      </trkpt>
      <trkpt lat="49.35147" lon="-0.82104">
        <ele>67.556041</ele>
        <time>2022-08-03T10:35:27.000Z</time>
      </trkpt>
      <trkpt lat="49.35148" lon="-0.82108">
        <ele>67.552352</ele>
        <time>2022-08-03T10:35:28.000Z</time>
      </trkpt>
      <trkpt lat="49.3515" lon="-0.82114">
        <ele>67.547703</ele>
        <time>2022-08-03T10:35:29.000Z</time>
      </trkpt>
      <trkpt lat="49.35152" lon="-0.82119">
        <ele>67.542966</ele>
        <time>2022-08-03T10:35:30.000Z</time>
      </trkpt>
      <trkpt lat="49.35153" lon="-0.82124">
        <ele>67.538597</ele>
        <time>2022-08-03T10:35:31.000Z</time>
      </trkpt>
      <trkpt lat="49.35155" lon="-0.8213">
        <ele>67.533792</ele>
        <time>2022-08-03T10:35:32.000Z</time>
      </trkpt>
      <trkpt lat="49.35157" lon="-0.82135">
        <ele>67.529055</ele>
        <time>2022-08-03T10:35:33.000Z</time>
      </trkpt>
      <trkpt lat="49.35159" lon="-0.82142">
        <ele>67.523486</ele>
        <time>2022-08-03T10:35:34.000Z</time>
      </trkpt>
      <trkpt lat="49.3516" lon="-0.82147">
        <ele>67.519402</ele>
        <time>2022-08-03T10:35:35.000Z</time>
      </trkpt>
      <trkpt lat="49.35162" lon="-0.82154">
        <ele>67.513549</ele>
        <time>2022-08-03T10:35:36.000Z</time>
      </trkpt>
      <trkpt lat="49.35164" lon="-0.82158">
        <ele>67.509891</ele>
        <time>2022-08-03T10:35:37.000Z</time>
      </trkpt>
      <trkpt lat="49.35165" lon="-0.82164">
        <ele>67.505375</ele>
        <time>2022-08-03T10:35:38.000Z</time>
      </trkpt>
      <trkpt lat="49.35166" lon="-0.8217">
        <ele>67.499979</ele>
        <time>2022-08-03T10:35:39.000Z</time>
      </trkpt>
      <trkpt lat="49.35168" lon="-0.82175">
        <ele>67.495679</ele>
        <time>2022-08-03T10:35:40.000Z</time>
      </trkpt>
      <trkpt lat="49.35169" lon="-0.82179">
        <ele>67.49216</ele>
        <time>2022-08-03T10:35:41.000Z</time>
      </trkpt>
      <trkpt lat="49.3517" lon="-0.82185">
        <ele>67.487932</ele>
        <time>2022-08-03T10:35:42.000Z</time>
      </trkpt>
      <trkpt lat="49.35171" lon="-0.8219">
        <ele>67.483632</ele>
        <time>2022-08-03T10:35:43.000Z</time>
      </trkpt>
      <trkpt lat="49.35173" lon="-0.82195">
        <ele>67.479333</ele>
        <time>2022-08-03T10:35:44.000Z</time>
      </trkpt>
      <trkpt lat="49.35174" lon="-0.82201">
        <ele>67.474085</ele>
        <time>2022-08-03T10:35:45.000Z</time>
      </trkpt>
      <trkpt lat="49.35175" lon="-0.82206">
        <ele>67.470285</ele>
        <time>2022-08-03T10:35:46.000Z</time>
      </trkpt>
      <trkpt lat="49.35177" lon="-0.82211">
        <ele>67.465636</ele>
        <time>2022-08-03T10:35:47.000Z</time>
      </trkpt>
      <trkpt lat="49.3518" lon="-0.82217">
        <ele>67.460139</ele>
        <time>2022-08-03T10:35:48.000Z</time>
      </trkpt>
      <trkpt lat="49.35182" lon="-0.82221">
        <ele>67.455874</ele>
        <time>2022-08-03T10:35:49.000Z</time>
      </trkpt>
      <trkpt lat="49.35183" lon="-0.82227">
        <ele>67.407424</ele>
        <time>2022-08-03T10:35:50.000Z</time>
      </trkpt>
      <trkpt lat="49.35186" lon="-0.82232">
        <ele>67.357042</ele>
        <time>2022-08-03T10:35:51.000Z</time>
      </trkpt>
      <trkpt lat="49.35187" lon="-0.82238">
        <ele>67.310021</ele>
        <time>2022-08-03T10:35:52.000Z</time>
      </trkpt>
      <trkpt lat="49.35189" lon="-0.82243">
        <ele>67.259343</ele>
        <time>2022-08-03T10:35:53.000Z</time>
      </trkpt>
      <trkpt lat="49.35191" lon="-0.8225">
        <ele>67.207286</ele>
        <time>2022-08-03T10:35:54.000Z</time>
      </trkpt>
      <trkpt lat="49.35192" lon="-0.82256">
        <ele>67.155699</ele>
        <time>2022-08-03T10:35:55.000Z</time>
      </trkpt>
      <trkpt lat="49.35193" lon="-0.82262">
        <ele>67.103367</ele>
        <time>2022-08-03T10:35:56.000Z</time>
      </trkpt>
      <trkpt lat="49.35195" lon="-0.82269">
        <ele>67.050583</ele>
        <time>2022-08-03T10:35:57.000Z</time>
      </trkpt>
      <trkpt lat="49.35196" lon="-0.82275">
        <ele>66.998996</ele>
        <time>2022-08-03T10:35:58.000Z</time>
      </trkpt>
      <trkpt lat="49.35198" lon="-0.82281">
        <ele>66.945485</ele>
        <time>2022-08-03T10:35:59.000Z</time>
      </trkpt>
      <trkpt lat="49.35199" lon="-0.82288">
        <ele>66.892747</ele>
        <time>2022-08-03T10:36:00.000Z</time>
      </trkpt>
      <trkpt lat="49.35201" lon="-0.82294">
        <ele>66.841414</ele>
        <time>2022-08-03T10:36:01.000Z</time>
      </trkpt>
      <trkpt lat="49.35201" lon="-0.823">
        <ele>66.792295</ele>
        <time>2022-08-03T10:36:02.000Z</time>
      </trkpt>
      <trkpt lat="49.35203" lon="-0.82306">
        <ele>66.744414</ele>
        <time>2022-08-03T10:36:03.000Z</time>
      </trkpt>
      <trkpt lat="49.35204" lon="-0.82312">
        <ele>66.693925</ele>
        <time>2022-08-03T10:36:04.000Z</time>
      </trkpt>
      <trkpt lat="49.35205" lon="-0.82318">
        <ele>66.644066</ele>
        <time>2022-08-03T10:36:05.000Z</time>
      </trkpt>
      <trkpt lat="49.35206" lon="-0.82326">
        <ele>66.584307</ele>
        <time>2022-08-03T10:36:06.000Z</time>
      </trkpt>
      <trkpt lat="49.35207" lon="-0.82332">
        <ele>66.534566</ele>
        <time>2022-08-03T10:36:07.000Z</time>
      </trkpt>
      <trkpt lat="49.35207" lon="-0.82337">
        <ele>66.493692</ele>
        <time>2022-08-03T10:36:08.000Z</time>
      </trkpt>
      <trkpt lat="49.35208" lon="-0.82344">
        <ele>66.441268</ele>
        <time>2022-08-03T10:36:09.000Z</time>
      </trkpt>
      <trkpt lat="49.35209" lon="-0.8235">
        <ele>66.388631</ele>
        <time>2022-08-03T10:36:10.000Z</time>
      </trkpt>
      <trkpt lat="49.35209" lon="-0.82357">
        <ele>66.336111</ele>
        <time>2022-08-03T10:36:11.000Z</time>
      </trkpt>
      <trkpt lat="49.3521" lon="-0.82364">
        <ele>66.280997</ele>
        <time>2022-08-03T10:36:12.000Z</time>
      </trkpt>
      <trkpt lat="49.35211" lon="-0.82371">
        <ele>66.228862</ele>
        <time>2022-08-03T10:36:13.000Z</time>
      </trkpt>
      <trkpt lat="49.35211" lon="-0.82378">
        <ele>66.173748</ele>
        <time>2022-08-03T10:36:14.000Z</time>
      </trkpt>
      <trkpt lat="49.35211" lon="-0.82385">
        <ele>66.117545</ele>
        <time>2022-08-03T10:36:15.000Z</time>
      </trkpt>
      <trkpt lat="49.3521" lon="-0.82392">
        <ele>66.055197</ele>
        <time>2022-08-03T10:36:16.000Z</time>
      </trkpt>
      <trkpt lat="49.35209" lon="-0.824">
        <ele>65.993111</ele>
        <time>2022-08-03T10:36:17.000Z</time>
      </trkpt>
      <trkpt lat="49.35208" lon="-0.82408">
        <ele>65.933352</ele>
        <time>2022-08-03T10:36:18.000Z</time>
      </trkpt>
      <trkpt lat="49.35207" lon="-0.82415">
        <ele>65.874276</ele>
        <time>2022-08-03T10:36:19.000Z</time>
      </trkpt>
      <trkpt lat="49.35205" lon="-0.82422">
        <ele>65.815954</ele>
        <time>2022-08-03T10:36:20.000Z</time>
      </trkpt>
      <trkpt lat="49.35204" lon="-0.82429">
        <ele>65.760959</ele>
        <time>2022-08-03T10:36:21.000Z</time>
      </trkpt>
      <trkpt lat="49.35203" lon="-0.82435">
        <ele>65.714124</ele>
        <time>2022-08-03T10:36:22.000Z</time>
      </trkpt>
      <trkpt lat="49.35202" lon="-0.82441">
        <ele>65.662067</ele>
        <time>2022-08-03T10:36:23.000Z</time>
      </trkpt>
      <trkpt lat="49.35201" lon="-0.82447">
        <ele>65.615233</ele>
        <time>2022-08-03T10:36:24.000Z</time>
      </trkpt>
      <trkpt lat="49.35199" lon="-0.82451">
        <ele>65.579432</ele>
        <time>2022-08-03T10:36:25.000Z</time>
      </trkpt>
      <trkpt lat="49.35199" lon="-0.82454">
        <ele>65.55323</ele>
        <time>2022-08-03T10:36:26.000Z</time>
      </trkpt>
      <trkpt lat="49.35198" lon="-0.82459">
        <ele>65.515273</ele>
        <time>2022-08-03T10:36:28.000Z</time>
      </trkpt>
      <trkpt lat="49.35195" lon="-0.82469">
        <ele>65.427587</ele>
        <time>2022-08-03T10:36:45.000Z</time>
      </trkpt>
      <trkpt lat="49.35194" lon="-0.82472">
        <ele>65.400107</ele>
        <time>2022-08-03T10:36:46.000Z</time>
      </trkpt>
      <trkpt lat="49.35193" lon="-0.82475">
        <ele>65.37561</ele>
        <time>2022-08-03T10:36:47.000Z</time>
      </trkpt>
      <trkpt lat="49.35192" lon="-0.82477">
        <ele>65.350384</ele>
        <time>2022-08-03T10:36:48.000Z</time>
      </trkpt>
      <trkpt lat="49.3519" lon="-0.82479">
        <ele>65.324781</ele>
        <time>2022-08-03T10:36:49.000Z</time>
      </trkpt>
      <trkpt lat="49.35188" lon="-0.82479">
        <ele>65.302834</ele>
        <time>2022-08-03T10:36:51.000Z</time>
      </trkpt>
      <trkpt lat="49.35188" lon="-0.82475">
        <ele>65.318526</ele>
        <time>2022-08-03T10:36:53.000Z</time>
      </trkpt>
      <trkpt lat="49.3519" lon="-0.82473">
        <ele>65.3328</ele>
        <time>2022-08-03T10:36:54.000Z</time>
      </trkpt>
      <trkpt lat="49.35192" lon="-0.8247">
        <ele>65.347929</ele>
        <time>2022-08-03T10:36:55.000Z</time>
      </trkpt>
      <trkpt lat="49.35194" lon="-0.82467">
        <ele>65.366174</ele>
        <time>2022-08-03T10:36:56.000Z</time>
      </trkpt>
      <trkpt lat="49.35195" lon="-0.82463">
        <ele>65.383923</ele>
        <time>2022-08-03T10:36:57.000Z</time>
      </trkpt>
      <trkpt lat="49.35196" lon="-0.8246">
        <ele>65.400238</ele>
        <time>2022-08-03T10:36:58.000Z</time>
      </trkpt>
      <trkpt lat="49.35197" lon="-0.82455">
        <ele>65.418246</ele>
        <time>2022-08-03T10:36:59.000Z</time>
      </trkpt>
      <trkpt lat="49.35198" lon="-0.82452">
        <ele>65.431971</ele>
        <time>2022-08-03T10:37:00.000Z</time>
      </trkpt>
      <trkpt lat="49.352" lon="-0.82451">
        <ele>65.445931</ele>
        <time>2022-08-03T10:37:02.000Z</time>
      </trkpt>
      <trkpt lat="49.35197" lon="-0.82457">
        <ele>65.476997</ele>
        <time>2022-08-03T10:37:41.000Z</time>
      </trkpt>
      <trkpt lat="49.35196" lon="-0.82461">
        <ele>65.495425</ele>
        <time>2022-08-03T10:37:42.000Z</time>
      </trkpt>
      <trkpt lat="49.35195" lon="-0.82465">
        <ele>65.510954</ele>
        <time>2022-08-03T10:37:43.000Z</time>
      </trkpt>
      <trkpt lat="49.35194" lon="-0.8247">
        <ele>65.532881</ele>
        <time>2022-08-03T10:37:44.000Z</time>
      </trkpt>
      <trkpt lat="49.35194" lon="-0.82474">
        <ele>65.552115</ele>
        <time>2022-08-03T10:37:45.000Z</time>
      </trkpt>
      <trkpt lat="49.35193" lon="-0.82478">
        <ele>65.568918</ele>
        <time>2022-08-03T10:37:46.000Z</time>
      </trkpt>
      <trkpt lat="49.35194" lon="-0.82482">
        <ele>65.584913</ele>
        <time>2022-08-03T10:37:48.000Z</time>
      </trkpt>
      <trkpt lat="49.35195" lon="-0.82489">
        <ele>65.611828</ele>
        <time>2022-08-03T10:38:39.000Z</time>
      </trkpt>
      <trkpt lat="49.35195" lon="-0.82491">
        <ele>65.623385</ele>
        <time>2022-08-03T10:38:40.000Z</time>
      </trkpt>
      <trkpt lat="49.35195" lon="-0.82497">
        <ele>65.644564</ele>
        <time>2022-08-03T10:38:42.000Z</time>
      </trkpt>
      <trkpt lat="49.35196" lon="-0.82501">
        <ele>65.662987</ele>
        <time>2022-08-03T10:38:44.000Z</time>
      </trkpt>
      <trkpt lat="49.35199" lon="-0.82511">
        <ele>65.706546</ele>
        <time>2022-08-03T10:39:05.000Z</time>
      </trkpt>
      <trkpt lat="49.35201" lon="-0.82515">
        <ele>65.728387</ele>
        <time>2022-08-03T10:39:06.000Z</time>
      </trkpt>
      <trkpt lat="49.35203" lon="-0.8252">
        <ele>65.7535</ele>
        <time>2022-08-03T10:39:07.000Z</time>
      </trkpt>
      <trkpt lat="49.35205" lon="-0.82523">
        <ele>65.773309</ele>
        <time>2022-08-03T10:39:08.000Z</time>
      </trkpt>
      <trkpt lat="49.35208" lon="-0.82527">
        <ele>65.796324</ele>
        <time>2022-08-03T10:39:09.000Z</time>
      </trkpt>
      <trkpt lat="49.35211" lon="-0.82531">
        <ele>65.820973</ele>
        <time>2022-08-03T10:39:10.000Z</time>
      </trkpt>
      <trkpt lat="49.35213" lon="-0.82536">
        <ele>65.843889</ele>
        <time>2022-08-03T10:39:11.000Z</time>
      </trkpt>
      <trkpt lat="49.35215" lon="-0.82541">
        <ele>65.867464</ele>
        <time>2022-08-03T10:39:12.000Z</time>
      </trkpt>
      <trkpt lat="49.35218" lon="-0.82545">
        <ele>65.891659</ele>
        <time>2022-08-03T10:39:13.000Z</time>
      </trkpt>
      <trkpt lat="49.35219" lon="-0.82548">
        <ele>65.906227</ele>
        <time>2022-08-03T10:39:14.000Z</time>
      </trkpt>
      <trkpt lat="49.35222" lon="-0.82551">
        <ele>65.927062</ele>
        <time>2022-08-03T10:39:15.000Z</time>
      </trkpt>
      <trkpt lat="49.35225" lon="-0.82555">
        <ele>65.953865</ele>
        <time>2022-08-03T10:39:16.000Z</time>
      </trkpt>
      <trkpt lat="49.35228" lon="-0.82558">
        <ele>65.974216</ele>
        <time>2022-08-03T10:39:17.000Z</time>
      </trkpt>
      <trkpt lat="49.3523" lon="-0.82561">
        <ele>65.993842</ele>
        <time>2022-08-03T10:39:18.000Z</time>
      </trkpt>
      <trkpt lat="49.35233" lon="-0.82564">
        <ele>66.017161</ele>
        <time>2022-08-03T10:39:19.000Z</time>
      </trkpt>
      <trkpt lat="49.35237" lon="-0.82568">
        <ele>66.042706</ele>
        <time>2022-08-03T10:39:20.000Z</time>
      </trkpt>
      <trkpt lat="49.35238" lon="-0.82572">
        <ele>66.061577</ele>
        <time>2022-08-03T10:39:21.000Z</time>
      </trkpt>
      <trkpt lat="49.35241" lon="-0.82576">
        <ele>66.084305</ele>
        <time>2022-08-03T10:39:22.000Z</time>
      </trkpt>
      <trkpt lat="49.35244" lon="-0.8258">
        <ele>66.108219</ele>
        <time>2022-08-03T10:39:23.000Z</time>
      </trkpt>
      <trkpt lat="49.35247" lon="-0.82583">
        <ele>66.133023</ele>
        <time>2022-08-03T10:39:24.000Z</time>
      </trkpt>
      <trkpt lat="49.35251" lon="-0.82587">
        <ele>66.16011</ele>
        <time>2022-08-03T10:39:25.000Z</time>
      </trkpt>
      <trkpt lat="49.35253" lon="-0.82591">
        <ele>66.182107</ele>
        <time>2022-08-03T10:39:26.000Z</time>
      </trkpt>
      <trkpt lat="49.35256" lon="-0.82595">
        <ele>66.207154</ele>
        <time>2022-08-03T10:39:27.000Z</time>
      </trkpt>
      <trkpt lat="49.35259" lon="-0.82598">
        <ele>66.230219</ele>
        <time>2022-08-03T10:39:28.000Z</time>
      </trkpt>
      <trkpt lat="49.35263" lon="-0.82602">
        <ele>66.256788</ele>
        <time>2022-08-03T10:39:29.000Z</time>
      </trkpt>
      <trkpt lat="49.35266" lon="-0.82605">
        <ele>66.278883</ele>
        <time>2022-08-03T10:39:30.000Z</time>
      </trkpt>
      <trkpt lat="49.35269" lon="-0.82608">
        <ele>66.305599</ele>
        <time>2022-08-03T10:39:31.000Z</time>
      </trkpt>
      <trkpt lat="49.35272" lon="-0.8261">
        <ele>66.325008</ele>
        <time>2022-08-03T10:39:32.000Z</time>
      </trkpt>
      <trkpt lat="49.35276" lon="-0.82611">
        <ele>66.350356</ele>
        <time>2022-08-03T10:39:33.000Z</time>
      </trkpt>
      <trkpt lat="49.35281" lon="-0.82613">
        <ele>66.378826</ele>
        <time>2022-08-03T10:39:34.000Z</time>
      </trkpt>
      <trkpt lat="49.35283" lon="-0.82614">
        <ele>66.395923</ele>
        <time>2022-08-03T10:39:35.000Z</time>
      </trkpt>
      <trkpt lat="49.35287" lon="-0.82616">
        <ele>66.42091</ele>
        <time>2022-08-03T10:39:36.000Z</time>
      </trkpt>
      <trkpt lat="49.35291" lon="-0.82619">
        <ele>66.411272</ele>
        <time>2022-08-03T10:39:37.000Z</time>
      </trkpt>
      <trkpt lat="49.35294" lon="-0.82621">
        <ele>66.39297</ele>
        <time>2022-08-03T10:39:38.000Z</time>
      </trkpt>
      <trkpt lat="49.35298" lon="-0.82623">
        <ele>66.374559</ele>
        <time>2022-08-03T10:39:39.000Z</time>
      </trkpt>
      <trkpt lat="49.35302" lon="-0.82625">
        <ele>66.356135</ele>
        <time>2022-08-03T10:39:40.000Z</time>
      </trkpt>
      <trkpt lat="49.35306" lon="-0.82627">
        <ele>66.338136</ele>
        <time>2022-08-03T10:39:41.000Z</time>
      </trkpt>
      <trkpt lat="49.3531" lon="-0.82629">
        <ele>66.318432</ele>
        <time>2022-08-03T10:39:42.000Z</time>
      </trkpt>
      <trkpt lat="49.35314" lon="-0.82632">
        <ele>66.298556</ele>
        <time>2022-08-03T10:39:43.000Z</time>
      </trkpt>
      <trkpt lat="49.35318" lon="-0.82635">
        <ele>66.279386</ele>
        <time>2022-08-03T10:39:44.000Z</time>
      </trkpt>
      <trkpt lat="49.35321" lon="-0.82637">
        <ele>66.264761</ele>
        <time>2022-08-03T10:39:45.000Z</time>
      </trkpt>
      <trkpt lat="49.35325" lon="-0.8264">
        <ele>66.245615</ele>
        <time>2022-08-03T10:39:46.000Z</time>
      </trkpt>
      <trkpt lat="49.35329" lon="-0.82643">
        <ele>66.22498</ele>
        <time>2022-08-03T10:39:47.000Z</time>
      </trkpt>
      <trkpt lat="49.35333" lon="-0.82646">
        <ele>66.205699</ele>
        <time>2022-08-03T10:39:48.000Z</time>
      </trkpt>
      <trkpt lat="49.35338" lon="-0.8265">
        <ele>66.180169</ele>
        <time>2022-08-03T10:39:49.000Z</time>
      </trkpt>
      <trkpt lat="49.35341" lon="-0.82653">
        <ele>66.1645</ele>
        <time>2022-08-03T10:39:50.000Z</time>
      </trkpt>
      <trkpt lat="49.35345" lon="-0.82656">
        <ele>66.14336</ele>
        <time>2022-08-03T10:39:51.000Z</time>
      </trkpt>
      <trkpt lat="49.3535" lon="-0.8266">
        <ele>66.116495</ele>
        <time>2022-08-03T10:39:52.000Z</time>
      </trkpt>
      <trkpt lat="49.35354" lon="-0.82663">
        <ele>66.098944</ele>
        <time>2022-08-03T10:39:53.000Z</time>
      </trkpt>
      <trkpt lat="49.35358" lon="-0.82666">
        <ele>66.07739</ele>
        <time>2022-08-03T10:39:54.000Z</time>
      </trkpt>
      <trkpt lat="49.35362" lon="-0.8267">
        <ele>66.05637</ele>
        <time>2022-08-03T10:39:55.000Z</time>
      </trkpt>
      <trkpt lat="49.35367" lon="-0.82673">
        <ele>66.033898</ele>
        <time>2022-08-03T10:39:56.000Z</time>
      </trkpt>
      <trkpt lat="49.35371" lon="-0.82676">
        <ele>66.013017</ele>
        <time>2022-08-03T10:39:57.000Z</time>
      </trkpt>
      <trkpt lat="49.35376" lon="-0.8268">
        <ele>65.989331</ele>
        <time>2022-08-03T10:39:58.000Z</time>
      </trkpt>
      <trkpt lat="49.3538" lon="-0.82684">
        <ele>65.967564</ele>
        <time>2022-08-03T10:39:59.000Z</time>
      </trkpt>
      <trkpt lat="49.35384" lon="-0.82689">
        <ele>65.944797</ele>
        <time>2022-08-03T10:40:00.000Z</time>
      </trkpt>
      <trkpt lat="49.35387" lon="-0.82695">
        <ele>65.922282</ele>
        <time>2022-08-03T10:40:01.000Z</time>
      </trkpt>
      <trkpt lat="49.35389" lon="-0.82702">
        <ele>65.898806</ele>
        <time>2022-08-03T10:40:02.000Z</time>
      </trkpt>
      <trkpt lat="49.35391" lon="-0.82712">
        <ele>65.868731</ele>
        <time>2022-08-03T10:40:03.000Z</time>
      </trkpt>
      <trkpt lat="49.35392" lon="-0.82719">
        <ele>65.848764</ele>
        <time>2022-08-03T10:40:04.000Z</time>
      </trkpt>
      <trkpt lat="49.35395" lon="-0.82729">
        <ele>65.817812</ele>
        <time>2022-08-03T10:40:05.000Z</time>
      </trkpt>
      <trkpt lat="49.35396" lon="-0.82737">
        <ele>65.791427</ele>
        <time>2022-08-03T10:40:06.000Z</time>
      </trkpt>
      <trkpt lat="49.35398" lon="-0.82746">
        <ele>65.763814</ele>
        <time>2022-08-03T10:40:07.000Z</time>
      </trkpt>
      <trkpt lat="49.35399" lon="-0.82754">
        <ele>65.74176</ele>
        <time>2022-08-03T10:40:08.000Z</time>
      </trkpt>
      <trkpt lat="49.35401" lon="-0.82764">
        <ele>65.708702</ele>
        <time>2022-08-03T10:40:09.000Z</time>
      </trkpt>
      <trkpt lat="49.35403" lon="-0.82773">
        <ele>65.681089</ele>
        <time>2022-08-03T10:40:10.000Z</time>
      </trkpt>
      <trkpt lat="49.35405" lon="-0.82782">
        <ele>65.653476</ele>
        <time>2022-08-03T10:40:11.000Z</time>
      </trkpt>
      <trkpt lat="49.35406" lon="-0.82792">
        <ele>65.626</ele>
        <time>2022-08-03T10:40:12.000Z</time>
      </trkpt>
      <trkpt lat="49.35408" lon="-0.82799">
        <ele>65.604896</ele>
        <time>2022-08-03T10:40:13.000Z</time>
      </trkpt>
      <trkpt lat="49.35409" lon="-0.82808">
        <ele>65.57841</ele>
        <time>2022-08-03T10:40:14.000Z</time>
      </trkpt>
      <trkpt lat="49.35411" lon="-0.82819">
        <ele>65.546935</ele>
        <time>2022-08-03T10:40:15.000Z</time>
      </trkpt>
      <trkpt lat="49.35413" lon="-0.82828">
        <ele>65.520174</ele>
        <time>2022-08-03T10:40:16.000Z</time>
      </trkpt>
      <trkpt lat="49.35414" lon="-0.82837">
        <ele>65.493926</ele>
        <time>2022-08-03T10:40:17.000Z</time>
      </trkpt>
      <trkpt lat="49.35416" lon="-0.82846">
        <ele>65.467136</ele>
        <time>2022-08-03T10:40:18.000Z</time>
      </trkpt>
      <trkpt lat="49.35417" lon="-0.82855">
        <ele>65.440345</ele>
        <time>2022-08-03T10:40:19.000Z</time>
      </trkpt>
      <trkpt lat="49.35418" lon="-0.82865">
        <ele>65.413892</ele>
        <time>2022-08-03T10:40:20.000Z</time>
      </trkpt>
      <trkpt lat="49.3542" lon="-0.82874">
        <ele>65.387138</ele>
        <time>2022-08-03T10:40:21.000Z</time>
      </trkpt>
      <trkpt lat="49.35422" lon="-0.82881">
        <ele>65.366266</ele>
        <time>2022-08-03T10:40:22.000Z</time>
      </trkpt>
      <trkpt lat="49.35424" lon="-0.82891">
        <ele>65.334697</ele>
        <time>2022-08-03T10:40:23.000Z</time>
      </trkpt>
      <trkpt lat="49.35426" lon="-0.829">
        <ele>65.308992</ele>
        <time>2022-08-03T10:40:24.000Z</time>
      </trkpt>
      <trkpt lat="49.35428" lon="-0.82909">
        <ele>65.283176</ele>
        <time>2022-08-03T10:40:25.000Z</time>
      </trkpt>
      <trkpt lat="49.35429" lon="-0.82917">
        <ele>65.258012</ele>
        <time>2022-08-03T10:40:26.000Z</time>
      </trkpt>
      <trkpt lat="49.35431" lon="-0.82926">
        <ele>65.231596</ele>
        <time>2022-08-03T10:40:27.000Z</time>
      </trkpt>
      <trkpt lat="49.35433" lon="-0.82935">
        <ele>65.205891</ele>
        <time>2022-08-03T10:40:28.000Z</time>
      </trkpt>
      <trkpt lat="49.35434" lon="-0.82942">
        <ele>65.185526</ele>
        <time>2022-08-03T10:40:29.000Z</time>
      </trkpt>
      <trkpt lat="49.35436" lon="-0.82953">
        <ele>65.153394</ele>
        <time>2022-08-03T10:40:30.000Z</time>
      </trkpt>
      <trkpt lat="49.35437" lon="-0.8296">
        <ele>65.131939</ele>
        <time>2022-08-03T10:40:31.000Z</time>
      </trkpt>
      <trkpt lat="49.35439" lon="-0.82971">
        <ele>65.100349</ele>
        <time>2022-08-03T10:40:32.000Z</time>
      </trkpt>
      <trkpt lat="49.3544" lon="-0.8298">
        <ele>65.074175</ele>
        <time>2022-08-03T10:40:33.000Z</time>
      </trkpt>
      <trkpt lat="49.35442" lon="-0.82989">
        <ele>65.048092</ele>
        <time>2022-08-03T10:40:34.000Z</time>
      </trkpt>
      <trkpt lat="49.35444" lon="-0.82998">
        <ele>65.022387</ele>
        <time>2022-08-03T10:40:35.000Z</time>
      </trkpt>
      <trkpt lat="49.35445" lon="-0.83005">
        <ele>65.001907</ele>
        <time>2022-08-03T10:40:36.000Z</time>
      </trkpt>
      <trkpt lat="49.35447" lon="-0.83016">
        <ele>64.970161</ele>
        <time>2022-08-03T10:40:37.000Z</time>
      </trkpt>
      <trkpt lat="49.35448" lon="-0.83025">
        <ele>64.944774</ele>
        <time>2022-08-03T10:40:38.000Z</time>
      </trkpt>
      <trkpt lat="49.3545" lon="-0.83034">
        <ele>64.918838</ele>
        <time>2022-08-03T10:40:39.000Z</time>
      </trkpt>
      <trkpt lat="49.3545" lon="-0.83041">
        <ele>64.898259</ele>
        <time>2022-08-03T10:40:40.000Z</time>
      </trkpt>
      <trkpt lat="49.35451" lon="-0.83052">
        <ele>64.866805</ele>
        <time>2022-08-03T10:40:41.000Z</time>
      </trkpt>
      <trkpt lat="49.35452" lon="-0.83061">
        <ele>64.841275</ele>
        <time>2022-08-03T10:40:42.000Z</time>
      </trkpt>
      <trkpt lat="49.35452" lon="-0.8307">
        <ele>64.820984</ele>
        <time>2022-08-03T10:40:43.000Z</time>
      </trkpt>
      <trkpt lat="49.35452" lon="-0.83078">
        <ele>64.804883</ele>
        <time>2022-08-03T10:40:44.000Z</time>
      </trkpt>
      <trkpt lat="49.35452" lon="-0.83087">
        <ele>64.785033</ele>
        <time>2022-08-03T10:40:45.000Z</time>
      </trkpt>
      <trkpt lat="49.35451" lon="-0.83097">
        <ele>64.761127</ele>
        <time>2022-08-03T10:40:46.000Z</time>
      </trkpt>
      <trkpt lat="49.3545" lon="-0.83106">
        <ele>64.74101</ele>
        <time>2022-08-03T10:40:47.000Z</time>
      </trkpt>
      <trkpt lat="49.35449" lon="-0.83115">
        <ele>64.721934</ele>
        <time>2022-08-03T10:40:48.000Z</time>
      </trkpt>
      <trkpt lat="49.35448" lon="-0.83122">
        <ele>64.705878</ele>
        <time>2022-08-03T10:40:49.000Z</time>
      </trkpt>
      <trkpt lat="49.35447" lon="-0.83133">
        <ele>64.682083</ele>
        <time>2022-08-03T10:40:50.000Z</time>
      </trkpt>
      <trkpt lat="49.35447" lon="-0.8314">
        <ele>64.666585</ele>
        <time>2022-08-03T10:40:51.000Z</time>
      </trkpt>
      <trkpt lat="49.35446" lon="-0.83151">
        <ele>64.642571</ele>
        <time>2022-08-03T10:40:52.000Z</time>
      </trkpt>
      <trkpt lat="49.35446" lon="-0.8316">
        <ele>64.622255</ele>
        <time>2022-08-03T10:40:53.000Z</time>
      </trkpt>
      <trkpt lat="49.35445" lon="-0.83167">
        <ele>64.605544</ele>
        <time>2022-08-03T10:40:54.000Z</time>
      </trkpt>
      <trkpt lat="49.35444" lon="-0.83179">
        <ele>64.580236</ele>
        <time>2022-08-03T10:40:55.000Z</time>
      </trkpt>
      <trkpt lat="49.35443" lon="-0.83188">
        <ele>64.560282</ele>
        <time>2022-08-03T10:40:56.000Z</time>
      </trkpt>
      <trkpt lat="49.35442" lon="-0.83196">
        <ele>64.54038</ele>
        <time>2022-08-03T10:40:57.000Z</time>
      </trkpt>
      <trkpt lat="49.3544" lon="-0.83204">
        <ele>64.523602</ele>
        <time>2022-08-03T10:40:58.000Z</time>
      </trkpt>
      <trkpt lat="49.35438" lon="-0.83214">
        <ele>64.498644</ele>
        <time>2022-08-03T10:40:59.000Z</time>
      </trkpt>
      <trkpt lat="49.35436" lon="-0.83223">
        <ele>64.477987</ele>
        <time>2022-08-03T10:41:00.000Z</time>
      </trkpt>
      <trkpt lat="49.35434" lon="-0.83232">
        <ele>64.457014</ele>
        <time>2022-08-03T10:41:01.000Z</time>
      </trkpt>
      <trkpt lat="49.35433" lon="-0.83239">
        <ele>64.441061</ele>
        <time>2022-08-03T10:41:02.000Z</time>
      </trkpt>
      <trkpt lat="49.35432" lon="-0.83248">
        <ele>64.420485</ele>
        <time>2022-08-03T10:41:03.000Z</time>
      </trkpt>
      <trkpt lat="49.35431" lon="-0.83259">
        <ele>64.396767</ele>
        <time>2022-08-03T10:41:04.000Z</time>
      </trkpt>
      <trkpt lat="49.3543" lon="-0.83268">
        <ele>64.377252</ele>
        <time>2022-08-03T10:41:05.000Z</time>
      </trkpt>
      <trkpt lat="49.3543" lon="-0.83277">
        <ele>64.357298</ele>
        <time>2022-08-03T10:41:06.000Z</time>
      </trkpt>
      <trkpt lat="49.35429" lon="-0.83284">
        <ele>64.341679</ele>
        <time>2022-08-03T10:41:07.000Z</time>
      </trkpt>
      <trkpt lat="49.35428" lon="-0.83294">
        <ele>64.318321</ele>
        <time>2022-08-03T10:41:08.000Z</time>
      </trkpt>
      <trkpt lat="49.35428" lon="-0.83303">
        <ele>64.299424</ele>
        <time>2022-08-03T10:41:09.000Z</time>
      </trkpt>
      <trkpt lat="49.35427" lon="-0.83312">
        <ele>64.279995</ele>
        <time>2022-08-03T10:41:10.000Z</time>
      </trkpt>
      <trkpt lat="49.35426" lon="-0.8332">
        <ele>64.261099</ele>
        <time>2022-08-03T10:41:11.000Z</time>
      </trkpt>
      <trkpt lat="49.35425" lon="-0.83327">
        <ele>64.245362</ele>
        <time>2022-08-03T10:41:12.000Z</time>
      </trkpt>
      <trkpt lat="49.35424" lon="-0.83337">
        <ele>64.24778</ele>
        <time>2022-08-03T10:41:13.000Z</time>
      </trkpt>
      <trkpt lat="49.35422" lon="-0.83345">
        <ele>64.272487</ele>
        <time>2022-08-03T10:41:14.000Z</time>
      </trkpt>
      <trkpt lat="49.35421" lon="-0.83353">
        <ele>64.295267</ele>
        <time>2022-08-03T10:41:15.000Z</time>
      </trkpt>
      <trkpt lat="49.3542" lon="-0.83358">
        <ele>64.312027</ele>
        <time>2022-08-03T10:41:16.000Z</time>
      </trkpt>
      <trkpt lat="49.35417" lon="-0.83367">
        <ele>64.339503</ele>
        <time>2022-08-03T10:41:17.000Z</time>
      </trkpt>
      <trkpt lat="49.35415" lon="-0.83375">
        <ele>64.363</ele>
        <time>2022-08-03T10:41:18.000Z</time>
      </trkpt>
      <trkpt lat="49.35413" lon="-0.83383">
        <ele>64.387734</ele>
        <time>2022-08-03T10:41:19.000Z</time>
      </trkpt>
      <trkpt lat="49.35412" lon="-0.83389">
        <ele>64.40618</ele>
        <time>2022-08-03T10:41:20.000Z</time>
      </trkpt>
      <trkpt lat="49.3541" lon="-0.83396">
        <ele>64.427865</ele>
        <time>2022-08-03T10:41:21.000Z</time>
      </trkpt>
      <trkpt lat="49.35408" lon="-0.83403">
        <ele>64.450288</ele>
        <time>2022-08-03T10:41:22.000Z</time>
      </trkpt>
      <trkpt lat="49.35406" lon="-0.8341">
        <ele>64.472711</ele>
        <time>2022-08-03T10:41:23.000Z</time>
      </trkpt>
      <trkpt lat="49.35405" lon="-0.83417">
        <ele>64.493396</ele>
        <time>2022-08-03T10:41:24.000Z</time>
      </trkpt>
      <trkpt lat="49.35404" lon="-0.83424">
        <ele>64.513723</ele>
        <time>2022-08-03T10:41:25.000Z</time>
      </trkpt>
      <trkpt lat="49.35402" lon="-0.8343">
        <ele>64.533779</ele>
        <time>2022-08-03T10:41:26.000Z</time>
      </trkpt>
      <trkpt lat="49.354" lon="-0.83438">
        <ele>64.557007</ele>
        <time>2022-08-03T10:41:27.000Z</time>
      </trkpt>
      <trkpt lat="49.35399" lon="-0.83443">
        <ele>64.57198</ele>
        <time>2022-08-03T10:41:28.000Z</time>
      </trkpt>
      <trkpt lat="49.35398" lon="-0.83449">
        <ele>64.591229</ele>
        <time>2022-08-03T10:41:29.000Z</time>
      </trkpt>
      <trkpt lat="49.35397" lon="-0.83455">
        <ele>64.610029</ele>
        <time>2022-08-03T10:41:30.000Z</time>
      </trkpt>
      <trkpt lat="49.35396" lon="-0.83462">
        <ele>64.628745</ele>
        <time>2022-08-03T10:41:31.000Z</time>
      </trkpt>
      <trkpt lat="49.35394" lon="-0.83468">
        <ele>64.647459</ele>
        <time>2022-08-03T10:41:32.000Z</time>
      </trkpt>
      <trkpt lat="49.35392" lon="-0.83474">
        <ele>64.666716</ele>
        <time>2022-08-03T10:41:33.000Z</time>
      </trkpt>
      <trkpt lat="49.3539" lon="-0.8348">
        <ele>64.685429</ele>
        <time>2022-08-03T10:41:34.000Z</time>
      </trkpt>
      <trkpt lat="49.35389" lon="-0.83486">
        <ele>64.704947</ele>
        <time>2022-08-03T10:41:35.000Z</time>
      </trkpt>
      <trkpt lat="49.35388" lon="-0.83493">
        <ele>64.725125</ele>
        <time>2022-08-03T10:41:36.000Z</time>
      </trkpt>
      <trkpt lat="49.35386" lon="-0.835">
        <ele>64.748085</ele>
        <time>2022-08-03T10:41:37.000Z</time>
      </trkpt>
      <trkpt lat="49.35385" lon="-0.83507">
        <ele>64.768142</ele>
        <time>2022-08-03T10:41:38.000Z</time>
      </trkpt>
      <trkpt lat="49.35384" lon="-0.83512">
        <ele>64.783393</ele>
        <time>2022-08-03T10:41:39.000Z</time>
      </trkpt>
      <trkpt lat="49.35382" lon="-0.83518">
        <ele>64.802744</ele>
        <time>2022-08-03T10:41:40.000Z</time>
      </trkpt>
      <trkpt lat="49.35381" lon="-0.83525">
        <ele>64.82146</ele>
        <time>2022-08-03T10:41:41.000Z</time>
      </trkpt>
      <trkpt lat="49.3538" lon="-0.83531">
        <ele>64.840406</ele>
        <time>2022-08-03T10:41:42.000Z</time>
      </trkpt>
      <trkpt lat="49.35379" lon="-0.83538">
        <ele>64.861004</ele>
        <time>2022-08-03T10:41:43.000Z</time>
      </trkpt>
      <trkpt lat="49.35377" lon="-0.83544">
        <ele>64.88063</ele>
        <time>2022-08-03T10:41:44.000Z</time>
      </trkpt>
      <trkpt lat="49.35375" lon="-0.8355">
        <ele>64.900407</ele>
        <time>2022-08-03T10:41:45.000Z</time>
      </trkpt>
      <trkpt lat="49.35373" lon="-0.83556">
        <ele>64.921449</ele>
        <time>2022-08-03T10:41:46.000Z</time>
      </trkpt>
      <trkpt lat="49.3537" lon="-0.83562">
        <ele>64.943014</ele>
        <time>2022-08-03T10:41:47.000Z</time>
      </trkpt>
      <trkpt lat="49.35367" lon="-0.83568">
        <ele>64.964086</ele>
        <time>2022-08-03T10:41:48.000Z</time>
      </trkpt>
      <trkpt lat="49.35364" lon="-0.83573">
        <ele>64.982509</ele>
        <time>2022-08-03T10:41:49.000Z</time>
      </trkpt>
      <trkpt lat="49.35362" lon="-0.83578">
        <ele>65.000976</ele>
        <time>2022-08-03T10:41:50.000Z</time>
      </trkpt>
      <trkpt lat="49.35358" lon="-0.83583">
        <ele>65.0206</ele>
        <time>2022-08-03T10:41:51.000Z</time>
      </trkpt>
      <trkpt lat="49.35356" lon="-0.83587">
        <ele>65.039147</ele>
        <time>2022-08-03T10:41:52.000Z</time>
      </trkpt>
      <trkpt lat="49.35352" lon="-0.83592">
        <ele>65.059051</ele>
        <time>2022-08-03T10:41:53.000Z</time>
      </trkpt>
      <trkpt lat="49.35349" lon="-0.83597">
        <ele>65.078955</ele>
        <time>2022-08-03T10:41:54.000Z</time>
      </trkpt>
      <trkpt lat="49.35346" lon="-0.83602">
        <ele>65.097966</ele>
        <time>2022-08-03T10:41:55.000Z</time>
      </trkpt>
      <trkpt lat="49.35344" lon="-0.83607">
        <ele>65.115417</ele>
        <time>2022-08-03T10:41:56.000Z</time>
      </trkpt>
      <trkpt lat="49.35341" lon="-0.83612">
        <ele>65.133392</ele>
        <time>2022-08-03T10:41:57.000Z</time>
      </trkpt>
      <trkpt lat="49.35338" lon="-0.83617">
        <ele>65.152831</ele>
        <time>2022-08-03T10:41:58.000Z</time>
      </trkpt>
      <trkpt lat="49.35335" lon="-0.83622">
        <ele>65.172938</ele>
        <time>2022-08-03T10:41:59.000Z</time>
      </trkpt>
      <trkpt lat="49.35332" lon="-0.83626">
        <ele>65.190914</ele>
        <time>2022-08-03T10:42:00.000Z</time>
      </trkpt>
      <trkpt lat="49.35329" lon="-0.8363">
        <ele>65.207562</ele>
        <time>2022-08-03T10:42:01.000Z</time>
      </trkpt>
      <trkpt lat="49.35326" lon="-0.83631">
        <ele>65.220688</ele>
        <time>2022-08-03T10:42:02.000Z</time>
      </trkpt>
      <trkpt lat="49.35322" lon="-0.83632">
        <ele>65.237774</ele>
        <time>2022-08-03T10:42:03.000Z</time>
      </trkpt>
      <trkpt lat="49.35318" lon="-0.83631">
        <ele>65.255703</ele>
        <time>2022-08-03T10:42:04.000Z</time>
      </trkpt>
      <trkpt lat="49.35315" lon="-0.8363">
        <ele>65.26866</ele>
        <time>2022-08-03T10:42:05.000Z</time>
      </trkpt>
      <trkpt lat="49.35312" lon="-0.83629">
        <ele>65.280345</ele>
        <time>2022-08-03T10:42:06.000Z</time>
      </trkpt>
      <trkpt lat="49.3531" lon="-0.83629">
        <ele>65.291247</ele>
        <time>2022-08-03T10:42:07.000Z</time>
      </trkpt>
      <trkpt lat="49.35307" lon="-0.83629">
        <ele>65.302584</ele>
        <time>2022-08-03T10:42:08.000Z</time>
      </trkpt>
      <trkpt lat="49.35305" lon="-0.83631">
        <ele>65.313321</ele>
        <time>2022-08-03T10:42:09.000Z</time>
      </trkpt>
      <trkpt lat="49.35303" lon="-0.83634">
        <ele>65.323273</ele>
        <time>2022-08-03T10:42:10.000Z</time>
      </trkpt>
      <trkpt lat="49.35301" lon="-0.83637">
        <ele>65.335866</ele>
        <time>2022-08-03T10:42:11.000Z</time>
      </trkpt>
      <trkpt lat="49.353" lon="-0.8364">
        <ele>65.348008</ele>
        <time>2022-08-03T10:42:12.000Z</time>
      </trkpt>
      <trkpt lat="49.35299" lon="-0.83645">
        <ele>65.361292</ele>
        <time>2022-08-03T10:42:13.000Z</time>
      </trkpt>
      <trkpt lat="49.35297" lon="-0.83649">
        <ele>65.374753</ele>
        <time>2022-08-03T10:42:14.000Z</time>
      </trkpt>
      <trkpt lat="49.35297" lon="-0.83653">
        <ele>65.387615</ele>
        <time>2022-08-03T10:42:15.000Z</time>
      </trkpt>
      <trkpt lat="49.35295" lon="-0.83657">
        <ele>65.40012</ele>
        <time>2022-08-03T10:42:16.000Z</time>
      </trkpt>
      <trkpt lat="49.35295" lon="-0.83662">
        <ele>65.413017</ele>
        <time>2022-08-03T10:42:17.000Z</time>
      </trkpt>
      <trkpt lat="49.35295" lon="-0.83667">
        <ele>65.428973</ele>
        <time>2022-08-03T10:42:18.000Z</time>
      </trkpt>
      <trkpt lat="49.35295" lon="-0.83673">
        <ele>65.444307</ele>
        <time>2022-08-03T10:42:19.000Z</time>
      </trkpt>
      <trkpt lat="49.35295" lon="-0.83678">
        <ele>65.459357</ele>
        <time>2022-08-03T10:42:20.000Z</time>
      </trkpt>
      <trkpt lat="49.35294" lon="-0.83684">
        <ele>65.476594</ele>
        <time>2022-08-03T10:42:21.000Z</time>
      </trkpt>
      <trkpt lat="49.35294" lon="-0.83689">
        <ele>65.49136</ele>
        <time>2022-08-03T10:42:22.000Z</time>
      </trkpt>
      <trkpt lat="49.35294" lon="-0.83695">
        <ele>65.507033</ele>
        <time>2022-08-03T10:42:23.000Z</time>
      </trkpt>
      <trkpt lat="49.35294" lon="-0.83701">
        <ele>65.524121</ele>
        <time>2022-08-03T10:42:24.000Z</time>
      </trkpt>
      <trkpt lat="49.35294" lon="-0.83707">
        <ele>65.542578</ele>
        <time>2022-08-03T10:42:25.000Z</time>
      </trkpt>
      <trkpt lat="49.35294" lon="-0.83713">
        <ele>65.5599</ele>
        <time>2022-08-03T10:42:26.000Z</time>
      </trkpt>
      <trkpt lat="49.35293" lon="-0.83721">
        <ele>65.581361</ele>
        <time>2022-08-03T10:42:27.000Z</time>
      </trkpt>
      <trkpt lat="49.35293" lon="-0.83726">
        <ele>65.595619</ele>
        <time>2022-08-03T10:42:28.000Z</time>
      </trkpt>
      <trkpt lat="49.35293" lon="-0.83731">
        <ele>65.611574</ele>
        <time>2022-08-03T10:42:29.000Z</time>
      </trkpt>
      <trkpt lat="49.35292" lon="-0.83737">
        <ele>65.628886</ele>
        <time>2022-08-03T10:42:30.000Z</time>
      </trkpt>
      <trkpt lat="49.35291" lon="-0.83741">
        <ele>65.639192</ele>
        <time>2022-08-03T10:42:31.000Z</time>
      </trkpt>
      <trkpt lat="49.35291" lon="-0.83745">
        <ele>65.650626</ele>
        <time>2022-08-03T10:42:32.000Z</time>
      </trkpt>
      <trkpt lat="49.35291" lon="-0.83749">
        <ele>65.663188</ele>
        <time>2022-08-03T10:42:33.000Z</time>
      </trkpt>
      <trkpt lat="49.35291" lon="-0.83752">
        <ele>65.671707</ele>
        <time>2022-08-03T10:42:34.000Z</time>
      </trkpt>
      <trkpt lat="49.3529" lon="-0.83755">
        <ele>65.680403</ele>
        <time>2022-08-03T10:42:35.000Z</time>
      </trkpt>
      <trkpt lat="49.3529" lon="-0.83759">
        <ele>65.689773</ele>
        <time>2022-08-03T10:42:36.000Z</time>
      </trkpt>
      <trkpt lat="49.3529" lon="-0.83761">
        <ele>65.697724</ele>
        <time>2022-08-03T10:42:37.000Z</time>
      </trkpt>
      <trkpt lat="49.3529" lon="-0.83765">
        <ele>65.707379</ele>
        <time>2022-08-03T10:42:38.000Z</time>
      </trkpt>
      <trkpt lat="49.3529" lon="-0.83769">
        <ele>65.71817</ele>
        <time>2022-08-03T10:42:39.000Z</time>
      </trkpt>
      <trkpt lat="49.3529" lon="-0.83773">
        <ele>65.729603</ele>
        <time>2022-08-03T10:42:40.000Z</time>
      </trkpt>
      <trkpt lat="49.35289" lon="-0.83777">
        <ele>65.74297</ele>
        <time>2022-08-03T10:42:41.000Z</time>
      </trkpt>
      <trkpt lat="49.35289" lon="-0.83782">
        <ele>65.756317</ele>
        <time>2022-08-03T10:42:42.000Z</time>
      </trkpt>
      <trkpt lat="49.35289" lon="-0.83786">
        <ele>65.768651</ele>
        <time>2022-08-03T10:42:43.000Z</time>
      </trkpt>
      <trkpt lat="49.35288" lon="-0.83791">
        <ele>65.782061</ele>
        <time>2022-08-03T10:42:44.000Z</time>
      </trkpt>
      <trkpt lat="49.35287" lon="-0.83796">
        <ele>65.796245</ele>
        <time>2022-08-03T10:42:45.000Z</time>
      </trkpt>
      <trkpt lat="49.35287" lon="-0.838">
        <ele>65.809142</ele>
        <time>2022-08-03T10:42:46.000Z</time>
      </trkpt>
      <trkpt lat="49.35286" lon="-0.83804">
        <ele>65.807552</ele>
        <time>2022-08-03T10:42:47.000Z</time>
      </trkpt>
      <trkpt lat="49.35286" lon="-0.83808">
        <ele>65.795868</ele>
        <time>2022-08-03T10:42:48.000Z</time>
      </trkpt>
      <trkpt lat="49.35285" lon="-0.83812">
        <ele>65.783674</ele>
        <time>2022-08-03T10:42:49.000Z</time>
      </trkpt>
      <trkpt lat="49.35285" lon="-0.83816">
        <ele>65.771773</ele>
        <time>2022-08-03T10:42:50.000Z</time>
      </trkpt>
      <trkpt lat="49.35285" lon="-0.8382">
        <ele>65.76136</ele>
        <time>2022-08-03T10:42:51.000Z</time>
      </trkpt>
      <trkpt lat="49.35285" lon="-0.83823">
        <ele>65.750352</ele>
        <time>2022-08-03T10:42:52.000Z</time>
      </trkpt>
      <trkpt lat="49.35285" lon="-0.83828">
        <ele>65.737268</ele>
        <time>2022-08-03T10:42:53.000Z</time>
      </trkpt>
      <trkpt lat="49.35284" lon="-0.83832">
        <ele>65.723684</ele>
        <time>2022-08-03T10:42:54.000Z</time>
      </trkpt>
      <trkpt lat="49.35283" lon="-0.83836">
        <ele>65.710309</ele>
        <time>2022-08-03T10:42:55.000Z</time>
      </trkpt>
      <trkpt lat="49.35283" lon="-0.83841">
        <ele>65.696851</ele>
        <time>2022-08-03T10:42:56.000Z</time>
      </trkpt>
      <trkpt lat="49.35282" lon="-0.83845">
        <ele>65.684516</ele>
        <time>2022-08-03T10:42:57.000Z</time>
      </trkpt>
      <trkpt lat="49.35282" lon="-0.8385">
        <ele>65.668218</ele>
        <time>2022-08-03T10:42:58.000Z</time>
      </trkpt>
      <trkpt lat="49.35281" lon="-0.83854">
        <ele>65.657162</ele>
        <time>2022-08-03T10:42:59.000Z</time>
      </trkpt>
      <trkpt lat="49.35281" lon="-0.83858">
        <ele>65.64365</ele>
        <time>2022-08-03T10:43:00.000Z</time>
      </trkpt>
      <trkpt lat="49.3528" lon="-0.83863">
        <ele>65.6294</ele>
        <time>2022-08-03T10:43:01.000Z</time>
      </trkpt>
      <trkpt lat="49.3528" lon="-0.83867">
        <ele>65.616904</ele>
        <time>2022-08-03T10:43:02.000Z</time>
      </trkpt>
      <trkpt lat="49.3528" lon="-0.83872">
        <ele>65.603218</ele>
        <time>2022-08-03T10:43:03.000Z</time>
      </trkpt>
      <trkpt lat="49.35279" lon="-0.83877">
        <ele>65.587657</ele>
        <time>2022-08-03T10:43:04.000Z</time>
      </trkpt>
      <trkpt lat="49.35279" lon="-0.83881">
        <ele>65.574494</ele>
        <time>2022-08-03T10:43:05.000Z</time>
      </trkpt>
      <trkpt lat="49.35279" lon="-0.83886">
        <ele>65.561106</ele>
        <time>2022-08-03T10:43:06.000Z</time>
      </trkpt>
      <trkpt lat="49.35278" lon="-0.83891">
        <ele>65.54422</ele>
        <time>2022-08-03T10:43:07.000Z</time>
      </trkpt>
      <trkpt lat="49.35277" lon="-0.83896">
        <ele>65.528659</ele>
        <time>2022-08-03T10:43:08.000Z</time>
      </trkpt>
      <trkpt lat="49.35277" lon="-0.83902">
        <ele>65.513127</ele>
        <time>2022-08-03T10:43:09.000Z</time>
      </trkpt>
      <trkpt lat="49.35277" lon="-0.83906">
        <ele>65.499144</ele>
        <time>2022-08-03T10:43:10.000Z</time>
      </trkpt>
      <trkpt lat="49.35277" lon="-0.83911">
        <ele>65.485389</ele>
        <time>2022-08-03T10:43:11.000Z</time>
      </trkpt>
      <trkpt lat="49.35276" lon="-0.83915">
        <ele>65.471524</ele>
        <time>2022-08-03T10:43:12.000Z</time>
      </trkpt>
      <trkpt lat="49.35275" lon="-0.8392">
        <ele>65.458066</ele>
        <time>2022-08-03T10:43:13.000Z</time>
      </trkpt>
      <trkpt lat="49.35275" lon="-0.83924">
        <ele>65.444982</ele>
        <time>2022-08-03T10:43:14.000Z</time>
      </trkpt>
      <trkpt lat="49.35274" lon="-0.83928">
        <ele>65.431678</ele>
        <time>2022-08-03T10:43:15.000Z</time>
      </trkpt>
      <trkpt lat="49.35273" lon="-0.83932">
        <ele>65.419465</ele>
        <time>2022-08-03T10:43:16.000Z</time>
      </trkpt>
      <trkpt lat="49.35273" lon="-0.83936">
        <ele>65.408893</ele>
        <time>2022-08-03T10:43:17.000Z</time>
      </trkpt>
      <trkpt lat="49.35272" lon="-0.83939">
        <ele>65.398795</ele>
        <time>2022-08-03T10:43:18.000Z</time>
      </trkpt>
      <trkpt lat="49.35271" lon="-0.83943">
        <ele>65.384649</ele>
        <time>2022-08-03T10:43:20.000Z</time>
      </trkpt>
      <trkpt lat="49.35269" lon="-0.83953">
        <ele>65.353246</ele>
        <time>2022-08-03T10:43:41.000Z</time>
      </trkpt>
      <trkpt lat="49.35267" lon="-0.83959">
        <ele>65.336117</ele>
        <time>2022-08-03T10:43:42.000Z</time>
      </trkpt>
      <trkpt lat="49.35265" lon="-0.83967">
        <ele>65.311341</ele>
        <time>2022-08-03T10:43:43.000Z</time>
      </trkpt>
      <trkpt lat="49.35263" lon="-0.83974">
        <ele>65.286565</ele>
        <time>2022-08-03T10:43:44.000Z</time>
      </trkpt>
      <trkpt lat="49.35261" lon="-0.83981">
        <ele>65.265337</ele>
        <time>2022-08-03T10:43:45.000Z</time>
      </trkpt>
      <trkpt lat="49.35259" lon="-0.83988">
        <ele>65.239473</ele>
        <time>2022-08-03T10:43:46.000Z</time>
      </trkpt>
      <trkpt lat="49.35255" lon="-0.83996">
        <ele>65.211542</ele>
        <time>2022-08-03T10:43:47.000Z</time>
      </trkpt>
      <trkpt lat="49.35252" lon="-0.84007">
        <ele>65.176502</ele>
        <time>2022-08-03T10:43:48.000Z</time>
      </trkpt>
      <trkpt lat="49.3525" lon="-0.84015">
        <ele>65.149012</ele>
        <time>2022-08-03T10:43:49.000Z</time>
      </trkpt>
      <trkpt lat="49.35248" lon="-0.84022">
        <ele>65.127642</ele>
        <time>2022-08-03T10:43:50.000Z</time>
      </trkpt>
      <trkpt lat="49.35246" lon="-0.84033">
        <ele>65.095792</ele>
        <time>2022-08-03T10:43:51.000Z</time>
      </trkpt>
      <trkpt lat="49.35245" lon="-0.84041">
        <ele>65.068609</ele>
        <time>2022-08-03T10:43:52.000Z</time>
      </trkpt>
      <trkpt lat="49.35243" lon="-0.8405">
        <ele>65.041139</ele>
        <time>2022-08-03T10:43:53.000Z</time>
      </trkpt>
      <trkpt lat="49.35242" lon="-0.84057">
        <ele>65.019527</ele>
        <time>2022-08-03T10:43:54.000Z</time>
      </trkpt>
      <trkpt lat="49.3524" lon="-0.84068">
        <ele>64.960952</ele>
        <time>2022-08-03T10:43:55.000Z</time>
      </trkpt>
      <trkpt lat="49.35239" lon="-0.84077">
        <ele>64.816345</ele>
        <time>2022-08-03T10:43:56.000Z</time>
      </trkpt>
      <trkpt lat="49.35237" lon="-0.84086">
        <ele>64.675016</ele>
        <time>2022-08-03T10:43:57.000Z</time>
      </trkpt>
      <trkpt lat="49.35237" lon="-0.84094">
        <ele>64.537045</ele>
        <time>2022-08-03T10:43:58.000Z</time>
      </trkpt>
      <trkpt lat="49.35235" lon="-0.84101">
        <ele>64.419375</ele>
        <time>2022-08-03T10:43:59.000Z</time>
      </trkpt>
      <trkpt lat="49.35233" lon="-0.84112">
        <ele>64.253214</ele>
        <time>2022-08-03T10:44:00.000Z</time>
      </trkpt>
      <trkpt lat="49.35231" lon="-0.84119">
        <ele>64.121924</ele>
        <time>2022-08-03T10:44:01.000Z</time>
      </trkpt>
      <trkpt lat="49.35229" lon="-0.84127">
        <ele>63.995885</ele>
        <time>2022-08-03T10:44:02.000Z</time>
      </trkpt>
      <trkpt lat="49.35227" lon="-0.84132">
        <ele>63.896128</ele>
        <time>2022-08-03T10:44:03.000Z</time>
      </trkpt>
      <trkpt lat="49.35223" lon="-0.84139">
        <ele>63.751615</ele>
        <time>2022-08-03T10:44:04.000Z</time>
      </trkpt>
      <trkpt lat="49.35218" lon="-0.84143">
        <ele>63.622471</ele>
        <time>2022-08-03T10:44:05.000Z</time>
      </trkpt>
      <trkpt lat="49.35215" lon="-0.84145">
        <ele>63.537514</ele>
        <time>2022-08-03T10:44:06.000Z</time>
      </trkpt>
      <trkpt lat="49.35209" lon="-0.84149">
        <ele>63.395331</ele>
        <time>2022-08-03T10:44:07.000Z</time>
      </trkpt>
      <trkpt lat="49.35206" lon="-0.84152">
        <ele>63.305176</ele>
        <time>2022-08-03T10:44:08.000Z</time>
      </trkpt>
      <trkpt lat="49.35203" lon="-0.84155">
        <ele>63.202102</ele>
        <time>2022-08-03T10:44:09.000Z</time>
      </trkpt>
      <trkpt lat="49.35199" lon="-0.8416">
        <ele>63.08573</ele>
        <time>2022-08-03T10:44:10.000Z</time>
      </trkpt>
      <trkpt lat="49.35195" lon="-0.84164">
        <ele>62.974947</ele>
        <time>2022-08-03T10:44:11.000Z</time>
      </trkpt>
      <trkpt lat="49.35193" lon="-0.8417">
        <ele>62.865959</ele>
        <time>2022-08-03T10:44:12.000Z</time>
      </trkpt>
      <trkpt lat="49.3519" lon="-0.84176">
        <ele>62.747796</ele>
        <time>2022-08-03T10:44:13.000Z</time>
      </trkpt>
      <trkpt lat="49.35188" lon="-0.84183">
        <ele>62.638028</ele>
        <time>2022-08-03T10:44:14.000Z</time>
      </trkpt>
      <trkpt lat="49.35186" lon="-0.84189">
        <ele>62.526441</ele>
        <time>2022-08-03T10:44:15.000Z</time>
      </trkpt>
      <trkpt lat="49.35185" lon="-0.84195">
        <ele>62.430006</ele>
        <time>2022-08-03T10:44:16.000Z</time>
      </trkpt>
      <trkpt lat="49.35184" lon="-0.84201">
        <ele>62.327991</ele>
        <time>2022-08-03T10:44:17.000Z</time>
      </trkpt>
      <trkpt lat="49.35183" lon="-0.84207">
        <ele>62.230988</ele>
        <time>2022-08-03T10:44:18.000Z</time>
      </trkpt>
      <trkpt lat="49.35182" lon="-0.84213">
        <ele>62.137603</ele>
        <time>2022-08-03T10:44:19.000Z</time>
      </trkpt>
      <trkpt lat="49.35181" lon="-0.84219">
        <ele>62.045214</ele>
        <time>2022-08-03T10:44:20.000Z</time>
      </trkpt>
      <trkpt lat="49.3518" lon="-0.84225">
        <ele>61.953352</ele>
        <time>2022-08-03T10:44:21.000Z</time>
      </trkpt>
      <trkpt lat="49.3518" lon="-0.8423">
        <ele>61.865579</ele>
        <time>2022-08-03T10:44:22.000Z</time>
      </trkpt>
      <trkpt lat="49.35179" lon="-0.84234">
        <ele>61.796702</ele>
        <time>2022-08-03T10:44:23.000Z</time>
      </trkpt>
      <trkpt lat="49.35178" lon="-0.8424">
        <ele>61.701215</ele>
        <time>2022-08-03T10:44:24.000Z</time>
      </trkpt>
      <trkpt lat="49.35178" lon="-0.84244">
        <ele>61.638151</ele>
        <time>2022-08-03T10:44:25.000Z</time>
      </trkpt>
      <trkpt lat="49.35177" lon="-0.84249">
        <ele>61.559506</ele>
        <time>2022-08-03T10:44:26.000Z</time>
      </trkpt>
      <trkpt lat="49.35178" lon="-0.84254">
        <ele>61.48398</ele>
        <time>2022-08-03T10:44:27.000Z</time>
      </trkpt>
      <trkpt lat="49.35177" lon="-0.8426">
        <ele>61.397535</ele>
        <time>2022-08-03T10:44:28.000Z</time>
      </trkpt>
      <trkpt lat="49.35177" lon="-0.84266">
        <ele>61.300426</ele>
        <time>2022-08-03T10:44:29.000Z</time>
      </trkpt>
      <trkpt lat="49.35177" lon="-0.84272">
        <ele>61.209583</ele>
        <time>2022-08-03T10:44:30.000Z</time>
      </trkpt>
      <trkpt lat="49.35177" lon="-0.84277">
        <ele>61.120015</ele>
        <time>2022-08-03T10:44:31.000Z</time>
      </trkpt>
      <trkpt lat="49.35177" lon="-0.84283">
        <ele>61.024473</ele>
        <time>2022-08-03T10:44:32.000Z</time>
      </trkpt>
      <trkpt lat="49.35177" lon="-0.84289">
        <ele>60.932063</ele>
        <time>2022-08-03T10:44:33.000Z</time>
      </trkpt>
      <trkpt lat="49.35177" lon="-0.84295">
        <ele>60.838088</ele>
        <time>2022-08-03T10:44:34.000Z</time>
      </trkpt>
      <trkpt lat="49.35177" lon="-0.84301">
        <ele>60.750377</ele>
        <time>2022-08-03T10:44:35.000Z</time>
      </trkpt>
      <trkpt lat="49.35178" lon="-0.84306">
        <ele>60.670746</ele>
        <time>2022-08-03T10:44:36.000Z</time>
      </trkpt>
      <trkpt lat="49.35178" lon="-0.84312">
        <ele>60.282086</ele>
        <time>2022-08-03T10:44:37.000Z</time>
      </trkpt>
      <trkpt lat="49.35178" lon="-0.84317">
        <ele>59.934266</ele>
        <time>2022-08-03T10:44:38.000Z</time>
      </trkpt>
      <trkpt lat="49.35179" lon="-0.84322">
        <ele>59.546073</ele>
        <time>2022-08-03T10:44:39.000Z</time>
      </trkpt>
      <trkpt lat="49.35179" lon="-0.84328">
        <ele>59.143038</ele>
        <time>2022-08-03T10:44:40.000Z</time>
      </trkpt>
      <trkpt lat="49.35179" lon="-0.84334">
        <ele>58.713559</ele>
        <time>2022-08-03T10:44:41.000Z</time>
      </trkpt>
      <trkpt lat="49.35179" lon="-0.8434">
        <ele>58.28408</ele>
        <time>2022-08-03T10:44:42.000Z</time>
      </trkpt>
      <trkpt lat="49.35179" lon="-0.84346">
        <ele>57.88231</ele>
        <time>2022-08-03T10:44:43.000Z</time>
      </trkpt>
      <trkpt lat="49.35179" lon="-0.84352">
        <ele>57.466685</ele>
        <time>2022-08-03T10:44:44.000Z</time>
      </trkpt>
      <trkpt lat="49.35179" lon="-0.84358">
        <ele>57.030279</ele>
        <time>2022-08-03T10:44:45.000Z</time>
      </trkpt>
      <trkpt lat="49.35179" lon="-0.84364">
        <ele>56.614654</ele>
        <time>2022-08-03T10:44:46.000Z</time>
      </trkpt>
      <trkpt lat="49.3518" lon="-0.84371">
        <ele>56.12871</ele>
        <time>2022-08-03T10:44:47.000Z</time>
      </trkpt>
      <trkpt lat="49.3518" lon="-0.84376">
        <ele>55.837773</ele>
        <time>2022-08-03T10:44:48.000Z</time>
      </trkpt>
      <trkpt lat="49.3518" lon="-0.84381">
        <ele>55.469254</ele>
        <time>2022-08-03T10:44:49.000Z</time>
      </trkpt>
      <trkpt lat="49.3518" lon="-0.84387">
        <ele>55.058349</ele>
        <time>2022-08-03T10:44:50.000Z</time>
      </trkpt>
      <trkpt lat="49.3518" lon="-0.84393">
        <ele>54.640554</ele>
        <time>2022-08-03T10:44:51.000Z</time>
      </trkpt>
      <trkpt lat="49.3518" lon="-0.84398">
        <ele>54.250312</ele>
        <time>2022-08-03T10:44:52.000Z</time>
      </trkpt>
      <trkpt lat="49.3518" lon="-0.84404">
        <ele>53.869323</ele>
        <time>2022-08-03T10:44:53.000Z</time>
      </trkpt>
      <trkpt lat="49.35181" lon="-0.84409">
        <ele>53.483028</ele>
        <time>2022-08-03T10:44:54.000Z</time>
      </trkpt>
      <trkpt lat="49.35181" lon="-0.84415">
        <ele>53.067403</ele>
        <time>2022-08-03T10:44:55.000Z</time>
      </trkpt>
      <trkpt lat="49.3518" lon="-0.84421">
        <ele>52.64691</ele>
        <time>2022-08-03T10:44:56.000Z</time>
      </trkpt>
      <trkpt lat="49.3518" lon="-0.84428">
        <ele>52.203577</ele>
        <time>2022-08-03T10:44:57.000Z</time>
      </trkpt>
      <trkpt lat="49.35181" lon="-0.84435">
        <ele>51.709327</ele>
        <time>2022-08-03T10:44:58.000Z</time>
      </trkpt>
      <trkpt lat="49.35182" lon="-0.84441">
        <ele>51.280314</ele>
        <time>2022-08-03T10:44:59.000Z</time>
      </trkpt>
      <trkpt lat="49.35184" lon="-0.84447">
        <ele>50.844003</ele>
        <time>2022-08-03T10:45:00.000Z</time>
      </trkpt>
      <trkpt lat="49.35186" lon="-0.84453">
        <ele>50.318065</ele>
        <time>2022-08-03T10:45:01.000Z</time>
      </trkpt>
      <trkpt lat="49.35187" lon="-0.84458">
        <ele>49.945142</ele>
        <time>2022-08-03T10:45:02.000Z</time>
      </trkpt>
      <trkpt lat="49.3519" lon="-0.84465">
        <ele>49.422662</ele>
        <time>2022-08-03T10:45:03.000Z</time>
      </trkpt>
      <trkpt lat="49.35194" lon="-0.84471">
        <ele>48.796829</ele>
        <time>2022-08-03T10:45:04.000Z</time>
      </trkpt>
      <trkpt lat="49.35202" lon="-0.84476">
        <ele>47.942555</ele>
        <time>2022-08-03T10:45:05.000Z</time>
      </trkpt>
      <trkpt lat="49.35208" lon="-0.8448">
        <ele>47.199655</ele>
        <time>2022-08-03T10:45:06.000Z</time>
      </trkpt>
      <trkpt lat="49.35214" lon="-0.84485">
        <ele>46.495658</ele>
        <time>2022-08-03T10:45:07.000Z</time>
      </trkpt>
      <trkpt lat="49.35219" lon="-0.84491">
        <ele>45.786335</ele>
        <time>2022-08-03T10:45:08.000Z</time>
      </trkpt>
      <trkpt lat="49.35223" lon="-0.845">
        <ele>45.059244</ele>
        <time>2022-08-03T10:45:09.000Z</time>
      </trkpt>
      <trkpt lat="49.35228" lon="-0.84507">
        <ele>44.38778</ele>
        <time>2022-08-03T10:45:10.000Z</time>
      </trkpt>
      <trkpt lat="49.35232" lon="-0.84512">
        <ele>43.742462</ele>
        <time>2022-08-03T10:45:11.000Z</time>
      </trkpt>
      <trkpt lat="49.35235" lon="-0.84519">
        <ele>43.179456</ele>
        <time>2022-08-03T10:45:12.000Z</time>
      </trkpt>
      <trkpt lat="49.35239" lon="-0.84526">
        <ele>42.579124</ele>
        <time>2022-08-03T10:45:13.000Z</time>
      </trkpt>
      <trkpt lat="49.35242" lon="-0.84531">
        <ele>42.088971</ele>
        <time>2022-08-03T10:45:14.000Z</time>
      </trkpt>
      <trkpt lat="49.35245" lon="-0.84535">
        <ele>41.674394</ele>
        <time>2022-08-03T10:45:15.000Z</time>
      </trkpt>
      <trkpt lat="49.35246" lon="-0.84538">
        <ele>41.478391</ele>
        <time>2022-08-03T10:45:16.000Z</time>
      </trkpt>
      <trkpt lat="49.35247" lon="-0.84541">
        <ele>41.391539</ele>
        <time>2022-08-03T10:45:17.000Z</time>
      </trkpt>
      <trkpt lat="49.35248" lon="-0.84544">
        <ele>41.306726</ele>
        <time>2022-08-03T10:45:19.000Z</time>
      </trkpt>
      <trkpt lat="49.35257" lon="-0.84552">
        <ele>40.884523</ele>
        <time>2022-08-03T10:45:31.000Z</time>
      </trkpt>
      <trkpt lat="49.3526" lon="-0.84555">
        <ele>40.726166</ele>
        <time>2022-08-03T10:45:32.000Z</time>
      </trkpt>
      <trkpt lat="49.35263" lon="-0.84559">
        <ele>40.549017</ele>
        <time>2022-08-03T10:45:33.000Z</time>
      </trkpt>
      <trkpt lat="49.35265" lon="-0.84562">
        <ele>40.411055</ele>
        <time>2022-08-03T10:45:34.000Z</time>
      </trkpt>
      <trkpt lat="49.35269" lon="-0.84566">
        <ele>40.202515</ele>
        <time>2022-08-03T10:45:35.000Z</time>
      </trkpt>
      <trkpt lat="49.35274" lon="-0.8457">
        <ele>39.999975</ele>
        <time>2022-08-03T10:45:36.000Z</time>
      </trkpt>
      <trkpt lat="49.35278" lon="-0.84572">
        <ele>39.791534</ele>
        <time>2022-08-03T10:45:37.000Z</time>
      </trkpt>
      <trkpt lat="49.35283" lon="-0.84576">
        <ele>39.57498</ele>
        <time>2022-08-03T10:45:38.000Z</time>
      </trkpt>
      <trkpt lat="49.35286" lon="-0.84578">
        <ele>39.397505</ele>
        <time>2022-08-03T10:45:39.000Z</time>
      </trkpt>
      <trkpt lat="49.35289" lon="-0.84581">
        <ele>39.254728</ele>
        <time>2022-08-03T10:45:40.000Z</time>
      </trkpt>
      <trkpt lat="49.35294" lon="-0.84581">
        <ele>39.048503</ele>
        <time>2022-08-03T10:45:41.000Z</time>
      </trkpt>
      <trkpt lat="49.35297" lon="-0.84581">
        <ele>38.923729</ele>
        <time>2022-08-03T10:45:42.000Z</time>
      </trkpt>
      <trkpt lat="49.35301" lon="-0.84581">
        <ele>38.760387</ele>
        <time>2022-08-03T10:45:43.000Z</time>
      </trkpt>
      <trkpt lat="49.35303" lon="-0.8458">
        <ele>38.64846</ele>
        <time>2022-08-03T10:45:44.000Z</time>
      </trkpt>
      <trkpt lat="49.35308" lon="-0.8458">
        <ele>38.442386</ele>
        <time>2022-08-03T10:45:45.000Z</time>
      </trkpt>
      <trkpt lat="49.35311" lon="-0.84581">
        <ele>38.321377</ele>
        <time>2022-08-03T10:45:46.000Z</time>
      </trkpt>
      <trkpt lat="49.35315" lon="-0.84581">
        <ele>38.140733</ele>
        <time>2022-08-03T10:45:47.000Z</time>
      </trkpt>
      <trkpt lat="49.35319" lon="-0.84581">
        <ele>37.977511</ele>
        <time>2022-08-03T10:45:48.000Z</time>
      </trkpt>
      <trkpt lat="49.35323" lon="-0.84581">
        <ele>37.822869</ele>
        <time>2022-08-03T10:45:49.000Z</time>
      </trkpt>
      <trkpt lat="49.35326" lon="-0.84582">
        <ele>37.659144</ele>
        <time>2022-08-03T10:45:50.000Z</time>
      </trkpt>
      <trkpt lat="49.3533" lon="-0.84582">
        <ele>37.508792</ele>
        <time>2022-08-03T10:45:51.000Z</time>
      </trkpt>
      <trkpt lat="49.35334" lon="-0.84582">
        <ele>37.3283</ele>
        <time>2022-08-03T10:45:52.000Z</time>
      </trkpt>
      <trkpt lat="49.35338" lon="-0.84584">
        <ele>37.168935</ele>
        <time>2022-08-03T10:45:53.000Z</time>
      </trkpt>
      <trkpt lat="49.35342" lon="-0.84584">
        <ele>36.975031</ele>
        <time>2022-08-03T10:45:54.000Z</time>
      </trkpt>
      <trkpt lat="49.35346" lon="-0.84584">
        <ele>36.799004</ele>
        <time>2022-08-03T10:45:55.000Z</time>
      </trkpt>
      <trkpt lat="49.3535" lon="-0.84585">
        <ele>36.642853</ele>
        <time>2022-08-03T10:45:56.000Z</time>
      </trkpt>
      <trkpt lat="49.35353" lon="-0.84586">
        <ele>36.504773</ele>
        <time>2022-08-03T10:45:57.000Z</time>
      </trkpt>
      <trkpt lat="49.35357" lon="-0.84587">
        <ele>36.336341</ele>
        <time>2022-08-03T10:45:58.000Z</time>
      </trkpt>
      <trkpt lat="49.35361" lon="-0.84589">
        <ele>36.151229</ele>
        <time>2022-08-03T10:45:59.000Z</time>
      </trkpt>
      <trkpt lat="49.35365" lon="-0.84589">
        <ele>35.961025</ele>
        <time>2022-08-03T10:46:00.000Z</time>
      </trkpt>
      <trkpt lat="49.35369" lon="-0.84591">
        <ele>35.817395</ele>
        <time>2022-08-03T10:46:01.000Z</time>
      </trkpt>
      <trkpt lat="49.35373" lon="-0.84593">
        <ele>35.626891</ele>
        <time>2022-08-03T10:46:02.000Z</time>
      </trkpt>
      <trkpt lat="49.35377" lon="-0.84595">
        <ele>35.454444</ele>
        <time>2022-08-03T10:46:03.000Z</time>
      </trkpt>
      <trkpt lat="49.35381" lon="-0.84597">
        <ele>35.242331</ele>
        <time>2022-08-03T10:46:04.000Z</time>
      </trkpt>
      <trkpt lat="49.35385" lon="-0.846">
        <ele>35.081373</ele>
        <time>2022-08-03T10:46:05.000Z</time>
      </trkpt>
      <trkpt lat="49.35388" lon="-0.84602">
        <ele>34.933055</ele>
        <time>2022-08-03T10:46:06.000Z</time>
      </trkpt>
      <trkpt lat="49.35392" lon="-0.84605">
        <ele>34.722451</ele>
        <time>2022-08-03T10:46:07.000Z</time>
      </trkpt>
      <trkpt lat="49.35397" lon="-0.84607">
        <ele>34.531947</ele>
        <time>2022-08-03T10:46:08.000Z</time>
      </trkpt>
      <trkpt lat="49.35401" lon="-0.84609">
        <ele>34.319835</ele>
        <time>2022-08-03T10:46:09.000Z</time>
      </trkpt>
      <trkpt lat="49.35405" lon="-0.8461">
        <ele>34.151402</ele>
        <time>2022-08-03T10:46:10.000Z</time>
      </trkpt>
      <trkpt lat="49.35409" lon="-0.84613">
        <ele>33.955935</ele>
        <time>2022-08-03T10:46:11.000Z</time>
      </trkpt>
      <trkpt lat="49.35416" lon="-0.84616">
        <ele>33.72065</ele>
        <time>2022-08-03T10:46:12.000Z</time>
      </trkpt>
      <trkpt lat="49.35421" lon="-0.84619">
        <ele>33.56305</ele>
        <time>2022-08-03T10:46:13.000Z</time>
      </trkpt>
      <trkpt lat="49.35426" lon="-0.8462">
        <ele>33.425803</ele>
        <time>2022-08-03T10:46:14.000Z</time>
      </trkpt>
      <trkpt lat="49.35431" lon="-0.84623">
        <ele>33.26699</ele>
        <time>2022-08-03T10:46:15.000Z</time>
      </trkpt>
      <trkpt lat="49.35436" lon="-0.84625">
        <ele>33.128015</ele>
        <time>2022-08-03T10:46:16.000Z</time>
      </trkpt>
      <trkpt lat="49.35441" lon="-0.84627">
        <ele>32.980934</ele>
        <time>2022-08-03T10:46:17.000Z</time>
      </trkpt>
      <trkpt lat="49.35446" lon="-0.84629">
        <ele>32.850031</ele>
        <time>2022-08-03T10:46:18.000Z</time>
      </trkpt>
      <trkpt lat="49.35449" lon="-0.8463">
        <ele>32.749412</ele>
        <time>2022-08-03T10:46:19.000Z</time>
      </trkpt>
      <trkpt lat="49.35453" lon="-0.84631">
        <ele>32.631641</ele>
        <time>2022-08-03T10:46:20.000Z</time>
      </trkpt>
      <trkpt lat="49.35457" lon="-0.84633">
        <ele>32.519299</ele>
        <time>2022-08-03T10:46:21.000Z</time>
      </trkpt>
      <trkpt lat="49.35462" lon="-0.84634">
        <ele>32.382778</ele>
        <time>2022-08-03T10:46:22.000Z</time>
      </trkpt>
      <trkpt lat="49.35466" lon="-0.84635">
        <ele>32.283902</ele>
        <time>2022-08-03T10:46:23.000Z</time>
      </trkpt>
      <trkpt lat="49.3547" lon="-0.84636">
        <ele>32.16453</ele>
        <time>2022-08-03T10:46:24.000Z</time>
      </trkpt>
      <trkpt lat="49.35474" lon="-0.84639">
        <ele>32.042558</ele>
        <time>2022-08-03T10:46:25.000Z</time>
      </trkpt>
      <trkpt lat="49.35477" lon="-0.84641">
        <ele>31.952172</ele>
        <time>2022-08-03T10:46:26.000Z</time>
      </trkpt>
      <trkpt lat="49.3548" lon="-0.84643">
        <ele>31.864768</ele>
        <time>2022-08-03T10:46:27.000Z</time>
      </trkpt>
      <trkpt lat="49.35483" lon="-0.84645">
        <ele>31.760416</ele>
        <time>2022-08-03T10:46:28.000Z</time>
      </trkpt>
      <trkpt lat="49.35487" lon="-0.84647">
        <ele>31.648169</ele>
        <time>2022-08-03T10:46:29.000Z</time>
      </trkpt>
      <trkpt lat="49.35491" lon="-0.84649">
        <ele>31.533275</ele>
        <time>2022-08-03T10:46:30.000Z</time>
      </trkpt>
      <trkpt lat="49.35495" lon="-0.84651">
        <ele>31.398274</ele>
        <time>2022-08-03T10:46:31.000Z</time>
      </trkpt>
      <trkpt lat="49.35499" lon="-0.84653">
        <ele>31.293921</ele>
        <time>2022-08-03T10:46:32.000Z</time>
      </trkpt>
      <trkpt lat="49.35501" lon="-0.84655">
        <ele>31.220168</ele>
        <time>2022-08-03T10:46:33.000Z</time>
      </trkpt>
      <trkpt lat="49.35506" lon="-0.84657">
        <ele>31.092937</ele>
        <time>2022-08-03T10:46:34.000Z</time>
      </trkpt>
      <trkpt lat="49.35509" lon="-0.84659">
        <ele>30.980087</ele>
        <time>2022-08-03T10:46:35.000Z</time>
      </trkpt>
      <trkpt lat="49.35512" lon="-0.84661">
        <ele>30.894579</ele>
        <time>2022-08-03T10:46:36.000Z</time>
      </trkpt>
      <trkpt lat="49.35516" lon="-0.84663">
        <ele>30.796608</ele>
        <time>2022-08-03T10:46:37.000Z</time>
      </trkpt>
      <trkpt lat="49.35519" lon="-0.84665">
        <ele>30.67987</ele>
        <time>2022-08-03T10:46:38.000Z</time>
      </trkpt>
      <trkpt lat="49.35522" lon="-0.84668">
        <ele>30.591207</ele>
        <time>2022-08-03T10:46:39.000Z</time>
      </trkpt>
      <trkpt lat="49.35525" lon="-0.84671">
        <ele>30.486439</ele>
        <time>2022-08-03T10:46:40.000Z</time>
      </trkpt>
      <trkpt lat="49.35529" lon="-0.84674">
        <ele>30.370341</ele>
        <time>2022-08-03T10:46:41.000Z</time>
      </trkpt>
      <trkpt lat="49.35532" lon="-0.84675">
        <ele>30.286207</ele>
        <time>2022-08-03T10:46:42.000Z</time>
      </trkpt>
      <trkpt lat="49.35536" lon="-0.84677">
        <ele>30.172414</ele>
        <time>2022-08-03T10:46:43.000Z</time>
      </trkpt>
      <trkpt lat="49.3554" lon="-0.8468">
        <ele>30.035331</ele>
        <time>2022-08-03T10:46:44.000Z</time>
      </trkpt>
      <trkpt lat="49.35543" lon="-0.84683">
        <ele>29.949922</ele>
        <time>2022-08-03T10:46:45.000Z</time>
      </trkpt>
      <trkpt lat="49.35546" lon="-0.84685">
        <ele>29.856084</ele>
        <time>2022-08-03T10:46:46.000Z</time>
      </trkpt>
      <trkpt lat="49.35549" lon="-0.84687">
        <ele>29.759544</ele>
        <time>2022-08-03T10:46:47.000Z</time>
      </trkpt>
      <trkpt lat="49.35551" lon="-0.84689">
        <ele>29.68058</ele>
        <time>2022-08-03T10:46:48.000Z</time>
      </trkpt>
      <trkpt lat="49.35554" lon="-0.84691">
        <ele>29.596446</ele>
        <time>2022-08-03T10:46:49.000Z</time>
      </trkpt>
      <trkpt lat="49.35557" lon="-0.84693">
        <ele>29.516751</ele>
        <time>2022-08-03T10:46:50.000Z</time>
      </trkpt>
      <trkpt lat="49.35559" lon="-0.84694">
        <ele>29.451514</ele>
        <time>2022-08-03T10:46:51.000Z</time>
      </trkpt>
      <trkpt lat="49.35563" lon="-0.84695">
        <ele>29.347283</ele>
        <time>2022-08-03T10:46:52.000Z</time>
      </trkpt>
      <trkpt lat="49.35566" lon="-0.84697">
        <ele>29.237182</ele>
        <time>2022-08-03T10:46:53.000Z</time>
      </trkpt>
      <trkpt lat="49.35571" lon="-0.84698">
        <ele>29.116691</ele>
        <time>2022-08-03T10:46:54.000Z</time>
      </trkpt>
      <trkpt lat="49.35575" lon="-0.847">
        <ele>28.979818</ele>
        <time>2022-08-03T10:46:55.000Z</time>
      </trkpt>
      <trkpt lat="49.35579" lon="-0.84701">
        <ele>28.887775</ele>
        <time>2022-08-03T10:46:56.000Z</time>
      </trkpt>
      <trkpt lat="49.35583" lon="-0.84702">
        <ele>28.745562</ele>
        <time>2022-08-03T10:46:57.000Z</time>
      </trkpt>
      <trkpt lat="49.35586" lon="-0.84702">
        <ele>28.55044</ele>
        <time>2022-08-03T10:46:58.000Z</time>
      </trkpt>
      <trkpt lat="49.3559" lon="-0.84702">
        <ele>28.276051</ele>
        <time>2022-08-03T10:46:59.000Z</time>
      </trkpt>
      <trkpt lat="49.35595" lon="-0.84702">
        <ele>28.019677</ele>
        <time>2022-08-03T10:47:00.000Z</time>
      </trkpt>
      <trkpt lat="49.35598" lon="-0.84701">
        <ele>27.80593</ele>
        <time>2022-08-03T10:47:01.000Z</time>
      </trkpt>
      <trkpt lat="49.35603" lon="-0.84701">
        <ele>27.494956</ele>
        <time>2022-08-03T10:47:02.000Z</time>
      </trkpt>
      <trkpt lat="49.35607" lon="-0.84701">
        <ele>27.281505</ele>
        <time>2022-08-03T10:47:03.000Z</time>
      </trkpt>
      <trkpt lat="49.35611" lon="-0.84701">
        <ele>27.0437</ele>
        <time>2022-08-03T10:47:04.000Z</time>
      </trkpt>
      <trkpt lat="49.35615" lon="-0.84701">
        <ele>26.793701</ele>
        <time>2022-08-03T10:47:05.000Z</time>
      </trkpt>
      <trkpt lat="49.35619" lon="-0.84702">
        <ele>26.555069</ele>
        <time>2022-08-03T10:47:06.000Z</time>
      </trkpt>
      <trkpt lat="49.35622" lon="-0.84702">
        <ele>26.359786</ele>
        <time>2022-08-03T10:47:07.000Z</time>
      </trkpt>
      <trkpt lat="49.35625" lon="-0.84702">
        <ele>26.163656</ele>
        <time>2022-08-03T10:47:08.000Z</time>
      </trkpt>
      <trkpt lat="49.35629" lon="-0.84702">
        <ele>25.950094</ele>
        <time>2022-08-03T10:47:09.000Z</time>
      </trkpt>
      <trkpt lat="49.35631" lon="-0.84702">
        <ele>25.797656</ele>
        <time>2022-08-03T10:47:10.000Z</time>
      </trkpt>
      <trkpt lat="49.35634" lon="-0.84702">
        <ele>25.602373</ele>
        <time>2022-08-03T10:47:11.000Z</time>
      </trkpt>
      <trkpt lat="49.35637" lon="-0.84701">
        <ele>25.443389</ele>
        <time>2022-08-03T10:47:12.000Z</time>
      </trkpt>
      <trkpt lat="49.3564" lon="-0.847">
        <ele>25.244267</ele>
        <time>2022-08-03T10:47:13.000Z</time>
      </trkpt>
      <trkpt lat="49.35643" lon="-0.84699">
        <ele>25.063861</ele>
        <time>2022-08-03T10:47:15.000Z</time>
      </trkpt>
      <trkpt lat="49.35645" lon="-0.84699">
        <ele>24.94373</ele>
        <time>2022-08-03T10:47:17.000Z</time>
      </trkpt>
      <trkpt lat="49.35648" lon="-0.84699">
        <ele>24.730316</ele>
        <time>2022-08-03T10:47:19.000Z</time>
      </trkpt>
      <trkpt lat="49.35652" lon="-0.84698">
        <ele>24.535033</ele>
        <time>2022-08-03T10:47:20.000Z</time>
      </trkpt>
      <trkpt lat="49.35655" lon="-0.84698">
        <ele>24.297228</ele>
        <time>2022-08-03T10:47:21.000Z</time>
      </trkpt>
      <trkpt lat="49.3566" lon="-0.84698">
        <ele>24.046096</ele>
        <time>2022-08-03T10:47:22.000Z</time>
      </trkpt>
      <trkpt lat="49.35663" lon="-0.84696">
        <ele>23.800943</ele>
        <time>2022-08-03T10:47:23.000Z</time>
      </trkpt>
      <trkpt lat="49.35667" lon="-0.84693">
        <ele>23.556521</ele>
        <time>2022-08-03T10:47:24.000Z</time>
      </trkpt>
      <trkpt lat="49.35671" lon="-0.8469">
        <ele>23.24893</ele>
        <time>2022-08-03T10:47:25.000Z</time>
      </trkpt>
      <trkpt lat="49.35675" lon="-0.84686">
        <ele>22.978724</ele>
        <time>2022-08-03T10:47:26.000Z</time>
      </trkpt>
      <trkpt lat="49.35678" lon="-0.84683">
        <ele>22.734457</ele>
        <time>2022-08-03T10:47:27.000Z</time>
      </trkpt>
      <trkpt lat="49.35682" lon="-0.84678">
        <ele>22.477752</ele>
        <time>2022-08-03T10:47:28.000Z</time>
      </trkpt>
      <trkpt lat="49.35684" lon="-0.84676">
        <ele>22.330218</ele>
        <time>2022-08-03T10:47:29.000Z</time>
      </trkpt>
      <trkpt lat="49.35686" lon="-0.84674">
        <ele>22.139485</ele>
        <time>2022-08-03T10:47:30.000Z</time>
      </trkpt>
      <trkpt lat="49.3569" lon="-0.84674">
        <ele>21.906116</ele>
        <time>2022-08-03T10:47:31.000Z</time>
      </trkpt>
      <trkpt lat="49.35694" lon="-0.84674">
        <ele>21.686281</ele>
        <time>2022-08-03T10:47:32.000Z</time>
      </trkpt>
      <trkpt lat="49.35697" lon="-0.84675">
        <ele>21.513301</ele>
        <time>2022-08-03T10:47:33.000Z</time>
      </trkpt>
      <trkpt lat="49.357" lon="-0.84676">
        <ele>21.332067</ele>
        <time>2022-08-03T10:47:34.000Z</time>
      </trkpt>
      <trkpt lat="49.35702" lon="-0.84677">
        <ele>21.159753</ele>
        <time>2022-08-03T10:47:35.000Z</time>
      </trkpt>
      <trkpt lat="49.35704" lon="-0.84679">
        <ele>21.003854</ele>
        <time>2022-08-03T10:47:36.000Z</time>
      </trkpt>
      <trkpt lat="49.35707" lon="-0.84682">
        <ele>20.819831</ele>
        <time>2022-08-03T10:47:38.000Z</time>
      </trkpt>
      <trkpt lat="49.3571" lon="-0.84686">
        <ele>20.584778</ele>
        <time>2022-08-03T10:47:40.000Z</time>
      </trkpt>
      <trkpt lat="49.35712" lon="-0.84687">
        <ele>20.459505</ele>
        <time>2022-08-03T10:47:41.000Z</time>
      </trkpt>
      <trkpt lat="49.35714" lon="-0.84687">
        <ele>20.343651</ele>
        <time>2022-08-03T10:47:42.000Z</time>
      </trkpt>
      <trkpt lat="49.35716" lon="-0.84685">
        <ele>20.198438</ele>
        <time>2022-08-03T10:47:43.000Z</time>
      </trkpt>
      <trkpt lat="49.35718" lon="-0.84683">
        <ele>20.026605</ele>
        <time>2022-08-03T10:47:44.000Z</time>
      </trkpt>
      <trkpt lat="49.3572" lon="-0.8468">
        <ele>19.839062</ele>
        <time>2022-08-03T10:47:45.000Z</time>
      </trkpt>
      <trkpt lat="49.35722" lon="-0.84676">
        <ele>19.642441</ele>
        <time>2022-08-03T10:47:46.000Z</time>
      </trkpt>
      <trkpt lat="49.35724" lon="-0.84673">
        <ele>19.505877</ele>
        <time>2022-08-03T10:47:47.000Z</time>
      </trkpt>
      <trkpt lat="49.35725" lon="-0.84669">
        <ele>19.357715</ele>
        <time>2022-08-03T10:47:48.000Z</time>
      </trkpt>
      <trkpt lat="49.35726" lon="-0.84667">
        <ele>19.218515</ele>
        <time>2022-08-03T10:47:49.000Z</time>
      </trkpt>
      <trkpt lat="49.35728" lon="-0.84665">
        <ele>19.090163</ele>
        <time>2022-08-03T10:47:50.000Z</time>
      </trkpt>
      <trkpt lat="49.3573" lon="-0.84661">
        <ele>18.882239</ele>
        <time>2022-08-03T10:47:52.000Z</time>
      </trkpt>
      <trkpt lat="49.35731" lon="-0.84658">
        <ele>18.755188</ele>
        <time>2022-08-03T10:47:53.000Z</time>
      </trkpt>
      <trkpt lat="49.35733" lon="-0.84655">
        <ele>18.588599</ele>
        <time>2022-08-03T10:47:54.000Z</time>
      </trkpt>
      <trkpt lat="49.35734" lon="-0.84651">
        <ele>18.425827</ele>
        <time>2022-08-03T10:47:55.000Z</time>
      </trkpt>
      <trkpt lat="49.35735" lon="-0.84647">
        <ele>18.232585</ele>
        <time>2022-08-03T10:47:56.000Z</time>
      </trkpt>
      <trkpt lat="49.35738" lon="-0.84643">
        <ele>18.024661</ele>
        <time>2022-08-03T10:47:57.000Z</time>
      </trkpt>
      <trkpt lat="49.3574" lon="-0.84639">
        <ele>17.840638</ele>
        <time>2022-08-03T10:47:58.000Z</time>
      </trkpt>
      <trkpt lat="49.35742" lon="-0.84635">
        <ele>17.697137</ele>
        <time>2022-08-03T10:47:59.000Z</time>
      </trkpt>
      <trkpt lat="49.35744" lon="-0.8463">
        <ele>17.538206</ele>
        <time>2022-08-03T10:48:00.000Z</time>
      </trkpt>
      <trkpt lat="49.35746" lon="-0.84624">
        <ele>17.377137</ele>
        <time>2022-08-03T10:48:01.000Z</time>
      </trkpt>
      <trkpt lat="49.35749" lon="-0.84618">
        <ele>17.194897</ele>
        <time>2022-08-03T10:48:02.000Z</time>
      </trkpt>
      <trkpt lat="49.35751" lon="-0.84612">
        <ele>17.026187</ele>
        <time>2022-08-03T10:48:03.000Z</time>
      </trkpt>
      <trkpt lat="49.35753" lon="-0.84606">
        <ele>16.850131</ele>
        <time>2022-08-03T10:48:04.000Z</time>
      </trkpt>
      <trkpt lat="49.35755" lon="-0.84601">
        <ele>16.680402</ele>
        <time>2022-08-03T10:48:05.000Z</time>
      </trkpt>
      <trkpt lat="49.35758" lon="-0.84595">
        <ele>16.502351</ele>
        <time>2022-08-03T10:48:06.000Z</time>
      </trkpt>
      <trkpt lat="49.35761" lon="-0.84589">
        <ele>16.315698</ele>
        <time>2022-08-03T10:48:07.000Z</time>
      </trkpt>
      <trkpt lat="49.35763" lon="-0.84583">
        <ele>16.129226</ele>
        <time>2022-08-03T10:48:08.000Z</time>
      </trkpt>
      <trkpt lat="49.35765" lon="-0.84576">
        <ele>15.950684</ele>
        <time>2022-08-03T10:48:09.000Z</time>
      </trkpt>
      <trkpt lat="49.35768" lon="-0.84571">
        <ele>15.778968</ele>
        <time>2022-08-03T10:48:10.000Z</time>
      </trkpt>
      <trkpt lat="49.35771" lon="-0.84564">
        <ele>15.585943</ele>
        <time>2022-08-03T10:48:11.000Z</time>
      </trkpt>
      <trkpt lat="49.35773" lon="-0.84558">
        <ele>15.409617</ele>
        <time>2022-08-03T10:48:12.000Z</time>
      </trkpt>
      <trkpt lat="49.35775" lon="-0.84552">
        <ele>15.223146</ele>
        <time>2022-08-03T10:48:13.000Z</time>
      </trkpt>
      <trkpt lat="49.35778" lon="-0.84546">
        <ele>15.037906</ele>
        <time>2022-08-03T10:48:14.000Z</time>
      </trkpt>
      <trkpt lat="49.35781" lon="-0.84539">
        <ele>14.844881</ele>
        <time>2022-08-03T10:48:15.000Z</time>
      </trkpt>
      <trkpt lat="49.35783" lon="-0.84533">
        <ele>14.664114</ele>
        <time>2022-08-03T10:48:16.000Z</time>
      </trkpt>
      <trkpt lat="49.35785" lon="-0.84527">
        <ele>14.486064</ele>
        <time>2022-08-03T10:48:17.000Z</time>
      </trkpt>
      <trkpt lat="49.35788" lon="-0.84521">
        <ele>14.308071</ele>
        <time>2022-08-03T10:48:18.000Z</time>
      </trkpt>
      <trkpt lat="49.35791" lon="-0.84515">
        <ele>14.119131</ele>
        <time>2022-08-03T10:48:19.000Z</time>
      </trkpt>
      <trkpt lat="49.35794" lon="-0.84509">
        <ele>13.930192</ele>
        <time>2022-08-03T10:48:20.000Z</time>
      </trkpt>
      <trkpt lat="49.35797" lon="-0.84503">
        <ele>13.739215</ele>
        <time>2022-08-03T10:48:21.000Z</time>
      </trkpt>
      <trkpt lat="49.35799" lon="-0.84497">
        <ele>13.550499</ele>
        <time>2022-08-03T10:48:22.000Z</time>
      </trkpt>
      <trkpt lat="49.35801" lon="-0.84491">
        <ele>13.374444</ele>
        <time>2022-08-03T10:48:23.000Z</time>
      </trkpt>
      <trkpt lat="49.35804" lon="-0.84485">
        <ele>13.198566</ele>
        <time>2022-08-03T10:48:24.000Z</time>
      </trkpt>
      <trkpt lat="49.35807" lon="-0.84479">
        <ele>13.009627</ele>
        <time>2022-08-03T10:48:25.000Z</time>
      </trkpt>
      <trkpt lat="49.35809" lon="-0.84473">
        <ele>12.833573</ele>
        <time>2022-08-03T10:48:26.000Z</time>
      </trkpt>
      <trkpt lat="49.35811" lon="-0.84467">
        <ele>12.666026</ele>
        <time>2022-08-03T10:48:27.000Z</time>
      </trkpt>
      <trkpt lat="49.35813" lon="-0.84462">
        <ele>12.502809</ele>
        <time>2022-08-03T10:48:28.000Z</time>
      </trkpt>
      <trkpt lat="49.35816" lon="-0.84456">
        <ele>12.337527</ele>
        <time>2022-08-03T10:48:29.000Z</time>
      </trkpt>
      <trkpt lat="49.35819" lon="-0.8445">
        <ele>12.148588</ele>
        <time>2022-08-03T10:48:30.000Z</time>
      </trkpt>
      <trkpt lat="49.35821" lon="-0.84444">
        <ele>11.957699</ele>
        <time>2022-08-03T10:48:31.000Z</time>
      </trkpt>
      <trkpt lat="49.35823" lon="-0.84438">
        <ele>11.775067</ele>
        <time>2022-08-03T10:48:32.000Z</time>
      </trkpt>
      <trkpt lat="49.35826" lon="-0.84431">
        <ele>11.582198</ele>
        <time>2022-08-03T10:48:33.000Z</time>
      </trkpt>
      <trkpt lat="49.35829" lon="-0.84425">
        <ele>11.390678</ele>
        <time>2022-08-03T10:48:34.000Z</time>
      </trkpt>
      <trkpt lat="49.35831" lon="-0.84418">
        <ele>11.204127</ele>
        <time>2022-08-03T10:48:35.000Z</time>
      </trkpt>
      <trkpt lat="49.35833" lon="-0.84412">
        <ele>11.023696</ele>
        <time>2022-08-03T10:48:36.000Z</time>
      </trkpt>
      <trkpt lat="49.35836" lon="-0.84405">
        <ele>10.840358</ele>
        <time>2022-08-03T10:48:37.000Z</time>
      </trkpt>
      <trkpt lat="49.35837" lon="-0.84399">
        <ele>10.772679</ele>
        <time>2022-08-03T10:48:38.000Z</time>
      </trkpt>
      <trkpt lat="49.3584" lon="-0.84393">
        <ele>10.698319</ele>
        <time>2022-08-03T10:48:39.000Z</time>
      </trkpt>
      <trkpt lat="49.35842" lon="-0.84386">
        <ele>10.628635</ele>
        <time>2022-08-03T10:48:40.000Z</time>
      </trkpt>
      <trkpt lat="49.35845" lon="-0.8438">
        <ele>10.556523</ele>
        <time>2022-08-03T10:48:41.000Z</time>
      </trkpt>
      <trkpt lat="49.35847" lon="-0.84374">
        <ele>10.489402</ele>
        <time>2022-08-03T10:48:42.000Z</time>
      </trkpt>
      <trkpt lat="49.35849" lon="-0.84368">
        <ele>10.421533</ele>
        <time>2022-08-03T10:48:43.000Z</time>
      </trkpt>
      <trkpt lat="49.35851" lon="-0.84362">
        <ele>10.356497</ele>
        <time>2022-08-03T10:48:44.000Z</time>
      </trkpt>
      <trkpt lat="49.35853" lon="-0.84356">
        <ele>10.29146</ele>
        <time>2022-08-03T10:48:45.000Z</time>
      </trkpt>
      <trkpt lat="49.35855" lon="-0.8435">
        <ele>10.229041</ele>
        <time>2022-08-03T10:48:46.000Z</time>
      </trkpt>
      <trkpt lat="49.35857" lon="-0.84344">
        <ele>10.159485</ele>
        <time>2022-08-03T10:48:47.000Z</time>
      </trkpt>
      <trkpt lat="49.3586" lon="-0.84337">
        <ele>10.083516</ele>
        <time>2022-08-03T10:48:48.000Z</time>
      </trkpt>
      <trkpt lat="49.35862" lon="-0.8433">
        <ele>10.004465</ele>
        <time>2022-08-03T10:48:49.000Z</time>
      </trkpt>
      <trkpt lat="49.35865" lon="-0.84322">
        <ele>9.915213</ele>
        <time>2022-08-03T10:48:50.000Z</time>
      </trkpt>
      <trkpt lat="49.35869" lon="-0.84312">
        <ele>9.801962</ele>
        <time>2022-08-03T10:48:51.000Z</time>
      </trkpt>
      <trkpt lat="49.35871" lon="-0.84303">
        <ele>9.709265</ele>
        <time>2022-08-03T10:48:52.000Z</time>
      </trkpt>
      <trkpt lat="49.35873" lon="-0.84296">
        <ele>9.635435</ele>
        <time>2022-08-03T10:48:53.000Z</time>
      </trkpt>
      <trkpt lat="49.35877" lon="-0.84287">
        <ele>9.528568</ele>
        <time>2022-08-03T10:48:54.000Z</time>
      </trkpt>
      <trkpt lat="49.35879" lon="-0.84279">
        <ele>9.44207</ele>
        <time>2022-08-03T10:48:55.000Z</time>
      </trkpt>
      <trkpt lat="49.35882" lon="-0.84271">
        <ele>9.352819</ele>
        <time>2022-08-03T10:48:56.000Z</time>
      </trkpt>
      <trkpt lat="49.35885" lon="-0.84263">
        <ele>9.265663</ele>
        <time>2022-08-03T10:48:57.000Z</time>
      </trkpt>
      <trkpt lat="49.35887" lon="-0.84256">
        <ele>9.195979</ele>
        <time>2022-08-03T10:48:58.000Z</time>
      </trkpt>
      <trkpt lat="49.3589" lon="-0.84247">
        <ele>9.092583</ele>
        <time>2022-08-03T10:48:59.000Z</time>
      </trkpt>
      <trkpt lat="49.35893" lon="-0.8424">
        <ele>9.014029</ele>
        <time>2022-08-03T10:49:00.000Z</time>
      </trkpt>
      <trkpt lat="49.35895" lon="-0.84233">
        <ele>8.939601</ele>
        <time>2022-08-03T10:49:01.000Z</time>
      </trkpt>
      <trkpt lat="49.35898" lon="-0.84229">
        <ele>8.881687</ele>
        <time>2022-08-03T10:49:02.000Z</time>
      </trkpt>
      <trkpt lat="49.35902" lon="-0.84224">
        <ele>8.802143</ele>
        <time>2022-08-03T10:49:03.000Z</time>
      </trkpt>
      <trkpt lat="49.35905" lon="-0.84221">
        <ele>8.751041</ele>
        <time>2022-08-03T10:49:04.000Z</time>
      </trkpt>
      <trkpt lat="49.35909" lon="-0.84217">
        <ele>8.682932</ele>
        <time>2022-08-03T10:49:05.000Z</time>
      </trkpt>
      <trkpt lat="49.35913" lon="-0.84212">
        <ele>8.604566</ele>
        <time>2022-08-03T10:49:06.000Z</time>
      </trkpt>
      <trkpt lat="49.35915" lon="-0.84208">
        <ele>8.552552</ele>
        <time>2022-08-03T10:49:07.000Z</time>
      </trkpt>
      <trkpt lat="49.35917" lon="-0.84203">
        <ele>8.492721</ele>
        <time>2022-08-03T10:49:08.000Z</time>
      </trkpt>
      <trkpt lat="49.35919" lon="-0.84196">
        <ele>8.420447</ele>
        <time>2022-08-03T10:49:09.000Z</time>
      </trkpt>
      <trkpt lat="49.3592" lon="-0.84192">
        <ele>8.37067</ele>
        <time>2022-08-03T10:49:10.000Z</time>
      </trkpt>
      <trkpt lat="49.35922" lon="-0.84186">
        <ele>8.307382</ele>
        <time>2022-08-03T10:49:11.000Z</time>
      </trkpt>
      <trkpt lat="49.35924" lon="-0.8418">
        <ele>8.24418</ele>
        <time>2022-08-03T10:49:12.000Z</time>
      </trkpt>
      <trkpt lat="49.35926" lon="-0.84174">
        <ele>8.181065</ele>
        <time>2022-08-03T10:49:13.000Z</time>
      </trkpt>
      <trkpt lat="49.35928" lon="-0.84167">
        <ele>8.120327</ele>
        <time>2022-08-03T10:49:14.000Z</time>
      </trkpt>
      <trkpt lat="49.35929" lon="-0.84163">
        <ele>8.083612</ele>
        <time>2022-08-03T10:49:15.000Z</time>
      </trkpt>
      <trkpt lat="49.35931" lon="-0.84157">
        <ele>8.037572</ele>
        <time>2022-08-03T10:49:16.000Z</time>
      </trkpt>
      <trkpt lat="49.35933" lon="-0.84152">
        <ele>7.995326</ele>
        <time>2022-08-03T10:49:17.000Z</time>
      </trkpt>
      <trkpt lat="49.35935" lon="-0.84147">
        <ele>7.954322</ele>
        <time>2022-08-03T10:49:18.000Z</time>
      </trkpt>
      <trkpt lat="49.35936" lon="-0.84142">
        <ele>7.914266</ele>
        <time>2022-08-03T10:49:19.000Z</time>
      </trkpt>
      <trkpt lat="49.35938" lon="-0.84138">
        <ele>7.878658</ele>
        <time>2022-08-03T10:49:20.000Z</time>
      </trkpt>
      <trkpt lat="49.3594" lon="-0.84133">
        <ele>7.84305</ele>
        <time>2022-08-03T10:49:21.000Z</time>
      </trkpt>
      <trkpt lat="49.35941" lon="-0.84128">
        <ele>7.80434</ele>
        <time>2022-08-03T10:49:22.000Z</time>
      </trkpt>
      <trkpt lat="49.35942" lon="-0.84126">
        <ele>7.780197</ele>
        <time>2022-08-03T10:49:23.000Z</time>
      </trkpt>
      <trkpt lat="49.35944" lon="-0.84123">
        <ele>7.753951</ele>
        <time>2022-08-03T10:49:24.000Z</time>
      </trkpt>
      <trkpt lat="49.35946" lon="-0.84121">
        <ele>7.729304</ele>
        <time>2022-08-03T10:49:25.000Z</time>
      </trkpt>
      <trkpt lat="49.35948" lon="-0.84119">
        <ele>7.703872</ele>
        <time>2022-08-03T10:49:26.000Z</time>
      </trkpt>
      <trkpt lat="49.3595" lon="-0.84117">
        <ele>7.675692</ele>
        <time>2022-08-03T10:49:27.000Z</time>
      </trkpt>
      <trkpt lat="49.35952" lon="-0.84117">
        <ele>7.650733</ele>
        <time>2022-08-03T10:49:28.000Z</time>
      </trkpt>
      <trkpt lat="49.35954" lon="-0.84116">
        <ele>7.629647</ele>
        <time>2022-08-03T10:49:29.000Z</time>
      </trkpt>
      <trkpt lat="49.35956" lon="-0.84117">
        <ele>7.608365</ele>
        <time>2022-08-03T10:49:30.000Z</time>
      </trkpt>
      <trkpt lat="49.35957" lon="-0.84118">
        <ele>7.587669</ele>
        <time>2022-08-03T10:49:31.000Z</time>
      </trkpt>
      <trkpt lat="49.3596" lon="-0.8412">
        <ele>7.556746</ele>
        <time>2022-08-03T10:49:32.000Z</time>
      </trkpt>
      <trkpt lat="49.35963" lon="-0.84121">
        <ele>7.526084</ele>
        <time>2022-08-03T10:49:34.000Z</time>
      </trkpt>
      <trkpt lat="49.35964" lon="-0.84124">
        <ele>7.50139</ele>
        <time>2022-08-03T10:49:36.000Z</time>
      </trkpt>
      <trkpt lat="49.35965" lon="-0.84127">
        <ele>7.473664</ele>
        <time>2022-08-03T10:49:38.000Z</time>
      </trkpt>
      <trkpt lat="49.35966" lon="-0.84131">
        <ele>7.443883</ele>
        <time>2022-08-03T10:49:40.000Z</time>
      </trkpt>
      <trkpt lat="49.35968" lon="-0.84135">
        <ele>7.411671</ele>
        <time>2022-08-03T10:49:42.000Z</time>
      </trkpt>
      <trkpt lat="49.3597" lon="-0.84137">
        <ele>7.386239</ele>
        <time>2022-08-03T10:49:44.000Z</time>
      </trkpt>
      <trkpt lat="49.35972" lon="-0.84137">
        <ele>7.365214</ele>
        <time>2022-08-03T10:49:45.000Z</time>
      </trkpt>
      <trkpt lat="49.35974" lon="-0.84135">
        <ele>7.330118</ele>
        <time>2022-08-03T10:49:47.000Z</time>
      </trkpt>
      <trkpt lat="49.35977" lon="-0.84134">
        <ele>7.297305</ele>
        <time>2022-08-03T10:49:49.000Z</time>
      </trkpt>
      <trkpt lat="49.35979" lon="-0.84135">
        <ele>7.275132</ele>
        <time>2022-08-03T10:49:51.000Z</time>
      </trkpt>
      <trkpt lat="49.35988" lon="-0.84131">
        <ele>7.179095</ele>
        <time>2022-08-03T10:50:52.000Z</time>
      </trkpt>
      <trkpt lat="49.3599" lon="-0.84132">
        <ele>7.148432</ele>
        <time>2022-08-03T10:50:53.000Z</time>
      </trkpt>
      <trkpt lat="49.35993" lon="-0.84133">
        <ele>7.112067</ele>
        <time>2022-08-03T10:50:54.000Z</time>
      </trkpt>
      <trkpt lat="49.35997" lon="-0.84134">
        <ele>7.076557</ele>
        <time>2022-08-03T10:50:55.000Z</time>
      </trkpt>
      <trkpt lat="49.36" lon="-0.84134">
        <ele>7.041201</ele>
        <time>2022-08-03T10:50:56.000Z</time>
      </trkpt>
      <trkpt lat="49.36002" lon="-0.84134">
        <ele>7.013602</ele>
        <time>2022-08-03T10:50:57.000Z</time>
      </trkpt>
      <trkpt lat="49.36004" lon="-0.84134">
        <ele>6.991476</ele>
        <time>2022-08-03T10:50:58.000Z</time>
      </trkpt>
      <trkpt lat="49.36007" lon="-0.84135">
        <ele>6.955683</ele>
        <time>2022-08-03T10:50:59.000Z</time>
      </trkpt>
      <trkpt lat="49.36009" lon="-0.84135">
        <ele>6.934659</ele>
        <time>2022-08-03T10:51:00.000Z</time>
      </trkpt>
      <trkpt lat="49.36011" lon="-0.84135">
        <ele>6.913634</ele>
        <time>2022-08-03T10:51:01.000Z</time>
      </trkpt>
      <trkpt lat="49.36014" lon="-0.84136">
        <ele>6.877583</ele>
        <time>2022-08-03T10:51:03.000Z</time>
      </trkpt>
      <trkpt lat="49.36017" lon="-0.84139">
        <ele>6.837734</ele>
        <time>2022-08-03T10:51:05.000Z</time>
      </trkpt>
      <trkpt lat="49.36019" lon="-0.84141">
        <ele>6.814957</ele>
        <time>2022-08-03T10:51:06.000Z</time>
      </trkpt>
      <trkpt lat="49.36021" lon="-0.84144">
        <ele>6.78538</ele>
        <time>2022-08-03T10:51:08.000Z</time>
      </trkpt>
      <trkpt lat="49.3602" lon="-0.84147">
        <ele>6.762127</ele>
        <time>2022-08-03T10:51:10.000Z</time>
      </trkpt>
      <trkpt lat="49.36044" lon="-0.84184">
        <ele>6.385641</ele>
        <time>2022-08-03T11:46:19.000Z</time>
      </trkpt>
      <trkpt lat="49.36018" lon="-0.84144">
        <ele>6.511124</ele>
        <time>2022-08-03T12:42:01.000Z</time>
      </trkpt>
      <trkpt lat="49.36016" lon="-0.84143">
        <ele>6.548425</ele>
        <time>2022-08-03T12:42:02.000Z</time>
      </trkpt>
      <trkpt lat="49.36015" lon="-0.84139">
        <ele>6.604147</ele>
        <time>2022-08-03T12:42:04.000Z</time>
      </trkpt>
      <trkpt lat="49.36016" lon="-0.84134">
        <ele>6.66515</ele>
        <time>2022-08-03T12:42:06.000Z</time>
      </trkpt>
      <trkpt lat="49.36017" lon="-0.84131">
        <ele>6.702809</ele>
        <time>2022-08-03T12:42:07.000Z</time>
      </trkpt>
      <trkpt lat="49.36017" lon="-0.84128">
        <ele>6.745989</ele>
        <time>2022-08-03T12:42:08.000Z</time>
      </trkpt>
      <trkpt lat="49.36018" lon="-0.84125">
        <ele>6.789168</ele>
        <time>2022-08-03T12:42:09.000Z</time>
      </trkpt>
      <trkpt lat="49.36017" lon="-0.84122">
        <ele>6.828501</ele>
        <time>2022-08-03T12:42:10.000Z</time>
      </trkpt>
      <trkpt lat="49.36017" lon="-0.84119">
        <ele>6.867833</ele>
        <time>2022-08-03T12:42:11.000Z</time>
      </trkpt>
      <trkpt lat="49.36015" lon="-0.84114">
        <ele>6.934273</ele>
        <time>2022-08-03T12:42:13.000Z</time>
      </trkpt>
      <trkpt lat="49.36014" lon="-0.84111">
        <ele>6.983802</ele>
        <time>2022-08-03T12:42:15.000Z</time>
      </trkpt>
      <trkpt lat="49.36014" lon="-0.84108">
        <ele>7.024471</ele>
        <time>2022-08-03T12:42:18.000Z</time>
      </trkpt>
      <trkpt lat="49.36012" lon="-0.84101">
        <ele>7.122343</ele>
        <time>2022-08-03T12:42:46.000Z</time>
      </trkpt>
      <trkpt lat="49.36011" lon="-0.84097">
        <ele>7.171107</ele>
        <time>2022-08-03T12:42:47.000Z</time>
      </trkpt>
      <trkpt lat="49.3601" lon="-0.84094">
        <ele>7.221086</ele>
        <time>2022-08-03T12:42:48.000Z</time>
      </trkpt>
      <trkpt lat="49.36008" lon="-0.84092">
        <ele>7.269227</ele>
        <time>2022-08-03T12:42:49.000Z</time>
      </trkpt>
      <trkpt lat="49.36005" lon="-0.84091">
        <ele>7.315881</ele>
        <time>2022-08-03T12:42:50.000Z</time>
      </trkpt>
      <trkpt lat="49.36003" lon="-0.84091">
        <ele>7.360132</ele>
        <time>2022-08-03T12:42:51.000Z</time>
      </trkpt>
      <trkpt lat="49.36001" lon="-0.8409">
        <ele>7.404077</ele>
        <time>2022-08-03T12:42:52.000Z</time>
      </trkpt>
      <trkpt lat="49.35998" lon="-0.8409">
        <ele>7.455826</ele>
        <time>2022-08-03T12:42:53.000Z</time>
      </trkpt>
      <trkpt lat="49.35997" lon="-0.84092">
        <ele>7.498336</ele>
        <time>2022-08-03T12:42:54.000Z</time>
      </trkpt>
      <trkpt lat="49.35995" lon="-0.84096">
        <ele>7.564775</ele>
        <time>2022-08-03T12:42:56.000Z</time>
      </trkpt>
      <trkpt lat="49.35994" lon="-0.84102">
        <ele>7.636956</ele>
        <time>2022-08-03T12:42:58.000Z</time>
      </trkpt>
      <trkpt lat="49.35993" lon="-0.84105">
        <ele>7.683858</ele>
        <time>2022-08-03T12:43:00.000Z</time>
      </trkpt>
      <trkpt lat="49.35995" lon="-0.84108">
        <ele>7.73537</ele>
        <time>2022-08-03T12:47:42.000Z</time>
      </trkpt>
      <trkpt lat="49.35994" lon="-0.84105">
        <ele>7.779043</ele>
        <time>2022-08-03T12:47:45.000Z</time>
      </trkpt>
      <trkpt lat="49.35992" lon="-0.84104">
        <ele>7.823293</ele>
        <time>2022-08-03T12:47:50.000Z</time>
      </trkpt>
      <trkpt lat="49.3599" lon="-0.84107">
        <ele>7.873542</ele>
        <time>2022-08-03T12:47:53.000Z</time>
      </trkpt>
      <trkpt lat="49.35989" lon="-0.8411">
        <ele>7.914925</ele>
        <time>2022-08-03T12:47:55.000Z</time>
      </trkpt>
      <trkpt lat="49.35983" lon="-0.84118">
        <ele>8.065987</ele>
        <time>2022-08-03T12:48:13.000Z</time>
      </trkpt>
      <trkpt lat="49.35981" lon="-0.84122">
        <ele>8.13611</ele>
        <time>2022-08-03T12:48:14.000Z</time>
      </trkpt>
      <trkpt lat="49.35979" lon="-0.84126">
        <ele>8.209845</ele>
        <time>2022-08-03T12:48:15.000Z</time>
      </trkpt>
      <trkpt lat="49.35976" lon="-0.8413">
        <ele>8.276128</ele>
        <time>2022-08-03T12:48:16.000Z</time>
      </trkpt>
      <trkpt lat="49.35974" lon="-0.84133">
        <ele>8.337699</ele>
        <time>2022-08-03T12:48:17.000Z</time>
      </trkpt>
      <trkpt lat="49.35972" lon="-0.84134">
        <ele>8.389064</ele>
        <time>2022-08-03T12:48:18.000Z</time>
      </trkpt>
      <trkpt lat="49.35969" lon="-0.84136">
        <ele>8.448825</ele>
        <time>2022-08-03T12:48:19.000Z</time>
      </trkpt>
      <trkpt lat="49.35966" lon="-0.84136">
        <ele>8.492598</ele>
        <time>2022-08-03T12:48:20.000Z</time>
      </trkpt>
      <trkpt lat="49.35964" lon="-0.84131">
        <ele>8.56866</ele>
        <time>2022-08-03T12:48:22.000Z</time>
      </trkpt>
      <trkpt lat="49.35964" lon="-0.84127">
        <ele>8.614871</ele>
        <time>2022-08-03T12:48:23.000Z</time>
      </trkpt>
      <trkpt lat="49.35962" lon="-0.84124">
        <ele>8.662651</ele>
        <time>2022-08-03T12:48:24.000Z</time>
      </trkpt>
      <trkpt lat="49.35961" lon="-0.84121">
        <ele>8.713835</ele>
        <time>2022-08-03T12:48:25.000Z</time>
      </trkpt>
      <trkpt lat="49.3596" lon="-0.84118">
        <ele>8.764084</ele>
        <time>2022-08-03T12:48:26.000Z</time>
      </trkpt>
      <trkpt lat="49.35958" lon="-0.84114">
        <ele>8.816364</ele>
        <time>2022-08-03T12:48:27.000Z</time>
      </trkpt>
      <trkpt lat="49.35956" lon="-0.84112">
        <ele>8.868764</ele>
        <time>2022-08-03T12:48:28.000Z</time>
      </trkpt>
      <trkpt lat="49.35954" lon="-0.84109">
        <ele>8.924835</ele>
        <time>2022-08-03T12:48:29.000Z</time>
      </trkpt>
      <trkpt lat="49.35952" lon="-0.84107">
        <ele>8.969257</ele>
        <time>2022-08-03T12:48:30.000Z</time>
      </trkpt>
      <trkpt lat="49.3595" lon="-0.84106">
        <ele>9.015711</ele>
        <time>2022-08-03T12:48:31.000Z</time>
      </trkpt>
      <trkpt lat="49.35948" lon="-0.84106">
        <ele>9.061639</ele>
        <time>2022-08-03T12:48:32.000Z</time>
      </trkpt>
      <trkpt lat="49.35945" lon="-0.84106">
        <ele>9.119703</ele>
        <time>2022-08-03T12:48:33.000Z</time>
      </trkpt>
      <trkpt lat="49.35942" lon="-0.84107">
        <ele>9.164688</ele>
        <time>2022-08-03T12:48:34.000Z</time>
      </trkpt>
      <trkpt lat="49.3594" lon="-0.84107">
        <ele>9.208538</ele>
        <time>2022-08-03T12:48:35.000Z</time>
      </trkpt>
      <trkpt lat="49.35938" lon="-0.84107">
        <ele>9.254758</ele>
        <time>2022-08-03T12:48:36.000Z</time>
      </trkpt>
      <trkpt lat="49.35935" lon="-0.84106">
        <ele>9.306161</ele>
        <time>2022-08-03T12:48:37.000Z</time>
      </trkpt>
      <trkpt lat="49.35933" lon="-0.84104">
        <ele>9.355115</ele>
        <time>2022-08-03T12:48:38.000Z</time>
      </trkpt>
      <trkpt lat="49.35931" lon="-0.84101">
        <ele>9.418248</ele>
        <time>2022-08-03T12:48:39.000Z</time>
      </trkpt>
      <trkpt lat="49.3593" lon="-0.84097">
        <ele>9.472729</ele>
        <time>2022-08-03T12:48:40.000Z</time>
      </trkpt>
      <trkpt lat="49.35928" lon="-0.84094">
        <ele>9.522709</ele>
        <time>2022-08-03T12:48:41.000Z</time>
      </trkpt>
      <trkpt lat="49.35928" lon="-0.8409">
        <ele>9.570658</ele>
        <time>2022-08-03T12:48:42.000Z</time>
      </trkpt>
      <trkpt lat="49.35929" lon="-0.84086">
        <ele>9.617692</ele>
        <time>2022-08-03T12:48:43.000Z</time>
      </trkpt>
      <trkpt lat="49.3593" lon="-0.84083">
        <ele>9.669906</ele>
        <time>2022-08-03T12:48:44.000Z</time>
      </trkpt>
      <trkpt lat="49.35932" lon="-0.84079">
        <ele>9.727462</ele>
        <time>2022-08-03T12:48:45.000Z</time>
      </trkpt>
      <trkpt lat="49.35933" lon="-0.84075">
        <ele>9.748692</ele>
        <time>2022-08-03T12:48:46.000Z</time>
      </trkpt>
      <trkpt lat="49.35934" lon="-0.84072">
        <ele>9.753735</ele>
        <time>2022-08-03T12:48:47.000Z</time>
      </trkpt>
      <trkpt lat="49.35934" lon="-0.84068">
        <ele>9.758051</ele>
        <time>2022-08-03T12:48:48.000Z</time>
      </trkpt>
      <trkpt lat="49.35935" lon="-0.84065">
        <ele>9.76218</ele>
        <time>2022-08-03T12:48:49.000Z</time>
      </trkpt>
      <trkpt lat="49.35936" lon="-0.84063">
        <ele>9.76568</ele>
        <time>2022-08-03T12:48:50.000Z</time>
      </trkpt>
      <trkpt lat="49.35938" lon="-0.84061">
        <ele>9.76964</ele>
        <time>2022-08-03T12:48:51.000Z</time>
      </trkpt>
      <trkpt lat="49.35941" lon="-0.84059">
        <ele>9.776546</ele>
        <time>2022-08-03T12:48:53.000Z</time>
      </trkpt>
      <trkpt lat="49.35944" lon="-0.8406">
        <ele>9.782137</ele>
        <time>2022-08-03T12:48:55.000Z</time>
      </trkpt>
      <trkpt lat="49.35947" lon="-0.84063">
        <ele>9.787976</ele>
        <time>2022-08-03T12:48:57.000Z</time>
      </trkpt>
      <trkpt lat="49.35949" lon="-0.84067">
        <ele>9.793372</ele>
        <time>2022-08-03T12:48:59.000Z</time>
      </trkpt>
      <trkpt lat="49.3595" lon="-0.84068">
        <ele>9.796899</ele>
        <time>2022-08-03T12:49:00.000Z</time>
      </trkpt>
      <trkpt lat="49.35952" lon="-0.84074">
        <ele>9.804527</ele>
        <time>2022-08-03T12:49:02.000Z</time>
      </trkpt>
      <trkpt lat="49.35952" lon="-0.84077">
        <ele>9.809217</ele>
        <time>2022-08-03T12:49:03.000Z</time>
      </trkpt>
      <trkpt lat="49.35953" lon="-0.84081">
        <ele>9.814029</ele>
        <time>2022-08-03T12:49:04.000Z</time>
      </trkpt>
      <trkpt lat="49.35953" lon="-0.84085">
        <ele>9.818685</ele>
        <time>2022-08-03T12:49:05.000Z</time>
      </trkpt>
      <trkpt lat="49.35953" lon="-0.84089">
        <ele>9.82317</ele>
        <time>2022-08-03T12:49:06.000Z</time>
      </trkpt>
      <trkpt lat="49.35954" lon="-0.84092">
        <ele>9.827739</ele>
        <time>2022-08-03T12:49:07.000Z</time>
      </trkpt>
      <trkpt lat="49.35955" lon="-0.84096">
        <ele>9.832198</ele>
        <time>2022-08-03T12:49:08.000Z</time>
      </trkpt>
      <trkpt lat="49.35956" lon="-0.84099">
        <ele>9.836582</ele>
        <time>2022-08-03T12:49:09.000Z</time>
      </trkpt>
      <trkpt lat="49.35957" lon="-0.84102">
        <ele>9.841203</ele>
        <time>2022-08-03T12:49:10.000Z</time>
      </trkpt>
      <trkpt lat="49.35958" lon="-0.84105">
        <ele>9.846243</ele>
        <time>2022-08-03T12:49:11.000Z</time>
      </trkpt>
      <trkpt lat="49.3596" lon="-0.84109">
        <ele>9.851685</ele>
        <time>2022-08-03T12:49:12.000Z</time>
      </trkpt>
      <trkpt lat="49.35961" lon="-0.84113">
        <ele>9.856836</ele>
        <time>2022-08-03T12:49:13.000Z</time>
      </trkpt>
      <trkpt lat="49.35963" lon="-0.84116">
        <ele>9.861879</ele>
        <time>2022-08-03T12:49:14.000Z</time>
      </trkpt>
      <trkpt lat="49.35964" lon="-0.8412">
        <ele>9.867526</ele>
        <time>2022-08-03T12:49:15.000Z</time>
      </trkpt>
      <trkpt lat="49.35965" lon="-0.84125">
        <ele>9.873484</ele>
        <time>2022-08-03T12:49:16.000Z</time>
      </trkpt>
      <trkpt lat="49.35966" lon="-0.84129">
        <ele>9.878506</ele>
        <time>2022-08-03T12:49:17.000Z</time>
      </trkpt>
      <trkpt lat="49.35967" lon="-0.84133">
        <ele>9.883985</ele>
        <time>2022-08-03T12:49:18.000Z</time>
      </trkpt>
      <trkpt lat="49.35968" lon="-0.84137">
        <ele>9.889286</ele>
        <time>2022-08-03T12:49:19.000Z</time>
      </trkpt>
      <trkpt lat="49.35969" lon="-0.84142">
        <ele>9.895344</ele>
        <time>2022-08-03T12:49:20.000Z</time>
      </trkpt>
      <trkpt lat="49.3597" lon="-0.84146">
        <ele>9.901212</ele>
        <time>2022-08-03T12:49:21.000Z</time>
      </trkpt>
      <trkpt lat="49.35971" lon="-0.84151">
        <ele>9.907239</ele>
        <time>2022-08-03T12:49:22.000Z</time>
      </trkpt>
      <trkpt lat="49.35972" lon="-0.84156">
        <ele>9.913595</ele>
        <time>2022-08-03T12:49:23.000Z</time>
      </trkpt>
      <trkpt lat="49.35972" lon="-0.84161">
        <ele>9.919747</ele>
        <time>2022-08-03T12:49:24.000Z</time>
      </trkpt>
      <trkpt lat="49.35973" lon="-0.84166">
        <ele>9.926013</ele>
        <time>2022-08-03T12:49:25.000Z</time>
      </trkpt>
      <trkpt lat="49.35973" lon="-0.84171">
        <ele>9.932001</ele>
        <time>2022-08-03T12:49:26.000Z</time>
      </trkpt>
      <trkpt lat="49.35973" lon="-0.84176">
        <ele>9.938031</ele>
        <time>2022-08-03T12:49:27.000Z</time>
      </trkpt>
      <trkpt lat="49.35973" lon="-0.84181">
        <ele>9.944525</ele>
        <time>2022-08-03T12:49:28.000Z</time>
      </trkpt>
      <trkpt lat="49.35973" lon="-0.84186">
        <ele>9.950896</ele>
        <time>2022-08-03T12:49:29.000Z</time>
      </trkpt>
      <trkpt lat="49.35974" lon="-0.84192">
        <ele>9.957433</ele>
        <time>2022-08-03T12:49:30.000Z</time>
      </trkpt>
      <trkpt lat="49.35974" lon="-0.84197">
        <ele>9.964196</ele>
        <time>2022-08-03T12:49:31.000Z</time>
      </trkpt>
      <trkpt lat="49.35974" lon="-0.84203">
        <ele>9.970958</ele>
        <time>2022-08-03T12:49:32.000Z</time>
      </trkpt>
      <trkpt lat="49.35974" lon="-0.84208">
        <ele>9.977329</ele>
        <time>2022-08-03T12:49:33.000Z</time>
      </trkpt>
      <trkpt lat="49.35973" lon="-0.84213">
        <ele>9.983501</ele>
        <time>2022-08-03T12:49:34.000Z</time>
      </trkpt>
      <trkpt lat="49.35973" lon="-0.84218">
        <ele>9.989382</ele>
        <time>2022-08-03T12:49:35.000Z</time>
      </trkpt>
      <trkpt lat="49.35973" lon="-0.84223">
        <ele>9.995779</ele>
        <time>2022-08-03T12:49:36.000Z</time>
      </trkpt>
      <trkpt lat="49.35972" lon="-0.84228">
        <ele>10.002489</ele>
        <time>2022-08-03T12:49:37.000Z</time>
      </trkpt>
      <trkpt lat="49.35972" lon="-0.84233">
        <ele>10.008615</ele>
        <time>2022-08-03T12:49:38.000Z</time>
      </trkpt>
      <trkpt lat="49.35972" lon="-0.84239">
        <ele>10.015396</ele>
        <time>2022-08-03T12:49:39.000Z</time>
      </trkpt>
      <trkpt lat="49.35972" lon="-0.84244">
        <ele>10.02189</ele>
        <time>2022-08-03T12:49:40.000Z</time>
      </trkpt>
      <trkpt lat="49.35971" lon="-0.8425">
        <ele>10.028964</ele>
        <time>2022-08-03T12:49:41.000Z</time>
      </trkpt>
      <trkpt lat="49.3597" lon="-0.84256">
        <ele>10.036552</ele>
        <time>2022-08-03T12:49:42.000Z</time>
      </trkpt>
      <trkpt lat="49.35969" lon="-0.84261">
        <ele>10.043739</ele>
        <time>2022-08-03T12:49:43.000Z</time>
      </trkpt>
      <trkpt lat="49.35968" lon="-0.84267">
        <ele>10.050853</ele>
        <time>2022-08-03T12:49:44.000Z</time>
      </trkpt>
      <trkpt lat="49.35967" lon="-0.84273">
        <ele>10.058278</ele>
        <time>2022-08-03T12:49:45.000Z</time>
      </trkpt>
      <trkpt lat="49.35966" lon="-0.84279">
        <ele>10.065629</ele>
        <time>2022-08-03T12:49:46.000Z</time>
      </trkpt>
      <trkpt lat="49.35965" lon="-0.84285">
        <ele>10.073217</ele>
        <time>2022-08-03T12:49:47.000Z</time>
      </trkpt>
      <trkpt lat="49.35965" lon="-0.8429">
        <ele>10.080165</ele>
        <time>2022-08-03T12:49:48.000Z</time>
      </trkpt>
      <trkpt lat="49.35964" lon="-0.84296">
        <ele>10.172653</ele>
        <time>2022-08-03T12:49:49.000Z</time>
      </trkpt>
      <trkpt lat="49.35963" lon="-0.84302">
        <ele>10.324163</ele>
        <time>2022-08-03T12:49:50.000Z</time>
      </trkpt>
      <trkpt lat="49.35962" lon="-0.84307">
        <ele>10.465393</ele>
        <time>2022-08-03T12:49:51.000Z</time>
      </trkpt>
      <trkpt lat="49.3596" lon="-0.84311">
        <ele>10.603271</ele>
        <time>2022-08-03T12:49:52.000Z</time>
      </trkpt>
      <trkpt lat="49.35959" lon="-0.84315">
        <ele>10.717541</ele>
        <time>2022-08-03T12:49:53.000Z</time>
      </trkpt>
      <trkpt lat="49.35958" lon="-0.84318">
        <ele>10.810951</ele>
        <time>2022-08-03T12:49:54.000Z</time>
      </trkpt>
      <trkpt lat="49.35957" lon="-0.84321">
        <ele>10.901949</ele>
        <time>2022-08-03T12:49:55.000Z</time>
      </trkpt>
      <trkpt lat="49.35957" lon="-0.84324">
        <ele>10.979079</ele>
        <time>2022-08-03T12:49:56.000Z</time>
      </trkpt>
      <trkpt lat="49.35956" lon="-0.84327">
        <ele>11.07794</ele>
        <time>2022-08-03T12:49:58.000Z</time>
      </trkpt>
      <trkpt lat="49.35955" lon="-0.8433">
        <ele>11.155424</ele>
        <time>2022-08-03T12:49:59.000Z</time>
      </trkpt>
      <trkpt lat="49.35954" lon="-0.84332">
        <ele>11.233893</ele>
        <time>2022-08-03T12:50:00.000Z</time>
      </trkpt>
      <trkpt lat="49.35953" lon="-0.84336">
        <ele>11.331618</ele>
        <time>2022-08-03T12:50:01.000Z</time>
      </trkpt>
      <trkpt lat="49.35952" lon="-0.8434">
        <ele>11.447518</ele>
        <time>2022-08-03T12:50:02.000Z</time>
      </trkpt>
      <trkpt lat="49.35951" lon="-0.84343">
        <ele>11.563418</ele>
        <time>2022-08-03T12:50:03.000Z</time>
      </trkpt>
      <trkpt lat="49.3595" lon="-0.84348">
        <ele>11.682806</ele>
        <time>2022-08-03T12:50:04.000Z</time>
      </trkpt>
      <trkpt lat="49.35949" lon="-0.84351">
        <ele>11.793471</ele>
        <time>2022-08-03T12:50:05.000Z</time>
      </trkpt>
      <trkpt lat="49.35948" lon="-0.84356">
        <ele>11.919305</ele>
        <time>2022-08-03T12:50:06.000Z</time>
      </trkpt>
      <trkpt lat="49.35947" lon="-0.8436">
        <ele>12.033575</ele>
        <time>2022-08-03T12:50:07.000Z</time>
      </trkpt>
      <trkpt lat="49.35946" lon="-0.84364">
        <ele>12.161129</ele>
        <time>2022-08-03T12:50:08.000Z</time>
      </trkpt>
      <trkpt lat="49.35946" lon="-0.84369">
        <ele>12.295756</ele>
        <time>2022-08-03T12:50:09.000Z</time>
      </trkpt>
      <trkpt lat="49.35944" lon="-0.84374">
        <ele>12.441125</ele>
        <time>2022-08-03T12:50:10.000Z</time>
      </trkpt>
      <trkpt lat="49.35944" lon="-0.84379">
        <ele>12.571329</ele>
        <time>2022-08-03T12:50:11.000Z</time>
      </trkpt>
      <trkpt lat="49.35944" lon="-0.84384">
        <ele>12.698846</ele>
        <time>2022-08-03T12:50:12.000Z</time>
      </trkpt>
      <trkpt lat="49.35943" lon="-0.84389">
        <ele>12.82905</ele>
        <time>2022-08-03T12:50:13.000Z</time>
      </trkpt>
      <trkpt lat="49.35943" lon="-0.84393">
        <ele>12.958659</ele>
        <time>2022-08-03T12:50:14.000Z</time>
      </trkpt>
      <trkpt lat="49.35943" lon="-0.84399">
        <ele>13.107328</ele>
        <time>2022-08-03T12:50:15.000Z</time>
      </trkpt>
      <trkpt lat="49.35942" lon="-0.84405">
        <ele>13.264432</ele>
        <time>2022-08-03T12:50:16.000Z</time>
      </trkpt>
      <trkpt lat="49.35942" lon="-0.8441">
        <ele>13.418844</ele>
        <time>2022-08-03T12:50:17.000Z</time>
      </trkpt>
      <trkpt lat="49.35942" lon="-0.84416">
        <ele>13.575455</ele>
        <time>2022-08-03T12:50:18.000Z</time>
      </trkpt>
      <trkpt lat="49.35942" lon="-0.84422">
        <ele>13.724485</ele>
        <time>2022-08-03T12:50:19.000Z</time>
      </trkpt>
      <trkpt lat="49.35942" lon="-0.84427">
        <ele>13.867595</ele>
        <time>2022-08-03T12:50:20.000Z</time>
      </trkpt>
      <trkpt lat="49.35943" lon="-0.84432">
        <ele>14.008554</ele>
        <time>2022-08-03T12:50:21.000Z</time>
      </trkpt>
      <trkpt lat="49.35943" lon="-0.84437">
        <ele>14.143563</ele>
        <time>2022-08-03T12:50:22.000Z</time>
      </trkpt>
      <trkpt lat="49.35944" lon="-0.84442">
        <ele>14.284794</ele>
        <time>2022-08-03T12:50:23.000Z</time>
      </trkpt>
      <trkpt lat="49.35944" lon="-0.84447">
        <ele>14.420375</ele>
        <time>2022-08-03T12:50:24.000Z</time>
      </trkpt>
      <trkpt lat="49.35944" lon="-0.84452">
        <ele>14.555956</ele>
        <time>2022-08-03T12:50:25.000Z</time>
      </trkpt>
      <trkpt lat="49.35945" lon="-0.84457">
        <ele>14.692034</ele>
        <time>2022-08-03T12:50:26.000Z</time>
      </trkpt>
      <trkpt lat="49.35946" lon="-0.84462">
        <ele>14.827615</ele>
        <time>2022-08-03T12:50:27.000Z</time>
      </trkpt>
      <trkpt lat="49.35946" lon="-0.84466">
        <ele>14.949758</ele>
        <time>2022-08-03T12:50:28.000Z</time>
      </trkpt>
      <trkpt lat="49.35946" lon="-0.84471">
        <ele>15.063845</ele>
        <time>2022-08-03T12:50:29.000Z</time>
      </trkpt>
      <trkpt lat="49.35946" lon="-0.84474">
        <ele>15.166452</ele>
        <time>2022-08-03T12:50:30.000Z</time>
      </trkpt>
      <trkpt lat="49.35946" lon="-0.84478">
        <ele>15.274657</ele>
        <time>2022-08-03T12:50:31.000Z</time>
      </trkpt>
      <trkpt lat="49.35944" lon="-0.84482">
        <ele>15.385805</ele>
        <time>2022-08-03T12:50:32.000Z</time>
      </trkpt>
      <trkpt lat="49.35943" lon="-0.84485">
        <ele>15.488429</ele>
        <time>2022-08-03T12:50:33.000Z</time>
      </trkpt>
      <trkpt lat="49.3594" lon="-0.84487">
        <ele>15.613612</ele>
        <time>2022-08-03T12:50:34.000Z</time>
      </trkpt>
      <trkpt lat="49.35938" lon="-0.8449">
        <ele>15.725955</ele>
        <time>2022-08-03T12:50:35.000Z</time>
      </trkpt>
      <trkpt lat="49.35935" lon="-0.84492">
        <ele>15.872437</ele>
        <time>2022-08-03T12:50:36.000Z</time>
      </trkpt>
      <trkpt lat="49.35932" lon="-0.84494">
        <ele>16.004236</ele>
        <time>2022-08-03T12:50:37.000Z</time>
      </trkpt>
      <trkpt lat="49.35929" lon="-0.84496">
        <ele>16.132264</ele>
        <time>2022-08-03T12:50:38.000Z</time>
      </trkpt>
      <trkpt lat="49.35926" lon="-0.84498">
        <ele>16.266366</ele>
        <time>2022-08-03T12:50:39.000Z</time>
      </trkpt>
      <trkpt lat="49.35923" lon="-0.845">
        <ele>16.411724</ele>
        <time>2022-08-03T12:50:40.000Z</time>
      </trkpt>
      <trkpt lat="49.3592" lon="-0.84502">
        <ele>16.532285</ele>
        <time>2022-08-03T12:50:41.000Z</time>
      </trkpt>
      <trkpt lat="49.35918" lon="-0.84505">
        <ele>16.653112</ele>
        <time>2022-08-03T12:50:42.000Z</time>
      </trkpt>
      <trkpt lat="49.35915" lon="-0.84507">
        <ele>16.784911</ele>
        <time>2022-08-03T12:50:43.000Z</time>
      </trkpt>
      <trkpt lat="49.35912" lon="-0.84509">
        <ele>16.905472</ele>
        <time>2022-08-03T12:50:44.000Z</time>
      </trkpt>
      <trkpt lat="49.3591" lon="-0.84511">
        <ele>17.00578</ele>
        <time>2022-08-03T12:50:45.000Z</time>
      </trkpt>
      <trkpt lat="49.35908" lon="-0.84513">
        <ele>17.119251</ele>
        <time>2022-08-03T12:50:46.000Z</time>
      </trkpt>
      <trkpt lat="49.35906" lon="-0.84516">
        <ele>17.22966</ele>
        <time>2022-08-03T12:50:47.000Z</time>
      </trkpt>
      <trkpt lat="49.35905" lon="-0.84519">
        <ele>17.330239</ele>
        <time>2022-08-03T12:50:48.000Z</time>
      </trkpt>
      <trkpt lat="49.35903" lon="-0.84522">
        <ele>17.432863</ele>
        <time>2022-08-03T12:50:49.000Z</time>
      </trkpt>
      <trkpt lat="49.35902" lon="-0.84525">
        <ele>17.523369</ele>
        <time>2022-08-03T12:50:50.000Z</time>
      </trkpt>
      <trkpt lat="49.359" lon="-0.84528">
        <ele>17.718163</ele>
        <time>2022-08-03T12:50:51.000Z</time>
      </trkpt>
      <trkpt lat="49.35899" lon="-0.84531">
        <ele>17.920891</ele>
        <time>2022-08-03T12:50:52.000Z</time>
      </trkpt>
      <trkpt lat="49.35898" lon="-0.84534">
        <ele>18.112317</ele>
        <time>2022-08-03T12:50:53.000Z</time>
      </trkpt>
      <trkpt lat="49.35897" lon="-0.84538">
        <ele>18.309055</ele>
        <time>2022-08-03T12:50:54.000Z</time>
      </trkpt>
      <trkpt lat="49.35898" lon="-0.84541">
        <ele>18.488188</ele>
        <time>2022-08-03T12:50:55.000Z</time>
      </trkpt>
      <trkpt lat="49.35898" lon="-0.84544">
        <ele>18.66229</ele>
        <time>2022-08-03T12:50:56.000Z</time>
      </trkpt>
      <trkpt lat="49.35899" lon="-0.84548">
        <ele>18.843746</ele>
        <time>2022-08-03T12:50:57.000Z</time>
      </trkpt>
      <trkpt lat="49.35899" lon="-0.84552">
        <ele>19.064654</ele>
        <time>2022-08-03T12:50:58.000Z</time>
      </trkpt>
      <trkpt lat="49.359" lon="-0.84556">
        <ele>19.284361</ele>
        <time>2022-08-03T12:50:59.000Z</time>
      </trkpt>
      <trkpt lat="49.359" lon="-0.8456">
        <ele>19.503953</ele>
        <time>2022-08-03T12:51:00.000Z</time>
      </trkpt>
      <trkpt lat="49.35899" lon="-0.84564">
        <ele>19.728764</ele>
        <time>2022-08-03T12:51:01.000Z</time>
      </trkpt>
      <trkpt lat="49.35898" lon="-0.84568">
        <ele>19.92859</ele>
        <time>2022-08-03T12:51:02.000Z</time>
      </trkpt>
      <trkpt lat="49.35897" lon="-0.84571">
        <ele>20.12334</ele>
        <time>2022-08-03T12:51:03.000Z</time>
      </trkpt>
      <trkpt lat="49.35894" lon="-0.84572">
        <ele>20.323453</ele>
        <time>2022-08-03T12:51:04.000Z</time>
      </trkpt>
      <trkpt lat="49.35892" lon="-0.84573">
        <ele>20.538614</ele>
        <time>2022-08-03T12:51:05.000Z</time>
      </trkpt>
      <trkpt lat="49.35889" lon="-0.84574">
        <ele>20.76634</ele>
        <time>2022-08-03T12:51:06.000Z</time>
      </trkpt>
      <trkpt lat="49.35886" lon="-0.84575">
        <ele>20.979202</ele>
        <time>2022-08-03T12:51:07.000Z</time>
      </trkpt>
      <trkpt lat="49.35884" lon="-0.84575">
        <ele>21.157728</ele>
        <time>2022-08-03T12:51:08.000Z</time>
      </trkpt>
      <trkpt lat="49.35881" lon="-0.84575">
        <ele>21.39105</ele>
        <time>2022-08-03T12:51:09.000Z</time>
      </trkpt>
      <trkpt lat="49.35879" lon="-0.84576">
        <ele>21.601392</ele>
        <time>2022-08-03T12:51:10.000Z</time>
      </trkpt>
      <trkpt lat="49.35876" lon="-0.84576">
        <ele>21.834421</ele>
        <time>2022-08-03T12:51:11.000Z</time>
      </trkpt>
      <trkpt lat="49.35873" lon="-0.84577">
        <ele>22.097656</ele>
        <time>2022-08-03T12:51:12.000Z</time>
      </trkpt>
      <trkpt lat="49.3587" lon="-0.84579">
        <ele>22.295364</ele>
        <time>2022-08-03T12:51:13.000Z</time>
      </trkpt>
      <trkpt lat="49.35868" lon="-0.8458">
        <ele>22.493072</ele>
        <time>2022-08-03T12:51:14.000Z</time>
      </trkpt>
      <trkpt lat="49.35866" lon="-0.84582">
        <ele>22.705257</ele>
        <time>2022-08-03T12:51:15.000Z</time>
      </trkpt>
      <trkpt lat="49.35863" lon="-0.84585">
        <ele>22.939213</ele>
        <time>2022-08-03T12:51:16.000Z</time>
      </trkpt>
      <trkpt lat="49.35861" lon="-0.84587">
        <ele>23.194148</ele>
        <time>2022-08-03T12:51:17.000Z</time>
      </trkpt>
      <trkpt lat="49.35859" lon="-0.8459">
        <ele>23.373709</ele>
        <time>2022-08-03T12:51:18.000Z</time>
      </trkpt>
      <trkpt lat="49.35857" lon="-0.84593">
        <ele>23.60991</ele>
        <time>2022-08-03T12:51:19.000Z</time>
      </trkpt>
      <trkpt lat="49.35855" lon="-0.84596">
        <ele>23.869862</ele>
        <time>2022-08-03T12:51:20.000Z</time>
      </trkpt>
      <trkpt lat="49.35853" lon="-0.846">
        <ele>24.124175</ele>
        <time>2022-08-03T12:51:21.000Z</time>
      </trkpt>
      <trkpt lat="49.35851" lon="-0.84603">
        <ele>24.354461</ele>
        <time>2022-08-03T12:51:22.000Z</time>
      </trkpt>
      <trkpt lat="49.35849" lon="-0.84607">
        <ele>24.5979</ele>
        <time>2022-08-03T12:51:23.000Z</time>
      </trkpt>
      <trkpt lat="49.35847" lon="-0.8461">
        <ele>24.848372</ele>
        <time>2022-08-03T12:51:24.000Z</time>
      </trkpt>
      <trkpt lat="49.35845" lon="-0.84614">
        <ele>25.067683</ele>
        <time>2022-08-03T12:51:25.000Z</time>
      </trkpt>
      <trkpt lat="49.35844" lon="-0.84617">
        <ele>25.295552</ele>
        <time>2022-08-03T12:51:26.000Z</time>
      </trkpt>
      <trkpt lat="49.35843" lon="-0.84621">
        <ele>25.492292</ele>
        <time>2022-08-03T12:51:27.000Z</time>
      </trkpt>
      <trkpt lat="49.35841" lon="-0.84624">
        <ele>25.735731</ele>
        <time>2022-08-03T12:51:28.000Z</time>
      </trkpt>
      <trkpt lat="49.35839" lon="-0.84628">
        <ele>25.959301</ele>
        <time>2022-08-03T12:51:29.000Z</time>
      </trkpt>
      <trkpt lat="49.35837" lon="-0.84631">
        <ele>26.197523</ele>
        <time>2022-08-03T12:51:30.000Z</time>
      </trkpt>
      <trkpt lat="49.35836" lon="-0.84635">
        <ele>26.394263</ele>
        <time>2022-08-03T12:51:31.000Z</time>
      </trkpt>
      <trkpt lat="49.35835" lon="-0.84639">
        <ele>26.635251</ele>
        <time>2022-08-03T12:51:32.000Z</time>
      </trkpt>
      <trkpt lat="49.35833" lon="-0.84642">
        <ele>26.858821</ele>
        <time>2022-08-03T12:51:33.000Z</time>
      </trkpt>
      <trkpt lat="49.35832" lon="-0.84646">
        <ele>27.083241</ele>
        <time>2022-08-03T12:51:34.000Z</time>
      </trkpt>
      <trkpt lat="49.3583" lon="-0.8465">
        <ele>27.2939</ele>
        <time>2022-08-03T12:51:35.000Z</time>
      </trkpt>
      <trkpt lat="49.35829" lon="-0.84653">
        <ele>27.526108</ele>
        <time>2022-08-03T12:51:36.000Z</time>
      </trkpt>
      <trkpt lat="49.35828" lon="-0.84657">
        <ele>27.72775</ele>
        <time>2022-08-03T12:51:37.000Z</time>
      </trkpt>
      <trkpt lat="49.35826" lon="-0.8466">
        <ele>27.95217</ele>
        <time>2022-08-03T12:51:38.000Z</time>
      </trkpt>
      <trkpt lat="49.35825" lon="-0.84664">
        <ele>28.168279</ele>
        <time>2022-08-03T12:51:39.000Z</time>
      </trkpt>
      <trkpt lat="49.35824" lon="-0.84668">
        <ele>28.388083</ele>
        <time>2022-08-03T12:51:40.000Z</time>
      </trkpt>
      <trkpt lat="49.35823" lon="-0.84672">
        <ele>28.612098</ele>
        <time>2022-08-03T12:51:41.000Z</time>
      </trkpt>
      <trkpt lat="49.35821" lon="-0.84676">
        <ele>28.848679</ele>
        <time>2022-08-03T12:51:42.000Z</time>
      </trkpt>
      <trkpt lat="49.35821" lon="-0.8468">
        <ele>29.06959</ele>
        <time>2022-08-03T12:51:43.000Z</time>
      </trkpt>
      <trkpt lat="49.3582" lon="-0.84684">
        <ele>29.284202</ele>
        <time>2022-08-03T12:51:44.000Z</time>
      </trkpt>
      <trkpt lat="49.3582" lon="-0.84687">
        <ele>29.480635</ele>
        <time>2022-08-03T12:51:45.000Z</time>
      </trkpt>
      <trkpt lat="49.3582" lon="-0.84691">
        <ele>29.663631</ele>
        <time>2022-08-03T12:51:46.000Z</time>
      </trkpt>
      <trkpt lat="49.35819" lon="-0.84695">
        <ele>29.858577</ele>
        <time>2022-08-03T12:51:47.000Z</time>
      </trkpt>
      <trkpt lat="49.35819" lon="-0.84698">
        <ele>30.057935</ele>
        <time>2022-08-03T12:51:48.000Z</time>
      </trkpt>
      <trkpt lat="49.35817" lon="-0.84702">
        <ele>30.282356</ele>
        <time>2022-08-03T12:51:49.000Z</time>
      </trkpt>
      <trkpt lat="49.35817" lon="-0.84706">
        <ele>30.498911</ele>
        <time>2022-08-03T12:51:50.000Z</time>
      </trkpt>
      <trkpt lat="49.35816" lon="-0.84709">
        <ele>30.673123</ele>
        <time>2022-08-03T12:51:51.000Z</time>
      </trkpt>
      <trkpt lat="49.35817" lon="-0.84713">
        <ele>30.878449</ele>
        <time>2022-08-03T12:51:52.000Z</time>
      </trkpt>
      <trkpt lat="49.35816" lon="-0.84716">
        <ele>31.032395</ele>
        <time>2022-08-03T12:51:53.000Z</time>
      </trkpt>
      <trkpt lat="49.35816" lon="-0.84719">
        <ele>31.210162</ele>
        <time>2022-08-03T12:51:54.000Z</time>
      </trkpt>
      <trkpt lat="49.35816" lon="-0.84722">
        <ele>31.372244</ele>
        <time>2022-08-03T12:51:55.000Z</time>
      </trkpt>
      <trkpt lat="49.35815" lon="-0.84726">
        <ele>31.551636</ele>
        <time>2022-08-03T12:51:56.000Z</time>
      </trkpt>
      <trkpt lat="49.35815" lon="-0.84729">
        <ele>31.724175</ele>
        <time>2022-08-03T12:51:57.000Z</time>
      </trkpt>
      <trkpt lat="49.35815" lon="-0.84733">
        <ele>31.909966</ele>
        <time>2022-08-03T12:51:58.000Z</time>
      </trkpt>
      <trkpt lat="49.35815" lon="-0.84738">
        <ele>32.284135</ele>
        <time>2022-08-03T12:52:00.000Z</time>
      </trkpt>
      <trkpt lat="49.35814" lon="-0.84742">
        <ele>32.524072</ele>
        <time>2022-08-03T12:52:01.000Z</time>
      </trkpt>
      <trkpt lat="49.35813" lon="-0.84745">
        <ele>32.759702</ele>
        <time>2022-08-03T12:52:02.000Z</time>
      </trkpt>
      <trkpt lat="49.35813" lon="-0.84748">
        <ele>32.964044</ele>
        <time>2022-08-03T12:52:03.000Z</time>
      </trkpt>
      <trkpt lat="49.35813" lon="-0.84751">
        <ele>33.195631</ele>
        <time>2022-08-03T12:52:04.000Z</time>
      </trkpt>
      <trkpt lat="49.35813" lon="-0.84755">
        <ele>33.422585</ele>
        <time>2022-08-03T12:52:05.000Z</time>
      </trkpt>
      <trkpt lat="49.35813" lon="-0.84758">
        <ele>33.647361</ele>
        <time>2022-08-03T12:52:06.000Z</time>
      </trkpt>
      <trkpt lat="49.35814" lon="-0.84761">
        <ele>33.858019</ele>
        <time>2022-08-03T12:52:07.000Z</time>
      </trkpt>
      <trkpt lat="49.35815" lon="-0.84764">
        <ele>34.089198</ele>
        <time>2022-08-03T12:52:08.000Z</time>
      </trkpt>
      <trkpt lat="49.35815" lon="-0.84767">
        <ele>34.309408</ele>
        <time>2022-08-03T12:52:09.000Z</time>
      </trkpt>
      <trkpt lat="49.35815" lon="-0.84771">
        <ele>34.551449</ele>
        <time>2022-08-03T12:52:10.000Z</time>
      </trkpt>
      <trkpt lat="49.35817" lon="-0.84773">
        <ele>34.774092</ele>
        <time>2022-08-03T12:52:11.000Z</time>
      </trkpt>
      <trkpt lat="49.35817" lon="-0.84776">
        <ele>34.978377</ele>
        <time>2022-08-03T12:52:12.000Z</time>
      </trkpt>
      <trkpt lat="49.35819" lon="-0.84779">
        <ele>35.207078</ele>
        <time>2022-08-03T12:52:13.000Z</time>
      </trkpt>
      <trkpt lat="49.35819" lon="-0.84782">
        <ele>35.434032</ele>
        <time>2022-08-03T12:52:14.000Z</time>
      </trkpt>
      <trkpt lat="49.3582" lon="-0.84785">
        <ele>35.696722</ele>
        <time>2022-08-03T12:52:15.000Z</time>
      </trkpt>
      <trkpt lat="49.35821" lon="-0.84788">
        <ele>35.903978</ele>
        <time>2022-08-03T12:52:16.000Z</time>
      </trkpt>
      <trkpt lat="49.35821" lon="-0.84792">
        <ele>36.144432</ele>
        <time>2022-08-03T12:52:17.000Z</time>
      </trkpt>
      <trkpt lat="49.35822" lon="-0.84794">
        <ele>36.362329</ele>
        <time>2022-08-03T12:52:18.000Z</time>
      </trkpt>
      <trkpt lat="49.35824" lon="-0.84799">
        <ele>36.735363</ele>
        <time>2022-08-03T12:52:20.000Z</time>
      </trkpt>
      <trkpt lat="49.35825" lon="-0.84802">
        <ele>36.929927</ele>
        <time>2022-08-03T12:52:21.000Z</time>
      </trkpt>
      <trkpt lat="49.35825" lon="-0.84805">
        <ele>37.140585</ele>
        <time>2022-08-03T12:52:22.000Z</time>
      </trkpt>
      <trkpt lat="49.35826" lon="-0.84808">
        <ele>37.34732</ele>
        <time>2022-08-03T12:52:23.000Z</time>
      </trkpt>
      <trkpt lat="49.35827" lon="-0.84811">
        <ele>37.58295</ele>
        <time>2022-08-03T12:52:24.000Z</time>
      </trkpt>
      <trkpt lat="49.35827" lon="-0.84814">
        <ele>37.789686</ele>
        <time>2022-08-03T12:52:25.000Z</time>
      </trkpt>
      <trkpt lat="49.35828" lon="-0.84817">
        <ele>38.046572</ele>
        <time>2022-08-03T12:52:26.000Z</time>
      </trkpt>
      <trkpt lat="49.35829" lon="-0.8482">
        <ele>38.253307</ele>
        <time>2022-08-03T12:52:27.000Z</time>
      </trkpt>
      <trkpt lat="49.35829" lon="-0.84823">
        <ele>38.446588</ele>
        <time>2022-08-03T12:52:28.000Z</time>
      </trkpt>
      <trkpt lat="49.35829" lon="-0.84826">
        <ele>38.660345</ele>
        <time>2022-08-03T12:52:29.000Z</time>
      </trkpt>
      <trkpt lat="49.35831" lon="-0.84829">
        <ele>38.889046</ele>
        <time>2022-08-03T12:52:30.000Z</time>
      </trkpt>
      <trkpt lat="49.35831" lon="-0.84832">
        <ele>39.106103</ele>
        <time>2022-08-03T12:52:31.000Z</time>
      </trkpt>
      <trkpt lat="49.35832" lon="-0.84835">
        <ele>39.326313</ele>
        <time>2022-08-03T12:52:32.000Z</time>
      </trkpt>
      <trkpt lat="49.35833" lon="-0.84838">
        <ele>39.557491</ele>
        <time>2022-08-03T12:52:33.000Z</time>
      </trkpt>
      <trkpt lat="49.35833" lon="-0.84841">
        <ele>39.792825</ele>
        <time>2022-08-03T12:52:34.000Z</time>
      </trkpt>
      <trkpt lat="49.35833" lon="-0.84844">
        <ele>40.003977</ele>
        <time>2022-08-03T12:52:35.000Z</time>
      </trkpt>
      <trkpt lat="49.35834" lon="-0.84847">
        <ele>40.211232</ele>
        <time>2022-08-03T12:52:36.000Z</time>
      </trkpt>
      <trkpt lat="49.35835" lon="-0.8485">
        <ele>40.416899</ele>
        <time>2022-08-03T12:52:37.000Z</time>
      </trkpt>
      <trkpt lat="49.35835" lon="-0.84853">
        <ele>40.630657</ele>
        <time>2022-08-03T12:52:38.000Z</time>
      </trkpt>
      <trkpt lat="49.35836" lon="-0.84856">
        <ele>40.837391</ele>
        <time>2022-08-03T12:52:39.000Z</time>
      </trkpt>
      <trkpt lat="49.35836" lon="-0.84859">
        <ele>41.055355</ele>
        <time>2022-08-03T12:52:40.000Z</time>
      </trkpt>
      <trkpt lat="49.35836" lon="-0.84862">
        <ele>41.291749</ele>
        <time>2022-08-03T12:52:41.000Z</time>
      </trkpt>
      <trkpt lat="49.35837" lon="-0.84865">
        <ele>41.498484</ele>
        <time>2022-08-03T12:52:42.000Z</time>
      </trkpt>
      <trkpt lat="49.35837" lon="-0.84868">
        <ele>41.6928</ele>
        <time>2022-08-03T12:52:43.000Z</time>
      </trkpt>
      <trkpt lat="49.35837" lon="-0.84871">
        <ele>41.913009</ele>
        <time>2022-08-03T12:52:44.000Z</time>
      </trkpt>
      <trkpt lat="49.35838" lon="-0.84874">
        <ele>42.142555</ele>
        <time>2022-08-03T12:52:45.000Z</time>
      </trkpt>
      <trkpt lat="49.35839" lon="-0.8488">
        <ele>42.542565</ele>
        <time>2022-08-03T12:52:47.000Z</time>
      </trkpt>
      <trkpt lat="49.35839" lon="-0.84883">
        <ele>42.737816</ele>
        <time>2022-08-03T12:52:48.000Z</time>
      </trkpt>
      <trkpt lat="49.35839" lon="-0.84886">
        <ele>42.935345</ele>
        <time>2022-08-03T12:52:49.000Z</time>
      </trkpt>
      <trkpt lat="49.35839" lon="-0.84889">
        <ele>43.146496</ele>
        <time>2022-08-03T12:52:50.000Z</time>
      </trkpt>
      <trkpt lat="49.35839" lon="-0.84892">
        <ele>43.344025</ele>
        <time>2022-08-03T12:52:51.000Z</time>
      </trkpt>
      <trkpt lat="49.3584" lon="-0.84895">
        <ele>43.557782</ele>
        <time>2022-08-03T12:52:52.000Z</time>
      </trkpt>
      <trkpt lat="49.3584" lon="-0.84898">
        <ele>43.762123</ele>
        <time>2022-08-03T12:52:53.000Z</time>
      </trkpt>
      <trkpt lat="49.35841" lon="-0.84903">
        <ele>44.105385</ele>
        <time>2022-08-03T12:52:55.000Z</time>
      </trkpt>
      <trkpt lat="49.35841" lon="-0.84908">
        <ele>44.460961</ele>
        <time>2022-08-03T12:52:57.000Z</time>
      </trkpt>
      <trkpt lat="49.35842" lon="-0.84911">
        <ele>44.667696</ele>
        <time>2022-08-03T12:52:58.000Z</time>
      </trkpt>
      <trkpt lat="49.35842" lon="-0.84914">
        <ele>44.887973</ele>
        <time>2022-08-03T12:52:59.000Z</time>
      </trkpt>
      <trkpt lat="49.35843" lon="-0.84918">
        <ele>45.156889</ele>
        <time>2022-08-03T12:53:00.000Z</time>
      </trkpt>
      <trkpt lat="49.35843" lon="-0.84922">
        <ele>45.436154</ele>
        <time>2022-08-03T12:53:01.000Z</time>
      </trkpt>
      <trkpt lat="49.35842" lon="-0.84926">
        <ele>45.7118</ele>
        <time>2022-08-03T12:53:02.000Z</time>
      </trkpt>
      <trkpt lat="49.35843" lon="-0.8493">
        <ele>46.014404</ele>
        <time>2022-08-03T12:53:03.000Z</time>
      </trkpt>
      <trkpt lat="49.35843" lon="-0.84935">
        <ele>46.356413</ele>
        <time>2022-08-03T12:53:04.000Z</time>
      </trkpt>
      <trkpt lat="49.35844" lon="-0.8494">
        <ele>46.689324</ele>
        <time>2022-08-03T12:53:05.000Z</time>
      </trkpt>
      <trkpt lat="49.35844" lon="-0.84945">
        <ele>47.057672</ele>
        <time>2022-08-03T12:53:06.000Z</time>
      </trkpt>
      <trkpt lat="49.35845" lon="-0.84951">
        <ele>47.471141</ele>
        <time>2022-08-03T12:53:07.000Z</time>
      </trkpt>
      <trkpt lat="49.35845" lon="-0.84958">
        <ele>47.913878</ele>
        <time>2022-08-03T12:53:08.000Z</time>
      </trkpt>
      <trkpt lat="49.35845" lon="-0.84964">
        <ele>48.337344</ele>
        <time>2022-08-03T12:53:09.000Z</time>
      </trkpt>
      <trkpt lat="49.35845" lon="-0.8497">
        <ele>48.732402</ele>
        <time>2022-08-03T12:53:10.000Z</time>
      </trkpt>
      <trkpt lat="49.35845" lon="-0.84975">
        <ele>49.100214</ele>
        <time>2022-08-03T12:53:11.000Z</time>
      </trkpt>
      <trkpt lat="49.35846" lon="-0.8498">
        <ele>49.473247</ele>
        <time>2022-08-03T12:53:12.000Z</time>
      </trkpt>
      <trkpt lat="49.35847" lon="-0.84985">
        <ele>49.815256</ele>
        <time>2022-08-03T12:53:13.000Z</time>
      </trkpt>
      <trkpt lat="49.35847" lon="-0.84991">
        <ele>50.170832</ele>
        <time>2022-08-03T12:53:14.000Z</time>
      </trkpt>
      <trkpt lat="49.35847" lon="-0.84996">
        <ele>50.545455</ele>
        <time>2022-08-03T12:53:15.000Z</time>
      </trkpt>
      <trkpt lat="49.35847" lon="-0.85002">
        <ele>50.82222</ele>
        <time>2022-08-03T12:53:16.000Z</time>
      </trkpt>
      <trkpt lat="49.35847" lon="-0.85007">
        <ele>50.908607</ele>
        <time>2022-08-03T12:53:17.000Z</time>
      </trkpt>
      <trkpt lat="49.35847" lon="-0.85013">
        <ele>50.992118</ele>
        <time>2022-08-03T12:53:18.000Z</time>
      </trkpt>
      <trkpt lat="49.35847" lon="-0.85018">
        <ele>51.078204</ele>
        <time>2022-08-03T12:53:19.000Z</time>
      </trkpt>
      <trkpt lat="49.35848" lon="-0.85024">
        <ele>51.165489</ele>
        <time>2022-08-03T12:53:20.000Z</time>
      </trkpt>
      <trkpt lat="49.35848" lon="-0.85029">
        <ele>51.254705</ele>
        <time>2022-08-03T12:53:21.000Z</time>
      </trkpt>
      <trkpt lat="49.35848" lon="-0.85035">
        <ele>51.342653</ele>
        <time>2022-08-03T12:53:22.000Z</time>
      </trkpt>
      <trkpt lat="49.35848" lon="-0.8504">
        <ele>51.42904</ele>
        <time>2022-08-03T12:53:23.000Z</time>
      </trkpt>
      <trkpt lat="49.35847" lon="-0.85046">
        <ele>51.521436</ele>
        <time>2022-08-03T12:53:24.000Z</time>
      </trkpt>
      <trkpt lat="49.35845" lon="-0.85051">
        <ele>51.605833</ele>
        <time>2022-08-03T12:53:25.000Z</time>
      </trkpt>
      <trkpt lat="49.35843" lon="-0.85055">
        <ele>51.684248</ele>
        <time>2022-08-03T12:53:26.000Z</time>
      </trkpt>
      <trkpt lat="49.3584" lon="-0.85057">
        <ele>51.772759</ele>
        <time>2022-08-03T12:53:27.000Z</time>
      </trkpt>
      <trkpt lat="49.35836" lon="-0.8506">
        <ele>51.872108</ele>
        <time>2022-08-03T12:53:28.000Z</time>
      </trkpt>
      <trkpt lat="49.35832" lon="-0.85062">
        <ele>51.984262</ele>
        <time>2022-08-03T12:53:29.000Z</time>
      </trkpt>
      <trkpt lat="49.35828" lon="-0.85063">
        <ele>52.069814</ele>
        <time>2022-08-03T12:53:30.000Z</time>
      </trkpt>
      <trkpt lat="49.35824" lon="-0.85064">
        <ele>52.178677</ele>
        <time>2022-08-03T12:53:31.000Z</time>
      </trkpt>
      <trkpt lat="49.3582" lon="-0.85065">
        <ele>52.264229</ele>
        <time>2022-08-03T12:53:32.000Z</time>
      </trkpt>
      <trkpt lat="49.35816" lon="-0.85065">
        <ele>52.373091</ele>
        <time>2022-08-03T12:53:33.000Z</time>
      </trkpt>
      <trkpt lat="49.35812" lon="-0.85067">
        <ele>52.468676</ele>
        <time>2022-08-03T12:53:34.000Z</time>
      </trkpt>
      <trkpt lat="49.35809" lon="-0.85067">
        <ele>52.546352</ele>
        <time>2022-08-03T12:53:35.000Z</time>
      </trkpt>
      <trkpt lat="49.35805" lon="-0.85068">
        <ele>52.630592</ele>
        <time>2022-08-03T12:53:36.000Z</time>
      </trkpt>
      <trkpt lat="49.35802" lon="-0.85068">
        <ele>52.715411</ele>
        <time>2022-08-03T12:53:37.000Z</time>
      </trkpt>
      <trkpt lat="49.35799" lon="-0.85068">
        <ele>52.785119</ele>
        <time>2022-08-03T12:53:38.000Z</time>
      </trkpt>
      <trkpt lat="49.35797" lon="-0.85069">
        <ele>52.838356</ele>
        <time>2022-08-03T12:53:39.000Z</time>
      </trkpt>
      <trkpt lat="49.35794" lon="-0.85069">
        <ele>52.901325</ele>
        <time>2022-08-03T12:53:40.000Z</time>
      </trkpt>
      <trkpt lat="49.35791" lon="-0.8507">
        <ele>52.972131</ele>
        <time>2022-08-03T12:53:42.000Z</time>
      </trkpt>
      <trkpt lat="49.35789" lon="-0.85071">
        <ele>53.019476</ele>
        <time>2022-08-03T12:53:43.000Z</time>
      </trkpt>
      <trkpt lat="49.35787" lon="-0.85071">
        <ele>53.065801</ele>
        <time>2022-08-03T12:53:44.000Z</time>
      </trkpt>
      <trkpt lat="49.35785" lon="-0.85072">
        <ele>53.111887</ele>
        <time>2022-08-03T12:53:45.000Z</time>
      </trkpt>
      <trkpt lat="49.35783" lon="-0.85072">
        <ele>53.167181</ele>
        <time>2022-08-03T12:53:46.000Z</time>
      </trkpt>
      <trkpt lat="49.35781" lon="-0.85072">
        <ele>53.22734</ele>
        <time>2022-08-03T12:53:47.000Z</time>
      </trkpt>
      <trkpt lat="49.35778" lon="-0.85072">
        <ele>53.29703</ele>
        <time>2022-08-03T12:53:48.000Z</time>
      </trkpt>
      <trkpt lat="49.35775" lon="-0.85072">
        <ele>53.359589</ele>
        <time>2022-08-03T12:53:49.000Z</time>
      </trkpt>
      <trkpt lat="49.35773" lon="-0.85073">
        <ele>53.420396</ele>
        <time>2022-08-03T12:53:50.000Z</time>
      </trkpt>
      <trkpt lat="49.35769" lon="-0.85074">
        <ele>53.498575</ele>
        <time>2022-08-03T12:53:51.000Z</time>
      </trkpt>
      <trkpt lat="49.35767" lon="-0.85075">
        <ele>53.55602</ele>
        <time>2022-08-03T12:53:52.000Z</time>
      </trkpt>
      <trkpt lat="49.35764" lon="-0.85076">
        <ele>53.625475</ele>
        <time>2022-08-03T12:53:53.000Z</time>
      </trkpt>
      <trkpt lat="49.35761" lon="-0.85078">
        <ele>53.717476</ele>
        <time>2022-08-03T12:53:55.000Z</time>
      </trkpt>
      <trkpt lat="49.35757" lon="-0.85079">
        <ele>53.795655</ele>
        <time>2022-08-03T12:53:57.000Z</time>
      </trkpt>
      <trkpt lat="49.35748" lon="-0.85073">
        <ele>54.034064</ele>
        <time>2022-08-03T12:55:27.000Z</time>
      </trkpt>
      <trkpt lat="49.35748" lon="-0.85069">
        <ele>54.094371</ele>
        <time>2022-08-03T12:55:28.000Z</time>
      </trkpt>
      <trkpt lat="49.35748" lon="-0.85066">
        <ele>54.145726</ele>
        <time>2022-08-03T12:55:29.000Z</time>
      </trkpt>
      <trkpt lat="49.3575" lon="-0.85064">
        <ele>54.202861</ele>
        <time>2022-08-03T12:55:30.000Z</time>
      </trkpt>
      <trkpt lat="49.35753" lon="-0.85061">
        <ele>54.292964</ele>
        <time>2022-08-03T12:55:31.000Z</time>
      </trkpt>
      <trkpt lat="49.35756" lon="-0.85058">
        <ele>54.377221</ele>
        <time>2022-08-03T12:55:32.000Z</time>
      </trkpt>
      <trkpt lat="49.3576" lon="-0.85057">
        <ele>54.465923</ele>
        <time>2022-08-03T12:55:33.000Z</time>
      </trkpt>
      <trkpt lat="49.35763" lon="-0.85054">
        <ele>54.556808</ele>
        <time>2022-08-03T12:55:34.000Z</time>
      </trkpt>
      <trkpt lat="49.35767" lon="-0.85052">
        <ele>54.658098</ele>
        <time>2022-08-03T12:55:35.000Z</time>
      </trkpt>
      <trkpt lat="49.35771" lon="-0.85048">
        <ele>54.760496</ele>
        <time>2022-08-03T12:55:36.000Z</time>
      </trkpt>
      <trkpt lat="49.35773" lon="-0.85044">
        <ele>54.849274</ele>
        <time>2022-08-03T12:55:37.000Z</time>
      </trkpt>
      <trkpt lat="49.35776" lon="-0.85041">
        <ele>54.930341</ele>
        <time>2022-08-03T12:55:38.000Z</time>
      </trkpt>
      <trkpt lat="49.35779" lon="-0.85039">
        <ele>55.00878</ele>
        <time>2022-08-03T12:55:39.000Z</time>
      </trkpt>
      <trkpt lat="49.35781" lon="-0.85038">
        <ele>55.055105</ele>
        <time>2022-08-03T12:55:40.000Z</time>
      </trkpt>
      <trkpt lat="49.35783" lon="-0.85039">
        <ele>55.110241</ele>
        <time>2022-08-03T12:55:41.000Z</time>
      </trkpt>
      <trkpt lat="49.35785" lon="-0.85041">
        <ele>55.122706</ele>
        <time>2022-08-03T12:55:42.000Z</time>
      </trkpt>
      <trkpt lat="49.35786" lon="-0.85043">
        <ele>55.133807</ele>
        <time>2022-08-03T12:55:43.000Z</time>
      </trkpt>
      <trkpt lat="49.35788" lon="-0.85047">
        <ele>55.153258</ele>
        <time>2022-08-03T12:55:45.000Z</time>
      </trkpt>
      <trkpt lat="49.35789" lon="-0.8505">
        <ele>55.164784</ele>
        <time>2022-08-03T12:55:46.000Z</time>
      </trkpt>
      <trkpt lat="49.35789" lon="-0.85053">
        <ele>55.177868</ele>
        <time>2022-08-03T12:55:47.000Z</time>
      </trkpt>
      <trkpt lat="49.3579" lon="-0.85056">
        <ele>55.193244</ele>
        <time>2022-08-03T12:55:48.000Z</time>
      </trkpt>
      <trkpt lat="49.35791" lon="-0.8506">
        <ele>55.207189</ele>
        <time>2022-08-03T12:55:49.000Z</time>
      </trkpt>
      <trkpt lat="49.35793" lon="-0.85063">
        <ele>55.221021</ele>
        <time>2022-08-03T12:55:50.000Z</time>
      </trkpt>
      <trkpt lat="49.35794" lon="-0.85065">
        <ele>55.233224</ele>
        <time>2022-08-03T12:55:51.000Z</time>
      </trkpt>
      <trkpt lat="49.35793" lon="-0.85069">
        <ele>55.246685</ele>
        <time>2022-08-03T12:55:52.000Z</time>
      </trkpt>
      <trkpt lat="49.35792" lon="-0.85072">
        <ele>55.260842</ele>
        <time>2022-08-03T12:55:53.000Z</time>
      </trkpt>
      <trkpt lat="49.35791" lon="-0.85075">
        <ele>55.274477</ele>
        <time>2022-08-03T12:55:55.000Z</time>
      </trkpt>
      <trkpt lat="49.35787" lon="-0.85084">
        <ele>55.319957</ele>
        <time>2022-08-03T12:56:27.000Z</time>
      </trkpt>
      <trkpt lat="49.35785" lon="-0.8508">
        <ele>55.3384</ele>
        <time>2022-08-03T12:56:28.000Z</time>
      </trkpt>
      <trkpt lat="49.35783" lon="-0.85077">
        <ele>55.354994</ele>
        <time>2022-08-03T12:56:29.000Z</time>
      </trkpt>
      <trkpt lat="49.35781" lon="-0.85075">
        <ele>55.371998</ele>
        <time>2022-08-03T12:56:30.000Z</time>
      </trkpt>
      <trkpt lat="49.35778" lon="-0.85074">
        <ele>55.390222</ele>
        <time>2022-08-03T12:56:31.000Z</time>
      </trkpt>
      <trkpt lat="49.35774" lon="-0.85074">
        <ele>55.413144</ele>
        <time>2022-08-03T12:56:32.000Z</time>
      </trkpt>
      <trkpt lat="49.3577" lon="-0.85074">
        <ele>55.436698</ele>
        <time>2022-08-03T12:56:33.000Z</time>
      </trkpt>
      <trkpt lat="49.35766" lon="-0.85076">
        <ele>55.4601</ele>
        <time>2022-08-03T12:56:34.000Z</time>
      </trkpt>
      <trkpt lat="49.35763" lon="-0.85077">
        <ele>55.479799</ele>
        <time>2022-08-03T12:56:35.000Z</time>
      </trkpt>
      <trkpt lat="49.3576" lon="-0.85078">
        <ele>55.497728</ele>
        <time>2022-08-03T12:56:36.000Z</time>
      </trkpt>
      <trkpt lat="49.35758" lon="-0.85078">
        <ele>55.509356</ele>
        <time>2022-08-03T12:56:37.000Z</time>
      </trkpt>
      <trkpt lat="49.35754" lon="-0.85074">
        <ele>55.540148</ele>
        <time>2022-08-03T12:57:00.000Z</time>
      </trkpt>
      <trkpt lat="49.35751" lon="-0.85069">
        <ele>55.565506</ele>
        <time>2022-08-03T12:57:02.000Z</time>
      </trkpt>
      <trkpt lat="49.35751" lon="-0.85065">
        <ele>55.581406</ele>
        <time>2022-08-03T12:57:03.000Z</time>
      </trkpt>
      <trkpt lat="49.35752" lon="-0.85061">
        <ele>55.596167</ele>
        <time>2022-08-03T12:57:04.000Z</time>
      </trkpt>
      <trkpt lat="49.35754" lon="-0.85059">
        <ele>55.611261</ele>
        <time>2022-08-03T12:57:05.000Z</time>
      </trkpt>
      <trkpt lat="49.35756" lon="-0.85058">
        <ele>55.627638</ele>
        <time>2022-08-03T12:57:06.000Z</time>
      </trkpt>
      <trkpt lat="49.35759" lon="-0.85057">
        <ele>55.647136</ele>
        <time>2022-08-03T12:57:07.000Z</time>
      </trkpt>
      <trkpt lat="49.35763" lon="-0.85057">
        <ele>55.670088</ele>
        <time>2022-08-03T12:57:08.000Z</time>
      </trkpt>
      <trkpt lat="49.35767" lon="-0.85055">
        <ele>55.695933</ele>
        <time>2022-08-03T12:57:09.000Z</time>
      </trkpt>
      <trkpt lat="49.35772" lon="-0.85052">
        <ele>55.723329</ele>
        <time>2022-08-03T12:57:10.000Z</time>
      </trkpt>
      <trkpt lat="49.35775" lon="-0.85048">
        <ele>55.752523</ele>
        <time>2022-08-03T12:57:11.000Z</time>
      </trkpt>
      <trkpt lat="49.35779" lon="-0.85043">
        <ele>55.781471</ele>
        <time>2022-08-03T12:57:12.000Z</time>
      </trkpt>
      <trkpt lat="49.35782" lon="-0.8504">
        <ele>55.80109</ele>
        <time>2022-08-03T12:57:13.000Z</time>
      </trkpt>
      <trkpt lat="49.35784" lon="-0.8504">
        <ele>55.814569</ele>
        <time>2022-08-03T12:57:14.000Z</time>
      </trkpt>
      <trkpt lat="49.35786" lon="-0.85041">
        <ele>55.825488</ele>
        <time>2022-08-03T12:57:15.000Z</time>
      </trkpt>
      <trkpt lat="49.35787" lon="-0.85044">
        <ele>55.839788</ele>
        <time>2022-08-03T12:57:16.000Z</time>
      </trkpt>
      <trkpt lat="49.35787" lon="-0.85048">
        <ele>55.855915</ele>
        <time>2022-08-03T12:57:17.000Z</time>
      </trkpt>
      <trkpt lat="49.35789" lon="-0.85053">
        <ele>55.874185</ele>
        <time>2022-08-03T12:57:18.000Z</time>
      </trkpt>
      <trkpt lat="49.35789" lon="-0.85056">
        <ele>55.887646</ele>
        <time>2022-08-03T12:57:19.000Z</time>
      </trkpt>
      <trkpt lat="49.35791" lon="-0.85059">
        <ele>55.904446</ele>
        <time>2022-08-03T12:57:20.000Z</time>
      </trkpt>
      <trkpt lat="49.35792" lon="-0.85062">
        <ele>55.916649</ele>
        <time>2022-08-03T12:57:21.000Z</time>
      </trkpt>
      <trkpt lat="49.35792" lon="-0.85065">
        <ele>55.927858</ele>
        <time>2022-08-03T12:57:22.000Z</time>
      </trkpt>
      <trkpt lat="49.35792" lon="-0.85068">
        <ele>55.939439</ele>
        <time>2022-08-03T12:57:23.000Z</time>
      </trkpt>
      <trkpt lat="49.35791" lon="-0.8507">
        <ele>55.951222</ele>
        <time>2022-08-03T12:57:24.000Z</time>
      </trkpt>
      <trkpt lat="49.3579" lon="-0.85073">
        <ele>55.964721</ele>
        <time>2022-08-03T12:57:25.000Z</time>
      </trkpt>
      <trkpt lat="49.35789" lon="-0.85076">
        <ele>55.976504</ele>
        <time>2022-08-03T12:57:26.000Z</time>
      </trkpt>
      <trkpt lat="49.35789" lon="-0.85082">
        <ele>55.998972</ele>
        <time>2022-08-03T12:57:28.000Z</time>
      </trkpt>
      <trkpt lat="49.35789" lon="-0.85085">
        <ele>56.011152</ele>
        <time>2022-08-03T12:57:29.000Z</time>
      </trkpt>
      <trkpt lat="49.35789" lon="-0.85088">
        <ele>56.02451</ele>
        <time>2022-08-03T12:57:30.000Z</time>
      </trkpt>
      <trkpt lat="49.35789" lon="-0.85091">
        <ele>56.035659</ele>
        <time>2022-08-03T12:57:31.000Z</time>
      </trkpt>
      <trkpt lat="49.35789" lon="-0.85096">
        <ele>56.055386</ele>
        <time>2022-08-03T12:57:33.000Z</time>
      </trkpt>
      <trkpt lat="49.35789" lon="-0.85101">
        <ele>56.074332</ele>
        <time>2022-08-03T12:57:35.000Z</time>
      </trkpt>
      <trkpt lat="49.35788" lon="-0.85104">
        <ele>56.089821</ele>
        <time>2022-08-03T12:57:36.000Z</time>
      </trkpt>
      <trkpt lat="49.35787" lon="-0.85108">
        <ele>56.105184</ele>
        <time>2022-08-03T12:57:37.000Z</time>
      </trkpt>
      <trkpt lat="49.35787" lon="-0.85112">
        <ele>56.120113</ele>
        <time>2022-08-03T12:57:38.000Z</time>
      </trkpt>
      <trkpt lat="49.35787" lon="-0.85116">
        <ele>56.137794</ele>
        <time>2022-08-03T12:57:39.000Z</time>
      </trkpt>
      <trkpt lat="49.35787" lon="-0.85121">
        <ele>56.155566</ele>
        <time>2022-08-03T12:57:40.000Z</time>
      </trkpt>
      <trkpt lat="49.35787" lon="-0.85125">
        <ele>56.172948</ele>
        <time>2022-08-03T12:57:41.000Z</time>
      </trkpt>
      <trkpt lat="49.35788" lon="-0.8513">
        <ele>56.189939</ele>
        <time>2022-08-03T12:57:42.000Z</time>
      </trkpt>
      <trkpt lat="49.35788" lon="-0.85134">
        <ele>56.220987</ele>
        <time>2022-08-03T12:57:43.000Z</time>
      </trkpt>
      <trkpt lat="49.35788" lon="-0.85139">
        <ele>56.265786</ele>
        <time>2022-08-03T12:57:44.000Z</time>
      </trkpt>
      <trkpt lat="49.35788" lon="-0.85144">
        <ele>56.307719</ele>
        <time>2022-08-03T12:57:45.000Z</time>
      </trkpt>
      <trkpt lat="49.35788" lon="-0.85148">
        <ele>56.350544</ele>
        <time>2022-08-03T12:57:46.000Z</time>
      </trkpt>
      <trkpt lat="49.35788" lon="-0.85153">
        <ele>56.390015</ele>
        <time>2022-08-03T12:57:47.000Z</time>
      </trkpt>
      <trkpt lat="49.35788" lon="-0.85158">
        <ele>56.43284</ele>
        <time>2022-08-03T12:57:48.000Z</time>
      </trkpt>
      <trkpt lat="49.35789" lon="-0.85162">
        <ele>56.476725</ele>
        <time>2022-08-03T12:57:49.000Z</time>
      </trkpt>
      <trkpt lat="49.35789" lon="-0.85167">
        <ele>56.518658</ele>
        <time>2022-08-03T12:57:50.000Z</time>
      </trkpt>
      <trkpt lat="49.35789" lon="-0.85172">
        <ele>56.561389</ele>
        <time>2022-08-03T12:57:51.000Z</time>
      </trkpt>
      <trkpt lat="49.35789" lon="-0.85177">
        <ele>56.604411</ele>
        <time>2022-08-03T12:57:52.000Z</time>
      </trkpt>
      <trkpt lat="49.3579" lon="-0.85181">
        <ele>56.649374</ele>
        <time>2022-08-03T12:57:53.000Z</time>
      </trkpt>
      <trkpt lat="49.35791" lon="-0.85187">
        <ele>56.695949</ele>
        <time>2022-08-03T12:57:54.000Z</time>
      </trkpt>
      <trkpt lat="49.35791" lon="-0.85192">
        <ele>56.74502</ele>
        <time>2022-08-03T12:57:55.000Z</time>
      </trkpt>
      <trkpt lat="49.35791" lon="-0.85197">
        <ele>56.791413</ele>
        <time>2022-08-03T12:57:56.000Z</time>
      </trkpt>
      <trkpt lat="49.35791" lon="-0.85203">
        <ele>56.838878</ele>
        <time>2022-08-03T12:57:57.000Z</time>
      </trkpt>
      <trkpt lat="49.35791" lon="-0.85208">
        <ele>56.886164</ele>
        <time>2022-08-03T12:57:58.000Z</time>
      </trkpt>
      <trkpt lat="49.35791" lon="-0.85214">
        <ele>56.937019</ele>
        <time>2022-08-03T12:57:59.000Z</time>
      </trkpt>
      <trkpt lat="49.35791" lon="-0.85219">
        <ele>56.986394</ele>
        <time>2022-08-03T12:58:00.000Z</time>
      </trkpt>
      <trkpt lat="49.35792" lon="-0.85224">
        <ele>57.031193</ele>
        <time>2022-08-03T12:58:01.000Z</time>
      </trkpt>
      <trkpt lat="49.35792" lon="-0.85229">
        <ele>57.075802</ele>
        <time>2022-08-03T12:58:02.000Z</time>
      </trkpt>
      <trkpt lat="49.35792" lon="-0.85234">
        <ele>57.122196</ele>
        <time>2022-08-03T12:58:03.000Z</time>
      </trkpt>
      <trkpt lat="49.35792" lon="-0.8524">
        <ele>57.169482</ele>
        <time>2022-08-03T12:58:04.000Z</time>
      </trkpt>
      <trkpt lat="49.35792" lon="-0.85245">
        <ele>57.216598</ele>
        <time>2022-08-03T12:58:05.000Z</time>
      </trkpt>
      <trkpt lat="49.35792" lon="-0.8525">
        <ele>57.261208</ele>
        <time>2022-08-03T12:58:06.000Z</time>
      </trkpt>
      <trkpt lat="49.35791" lon="-0.85255">
        <ele>57.310074</ele>
        <time>2022-08-03T12:58:07.000Z</time>
      </trkpt>
      <trkpt lat="49.35791" lon="-0.8526">
        <ele>57.357677</ele>
        <time>2022-08-03T12:58:08.000Z</time>
      </trkpt>
      <trkpt lat="49.35791" lon="-0.85266">
        <ele>57.404071</ele>
        <time>2022-08-03T12:58:09.000Z</time>
      </trkpt>
      <trkpt lat="49.35791" lon="-0.8527">
        <ele>57.447093</ele>
        <time>2022-08-03T12:58:10.000Z</time>
      </trkpt>
      <trkpt lat="49.3579" lon="-0.85275">
        <ele>57.484789</ele>
        <time>2022-08-03T12:58:11.000Z</time>
      </trkpt>
      <trkpt lat="49.35789" lon="-0.85278">
        <ele>57.518438</ele>
        <time>2022-08-03T12:58:12.000Z</time>
      </trkpt>
      <trkpt lat="49.35787" lon="-0.85281">
        <ele>57.556415</ele>
        <time>2022-08-03T12:58:13.000Z</time>
      </trkpt>
      <trkpt lat="49.35784" lon="-0.85283">
        <ele>57.605597</ele>
        <time>2022-08-03T12:58:14.000Z</time>
      </trkpt>
      <trkpt lat="49.35781" lon="-0.85286">
        <ele>57.648594</ele>
        <time>2022-08-03T12:58:15.000Z</time>
      </trkpt>
      <trkpt lat="49.3578" lon="-0.85289">
        <ele>57.687226</ele>
        <time>2022-08-03T12:58:16.000Z</time>
      </trkpt>
      <trkpt lat="49.35778" lon="-0.85292">
        <ele>57.722515</ele>
        <time>2022-08-03T12:58:17.000Z</time>
      </trkpt>
      <trkpt lat="49.35778" lon="-0.85295">
        <ele>57.749595</ele>
        <time>2022-08-03T12:58:18.000Z</time>
      </trkpt>
      <trkpt lat="49.35778" lon="-0.85299">
        <ele>57.778145</ele>
        <time>2022-08-03T12:58:20.000Z</time>
      </trkpt>
      <trkpt lat="49.35783" lon="-0.85294">
        <ele>57.865986</ele>
        <time>2022-08-03T13:02:24.000Z</time>
      </trkpt>
      <trkpt lat="49.35786" lon="-0.85292">
        <ele>57.901471</ele>
        <time>2022-08-03T13:02:26.000Z</time>
      </trkpt>
      <trkpt lat="49.35784" lon="-0.85296">
        <ele>57.945641</ele>
        <time>2022-08-03T13:02:34.000Z</time>
      </trkpt>
      <trkpt lat="49.35783" lon="-0.853">
        <ele>57.978307</ele>
        <time>2022-08-03T13:02:36.000Z</time>
      </trkpt>
      <trkpt lat="49.35702" lon="-0.85304">
        <ele>58.815566</ele>
        <time>2022-08-03T14:46:03.000Z</time>
      </trkpt>
      <trkpt lat="49.35699" lon="-0.85304">
        <ele>58.828434</ele>
        <time>2022-08-03T14:46:04.000Z</time>
      </trkpt>
      <trkpt lat="49.35697" lon="-0.85305">
        <ele>58.841364</ele>
        <time>2022-08-03T14:46:05.000Z</time>
      </trkpt>
      <trkpt lat="49.35694" lon="-0.85305">
        <ele>58.852254</ele>
        <time>2022-08-03T14:46:06.000Z</time>
      </trkpt>
      <trkpt lat="49.35693" lon="-0.85305">
        <ele>58.861743</ele>
        <time>2022-08-03T14:46:07.000Z</time>
      </trkpt>
      <trkpt lat="49.35689" lon="-0.85305">
        <ele>58.87759</ele>
        <time>2022-08-03T14:46:08.000Z</time>
      </trkpt>
      <trkpt lat="49.35687" lon="-0.85305">
        <ele>58.887013</ele>
        <time>2022-08-03T14:46:09.000Z</time>
      </trkpt>
      <trkpt lat="49.35685" lon="-0.85306">
        <ele>58.898682</ele>
        <time>2022-08-03T14:46:10.000Z</time>
      </trkpt>
      <trkpt lat="49.35683" lon="-0.85307">
        <ele>58.908221</ele>
        <time>2022-08-03T14:46:11.000Z</time>
      </trkpt>
      <trkpt lat="49.35681" lon="-0.85306">
        <ele>58.921101</ele>
        <time>2022-08-03T14:46:12.000Z</time>
      </trkpt>
      <trkpt lat="49.35678" lon="-0.85306">
        <ele>58.933509</ele>
        <time>2022-08-03T14:46:13.000Z</time>
      </trkpt>
      <trkpt lat="49.35676" lon="-0.85306">
        <ele>58.944931</ele>
        <time>2022-08-03T14:46:14.000Z</time>
      </trkpt>
      <trkpt lat="49.35673" lon="-0.85306">
        <ele>58.957305</ele>
        <time>2022-08-03T14:46:15.000Z</time>
      </trkpt>
      <trkpt lat="49.35671" lon="-0.85306">
        <ele>58.970234</ele>
        <time>2022-08-03T14:46:16.000Z</time>
      </trkpt>
      <trkpt lat="49.35668" lon="-0.85306">
        <ele>58.984583</ele>
        <time>2022-08-03T14:46:17.000Z</time>
      </trkpt>
      <trkpt lat="49.35666" lon="-0.85306">
        <ele>58.995545</ele>
        <time>2022-08-03T14:46:18.000Z</time>
      </trkpt>
      <trkpt lat="49.35663" lon="-0.85306">
        <ele>59.006431</ele>
        <time>2022-08-03T14:46:19.000Z</time>
      </trkpt>
      <trkpt lat="49.35661" lon="-0.85306">
        <ele>59.019332</ele>
        <time>2022-08-03T14:46:20.000Z</time>
      </trkpt>
      <trkpt lat="49.35659" lon="-0.85305">
        <ele>59.030336</ele>
        <time>2022-08-03T14:46:21.000Z</time>
      </trkpt>
      <trkpt lat="49.35656" lon="-0.85304">
        <ele>59.043457</ele>
        <time>2022-08-03T14:46:22.000Z</time>
      </trkpt>
      <trkpt lat="49.35652" lon="-0.85303">
        <ele>59.062793</ele>
        <time>2022-08-03T14:46:24.000Z</time>
      </trkpt>
      <trkpt lat="49.35649" lon="-0.85301">
        <ele>59.079348</ele>
        <time>2022-08-03T14:46:26.000Z</time>
      </trkpt>
      <trkpt lat="49.35646" lon="-0.853">
        <ele>59.095507</ele>
        <time>2022-08-03T14:46:28.000Z</time>
      </trkpt>
      <trkpt lat="49.35644" lon="-0.853">
        <ele>59.10559</ele>
        <time>2022-08-03T14:46:29.000Z</time>
      </trkpt>
      <trkpt lat="49.35642" lon="-0.85298">
        <ele>59.116018</ele>
        <time>2022-08-03T14:46:30.000Z</time>
      </trkpt>
      <trkpt lat="49.3564" lon="-0.85297">
        <ele>59.125466</ele>
        <time>2022-08-03T14:46:31.000Z</time>
      </trkpt>
      <trkpt lat="49.35638" lon="-0.85294">
        <ele>59.139402</ele>
        <time>2022-08-03T14:46:32.000Z</time>
      </trkpt>
      <trkpt lat="49.35636" lon="-0.85291">
        <ele>59.152433</ele>
        <time>2022-08-03T14:46:33.000Z</time>
      </trkpt>
      <trkpt lat="49.35633" lon="-0.85288">
        <ele>59.172549</ele>
        <time>2022-08-03T14:46:35.000Z</time>
      </trkpt>
      <trkpt lat="49.3563" lon="-0.85286">
        <ele>59.188741</ele>
        <time>2022-08-03T14:46:37.000Z</time>
      </trkpt>
      <trkpt lat="49.35628" lon="-0.85285">
        <ele>59.199366</ele>
        <time>2022-08-03T14:46:38.000Z</time>
      </trkpt>
      <trkpt lat="49.35624" lon="-0.85281">
        <ele>59.220811</ele>
        <time>2022-08-03T14:46:40.000Z</time>
      </trkpt>
      <trkpt lat="49.35622" lon="-0.8528">
        <ele>59.233146</ele>
        <time>2022-08-03T14:46:41.000Z</time>
      </trkpt>
      <trkpt lat="49.3562" lon="-0.85277">
        <ele>59.24551</ele>
        <time>2022-08-03T14:46:42.000Z</time>
      </trkpt>
      <trkpt lat="49.35618" lon="-0.85276">
        <ele>59.254786</ele>
        <time>2022-08-03T14:46:43.000Z</time>
      </trkpt>
      <trkpt lat="49.35616" lon="-0.85274">
        <ele>59.268735</ele>
        <time>2022-08-03T14:46:44.000Z</time>
      </trkpt>
      <trkpt lat="49.35614" lon="-0.85273">
        <ele>59.278224</ele>
        <time>2022-08-03T14:46:45.000Z</time>
      </trkpt>
      <trkpt lat="49.35611" lon="-0.85277">
        <ele>59.297665</ele>
        <time>2022-08-03T14:46:47.000Z</time>
      </trkpt>
      <trkpt lat="49.3561" lon="-0.8528">
        <ele>59.307633</ele>
        <time>2022-08-03T14:46:48.000Z</time>
      </trkpt>
      <trkpt lat="49.35609" lon="-0.85282">
        <ele>59.317122</ele>
        <time>2022-08-03T14:46:49.000Z</time>
      </trkpt>
      <trkpt lat="49.35608" lon="-0.85285">
        <ele>59.326577</ele>
        <time>2022-08-03T14:46:50.000Z</time>
      </trkpt>
      <trkpt lat="49.35607" lon="-0.85287">
        <ele>59.336638</ele>
        <time>2022-08-03T14:46:51.000Z</time>
      </trkpt>
      <trkpt lat="49.35606" lon="-0.8529">
        <ele>59.347576</ele>
        <time>2022-08-03T14:46:52.000Z</time>
      </trkpt>
      <trkpt lat="49.35605" lon="-0.85294">
        <ele>59.359731</ele>
        <time>2022-08-03T14:46:53.000Z</time>
      </trkpt>
      <trkpt lat="49.35603" lon="-0.85297">
        <ele>59.374415</ele>
        <time>2022-08-03T14:46:54.000Z</time>
      </trkpt>
      <trkpt lat="49.35601" lon="-0.85299">
        <ele>59.385727</ele>
        <time>2022-08-03T14:46:55.000Z</time>
      </trkpt>
      <trkpt lat="49.35598" lon="-0.85301">
        <ele>59.399827</ele>
        <time>2022-08-03T14:46:56.000Z</time>
      </trkpt>
      <trkpt lat="49.35596" lon="-0.85302">
        <ele>59.409993</ele>
        <time>2022-08-03T14:46:57.000Z</time>
      </trkpt>
      <trkpt lat="49.35595" lon="-0.85304">
        <ele>59.419808</ele>
        <time>2022-08-03T14:46:58.000Z</time>
      </trkpt>
      <trkpt lat="49.35593" lon="-0.85305">
        <ele>59.429084</ele>
        <time>2022-08-03T14:46:59.000Z</time>
      </trkpt>
      <trkpt lat="49.35591" lon="-0.85309">
        <ele>59.445336</ele>
        <time>2022-08-03T14:47:01.000Z</time>
      </trkpt>
      <trkpt lat="49.3559" lon="-0.85312">
        <ele>59.455689</ele>
        <time>2022-08-03T14:47:03.000Z</time>
      </trkpt>
      <trkpt lat="49.35594" lon="-0.85307">
        <ele>59.483058</ele>
        <time>2022-08-03T14:47:24.000Z</time>
      </trkpt>
      <trkpt lat="49.35596" lon="-0.85305">
        <ele>59.494529</ele>
        <time>2022-08-03T14:47:25.000Z</time>
      </trkpt>
      <trkpt lat="49.35598" lon="-0.85303">
        <ele>59.50752</ele>
        <time>2022-08-03T14:47:26.000Z</time>
      </trkpt>
      <trkpt lat="49.356" lon="-0.853">
        <ele>59.520551</ele>
        <time>2022-08-03T14:47:27.000Z</time>
      </trkpt>
      <trkpt lat="49.35603" lon="-0.85297">
        <ele>59.535485</ele>
        <time>2022-08-03T14:47:28.000Z</time>
      </trkpt>
      <trkpt lat="49.35605" lon="-0.85293">
        <ele>59.549487</ele>
        <time>2022-08-03T14:47:29.000Z</time>
      </trkpt>
      <trkpt lat="49.35606" lon="-0.85289">
        <ele>59.548024</ele>
        <time>2022-08-03T14:47:30.000Z</time>
      </trkpt>
      <trkpt lat="49.35607" lon="-0.85284">
        <ele>59.546626</ele>
        <time>2022-08-03T14:47:31.000Z</time>
      </trkpt>
      <trkpt lat="49.35608" lon="-0.8528">
        <ele>59.545366</ele>
        <time>2022-08-03T14:47:32.000Z</time>
      </trkpt>
      <trkpt lat="49.35608" lon="-0.85277">
        <ele>59.544291</ele>
        <time>2022-08-03T14:47:33.000Z</time>
      </trkpt>
      <trkpt lat="49.35609" lon="-0.85273">
        <ele>59.543156</ele>
        <time>2022-08-03T14:47:34.000Z</time>
      </trkpt>
      <trkpt lat="49.35613" lon="-0.85272">
        <ele>59.541666</ele>
        <time>2022-08-03T14:47:36.000Z</time>
      </trkpt>
      <trkpt lat="49.35615" lon="-0.85274">
        <ele>59.540556</ele>
        <time>2022-08-03T14:47:37.000Z</time>
      </trkpt>
      <trkpt lat="49.35616" lon="-0.85276">
        <ele>59.539633</ele>
        <time>2022-08-03T14:47:38.000Z</time>
      </trkpt>
      <trkpt lat="49.35619" lon="-0.85278">
        <ele>59.538347</ele>
        <time>2022-08-03T14:47:39.000Z</time>
      </trkpt>
      <trkpt lat="49.35621" lon="-0.85281">
        <ele>59.537099</ele>
        <time>2022-08-03T14:47:40.000Z</time>
      </trkpt>
      <trkpt lat="49.35624" lon="-0.85283">
        <ele>59.535582</ele>
        <time>2022-08-03T14:47:41.000Z</time>
      </trkpt>
      <trkpt lat="49.35627" lon="-0.85286">
        <ele>59.533987</ele>
        <time>2022-08-03T14:47:42.000Z</time>
      </trkpt>
      <trkpt lat="49.3563" lon="-0.85289">
        <ele>59.532226</ele>
        <time>2022-08-03T14:47:43.000Z</time>
      </trkpt>
      <trkpt lat="49.35634" lon="-0.85292">
        <ele>59.530086</ele>
        <time>2022-08-03T14:47:44.000Z</time>
      </trkpt>
      <trkpt lat="49.35637" lon="-0.85295">
        <ele>59.528717</ele>
        <time>2022-08-03T14:47:45.000Z</time>
      </trkpt>
      <trkpt lat="49.3564" lon="-0.85298">
        <ele>59.527088</ele>
        <time>2022-08-03T14:47:46.000Z</time>
      </trkpt>
      <trkpt lat="49.35643" lon="-0.85301">
        <ele>59.525493</ele>
        <time>2022-08-03T14:47:47.000Z</time>
      </trkpt>
      <trkpt lat="49.35646" lon="-0.85303">
        <ele>59.52379</ele>
        <time>2022-08-03T14:47:48.000Z</time>
      </trkpt>
      <trkpt lat="49.3565" lon="-0.85304">
        <ele>59.522026</ele>
        <time>2022-08-03T14:47:49.000Z</time>
      </trkpt>
      <trkpt lat="49.35653" lon="-0.85305">
        <ele>59.520402</ele>
        <time>2022-08-03T14:47:50.000Z</time>
      </trkpt>
      <trkpt lat="49.35656" lon="-0.85306">
        <ele>59.519186</ele>
        <time>2022-08-03T14:47:51.000Z</time>
      </trkpt>
      <trkpt lat="49.3566" lon="-0.85307">
        <ele>59.517212</ele>
        <time>2022-08-03T14:47:53.000Z</time>
      </trkpt>
      <trkpt lat="49.35662" lon="-0.85308">
        <ele>59.516333</ele>
        <time>2022-08-03T14:47:54.000Z</time>
      </trkpt>
      <trkpt lat="49.35664" lon="-0.85308">
        <ele>59.515458</ele>
        <time>2022-08-03T14:47:55.000Z</time>
      </trkpt>
      <trkpt lat="49.35669" lon="-0.85308">
        <ele>59.513406</ele>
        <time>2022-08-03T14:47:57.000Z</time>
      </trkpt>
      <trkpt lat="49.35671" lon="-0.85309">
        <ele>59.512081</ele>
        <time>2022-08-03T14:47:58.000Z</time>
      </trkpt>
      <trkpt lat="49.35674" lon="-0.85308">
        <ele>59.511074</ele>
        <time>2022-08-03T14:47:59.000Z</time>
      </trkpt>
      <trkpt lat="49.35677" lon="-0.85307">
        <ele>59.509718</ele>
        <time>2022-08-03T14:48:01.000Z</time>
      </trkpt>
      <trkpt lat="49.35679" lon="-0.85307">
        <ele>59.508704</ele>
        <time>2022-08-03T14:48:02.000Z</time>
      </trkpt>
      <trkpt lat="49.35681" lon="-0.85307">
        <ele>59.507835</ele>
        <time>2022-08-03T14:48:03.000Z</time>
      </trkpt>
      <trkpt lat="49.35684" lon="-0.85306">
        <ele>59.506373</ele>
        <time>2022-08-03T14:48:05.000Z</time>
      </trkpt>
      <trkpt lat="49.35678" lon="-0.85309">
        <ele>59.5038</ele>
        <time>2022-08-03T14:50:34.000Z</time>
      </trkpt>
      <trkpt lat="49.35675" lon="-0.85308">
        <ele>59.502063</ele>
        <time>2022-08-03T14:50:35.000Z</time>
      </trkpt>
      <trkpt lat="49.35671" lon="-0.85308">
        <ele>59.500277</ele>
        <time>2022-08-03T14:50:36.000Z</time>
      </trkpt>
      <trkpt lat="49.35667" lon="-0.85307">
        <ele>59.498399</ele>
        <time>2022-08-03T14:50:37.000Z</time>
      </trkpt>
      <trkpt lat="49.35663" lon="-0.85307">
        <ele>59.496608</ele>
        <time>2022-08-03T14:50:38.000Z</time>
      </trkpt>
      <trkpt lat="49.35659" lon="-0.85305">
        <ele>59.494704</ele>
        <time>2022-08-03T14:50:39.000Z</time>
      </trkpt>
      <trkpt lat="49.35654" lon="-0.85304">
        <ele>59.492737</ele>
        <time>2022-08-03T14:50:40.000Z</time>
      </trkpt>
      <trkpt lat="49.35651" lon="-0.85302">
        <ele>59.49094</ele>
        <time>2022-08-03T14:50:41.000Z</time>
      </trkpt>
      <trkpt lat="49.35647" lon="-0.853">
        <ele>59.489073</ele>
        <time>2022-08-03T14:50:42.000Z</time>
      </trkpt>
      <trkpt lat="49.35644" lon="-0.85298">
        <ele>59.487623</ele>
        <time>2022-08-03T14:50:43.000Z</time>
      </trkpt>
      <trkpt lat="49.3564" lon="-0.85296">
        <ele>59.485887</ele>
        <time>2022-08-03T14:50:44.000Z</time>
      </trkpt>
      <trkpt lat="49.35637" lon="-0.85294">
        <ele>59.484183</ele>
        <time>2022-08-03T14:50:45.000Z</time>
      </trkpt>
      <trkpt lat="49.35634" lon="-0.85291">
        <ele>59.482636</ele>
        <time>2022-08-03T14:50:46.000Z</time>
      </trkpt>
      <trkpt lat="49.3563" lon="-0.85289">
        <ele>59.480899</ele>
        <time>2022-08-03T14:50:47.000Z</time>
      </trkpt>
      <trkpt lat="49.35628" lon="-0.85287">
        <ele>59.479545</ele>
        <time>2022-08-03T14:50:48.000Z</time>
      </trkpt>
      <trkpt lat="49.35625" lon="-0.85285">
        <ele>59.478097</ele>
        <time>2022-08-03T14:50:49.000Z</time>
      </trkpt>
      <trkpt lat="49.35623" lon="-0.85282">
        <ele>59.476758</ele>
        <time>2022-08-03T14:50:50.000Z</time>
      </trkpt>
      <trkpt lat="49.35619" lon="-0.85279">
        <ele>59.475009</ele>
        <time>2022-08-03T14:50:51.000Z</time>
      </trkpt>
      <trkpt lat="49.35617" lon="-0.85278">
        <ele>59.473872</ele>
        <time>2022-08-03T14:50:52.000Z</time>
      </trkpt>
      <trkpt lat="49.35615" lon="-0.85276">
        <ele>59.472857</ele>
        <time>2022-08-03T14:50:53.000Z</time>
      </trkpt>
      <trkpt lat="49.35613" lon="-0.85276">
        <ele>59.471707</ele>
        <time>2022-08-03T14:50:54.000Z</time>
      </trkpt>
      <trkpt lat="49.35611" lon="-0.85277">
        <ele>59.470881</ele>
        <time>2022-08-03T14:50:55.000Z</time>
      </trkpt>
      <trkpt lat="49.3561" lon="-0.8528">
        <ele>59.469906</ele>
        <time>2022-08-03T14:50:56.000Z</time>
      </trkpt>
      <trkpt lat="49.35609" lon="-0.85285">
        <ele>59.468307</ele>
        <time>2022-08-03T14:50:57.000Z</time>
      </trkpt>
      <trkpt lat="49.35608" lon="-0.85288">
        <ele>59.466033</ele>
        <time>2022-08-03T14:50:58.000Z</time>
      </trkpt>
      <trkpt lat="49.35606" lon="-0.85294">
        <ele>59.45825</ele>
        <time>2022-08-03T14:50:59.000Z</time>
      </trkpt>
      <trkpt lat="49.35604" lon="-0.85297">
        <ele>59.452593</ele>
        <time>2022-08-03T14:51:00.000Z</time>
      </trkpt>
      <trkpt lat="49.35601" lon="-0.853">
        <ele>59.446013</ele>
        <time>2022-08-03T14:51:01.000Z</time>
      </trkpt>
      <trkpt lat="49.35598" lon="-0.85302">
        <ele>59.439665</ele>
        <time>2022-08-03T14:51:02.000Z</time>
      </trkpt>
      <trkpt lat="49.35595" lon="-0.85304">
        <ele>59.433637</ele>
        <time>2022-08-03T14:51:03.000Z</time>
      </trkpt>
      <trkpt lat="49.35593" lon="-0.85306">
        <ele>59.428833</ele>
        <time>2022-08-03T14:51:04.000Z</time>
      </trkpt>
      <trkpt lat="49.35591" lon="-0.85307">
        <ele>59.424696</ele>
        <time>2022-08-03T14:51:05.000Z</time>
      </trkpt>
      <trkpt lat="49.35589" lon="-0.85308">
        <ele>59.420339</ele>
        <time>2022-08-03T14:51:06.000Z</time>
      </trkpt>
      <trkpt lat="49.35586" lon="-0.85308">
        <ele>59.41529</ele>
        <time>2022-08-03T14:51:07.000Z</time>
      </trkpt>
      <trkpt lat="49.35583" lon="-0.85308">
        <ele>59.408545</ele>
        <time>2022-08-03T14:51:08.000Z</time>
      </trkpt>
      <trkpt lat="49.35581" lon="-0.85308">
        <ele>59.404306</ele>
        <time>2022-08-03T14:51:09.000Z</time>
      </trkpt>
      <trkpt lat="49.35577" lon="-0.85308">
        <ele>59.398128</ele>
        <time>2022-08-03T14:51:10.000Z</time>
      </trkpt>
      <trkpt lat="49.35574" lon="-0.85307">
        <ele>59.391881</ele>
        <time>2022-08-03T14:51:11.000Z</time>
      </trkpt>
      <trkpt lat="49.3557" lon="-0.85306">
        <ele>59.384134</ele>
        <time>2022-08-03T14:51:12.000Z</time>
      </trkpt>
      <trkpt lat="49.35567" lon="-0.85305">
        <ele>59.377223</ele>
        <time>2022-08-03T14:51:13.000Z</time>
      </trkpt>
      <trkpt lat="49.35564" lon="-0.85304">
        <ele>59.370994</ele>
        <time>2022-08-03T14:51:14.000Z</time>
      </trkpt>
      <trkpt lat="49.35561" lon="-0.85304">
        <ele>59.366136</ele>
        <time>2022-08-03T14:51:15.000Z</time>
      </trkpt>
      <trkpt lat="49.35557" lon="-0.85305">
        <ele>59.359181</ele>
        <time>2022-08-03T14:51:16.000Z</time>
      </trkpt>
      <trkpt lat="49.35554" lon="-0.85304">
        <ele>59.351806</ele>
        <time>2022-08-03T14:51:17.000Z</time>
      </trkpt>
      <trkpt lat="49.35551" lon="-0.85304">
        <ele>59.347567</ele>
        <time>2022-08-03T14:51:18.000Z</time>
      </trkpt>
      <trkpt lat="49.35549" lon="-0.85303">
        <ele>59.34248</ele>
        <time>2022-08-03T14:51:19.000Z</time>
      </trkpt>
      <trkpt lat="49.35545" lon="-0.85303">
        <ele>59.335662</ele>
        <time>2022-08-03T14:51:20.000Z</time>
      </trkpt>
      <trkpt lat="49.35541" lon="-0.85302">
        <ele>59.328042</ele>
        <time>2022-08-03T14:51:21.000Z</time>
      </trkpt>
      <trkpt lat="49.35539" lon="-0.85301">
        <ele>59.322611</ele>
        <time>2022-08-03T14:51:22.000Z</time>
      </trkpt>
      <trkpt lat="49.35535" lon="-0.85301">
        <ele>59.316439</ele>
        <time>2022-08-03T14:51:23.000Z</time>
      </trkpt>
      <trkpt lat="49.35533" lon="-0.85302">
        <ele>59.312567</ele>
        <time>2022-08-03T14:51:24.000Z</time>
      </trkpt>
      <trkpt lat="49.35532" lon="-0.85301">
        <ele>59.308852</ele>
        <time>2022-08-03T14:51:25.000Z</time>
      </trkpt>
      <trkpt lat="49.35529" lon="-0.85301">
        <ele>59.304028</ele>
        <time>2022-08-03T14:51:26.000Z</time>
      </trkpt>
      <trkpt lat="49.35527" lon="-0.85301">
        <ele>59.300172</ele>
        <time>2022-08-03T14:51:27.000Z</time>
      </trkpt>
      <trkpt lat="49.35524" lon="-0.853">
        <ele>59.293974</ele>
        <time>2022-08-03T14:51:29.000Z</time>
      </trkpt>
      <trkpt lat="49.35521" lon="-0.85298">
        <ele>59.288599</ele>
        <time>2022-08-03T14:51:31.000Z</time>
      </trkpt>
      <trkpt lat="49.35519" lon="-0.85298">
        <ele>59.284918</ele>
        <time>2022-08-03T14:51:32.000Z</time>
      </trkpt>
      <trkpt lat="49.35516" lon="-0.85299">
        <ele>59.277228</ele>
        <time>2022-08-03T14:51:34.000Z</time>
      </trkpt>
      <trkpt lat="49.35514" lon="-0.853">
        <ele>59.273397</ele>
        <time>2022-08-03T14:51:35.000Z</time>
      </trkpt>
      <trkpt lat="49.35511" lon="-0.85302">
        <ele>59.267575</ele>
        <time>2022-08-03T14:51:36.000Z</time>
      </trkpt>
      <trkpt lat="49.35509" lon="-0.85302">
        <ele>59.263336</ele>
        <time>2022-08-03T14:51:37.000Z</time>
      </trkpt>
      <trkpt lat="49.35506" lon="-0.853">
        <ele>59.258104</ele>
        <time>2022-08-03T14:51:38.000Z</time>
      </trkpt>
      <trkpt lat="49.35504" lon="-0.85298">
        <ele>59.25283</ele>
        <time>2022-08-03T14:51:39.000Z</time>
      </trkpt>
      <trkpt lat="49.35503" lon="-0.85294">
        <ele>59.248033</ele>
        <time>2022-08-03T14:51:40.000Z</time>
      </trkpt>
      <trkpt lat="49.35502" lon="-0.85291">
        <ele>59.244099</ele>
        <time>2022-08-03T14:51:41.000Z</time>
      </trkpt>
      <trkpt lat="49.35502" lon="-0.85287">
        <ele>59.239204</ele>
        <time>2022-08-03T14:51:42.000Z</time>
      </trkpt>
      <trkpt lat="49.35503" lon="-0.85284">
        <ele>59.23454</ele>
        <time>2022-08-03T14:51:43.000Z</time>
      </trkpt>
      <trkpt lat="49.35504" lon="-0.8528">
        <ele>59.229944</ele>
        <time>2022-08-03T14:51:44.000Z</time>
      </trkpt>
      <trkpt lat="49.35506" lon="-0.85276">
        <ele>59.223469</ele>
        <time>2022-08-03T14:51:46.000Z</time>
      </trkpt>
      <trkpt lat="49.35509" lon="-0.85275">
        <ele>59.216902</ele>
        <time>2022-08-03T14:51:47.000Z</time>
      </trkpt>
      <trkpt lat="49.35512" lon="-0.85272">
        <ele>59.210093</ele>
        <time>2022-08-03T14:51:48.000Z</time>
      </trkpt>
      <trkpt lat="49.35515" lon="-0.85269">
        <ele>59.203672</ele>
        <time>2022-08-03T14:51:49.000Z</time>
      </trkpt>
      <trkpt lat="49.35517" lon="-0.85265">
        <ele>59.197758</ele>
        <time>2022-08-03T14:51:50.000Z</time>
      </trkpt>
      <trkpt lat="49.35519" lon="-0.85261">
        <ele>59.190391</ele>
        <time>2022-08-03T14:51:51.000Z</time>
      </trkpt>
      <trkpt lat="49.35521" lon="-0.85254">
        <ele>59.181904</ele>
        <time>2022-08-03T14:51:52.000Z</time>
      </trkpt>
      <trkpt lat="49.35522" lon="-0.85247">
        <ele>59.172888</ele>
        <time>2022-08-03T14:51:53.000Z</time>
      </trkpt>
      <trkpt lat="49.35523" lon="-0.85238">
        <ele>59.161317</ele>
        <time>2022-08-03T14:51:54.000Z</time>
      </trkpt>
      <trkpt lat="49.35524" lon="-0.85232">
        <ele>59.152763</ele>
        <time>2022-08-03T14:51:55.000Z</time>
      </trkpt>
      <trkpt lat="49.35523" lon="-0.85221">
        <ele>59.139158</ele>
        <time>2022-08-03T14:51:56.000Z</time>
      </trkpt>
      <trkpt lat="49.35522" lon="-0.85211">
        <ele>59.126831</ele>
        <time>2022-08-03T14:51:57.000Z</time>
      </trkpt>
      <trkpt lat="49.35521" lon="-0.85201">
        <ele>59.081002</ele>
        <time>2022-08-03T14:51:58.000Z</time>
      </trkpt>
      <trkpt lat="49.35521" lon="-0.85191">
        <ele>59.005088</ele>
        <time>2022-08-03T14:51:59.000Z</time>
      </trkpt>
      <trkpt lat="49.3552" lon="-0.85181">
        <ele>58.92957</ele>
        <time>2022-08-03T14:52:00.000Z</time>
      </trkpt>
      <trkpt lat="49.35521" lon="-0.85171">
        <ele>58.857369</ele>
        <time>2022-08-03T14:52:01.000Z</time>
      </trkpt>
      <trkpt lat="49.35522" lon="-0.85161">
        <ele>58.783739</ele>
        <time>2022-08-03T14:52:02.000Z</time>
      </trkpt>
      <trkpt lat="49.35524" lon="-0.85152">
        <ele>58.712689</ele>
        <time>2022-08-03T14:52:03.000Z</time>
      </trkpt>
      <trkpt lat="49.35528" lon="-0.85144">
        <ele>58.638989</ele>
        <time>2022-08-03T14:52:04.000Z</time>
      </trkpt>
      <trkpt lat="49.35531" lon="-0.85139">
        <ele>58.582875</ele>
        <time>2022-08-03T14:52:05.000Z</time>
      </trkpt>
      <trkpt lat="49.35537" lon="-0.85133">
        <ele>58.498957</ele>
        <time>2022-08-03T14:52:06.000Z</time>
      </trkpt>
      <trkpt lat="49.35543" lon="-0.85129">
        <ele>58.429156</ele>
        <time>2022-08-03T14:52:07.000Z</time>
      </trkpt>
      <trkpt lat="49.35549" lon="-0.85127">
        <ele>58.357799</ele>
        <time>2022-08-03T14:52:08.000Z</time>
      </trkpt>
      <trkpt lat="49.35555" lon="-0.85126">
        <ele>58.290662</ele>
        <time>2022-08-03T14:52:09.000Z</time>
      </trkpt>
      <trkpt lat="49.3556" lon="-0.85124">
        <ele>58.227426</ele>
        <time>2022-08-03T14:52:10.000Z</time>
      </trkpt>
      <trkpt lat="49.35567" lon="-0.85122">
        <ele>58.153527</ele>
        <time>2022-08-03T14:52:11.000Z</time>
      </trkpt>
      <trkpt lat="49.35572" lon="-0.85121">
        <ele>58.090309</ele>
        <time>2022-08-03T14:52:12.000Z</time>
      </trkpt>
      <trkpt lat="49.35577" lon="-0.8512">
        <ele>58.034912</ele>
        <time>2022-08-03T14:52:13.000Z</time>
      </trkpt>
      <trkpt lat="49.35582" lon="-0.85119">
        <ele>57.972401</ele>
        <time>2022-08-03T14:52:14.000Z</time>
      </trkpt>
      <trkpt lat="49.35587" lon="-0.85117">
        <ele>57.916488</ele>
        <time>2022-08-03T14:52:15.000Z</time>
      </trkpt>
      <trkpt lat="49.35593" lon="-0.85117">
        <ele>57.846606</ele>
        <time>2022-08-03T14:52:16.000Z</time>
      </trkpt>
      <trkpt lat="49.35599" lon="-0.85116">
        <ele>57.78112</ele>
        <time>2022-08-03T14:52:17.000Z</time>
      </trkpt>
      <trkpt lat="49.35605" lon="-0.85115">
        <ele>57.71465</ele>
        <time>2022-08-03T14:52:18.000Z</time>
      </trkpt>
      <trkpt lat="49.35611" lon="-0.85114">
        <ele>57.647847</ele>
        <time>2022-08-03T14:52:19.000Z</time>
      </trkpt>
      <trkpt lat="49.35615" lon="-0.85112">
        <ele>57.60006</ele>
        <time>2022-08-03T14:52:20.000Z</time>
      </trkpt>
      <trkpt lat="49.3562" lon="-0.85111">
        <ele>57.540788</ele>
        <time>2022-08-03T14:52:21.000Z</time>
      </trkpt>
      <trkpt lat="49.35626" lon="-0.85109">
        <ele>57.466998</ele>
        <time>2022-08-03T14:52:22.000Z</time>
      </trkpt>
      <trkpt lat="49.3563" lon="-0.85108">
        <ele>57.421736</ele>
        <time>2022-08-03T14:52:23.000Z</time>
      </trkpt>
      <trkpt lat="49.35637" lon="-0.85106">
        <ele>57.34733</ele>
        <time>2022-08-03T14:52:24.000Z</time>
      </trkpt>
      <trkpt lat="49.35642" lon="-0.85105">
        <ele>57.287913</ele>
        <time>2022-08-03T14:52:25.000Z</time>
      </trkpt>
      <trkpt lat="49.35647" lon="-0.85103">
        <ele>57.228343</ele>
        <time>2022-08-03T14:52:26.000Z</time>
      </trkpt>
      <trkpt lat="49.35652" lon="-0.85102">
        <ele>57.164824</ele>
        <time>2022-08-03T14:52:27.000Z</time>
      </trkpt>
      <trkpt lat="49.35658" lon="-0.851">
        <ele>57.102313</ele>
        <time>2022-08-03T14:52:28.000Z</time>
      </trkpt>
      <trkpt lat="49.35663" lon="-0.85099">
        <ele>57.033457</ele>
        <time>2022-08-03T14:52:29.000Z</time>
      </trkpt>
      <trkpt lat="49.35668" lon="-0.85098">
        <ele>56.945466</ele>
        <time>2022-08-03T14:52:30.000Z</time>
      </trkpt>
      <trkpt lat="49.35674" lon="-0.85096">
        <ele>56.859038</ele>
        <time>2022-08-03T14:52:31.000Z</time>
      </trkpt>
      <trkpt lat="49.35678" lon="-0.85095">
        <ele>56.791487</ele>
        <time>2022-08-03T14:52:32.000Z</time>
      </trkpt>
      <trkpt lat="49.35684" lon="-0.85093">
        <ele>56.694821</ele>
        <time>2022-08-03T14:52:33.000Z</time>
      </trkpt>
      <trkpt lat="49.35689" lon="-0.85092">
        <ele>56.606494</ele>
        <time>2022-08-03T14:52:34.000Z</time>
      </trkpt>
      <trkpt lat="49.35694" lon="-0.8509">
        <ele>56.524386</ele>
        <time>2022-08-03T14:52:35.000Z</time>
      </trkpt>
      <trkpt lat="49.357" lon="-0.85089">
        <ele>56.437793</ele>
        <time>2022-08-03T14:52:36.000Z</time>
      </trkpt>
      <trkpt lat="49.35706" lon="-0.85088">
        <ele>56.345506</ele>
        <time>2022-08-03T14:52:37.000Z</time>
      </trkpt>
      <trkpt lat="49.35711" lon="-0.85086">
        <ele>56.258735</ele>
        <time>2022-08-03T14:52:38.000Z</time>
      </trkpt>
      <trkpt lat="49.35716" lon="-0.85085">
        <ele>56.181666</ele>
        <time>2022-08-03T14:52:39.000Z</time>
      </trkpt>
      <trkpt lat="49.35721" lon="-0.85084">
        <ele>56.098361</ele>
        <time>2022-08-03T14:52:40.000Z</time>
      </trkpt>
      <trkpt lat="49.35725" lon="-0.85083">
        <ele>56.042069</ele>
        <time>2022-08-03T14:52:41.000Z</time>
      </trkpt>
      <trkpt lat="49.3573" lon="-0.85081">
        <ele>55.94984</ele>
        <time>2022-08-03T14:52:42.000Z</time>
      </trkpt>
      <trkpt lat="49.35735" lon="-0.8508">
        <ele>55.866976</ele>
        <time>2022-08-03T14:52:43.000Z</time>
      </trkpt>
      <trkpt lat="49.3574" lon="-0.85079">
        <ele>55.790237</ele>
        <time>2022-08-03T14:52:44.000Z</time>
      </trkpt>
      <trkpt lat="49.35744" lon="-0.85077">
        <ele>55.728446</ele>
        <time>2022-08-03T14:52:45.000Z</time>
      </trkpt>
      <trkpt lat="49.35749" lon="-0.85074">
        <ele>55.63969</ele>
        <time>2022-08-03T14:52:46.000Z</time>
      </trkpt>
      <trkpt lat="49.35752" lon="-0.8507">
        <ele>55.58149</ele>
        <time>2022-08-03T14:52:47.000Z</time>
      </trkpt>
      <trkpt lat="49.35756" lon="-0.85064">
        <ele>55.487249</ele>
        <time>2022-08-03T14:52:48.000Z</time>
      </trkpt>
      <trkpt lat="49.3576" lon="-0.8506">
        <ele>55.420057</ele>
        <time>2022-08-03T14:52:49.000Z</time>
      </trkpt>
      <trkpt lat="49.35765" lon="-0.85056">
        <ele>55.321798</ele>
        <time>2022-08-03T14:52:50.000Z</time>
      </trkpt>
      <trkpt lat="49.35769" lon="-0.85054">
        <ele>55.256101</ele>
        <time>2022-08-03T14:52:51.000Z</time>
      </trkpt>
      <trkpt lat="49.35774" lon="-0.85052">
        <ele>55.175955</ele>
        <time>2022-08-03T14:52:52.000Z</time>
      </trkpt>
      <trkpt lat="49.35781" lon="-0.85047">
        <ele>55.065901</ele>
        <time>2022-08-03T14:52:53.000Z</time>
      </trkpt>
      <trkpt lat="49.35785" lon="-0.85043">
        <ele>54.984375</ele>
        <time>2022-08-03T14:52:54.000Z</time>
      </trkpt>
      <trkpt lat="49.35789" lon="-0.85037">
        <ele>54.899234</ele>
        <time>2022-08-03T14:52:55.000Z</time>
      </trkpt>
      <trkpt lat="49.3579" lon="-0.85031">
        <ele>54.832371</ele>
        <time>2022-08-03T14:52:56.000Z</time>
      </trkpt>
      <trkpt lat="49.35793" lon="-0.85022">
        <ele>54.732853</ele>
        <time>2022-08-03T14:52:57.000Z</time>
      </trkpt>
      <trkpt lat="49.35796" lon="-0.85015">
        <ele>54.648823</ele>
        <time>2022-08-03T14:52:58.000Z</time>
      </trkpt>
      <trkpt lat="49.35799" lon="-0.85008">
        <ele>54.563257</ele>
        <time>2022-08-03T14:52:59.000Z</time>
      </trkpt>
      <trkpt lat="49.35803" lon="-0.85002">
        <ele>54.47148</ele>
        <time>2022-08-03T14:53:00.000Z</time>
      </trkpt>
      <trkpt lat="49.35806" lon="-0.84995">
        <ele>54.382291</ele>
        <time>2022-08-03T14:53:01.000Z</time>
      </trkpt>
      <trkpt lat="49.3581" lon="-0.84989">
        <ele>54.296101</ele>
        <time>2022-08-03T14:53:02.000Z</time>
      </trkpt>
      <trkpt lat="49.35814" lon="-0.84984">
        <ele>54.233594</ele>
        <time>2022-08-03T14:53:03.000Z</time>
      </trkpt>
      <trkpt lat="49.35818" lon="-0.8498">
        <ele>54.286885</ele>
        <time>2022-08-03T14:53:04.000Z</time>
      </trkpt>
      <trkpt lat="49.35821" lon="-0.84976">
        <ele>54.334676</ele>
        <time>2022-08-03T14:53:05.000Z</time>
      </trkpt>
      <trkpt lat="49.35823" lon="-0.84975">
        <ele>54.362094</ele>
        <time>2022-08-03T14:53:06.000Z</time>
      </trkpt>
      <trkpt lat="49.35825" lon="-0.84973">
        <ele>54.393798</ele>
        <time>2022-08-03T14:53:07.000Z</time>
      </trkpt>
      <trkpt lat="49.35828" lon="-0.84972">
        <ele>54.424759</ele>
        <time>2022-08-03T14:53:09.000Z</time>
      </trkpt>
      <trkpt lat="49.35829" lon="-0.84973">
        <ele>54.448433</ele>
        <time>2022-08-03T14:53:10.000Z</time>
      </trkpt>
      <trkpt lat="49.35831" lon="-0.84974">
        <ele>54.474523</ele>
        <time>2022-08-03T14:53:12.000Z</time>
      </trkpt>
      <trkpt lat="49.35833" lon="-0.84976">
        <ele>54.496274</ele>
        <time>2022-08-03T14:53:14.000Z</time>
      </trkpt>
      <trkpt lat="49.35833" lon="-0.84979">
        <ele>54.52391</ele>
        <time>2022-08-03T14:53:16.000Z</time>
      </trkpt>
      <trkpt lat="49.35831" lon="-0.84991">
        <ele>54.619892</ele>
        <time>2022-08-03T14:53:24.000Z</time>
      </trkpt>
      <trkpt lat="49.3583" lon="-0.84995">
        <ele>54.653742</ele>
        <time>2022-08-03T14:53:25.000Z</time>
      </trkpt>
      <trkpt lat="49.35829" lon="-0.84999">
        <ele>54.690937</ele>
        <time>2022-08-03T14:53:26.000Z</time>
      </trkpt>
      <trkpt lat="49.35827" lon="-0.85003">
        <ele>54.728484</ele>
        <time>2022-08-03T14:53:27.000Z</time>
      </trkpt>
      <trkpt lat="49.35827" lon="-0.85007">
        <ele>54.758983</ele>
        <time>2022-08-03T14:53:28.000Z</time>
      </trkpt>
      <trkpt lat="49.35825" lon="-0.85009">
        <ele>54.785202</ele>
        <time>2022-08-03T14:53:29.000Z</time>
      </trkpt>
      <trkpt lat="49.35824" lon="-0.85012">
        <ele>54.808668</ele>
        <time>2022-08-03T14:53:30.000Z</time>
      </trkpt>
      <trkpt lat="49.35823" lon="-0.85014">
        <ele>54.836139</ele>
        <time>2022-08-03T14:53:31.000Z</time>
      </trkpt>
      <trkpt lat="49.35821" lon="-0.85016">
        <ele>54.861989</ele>
        <time>2022-08-03T14:53:32.000Z</time>
      </trkpt>
      <trkpt lat="49.35819" lon="-0.85018">
        <ele>54.893388</ele>
        <time>2022-08-03T14:53:33.000Z</time>
      </trkpt>
      <trkpt lat="49.35817" lon="-0.8502">
        <ele>54.920395</ele>
        <time>2022-08-03T14:53:34.000Z</time>
      </trkpt>
      <trkpt lat="49.35815" lon="-0.85022">
        <ele>54.952098</ele>
        <time>2022-08-03T14:53:35.000Z</time>
      </trkpt>
      <trkpt lat="49.35813" lon="-0.85024">
        <ele>54.980389</ele>
        <time>2022-08-03T14:53:36.000Z</time>
      </trkpt>
      <trkpt lat="49.35811" lon="-0.85026">
        <ele>55.009614</ele>
        <time>2022-08-03T14:53:37.000Z</time>
      </trkpt>
      <trkpt lat="49.35809" lon="-0.85028">
        <ele>55.037032</ele>
        <time>2022-08-03T14:53:38.000Z</time>
      </trkpt>
      <trkpt lat="49.35807" lon="-0.8503">
        <ele>55.065107</ele>
        <time>2022-08-03T14:53:39.000Z</time>
      </trkpt>
      <trkpt lat="49.35805" lon="-0.85031">
        <ele>55.092525</ele>
        <time>2022-08-03T14:53:40.000Z</time>
      </trkpt>
      <trkpt lat="49.35803" lon="-0.85033">
        <ele>55.122772</ele>
        <time>2022-08-03T14:53:41.000Z</time>
      </trkpt>
      <trkpt lat="49.35801" lon="-0.85034">
        <ele>55.148317</ele>
        <time>2022-08-03T14:53:42.000Z</time>
      </trkpt>
      <trkpt lat="49.35799" lon="-0.85035">
        <ele>55.177113</ele>
        <time>2022-08-03T14:53:43.000Z</time>
      </trkpt>
      <trkpt lat="49.35797" lon="-0.85035">
        <ele>55.20413</ele>
        <time>2022-08-03T14:53:44.000Z</time>
      </trkpt>
      <trkpt lat="49.35794" lon="-0.85035">
        <ele>55.23606</ele>
        <time>2022-08-03T14:53:45.000Z</time>
      </trkpt>
      <trkpt lat="49.3579" lon="-0.85036">
        <ele>55.28657</ele>
        <time>2022-08-03T14:53:47.000Z</time>
      </trkpt>
      <trkpt lat="49.35788" lon="-0.85036">
        <ele>55.311762</ele>
        <time>2022-08-03T14:53:48.000Z</time>
      </trkpt>
      <trkpt lat="49.35785" lon="-0.85038">
        <ele>55.349687</ele>
        <time>2022-08-03T14:53:50.000Z</time>
      </trkpt>
      <trkpt lat="49.35783" lon="-0.85042">
        <ele>55.390023</ele>
        <time>2022-08-03T14:53:52.000Z</time>
      </trkpt>
      <trkpt lat="49.35782" lon="-0.85045">
        <ele>55.418868</ele>
        <time>2022-08-03T14:53:54.000Z</time>
      </trkpt>
      <trkpt lat="49.35775" lon="-0.85049">
        <ele>55.502037</ele>
        <time>2022-08-03T14:55:16.000Z</time>
      </trkpt>
      <trkpt lat="49.35773" lon="-0.85051">
        <ele>55.540452</ele>
        <time>2022-08-03T14:55:17.000Z</time>
      </trkpt>
      <trkpt lat="49.35769" lon="-0.85052">
        <ele>55.590464</ele>
        <time>2022-08-03T14:55:18.000Z</time>
      </trkpt>
      <trkpt lat="49.35764" lon="-0.85054">
        <ele>55.645647</ele>
        <time>2022-08-03T14:55:19.000Z</time>
      </trkpt>
      <trkpt lat="49.35761" lon="-0.85055">
        <ele>55.691457</ele>
        <time>2022-08-03T14:55:20.000Z</time>
      </trkpt>
      <trkpt lat="49.35757" lon="-0.85058">
        <ele>55.74162</ele>
        <time>2022-08-03T14:55:21.000Z</time>
      </trkpt>
      <trkpt lat="49.35754" lon="-0.85062">
        <ele>55.792296</ele>
        <time>2022-08-03T14:55:22.000Z</time>
      </trkpt>
      <trkpt lat="49.35751" lon="-0.85066">
        <ele>55.844665</ele>
        <time>2022-08-03T14:55:23.000Z</time>
      </trkpt>
      <trkpt lat="49.35748" lon="-0.8507">
        <ele>55.889009</ele>
        <time>2022-08-03T14:55:24.000Z</time>
      </trkpt>
      <trkpt lat="49.35746" lon="-0.85074">
        <ele>55.931474</ele>
        <time>2022-08-03T14:55:25.000Z</time>
      </trkpt>
      <trkpt lat="49.35743" lon="-0.85077">
        <ele>55.973125</ele>
        <time>2022-08-03T14:55:26.000Z</time>
      </trkpt>
      <trkpt lat="49.3574" lon="-0.85079">
        <ele>56.015555</ele>
        <time>2022-08-03T14:55:27.000Z</time>
      </trkpt>
      <trkpt lat="49.35736" lon="-0.8508">
        <ele>56.062902</ele>
        <time>2022-08-03T14:55:28.000Z</time>
      </trkpt>
      <trkpt lat="49.35732" lon="-0.85081">
        <ele>56.115098</ele>
        <time>2022-08-03T14:55:29.000Z</time>
      </trkpt>
      <trkpt lat="49.35727" lon="-0.85082">
        <ele>56.166356</ele>
        <time>2022-08-03T14:55:30.000Z</time>
      </trkpt>
      <trkpt lat="49.35724" lon="-0.85083">
        <ele>56.215932</ele>
        <time>2022-08-03T14:55:31.000Z</time>
      </trkpt>
      <trkpt lat="49.3572" lon="-0.85085">
        <ele>56.261014</ele>
        <time>2022-08-03T14:55:32.000Z</time>
      </trkpt>
      <trkpt lat="49.35717" lon="-0.85086">
        <ele>56.305237</ele>
        <time>2022-08-03T14:55:33.000Z</time>
      </trkpt>
      <trkpt lat="49.35713" lon="-0.85088">
        <ele>56.346099</ele>
        <time>2022-08-03T14:55:34.000Z</time>
      </trkpt>
      <trkpt lat="49.3571" lon="-0.85089">
        <ele>56.389973</ele>
        <time>2022-08-03T14:55:35.000Z</time>
      </trkpt>
      <trkpt lat="49.35707" lon="-0.8509">
        <ele>56.42381</ele>
        <time>2022-08-03T14:55:36.000Z</time>
      </trkpt>
      <trkpt lat="49.35704" lon="-0.85091">
        <ele>56.451979</ele>
        <time>2022-08-03T14:55:37.000Z</time>
      </trkpt>
      <trkpt lat="49.35702" lon="-0.85092">
        <ele>56.47135</ele>
        <time>2022-08-03T14:55:38.000Z</time>
      </trkpt>
      <trkpt lat="49.357" lon="-0.85093">
        <ele>56.488626</ele>
        <time>2022-08-03T14:55:39.000Z</time>
      </trkpt>
      <trkpt lat="49.35698" lon="-0.85094">
        <ele>56.506078</ele>
        <time>2022-08-03T14:55:40.000Z</time>
      </trkpt>
      <trkpt lat="49.35696" lon="-0.85094">
        <ele>56.522328</ele>
        <time>2022-08-03T14:55:41.000Z</time>
      </trkpt>
      <trkpt lat="49.35694" lon="-0.85094">
        <ele>56.538493</ele>
        <time>2022-08-03T14:55:42.000Z</time>
      </trkpt>
      <trkpt lat="49.35692" lon="-0.85095">
        <ele>56.560641</ele>
        <time>2022-08-03T14:55:43.000Z</time>
      </trkpt>
      <trkpt lat="49.35689" lon="-0.85095">
        <ele>56.581976</ele>
        <time>2022-08-03T14:55:44.000Z</time>
      </trkpt>
      <trkpt lat="49.35686" lon="-0.85096">
        <ele>56.607148</ele>
        <time>2022-08-03T14:55:45.000Z</time>
      </trkpt>
      <trkpt lat="49.35684" lon="-0.85097">
        <ele>56.632435</ele>
        <time>2022-08-03T14:55:46.000Z</time>
      </trkpt>
      <trkpt lat="49.35681" lon="-0.85098">
        <ele>56.65167</ele>
        <time>2022-08-03T14:55:47.000Z</time>
      </trkpt>
      <trkpt lat="49.35678" lon="-0.85098">
        <ele>56.676399</ele>
        <time>2022-08-03T14:55:48.000Z</time>
      </trkpt>
      <trkpt lat="49.35677" lon="-0.85098">
        <ele>56.692564</ele>
        <time>2022-08-03T14:55:49.000Z</time>
      </trkpt>
      <trkpt lat="49.35674" lon="-0.85098">
        <ele>56.714684</ele>
        <time>2022-08-03T14:55:50.000Z</time>
      </trkpt>
      <trkpt lat="49.3567" lon="-0.85098">
        <ele>56.747033</ele>
        <time>2022-08-03T14:55:51.000Z</time>
      </trkpt>
      <trkpt lat="49.35666" lon="-0.85099">
        <ele>56.782976</ele>
        <time>2022-08-03T14:55:52.000Z</time>
      </trkpt>
      <trkpt lat="49.35662" lon="-0.851">
        <ele>56.813265</ele>
        <time>2022-08-03T14:55:53.000Z</time>
      </trkpt>
      <trkpt lat="49.35657" lon="-0.85101">
        <ele>56.863401</ele>
        <time>2022-08-03T14:55:54.000Z</time>
      </trkpt>
      <trkpt lat="49.35652" lon="-0.85103">
        <ele>56.902442</ele>
        <time>2022-08-03T14:55:55.000Z</time>
      </trkpt>
      <trkpt lat="49.35648" lon="-0.85105">
        <ele>56.939854</ele>
        <time>2022-08-03T14:55:56.000Z</time>
      </trkpt>
      <trkpt lat="49.35641" lon="-0.85108">
        <ele>57.000999</ele>
        <time>2022-08-03T14:55:57.000Z</time>
      </trkpt>
      <trkpt lat="49.35635" lon="-0.85109">
        <ele>57.053321</ele>
        <time>2022-08-03T14:55:58.000Z</time>
      </trkpt>
      <trkpt lat="49.3563" lon="-0.8511">
        <ele>57.09218</ele>
        <time>2022-08-03T14:55:59.000Z</time>
      </trkpt>
      <trkpt lat="49.35623" lon="-0.85112">
        <ele>57.158288</ele>
        <time>2022-08-03T14:56:00.000Z</time>
      </trkpt>
      <trkpt lat="49.35617" lon="-0.85113">
        <ele>57.210847</ele>
        <time>2022-08-03T14:56:01.000Z</time>
      </trkpt>
      <trkpt lat="49.3561" lon="-0.85116">
        <ele>57.266898</ele>
        <time>2022-08-03T14:56:02.000Z</time>
      </trkpt>
      <trkpt lat="49.35605" lon="-0.85117">
        <ele>57.311077</ele>
        <time>2022-08-03T14:56:03.000Z</time>
      </trkpt>
      <trkpt lat="49.35598" lon="-0.85119">
        <ele>57.371462</ele>
        <time>2022-08-03T14:56:04.000Z</time>
      </trkpt>
      <trkpt lat="49.35592" lon="-0.8512">
        <ele>57.421331</ele>
        <time>2022-08-03T14:56:05.000Z</time>
      </trkpt>
      <trkpt lat="49.35586" lon="-0.85122">
        <ele>57.474286</ele>
        <time>2022-08-03T14:56:06.000Z</time>
      </trkpt>
      <trkpt lat="49.35581" lon="-0.85124">
        <ele>57.523584</ele>
        <time>2022-08-03T14:56:07.000Z</time>
      </trkpt>
      <trkpt lat="49.35576" lon="-0.85125">
        <ele>57.562648</ele>
        <time>2022-08-03T14:56:08.000Z</time>
      </trkpt>
      <trkpt lat="49.35569" lon="-0.85127">
        <ele>57.622859</ele>
        <time>2022-08-03T14:56:09.000Z</time>
      </trkpt>
      <trkpt lat="49.35563" lon="-0.85128">
        <ele>57.672811</ele>
        <time>2022-08-03T14:56:10.000Z</time>
      </trkpt>
      <trkpt lat="49.35558" lon="-0.8513">
        <ele>57.71699</ele>
        <time>2022-08-03T14:56:11.000Z</time>
      </trkpt>
      <trkpt lat="49.35553" lon="-0.85131">
        <ele>57.758665</ele>
        <time>2022-08-03T14:56:12.000Z</time>
      </trkpt>
      <trkpt lat="49.3555" lon="-0.85132">
        <ele>57.786565</ele>
        <time>2022-08-03T14:56:13.000Z</time>
      </trkpt>
      <trkpt lat="49.35545" lon="-0.85134">
        <ele>57.82824</ele>
        <time>2022-08-03T14:56:14.000Z</time>
      </trkpt>
      <trkpt lat="49.35541" lon="-0.85136">
        <ele>57.863223</ele>
        <time>2022-08-03T14:56:15.000Z</time>
      </trkpt>
      <trkpt lat="49.35539" lon="-0.85138">
        <ele>57.886485</ele>
        <time>2022-08-03T14:56:16.000Z</time>
      </trkpt>
      <trkpt lat="49.35536" lon="-0.85141">
        <ele>57.919282</ele>
        <time>2022-08-03T14:56:17.000Z</time>
      </trkpt>
      <trkpt lat="49.35533" lon="-0.85144">
        <ele>57.950666</ele>
        <time>2022-08-03T14:56:18.000Z</time>
      </trkpt>
      <trkpt lat="49.3553" lon="-0.85149">
        <ele>58.021664</ele>
        <time>2022-08-03T14:56:19.000Z</time>
      </trkpt>
      <trkpt lat="49.35527" lon="-0.85154">
        <ele>58.095965</ele>
        <time>2022-08-03T14:56:20.000Z</time>
      </trkpt>
      <trkpt lat="49.35526" lon="-0.85158">
        <ele>58.152168</ele>
        <time>2022-08-03T14:56:21.000Z</time>
      </trkpt>
      <trkpt lat="49.35525" lon="-0.85164">
        <ele>58.234213</ele>
        <time>2022-08-03T14:56:22.000Z</time>
      </trkpt>
      <trkpt lat="49.35524" lon="-0.85171">
        <ele>58.335088</ele>
        <time>2022-08-03T14:56:23.000Z</time>
      </trkpt>
      <trkpt lat="49.35523" lon="-0.85178">
        <ele>58.419367</ele>
        <time>2022-08-03T14:56:24.000Z</time>
      </trkpt>
      <trkpt lat="49.35523" lon="-0.85184">
        <ele>58.501529</ele>
        <time>2022-08-03T14:56:25.000Z</time>
      </trkpt>
      <trkpt lat="49.35523" lon="-0.8519">
        <ele>58.57342</ele>
        <time>2022-08-03T14:56:26.000Z</time>
      </trkpt>
      <trkpt lat="49.35523" lon="-0.85198">
        <ele>58.672271</ele>
        <time>2022-08-03T14:56:27.000Z</time>
      </trkpt>
      <trkpt lat="49.35523" lon="-0.85206">
        <ele>58.785243</ele>
        <time>2022-08-03T14:56:28.000Z</time>
      </trkpt>
      <trkpt lat="49.35524" lon="-0.85214">
        <ele>58.888201</ele>
        <time>2022-08-03T14:56:29.000Z</time>
      </trkpt>
      <trkpt lat="49.35525" lon="-0.8522">
        <ele>58.968953</ele>
        <time>2022-08-03T14:56:30.000Z</time>
      </trkpt>
      <trkpt lat="49.35525" lon="-0.85228">
        <ele>59.064136</ele>
        <time>2022-08-03T14:56:31.000Z</time>
      </trkpt>
      <trkpt lat="49.35525" lon="-0.85236">
        <ele>59.174699</ele>
        <time>2022-08-03T14:56:32.000Z</time>
      </trkpt>
      <trkpt lat="49.35525" lon="-0.85243">
        <ele>59.256861</ele>
        <time>2022-08-03T14:56:33.000Z</time>
      </trkpt>
      <trkpt lat="49.35525" lon="-0.85249">
        <ele>59.331554</ele>
        <time>2022-08-03T14:56:34.000Z</time>
      </trkpt>
      <trkpt lat="49.35525" lon="-0.85254">
        <ele>59.399851</ele>
        <time>2022-08-03T14:56:35.000Z</time>
      </trkpt>
      <trkpt lat="49.35524" lon="-0.85259">
        <ele>59.469456</ele>
        <time>2022-08-03T14:56:36.000Z</time>
      </trkpt>
      <trkpt lat="49.35524" lon="-0.85264">
        <ele>59.533916</ele>
        <time>2022-08-03T14:56:37.000Z</time>
      </trkpt>
      <trkpt lat="49.35523" lon="-0.85268">
        <ele>59.589434</ele>
        <time>2022-08-03T14:56:38.000Z</time>
      </trkpt>
      <trkpt lat="49.35522" lon="-0.85274">
        <ele>59.665593</ele>
        <time>2022-08-03T14:56:39.000Z</time>
      </trkpt>
      <trkpt lat="49.3552" lon="-0.85279">
        <ele>59.734707</ele>
        <time>2022-08-03T14:56:40.000Z</time>
      </trkpt>
      <trkpt lat="49.35519" lon="-0.85285">
        <ele>59.815568</ele>
        <time>2022-08-03T14:56:41.000Z</time>
      </trkpt>
      <trkpt lat="49.35517" lon="-0.85289">
        <ele>59.887675</ele>
        <time>2022-08-03T14:56:42.000Z</time>
      </trkpt>
      <trkpt lat="49.35515" lon="-0.85294">
        <ele>59.95652</ele>
        <time>2022-08-03T14:56:43.000Z</time>
      </trkpt>
      <trkpt lat="49.35513" lon="-0.85297">
        <ele>60.019449</ele>
        <time>2022-08-03T14:56:44.000Z</time>
      </trkpt>
      <trkpt lat="49.35509" lon="-0.85301">
        <ele>60.095426</ele>
        <time>2022-08-03T14:56:45.000Z</time>
      </trkpt>
      <trkpt lat="49.35505" lon="-0.85302">
        <ele>60.179471</ele>
        <time>2022-08-03T14:56:46.000Z</time>
      </trkpt>
      <trkpt lat="49.35502" lon="-0.85302">
        <ele>60.248464</ele>
        <time>2022-08-03T14:56:47.000Z</time>
      </trkpt>
      <trkpt lat="49.35498" lon="-0.85302">
        <ele>60.331728</ele>
        <time>2022-08-03T14:56:48.000Z</time>
      </trkpt>
      <trkpt lat="49.35493" lon="-0.85301">
        <ele>60.414595</ele>
        <time>2022-08-03T14:56:49.000Z</time>
      </trkpt>
      <trkpt lat="49.35489" lon="-0.85301">
        <ele>60.509207</ele>
        <time>2022-08-03T14:56:50.000Z</time>
      </trkpt>
      <trkpt lat="49.35484" lon="-0.85301">
        <ele>60.60381</ele>
        <time>2022-08-03T14:56:51.000Z</time>
      </trkpt>
      <trkpt lat="49.35479" lon="-0.85302">
        <ele>60.690567</ele>
        <time>2022-08-03T14:56:52.000Z</time>
      </trkpt>
      <trkpt lat="49.35474" lon="-0.85301">
        <ele>60.793086</ele>
        <time>2022-08-03T14:56:53.000Z</time>
      </trkpt>
      <trkpt lat="49.35469" lon="-0.85301">
        <ele>60.887697</ele>
        <time>2022-08-03T14:56:54.000Z</time>
      </trkpt>
      <trkpt lat="49.35464" lon="-0.853">
        <ele>60.994751</ele>
        <time>2022-08-03T14:56:55.000Z</time>
      </trkpt>
      <trkpt lat="49.35459" lon="-0.853">
        <ele>61.095561</ele>
        <time>2022-08-03T14:56:56.000Z</time>
      </trkpt>
      <trkpt lat="49.35452" lon="-0.85299">
        <ele>61.236082</ele>
        <time>2022-08-03T14:56:57.000Z</time>
      </trkpt>
      <trkpt lat="49.35447" lon="-0.85298">
        <ele>61.323039</ele>
        <time>2022-08-03T14:56:58.000Z</time>
      </trkpt>
      <trkpt lat="49.3544" lon="-0.85297">
        <ele>61.46356</ele>
        <time>2022-08-03T14:56:59.000Z</time>
      </trkpt>
      <trkpt lat="49.35434" lon="-0.85296">
        <ele>61.551513</ele>
        <time>2022-08-03T14:57:00.000Z</time>
      </trkpt>
      <trkpt lat="49.3543" lon="-0.85295">
        <ele>61.598085</ele>
        <time>2022-08-03T14:57:01.000Z</time>
      </trkpt>
      <trkpt lat="49.35424" lon="-0.85294">
        <ele>61.663741</ele>
        <time>2022-08-03T14:57:02.000Z</time>
      </trkpt>
      <trkpt lat="49.35417" lon="-0.85293">
        <ele>61.743031</ele>
        <time>2022-08-03T14:57:03.000Z</time>
      </trkpt>
      <trkpt lat="49.35412" lon="-0.85292">
        <ele>61.804945</ele>
        <time>2022-08-03T14:57:04.000Z</time>
      </trkpt>
      <trkpt lat="49.35407" lon="-0.85291">
        <ele>61.862457</ele>
        <time>2022-08-03T14:57:05.000Z</time>
      </trkpt>
      <trkpt lat="49.35402" lon="-0.8529">
        <ele>61.919899</ele>
        <time>2022-08-03T14:57:06.000Z</time>
      </trkpt>
      <trkpt lat="49.35396" lon="-0.8529">
        <ele>61.980589</ele>
        <time>2022-08-03T14:57:07.000Z</time>
      </trkpt>
      <trkpt lat="49.3539" lon="-0.85289">
        <ele>62.045804</ele>
        <time>2022-08-03T14:57:08.000Z</time>
      </trkpt>
      <trkpt lat="49.35385" lon="-0.85289">
        <ele>62.111072</ele>
        <time>2022-08-03T14:57:09.000Z</time>
      </trkpt>
      <trkpt lat="49.3538" lon="-0.85288">
        <ele>62.168514</ele>
        <time>2022-08-03T14:57:10.000Z</time>
      </trkpt>
      <trkpt lat="49.35372" lon="-0.85287">
        <ele>62.250735</ele>
        <time>2022-08-03T14:57:11.000Z</time>
      </trkpt>
      <trkpt lat="49.35366" lon="-0.85286">
        <ele>62.316492</ele>
        <time>2022-08-03T14:57:12.000Z</time>
      </trkpt>
      <trkpt lat="49.3536" lon="-0.85284">
        <ele>62.385581</ele>
        <time>2022-08-03T14:57:13.000Z</time>
      </trkpt>
      <trkpt lat="49.35355" lon="-0.85284">
        <ele>62.446376</ele>
        <time>2022-08-03T14:57:14.000Z</time>
      </trkpt>
      <trkpt lat="49.35349" lon="-0.85283">
        <ele>62.518189</ele>
        <time>2022-08-03T14:57:15.000Z</time>
      </trkpt>
      <trkpt lat="49.35342" lon="-0.85284">
        <ele>62.586638</ele>
        <time>2022-08-03T14:57:16.000Z</time>
      </trkpt>
      <trkpt lat="49.35337" lon="-0.85284">
        <ele>62.651967</ele>
        <time>2022-08-03T14:57:17.000Z</time>
      </trkpt>
      <trkpt lat="49.35332" lon="-0.85285">
        <ele>62.705895</ele>
        <time>2022-08-03T14:57:18.000Z</time>
      </trkpt>
      <trkpt lat="49.35326" lon="-0.85285">
        <ele>62.773206</ele>
        <time>2022-08-03T14:57:19.000Z</time>
      </trkpt>
      <trkpt lat="49.3532" lon="-0.85285">
        <ele>62.838273</ele>
        <time>2022-08-03T14:57:20.000Z</time>
      </trkpt>
      <trkpt lat="49.35314" lon="-0.85285">
        <ele>62.903344</ele>
        <time>2022-08-03T14:57:21.000Z</time>
      </trkpt>
      <trkpt lat="49.35308" lon="-0.85285">
        <ele>62.970671</ele>
        <time>2022-08-03T14:57:22.000Z</time>
      </trkpt>
      <trkpt lat="49.35302" lon="-0.85285">
        <ele>63.035775</ele>
        <time>2022-08-03T14:57:23.000Z</time>
      </trkpt>
      <trkpt lat="49.35297" lon="-0.85285">
        <ele>63.096513</ele>
        <time>2022-08-03T14:57:24.000Z</time>
      </trkpt>
      <trkpt lat="49.35293" lon="-0.85287">
        <ele>63.148503</ele>
        <time>2022-08-03T14:57:25.000Z</time>
      </trkpt>
      <trkpt lat="49.35287" lon="-0.85289">
        <ele>63.206757</ele>
        <time>2022-08-03T14:57:26.000Z</time>
      </trkpt>
      <trkpt lat="49.35283" lon="-0.8529">
        <ele>63.262021</ele>
        <time>2022-08-03T14:57:27.000Z</time>
      </trkpt>
      <trkpt lat="49.35277" lon="-0.85292">
        <ele>63.324688</ele>
        <time>2022-08-03T14:57:28.000Z</time>
      </trkpt>
      <trkpt lat="49.35273" lon="-0.85293">
        <ele>63.376508</ele>
        <time>2022-08-03T14:57:29.000Z</time>
      </trkpt>
      <trkpt lat="49.35268" lon="-0.85295">
        <ele>63.426642</ele>
        <time>2022-08-03T14:57:30.000Z</time>
      </trkpt>
      <trkpt lat="49.35263" lon="-0.85296">
        <ele>63.481322</ele>
        <time>2022-08-03T14:57:31.000Z</time>
      </trkpt>
      <trkpt lat="49.35259" lon="-0.85297">
        <ele>63.542267</ele>
        <time>2022-08-03T14:57:32.000Z</time>
      </trkpt>
      <trkpt lat="49.35253" lon="-0.85298">
        <ele>63.638206</ele>
        <time>2022-08-03T14:57:33.000Z</time>
      </trkpt>
      <trkpt lat="49.35248" lon="-0.853">
        <ele>63.73457</ele>
        <time>2022-08-03T14:57:34.000Z</time>
      </trkpt>
      <trkpt lat="49.35243" lon="-0.85303">
        <ele>63.832579</ele>
        <time>2022-08-03T14:57:35.000Z</time>
      </trkpt>
      <trkpt lat="49.35238" lon="-0.85305">
        <ele>63.926165</ele>
        <time>2022-08-03T14:57:36.000Z</time>
      </trkpt>
      <trkpt lat="49.35234" lon="-0.85308">
        <ele>64.015979</ele>
        <time>2022-08-03T14:57:37.000Z</time>
      </trkpt>
      <trkpt lat="49.35229" lon="-0.85311">
        <ele>64.104002</ele>
        <time>2022-08-03T14:57:38.000Z</time>
      </trkpt>
      <trkpt lat="49.35225" lon="-0.85314">
        <ele>64.192139</ele>
        <time>2022-08-03T14:57:39.000Z</time>
      </trkpt>
      <trkpt lat="49.3522" lon="-0.85316">
        <ele>64.297148</ele>
        <time>2022-08-03T14:57:40.000Z</time>
      </trkpt>
      <trkpt lat="49.35213" lon="-0.85319">
        <ele>64.423376</ele>
        <time>2022-08-03T14:57:41.000Z</time>
      </trkpt>
      <trkpt lat="49.35207" lon="-0.85322">
        <ele>64.540638</ele>
        <time>2022-08-03T14:57:42.000Z</time>
      </trkpt>
      <trkpt lat="49.35201" lon="-0.85325">
        <ele>64.651747</ele>
        <time>2022-08-03T14:57:43.000Z</time>
      </trkpt>
      <trkpt lat="49.35196" lon="-0.85328">
        <ele>64.752629</ele>
        <time>2022-08-03T14:57:44.000Z</time>
      </trkpt>
      <trkpt lat="49.35191" lon="-0.8533">
        <ele>64.845421</ele>
        <time>2022-08-03T14:57:45.000Z</time>
      </trkpt>
      <trkpt lat="49.35186" lon="-0.85333">
        <ele>64.944183</ele>
        <time>2022-08-03T14:57:46.000Z</time>
      </trkpt>
      <trkpt lat="49.35181" lon="-0.85336">
        <ele>65.031792</ele>
        <time>2022-08-03T14:57:47.000Z</time>
      </trkpt>
      <trkpt lat="49.35176" lon="-0.85338">
        <ele>65.136136</ele>
        <time>2022-08-03T14:57:48.000Z</time>
      </trkpt>
      <trkpt lat="49.35172" lon="-0.85341">
        <ele>65.223746</ele>
        <time>2022-08-03T14:57:49.000Z</time>
      </trkpt>
      <trkpt lat="49.35166" lon="-0.85343">
        <ele>65.321756</ele>
        <time>2022-08-03T14:57:50.000Z</time>
      </trkpt>
      <trkpt lat="49.35162" lon="-0.85346">
        <ele>65.409365</ele>
        <time>2022-08-03T14:57:51.000Z</time>
      </trkpt>
      <trkpt lat="49.35157" lon="-0.85348">
        <ele>65.502158</ele>
        <time>2022-08-03T14:57:52.000Z</time>
      </trkpt>
      <trkpt lat="49.35152" lon="-0.85351">
        <ele>65.593864</ele>
        <time>2022-08-03T14:57:53.000Z</time>
      </trkpt>
      <trkpt lat="49.35148" lon="-0.85354">
        <ele>65.683678</ele>
        <time>2022-08-03T14:57:54.000Z</time>
      </trkpt>
      <trkpt lat="49.35143" lon="-0.85356">
        <ele>65.770875</ele>
        <time>2022-08-03T14:57:55.000Z</time>
      </trkpt>
      <trkpt lat="49.35139" lon="-0.85359">
        <ele>65.863668</ele>
        <time>2022-08-03T14:57:56.000Z</time>
      </trkpt>
      <trkpt lat="49.35134" lon="-0.85361">
        <ele>65.946135</ele>
        <time>2022-08-03T14:57:57.000Z</time>
      </trkpt>
      <trkpt lat="49.3513" lon="-0.85365">
        <ele>66.038486</ele>
        <time>2022-08-03T14:57:58.000Z</time>
      </trkpt>
      <trkpt lat="49.35125" lon="-0.85368">
        <ele>66.129277</ele>
        <time>2022-08-03T14:57:59.000Z</time>
      </trkpt>
      <trkpt lat="49.35121" lon="-0.85371">
        <ele>66.22328</ele>
        <time>2022-08-03T14:58:00.000Z</time>
      </trkpt>
      <trkpt lat="49.35116" lon="-0.85374">
        <ele>66.317714</ele>
        <time>2022-08-03T14:58:01.000Z</time>
      </trkpt>
      <trkpt lat="49.35112" lon="-0.85376">
        <ele>66.398924</ele>
        <time>2022-08-03T14:58:02.000Z</time>
      </trkpt>
      <trkpt lat="49.35108" lon="-0.85379">
        <ele>66.482283</ele>
        <time>2022-08-03T14:58:03.000Z</time>
      </trkpt>
      <trkpt lat="49.35103" lon="-0.85382">
        <ele>66.563956</ele>
        <time>2022-08-03T14:58:04.000Z</time>
      </trkpt>
      <trkpt lat="49.35099" lon="-0.85384">
        <ele>66.657139</ele>
        <time>2022-08-03T14:58:05.000Z</time>
      </trkpt>
      <trkpt lat="49.35094" lon="-0.85387">
        <ele>66.744351</ele>
        <time>2022-08-03T14:58:06.000Z</time>
      </trkpt>
      <trkpt lat="49.3509" lon="-0.85389">
        <ele>66.829868</ele>
        <time>2022-08-03T14:58:07.000Z</time>
      </trkpt>
      <trkpt lat="49.35084" lon="-0.85392">
        <ele>66.914434</ele>
        <time>2022-08-03T14:58:08.000Z</time>
      </trkpt>
      <trkpt lat="49.35079" lon="-0.85394">
        <ele>66.995848</ele>
        <time>2022-08-03T14:58:09.000Z</time>
      </trkpt>
      <trkpt lat="49.35074" lon="-0.85397">
        <ele>67.071846</ele>
        <time>2022-08-03T14:58:10.000Z</time>
      </trkpt>
      <trkpt lat="49.3507" lon="-0.854">
        <ele>67.143261</ele>
        <time>2022-08-03T14:58:11.000Z</time>
      </trkpt>
      <trkpt lat="49.35065" lon="-0.85402">
        <ele>67.224134</ele>
        <time>2022-08-03T14:58:12.000Z</time>
      </trkpt>
      <trkpt lat="49.3506" lon="-0.85404">
        <ele>67.300451</ele>
        <time>2022-08-03T14:58:13.000Z</time>
      </trkpt>
      <trkpt lat="49.35055" lon="-0.85407">
        <ele>67.378156</ele>
        <time>2022-08-03T14:58:14.000Z</time>
      </trkpt>
      <trkpt lat="49.35051" lon="-0.8541">
        <ele>67.450342</ele>
        <time>2022-08-03T14:58:15.000Z</time>
      </trkpt>
      <trkpt lat="49.35046" lon="-0.85413">
        <ele>67.5239</ele>
        <time>2022-08-03T14:58:16.000Z</time>
      </trkpt>
      <trkpt lat="49.35041" lon="-0.85416">
        <ele>67.604787</ele>
        <time>2022-08-03T14:58:17.000Z</time>
      </trkpt>
      <trkpt lat="49.35036" lon="-0.85418">
        <ele>67.679895</ele>
        <time>2022-08-03T14:58:18.000Z</time>
      </trkpt>
      <trkpt lat="49.35031" lon="-0.8542">
        <ele>67.759411</ele>
        <time>2022-08-03T14:58:19.000Z</time>
      </trkpt>
      <trkpt lat="49.35026" lon="-0.85422">
        <ele>67.834519</ele>
        <time>2022-08-03T14:58:20.000Z</time>
      </trkpt>
      <trkpt lat="49.35021" lon="-0.85424">
        <ele>67.914217</ele>
        <time>2022-08-03T14:58:21.000Z</time>
      </trkpt>
      <trkpt lat="49.35017" lon="-0.85427">
        <ele>67.985027</ele>
        <time>2022-08-03T14:58:22.000Z</time>
      </trkpt>
      <trkpt lat="49.35011" lon="-0.85429">
        <ele>68.072694</ele>
        <time>2022-08-03T14:58:23.000Z</time>
      </trkpt>
      <trkpt lat="49.35005" lon="-0.8543">
        <ele>68.160881</ele>
        <time>2022-08-03T14:58:24.000Z</time>
      </trkpt>
      <trkpt lat="49.34999" lon="-0.85432">
        <ele>68.247942</ele>
        <time>2022-08-03T14:58:25.000Z</time>
      </trkpt>
      <trkpt lat="49.34995" lon="-0.85434">
        <ele>68.323335</ele>
        <time>2022-08-03T14:58:26.000Z</time>
      </trkpt>
      <trkpt lat="49.34991" lon="-0.85437">
        <ele>68.387889</ele>
        <time>2022-08-03T14:58:27.000Z</time>
      </trkpt>
      <trkpt lat="49.34987" lon="-0.8544">
        <ele>68.457759</ele>
        <time>2022-08-03T14:58:28.000Z</time>
      </trkpt>
      <trkpt lat="49.34982" lon="-0.85443">
        <ele>68.535464</ele>
        <time>2022-08-03T14:58:29.000Z</time>
      </trkpt>
      <trkpt lat="49.34977" lon="-0.85446">
        <ele>68.608267</ele>
        <time>2022-08-03T14:58:30.000Z</time>
      </trkpt>
      <trkpt lat="49.34973" lon="-0.85449">
        <ele>68.684265</ele>
        <time>2022-08-03T14:58:31.000Z</time>
      </trkpt>
      <trkpt lat="49.34967" lon="-0.85451">
        <ele>68.763693</ele>
        <time>2022-08-03T14:58:32.000Z</time>
      </trkpt>
      <trkpt lat="49.34962" lon="-0.85453">
        <ele>68.844312</ele>
        <time>2022-08-03T14:58:33.000Z</time>
      </trkpt>
      <trkpt lat="49.34957" lon="-0.85455">
        <ele>68.923741</ele>
        <time>2022-08-03T14:58:34.000Z</time>
      </trkpt>
      <trkpt lat="49.34952" lon="-0.85456">
        <ele>69.005695</ele>
        <time>2022-08-03T14:58:35.000Z</time>
      </trkpt>
      <trkpt lat="49.34947" lon="-0.85458">
        <ele>69.084618</ele>
        <time>2022-08-03T14:58:36.000Z</time>
      </trkpt>
      <trkpt lat="49.34941" lon="-0.85461">
        <ele>69.166318</ele>
        <time>2022-08-03T14:58:37.000Z</time>
      </trkpt>
      <trkpt lat="49.34937" lon="-0.85463">
        <ele>69.241426</ele>
        <time>2022-08-03T14:58:38.000Z</time>
      </trkpt>
      <trkpt lat="49.34931" lon="-0.85465">
        <ele>69.324278</ele>
        <time>2022-08-03T14:58:39.000Z</time>
      </trkpt>
      <trkpt lat="49.34926" lon="-0.85466">
        <ele>69.406557</ele>
        <time>2022-08-03T14:58:40.000Z</time>
      </trkpt>
      <trkpt lat="49.34921" lon="-0.85468">
        <ele>69.485888</ele>
        <time>2022-08-03T14:58:41.000Z</time>
      </trkpt>
      <trkpt lat="49.34915" lon="-0.8547">
        <ele>69.49204</ele>
        <time>2022-08-03T14:58:42.000Z</time>
      </trkpt>
      <trkpt lat="49.3491" lon="-0.85471">
        <ele>69.456055</ele>
        <time>2022-08-03T14:58:43.000Z</time>
      </trkpt>
      <trkpt lat="49.34904" lon="-0.85473">
        <ele>69.419425</ele>
        <time>2022-08-03T14:58:44.000Z</time>
      </trkpt>
      <trkpt lat="49.34899" lon="-0.85474">
        <ele>69.385374</ele>
        <time>2022-08-03T14:58:45.000Z</time>
      </trkpt>
      <trkpt lat="49.34894" lon="-0.85475">
        <ele>69.349531</ele>
        <time>2022-08-03T14:58:46.000Z</time>
      </trkpt>
      <trkpt lat="49.34888" lon="-0.85477">
        <ele>69.313104</ele>
        <time>2022-08-03T14:58:47.000Z</time>
      </trkpt>
      <trkpt lat="49.34883" lon="-0.85478">
        <ele>69.277437</ele>
        <time>2022-08-03T14:58:48.000Z</time>
      </trkpt>
      <trkpt lat="49.34877" lon="-0.85479">
        <ele>69.239165</ele>
        <time>2022-08-03T14:58:49.000Z</time>
      </trkpt>
      <trkpt lat="49.34872" lon="-0.8548">
        <ele>69.205265</ele>
        <time>2022-08-03T14:58:50.000Z</time>
      </trkpt>
      <trkpt lat="49.34868" lon="-0.85481">
        <ele>69.175157</ele>
        <time>2022-08-03T14:58:51.000Z</time>
      </trkpt>
      <trkpt lat="49.34863" lon="-0.85482">
        <ele>69.145452</ele>
        <time>2022-08-03T14:58:52.000Z</time>
      </trkpt>
      <trkpt lat="49.34859" lon="-0.85483">
        <ele>69.12017</ele>
        <time>2022-08-03T14:58:53.000Z</time>
      </trkpt>
      <trkpt lat="49.34855" lon="-0.85484">
        <ele>69.095019</ele>
        <time>2022-08-03T14:58:54.000Z</time>
      </trkpt>
      <trkpt lat="49.34852" lon="-0.85485">
        <ele>69.069158</ele>
        <time>2022-08-03T14:58:55.000Z</time>
      </trkpt>
      <trkpt lat="49.34848" lon="-0.85485">
        <ele>69.046108</ele>
        <time>2022-08-03T14:58:56.000Z</time>
      </trkpt>
      <trkpt lat="49.34845" lon="-0.85486">
        <ele>69.026972</ele>
        <time>2022-08-03T14:58:57.000Z</time>
      </trkpt>
      <trkpt lat="49.34843" lon="-0.85487">
        <ele>69.010227</ele>
        <time>2022-08-03T14:58:58.000Z</time>
      </trkpt>
      <trkpt lat="49.3484" lon="-0.85488">
        <ele>68.994297</ele>
        <time>2022-08-03T14:58:59.000Z</time>
      </trkpt>
      <trkpt lat="49.34838" lon="-0.85489">
        <ele>68.979125</ele>
        <time>2022-08-03T14:59:01.000Z</time>
      </trkpt>
      <trkpt lat="49.34836" lon="-0.85491">
        <ele>68.960055</ele>
        <time>2022-08-03T14:59:03.000Z</time>
      </trkpt>
      <trkpt lat="49.34833" lon="-0.85494">
        <ele>68.935865</ele>
        <time>2022-08-03T14:59:05.000Z</time>
      </trkpt>
      <trkpt lat="49.34831" lon="-0.85497">
        <ele>68.921189</ele>
        <time>2022-08-03T14:59:06.000Z</time>
      </trkpt>
      <trkpt lat="49.34829" lon="-0.85501">
        <ele>68.90032</ele>
        <time>2022-08-03T14:59:07.000Z</time>
      </trkpt>
      <trkpt lat="49.34829" lon="-0.85506">
        <ele>68.879393</ele>
        <time>2022-08-03T14:59:08.000Z</time>
      </trkpt>
      <trkpt lat="49.34828" lon="-0.85511">
        <ele>68.85539</ele>
        <time>2022-08-03T14:59:09.000Z</time>
      </trkpt>
      <trkpt lat="49.34828" lon="-0.85517">
        <ele>68.8309</ele>
        <time>2022-08-03T14:59:10.000Z</time>
      </trkpt>
      <trkpt lat="49.34828" lon="-0.85523">
        <ele>68.804341</ele>
        <time>2022-08-03T14:59:11.000Z</time>
      </trkpt>
      <trkpt lat="49.34826" lon="-0.85529">
        <ele>68.778139</ele>
        <time>2022-08-03T14:59:12.000Z</time>
      </trkpt>
      <trkpt lat="49.34825" lon="-0.85534">
        <ele>68.753185</ele>
        <time>2022-08-03T14:59:13.000Z</time>
      </trkpt>
      <trkpt lat="49.34823" lon="-0.85539">
        <ele>68.728826</ele>
        <time>2022-08-03T14:59:14.000Z</time>
      </trkpt>
      <trkpt lat="49.3482" lon="-0.85543">
        <ele>68.705756</ele>
        <time>2022-08-03T14:59:15.000Z</time>
      </trkpt>
      <trkpt lat="49.34817" lon="-0.85546">
        <ele>68.682824</ele>
        <time>2022-08-03T14:59:16.000Z</time>
      </trkpt>
      <trkpt lat="49.34814" lon="-0.85549">
        <ele>68.657138</ele>
        <time>2022-08-03T14:59:17.000Z</time>
      </trkpt>
      <trkpt lat="49.3481" lon="-0.85551">
        <ele>68.632033</ele>
        <time>2022-08-03T14:59:18.000Z</time>
      </trkpt>
      <trkpt lat="49.34807" lon="-0.85552">
        <ele>68.60842</ele>
        <time>2022-08-03T14:59:19.000Z</time>
      </trkpt>
      <trkpt lat="49.34805" lon="-0.85553">
        <ele>68.593687</ele>
        <time>2022-08-03T14:59:20.000Z</time>
      </trkpt>
      <trkpt lat="49.34802" lon="-0.85553">
        <ele>68.578551</ele>
        <time>2022-08-03T14:59:21.000Z</time>
      </trkpt>
      <trkpt lat="49.348" lon="-0.85553">
        <ele>68.566092</ele>
        <time>2022-08-03T14:59:22.000Z</time>
      </trkpt>
      <trkpt lat="49.34798" lon="-0.85552">
        <ele>68.548916</ele>
        <time>2022-08-03T14:59:24.000Z</time>
      </trkpt>
      <trkpt lat="49.34796" lon="-0.8555">
        <ele>68.536622</ele>
        <time>2022-08-03T14:59:27.000Z</time>
      </trkpt>
      <trkpt lat="49.34794" lon="-0.85542">
        <ele>68.498091</ele>
        <time>2022-08-03T15:00:48.000Z</time>
      </trkpt>
      <trkpt lat="49.34793" lon="-0.85538">
        <ele>68.480013</ele>
        <time>2022-08-03T15:00:49.000Z</time>
      </trkpt>
      <trkpt lat="49.34792" lon="-0.85533">
        <ele>68.458201</ele>
        <time>2022-08-03T15:00:50.000Z</time>
      </trkpt>
      <trkpt lat="49.3479" lon="-0.85527">
        <ele>68.430109</ele>
        <time>2022-08-03T15:00:51.000Z</time>
      </trkpt>
      <trkpt lat="49.34789" lon="-0.8552">
        <ele>68.398419</ele>
        <time>2022-08-03T15:00:52.000Z</time>
      </trkpt>
      <trkpt lat="49.34787" lon="-0.85513">
        <ele>68.365234</ele>
        <time>2022-08-03T15:00:53.000Z</time>
      </trkpt>
      <trkpt lat="49.34784" lon="-0.85506">
        <ele>68.329781</ele>
        <time>2022-08-03T15:00:54.000Z</time>
      </trkpt>
      <trkpt lat="49.34781" lon="-0.85499">
        <ele>68.284556</ele>
        <time>2022-08-03T15:00:55.000Z</time>
      </trkpt>
      <trkpt lat="49.34777" lon="-0.85494">
        <ele>68.241216</ele>
        <time>2022-08-03T15:00:56.000Z</time>
      </trkpt>
      <trkpt lat="49.34773" lon="-0.85489">
        <ele>68.1959</ele>
        <time>2022-08-03T15:00:57.000Z</time>
      </trkpt>
      <trkpt lat="49.34767" lon="-0.85484">
        <ele>68.145551</ele>
        <time>2022-08-03T15:00:58.000Z</time>
      </trkpt>
      <trkpt lat="49.34762" lon="-0.8548">
        <ele>68.099072</ele>
        <time>2022-08-03T15:00:59.000Z</time>
      </trkpt>
      <trkpt lat="49.34756" lon="-0.85477">
        <ele>68.04838</ele>
        <time>2022-08-03T15:01:00.000Z</time>
      </trkpt>
      <trkpt lat="49.34751" lon="-0.85473">
        <ele>68.0004</ele>
        <time>2022-08-03T15:01:01.000Z</time>
      </trkpt>
      <trkpt lat="49.34745" lon="-0.85471">
        <ele>67.948464</ele>
        <time>2022-08-03T15:01:02.000Z</time>
      </trkpt>
      <trkpt lat="49.34739" lon="-0.85468">
        <ele>67.899644</ele>
        <time>2022-08-03T15:01:03.000Z</time>
      </trkpt>
      <trkpt lat="49.34731" lon="-0.85465">
        <ele>67.834842</ele>
        <time>2022-08-03T15:01:04.000Z</time>
      </trkpt>
      <trkpt lat="49.34725" lon="-0.85462">
        <ele>67.783339</ele>
        <time>2022-08-03T15:01:05.000Z</time>
      </trkpt>
      <trkpt lat="49.34719" lon="-0.8546">
        <ele>67.731971</ele>
        <time>2022-08-03T15:01:06.000Z</time>
      </trkpt>
      <trkpt lat="49.34713" lon="-0.85457">
        <ele>67.681115</ele>
        <time>2022-08-03T15:01:07.000Z</time>
      </trkpt>
      <trkpt lat="49.34707" lon="-0.85455">
        <ele>67.629328</ele>
        <time>2022-08-03T15:01:08.000Z</time>
      </trkpt>
      <trkpt lat="49.34701" lon="-0.85451">
        <ele>67.579052</ele>
        <time>2022-08-03T15:01:09.000Z</time>
      </trkpt>
      <trkpt lat="49.34696" lon="-0.85448">
        <ele>67.535474</ele>
        <time>2022-08-03T15:01:10.000Z</time>
      </trkpt>
      <trkpt lat="49.3469" lon="-0.85442">
        <ele>67.47666</ele>
        <time>2022-08-03T15:01:11.000Z</time>
      </trkpt>
      <trkpt lat="49.34685" lon="-0.85436">
        <ele>67.426164</ele>
        <time>2022-08-03T15:01:12.000Z</time>
      </trkpt>
      <trkpt lat="49.34682" lon="-0.85429">
        <ele>67.379405</ele>
        <time>2022-08-03T15:01:13.000Z</time>
      </trkpt>
      <trkpt lat="49.34679" lon="-0.85423">
        <ele>67.338198</ele>
        <time>2022-08-03T15:01:14.000Z</time>
      </trkpt>
      <trkpt lat="49.34677" lon="-0.85415">
        <ele>67.293515</ele>
        <time>2022-08-03T15:01:15.000Z</time>
      </trkpt>
      <trkpt lat="49.34675" lon="-0.85406">
        <ele>67.244909</ele>
        <time>2022-08-03T15:01:16.000Z</time>
      </trkpt>
      <trkpt lat="49.34672" lon="-0.85398">
        <ele>67.195792</ele>
        <time>2022-08-03T15:01:17.000Z</time>
      </trkpt>
      <trkpt lat="49.3467" lon="-0.8539">
        <ele>67.148538</ele>
        <time>2022-08-03T15:01:18.000Z</time>
      </trkpt>
      <trkpt lat="49.34668" lon="-0.85382">
        <ele>67.103</ele>
        <time>2022-08-03T15:01:19.000Z</time>
      </trkpt>
      <trkpt lat="49.34666" lon="-0.85374">
        <ele>67.057749</ele>
        <time>2022-08-03T15:01:20.000Z</time>
      </trkpt>
      <trkpt lat="49.34665" lon="-0.85366">
        <ele>67.015991</ele>
        <time>2022-08-03T15:01:21.000Z</time>
      </trkpt>
      <trkpt lat="49.34663" lon="-0.85358">
        <ele>66.972364</ele>
        <time>2022-08-03T15:01:22.000Z</time>
      </trkpt>
      <trkpt lat="49.34662" lon="-0.85351">
        <ele>66.931681</ele>
        <time>2022-08-03T15:01:23.000Z</time>
      </trkpt>
      <trkpt lat="49.34661" lon="-0.85343">
        <ele>66.891518</ele>
        <time>2022-08-03T15:01:24.000Z</time>
      </trkpt>
      <trkpt lat="49.34661" lon="-0.85336">
        <ele>66.885552</ele>
        <time>2022-08-03T15:01:25.000Z</time>
      </trkpt>
      <trkpt lat="49.34661" lon="-0.85329">
        <ele>66.927255</ele>
        <time>2022-08-03T15:01:26.000Z</time>
      </trkpt>
      <trkpt lat="49.34661" lon="-0.85323">
        <ele>66.965104</ele>
        <time>2022-08-03T15:01:27.000Z</time>
      </trkpt>
      <trkpt lat="49.34662" lon="-0.85317">
        <ele>67.004808</ele>
        <time>2022-08-03T15:01:28.000Z</time>
      </trkpt>
      <trkpt lat="49.34663" lon="-0.8531">
        <ele>67.043355</ele>
        <time>2022-08-03T15:01:29.000Z</time>
      </trkpt>
      <trkpt lat="49.34665" lon="-0.85304">
        <ele>67.084106</ele>
        <time>2022-08-03T15:01:30.000Z</time>
      </trkpt>
      <trkpt lat="49.34667" lon="-0.85298">
        <ele>67.125376</ele>
        <time>2022-08-03T15:01:31.000Z</time>
      </trkpt>
      <trkpt lat="49.34669" lon="-0.85291">
        <ele>67.166682</ele>
        <time>2022-08-03T15:01:32.000Z</time>
      </trkpt>
      <trkpt lat="49.3467" lon="-0.85285">
        <ele>67.209034</ele>
        <time>2022-08-03T15:01:33.000Z</time>
      </trkpt>
      <trkpt lat="49.34672" lon="-0.85278">
        <ele>67.252473</ele>
        <time>2022-08-03T15:01:34.000Z</time>
      </trkpt>
      <trkpt lat="49.34675" lon="-0.85271">
        <ele>67.298323</ele>
        <time>2022-08-03T15:01:35.000Z</time>
      </trkpt>
      <trkpt lat="49.34677" lon="-0.85264">
        <ele>67.347219</ele>
        <time>2022-08-03T15:01:36.000Z</time>
      </trkpt>
      <trkpt lat="49.34679" lon="-0.85256">
        <ele>67.397838</ele>
        <time>2022-08-03T15:01:37.000Z</time>
      </trkpt>
      <trkpt lat="49.34681" lon="-0.85249">
        <ele>67.441938</ele>
        <time>2022-08-03T15:01:38.000Z</time>
      </trkpt>
      <trkpt lat="49.34683" lon="-0.85242">
        <ele>67.486833</ele>
        <time>2022-08-03T15:01:39.000Z</time>
      </trkpt>
      <trkpt lat="49.34685" lon="-0.85236">
        <ele>67.528102</ele>
        <time>2022-08-03T15:01:40.000Z</time>
      </trkpt>
      <trkpt lat="49.34687" lon="-0.85229">
        <ele>67.572705</ele>
        <time>2022-08-03T15:01:41.000Z</time>
      </trkpt>
      <trkpt lat="49.34689" lon="-0.85222">
        <ele>67.615599</ele>
        <time>2022-08-03T15:01:42.000Z</time>
      </trkpt>
      <trkpt lat="49.34691" lon="-0.85216">
        <ele>67.659411</ele>
        <time>2022-08-03T15:01:43.000Z</time>
      </trkpt>
      <trkpt lat="49.34693" lon="-0.85209">
        <ele>67.70285</ele>
        <time>2022-08-03T15:01:44.000Z</time>
      </trkpt>
      <trkpt lat="49.34694" lon="-0.85202">
        <ele>67.745744</ele>
        <time>2022-08-03T15:01:45.000Z</time>
      </trkpt>
      <trkpt lat="49.34696" lon="-0.85196">
        <ele>67.789183</ele>
        <time>2022-08-03T15:01:46.000Z</time>
      </trkpt>
      <trkpt lat="49.34699" lon="-0.85189">
        <ele>67.834203</ele>
        <time>2022-08-03T15:01:47.000Z</time>
      </trkpt>
      <trkpt lat="49.34701" lon="-0.85182">
        <ele>67.878188</ele>
        <time>2022-08-03T15:01:48.000Z</time>
      </trkpt>
      <trkpt lat="49.34703" lon="-0.85175">
        <ele>67.92439</ele>
        <time>2022-08-03T15:01:49.000Z</time>
      </trkpt>
      <trkpt lat="49.34705" lon="-0.85168">
        <ele>67.970995</ele>
        <time>2022-08-03T15:01:50.000Z</time>
      </trkpt>
      <trkpt lat="49.34707" lon="-0.85161">
        <ele>68.017726</ele>
        <time>2022-08-03T15:01:51.000Z</time>
      </trkpt>
      <trkpt lat="49.34709" lon="-0.85153">
        <ele>68.06608</ele>
        <time>2022-08-03T15:01:52.000Z</time>
      </trkpt>
      <trkpt lat="49.34711" lon="-0.85146">
        <ele>68.114285</ele>
        <time>2022-08-03T15:01:53.000Z</time>
      </trkpt>
      <trkpt lat="49.34714" lon="-0.85139">
        <ele>68.16156</ele>
        <time>2022-08-03T15:01:54.000Z</time>
      </trkpt>
      <trkpt lat="49.34716" lon="-0.85132">
        <ele>68.209978</ele>
        <time>2022-08-03T15:01:55.000Z</time>
      </trkpt>
      <trkpt lat="49.34718" lon="-0.85125">
        <ele>68.257253</ele>
        <time>2022-08-03T15:01:56.000Z</time>
      </trkpt>
      <trkpt lat="49.34721" lon="-0.85117">
        <ele>68.305067</ele>
        <time>2022-08-03T15:01:57.000Z</time>
      </trkpt>
      <trkpt lat="49.34723" lon="-0.8511">
        <ele>68.354345</ele>
        <time>2022-08-03T15:01:58.000Z</time>
      </trkpt>
      <trkpt lat="49.34725" lon="-0.85102">
        <ele>68.404426</ele>
        <time>2022-08-03T15:01:59.000Z</time>
      </trkpt>
      <trkpt lat="49.34729" lon="-0.85095">
        <ele>68.45872</ele>
        <time>2022-08-03T15:02:00.000Z</time>
      </trkpt>
      <trkpt lat="49.34732" lon="-0.85087">
        <ele>68.50879</ele>
        <time>2022-08-03T15:02:01.000Z</time>
      </trkpt>
      <trkpt lat="49.34735" lon="-0.85079">
        <ele>68.472299</ele>
        <time>2022-08-03T15:02:02.000Z</time>
      </trkpt>
      <trkpt lat="49.34738" lon="-0.85072">
        <ele>68.435422</ele>
        <time>2022-08-03T15:02:03.000Z</time>
      </trkpt>
      <trkpt lat="49.34741" lon="-0.85065">
        <ele>68.401872</ele>
        <time>2022-08-03T15:02:04.000Z</time>
      </trkpt>
      <trkpt lat="49.34743" lon="-0.85057">
        <ele>68.367612</ele>
        <time>2022-08-03T15:02:05.000Z</time>
      </trkpt>
      <trkpt lat="49.34747" lon="-0.8505">
        <ele>68.331061</ele>
        <time>2022-08-03T15:02:06.000Z</time>
      </trkpt>
      <trkpt lat="49.3475" lon="-0.85042">
        <ele>68.295244</ele>
        <time>2022-08-03T15:02:07.000Z</time>
      </trkpt>
      <trkpt lat="49.34753" lon="-0.85035">
        <ele>68.259763</ele>
        <time>2022-08-03T15:02:08.000Z</time>
      </trkpt>
      <trkpt lat="49.34757" lon="-0.85028">
        <ele>68.224281</ele>
        <time>2022-08-03T15:02:09.000Z</time>
      </trkpt>
      <trkpt lat="49.3476" lon="-0.85021">
        <ele>68.189133</ele>
        <time>2022-08-03T15:02:10.000Z</time>
      </trkpt>
      <trkpt lat="49.34762" lon="-0.85014">
        <ele>68.156942</ele>
        <time>2022-08-03T15:02:11.000Z</time>
      </trkpt>
      <trkpt lat="49.34765" lon="-0.85007">
        <ele>68.123489</ele>
        <time>2022-08-03T15:02:12.000Z</time>
      </trkpt>
      <trkpt lat="49.34768" lon="-0.85">
        <ele>68.089005</ele>
        <time>2022-08-03T15:02:13.000Z</time>
      </trkpt>
      <trkpt lat="49.34771" lon="-0.84993">
        <ele>68.057557</ele>
        <time>2022-08-03T15:02:14.000Z</time>
      </trkpt>
      <trkpt lat="49.34774" lon="-0.84986">
        <ele>68.02438</ele>
        <time>2022-08-03T15:02:15.000Z</time>
      </trkpt>
      <trkpt lat="49.34778" lon="-0.8498">
        <ele>67.989748</ele>
        <time>2022-08-03T15:02:16.000Z</time>
      </trkpt>
      <trkpt lat="49.34781" lon="-0.84973">
        <ele>67.958641</ele>
        <time>2022-08-03T15:02:17.000Z</time>
      </trkpt>
      <trkpt lat="49.34784" lon="-0.84967">
        <ele>67.925558</ele>
        <time>2022-08-03T15:02:18.000Z</time>
      </trkpt>
      <trkpt lat="49.34788" lon="-0.84961">
        <ele>67.892475</ele>
        <time>2022-08-03T15:02:19.000Z</time>
      </trkpt>
      <trkpt lat="49.34791" lon="-0.84955">
        <ele>67.860261</ele>
        <time>2022-08-03T15:02:20.000Z</time>
      </trkpt>
      <trkpt lat="49.34794" lon="-0.84948">
        <ele>67.827178</ele>
        <time>2022-08-03T15:02:21.000Z</time>
      </trkpt>
      <trkpt lat="49.34798" lon="-0.84943">
        <ele>67.794395</ele>
        <time>2022-08-03T15:02:22.000Z</time>
      </trkpt>
      <trkpt lat="49.34802" lon="-0.84937">
        <ele>67.762066</ele>
        <time>2022-08-03T15:02:23.000Z</time>
      </trkpt>
      <trkpt lat="49.34806" lon="-0.84932">
        <ele>67.727441</ele>
        <time>2022-08-03T15:02:24.000Z</time>
      </trkpt>
      <trkpt lat="49.34811" lon="-0.84927">
        <ele>67.69329</ele>
        <time>2022-08-03T15:02:25.000Z</time>
      </trkpt>
      <trkpt lat="49.34815" lon="-0.84923">
        <ele>67.663334</ele>
        <time>2022-08-03T15:02:26.000Z</time>
      </trkpt>
      <trkpt lat="49.3482" lon="-0.84918">
        <ele>67.627651</ele>
        <time>2022-08-03T15:02:27.000Z</time>
      </trkpt>
      <trkpt lat="49.34824" lon="-0.84913">
        <ele>67.592542</ele>
        <time>2022-08-03T15:02:28.000Z</time>
      </trkpt>
      <trkpt lat="49.34828" lon="-0.84907">
        <ele>67.558886</ele>
        <time>2022-08-03T15:02:29.000Z</time>
      </trkpt>
      <trkpt lat="49.34832" lon="-0.84902">
        <ele>67.525446</ele>
        <time>2022-08-03T15:02:30.000Z</time>
      </trkpt>
      <trkpt lat="49.34837" lon="-0.84896">
        <ele>67.489587</ele>
        <time>2022-08-03T15:02:31.000Z</time>
      </trkpt>
      <trkpt lat="49.34841" lon="-0.84891">
        <ele>67.453473</ele>
        <time>2022-08-03T15:02:32.000Z</time>
      </trkpt>
      <trkpt lat="49.34845" lon="-0.84885">
        <ele>67.422204</ele>
        <time>2022-08-03T15:02:33.000Z</time>
      </trkpt>
      <trkpt lat="49.34848" lon="-0.84878">
        <ele>67.380458</ele>
        <time>2022-08-03T15:02:34.000Z</time>
      </trkpt>
      <trkpt lat="49.3485" lon="-0.84871">
        <ele>67.318017</ele>
        <time>2022-08-03T15:02:35.000Z</time>
      </trkpt>
      <trkpt lat="49.34852" lon="-0.84863">
        <ele>67.255274</ele>
        <time>2022-08-03T15:02:36.000Z</time>
      </trkpt>
      <trkpt lat="49.34853" lon="-0.84855">
        <ele>67.191791</ele>
        <time>2022-08-03T15:02:37.000Z</time>
      </trkpt>
      <trkpt lat="49.34853" lon="-0.84848">
        <ele>67.133568</ele>
        <time>2022-08-03T15:02:38.000Z</time>
      </trkpt>
      <trkpt lat="49.34852" lon="-0.84842">
        <ele>67.087065</ele>
        <time>2022-08-03T15:02:39.000Z</time>
      </trkpt>
      <trkpt lat="49.34851" lon="-0.84838">
        <ele>67.050626</ele>
        <time>2022-08-03T15:02:40.000Z</time>
      </trkpt>
      <trkpt lat="49.34849" lon="-0.84835">
        <ele>67.020688</ele>
        <time>2022-08-03T15:02:41.000Z</time>
      </trkpt>
      <trkpt lat="49.34848" lon="-0.84832">
        <ele>66.99059</ele>
        <time>2022-08-03T15:02:42.000Z</time>
      </trkpt>
      <trkpt lat="49.34846" lon="-0.84828">
        <ele>66.959313</ele>
        <time>2022-08-03T15:02:44.000Z</time>
      </trkpt>
      <trkpt lat="49.34855" lon="-0.84818">
        <ele>66.831215</ele>
        <time>2022-08-03T15:03:48.000Z</time>
      </trkpt>
      <trkpt lat="49.34861" lon="-0.84818">
        <ele>66.758524</ele>
        <time>2022-08-03T15:04:00.000Z</time>
      </trkpt>
      <trkpt lat="49.34864" lon="-0.84815">
        <ele>66.715506</ele>
        <time>2022-08-03T15:04:06.000Z</time>
      </trkpt>
      <trkpt lat="49.34866" lon="-0.84813">
        <ele>66.686155</ele>
        <time>2022-08-03T15:04:07.000Z</time>
      </trkpt>
      <trkpt lat="49.3487" lon="-0.84811">
        <ele>66.636369</ele>
        <time>2022-08-03T15:04:09.000Z</time>
      </trkpt>
      <trkpt lat="49.34873" lon="-0.8481">
        <ele>66.60095</ele>
        <time>2022-08-03T15:04:10.000Z</time>
      </trkpt>
      <trkpt lat="49.34877" lon="-0.84805">
        <ele>66.536064</ele>
        <time>2022-08-03T15:04:18.000Z</time>
      </trkpt>
      <trkpt lat="49.34873" lon="-0.84804">
        <ele>66.490358</ele>
        <time>2022-08-03T15:04:19.000Z</time>
      </trkpt>
      <trkpt lat="49.3487" lon="-0.84803">
        <ele>66.45159</ele>
        <time>2022-08-03T15:04:20.000Z</time>
      </trkpt>
      <trkpt lat="49.34867" lon="-0.84801">
        <ele>66.413705</ele>
        <time>2022-08-03T15:04:22.000Z</time>
      </trkpt>
      <trkpt lat="49.34865" lon="-0.848">
        <ele>66.389506</ele>
        <time>2022-08-03T15:04:24.000Z</time>
      </trkpt>
      <trkpt lat="49.34861" lon="-0.84788">
        <ele>66.289547</ele>
        <time>2022-08-03T15:04:37.000Z</time>
      </trkpt>
      <trkpt lat="49.34861" lon="-0.84785">
        <ele>66.259831</ele>
        <time>2022-08-03T15:04:38.000Z</time>
      </trkpt>
      <trkpt lat="49.3486" lon="-0.8478">
        <ele>66.22303</ele>
        <time>2022-08-03T15:04:39.000Z</time>
      </trkpt>
      <trkpt lat="49.34859" lon="-0.84776">
        <ele>66.191165</ele>
        <time>2022-08-03T15:04:40.000Z</time>
      </trkpt>
      <trkpt lat="49.34858" lon="-0.84772">
        <ele>66.151526</ele>
        <time>2022-08-03T15:04:41.000Z</time>
      </trkpt>
      <trkpt lat="49.34857" lon="-0.84766">
        <ele>66.109765</ele>
        <time>2022-08-03T15:04:42.000Z</time>
      </trkpt>
      <trkpt lat="49.34856" lon="-0.84762">
        <ele>66.070126</ele>
        <time>2022-08-03T15:04:43.000Z</time>
      </trkpt>
      <trkpt lat="49.34855" lon="-0.84757">
        <ele>66.032946</ele>
        <time>2022-08-03T15:04:44.000Z</time>
      </trkpt>
      <trkpt lat="49.34855" lon="-0.84752">
        <ele>65.993068</ele>
        <time>2022-08-03T15:04:45.000Z</time>
      </trkpt>
      <trkpt lat="49.34854" lon="-0.84745">
        <ele>65.942104</ele>
        <time>2022-08-03T15:04:46.000Z</time>
      </trkpt>
      <trkpt lat="49.34854" lon="-0.8474">
        <ele>65.903399</ele>
        <time>2022-08-03T15:04:47.000Z</time>
      </trkpt>
      <trkpt lat="49.34854" lon="-0.84733">
        <ele>65.848281</ele>
        <time>2022-08-03T15:04:48.000Z</time>
      </trkpt>
      <trkpt lat="49.34854" lon="-0.84729">
        <ele>65.815676</ele>
        <time>2022-08-03T15:04:49.000Z</time>
      </trkpt>
      <trkpt lat="49.34855" lon="-0.84725">
        <ele>65.781489</ele>
        <time>2022-08-03T15:04:50.000Z</time>
      </trkpt>
      <trkpt lat="49.34857" lon="-0.84722">
        <ele>65.743973</ele>
        <time>2022-08-03T15:04:51.000Z</time>
      </trkpt>
      <trkpt lat="49.34859" lon="-0.84721">
        <ele>65.71949</ele>
        <time>2022-08-03T15:04:52.000Z</time>
      </trkpt>
      <trkpt lat="49.34861" lon="-0.8472">
        <ele>65.696518</ele>
        <time>2022-08-03T15:04:53.000Z</time>
      </trkpt>
      <trkpt lat="49.34863" lon="-0.8472">
        <ele>65.673757</ele>
        <time>2022-08-03T15:04:54.000Z</time>
      </trkpt>
      <trkpt lat="49.34866" lon="-0.84719">
        <ele>65.642301</ele>
        <time>2022-08-03T15:04:55.000Z</time>
      </trkpt>
      <trkpt lat="49.34868" lon="-0.84719">
        <ele>65.619607</ele>
        <time>2022-08-03T15:04:56.000Z</time>
      </trkpt>
      <trkpt lat="49.3487" lon="-0.84719">
        <ele>65.5921</ele>
        <time>2022-08-03T15:04:57.000Z</time>
      </trkpt>
      <trkpt lat="49.34872" lon="-0.84718">
        <ele>65.569405</ele>
        <time>2022-08-03T15:04:58.000Z</time>
      </trkpt>
      <trkpt lat="49.34876" lon="-0.84718">
        <ele>65.523699</ele>
        <time>2022-08-03T15:05:00.000Z</time>
      </trkpt>
      <trkpt lat="49.34879" lon="-0.84718">
        <ele>65.477224</ele>
        <time>2022-08-03T15:05:02.000Z</time>
      </trkpt>
      <trkpt lat="49.34881" lon="-0.84718">
        <ele>65.454463</ele>
        <time>2022-08-03T15:05:03.000Z</time>
      </trkpt>
      <trkpt lat="49.34884" lon="-0.84719">
        <ele>65.418672</ele>
        <time>2022-08-03T15:05:04.000Z</time>
      </trkpt>
      <trkpt lat="49.34886" lon="-0.8472">
        <ele>65.39173</ele>
        <time>2022-08-03T15:05:05.000Z</time>
      </trkpt>
      <trkpt lat="49.34889" lon="-0.8472">
        <ele>65.360708</ele>
        <time>2022-08-03T15:05:06.000Z</time>
      </trkpt>
      <trkpt lat="49.34891" lon="-0.8472">
        <ele>65.334388</ele>
        <time>2022-08-03T15:05:07.000Z</time>
      </trkpt>
      <trkpt lat="49.34893" lon="-0.84719">
        <ele>65.307886</ele>
        <time>2022-08-03T15:05:08.000Z</time>
      </trkpt>
      <trkpt lat="49.34896" lon="-0.84719">
        <ele>65.280303</ele>
        <time>2022-08-03T15:05:09.000Z</time>
      </trkpt>
      <trkpt lat="49.34898" lon="-0.8472">
        <ele>65.251162</ele>
        <time>2022-08-03T15:05:10.000Z</time>
      </trkpt>
      <trkpt lat="49.349" lon="-0.84722">
        <ele>65.177564</ele>
        <time>2022-08-03T15:05:11.000Z</time>
      </trkpt>
      <trkpt lat="49.349" lon="-0.84725">
        <ele>65.114133</ele>
        <time>2022-08-03T15:05:12.000Z</time>
      </trkpt>
      <trkpt lat="49.34898" lon="-0.84727">
        <ele>65.05077</ele>
        <time>2022-08-03T15:05:13.000Z</time>
      </trkpt>
      <trkpt lat="49.34895" lon="-0.84729">
        <ele>64.949673</ele>
        <time>2022-08-03T15:05:15.000Z</time>
      </trkpt>
      <trkpt lat="49.34893" lon="-0.84726">
        <ele>64.847842</ele>
        <time>2022-08-03T15:05:17.000Z</time>
      </trkpt>
      <trkpt lat="49.34892" lon="-0.84724">
        <ele>64.781239</ele>
        <time>2022-08-03T15:05:18.000Z</time>
      </trkpt>
      <trkpt lat="49.3489" lon="-0.84722">
        <ele>64.709504</ele>
        <time>2022-08-03T15:05:19.000Z</time>
      </trkpt>
      <trkpt lat="49.34888" lon="-0.84722">
        <ele>64.645114</ele>
        <time>2022-08-03T15:05:20.000Z</time>
      </trkpt>
      <trkpt lat="49.34886" lon="-0.84722">
        <ele>64.570958</ele>
        <time>2022-08-03T15:05:21.000Z</time>
      </trkpt>
      <trkpt lat="49.34884" lon="-0.84721">
        <ele>64.492232</ele>
        <time>2022-08-03T15:05:22.000Z</time>
      </trkpt>
      <trkpt lat="49.34882" lon="-0.84721">
        <ele>64.428102</ele>
        <time>2022-08-03T15:05:23.000Z</time>
      </trkpt>
      <trkpt lat="49.34879" lon="-0.8472">
        <ele>64.352667</ele>
        <time>2022-08-03T15:05:24.000Z</time>
      </trkpt>
      <trkpt lat="49.34877" lon="-0.8472">
        <ele>64.275165</ele>
        <time>2022-08-03T15:05:25.000Z</time>
      </trkpt>
      <trkpt lat="49.34874" lon="-0.8472">
        <ele>64.177185</ele>
        <time>2022-08-03T15:05:26.000Z</time>
      </trkpt>
      <trkpt lat="49.34871" lon="-0.84721">
        <ele>64.068659</ele>
        <time>2022-08-03T15:05:27.000Z</time>
      </trkpt>
      <trkpt lat="49.34869" lon="-0.84721">
        <ele>64.003531</ele>
        <time>2022-08-03T15:05:28.000Z</time>
      </trkpt>
      <trkpt lat="49.34866" lon="-0.84722">
        <ele>63.90555</ele>
        <time>2022-08-03T15:05:29.000Z</time>
      </trkpt>
      <trkpt lat="49.34864" lon="-0.84723">
        <ele>63.829107</ele>
        <time>2022-08-03T15:05:30.000Z</time>
      </trkpt>
      <trkpt lat="49.34861" lon="-0.84724">
        <ele>63.738556</ele>
        <time>2022-08-03T15:05:31.000Z</time>
      </trkpt>
      <trkpt lat="49.34859" lon="-0.84725">
        <ele>63.661521</ele>
        <time>2022-08-03T15:05:32.000Z</time>
      </trkpt>
      <trkpt lat="49.34855" lon="-0.84727">
        <ele>63.525162</ele>
        <time>2022-08-03T15:05:34.000Z</time>
      </trkpt>
      <trkpt lat="49.34853" lon="-0.84727">
        <ele>63.457692</ele>
        <time>2022-08-03T15:05:35.000Z</time>
      </trkpt>
      <trkpt lat="49.34849" lon="-0.84716">
        <ele>63.17478</ele>
        <time>2022-08-03T15:05:57.000Z</time>
      </trkpt>
      <trkpt lat="49.34848" lon="-0.8471">
        <ele>63.028697</ele>
        <time>2022-08-03T15:05:58.000Z</time>
      </trkpt>
      <trkpt lat="49.34848" lon="-0.84702">
        <ele>62.870891</ele>
        <time>2022-08-03T15:05:59.000Z</time>
      </trkpt>
      <trkpt lat="49.34848" lon="-0.84695">
        <ele>62.710902</ele>
        <time>2022-08-03T15:06:00.000Z</time>
      </trkpt>
      <trkpt lat="49.34848" lon="-0.84688">
        <ele>62.553097</ele>
        <time>2022-08-03T15:06:01.000Z</time>
      </trkpt>
      <trkpt lat="49.34848" lon="-0.8468">
        <ele>62.389051</ele>
        <time>2022-08-03T15:06:02.000Z</time>
      </trkpt>
      <trkpt lat="49.34848" lon="-0.84672">
        <ele>62.20286</ele>
        <time>2022-08-03T15:06:03.000Z</time>
      </trkpt>
      <trkpt lat="49.34848" lon="-0.84666">
        <ele>62.065061</ele>
        <time>2022-08-03T15:06:04.000Z</time>
      </trkpt>
      <trkpt lat="49.34849" lon="-0.84662">
        <ele>61.976829</ele>
        <time>2022-08-03T15:06:05.000Z</time>
      </trkpt>
      <trkpt lat="49.3485" lon="-0.84659">
        <ele>61.904588</ele>
        <time>2022-08-03T15:06:06.000Z</time>
      </trkpt>
      <trkpt lat="49.34852" lon="-0.84657">
        <ele>61.841224</ele>
        <time>2022-08-03T15:06:07.000Z</time>
      </trkpt>
      <trkpt lat="49.34853" lon="-0.84653">
        <ele>61.739296</ele>
        <time>2022-08-03T15:06:09.000Z</time>
      </trkpt>
      <trkpt lat="49.34854" lon="-0.84652">
        <ele>61.674167</ele>
        <time>2022-08-03T15:06:11.000Z</time>
      </trkpt>
      <trkpt lat="49.34855" lon="-0.84656">
        <ele>61.59456</ele>
        <time>2022-08-03T15:06:13.000Z</time>
      </trkpt>
      <trkpt lat="49.34861" lon="-0.84664">
        <ele>61.349735</ele>
        <time>2022-08-03T15:06:41.000Z</time>
      </trkpt>
      <trkpt lat="49.34862" lon="-0.84666">
        <ele>61.277614</ele>
        <time>2022-08-03T15:06:42.000Z</time>
      </trkpt>
      <trkpt lat="49.34864" lon="-0.84668">
        <ele>61.191767</ele>
        <time>2022-08-03T15:06:43.000Z</time>
      </trkpt>
      <trkpt lat="49.34868" lon="-0.8467">
        <ele>61.075762</ele>
        <time>2022-08-03T15:06:44.000Z</time>
      </trkpt>
      <trkpt lat="49.34872" lon="-0.84672">
        <ele>60.928117</ele>
        <time>2022-08-03T15:06:45.000Z</time>
      </trkpt>
      <trkpt lat="49.34877" lon="-0.84673">
        <ele>60.743866</ele>
        <time>2022-08-03T15:06:46.000Z</time>
      </trkpt>
      <trkpt lat="49.34884" lon="-0.84674">
        <ele>60.528274</ele>
        <time>2022-08-03T15:06:47.000Z</time>
      </trkpt>
      <trkpt lat="49.34888" lon="-0.84673">
        <ele>60.373664</ele>
        <time>2022-08-03T15:06:48.000Z</time>
      </trkpt>
      <trkpt lat="49.34895" lon="-0.84669">
        <ele>60.127804</ele>
        <time>2022-08-03T15:06:49.000Z</time>
      </trkpt>
      <trkpt lat="49.34901" lon="-0.84665">
        <ele>59.901511</ele>
        <time>2022-08-03T15:06:50.000Z</time>
      </trkpt>
      <trkpt lat="49.34907" lon="-0.8466">
        <ele>59.666171</ele>
        <time>2022-08-03T15:06:51.000Z</time>
      </trkpt>
      <trkpt lat="49.34914" lon="-0.84654">
        <ele>59.407912</ele>
        <time>2022-08-03T15:06:52.000Z</time>
      </trkpt>
      <trkpt lat="49.34921" lon="-0.84648">
        <ele>59.011</ele>
        <time>2022-08-03T15:06:53.000Z</time>
      </trkpt>
      <trkpt lat="49.34929" lon="-0.84642">
        <ele>58.226801</ele>
        <time>2022-08-03T15:06:54.000Z</time>
      </trkpt>
      <trkpt lat="49.34938" lon="-0.84637">
        <ele>57.440374</ele>
        <time>2022-08-03T15:06:55.000Z</time>
      </trkpt>
      <trkpt lat="49.34945" lon="-0.84632">
        <ele>56.741528</ele>
        <time>2022-08-03T15:06:56.000Z</time>
      </trkpt>
      <trkpt lat="49.34954" lon="-0.84625">
        <ele>55.90257</ele>
        <time>2022-08-03T15:06:57.000Z</time>
      </trkpt>
      <trkpt lat="49.34965" lon="-0.84617">
        <ele>54.8157</ele>
        <time>2022-08-03T15:06:58.000Z</time>
      </trkpt>
      <trkpt lat="49.34974" lon="-0.84609">
        <ele>53.87082</ele>
        <time>2022-08-03T15:06:59.000Z</time>
      </trkpt>
      <trkpt lat="49.34984" lon="-0.84602">
        <ele>52.96217</ele>
        <time>2022-08-03T15:07:00.000Z</time>
      </trkpt>
      <trkpt lat="49.34993" lon="-0.84594">
        <ele>52.037545</ele>
        <time>2022-08-03T15:07:01.000Z</time>
      </trkpt>
      <trkpt lat="49.35001" lon="-0.84587">
        <ele>51.224397</ele>
        <time>2022-08-03T15:07:02.000Z</time>
      </trkpt>
      <trkpt lat="49.35009" lon="-0.84582">
        <ele>50.485602</ele>
        <time>2022-08-03T15:07:03.000Z</time>
      </trkpt>
      <trkpt lat="49.35016" lon="-0.84578">
        <ele>49.84691</ele>
        <time>2022-08-03T15:07:04.000Z</time>
      </trkpt>
      <trkpt lat="49.35022" lon="-0.84576">
        <ele>49.297678</ele>
        <time>2022-08-03T15:07:05.000Z</time>
      </trkpt>
      <trkpt lat="49.35027" lon="-0.84576">
        <ele>48.905563</ele>
        <time>2022-08-03T15:07:06.000Z</time>
      </trkpt>
      <trkpt lat="49.3503" lon="-0.84578">
        <ele>48.614502</ele>
        <time>2022-08-03T15:07:07.000Z</time>
      </trkpt>
      <trkpt lat="49.35033" lon="-0.8458">
        <ele>48.34585</ele>
        <time>2022-08-03T15:07:08.000Z</time>
      </trkpt>
      <trkpt lat="49.35035" lon="-0.84581">
        <ele>48.104227</ele>
        <time>2022-08-03T15:07:09.000Z</time>
      </trkpt>
      <trkpt lat="49.35037" lon="-0.84583">
        <ele>47.941138</ele>
        <time>2022-08-03T15:07:10.000Z</time>
      </trkpt>
      <trkpt lat="49.35038" lon="-0.84585">
        <ele>47.781031</ele>
        <time>2022-08-03T15:07:11.000Z</time>
      </trkpt>
      <trkpt lat="49.3504" lon="-0.84586">
        <ele>47.614917</ele>
        <time>2022-08-03T15:07:12.000Z</time>
      </trkpt>
      <trkpt lat="49.35041" lon="-0.84588">
        <ele>47.435424</ele>
        <time>2022-08-03T15:07:14.000Z</time>
      </trkpt>
      <trkpt lat="49.35043" lon="-0.8459">
        <ele>47.256698</ele>
        <time>2022-08-03T15:07:18.000Z</time>
      </trkpt>
      <trkpt lat="49.35034" lon="-0.84587">
        <ele>46.461064</ele>
        <time>2022-08-03T15:07:40.000Z</time>
      </trkpt>
      <trkpt lat="49.35032" lon="-0.84585">
        <ele>46.244197</ele>
        <time>2022-08-03T15:07:41.000Z</time>
      </trkpt>
      <trkpt lat="49.3503" lon="-0.84583">
        <ele>46.015791</ele>
        <time>2022-08-03T15:07:42.000Z</time>
      </trkpt>
      <trkpt lat="49.35027" lon="-0.84581">
        <ele>45.762806</ele>
        <time>2022-08-03T15:07:43.000Z</time>
      </trkpt>
      <trkpt lat="49.35025" lon="-0.84578">
        <ele>45.537575</ele>
        <time>2022-08-03T15:07:44.000Z</time>
      </trkpt>
      <trkpt lat="49.35024" lon="-0.84576">
        <ele>45.380873</ele>
        <time>2022-08-03T15:07:45.000Z</time>
      </trkpt>
      <trkpt lat="49.35023" lon="-0.84572">
        <ele>45.114876</ele>
        <time>2022-08-03T15:07:46.000Z</time>
      </trkpt>
      <trkpt lat="49.35023" lon="-0.84565">
        <ele>44.728645</ele>
        <time>2022-08-03T15:07:48.000Z</time>
      </trkpt>
      <trkpt lat="49.35024" lon="-0.84562">
        <ele>44.490417</ele>
        <time>2022-08-03T15:07:49.000Z</time>
      </trkpt>
      <trkpt lat="49.35025" lon="-0.84559">
        <ele>44.309463</ele>
        <time>2022-08-03T15:07:50.000Z</time>
      </trkpt>
      <trkpt lat="49.35027" lon="-0.84555">
        <ele>44.081147</ele>
        <time>2022-08-03T15:07:51.000Z</time>
      </trkpt>
      <trkpt lat="49.35028" lon="-0.84552">
        <ele>43.82948</ele>
        <time>2022-08-03T15:07:52.000Z</time>
      </trkpt>
      <trkpt lat="49.35029" lon="-0.84548">
        <ele>43.626746</ele>
        <time>2022-08-03T15:07:53.000Z</time>
      </trkpt>
      <trkpt lat="49.35031" lon="-0.84545">
        <ele>43.500704</ele>
        <time>2022-08-03T15:07:54.000Z</time>
      </trkpt>
      <trkpt lat="49.35034" lon="-0.8454">
        <ele>43.368839</ele>
        <time>2022-08-03T15:07:56.000Z</time>
      </trkpt>
      <trkpt lat="49.35035" lon="-0.84536">
        <ele>43.29036</ele>
        <time>2022-08-03T15:07:57.000Z</time>
      </trkpt>
      <trkpt lat="49.35037" lon="-0.84533">
        <ele>43.203854</ele>
        <time>2022-08-03T15:07:58.000Z</time>
      </trkpt>
      <trkpt lat="49.35039" lon="-0.84529">
        <ele>43.115109</ele>
        <time>2022-08-03T15:07:59.000Z</time>
      </trkpt>
      <trkpt lat="49.35041" lon="-0.84526">
        <ele>43.03077</ele>
        <time>2022-08-03T15:08:00.000Z</time>
      </trkpt>
      <trkpt lat="49.35042" lon="-0.84524">
        <ele>42.971456</ele>
        <time>2022-08-03T15:08:01.000Z</time>
      </trkpt>
      <trkpt lat="49.35045" lon="-0.84522">
        <ele>42.870202</ele>
        <time>2022-08-03T15:08:03.000Z</time>
      </trkpt>
      <trkpt lat="49.35047" lon="-0.84521">
        <ele>42.8122</ele>
        <time>2022-08-03T15:08:04.000Z</time>
      </trkpt>
      <trkpt lat="49.35049" lon="-0.84521">
        <ele>42.751609</ele>
        <time>2022-08-03T15:08:05.000Z</time>
      </trkpt>
      <trkpt lat="49.35052" lon="-0.8452">
        <ele>42.666068</ele>
        <time>2022-08-03T15:08:07.000Z</time>
      </trkpt>
      <trkpt lat="49.35054" lon="-0.84518">
        <ele>42.586049</ele>
        <time>2022-08-03T15:08:09.000Z</time>
      </trkpt>
      <trkpt lat="49.35056" lon="-0.84516">
        <ele>42.512401</ele>
        <time>2022-08-03T15:08:11.000Z</time>
      </trkpt>
      <trkpt lat="49.35059" lon="-0.84515">
        <ele>42.422065</ele>
        <time>2022-08-03T15:08:13.000Z</time>
      </trkpt>
      <trkpt lat="49.35064" lon="-0.84512">
        <ele>42.276131</ele>
        <time>2022-08-03T15:08:15.000Z</time>
      </trkpt>
      <trkpt lat="49.35067" lon="-0.84509">
        <ele>42.168767</ele>
        <time>2022-08-03T15:08:16.000Z</time>
      </trkpt>
      <trkpt lat="49.3507" lon="-0.84507">
        <ele>42.057096</ele>
        <time>2022-08-03T15:08:17.000Z</time>
      </trkpt>
      <trkpt lat="49.35073" lon="-0.84506">
        <ele>41.973337</ele>
        <time>2022-08-03T15:08:18.000Z</time>
      </trkpt>
      <trkpt lat="49.35077" lon="-0.84504">
        <ele>41.851899</ele>
        <time>2022-08-03T15:08:19.000Z</time>
      </trkpt>
      <trkpt lat="49.35082" lon="-0.84501">
        <ele>41.691814</ele>
        <time>2022-08-03T15:08:20.000Z</time>
      </trkpt>
      <trkpt lat="49.35087" lon="-0.845">
        <ele>41.546069</ele>
        <time>2022-08-03T15:08:21.000Z</time>
      </trkpt>
      <trkpt lat="49.35092" lon="-0.84498">
        <ele>41.390797</ele>
        <time>2022-08-03T15:08:22.000Z</time>
      </trkpt>
      <trkpt lat="49.35096" lon="-0.84497">
        <ele>41.272871</ele>
        <time>2022-08-03T15:08:23.000Z</time>
      </trkpt>
      <trkpt lat="49.35101" lon="-0.84496">
        <ele>41.118875</ele>
        <time>2022-08-03T15:08:24.000Z</time>
      </trkpt>
      <trkpt lat="49.35108" lon="-0.84495">
        <ele>40.916414</ele>
        <time>2022-08-03T15:08:25.000Z</time>
      </trkpt>
      <trkpt lat="49.35113" lon="-0.84494">
        <ele>40.741894</ele>
        <time>2022-08-03T15:08:26.000Z</time>
      </trkpt>
      <trkpt lat="49.35119" lon="-0.84493">
        <ele>40.579851</ele>
        <time>2022-08-03T15:08:27.000Z</time>
      </trkpt>
      <trkpt lat="49.35124" lon="-0.84493">
        <ele>40.415346</ele>
        <time>2022-08-03T15:08:28.000Z</time>
      </trkpt>
      <trkpt lat="49.3513" lon="-0.84494">
        <ele>40.244629</ele>
        <time>2022-08-03T15:08:29.000Z</time>
      </trkpt>
      <trkpt lat="49.35136" lon="-0.84495">
        <ele>40.069881</ele>
        <time>2022-08-03T15:08:30.000Z</time>
      </trkpt>
      <trkpt lat="49.35141" lon="-0.84496">
        <ele>39.907241</ele>
        <time>2022-08-03T15:08:31.000Z</time>
      </trkpt>
      <trkpt lat="49.35146" lon="-0.84497">
        <ele>39.761822</ele>
        <time>2022-08-03T15:08:32.000Z</time>
      </trkpt>
      <trkpt lat="49.35149" lon="-0.84498">
        <ele>39.656013</ele>
        <time>2022-08-03T15:08:33.000Z</time>
      </trkpt>
      <trkpt lat="49.35155" lon="-0.84499">
        <ele>39.489309</ele>
        <time>2022-08-03T15:08:34.000Z</time>
      </trkpt>
      <trkpt lat="49.35158" lon="-0.845">
        <ele>39.383499</ele>
        <time>2022-08-03T15:08:35.000Z</time>
      </trkpt>
      <trkpt lat="49.35162" lon="-0.84501">
        <ele>39.267494</ele>
        <time>2022-08-03T15:08:36.000Z</time>
      </trkpt>
      <trkpt lat="49.35166" lon="-0.84502">
        <ele>39.158726</ele>
        <time>2022-08-03T15:08:37.000Z</time>
      </trkpt>
      <trkpt lat="49.3517" lon="-0.84503">
        <ele>39.044285</ele>
        <time>2022-08-03T15:08:38.000Z</time>
      </trkpt>
      <trkpt lat="49.35173" lon="-0.84503">
        <ele>38.947888</ele>
        <time>2022-08-03T15:08:39.000Z</time>
      </trkpt>
      <trkpt lat="49.35175" lon="-0.84504">
        <ele>38.881388</ele>
        <time>2022-08-03T15:08:40.000Z</time>
      </trkpt>
      <trkpt lat="49.35179" lon="-0.84505">
        <ele>38.762452</ele>
        <time>2022-08-03T15:08:41.000Z</time>
      </trkpt>
      <trkpt lat="49.35182" lon="-0.84506">
        <ele>38.665506</ele>
        <time>2022-08-03T15:08:42.000Z</time>
      </trkpt>
      <trkpt lat="49.35185" lon="-0.84508">
        <ele>38.571224</ele>
        <time>2022-08-03T15:08:43.000Z</time>
      </trkpt>
      <trkpt lat="49.35189" lon="-0.84509">
        <ele>38.455941</ele>
        <time>2022-08-03T15:08:44.000Z</time>
      </trkpt>
      <trkpt lat="49.35192" lon="-0.84509">
        <ele>38.359761</ele>
        <time>2022-08-03T15:08:45.000Z</time>
      </trkpt>
      <trkpt lat="49.35195" lon="-0.8451">
        <ele>38.262815</ele>
        <time>2022-08-03T15:08:46.000Z</time>
      </trkpt>
      <trkpt lat="49.35198" lon="-0.84511">
        <ele>38.244561</ele>
        <time>2022-08-03T15:08:47.000Z</time>
      </trkpt>
      <trkpt lat="49.35201" lon="-0.84513">
        <ele>38.568598</ele>
        <time>2022-08-03T15:08:48.000Z</time>
      </trkpt>
      <trkpt lat="49.35204" lon="-0.84514">
        <ele>38.793921</ele>
        <time>2022-08-03T15:08:49.000Z</time>
      </trkpt>
      <trkpt lat="49.35206" lon="-0.84515">
        <ele>39.03728</ele>
        <time>2022-08-03T15:08:50.000Z</time>
      </trkpt>
      <trkpt lat="49.35209" lon="-0.84519">
        <ele>39.440635</ele>
        <time>2022-08-03T15:08:52.000Z</time>
      </trkpt>
      <trkpt lat="49.35211" lon="-0.84521">
        <ele>39.664985</ele>
        <time>2022-08-03T15:08:53.000Z</time>
      </trkpt>
      <trkpt lat="49.35213" lon="-0.84523">
        <ele>39.892983</ele>
        <time>2022-08-03T15:08:54.000Z</time>
      </trkpt>
      <trkpt lat="49.35215" lon="-0.84525">
        <ele>40.132599</ele>
        <time>2022-08-03T15:08:55.000Z</time>
      </trkpt>
      <trkpt lat="49.35217" lon="-0.84529">
        <ele>40.427949</ele>
        <time>2022-08-03T15:08:56.000Z</time>
      </trkpt>
      <trkpt lat="49.35219" lon="-0.84532">
        <ele>40.741087</ele>
        <time>2022-08-03T15:08:57.000Z</time>
      </trkpt>
      <trkpt lat="49.35221" lon="-0.84536">
        <ele>41.036229</ele>
        <time>2022-08-03T15:08:58.000Z</time>
      </trkpt>
      <trkpt lat="49.35224" lon="-0.84538">
        <ele>41.334995</ele>
        <time>2022-08-03T15:08:59.000Z</time>
      </trkpt>
      <trkpt lat="49.35227" lon="-0.8454">
        <ele>41.67909</ele>
        <time>2022-08-03T15:09:00.000Z</time>
      </trkpt>
      <trkpt lat="49.3523" lon="-0.84542">
        <ele>42.013216</ele>
        <time>2022-08-03T15:09:01.000Z</time>
      </trkpt>
      <trkpt lat="49.35233" lon="-0.84544">
        <ele>42.313316</ele>
        <time>2022-08-03T15:09:02.000Z</time>
      </trkpt>
      <trkpt lat="49.35236" lon="-0.84545">
        <ele>42.540683</ele>
        <time>2022-08-03T15:09:03.000Z</time>
      </trkpt>
      <trkpt lat="49.35237" lon="-0.84545">
        <ele>42.725713</ele>
        <time>2022-08-03T15:09:04.000Z</time>
      </trkpt>
      <trkpt lat="49.35239" lon="-0.84544">
        <ele>42.930552</ele>
        <time>2022-08-03T15:09:05.000Z</time>
      </trkpt>
      <trkpt lat="49.35241" lon="-0.84542">
        <ele>43.123727</ele>
        <time>2022-08-03T15:09:06.000Z</time>
      </trkpt>
      <trkpt lat="49.35241" lon="-0.84539">
        <ele>43.360254</ele>
        <time>2022-08-03T15:09:07.000Z</time>
      </trkpt>
      <trkpt lat="49.35241" lon="-0.84535">
        <ele>43.594969</ele>
        <time>2022-08-03T15:09:08.000Z</time>
      </trkpt>
      <trkpt lat="49.35241" lon="-0.84532">
        <ele>43.803102</ele>
        <time>2022-08-03T15:09:09.000Z</time>
      </trkpt>
      <trkpt lat="49.35239" lon="-0.84529">
        <ele>44.064023</ele>
        <time>2022-08-03T15:09:10.000Z</time>
      </trkpt>
      <trkpt lat="49.35237" lon="-0.84526">
        <ele>44.334402</ele>
        <time>2022-08-03T15:09:11.000Z</time>
      </trkpt>
      <trkpt lat="49.35235" lon="-0.84524">
        <ele>44.566163</ele>
        <time>2022-08-03T15:09:12.000Z</time>
      </trkpt>
      <trkpt lat="49.35233" lon="-0.84522">
        <ele>44.78849</ele>
        <time>2022-08-03T15:09:13.000Z</time>
      </trkpt>
      <trkpt lat="49.35232" lon="-0.84519">
        <ele>45.001478</ele>
        <time>2022-08-03T15:09:14.000Z</time>
      </trkpt>
      <trkpt lat="49.3523" lon="-0.84516">
        <ele>45.230051</ele>
        <time>2022-08-03T15:09:15.000Z</time>
      </trkpt>
      <trkpt lat="49.35229" lon="-0.84513">
        <ele>45.500067</ele>
        <time>2022-08-03T15:09:16.000Z</time>
      </trkpt>
      <trkpt lat="49.35227" lon="-0.8451">
        <ele>45.698074</ele>
        <time>2022-08-03T15:09:17.000Z</time>
      </trkpt>
      <trkpt lat="49.35226" lon="-0.84508">
        <ele>45.903074</ele>
        <time>2022-08-03T15:09:18.000Z</time>
      </trkpt>
      <trkpt lat="49.35224" lon="-0.84505">
        <ele>46.163996</ele>
        <time>2022-08-03T15:09:19.000Z</time>
      </trkpt>
      <trkpt lat="49.35222" lon="-0.84503">
        <ele>46.420483</ele>
        <time>2022-08-03T15:09:20.000Z</time>
      </trkpt>
      <trkpt lat="49.35221" lon="-0.84499">
        <ele>46.645632</ele>
        <time>2022-08-03T15:09:21.000Z</time>
      </trkpt>
      <trkpt lat="49.3522" lon="-0.84497">
        <ele>46.848558</ele>
        <time>2022-08-03T15:09:22.000Z</time>
      </trkpt>
      <trkpt lat="49.35218" lon="-0.84494">
        <ele>47.096428</ele>
        <time>2022-08-03T15:09:23.000Z</time>
      </trkpt>
      <trkpt lat="49.35215" lon="-0.84491">
        <ele>47.37882</ele>
        <time>2022-08-03T15:09:24.000Z</time>
      </trkpt>
      <trkpt lat="49.35213" lon="-0.84489">
        <ele>47.634042</ele>
        <time>2022-08-03T15:09:25.000Z</time>
      </trkpt>
      <trkpt lat="49.35211" lon="-0.84486">
        <ele>47.908337</ele>
        <time>2022-08-03T15:09:26.000Z</time>
      </trkpt>
      <trkpt lat="49.35209" lon="-0.84484">
        <ele>48.152033</ele>
        <time>2022-08-03T15:09:27.000Z</time>
      </trkpt>
      <trkpt lat="49.35208" lon="-0.84481">
        <ele>48.383582</ele>
        <time>2022-08-03T15:09:28.000Z</time>
      </trkpt>
      <trkpt lat="49.35206" lon="-0.84478">
        <ele>48.629543</ele>
        <time>2022-08-03T15:09:29.000Z</time>
      </trkpt>
      <trkpt lat="49.35204" lon="-0.84475">
        <ele>48.886031</ele>
        <time>2022-08-03T15:09:30.000Z</time>
      </trkpt>
      <trkpt lat="49.35203" lon="-0.84472">
        <ele>49.131991</ele>
        <time>2022-08-03T15:09:31.000Z</time>
      </trkpt>
      <trkpt lat="49.35201" lon="-0.8447">
        <ele>49.332927</ele>
        <time>2022-08-03T15:09:32.000Z</time>
      </trkpt>
      <trkpt lat="49.35199" lon="-0.84468">
        <ele>49.565375</ele>
        <time>2022-08-03T15:09:33.000Z</time>
      </trkpt>
      <trkpt lat="49.35198" lon="-0.84465">
        <ele>49.772723</ele>
        <time>2022-08-03T15:09:34.000Z</time>
      </trkpt>
      <trkpt lat="49.35196" lon="-0.84462">
        <ele>50.018684</ele>
        <time>2022-08-03T15:09:35.000Z</time>
      </trkpt>
      <trkpt lat="49.35195" lon="-0.84458">
        <ele>50.302261</ele>
        <time>2022-08-03T15:09:37.000Z</time>
      </trkpt>
      <trkpt lat="49.35193" lon="-0.84454">
        <ele>50.640723</ele>
        <time>2022-08-03T15:09:39.000Z</time>
      </trkpt>
      <trkpt lat="49.35191" lon="-0.84451">
        <ele>50.910741</ele>
        <time>2022-08-03T15:09:41.000Z</time>
      </trkpt>
      <trkpt lat="49.3519" lon="-0.84448">
        <ele>51.11452</ele>
        <time>2022-08-03T15:09:43.000Z</time>
      </trkpt>
      <trkpt lat="49.35189" lon="-0.84435">
        <ele>51.979955</ele>
        <time>2022-08-03T15:11:54.000Z</time>
      </trkpt>
      <trkpt lat="49.35189" lon="-0.84431">
        <ele>52.229079</ele>
        <time>2022-08-03T15:11:55.000Z</time>
      </trkpt>
      <trkpt lat="49.35188" lon="-0.84427">
        <ele>52.47735</ele>
        <time>2022-08-03T15:11:56.000Z</time>
      </trkpt>
      <trkpt lat="49.35188" lon="-0.84423">
        <ele>52.745383</ele>
        <time>2022-08-03T15:11:57.000Z</time>
      </trkpt>
      <trkpt lat="49.35187" lon="-0.84418">
        <ele>53.05128</ele>
        <time>2022-08-03T15:11:58.000Z</time>
      </trkpt>
      <trkpt lat="49.35186" lon="-0.84413">
        <ele>53.377021</ele>
        <time>2022-08-03T15:11:59.000Z</time>
      </trkpt>
      <trkpt lat="49.35186" lon="-0.84408">
        <ele>53.695549</ele>
        <time>2022-08-03T15:12:00.000Z</time>
      </trkpt>
      <trkpt lat="49.35185" lon="-0.84404">
        <ele>53.993153</ele>
        <time>2022-08-03T15:12:01.000Z</time>
      </trkpt>
      <trkpt lat="49.35185" lon="-0.844">
        <ele>54.227871</ele>
        <time>2022-08-03T15:12:02.000Z</time>
      </trkpt>
      <trkpt lat="49.35185" lon="-0.84397">
        <ele>54.437214</ele>
        <time>2022-08-03T15:12:03.000Z</time>
      </trkpt>
      <trkpt lat="49.35186" lon="-0.84394">
        <ele>54.642305</ele>
        <time>2022-08-03T15:12:04.000Z</time>
      </trkpt>
      <trkpt lat="49.35186" lon="-0.8439">
        <ele>54.859649</ele>
        <time>2022-08-03T15:12:05.000Z</time>
      </trkpt>
      <trkpt lat="49.35187" lon="-0.84387">
        <ele>55.104066</ele>
        <time>2022-08-03T15:12:06.000Z</time>
      </trkpt>
      <trkpt lat="49.35187" lon="-0.84383">
        <ele>55.357815</ele>
        <time>2022-08-03T15:12:07.000Z</time>
      </trkpt>
      <trkpt lat="49.35186" lon="-0.84379">
        <ele>55.590074</ele>
        <time>2022-08-03T15:12:08.000Z</time>
      </trkpt>
      <trkpt lat="49.35186" lon="-0.84376">
        <ele>55.764892</ele>
        <time>2022-08-03T15:12:09.000Z</time>
      </trkpt>
      <trkpt lat="49.35185" lon="-0.84371">
        <ele>55.941575</ele>
        <time>2022-08-03T15:12:10.000Z</time>
      </trkpt>
      <trkpt lat="49.35185" lon="-0.84366">
        <ele>56.138093</ele>
        <time>2022-08-03T15:12:11.000Z</time>
      </trkpt>
      <trkpt lat="49.35185" lon="-0.84363">
        <ele>56.275655</ele>
        <time>2022-08-03T15:12:12.000Z</time>
      </trkpt>
      <trkpt lat="49.35186" lon="-0.84359">
        <ele>56.433908</ele>
        <time>2022-08-03T15:12:13.000Z</time>
      </trkpt>
      <trkpt lat="49.35186" lon="-0.84355">
        <ele>56.587586</ele>
        <time>2022-08-03T15:12:14.000Z</time>
      </trkpt>
      <trkpt lat="49.35186" lon="-0.84351">
        <ele>56.733008</ele>
        <time>2022-08-03T15:12:15.000Z</time>
      </trkpt>
      <trkpt lat="49.35186" lon="-0.84348">
        <ele>56.879059</ele>
        <time>2022-08-03T15:12:16.000Z</time>
      </trkpt>
      <trkpt lat="49.35185" lon="-0.84344">
        <ele>57.017807</ele>
        <time>2022-08-03T15:12:17.000Z</time>
      </trkpt>
      <trkpt lat="49.35185" lon="-0.8434">
        <ele>57.17109</ele>
        <time>2022-08-03T15:12:18.000Z</time>
      </trkpt>
      <trkpt lat="49.35186" lon="-0.84337">
        <ele>57.309838</ele>
        <time>2022-08-03T15:12:19.000Z</time>
      </trkpt>
      <trkpt lat="49.35186" lon="-0.84333">
        <ele>57.451331</ele>
        <time>2022-08-03T15:12:20.000Z</time>
      </trkpt>
      <trkpt lat="49.35186" lon="-0.8433">
        <ele>57.596754</ele>
        <time>2022-08-03T15:12:21.000Z</time>
      </trkpt>
      <trkpt lat="49.35185" lon="-0.84325">
        <ele>57.796578</ele>
        <time>2022-08-03T15:12:22.000Z</time>
      </trkpt>
      <trkpt lat="49.35185" lon="-0.84321">
        <ele>57.923645</ele>
        <time>2022-08-03T15:12:23.000Z</time>
      </trkpt>
      <trkpt lat="49.35186" lon="-0.84318">
        <ele>58.06629</ele>
        <time>2022-08-03T15:12:24.000Z</time>
      </trkpt>
      <trkpt lat="49.35185" lon="-0.84313">
        <ele>58.25453</ele>
        <time>2022-08-03T15:12:25.000Z</time>
      </trkpt>
      <trkpt lat="49.35184" lon="-0.84309">
        <ele>58.417319</ele>
        <time>2022-08-03T15:12:26.000Z</time>
      </trkpt>
      <trkpt lat="49.35184" lon="-0.84305">
        <ele>58.586316</ele>
        <time>2022-08-03T15:12:27.000Z</time>
      </trkpt>
      <trkpt lat="49.35183" lon="-0.843">
        <ele>58.77584</ele>
        <time>2022-08-03T15:12:28.000Z</time>
      </trkpt>
      <trkpt lat="49.35183" lon="-0.84295">
        <ele>58.964496</ele>
        <time>2022-08-03T15:12:29.000Z</time>
      </trkpt>
      <trkpt lat="49.35183" lon="-0.84291">
        <ele>59.137432</ele>
        <time>2022-08-03T15:12:30.000Z</time>
      </trkpt>
      <trkpt lat="49.35183" lon="-0.84286">
        <ele>59.315936</ele>
        <time>2022-08-03T15:12:31.000Z</time>
      </trkpt>
      <trkpt lat="49.35183" lon="-0.84282">
        <ele>59.485908</ele>
        <time>2022-08-03T15:12:32.000Z</time>
      </trkpt>
      <trkpt lat="49.35183" lon="-0.84277">
        <ele>59.670635</ele>
        <time>2022-08-03T15:12:33.000Z</time>
      </trkpt>
      <trkpt lat="49.35183" lon="-0.84273">
        <ele>59.837222</ele>
        <time>2022-08-03T15:12:34.000Z</time>
      </trkpt>
      <trkpt lat="49.35183" lon="-0.84269">
        <ele>60.014088</ele>
        <time>2022-08-03T15:12:35.000Z</time>
      </trkpt>
      <trkpt lat="49.35184" lon="-0.84264">
        <ele>60.187968</ele>
        <time>2022-08-03T15:12:36.000Z</time>
      </trkpt>
      <trkpt lat="49.35183" lon="-0.8426">
        <ele>60.377491</ele>
        <time>2022-08-03T15:12:37.000Z</time>
      </trkpt>
      <trkpt lat="49.35182" lon="-0.84255">
        <ele>60.57818</ele>
        <time>2022-08-03T15:12:38.000Z</time>
      </trkpt>
      <trkpt lat="49.35182" lon="-0.8425">
        <ele>60.766837</ele>
        <time>2022-08-03T15:12:39.000Z</time>
      </trkpt>
      <trkpt lat="49.35182" lon="-0.84245">
        <ele>60.964186</ele>
        <time>2022-08-03T15:12:40.000Z</time>
      </trkpt>
      <trkpt lat="49.35182" lon="-0.8424">
        <ele>61.161536</ele>
        <time>2022-08-03T15:12:41.000Z</time>
      </trkpt>
      <trkpt lat="49.35183" lon="-0.84235">
        <ele>61.365848</ele>
        <time>2022-08-03T15:12:42.000Z</time>
      </trkpt>
      <trkpt lat="49.35184" lon="-0.84231">
        <ele>61.547109</ele>
        <time>2022-08-03T15:12:43.000Z</time>
      </trkpt>
      <trkpt lat="49.35185" lon="-0.84226">
        <ele>61.759656</ele>
        <time>2022-08-03T15:12:44.000Z</time>
      </trkpt>
      <trkpt lat="49.35186" lon="-0.84221">
        <ele>61.940188</ele>
        <time>2022-08-03T15:12:45.000Z</time>
      </trkpt>
      <trkpt lat="49.35186" lon="-0.84216">
        <ele>62.149282</ele>
        <time>2022-08-03T15:12:46.000Z</time>
      </trkpt>
      <trkpt lat="49.35186" lon="-0.8421">
        <ele>62.361521</ele>
        <time>2022-08-03T15:12:47.000Z</time>
      </trkpt>
      <trkpt lat="49.35186" lon="-0.84206">
        <ele>62.54322</ele>
        <time>2022-08-03T15:12:48.000Z</time>
      </trkpt>
      <trkpt lat="49.35187" lon="-0.84202">
        <ele>62.713612</ele>
        <time>2022-08-03T15:12:49.000Z</time>
      </trkpt>
      <trkpt lat="49.35187" lon="-0.84198">
        <ele>62.864058</ele>
        <time>2022-08-03T15:12:50.000Z</time>
      </trkpt>
      <trkpt lat="49.35188" lon="-0.84195">
        <ele>62.994936</ele>
        <time>2022-08-03T15:12:51.000Z</time>
      </trkpt>
      <trkpt lat="49.35189" lon="-0.84192">
        <ele>63.127387</ele>
        <time>2022-08-03T15:12:52.000Z</time>
      </trkpt>
      <trkpt lat="49.3519" lon="-0.84188">
        <ele>63.270435</ele>
        <time>2022-08-03T15:12:53.000Z</time>
      </trkpt>
      <trkpt lat="49.35191" lon="-0.84185">
        <ele>63.407428</ele>
        <time>2022-08-03T15:12:54.000Z</time>
      </trkpt>
      <trkpt lat="49.35191" lon="-0.84182">
        <ele>63.533199</ele>
        <time>2022-08-03T15:12:55.000Z</time>
      </trkpt>
      <trkpt lat="49.35191" lon="-0.84178">
        <ele>63.695988</ele>
        <time>2022-08-03T15:12:57.000Z</time>
      </trkpt>
      <trkpt lat="49.35207" lon="-0.84162">
        <ele>64.80856</ele>
        <time>2022-08-03T15:18:05.000Z</time>
      </trkpt>
      <trkpt lat="49.35202" lon="-0.84166">
        <ele>65.132632</ele>
        <time>2022-08-03T15:18:06.000Z</time>
      </trkpt>
      <trkpt lat="49.352" lon="-0.84168">
        <ele>65.2869</ele>
        <time>2022-08-03T15:18:08.000Z</time>
      </trkpt>
      <trkpt lat="49.35204" lon="-0.84164">
        <ele>65.604654</ele>
        <time>2022-08-03T15:18:56.000Z</time>
      </trkpt>
      <trkpt lat="49.35206" lon="-0.8416">
        <ele>65.77271</ele>
        <time>2022-08-03T15:18:57.000Z</time>
      </trkpt>
      <trkpt lat="49.35208" lon="-0.84156">
        <ele>65.957884</ele>
        <time>2022-08-03T15:18:58.000Z</time>
      </trkpt>
      <trkpt lat="49.3521" lon="-0.84153">
        <ele>66.136951</ele>
        <time>2022-08-03T15:18:59.000Z</time>
      </trkpt>
      <trkpt lat="49.35212" lon="-0.8415">
        <ele>66.301404</ele>
        <time>2022-08-03T15:19:00.000Z</time>
      </trkpt>
      <trkpt lat="49.35214" lon="-0.84147">
        <ele>66.478515</ele>
        <time>2022-08-03T15:19:01.000Z</time>
      </trkpt>
      <trkpt lat="49.35216" lon="-0.84145">
        <ele>66.564672</ele>
        <time>2022-08-03T15:19:02.000Z</time>
      </trkpt>
      <trkpt lat="49.35219" lon="-0.84143">
        <ele>66.579048</ele>
        <time>2022-08-03T15:19:03.000Z</time>
      </trkpt>
      <trkpt lat="49.35221" lon="-0.84141">
        <ele>66.589204</ele>
        <time>2022-08-03T15:19:04.000Z</time>
      </trkpt>
      <trkpt lat="49.35223" lon="-0.84141">
        <ele>66.600122</ele>
        <time>2022-08-03T15:19:05.000Z</time>
      </trkpt>
      <trkpt lat="49.35225" lon="-0.84141">
        <ele>66.611532</ele>
        <time>2022-08-03T15:19:06.000Z</time>
      </trkpt>
      <trkpt lat="49.35227" lon="-0.8414">
        <ele>66.622787</ele>
        <time>2022-08-03T15:19:07.000Z</time>
      </trkpt>
      <trkpt lat="49.35229" lon="-0.84138">
        <ele>66.634687</ele>
        <time>2022-08-03T15:19:08.000Z</time>
      </trkpt>
      <trkpt lat="49.35232" lon="-0.84136">
        <ele>66.648617</ele>
        <time>2022-08-03T15:19:09.000Z</time>
      </trkpt>
      <trkpt lat="49.35233" lon="-0.84133">
        <ele>66.661864</ele>
        <time>2022-08-03T15:19:10.000Z</time>
      </trkpt>
      <trkpt lat="49.35235" lon="-0.84129">
        <ele>66.675685</ele>
        <time>2022-08-03T15:19:11.000Z</time>
      </trkpt>
      <trkpt lat="49.35236" lon="-0.84124">
        <ele>66.691342</ele>
        <time>2022-08-03T15:19:12.000Z</time>
      </trkpt>
      <trkpt lat="49.35237" lon="-0.8412">
        <ele>66.707194</ele>
        <time>2022-08-03T15:19:13.000Z</time>
      </trkpt>
      <trkpt lat="49.35239" lon="-0.84115">
        <ele>66.723702</ele>
        <time>2022-08-03T15:19:14.000Z</time>
      </trkpt>
      <trkpt lat="49.3524" lon="-0.84111">
        <ele>66.739623</ele>
        <time>2022-08-03T15:19:15.000Z</time>
      </trkpt>
      <trkpt lat="49.35241" lon="-0.84106">
        <ele>66.756326</ele>
        <time>2022-08-03T15:19:16.000Z</time>
      </trkpt>
      <trkpt lat="49.35241" lon="-0.841">
        <ele>66.773424</ele>
        <time>2022-08-03T15:19:17.000Z</time>
      </trkpt>
      <trkpt lat="49.35243" lon="-0.84095">
        <ele>66.791661</ele>
        <time>2022-08-03T15:19:18.000Z</time>
      </trkpt>
      <trkpt lat="49.35244" lon="-0.8409">
        <ele>66.809921</ele>
        <time>2022-08-03T15:19:19.000Z</time>
      </trkpt>
      <trkpt lat="49.35245" lon="-0.84084">
        <ele>66.830282</ele>
        <time>2022-08-03T15:19:20.000Z</time>
      </trkpt>
      <trkpt lat="49.35245" lon="-0.84077">
        <ele>66.850465</ele>
        <time>2022-08-03T15:19:21.000Z</time>
      </trkpt>
      <trkpt lat="49.35246" lon="-0.84071">
        <ele>66.87072</ele>
        <time>2022-08-03T15:19:22.000Z</time>
      </trkpt>
      <trkpt lat="49.35247" lon="-0.84066">
        <ele>66.88753</ele>
        <time>2022-08-03T15:19:23.000Z</time>
      </trkpt>
      <trkpt lat="49.35247" lon="-0.84059">
        <ele>66.909155</ele>
        <time>2022-08-03T15:19:24.000Z</time>
      </trkpt>
      <trkpt lat="49.35249" lon="-0.84052">
        <ele>66.935487</ele>
        <time>2022-08-03T15:19:25.000Z</time>
      </trkpt>
      <trkpt lat="49.35249" lon="-0.84045">
        <ele>66.956702</ele>
        <time>2022-08-03T15:19:26.000Z</time>
      </trkpt>
      <trkpt lat="49.35251" lon="-0.84039">
        <ele>66.979076</ele>
        <time>2022-08-03T15:19:27.000Z</time>
      </trkpt>
      <trkpt lat="49.35252" lon="-0.84032">
        <ele>67.000216</ele>
        <time>2022-08-03T15:19:28.000Z</time>
      </trkpt>
      <trkpt lat="49.35253" lon="-0.84026">
        <ele>67.021092</ele>
        <time>2022-08-03T15:19:29.000Z</time>
      </trkpt>
      <trkpt lat="49.35254" lon="-0.8402">
        <ele>67.041453</ele>
        <time>2022-08-03T15:19:30.000Z</time>
      </trkpt>
      <trkpt lat="49.35256" lon="-0.84014">
        <ele>67.062426</ele>
        <time>2022-08-03T15:19:31.000Z</time>
      </trkpt>
      <trkpt lat="49.35257" lon="-0.84008">
        <ele>67.082177</ele>
        <time>2022-08-03T15:19:32.000Z</time>
      </trkpt>
      <trkpt lat="49.35259" lon="-0.84002">
        <ele>67.103659</ele>
        <time>2022-08-03T15:19:33.000Z</time>
      </trkpt>
      <trkpt lat="49.35261" lon="-0.83996">
        <ele>67.125133</ele>
        <time>2022-08-03T15:19:34.000Z</time>
      </trkpt>
      <trkpt lat="49.35262" lon="-0.8399">
        <ele>67.146905</ele>
        <time>2022-08-03T15:19:35.000Z</time>
      </trkpt>
      <trkpt lat="49.35264" lon="-0.83983">
        <ele>67.169553</ele>
        <time>2022-08-03T15:19:36.000Z</time>
      </trkpt>
      <trkpt lat="49.35266" lon="-0.83977">
        <ele>67.189913</ele>
        <time>2022-08-03T15:19:37.000Z</time>
      </trkpt>
      <trkpt lat="49.35268" lon="-0.83972">
        <ele>67.212057</ele>
        <time>2022-08-03T15:19:38.000Z</time>
      </trkpt>
      <trkpt lat="49.35269" lon="-0.83967">
        <ele>67.22845</ele>
        <time>2022-08-03T15:19:39.000Z</time>
      </trkpt>
      <trkpt lat="49.35271" lon="-0.8396">
        <ele>67.252869</ele>
        <time>2022-08-03T15:19:40.000Z</time>
      </trkpt>
      <trkpt lat="49.35273" lon="-0.83954">
        <ele>67.272265</ele>
        <time>2022-08-03T15:19:41.000Z</time>
      </trkpt>
      <trkpt lat="49.35275" lon="-0.83949">
        <ele>67.291434</ele>
        <time>2022-08-03T15:19:42.000Z</time>
      </trkpt>
      <trkpt lat="49.35277" lon="-0.83944">
        <ele>67.312051</ele>
        <time>2022-08-03T15:19:43.000Z</time>
      </trkpt>
      <trkpt lat="49.35278" lon="-0.83938">
        <ele>67.332037</ele>
        <time>2022-08-03T15:19:44.000Z</time>
      </trkpt>
      <trkpt lat="49.35279" lon="-0.83932">
        <ele>67.352539</ele>
        <time>2022-08-03T15:19:45.000Z</time>
      </trkpt>
      <trkpt lat="49.35279" lon="-0.83925">
        <ele>67.373753</ele>
        <time>2022-08-03T15:19:46.000Z</time>
      </trkpt>
      <trkpt lat="49.35279" lon="-0.83919">
        <ele>67.394683</ele>
        <time>2022-08-03T15:19:47.000Z</time>
      </trkpt>
      <trkpt lat="49.35279" lon="-0.83912">
        <ele>67.415613</ele>
        <time>2022-08-03T15:19:48.000Z</time>
      </trkpt>
      <trkpt lat="49.3528" lon="-0.83907">
        <ele>67.431984</ele>
        <time>2022-08-03T15:19:49.000Z</time>
      </trkpt>
      <trkpt lat="49.3528" lon="-0.83899">
        <ele>67.44782</ele>
        <time>2022-08-03T15:19:50.000Z</time>
      </trkpt>
      <trkpt lat="49.3528" lon="-0.83892">
        <ele>67.450138</ele>
        <time>2022-08-03T15:19:51.000Z</time>
      </trkpt>
      <trkpt lat="49.3528" lon="-0.83885">
        <ele>67.452523</ele>
        <time>2022-08-03T15:19:52.000Z</time>
      </trkpt>
      <trkpt lat="49.35281" lon="-0.83879">
        <ele>67.45451</ele>
        <time>2022-08-03T15:19:53.000Z</time>
      </trkpt>
      <trkpt lat="49.35281" lon="-0.83871">
        <ele>67.457473</ele>
        <time>2022-08-03T15:19:54.000Z</time>
      </trkpt>
      <trkpt lat="49.35281" lon="-0.83863">
        <ele>67.45993</ele>
        <time>2022-08-03T15:19:55.000Z</time>
      </trkpt>
      <trkpt lat="49.35282" lon="-0.83856">
        <ele>67.46242</ele>
        <time>2022-08-03T15:19:56.000Z</time>
      </trkpt>
      <trkpt lat="49.35283" lon="-0.83849">
        <ele>67.464926</ele>
        <time>2022-08-03T15:19:57.000Z</time>
      </trkpt>
      <trkpt lat="49.35284" lon="-0.83841">
        <ele>67.467421</ele>
        <time>2022-08-03T15:19:58.000Z</time>
      </trkpt>
      <trkpt lat="49.35285" lon="-0.83834">
        <ele>67.470028</ele>
        <time>2022-08-03T15:19:59.000Z</time>
      </trkpt>
      <trkpt lat="49.35285" lon="-0.83826">
        <ele>67.472786</ele>
        <time>2022-08-03T15:20:00.000Z</time>
      </trkpt>
      <trkpt lat="49.35287" lon="-0.83817">
        <ele>67.475868</ele>
        <time>2022-08-03T15:20:01.000Z</time>
      </trkpt>
      <trkpt lat="49.35287" lon="-0.83808">
        <ele>67.478731</ele>
        <time>2022-08-03T15:20:02.000Z</time>
      </trkpt>
      <trkpt lat="49.35288" lon="-0.83801">
        <ele>67.481292</ele>
        <time>2022-08-03T15:20:03.000Z</time>
      </trkpt>
      <trkpt lat="49.35289" lon="-0.83793">
        <ele>67.483863</ele>
        <time>2022-08-03T15:20:04.000Z</time>
      </trkpt>
      <trkpt lat="49.3529" lon="-0.83787">
        <ele>67.48603</ele>
        <time>2022-08-03T15:20:05.000Z</time>
      </trkpt>
      <trkpt lat="49.35291" lon="-0.83777">
        <ele>67.489328</ele>
        <time>2022-08-03T15:20:06.000Z</time>
      </trkpt>
      <trkpt lat="49.35291" lon="-0.83769">
        <ele>67.492217</ele>
        <time>2022-08-03T15:20:07.000Z</time>
      </trkpt>
      <trkpt lat="49.35291" lon="-0.83761">
        <ele>67.494971</ele>
        <time>2022-08-03T15:20:08.000Z</time>
      </trkpt>
      <trkpt lat="49.35292" lon="-0.83753">
        <ele>67.497641</ele>
        <time>2022-08-03T15:20:09.000Z</time>
      </trkpt>
      <trkpt lat="49.35293" lon="-0.83746">
        <ele>67.500064</ele>
        <time>2022-08-03T15:20:10.000Z</time>
      </trkpt>
      <trkpt lat="49.35293" lon="-0.83739">
        <ele>67.502253</ele>
        <time>2022-08-03T15:20:11.000Z</time>
      </trkpt>
      <trkpt lat="49.35293" lon="-0.83731">
        <ele>67.504891</ele>
        <time>2022-08-03T15:20:12.000Z</time>
      </trkpt>
      <trkpt lat="49.35295" lon="-0.83724">
        <ele>67.507446</ele>
        <time>2022-08-03T15:20:13.000Z</time>
      </trkpt>
      <trkpt lat="49.35296" lon="-0.83717">
        <ele>67.510017</ele>
        <time>2022-08-03T15:20:14.000Z</time>
      </trkpt>
      <trkpt lat="49.35297" lon="-0.83709">
        <ele>67.512559</ele>
        <time>2022-08-03T15:20:15.000Z</time>
      </trkpt>
      <trkpt lat="49.35299" lon="-0.83702">
        <ele>67.514972</ele>
        <time>2022-08-03T15:20:16.000Z</time>
      </trkpt>
      <trkpt lat="49.35299" lon="-0.83695">
        <ele>67.517443</ele>
        <time>2022-08-03T15:20:17.000Z</time>
      </trkpt>
      <trkpt lat="49.35299" lon="-0.83689">
        <ele>67.519358</ele>
        <time>2022-08-03T15:20:18.000Z</time>
      </trkpt>
      <trkpt lat="49.35299" lon="-0.8368">
        <ele>67.52238</ele>
        <time>2022-08-03T15:20:19.000Z</time>
      </trkpt>
      <trkpt lat="49.35299" lon="-0.83673">
        <ele>67.525005</ele>
        <time>2022-08-03T15:20:20.000Z</time>
      </trkpt>
      <trkpt lat="49.35299" lon="-0.83665">
        <ele>67.527457</ele>
        <time>2022-08-03T15:20:21.000Z</time>
      </trkpt>
      <trkpt lat="49.353" lon="-0.83658">
        <ele>67.529985</ele>
        <time>2022-08-03T15:20:22.000Z</time>
      </trkpt>
      <trkpt lat="49.353" lon="-0.8365">
        <ele>67.532504</ele>
        <time>2022-08-03T15:20:23.000Z</time>
      </trkpt>
      <trkpt lat="49.353" lon="-0.83644">
        <ele>67.534519</ele>
        <time>2022-08-03T15:20:24.000Z</time>
      </trkpt>
      <trkpt lat="49.35301" lon="-0.83636">
        <ele>67.53733</ele>
        <time>2022-08-03T15:20:25.000Z</time>
      </trkpt>
      <trkpt lat="49.35303" lon="-0.8363">
        <ele>67.536303</ele>
        <time>2022-08-03T15:20:26.000Z</time>
      </trkpt>
      <trkpt lat="49.35307" lon="-0.83626">
        <ele>67.504142</ele>
        <time>2022-08-03T15:20:27.000Z</time>
      </trkpt>
      <trkpt lat="49.35312" lon="-0.83625">
        <ele>67.46957</ele>
        <time>2022-08-03T15:20:28.000Z</time>
      </trkpt>
      <trkpt lat="49.35317" lon="-0.83625">
        <ele>67.43769</ele>
        <time>2022-08-03T15:20:29.000Z</time>
      </trkpt>
      <trkpt lat="49.35323" lon="-0.83625">
        <ele>67.397168</ele>
        <time>2022-08-03T15:20:30.000Z</time>
      </trkpt>
      <trkpt lat="49.35329" lon="-0.83623">
        <ele>67.360468</ele>
        <time>2022-08-03T15:20:31.000Z</time>
      </trkpt>
      <trkpt lat="49.35334" lon="-0.83619">
        <ele>67.318414</ele>
        <time>2022-08-03T15:20:32.000Z</time>
      </trkpt>
      <trkpt lat="49.35339" lon="-0.83614">
        <ele>67.282021</ele>
        <time>2022-08-03T15:20:33.000Z</time>
      </trkpt>
      <trkpt lat="49.35343" lon="-0.83609">
        <ele>67.246422</ele>
        <time>2022-08-03T15:20:34.000Z</time>
      </trkpt>
      <trkpt lat="49.35347" lon="-0.83603">
        <ele>67.210057</ele>
        <time>2022-08-03T15:20:35.000Z</time>
      </trkpt>
      <trkpt lat="49.3535" lon="-0.83597">
        <ele>67.174889</ele>
        <time>2022-08-03T15:20:36.000Z</time>
      </trkpt>
      <trkpt lat="49.35354" lon="-0.83591">
        <ele>67.138685</ele>
        <time>2022-08-03T15:20:37.000Z</time>
      </trkpt>
      <trkpt lat="49.35358" lon="-0.83585">
        <ele>67.101453</ele>
        <time>2022-08-03T15:20:38.000Z</time>
      </trkpt>
      <trkpt lat="49.35362" lon="-0.83579">
        <ele>67.065864</ele>
        <time>2022-08-03T15:20:39.000Z</time>
      </trkpt>
      <trkpt lat="49.35365" lon="-0.83573">
        <ele>67.030616</ele>
        <time>2022-08-03T15:20:40.000Z</time>
      </trkpt>
      <trkpt lat="49.35368" lon="-0.83566">
        <ele>66.997851</ele>
        <time>2022-08-03T15:20:41.000Z</time>
      </trkpt>
      <trkpt lat="49.35371" lon="-0.8356">
        <ele>66.96483</ele>
        <time>2022-08-03T15:20:42.000Z</time>
      </trkpt>
      <trkpt lat="49.35374" lon="-0.83553">
        <ele>66.925409</ele>
        <time>2022-08-03T15:20:43.000Z</time>
      </trkpt>
      <trkpt lat="49.35378" lon="-0.83546">
        <ele>66.89016</ele>
        <time>2022-08-03T15:20:44.000Z</time>
      </trkpt>
      <trkpt lat="49.3538" lon="-0.83539">
        <ele>66.853405</ele>
        <time>2022-08-03T15:20:45.000Z</time>
      </trkpt>
      <trkpt lat="49.35381" lon="-0.83531">
        <ele>66.818732</ele>
        <time>2022-08-03T15:20:46.000Z</time>
      </trkpt>
      <trkpt lat="49.35383" lon="-0.83524">
        <ele>66.786409</ele>
        <time>2022-08-03T15:20:47.000Z</time>
      </trkpt>
      <trkpt lat="49.35385" lon="-0.83517">
        <ele>66.753201</ele>
        <time>2022-08-03T15:20:48.000Z</time>
      </trkpt>
      <trkpt lat="49.35386" lon="-0.8351">
        <ele>66.721516</ele>
        <time>2022-08-03T15:20:49.000Z</time>
      </trkpt>
      <trkpt lat="49.35388" lon="-0.83503">
        <ele>66.689422</ele>
        <time>2022-08-03T15:20:50.000Z</time>
      </trkpt>
      <trkpt lat="49.35389" lon="-0.83496">
        <ele>66.658956</ele>
        <time>2022-08-03T15:20:51.000Z</time>
      </trkpt>
      <trkpt lat="49.35391" lon="-0.8349">
        <ele>66.62954</ele>
        <time>2022-08-03T15:20:52.000Z</time>
      </trkpt>
      <trkpt lat="49.35393" lon="-0.83483">
        <ele>66.598718</ele>
        <time>2022-08-03T15:20:53.000Z</time>
      </trkpt>
      <trkpt lat="49.35394" lon="-0.83476">
        <ele>66.566624</ele>
        <time>2022-08-03T15:20:54.000Z</time>
      </trkpt>
      <trkpt lat="49.35396" lon="-0.8347">
        <ele>66.53474</ele>
        <time>2022-08-03T15:20:55.000Z</time>
      </trkpt>
      <trkpt lat="49.35398" lon="-0.83463">
        <ele>66.503126</ele>
        <time>2022-08-03T15:20:56.000Z</time>
      </trkpt>
      <trkpt lat="49.354" lon="-0.83457">
        <ele>66.473873</ele>
        <time>2022-08-03T15:20:57.000Z</time>
      </trkpt>
      <trkpt lat="49.35402" lon="-0.83451">
        <ele>66.44306</ele>
        <time>2022-08-03T15:20:58.000Z</time>
      </trkpt>
      <trkpt lat="49.35404" lon="-0.83445">
        <ele>66.414669</ele>
        <time>2022-08-03T15:20:59.000Z</time>
      </trkpt>
      <trkpt lat="49.35405" lon="-0.83439">
        <ele>66.388753</ele>
        <time>2022-08-03T15:21:00.000Z</time>
      </trkpt>
      <trkpt lat="49.35407" lon="-0.83433">
        <ele>66.360576</ele>
        <time>2022-08-03T15:21:01.000Z</time>
      </trkpt>
      <trkpt lat="49.35408" lon="-0.83427">
        <ele>66.335315</ele>
        <time>2022-08-03T15:21:02.000Z</time>
      </trkpt>
      <trkpt lat="49.3541" lon="-0.8342">
        <ele>66.313063</ele>
        <time>2022-08-03T15:21:03.000Z</time>
      </trkpt>
      <trkpt lat="49.35411" lon="-0.83415">
        <ele>66.293915</ele>
        <time>2022-08-03T15:21:04.000Z</time>
      </trkpt>
      <trkpt lat="49.35412" lon="-0.83409">
        <ele>66.274471</ele>
        <time>2022-08-03T15:21:05.000Z</time>
      </trkpt>
      <trkpt lat="49.35413" lon="-0.83403">
        <ele>66.253125</ele>
        <time>2022-08-03T15:21:06.000Z</time>
      </trkpt>
      <trkpt lat="49.35415" lon="-0.83397">
        <ele>66.232379</ele>
        <time>2022-08-03T15:21:07.000Z</time>
      </trkpt>
      <trkpt lat="49.35416" lon="-0.83392">
        <ele>66.2164</ele>
        <time>2022-08-03T15:21:08.000Z</time>
      </trkpt>
      <trkpt lat="49.35418" lon="-0.83385">
        <ele>66.189368</ele>
        <time>2022-08-03T15:21:09.000Z</time>
      </trkpt>
      <trkpt lat="49.3542" lon="-0.83379">
        <ele>66.170376</ele>
        <time>2022-08-03T15:21:10.000Z</time>
      </trkpt>
      <trkpt lat="49.3542" lon="-0.83371">
        <ele>66.14353</ele>
        <time>2022-08-03T15:21:11.000Z</time>
      </trkpt>
      <trkpt lat="49.35421" lon="-0.83364">
        <ele>66.12196</ele>
        <time>2022-08-03T15:21:12.000Z</time>
      </trkpt>
      <trkpt lat="49.35422" lon="-0.83358">
        <ele>66.098955</ele>
        <time>2022-08-03T15:21:13.000Z</time>
      </trkpt>
      <trkpt lat="49.35423" lon="-0.8335">
        <ele>66.074741</ele>
        <time>2022-08-03T15:21:14.000Z</time>
      </trkpt>
      <trkpt lat="49.35425" lon="-0.83343">
        <ele>66.050047</ele>
        <time>2022-08-03T15:21:15.000Z</time>
      </trkpt>
      <trkpt lat="49.35426" lon="-0.83336">
        <ele>66.026249</ele>
        <time>2022-08-03T15:21:16.000Z</time>
      </trkpt>
      <trkpt lat="49.35427" lon="-0.83329">
        <ele>66.002308</ele>
        <time>2022-08-03T15:21:17.000Z</time>
      </trkpt>
      <trkpt lat="49.35428" lon="-0.83321">
        <ele>65.97778</ele>
        <time>2022-08-03T15:21:18.000Z</time>
      </trkpt>
      <trkpt lat="49.35428" lon="-0.83314">
        <ele>65.952786</ele>
        <time>2022-08-03T15:21:19.000Z</time>
      </trkpt>
      <trkpt lat="49.35429" lon="-0.83306">
        <ele>65.92822</ele>
        <time>2022-08-03T15:21:20.000Z</time>
      </trkpt>
      <trkpt lat="49.35429" lon="-0.83299">
        <ele>65.903225</ele>
        <time>2022-08-03T15:21:21.000Z</time>
      </trkpt>
      <trkpt lat="49.35429" lon="-0.83291">
        <ele>65.878834</ele>
        <time>2022-08-03T15:21:22.000Z</time>
      </trkpt>
      <trkpt lat="49.3543" lon="-0.83283">
        <ele>65.852632</ele>
        <time>2022-08-03T15:21:23.000Z</time>
      </trkpt>
      <trkpt lat="49.35431" lon="-0.83275">
        <ele>65.826279</ele>
        <time>2022-08-03T15:21:24.000Z</time>
      </trkpt>
      <trkpt lat="49.3543" lon="-0.83268">
        <ele>65.804005</ele>
        <time>2022-08-03T15:21:25.000Z</time>
      </trkpt>
      <trkpt lat="49.35431" lon="-0.83261">
        <ele>65.779154</ele>
        <time>2022-08-03T15:21:26.000Z</time>
      </trkpt>
      <trkpt lat="49.35432" lon="-0.83253">
        <ele>65.754763</ele>
        <time>2022-08-03T15:21:27.000Z</time>
      </trkpt>
      <trkpt lat="49.35433" lon="-0.83246">
        <ele>65.729884</ele>
        <time>2022-08-03T15:21:28.000Z</time>
      </trkpt>
      <trkpt lat="49.35434" lon="-0.83238">
        <ele>65.705356</ele>
        <time>2022-08-03T15:21:29.000Z</time>
      </trkpt>
      <trkpt lat="49.35434" lon="-0.83231">
        <ele>65.681472</ele>
        <time>2022-08-03T15:21:30.000Z</time>
      </trkpt>
      <trkpt lat="49.35436" lon="-0.83224">
        <ele>65.656906</ele>
        <time>2022-08-03T15:21:31.000Z</time>
      </trkpt>
      <trkpt lat="49.35437" lon="-0.83217">
        <ele>65.632825</ele>
        <time>2022-08-03T15:21:32.000Z</time>
      </trkpt>
      <trkpt lat="49.35439" lon="-0.8321">
        <ele>65.607609</ele>
        <time>2022-08-03T15:21:33.000Z</time>
      </trkpt>
      <trkpt lat="49.3544" lon="-0.83203">
        <ele>65.583981</ele>
        <time>2022-08-03T15:21:34.000Z</time>
      </trkpt>
      <trkpt lat="49.35442" lon="-0.83195">
        <ele>65.559287</ele>
        <time>2022-08-03T15:21:35.000Z</time>
      </trkpt>
      <trkpt lat="49.35443" lon="-0.83188">
        <ele>65.535347</ele>
        <time>2022-08-03T15:21:36.000Z</time>
      </trkpt>
      <trkpt lat="49.35444" lon="-0.83181">
        <ele>65.511927</ele>
        <time>2022-08-03T15:21:37.000Z</time>
      </trkpt>
      <trkpt lat="49.35444" lon="-0.83174">
        <ele>65.487976</ele>
        <time>2022-08-03T15:21:38.000Z</time>
      </trkpt>
      <trkpt lat="49.35445" lon="-0.83166">
        <ele>65.463448</ele>
        <time>2022-08-03T15:21:39.000Z</time>
      </trkpt>
      <trkpt lat="49.35446" lon="-0.83159">
        <ele>65.455501</ele>
        <time>2022-08-03T15:21:40.000Z</time>
      </trkpt>
      <trkpt lat="49.35446" lon="-0.83152">
        <ele>65.47374</ele>
        <time>2022-08-03T15:21:41.000Z</time>
      </trkpt>
      <trkpt lat="49.35446" lon="-0.83144">
        <ele>65.492228</ele>
        <time>2022-08-03T15:21:42.000Z</time>
      </trkpt>
      <trkpt lat="49.35447" lon="-0.83137">
        <ele>65.511812</ele>
        <time>2022-08-03T15:21:43.000Z</time>
      </trkpt>
      <trkpt lat="49.35447" lon="-0.83129">
        <ele>65.531073</ele>
        <time>2022-08-03T15:21:44.000Z</time>
      </trkpt>
      <trkpt lat="49.35448" lon="-0.83121">
        <ele>65.550058</ele>
        <time>2022-08-03T15:21:45.000Z</time>
      </trkpt>
      <trkpt lat="49.35448" lon="-0.83114">
        <ele>65.569258</ele>
        <time>2022-08-03T15:21:46.000Z</time>
      </trkpt>
      <trkpt lat="49.35448" lon="-0.83106">
        <ele>65.588741</ele>
        <time>2022-08-03T15:21:47.000Z</time>
      </trkpt>
      <trkpt lat="49.35449" lon="-0.83098">
        <ele>65.608808</ele>
        <time>2022-08-03T15:21:48.000Z</time>
      </trkpt>
      <trkpt lat="49.35449" lon="-0.8309">
        <ele>65.628292</ele>
        <time>2022-08-03T15:21:49.000Z</time>
      </trkpt>
      <trkpt lat="49.35449" lon="-0.83082">
        <ele>65.647741</ele>
        <time>2022-08-03T15:21:50.000Z</time>
      </trkpt>
      <trkpt lat="49.3545" lon="-0.83075">
        <ele>65.666975</ele>
        <time>2022-08-03T15:21:51.000Z</time>
      </trkpt>
      <trkpt lat="49.3545" lon="-0.83067">
        <ele>65.686923</ele>
        <time>2022-08-03T15:21:52.000Z</time>
      </trkpt>
      <trkpt lat="49.3545" lon="-0.83059">
        <ele>65.706904</ele>
        <time>2022-08-03T15:21:53.000Z</time>
      </trkpt>
      <trkpt lat="49.3545" lon="-0.83051">
        <ele>65.726104</ele>
        <time>2022-08-03T15:21:54.000Z</time>
      </trkpt>
      <trkpt lat="49.3545" lon="-0.83043">
        <ele>65.74484</ele>
        <time>2022-08-03T15:21:55.000Z</time>
      </trkpt>
      <trkpt lat="49.35449" lon="-0.83036">
        <ele>65.764425</ele>
        <time>2022-08-03T15:21:56.000Z</time>
      </trkpt>
      <trkpt lat="49.35448" lon="-0.83028">
        <ele>65.783777</ele>
        <time>2022-08-03T15:21:57.000Z</time>
      </trkpt>
      <trkpt lat="49.35446" lon="-0.8302">
        <ele>65.803611</ele>
        <time>2022-08-03T15:21:58.000Z</time>
      </trkpt>
      <trkpt lat="49.35445" lon="-0.83013">
        <ele>65.822945</ele>
        <time>2022-08-03T15:21:59.000Z</time>
      </trkpt>
      <trkpt lat="49.35445" lon="-0.83005">
        <ele>65.841539</ele>
        <time>2022-08-03T15:22:00.000Z</time>
      </trkpt>
      <trkpt lat="49.35444" lon="-0.82998">
        <ele>65.859929</ele>
        <time>2022-08-03T15:22:01.000Z</time>
      </trkpt>
      <trkpt lat="49.35442" lon="-0.82991">
        <ele>65.878898</ele>
        <time>2022-08-03T15:22:02.000Z</time>
      </trkpt>
      <trkpt lat="49.3544" lon="-0.82984">
        <ele>65.897867</ele>
        <time>2022-08-03T15:22:03.000Z</time>
      </trkpt>
      <trkpt lat="49.35439" lon="-0.82977">
        <ele>65.916738</ele>
        <time>2022-08-03T15:22:04.000Z</time>
      </trkpt>
      <trkpt lat="49.35437" lon="-0.82969">
        <ele>65.935943</ele>
        <time>2022-08-03T15:22:05.000Z</time>
      </trkpt>
      <trkpt lat="49.35437" lon="-0.82962">
        <ele>65.954959</ele>
        <time>2022-08-03T15:22:06.000Z</time>
      </trkpt>
      <trkpt lat="49.35435" lon="-0.82954">
        <ele>65.974311</ele>
        <time>2022-08-03T15:22:07.000Z</time>
      </trkpt>
      <trkpt lat="49.35434" lon="-0.82947">
        <ele>65.993753</ele>
        <time>2022-08-03T15:22:08.000Z</time>
      </trkpt>
      <trkpt lat="49.35432" lon="-0.8294">
        <ele>66.012624</ele>
        <time>2022-08-03T15:22:09.000Z</time>
      </trkpt>
      <trkpt lat="49.35431" lon="-0.82932">
        <ele>66.031976</ele>
        <time>2022-08-03T15:22:10.000Z</time>
      </trkpt>
      <trkpt lat="49.3543" lon="-0.82925">
        <ele>66.050502</ele>
        <time>2022-08-03T15:22:11.000Z</time>
      </trkpt>
      <trkpt lat="49.35429" lon="-0.82917">
        <ele>66.069346</ele>
        <time>2022-08-03T15:22:12.000Z</time>
      </trkpt>
      <trkpt lat="49.35428" lon="-0.8291">
        <ele>66.088217</ele>
        <time>2022-08-03T15:22:13.000Z</time>
      </trkpt>
      <trkpt lat="49.35426" lon="-0.82903">
        <ele>66.106715</ele>
        <time>2022-08-03T15:22:14.000Z</time>
      </trkpt>
      <trkpt lat="49.35425" lon="-0.82896">
        <ele>66.124017</ele>
        <time>2022-08-03T15:22:15.000Z</time>
      </trkpt>
      <trkpt lat="49.35424" lon="-0.82889">
        <ele>66.143196</ele>
        <time>2022-08-03T15:22:16.000Z</time>
      </trkpt>
      <trkpt lat="49.35422" lon="-0.82882">
        <ele>66.164549</ele>
        <time>2022-08-03T15:22:17.000Z</time>
      </trkpt>
      <trkpt lat="49.35421" lon="-0.82875">
        <ele>66.185213</ele>
        <time>2022-08-03T15:22:18.000Z</time>
      </trkpt>
      <trkpt lat="49.3542" lon="-0.82868">
        <ele>66.206301</ele>
        <time>2022-08-03T15:22:19.000Z</time>
      </trkpt>
      <trkpt lat="49.35418" lon="-0.82861">
        <ele>66.227273</ele>
        <time>2022-08-03T15:22:20.000Z</time>
      </trkpt>
      <trkpt lat="49.35417" lon="-0.82853">
        <ele>66.248679</ele>
        <time>2022-08-03T15:22:21.000Z</time>
      </trkpt>
      <trkpt lat="49.35416" lon="-0.82846">
        <ele>66.270298</ele>
        <time>2022-08-03T15:22:22.000Z</time>
      </trkpt>
      <trkpt lat="49.35414" lon="-0.82838">
        <ele>66.292082</ele>
        <time>2022-08-03T15:22:23.000Z</time>
      </trkpt>
      <trkpt lat="49.35413" lon="-0.82831">
        <ele>66.31357</ele>
        <time>2022-08-03T15:22:24.000Z</time>
      </trkpt>
      <trkpt lat="49.35412" lon="-0.82824">
        <ele>66.334431</ele>
        <time>2022-08-03T15:22:25.000Z</time>
      </trkpt>
      <trkpt lat="49.35411" lon="-0.82816">
        <ele>66.355369</ele>
        <time>2022-08-03T15:22:26.000Z</time>
      </trkpt>
      <trkpt lat="49.3541" lon="-0.82809">
        <ele>66.376192</ele>
        <time>2022-08-03T15:22:27.000Z</time>
      </trkpt>
      <trkpt lat="49.35408" lon="-0.82802">
        <ele>66.396354</ele>
        <time>2022-08-03T15:22:28.000Z</time>
      </trkpt>
      <trkpt lat="49.35407" lon="-0.82796">
        <ele>66.415831</ele>
        <time>2022-08-03T15:22:29.000Z</time>
      </trkpt>
      <trkpt lat="49.35406" lon="-0.82789">
        <ele>66.436125</ele>
        <time>2022-08-03T15:22:30.000Z</time>
      </trkpt>
      <trkpt lat="49.35404" lon="-0.82782">
        <ele>66.456948</ele>
        <time>2022-08-03T15:22:31.000Z</time>
      </trkpt>
      <trkpt lat="49.35403" lon="-0.82775">
        <ele>66.477063</ele>
        <time>2022-08-03T15:22:32.000Z</time>
      </trkpt>
      <trkpt lat="49.35402" lon="-0.82767">
        <ele>66.498576</ele>
        <time>2022-08-03T15:22:33.000Z</time>
      </trkpt>
      <trkpt lat="49.35401" lon="-0.8276">
        <ele>66.520632</ele>
        <time>2022-08-03T15:22:34.000Z</time>
      </trkpt>
      <trkpt lat="49.354" lon="-0.82752">
        <ele>66.542038</ele>
        <time>2022-08-03T15:22:35.000Z</time>
      </trkpt>
      <trkpt lat="49.35398" lon="-0.82745">
        <ele>66.564724</ele>
        <time>2022-08-03T15:22:36.000Z</time>
      </trkpt>
      <trkpt lat="49.35397" lon="-0.82737">
        <ele>66.586876</ele>
        <time>2022-08-03T15:22:37.000Z</time>
      </trkpt>
      <trkpt lat="49.35395" lon="-0.8273">
        <ele>66.609464</ele>
        <time>2022-08-03T15:22:38.000Z</time>
      </trkpt>
      <trkpt lat="49.35394" lon="-0.82722">
        <ele>66.631502</ele>
        <time>2022-08-03T15:22:39.000Z</time>
      </trkpt>
      <trkpt lat="49.35392" lon="-0.82715">
        <ele>66.652788</ele>
        <time>2022-08-03T15:22:40.000Z</time>
      </trkpt>
      <trkpt lat="49.3539" lon="-0.82708">
        <ele>66.67349</ele>
        <time>2022-08-03T15:22:41.000Z</time>
      </trkpt>
      <trkpt lat="49.35389" lon="-0.82701">
        <ele>66.694776</ele>
        <time>2022-08-03T15:22:42.000Z</time>
      </trkpt>
      <trkpt lat="49.35387" lon="-0.82694">
        <ele>66.714773</ele>
        <time>2022-08-03T15:22:43.000Z</time>
      </trkpt>
      <trkpt lat="49.35384" lon="-0.82688">
        <ele>66.736184</ele>
        <time>2022-08-03T15:22:44.000Z</time>
      </trkpt>
      <trkpt lat="49.35381" lon="-0.82682">
        <ele>66.757766</ele>
        <time>2022-08-03T15:22:45.000Z</time>
      </trkpt>
      <trkpt lat="49.35377" lon="-0.82678">
        <ele>66.779131</ele>
        <time>2022-08-03T15:22:46.000Z</time>
      </trkpt>
      <trkpt lat="49.35373" lon="-0.82674">
        <ele>66.798985</ele>
        <time>2022-08-03T15:22:47.000Z</time>
      </trkpt>
      <trkpt lat="49.35368" lon="-0.8267">
        <ele>66.820983</ele>
        <time>2022-08-03T15:22:48.000Z</time>
      </trkpt>
      <trkpt lat="49.35364" lon="-0.82666">
        <ele>66.841198</ele>
        <time>2022-08-03T15:22:49.000Z</time>
      </trkpt>
      <trkpt lat="49.3536" lon="-0.82663">
        <ele>66.863064</ele>
        <time>2022-08-03T15:22:50.000Z</time>
      </trkpt>
      <trkpt lat="49.35355" lon="-0.82659">
        <ele>66.885843</ele>
        <time>2022-08-03T15:22:51.000Z</time>
      </trkpt>
      <trkpt lat="49.3535" lon="-0.82656">
        <ele>66.907333</ele>
        <time>2022-08-03T15:22:52.000Z</time>
      </trkpt>
      <trkpt lat="49.35346" lon="-0.82652">
        <ele>66.912482</ele>
        <time>2022-08-03T15:22:53.000Z</time>
      </trkpt>
      <trkpt lat="49.35342" lon="-0.82649">
        <ele>66.912914</ele>
        <time>2022-08-03T15:22:54.000Z</time>
      </trkpt>
      <trkpt lat="49.35337" lon="-0.82645">
        <ele>66.913385</ele>
        <time>2022-08-03T15:22:55.000Z</time>
      </trkpt>
      <trkpt lat="49.35333" lon="-0.82642">
        <ele>66.913789</ele>
        <time>2022-08-03T15:22:56.000Z</time>
      </trkpt>
      <trkpt lat="49.35328" lon="-0.82639">
        <ele>66.914218</ele>
        <time>2022-08-03T15:22:57.000Z</time>
      </trkpt>
      <trkpt lat="49.35324" lon="-0.82636">
        <ele>66.914644</ele>
        <time>2022-08-03T15:22:58.000Z</time>
      </trkpt>
      <trkpt lat="49.35319" lon="-0.82632">
        <ele>66.915078</ele>
        <time>2022-08-03T15:22:59.000Z</time>
      </trkpt>
      <trkpt lat="49.35315" lon="-0.82628">
        <ele>66.915493</ele>
        <time>2022-08-03T15:23:00.000Z</time>
      </trkpt>
      <trkpt lat="49.35311" lon="-0.82625">
        <ele>66.91592</ele>
        <time>2022-08-03T15:23:01.000Z</time>
      </trkpt>
      <trkpt lat="49.35307" lon="-0.82622">
        <ele>66.91629</ele>
        <time>2022-08-03T15:23:02.000Z</time>
      </trkpt>
      <trkpt lat="49.35303" lon="-0.82619">
        <ele>66.916666</ele>
        <time>2022-08-03T15:23:03.000Z</time>
      </trkpt>
      <trkpt lat="49.35299" lon="-0.82616">
        <ele>66.917036</ele>
        <time>2022-08-03T15:23:04.000Z</time>
      </trkpt>
      <trkpt lat="49.35295" lon="-0.82614">
        <ele>66.917433</ele>
        <time>2022-08-03T15:23:05.000Z</time>
      </trkpt>
      <trkpt lat="49.35291" lon="-0.82611">
        <ele>66.917816</ele>
        <time>2022-08-03T15:23:06.000Z</time>
      </trkpt>
      <trkpt lat="49.35287" lon="-0.82609">
        <ele>66.9182</ele>
        <time>2022-08-03T15:23:07.000Z</time>
      </trkpt>
      <trkpt lat="49.35283" lon="-0.82606">
        <ele>66.918583</ele>
        <time>2022-08-03T15:23:08.000Z</time>
      </trkpt>
      <trkpt lat="49.35278" lon="-0.82604">
        <ele>66.91899</ele>
        <time>2022-08-03T15:23:09.000Z</time>
      </trkpt>
      <trkpt lat="49.35273" lon="-0.82602">
        <ele>66.919445</ele>
        <time>2022-08-03T15:23:10.000Z</time>
      </trkpt>
      <trkpt lat="49.35269" lon="-0.82601">
        <ele>66.919846</ele>
        <time>2022-08-03T15:23:11.000Z</time>
      </trkpt>
      <trkpt lat="49.35263" lon="-0.82598">
        <ele>66.920308</ele>
        <time>2022-08-03T15:23:12.000Z</time>
      </trkpt>
      <trkpt lat="49.35259" lon="-0.82596">
        <ele>66.920729</ele>
        <time>2022-08-03T15:23:13.000Z</time>
      </trkpt>
      <trkpt lat="49.35255" lon="-0.82592">
        <ele>66.921151</ele>
        <time>2022-08-03T15:23:14.000Z</time>
      </trkpt>
      <trkpt lat="49.35251" lon="-0.82587">
        <ele>66.921595</ele>
        <time>2022-08-03T15:23:15.000Z</time>
      </trkpt>
      <trkpt lat="49.35246" lon="-0.82582">
        <ele>66.922049</ele>
        <time>2022-08-03T15:23:16.000Z</time>
      </trkpt>
      <trkpt lat="49.35243" lon="-0.82577">
        <ele>66.922482</ele>
        <time>2022-08-03T15:23:17.000Z</time>
      </trkpt>
      <trkpt lat="49.35239" lon="-0.82572">
        <ele>66.92293</ele>
        <time>2022-08-03T15:23:18.000Z</time>
      </trkpt>
      <trkpt lat="49.35235" lon="-0.82567">
        <ele>66.923357</ele>
        <time>2022-08-03T15:23:19.000Z</time>
      </trkpt>
      <trkpt lat="49.35231" lon="-0.82562">
        <ele>66.923767</ele>
        <time>2022-08-03T15:23:20.000Z</time>
      </trkpt>
      <trkpt lat="49.35228" lon="-0.82558">
        <ele>66.92419</ele>
        <time>2022-08-03T15:23:21.000Z</time>
      </trkpt>
      <trkpt lat="49.35223" lon="-0.82554">
        <ele>66.92462</ele>
        <time>2022-08-03T15:23:22.000Z</time>
      </trkpt>
      <trkpt lat="49.3522" lon="-0.82549">
        <ele>66.92505</ele>
        <time>2022-08-03T15:23:23.000Z</time>
      </trkpt>
      <trkpt lat="49.35216" lon="-0.82544">
        <ele>66.925468</ele>
        <time>2022-08-03T15:23:24.000Z</time>
      </trkpt>
      <trkpt lat="49.35213" lon="-0.82538">
        <ele>66.925919</ele>
        <time>2022-08-03T15:23:25.000Z</time>
      </trkpt>
      <trkpt lat="49.35209" lon="-0.82532">
        <ele>66.926397</ele>
        <time>2022-08-03T15:23:26.000Z</time>
      </trkpt>
      <trkpt lat="49.35204" lon="-0.82526">
        <ele>66.926919</ele>
        <time>2022-08-03T15:23:27.000Z</time>
      </trkpt>
      <trkpt lat="49.352" lon="-0.82519">
        <ele>66.927456</ele>
        <time>2022-08-03T15:23:28.000Z</time>
      </trkpt>
      <trkpt lat="49.35197" lon="-0.8251">
        <ele>66.942423</ele>
        <time>2022-08-03T15:23:29.000Z</time>
      </trkpt>
      <trkpt lat="49.35194" lon="-0.825">
        <ele>66.972736</ele>
        <time>2022-08-03T15:23:30.000Z</time>
      </trkpt>
      <trkpt lat="49.35193" lon="-0.8249">
        <ele>67.001934</ele>
        <time>2022-08-03T15:23:31.000Z</time>
      </trkpt>
      <trkpt lat="49.35192" lon="-0.82481">
        <ele>67.028079</ele>
        <time>2022-08-03T15:23:32.000Z</time>
      </trkpt>
      <trkpt lat="49.35193" lon="-0.82473">
        <ele>67.052788</ele>
        <time>2022-08-03T15:23:33.000Z</time>
      </trkpt>
      <trkpt lat="49.35193" lon="-0.82465">
        <ele>67.073826</ele>
        <time>2022-08-03T15:23:34.000Z</time>
      </trkpt>
      <trkpt lat="49.35194" lon="-0.82459">
        <ele>67.093085</ele>
        <time>2022-08-03T15:23:35.000Z</time>
      </trkpt>
      <trkpt lat="49.35195" lon="-0.82453">
        <ele>67.110538</ele>
        <time>2022-08-03T15:23:36.000Z</time>
      </trkpt>
      <trkpt lat="49.35196" lon="-0.82449">
        <ele>67.123813</ele>
        <time>2022-08-03T15:23:37.000Z</time>
      </trkpt>
      <trkpt lat="49.35197" lon="-0.82445">
        <ele>67.136195</ele>
        <time>2022-08-03T15:23:38.000Z</time>
      </trkpt>
      <trkpt lat="49.35198" lon="-0.8244">
        <ele>67.149118</ele>
        <time>2022-08-03T15:23:39.000Z</time>
      </trkpt>
      <trkpt lat="49.35199" lon="-0.82436">
        <ele>67.16217</ele>
        <time>2022-08-03T15:23:40.000Z</time>
      </trkpt>
      <trkpt lat="49.35199" lon="-0.82432">
        <ele>67.175541</ele>
        <time>2022-08-03T15:23:41.000Z</time>
      </trkpt>
      <trkpt lat="49.35201" lon="-0.82427">
        <ele>67.189593</ele>
        <time>2022-08-03T15:23:42.000Z</time>
      </trkpt>
      <trkpt lat="49.35202" lon="-0.82423">
        <ele>67.203334</ele>
        <time>2022-08-03T15:23:43.000Z</time>
      </trkpt>
      <trkpt lat="49.35203" lon="-0.82418">
        <ele>67.21756</ele>
        <time>2022-08-03T15:23:44.000Z</time>
      </trkpt>
      <trkpt lat="49.35204" lon="-0.82413">
        <ele>67.231995</ele>
        <time>2022-08-03T15:23:45.000Z</time>
      </trkpt>
      <trkpt lat="49.35205" lon="-0.82409">
        <ele>67.246752</ele>
        <time>2022-08-03T15:23:46.000Z</time>
      </trkpt>
      <trkpt lat="49.35206" lon="-0.82404">
        <ele>67.261532</ele>
        <time>2022-08-03T15:23:47.000Z</time>
      </trkpt>
      <trkpt lat="49.35207" lon="-0.82399">
        <ele>67.276931</ele>
        <time>2022-08-03T15:23:48.000Z</time>
      </trkpt>
      <trkpt lat="49.35208" lon="-0.82393">
        <ele>67.29256</ele>
        <time>2022-08-03T15:23:49.000Z</time>
      </trkpt>
      <trkpt lat="49.35208" lon="-0.82388">
        <ele>67.307071</ele>
        <time>2022-08-03T15:23:50.000Z</time>
      </trkpt>
      <trkpt lat="49.35209" lon="-0.82383">
        <ele>67.321479</ele>
        <time>2022-08-03T15:23:51.000Z</time>
      </trkpt>
      <trkpt lat="49.35209" lon="-0.82379">
        <ele>67.334891</ele>
        <time>2022-08-03T15:23:52.000Z</time>
      </trkpt>
      <trkpt lat="49.35209" lon="-0.82374">
        <ele>67.349978</ele>
        <time>2022-08-03T15:23:53.000Z</time>
      </trkpt>
      <trkpt lat="49.35209" lon="-0.82368">
        <ele>67.365064</ele>
        <time>2022-08-03T15:23:54.000Z</time>
      </trkpt>
      <trkpt lat="49.35208" lon="-0.82363">
        <ele>67.380456</ele>
        <time>2022-08-03T15:23:55.000Z</time>
      </trkpt>
      <trkpt lat="49.35208" lon="-0.82358">
        <ele>67.395543</ele>
        <time>2022-08-03T15:23:56.000Z</time>
      </trkpt>
      <trkpt lat="49.35207" lon="-0.82353">
        <ele>67.41063</ele>
        <time>2022-08-03T15:23:57.000Z</time>
      </trkpt>
      <trkpt lat="49.35207" lon="-0.82348">
        <ele>67.425475</ele>
        <time>2022-08-03T15:23:58.000Z</time>
      </trkpt>
      <trkpt lat="49.35207" lon="-0.82343">
        <ele>67.440562</ele>
        <time>2022-08-03T15:23:59.000Z</time>
      </trkpt>
      <trkpt lat="49.35206" lon="-0.82337">
        <ele>67.45695</ele>
        <time>2022-08-03T15:24:00.000Z</time>
      </trkpt>
      <trkpt lat="49.35205" lon="-0.82331">
        <ele>67.473518</ele>
        <time>2022-08-03T15:24:01.000Z</time>
      </trkpt>
      <trkpt lat="49.35205" lon="-0.82326">
        <ele>67.49049</ele>
        <time>2022-08-03T15:24:02.000Z</time>
      </trkpt>
      <trkpt lat="49.35204" lon="-0.8232">
        <ele>67.508764</ele>
        <time>2022-08-03T15:24:03.000Z</time>
      </trkpt>
      <trkpt lat="49.35203" lon="-0.82313">
        <ele>67.527121</ele>
        <time>2022-08-03T15:24:04.000Z</time>
      </trkpt>
      <trkpt lat="49.35201" lon="-0.82307">
        <ele>67.545395</ele>
        <time>2022-08-03T15:24:05.000Z</time>
      </trkpt>
      <trkpt lat="49.352" lon="-0.82301">
        <ele>67.563943</ele>
        <time>2022-08-03T15:24:06.000Z</time>
      </trkpt>
      <trkpt lat="49.35199" lon="-0.82295">
        <ele>67.582402</ele>
        <time>2022-08-03T15:24:07.000Z</time>
      </trkpt>
      <trkpt lat="49.35198" lon="-0.82289">
        <ele>67.601927</ele>
        <time>2022-08-03T15:24:08.000Z</time>
      </trkpt>
      <trkpt lat="49.35197" lon="-0.82282">
        <ele>67.621791</ele>
        <time>2022-08-03T15:24:09.000Z</time>
      </trkpt>
      <trkpt lat="49.35195" lon="-0.82275">
        <ele>67.642686</ele>
        <time>2022-08-03T15:24:10.000Z</time>
      </trkpt>
      <trkpt lat="49.35194" lon="-0.82268">
        <ele>67.663309</ele>
        <time>2022-08-03T15:24:11.000Z</time>
      </trkpt>
      <trkpt lat="49.35192" lon="-0.82262">
        <ele>67.68366</ele>
        <time>2022-08-03T15:24:12.000Z</time>
      </trkpt>
      <trkpt lat="49.35191" lon="-0.82255">
        <ele>67.703311</ele>
        <time>2022-08-03T15:24:13.000Z</time>
      </trkpt>
      <trkpt lat="49.35189" lon="-0.82249">
        <ele>67.723637</ele>
        <time>2022-08-03T15:24:14.000Z</time>
      </trkpt>
      <trkpt lat="49.35187" lon="-0.82242">
        <ele>67.742399</ele>
        <time>2022-08-03T15:24:15.000Z</time>
      </trkpt>
      <trkpt lat="49.35184" lon="-0.82236">
        <ele>67.761387</ele>
        <time>2022-08-03T15:24:16.000Z</time>
      </trkpt>
      <trkpt lat="49.35183" lon="-0.8223">
        <ele>67.77717</ele>
        <time>2022-08-03T15:24:17.000Z</time>
      </trkpt>
      <trkpt lat="49.35181" lon="-0.82224">
        <ele>67.794726</ele>
        <time>2022-08-03T15:24:18.000Z</time>
      </trkpt>
      <trkpt lat="49.3518" lon="-0.82218">
        <ele>67.811074</ele>
        <time>2022-08-03T15:24:19.000Z</time>
      </trkpt>
      <trkpt lat="49.35178" lon="-0.82213">
        <ele>67.828168</ele>
        <time>2022-08-03T15:24:20.000Z</time>
      </trkpt>
      <trkpt lat="49.35177" lon="-0.82206">
        <ele>67.845264</ele>
        <time>2022-08-03T15:24:21.000Z</time>
      </trkpt>
      <trkpt lat="49.35175" lon="-0.822">
        <ele>67.863754</ele>
        <time>2022-08-03T15:24:22.000Z</time>
      </trkpt>
      <trkpt lat="49.35173" lon="-0.82194">
        <ele>67.880641</ele>
        <time>2022-08-03T15:24:23.000Z</time>
      </trkpt>
      <trkpt lat="49.35172" lon="-0.82188">
        <ele>67.897087</ele>
        <time>2022-08-03T15:24:24.000Z</time>
      </trkpt>
      <trkpt lat="49.3517" lon="-0.82182">
        <ele>67.913734</ele>
        <time>2022-08-03T15:24:25.000Z</time>
      </trkpt>
      <trkpt lat="49.35168" lon="-0.82176">
        <ele>67.930621</ele>
        <time>2022-08-03T15:24:26.000Z</time>
      </trkpt>
      <trkpt lat="49.35167" lon="-0.82171">
        <ele>67.946151</ele>
        <time>2022-08-03T15:24:27.000Z</time>
      </trkpt>
      <trkpt lat="49.35166" lon="-0.82165">
        <ele>67.962557</ele>
        <time>2022-08-03T15:24:28.000Z</time>
      </trkpt>
      <trkpt lat="49.35164" lon="-0.82159">
        <ele>67.979204</ele>
        <time>2022-08-03T15:24:29.000Z</time>
      </trkpt>
      <trkpt lat="49.35163" lon="-0.82154">
        <ele>67.993469</ele>
        <time>2022-08-03T15:24:30.000Z</time>
      </trkpt>
      <trkpt lat="49.35161" lon="-0.82149">
        <ele>68.008998</ele>
        <time>2022-08-03T15:24:31.000Z</time>
      </trkpt>
      <trkpt lat="49.35158" lon="-0.82143">
        <ele>68.02628</ele>
        <time>2022-08-03T15:24:32.000Z</time>
      </trkpt>
      <trkpt lat="49.35156" lon="-0.82137">
        <ele>68.044214</ele>
        <time>2022-08-03T15:24:33.000Z</time>
      </trkpt>
      <trkpt lat="49.35154" lon="-0.82131">
        <ele>68.06177</ele>
        <time>2022-08-03T15:24:34.000Z</time>
      </trkpt>
      <trkpt lat="49.35152" lon="-0.82125">
        <ele>68.079147</ele>
        <time>2022-08-03T15:24:35.000Z</time>
      </trkpt>
      <trkpt lat="49.3515" lon="-0.8212">
        <ele>68.096405</ele>
        <time>2022-08-03T15:24:36.000Z</time>
      </trkpt>
      <trkpt lat="49.35148" lon="-0.82114">
        <ele>68.11262</ele>
        <time>2022-08-03T15:24:37.000Z</time>
      </trkpt>
      <trkpt lat="49.35146" lon="-0.82108">
        <ele>68.130176</ele>
        <time>2022-08-03T15:24:38.000Z</time>
      </trkpt>
      <trkpt lat="49.35145" lon="-0.82102">
        <ele>68.146525</ele>
        <time>2022-08-03T15:24:39.000Z</time>
      </trkpt>
      <trkpt lat="49.35143" lon="-0.82096">
        <ele>68.163618</ele>
        <time>2022-08-03T15:24:40.000Z</time>
      </trkpt>
      <trkpt lat="49.35141" lon="-0.82091">
        <ele>68.180296</ele>
        <time>2022-08-03T15:24:41.000Z</time>
      </trkpt>
      <trkpt lat="49.3514" lon="-0.82085">
        <ele>68.196702</ele>
        <time>2022-08-03T15:24:42.000Z</time>
      </trkpt>
      <trkpt lat="49.35138" lon="-0.82079">
        <ele>68.213846</ele>
        <time>2022-08-03T15:24:43.000Z</time>
      </trkpt>
      <trkpt lat="49.35135" lon="-0.82073">
        <ele>68.23088</ele>
        <time>2022-08-03T15:24:44.000Z</time>
      </trkpt>
      <trkpt lat="49.35133" lon="-0.82067">
        <ele>68.248204</ele>
        <time>2022-08-03T15:24:45.000Z</time>
      </trkpt>
      <trkpt lat="49.35132" lon="-0.82061">
        <ele>68.264552</ele>
        <time>2022-08-03T15:24:46.000Z</time>
      </trkpt>
      <trkpt lat="49.35131" lon="-0.82055">
        <ele>68.28144</ele>
        <time>2022-08-03T15:24:47.000Z</time>
      </trkpt>
      <trkpt lat="49.3513" lon="-0.82049">
        <ele>68.297572</ele>
        <time>2022-08-03T15:24:48.000Z</time>
      </trkpt>
      <trkpt lat="49.35128" lon="-0.82044">
        <ele>68.313499</ele>
        <time>2022-08-03T15:24:49.000Z</time>
      </trkpt>
      <trkpt lat="49.35126" lon="-0.82038">
        <ele>68.330643</ele>
        <time>2022-08-03T15:24:50.000Z</time>
      </trkpt>
      <trkpt lat="49.35124" lon="-0.82032">
        <ele>68.34802</ele>
        <time>2022-08-03T15:24:51.000Z</time>
      </trkpt>
      <trkpt lat="49.35123" lon="-0.82026">
        <ele>68.365149</ele>
        <time>2022-08-03T15:24:52.000Z</time>
      </trkpt>
      <trkpt lat="49.35121" lon="-0.82019">
        <ele>68.382611</ele>
        <time>2022-08-03T15:24:53.000Z</time>
      </trkpt>
      <trkpt lat="49.3512" lon="-0.82013">
        <ele>68.400322</ele>
        <time>2022-08-03T15:24:54.000Z</time>
      </trkpt>
      <trkpt lat="49.35118" lon="-0.82007">
        <ele>68.417935</ele>
        <time>2022-08-03T15:24:55.000Z</time>
      </trkpt>
      <trkpt lat="49.35117" lon="-0.82">
        <ele>68.435548</ele>
        <time>2022-08-03T15:24:56.000Z</time>
      </trkpt>
      <trkpt lat="49.35115" lon="-0.81994">
        <ele>68.434236</ele>
        <time>2022-08-03T15:24:57.000Z</time>
      </trkpt>
      <trkpt lat="49.35114" lon="-0.81987">
        <ele>68.412406</ele>
        <time>2022-08-03T15:24:58.000Z</time>
      </trkpt>
      <trkpt lat="49.35112" lon="-0.81981">
        <ele>68.38998</ele>
        <time>2022-08-03T15:24:59.000Z</time>
      </trkpt>
      <trkpt lat="49.3511" lon="-0.81974">
        <ele>68.367256</ele>
        <time>2022-08-03T15:25:00.000Z</time>
      </trkpt>
      <trkpt lat="49.35109" lon="-0.81968">
        <ele>68.344568</ele>
        <time>2022-08-03T15:25:01.000Z</time>
      </trkpt>
      <trkpt lat="49.35107" lon="-0.81961">
        <ele>68.322749</ele>
        <time>2022-08-03T15:25:02.000Z</time>
      </trkpt>
      <trkpt lat="49.35106" lon="-0.81955">
        <ele>68.302718</ele>
        <time>2022-08-03T15:25:03.000Z</time>
      </trkpt>
      <trkpt lat="49.35103" lon="-0.8195">
        <ele>68.28162</ele>
        <time>2022-08-03T15:25:04.000Z</time>
      </trkpt>
      <trkpt lat="49.35101" lon="-0.81944">
        <ele>68.260722</ele>
        <time>2022-08-03T15:25:05.000Z</time>
      </trkpt>
      <trkpt lat="49.351" lon="-0.81937">
        <ele>68.239514</ele>
        <time>2022-08-03T15:25:06.000Z</time>
      </trkpt>
      <trkpt lat="49.35099" lon="-0.81931">
        <ele>68.217386</ele>
        <time>2022-08-03T15:25:07.000Z</time>
      </trkpt>
      <trkpt lat="49.35098" lon="-0.81924">
        <ele>68.194565</ele>
        <time>2022-08-03T15:25:08.000Z</time>
      </trkpt>
      <trkpt lat="49.35096" lon="-0.81917">
        <ele>68.170941</ele>
        <time>2022-08-03T15:25:09.000Z</time>
      </trkpt>
      <trkpt lat="49.35094" lon="-0.81909">
        <ele>68.145315</ele>
        <time>2022-08-03T15:25:10.000Z</time>
      </trkpt>
      <trkpt lat="49.35092" lon="-0.81902">
        <ele>68.119689</ele>
        <time>2022-08-03T15:25:11.000Z</time>
      </trkpt>
      <trkpt lat="49.3509" lon="-0.81894">
        <ele>68.093882</ele>
        <time>2022-08-03T15:25:12.000Z</time>
      </trkpt>
      <trkpt lat="49.35088" lon="-0.81887">
        <ele>68.067959</ele>
        <time>2022-08-03T15:25:13.000Z</time>
      </trkpt>
      <trkpt lat="49.35086" lon="-0.81879">
        <ele>68.040842</ele>
        <time>2022-08-03T15:25:14.000Z</time>
      </trkpt>
      <trkpt lat="49.35084" lon="-0.81871">
        <ele>68.012372</ele>
        <time>2022-08-03T15:25:15.000Z</time>
      </trkpt>
      <trkpt lat="49.35082" lon="-0.81863">
        <ele>67.984719</ele>
        <time>2022-08-03T15:25:16.000Z</time>
      </trkpt>
      <trkpt lat="49.35079" lon="-0.81855">
        <ele>67.957664</ele>
        <time>2022-08-03T15:25:17.000Z</time>
      </trkpt>
      <trkpt lat="49.35077" lon="-0.81847">
        <ele>67.931319</ele>
        <time>2022-08-03T15:25:18.000Z</time>
      </trkpt>
      <trkpt lat="49.35075" lon="-0.81839">
        <ele>67.903063</ele>
        <time>2022-08-03T15:25:19.000Z</time>
      </trkpt>
      <trkpt lat="49.35074" lon="-0.81831">
        <ele>67.877123</ele>
        <time>2022-08-03T15:25:20.000Z</time>
      </trkpt>
      <trkpt lat="49.35072" lon="-0.81823">
        <ele>67.849558</ele>
        <time>2022-08-03T15:25:21.000Z</time>
      </trkpt>
      <trkpt lat="49.3507" lon="-0.81814">
        <ele>67.819839</ele>
        <time>2022-08-03T15:25:22.000Z</time>
      </trkpt>
      <trkpt lat="49.35068" lon="-0.81806">
        <ele>67.791823</ele>
        <time>2022-08-03T15:25:23.000Z</time>
      </trkpt>
      <trkpt lat="49.35066" lon="-0.81797">
        <ele>67.761924</ele>
        <time>2022-08-03T15:25:24.000Z</time>
      </trkpt>
      <trkpt lat="49.35064" lon="-0.81788">
        <ele>67.729516</ele>
        <time>2022-08-03T15:25:25.000Z</time>
      </trkpt>
      <trkpt lat="49.35061" lon="-0.81778">
        <ele>67.694636</ele>
        <time>2022-08-03T15:25:26.000Z</time>
      </trkpt>
      <trkpt lat="49.35059" lon="-0.81768">
        <ele>67.661416</ele>
        <time>2022-08-03T15:25:27.000Z</time>
      </trkpt>
      <trkpt lat="49.35056" lon="-0.81759">
        <ele>67.628582</ele>
        <time>2022-08-03T15:25:28.000Z</time>
      </trkpt>
      <trkpt lat="49.35053" lon="-0.81749">
        <ele>67.595768</ele>
        <time>2022-08-03T15:25:29.000Z</time>
      </trkpt>
      <trkpt lat="49.35051" lon="-0.8174">
        <ele>67.566639</ele>
        <time>2022-08-03T15:25:30.000Z</time>
      </trkpt>
      <trkpt lat="49.35048" lon="-0.81731">
        <ele>67.595153</ele>
        <time>2022-08-03T15:25:31.000Z</time>
      </trkpt>
      <trkpt lat="49.35046" lon="-0.81723">
        <ele>67.622443</ele>
        <time>2022-08-03T15:25:32.000Z</time>
      </trkpt>
      <trkpt lat="49.35045" lon="-0.81715">
        <ele>67.648302</ele>
        <time>2022-08-03T15:25:33.000Z</time>
      </trkpt>
      <trkpt lat="49.35043" lon="-0.81708">
        <ele>67.671612</ele>
        <time>2022-08-03T15:25:34.000Z</time>
      </trkpt>
      <trkpt lat="49.35041" lon="-0.81701">
        <ele>67.694547</ele>
        <time>2022-08-03T15:25:35.000Z</time>
      </trkpt>
      <trkpt lat="49.35039" lon="-0.81695">
        <ele>67.71563</ele>
        <time>2022-08-03T15:25:36.000Z</time>
      </trkpt>
      <trkpt lat="49.35037" lon="-0.81688">
        <ele>67.73707</ele>
        <time>2022-08-03T15:25:37.000Z</time>
      </trkpt>
      <trkpt lat="49.35035" lon="-0.81682">
        <ele>67.757603</ele>
        <time>2022-08-03T15:25:38.000Z</time>
      </trkpt>
      <trkpt lat="49.35033" lon="-0.81676">
        <ele>67.778834</ele>
        <time>2022-08-03T15:25:39.000Z</time>
      </trkpt>
      <trkpt lat="49.35031" lon="-0.8167">
        <ele>67.798549</ele>
        <time>2022-08-03T15:25:40.000Z</time>
      </trkpt>
      <trkpt lat="49.3503" lon="-0.81664">
        <ele>67.818329</ele>
        <time>2022-08-03T15:25:41.000Z</time>
      </trkpt>
      <trkpt lat="49.35028" lon="-0.81658">
        <ele>67.83947</ele>
        <time>2022-08-03T15:25:42.000Z</time>
      </trkpt>
      <trkpt lat="49.35025" lon="-0.81652">
        <ele>67.8611</ele>
        <time>2022-08-03T15:25:43.000Z</time>
      </trkpt>
      <trkpt lat="49.35023" lon="-0.81646">
        <ele>67.882984</ele>
        <time>2022-08-03T15:25:44.000Z</time>
      </trkpt>
      <trkpt lat="49.3502" lon="-0.81639">
        <ele>67.905387</ele>
        <time>2022-08-03T15:25:45.000Z</time>
      </trkpt>
      <trkpt lat="49.35018" lon="-0.81633">
        <ele>67.928386</ele>
        <time>2022-08-03T15:25:46.000Z</time>
      </trkpt>
      <trkpt lat="49.35015" lon="-0.81626">
        <ele>67.953068</ele>
        <time>2022-08-03T15:25:47.000Z</time>
      </trkpt>
      <trkpt lat="49.35013" lon="-0.81618">
        <ele>67.97777</ele>
        <time>2022-08-03T15:25:48.000Z</time>
      </trkpt>
      <trkpt lat="49.35011" lon="-0.81612">
        <ele>68.000828</ele>
        <time>2022-08-03T15:25:49.000Z</time>
      </trkpt>
      <trkpt lat="49.35008" lon="-0.81605">
        <ele>68.024511</ele>
        <time>2022-08-03T15:25:50.000Z</time>
      </trkpt>
      <trkpt lat="49.35005" lon="-0.81598">
        <ele>68.047675</ele>
        <time>2022-08-03T15:25:51.000Z</time>
      </trkpt>
      <trkpt lat="49.35003" lon="-0.81592">
        <ele>68.069383</ele>
        <time>2022-08-03T15:25:52.000Z</time>
      </trkpt>
      <trkpt lat="49.35001" lon="-0.81586">
        <ele>68.090823</ele>
        <time>2022-08-03T15:25:53.000Z</time>
      </trkpt>
      <trkpt lat="49.35" lon="-0.8158">
        <ele>68.109043</ele>
        <time>2022-08-03T15:25:54.000Z</time>
      </trkpt>
      <trkpt lat="49.34998" lon="-0.81574">
        <ele>68.129296</ele>
        <time>2022-08-03T15:25:55.000Z</time>
      </trkpt>
      <trkpt lat="49.34997" lon="-0.81568">
        <ele>68.149266</ele>
        <time>2022-08-03T15:25:56.000Z</time>
      </trkpt>
      <trkpt lat="49.34995" lon="-0.81562">
        <ele>68.169253</ele>
        <time>2022-08-03T15:25:57.000Z</time>
      </trkpt>
      <trkpt lat="49.34993" lon="-0.81556">
        <ele>68.188968</ele>
        <time>2022-08-03T15:25:58.000Z</time>
      </trkpt>
      <trkpt lat="49.34991" lon="-0.8155">
        <ele>68.208898</ele>
        <time>2022-08-03T15:25:59.000Z</time>
      </trkpt>
      <trkpt lat="49.34989" lon="-0.81545">
        <ele>68.22824</ele>
        <time>2022-08-03T15:26:00.000Z</time>
      </trkpt>
      <trkpt lat="49.34987" lon="-0.81539">
        <ele>68.247146</ele>
        <time>2022-08-03T15:26:01.000Z</time>
      </trkpt>
      <trkpt lat="49.34985" lon="-0.81534">
        <ele>68.266321</ele>
        <time>2022-08-03T15:26:02.000Z</time>
      </trkpt>
      <trkpt lat="49.34983" lon="-0.81528">
        <ele>68.285982</ele>
        <time>2022-08-03T15:26:03.000Z</time>
      </trkpt>
      <trkpt lat="49.34982" lon="-0.81522">
        <ele>68.305624</ele>
        <time>2022-08-03T15:26:04.000Z</time>
      </trkpt>
      <trkpt lat="49.34981" lon="-0.81516">
        <ele>68.324251</ele>
        <time>2022-08-03T15:26:05.000Z</time>
      </trkpt>
      <trkpt lat="49.34979" lon="-0.81511">
        <ele>68.342544</ele>
        <time>2022-08-03T15:26:06.000Z</time>
      </trkpt>
      <trkpt lat="49.34977" lon="-0.81506">
        <ele>68.359461</ele>
        <time>2022-08-03T15:26:07.000Z</time>
      </trkpt>
      <trkpt lat="49.34976" lon="-0.81501">
        <ele>68.375836</ele>
        <time>2022-08-03T15:26:08.000Z</time>
      </trkpt>
      <trkpt lat="49.34974" lon="-0.81497">
        <ele>68.391365</ele>
        <time>2022-08-03T15:26:09.000Z</time>
      </trkpt>
      <trkpt lat="49.34972" lon="-0.81493">
        <ele>68.403353</ele>
        <time>2022-08-03T15:26:10.000Z</time>
      </trkpt>
      <trkpt lat="49.3497" lon="-0.8149">
        <ele>68.387378</ele>
        <time>2022-08-03T15:26:11.000Z</time>
      </trkpt>
      <trkpt lat="49.34968" lon="-0.81488">
        <ele>68.376651</ele>
        <time>2022-08-03T15:26:12.000Z</time>
      </trkpt>
      <trkpt lat="49.34967" lon="-0.81485">
        <ele>68.364003</ele>
        <time>2022-08-03T15:26:13.000Z</time>
      </trkpt>
      <trkpt lat="49.34967" lon="-0.81482">
        <ele>68.353942</ele>
        <time>2022-08-03T15:26:14.000Z</time>
      </trkpt>
      <trkpt lat="49.34968" lon="-0.81479">
        <ele>68.343729</ele>
        <time>2022-08-03T15:26:15.000Z</time>
      </trkpt>
      <trkpt lat="49.34977" lon="-0.81473">
        <ele>68.296499</ele>
        <time>2022-08-03T15:26:51.000Z</time>
      </trkpt>
      <trkpt lat="49.3498" lon="-0.8147">
        <ele>68.275568</ele>
        <time>2022-08-03T15:26:52.000Z</time>
      </trkpt>
      <trkpt lat="49.34984" lon="-0.81467">
        <ele>68.252186</ele>
        <time>2022-08-03T15:26:53.000Z</time>
      </trkpt>
      <trkpt lat="49.34989" lon="-0.81465">
        <ele>68.227188</ele>
        <time>2022-08-03T15:26:54.000Z</time>
      </trkpt>
      <trkpt lat="49.34993" lon="-0.81462">
        <ele>68.20334</ele>
        <time>2022-08-03T15:26:55.000Z</time>
      </trkpt>
      <trkpt lat="49.34997" lon="-0.81458">
        <ele>68.178274</ele>
        <time>2022-08-03T15:26:56.000Z</time>
      </trkpt>
      <trkpt lat="49.35002" lon="-0.81455">
        <ele>68.151198</ele>
        <time>2022-08-03T15:26:57.000Z</time>
      </trkpt>
      <trkpt lat="49.35007" lon="-0.81452">
        <ele>68.124122</ele>
        <time>2022-08-03T15:26:58.000Z</time>
      </trkpt>
      <trkpt lat="49.35011" lon="-0.81448">
        <ele>68.099677</ele>
        <time>2022-08-03T15:26:59.000Z</time>
      </trkpt>
      <trkpt lat="49.35016" lon="-0.81445">
        <ele>68.072601</ele>
        <time>2022-08-03T15:27:00.000Z</time>
      </trkpt>
      <trkpt lat="49.35021" lon="-0.81442">
        <ele>68.046926</ele>
        <time>2022-08-03T15:27:01.000Z</time>
      </trkpt>
      <trkpt lat="49.35025" lon="-0.81438">
        <ele>68.019275</ele>
        <time>2022-08-03T15:27:02.000Z</time>
      </trkpt>
      <trkpt lat="49.3503" lon="-0.81434">
        <ele>67.992504</ele>
        <time>2022-08-03T15:27:03.000Z</time>
      </trkpt>
      <trkpt lat="49.35034" lon="-0.8143">
        <ele>67.96583</ele>
        <time>2022-08-03T15:27:04.000Z</time>
      </trkpt>
      <trkpt lat="49.35039" lon="-0.81426">
        <ele>67.937713</ele>
        <time>2022-08-03T15:27:05.000Z</time>
      </trkpt>
      <trkpt lat="49.35044" lon="-0.81422">
        <ele>67.907769</ele>
        <time>2022-08-03T15:27:06.000Z</time>
      </trkpt>
      <trkpt lat="49.35049" lon="-0.81418">
        <ele>67.880917</ele>
        <time>2022-08-03T15:27:07.000Z</time>
      </trkpt>
      <trkpt lat="49.35054" lon="-0.81413">
        <ele>67.849292</ele>
        <time>2022-08-03T15:27:08.000Z</time>
      </trkpt>
      <trkpt lat="49.35059" lon="-0.81409">
        <ele>67.822522</ele>
        <time>2022-08-03T15:27:09.000Z</time>
      </trkpt>
      <trkpt lat="49.35064" lon="-0.81405">
        <ele>67.791654</ele>
        <time>2022-08-03T15:27:10.000Z</time>
      </trkpt>
      <trkpt lat="49.35069" lon="-0.81401">
        <ele>67.763375</ele>
        <time>2022-08-03T15:27:11.000Z</time>
      </trkpt>
      <trkpt lat="49.35075" lon="-0.81396">
        <ele>67.727454</ele>
        <time>2022-08-03T15:27:12.000Z</time>
      </trkpt>
      <trkpt lat="49.35079" lon="-0.81393">
        <ele>67.705141</ele>
        <time>2022-08-03T15:27:13.000Z</time>
      </trkpt>
      <trkpt lat="49.35085" lon="-0.81389">
        <ele>67.672268</ele>
        <time>2022-08-03T15:27:14.000Z</time>
      </trkpt>
      <trkpt lat="49.3509" lon="-0.81384">
        <ele>67.640794</ele>
        <time>2022-08-03T15:27:15.000Z</time>
      </trkpt>
      <trkpt lat="49.35095" lon="-0.81379">
        <ele>67.610355</ele>
        <time>2022-08-03T15:27:16.000Z</time>
      </trkpt>
      <trkpt lat="49.35099" lon="-0.81373">
        <ele>67.579651</ele>
        <time>2022-08-03T15:27:17.000Z</time>
      </trkpt>
      <trkpt lat="49.35101" lon="-0.81365">
        <ele>67.550799</ele>
        <time>2022-08-03T15:27:18.000Z</time>
      </trkpt>
      <trkpt lat="49.35102" lon="-0.81356">
        <ele>67.521502</ele>
        <time>2022-08-03T15:27:19.000Z</time>
      </trkpt>
      <trkpt lat="49.35101" lon="-0.81348">
        <ele>67.491875</ele>
        <time>2022-08-03T15:27:20.000Z</time>
      </trkpt>
      <trkpt lat="49.351" lon="-0.8134">
        <ele>67.464505</ele>
        <time>2022-08-03T15:27:21.000Z</time>
      </trkpt>
      <trkpt lat="49.35098" lon="-0.81332">
        <ele>67.43793</ele>
        <time>2022-08-03T15:27:22.000Z</time>
      </trkpt>
      <trkpt lat="49.35096" lon="-0.81324">
        <ele>67.411681</ele>
        <time>2022-08-03T15:27:23.000Z</time>
      </trkpt>
      <trkpt lat="49.35093" lon="-0.81317">
        <ele>67.382534</ele>
        <time>2022-08-03T15:27:24.000Z</time>
      </trkpt>
      <trkpt lat="49.3509" lon="-0.81309">
        <ele>67.35608</ele>
        <time>2022-08-03T15:27:25.000Z</time>
      </trkpt>
      <trkpt lat="49.35088" lon="-0.81302">
        <ele>67.329194</ele>
        <time>2022-08-03T15:27:26.000Z</time>
      </trkpt>
      <trkpt lat="49.35086" lon="-0.81294">
        <ele>67.302918</ele>
        <time>2022-08-03T15:27:27.000Z</time>
      </trkpt>
      <trkpt lat="49.35083" lon="-0.81286">
        <ele>67.272861</ele>
        <time>2022-08-03T15:27:28.000Z</time>
      </trkpt>
      <trkpt lat="49.35081" lon="-0.81278">
        <ele>67.245538</ele>
        <time>2022-08-03T15:27:29.000Z</time>
      </trkpt>
      <trkpt lat="49.35078" lon="-0.8127">
        <ele>67.218706</ele>
        <time>2022-08-03T15:27:30.000Z</time>
      </trkpt>
      <trkpt lat="49.35077" lon="-0.81262">
        <ele>67.192131</ele>
        <time>2022-08-03T15:27:31.000Z</time>
      </trkpt>
      <trkpt lat="49.35075" lon="-0.81255">
        <ele>67.166747</ele>
        <time>2022-08-03T15:27:32.000Z</time>
      </trkpt>
      <trkpt lat="49.35073" lon="-0.81248">
        <ele>67.141474</ele>
        <time>2022-08-03T15:27:33.000Z</time>
      </trkpt>
      <trkpt lat="49.3507" lon="-0.8124">
        <ele>67.11435</ele>
        <time>2022-08-03T15:27:34.000Z</time>
      </trkpt>
      <trkpt lat="49.35069" lon="-0.81232">
        <ele>67.088073</ele>
        <time>2022-08-03T15:27:35.000Z</time>
      </trkpt>
      <trkpt lat="49.35066" lon="-0.81224">
        <ele>67.06104</ele>
        <time>2022-08-03T15:27:36.000Z</time>
      </trkpt>
      <trkpt lat="49.35064" lon="-0.81217">
        <ele>67.034791</ele>
        <time>2022-08-03T15:27:37.000Z</time>
      </trkpt>
      <trkpt lat="49.35062" lon="-0.81209">
        <ele>67.008542</ele>
        <time>2022-08-03T15:27:38.000Z</time>
      </trkpt>
      <trkpt lat="49.3506" lon="-0.81202">
        <ele>66.98327</ele>
        <time>2022-08-03T15:27:39.000Z</time>
      </trkpt>
      <trkpt lat="49.35058" lon="-0.81195">
        <ele>66.957589</ele>
        <time>2022-08-03T15:27:40.000Z</time>
      </trkpt>
      <trkpt lat="49.35056" lon="-0.81187">
        <ele>66.930883</ele>
        <time>2022-08-03T15:27:41.000Z</time>
      </trkpt>
      <trkpt lat="49.35054" lon="-0.81179">
        <ele>66.905202</ele>
        <time>2022-08-03T15:27:42.000Z</time>
      </trkpt>
      <trkpt lat="49.35053" lon="-0.81171">
        <ele>66.878028</ele>
        <time>2022-08-03T15:27:43.000Z</time>
      </trkpt>
      <trkpt lat="49.35051" lon="-0.81163">
        <ele>66.852235</ele>
        <time>2022-08-03T15:27:44.000Z</time>
      </trkpt>
      <trkpt lat="49.35049" lon="-0.81156">
        <ele>66.826747</ele>
        <time>2022-08-03T15:27:45.000Z</time>
      </trkpt>
      <trkpt lat="49.35048" lon="-0.81148">
        <ele>66.801362</ele>
        <time>2022-08-03T15:27:46.000Z</time>
      </trkpt>
      <trkpt lat="49.35046" lon="-0.8114">
        <ele>66.775085</ele>
        <time>2022-08-03T15:27:47.000Z</time>
      </trkpt>
      <trkpt lat="49.35045" lon="-0.81133">
        <ele>66.750506</ele>
        <time>2022-08-03T15:27:48.000Z</time>
      </trkpt>
      <trkpt lat="49.35043" lon="-0.81125">
        <ele>66.724713</ele>
        <time>2022-08-03T15:27:49.000Z</time>
      </trkpt>
      <trkpt lat="49.35042" lon="-0.81118">
        <ele>66.700283</ele>
        <time>2022-08-03T15:27:50.000Z</time>
      </trkpt>
      <trkpt lat="49.35041" lon="-0.81111">
        <ele>66.679076</ele>
        <time>2022-08-03T15:27:51.000Z</time>
      </trkpt>
      <trkpt lat="49.35041" lon="-0.81105">
        <ele>66.65824</ele>
        <time>2022-08-03T15:27:52.000Z</time>
      </trkpt>
      <trkpt lat="49.3504" lon="-0.81099">
        <ele>66.637657</ele>
        <time>2022-08-03T15:27:53.000Z</time>
      </trkpt>
      <trkpt lat="49.35039" lon="-0.81093">
        <ele>66.620048</ele>
        <time>2022-08-03T15:27:54.000Z</time>
      </trkpt>
      <trkpt lat="49.35038" lon="-0.81088">
        <ele>66.603196</ele>
        <time>2022-08-03T15:27:55.000Z</time>
      </trkpt>
      <trkpt lat="49.35038" lon="-0.81083">
        <ele>66.587146</ele>
        <time>2022-08-03T15:27:56.000Z</time>
      </trkpt>
      <trkpt lat="49.3504" lon="-0.81079">
        <ele>66.569712</ele>
        <time>2022-08-03T15:27:57.000Z</time>
      </trkpt>
      <trkpt lat="49.35041" lon="-0.81075">
        <ele>66.552174</ele>
        <time>2022-08-03T15:27:58.000Z</time>
      </trkpt>
      <trkpt lat="49.35044" lon="-0.81071">
        <ele>66.534249</ele>
        <time>2022-08-03T15:27:59.000Z</time>
      </trkpt>
      <trkpt lat="49.35047" lon="-0.81068">
        <ele>66.515432</ele>
        <time>2022-08-03T15:28:00.000Z</time>
      </trkpt>
      <trkpt lat="49.35049" lon="-0.81066">
        <ele>66.500111</ele>
        <time>2022-08-03T15:28:01.000Z</time>
      </trkpt>
      <trkpt lat="49.35053" lon="-0.81063">
        <ele>66.478972</ele>
        <time>2022-08-03T15:28:02.000Z</time>
      </trkpt>
      <trkpt lat="49.35057" lon="-0.81061">
        <ele>66.455116</ele>
        <time>2022-08-03T15:28:03.000Z</time>
      </trkpt>
      <trkpt lat="49.35061" lon="-0.81059">
        <ele>66.431102</ele>
        <time>2022-08-03T15:28:04.000Z</time>
      </trkpt>
      <trkpt lat="49.35065" lon="-0.81057">
        <ele>66.406975</ele>
        <time>2022-08-03T15:28:05.000Z</time>
      </trkpt>
      <trkpt lat="49.35069" lon="-0.81055">
        <ele>66.386908</ele>
        <time>2022-08-03T15:28:06.000Z</time>
      </trkpt>
      <trkpt lat="49.35073" lon="-0.81053">
        <ele>66.363624</ele>
        <time>2022-08-03T15:28:07.000Z</time>
      </trkpt>
      <trkpt lat="49.35077" lon="-0.81051">
        <ele>66.339717</ele>
        <time>2022-08-03T15:28:08.000Z</time>
      </trkpt>
      <trkpt lat="49.3508" lon="-0.81049">
        <ele>66.319019</ele>
        <time>2022-08-03T15:28:09.000Z</time>
      </trkpt>
      <trkpt lat="49.35083" lon="-0.81044">
        <ele>66.298499</ele>
        <time>2022-08-03T15:28:10.000Z</time>
      </trkpt>
      <trkpt lat="49.35084" lon="-0.81039">
        <ele>66.279104</ele>
        <time>2022-08-03T15:28:11.000Z</time>
      </trkpt>
      <trkpt lat="49.35084" lon="-0.81034">
        <ele>66.258917</ele>
        <time>2022-08-03T15:28:12.000Z</time>
      </trkpt>
      <trkpt lat="49.35083" lon="-0.81028">
        <ele>66.238196</ele>
        <time>2022-08-03T15:28:13.000Z</time>
      </trkpt>
      <trkpt lat="49.35081" lon="-0.81022">
        <ele>66.21393</ele>
        <time>2022-08-03T15:28:14.000Z</time>
      </trkpt>
      <trkpt lat="49.35079" lon="-0.81015">
        <ele>66.188471</ele>
        <time>2022-08-03T15:28:15.000Z</time>
      </trkpt>
      <trkpt lat="49.35077" lon="-0.81009">
        <ele>66.163777</ele>
        <time>2022-08-03T15:28:16.000Z</time>
      </trkpt>
      <trkpt lat="49.35074" lon="-0.81003">
        <ele>66.136764</ele>
        <time>2022-08-03T15:28:17.000Z</time>
      </trkpt>
      <trkpt lat="49.35072" lon="-0.80996">
        <ele>66.109419</ele>
        <time>2022-08-03T15:28:18.000Z</time>
      </trkpt>
      <trkpt lat="49.35069" lon="-0.8099">
        <ele>66.080564</ele>
        <time>2022-08-03T15:28:19.000Z</time>
      </trkpt>
      <trkpt lat="49.35066" lon="-0.80983">
        <ele>66.052075</ele>
        <time>2022-08-03T15:28:20.000Z</time>
      </trkpt>
      <trkpt lat="49.35063" lon="-0.80976">
        <ele>66.024151</ele>
        <time>2022-08-03T15:28:21.000Z</time>
      </trkpt>
      <trkpt lat="49.35061" lon="-0.80969">
        <ele>65.995879</ele>
        <time>2022-08-03T15:28:22.000Z</time>
      </trkpt>
      <trkpt lat="49.35058" lon="-0.80962">
        <ele>65.968259</ele>
        <time>2022-08-03T15:28:23.000Z</time>
      </trkpt>
      <trkpt lat="49.35055" lon="-0.80956">
        <ele>65.940064</ele>
        <time>2022-08-03T15:28:24.000Z</time>
      </trkpt>
      <trkpt lat="49.35053" lon="-0.80949">
        <ele>65.913492</ele>
        <time>2022-08-03T15:28:25.000Z</time>
      </trkpt>
      <trkpt lat="49.35051" lon="-0.80942">
        <ele>65.886919</ele>
        <time>2022-08-03T15:28:26.000Z</time>
      </trkpt>
      <trkpt lat="49.35049" lon="-0.80936">
        <ele>65.860496</ele>
        <time>2022-08-03T15:28:27.000Z</time>
      </trkpt>
      <trkpt lat="49.35046" lon="-0.80929">
        <ele>65.83315</ele>
        <time>2022-08-03T15:28:28.000Z</time>
      </trkpt>
      <trkpt lat="49.35043" lon="-0.80923">
        <ele>65.804858</ele>
        <time>2022-08-03T15:28:29.000Z</time>
      </trkpt>
      <trkpt lat="49.3504" lon="-0.80916">
        <ele>65.778445</ele>
        <time>2022-08-03T15:28:30.000Z</time>
      </trkpt>
      <trkpt lat="49.35038" lon="-0.8091">
        <ele>65.751712</ele>
        <time>2022-08-03T15:28:31.000Z</time>
      </trkpt>
      <trkpt lat="49.35035" lon="-0.80904">
        <ele>65.72468</ele>
        <time>2022-08-03T15:28:32.000Z</time>
      </trkpt>
      <trkpt lat="49.35033" lon="-0.80897">
        <ele>65.699411</ele>
        <time>2022-08-03T15:28:33.000Z</time>
      </trkpt>
      <trkpt lat="49.3503" lon="-0.80891">
        <ele>65.673286</ele>
        <time>2022-08-03T15:28:34.000Z</time>
      </trkpt>
      <trkpt lat="49.35027" lon="-0.80885">
        <ele>65.646254</ele>
        <time>2022-08-03T15:28:35.000Z</time>
      </trkpt>
      <trkpt lat="49.35025" lon="-0.80878">
        <ele>65.619997</ele>
        <time>2022-08-03T15:28:36.000Z</time>
      </trkpt>
      <trkpt lat="49.35022" lon="-0.80871">
        <ele>65.453458</ele>
        <time>2022-08-03T15:28:37.000Z</time>
      </trkpt>
      <trkpt lat="49.3502" lon="-0.80864">
        <ele>65.279106</ele>
        <time>2022-08-03T15:28:38.000Z</time>
      </trkpt>
      <trkpt lat="49.35017" lon="-0.80857">
        <ele>65.105089</ele>
        <time>2022-08-03T15:28:39.000Z</time>
      </trkpt>
      <trkpt lat="49.35014" lon="-0.8085">
        <ele>64.9326</ele>
        <time>2022-08-03T15:28:40.000Z</time>
      </trkpt>
      <trkpt lat="49.35012" lon="-0.80843">
        <ele>64.753211</ele>
        <time>2022-08-03T15:28:41.000Z</time>
      </trkpt>
      <trkpt lat="49.35009" lon="-0.80836">
        <ele>64.582325</ele>
        <time>2022-08-03T15:28:42.000Z</time>
      </trkpt>
      <trkpt lat="49.35006" lon="-0.80829">
        <ele>64.411691</ele>
        <time>2022-08-03T15:28:43.000Z</time>
      </trkpt>
      <trkpt lat="49.35004" lon="-0.80823">
        <ele>64.243046</ele>
        <time>2022-08-03T15:28:44.000Z</time>
      </trkpt>
      <trkpt lat="49.35001" lon="-0.80817">
        <ele>64.085135</ele>
        <time>2022-08-03T15:28:45.000Z</time>
      </trkpt>
      <trkpt lat="49.34999" lon="-0.8081">
        <ele>63.926792</ele>
        <time>2022-08-03T15:28:46.000Z</time>
      </trkpt>
      <trkpt lat="49.34997" lon="-0.80804">
        <ele>63.774285</ele>
        <time>2022-08-03T15:28:47.000Z</time>
      </trkpt>
      <trkpt lat="49.34995" lon="-0.80797">
        <ele>63.613673</ele>
        <time>2022-08-03T15:28:48.000Z</time>
      </trkpt>
      <trkpt lat="49.34993" lon="-0.80791">
        <ele>63.467489</ele>
        <time>2022-08-03T15:28:49.000Z</time>
      </trkpt>
      <trkpt lat="49.34991" lon="-0.80784">
        <ele>63.316932</ele>
        <time>2022-08-03T15:28:50.000Z</time>
      </trkpt>
      <trkpt lat="49.34989" lon="-0.80778">
        <ele>63.168321</ele>
        <time>2022-08-03T15:28:51.000Z</time>
      </trkpt>
      <trkpt lat="49.34986" lon="-0.80772">
        <ele>63.014062</ele>
        <time>2022-08-03T15:28:52.000Z</time>
      </trkpt>
      <trkpt lat="49.34983" lon="-0.80766">
        <ele>62.852568</ele>
        <time>2022-08-03T15:28:53.000Z</time>
      </trkpt>
      <trkpt lat="49.3498" lon="-0.8076">
        <ele>62.693109</ele>
        <time>2022-08-03T15:28:54.000Z</time>
      </trkpt>
      <trkpt lat="49.34977" lon="-0.80755">
        <ele>62.530675</ele>
        <time>2022-08-03T15:28:55.000Z</time>
      </trkpt>
      <trkpt lat="49.34973" lon="-0.8075">
        <ele>62.377868</ele>
        <time>2022-08-03T15:28:56.000Z</time>
      </trkpt>
      <trkpt lat="49.34969" lon="-0.80747">
        <ele>62.232247</ele>
        <time>2022-08-03T15:28:57.000Z</time>
      </trkpt>
      <trkpt lat="49.34965" lon="-0.80744">
        <ele>62.088902</ele>
        <time>2022-08-03T15:28:58.000Z</time>
      </trkpt>
      <trkpt lat="49.34962" lon="-0.80741">
        <ele>61.969928</ele>
        <time>2022-08-03T15:28:59.000Z</time>
      </trkpt>
      <trkpt lat="49.34959" lon="-0.80739">
        <ele>61.864547</ele>
        <time>2022-08-03T15:29:00.000Z</time>
      </trkpt>
      <trkpt lat="49.34957" lon="-0.80737">
        <ele>61.76594</ele>
        <time>2022-08-03T15:29:01.000Z</time>
      </trkpt>
      <trkpt lat="49.34955" lon="-0.80735">
        <ele>61.68402</ele>
        <time>2022-08-03T15:29:02.000Z</time>
      </trkpt>
      <trkpt lat="49.34952" lon="-0.80733">
        <ele>61.594969</ele>
        <time>2022-08-03T15:29:03.000Z</time>
      </trkpt>
      <trkpt lat="49.34951" lon="-0.8073">
        <ele>61.511972</ele>
        <time>2022-08-03T15:29:04.000Z</time>
      </trkpt>
      <trkpt lat="49.34949" lon="-0.80726">
        <ele>61.404737</ele>
        <time>2022-08-03T15:29:05.000Z</time>
      </trkpt>
      <trkpt lat="49.34946" lon="-0.80722">
        <ele>61.276624</ele>
        <time>2022-08-03T15:29:06.000Z</time>
      </trkpt>
      <trkpt lat="49.34943" lon="-0.80718">
        <ele>61.154139</ele>
        <time>2022-08-03T15:29:07.000Z</time>
      </trkpt>
      <trkpt lat="49.3494" lon="-0.80714">
        <ele>61.019875</ele>
        <time>2022-08-03T15:29:08.000Z</time>
      </trkpt>
      <trkpt lat="49.34937" lon="-0.8071">
        <ele>60.899856</ele>
        <time>2022-08-03T15:29:09.000Z</time>
      </trkpt>
      <trkpt lat="49.34934" lon="-0.80707">
        <ele>60.771972</ele>
        <time>2022-08-03T15:29:10.000Z</time>
      </trkpt>
      <trkpt lat="49.34931" lon="-0.80704">
        <ele>60.661113</ele>
        <time>2022-08-03T15:29:11.000Z</time>
      </trkpt>
      <trkpt lat="49.34929" lon="-0.807">
        <ele>60.552287</ele>
        <time>2022-08-03T15:29:12.000Z</time>
      </trkpt>
      <trkpt lat="49.34926" lon="-0.80696">
        <ele>60.420641</ele>
        <time>2022-08-03T15:29:13.000Z</time>
      </trkpt>
      <trkpt lat="49.34923" lon="-0.80692">
        <ele>60.304139</ele>
        <time>2022-08-03T15:29:14.000Z</time>
      </trkpt>
      <trkpt lat="49.3492" lon="-0.80688">
        <ele>60.168533</ele>
        <time>2022-08-03T15:29:15.000Z</time>
      </trkpt>
      <trkpt lat="49.34917" lon="-0.80684">
        <ele>60.039774</ele>
        <time>2022-08-03T15:29:16.000Z</time>
      </trkpt>
      <trkpt lat="49.34914" lon="-0.80679">
        <ele>59.882664</ele>
        <time>2022-08-03T15:29:17.000Z</time>
      </trkpt>
      <trkpt lat="49.34912" lon="-0.80673">
        <ele>59.744504</ele>
        <time>2022-08-03T15:29:18.000Z</time>
      </trkpt>
      <trkpt lat="49.34909" lon="-0.80668">
        <ele>59.476217</ele>
        <time>2022-08-03T15:29:19.000Z</time>
      </trkpt>
      <trkpt lat="49.34907" lon="-0.80661">
        <ele>59.14127</ele>
        <time>2022-08-03T15:29:20.000Z</time>
      </trkpt>
      <trkpt lat="49.34904" lon="-0.80655">
        <ele>58.78211</ele>
        <time>2022-08-03T15:29:21.000Z</time>
      </trkpt>
      <trkpt lat="49.34901" lon="-0.80649">
        <ele>58.477673</ele>
        <time>2022-08-03T15:29:22.000Z</time>
      </trkpt>
      <trkpt lat="49.349" lon="-0.80644">
        <ele>58.224734</ele>
        <time>2022-08-03T15:29:23.000Z</time>
      </trkpt>
      <trkpt lat="49.34899" lon="-0.80641">
        <ele>58.041144</ele>
        <time>2022-08-03T15:29:24.000Z</time>
      </trkpt>
      <trkpt lat="49.34898" lon="-0.80637">
        <ele>57.874904</ele>
        <time>2022-08-03T15:29:25.000Z</time>
      </trkpt>
      <trkpt lat="49.34899" lon="-0.80634">
        <ele>57.721634</ele>
        <time>2022-08-03T15:29:26.000Z</time>
      </trkpt>
      <trkpt lat="49.34898" lon="-0.80631">
        <ele>57.568621</ele>
        <time>2022-08-03T15:29:27.000Z</time>
      </trkpt>
      <trkpt lat="49.34897" lon="-0.80628">
        <ele>57.443378</ele>
        <time>2022-08-03T15:29:28.000Z</time>
      </trkpt>
      <trkpt lat="49.34896" lon="-0.80625">
        <ele>57.260217</ele>
        <time>2022-08-03T15:29:29.000Z</time>
      </trkpt>
      <trkpt lat="49.34894" lon="-0.80622">
        <ele>57.077056</ele>
        <time>2022-08-03T15:29:30.000Z</time>
      </trkpt>
      <trkpt lat="49.34893" lon="-0.80618">
        <ele>56.874087</ele>
        <time>2022-08-03T15:29:31.000Z</time>
      </trkpt>
      <trkpt lat="49.34892" lon="-0.80614">
        <ele>56.679201</ele>
        <time>2022-08-03T15:29:32.000Z</time>
      </trkpt>
      <trkpt lat="49.3489" lon="-0.80611">
        <ele>56.503157</ele>
        <time>2022-08-03T15:29:33.000Z</time>
      </trkpt>
      <trkpt lat="49.34888" lon="-0.80607">
        <ele>56.27038</ele>
        <time>2022-08-03T15:29:34.000Z</time>
      </trkpt>
      <trkpt lat="49.34885" lon="-0.80601">
        <ele>55.959569</ele>
        <time>2022-08-03T15:29:35.000Z</time>
      </trkpt>
      <trkpt lat="49.34883" lon="-0.80596">
        <ele>55.681834</ele>
        <time>2022-08-03T15:29:36.000Z</time>
      </trkpt>
      <trkpt lat="49.34881" lon="-0.80592">
        <ele>55.419051</ele>
        <time>2022-08-03T15:29:37.000Z</time>
      </trkpt>
      <trkpt lat="49.34878" lon="-0.80586">
        <ele>55.090662</ele>
        <time>2022-08-03T15:29:38.000Z</time>
      </trkpt>
      <trkpt lat="49.34876" lon="-0.8058">
        <ele>54.80799</ele>
        <time>2022-08-03T15:29:39.000Z</time>
      </trkpt>
      <trkpt lat="49.34874" lon="-0.80575">
        <ele>54.517504</ele>
        <time>2022-08-03T15:29:40.000Z</time>
      </trkpt>
      <trkpt lat="49.3487" lon="-0.80572">
        <ele>54.235518</ele>
        <time>2022-08-03T15:29:41.000Z</time>
      </trkpt>
      <trkpt lat="49.34868" lon="-0.80569">
        <ele>54.008813</ele>
        <time>2022-08-03T15:29:42.000Z</time>
      </trkpt>
      <trkpt lat="49.34866" lon="-0.80566">
        <ele>53.825807</ele>
        <time>2022-08-03T15:29:43.000Z</time>
      </trkpt>
      <trkpt lat="49.34864" lon="-0.80565">
        <ele>53.670188</ele>
        <time>2022-08-03T15:29:44.000Z</time>
      </trkpt>
      <trkpt lat="49.34861" lon="-0.80561">
        <ele>53.396324</ele>
        <time>2022-08-03T15:29:46.000Z</time>
      </trkpt>
      <trkpt lat="49.34858" lon="-0.8056">
        <ele>53.227009</ele>
        <time>2022-08-03T15:29:47.000Z</time>
      </trkpt>
      <trkpt lat="49.34856" lon="-0.80558">
        <ele>53.059225</ele>
        <time>2022-08-03T15:29:48.000Z</time>
      </trkpt>
      <trkpt lat="49.34853" lon="-0.80557">
        <ele>52.87125</ele>
        <time>2022-08-03T15:29:49.000Z</time>
      </trkpt>
      <trkpt lat="49.3485" lon="-0.80556">
        <ele>52.641654</ele>
        <time>2022-08-03T15:29:50.000Z</time>
      </trkpt>
      <trkpt lat="49.34848" lon="-0.80555">
        <ele>52.461587</ele>
        <time>2022-08-03T15:29:51.000Z</time>
      </trkpt>
      <trkpt lat="49.34844" lon="-0.80554">
        <ele>52.21345</ele>
        <time>2022-08-03T15:29:52.000Z</time>
      </trkpt>
      <trkpt lat="49.34841" lon="-0.80552">
        <ele>51.950928</ele>
        <time>2022-08-03T15:29:53.000Z</time>
      </trkpt>
      <trkpt lat="49.34836" lon="-0.8055">
        <ele>51.618943</ele>
        <time>2022-08-03T15:29:54.000Z</time>
      </trkpt>
      <trkpt lat="49.34833" lon="-0.80547">
        <ele>51.339677</ele>
        <time>2022-08-03T15:29:55.000Z</time>
      </trkpt>
      <trkpt lat="49.34829" lon="-0.80544">
        <ele>51.082949</ele>
        <time>2022-08-03T15:29:56.000Z</time>
      </trkpt>
      <trkpt lat="49.34827" lon="-0.80542">
        <ele>50.863711</ele>
        <time>2022-08-03T15:29:57.000Z</time>
      </trkpt>
      <trkpt lat="49.34825" lon="-0.8054">
        <ele>50.697341</ele>
        <time>2022-08-03T15:29:58.000Z</time>
      </trkpt>
      <trkpt lat="49.34824" lon="-0.80537">
        <ele>50.555571</ele>
        <time>2022-08-03T15:29:59.000Z</time>
      </trkpt>
      <trkpt lat="49.34823" lon="-0.80533">
        <ele>50.373683</ele>
        <time>2022-08-03T15:30:00.000Z</time>
      </trkpt>
      <trkpt lat="49.34824" lon="-0.80529">
        <ele>50.158436</ele>
        <time>2022-08-03T15:30:01.000Z</time>
      </trkpt>
      <trkpt lat="49.34826" lon="-0.80525">
        <ele>49.952991</ele>
        <time>2022-08-03T15:30:02.000Z</time>
      </trkpt>
      <trkpt lat="49.34828" lon="-0.80522">
        <ele>49.714929</ele>
        <time>2022-08-03T15:30:03.000Z</time>
      </trkpt>
      <trkpt lat="49.34832" lon="-0.80519">
        <ele>49.435527</ele>
        <time>2022-08-03T15:30:04.000Z</time>
      </trkpt>
      <trkpt lat="49.34836" lon="-0.80516">
        <ele>49.141736</ele>
        <time>2022-08-03T15:30:05.000Z</time>
      </trkpt>
      <trkpt lat="49.34839" lon="-0.80513">
        <ele>48.826862</ele>
        <time>2022-08-03T15:30:06.000Z</time>
      </trkpt>
      <trkpt lat="49.34843" lon="-0.80509">
        <ele>48.54763</ele>
        <time>2022-08-03T15:30:07.000Z</time>
      </trkpt>
      <trkpt lat="49.34847" lon="-0.80505">
        <ele>48.218415</ele>
        <time>2022-08-03T15:30:08.000Z</time>
      </trkpt>
      <trkpt lat="49.3485" lon="-0.80503">
        <ele>47.970179</ele>
        <time>2022-08-03T15:30:09.000Z</time>
      </trkpt>
      <trkpt lat="49.34854" lon="-0.805">
        <ele>47.651026</ele>
        <time>2022-08-03T15:30:10.000Z</time>
      </trkpt>
      <trkpt lat="49.3486" lon="-0.80496">
        <ele>47.23312</ele>
        <time>2022-08-03T15:30:11.000Z</time>
      </trkpt>
      <trkpt lat="49.34863" lon="-0.80493">
        <ele>47.24204</ele>
        <time>2022-08-03T15:30:12.000Z</time>
      </trkpt>
      <trkpt lat="49.34868" lon="-0.80489">
        <ele>47.346072</ele>
        <time>2022-08-03T15:30:13.000Z</time>
      </trkpt>
      <trkpt lat="49.34873" lon="-0.80484">
        <ele>47.468452</ele>
        <time>2022-08-03T15:30:14.000Z</time>
      </trkpt>
      <trkpt lat="49.34876" lon="-0.80481">
        <ele>47.538075</ele>
        <time>2022-08-03T15:30:15.000Z</time>
      </trkpt>
      <trkpt lat="49.3488" lon="-0.80477">
        <ele>47.638689</ele>
        <time>2022-08-03T15:30:16.000Z</time>
      </trkpt>
      <trkpt lat="49.34885" lon="-0.80473">
        <ele>47.740505</ele>
        <time>2022-08-03T15:30:17.000Z</time>
      </trkpt>
      <trkpt lat="49.34889" lon="-0.8047">
        <ele>47.841713</ele>
        <time>2022-08-03T15:30:18.000Z</time>
      </trkpt>
      <trkpt lat="49.34893" lon="-0.80466">
        <ele>47.936571</ele>
        <time>2022-08-03T15:30:19.000Z</time>
      </trkpt>
      <trkpt lat="49.34898" lon="-0.80463">
        <ele>48.033415</ele>
        <time>2022-08-03T15:30:20.000Z</time>
      </trkpt>
      <trkpt lat="49.34902" lon="-0.80461">
        <ele>48.115425</ele>
        <time>2022-08-03T15:30:21.000Z</time>
      </trkpt>
      <trkpt lat="49.34904" lon="-0.80459">
        <ele>48.1729</ele>
        <time>2022-08-03T15:30:22.000Z</time>
      </trkpt>
      <trkpt lat="49.34907" lon="-0.80457">
        <ele>48.234089</ele>
        <time>2022-08-03T15:30:23.000Z</time>
      </trkpt>
      <trkpt lat="49.3491" lon="-0.80453">
        <ele>48.310136</ele>
        <time>2022-08-03T15:30:25.000Z</time>
      </trkpt>
      <trkpt lat="49.34911" lon="-0.8045">
        <ele>48.351873</ele>
        <time>2022-08-03T15:30:26.000Z</time>
      </trkpt>
      <trkpt lat="49.34911" lon="-0.80447">
        <ele>48.388253</ele>
        <time>2022-08-03T15:30:27.000Z</time>
      </trkpt>
      <trkpt lat="49.34911" lon="-0.80444">
        <ele>48.43113</ele>
        <time>2022-08-03T15:30:28.000Z</time>
      </trkpt>
      <trkpt lat="49.3491" lon="-0.80441">
        <ele>48.468196</ele>
        <time>2022-08-03T15:30:29.000Z</time>
      </trkpt>
      <trkpt lat="49.3491" lon="-0.80436">
        <ele>48.536024</ele>
        <time>2022-08-03T15:30:31.000Z</time>
      </trkpt>
      <trkpt lat="49.34909" lon="-0.80433">
        <ele>48.573268</ele>
        <time>2022-08-03T15:30:32.000Z</time>
      </trkpt>
      <trkpt lat="49.34908" lon="-0.8043">
        <ele>48.62568</ele>
        <time>2022-08-03T15:30:33.000Z</time>
      </trkpt>
      <trkpt lat="49.34906" lon="-0.80426">
        <ele>48.686667</ele>
        <time>2022-08-03T15:30:34.000Z</time>
      </trkpt>
      <trkpt lat="49.34905" lon="-0.80422">
        <ele>48.73921</ele>
        <time>2022-08-03T15:30:35.000Z</time>
      </trkpt>
      <trkpt lat="49.34904" lon="-0.80418">
        <ele>48.793666</ele>
        <time>2022-08-03T15:30:36.000Z</time>
      </trkpt>
      <trkpt lat="49.34903" lon="-0.80415">
        <ele>48.844515</ele>
        <time>2022-08-03T15:30:37.000Z</time>
      </trkpt>
      <trkpt lat="49.34902" lon="-0.80411">
        <ele>48.900556</ele>
        <time>2022-08-03T15:30:38.000Z</time>
      </trkpt>
      <trkpt lat="49.34901" lon="-0.80407">
        <ele>48.948126</ele>
        <time>2022-08-03T15:30:39.000Z</time>
      </trkpt>
      <trkpt lat="49.349" lon="-0.80404">
        <ele>49.000474</ele>
        <time>2022-08-03T15:30:40.000Z</time>
      </trkpt>
      <trkpt lat="49.34898" lon="-0.804">
        <ele>49.059669</ele>
        <time>2022-08-03T15:30:41.000Z</time>
      </trkpt>
      <trkpt lat="49.34896" lon="-0.80397">
        <ele>49.110044</ele>
        <time>2022-08-03T15:30:42.000Z</time>
      </trkpt>
      <trkpt lat="49.34894" lon="-0.80393">
        <ele>49.183146</ele>
        <time>2022-08-03T15:30:44.000Z</time>
      </trkpt>
      <trkpt lat="49.34893" lon="-0.8039">
        <ele>49.224635</ele>
        <time>2022-08-03T15:30:45.000Z</time>
      </trkpt>
      <trkpt lat="49.34892" lon="-0.80387">
        <ele>49.271117</ele>
        <time>2022-08-03T15:30:46.000Z</time>
      </trkpt>
      <trkpt lat="49.34892" lon="-0.80384">
        <ele>49.314976</ele>
        <time>2022-08-03T15:30:47.000Z</time>
      </trkpt>
      <trkpt lat="49.34891" lon="-0.8038">
        <ele>49.362</ele>
        <time>2022-08-03T15:30:48.000Z</time>
      </trkpt>
      <trkpt lat="49.3489" lon="-0.80377">
        <ele>49.411657</ele>
        <time>2022-08-03T15:30:49.000Z</time>
      </trkpt>
      <trkpt lat="49.34889" lon="-0.80373">
        <ele>49.456173</ele>
        <time>2022-08-03T15:30:50.000Z</time>
      </trkpt>
      <trkpt lat="49.34888" lon="-0.8037">
        <ele>49.50583</ele>
        <time>2022-08-03T15:30:51.000Z</time>
      </trkpt>
      <trkpt lat="49.34888" lon="-0.80366">
        <ele>49.552853</ele>
        <time>2022-08-03T15:30:52.000Z</time>
      </trkpt>
      <trkpt lat="49.34888" lon="-0.80363">
        <ele>49.598721</ele>
        <time>2022-08-03T15:30:53.000Z</time>
      </trkpt>
      <trkpt lat="49.34888" lon="-0.80359">
        <ele>49.644196</ele>
        <time>2022-08-03T15:30:54.000Z</time>
      </trkpt>
      <trkpt lat="49.34889" lon="-0.80356">
        <ele>49.693853</ele>
        <time>2022-08-03T15:30:55.000Z</time>
      </trkpt>
      <trkpt lat="49.34889" lon="-0.80352">
        <ele>49.738433</ele>
        <time>2022-08-03T15:30:56.000Z</time>
      </trkpt>
      <trkpt lat="49.3489" lon="-0.80349">
        <ele>49.784915</ele>
        <time>2022-08-03T15:30:57.000Z</time>
      </trkpt>
      <trkpt lat="49.34892" lon="-0.80346">
        <ele>49.837328</ele>
        <time>2022-08-03T15:30:58.000Z</time>
      </trkpt>
      <trkpt lat="49.34893" lon="-0.80343">
        <ele>49.890776</ele>
        <time>2022-08-03T15:30:59.000Z</time>
      </trkpt>
      <trkpt lat="49.34895" lon="-0.80339">
        <ele>49.956292</ele>
        <time>2022-08-03T15:31:00.000Z</time>
      </trkpt>
      <trkpt lat="49.34897" lon="-0.80335">
        <ele>50.020612</ele>
        <time>2022-08-03T15:31:01.000Z</time>
      </trkpt>
      <trkpt lat="49.34899" lon="-0.80331">
        <ele>50.084932</ele>
        <time>2022-08-03T15:31:02.000Z</time>
      </trkpt>
      <trkpt lat="49.34901" lon="-0.80327">
        <ele>50.149253</ele>
        <time>2022-08-03T15:31:03.000Z</time>
      </trkpt>
      <trkpt lat="49.34903" lon="-0.80323">
        <ele>50.205508</ele>
        <time>2022-08-03T15:31:04.000Z</time>
      </trkpt>
      <trkpt lat="49.34904" lon="-0.8032">
        <ele>50.252323</ele>
        <time>2022-08-03T15:31:05.000Z</time>
      </trkpt>
      <trkpt lat="49.34906" lon="-0.80317">
        <ele>50.303711</ele>
        <time>2022-08-03T15:31:06.000Z</time>
      </trkpt>
      <trkpt lat="49.34908" lon="-0.80314">
        <ele>50.358207</ele>
        <time>2022-08-03T15:31:07.000Z</time>
      </trkpt>
      <trkpt lat="49.34909" lon="-0.80311">
        <ele>50.408583</ele>
        <time>2022-08-03T15:31:08.000Z</time>
      </trkpt>
      <trkpt lat="49.3491" lon="-0.80308">
        <ele>50.452368</ele>
        <time>2022-08-03T15:31:09.000Z</time>
      </trkpt>
      <trkpt lat="49.34911" lon="-0.80305">
        <ele>50.50027</ele>
        <time>2022-08-03T15:31:10.000Z</time>
      </trkpt>
      <trkpt lat="49.34913" lon="-0.80302">
        <ele>50.550645</ele>
        <time>2022-08-03T15:31:11.000Z</time>
      </trkpt>
      <trkpt lat="49.34914" lon="-0.80299">
        <ele>50.592382</ele>
        <time>2022-08-03T15:31:12.000Z</time>
      </trkpt>
      <trkpt lat="49.34916" lon="-0.80296">
        <ele>50.645831</ele>
        <time>2022-08-03T15:31:13.000Z</time>
      </trkpt>
      <trkpt lat="49.34917" lon="-0.80292">
        <ele>50.699279</ele>
        <time>2022-08-03T15:31:14.000Z</time>
      </trkpt>
      <trkpt lat="49.34919" lon="-0.80289">
        <ele>50.753643</ele>
        <time>2022-08-03T15:31:15.000Z</time>
      </trkpt>
      <trkpt lat="49.34921" lon="-0.80287">
        <ele>50.846878</ele>
        <time>2022-08-03T15:31:16.000Z</time>
      </trkpt>
      <trkpt lat="49.34923" lon="-0.80283">
        <ele>50.980549</ele>
        <time>2022-08-03T15:31:17.000Z</time>
      </trkpt>
      <trkpt lat="49.34924" lon="-0.8028">
        <ele>51.099217</ele>
        <time>2022-08-03T15:31:18.000Z</time>
      </trkpt>
      <trkpt lat="49.34925" lon="-0.80276">
        <ele>51.226723</ele>
        <time>2022-08-03T15:31:19.000Z</time>
      </trkpt>
      <trkpt lat="49.34927" lon="-0.80272">
        <ele>51.349486</ele>
        <time>2022-08-03T15:31:20.000Z</time>
      </trkpt>
      <trkpt lat="49.3493" lon="-0.80269">
        <ele>51.501897</ele>
        <time>2022-08-03T15:31:21.000Z</time>
      </trkpt>
      <trkpt lat="49.34932" lon="-0.80265">
        <ele>51.643617</ele>
        <time>2022-08-03T15:31:22.000Z</time>
      </trkpt>
      <trkpt lat="49.34934" lon="-0.80262">
        <ele>51.786353</ele>
        <time>2022-08-03T15:31:23.000Z</time>
      </trkpt>
      <trkpt lat="49.34936" lon="-0.80258">
        <ele>51.914967</ele>
        <time>2022-08-03T15:31:24.000Z</time>
      </trkpt>
      <trkpt lat="49.34939" lon="-0.80255">
        <ele>52.063654</ele>
        <time>2022-08-03T15:31:25.000Z</time>
      </trkpt>
      <trkpt lat="49.34941" lon="-0.80252">
        <ele>52.183783</ele>
        <time>2022-08-03T15:31:26.000Z</time>
      </trkpt>
      <trkpt lat="49.34942" lon="-0.80249">
        <ele>52.310232</ele>
        <time>2022-08-03T15:31:27.000Z</time>
      </trkpt>
      <trkpt lat="49.34944" lon="-0.80245">
        <ele>52.437737</ele>
        <time>2022-08-03T15:31:28.000Z</time>
      </trkpt>
      <trkpt lat="49.34946" lon="-0.80241">
        <ele>52.575271</ele>
        <time>2022-08-03T15:31:29.000Z</time>
      </trkpt>
      <trkpt lat="49.34948" lon="-0.80237">
        <ele>52.714963</ele>
        <time>2022-08-03T15:31:30.000Z</time>
      </trkpt>
      <trkpt lat="49.34949" lon="-0.80232">
        <ele>52.867219</ele>
        <time>2022-08-03T15:31:31.000Z</time>
      </trkpt>
      <trkpt lat="49.3495" lon="-0.80228">
        <ele>53.011182</ele>
        <time>2022-08-03T15:31:32.000Z</time>
      </trkpt>
      <trkpt lat="49.34952" lon="-0.80223">
        <ele>53.149897</ele>
        <time>2022-08-03T15:31:33.000Z</time>
      </trkpt>
      <trkpt lat="49.34953" lon="-0.80219">
        <ele>53.27957</ele>
        <time>2022-08-03T15:31:34.000Z</time>
      </trkpt>
      <trkpt lat="49.34953" lon="-0.80214">
        <ele>53.415659</ele>
        <time>2022-08-03T15:31:35.000Z</time>
      </trkpt>
      <trkpt lat="49.34953" lon="-0.80209">
        <ele>53.559822</ele>
        <time>2022-08-03T15:31:36.000Z</time>
      </trkpt>
      <trkpt lat="49.34953" lon="-0.80205">
        <ele>53.697635</ele>
        <time>2022-08-03T15:31:37.000Z</time>
      </trkpt>
      <trkpt lat="49.34953" lon="-0.802">
        <ele>53.821092</ele>
        <time>2022-08-03T15:31:38.000Z</time>
      </trkpt>
      <trkpt lat="49.34953" lon="-0.80196">
        <ele>53.941679</ele>
        <time>2022-08-03T15:31:39.000Z</time>
      </trkpt>
      <trkpt lat="49.34953" lon="-0.80192">
        <ele>54.071553</ele>
        <time>2022-08-03T15:31:40.000Z</time>
      </trkpt>
      <trkpt lat="49.34952" lon="-0.80187">
        <ele>54.196024</ele>
        <time>2022-08-03T15:31:41.000Z</time>
      </trkpt>
      <trkpt lat="49.34952" lon="-0.80184">
        <ele>54.302713</ele>
        <time>2022-08-03T15:31:42.000Z</time>
      </trkpt>
      <trkpt lat="49.34951" lon="-0.8018">
        <ele>54.401222</ele>
        <time>2022-08-03T15:31:43.000Z</time>
      </trkpt>
      <trkpt lat="49.34951" lon="-0.80177">
        <ele>54.497594</ele>
        <time>2022-08-03T15:31:44.000Z</time>
      </trkpt>
      <trkpt lat="49.34951" lon="-0.80174">
        <ele>54.598949</ele>
        <time>2022-08-03T15:31:45.000Z</time>
      </trkpt>
      <trkpt lat="49.34951" lon="-0.80171">
        <ele>54.686092</ele>
        <time>2022-08-03T15:31:46.000Z</time>
      </trkpt>
      <trkpt lat="49.34952" lon="-0.80168">
        <ele>54.769525</ele>
        <time>2022-08-03T15:31:47.000Z</time>
      </trkpt>
      <trkpt lat="49.34953" lon="-0.80166">
        <ele>54.860464</ele>
        <time>2022-08-03T15:31:48.000Z</time>
      </trkpt>
      <trkpt lat="49.34955" lon="-0.80164">
        <ele>54.944624</ele>
        <time>2022-08-03T15:31:49.000Z</time>
      </trkpt>
      <trkpt lat="49.34957" lon="-0.80162">
        <ele>55.074579</ele>
        <time>2022-08-03T15:31:50.000Z</time>
      </trkpt>
      <trkpt lat="49.3496" lon="-0.8016">
        <ele>55.215898</ele>
        <time>2022-08-03T15:31:51.000Z</time>
      </trkpt>
      <trkpt lat="49.34963" lon="-0.80158">
        <ele>55.346744</ele>
        <time>2022-08-03T15:31:52.000Z</time>
      </trkpt>
      <trkpt lat="49.34965" lon="-0.80156">
        <ele>55.456617</ele>
        <time>2022-08-03T15:31:53.000Z</time>
      </trkpt>
      <trkpt lat="49.34967" lon="-0.80154">
        <ele>55.57312</ele>
        <time>2022-08-03T15:31:54.000Z</time>
      </trkpt>
      <trkpt lat="49.3497" lon="-0.80152">
        <ele>55.708044</ele>
        <time>2022-08-03T15:31:55.000Z</time>
      </trkpt>
      <trkpt lat="49.34973" lon="-0.8015">
        <ele>55.825987</ele>
        <time>2022-08-03T15:31:56.000Z</time>
      </trkpt>
      <trkpt lat="49.34976" lon="-0.80148">
        <ele>55.978263</ele>
        <time>2022-08-03T15:31:57.000Z</time>
      </trkpt>
      <trkpt lat="49.34979" lon="-0.80145">
        <ele>56.123466</ele>
        <time>2022-08-03T15:31:58.000Z</time>
      </trkpt>
      <trkpt lat="49.34982" lon="-0.80143">
        <ele>56.281714</ele>
        <time>2022-08-03T15:31:59.000Z</time>
      </trkpt>
      <trkpt lat="49.34985" lon="-0.8014">
        <ele>56.453083</ele>
        <time>2022-08-03T15:32:00.000Z</time>
      </trkpt>
      <trkpt lat="49.34989" lon="-0.80137">
        <ele>56.641411</ele>
        <time>2022-08-03T15:32:01.000Z</time>
      </trkpt>
      <trkpt lat="49.34993" lon="-0.80134">
        <ele>56.839081</ele>
        <time>2022-08-03T15:32:02.000Z</time>
      </trkpt>
      <trkpt lat="49.34997" lon="-0.80131">
        <ele>57.02874</ele>
        <time>2022-08-03T15:32:03.000Z</time>
      </trkpt>
      <trkpt lat="49.35001" lon="-0.80127">
        <ele>57.238009</ele>
        <time>2022-08-03T15:32:04.000Z</time>
      </trkpt>
      <trkpt lat="49.35005" lon="-0.80124">
        <ele>57.430429</ele>
        <time>2022-08-03T15:32:05.000Z</time>
      </trkpt>
      <trkpt lat="49.35009" lon="-0.80121">
        <ele>57.638374</ele>
        <time>2022-08-03T15:32:06.000Z</time>
      </trkpt>
      <trkpt lat="49.35013" lon="-0.80117">
        <ele>57.845135</ele>
        <time>2022-08-03T15:32:07.000Z</time>
      </trkpt>
      <trkpt lat="49.35017" lon="-0.80114">
        <ele>58.055758</ele>
        <time>2022-08-03T15:32:08.000Z</time>
      </trkpt>
      <trkpt lat="49.35021" lon="-0.80111">
        <ele>58.258473</ele>
        <time>2022-08-03T15:32:09.000Z</time>
      </trkpt>
      <trkpt lat="49.35025" lon="-0.80107">
        <ele>58.453371</ele>
        <time>2022-08-03T15:32:10.000Z</time>
      </trkpt>
      <trkpt lat="49.35029" lon="-0.80104">
        <ele>58.643029</ele>
        <time>2022-08-03T15:32:11.000Z</time>
      </trkpt>
      <trkpt lat="49.35033" lon="-0.80102">
        <ele>58.729367</ele>
        <time>2022-08-03T15:32:12.000Z</time>
      </trkpt>
      <trkpt lat="49.35036" lon="-0.80099">
        <ele>58.777001</ele>
        <time>2022-08-03T15:32:13.000Z</time>
      </trkpt>
      <trkpt lat="49.3504" lon="-0.80096">
        <ele>58.826924</ele>
        <time>2022-08-03T15:32:14.000Z</time>
      </trkpt>
      <trkpt lat="49.35043" lon="-0.80094">
        <ele>58.869531</ele>
        <time>2022-08-03T15:32:15.000Z</time>
      </trkpt>
      <trkpt lat="49.35045" lon="-0.80092">
        <ele>58.903034</ele>
        <time>2022-08-03T15:32:16.000Z</time>
      </trkpt>
      <trkpt lat="49.35046" lon="-0.8009">
        <ele>58.930813</ele>
        <time>2022-08-03T15:32:17.000Z</time>
      </trkpt>
      <trkpt lat="49.35048" lon="-0.80087">
        <ele>58.958591</ele>
        <time>2022-08-03T15:32:18.000Z</time>
      </trkpt>
      <trkpt lat="49.35049" lon="-0.80085">
        <ele>58.981887</ele>
        <time>2022-08-03T15:32:19.000Z</time>
      </trkpt>
      <trkpt lat="49.3505" lon="-0.80082">
        <ele>59.007438</ele>
        <time>2022-08-03T15:32:20.000Z</time>
      </trkpt>
      <trkpt lat="49.35049" lon="-0.80079">
        <ele>59.038497</ele>
        <time>2022-08-03T15:32:21.000Z</time>
      </trkpt>
      <trkpt lat="49.35048" lon="-0.80074">
        <ele>59.080798</ele>
        <time>2022-08-03T15:32:23.000Z</time>
      </trkpt>
      <trkpt lat="49.35047" lon="-0.80071">
        <ele>59.11474</ele>
        <time>2022-08-03T15:32:24.000Z</time>
      </trkpt>
      <trkpt lat="49.35046" lon="-0.80066">
        <ele>59.154397</ele>
        <time>2022-08-03T15:32:25.000Z</time>
      </trkpt>
      <trkpt lat="49.35045" lon="-0.80061">
        <ele>59.198969</ele>
        <time>2022-08-03T15:32:26.000Z</time>
      </trkpt>
      <trkpt lat="49.35045" lon="-0.80058">
        <ele>59.225372</ele>
        <time>2022-08-03T15:32:27.000Z</time>
      </trkpt>
      <trkpt lat="49.35044" lon="-0.80056">
        <ele>59.249853</ele>
        <time>2022-08-03T15:32:28.000Z</time>
      </trkpt>
      <trkpt lat="49.35042" lon="-0.80053">
        <ele>59.282516</ele>
        <time>2022-08-03T15:32:29.000Z</time>
      </trkpt>
      <trkpt lat="49.3504" lon="-0.80049">
        <ele>59.321711</ele>
        <time>2022-08-03T15:32:30.000Z</time>
      </trkpt>
      <trkpt lat="49.35038" lon="-0.80045">
        <ele>59.367773</ele>
        <time>2022-08-03T15:32:31.000Z</time>
      </trkpt>
      <trkpt lat="49.35035" lon="-0.8004">
        <ele>59.425023</ele>
        <time>2022-08-03T15:32:32.000Z</time>
      </trkpt>
      <trkpt lat="49.35033" lon="-0.80033">
        <ele>59.486732</ele>
        <time>2022-08-03T15:32:33.000Z</time>
      </trkpt>
      <trkpt lat="49.35031" lon="-0.80026">
        <ele>59.551619</ele>
        <time>2022-08-03T15:32:34.000Z</time>
      </trkpt>
      <trkpt lat="49.3503" lon="-0.80019">
        <ele>59.61213</ele>
        <time>2022-08-03T15:32:35.000Z</time>
      </trkpt>
      <trkpt lat="49.35029" lon="-0.80012">
        <ele>59.670669</ele>
        <time>2022-08-03T15:32:36.000Z</time>
      </trkpt>
      <trkpt lat="49.35027" lon="-0.80007">
        <ele>59.725361</ele>
        <time>2022-08-03T15:32:37.000Z</time>
      </trkpt>
      <trkpt lat="49.35025" lon="-0.80001">
        <ele>59.779904</ele>
        <time>2022-08-03T15:32:38.000Z</time>
      </trkpt>
      <trkpt lat="49.35023" lon="-0.79995">
        <ele>59.833097</ele>
        <time>2022-08-03T15:32:39.000Z</time>
      </trkpt>
      <trkpt lat="49.35021" lon="-0.79989">
        <ele>59.887715</ele>
        <time>2022-08-03T15:32:40.000Z</time>
      </trkpt>
      <trkpt lat="49.35019" lon="-0.79983">
        <ele>59.946967</ele>
        <time>2022-08-03T15:32:41.000Z</time>
      </trkpt>
      <trkpt lat="49.35018" lon="-0.79977">
        <ele>59.998641</ele>
        <time>2022-08-03T15:32:42.000Z</time>
      </trkpt>
      <trkpt lat="49.35016" lon="-0.79971">
        <ele>60.056364</ele>
        <time>2022-08-03T15:32:43.000Z</time>
      </trkpt>
      <trkpt lat="49.35014" lon="-0.79965">
        <ele>60.108811</ele>
        <time>2022-08-03T15:32:44.000Z</time>
      </trkpt>
      <trkpt lat="49.35012" lon="-0.7996">
        <ele>60.164706</ele>
        <time>2022-08-03T15:32:45.000Z</time>
      </trkpt>
      <trkpt lat="49.3501" lon="-0.79955">
        <ele>60.213996</ele>
        <time>2022-08-03T15:32:46.000Z</time>
      </trkpt>
      <trkpt lat="49.35008" lon="-0.79949">
        <ele>60.267938</ele>
        <time>2022-08-03T15:32:47.000Z</time>
      </trkpt>
      <trkpt lat="49.35007" lon="-0.79943">
        <ele>60.322556</ele>
        <time>2022-08-03T15:32:48.000Z</time>
      </trkpt>
      <trkpt lat="49.35005" lon="-0.79937">
        <ele>60.375749</ele>
        <time>2022-08-03T15:32:49.000Z</time>
      </trkpt>
      <trkpt lat="49.35003" lon="-0.79931">
        <ele>60.430368</ele>
        <time>2022-08-03T15:32:50.000Z</time>
      </trkpt>
      <trkpt lat="49.35002" lon="-0.79925">
        <ele>60.484208</ele>
        <time>2022-08-03T15:32:51.000Z</time>
      </trkpt>
      <trkpt lat="49.35" lon="-0.7992">
        <ele>60.537271</ele>
        <time>2022-08-03T15:32:52.000Z</time>
      </trkpt>
      <trkpt lat="49.34999" lon="-0.79914">
        <ele>60.588149</ele>
        <time>2022-08-03T15:32:53.000Z</time>
      </trkpt>
      <trkpt lat="49.34997" lon="-0.79908">
        <ele>60.638894</ele>
        <time>2022-08-03T15:32:54.000Z</time>
      </trkpt>
      <trkpt lat="49.34996" lon="-0.79903">
        <ele>60.69041</ele>
        <time>2022-08-03T15:32:55.000Z</time>
      </trkpt>
      <trkpt lat="49.34994" lon="-0.79897">
        <ele>60.745282</ele>
        <time>2022-08-03T15:32:56.000Z</time>
      </trkpt>
      <trkpt lat="49.34993" lon="-0.7989">
        <ele>60.801463</ele>
        <time>2022-08-03T15:32:57.000Z</time>
      </trkpt>
      <trkpt lat="49.34991" lon="-0.79884">
        <ele>60.856082</ele>
        <time>2022-08-03T15:32:58.000Z</time>
      </trkpt>
      <trkpt lat="49.34989" lon="-0.79878">
        <ele>60.910701</ele>
        <time>2022-08-03T15:32:59.000Z</time>
      </trkpt>
      <trkpt lat="49.34989" lon="-0.79873">
        <ele>60.959293</ele>
        <time>2022-08-03T15:33:00.000Z</time>
      </trkpt>
      <trkpt lat="49.34987" lon="-0.79867">
        <ele>61.011764</ele>
        <time>2022-08-03T15:33:01.000Z</time>
      </trkpt>
      <trkpt lat="49.34986" lon="-0.79861">
        <ele>60.773297</ele>
        <time>2022-08-03T15:33:02.000Z</time>
      </trkpt>
      <trkpt lat="49.34985" lon="-0.79856">
        <ele>60.536582</ele>
        <time>2022-08-03T15:33:03.000Z</time>
      </trkpt>
      <trkpt lat="49.34983" lon="-0.79851">
        <ele>60.319356</ele>
        <time>2022-08-03T15:33:04.000Z</time>
      </trkpt>
      <trkpt lat="49.34982" lon="-0.79846">
        <ele>60.110026</ele>
        <time>2022-08-03T15:33:05.000Z</time>
      </trkpt>
      <trkpt lat="49.34981" lon="-0.79841">
        <ele>59.882929</ele>
        <time>2022-08-03T15:33:06.000Z</time>
      </trkpt>
      <trkpt lat="49.3498" lon="-0.79836">
        <ele>59.671012</ele>
        <time>2022-08-03T15:33:07.000Z</time>
      </trkpt>
      <trkpt lat="49.34979" lon="-0.79832">
        <ele>59.490766</ele>
        <time>2022-08-03T15:33:08.000Z</time>
      </trkpt>
      <trkpt lat="49.34977" lon="-0.79828">
        <ele>59.304876</ele>
        <time>2022-08-03T15:33:09.000Z</time>
      </trkpt>
      <trkpt lat="49.34976" lon="-0.79823">
        <ele>59.088688</ele>
        <time>2022-08-03T15:33:10.000Z</time>
      </trkpt>
      <trkpt lat="49.34975" lon="-0.79818">
        <ele>58.883992</ele>
        <time>2022-08-03T15:33:11.000Z</time>
      </trkpt>
      <trkpt lat="49.34975" lon="-0.79814">
        <ele>58.703305</ele>
        <time>2022-08-03T15:33:12.000Z</time>
      </trkpt>
      <trkpt lat="49.34975" lon="-0.7981">
        <ele>58.560621</ele>
        <time>2022-08-03T15:33:13.000Z</time>
      </trkpt>
      <trkpt lat="49.34976" lon="-0.79808">
        <ele>58.441025</ele>
        <time>2022-08-03T15:33:14.000Z</time>
      </trkpt>
      <trkpt lat="49.34977" lon="-0.79806">
        <ele>58.319254</ele>
        <time>2022-08-03T15:33:15.000Z</time>
      </trkpt>
      <trkpt lat="49.34981" lon="-0.79805">
        <ele>58.076472</ele>
        <time>2022-08-03T15:33:17.000Z</time>
      </trkpt>
      <trkpt lat="49.34984" lon="-0.79806">
        <ele>57.911283</ele>
        <time>2022-08-03T15:33:18.000Z</time>
      </trkpt>
      <trkpt lat="49.34987" lon="-0.79806">
        <ele>57.709994</ele>
        <time>2022-08-03T15:33:19.000Z</time>
      </trkpt>
      <trkpt lat="49.34991" lon="-0.79807">
        <ele>57.469967</ele>
        <time>2022-08-03T15:33:20.000Z</time>
      </trkpt>
      <trkpt lat="49.34995" lon="-0.79808">
        <ele>57.205589</ele>
        <time>2022-08-03T15:33:21.000Z</time>
      </trkpt>
      <trkpt lat="49.34999" lon="-0.79808">
        <ele>56.923716</ele>
        <time>2022-08-03T15:33:22.000Z</time>
      </trkpt>
      <trkpt lat="49.35004" lon="-0.79808">
        <ele>56.666333</ele>
        <time>2022-08-03T15:33:23.000Z</time>
      </trkpt>
      <trkpt lat="49.35008" lon="-0.79809">
        <ele>56.383989</ele>
        <time>2022-08-03T15:33:24.000Z</time>
      </trkpt>
      <trkpt lat="49.35012" lon="-0.79809">
        <ele>56.12065</ele>
        <time>2022-08-03T15:33:25.000Z</time>
      </trkpt>
      <trkpt lat="49.35016" lon="-0.79809">
        <ele>55.88229</ele>
        <time>2022-08-03T15:33:26.000Z</time>
      </trkpt>
      <trkpt lat="49.3502" lon="-0.7981">
        <ele>55.642783</ele>
        <time>2022-08-03T15:33:27.000Z</time>
      </trkpt>
      <trkpt lat="49.35023" lon="-0.79811">
        <ele>55.412247</ele>
        <time>2022-08-03T15:33:28.000Z</time>
      </trkpt>
      <trkpt lat="49.35027" lon="-0.79812">
        <ele>55.170977</ele>
        <time>2022-08-03T15:33:29.000Z</time>
      </trkpt>
      <trkpt lat="49.35031" lon="-0.79813">
        <ele>54.905001</ele>
        <time>2022-08-03T15:33:30.000Z</time>
      </trkpt>
      <trkpt lat="49.35036" lon="-0.79813">
        <ele>54.628567</ele>
        <time>2022-08-03T15:33:31.000Z</time>
      </trkpt>
      <trkpt lat="49.3504" lon="-0.79814">
        <ele>54.346224</ele>
        <time>2022-08-03T15:33:32.000Z</time>
      </trkpt>
      <trkpt lat="49.35045" lon="-0.79815">
        <ele>54.062237</ele>
        <time>2022-08-03T15:33:33.000Z</time>
      </trkpt>
      <trkpt lat="49.35049" lon="-0.79815">
        <ele>53.779893</ele>
        <time>2022-08-03T15:33:34.000Z</time>
      </trkpt>
      <trkpt lat="49.35054" lon="-0.79816">
        <ele>53.49802</ele>
        <time>2022-08-03T15:33:35.000Z</time>
      </trkpt>
      <trkpt lat="49.35058" lon="-0.79815">
        <ele>53.240637</ele>
        <time>2022-08-03T15:33:36.000Z</time>
      </trkpt>
      <trkpt lat="49.35061" lon="-0.79815">
        <ele>53.04001</ele>
        <time>2022-08-03T15:33:37.000Z</time>
      </trkpt>
      <trkpt lat="49.35064" lon="-0.79816">
        <ele>52.872274</ele>
        <time>2022-08-03T15:33:38.000Z</time>
      </trkpt>
      <trkpt lat="49.35066" lon="-0.79817">
        <ele>52.728691</ele>
        <time>2022-08-03T15:33:39.000Z</time>
      </trkpt>
      <trkpt lat="49.35068" lon="-0.79818">
        <ele>52.609511</ele>
        <time>2022-08-03T15:33:40.000Z</time>
      </trkpt>
      <trkpt lat="49.35071" lon="-0.79815">
        <ele>52.384815</ele>
        <time>2022-08-03T15:33:42.000Z</time>
      </trkpt>
      <trkpt lat="49.35072" lon="-0.79813">
        <ele>52.254412</ele>
        <time>2022-08-03T15:33:43.000Z</time>
      </trkpt>
      <trkpt lat="49.35074" lon="-0.7981">
        <ele>52.083842</ele>
        <time>2022-08-03T15:33:44.000Z</time>
      </trkpt>
      <trkpt lat="49.35077" lon="-0.79806">
        <ele>51.875298</ele>
        <time>2022-08-03T15:33:45.000Z</time>
      </trkpt>
      <trkpt lat="49.35081" lon="-0.79803">
        <ele>51.595857</ele>
        <time>2022-08-03T15:33:46.000Z</time>
      </trkpt>
      <trkpt lat="49.35085" lon="-0.79799">
        <ele>51.265041</ele>
        <time>2022-08-03T15:33:47.000Z</time>
      </trkpt>
      <trkpt lat="49.3509" lon="-0.79797">
        <ele>50.985984</ele>
        <time>2022-08-03T15:33:48.000Z</time>
      </trkpt>
      <trkpt lat="49.35094" lon="-0.79794">
        <ele>50.696091</ele>
        <time>2022-08-03T15:33:49.000Z</time>
      </trkpt>
      <trkpt lat="49.35098" lon="-0.79791">
        <ele>50.394805</ele>
        <time>2022-08-03T15:33:50.000Z</time>
      </trkpt>
      <trkpt lat="49.35102" lon="-0.79787">
        <ele>50.089717</ele>
        <time>2022-08-03T15:33:51.000Z</time>
      </trkpt>
      <trkpt lat="49.35107" lon="-0.79783">
        <ele>49.764462</ele>
        <time>2022-08-03T15:33:52.000Z</time>
      </trkpt>
      <trkpt lat="49.35111" lon="-0.79777">
        <ele>49.766796</ele>
        <time>2022-08-03T15:33:53.000Z</time>
      </trkpt>
      <trkpt lat="49.35115" lon="-0.79771">
        <ele>49.776912</ele>
        <time>2022-08-03T15:33:54.000Z</time>
      </trkpt>
      <trkpt lat="49.35117" lon="-0.79764">
        <ele>49.786715</ele>
        <time>2022-08-03T15:33:55.000Z</time>
      </trkpt>
      <trkpt lat="49.3512" lon="-0.79757">
        <ele>49.795966</ele>
        <time>2022-08-03T15:33:56.000Z</time>
      </trkpt>
      <trkpt lat="49.35121" lon="-0.7975">
        <ele>49.804933</ele>
        <time>2022-08-03T15:33:57.000Z</time>
      </trkpt>
      <trkpt lat="49.35123" lon="-0.79743">
        <ele>49.81385</ele>
        <time>2022-08-03T15:33:58.000Z</time>
      </trkpt>
      <trkpt lat="49.35124" lon="-0.79736">
        <ele>49.82272</ele>
        <time>2022-08-03T15:33:59.000Z</time>
      </trkpt>
      <trkpt lat="49.35125" lon="-0.79729">
        <ele>49.831526</ele>
        <time>2022-08-03T15:34:00.000Z</time>
      </trkpt>
      <trkpt lat="49.35125" lon="-0.79721">
        <ele>49.840393</ele>
        <time>2022-08-03T15:34:01.000Z</time>
      </trkpt>
      <trkpt lat="49.35126" lon="-0.79714">
        <ele>49.84883</ele>
        <time>2022-08-03T15:34:02.000Z</time>
      </trkpt>
      <trkpt lat="49.35129" lon="-0.79708">
        <ele>49.857572</ele>
        <time>2022-08-03T15:34:03.000Z</time>
      </trkpt>
      <trkpt lat="49.35131" lon="-0.79702">
        <ele>49.86578</ele>
        <time>2022-08-03T15:34:04.000Z</time>
      </trkpt>
      <trkpt lat="49.35134" lon="-0.79697">
        <ele>49.874061</ele>
        <time>2022-08-03T15:34:05.000Z</time>
      </trkpt>
      <trkpt lat="49.35138" lon="-0.79694">
        <ele>49.88237</ele>
        <time>2022-08-03T15:34:06.000Z</time>
      </trkpt>
      <trkpt lat="49.35143" lon="-0.7969">
        <ele>49.89221</ele>
        <time>2022-08-03T15:34:07.000Z</time>
      </trkpt>
      <trkpt lat="49.35147" lon="-0.79686">
        <ele>49.901143</ele>
        <time>2022-08-03T15:34:08.000Z</time>
      </trkpt>
      <trkpt lat="49.35152" lon="-0.79682">
        <ele>49.910552</ele>
        <time>2022-08-03T15:34:09.000Z</time>
      </trkpt>
      <trkpt lat="49.35156" lon="-0.79679">
        <ele>49.918671</ele>
        <time>2022-08-03T15:34:10.000Z</time>
      </trkpt>
      <trkpt lat="49.3516" lon="-0.79676">
        <ele>49.927014</ele>
        <time>2022-08-03T15:34:11.000Z</time>
      </trkpt>
      <trkpt lat="49.35164" lon="-0.79675">
        <ele>49.934122</ele>
        <time>2022-08-03T15:34:12.000Z</time>
      </trkpt>
      <trkpt lat="49.35168" lon="-0.79675">
        <ele>49.942374</ele>
        <time>2022-08-03T15:34:13.000Z</time>
      </trkpt>
      <trkpt lat="49.35173" lon="-0.79675">
        <ele>49.951172</ele>
        <time>2022-08-03T15:34:14.000Z</time>
      </trkpt>
      <trkpt lat="49.35178" lon="-0.79675">
        <ele>49.959995</ele>
        <time>2022-08-03T15:34:15.000Z</time>
      </trkpt>
      <trkpt lat="49.35183" lon="-0.79676">
        <ele>49.969924</ele>
        <time>2022-08-03T15:34:16.000Z</time>
      </trkpt>
      <trkpt lat="49.35189" lon="-0.79676">
        <ele>49.980553</ele>
        <time>2022-08-03T15:34:17.000Z</time>
      </trkpt>
      <trkpt lat="49.35194" lon="-0.79677">
        <ele>49.989916</ele>
        <time>2022-08-03T15:34:18.000Z</time>
      </trkpt>
      <trkpt lat="49.35201" lon="-0.79677">
        <ele>50.002192</ele>
        <time>2022-08-03T15:34:19.000Z</time>
      </trkpt>
      <trkpt lat="49.35205" lon="-0.79676">
        <ele>50.010999</ele>
        <time>2022-08-03T15:34:20.000Z</time>
      </trkpt>
      <trkpt lat="49.35211" lon="-0.79676">
        <ele>50.020533</ele>
        <time>2022-08-03T15:34:21.000Z</time>
      </trkpt>
      <trkpt lat="49.35215" lon="-0.79675">
        <ele>50.02865</ele>
        <time>2022-08-03T15:34:22.000Z</time>
      </trkpt>
      <trkpt lat="49.35221" lon="-0.79674">
        <ele>50.038829</ele>
        <time>2022-08-03T15:34:23.000Z</time>
      </trkpt>
      <trkpt lat="49.35226" lon="-0.79673">
        <ele>50.048248</ele>
        <time>2022-08-03T15:34:24.000Z</time>
      </trkpt>
      <trkpt lat="49.35231" lon="-0.79672">
        <ele>50.058214</ele>
        <time>2022-08-03T15:34:25.000Z</time>
      </trkpt>
      <trkpt lat="49.35236" lon="-0.79671">
        <ele>50.066544</ele>
        <time>2022-08-03T15:34:26.000Z</time>
      </trkpt>
      <trkpt lat="49.35241" lon="-0.7967">
        <ele>50.075937</ele>
        <time>2022-08-03T15:34:27.000Z</time>
      </trkpt>
      <trkpt lat="49.35245" lon="-0.79669">
        <ele>50.084812</ele>
        <time>2022-08-03T15:34:28.000Z</time>
      </trkpt>
      <trkpt lat="49.3525" lon="-0.79668">
        <ele>50.183547</ele>
        <time>2022-08-03T15:34:29.000Z</time>
      </trkpt>
      <trkpt lat="49.35254" lon="-0.79668">
        <ele>50.311761</ele>
        <time>2022-08-03T15:34:30.000Z</time>
      </trkpt>
      <trkpt lat="49.35259" lon="-0.79667">
        <ele>50.458508</ele>
        <time>2022-08-03T15:34:31.000Z</time>
      </trkpt>
      <trkpt lat="49.35263" lon="-0.79666">
        <ele>50.583715</ele>
        <time>2022-08-03T15:34:32.000Z</time>
      </trkpt>
      <trkpt lat="49.35267" lon="-0.79665">
        <ele>50.711701</ele>
        <time>2022-08-03T15:34:33.000Z</time>
      </trkpt>
      <trkpt lat="49.35271" lon="-0.79664">
        <ele>50.848938</ele>
        <time>2022-08-03T15:34:34.000Z</time>
      </trkpt>
      <trkpt lat="49.35276" lon="-0.79663">
        <ele>50.977597</ele>
        <time>2022-08-03T15:34:35.000Z</time>
      </trkpt>
      <trkpt lat="49.3528" lon="-0.79661">
        <ele>51.11799</ele>
        <time>2022-08-03T15:34:36.000Z</time>
      </trkpt>
      <trkpt lat="49.35284" lon="-0.79659">
        <ele>51.251806</ele>
        <time>2022-08-03T15:34:37.000Z</time>
      </trkpt>
      <trkpt lat="49.35287" lon="-0.79657">
        <ele>51.358027</ele>
        <time>2022-08-03T15:34:38.000Z</time>
      </trkpt>
      <trkpt lat="49.35291" lon="-0.79655">
        <ele>51.46985</ele>
        <time>2022-08-03T15:34:39.000Z</time>
      </trkpt>
      <trkpt lat="49.35294" lon="-0.79653">
        <ele>51.574519</ele>
        <time>2022-08-03T15:34:40.000Z</time>
      </trkpt>
      <trkpt lat="49.35297" lon="-0.7965">
        <ele>51.664907</ele>
        <time>2022-08-03T15:34:41.000Z</time>
      </trkpt>
      <trkpt lat="49.35299" lon="-0.79648">
        <ele>51.754845</ele>
        <time>2022-08-03T15:34:42.000Z</time>
      </trkpt>
      <trkpt lat="49.35301" lon="-0.79646">
        <ele>51.82946</ele>
        <time>2022-08-03T15:34:43.000Z</time>
      </trkpt>
      <trkpt lat="49.35304" lon="-0.79645">
        <ele>51.911163</ele>
        <time>2022-08-03T15:34:44.000Z</time>
      </trkpt>
      <trkpt lat="49.35306" lon="-0.79644">
        <ele>51.972012</ele>
        <time>2022-08-03T15:34:45.000Z</time>
      </trkpt>
      <trkpt lat="49.35308" lon="-0.79643">
        <ele>52.03286</ele>
        <time>2022-08-03T15:34:46.000Z</time>
      </trkpt>
      <trkpt lat="49.3531" lon="-0.79642">
        <ele>52.096582</ele>
        <time>2022-08-03T15:34:47.000Z</time>
      </trkpt>
      <trkpt lat="49.35312" lon="-0.79641">
        <ele>52.167312</ele>
        <time>2022-08-03T15:34:49.000Z</time>
      </trkpt>
      <trkpt lat="49.35315" lon="-0.79631">
        <ele>52.38346</ele>
        <time>2022-08-03T15:39:04.000Z</time>
      </trkpt>
      <trkpt lat="49.35315" lon="-0.79626">
        <ele>52.474689</ele>
        <time>2022-08-03T15:39:05.000Z</time>
      </trkpt>
      <trkpt lat="49.35315" lon="-0.79622">
        <ele>52.567882</ele>
        <time>2022-08-03T15:39:06.000Z</time>
      </trkpt>
      <trkpt lat="49.35315" lon="-0.79616">
        <ele>52.672095</ele>
        <time>2022-08-03T15:39:07.000Z</time>
      </trkpt>
      <trkpt lat="49.35314" lon="-0.79611">
        <ele>52.771506</ele>
        <time>2022-08-03T15:39:08.000Z</time>
      </trkpt>
      <trkpt lat="49.35314" lon="-0.79606">
        <ele>52.876489</ele>
        <time>2022-08-03T15:39:09.000Z</time>
      </trkpt>
      <trkpt lat="49.35313" lon="-0.79601">
        <ele>52.984573</ele>
        <time>2022-08-03T15:39:10.000Z</time>
      </trkpt>
      <trkpt lat="49.35313" lon="-0.79595">
        <ele>53.093784</ele>
        <time>2022-08-03T15:39:11.000Z</time>
      </trkpt>
      <trkpt lat="49.35312" lon="-0.7959">
        <ele>53.203831</ele>
        <time>2022-08-03T15:39:12.000Z</time>
      </trkpt>
      <trkpt lat="49.35311" lon="-0.79584">
        <ele>53.319292</ele>
        <time>2022-08-03T15:39:13.000Z</time>
      </trkpt>
      <trkpt lat="49.3531" lon="-0.79579">
        <ele>53.423505</ele>
        <time>2022-08-03T15:39:14.000Z</time>
      </trkpt>
      <trkpt lat="49.35309" lon="-0.79574">
        <ele>53.52672</ele>
        <time>2022-08-03T15:39:15.000Z</time>
      </trkpt>
      <trkpt lat="49.35309" lon="-0.79569">
        <ele>53.627049</ele>
        <time>2022-08-03T15:39:16.000Z</time>
      </trkpt>
      <trkpt lat="49.35308" lon="-0.79564">
        <ele>53.730067</ele>
        <time>2022-08-03T15:39:17.000Z</time>
      </trkpt>
      <trkpt lat="49.35308" lon="-0.79559">
        <ele>53.830709</ele>
        <time>2022-08-03T15:39:18.000Z</time>
      </trkpt>
      <trkpt lat="49.35309" lon="-0.79553">
        <ele>53.938811</ele>
        <time>2022-08-03T15:39:19.000Z</time>
      </trkpt>
      <trkpt lat="49.35309" lon="-0.79548">
        <ele>54.0434</ele>
        <time>2022-08-03T15:39:20.000Z</time>
      </trkpt>
      <trkpt lat="49.3531" lon="-0.79543">
        <ele>54.156085</ele>
        <time>2022-08-03T15:39:21.000Z</time>
      </trkpt>
      <trkpt lat="49.3531" lon="-0.79537">
        <ele>54.268934</ele>
        <time>2022-08-03T15:39:22.000Z</time>
      </trkpt>
      <trkpt lat="49.35311" lon="-0.79531">
        <ele>54.378982</ele>
        <time>2022-08-03T15:39:23.000Z</time>
      </trkpt>
      <trkpt lat="49.35311" lon="-0.79526">
        <ele>54.489864</ele>
        <time>2022-08-03T15:39:24.000Z</time>
      </trkpt>
      <trkpt lat="49.35312" lon="-0.7952">
        <ele>54.606355</ele>
        <time>2022-08-03T15:39:25.000Z</time>
      </trkpt>
      <trkpt lat="49.35313" lon="-0.79514">
        <ele>54.724753</ele>
        <time>2022-08-03T15:39:26.000Z</time>
      </trkpt>
      <trkpt lat="49.35314" lon="-0.79509">
        <ele>54.842964</ele>
        <time>2022-08-03T15:39:27.000Z</time>
      </trkpt>
      <trkpt lat="49.35315" lon="-0.79502">
        <ele>54.969008</ele>
        <time>2022-08-03T15:39:28.000Z</time>
      </trkpt>
      <trkpt lat="49.35317" lon="-0.79496">
        <ele>55.093789</ele>
        <time>2022-08-03T15:39:29.000Z</time>
      </trkpt>
      <trkpt lat="49.35317" lon="-0.7949">
        <ele>55.21553</ele>
        <time>2022-08-03T15:39:30.000Z</time>
      </trkpt>
      <trkpt lat="49.35318" lon="-0.79484">
        <ele>55.345409</ele>
        <time>2022-08-03T15:39:31.000Z</time>
      </trkpt>
      <trkpt lat="49.35318" lon="-0.79477">
        <ele>55.473678</ele>
        <time>2022-08-03T15:39:32.000Z</time>
      </trkpt>
      <trkpt lat="49.35318" lon="-0.79471">
        <ele>55.583669</ele>
        <time>2022-08-03T15:39:33.000Z</time>
      </trkpt>
      <trkpt lat="49.35318" lon="-0.79464">
        <ele>55.694965</ele>
        <time>2022-08-03T15:39:34.000Z</time>
      </trkpt>
      <trkpt lat="49.35319" lon="-0.79458">
        <ele>55.804899</ele>
        <time>2022-08-03T15:39:35.000Z</time>
      </trkpt>
      <trkpt lat="49.35319" lon="-0.79451">
        <ele>55.912968</ele>
        <time>2022-08-03T15:39:36.000Z</time>
      </trkpt>
      <trkpt lat="49.35318" lon="-0.79444">
        <ele>56.019684</ele>
        <time>2022-08-03T15:39:37.000Z</time>
      </trkpt>
      <trkpt lat="49.35318" lon="-0.79438">
        <ele>56.127754</ele>
        <time>2022-08-03T15:39:38.000Z</time>
      </trkpt>
      <trkpt lat="49.35318" lon="-0.79431">
        <ele>56.235824</ele>
        <time>2022-08-03T15:39:39.000Z</time>
      </trkpt>
      <trkpt lat="49.35318" lon="-0.79424">
        <ele>56.34093</ele>
        <time>2022-08-03T15:39:40.000Z</time>
      </trkpt>
      <trkpt lat="49.35318" lon="-0.79418">
        <ele>56.439322</ele>
        <time>2022-08-03T15:39:41.000Z</time>
      </trkpt>
      <trkpt lat="49.35318" lon="-0.79412">
        <ele>56.547647</ele>
        <time>2022-08-03T15:39:42.000Z</time>
      </trkpt>
      <trkpt lat="49.35317" lon="-0.79405">
        <ele>56.652238</ele>
        <time>2022-08-03T15:39:43.000Z</time>
      </trkpt>
      <trkpt lat="49.35315" lon="-0.79399">
        <ele>56.756813</ele>
        <time>2022-08-03T15:39:44.000Z</time>
      </trkpt>
      <trkpt lat="49.35314" lon="-0.79393">
        <ele>56.856709</ele>
        <time>2022-08-03T15:39:45.000Z</time>
      </trkpt>
      <trkpt lat="49.35313" lon="-0.79387">
        <ele>56.959793</ele>
        <time>2022-08-03T15:39:46.000Z</time>
      </trkpt>
      <trkpt lat="49.35311" lon="-0.79381">
        <ele>57.064367</ele>
        <time>2022-08-03T15:39:47.000Z</time>
      </trkpt>
      <trkpt lat="49.35309" lon="-0.79376">
        <ele>57.166213</ele>
        <time>2022-08-03T15:39:48.000Z</time>
      </trkpt>
      <trkpt lat="49.35307" lon="-0.7937">
        <ele>57.270318</ele>
        <time>2022-08-03T15:39:49.000Z</time>
      </trkpt>
      <trkpt lat="49.35305" lon="-0.79365">
        <ele>57.369049</ele>
        <time>2022-08-03T15:39:50.000Z</time>
      </trkpt>
      <trkpt lat="49.35302" lon="-0.7936">
        <ele>57.473295</ele>
        <time>2022-08-03T15:39:51.000Z</time>
      </trkpt>
      <trkpt lat="49.353" lon="-0.79355">
        <ele>57.572027</ele>
        <time>2022-08-03T15:39:52.000Z</time>
      </trkpt>
      <trkpt lat="49.35297" lon="-0.7935">
        <ele>57.674761</ele>
        <time>2022-08-03T15:39:53.000Z</time>
      </trkpt>
      <trkpt lat="49.35295" lon="-0.79346">
        <ele>57.770876</ele>
        <time>2022-08-03T15:39:54.000Z</time>
      </trkpt>
      <trkpt lat="49.35292" lon="-0.79341">
        <ele>57.86875</ele>
        <time>2022-08-03T15:39:55.000Z</time>
      </trkpt>
      <trkpt lat="49.35289" lon="-0.79337">
        <ele>57.970934</ele>
        <time>2022-08-03T15:39:56.000Z</time>
      </trkpt>
      <trkpt lat="49.35286" lon="-0.79333">
        <ele>58.059826</ele>
        <time>2022-08-03T15:39:57.000Z</time>
      </trkpt>
      <trkpt lat="49.35283" lon="-0.7933">
        <ele>58.169558</ele>
        <time>2022-08-03T15:39:58.000Z</time>
      </trkpt>
      <trkpt lat="49.35279" lon="-0.79327">
        <ele>58.269489</ele>
        <time>2022-08-03T15:39:59.000Z</time>
      </trkpt>
      <trkpt lat="49.35275" lon="-0.79324">
        <ele>58.37457</ele>
        <time>2022-08-03T15:40:00.000Z</time>
      </trkpt>
      <trkpt lat="49.35271" lon="-0.79322">
        <ele>58.475715</ele>
        <time>2022-08-03T15:40:01.000Z</time>
      </trkpt>
      <trkpt lat="49.35268" lon="-0.79319">
        <ele>58.580368</ele>
        <time>2022-08-03T15:40:02.000Z</time>
      </trkpt>
      <trkpt lat="49.35263" lon="-0.79317">
        <ele>58.686894</ele>
        <time>2022-08-03T15:40:03.000Z</time>
      </trkpt>
      <trkpt lat="49.35259" lon="-0.79316">
        <ele>58.793672</ele>
        <time>2022-08-03T15:40:04.000Z</time>
      </trkpt>
      <trkpt lat="49.35255" lon="-0.79314">
        <ele>58.899458</ele>
        <time>2022-08-03T15:40:05.000Z</time>
      </trkpt>
      <trkpt lat="49.35251" lon="-0.79312">
        <ele>59.005984</ele>
        <time>2022-08-03T15:40:06.000Z</time>
      </trkpt>
      <trkpt lat="49.35247" lon="-0.79309">
        <ele>59.121381</ele>
        <time>2022-08-03T15:40:07.000Z</time>
      </trkpt>
      <trkpt lat="49.35244" lon="-0.79304">
        <ele>59.233299</ele>
        <time>2022-08-03T15:40:08.000Z</time>
      </trkpt>
      <trkpt lat="49.35241" lon="-0.79298">
        <ele>59.344358</ele>
        <time>2022-08-03T15:40:09.000Z</time>
      </trkpt>
      <trkpt lat="49.3524" lon="-0.79292">
        <ele>59.453658</ele>
        <time>2022-08-03T15:40:10.000Z</time>
      </trkpt>
      <trkpt lat="49.35239" lon="-0.79285">
        <ele>59.571797</ele>
        <time>2022-08-03T15:40:11.000Z</time>
      </trkpt>
      <trkpt lat="49.35237" lon="-0.79278">
        <ele>59.689207</ele>
        <time>2022-08-03T15:40:12.000Z</time>
      </trkpt>
      <trkpt lat="49.35237" lon="-0.79271">
        <ele>59.80789</ele>
        <time>2022-08-03T15:40:13.000Z</time>
      </trkpt>
      <trkpt lat="49.35237" lon="-0.79263">
        <ele>59.929093</ele>
        <time>2022-08-03T15:40:14.000Z</time>
      </trkpt>
      <trkpt lat="49.35237" lon="-0.79255">
        <ele>60.015521</ele>
        <time>2022-08-03T15:40:15.000Z</time>
      </trkpt>
      <trkpt lat="49.35237" lon="-0.79248">
        <ele>60.061639</ele>
        <time>2022-08-03T15:40:16.000Z</time>
      </trkpt>
      <trkpt lat="49.35237" lon="-0.79241">
        <ele>60.104455</ele>
        <time>2022-08-03T15:40:17.000Z</time>
      </trkpt>
      <trkpt lat="49.35235" lon="-0.79235">
        <ele>60.142898</ele>
        <time>2022-08-03T15:40:18.000Z</time>
      </trkpt>
      <trkpt lat="49.35233" lon="-0.7923">
        <ele>60.176351</ele>
        <time>2022-08-03T15:40:19.000Z</time>
      </trkpt>
      <trkpt lat="49.35231" lon="-0.79228">
        <ele>60.204467</ele>
        <time>2022-08-03T15:40:20.000Z</time>
      </trkpt>
      <trkpt lat="49.35228" lon="-0.79225">
        <ele>60.23505</ele>
        <time>2022-08-03T15:40:21.000Z</time>
      </trkpt>
      <trkpt lat="49.35225" lon="-0.79225">
        <ele>60.265187</ele>
        <time>2022-08-03T15:40:22.000Z</time>
      </trkpt>
      <trkpt lat="49.35221" lon="-0.79225">
        <ele>60.300979</ele>
        <time>2022-08-03T15:40:23.000Z</time>
      </trkpt>
      <trkpt lat="49.35218" lon="-0.79226">
        <ele>60.33106</ele>
        <time>2022-08-03T15:40:24.000Z</time>
      </trkpt>
      <trkpt lat="49.35214" lon="-0.79226">
        <ele>60.366711</ele>
        <time>2022-08-03T15:40:25.000Z</time>
      </trkpt>
      <trkpt lat="49.3521" lon="-0.79228">
        <ele>60.407114</ele>
        <time>2022-08-03T15:40:26.000Z</time>
      </trkpt>
      <trkpt lat="49.35204" lon="-0.79229">
        <ele>60.458236</ele>
        <time>2022-08-03T15:40:27.000Z</time>
      </trkpt>
      <trkpt lat="49.352" lon="-0.7923">
        <ele>60.501139</ele>
        <time>2022-08-03T15:40:28.000Z</time>
      </trkpt>
      <trkpt lat="49.35195" lon="-0.79231">
        <ele>60.543933</ele>
        <time>2022-08-03T15:40:29.000Z</time>
      </trkpt>
      <trkpt lat="49.3519" lon="-0.79233">
        <ele>60.592705</ele>
        <time>2022-08-03T15:40:30.000Z</time>
      </trkpt>
      <trkpt lat="49.35185" lon="-0.79234">
        <ele>60.638091</ele>
        <time>2022-08-03T15:40:31.000Z</time>
      </trkpt>
      <trkpt lat="49.3518" lon="-0.79235">
        <ele>60.686066</ele>
        <time>2022-08-03T15:40:32.000Z</time>
      </trkpt>
      <trkpt lat="49.35175" lon="-0.79235">
        <ele>60.734882</ele>
        <time>2022-08-03T15:40:33.000Z</time>
      </trkpt>
      <trkpt lat="49.3517" lon="-0.79236">
        <ele>60.78055</ele>
        <time>2022-08-03T15:40:34.000Z</time>
      </trkpt>
      <trkpt lat="49.35165" lon="-0.79238">
        <ele>60.826328</ele>
        <time>2022-08-03T15:40:35.000Z</time>
      </trkpt>
      <trkpt lat="49.35161" lon="-0.79238">
        <ele>60.867716</ele>
        <time>2022-08-03T15:40:36.000Z</time>
      </trkpt>
      <trkpt lat="49.35156" lon="-0.79239">
        <ele>60.916498</ele>
        <time>2022-08-03T15:40:37.000Z</time>
      </trkpt>
      <trkpt lat="49.35152" lon="-0.79239">
        <ele>60.954918</ele>
        <time>2022-08-03T15:40:38.000Z</time>
      </trkpt>
      <trkpt lat="49.35148" lon="-0.79239">
        <ele>60.991586</ele>
        <time>2022-08-03T15:40:39.000Z</time>
      </trkpt>
      <trkpt lat="49.35144" lon="-0.79239">
        <ele>61.02719</ele>
        <time>2022-08-03T15:40:40.000Z</time>
      </trkpt>
      <trkpt lat="49.35141" lon="-0.7924">
        <ele>61.060125</ele>
        <time>2022-08-03T15:40:41.000Z</time>
      </trkpt>
      <trkpt lat="49.35136" lon="-0.7924">
        <ele>61.099496</ele>
        <time>2022-08-03T15:40:42.000Z</time>
      </trkpt>
      <trkpt lat="49.35132" lon="-0.79241">
        <ele>61.138392</ele>
        <time>2022-08-03T15:40:43.000Z</time>
      </trkpt>
      <trkpt lat="49.35128" lon="-0.79244">
        <ele>61.181295</ele>
        <time>2022-08-03T15:40:44.000Z</time>
      </trkpt>
      <trkpt lat="49.35123" lon="-0.79245">
        <ele>61.22719</ele>
        <time>2022-08-03T15:40:45.000Z</time>
      </trkpt>
      <trkpt lat="49.35119" lon="-0.79247">
        <ele>61.271084</ele>
        <time>2022-08-03T15:40:46.000Z</time>
      </trkpt>
      <trkpt lat="49.35114" lon="-0.79249">
        <ele>61.317529</ele>
        <time>2022-08-03T15:40:47.000Z</time>
      </trkpt>
      <trkpt lat="49.35109" lon="-0.79251">
        <ele>61.368946</ele>
        <time>2022-08-03T15:40:48.000Z</time>
      </trkpt>
      <trkpt lat="49.35103" lon="-0.79252">
        <ele>61.42363</ele>
        <time>2022-08-03T15:40:49.000Z</time>
      </trkpt>
      <trkpt lat="49.35098" lon="-0.79253">
        <ele>61.471663</ele>
        <time>2022-08-03T15:40:50.000Z</time>
      </trkpt>
      <trkpt lat="49.35092" lon="-0.79253">
        <ele>61.522438</ele>
        <time>2022-08-03T15:40:51.000Z</time>
      </trkpt>
      <trkpt lat="49.35086" lon="-0.79253">
        <ele>61.579592</ele>
        <time>2022-08-03T15:40:52.000Z</time>
      </trkpt>
      <trkpt lat="49.3508" lon="-0.79253">
        <ele>61.633938</ele>
        <time>2022-08-03T15:40:53.000Z</time>
      </trkpt>
      <trkpt lat="49.35074" lon="-0.79254">
        <ele>61.705381</ele>
        <time>2022-08-03T15:40:54.000Z</time>
      </trkpt>
      <trkpt lat="49.35069" lon="-0.79255">
        <ele>61.803874</ele>
        <time>2022-08-03T15:40:55.000Z</time>
      </trkpt>
      <trkpt lat="49.35064" lon="-0.79255">
        <ele>61.886955</ele>
        <time>2022-08-03T15:40:56.000Z</time>
      </trkpt>
      <trkpt lat="49.35059" lon="-0.79256">
        <ele>61.975288</ele>
        <time>2022-08-03T15:40:57.000Z</time>
      </trkpt>
      <trkpt lat="49.35054" lon="-0.79257">
        <ele>62.053438</ele>
        <time>2022-08-03T15:40:58.000Z</time>
      </trkpt>
      <trkpt lat="49.35049" lon="-0.79258">
        <ele>62.142448</ele>
        <time>2022-08-03T15:40:59.000Z</time>
      </trkpt>
      <trkpt lat="49.35044" lon="-0.79259">
        <ele>62.226014</ele>
        <time>2022-08-03T15:41:00.000Z</time>
      </trkpt>
      <trkpt lat="49.3504" lon="-0.7926">
        <ele>62.303848</ele>
        <time>2022-08-03T15:41:01.000Z</time>
      </trkpt>
      <trkpt lat="49.35034" lon="-0.7926">
        <ele>62.398791</ele>
        <time>2022-08-03T15:41:02.000Z</time>
      </trkpt>
      <trkpt lat="49.3503" lon="-0.79261">
        <ele>62.475525</ele>
        <time>2022-08-03T15:41:03.000Z</time>
      </trkpt>
      <trkpt lat="49.35024" lon="-0.79262">
        <ele>62.571361</ele>
        <time>2022-08-03T15:41:04.000Z</time>
      </trkpt>
      <trkpt lat="49.3502" lon="-0.79263">
        <ele>62.649802</ele>
        <time>2022-08-03T15:41:05.000Z</time>
      </trkpt>
      <trkpt lat="49.35015" lon="-0.79263">
        <ele>62.737848</ele>
        <time>2022-08-03T15:41:06.000Z</time>
      </trkpt>
      <trkpt lat="49.3501" lon="-0.79264">
        <ele>62.821414</ele>
        <time>2022-08-03T15:41:07.000Z</time>
      </trkpt>
      <trkpt lat="49.35005" lon="-0.79266">
        <ele>62.905702</ele>
        <time>2022-08-03T15:41:08.000Z</time>
      </trkpt>
      <trkpt lat="49.35001" lon="-0.79267">
        <ele>62.977505</ele>
        <time>2022-08-03T15:41:09.000Z</time>
      </trkpt>
      <trkpt lat="49.34997" lon="-0.79268">
        <ele>63.055793</ele>
        <time>2022-08-03T15:41:10.000Z</time>
      </trkpt>
      <trkpt lat="49.34992" lon="-0.79269">
        <ele>63.139517</ele>
        <time>2022-08-03T15:41:11.000Z</time>
      </trkpt>
      <trkpt lat="49.34987" lon="-0.7927">
        <ele>63.217805</ele>
        <time>2022-08-03T15:41:12.000Z</time>
      </trkpt>
      <trkpt lat="49.34983" lon="-0.79271">
        <ele>63.295955</ele>
        <time>2022-08-03T15:41:13.000Z</time>
      </trkpt>
      <trkpt lat="49.34979" lon="-0.79271">
        <ele>63.367122</ele>
        <time>2022-08-03T15:41:14.000Z</time>
      </trkpt>
      <trkpt lat="49.34975" lon="-0.79272">
        <ele>63.435</ele>
        <time>2022-08-03T15:41:15.000Z</time>
      </trkpt>
      <trkpt lat="49.34971" lon="-0.79273">
        <ele>63.501169</ele>
        <time>2022-08-03T15:41:16.000Z</time>
      </trkpt>
      <trkpt lat="49.34967" lon="-0.79274">
        <ele>63.568908</ele>
        <time>2022-08-03T15:41:17.000Z</time>
      </trkpt>
      <trkpt lat="49.34964" lon="-0.79274">
        <ele>63.629382</ele>
        <time>2022-08-03T15:41:18.000Z</time>
      </trkpt>
      <trkpt lat="49.34959" lon="-0.79274">
        <ele>63.700336</ele>
        <time>2022-08-03T15:41:19.000Z</time>
      </trkpt>
      <trkpt lat="49.34956" lon="-0.79275">
        <ele>63.763259</ele>
        <time>2022-08-03T15:41:20.000Z</time>
      </trkpt>
      <trkpt lat="49.34953" lon="-0.79276">
        <ele>63.819191</ele>
        <time>2022-08-03T15:41:21.000Z</time>
      </trkpt>
      <trkpt lat="49.34949" lon="-0.79277">
        <ele>63.875528</ele>
        <time>2022-08-03T15:41:22.000Z</time>
      </trkpt>
      <trkpt lat="49.34946" lon="-0.79278">
        <ele>63.937396</ele>
        <time>2022-08-03T15:41:23.000Z</time>
      </trkpt>
      <trkpt lat="49.34943" lon="-0.79279">
        <ele>63.987739</ele>
        <time>2022-08-03T15:41:24.000Z</time>
      </trkpt>
      <trkpt lat="49.3494" lon="-0.79279">
        <ele>64.043229</ele>
        <time>2022-08-03T15:41:25.000Z</time>
      </trkpt>
      <trkpt lat="49.34938" lon="-0.79279">
        <ele>64.081249</ele>
        <time>2022-08-03T15:41:26.000Z</time>
      </trkpt>
      <trkpt lat="49.34936" lon="-0.79279">
        <ele>64.114504</ele>
        <time>2022-08-03T15:41:27.000Z</time>
      </trkpt>
      <trkpt lat="49.34934" lon="-0.79277">
        <ele>64.145735</ele>
        <time>2022-08-03T15:41:28.000Z</time>
      </trkpt>
      <trkpt lat="49.34933" lon="-0.79275">
        <ele>64.181331</ele>
        <time>2022-08-03T15:41:29.000Z</time>
      </trkpt>
      <trkpt lat="49.34931" lon="-0.79273">
        <ele>64.21728</ele>
        <time>2022-08-03T15:41:30.000Z</time>
      </trkpt>
      <trkpt lat="49.34929" lon="-0.7927">
        <ele>64.265939</ele>
        <time>2022-08-03T15:41:31.000Z</time>
      </trkpt>
      <trkpt lat="49.34928" lon="-0.79266">
        <ele>64.313992</ele>
        <time>2022-08-03T15:41:32.000Z</time>
      </trkpt>
      <trkpt lat="49.34926" lon="-0.79262">
        <ele>64.369626</ele>
        <time>2022-08-03T15:41:33.000Z</time>
      </trkpt>
      <trkpt lat="49.34924" lon="-0.79258">
        <ele>64.422378</ele>
        <time>2022-08-03T15:41:34.000Z</time>
      </trkpt>
      <trkpt lat="49.34923" lon="-0.79255">
        <ele>64.47043</ele>
        <time>2022-08-03T15:41:35.000Z</time>
      </trkpt>
      <trkpt lat="49.34921" lon="-0.79251">
        <ele>64.515765</ele>
        <time>2022-08-03T15:41:36.000Z</time>
      </trkpt>
      <trkpt lat="49.34919" lon="-0.79248">
        <ele>64.566419</ele>
        <time>2022-08-03T15:41:37.000Z</time>
      </trkpt>
      <trkpt lat="49.34917" lon="-0.79244">
        <ele>64.619367</ele>
        <time>2022-08-03T15:41:38.000Z</time>
      </trkpt>
      <trkpt lat="49.34915" lon="-0.79241">
        <ele>64.670568</ele>
        <time>2022-08-03T15:41:39.000Z</time>
      </trkpt>
      <trkpt lat="49.34913" lon="-0.79237">
        <ele>64.727701</ele>
        <time>2022-08-03T15:41:40.000Z</time>
      </trkpt>
      <trkpt lat="49.34911" lon="-0.79233">
        <ele>64.774814</ele>
        <time>2022-08-03T15:41:41.000Z</time>
      </trkpt>
      <trkpt lat="49.34909" lon="-0.7923">
        <ele>64.743528</ele>
        <time>2022-08-03T15:41:42.000Z</time>
      </trkpt>
      <trkpt lat="49.34907" lon="-0.79226">
        <ele>64.712611</ele>
        <time>2022-08-03T15:41:43.000Z</time>
      </trkpt>
      <trkpt lat="49.34905" lon="-0.79221">
        <ele>64.67912</ele>
        <time>2022-08-03T15:41:44.000Z</time>
      </trkpt>
      <trkpt lat="49.34904" lon="-0.79216">
        <ele>64.645259</ele>
        <time>2022-08-03T15:41:45.000Z</time>
      </trkpt>
      <trkpt lat="49.34905" lon="-0.79211">
        <ele>64.610798</ele>
        <time>2022-08-03T15:41:46.000Z</time>
      </trkpt>
      <trkpt lat="49.34907" lon="-0.79205">
        <ele>64.573562</ele>
        <time>2022-08-03T15:41:47.000Z</time>
      </trkpt>
      <trkpt lat="49.3491" lon="-0.79201">
        <ele>64.53403</ele>
        <time>2022-08-03T15:41:48.000Z</time>
      </trkpt>
      <trkpt lat="49.34914" lon="-0.79198">
        <ele>64.489648</ele>
        <time>2022-08-03T15:41:49.000Z</time>
      </trkpt>
      <trkpt lat="49.34919" lon="-0.79195">
        <ele>64.437287</ele>
        <time>2022-08-03T15:41:50.000Z</time>
      </trkpt>
      <trkpt lat="49.34924" lon="-0.79192">
        <ele>64.388278</ele>
        <time>2022-08-03T15:41:51.000Z</time>
      </trkpt>
      <trkpt lat="49.34929" lon="-0.79189">
        <ele>64.335021</ele>
        <time>2022-08-03T15:41:52.000Z</time>
      </trkpt>
      <trkpt lat="49.34934" lon="-0.79186">
        <ele>64.285793</ele>
        <time>2022-08-03T15:41:53.000Z</time>
      </trkpt>
      <trkpt lat="49.34939" lon="-0.79183">
        <ele>64.235371</ele>
        <time>2022-08-03T15:41:54.000Z</time>
      </trkpt>
      <trkpt lat="49.34943" lon="-0.7918">
        <ele>64.192093</ele>
        <time>2022-08-03T15:41:55.000Z</time>
      </trkpt>
      <trkpt lat="49.34947" lon="-0.79177">
        <ele>64.148194</ele>
        <time>2022-08-03T15:41:56.000Z</time>
      </trkpt>
      <trkpt lat="49.34951" lon="-0.79174">
        <ele>64.101875</ele>
        <time>2022-08-03T15:41:57.000Z</time>
      </trkpt>
      <trkpt lat="49.34956" lon="-0.79172">
        <ele>64.059346</ele>
        <time>2022-08-03T15:41:58.000Z</time>
      </trkpt>
      <trkpt lat="49.3496" lon="-0.79169">
        <ele>64.015196</ele>
        <time>2022-08-03T15:41:59.000Z</time>
      </trkpt>
      <trkpt lat="49.34963" lon="-0.79165">
        <ele>63.977161</ele>
        <time>2022-08-03T15:42:00.000Z</time>
      </trkpt>
      <trkpt lat="49.34965" lon="-0.7916">
        <ele>63.937797</ele>
        <time>2022-08-03T15:42:01.000Z</time>
      </trkpt>
      <trkpt lat="49.34967" lon="-0.79154">
        <ele>63.896259</ele>
        <time>2022-08-03T15:42:02.000Z</time>
      </trkpt>
      <trkpt lat="49.34967" lon="-0.79148">
        <ele>63.856914</ele>
        <time>2022-08-03T15:42:03.000Z</time>
      </trkpt>
      <trkpt lat="49.34965" lon="-0.79141">
        <ele>63.810886</ele>
        <time>2022-08-03T15:42:04.000Z</time>
      </trkpt>
      <trkpt lat="49.34964" lon="-0.79134">
        <ele>63.762949</ele>
        <time>2022-08-03T15:42:05.000Z</time>
      </trkpt>
      <trkpt lat="49.34962" lon="-0.79127">
        <ele>63.716287</ele>
        <time>2022-08-03T15:42:06.000Z</time>
      </trkpt>
      <trkpt lat="49.34961" lon="-0.79121">
        <ele>63.672891</ele>
        <time>2022-08-03T15:42:07.000Z</time>
      </trkpt>
      <trkpt lat="49.34959" lon="-0.79114">
        <ele>63.630698</ele>
        <time>2022-08-03T15:42:08.000Z</time>
      </trkpt>
      <trkpt lat="49.34959" lon="-0.79107">
        <ele>63.587703</ele>
        <time>2022-08-03T15:42:09.000Z</time>
      </trkpt>
      <trkpt lat="49.34958" lon="-0.791">
        <ele>63.543142</ele>
        <time>2022-08-03T15:42:10.000Z</time>
      </trkpt>
      <trkpt lat="49.34957" lon="-0.79093">
        <ele>63.497165</ele>
        <time>2022-08-03T15:42:11.000Z</time>
      </trkpt>
      <trkpt lat="49.34956" lon="-0.79086">
        <ele>63.450577</ele>
        <time>2022-08-03T15:42:12.000Z</time>
      </trkpt>
      <trkpt lat="49.34955" lon="-0.79079">
        <ele>63.406483</ele>
        <time>2022-08-03T15:42:13.000Z</time>
      </trkpt>
      <trkpt lat="49.34954" lon="-0.79072">
        <ele>63.359821</ele>
        <time>2022-08-03T15:42:14.000Z</time>
      </trkpt>
      <trkpt lat="49.34953" lon="-0.79064">
        <ele>63.31316</ele>
        <time>2022-08-03T15:42:15.000Z</time>
      </trkpt>
      <trkpt lat="49.34951" lon="-0.79058">
        <ele>63.268006</ele>
        <time>2022-08-03T15:42:16.000Z</time>
      </trkpt>
      <trkpt lat="49.3495" lon="-0.7905">
        <ele>63.221591</ele>
        <time>2022-08-03T15:42:17.000Z</time>
      </trkpt>
      <trkpt lat="49.34949" lon="-0.79043">
        <ele>63.174273</ele>
        <time>2022-08-03T15:42:18.000Z</time>
      </trkpt>
      <trkpt lat="49.34948" lon="-0.79036">
        <ele>63.127009</ele>
        <time>2022-08-03T15:42:19.000Z</time>
      </trkpt>
      <trkpt lat="49.34947" lon="-0.79028">
        <ele>63.076307</ele>
        <time>2022-08-03T15:42:20.000Z</time>
      </trkpt>
      <trkpt lat="49.34946" lon="-0.79019">
        <ele>63.054041</ele>
        <time>2022-08-03T15:42:21.000Z</time>
      </trkpt>
      <trkpt lat="49.34944" lon="-0.79011">
        <ele>63.055385</ele>
        <time>2022-08-03T15:42:22.000Z</time>
      </trkpt>
      <trkpt lat="49.34943" lon="-0.79003">
        <ele>63.056681</ele>
        <time>2022-08-03T15:42:23.000Z</time>
      </trkpt>
      <trkpt lat="49.34941" lon="-0.78995">
        <ele>63.057995</ele>
        <time>2022-08-03T15:42:24.000Z</time>
      </trkpt>
      <trkpt lat="49.34939" lon="-0.78987">
        <ele>63.059259</ele>
        <time>2022-08-03T15:42:25.000Z</time>
      </trkpt>
      <trkpt lat="49.34938" lon="-0.7898">
        <ele>63.060514</ele>
        <time>2022-08-03T15:42:26.000Z</time>
      </trkpt>
      <trkpt lat="49.34937" lon="-0.78972">
        <ele>63.061701</ele>
        <time>2022-08-03T15:42:27.000Z</time>
      </trkpt>
      <trkpt lat="49.34937" lon="-0.78965">
        <ele>63.062879</ele>
        <time>2022-08-03T15:42:28.000Z</time>
      </trkpt>
      <trkpt lat="49.34938" lon="-0.78958">
        <ele>63.064031</ele>
        <time>2022-08-03T15:42:29.000Z</time>
      </trkpt>
      <trkpt lat="49.34941" lon="-0.78951">
        <ele>63.065189</ele>
        <time>2022-08-03T15:42:30.000Z</time>
      </trkpt>
      <trkpt lat="49.34943" lon="-0.78946">
        <ele>63.066176</ele>
        <time>2022-08-03T15:42:31.000Z</time>
      </trkpt>
      <trkpt lat="49.34946" lon="-0.78942">
        <ele>63.067116</ele>
        <time>2022-08-03T15:42:32.000Z</time>
      </trkpt>
      <trkpt lat="49.34949" lon="-0.78939">
        <ele>63.068126</ele>
        <time>2022-08-03T15:42:33.000Z</time>
      </trkpt>
      <trkpt lat="49.34954" lon="-0.78938">
        <ele>63.069154</ele>
        <time>2022-08-03T15:42:34.000Z</time>
      </trkpt>
      <trkpt lat="49.34959" lon="-0.78938">
        <ele>63.070384</ele>
        <time>2022-08-03T15:42:35.000Z</time>
      </trkpt>
      <trkpt lat="49.34964" lon="-0.7894">
        <ele>63.071628</ele>
        <time>2022-08-03T15:42:36.000Z</time>
      </trkpt>
      <trkpt lat="49.3497" lon="-0.78941">
        <ele>63.073046</ele>
        <time>2022-08-03T15:42:37.000Z</time>
      </trkpt>
      <trkpt lat="49.34975" lon="-0.78943">
        <ele>63.074464</ele>
        <time>2022-08-03T15:42:38.000Z</time>
      </trkpt>
      <trkpt lat="49.34981" lon="-0.78944">
        <ele>63.075854</ele>
        <time>2022-08-03T15:42:39.000Z</time>
      </trkpt>
      <trkpt lat="49.34988" lon="-0.78945">
        <ele>63.077405</ele>
        <time>2022-08-03T15:42:40.000Z</time>
      </trkpt>
      <trkpt lat="49.34994" lon="-0.78945">
        <ele>63.078877</ele>
        <time>2022-08-03T15:42:41.000Z</time>
      </trkpt>
      <trkpt lat="49.35" lon="-0.78945">
        <ele>63.080425</ele>
        <time>2022-08-03T15:42:42.000Z</time>
      </trkpt>
      <trkpt lat="49.35006" lon="-0.78943">
        <ele>63.081986</ele>
        <time>2022-08-03T15:42:43.000Z</time>
      </trkpt>
      <trkpt lat="49.35012" lon="-0.78941">
        <ele>63.08341</ele>
        <time>2022-08-03T15:42:44.000Z</time>
      </trkpt>
      <trkpt lat="49.35018" lon="-0.7894">
        <ele>63.084795</ele>
        <time>2022-08-03T15:42:45.000Z</time>
      </trkpt>
      <trkpt lat="49.35024" lon="-0.78939">
        <ele>63.086278</ele>
        <time>2022-08-03T15:42:46.000Z</time>
      </trkpt>
      <trkpt lat="49.3503" lon="-0.78938">
        <ele>63.087696</ele>
        <time>2022-08-03T15:42:47.000Z</time>
      </trkpt>
      <trkpt lat="49.35035" lon="-0.78936">
        <ele>63.089026</ele>
        <time>2022-08-03T15:42:48.000Z</time>
      </trkpt>
      <trkpt lat="49.35041" lon="-0.78933">
        <ele>63.090478</ele>
        <time>2022-08-03T15:42:49.000Z</time>
      </trkpt>
      <trkpt lat="49.35047" lon="-0.7893">
        <ele>63.091937</ele>
        <time>2022-08-03T15:42:50.000Z</time>
      </trkpt>
      <trkpt lat="49.35053" lon="-0.78927">
        <ele>63.093434</ele>
        <time>2022-08-03T15:42:51.000Z</time>
      </trkpt>
      <trkpt lat="49.35058" lon="-0.78923">
        <ele>63.094847</ele>
        <time>2022-08-03T15:42:52.000Z</time>
      </trkpt>
      <trkpt lat="49.35064" lon="-0.7892">
        <ele>63.09635</ele>
        <time>2022-08-03T15:42:53.000Z</time>
      </trkpt>
      <trkpt lat="49.35069" lon="-0.78916">
        <ele>63.101144</ele>
        <time>2022-08-03T15:42:54.000Z</time>
      </trkpt>
      <trkpt lat="49.35074" lon="-0.78913">
        <ele>63.10742</ele>
        <time>2022-08-03T15:42:55.000Z</time>
      </trkpt>
      <trkpt lat="49.35078" lon="-0.7891">
        <ele>63.112775</ele>
        <time>2022-08-03T15:42:56.000Z</time>
      </trkpt>
      <trkpt lat="49.35083" lon="-0.78907">
        <ele>63.118073</ele>
        <time>2022-08-03T15:42:57.000Z</time>
      </trkpt>
      <trkpt lat="49.35087" lon="-0.78904">
        <ele>63.122787</ele>
        <time>2022-08-03T15:42:58.000Z</time>
      </trkpt>
      <trkpt lat="49.3509" lon="-0.78899">
        <ele>63.127584</ele>
        <time>2022-08-03T15:42:59.000Z</time>
      </trkpt>
      <trkpt lat="49.35093" lon="-0.78894">
        <ele>63.131948</ele>
        <time>2022-08-03T15:43:00.000Z</time>
      </trkpt>
      <trkpt lat="49.35094" lon="-0.78889">
        <ele>63.136063</ele>
        <time>2022-08-03T15:43:01.000Z</time>
      </trkpt>
      <trkpt lat="49.35094" lon="-0.78883">
        <ele>63.140284</ele>
        <time>2022-08-03T15:43:02.000Z</time>
      </trkpt>
      <trkpt lat="49.35093" lon="-0.78877">
        <ele>63.144572</ele>
        <time>2022-08-03T15:43:03.000Z</time>
      </trkpt>
      <trkpt lat="49.35092" lon="-0.78871">
        <ele>63.149221</ele>
        <time>2022-08-03T15:43:04.000Z</time>
      </trkpt>
      <trkpt lat="49.3509" lon="-0.78864">
        <ele>63.153977</ele>
        <time>2022-08-03T15:43:05.000Z</time>
      </trkpt>
      <trkpt lat="49.35088" lon="-0.78857">
        <ele>63.159329</ele>
        <time>2022-08-03T15:43:06.000Z</time>
      </trkpt>
      <trkpt lat="49.35086" lon="-0.78849">
        <ele>63.16512</ele>
        <time>2022-08-03T15:43:07.000Z</time>
      </trkpt>
      <trkpt lat="49.35085" lon="-0.78841">
        <ele>63.171007</ele>
        <time>2022-08-03T15:43:08.000Z</time>
      </trkpt>
      <trkpt lat="49.35083" lon="-0.78833">
        <ele>63.177196</ele>
        <time>2022-08-03T15:43:09.000Z</time>
      </trkpt>
      <trkpt lat="49.35082" lon="-0.78825">
        <ele>63.1832</ele>
        <time>2022-08-03T15:43:10.000Z</time>
      </trkpt>
      <trkpt lat="49.3508" lon="-0.78816">
        <ele>63.189342</ele>
        <time>2022-08-03T15:43:11.000Z</time>
      </trkpt>
      <trkpt lat="49.35079" lon="-0.78808">
        <ele>63.195701</ele>
        <time>2022-08-03T15:43:12.000Z</time>
      </trkpt>
      <trkpt lat="49.35077" lon="-0.78799">
        <ele>63.20198</ele>
        <time>2022-08-03T15:43:13.000Z</time>
      </trkpt>
      <trkpt lat="49.35076" lon="-0.7879">
        <ele>63.208204</ele>
        <time>2022-08-03T15:43:14.000Z</time>
      </trkpt>
      <trkpt lat="49.35074" lon="-0.78782">
        <ele>63.214428</ele>
        <time>2022-08-03T15:43:15.000Z</time>
      </trkpt>
      <trkpt lat="49.35073" lon="-0.78773">
        <ele>63.220651</ele>
        <time>2022-08-03T15:43:16.000Z</time>
      </trkpt>
      <trkpt lat="49.35071" lon="-0.78765">
        <ele>63.226605</ele>
        <time>2022-08-03T15:43:17.000Z</time>
      </trkpt>
      <trkpt lat="49.3507" lon="-0.78757">
        <ele>63.232517</ele>
        <time>2022-08-03T15:43:18.000Z</time>
      </trkpt>
      <trkpt lat="49.35068" lon="-0.78749">
        <ele>63.23827</ele>
        <time>2022-08-03T15:43:19.000Z</time>
      </trkpt>
      <trkpt lat="49.35066" lon="-0.78742">
        <ele>63.24397</ele>
        <time>2022-08-03T15:43:20.000Z</time>
      </trkpt>
      <trkpt lat="49.35064" lon="-0.78735">
        <ele>63.24922</ele>
        <time>2022-08-03T15:43:21.000Z</time>
      </trkpt>
      <trkpt lat="49.35061" lon="-0.78731">
        <ele>63.254051</ele>
        <time>2022-08-03T15:43:22.000Z</time>
      </trkpt>
      <trkpt lat="49.35056" lon="-0.78727">
        <ele>63.259114</ele>
        <time>2022-08-03T15:43:23.000Z</time>
      </trkpt>
      <trkpt lat="49.35052" lon="-0.78726">
        <ele>63.263719</ele>
        <time>2022-08-03T15:43:24.000Z</time>
      </trkpt>
      <trkpt lat="49.35048" lon="-0.78725">
        <ele>63.26861</ele>
        <time>2022-08-03T15:43:25.000Z</time>
      </trkpt>
      <trkpt lat="49.35043" lon="-0.78723">
        <ele>63.273583</ele>
        <time>2022-08-03T15:43:26.000Z</time>
      </trkpt>
      <trkpt lat="49.35039" lon="-0.78721">
        <ele>63.278331</ele>
        <time>2022-08-03T15:43:27.000Z</time>
      </trkpt>
      <trkpt lat="49.35035" lon="-0.78718">
        <ele>63.283081</ele>
        <time>2022-08-03T15:43:28.000Z</time>
      </trkpt>
      <trkpt lat="49.35032" lon="-0.78714">
        <ele>63.287673</ele>
        <time>2022-08-03T15:43:29.000Z</time>
      </trkpt>
      <trkpt lat="49.35029" lon="-0.78708">
        <ele>63.301923</ele>
        <time>2022-08-03T15:43:30.000Z</time>
      </trkpt>
      <trkpt lat="49.35027" lon="-0.78703">
        <ele>63.330096</ele>
        <time>2022-08-03T15:43:31.000Z</time>
      </trkpt>
      <trkpt lat="49.35027" lon="-0.78698">
        <ele>63.352532</ele>
        <time>2022-08-03T15:43:32.000Z</time>
      </trkpt>
      <trkpt lat="49.35026" lon="-0.78693">
        <ele>63.374291</ele>
        <time>2022-08-03T15:43:33.000Z</time>
      </trkpt>
      <trkpt lat="49.35027" lon="-0.78689">
        <ele>63.39687</ele>
        <time>2022-08-03T15:43:34.000Z</time>
      </trkpt>
      <trkpt lat="49.35029" lon="-0.78683">
        <ele>63.424239</ele>
        <time>2022-08-03T15:43:35.000Z</time>
      </trkpt>
      <trkpt lat="49.35032" lon="-0.78678">
        <ele>63.457411</ele>
        <time>2022-08-03T15:43:36.000Z</time>
      </trkpt>
      <trkpt lat="49.35037" lon="-0.78672">
        <ele>63.50002</ele>
        <time>2022-08-03T15:43:37.000Z</time>
      </trkpt>
      <trkpt lat="49.35042" lon="-0.78665">
        <ele>63.548376</ele>
        <time>2022-08-03T15:43:38.000Z</time>
      </trkpt>
      <trkpt lat="49.35047" lon="-0.78659">
        <ele>63.594505</ele>
        <time>2022-08-03T15:43:39.000Z</time>
      </trkpt>
      <trkpt lat="49.35054" lon="-0.78654">
        <ele>63.650937</ele>
        <time>2022-08-03T15:43:40.000Z</time>
      </trkpt>
      <trkpt lat="49.35061" lon="-0.7865">
        <ele>63.701763</ele>
        <time>2022-08-03T15:43:41.000Z</time>
      </trkpt>
      <trkpt lat="49.35068" lon="-0.78647">
        <ele>63.754311</ele>
        <time>2022-08-03T15:43:42.000Z</time>
      </trkpt>
      <trkpt lat="49.35075" lon="-0.78643">
        <ele>63.804486</ele>
        <time>2022-08-03T15:43:43.000Z</time>
      </trkpt>
      <trkpt lat="49.35082" lon="-0.7864">
        <ele>63.854357</ele>
        <time>2022-08-03T15:43:44.000Z</time>
      </trkpt>
      <trkpt lat="49.35087" lon="-0.78636">
        <ele>63.897945</ele>
        <time>2022-08-03T15:43:45.000Z</time>
      </trkpt>
      <trkpt lat="49.35092" lon="-0.78633">
        <ele>63.935391</ele>
        <time>2022-08-03T15:43:46.000Z</time>
      </trkpt>
      <trkpt lat="49.35097" lon="-0.7863">
        <ele>63.974215</ele>
        <time>2022-08-03T15:43:47.000Z</time>
      </trkpt>
      <trkpt lat="49.35102" lon="-0.78626">
        <ele>64.011091</ele>
        <time>2022-08-03T15:43:48.000Z</time>
      </trkpt>
      <trkpt lat="49.35108" lon="-0.78623">
        <ele>64.051559</ele>
        <time>2022-08-03T15:43:49.000Z</time>
      </trkpt>
      <trkpt lat="49.35112" lon="-0.78621">
        <ele>64.08544</ele>
        <time>2022-08-03T15:43:50.000Z</time>
      </trkpt>
      <trkpt lat="49.35117" lon="-0.78618">
        <ele>64.125185</ele>
        <time>2022-08-03T15:43:51.000Z</time>
      </trkpt>
      <trkpt lat="49.35122" lon="-0.78614">
        <ele>64.160014</ele>
        <time>2022-08-03T15:43:52.000Z</time>
      </trkpt>
      <trkpt lat="49.35125" lon="-0.78609">
        <ele>64.195282</ele>
        <time>2022-08-03T15:43:53.000Z</time>
      </trkpt>
      <trkpt lat="49.35129" lon="-0.78603">
        <ele>64.230523</ele>
        <time>2022-08-03T15:43:54.000Z</time>
      </trkpt>
      <trkpt lat="49.35131" lon="-0.78596">
        <ele>64.267512</ele>
        <time>2022-08-03T15:43:55.000Z</time>
      </trkpt>
      <trkpt lat="49.35132" lon="-0.78589">
        <ele>64.304004</ele>
        <time>2022-08-03T15:43:56.000Z</time>
      </trkpt>
      <trkpt lat="49.35133" lon="-0.7858">
        <ele>64.342583</ele>
        <time>2022-08-03T15:43:57.000Z</time>
      </trkpt>
      <trkpt lat="49.35134" lon="-0.78572">
        <ele>64.382232</ele>
        <time>2022-08-03T15:43:58.000Z</time>
      </trkpt>
      <trkpt lat="49.35136" lon="-0.78563">
        <ele>64.423652</ele>
        <time>2022-08-03T15:43:59.000Z</time>
      </trkpt>
      <trkpt lat="49.35136" lon="-0.78554">
        <ele>64.466095</ele>
        <time>2022-08-03T15:44:00.000Z</time>
      </trkpt>
      <trkpt lat="49.35138" lon="-0.78545">
        <ele>64.510249</ele>
        <time>2022-08-03T15:44:01.000Z</time>
      </trkpt>
      <trkpt lat="49.35139" lon="-0.78535">
        <ele>64.554135</ele>
        <time>2022-08-03T15:44:02.000Z</time>
      </trkpt>
      <trkpt lat="49.3514" lon="-0.78526">
        <ele>64.591173</ele>
        <time>2022-08-03T15:44:03.000Z</time>
      </trkpt>
      <trkpt lat="49.35141" lon="-0.78517">
        <ele>64.628484</ele>
        <time>2022-08-03T15:44:04.000Z</time>
      </trkpt>
      <trkpt lat="49.35142" lon="-0.78507">
        <ele>64.664636</ele>
        <time>2022-08-03T15:44:05.000Z</time>
      </trkpt>
      <trkpt lat="49.35143" lon="-0.78498">
        <ele>64.700822</ele>
        <time>2022-08-03T15:44:06.000Z</time>
      </trkpt>
      <trkpt lat="49.35145" lon="-0.78489">
        <ele>64.736635</ele>
        <time>2022-08-03T15:44:07.000Z</time>
      </trkpt>
      <trkpt lat="49.35146" lon="-0.7848">
        <ele>64.773105</ele>
        <time>2022-08-03T15:44:08.000Z</time>
      </trkpt>
      <trkpt lat="49.35147" lon="-0.78471">
        <ele>64.809418</ele>
        <time>2022-08-03T15:44:09.000Z</time>
      </trkpt>
      <trkpt lat="49.35148" lon="-0.78461">
        <ele>64.846954</ele>
        <time>2022-08-03T15:44:10.000Z</time>
      </trkpt>
      <trkpt lat="49.35149" lon="-0.78452">
        <ele>64.884228</ele>
        <time>2022-08-03T15:44:11.000Z</time>
      </trkpt>
      <trkpt lat="49.3515" lon="-0.78443">
        <ele>64.920365</ele>
        <time>2022-08-03T15:44:12.000Z</time>
      </trkpt>
      <trkpt lat="49.35152" lon="-0.78433">
        <ele>64.959177</ele>
        <time>2022-08-03T15:44:13.000Z</time>
      </trkpt>
      <trkpt lat="49.35153" lon="-0.78423">
        <ele>64.997271</ele>
        <time>2022-08-03T15:44:14.000Z</time>
      </trkpt>
      <trkpt lat="49.35154" lon="-0.78415">
        <ele>65.032145</ele>
        <time>2022-08-03T15:44:15.000Z</time>
      </trkpt>
      <trkpt lat="49.35156" lon="-0.78405">
        <ele>65.069798</ele>
        <time>2022-08-03T15:44:16.000Z</time>
      </trkpt>
      <trkpt lat="49.35157" lon="-0.78396">
        <ele>65.106734</ele>
        <time>2022-08-03T15:44:17.000Z</time>
      </trkpt>
      <trkpt lat="49.35158" lon="-0.78387">
        <ele>65.143296</ele>
        <time>2022-08-03T15:44:18.000Z</time>
      </trkpt>
      <trkpt lat="49.35159" lon="-0.78378">
        <ele>65.179053</ele>
        <time>2022-08-03T15:44:19.000Z</time>
      </trkpt>
      <trkpt lat="49.3516" lon="-0.78368">
        <ele>65.215523</ele>
        <time>2022-08-03T15:44:20.000Z</time>
      </trkpt>
      <trkpt lat="49.35162" lon="-0.78359">
        <ele>65.252038</ele>
        <time>2022-08-03T15:44:21.000Z</time>
      </trkpt>
      <trkpt lat="49.35162" lon="-0.7835">
        <ele>65.287902</ele>
        <time>2022-08-03T15:44:22.000Z</time>
      </trkpt>
      <trkpt lat="49.35164" lon="-0.7834">
        <ele>65.325556</ele>
        <time>2022-08-03T15:44:23.000Z</time>
      </trkpt>
      <trkpt lat="49.35165" lon="-0.78331">
        <ele>65.361314</ele>
        <time>2022-08-03T15:44:24.000Z</time>
      </trkpt>
      <trkpt lat="49.35166" lon="-0.78322">
        <ele>65.39745</ele>
        <time>2022-08-03T15:44:25.000Z</time>
      </trkpt>
      <trkpt lat="49.35167" lon="-0.78313">
        <ele>65.432769</ele>
        <time>2022-08-03T15:44:26.000Z</time>
      </trkpt>
      <trkpt lat="49.35168" lon="-0.78304">
        <ele>65.468527</ele>
        <time>2022-08-03T15:44:27.000Z</time>
      </trkpt>
      <trkpt lat="49.3517" lon="-0.78295">
        <ele>65.503906</ele>
        <time>2022-08-03T15:44:28.000Z</time>
      </trkpt>
      <trkpt lat="49.3517" lon="-0.78286">
        <ele>65.538861</ele>
        <time>2022-08-03T15:44:29.000Z</time>
      </trkpt>
      <trkpt lat="49.35171" lon="-0.78277">
        <ele>65.574658</ele>
        <time>2022-08-03T15:44:30.000Z</time>
      </trkpt>
      <trkpt lat="49.35172" lon="-0.78268">
        <ele>65.60975</ele>
        <time>2022-08-03T15:44:31.000Z</time>
      </trkpt>
      <trkpt lat="49.35172" lon="-0.78259">
        <ele>65.634612</ele>
        <time>2022-08-03T15:44:32.000Z</time>
      </trkpt>
      <trkpt lat="49.35172" lon="-0.7825">
        <ele>65.64579</ele>
        <time>2022-08-03T15:44:33.000Z</time>
      </trkpt>
      <trkpt lat="49.35173" lon="-0.78241">
        <ele>65.656733</ele>
        <time>2022-08-03T15:44:34.000Z</time>
      </trkpt>
      <trkpt lat="49.35174" lon="-0.78232">
        <ele>65.667627</ele>
        <time>2022-08-03T15:44:35.000Z</time>
      </trkpt>
      <trkpt lat="49.35174" lon="-0.78223">
        <ele>65.678218</ele>
        <time>2022-08-03T15:44:36.000Z</time>
      </trkpt>
      <trkpt lat="49.35174" lon="-0.78214">
        <ele>65.688914</ele>
        <time>2022-08-03T15:44:37.000Z</time>
      </trkpt>
      <trkpt lat="49.35174" lon="-0.78205">
        <ele>65.699851</ele>
        <time>2022-08-03T15:44:38.000Z</time>
      </trkpt>
      <trkpt lat="49.35174" lon="-0.78195">
        <ele>65.711269</ele>
        <time>2022-08-03T15:44:39.000Z</time>
      </trkpt>
      <trkpt lat="49.35174" lon="-0.78186">
        <ele>65.722567</ele>
        <time>2022-08-03T15:44:40.000Z</time>
      </trkpt>
      <trkpt lat="49.35175" lon="-0.78177">
        <ele>65.733799</ele>
        <time>2022-08-03T15:44:41.000Z</time>
      </trkpt>
      <trkpt lat="49.35175" lon="-0.78167">
        <ele>65.74499</ele>
        <time>2022-08-03T15:44:42.000Z</time>
      </trkpt>
      <trkpt lat="49.35175" lon="-0.78158">
        <ele>65.755832</ele>
        <time>2022-08-03T15:44:43.000Z</time>
      </trkpt>
      <trkpt lat="49.35176" lon="-0.78149">
        <ele>65.767184</ele>
        <time>2022-08-03T15:44:44.000Z</time>
      </trkpt>
      <trkpt lat="49.35176" lon="-0.7814">
        <ele>65.778375</ele>
        <time>2022-08-03T15:44:45.000Z</time>
      </trkpt>
      <trkpt lat="49.35177" lon="-0.7813">
        <ele>65.789507</ele>
        <time>2022-08-03T15:44:46.000Z</time>
      </trkpt>
      <trkpt lat="49.35177" lon="-0.78121">
        <ele>65.801058</ele>
        <time>2022-08-03T15:44:47.000Z</time>
      </trkpt>
      <trkpt lat="49.35177" lon="-0.78111">
        <ele>65.812476</ele>
        <time>2022-08-03T15:44:48.000Z</time>
      </trkpt>
      <trkpt lat="49.35177" lon="-0.78102">
        <ele>65.823894</ele>
        <time>2022-08-03T15:44:49.000Z</time>
      </trkpt>
      <trkpt lat="49.35177" lon="-0.78092">
        <ele>65.835552</ele>
        <time>2022-08-03T15:44:50.000Z</time>
      </trkpt>
      <trkpt lat="49.35177" lon="-0.78083">
        <ele>65.846743</ele>
        <time>2022-08-03T15:44:51.000Z</time>
      </trkpt>
      <trkpt lat="49.35177" lon="-0.78073">
        <ele>65.858041</ele>
        <time>2022-08-03T15:44:52.000Z</time>
      </trkpt>
      <trkpt lat="49.35176" lon="-0.78064">
        <ele>65.869014</ele>
        <time>2022-08-03T15:44:53.000Z</time>
      </trkpt>
      <trkpt lat="49.35176" lon="-0.78055">
        <ele>65.880191</ele>
        <time>2022-08-03T15:44:54.000Z</time>
      </trkpt>
      <trkpt lat="49.35176" lon="-0.78046">
        <ele>65.891382</ele>
        <time>2022-08-03T15:44:55.000Z</time>
      </trkpt>
      <trkpt lat="49.35175" lon="-0.78036">
        <ele>65.902693</ele>
        <time>2022-08-03T15:44:56.000Z</time>
      </trkpt>
      <trkpt lat="49.35175" lon="-0.78027">
        <ele>65.913895</ele>
        <time>2022-08-03T15:44:57.000Z</time>
      </trkpt>
      <trkpt lat="49.35175" lon="-0.78018">
        <ele>65.924966</ele>
        <time>2022-08-03T15:44:58.000Z</time>
      </trkpt>
      <trkpt lat="49.35174" lon="-0.78009">
        <ele>65.93584</ele>
        <time>2022-08-03T15:44:59.000Z</time>
      </trkpt>
      <trkpt lat="49.35174" lon="-0.77998">
        <ele>65.948832</ele>
        <time>2022-08-03T15:45:00.000Z</time>
      </trkpt>
      <trkpt lat="49.35173" lon="-0.77991">
        <ele>65.957581</ele>
        <time>2022-08-03T15:45:01.000Z</time>
      </trkpt>
      <trkpt lat="49.35172" lon="-0.77982">
        <ele>65.94097</ele>
        <time>2022-08-03T15:45:02.000Z</time>
      </trkpt>
      <trkpt lat="49.35171" lon="-0.77974">
        <ele>65.910597</ele>
        <time>2022-08-03T15:45:03.000Z</time>
      </trkpt>
      <trkpt lat="49.3517" lon="-0.77965">
        <ele>65.879211</ele>
        <time>2022-08-03T15:45:04.000Z</time>
      </trkpt>
      <trkpt lat="49.35169" lon="-0.77957">
        <ele>65.849971</ele>
        <time>2022-08-03T15:45:05.000Z</time>
      </trkpt>
      <trkpt lat="49.35168" lon="-0.77949">
        <ele>65.821327</ele>
        <time>2022-08-03T15:45:06.000Z</time>
      </trkpt>
      <trkpt lat="49.35167" lon="-0.77941">
        <ele>65.792683</ele>
        <time>2022-08-03T15:45:07.000Z</time>
      </trkpt>
      <trkpt lat="49.35165" lon="-0.77934">
        <ele>65.7656</ele>
        <time>2022-08-03T15:45:08.000Z</time>
      </trkpt>
      <trkpt lat="49.35164" lon="-0.77926">
        <ele>65.73776</ele>
        <time>2022-08-03T15:45:09.000Z</time>
      </trkpt>
      <trkpt lat="49.35162" lon="-0.77919">
        <ele>65.710818</ele>
        <time>2022-08-03T15:45:10.000Z</time>
      </trkpt>
      <trkpt lat="49.3516" lon="-0.77913">
        <ele>65.685061</ele>
        <time>2022-08-03T15:45:11.000Z</time>
      </trkpt>
      <trkpt lat="49.35157" lon="-0.77906">
        <ele>65.659132</ele>
        <time>2022-08-03T15:45:12.000Z</time>
      </trkpt>
      <trkpt lat="49.35154" lon="-0.779">
        <ele>65.631429</ele>
        <time>2022-08-03T15:45:13.000Z</time>
      </trkpt>
      <trkpt lat="49.35151" lon="-0.77894">
        <ele>65.604612</ele>
        <time>2022-08-03T15:45:14.000Z</time>
      </trkpt>
      <trkpt lat="49.35148" lon="-0.77887">
        <ele>65.575398</ele>
        <time>2022-08-03T15:45:15.000Z</time>
      </trkpt>
      <trkpt lat="49.35145" lon="-0.7788">
        <ele>65.547404</ele>
        <time>2022-08-03T15:45:16.000Z</time>
      </trkpt>
      <trkpt lat="49.35142" lon="-0.77873">
        <ele>65.51853</ele>
        <time>2022-08-03T15:45:17.000Z</time>
      </trkpt>
      <trkpt lat="49.3514" lon="-0.77866">
        <ele>65.489889</ele>
        <time>2022-08-03T15:45:18.000Z</time>
      </trkpt>
      <trkpt lat="49.35137" lon="-0.77859">
        <ele>65.459637</ele>
        <time>2022-08-03T15:45:19.000Z</time>
      </trkpt>
      <trkpt lat="49.35136" lon="-0.7785">
        <ele>65.4292</ele>
        <time>2022-08-03T15:45:20.000Z</time>
      </trkpt>
      <trkpt lat="49.35134" lon="-0.77842">
        <ele>65.398426</ele>
        <time>2022-08-03T15:45:21.000Z</time>
      </trkpt>
      <trkpt lat="49.35133" lon="-0.77833">
        <ele>65.368053</ele>
        <time>2022-08-03T15:45:22.000Z</time>
      </trkpt>
      <trkpt lat="49.35133" lon="-0.77825">
        <ele>65.338688</ele>
        <time>2022-08-03T15:45:23.000Z</time>
      </trkpt>
      <trkpt lat="49.35132" lon="-0.77817">
        <ele>65.310511</ele>
        <time>2022-08-03T15:45:24.000Z</time>
      </trkpt>
      <trkpt lat="49.35132" lon="-0.77809">
        <ele>65.283349</ele>
        <time>2022-08-03T15:45:25.000Z</time>
      </trkpt>
      <trkpt lat="49.35132" lon="-0.77802">
        <ele>65.258735</ele>
        <time>2022-08-03T15:45:26.000Z</time>
      </trkpt>
      <trkpt lat="49.35131" lon="-0.77796">
        <ele>65.236328</ele>
        <time>2022-08-03T15:45:27.000Z</time>
      </trkpt>
      <trkpt lat="49.35129" lon="-0.77791">
        <ele>65.215092</ele>
        <time>2022-08-03T15:45:28.000Z</time>
      </trkpt>
      <trkpt lat="49.35126" lon="-0.77786">
        <ele>65.193571</ele>
        <time>2022-08-03T15:45:29.000Z</time>
      </trkpt>
      <trkpt lat="49.35123" lon="-0.77784">
        <ele>65.174785</ele>
        <time>2022-08-03T15:45:30.000Z</time>
      </trkpt>
      <trkpt lat="49.35119" lon="-0.77784">
        <ele>65.15043</ele>
        <time>2022-08-03T15:45:31.000Z</time>
      </trkpt>
      <trkpt lat="49.35115" lon="-0.77785">
        <ele>65.128121</ele>
        <time>2022-08-03T15:45:32.000Z</time>
      </trkpt>
      <trkpt lat="49.3511" lon="-0.77786">
        <ele>65.103403</ele>
        <time>2022-08-03T15:45:33.000Z</time>
      </trkpt>
      <trkpt lat="49.35106" lon="-0.77787">
        <ele>65.080126</ele>
        <time>2022-08-03T15:45:34.000Z</time>
      </trkpt>
      <trkpt lat="49.35101" lon="-0.77788">
        <ele>65.05563</ele>
        <time>2022-08-03T15:45:35.000Z</time>
      </trkpt>
      <trkpt lat="49.35097" lon="-0.77789">
        <ele>65.029433</ele>
        <time>2022-08-03T15:45:36.000Z</time>
      </trkpt>
      <trkpt lat="49.35092" lon="-0.77791">
        <ele>65.005177</ele>
        <time>2022-08-03T15:45:37.000Z</time>
      </trkpt>
      <trkpt lat="49.35088" lon="-0.77792">
        <ele>65.005659</ele>
        <time>2022-08-03T15:45:38.000Z</time>
      </trkpt>
      <trkpt lat="49.35083" lon="-0.77794">
        <ele>65.05782</ele>
        <time>2022-08-03T15:45:39.000Z</time>
      </trkpt>
      <trkpt lat="49.35078" lon="-0.77796">
        <ele>65.106647</ele>
        <time>2022-08-03T15:45:40.000Z</time>
      </trkpt>
      <trkpt lat="49.35073" lon="-0.77797">
        <ele>65.158407</ele>
        <time>2022-08-03T15:45:41.000Z</time>
      </trkpt>
      <trkpt lat="49.35069" lon="-0.77799">
        <ele>65.204308</ele>
        <time>2022-08-03T15:45:42.000Z</time>
      </trkpt>
      <trkpt lat="49.35064" lon="-0.778">
        <ele>65.250501</ele>
        <time>2022-08-03T15:45:43.000Z</time>
      </trkpt>
      <trkpt lat="49.35059" lon="-0.77802">
        <ele>65.299753</ele>
        <time>2022-08-03T15:45:44.000Z</time>
      </trkpt>
      <trkpt lat="49.35054" lon="-0.77804">
        <ele>65.34858</ele>
        <time>2022-08-03T15:45:45.000Z</time>
      </trkpt>
      <trkpt lat="49.35049" lon="-0.77805">
        <ele>65.400111</ele>
        <time>2022-08-03T15:45:46.000Z</time>
      </trkpt>
      <trkpt lat="49.35045" lon="-0.77806">
        <ele>65.446012</ele>
        <time>2022-08-03T15:45:47.000Z</time>
      </trkpt>
      <trkpt lat="49.3504" lon="-0.77808">
        <ele>65.491779</ele>
        <time>2022-08-03T15:45:48.000Z</time>
      </trkpt>
      <trkpt lat="49.35035" lon="-0.77809">
        <ele>65.543539</ele>
        <time>2022-08-03T15:45:49.000Z</time>
      </trkpt>
      <trkpt lat="49.35031" lon="-0.77811">
        <ele>65.589181</ele>
        <time>2022-08-03T15:45:50.000Z</time>
      </trkpt>
      <trkpt lat="49.35026" lon="-0.77812">
        <ele>65.634824</ele>
        <time>2022-08-03T15:45:51.000Z</time>
      </trkpt>
      <trkpt lat="49.35021" lon="-0.77813">
        <ele>65.683525</ele>
        <time>2022-08-03T15:45:52.000Z</time>
      </trkpt>
      <trkpt lat="49.35017" lon="-0.77815">
        <ele>65.732109</ele>
        <time>2022-08-03T15:45:53.000Z</time>
      </trkpt>
      <trkpt lat="49.35012" lon="-0.77816">
        <ele>65.776772</ele>
        <time>2022-08-03T15:45:54.000Z</time>
      </trkpt>
      <trkpt lat="49.35007" lon="-0.77817">
        <ele>65.825248</ele>
        <time>2022-08-03T15:45:55.000Z</time>
      </trkpt>
      <trkpt lat="49.35003" lon="-0.77818">
        <ele>65.870775</ele>
        <time>2022-08-03T15:45:56.000Z</time>
      </trkpt>
      <trkpt lat="49.34998" lon="-0.7782">
        <ele>65.916417</ele>
        <time>2022-08-03T15:45:57.000Z</time>
      </trkpt>
      <trkpt lat="49.34994" lon="-0.77821">
        <ele>65.959001</ele>
        <time>2022-08-03T15:45:58.000Z</time>
      </trkpt>
      <trkpt lat="49.3499" lon="-0.77822">
        <ele>66.000731</ele>
        <time>2022-08-03T15:45:59.000Z</time>
      </trkpt>
      <trkpt lat="49.34985" lon="-0.77824">
        <ele>66.049834</ele>
        <time>2022-08-03T15:46:00.000Z</time>
      </trkpt>
      <trkpt lat="49.34981" lon="-0.77826">
        <ele>66.093299</ele>
        <time>2022-08-03T15:46:01.000Z</time>
      </trkpt>
      <trkpt lat="49.34977" lon="-0.77827">
        <ele>66.132409</ele>
        <time>2022-08-03T15:46:02.000Z</time>
      </trkpt>
      <trkpt lat="49.34973" lon="-0.77829">
        <ele>66.175392</ele>
        <time>2022-08-03T15:46:03.000Z</time>
      </trkpt>
      <trkpt lat="49.34969" lon="-0.7783">
        <ele>66.214845</ele>
        <time>2022-08-03T15:46:04.000Z</time>
      </trkpt>
      <trkpt lat="49.34965" lon="-0.77832">
        <ele>66.256042</ele>
        <time>2022-08-03T15:46:05.000Z</time>
      </trkpt>
      <trkpt lat="49.34962" lon="-0.77834">
        <ele>66.295878</ele>
        <time>2022-08-03T15:46:06.000Z</time>
      </trkpt>
      <trkpt lat="49.34958" lon="-0.77836">
        <ele>66.330317</ele>
        <time>2022-08-03T15:46:07.000Z</time>
      </trkpt>
      <trkpt lat="49.34955" lon="-0.77837">
        <ele>66.365803</ele>
        <time>2022-08-03T15:46:08.000Z</time>
      </trkpt>
      <trkpt lat="49.34952" lon="-0.77838">
        <ele>66.398355</ele>
        <time>2022-08-03T15:46:09.000Z</time>
      </trkpt>
      <trkpt lat="49.34949" lon="-0.77839">
        <ele>66.422182</ele>
        <time>2022-08-03T15:46:10.000Z</time>
      </trkpt>
      <trkpt lat="49.34947" lon="-0.77839">
        <ele>66.447102</ele>
        <time>2022-08-03T15:46:11.000Z</time>
      </trkpt>
      <trkpt lat="49.34945" lon="-0.77838">
        <ele>66.468109</ele>
        <time>2022-08-03T15:46:12.000Z</time>
      </trkpt>
      <trkpt lat="49.34943" lon="-0.77836">
        <ele>66.491902</ele>
        <time>2022-08-03T15:46:13.000Z</time>
      </trkpt>
      <trkpt lat="49.34941" lon="-0.77833">
        <ele>66.517584</ele>
        <time>2022-08-03T15:46:14.000Z</time>
      </trkpt>
      <trkpt lat="49.34941" lon="-0.77829">
        <ele>66.546294</ele>
        <time>2022-08-03T15:46:15.000Z</time>
      </trkpt>
      <trkpt lat="49.3494" lon="-0.77824">
        <ele>66.580257</ele>
        <time>2022-08-03T15:46:16.000Z</time>
      </trkpt>
      <trkpt lat="49.34939" lon="-0.77818">
        <ele>66.615188</ele>
        <time>2022-08-03T15:46:17.000Z</time>
      </trkpt>
      <trkpt lat="49.34939" lon="-0.77813">
        <ele>66.652321</ele>
        <time>2022-08-03T15:46:18.000Z</time>
      </trkpt>
      <trkpt lat="49.34938" lon="-0.77807">
        <ele>66.692537</ele>
        <time>2022-08-03T15:46:19.000Z</time>
      </trkpt>
      <trkpt lat="49.34937" lon="-0.778">
        <ele>66.736452</ele>
        <time>2022-08-03T15:46:20.000Z</time>
      </trkpt>
      <trkpt lat="49.34937" lon="-0.77793">
        <ele>66.779494</ele>
        <time>2022-08-03T15:46:21.000Z</time>
      </trkpt>
      <trkpt lat="49.34936" lon="-0.77786">
        <ele>66.77872</ele>
        <time>2022-08-03T15:46:22.000Z</time>
      </trkpt>
      <trkpt lat="49.34935" lon="-0.7778">
        <ele>66.774038</ele>
        <time>2022-08-03T15:46:23.000Z</time>
      </trkpt>
      <trkpt lat="49.34935" lon="-0.77773">
        <ele>66.769582</ele>
        <time>2022-08-03T15:46:24.000Z</time>
      </trkpt>
      <trkpt lat="49.34935" lon="-0.77766">
        <ele>66.764795</ele>
        <time>2022-08-03T15:46:25.000Z</time>
      </trkpt>
      <trkpt lat="49.34934" lon="-0.77759">
        <ele>66.759792</ele>
        <time>2022-08-03T15:46:26.000Z</time>
      </trkpt>
      <trkpt lat="49.34933" lon="-0.77752">
        <ele>66.754792</ele>
        <time>2022-08-03T15:46:27.000Z</time>
      </trkpt>
      <trkpt lat="49.34933" lon="-0.77744">
        <ele>66.749801</ele>
        <time>2022-08-03T15:46:28.000Z</time>
      </trkpt>
      <trkpt lat="49.34933" lon="-0.77737">
        <ele>66.744741</ele>
        <time>2022-08-03T15:46:29.000Z</time>
      </trkpt>
      <trkpt lat="49.34932" lon="-0.7773">
        <ele>66.73985</ele>
        <time>2022-08-03T15:46:30.000Z</time>
      </trkpt>
      <trkpt lat="49.34932" lon="-0.77722">
        <ele>66.734723</ele>
        <time>2022-08-03T15:46:31.000Z</time>
      </trkpt>
      <trkpt lat="49.34931" lon="-0.77715">
        <ele>66.729731</ele>
        <time>2022-08-03T15:46:32.000Z</time>
      </trkpt>
      <trkpt lat="49.34931" lon="-0.77708">
        <ele>66.724739</ele>
        <time>2022-08-03T15:46:33.000Z</time>
      </trkpt>
      <trkpt lat="49.34931" lon="-0.77701">
        <ele>66.72002</ele>
        <time>2022-08-03T15:46:34.000Z</time>
      </trkpt>
      <trkpt lat="49.3493" lon="-0.77694">
        <ele>66.715322</ele>
        <time>2022-08-03T15:46:35.000Z</time>
      </trkpt>
      <trkpt lat="49.3493" lon="-0.77688">
        <ele>66.711011</ele>
        <time>2022-08-03T15:46:36.000Z</time>
      </trkpt>
      <trkpt lat="49.34929" lon="-0.77682">
        <ele>66.706905</ele>
        <time>2022-08-03T15:46:37.000Z</time>
      </trkpt>
      <trkpt lat="49.34929" lon="-0.77676">
        <ele>66.702662</ele>
        <time>2022-08-03T15:46:38.000Z</time>
      </trkpt>
      <trkpt lat="49.34929" lon="-0.77669">
        <ele>66.698342</ele>
        <time>2022-08-03T15:46:39.000Z</time>
      </trkpt>
      <trkpt lat="49.34928" lon="-0.77664">
        <ele>66.694537</ele>
        <time>2022-08-03T15:46:40.000Z</time>
      </trkpt>
      <trkpt lat="49.34927" lon="-0.77658">
        <ele>66.690462</ele>
        <time>2022-08-03T15:46:41.000Z</time>
      </trkpt>
      <trkpt lat="49.34927" lon="-0.77652">
        <ele>66.686436</ele>
        <time>2022-08-03T15:46:42.000Z</time>
      </trkpt>
      <trkpt lat="49.34926" lon="-0.77646">
        <ele>66.682101</ele>
        <time>2022-08-03T15:46:43.000Z</time>
      </trkpt>
      <trkpt lat="49.34925" lon="-0.7764">
        <ele>66.677676</ele>
        <time>2022-08-03T15:46:44.000Z</time>
      </trkpt>
      <trkpt lat="49.34924" lon="-0.77633">
        <ele>66.673119</ele>
        <time>2022-08-03T15:46:45.000Z</time>
      </trkpt>
      <trkpt lat="49.34923" lon="-0.77626">
        <ele>66.668436</ele>
        <time>2022-08-03T15:46:46.000Z</time>
      </trkpt>
      <trkpt lat="49.34922" lon="-0.77619">
        <ele>66.663205</ele>
        <time>2022-08-03T15:46:47.000Z</time>
      </trkpt>
      <trkpt lat="49.34921" lon="-0.77612">
        <ele>66.658319</ele>
        <time>2022-08-03T15:46:48.000Z</time>
      </trkpt>
      <trkpt lat="49.34921" lon="-0.77604">
        <ele>66.653216</ele>
        <time>2022-08-03T15:46:49.000Z</time>
      </trkpt>
      <trkpt lat="49.3492" lon="-0.77597">
        <ele>66.648146</ele>
        <time>2022-08-03T15:46:50.000Z</time>
      </trkpt>
      <trkpt lat="49.34919" lon="-0.7759">
        <ele>66.643178</ele>
        <time>2022-08-03T15:46:51.000Z</time>
      </trkpt>
      <trkpt lat="49.34918" lon="-0.77582">
        <ele>66.637908</ele>
        <time>2022-08-03T15:46:52.000Z</time>
      </trkpt>
      <trkpt lat="49.34917" lon="-0.77576">
        <ele>66.633151</ele>
        <time>2022-08-03T15:46:53.000Z</time>
      </trkpt>
      <trkpt lat="49.34915" lon="-0.77569">
        <ele>66.628281</ele>
        <time>2022-08-03T15:46:54.000Z</time>
      </trkpt>
      <trkpt lat="49.34914" lon="-0.77562">
        <ele>66.623641</ele>
        <time>2022-08-03T15:46:55.000Z</time>
      </trkpt>
      <trkpt lat="49.34913" lon="-0.77556">
        <ele>66.618805</ele>
        <time>2022-08-03T15:46:56.000Z</time>
      </trkpt>
      <trkpt lat="49.34911" lon="-0.77549">
        <ele>66.614063</ele>
        <time>2022-08-03T15:46:57.000Z</time>
      </trkpt>
      <trkpt lat="49.34909" lon="-0.77543">
        <ele>66.609448</ele>
        <time>2022-08-03T15:46:58.000Z</time>
      </trkpt>
      <trkpt lat="49.34908" lon="-0.77536">
        <ele>66.604706</ele>
        <time>2022-08-03T15:46:59.000Z</time>
      </trkpt>
      <trkpt lat="49.34906" lon="-0.7753">
        <ele>66.59972</ele>
        <time>2022-08-03T15:47:00.000Z</time>
      </trkpt>
      <trkpt lat="49.34904" lon="-0.77523">
        <ele>66.594786</ele>
        <time>2022-08-03T15:47:01.000Z</time>
      </trkpt>
      <trkpt lat="49.34903" lon="-0.77516">
        <ele>66.580567</ele>
        <time>2022-08-03T15:47:02.000Z</time>
      </trkpt>
      <trkpt lat="49.34901" lon="-0.7751">
        <ele>66.565423</ele>
        <time>2022-08-03T15:47:03.000Z</time>
      </trkpt>
      <trkpt lat="49.34899" lon="-0.77503">
        <ele>66.550472</ele>
        <time>2022-08-03T15:47:04.000Z</time>
      </trkpt>
      <trkpt lat="49.34897" lon="-0.77497">
        <ele>66.535328</ele>
        <time>2022-08-03T15:47:05.000Z</time>
      </trkpt>
      <trkpt lat="49.34895" lon="-0.7749">
        <ele>66.519989</ele>
        <time>2022-08-03T15:47:06.000Z</time>
      </trkpt>
      <trkpt lat="49.34894" lon="-0.77484">
        <ele>66.505218</ele>
        <time>2022-08-03T15:47:07.000Z</time>
      </trkpt>
      <trkpt lat="49.34892" lon="-0.77477">
        <ele>66.489552</ele>
        <time>2022-08-03T15:47:08.000Z</time>
      </trkpt>
      <trkpt lat="49.3489" lon="-0.7747">
        <ele>66.474383</ele>
        <time>2022-08-03T15:47:09.000Z</time>
      </trkpt>
      <trkpt lat="49.34888" lon="-0.77464">
        <ele>66.459238</ele>
        <time>2022-08-03T15:47:10.000Z</time>
      </trkpt>
      <trkpt lat="49.34886" lon="-0.77457">
        <ele>66.4439</ele>
        <time>2022-08-03T15:47:11.000Z</time>
      </trkpt>
      <trkpt lat="49.34885" lon="-0.77451">
        <ele>66.429129</ele>
        <time>2022-08-03T15:47:12.000Z</time>
      </trkpt>
      <trkpt lat="49.34883" lon="-0.77444">
        <ele>66.41356</ele>
        <time>2022-08-03T15:47:13.000Z</time>
      </trkpt>
      <trkpt lat="49.34882" lon="-0.77437">
        <ele>66.398191</ele>
        <time>2022-08-03T15:47:14.000Z</time>
      </trkpt>
      <trkpt lat="49.3488" lon="-0.7743">
        <ele>66.382658</ele>
        <time>2022-08-03T15:47:15.000Z</time>
      </trkpt>
      <trkpt lat="49.34878" lon="-0.77424">
        <ele>66.367513</ele>
        <time>2022-08-03T15:47:16.000Z</time>
      </trkpt>
      <trkpt lat="49.34876" lon="-0.77417">
        <ele>66.352232</ele>
        <time>2022-08-03T15:47:17.000Z</time>
      </trkpt>
      <trkpt lat="49.34874" lon="-0.77411">
        <ele>66.337088</ele>
        <time>2022-08-03T15:47:18.000Z</time>
      </trkpt>
      <trkpt lat="49.34872" lon="-0.77404">
        <ele>66.321359</ele>
        <time>2022-08-03T15:47:19.000Z</time>
      </trkpt>
      <trkpt lat="49.3487" lon="-0.77397">
        <ele>66.30599</ele>
        <time>2022-08-03T15:47:20.000Z</time>
      </trkpt>
      <trkpt lat="49.34869" lon="-0.7739">
        <ele>66.290721</ele>
        <time>2022-08-03T15:47:21.000Z</time>
      </trkpt>
      <trkpt lat="49.34868" lon="-0.77383">
        <ele>66.274751</ele>
        <time>2022-08-03T15:47:22.000Z</time>
      </trkpt>
      <trkpt lat="49.34866" lon="-0.77376">
        <ele>66.258981</ele>
        <time>2022-08-03T15:47:23.000Z</time>
      </trkpt>
      <trkpt lat="49.34865" lon="-0.77369">
        <ele>66.243551</ele>
        <time>2022-08-03T15:47:24.000Z</time>
      </trkpt>
      <trkpt lat="49.34864" lon="-0.77362">
        <ele>66.227902</ele>
        <time>2022-08-03T15:47:25.000Z</time>
      </trkpt>
      <trkpt lat="49.34864" lon="-0.77355">
        <ele>66.212683</ele>
        <time>2022-08-03T15:47:26.000Z</time>
      </trkpt>
      <trkpt lat="49.34863" lon="-0.77348">
        <ele>66.198258</ele>
        <time>2022-08-03T15:47:27.000Z</time>
      </trkpt>
      <trkpt lat="49.34861" lon="-0.77342">
        <ele>66.183884</ele>
        <time>2022-08-03T15:47:28.000Z</time>
      </trkpt>
      <trkpt lat="49.3486" lon="-0.77336">
        <ele>66.171151</ele>
        <time>2022-08-03T15:47:29.000Z</time>
      </trkpt>
      <trkpt lat="49.34859" lon="-0.77331">
        <ele>66.159625</ele>
        <time>2022-08-03T15:47:30.000Z</time>
      </trkpt>
      <trkpt lat="49.34858" lon="-0.77326">
        <ele>66.148913</ele>
        <time>2022-08-03T15:47:31.000Z</time>
      </trkpt>
      <trkpt lat="49.34858" lon="-0.77321">
        <ele>66.138732</ele>
        <time>2022-08-03T15:47:32.000Z</time>
      </trkpt>
      <trkpt lat="49.34858" lon="-0.77316">
        <ele>66.128103</ele>
        <time>2022-08-03T15:47:33.000Z</time>
      </trkpt>
      <trkpt lat="49.34858" lon="-0.77311">
        <ele>66.116794</ele>
        <time>2022-08-03T15:47:34.000Z</time>
      </trkpt>
      <trkpt lat="49.34858" lon="-0.77305">
        <ele>66.104039</ele>
        <time>2022-08-03T15:47:35.000Z</time>
      </trkpt>
      <trkpt lat="49.34858" lon="-0.77299">
        <ele>66.090222</ele>
        <time>2022-08-03T15:47:36.000Z</time>
      </trkpt>
      <trkpt lat="49.34857" lon="-0.77292">
        <ele>66.075635</ele>
        <time>2022-08-03T15:47:37.000Z</time>
      </trkpt>
      <trkpt lat="49.34857" lon="-0.77285">
        <ele>66.06016</ele>
        <time>2022-08-03T15:47:38.000Z</time>
      </trkpt>
      <trkpt lat="49.34857" lon="-0.77277">
        <ele>66.044642</ele>
        <time>2022-08-03T15:47:39.000Z</time>
      </trkpt>
      <trkpt lat="49.34856" lon="-0.7727">
        <ele>66.028579</ele>
        <time>2022-08-03T15:47:40.000Z</time>
      </trkpt>
      <trkpt lat="49.34856" lon="-0.77262">
        <ele>66.012818</ele>
        <time>2022-08-03T15:47:41.000Z</time>
      </trkpt>
      <trkpt lat="49.34856" lon="-0.77255">
        <ele>65.977929</ele>
        <time>2022-08-03T15:47:42.000Z</time>
      </trkpt>
      <trkpt lat="49.34855" lon="-0.77247">
        <ele>65.934937</ele>
        <time>2022-08-03T15:47:43.000Z</time>
      </trkpt>
      <trkpt lat="49.34855" lon="-0.77239">
        <ele>65.891339</ele>
        <time>2022-08-03T15:47:44.000Z</time>
      </trkpt>
      <trkpt lat="49.34854" lon="-0.77231">
        <ele>65.84703</ele>
        <time>2022-08-03T15:47:45.000Z</time>
      </trkpt>
      <trkpt lat="49.34854" lon="-0.77223">
        <ele>65.801362</ele>
        <time>2022-08-03T15:47:46.000Z</time>
      </trkpt>
      <trkpt lat="49.34854" lon="-0.77214">
        <ele>65.756244</ele>
        <time>2022-08-03T15:47:47.000Z</time>
      </trkpt>
      <trkpt lat="49.34854" lon="-0.77207">
        <ele>65.713251</ele>
        <time>2022-08-03T15:47:48.000Z</time>
      </trkpt>
      <trkpt lat="49.34853" lon="-0.77199">
        <ele>65.669929</ele>
        <time>2022-08-03T15:47:49.000Z</time>
      </trkpt>
      <trkpt lat="49.34853" lon="-0.77191">
        <ele>65.627486</ele>
        <time>2022-08-03T15:47:50.000Z</time>
      </trkpt>
      <trkpt lat="49.34853" lon="-0.77183">
        <ele>65.584569</ele>
        <time>2022-08-03T15:47:51.000Z</time>
      </trkpt>
      <trkpt lat="49.34852" lon="-0.77175">
        <ele>65.540441</ele>
        <time>2022-08-03T15:47:52.000Z</time>
      </trkpt>
      <trkpt lat="49.34852" lon="-0.77166">
        <ele>65.48893</ele>
        <time>2022-08-03T15:47:53.000Z</time>
      </trkpt>
      <trkpt lat="49.34851" lon="-0.7716">
        <ele>65.454722</ele>
        <time>2022-08-03T15:47:54.000Z</time>
      </trkpt>
      <trkpt lat="49.3485" lon="-0.77152">
        <ele>65.410982</ele>
        <time>2022-08-03T15:47:55.000Z</time>
      </trkpt>
      <trkpt lat="49.34849" lon="-0.77144">
        <ele>65.367938</ele>
        <time>2022-08-03T15:47:56.000Z</time>
      </trkpt>
      <trkpt lat="49.34848" lon="-0.77135">
        <ele>65.317216</ele>
        <time>2022-08-03T15:47:57.000Z</time>
      </trkpt>
      <trkpt lat="49.34847" lon="-0.7713">
        <ele>65.284903</ele>
        <time>2022-08-03T15:47:58.000Z</time>
      </trkpt>
      <trkpt lat="49.34846" lon="-0.77122">
        <ele>65.241702</ele>
        <time>2022-08-03T15:47:59.000Z</time>
      </trkpt>
      <trkpt lat="49.34846" lon="-0.77114">
        <ele>65.199579</ele>
        <time>2022-08-03T15:48:00.000Z</time>
      </trkpt>
      <trkpt lat="49.34845" lon="-0.77107">
        <ele>65.158435</ele>
        <time>2022-08-03T15:48:01.000Z</time>
      </trkpt>
      <trkpt lat="49.34844" lon="-0.771">
        <ele>65.118637</ele>
        <time>2022-08-03T15:48:02.000Z</time>
      </trkpt>
      <trkpt lat="49.34844" lon="-0.77092">
        <ele>65.076135</ele>
        <time>2022-08-03T15:48:03.000Z</time>
      </trkpt>
      <trkpt lat="49.34843" lon="-0.77085">
        <ele>65.036308</ele>
        <time>2022-08-03T15:48:04.000Z</time>
      </trkpt>
      <trkpt lat="49.34842" lon="-0.77078">
        <ele>64.996549</ele>
        <time>2022-08-03T15:48:05.000Z</time>
      </trkpt>
      <trkpt lat="49.34842" lon="-0.77071">
        <ele>64.958792</ele>
        <time>2022-08-03T15:48:06.000Z</time>
      </trkpt>
      <trkpt lat="49.34841" lon="-0.77064">
        <ele>64.920972</ele>
        <time>2022-08-03T15:48:07.000Z</time>
      </trkpt>
      <trkpt lat="49.3484" lon="-0.77058">
        <ele>64.882792</ele>
        <time>2022-08-03T15:48:08.000Z</time>
      </trkpt>
      <trkpt lat="49.34838" lon="-0.77051">
        <ele>64.843799</ele>
        <time>2022-08-03T15:48:09.000Z</time>
      </trkpt>
      <trkpt lat="49.34838" lon="-0.77044">
        <ele>64.805497</ele>
        <time>2022-08-03T15:48:10.000Z</time>
      </trkpt>
      <trkpt lat="49.34837" lon="-0.77037">
        <ele>64.766066</ele>
        <time>2022-08-03T15:48:11.000Z</time>
      </trkpt>
      <trkpt lat="49.34836" lon="-0.7703">
        <ele>64.727218</ele>
        <time>2022-08-03T15:48:12.000Z</time>
      </trkpt>
      <trkpt lat="49.34835" lon="-0.77023">
        <ele>64.688861</ele>
        <time>2022-08-03T15:48:13.000Z</time>
      </trkpt>
      <trkpt lat="49.34834" lon="-0.77016">
        <ele>64.649431</ele>
        <time>2022-08-03T15:48:14.000Z</time>
      </trkpt>
      <trkpt lat="49.34833" lon="-0.77009">
        <ele>64.61179</ele>
        <time>2022-08-03T15:48:15.000Z</time>
      </trkpt>
      <trkpt lat="49.34833" lon="-0.77003">
        <ele>64.574997</ele>
        <time>2022-08-03T15:48:16.000Z</time>
      </trkpt>
      <trkpt lat="49.34832" lon="-0.76996">
        <ele>64.537785</ele>
        <time>2022-08-03T15:48:17.000Z</time>
      </trkpt>
      <trkpt lat="49.34831" lon="-0.7699">
        <ele>64.500373</ele>
        <time>2022-08-03T15:48:18.000Z</time>
      </trkpt>
      <trkpt lat="49.3483" lon="-0.76983">
        <ele>64.464406</ele>
        <time>2022-08-03T15:48:19.000Z</time>
      </trkpt>
      <trkpt lat="49.34829" lon="-0.76977">
        <ele>64.426907</ele>
        <time>2022-08-03T15:48:20.000Z</time>
      </trkpt>
      <trkpt lat="49.34829" lon="-0.76971">
        <ele>64.389864</ele>
        <time>2022-08-03T15:48:21.000Z</time>
      </trkpt>
      <trkpt lat="49.34828" lon="-0.76964">
        <ele>64.353724</ele>
        <time>2022-08-03T15:48:22.000Z</time>
      </trkpt>
      <trkpt lat="49.34827" lon="-0.76958">
        <ele>64.318292</ele>
        <time>2022-08-03T15:48:23.000Z</time>
      </trkpt>
      <trkpt lat="49.34826" lon="-0.76952">
        <ele>64.281608</ele>
        <time>2022-08-03T15:48:24.000Z</time>
      </trkpt>
      <trkpt lat="49.34826" lon="-0.76946">
        <ele>64.24504</ele>
        <time>2022-08-03T15:48:25.000Z</time>
      </trkpt>
      <trkpt lat="49.34824" lon="-0.76939">
        <ele>64.205988</ele>
        <time>2022-08-03T15:48:26.000Z</time>
      </trkpt>
      <trkpt lat="49.34824" lon="-0.76932">
        <ele>64.166271</ele>
        <time>2022-08-03T15:48:27.000Z</time>
      </trkpt>
      <trkpt lat="49.34824" lon="-0.76925">
        <ele>64.12598</ele>
        <time>2022-08-03T15:48:28.000Z</time>
      </trkpt>
      <trkpt lat="49.34823" lon="-0.76919">
        <ele>64.085942</ele>
        <time>2022-08-03T15:48:29.000Z</time>
      </trkpt>
      <trkpt lat="49.34822" lon="-0.76912">
        <ele>64.04653</ele>
        <time>2022-08-03T15:48:30.000Z</time>
      </trkpt>
      <trkpt lat="49.34821" lon="-0.76905">
        <ele>64.005855</ele>
        <time>2022-08-03T15:48:31.000Z</time>
      </trkpt>
      <trkpt lat="49.3482" lon="-0.76898">
        <ele>63.963171</ele>
        <time>2022-08-03T15:48:32.000Z</time>
      </trkpt>
      <trkpt lat="49.3482" lon="-0.7689">
        <ele>63.919655</ele>
        <time>2022-08-03T15:48:33.000Z</time>
      </trkpt>
      <trkpt lat="49.34819" lon="-0.76882">
        <ele>63.871896</ele>
        <time>2022-08-03T15:48:34.000Z</time>
      </trkpt>
      <trkpt lat="49.34818" lon="-0.76874">
        <ele>63.824966</ele>
        <time>2022-08-03T15:48:35.000Z</time>
      </trkpt>
      <trkpt lat="49.34817" lon="-0.76866">
        <ele>63.779286</ele>
        <time>2022-08-03T15:48:36.000Z</time>
      </trkpt>
      <trkpt lat="49.34815" lon="-0.76857">
        <ele>63.724949</ele>
        <time>2022-08-03T15:48:37.000Z</time>
      </trkpt>
      <trkpt lat="49.34814" lon="-0.7685">
        <ele>63.68259</ele>
        <time>2022-08-03T15:48:38.000Z</time>
      </trkpt>
      <trkpt lat="49.34814" lon="-0.76844">
        <ele>63.649746</ele>
        <time>2022-08-03T15:48:39.000Z</time>
      </trkpt>
      <trkpt lat="49.34812" lon="-0.76837">
        <ele>63.608222</ele>
        <time>2022-08-03T15:48:40.000Z</time>
      </trkpt>
      <trkpt lat="49.34811" lon="-0.7683">
        <ele>63.565615</ele>
        <time>2022-08-03T15:48:41.000Z</time>
      </trkpt>
      <trkpt lat="49.34809" lon="-0.76823">
        <ele>63.52066</ele>
        <time>2022-08-03T15:48:42.000Z</time>
      </trkpt>
      <trkpt lat="49.34806" lon="-0.76816">
        <ele>63.473293</ele>
        <time>2022-08-03T15:48:43.000Z</time>
      </trkpt>
      <trkpt lat="49.34804" lon="-0.76808">
        <ele>63.425683</ele>
        <time>2022-08-03T15:48:44.000Z</time>
      </trkpt>
      <trkpt lat="49.34801" lon="-0.76799">
        <ele>63.368918</ele>
        <time>2022-08-03T15:48:45.000Z</time>
      </trkpt>
      <trkpt lat="49.34799" lon="-0.76794">
        <ele>63.332238</ele>
        <time>2022-08-03T15:48:46.000Z</time>
      </trkpt>
      <trkpt lat="49.34797" lon="-0.76787">
        <ele>63.286892</ele>
        <time>2022-08-03T15:48:47.000Z</time>
      </trkpt>
      <trkpt lat="49.34794" lon="-0.7678">
        <ele>63.240113</ele>
        <time>2022-08-03T15:48:48.000Z</time>
      </trkpt>
      <trkpt lat="49.34791" lon="-0.76772">
        <ele>63.189029</ele>
        <time>2022-08-03T15:48:49.000Z</time>
      </trkpt>
      <trkpt lat="49.34789" lon="-0.76765">
        <ele>63.140642</ele>
        <time>2022-08-03T15:48:50.000Z</time>
      </trkpt>
      <trkpt lat="49.34786" lon="-0.76757">
        <ele>63.092858</ele>
        <time>2022-08-03T15:48:51.000Z</time>
      </trkpt>
      <trkpt lat="49.34782" lon="-0.76749">
        <ele>63.035589</ele>
        <time>2022-08-03T15:48:52.000Z</time>
      </trkpt>
      <trkpt lat="49.3478" lon="-0.76744">
        <ele>62.997484</ele>
        <time>2022-08-03T15:48:53.000Z</time>
      </trkpt>
      <trkpt lat="49.34777" lon="-0.76737">
        <ele>62.952053</ele>
        <time>2022-08-03T15:48:54.000Z</time>
      </trkpt>
      <trkpt lat="49.34773" lon="-0.76731">
        <ele>62.905367</ele>
        <time>2022-08-03T15:48:55.000Z</time>
      </trkpt>
      <trkpt lat="49.34769" lon="-0.76724">
        <ele>62.828434</ele>
        <time>2022-08-03T15:48:56.000Z</time>
      </trkpt>
      <trkpt lat="49.34766" lon="-0.76718">
        <ele>62.762589</ele>
        <time>2022-08-03T15:48:57.000Z</time>
      </trkpt>
      <trkpt lat="49.34763" lon="-0.76714">
        <ele>62.708299</ele>
        <time>2022-08-03T15:48:58.000Z</time>
      </trkpt>
      <trkpt lat="49.3476" lon="-0.76708">
        <ele>62.644221</ele>
        <time>2022-08-03T15:48:59.000Z</time>
      </trkpt>
      <trkpt lat="49.34757" lon="-0.76702">
        <ele>62.577714</ele>
        <time>2022-08-03T15:49:00.000Z</time>
      </trkpt>
      <trkpt lat="49.34755" lon="-0.76696">
        <ele>62.515904</ele>
        <time>2022-08-03T15:49:01.000Z</time>
      </trkpt>
      <trkpt lat="49.34752" lon="-0.7669">
        <ele>62.452662</ele>
        <time>2022-08-03T15:49:02.000Z</time>
      </trkpt>
      <trkpt lat="49.3475" lon="-0.76684">
        <ele>62.395098</ele>
        <time>2022-08-03T15:49:03.000Z</time>
      </trkpt>
      <trkpt lat="49.34747" lon="-0.76678">
        <ele>62.331857</ele>
        <time>2022-08-03T15:49:04.000Z</time>
      </trkpt>
      <trkpt lat="49.34745" lon="-0.76671">
        <ele>62.273091</ele>
        <time>2022-08-03T15:49:05.000Z</time>
      </trkpt>
      <trkpt lat="49.34743" lon="-0.76665">
        <ele>62.215099</ele>
        <time>2022-08-03T15:49:06.000Z</time>
      </trkpt>
      <trkpt lat="49.34741" lon="-0.76659">
        <ele>62.15576</ele>
        <time>2022-08-03T15:49:07.000Z</time>
      </trkpt>
      <trkpt lat="49.3474" lon="-0.76653">
        <ele>62.101738</ele>
        <time>2022-08-03T15:49:08.000Z</time>
      </trkpt>
      <trkpt lat="49.34739" lon="-0.76647">
        <ele>62.048725</ele>
        <time>2022-08-03T15:49:09.000Z</time>
      </trkpt>
      <trkpt lat="49.34737" lon="-0.76642">
        <ele>61.996117</ele>
        <time>2022-08-03T15:49:10.000Z</time>
      </trkpt>
      <trkpt lat="49.34736" lon="-0.76636">
        <ele>61.947142</ele>
        <time>2022-08-03T15:49:11.000Z</time>
      </trkpt>
      <trkpt lat="49.34735" lon="-0.76631">
        <ele>61.898503</ele>
        <time>2022-08-03T15:49:12.000Z</time>
      </trkpt>
      <trkpt lat="49.34734" lon="-0.76625">
        <ele>61.849527</ele>
        <time>2022-08-03T15:49:13.000Z</time>
      </trkpt>
      <trkpt lat="49.34734" lon="-0.76619">
        <ele>61.800639</ele>
        <time>2022-08-03T15:49:14.000Z</time>
      </trkpt>
      <trkpt lat="49.34734" lon="-0.76613">
        <ele>61.749026</ele>
        <time>2022-08-03T15:49:15.000Z</time>
      </trkpt>
      <trkpt lat="49.34733" lon="-0.76607">
        <ele>61.689235</ele>
        <time>2022-08-03T15:49:16.000Z</time>
      </trkpt>
      <trkpt lat="49.34733" lon="-0.76599">
        <ele>61.624908</ele>
        <time>2022-08-03T15:49:17.000Z</time>
      </trkpt>
      <trkpt lat="49.34733" lon="-0.76591">
        <ele>61.55372</ele>
        <time>2022-08-03T15:49:18.000Z</time>
      </trkpt>
      <trkpt lat="49.34734" lon="-0.7658">
        <ele>61.461007</ele>
        <time>2022-08-03T15:49:19.000Z</time>
      </trkpt>
      <trkpt lat="49.34735" lon="-0.76573">
        <ele>61.39875</ele>
        <time>2022-08-03T15:49:20.000Z</time>
      </trkpt>
      <trkpt lat="49.34735" lon="-0.76564">
        <ele>61.324415</ele>
        <time>2022-08-03T15:49:21.000Z</time>
      </trkpt>
      <trkpt lat="49.34737" lon="-0.76556">
        <ele>61.249353</ele>
        <time>2022-08-03T15:49:22.000Z</time>
      </trkpt>
      <trkpt lat="49.34739" lon="-0.76548">
        <ele>61.175513</ele>
        <time>2022-08-03T15:49:23.000Z</time>
      </trkpt>
      <trkpt lat="49.34741" lon="-0.7654">
        <ele>61.103286</ele>
        <time>2022-08-03T15:49:24.000Z</time>
      </trkpt>
      <trkpt lat="49.34742" lon="-0.76532">
        <ele>61.03151</ele>
        <time>2022-08-03T15:49:25.000Z</time>
      </trkpt>
      <trkpt lat="49.34744" lon="-0.76524">
        <ele>60.961372</ele>
        <time>2022-08-03T15:49:26.000Z</time>
      </trkpt>
      <trkpt lat="49.34745" lon="-0.76517">
        <ele>60.896464</ele>
        <time>2022-08-03T15:49:27.000Z</time>
      </trkpt>
      <trkpt lat="49.34747" lon="-0.7651">
        <ele>60.832837</ele>
        <time>2022-08-03T15:49:28.000Z</time>
      </trkpt>
      <trkpt lat="49.34749" lon="-0.76503">
        <ele>60.766949</ele>
        <time>2022-08-03T15:49:29.000Z</time>
      </trkpt>
      <trkpt lat="49.34751" lon="-0.76496">
        <ele>60.704938</ele>
        <time>2022-08-03T15:49:30.000Z</time>
      </trkpt>
      <trkpt lat="49.34753" lon="-0.76489">
        <ele>60.642265</ele>
        <time>2022-08-03T15:49:31.000Z</time>
      </trkpt>
      <trkpt lat="49.34755" lon="-0.76483">
        <ele>60.579833</ele>
        <time>2022-08-03T15:49:32.000Z</time>
      </trkpt>
      <trkpt lat="49.34756" lon="-0.76476">
        <ele>60.521715</ele>
        <time>2022-08-03T15:49:33.000Z</time>
      </trkpt>
      <trkpt lat="49.34758" lon="-0.76469">
        <ele>60.479498</ele>
        <time>2022-08-03T15:49:34.000Z</time>
      </trkpt>
      <trkpt lat="49.34761" lon="-0.76461">
        <ele>60.434076</ele>
        <time>2022-08-03T15:49:35.000Z</time>
      </trkpt>
      <trkpt lat="49.34763" lon="-0.76454">
        <ele>60.389933</ele>
        <time>2022-08-03T15:49:36.000Z</time>
      </trkpt>
      <trkpt lat="49.34765" lon="-0.76447">
        <ele>60.344649</ele>
        <time>2022-08-03T15:49:37.000Z</time>
      </trkpt>
      <trkpt lat="49.34768" lon="-0.76439">
        <ele>60.297352</ele>
        <time>2022-08-03T15:49:38.000Z</time>
      </trkpt>
      <trkpt lat="49.3477" lon="-0.76432">
        <ele>60.252574</ele>
        <time>2022-08-03T15:49:39.000Z</time>
      </trkpt>
      <trkpt lat="49.34772" lon="-0.76425">
        <ele>60.20743</ele>
        <time>2022-08-03T15:49:40.000Z</time>
      </trkpt>
      <trkpt lat="49.34775" lon="-0.76418">
        <ele>60.162009</ele>
        <time>2022-08-03T15:49:41.000Z</time>
      </trkpt>
      <trkpt lat="49.34777" lon="-0.7641">
        <ele>60.116866</ele>
        <time>2022-08-03T15:49:42.000Z</time>
      </trkpt>
      <trkpt lat="49.3478" lon="-0.76403">
        <ele>60.067773</ele>
        <time>2022-08-03T15:49:43.000Z</time>
      </trkpt>
      <trkpt lat="49.34782" lon="-0.76395">
        <ele>60.01949</ele>
        <time>2022-08-03T15:49:44.000Z</time>
      </trkpt>
      <trkpt lat="49.34786" lon="-0.76387">
        <ele>59.969579</ele>
        <time>2022-08-03T15:49:45.000Z</time>
      </trkpt>
      <trkpt lat="49.34789" lon="-0.7638">
        <ele>59.921979</ele>
        <time>2022-08-03T15:49:46.000Z</time>
      </trkpt>
      <trkpt lat="49.34792" lon="-0.76372">
        <ele>59.868201</ele>
        <time>2022-08-03T15:49:47.000Z</time>
      </trkpt>
      <trkpt lat="49.34796" lon="-0.76365">
        <ele>59.816884</ele>
        <time>2022-08-03T15:49:48.000Z</time>
      </trkpt>
      <trkpt lat="49.34798" lon="-0.76356">
        <ele>59.764941</ele>
        <time>2022-08-03T15:49:49.000Z</time>
      </trkpt>
      <trkpt lat="49.34802" lon="-0.76348">
        <ele>59.71083</ele>
        <time>2022-08-03T15:49:50.000Z</time>
      </trkpt>
      <trkpt lat="49.34805" lon="-0.7634">
        <ele>59.657413</ele>
        <time>2022-08-03T15:49:51.000Z</time>
      </trkpt>
      <trkpt lat="49.34809" lon="-0.76332">
        <ele>59.602744</ele>
        <time>2022-08-03T15:49:52.000Z</time>
      </trkpt>
      <trkpt lat="49.34812" lon="-0.76324">
        <ele>59.548156</ele>
        <time>2022-08-03T15:49:53.000Z</time>
      </trkpt>
      <trkpt lat="49.34815" lon="-0.76315">
        <ele>59.496743</ele>
        <time>2022-08-03T15:49:54.000Z</time>
      </trkpt>
      <trkpt lat="49.34818" lon="-0.76307">
        <ele>59.44431</ele>
        <time>2022-08-03T15:49:55.000Z</time>
      </trkpt>
      <trkpt lat="49.3482" lon="-0.76299">
        <ele>59.39494</ele>
        <time>2022-08-03T15:49:56.000Z</time>
      </trkpt>
      <trkpt lat="49.34822" lon="-0.76291">
        <ele>59.344727</ele>
        <time>2022-08-03T15:49:57.000Z</time>
      </trkpt>
      <trkpt lat="49.34825" lon="-0.76282">
        <ele>59.293821</ele>
        <time>2022-08-03T15:49:58.000Z</time>
      </trkpt>
      <trkpt lat="49.34828" lon="-0.76274">
        <ele>59.239167</ele>
        <time>2022-08-03T15:49:59.000Z</time>
      </trkpt>
      <trkpt lat="49.3483" lon="-0.76265">
        <ele>59.185881</ele>
        <time>2022-08-03T15:50:00.000Z</time>
      </trkpt>
      <trkpt lat="49.34833" lon="-0.76256">
        <ele>59.131475</ele>
        <time>2022-08-03T15:50:01.000Z</time>
      </trkpt>
      <trkpt lat="49.34836" lon="-0.76248">
        <ele>59.079556</ele>
        <time>2022-08-03T15:50:02.000Z</time>
      </trkpt>
      <trkpt lat="49.34838" lon="-0.76239">
        <ele>59.027802</ele>
        <time>2022-08-03T15:50:03.000Z</time>
      </trkpt>
      <trkpt lat="49.3484" lon="-0.7623">
        <ele>58.817274</ele>
        <time>2022-08-03T15:50:04.000Z</time>
      </trkpt>
      <trkpt lat="49.34843" lon="-0.76222">
        <ele>58.387942</ele>
        <time>2022-08-03T15:50:05.000Z</time>
      </trkpt>
      <trkpt lat="49.34846" lon="-0.76214">
        <ele>57.962834</ele>
        <time>2022-08-03T15:50:06.000Z</time>
      </trkpt>
      <trkpt lat="49.34849" lon="-0.76205">
        <ele>57.53555</ele>
        <time>2022-08-03T15:50:07.000Z</time>
      </trkpt>
      <trkpt lat="49.34852" lon="-0.76197">
        <ele>57.110443</ele>
        <time>2022-08-03T15:50:08.000Z</time>
      </trkpt>
      <trkpt lat="49.34855" lon="-0.76189">
        <ele>56.665884</ele>
        <time>2022-08-03T15:50:09.000Z</time>
      </trkpt>
      <trkpt lat="49.34857" lon="-0.7618">
        <ele>56.236514</ele>
        <time>2022-08-03T15:50:10.000Z</time>
      </trkpt>
      <trkpt lat="49.3486" lon="-0.76172">
        <ele>55.822339</ele>
        <time>2022-08-03T15:50:11.000Z</time>
      </trkpt>
      <trkpt lat="49.34862" lon="-0.76164">
        <ele>55.417493</ele>
        <time>2022-08-03T15:50:12.000Z</time>
      </trkpt>
      <trkpt lat="49.34865" lon="-0.76156">
        <ele>55.002917</ele>
        <time>2022-08-03T15:50:13.000Z</time>
      </trkpt>
      <trkpt lat="49.34867" lon="-0.76149">
        <ele>54.650973</ele>
        <time>2022-08-03T15:50:14.000Z</time>
      </trkpt>
      <trkpt lat="49.34869" lon="-0.76142">
        <ele>54.334403</ele>
        <time>2022-08-03T15:50:15.000Z</time>
      </trkpt>
      <trkpt lat="49.3487" lon="-0.76135">
        <ele>53.999349</ele>
        <time>2022-08-03T15:50:16.000Z</time>
      </trkpt>
      <trkpt lat="49.34873" lon="-0.76128">
        <ele>53.6462</ele>
        <time>2022-08-03T15:50:17.000Z</time>
      </trkpt>
      <trkpt lat="49.34875" lon="-0.76122">
        <ele>53.331828</ele>
        <time>2022-08-03T15:50:18.000Z</time>
      </trkpt>
      <trkpt lat="49.34877" lon="-0.76116">
        <ele>53.046607</ele>
        <time>2022-08-03T15:50:19.000Z</time>
      </trkpt>
      <trkpt lat="49.34878" lon="-0.7611">
        <ele>52.736186</ele>
        <time>2022-08-03T15:50:20.000Z</time>
      </trkpt>
      <trkpt lat="49.34881" lon="-0.76103">
        <ele>52.360536</ele>
        <time>2022-08-03T15:50:21.000Z</time>
      </trkpt>
      <trkpt lat="49.34883" lon="-0.76095">
        <ele>51.996135</ele>
        <time>2022-08-03T15:50:22.000Z</time>
      </trkpt>
      <trkpt lat="49.34884" lon="-0.76091">
        <ele>51.782974</ele>
        <time>2022-08-03T15:50:23.000Z</time>
      </trkpt>
      <trkpt lat="49.34885" lon="-0.76086">
        <ele>51.526645</ele>
        <time>2022-08-03T15:50:24.000Z</time>
      </trkpt>
      <trkpt lat="49.34887" lon="-0.76081">
        <ele>51.278444</ele>
        <time>2022-08-03T15:50:25.000Z</time>
      </trkpt>
      <trkpt lat="49.34888" lon="-0.76076">
        <ele>51.03045</ele>
        <time>2022-08-03T15:50:26.000Z</time>
      </trkpt>
      <trkpt lat="49.34889" lon="-0.7607">
        <ele>50.771875</ele>
        <time>2022-08-03T15:50:27.000Z</time>
      </trkpt>
      <trkpt lat="49.3489" lon="-0.76065">
        <ele>50.519349</ele>
        <time>2022-08-03T15:50:28.000Z</time>
      </trkpt>
      <trkpt lat="49.3489" lon="-0.76059">
        <ele>50.261235</ele>
        <time>2022-08-03T15:50:29.000Z</time>
      </trkpt>
      <trkpt lat="49.3489" lon="-0.76053">
        <ele>50.00228</ele>
        <time>2022-08-03T15:50:30.000Z</time>
      </trkpt>
      <trkpt lat="49.34889" lon="-0.76048">
        <ele>49.736347</ele>
        <time>2022-08-03T15:50:31.000Z</time>
      </trkpt>
      <trkpt lat="49.34888" lon="-0.76042">
        <ele>49.469235</ele>
        <time>2022-08-03T15:50:32.000Z</time>
      </trkpt>
      <trkpt lat="49.34887" lon="-0.76035">
        <ele>49.146139</ele>
        <time>2022-08-03T15:50:33.000Z</time>
      </trkpt>
      <trkpt lat="49.34886" lon="-0.76029">
        <ele>48.856906</ele>
        <time>2022-08-03T15:50:34.000Z</time>
      </trkpt>
      <trkpt lat="49.34885" lon="-0.76022">
        <ele>48.554469</ele>
        <time>2022-08-03T15:50:35.000Z</time>
      </trkpt>
      <trkpt lat="49.34884" lon="-0.76018">
        <ele>48.363241</ele>
        <time>2022-08-03T15:50:36.000Z</time>
      </trkpt>
      <trkpt lat="49.34884" lon="-0.76014">
        <ele>48.175687</ele>
        <time>2022-08-03T15:50:37.000Z</time>
      </trkpt>
      <trkpt lat="49.34883" lon="-0.7601">
        <ele>47.989814</ele>
        <time>2022-08-03T15:50:38.000Z</time>
      </trkpt>
      <trkpt lat="49.34882" lon="-0.76006">
        <ele>47.800022</ele>
        <time>2022-08-03T15:50:39.000Z</time>
      </trkpt>
      <trkpt lat="49.3488" lon="-0.76003">
        <ele>47.595133</ele>
        <time>2022-08-03T15:50:40.000Z</time>
      </trkpt>
      <trkpt lat="49.34879" lon="-0.76">
        <ele>47.453746</ele>
        <time>2022-08-03T15:50:41.000Z</time>
      </trkpt>
      <trkpt lat="49.34878" lon="-0.75998">
        <ele>47.304433</ele>
        <time>2022-08-03T15:50:42.000Z</time>
      </trkpt>
      <trkpt lat="49.34877" lon="-0.75995">
        <ele>47.172842</ele>
        <time>2022-08-03T15:50:43.000Z</time>
      </trkpt>
      <trkpt lat="49.34877" lon="-0.75992">
        <ele>47.039366</ele>
        <time>2022-08-03T15:50:44.000Z</time>
      </trkpt>
      <trkpt lat="49.34876" lon="-0.75989">
        <ele>46.901925</ele>
        <time>2022-08-03T15:50:45.000Z</time>
      </trkpt>
      <trkpt lat="49.34876" lon="-0.75986">
        <ele>46.763259</ele>
        <time>2022-08-03T15:50:46.000Z</time>
      </trkpt>
      <trkpt lat="49.34876" lon="-0.75983">
        <ele>46.616859</ele>
        <time>2022-08-03T15:50:47.000Z</time>
      </trkpt>
      <trkpt lat="49.34876" lon="-0.7598">
        <ele>46.451349</ele>
        <time>2022-08-03T15:50:48.000Z</time>
      </trkpt>
      <trkpt lat="49.34875" lon="-0.75976">
        <ele>46.068335</ele>
        <time>2022-08-03T15:50:49.000Z</time>
      </trkpt>
      <trkpt lat="49.34874" lon="-0.75973">
        <ele>45.673542</ele>
        <time>2022-08-03T15:50:50.000Z</time>
      </trkpt>
      <trkpt lat="49.34873" lon="-0.7597">
        <ele>45.324006</ele>
        <time>2022-08-03T15:50:51.000Z</time>
      </trkpt>
      <trkpt lat="49.34872" lon="-0.75967">
        <ele>44.986766</ele>
        <time>2022-08-03T15:50:52.000Z</time>
      </trkpt>
      <trkpt lat="49.34872" lon="-0.75964">
        <ele>44.690442</ele>
        <time>2022-08-03T15:50:53.000Z</time>
      </trkpt>
      <trkpt lat="49.34873" lon="-0.7596">
        <ele>44.282694</ele>
        <time>2022-08-03T15:50:54.000Z</time>
      </trkpt>
      <trkpt lat="49.34873" lon="-0.75957">
        <ele>43.898603</ele>
        <time>2022-08-03T15:50:55.000Z</time>
      </trkpt>
      <trkpt lat="49.34874" lon="-0.75953">
        <ele>43.450747</ele>
        <time>2022-08-03T15:50:56.000Z</time>
      </trkpt>
      <trkpt lat="49.34875" lon="-0.75948">
        <ele>42.971412</ele>
        <time>2022-08-03T15:50:57.000Z</time>
      </trkpt>
      <trkpt lat="49.34876" lon="-0.75944">
        <ele>42.537016</ele>
        <time>2022-08-03T15:50:58.000Z</time>
      </trkpt>
      <trkpt lat="49.34876" lon="-0.75941">
        <ele>42.169731</ele>
        <time>2022-08-03T15:50:59.000Z</time>
      </trkpt>
      <trkpt lat="49.34877" lon="-0.75938">
        <ele>41.769769</ele>
        <time>2022-08-03T15:51:00.000Z</time>
      </trkpt>
      <trkpt lat="49.34878" lon="-0.75934">
        <ele>41.326214</ele>
        <time>2022-08-03T15:51:01.000Z</time>
      </trkpt>
      <trkpt lat="49.3488" lon="-0.7593">
        <ele>40.865009</ele>
        <time>2022-08-03T15:51:02.000Z</time>
      </trkpt>
      <trkpt lat="49.34881" lon="-0.75927">
        <ele>40.470216</ele>
        <time>2022-08-03T15:51:03.000Z</time>
      </trkpt>
      <trkpt lat="49.34882" lon="-0.75923">
        <ele>40.072001</ele>
        <time>2022-08-03T15:51:04.000Z</time>
      </trkpt>
      <trkpt lat="49.34883" lon="-0.7592">
        <ele>39.715365</ele>
        <time>2022-08-03T15:51:05.000Z</time>
      </trkpt>
      <trkpt lat="49.34884" lon="-0.75917">
        <ele>39.356189</ele>
        <time>2022-08-03T15:51:06.000Z</time>
      </trkpt>
      <trkpt lat="49.34885" lon="-0.75914">
        <ele>39.00894</ele>
        <time>2022-08-03T15:51:07.000Z</time>
      </trkpt>
      <trkpt lat="49.34886" lon="-0.75909">
        <ele>38.455418</ele>
        <time>2022-08-03T15:51:09.000Z</time>
      </trkpt>
      <trkpt lat="49.34887" lon="-0.75905">
        <ele>37.940831</ele>
        <time>2022-08-03T15:51:11.000Z</time>
      </trkpt>
      <trkpt lat="49.34887" lon="-0.75901">
        <ele>37.538679</ele>
        <time>2022-08-03T15:51:13.000Z</time>
      </trkpt>
      <trkpt lat="49.34887" lon="-0.75898">
        <ele>37.235315</ele>
        <time>2022-08-03T15:51:17.000Z</time>
      </trkpt>
      <trkpt lat="49.34884" lon="-0.75885">
        <ele>35.701343</ele>
        <time>2022-08-03T15:51:25.000Z</time>
      </trkpt>
      <trkpt lat="49.34883" lon="-0.75881">
        <ele>35.303128</ele>
        <time>2022-08-03T15:51:26.000Z</time>
      </trkpt>
      <trkpt lat="49.34882" lon="-0.75877">
        <ele>34.830055</ele>
        <time>2022-08-03T15:51:27.000Z</time>
      </trkpt>
      <trkpt lat="49.34881" lon="-0.75873">
        <ele>34.364666</ele>
        <time>2022-08-03T15:51:28.000Z</time>
      </trkpt>
      <trkpt lat="49.3488" lon="-0.75869">
        <ele>33.862983</ele>
        <time>2022-08-03T15:51:29.000Z</time>
      </trkpt>
      <trkpt lat="49.34878" lon="-0.75864">
        <ele>33.322607</ele>
        <time>2022-08-03T15:51:30.000Z</time>
      </trkpt>
      <trkpt lat="49.34877" lon="-0.75859">
        <ele>32.799352</ele>
        <time>2022-08-03T15:51:31.000Z</time>
      </trkpt>
      <trkpt lat="49.34876" lon="-0.75854">
        <ele>32.225494</ele>
        <time>2022-08-03T15:51:32.000Z</time>
      </trkpt>
      <trkpt lat="49.34875" lon="-0.75849">
        <ele>31.631373</ele>
        <time>2022-08-03T15:51:33.000Z</time>
      </trkpt>
      <trkpt lat="49.34874" lon="-0.75844">
        <ele>31.051796</ele>
        <time>2022-08-03T15:51:34.000Z</time>
      </trkpt>
      <trkpt lat="49.34873" lon="-0.75838">
        <ele>30.45165</ele>
        <time>2022-08-03T15:51:35.000Z</time>
      </trkpt>
      <trkpt lat="49.34872" lon="-0.75833">
        <ele>29.862205</ele>
        <time>2022-08-03T15:51:36.000Z</time>
      </trkpt>
      <trkpt lat="49.34871" lon="-0.75828">
        <ele>29.300264</ele>
        <time>2022-08-03T15:51:37.000Z</time>
      </trkpt>
      <trkpt lat="49.3487" lon="-0.75823">
        <ele>28.720624</ele>
        <time>2022-08-03T15:51:38.000Z</time>
      </trkpt>
      <trkpt lat="49.34869" lon="-0.75817">
        <ele>28.146832</ele>
        <time>2022-08-03T15:51:39.000Z</time>
      </trkpt>
      <trkpt lat="49.34868" lon="-0.75812">
        <ele>27.547493</ele>
        <time>2022-08-03T15:51:40.000Z</time>
      </trkpt>
      <trkpt lat="49.34867" lon="-0.75807">
        <ele>26.953684</ele>
        <time>2022-08-03T15:51:41.000Z</time>
      </trkpt>
      <trkpt lat="49.34866" lon="-0.75801">
        <ele>26.368004</ele>
        <time>2022-08-03T15:51:42.000Z</time>
      </trkpt>
      <trkpt lat="49.34866" lon="-0.75795">
        <ele>25.741709</ele>
        <time>2022-08-03T15:51:43.000Z</time>
      </trkpt>
      <trkpt lat="49.34866" lon="-0.7579">
        <ele>25.157608</ele>
        <time>2022-08-03T15:51:44.000Z</time>
      </trkpt>
      <trkpt lat="49.34866" lon="-0.75785">
        <ele>24.609145</ele>
        <time>2022-08-03T15:51:45.000Z</time>
      </trkpt>
      <trkpt lat="49.34867" lon="-0.75781">
        <ele>24.233083</ele>
        <time>2022-08-03T15:51:46.000Z</time>
      </trkpt>
      <trkpt lat="49.34868" lon="-0.75778">
        <ele>23.834868</ele>
        <time>2022-08-03T15:51:47.000Z</time>
      </trkpt>
      <trkpt lat="49.3487" lon="-0.75774">
        <ele>23.244316</ele>
        <time>2022-08-03T15:51:49.000Z</time>
      </trkpt>
      <trkpt lat="49.34872" lon="-0.75772">
        <ele>22.892262</ele>
        <time>2022-08-03T15:51:51.000Z</time>
      </trkpt>
      <trkpt lat="49.34875" lon="-0.75771">
        <ele>22.348719</ele>
        <time>2022-08-03T15:51:53.000Z</time>
      </trkpt>
      <trkpt lat="49.34877" lon="-0.7577">
        <ele>21.978851</ele>
        <time>2022-08-03T15:51:54.000Z</time>
      </trkpt>
      <trkpt lat="49.34879" lon="-0.75768">
        <ele>21.674286</ele>
        <time>2022-08-03T15:51:55.000Z</time>
      </trkpt>
      <trkpt lat="49.34881" lon="-0.75765">
        <ele>21.173574</ele>
        <time>2022-08-03T15:51:57.000Z</time>
      </trkpt>
      <trkpt lat="49.34884" lon="-0.75763">
        <ele>20.720393</ele>
        <time>2022-08-03T15:51:59.000Z</time>
      </trkpt>
      <trkpt lat="49.34885" lon="-0.75762">
        <ele>20.405271</ele>
        <time>2022-08-03T15:52:00.000Z</time>
      </trkpt>
      <trkpt lat="49.34887" lon="-0.75761">
        <ele>20.066695</ele>
        <time>2022-08-03T15:52:01.000Z</time>
      </trkpt>
      <trkpt lat="49.34889" lon="-0.7576">
        <ele>19.740398</ele>
        <time>2022-08-03T15:52:02.000Z</time>
      </trkpt>
      <trkpt lat="49.34892" lon="-0.75762">
        <ele>19.252471</ele>
        <time>2022-08-03T15:52:03.000Z</time>
      </trkpt>
      <trkpt lat="49.34895" lon="-0.75761">
        <ele>18.83278</ele>
        <time>2022-08-03T15:52:04.000Z</time>
      </trkpt>
      <trkpt lat="49.34897" lon="-0.75759">
        <ele>18.438148</ele>
        <time>2022-08-03T15:52:05.000Z</time>
      </trkpt>
      <trkpt lat="49.34899" lon="-0.75758">
        <ele>18.065415</ele>
        <time>2022-08-03T15:52:06.000Z</time>
      </trkpt>
      <trkpt lat="49.34901" lon="-0.75757">
        <ele>17.692682</ele>
        <time>2022-08-03T15:52:07.000Z</time>
      </trkpt>
      <trkpt lat="49.34903" lon="-0.75756">
        <ele>17.347553</ele>
        <time>2022-08-03T15:52:08.000Z</time>
      </trkpt>
      <trkpt lat="49.34906" lon="-0.75755">
        <ele>17.133799</ele>
        <time>2022-08-03T15:52:09.000Z</time>
      </trkpt>
      <trkpt lat="49.34908" lon="-0.75753">
        <ele>16.973773</ele>
        <time>2022-08-03T15:52:10.000Z</time>
      </trkpt>
      <trkpt lat="49.3491" lon="-0.75752">
        <ele>16.830798</ele>
        <time>2022-08-03T15:52:11.000Z</time>
      </trkpt>
      <trkpt lat="49.34912" lon="-0.7575">
        <ele>16.68327</ele>
        <time>2022-08-03T15:52:12.000Z</time>
      </trkpt>
      <trkpt lat="49.34913" lon="-0.75747">
        <ele>16.553705</ele>
        <time>2022-08-03T15:52:13.000Z</time>
      </trkpt>
      <trkpt lat="49.34914" lon="-0.75744">
        <ele>16.438638</ele>
        <time>2022-08-03T15:52:14.000Z</time>
      </trkpt>
      <trkpt lat="49.34914" lon="-0.75741">
        <ele>16.29169</ele>
        <time>2022-08-03T15:52:15.000Z</time>
      </trkpt>
      <trkpt lat="49.34915" lon="-0.75738">
        <ele>16.147383</ele>
        <time>2022-08-03T15:52:16.000Z</time>
      </trkpt>
      <trkpt lat="49.34915" lon="-0.75734">
        <ele>15.972174</ele>
        <time>2022-08-03T15:52:17.000Z</time>
      </trkpt>
      <trkpt lat="49.34915" lon="-0.75729">
        <ele>15.771016</ele>
        <time>2022-08-03T15:52:18.000Z</time>
      </trkpt>
      <trkpt lat="49.34914" lon="-0.75723">
        <ele>15.529044</ele>
        <time>2022-08-03T15:52:19.000Z</time>
      </trkpt>
      <trkpt lat="49.34914" lon="-0.75719">
        <ele>15.370522</ele>
        <time>2022-08-03T15:52:20.000Z</time>
      </trkpt>
      <trkpt lat="49.34914" lon="-0.75712">
        <ele>15.082678</ele>
        <time>2022-08-03T15:52:21.000Z</time>
      </trkpt>
      <trkpt lat="49.34914" lon="-0.75706">
        <ele>14.83238</ele>
        <time>2022-08-03T15:52:22.000Z</time>
      </trkpt>
      <trkpt lat="49.34914" lon="-0.75701">
        <ele>14.598768</ele>
        <time>2022-08-03T15:52:23.000Z</time>
      </trkpt>
      <trkpt lat="49.34914" lon="-0.75697">
        <ele>14.422508</ele>
        <time>2022-08-03T15:52:24.000Z</time>
      </trkpt>
      <trkpt lat="49.34913" lon="-0.75692">
        <ele>14.218617</ele>
        <time>2022-08-03T15:52:25.000Z</time>
      </trkpt>
      <trkpt lat="49.34912" lon="-0.75687">
        <ele>13.997905</ele>
        <time>2022-08-03T15:52:26.000Z</time>
      </trkpt>
      <trkpt lat="49.34911" lon="-0.75682">
        <ele>13.8022</ele>
        <time>2022-08-03T15:52:27.000Z</time>
      </trkpt>
      <trkpt lat="49.34909" lon="-0.75678">
        <ele>13.595145</ele>
        <time>2022-08-03T15:52:28.000Z</time>
      </trkpt>
      <trkpt lat="49.34908" lon="-0.75675">
        <ele>13.426447</ele>
        <time>2022-08-03T15:52:29.000Z</time>
      </trkpt>
      <trkpt lat="49.34907" lon="-0.75671">
        <ele>13.251078</ele>
        <time>2022-08-03T15:52:30.000Z</time>
      </trkpt>
      <trkpt lat="49.34906" lon="-0.75668">
        <ele>13.107642</ele>
        <time>2022-08-03T15:52:31.000Z</time>
      </trkpt>
      <trkpt lat="49.34904" lon="-0.75666">
        <ele>12.97009</ele>
        <time>2022-08-03T15:52:32.000Z</time>
      </trkpt>
      <trkpt lat="49.34902" lon="-0.75664">
        <ele>12.817688</ele>
        <time>2022-08-03T15:52:33.000Z</time>
      </trkpt>
      <trkpt lat="49.34901" lon="-0.75662">
        <ele>12.699827</ele>
        <time>2022-08-03T15:52:34.000Z</time>
      </trkpt>
      <trkpt lat="49.349" lon="-0.7566">
        <ele>12.581966</ele>
        <time>2022-08-03T15:52:35.000Z</time>
      </trkpt>
      <trkpt lat="49.34898" lon="-0.75656">
        <ele>12.400165</ele>
        <time>2022-08-03T15:52:37.000Z</time>
      </trkpt>
      <trkpt lat="49.34896" lon="-0.75652">
        <ele>12.207896</ele>
        <time>2022-08-03T15:52:39.000Z</time>
      </trkpt>
      <trkpt lat="49.34893" lon="-0.75652">
        <ele>12.020511</ele>
        <time>2022-08-03T15:52:41.000Z</time>
      </trkpt>
      <trkpt lat="49.34892" lon="-0.75654">
        <ele>11.860261</ele>
        <time>2022-08-03T15:52:44.000Z</time>
      </trkpt>
      <trkpt lat="49.34879" lon="-0.75656">
        <ele>11.08255</ele>
        <time>2022-08-03T15:52:50.000Z</time>
      </trkpt>
      <trkpt lat="49.34875" lon="-0.75655">
        <ele>10.812789</ele>
        <time>2022-08-03T15:52:51.000Z</time>
      </trkpt>
      <trkpt lat="49.34871" lon="-0.75655">
        <ele>10.543804</ele>
        <time>2022-08-03T15:52:52.000Z</time>
      </trkpt>
      <trkpt lat="49.34867" lon="-0.75656">
        <ele>10.261272</ele>
        <time>2022-08-03T15:52:53.000Z</time>
      </trkpt>
      <trkpt lat="49.34862" lon="-0.75657">
        <ele>9.949149</ele>
        <time>2022-08-03T15:52:54.000Z</time>
      </trkpt>
      <trkpt lat="49.34858" lon="-0.75658">
        <ele>9.712325</ele>
        <time>2022-08-03T15:52:55.000Z</time>
      </trkpt>
      <trkpt lat="49.34854" lon="-0.7566">
        <ele>9.463891</ele>
        <time>2022-08-03T15:52:56.000Z</time>
      </trkpt>
      <trkpt lat="49.34852" lon="-0.75661">
        <ele>9.267925</ele>
        <time>2022-08-03T15:52:57.000Z</time>
      </trkpt>
      <trkpt lat="49.34849" lon="-0.7566">
        <ele>9.079938</ele>
        <time>2022-08-03T15:52:58.000Z</time>
      </trkpt>
      <trkpt lat="49.34846" lon="-0.75659">
        <ele>8.92898</ele>
        <time>2022-08-03T15:52:59.000Z</time>
      </trkpt>
      <trkpt lat="49.34845" lon="-0.75657">
        <ele>8.811118</ele>
        <time>2022-08-03T15:53:00.000Z</time>
      </trkpt>
      <trkpt lat="49.34844" lon="-0.75654">
        <ele>8.660808</ele>
        <time>2022-08-03T15:53:01.000Z</time>
      </trkpt>
      <trkpt lat="49.34843" lon="-0.7565">
        <ele>8.497694</ele>
        <time>2022-08-03T15:53:02.000Z</time>
      </trkpt>
      <trkpt lat="49.34843" lon="-0.75646">
        <ele>8.322482</ele>
        <time>2022-08-03T15:53:03.000Z</time>
      </trkpt>
      <trkpt lat="49.34843" lon="-0.75642">
        <ele>8.134756</ele>
        <time>2022-08-03T15:53:04.000Z</time>
      </trkpt>
      <trkpt lat="49.34843" lon="-0.75637">
        <ele>7.955373</ele>
        <time>2022-08-03T15:53:05.000Z</time>
      </trkpt>
      <trkpt lat="49.34843" lon="-0.75633">
        <ele>7.788504</ele>
        <time>2022-08-03T15:53:06.000Z</time>
      </trkpt>
      <trkpt lat="49.34843" lon="-0.75629">
        <ele>7.621333</ele>
        <time>2022-08-03T15:53:07.000Z</time>
      </trkpt>
      <trkpt lat="49.34843" lon="-0.75626">
        <ele>7.462808</ele>
        <time>2022-08-03T15:53:08.000Z</time>
      </trkpt>
      <trkpt lat="49.34843" lon="-0.75622">
        <ele>7.29594</ele>
        <time>2022-08-03T15:53:09.000Z</time>
      </trkpt>
      <trkpt lat="49.34843" lon="-0.75618">
        <ele>7.14496</ele>
        <time>2022-08-03T15:53:10.000Z</time>
      </trkpt>
      <trkpt lat="49.34844" lon="-0.75615">
        <ele>7.021995</ele>
        <time>2022-08-03T15:53:11.000Z</time>
      </trkpt>
      <trkpt lat="49.34845" lon="-0.75612">
        <ele>6.881176</ele>
        <time>2022-08-03T15:53:12.000Z</time>
      </trkpt>
      <trkpt lat="49.34845" lon="-0.75609">
        <ele>6.750259</ele>
        <time>2022-08-03T15:53:13.000Z</time>
      </trkpt>
      <trkpt lat="49.34846" lon="-0.75606">
        <ele>6.590825</ele>
        <time>2022-08-03T15:53:15.000Z</time>
      </trkpt>
      <trkpt lat="49.34847" lon="-0.75603">
        <ele>6.471816</ele>
        <time>2022-08-03T15:53:17.000Z</time>
      </trkpt>
      <trkpt lat="49.34848" lon="-0.75598">
        <ele>6.262639</ele>
        <time>2022-08-03T15:53:19.000Z</time>
      </trkpt>
      <trkpt lat="49.34849" lon="-0.75595">
        <ele>6.115785</ele>
        <time>2022-08-03T15:53:20.000Z</time>
      </trkpt>
      <trkpt lat="49.3485" lon="-0.75591">
        <ele>5.91189</ele>
        <time>2022-08-03T15:53:22.000Z</time>
      </trkpt>
      <trkpt lat="49.3485" lon="-0.75586">
        <ele>5.757561</ele>
        <time>2022-08-03T15:53:24.000Z</time>
      </trkpt>
      <trkpt lat="49.3485" lon="-0.75583">
        <ele>5.755462</ele>
        <time>2022-08-03T15:53:25.000Z</time>
      </trkpt>
      <trkpt lat="49.3485" lon="-0.7558">
        <ele>5.753013</ele>
        <time>2022-08-03T15:53:26.000Z</time>
      </trkpt>
      <trkpt lat="49.34849" lon="-0.75576">
        <ele>5.750277</ele>
        <time>2022-08-03T15:53:27.000Z</time>
      </trkpt>
      <trkpt lat="49.34849" lon="-0.75572">
        <ele>5.747715</ele>
        <time>2022-08-03T15:53:28.000Z</time>
      </trkpt>
      <trkpt lat="49.34848" lon="-0.75569">
        <ele>5.745385</ele>
        <time>2022-08-03T15:53:29.000Z</time>
      </trkpt>
      <trkpt lat="49.34849" lon="-0.75566">
        <ele>5.743389</ele>
        <time>2022-08-03T15:53:30.000Z</time>
      </trkpt>
      <trkpt lat="49.34848" lon="-0.75562">
        <ele>5.740175</ele>
        <time>2022-08-03T15:53:32.000Z</time>
      </trkpt>
      <trkpt lat="49.34848" lon="-0.75557">
        <ele>5.736467</ele>
        <time>2022-08-03T15:53:34.000Z</time>
      </trkpt>
      <trkpt lat="49.34849" lon="-0.75552">
        <ele>5.733022</ele>
        <time>2022-08-03T15:53:36.000Z</time>
      </trkpt>
      <trkpt lat="49.34851" lon="-0.75547">
        <ele>5.729449</ele>
        <time>2022-08-03T15:53:38.000Z</time>
      </trkpt>
      <trkpt lat="49.34852" lon="-0.75545">
        <ele>5.727388</ele>
        <time>2022-08-03T15:53:39.000Z</time>
      </trkpt>
      <trkpt lat="49.34853" lon="-0.75542">
        <ele>5.724396</ele>
        <time>2022-08-03T15:53:41.000Z</time>
      </trkpt>
      <trkpt lat="49.34858" lon="-0.75537">
        <ele>5.718703</ele>
        <time>2022-08-03T15:53:59.000Z</time>
      </trkpt>
      <trkpt lat="49.34861" lon="-0.75536">
        <ele>5.715164</ele>
        <time>2022-08-03T15:54:01.000Z</time>
      </trkpt>
      <trkpt lat="49.34863" lon="-0.75536">
        <ele>5.712669</ele>
        <time>2022-08-03T15:54:02.000Z</time>
      </trkpt>
      <trkpt lat="49.34866" lon="-0.75535">
        <ele>5.710297</ele>
        <time>2022-08-03T15:54:03.000Z</time>
      </trkpt>
      <trkpt lat="49.34868" lon="-0.75535">
        <ele>5.707918</ele>
        <time>2022-08-03T15:54:04.000Z</time>
      </trkpt>
      <trkpt lat="49.3487" lon="-0.75535">
        <ele>5.705447</ele>
        <time>2022-08-03T15:54:05.000Z</time>
      </trkpt>
      <trkpt lat="49.34873" lon="-0.75535">
        <ele>5.702332</ele>
        <time>2022-08-03T15:54:06.000Z</time>
      </trkpt>
      <trkpt lat="49.34875" lon="-0.75535">
        <ele>5.699959</ele>
        <time>2022-08-03T15:54:07.000Z</time>
      </trkpt>
      <trkpt lat="49.34878" lon="-0.75535">
        <ele>5.697163</ele>
        <time>2022-08-03T15:54:08.000Z</time>
      </trkpt>
      <trkpt lat="49.3488" lon="-0.75536">
        <ele>5.694735</ele>
        <time>2022-08-03T15:54:09.000Z</time>
      </trkpt>
      <trkpt lat="49.34882" lon="-0.75537">
        <ele>5.692203</ele>
        <time>2022-08-03T15:54:10.000Z</time>
      </trkpt>
      <trkpt lat="49.34885" lon="-0.75538">
        <ele>5.68934</ele>
        <time>2022-08-03T15:54:11.000Z</time>
      </trkpt>
      <trkpt lat="49.34887" lon="-0.7554">
        <ele>5.686808</ele>
        <time>2022-08-03T15:54:12.000Z</time>
      </trkpt>
      <trkpt lat="49.3489" lon="-0.75541">
        <ele>5.683892</ele>
        <time>2022-08-03T15:54:13.000Z</time>
      </trkpt>
      <trkpt lat="49.34892" lon="-0.75542">
        <ele>5.681565</ele>
        <time>2022-08-03T15:54:14.000Z</time>
      </trkpt>
      <trkpt lat="49.34893" lon="-0.75544">
        <ele>5.679348</ele>
        <time>2022-08-03T15:54:15.000Z</time>
      </trkpt>
      <trkpt lat="49.34895" lon="-0.75547">
        <ele>5.677041</ele>
        <time>2022-08-03T15:54:16.000Z</time>
      </trkpt>
      <trkpt lat="49.34896" lon="-0.75549">
        <ele>5.675106</ele>
        <time>2022-08-03T15:54:17.000Z</time>
      </trkpt>
      <trkpt lat="49.34898" lon="-0.75551">
        <ele>5.672166</ele>
        <time>2022-08-03T15:54:19.000Z</time>
      </trkpt>
      <trkpt lat="49.34901" lon="-0.75553">
        <ele>5.668832</ele>
        <time>2022-08-03T15:54:21.000Z</time>
      </trkpt>
      <trkpt lat="49.34904" lon="-0.75555">
        <ele>5.664889</ele>
        <time>2022-08-03T15:54:23.000Z</time>
      </trkpt>
      <trkpt lat="49.34907" lon="-0.75555">
        <ele>5.662093</ele>
        <time>2022-08-03T15:54:24.000Z</time>
      </trkpt>
      <trkpt lat="49.34909" lon="-0.75553">
        <ele>5.659887</ele>
        <time>2022-08-03T15:54:25.000Z</time>
      </trkpt>
      <trkpt lat="49.34911" lon="-0.75548">
        <ele>5.655836</ele>
        <time>2022-08-03T15:54:27.000Z</time>
      </trkpt>
      <trkpt lat="49.34911" lon="-0.75545">
        <ele>5.653607</ele>
        <time>2022-08-03T15:54:28.000Z</time>
      </trkpt>
      <trkpt lat="49.34911" lon="-0.75542">
        <ele>5.651438</ele>
        <time>2022-08-03T15:54:29.000Z</time>
      </trkpt>
      <trkpt lat="49.34912" lon="-0.75539">
        <ele>5.648973</ele>
        <time>2022-08-03T15:54:30.000Z</time>
      </trkpt>
      <trkpt lat="49.34913" lon="-0.75536">
        <ele>5.646552</ele>
        <time>2022-08-03T15:54:31.000Z</time>
      </trkpt>
      <trkpt lat="49.34914" lon="-0.75533">
        <ele>5.644357</ele>
        <time>2022-08-03T15:54:32.000Z</time>
      </trkpt>
      <trkpt lat="49.34914" lon="-0.7553">
        <ele>5.642228</ele>
        <time>2022-08-03T15:54:33.000Z</time>
      </trkpt>
      <trkpt lat="49.34915" lon="-0.75527">
        <ele>5.639807</ele>
        <time>2022-08-03T15:54:34.000Z</time>
      </trkpt>
      <trkpt lat="49.34916" lon="-0.75524">
        <ele>5.637683</ele>
        <time>2022-08-03T15:54:35.000Z</time>
      </trkpt>
      <trkpt lat="49.34916" lon="-0.75521">
        <ele>5.635454</ele>
        <time>2022-08-03T15:54:36.000Z</time>
      </trkpt>
      <trkpt lat="49.34917" lon="-0.75518">
        <ele>5.633258</ele>
        <time>2022-08-03T15:54:37.000Z</time>
      </trkpt>
      <trkpt lat="49.34916" lon="-0.75515">
        <ele>5.631062</ele>
        <time>2022-08-03T15:54:38.000Z</time>
      </trkpt>
      <trkpt lat="49.34916" lon="-0.75512">
        <ele>5.62892</ele>
        <time>2022-08-03T15:54:39.000Z</time>
      </trkpt>
      <trkpt lat="49.34915" lon="-0.75509">
        <ele>5.626791</ele>
        <time>2022-08-03T15:54:40.000Z</time>
      </trkpt>
      <trkpt lat="49.34915" lon="-0.75504">
        <ele>5.623068</ele>
        <time>2022-08-03T15:54:42.000Z</time>
      </trkpt>
      <trkpt lat="49.34916" lon="-0.75499">
        <ele>5.619648</ele>
        <time>2022-08-03T15:54:44.000Z</time>
      </trkpt>
      <trkpt lat="49.34917" lon="-0.75496">
        <ele>5.616619</ele>
        <time>2022-08-03T15:54:46.000Z</time>
      </trkpt>
      <trkpt lat="49.3492" lon="-0.75495">
        <ele>5.613784</ele>
        <time>2022-08-03T15:54:48.000Z</time>
      </trkpt>
      <trkpt lat="49.34923" lon="-0.75493">
        <ele>5.610073</ele>
        <time>2022-08-03T15:54:50.000Z</time>
      </trkpt>
      <trkpt lat="49.34925" lon="-0.75489">
        <ele>5.606885</ele>
        <time>2022-08-03T15:54:52.000Z</time>
      </trkpt>
      <trkpt lat="49.34925" lon="-0.75486">
        <ele>5.604345</ele>
        <time>2022-08-03T15:54:54.000Z</time>
      </trkpt>
      <trkpt lat="49.34927" lon="-0.75473">
        <ele>5.595432</ele>
        <time>2022-08-03T15:55:23.000Z</time>
      </trkpt>
      <trkpt lat="49.34927" lon="-0.75469">
        <ele>5.592143</ele>
        <time>2022-08-03T15:55:24.000Z</time>
      </trkpt>
      <trkpt lat="49.34928" lon="-0.75464">
        <ele>5.588702</ele>
        <time>2022-08-03T15:55:25.000Z</time>
      </trkpt>
      <trkpt lat="49.34929" lon="-0.75459">
        <ele>5.584935</ele>
        <time>2022-08-03T15:55:26.000Z</time>
      </trkpt>
      <trkpt lat="49.34931" lon="-0.75454">
        <ele>5.581348</ele>
        <time>2022-08-03T15:55:27.000Z</time>
      </trkpt>
      <trkpt lat="49.34933" lon="-0.7545">
        <ele>5.577596</ele>
        <time>2022-08-03T15:55:28.000Z</time>
      </trkpt>
      <trkpt lat="49.34935" lon="-0.75446">
        <ele>5.573717</ele>
        <time>2022-08-03T15:55:29.000Z</time>
      </trkpt>
      <trkpt lat="49.34938" lon="-0.75443">
        <ele>5.570223</ele>
        <time>2022-08-03T15:55:30.000Z</time>
      </trkpt>
      <trkpt lat="49.34941" lon="-0.75441">
        <ele>5.566586</ele>
        <time>2022-08-03T15:55:31.000Z</time>
      </trkpt>
      <trkpt lat="49.34944" lon="-0.7544">
        <ele>5.566083</ele>
        <time>2022-08-03T15:55:32.000Z</time>
      </trkpt>
      <trkpt lat="49.34947" lon="-0.75439">
        <ele>5.568161</ele>
        <time>2022-08-03T15:55:33.000Z</time>
      </trkpt>
      <trkpt lat="49.3495" lon="-0.7544">
        <ele>5.570229</ele>
        <time>2022-08-03T15:55:34.000Z</time>
      </trkpt>
      <trkpt lat="49.34953" lon="-0.75439">
        <ele>5.572114</ele>
        <time>2022-08-03T15:55:35.000Z</time>
      </trkpt>
      <trkpt lat="49.34957" lon="-0.75438">
        <ele>5.574394</ele>
        <time>2022-08-03T15:55:36.000Z</time>
      </trkpt>
      <trkpt lat="49.3496" lon="-0.75437">
        <ele>5.576323</ele>
        <time>2022-08-03T15:55:37.000Z</time>
      </trkpt>
      <trkpt lat="49.34963" lon="-0.75436">
        <ele>5.578472</ele>
        <time>2022-08-03T15:55:38.000Z</time>
      </trkpt>
      <trkpt lat="49.34965" lon="-0.75435">
        <ele>5.580152</ele>
        <time>2022-08-03T15:55:39.000Z</time>
      </trkpt>
      <trkpt lat="49.34969" lon="-0.75434">
        <ele>5.582261</ele>
        <time>2022-08-03T15:55:40.000Z</time>
      </trkpt>
      <trkpt lat="49.34972" lon="-0.75433">
        <ele>5.584172</ele>
        <time>2022-08-03T15:55:41.000Z</time>
      </trkpt>
      <trkpt lat="49.34975" lon="-0.75432">
        <ele>5.58629</ele>
        <time>2022-08-03T15:55:42.000Z</time>
      </trkpt>
      <trkpt lat="49.34978" lon="-0.7543">
        <ele>5.588253</ele>
        <time>2022-08-03T15:55:43.000Z</time>
      </trkpt>
      <trkpt lat="49.3498" lon="-0.75429">
        <ele>5.590063</ele>
        <time>2022-08-03T15:55:44.000Z</time>
      </trkpt>
      <trkpt lat="49.34983" lon="-0.75428">
        <ele>5.591754</ele>
        <time>2022-08-03T15:55:45.000Z</time>
      </trkpt>
      <trkpt lat="49.34985" lon="-0.75426">
        <ele>5.593548</ele>
        <time>2022-08-03T15:55:46.000Z</time>
      </trkpt>
      <trkpt lat="49.34989" lon="-0.75424">
        <ele>5.595735</ele>
        <time>2022-08-03T15:55:47.000Z</time>
      </trkpt>
      <trkpt lat="49.34991" lon="-0.75423">
        <ele>5.597469</ele>
        <time>2022-08-03T15:55:48.000Z</time>
      </trkpt>
      <trkpt lat="49.34994" lon="-0.75422">
        <ele>5.599235</ele>
        <time>2022-08-03T15:55:49.000Z</time>
      </trkpt>
      <trkpt lat="49.34997" lon="-0.7542">
        <ele>5.601363</ele>
        <time>2022-08-03T15:55:50.000Z</time>
      </trkpt>
      <trkpt lat="49.35" lon="-0.7542">
        <ele>5.603457</ele>
        <time>2022-08-03T15:55:51.000Z</time>
      </trkpt>
      <trkpt lat="49.35003" lon="-0.75419">
        <ele>5.605162</ele>
        <time>2022-08-03T15:55:52.000Z</time>
      </trkpt>
      <trkpt lat="49.35005" lon="-0.75418">
        <ele>5.606987</ele>
        <time>2022-08-03T15:55:53.000Z</time>
      </trkpt>
      <trkpt lat="49.35008" lon="-0.75418">
        <ele>5.608872</ele>
        <time>2022-08-03T15:55:54.000Z</time>
      </trkpt>
      <trkpt lat="49.35011" lon="-0.75417">
        <ele>5.610757</ele>
        <time>2022-08-03T15:55:55.000Z</time>
      </trkpt>
      <trkpt lat="49.35014" lon="-0.75417">
        <ele>5.612642</ele>
        <time>2022-08-03T15:55:56.000Z</time>
      </trkpt>
      <trkpt lat="49.35017" lon="-0.75416">
        <ele>5.61427</ele>
        <time>2022-08-03T15:55:57.000Z</time>
      </trkpt>
      <trkpt lat="49.35019" lon="-0.75416">
        <ele>5.615963</ele>
        <time>2022-08-03T15:55:58.000Z</time>
      </trkpt>
      <trkpt lat="49.35022" lon="-0.75415">
        <ele>5.617847</ele>
        <time>2022-08-03T15:55:59.000Z</time>
      </trkpt>
      <trkpt lat="49.35025" lon="-0.75414">
        <ele>5.619758</ele>
        <time>2022-08-03T15:56:00.000Z</time>
      </trkpt>
      <trkpt lat="49.35027" lon="-0.75414">
        <ele>5.621218</ele>
        <time>2022-08-03T15:56:01.000Z</time>
      </trkpt>
      <trkpt lat="49.3503" lon="-0.75413">
        <ele>5.623138</ele>
        <time>2022-08-03T15:56:02.000Z</time>
      </trkpt>
      <trkpt lat="49.35033" lon="-0.75412">
        <ele>5.624807</ele>
        <time>2022-08-03T15:56:03.000Z</time>
      </trkpt>
      <trkpt lat="49.35035" lon="-0.7541">
        <ele>5.626421</ele>
        <time>2022-08-03T15:56:04.000Z</time>
      </trkpt>
      <trkpt lat="49.35037" lon="-0.75408">
        <ele>5.627984</ele>
        <time>2022-08-03T15:56:05.000Z</time>
      </trkpt>
      <trkpt lat="49.35038" lon="-0.75405">
        <ele>5.6295</ele>
        <time>2022-08-03T15:56:06.000Z</time>
      </trkpt>
      <trkpt lat="49.35038" lon="-0.75401">
        <ele>5.630985</ele>
        <time>2022-08-03T15:56:07.000Z</time>
      </trkpt>
      <trkpt lat="49.35038" lon="-0.75398">
        <ele>5.632428</ele>
        <time>2022-08-03T15:56:09.000Z</time>
      </trkpt>
      <trkpt lat="49.35045" lon="-0.75403">
        <ele>5.637145</ele>
        <time>2022-08-03T15:56:38.000Z</time>
      </trkpt>
      <trkpt lat="49.35048" lon="-0.75403">
        <ele>5.639219</ele>
        <time>2022-08-03T15:56:40.000Z</time>
      </trkpt>
      <trkpt lat="49.3505" lon="-0.75402">
        <ele>5.640679</ele>
        <time>2022-08-03T15:56:42.000Z</time>
      </trkpt>
      <trkpt lat="49.35053" lon="-0.754">
        <ele>5.642787</ele>
        <time>2022-08-03T15:56:44.000Z</time>
      </trkpt>
      <trkpt lat="49.35055" lon="-0.75396">
        <ele>5.644804</ele>
        <time>2022-08-03T15:56:46.000Z</time>
      </trkpt>
      <trkpt lat="49.35057" lon="-0.75395">
        <ele>5.646037</ele>
        <time>2022-08-03T15:56:47.000Z</time>
      </trkpt>
      <trkpt lat="49.35058" lon="-0.75393">
        <ele>5.647226</ele>
        <time>2022-08-03T15:56:48.000Z</time>
      </trkpt>
      <trkpt lat="49.35061" lon="-0.75393">
        <ele>5.648749</ele>
        <time>2022-08-03T15:56:49.000Z</time>
      </trkpt>
      <trkpt lat="49.35062" lon="-0.75392">
        <ele>5.64998</ele>
        <time>2022-08-03T15:56:50.000Z</time>
      </trkpt>
      <trkpt lat="49.35064" lon="-0.75393">
        <ele>5.651218</ele>
        <time>2022-08-03T15:56:51.000Z</time>
      </trkpt>
      <trkpt lat="49.35068" lon="-0.75394">
        <ele>5.653565</ele>
        <time>2022-08-03T15:56:53.000Z</time>
      </trkpt>
      <trkpt lat="49.35071" lon="-0.75397">
        <ele>5.655884</ele>
        <time>2022-08-03T15:56:55.000Z</time>
      </trkpt>
      <trkpt lat="49.35073" lon="-0.75398">
        <ele>5.657095</ele>
        <time>2022-08-03T15:56:56.000Z</time>
      </trkpt>
      <trkpt lat="49.35075" lon="-0.75399">
        <ele>5.658467</ele>
        <time>2022-08-03T15:56:57.000Z</time>
      </trkpt>
      <trkpt lat="49.35077" lon="-0.754">
        <ele>5.659949</ele>
        <time>2022-08-03T15:56:58.000Z</time>
      </trkpt>
      <trkpt lat="49.35079" lon="-0.75401">
        <ele>5.661211</ele>
        <time>2022-08-03T15:56:59.000Z</time>
      </trkpt>
      <trkpt lat="49.35082" lon="-0.75402">
        <ele>5.663131</ele>
        <time>2022-08-03T15:57:00.000Z</time>
      </trkpt>
      <trkpt lat="49.35084" lon="-0.75403">
        <ele>5.664613</ele>
        <time>2022-08-03T15:57:01.000Z</time>
      </trkpt>
      <trkpt lat="49.35086" lon="-0.75404">
        <ele>5.666182</ele>
        <time>2022-08-03T15:57:02.000Z</time>
      </trkpt>
      <trkpt lat="49.35088" lon="-0.75406">
        <ele>5.667833</ele>
        <time>2022-08-03T15:57:03.000Z</time>
      </trkpt>
      <trkpt lat="49.35091" lon="-0.75408">
        <ele>5.66954</ele>
        <time>2022-08-03T15:57:04.000Z</time>
      </trkpt>
      <trkpt lat="49.35093" lon="-0.7541">
        <ele>5.671192</ele>
        <time>2022-08-03T15:57:05.000Z</time>
      </trkpt>
      <trkpt lat="49.35095" lon="-0.75412">
        <ele>5.672986</ele>
        <time>2022-08-03T15:57:06.000Z</time>
      </trkpt>
      <trkpt lat="49.35098" lon="-0.75413">
        <ele>5.674735</ele>
        <time>2022-08-03T15:57:07.000Z</time>
      </trkpt>
      <trkpt lat="49.351" lon="-0.75415">
        <ele>5.676349</ele>
        <time>2022-08-03T15:57:08.000Z</time>
      </trkpt>
      <trkpt lat="49.35103" lon="-0.75416">
        <ele>5.678068</ele>
        <time>2022-08-03T15:57:09.000Z</time>
      </trkpt>
      <trkpt lat="49.35105" lon="-0.75418">
        <ele>5.679862</ele>
        <time>2022-08-03T15:57:10.000Z</time>
      </trkpt>
      <trkpt lat="49.35108" lon="-0.7542">
        <ele>5.682539</ele>
        <time>2022-08-03T15:57:11.000Z</time>
      </trkpt>
      <trkpt lat="49.3511" lon="-0.75421">
        <ele>5.688943</ele>
        <time>2022-08-03T15:57:12.000Z</time>
      </trkpt>
      <trkpt lat="49.35112" lon="-0.75423">
        <ele>5.695333</ele>
        <time>2022-08-03T15:57:13.000Z</time>
      </trkpt>
      <trkpt lat="49.35114" lon="-0.75425">
        <ele>5.701645</ele>
        <time>2022-08-03T15:57:14.000Z</time>
      </trkpt>
      <trkpt lat="49.35116" lon="-0.75426">
        <ele>5.707036</ele>
        <time>2022-08-03T15:57:15.000Z</time>
      </trkpt>
      <trkpt lat="49.35118" lon="-0.75427">
        <ele>5.713078</ele>
        <time>2022-08-03T15:57:16.000Z</time>
      </trkpt>
      <trkpt lat="49.35121" lon="-0.75428">
        <ele>5.720921</ele>
        <time>2022-08-03T15:57:17.000Z</time>
      </trkpt>
      <trkpt lat="49.35124" lon="-0.7543">
        <ele>5.726905</ele>
        <time>2022-08-03T15:57:18.000Z</time>
      </trkpt>
      <trkpt lat="49.35125" lon="-0.75431">
        <ele>5.732236</ele>
        <time>2022-08-03T15:57:19.000Z</time>
      </trkpt>
      <trkpt lat="49.35127" lon="-0.75432">
        <ele>5.737941</ele>
        <time>2022-08-03T15:57:20.000Z</time>
      </trkpt>
      <trkpt lat="49.3513" lon="-0.75435">
        <ele>5.746598</ele>
        <time>2022-08-03T15:57:22.000Z</time>
      </trkpt>
      <trkpt lat="49.35132" lon="-0.75436">
        <ele>5.751989</ele>
        <time>2022-08-03T15:57:23.000Z</time>
      </trkpt>
      <trkpt lat="49.35134" lon="-0.75437">
        <ele>5.757689</ele>
        <time>2022-08-03T15:57:24.000Z</time>
      </trkpt>
      <trkpt lat="49.35138" lon="-0.75436">
        <ele>5.766698</ele>
        <time>2022-08-03T15:57:26.000Z</time>
      </trkpt>
      <trkpt lat="49.3514" lon="-0.75436">
        <ele>5.771568</ele>
        <time>2022-08-03T15:57:27.000Z</time>
      </trkpt>
      <trkpt lat="49.35142" lon="-0.75435">
        <ele>5.778686</ele>
        <time>2022-08-03T15:57:29.000Z</time>
      </trkpt>
      <trkpt lat="49.35145" lon="-0.75434">
        <ele>5.786149</ele>
        <time>2022-08-03T15:57:31.000Z</time>
      </trkpt>
      <trkpt lat="49.35152" lon="-0.75443">
        <ele>5.80773</ele>
        <time>2022-08-03T16:02:18.000Z</time>
      </trkpt>
      <trkpt lat="49.35153" lon="-0.75445">
        <ele>5.812814</ele>
        <time>2022-08-03T16:02:20.000Z</time>
      </trkpt>
      <trkpt lat="49.35155" lon="-0.75445">
        <ele>5.817821</ele>
        <time>2022-08-03T16:02:23.000Z</time>
      </trkpt>
      <trkpt lat="49.35132" lon="-0.75433">
        <ele>5.880081</ele>
        <time>2022-08-03T16:04:31.000Z</time>
      </trkpt>
      <trkpt lat="49.35129" lon="-0.75432">
        <ele>5.889429</ele>
        <time>2022-08-03T16:04:32.000Z</time>
      </trkpt>
      <trkpt lat="49.35125" lon="-0.75432">
        <ele>5.900022</ele>
        <time>2022-08-03T16:04:33.000Z</time>
      </trkpt>
      <trkpt lat="49.3512" lon="-0.7543">
        <ele>5.912576</ele>
        <time>2022-08-03T16:04:34.000Z</time>
      </trkpt>
      <trkpt lat="49.35115" lon="-0.75428">
        <ele>5.926297</ele>
        <time>2022-08-03T16:04:35.000Z</time>
      </trkpt>
      <trkpt lat="49.35109" lon="-0.75425">
        <ele>5.940366</ele>
        <time>2022-08-03T16:04:36.000Z</time>
      </trkpt>
      <trkpt lat="49.35105" lon="-0.75422">
        <ele>5.95208</ele>
        <time>2022-08-03T16:04:37.000Z</time>
      </trkpt>
      <trkpt lat="49.35101" lon="-0.75418">
        <ele>5.965628</ele>
        <time>2022-08-03T16:04:38.000Z</time>
      </trkpt>
      <trkpt lat="49.35096" lon="-0.75415">
        <ele>5.977572</ele>
        <time>2022-08-03T16:04:39.000Z</time>
      </trkpt>
      <trkpt lat="49.35092" lon="-0.75413">
        <ele>5.988879</ele>
        <time>2022-08-03T16:04:40.000Z</time>
      </trkpt>
      <trkpt lat="49.35088" lon="-0.7541">
        <ele>5.999648</ele>
        <time>2022-08-03T16:04:41.000Z</time>
      </trkpt>
      <trkpt lat="49.35084" lon="-0.75408">
        <ele>6.011149</ele>
        <time>2022-08-03T16:04:42.000Z</time>
      </trkpt>
      <trkpt lat="49.35081" lon="-0.75406">
        <ele>6.020961</ele>
        <time>2022-08-03T16:04:43.000Z</time>
      </trkpt>
      <trkpt lat="49.35077" lon="-0.75404">
        <ele>6.02964</ele>
        <time>2022-08-03T16:04:44.000Z</time>
      </trkpt>
      <trkpt lat="49.35074" lon="-0.75403">
        <ele>6.037949</ele>
        <time>2022-08-03T16:04:45.000Z</time>
      </trkpt>
      <trkpt lat="49.35071" lon="-0.75403">
        <ele>6.046193</ele>
        <time>2022-08-03T16:04:46.000Z</time>
      </trkpt>
      <trkpt lat="49.35069" lon="-0.75402">
        <ele>6.052706</ele>
        <time>2022-08-03T16:04:47.000Z</time>
      </trkpt>
      <trkpt lat="49.35066" lon="-0.75402">
        <ele>6.059378</ele>
        <time>2022-08-03T16:04:48.000Z</time>
      </trkpt>
      <trkpt lat="49.35063" lon="-0.75402">
        <ele>6.066818</ele>
        <time>2022-08-03T16:04:49.000Z</time>
      </trkpt>
      <trkpt lat="49.35061" lon="-0.75403">
        <ele>6.073245</ele>
        <time>2022-08-03T16:04:50.000Z</time>
      </trkpt>
      <trkpt lat="49.35058" lon="-0.75403">
        <ele>6.07914</ele>
        <time>2022-08-03T16:04:51.000Z</time>
      </trkpt>
      <trkpt lat="49.35056" lon="-0.75402">
        <ele>6.084788</ele>
        <time>2022-08-03T16:04:52.000Z</time>
      </trkpt>
      <trkpt lat="49.35054" lon="-0.75402">
        <ele>6.089684</ele>
        <time>2022-08-03T16:04:53.000Z</time>
      </trkpt>
      <trkpt lat="49.35052" lon="-0.75402">
        <ele>6.095588</ele>
        <time>2022-08-03T16:04:54.000Z</time>
      </trkpt>
      <trkpt lat="49.35049" lon="-0.75403">
        <ele>6.102073</ele>
        <time>2022-08-03T16:04:55.000Z</time>
      </trkpt>
      <trkpt lat="49.35046" lon="-0.75405">
        <ele>6.111588</ele>
        <time>2022-08-03T16:04:57.000Z</time>
      </trkpt>
      <trkpt lat="49.35044" lon="-0.75406">
        <ele>6.116979</ele>
        <time>2022-08-03T16:04:58.000Z</time>
      </trkpt>
      <trkpt lat="49.35042" lon="-0.75406">
        <ele>6.121919</ele>
        <time>2022-08-03T16:04:59.000Z</time>
      </trkpt>
      <trkpt lat="49.3504" lon="-0.75406">
        <ele>6.126792</ele>
        <time>2022-08-03T16:05:00.000Z</time>
      </trkpt>
      <trkpt lat="49.35038" lon="-0.75406">
        <ele>6.13243</ele>
        <time>2022-08-03T16:05:01.000Z</time>
      </trkpt>
      <trkpt lat="49.35036" lon="-0.75407">
        <ele>6.137567</ele>
        <time>2022-08-03T16:05:02.000Z</time>
      </trkpt>
      <trkpt lat="49.35034" lon="-0.75407">
        <ele>6.142095</ele>
        <time>2022-08-03T16:05:03.000Z</time>
      </trkpt>
      <trkpt lat="49.35032" lon="-0.75408">
        <ele>6.142095</ele>
        <time>2022-08-03T16:05:04.000Z</time>
      </trkpt>
      <trkpt lat="49.3503" lon="-0.75409">
        <ele>6.142095</ele>
        <time>2022-08-03T16:05:05.000Z</time>
      </trkpt>
      <trkpt lat="49.35028" lon="-0.7541">
        <ele>6.142095</ele>
        <time>2022-08-03T16:05:06.000Z</time>
      </trkpt>
      <trkpt lat="49.35026" lon="-0.7541">
        <ele>6.142095</ele>
        <time>2022-08-03T16:05:07.000Z</time>
      </trkpt>
      <trkpt lat="49.35023" lon="-0.75411">
        <ele>6.142095</ele>
        <time>2022-08-03T16:05:09.000Z</time>
      </trkpt>
      <trkpt lat="49.35021" lon="-0.75411">
        <ele>6.142095</ele>
        <time>2022-08-03T16:05:10.000Z</time>
      </trkpt>
      <trkpt lat="49.35019" lon="-0.75412">
        <ele>6.142095</ele>
        <time>2022-08-03T16:05:11.000Z</time>
      </trkpt>
      <trkpt lat="49.35017" lon="-0.75413">
        <ele>6.142095</ele>
        <time>2022-08-03T16:05:12.000Z</time>
      </trkpt>
      <trkpt lat="49.35014" lon="-0.75413">
        <ele>6.142095</ele>
        <time>2022-08-03T16:05:13.000Z</time>
      </trkpt>
      <trkpt lat="49.35012" lon="-0.75414">
        <ele>6.142095</ele>
        <time>2022-08-03T16:05:14.000Z</time>
      </trkpt>
      <trkpt lat="49.3501" lon="-0.75414">
        <ele>6.142095</ele>
        <time>2022-08-03T16:05:15.000Z</time>
      </trkpt>
      <trkpt lat="49.35008" lon="-0.75416">
        <ele>6.142095</ele>
        <time>2022-08-03T16:05:16.000Z</time>
      </trkpt>
      <trkpt lat="49.35005" lon="-0.75416">
        <ele>6.142095</ele>
        <time>2022-08-03T16:05:17.000Z</time>
      </trkpt>
      <trkpt lat="49.35004" lon="-0.75416">
        <ele>6.142095</ele>
        <time>2022-08-03T16:05:18.000Z</time>
      </trkpt>
      <trkpt lat="49.35001" lon="-0.75417">
        <ele>6.142095</ele>
        <time>2022-08-03T16:05:19.000Z</time>
      </trkpt>
      <trkpt lat="49.34999" lon="-0.75417">
        <ele>6.142095</ele>
        <time>2022-08-03T16:05:20.000Z</time>
      </trkpt>
      <trkpt lat="49.34997" lon="-0.75418">
        <ele>6.142095</ele>
        <time>2022-08-03T16:05:21.000Z</time>
      </trkpt>
      <trkpt lat="49.34995" lon="-0.7542">
        <ele>6.142095</ele>
        <time>2022-08-03T16:05:22.000Z</time>
      </trkpt>
      <trkpt lat="49.34993" lon="-0.75421">
        <ele>6.142095</ele>
        <time>2022-08-03T16:05:23.000Z</time>
      </trkpt>
      <trkpt lat="49.34991" lon="-0.75421">
        <ele>6.142095</ele>
        <time>2022-08-03T16:05:24.000Z</time>
      </trkpt>
      <trkpt lat="49.34988" lon="-0.75422">
        <ele>6.142095</ele>
        <time>2022-08-03T16:05:26.000Z</time>
      </trkpt>
      <trkpt lat="49.34985" lon="-0.75423">
        <ele>6.142095</ele>
        <time>2022-08-03T16:05:28.000Z</time>
      </trkpt>
      <trkpt lat="49.34983" lon="-0.75422">
        <ele>6.142095</ele>
        <time>2022-08-03T16:05:30.000Z</time>
      </trkpt>
      <trkpt lat="49.34977" lon="-0.75428">
        <ele>6.142095</ele>
        <time>2022-08-03T16:06:29.000Z</time>
      </trkpt>
      <trkpt lat="49.34975" lon="-0.75429">
        <ele>6.142095</ele>
        <time>2022-08-03T16:06:30.000Z</time>
      </trkpt>
      <trkpt lat="49.34972" lon="-0.75431">
        <ele>6.142095</ele>
        <time>2022-08-03T16:06:31.000Z</time>
      </trkpt>
      <trkpt lat="49.34968" lon="-0.75432">
        <ele>6.142095</ele>
        <time>2022-08-03T16:06:32.000Z</time>
      </trkpt>
      <trkpt lat="49.34965" lon="-0.75434">
        <ele>6.142095</ele>
        <time>2022-08-03T16:06:33.000Z</time>
      </trkpt>
      <trkpt lat="49.34961" lon="-0.75435">
        <ele>6.142095</ele>
        <time>2022-08-03T16:06:34.000Z</time>
      </trkpt>
      <trkpt lat="49.34958" lon="-0.75437">
        <ele>6.142095</ele>
        <time>2022-08-03T16:06:35.000Z</time>
      </trkpt>
      <trkpt lat="49.34955" lon="-0.75439">
        <ele>6.142095</ele>
        <time>2022-08-03T16:06:36.000Z</time>
      </trkpt>
      <trkpt lat="49.34952" lon="-0.75441">
        <ele>6.142095</ele>
        <time>2022-08-03T16:06:37.000Z</time>
      </trkpt>
      <trkpt lat="49.34949" lon="-0.75444">
        <ele>6.142095</ele>
        <time>2022-08-03T16:06:38.000Z</time>
      </trkpt>
      <trkpt lat="49.34947" lon="-0.75448">
        <ele>6.142095</ele>
        <time>2022-08-03T16:06:39.000Z</time>
      </trkpt>
      <trkpt lat="49.34944" lon="-0.75452">
        <ele>6.142095</ele>
        <time>2022-08-03T16:06:40.000Z</time>
      </trkpt>
      <trkpt lat="49.34943" lon="-0.75458">
        <ele>6.142095</ele>
        <time>2022-08-03T16:06:41.000Z</time>
      </trkpt>
      <trkpt lat="49.34942" lon="-0.75463">
        <ele>6.142095</ele>
        <time>2022-08-03T16:06:42.000Z</time>
      </trkpt>
      <trkpt lat="49.34942" lon="-0.75469">
        <ele>6.142095</ele>
        <time>2022-08-03T16:06:43.000Z</time>
      </trkpt>
      <trkpt lat="49.34942" lon="-0.75474">
        <ele>6.142095</ele>
        <time>2022-08-03T16:06:44.000Z</time>
      </trkpt>
      <trkpt lat="49.34942" lon="-0.75479">
        <ele>6.142095</ele>
        <time>2022-08-03T16:06:45.000Z</time>
      </trkpt>
      <trkpt lat="49.34943" lon="-0.75484">
        <ele>6.142095</ele>
        <time>2022-08-03T16:06:46.000Z</time>
      </trkpt>
      <trkpt lat="49.34943" lon="-0.75489">
        <ele>6.142095</ele>
        <time>2022-08-03T16:06:47.000Z</time>
      </trkpt>
      <trkpt lat="49.34943" lon="-0.75493">
        <ele>6.142095</ele>
        <time>2022-08-03T16:06:48.000Z</time>
      </trkpt>
      <trkpt lat="49.34943" lon="-0.75496">
        <ele>6.142095</ele>
        <time>2022-08-03T16:06:49.000Z</time>
      </trkpt>
      <trkpt lat="49.34941" lon="-0.75499">
        <ele>6.142095</ele>
        <time>2022-08-03T16:06:50.000Z</time>
      </trkpt>
      <trkpt lat="49.3494" lon="-0.755">
        <ele>6.142095</ele>
        <time>2022-08-03T16:06:51.000Z</time>
      </trkpt>
      <trkpt lat="49.34937" lon="-0.75501">
        <ele>6.142095</ele>
        <time>2022-08-03T16:06:53.000Z</time>
      </trkpt>
      <trkpt lat="49.34935" lon="-0.75501">
        <ele>6.142095</ele>
        <time>2022-08-03T16:06:56.000Z</time>
      </trkpt>
      <trkpt lat="49.34932" lon="-0.7551">
        <ele>6.142095</ele>
        <time>2022-08-03T16:07:12.000Z</time>
      </trkpt>
      <trkpt lat="49.34929" lon="-0.75513">
        <ele>6.142095</ele>
        <time>2022-08-03T16:07:14.000Z</time>
      </trkpt>
      <trkpt lat="49.34927" lon="-0.75513">
        <ele>6.142095</ele>
        <time>2022-08-03T16:07:15.000Z</time>
      </trkpt>
      <trkpt lat="49.34924" lon="-0.75514">
        <ele>6.142095</ele>
        <time>2022-08-03T16:07:17.000Z</time>
      </trkpt>
      <trkpt lat="49.34922" lon="-0.75515">
        <ele>6.142095</ele>
        <time>2022-08-03T16:07:18.000Z</time>
      </trkpt>
      <trkpt lat="49.34919" lon="-0.75517">
        <ele>6.142095</ele>
        <time>2022-08-03T16:07:19.000Z</time>
      </trkpt>
      <trkpt lat="49.34917" lon="-0.7552">
        <ele>6.142095</ele>
        <time>2022-08-03T16:07:20.000Z</time>
      </trkpt>
      <trkpt lat="49.34916" lon="-0.75524">
        <ele>6.142095</ele>
        <time>2022-08-03T16:07:21.000Z</time>
      </trkpt>
      <trkpt lat="49.34914" lon="-0.75528">
        <ele>6.142095</ele>
        <time>2022-08-03T16:07:22.000Z</time>
      </trkpt>
      <trkpt lat="49.34913" lon="-0.75533">
        <ele>6.142095</ele>
        <time>2022-08-03T16:07:23.000Z</time>
      </trkpt>
      <trkpt lat="49.34912" lon="-0.75538">
        <ele>6.142095</ele>
        <time>2022-08-03T16:07:24.000Z</time>
      </trkpt>
      <trkpt lat="49.34911" lon="-0.75542">
        <ele>6.142095</ele>
        <time>2022-08-03T16:07:25.000Z</time>
      </trkpt>
      <trkpt lat="49.3491" lon="-0.75546">
        <ele>6.142095</ele>
        <time>2022-08-03T16:07:26.000Z</time>
      </trkpt>
      <trkpt lat="49.34909" lon="-0.75549">
        <ele>6.142095</ele>
        <time>2022-08-03T16:07:27.000Z</time>
      </trkpt>
      <trkpt lat="49.34908" lon="-0.75552">
        <ele>6.142095</ele>
        <time>2022-08-03T16:07:28.000Z</time>
      </trkpt>
      <trkpt lat="49.34907" lon="-0.75556">
        <ele>6.142095</ele>
        <time>2022-08-03T16:07:30.000Z</time>
      </trkpt>
      <trkpt lat="49.34908" lon="-0.7556">
        <ele>6.142095</ele>
        <time>2022-08-03T16:07:32.000Z</time>
      </trkpt>
      <trkpt lat="49.34911" lon="-0.75561">
        <ele>6.142095</ele>
        <time>2022-08-03T16:07:34.000Z</time>
      </trkpt>
      <trkpt lat="49.34913" lon="-0.75561">
        <ele>6.142095</ele>
        <time>2022-08-03T16:07:37.000Z</time>
      </trkpt>
      <trkpt lat="49.34357" lon="-0.75644">
        <ele>17.926451</ele>
        <time>2022-08-04T08:57:41.000Z</time>
      </trkpt>
      <trkpt lat="49.3436" lon="-0.75642">
        <ele>17.926451</ele>
        <time>2022-08-04T08:57:49.000Z</time>
      </trkpt>
      <trkpt lat="49.34361" lon="-0.7564">
        <ele>17.926451</ele>
        <time>2022-08-04T08:57:50.000Z</time>
      </trkpt>
      <trkpt lat="49.34362" lon="-0.75637">
        <ele>17.926451</ele>
        <time>2022-08-04T08:57:51.000Z</time>
      </trkpt>
      <trkpt lat="49.34362" lon="-0.75634">
        <ele>17.926451</ele>
        <time>2022-08-04T08:57:52.000Z</time>
      </trkpt>
      <trkpt lat="49.34362" lon="-0.75631">
        <ele>17.926451</ele>
        <time>2022-08-04T08:57:53.000Z</time>
      </trkpt>
      <trkpt lat="49.34362" lon="-0.75628">
        <ele>17.926451</ele>
        <time>2022-08-04T08:57:54.000Z</time>
      </trkpt>
      <trkpt lat="49.34362" lon="-0.75623">
        <ele>17.926451</ele>
        <time>2022-08-04T08:57:56.000Z</time>
      </trkpt>
      <trkpt lat="49.34361" lon="-0.7562">
        <ele>17.926451</ele>
        <time>2022-08-04T08:57:57.000Z</time>
      </trkpt>
      <trkpt lat="49.3436" lon="-0.75616">
        <ele>17.926451</ele>
        <time>2022-08-04T08:57:58.000Z</time>
      </trkpt>
      <trkpt lat="49.3436" lon="-0.75612">
        <ele>17.926451</ele>
        <time>2022-08-04T08:57:59.000Z</time>
      </trkpt>
      <trkpt lat="49.34359" lon="-0.75607">
        <ele>17.926451</ele>
        <time>2022-08-04T08:58:00.000Z</time>
      </trkpt>
      <trkpt lat="49.34359" lon="-0.75603">
        <ele>17.926451</ele>
        <time>2022-08-04T08:58:01.000Z</time>
      </trkpt>
      <trkpt lat="49.34359" lon="-0.75598">
        <ele>17.926451</ele>
        <time>2022-08-04T08:58:02.000Z</time>
      </trkpt>
      <trkpt lat="49.34359" lon="-0.75593">
        <ele>17.926451</ele>
        <time>2022-08-04T08:58:03.000Z</time>
      </trkpt>
      <trkpt lat="49.3436" lon="-0.75588">
        <ele>17.926451</ele>
        <time>2022-08-04T08:58:04.000Z</time>
      </trkpt>
      <trkpt lat="49.3436" lon="-0.75581">
        <ele>17.926451</ele>
        <time>2022-08-04T08:58:05.000Z</time>
      </trkpt>
      <trkpt lat="49.3436" lon="-0.75574">
        <ele>17.926451</ele>
        <time>2022-08-04T08:58:06.000Z</time>
      </trkpt>
      <trkpt lat="49.34361" lon="-0.75567">
        <ele>17.926451</ele>
        <time>2022-08-04T08:58:07.000Z</time>
      </trkpt>
      <trkpt lat="49.34362" lon="-0.7556">
        <ele>17.926451</ele>
        <time>2022-08-04T08:58:08.000Z</time>
      </trkpt>
      <trkpt lat="49.34364" lon="-0.75553">
        <ele>17.926451</ele>
        <time>2022-08-04T08:58:09.000Z</time>
      </trkpt>
      <trkpt lat="49.34367" lon="-0.75549">
        <ele>17.926451</ele>
        <time>2022-08-04T08:58:10.000Z</time>
      </trkpt>
      <trkpt lat="49.34372" lon="-0.75546">
        <ele>17.926451</ele>
        <time>2022-08-04T08:58:11.000Z</time>
      </trkpt>
      <trkpt lat="49.34377" lon="-0.75544">
        <ele>17.926451</ele>
        <time>2022-08-04T08:58:12.000Z</time>
      </trkpt>
      <trkpt lat="49.34381" lon="-0.75544">
        <ele>17.926451</ele>
        <time>2022-08-04T08:58:13.000Z</time>
      </trkpt>
      <trkpt lat="49.34387" lon="-0.75543">
        <ele>17.926451</ele>
        <time>2022-08-04T08:58:14.000Z</time>
      </trkpt>
      <trkpt lat="49.34391" lon="-0.75543">
        <ele>17.865989</ele>
        <time>2022-08-04T08:58:15.000Z</time>
      </trkpt>
      <trkpt lat="49.34397" lon="-0.75543">
        <ele>17.702885</ele>
        <time>2022-08-04T08:58:16.000Z</time>
      </trkpt>
      <trkpt lat="49.34401" lon="-0.75542">
        <ele>17.549297</ele>
        <time>2022-08-04T08:58:17.000Z</time>
      </trkpt>
      <trkpt lat="49.34407" lon="-0.75542">
        <ele>17.377272</ele>
        <time>2022-08-04T08:58:18.000Z</time>
      </trkpt>
      <trkpt lat="49.34412" lon="-0.75541">
        <ele>17.224021</ele>
        <time>2022-08-04T08:58:19.000Z</time>
      </trkpt>
      <trkpt lat="49.34417" lon="-0.75541">
        <ele>17.048517</ele>
        <time>2022-08-04T08:58:20.000Z</time>
      </trkpt>
      <trkpt lat="49.34423" lon="-0.7554">
        <ele>16.866652</ele>
        <time>2022-08-04T08:58:21.000Z</time>
      </trkpt>
      <trkpt lat="49.34428" lon="-0.7554">
        <ele>16.713401</ele>
        <time>2022-08-04T08:58:22.000Z</time>
      </trkpt>
      <trkpt lat="49.34433" lon="-0.75539">
        <ele>16.537602</ele>
        <time>2022-08-04T08:58:23.000Z</time>
      </trkpt>
      <trkpt lat="49.34437" lon="-0.75538">
        <ele>16.405949</ele>
        <time>2022-08-04T08:58:24.000Z</time>
      </trkpt>
      <trkpt lat="49.34443" lon="-0.75537">
        <ele>16.210535</ele>
        <time>2022-08-04T08:58:25.000Z</time>
      </trkpt>
      <trkpt lat="49.34448" lon="-0.75536">
        <ele>16.054899</ele>
        <time>2022-08-04T08:58:26.000Z</time>
      </trkpt>
      <trkpt lat="49.34452" lon="-0.75535">
        <ele>15.94218</ele>
        <time>2022-08-04T08:58:27.000Z</time>
      </trkpt>
      <trkpt lat="49.34457" lon="-0.75534">
        <ele>15.766198</ele>
        <time>2022-08-04T08:58:28.000Z</time>
      </trkpt>
      <trkpt lat="49.34463" lon="-0.75533">
        <ele>15.574163</ele>
        <time>2022-08-04T08:58:29.000Z</time>
      </trkpt>
      <trkpt lat="49.34467" lon="-0.75533">
        <ele>15.44931</ele>
        <time>2022-08-04T08:58:30.000Z</time>
      </trkpt>
      <trkpt lat="49.34473" lon="-0.75532">
        <ele>15.254458</ele>
        <time>2022-08-04T08:58:31.000Z</time>
      </trkpt>
      <trkpt lat="49.34478" lon="-0.75531">
        <ele>15.081833</ele>
        <time>2022-08-04T08:58:32.000Z</time>
      </trkpt>
      <trkpt lat="49.34483" lon="-0.75531">
        <ele>14.94702</ele>
        <time>2022-08-04T08:58:33.000Z</time>
      </trkpt>
      <trkpt lat="49.34488" lon="-0.7553">
        <ele>14.773761</ele>
        <time>2022-08-04T08:58:34.000Z</time>
      </trkpt>
      <trkpt lat="49.34493" lon="-0.75528">
        <ele>14.60908</ele>
        <time>2022-08-04T08:58:35.000Z</time>
      </trkpt>
      <trkpt lat="49.345" lon="-0.75527">
        <ele>14.393399</ele>
        <time>2022-08-04T08:58:36.000Z</time>
      </trkpt>
      <trkpt lat="49.34505" lon="-0.75526">
        <ele>14.226463</ele>
        <time>2022-08-04T08:58:37.000Z</time>
      </trkpt>
      <trkpt lat="49.3451" lon="-0.75525">
        <ele>14.054251</ele>
        <time>2022-08-04T08:58:38.000Z</time>
      </trkpt>
      <trkpt lat="49.34516" lon="-0.75525">
        <ele>13.891795</ele>
        <time>2022-08-04T08:58:39.000Z</time>
      </trkpt>
      <trkpt lat="49.34521" lon="-0.75525">
        <ele>13.729326</ele>
        <time>2022-08-04T08:58:40.000Z</time>
      </trkpt>
      <trkpt lat="49.34526" lon="-0.75524">
        <ele>13.561156</ele>
        <time>2022-08-04T08:58:41.000Z</time>
      </trkpt>
      <trkpt lat="49.34531" lon="-0.75523">
        <ele>13.397381</ele>
        <time>2022-08-04T08:58:42.000Z</time>
      </trkpt>
      <trkpt lat="49.34536" lon="-0.75522">
        <ele>13.22386</ele>
        <time>2022-08-04T08:58:43.000Z</time>
      </trkpt>
      <trkpt lat="49.34542" lon="-0.75521">
        <ele>13.046902</ele>
        <time>2022-08-04T08:58:44.000Z</time>
      </trkpt>
      <trkpt lat="49.34548" lon="-0.7552">
        <ele>12.864576</ele>
        <time>2022-08-04T08:58:45.000Z</time>
      </trkpt>
      <trkpt lat="49.34553" lon="-0.75519">
        <ele>12.700223</ele>
        <time>2022-08-04T08:58:46.000Z</time>
      </trkpt>
      <trkpt lat="49.34558" lon="-0.75518">
        <ele>12.524241</ele>
        <time>2022-08-04T08:58:47.000Z</time>
      </trkpt>
      <trkpt lat="49.34564" lon="-0.75517">
        <ele>12.34149</ele>
        <time>2022-08-04T08:58:48.000Z</time>
      </trkpt>
      <trkpt lat="49.34569" lon="-0.75516">
        <ele>12.158818</ele>
        <time>2022-08-04T08:58:49.000Z</time>
      </trkpt>
      <trkpt lat="49.34575" lon="-0.75515">
        <ele>11.940346</ele>
        <time>2022-08-04T08:58:50.000Z</time>
      </trkpt>
      <trkpt lat="49.3458" lon="-0.75514">
        <ele>11.741073</ele>
        <time>2022-08-04T08:58:51.000Z</time>
      </trkpt>
      <trkpt lat="49.34586" lon="-0.75513">
        <ele>11.533947</ele>
        <time>2022-08-04T08:58:52.000Z</time>
      </trkpt>
      <trkpt lat="49.34591" lon="-0.75512">
        <ele>11.3114</ele>
        <time>2022-08-04T08:58:53.000Z</time>
      </trkpt>
      <trkpt lat="49.34596" lon="-0.75511">
        <ele>11.126205</ele>
        <time>2022-08-04T08:58:54.000Z</time>
      </trkpt>
      <trkpt lat="49.34602" lon="-0.7551">
        <ele>10.91908</ele>
        <time>2022-08-04T08:58:55.000Z</time>
      </trkpt>
      <trkpt lat="49.34606" lon="-0.75509">
        <ele>10.73547</ele>
        <time>2022-08-04T08:58:56.000Z</time>
      </trkpt>
      <trkpt lat="49.34612" lon="-0.75508">
        <ele>10.514102</ele>
        <time>2022-08-04T08:58:57.000Z</time>
      </trkpt>
      <trkpt lat="49.34618" lon="-0.75507">
        <ele>10.307259</ele>
        <time>2022-08-04T08:58:58.000Z</time>
      </trkpt>
      <trkpt lat="49.34623" lon="-0.75506">
        <ele>10.100133</ele>
        <time>2022-08-04T08:58:59.000Z</time>
      </trkpt>
      <trkpt lat="49.34629" lon="-0.75505">
        <ele>9.877586</ele>
        <time>2022-08-04T08:59:00.000Z</time>
      </trkpt>
      <trkpt lat="49.34633" lon="-0.75504">
        <ele>9.716097</ele>
        <time>2022-08-04T08:59:01.000Z</time>
      </trkpt>
      <trkpt lat="49.34639" lon="-0.75504">
        <ele>9.471575</ele>
        <time>2022-08-04T08:59:02.000Z</time>
      </trkpt>
      <trkpt lat="49.34645" lon="-0.75503">
        <ele>9.254162</ele>
        <time>2022-08-04T08:59:03.000Z</time>
      </trkpt>
      <trkpt lat="49.34651" lon="-0.75502">
        <ele>9.043781</ele>
        <time>2022-08-04T08:59:04.000Z</time>
      </trkpt>
      <trkpt lat="49.34655" lon="-0.75501">
        <ele>8.859636</ele>
        <time>2022-08-04T08:59:05.000Z</time>
      </trkpt>
      <trkpt lat="49.34659" lon="-0.75501">
        <ele>8.724885</ele>
        <time>2022-08-04T08:59:06.000Z</time>
      </trkpt>
      <trkpt lat="49.34663" lon="-0.755">
        <ele>8.567498</ele>
        <time>2022-08-04T08:59:07.000Z</time>
      </trkpt>
      <trkpt lat="49.34667" lon="-0.75499">
        <ele>8.418653</ele>
        <time>2022-08-04T08:59:08.000Z</time>
      </trkpt>
      <trkpt lat="49.34671" lon="-0.75499">
        <ele>8.262346</ele>
        <time>2022-08-04T08:59:09.000Z</time>
      </trkpt>
      <trkpt lat="49.34676" lon="-0.75498">
        <ele>8.077151</ele>
        <time>2022-08-04T08:59:10.000Z</time>
      </trkpt>
      <trkpt lat="49.3468" lon="-0.75497">
        <ele>7.903629</ele>
        <time>2022-08-04T08:59:11.000Z</time>
      </trkpt>
      <trkpt lat="49.34683" lon="-0.75496">
        <ele>7.790443</ele>
        <time>2022-08-04T08:59:12.000Z</time>
      </trkpt>
      <trkpt lat="49.34687" lon="-0.75495">
        <ele>7.628593</ele>
        <time>2022-08-04T08:59:13.000Z</time>
      </trkpt>
      <trkpt lat="49.34692" lon="-0.75494">
        <ele>7.46965</ele>
        <time>2022-08-04T08:59:14.000Z</time>
      </trkpt>
      <trkpt lat="49.34695" lon="-0.75492">
        <ele>7.333083</ele>
        <time>2022-08-04T08:59:15.000Z</time>
      </trkpt>
      <trkpt lat="49.34699" lon="-0.75491">
        <ele>7.178001</ele>
        <time>2022-08-04T08:59:16.000Z</time>
      </trkpt>
      <trkpt lat="49.34703" lon="-0.75488">
        <ele>7.018544</ele>
        <time>2022-08-04T08:59:17.000Z</time>
      </trkpt>
      <trkpt lat="49.34707" lon="-0.75484">
        <ele>6.836556</ele>
        <time>2022-08-04T08:59:18.000Z</time>
      </trkpt>
      <trkpt lat="49.3471" lon="-0.75482">
        <ele>6.689551</ele>
        <time>2022-08-04T08:59:19.000Z</time>
      </trkpt>
      <trkpt lat="49.34716" lon="-0.7548">
        <ele>6.491325</ele>
        <time>2022-08-04T08:59:20.000Z</time>
      </trkpt>
      <trkpt lat="49.3472" lon="-0.75481">
        <ele>6.308387</ele>
        <time>2022-08-04T08:59:21.000Z</time>
      </trkpt>
      <trkpt lat="49.34725" lon="-0.75482">
        <ele>6.14523</ele>
        <time>2022-08-04T08:59:22.000Z</time>
      </trkpt>
      <trkpt lat="49.34729" lon="-0.75484">
        <ele>5.979835</ele>
        <time>2022-08-04T08:59:23.000Z</time>
      </trkpt>
      <trkpt lat="49.34737" lon="-0.75489">
        <ele>5.634925</ele>
        <time>2022-08-04T08:59:25.000Z</time>
      </trkpt>
      <trkpt lat="49.34741" lon="-0.75492">
        <ele>5.477488</ele>
        <time>2022-08-04T08:59:26.000Z</time>
      </trkpt>
      <trkpt lat="49.34745" lon="-0.75494">
        <ele>5.344256</ele>
        <time>2022-08-04T08:59:27.000Z</time>
      </trkpt>
      <trkpt lat="49.34749" lon="-0.75496">
        <ele>5.321463</ele>
        <time>2022-08-04T08:59:28.000Z</time>
      </trkpt>
      <trkpt lat="49.34753" lon="-0.75499">
        <ele>5.300703</ele>
        <time>2022-08-04T08:59:29.000Z</time>
      </trkpt>
      <trkpt lat="49.34757" lon="-0.75501">
        <ele>5.27791</ele>
        <time>2022-08-04T08:59:30.000Z</time>
      </trkpt>
      <trkpt lat="49.34761" lon="-0.75503">
        <ele>5.256906</ele>
        <time>2022-08-04T08:59:31.000Z</time>
      </trkpt>
      <trkpt lat="49.34765" lon="-0.75506">
        <ele>5.23555</ele>
        <time>2022-08-04T08:59:32.000Z</time>
      </trkpt>
      <trkpt lat="49.34768" lon="-0.75508">
        <ele>5.214417</ele>
        <time>2022-08-04T08:59:33.000Z</time>
      </trkpt>
      <trkpt lat="49.34772" lon="-0.7551">
        <ele>5.193179</ele>
        <time>2022-08-04T08:59:34.000Z</time>
      </trkpt>
      <trkpt lat="49.34776" lon="-0.75512">
        <ele>5.172535</ele>
        <time>2022-08-04T08:59:35.000Z</time>
      </trkpt>
      <trkpt lat="49.34779" lon="-0.75515">
        <ele>5.154612</ele>
        <time>2022-08-04T08:59:36.000Z</time>
      </trkpt>
      <trkpt lat="49.34783" lon="-0.75517">
        <ele>5.133853</ele>
        <time>2022-08-04T08:59:37.000Z</time>
      </trkpt>
      <trkpt lat="49.34787" lon="-0.75519">
        <ele>5.113656</ele>
        <time>2022-08-04T08:59:38.000Z</time>
      </trkpt>
      <trkpt lat="49.3479" lon="-0.75522">
        <ele>5.094195</ele>
        <time>2022-08-04T08:59:39.000Z</time>
      </trkpt>
      <trkpt lat="49.34794" lon="-0.75524">
        <ele>5.073435</ele>
        <time>2022-08-04T08:59:40.000Z</time>
      </trkpt>
      <trkpt lat="49.34798" lon="-0.75526">
        <ele>5.052309</ele>
        <time>2022-08-04T08:59:41.000Z</time>
      </trkpt>
      <trkpt lat="49.34801" lon="-0.75528">
        <ele>5.036661</ele>
        <time>2022-08-04T08:59:42.000Z</time>
      </trkpt>
      <trkpt lat="49.34804" lon="-0.7553">
        <ele>5.017308</ele>
        <time>2022-08-04T08:59:43.000Z</time>
      </trkpt>
      <trkpt lat="49.34807" lon="-0.75531">
        <ele>4.999999</ele>
        <time>2022-08-04T08:59:44.000Z</time>
      </trkpt>
      <trkpt lat="49.3481" lon="-0.75533">
        <ele>4.98484</ele>
        <time>2022-08-04T08:59:45.000Z</time>
      </trkpt>
      <trkpt lat="49.34813" lon="-0.75534">
        <ele>4.967738</ele>
        <time>2022-08-04T08:59:46.000Z</time>
      </trkpt>
      <trkpt lat="49.34816" lon="-0.75536">
        <ele>4.95354</ele>
        <time>2022-08-04T08:59:47.000Z</time>
      </trkpt>
      <trkpt lat="49.34819" lon="-0.75537">
        <ele>4.939222</ele>
        <time>2022-08-04T08:59:48.000Z</time>
      </trkpt>
      <trkpt lat="49.34822" lon="-0.75539">
        <ele>4.921913</ele>
        <time>2022-08-04T08:59:49.000Z</time>
      </trkpt>
      <trkpt lat="49.34825" lon="-0.75541">
        <ele>4.906396</ele>
        <time>2022-08-04T08:59:50.000Z</time>
      </trkpt>
      <trkpt lat="49.34828" lon="-0.75542">
        <ele>4.889294</ele>
        <time>2022-08-04T08:59:51.000Z</time>
      </trkpt>
      <trkpt lat="49.34831" lon="-0.75544">
        <ele>4.873426</ele>
        <time>2022-08-04T08:59:52.000Z</time>
      </trkpt>
      <trkpt lat="49.34834" lon="-0.75546">
        <ele>4.854559</ele>
        <time>2022-08-04T08:59:53.000Z</time>
      </trkpt>
      <trkpt lat="49.34837" lon="-0.75548">
        <ele>4.836898</ele>
        <time>2022-08-04T08:59:54.000Z</time>
      </trkpt>
      <trkpt lat="49.34841" lon="-0.7555">
        <ele>4.819237</ele>
        <time>2022-08-04T08:59:55.000Z</time>
      </trkpt>
      <trkpt lat="49.34844" lon="-0.75551">
        <ele>4.800254</ele>
        <time>2022-08-04T08:59:56.000Z</time>
      </trkpt>
      <trkpt lat="49.34848" lon="-0.75552">
        <ele>4.780759</ele>
        <time>2022-08-04T08:59:57.000Z</time>
      </trkpt>
      <trkpt lat="49.34852" lon="-0.75551">
        <ele>4.762819</ele>
        <time>2022-08-04T08:59:58.000Z</time>
      </trkpt>
      <trkpt lat="49.34855" lon="-0.7555">
        <ele>4.744413</ele>
        <time>2022-08-04T08:59:59.000Z</time>
      </trkpt>
      <trkpt lat="49.34858" lon="-0.75549">
        <ele>4.72731</ele>
        <time>2022-08-04T09:00:00.000Z</time>
      </trkpt>
      <trkpt lat="49.34862" lon="-0.75547">
        <ele>4.708243</ele>
        <time>2022-08-04T09:00:01.000Z</time>
      </trkpt>
      <trkpt lat="49.34865" lon="-0.75546">
        <ele>4.689912</ele>
        <time>2022-08-04T09:00:02.000Z</time>
      </trkpt>
      <trkpt lat="49.34869" lon="-0.75545">
        <ele>4.670011</ele>
        <time>2022-08-04T09:00:03.000Z</time>
      </trkpt>
      <trkpt lat="49.34872" lon="-0.75543">
        <ele>4.653173</ele>
        <time>2022-08-04T09:00:04.000Z</time>
      </trkpt>
      <trkpt lat="49.34876" lon="-0.75542">
        <ele>4.634976</ele>
        <time>2022-08-04T09:00:05.000Z</time>
      </trkpt>
      <trkpt lat="49.34879" lon="-0.75543">
        <ele>4.616562</ele>
        <time>2022-08-04T09:00:06.000Z</time>
      </trkpt>
      <trkpt lat="49.34883" lon="-0.75544">
        <ele>4.598365</ele>
        <time>2022-08-04T09:00:07.000Z</time>
      </trkpt>
      <trkpt lat="49.34886" lon="-0.75545">
        <ele>4.581262</ele>
        <time>2022-08-04T09:00:08.000Z</time>
      </trkpt>
      <trkpt lat="49.34889" lon="-0.75547">
        <ele>4.563953</ele>
        <time>2022-08-04T09:00:09.000Z</time>
      </trkpt>
      <trkpt lat="49.34892" lon="-0.75549">
        <ele>4.547563</ele>
        <time>2022-08-04T09:00:10.000Z</time>
      </trkpt>
      <trkpt lat="49.34895" lon="-0.75551">
        <ele>4.529641</ele>
        <time>2022-08-04T09:00:11.000Z</time>
      </trkpt>
      <trkpt lat="49.34898" lon="-0.75553">
        <ele>4.514911</ele>
        <time>2022-08-04T09:00:12.000Z</time>
      </trkpt>
      <trkpt lat="49.349" lon="-0.75556">
        <ele>4.500505</ele>
        <time>2022-08-04T09:00:13.000Z</time>
      </trkpt>
      <trkpt lat="49.34903" lon="-0.75558">
        <ele>4.485938</ele>
        <time>2022-08-04T09:00:14.000Z</time>
      </trkpt>
      <trkpt lat="49.34907" lon="-0.75559">
        <ele>4.464262</ele>
        <time>2022-08-04T09:00:16.000Z</time>
      </trkpt>
      <trkpt lat="49.34909" lon="-0.75556">
        <ele>4.447623</ele>
        <time>2022-08-04T09:00:18.000Z</time>
      </trkpt>
      <trkpt lat="49.34911" lon="-0.75551">
        <ele>4.431231</ele>
        <time>2022-08-04T09:00:20.000Z</time>
      </trkpt>
      <trkpt lat="49.34912" lon="-0.75546">
        <ele>4.426175</ele>
        <time>2022-08-04T09:00:22.000Z</time>
      </trkpt>
      <trkpt lat="49.34913" lon="-0.75543">
        <ele>4.424562</ele>
        <time>2022-08-04T09:00:23.000Z</time>
      </trkpt>
      <trkpt lat="49.34914" lon="-0.7554">
        <ele>4.422923</ele>
        <time>2022-08-04T09:00:24.000Z</time>
      </trkpt>
      <trkpt lat="49.34914" lon="-0.75536">
        <ele>4.421191</ele>
        <time>2022-08-04T09:00:25.000Z</time>
      </trkpt>
      <trkpt lat="49.34915" lon="-0.75533">
        <ele>4.419439</ele>
        <time>2022-08-04T09:00:26.000Z</time>
      </trkpt>
      <trkpt lat="49.34916" lon="-0.75529">
        <ele>4.417754</ele>
        <time>2022-08-04T09:00:27.000Z</time>
      </trkpt>
      <trkpt lat="49.34916" lon="-0.75526">
        <ele>4.416002</ele>
        <time>2022-08-04T09:00:28.000Z</time>
      </trkpt>
      <trkpt lat="49.34917" lon="-0.75523">
        <ele>4.414362</ele>
        <time>2022-08-04T09:00:29.000Z</time>
      </trkpt>
      <trkpt lat="49.34917" lon="-0.7552">
        <ele>4.41291</ele>
        <time>2022-08-04T09:00:30.000Z</time>
      </trkpt>
      <trkpt lat="49.34916" lon="-0.75515">
        <ele>4.410566</ele>
        <time>2022-08-04T09:00:32.000Z</time>
      </trkpt>
      <trkpt lat="49.34915" lon="-0.75511">
        <ele>4.408381</ele>
        <time>2022-08-04T09:00:34.000Z</time>
      </trkpt>
      <trkpt lat="49.34913" lon="-0.75507">
        <ele>4.406274</ele>
        <time>2022-08-04T09:00:36.000Z</time>
      </trkpt>
      <trkpt lat="49.34911" lon="-0.75506">
        <ele>4.404438</ele>
        <time>2022-08-04T09:00:38.000Z</time>
      </trkpt>
      <trkpt lat="49.34909" lon="-0.75506">
        <ele>4.402822</ele>
        <time>2022-08-04T09:00:40.000Z</time>
      </trkpt>
      <trkpt lat="49.34907" lon="-0.75506">
        <ele>4.401406</ele>
        <time>2022-08-04T09:00:41.000Z</time>
      </trkpt>
      <trkpt lat="49.34904" lon="-0.75508">
        <ele>4.398868</ele>
        <time>2022-08-04T09:00:43.000Z</time>
      </trkpt>
      <trkpt lat="49.34901" lon="-0.75508">
        <ele>4.396958</ele>
        <time>2022-08-04T09:00:45.000Z</time>
      </trkpt>
      <trkpt lat="49.34899" lon="-0.75507">
        <ele>4.395273</ele>
        <time>2022-08-04T09:00:47.000Z</time>
      </trkpt>
      <trkpt lat="49.34896" lon="-0.75506">
        <ele>4.393233</ele>
        <time>2022-08-04T09:00:49.000Z</time>
      </trkpt>
      <trkpt lat="49.34894" lon="-0.75505">
        <ele>4.391387</ele>
        <time>2022-08-04T09:00:51.000Z</time>
      </trkpt>
      <trkpt lat="49.3489" lon="-0.75505">
        <ele>4.388742</ele>
        <time>2022-08-04T09:00:53.000Z</time>
      </trkpt>
      <trkpt lat="49.34887" lon="-0.75505">
        <ele>4.386681</ele>
        <time>2022-08-04T09:00:55.000Z</time>
      </trkpt>
      <trkpt lat="49.34885" lon="-0.75504">
        <ele>4.385046</ele>
        <time>2022-08-04T09:00:57.000Z</time>
      </trkpt>
      <trkpt lat="49.34889" lon="-0.75503">
        <ele>4.382397</ele>
        <time>2022-08-04T09:01:30.000Z</time>
      </trkpt>
      <trkpt lat="49.34891" lon="-0.75504">
        <ele>4.380737</ele>
        <time>2022-08-04T09:01:31.000Z</time>
      </trkpt>
      <trkpt lat="49.34893" lon="-0.75505">
        <ele>4.379005</ele>
        <time>2022-08-04T09:01:32.000Z</time>
      </trkpt>
      <trkpt lat="49.34896" lon="-0.75506">
        <ele>4.377036</ele>
        <time>2022-08-04T09:01:33.000Z</time>
      </trkpt>
      <trkpt lat="49.34898" lon="-0.75507">
        <ele>4.375403</ele>
        <time>2022-08-04T09:01:34.000Z</time>
      </trkpt>
      <trkpt lat="49.34901" lon="-0.75507">
        <ele>4.373493</ele>
        <time>2022-08-04T09:01:35.000Z</time>
      </trkpt>
      <trkpt lat="49.34903" lon="-0.75506">
        <ele>4.371568</ele>
        <time>2022-08-04T09:01:36.000Z</time>
      </trkpt>
      <trkpt lat="49.34907" lon="-0.75506">
        <ele>4.368751</ele>
        <time>2022-08-04T09:01:38.000Z</time>
      </trkpt>
      <trkpt lat="49.34909" lon="-0.75505">
        <ele>4.367335</ele>
        <time>2022-08-04T09:01:39.000Z</time>
      </trkpt>
      <trkpt lat="49.34911" lon="-0.75504">
        <ele>4.365958</ele>
        <time>2022-08-04T09:01:40.000Z</time>
      </trkpt>
      <trkpt lat="49.34913" lon="-0.755">
        <ele>4.363418</ele>
        <time>2022-08-04T09:01:42.000Z</time>
      </trkpt>
      <trkpt lat="49.34915" lon="-0.75497">
        <ele>4.361483</ele>
        <time>2022-08-04T09:01:44.000Z</time>
      </trkpt>
      <trkpt lat="49.34917" lon="-0.75495">
        <ele>4.359555</ele>
        <time>2022-08-04T09:01:46.000Z</time>
      </trkpt>
      <trkpt lat="49.34921" lon="-0.75493">
        <ele>4.356652</ele>
        <time>2022-08-04T09:01:48.000Z</time>
      </trkpt>
      <trkpt lat="49.34923" lon="-0.75492">
        <ele>4.355177</ele>
        <time>2022-08-04T09:01:49.000Z</time>
      </trkpt>
      <trkpt lat="49.34926" lon="-0.75493">
        <ele>4.352719</ele>
        <time>2022-08-04T09:01:51.000Z</time>
      </trkpt>
      <trkpt lat="49.34928" lon="-0.75495">
        <ele>4.351109</ele>
        <time>2022-08-04T09:01:52.000Z</time>
      </trkpt>
      <trkpt lat="49.34929" lon="-0.75498">
        <ele>4.349572</ele>
        <time>2022-08-04T09:01:53.000Z</time>
      </trkpt>
      <trkpt lat="49.34928" lon="-0.75501">
        <ele>4.34807</ele>
        <time>2022-08-04T09:01:54.000Z</time>
      </trkpt>
      <trkpt lat="49.34927" lon="-0.75504">
        <ele>4.346502</ele>
        <time>2022-08-04T09:01:55.000Z</time>
      </trkpt>
      <trkpt lat="49.34925" lon="-0.75506">
        <ele>4.344664</ele>
        <time>2022-08-04T09:01:56.000Z</time>
      </trkpt>
      <trkpt lat="49.34922" lon="-0.75509">
        <ele>4.342173</ele>
        <time>2022-08-04T09:01:58.000Z</time>
      </trkpt>
      <trkpt lat="49.34919" lon="-0.75511">
        <ele>4.340164</ele>
        <time>2022-08-04T09:02:00.000Z</time>
      </trkpt>
      <trkpt lat="49.34917" lon="-0.75512">
        <ele>4.338156</ele>
        <time>2022-08-04T09:02:02.000Z</time>
      </trkpt>
      <trkpt lat="49.34914" lon="-0.75513">
        <ele>4.336217</ele>
        <time>2022-08-04T09:02:04.000Z</time>
      </trkpt>
      <trkpt lat="49.34912" lon="-0.75513">
        <ele>4.334601</ele>
        <time>2022-08-04T09:02:07.000Z</time>
      </trkpt>
      <trkpt lat="49.34895" lon="-0.75507">
        <ele>4.322106</ele>
        <time>2022-08-04T09:03:37.000Z</time>
      </trkpt>
      <trkpt lat="49.34893" lon="-0.75505">
        <ele>4.32003</ele>
        <time>2022-08-04T09:03:38.000Z</time>
      </trkpt>
      <trkpt lat="49.3489" lon="-0.75504">
        <ele>4.317573</ele>
        <time>2022-08-04T09:03:39.000Z</time>
      </trkpt>
      <trkpt lat="49.34887" lon="-0.75503">
        <ele>4.315564</ele>
        <time>2022-08-04T09:03:40.000Z</time>
      </trkpt>
      <trkpt lat="49.34885" lon="-0.75502">
        <ele>4.314089</ele>
        <time>2022-08-04T09:03:41.000Z</time>
      </trkpt>
      <trkpt lat="49.34882" lon="-0.755">
        <ele>4.31187</ele>
        <time>2022-08-04T09:03:43.000Z</time>
      </trkpt>
      <trkpt lat="49.34877" lon="-0.75498">
        <ele>4.308015</ele>
        <time>2022-08-04T09:05:30.000Z</time>
      </trkpt>
      <trkpt lat="49.34875" lon="-0.75496">
        <ele>4.306295</ele>
        <time>2022-08-04T09:05:31.000Z</time>
      </trkpt>
      <trkpt lat="49.34873" lon="-0.75494">
        <ele>4.304313</ele>
        <time>2022-08-04T09:05:32.000Z</time>
      </trkpt>
      <trkpt lat="49.3487" lon="-0.75492">
        <ele>4.301915</ele>
        <time>2022-08-04T09:05:33.000Z</time>
      </trkpt>
      <trkpt lat="49.34867" lon="-0.75489">
        <ele>4.299517</ele>
        <time>2022-08-04T09:05:34.000Z</time>
      </trkpt>
      <trkpt lat="49.34864" lon="-0.75486">
        <ele>4.296788</ele>
        <time>2022-08-04T09:05:35.000Z</time>
      </trkpt>
      <trkpt lat="49.34861" lon="-0.75483">
        <ele>4.294996</ele>
        <time>2022-08-04T09:05:36.000Z</time>
      </trkpt>
      <trkpt lat="49.34858" lon="-0.75479">
        <ele>4.293331</ele>
        <time>2022-08-04T09:05:37.000Z</time>
      </trkpt>
      <trkpt lat="49.34854" lon="-0.75476">
        <ele>4.291621</ele>
        <time>2022-08-04T09:05:38.000Z</time>
      </trkpt>
      <trkpt lat="49.34851" lon="-0.75473">
        <ele>4.290018</ele>
        <time>2022-08-04T09:05:39.000Z</time>
      </trkpt>
      <trkpt lat="49.34847" lon="-0.7547">
        <ele>4.288225</ele>
        <time>2022-08-04T09:05:40.000Z</time>
      </trkpt>
      <trkpt lat="49.34844" lon="-0.75467">
        <ele>4.286394</ele>
        <time>2022-08-04T09:05:41.000Z</time>
      </trkpt>
      <trkpt lat="49.3484" lon="-0.75464">
        <ele>4.284601</ele>
        <time>2022-08-04T09:05:42.000Z</time>
      </trkpt>
      <trkpt lat="49.34836" lon="-0.75461">
        <ele>4.282758</ele>
        <time>2022-08-04T09:05:43.000Z</time>
      </trkpt>
      <trkpt lat="49.34832" lon="-0.75458">
        <ele>4.280964</ele>
        <time>2022-08-04T09:05:44.000Z</time>
      </trkpt>
      <trkpt lat="49.34828" lon="-0.75454">
        <ele>4.278959</ele>
        <time>2022-08-04T09:05:45.000Z</time>
      </trkpt>
      <trkpt lat="49.34824" lon="-0.75452">
        <ele>4.277201</ele>
        <time>2022-08-04T09:05:46.000Z</time>
      </trkpt>
      <trkpt lat="49.34821" lon="-0.75449">
        <ele>4.275956</ele>
        <time>2022-08-04T09:05:47.000Z</time>
      </trkpt>
      <trkpt lat="49.34818" lon="-0.75447">
        <ele>4.274436</ele>
        <time>2022-08-04T09:05:48.000Z</time>
      </trkpt>
      <trkpt lat="49.34815" lon="-0.75444">
        <ele>4.27309</ele>
        <time>2022-08-04T09:05:49.000Z</time>
      </trkpt>
      <trkpt lat="49.34812" lon="-0.75442">
        <ele>4.271607</ele>
        <time>2022-08-04T09:05:50.000Z</time>
      </trkpt>
      <trkpt lat="49.34808" lon="-0.75439">
        <ele>4.269812</ele>
        <time>2022-08-04T09:05:51.000Z</time>
      </trkpt>
      <trkpt lat="49.34806" lon="-0.75437">
        <ele>4.268629</ele>
        <time>2022-08-04T09:05:52.000Z</time>
      </trkpt>
      <trkpt lat="49.34803" lon="-0.75435">
        <ele>4.267109</ele>
        <time>2022-08-04T09:05:53.000Z</time>
      </trkpt>
      <trkpt lat="49.348" lon="-0.75432">
        <ele>4.265686</ele>
        <time>2022-08-04T09:05:54.000Z</time>
      </trkpt>
      <trkpt lat="49.34796" lon="-0.75429">
        <ele>4.264042</ele>
        <time>2022-08-04T09:05:55.000Z</time>
      </trkpt>
      <trkpt lat="49.34793" lon="-0.75427">
        <ele>4.262535</ele>
        <time>2022-08-04T09:05:56.000Z</time>
      </trkpt>
      <trkpt lat="49.3479" lon="-0.75424">
        <ele>4.261015</ele>
        <time>2022-08-04T09:05:57.000Z</time>
      </trkpt>
      <trkpt lat="49.34786" lon="-0.75422">
        <ele>4.259368</ele>
        <time>2022-08-04T09:05:58.000Z</time>
      </trkpt>
      <trkpt lat="49.34783" lon="-0.7542">
        <ele>4.257885</ele>
        <time>2022-08-04T09:05:59.000Z</time>
      </trkpt>
      <trkpt lat="49.3478" lon="-0.75417">
        <ele>4.256526</ele>
        <time>2022-08-04T09:06:00.000Z</time>
      </trkpt>
      <trkpt lat="49.34777" lon="-0.75415">
        <ele>4.2549</ele>
        <time>2022-08-04T09:06:01.000Z</time>
      </trkpt>
      <trkpt lat="49.34773" lon="-0.75412">
        <ele>4.253038</ele>
        <time>2022-08-04T09:06:02.000Z</time>
      </trkpt>
      <trkpt lat="49.34769" lon="-0.7541">
        <ele>4.251418</ele>
        <time>2022-08-04T09:06:03.000Z</time>
      </trkpt>
      <trkpt lat="49.34766" lon="-0.75408">
        <ele>4.250197</ele>
        <time>2022-08-04T09:06:04.000Z</time>
      </trkpt>
      <trkpt lat="49.34763" lon="-0.75405">
        <ele>4.248691</ele>
        <time>2022-08-04T09:06:05.000Z</time>
      </trkpt>
      <trkpt lat="49.3476" lon="-0.75403">
        <ele>4.247082</ele>
        <time>2022-08-04T09:06:06.000Z</time>
      </trkpt>
      <trkpt lat="49.34755" lon="-0.754">
        <ele>4.245073</ele>
        <time>2022-08-04T09:06:07.000Z</time>
      </trkpt>
      <trkpt lat="49.34753" lon="-0.75398">
        <ele>4.24384</ele>
        <time>2022-08-04T09:06:08.000Z</time>
      </trkpt>
      <trkpt lat="49.3475" lon="-0.75397">
        <ele>4.242693</ele>
        <time>2022-08-04T09:06:09.000Z</time>
      </trkpt>
      <trkpt lat="49.34747" lon="-0.75394">
        <ele>4.24116</ele>
        <time>2022-08-04T09:06:10.000Z</time>
      </trkpt>
      <trkpt lat="49.34743" lon="-0.75391">
        <ele>4.239529</ele>
        <time>2022-08-04T09:06:11.000Z</time>
      </trkpt>
      <trkpt lat="49.34741" lon="-0.75388">
        <ele>4.23803</ele>
        <time>2022-08-04T09:06:12.000Z</time>
      </trkpt>
      <trkpt lat="49.34737" lon="-0.75385">
        <ele>4.236427</ele>
        <time>2022-08-04T09:06:13.000Z</time>
      </trkpt>
      <trkpt lat="49.34734" lon="-0.75382">
        <ele>4.234839</ele>
        <time>2022-08-04T09:06:14.000Z</time>
      </trkpt>
      <trkpt lat="49.34731" lon="-0.75378">
        <ele>4.233101</ele>
        <time>2022-08-04T09:06:15.000Z</time>
      </trkpt>
      <trkpt lat="49.34727" lon="-0.75375">
        <ele>4.231483</ele>
        <time>2022-08-04T09:06:16.000Z</time>
      </trkpt>
      <trkpt lat="49.34724" lon="-0.75372">
        <ele>4.229865</ele>
        <time>2022-08-04T09:06:17.000Z</time>
      </trkpt>
      <trkpt lat="49.34721" lon="-0.75368">
        <ele>4.228098</ele>
        <time>2022-08-04T09:06:18.000Z</time>
      </trkpt>
      <trkpt lat="49.34718" lon="-0.75363">
        <ele>4.226514</ele>
        <time>2022-08-04T09:06:19.000Z</time>
      </trkpt>
      <trkpt lat="49.34715" lon="-0.7536">
        <ele>4.224816</ele>
        <time>2022-08-04T09:06:20.000Z</time>
      </trkpt>
      <trkpt lat="49.34712" lon="-0.75356">
        <ele>4.223233</ele>
        <time>2022-08-04T09:06:21.000Z</time>
      </trkpt>
      <trkpt lat="49.34709" lon="-0.75352">
        <ele>4.221252</ele>
        <time>2022-08-04T09:06:22.000Z</time>
      </trkpt>
      <trkpt lat="49.34705" lon="-0.75349">
        <ele>4.229858</ele>
        <time>2022-08-04T09:06:23.000Z</time>
      </trkpt>
      <trkpt lat="49.34702" lon="-0.75345">
        <ele>4.243994</ele>
        <time>2022-08-04T09:06:24.000Z</time>
      </trkpt>
      <trkpt lat="49.34699" lon="-0.7534">
        <ele>4.259259</ele>
        <time>2022-08-04T09:06:25.000Z</time>
      </trkpt>
      <trkpt lat="49.34696" lon="-0.75336">
        <ele>4.275513</ele>
        <time>2022-08-04T09:06:26.000Z</time>
      </trkpt>
      <trkpt lat="49.34692" lon="-0.75332">
        <ele>4.291334</ele>
        <time>2022-08-04T09:06:27.000Z</time>
      </trkpt>
      <trkpt lat="49.34689" lon="-0.75328">
        <ele>4.307174</ele>
        <time>2022-08-04T09:06:28.000Z</time>
      </trkpt>
      <trkpt lat="49.34685" lon="-0.75325">
        <ele>4.324418</ele>
        <time>2022-08-04T09:06:29.000Z</time>
      </trkpt>
      <trkpt lat="49.34681" lon="-0.75321">
        <ele>4.341424</ele>
        <time>2022-08-04T09:06:30.000Z</time>
      </trkpt>
      <trkpt lat="49.34677" lon="-0.75316">
        <ele>4.358402</ele>
        <time>2022-08-04T09:06:31.000Z</time>
      </trkpt>
      <trkpt lat="49.34673" lon="-0.75312">
        <ele>4.374365</ele>
        <time>2022-08-04T09:06:32.000Z</time>
      </trkpt>
      <trkpt lat="49.34669" lon="-0.75308">
        <ele>4.391371</ele>
        <time>2022-08-04T09:06:33.000Z</time>
      </trkpt>
      <trkpt lat="49.34665" lon="-0.75304">
        <ele>4.410806</ele>
        <time>2022-08-04T09:06:34.000Z</time>
      </trkpt>
      <trkpt lat="49.34661" lon="-0.753">
        <ele>4.426919</ele>
        <time>2022-08-04T09:06:35.000Z</time>
      </trkpt>
      <trkpt lat="49.34659" lon="-0.75296">
        <ele>4.438721</ele>
        <time>2022-08-04T09:06:36.000Z</time>
      </trkpt>
      <trkpt lat="49.34655" lon="-0.75293">
        <ele>4.454265</ele>
        <time>2022-08-04T09:06:37.000Z</time>
      </trkpt>
      <trkpt lat="49.34652" lon="-0.75289">
        <ele>4.469973</ele>
        <time>2022-08-04T09:06:38.000Z</time>
      </trkpt>
      <trkpt lat="49.34649" lon="-0.75285">
        <ele>4.484641</ele>
        <time>2022-08-04T09:06:39.000Z</time>
      </trkpt>
      <trkpt lat="49.34645" lon="-0.75281">
        <ele>4.500462</ele>
        <time>2022-08-04T09:06:40.000Z</time>
      </trkpt>
      <trkpt lat="49.34642" lon="-0.75277">
        <ele>4.515131</ele>
        <time>2022-08-04T09:06:41.000Z</time>
      </trkpt>
      <trkpt lat="49.34639" lon="-0.75273">
        <ele>4.529267</ele>
        <time>2022-08-04T09:06:42.000Z</time>
      </trkpt>
      <trkpt lat="49.34636" lon="-0.75269">
        <ele>4.544081</ele>
        <time>2022-08-04T09:06:43.000Z</time>
      </trkpt>
      <trkpt lat="49.34633" lon="-0.75265">
        <ele>4.557949</ele>
        <time>2022-08-04T09:06:44.000Z</time>
      </trkpt>
      <trkpt lat="49.34629" lon="-0.75262">
        <ele>4.5734</ele>
        <time>2022-08-04T09:06:45.000Z</time>
      </trkpt>
      <trkpt lat="49.34626" lon="-0.75258">
        <ele>4.588545</ele>
        <time>2022-08-04T09:06:46.000Z</time>
      </trkpt>
      <trkpt lat="49.34622" lon="-0.75254">
        <ele>4.606286</ele>
        <time>2022-08-04T09:06:47.000Z</time>
      </trkpt>
      <trkpt lat="49.3462" lon="-0.75251">
        <ele>4.617078</ele>
        <time>2022-08-04T09:06:48.000Z</time>
      </trkpt>
      <trkpt lat="49.34616" lon="-0.75248">
        <ele>4.632353</ele>
        <time>2022-08-04T09:06:49.000Z</time>
      </trkpt>
      <trkpt lat="49.34613" lon="-0.75244">
        <ele>4.647168</ele>
        <time>2022-08-04T09:06:50.000Z</time>
      </trkpt>
      <trkpt lat="49.34609" lon="-0.7524">
        <ele>4.664009</ele>
        <time>2022-08-04T09:06:51.000Z</time>
      </trkpt>
      <trkpt lat="49.34606" lon="-0.75235">
        <ele>4.679585</ele>
        <time>2022-08-04T09:06:52.000Z</time>
      </trkpt>
      <trkpt lat="49.34603" lon="-0.75231">
        <ele>4.694536</ele>
        <time>2022-08-04T09:06:53.000Z</time>
      </trkpt>
      <trkpt lat="49.34599" lon="-0.75227">
        <ele>4.71079</ele>
        <time>2022-08-04T09:06:54.000Z</time>
      </trkpt>
      <trkpt lat="49.34595" lon="-0.75222">
        <ele>4.729635</ele>
        <time>2022-08-04T09:06:55.000Z</time>
      </trkpt>
      <trkpt lat="49.34592" lon="-0.75219">
        <ele>4.742762</ele>
        <time>2022-08-04T09:06:56.000Z</time>
      </trkpt>
      <trkpt lat="49.34589" lon="-0.75215">
        <ele>4.756898</ele>
        <time>2022-08-04T09:06:57.000Z</time>
      </trkpt>
      <trkpt lat="49.34585" lon="-0.75211">
        <ele>4.773604</ele>
        <time>2022-08-04T09:06:58.000Z</time>
      </trkpt>
      <trkpt lat="49.34582" lon="-0.75207">
        <ele>4.78918</ele>
        <time>2022-08-04T09:06:59.000Z</time>
      </trkpt>
      <trkpt lat="49.34579" lon="-0.75203">
        <ele>4.805144</ele>
        <time>2022-08-04T09:07:00.000Z</time>
      </trkpt>
      <trkpt lat="49.34575" lon="-0.75199">
        <ele>4.819958</ele>
        <time>2022-08-04T09:07:01.000Z</time>
      </trkpt>
      <trkpt lat="49.34571" lon="-0.75194">
        <ele>4.839229</ele>
        <time>2022-08-04T09:07:02.000Z</time>
      </trkpt>
      <trkpt lat="49.34568" lon="-0.75191">
        <ele>4.852042</ele>
        <time>2022-08-04T09:07:03.000Z</time>
      </trkpt>
      <trkpt lat="49.34565" lon="-0.75187">
        <ele>4.866498</ele>
        <time>2022-08-04T09:07:04.000Z</time>
      </trkpt>
      <trkpt lat="49.34562" lon="-0.75183">
        <ele>4.896737</ele>
        <time>2022-08-04T09:07:05.000Z</time>
      </trkpt>
      <trkpt lat="49.34559" lon="-0.75179">
        <ele>4.934503</ele>
        <time>2022-08-04T09:07:06.000Z</time>
      </trkpt>
      <trkpt lat="49.34556" lon="-0.75174">
        <ele>4.973423</ele>
        <time>2022-08-04T09:07:07.000Z</time>
      </trkpt>
      <trkpt lat="49.34552" lon="-0.7517">
        <ele>5.012738</ele>
        <time>2022-08-04T09:07:08.000Z</time>
      </trkpt>
      <trkpt lat="49.34549" lon="-0.75166">
        <ele>5.049637</ele>
        <time>2022-08-04T09:07:09.000Z</time>
      </trkpt>
      <trkpt lat="49.34547" lon="-0.75161">
        <ele>5.086736</ele>
        <time>2022-08-04T09:07:10.000Z</time>
      </trkpt>
      <trkpt lat="49.34543" lon="-0.75157">
        <ele>5.125657</ele>
        <time>2022-08-04T09:07:11.000Z</time>
      </trkpt>
      <trkpt lat="49.3454" lon="-0.75153">
        <ele>5.164187</ele>
        <time>2022-08-04T09:07:12.000Z</time>
      </trkpt>
      <trkpt lat="49.34537" lon="-0.75148">
        <ele>5.201086</ele>
        <time>2022-08-04T09:07:13.000Z</time>
      </trkpt>
      <trkpt lat="49.34534" lon="-0.75144">
        <ele>5.241018</ele>
        <time>2022-08-04T09:07:14.000Z</time>
      </trkpt>
      <trkpt lat="49.3453" lon="-0.7514">
        <ele>5.282399</ele>
        <time>2022-08-04T09:07:15.000Z</time>
      </trkpt>
      <trkpt lat="49.34527" lon="-0.75136">
        <ele>5.32418</ele>
        <time>2022-08-04T09:07:16.000Z</time>
      </trkpt>
      <trkpt lat="49.34523" lon="-0.75131">
        <ele>5.367383</ele>
        <time>2022-08-04T09:07:17.000Z</time>
      </trkpt>
      <trkpt lat="49.3452" lon="-0.75127">
        <ele>5.404699</ele>
        <time>2022-08-04T09:07:18.000Z</time>
      </trkpt>
      <trkpt lat="49.34517" lon="-0.75123">
        <ele>5.441724</ele>
        <time>2022-08-04T09:07:19.000Z</time>
      </trkpt>
      <trkpt lat="49.34514" lon="-0.75119">
        <ele>5.478623</ele>
        <time>2022-08-04T09:07:20.000Z</time>
      </trkpt>
      <trkpt lat="49.34511" lon="-0.75114">
        <ele>5.517217</ele>
        <time>2022-08-04T09:07:21.000Z</time>
      </trkpt>
      <trkpt lat="49.34508" lon="-0.7511">
        <ele>5.553463</ele>
        <time>2022-08-04T09:07:22.000Z</time>
      </trkpt>
      <trkpt lat="49.34505" lon="-0.75105">
        <ele>5.593179</ele>
        <time>2022-08-04T09:07:23.000Z</time>
      </trkpt>
      <trkpt lat="49.34502" lon="-0.75101">
        <ele>5.630916</ele>
        <time>2022-08-04T09:07:24.000Z</time>
      </trkpt>
      <trkpt lat="49.34499" lon="-0.75097">
        <ele>5.6662</ele>
        <time>2022-08-04T09:07:25.000Z</time>
      </trkpt>
      <trkpt lat="49.34497" lon="-0.75093">
        <ele>5.699888</ele>
        <time>2022-08-04T09:07:26.000Z</time>
      </trkpt>
      <trkpt lat="49.34494" lon="-0.75089">
        <ele>5.735301</ele>
        <time>2022-08-04T09:07:27.000Z</time>
      </trkpt>
      <trkpt lat="49.34491" lon="-0.75085">
        <ele>5.771259</ele>
        <time>2022-08-04T09:07:28.000Z</time>
      </trkpt>
      <trkpt lat="49.34487" lon="-0.75082">
        <ele>5.809329</ele>
        <time>2022-08-04T09:07:29.000Z</time>
      </trkpt>
      <trkpt lat="49.34484" lon="-0.75079">
        <ele>5.83959</ele>
        <time>2022-08-04T09:07:30.000Z</time>
      </trkpt>
      <trkpt lat="49.3448" lon="-0.75077">
        <ele>5.877412</ele>
        <time>2022-08-04T09:07:31.000Z</time>
      </trkpt>
      <trkpt lat="49.34477" lon="-0.75076">
        <ele>5.913634</ele>
        <time>2022-08-04T09:07:32.000Z</time>
      </trkpt>
      <trkpt lat="49.34473" lon="-0.75074">
        <ele>5.950155</ele>
        <time>2022-08-04T09:07:33.000Z</time>
      </trkpt>
      <trkpt lat="49.34469" lon="-0.75073">
        <ele>5.985341</ele>
        <time>2022-08-04T09:07:34.000Z</time>
      </trkpt>
      <trkpt lat="49.34465" lon="-0.75073">
        <ele>6.023892</ele>
        <time>2022-08-04T09:07:35.000Z</time>
      </trkpt>
      <trkpt lat="49.34461" lon="-0.75073">
        <ele>6.058667</ele>
        <time>2022-08-04T09:07:36.000Z</time>
      </trkpt>
      <trkpt lat="49.34457" lon="-0.75073">
        <ele>6.093462</ele>
        <time>2022-08-04T09:07:37.000Z</time>
      </trkpt>
      <trkpt lat="49.34453" lon="-0.75073">
        <ele>6.131939</ele>
        <time>2022-08-04T09:07:38.000Z</time>
      </trkpt>
      <trkpt lat="49.34449" lon="-0.75074">
        <ele>6.166795</ele>
        <time>2022-08-04T09:07:39.000Z</time>
      </trkpt>
      <trkpt lat="49.34445" lon="-0.75074">
        <ele>6.205396</ele>
        <time>2022-08-04T09:07:40.000Z</time>
      </trkpt>
      <trkpt lat="49.34441" lon="-0.75075">
        <ele>6.24042</ele>
        <time>2022-08-04T09:07:41.000Z</time>
      </trkpt>
      <trkpt lat="49.34437" lon="-0.75076">
        <ele>6.279082</ele>
        <time>2022-08-04T09:07:42.000Z</time>
      </trkpt>
      <trkpt lat="49.34433" lon="-0.75077">
        <ele>6.317812</ele>
        <time>2022-08-04T09:07:43.000Z</time>
      </trkpt>
      <trkpt lat="49.34429" lon="-0.75077">
        <ele>6.355563</ele>
        <time>2022-08-04T09:07:44.000Z</time>
      </trkpt>
      <trkpt lat="49.34425" lon="-0.75078">
        <ele>6.391432</ele>
        <time>2022-08-04T09:07:45.000Z</time>
      </trkpt>
      <trkpt lat="49.34421" lon="-0.75079">
        <ele>6.426935</ele>
        <time>2022-08-04T09:07:46.000Z</time>
      </trkpt>
      <trkpt lat="49.34417" lon="-0.7508">
        <ele>6.465829</ele>
        <time>2022-08-04T09:07:47.000Z</time>
      </trkpt>
      <trkpt lat="49.34413" lon="-0.75081">
        <ele>6.500732</ele>
        <time>2022-08-04T09:07:48.000Z</time>
      </trkpt>
      <trkpt lat="49.34409" lon="-0.75081">
        <ele>6.541043</ele>
        <time>2022-08-04T09:07:49.000Z</time>
      </trkpt>
      <trkpt lat="49.34404" lon="-0.75082">
        <ele>6.588406</ele>
        <time>2022-08-04T09:07:50.000Z</time>
      </trkpt>
      <trkpt lat="49.344" lon="-0.75082">
        <ele>6.628986</ele>
        <time>2022-08-04T09:07:51.000Z</time>
      </trkpt>
      <trkpt lat="49.34397" lon="-0.75083">
        <ele>6.660834</ele>
        <time>2022-08-04T09:07:52.000Z</time>
      </trkpt>
      <trkpt lat="49.34392" lon="-0.75084">
        <ele>6.70234</ele>
        <time>2022-08-04T09:07:53.000Z</time>
      </trkpt>
      <trkpt lat="49.34388" lon="-0.75084">
        <ele>6.74672</ele>
        <time>2022-08-04T09:07:54.000Z</time>
      </trkpt>
      <trkpt lat="49.34384" lon="-0.75084">
        <ele>6.787243</ele>
        <time>2022-08-04T09:07:55.000Z</time>
      </trkpt>
      <trkpt lat="49.3438" lon="-0.75085">
        <ele>6.828705</ele>
        <time>2022-08-04T09:07:56.000Z</time>
      </trkpt>
      <trkpt lat="49.34376" lon="-0.75085">
        <ele>6.866146</ele>
        <time>2022-08-04T09:07:57.000Z</time>
      </trkpt>
      <trkpt lat="49.34371" lon="-0.75085">
        <ele>6.913444</ele>
        <time>2022-08-04T09:07:58.000Z</time>
      </trkpt>
      <trkpt lat="49.34368" lon="-0.75085">
        <ele>6.945136</ele>
        <time>2022-08-04T09:07:59.000Z</time>
      </trkpt>
      <trkpt lat="49.34364" lon="-0.75086">
        <ele>6.986597</ele>
        <time>2022-08-04T09:08:00.000Z</time>
      </trkpt>
      <trkpt lat="49.3436" lon="-0.75086">
        <ele>7.024088</ele>
        <time>2022-08-04T09:08:01.000Z</time>
      </trkpt>
      <trkpt lat="49.34356" lon="-0.75087">
        <ele>7.062776</ele>
        <time>2022-08-04T09:08:02.000Z</time>
      </trkpt>
      <trkpt lat="49.34352" lon="-0.75087">
        <ele>7.100414</ele>
        <time>2022-08-04T09:08:03.000Z</time>
      </trkpt>
      <trkpt lat="49.34349" lon="-0.75088">
        <ele>7.132106</ele>
        <time>2022-08-04T09:08:04.000Z</time>
      </trkpt>
      <trkpt lat="49.34345" lon="-0.75089">
        <ele>7.16999</ele>
        <time>2022-08-04T09:08:05.000Z</time>
      </trkpt>
      <trkpt lat="49.34341" lon="-0.75089">
        <ele>7.205669</ele>
        <time>2022-08-04T09:08:06.000Z</time>
      </trkpt>
      <trkpt lat="49.34338" lon="-0.7509">
        <ele>7.240746</ele>
        <time>2022-08-04T09:08:07.000Z</time>
      </trkpt>
      <trkpt lat="49.34335" lon="-0.75092">
        <ele>7.267193</ele>
        <time>2022-08-04T09:08:08.000Z</time>
      </trkpt>
      <trkpt lat="49.34332" lon="-0.75094">
        <ele>7.300558</ele>
        <time>2022-08-04T09:08:09.000Z</time>
      </trkpt>
      <trkpt lat="49.3433" lon="-0.75096">
        <ele>7.329212</ele>
        <time>2022-08-04T09:08:10.000Z</time>
      </trkpt>
      <trkpt lat="49.34327" lon="-0.75098">
        <ele>7.357867</ele>
        <time>2022-08-04T09:08:11.000Z</time>
      </trkpt>
      <trkpt lat="49.34324" lon="-0.75099">
        <ele>7.391231</ele>
        <time>2022-08-04T09:08:12.000Z</time>
      </trkpt>
      <trkpt lat="49.34321" lon="-0.75101">
        <ele>7.421141</ele>
        <time>2022-08-04T09:08:13.000Z</time>
      </trkpt>
      <trkpt lat="49.34318" lon="-0.75102">
        <ele>7.450908</ele>
        <time>2022-08-04T09:08:14.000Z</time>
      </trkpt>
      <trkpt lat="49.34316" lon="-0.75103">
        <ele>7.473606</ele>
        <time>2022-08-04T09:08:15.000Z</time>
      </trkpt>
      <trkpt lat="49.34314" lon="-0.75102">
        <ele>7.492858</ele>
        <time>2022-08-04T09:08:16.000Z</time>
      </trkpt>
      <trkpt lat="49.34312" lon="-0.751">
        <ele>7.518051</ele>
        <time>2022-08-04T09:08:17.000Z</time>
      </trkpt>
      <trkpt lat="49.34309" lon="-0.75097">
        <ele>7.54821</ele>
        <time>2022-08-04T09:08:18.000Z</time>
      </trkpt>
      <trkpt lat="49.34308" lon="-0.75093">
        <ele>7.575657</ele>
        <time>2022-08-04T09:08:19.000Z</time>
      </trkpt>
      <trkpt lat="49.34306" lon="-0.7509">
        <ele>7.604164</ele>
        <time>2022-08-04T09:08:20.000Z</time>
      </trkpt>
      <trkpt lat="49.34306" lon="-0.75086">
        <ele>7.625554</ele>
        <time>2022-08-04T09:08:21.000Z</time>
      </trkpt>
      <trkpt lat="49.34305" lon="-0.75083">
        <ele>7.648786</ele>
        <time>2022-08-04T09:08:22.000Z</time>
      </trkpt>
      <trkpt lat="49.34305" lon="-0.75079">
        <ele>7.672721</ele>
        <time>2022-08-04T09:08:23.000Z</time>
      </trkpt>
      <trkpt lat="49.34304" lon="-0.75075">
        <ele>7.69903</ele>
        <time>2022-08-04T09:08:24.000Z</time>
      </trkpt>
      <trkpt lat="49.34303" lon="-0.75072">
        <ele>7.722262</ele>
        <time>2022-08-04T09:08:25.000Z</time>
      </trkpt>
      <trkpt lat="49.34302" lon="-0.75068">
        <ele>7.746209</ele>
        <time>2022-08-04T09:08:26.000Z</time>
      </trkpt>
      <trkpt lat="49.34302" lon="-0.75065">
        <ele>7.769442</ele>
        <time>2022-08-04T09:08:27.000Z</time>
      </trkpt>
      <trkpt lat="49.34301" lon="-0.75062">
        <ele>7.789729</ele>
        <time>2022-08-04T09:08:28.000Z</time>
      </trkpt>
      <trkpt lat="49.34301" lon="-0.75058">
        <ele>7.812197</ele>
        <time>2022-08-04T09:08:29.000Z</time>
      </trkpt>
      <trkpt lat="49.34301" lon="-0.75055">
        <ele>7.836132</ele>
        <time>2022-08-04T09:08:30.000Z</time>
      </trkpt>
      <trkpt lat="49.34301" lon="-0.75051">
        <ele>7.862481</ele>
        <time>2022-08-04T09:08:31.000Z</time>
      </trkpt>
      <trkpt lat="49.343" lon="-0.75046">
        <ele>7.890242</ele>
        <time>2022-08-04T09:08:32.000Z</time>
      </trkpt>
      <trkpt lat="49.343" lon="-0.75042">
        <ele>7.919942</ele>
        <time>2022-08-04T09:08:33.000Z</time>
      </trkpt>
      <trkpt lat="49.34299" lon="-0.75037">
        <ele>7.950159</ele>
        <time>2022-08-04T09:08:34.000Z</time>
      </trkpt>
      <trkpt lat="49.34298" lon="-0.75032">
        <ele>7.981861</ele>
        <time>2022-08-04T09:08:35.000Z</time>
      </trkpt>
      <trkpt lat="49.34298" lon="-0.75028">
        <ele>8.013236</ele>
        <time>2022-08-04T09:08:36.000Z</time>
      </trkpt>
      <trkpt lat="49.34297" lon="-0.75022">
        <ele>8.04804</ele>
        <time>2022-08-04T09:08:37.000Z</time>
      </trkpt>
      <trkpt lat="49.34296" lon="-0.75017">
        <ele>8.0832</ele>
        <time>2022-08-04T09:08:38.000Z</time>
      </trkpt>
      <trkpt lat="49.34295" lon="-0.75012">
        <ele>8.116712</ele>
        <time>2022-08-04T09:08:39.000Z</time>
      </trkpt>
      <trkpt lat="49.34294" lon="-0.75007">
        <ele>8.153066</ele>
        <time>2022-08-04T09:08:40.000Z</time>
      </trkpt>
      <trkpt lat="49.34293" lon="-0.75001">
        <ele>8.187781</ele>
        <time>2022-08-04T09:08:41.000Z</time>
      </trkpt>
      <trkpt lat="49.34293" lon="-0.74996">
        <ele>8.224184</ele>
        <time>2022-08-04T09:08:42.000Z</time>
      </trkpt>
      <trkpt lat="49.34292" lon="-0.7499">
        <ele>8.261419</ele>
        <time>2022-08-04T09:08:43.000Z</time>
      </trkpt>
      <trkpt lat="49.34291" lon="-0.74984">
        <ele>8.293394</ele>
        <time>2022-08-04T09:08:44.000Z</time>
      </trkpt>
      <trkpt lat="49.3429" lon="-0.74978">
        <ele>8.305076</ele>
        <time>2022-08-04T09:08:45.000Z</time>
      </trkpt>
      <trkpt lat="49.3429" lon="-0.74972">
        <ele>8.316339</ele>
        <time>2022-08-04T09:08:46.000Z</time>
      </trkpt>
      <trkpt lat="49.34289" lon="-0.74966">
        <ele>8.327878</ele>
        <time>2022-08-04T09:08:47.000Z</time>
      </trkpt>
      <trkpt lat="49.34288" lon="-0.7496">
        <ele>8.340162</ele>
        <time>2022-08-04T09:08:48.000Z</time>
      </trkpt>
      <trkpt lat="49.34287" lon="-0.74954">
        <ele>8.352172</ele>
        <time>2022-08-04T09:08:49.000Z</time>
      </trkpt>
      <trkpt lat="49.34286" lon="-0.74948">
        <ele>8.364219</ele>
        <time>2022-08-04T09:08:50.000Z</time>
      </trkpt>
      <trkpt lat="49.34286" lon="-0.74941">
        <ele>8.376042</ele>
        <time>2022-08-04T09:08:51.000Z</time>
      </trkpt>
      <trkpt lat="49.34285" lon="-0.74935">
        <ele>8.388866</ele>
        <time>2022-08-04T09:08:52.000Z</time>
      </trkpt>
      <trkpt lat="49.34284" lon="-0.74928">
        <ele>8.401293</ele>
        <time>2022-08-04T09:08:53.000Z</time>
      </trkpt>
      <trkpt lat="49.34283" lon="-0.74922">
        <ele>8.414036</ele>
        <time>2022-08-04T09:08:54.000Z</time>
      </trkpt>
      <trkpt lat="49.34282" lon="-0.74915">
        <ele>8.426648</ele>
        <time>2022-08-04T09:08:55.000Z</time>
      </trkpt>
      <trkpt lat="49.34281" lon="-0.74908">
        <ele>8.439778</ele>
        <time>2022-08-04T09:08:56.000Z</time>
      </trkpt>
      <trkpt lat="49.3428" lon="-0.74901">
        <ele>8.453295</ele>
        <time>2022-08-04T09:08:57.000Z</time>
      </trkpt>
      <trkpt lat="49.3428" lon="-0.74894">
        <ele>8.466612</ele>
        <time>2022-08-04T09:08:58.000Z</time>
      </trkpt>
      <trkpt lat="49.34279" lon="-0.74888">
        <ele>8.479761</ele>
        <time>2022-08-04T09:08:59.000Z</time>
      </trkpt>
      <trkpt lat="49.34278" lon="-0.74881">
        <ele>8.492704</ele>
        <time>2022-08-04T09:09:00.000Z</time>
      </trkpt>
      <trkpt lat="49.34277" lon="-0.74874">
        <ele>8.506037</ele>
        <time>2022-08-04T09:09:01.000Z</time>
      </trkpt>
      <trkpt lat="49.34276" lon="-0.74867">
        <ele>8.519404</ele>
        <time>2022-08-04T09:09:02.000Z</time>
      </trkpt>
      <trkpt lat="49.34275" lon="-0.7486">
        <ele>8.533056</ele>
        <time>2022-08-04T09:09:03.000Z</time>
      </trkpt>
      <trkpt lat="49.34274" lon="-0.74853">
        <ele>8.546787</ele>
        <time>2022-08-04T09:09:04.000Z</time>
      </trkpt>
      <trkpt lat="49.34273" lon="-0.74846">
        <ele>8.560104</ele>
        <time>2022-08-04T09:09:05.000Z</time>
      </trkpt>
      <trkpt lat="49.34272" lon="-0.74839">
        <ele>8.573834</ele>
        <time>2022-08-04T09:09:06.000Z</time>
      </trkpt>
      <trkpt lat="49.34271" lon="-0.74832">
        <ele>8.587563</ele>
        <time>2022-08-04T09:09:07.000Z</time>
      </trkpt>
      <trkpt lat="49.3427" lon="-0.74825">
        <ele>8.60088</ele>
        <time>2022-08-04T09:09:08.000Z</time>
      </trkpt>
      <trkpt lat="49.34269" lon="-0.74818">
        <ele>8.613493</ele>
        <time>2022-08-04T09:09:09.000Z</time>
      </trkpt>
      <trkpt lat="49.34268" lon="-0.74811">
        <ele>8.62751</ele>
        <time>2022-08-04T09:09:10.000Z</time>
      </trkpt>
      <trkpt lat="49.34267" lon="-0.74804">
        <ele>8.640475</ele>
        <time>2022-08-04T09:09:11.000Z</time>
      </trkpt>
      <trkpt lat="49.34266" lon="-0.74798">
        <ele>8.653758</ele>
        <time>2022-08-04T09:09:12.000Z</time>
      </trkpt>
      <trkpt lat="49.34264" lon="-0.74791">
        <ele>8.667306</ele>
        <time>2022-08-04T09:09:13.000Z</time>
      </trkpt>
      <trkpt lat="49.34263" lon="-0.74784">
        <ele>8.680412</ele>
        <time>2022-08-04T09:09:14.000Z</time>
      </trkpt>
      <trkpt lat="49.34262" lon="-0.74778">
        <ele>8.692946</ele>
        <time>2022-08-04T09:09:15.000Z</time>
      </trkpt>
      <trkpt lat="49.3426" lon="-0.74771">
        <ele>8.706228</ele>
        <time>2022-08-04T09:09:16.000Z</time>
      </trkpt>
      <trkpt lat="49.34259" lon="-0.74765">
        <ele>8.718873</ele>
        <time>2022-08-04T09:09:17.000Z</time>
      </trkpt>
      <trkpt lat="49.34258" lon="-0.74759">
        <ele>8.731104</ele>
        <time>2022-08-04T09:09:18.000Z</time>
      </trkpt>
      <trkpt lat="49.34256" lon="-0.74752">
        <ele>8.743858</ele>
        <time>2022-08-04T09:09:19.000Z</time>
      </trkpt>
      <trkpt lat="49.34255" lon="-0.74746">
        <ele>8.756787</ele>
        <time>2022-08-04T09:09:20.000Z</time>
      </trkpt>
      <trkpt lat="49.34253" lon="-0.7474">
        <ele>8.769252</ele>
        <time>2022-08-04T09:09:21.000Z</time>
      </trkpt>
      <trkpt lat="49.34252" lon="-0.74733">
        <ele>8.78269</ele>
        <time>2022-08-04T09:09:22.000Z</time>
      </trkpt>
      <trkpt lat="49.3425" lon="-0.74727">
        <ele>8.794975</ele>
        <time>2022-08-04T09:09:23.000Z</time>
      </trkpt>
      <trkpt lat="49.34249" lon="-0.74721">
        <ele>8.807378</ele>
        <time>2022-08-04T09:09:24.000Z</time>
      </trkpt>
      <trkpt lat="49.34247" lon="-0.74715">
        <ele>8.820199</ele>
        <time>2022-08-04T09:09:25.000Z</time>
      </trkpt>
      <trkpt lat="49.34246" lon="-0.74709">
        <ele>8.83403</ele>
        <time>2022-08-04T09:09:26.000Z</time>
      </trkpt>
      <trkpt lat="49.34245" lon="-0.74703">
        <ele>8.847317</ele>
        <time>2022-08-04T09:09:27.000Z</time>
      </trkpt>
      <trkpt lat="49.34243" lon="-0.74697">
        <ele>8.860362</ele>
        <time>2022-08-04T09:09:28.000Z</time>
      </trkpt>
      <trkpt lat="49.34242" lon="-0.74692">
        <ele>8.872956</ele>
        <time>2022-08-04T09:09:29.000Z</time>
      </trkpt>
      <trkpt lat="49.34241" lon="-0.74686">
        <ele>8.88584</ele>
        <time>2022-08-04T09:09:30.000Z</time>
      </trkpt>
      <trkpt lat="49.3424" lon="-0.7468">
        <ele>8.898145</ele>
        <time>2022-08-04T09:09:31.000Z</time>
      </trkpt>
      <trkpt lat="49.34238" lon="-0.74675">
        <ele>8.911386</ele>
        <time>2022-08-04T09:09:32.000Z</time>
      </trkpt>
      <trkpt lat="49.34237" lon="-0.74669">
        <ele>8.924269</ele>
        <time>2022-08-04T09:09:33.000Z</time>
      </trkpt>
      <trkpt lat="49.34236" lon="-0.74663">
        <ele>8.937355</ele>
        <time>2022-08-04T09:09:34.000Z</time>
      </trkpt>
      <trkpt lat="49.34234" lon="-0.74657">
        <ele>8.950844</ele>
        <time>2022-08-04T09:09:35.000Z</time>
      </trkpt>
      <trkpt lat="49.34233" lon="-0.74651">
        <ele>8.964676</ele>
        <time>2022-08-04T09:09:36.000Z</time>
      </trkpt>
      <trkpt lat="49.34231" lon="-0.74645">
        <ele>8.978113</ele>
        <time>2022-08-04T09:09:37.000Z</time>
      </trkpt>
      <trkpt lat="49.3423" lon="-0.74639">
        <ele>8.991299</ele>
        <time>2022-08-04T09:09:38.000Z</time>
      </trkpt>
      <trkpt lat="49.34229" lon="-0.74634">
        <ele>9.004384</ele>
        <time>2022-08-04T09:09:39.000Z</time>
      </trkpt>
      <trkpt lat="49.34227" lon="-0.74628">
        <ele>9.017821</ele>
        <time>2022-08-04T09:09:40.000Z</time>
      </trkpt>
      <trkpt lat="49.34226" lon="-0.74622">
        <ele>9.031109</ele>
        <time>2022-08-04T09:09:41.000Z</time>
      </trkpt>
      <trkpt lat="49.34224" lon="-0.74616">
        <ele>9.044598</ele>
        <time>2022-08-04T09:09:42.000Z</time>
      </trkpt>
      <trkpt lat="49.34223" lon="-0.7461">
        <ele>9.058035</ele>
        <time>2022-08-04T09:09:43.000Z</time>
      </trkpt>
      <trkpt lat="49.34222" lon="-0.74604">
        <ele>9.070755</ele>
        <time>2022-08-04T09:09:44.000Z</time>
      </trkpt>
      <trkpt lat="49.3422" lon="-0.74599">
        <ele>9.083996</ele>
        <time>2022-08-04T09:09:45.000Z</time>
      </trkpt>
      <trkpt lat="49.34219" lon="-0.74593">
        <ele>9.097433</ele>
        <time>2022-08-04T09:09:46.000Z</time>
      </trkpt>
      <trkpt lat="49.34217" lon="-0.74587">
        <ele>9.111067</ele>
        <time>2022-08-04T09:09:47.000Z</time>
      </trkpt>
      <trkpt lat="49.34216" lon="-0.74581">
        <ele>9.124759</ele>
        <time>2022-08-04T09:09:48.000Z</time>
      </trkpt>
      <trkpt lat="49.34214" lon="-0.74574">
        <ele>9.139384</ele>
        <time>2022-08-04T09:09:49.000Z</time>
      </trkpt>
      <trkpt lat="49.34213" lon="-0.74568">
        <ele>9.15389</ele>
        <time>2022-08-04T09:09:50.000Z</time>
      </trkpt>
      <trkpt lat="49.34211" lon="-0.74562">
        <ele>9.168315</ele>
        <time>2022-08-04T09:09:51.000Z</time>
      </trkpt>
      <trkpt lat="49.3421" lon="-0.74555">
        <ele>9.18221</ele>
        <time>2022-08-04T09:09:52.000Z</time>
      </trkpt>
      <trkpt lat="49.34208" lon="-0.74549">
        <ele>9.196239</ele>
        <time>2022-08-04T09:09:53.000Z</time>
      </trkpt>
      <trkpt lat="49.34207" lon="-0.74544">
        <ele>9.208521</ele>
        <time>2022-08-04T09:09:54.000Z</time>
      </trkpt>
      <trkpt lat="49.34205" lon="-0.74539">
        <ele>9.221054</ele>
        <time>2022-08-04T09:09:55.000Z</time>
      </trkpt>
      <trkpt lat="49.34204" lon="-0.74534">
        <ele>9.231097</ele>
        <time>2022-08-04T09:09:56.000Z</time>
      </trkpt>
      <trkpt lat="49.34203" lon="-0.7453">
        <ele>9.240038</ele>
        <time>2022-08-04T09:09:57.000Z</time>
      </trkpt>
      <trkpt lat="49.34203" lon="-0.74527">
        <ele>9.246937</ele>
        <time>2022-08-04T09:09:58.000Z</time>
      </trkpt>
      <trkpt lat="49.34202" lon="-0.74524">
        <ele>9.253535</ele>
        <time>2022-08-04T09:09:59.000Z</time>
      </trkpt>
      <trkpt lat="49.34201" lon="-0.74522">
        <ele>9.260031</ele>
        <time>2022-08-04T09:10:00.000Z</time>
      </trkpt>
      <trkpt lat="49.342" lon="-0.74518">
        <ele>9.268657</ele>
        <time>2022-08-04T09:10:02.000Z</time>
      </trkpt>
      <trkpt lat="49.34198" lon="-0.74515">
        <ele>9.277779</ele>
        <time>2022-08-04T09:10:04.000Z</time>
      </trkpt>
      <trkpt lat="49.34197" lon="-0.74511">
        <ele>9.28672</ele>
        <time>2022-08-04T09:10:06.000Z</time>
      </trkpt>
      <trkpt lat="49.34197" lon="-0.74508">
        <ele>9.293828</ele>
        <time>2022-08-04T09:10:08.000Z</time>
      </trkpt>
      <trkpt lat="49.34191" lon="-0.74491">
        <ele>9.333221</ele>
        <time>2022-08-04T09:11:24.000Z</time>
      </trkpt>
      <trkpt lat="49.34191" lon="-0.74486">
        <ele>9.344392</ele>
        <time>2022-08-04T09:11:25.000Z</time>
      </trkpt>
      <trkpt lat="49.3419" lon="-0.7448">
        <ele>9.357112</ele>
        <time>2022-08-04T09:11:26.000Z</time>
      </trkpt>
      <trkpt lat="49.34189" lon="-0.74475">
        <ele>9.368883</ele>
        <time>2022-08-04T09:11:27.000Z</time>
      </trkpt>
      <trkpt lat="49.34187" lon="-0.74467">
        <ele>9.387049</ele>
        <time>2022-08-04T09:11:28.000Z</time>
      </trkpt>
      <trkpt lat="49.34186" lon="-0.74459">
        <ele>9.407293</ele>
        <time>2022-08-04T09:11:29.000Z</time>
      </trkpt>
      <trkpt lat="49.34184" lon="-0.74452">
        <ele>9.446157</ele>
        <time>2022-08-04T09:11:30.000Z</time>
      </trkpt>
      <trkpt lat="49.34183" lon="-0.74445">
        <ele>9.480471</ele>
        <time>2022-08-04T09:11:31.000Z</time>
      </trkpt>
      <trkpt lat="49.34181" lon="-0.74436">
        <ele>9.526422</ele>
        <time>2022-08-04T09:11:32.000Z</time>
      </trkpt>
      <trkpt lat="49.34179" lon="-0.74428">
        <ele>9.566916</ele>
        <time>2022-08-04T09:11:33.000Z</time>
      </trkpt>
      <trkpt lat="49.34177" lon="-0.7442">
        <ele>9.60696</ele>
        <time>2022-08-04T09:11:34.000Z</time>
      </trkpt>
      <trkpt lat="49.34175" lon="-0.74412">
        <ele>9.648164</ele>
        <time>2022-08-04T09:11:35.000Z</time>
      </trkpt>
      <trkpt lat="49.34173" lon="-0.74404">
        <ele>9.689787</ele>
        <time>2022-08-04T09:11:36.000Z</time>
      </trkpt>
      <trkpt lat="49.34172" lon="-0.74395">
        <ele>9.732545</ele>
        <time>2022-08-04T09:11:37.000Z</time>
      </trkpt>
      <trkpt lat="49.3417" lon="-0.74387">
        <ele>9.775552</ele>
        <time>2022-08-04T09:11:38.000Z</time>
      </trkpt>
      <trkpt lat="49.34167" lon="-0.74378">
        <ele>9.821276</ele>
        <time>2022-08-04T09:11:39.000Z</time>
      </trkpt>
      <trkpt lat="49.34166" lon="-0.74371">
        <ele>9.856278</ele>
        <time>2022-08-04T09:11:40.000Z</time>
      </trkpt>
      <trkpt lat="49.34164" lon="-0.74361">
        <ele>9.908947</ele>
        <time>2022-08-04T09:11:41.000Z</time>
      </trkpt>
      <trkpt lat="49.34161" lon="-0.74352">
        <ele>9.952928</ele>
        <time>2022-08-04T09:11:42.000Z</time>
      </trkpt>
      <trkpt lat="49.34159" lon="-0.74344">
        <ele>9.997507</ele>
        <time>2022-08-04T09:11:43.000Z</time>
      </trkpt>
      <trkpt lat="49.34157" lon="-0.74335">
        <ele>10.043234</ele>
        <time>2022-08-04T09:11:44.000Z</time>
      </trkpt>
      <trkpt lat="49.34156" lon="-0.74327">
        <ele>10.080589</ele>
        <time>2022-08-04T09:11:45.000Z</time>
      </trkpt>
      <trkpt lat="49.34153" lon="-0.74317">
        <ele>10.134346</ele>
        <time>2022-08-04T09:11:46.000Z</time>
      </trkpt>
      <trkpt lat="49.34151" lon="-0.74308">
        <ele>10.178256</ele>
        <time>2022-08-04T09:11:47.000Z</time>
      </trkpt>
      <trkpt lat="49.34149" lon="-0.743">
        <ele>10.221469</ele>
        <time>2022-08-04T09:11:48.000Z</time>
      </trkpt>
      <trkpt lat="49.34147" lon="-0.74291">
        <ele>10.265593</ele>
        <time>2022-08-04T09:11:49.000Z</time>
      </trkpt>
      <trkpt lat="49.34145" lon="-0.74282">
        <ele>10.310172</ele>
        <time>2022-08-04T09:11:50.000Z</time>
      </trkpt>
      <trkpt lat="49.34143" lon="-0.74273">
        <ele>10.356214</ele>
        <time>2022-08-04T09:11:51.000Z</time>
      </trkpt>
      <trkpt lat="49.34141" lon="-0.74265">
        <ele>10.399426</ele>
        <time>2022-08-04T09:11:52.000Z</time>
      </trkpt>
      <trkpt lat="49.34139" lon="-0.74256">
        <ele>10.443408</ele>
        <time>2022-08-04T09:11:53.000Z</time>
      </trkpt>
      <trkpt lat="49.34137" lon="-0.74248">
        <ele>10.48662</ele>
        <time>2022-08-04T09:11:54.000Z</time>
      </trkpt>
      <trkpt lat="49.34134" lon="-0.74239">
        <ele>10.533085</ele>
        <time>2022-08-04T09:11:55.000Z</time>
      </trkpt>
      <trkpt lat="49.34132" lon="-0.7423">
        <ele>10.577961</ele>
        <time>2022-08-04T09:11:56.000Z</time>
      </trkpt>
      <trkpt lat="49.34129" lon="-0.74222">
        <ele>10.624527</ele>
        <time>2022-08-04T09:11:57.000Z</time>
      </trkpt>
      <trkpt lat="49.34127" lon="-0.74213">
        <ele>10.669676</ele>
        <time>2022-08-04T09:11:58.000Z</time>
      </trkpt>
      <trkpt lat="49.34125" lon="-0.74205">
        <ele>10.713647</ele>
        <time>2022-08-04T09:11:59.000Z</time>
      </trkpt>
      <trkpt lat="49.34122" lon="-0.74197">
        <ele>10.824783</ele>
        <time>2022-08-04T09:12:00.000Z</time>
      </trkpt>
      <trkpt lat="49.34118" lon="-0.74189">
        <ele>10.968538</ele>
        <time>2022-08-04T09:12:01.000Z</time>
      </trkpt>
      <trkpt lat="49.34115" lon="-0.74182">
        <ele>11.107424</ele>
        <time>2022-08-04T09:12:02.000Z</time>
      </trkpt>
      <trkpt lat="49.34111" lon="-0.74175">
        <ele>11.248839</ele>
        <time>2022-08-04T09:12:03.000Z</time>
      </trkpt>
      <trkpt lat="49.34107" lon="-0.74169">
        <ele>11.386787</ele>
        <time>2022-08-04T09:12:04.000Z</time>
      </trkpt>
      <trkpt lat="49.34103" lon="-0.74163">
        <ele>11.522435</ele>
        <time>2022-08-04T09:12:05.000Z</time>
      </trkpt>
      <trkpt lat="49.341" lon="-0.74158">
        <ele>11.637947</ele>
        <time>2022-08-04T09:12:06.000Z</time>
      </trkpt>
      <trkpt lat="49.34095" lon="-0.74151">
        <ele>11.803424</ele>
        <time>2022-08-04T09:12:07.000Z</time>
      </trkpt>
      <trkpt lat="49.34091" lon="-0.74144">
        <ele>11.942472</ele>
        <time>2022-08-04T09:12:08.000Z</time>
      </trkpt>
      <trkpt lat="49.34086" lon="-0.74138">
        <ele>12.087513</ele>
        <time>2022-08-04T09:12:09.000Z</time>
      </trkpt>
      <trkpt lat="49.34082" lon="-0.74132">
        <ele>12.231606</ele>
        <time>2022-08-04T09:12:10.000Z</time>
      </trkpt>
      <trkpt lat="49.34078" lon="-0.74125">
        <ele>12.373814</ele>
        <time>2022-08-04T09:12:11.000Z</time>
      </trkpt>
      <trkpt lat="49.34075" lon="-0.74118">
        <ele>12.501737</ele>
        <time>2022-08-04T09:12:12.000Z</time>
      </trkpt>
      <trkpt lat="49.34072" lon="-0.74111">
        <ele>12.640624</ele>
        <time>2022-08-04T09:12:13.000Z</time>
      </trkpt>
      <trkpt lat="49.34069" lon="-0.74104">
        <ele>12.77386</ele>
        <time>2022-08-04T09:12:14.000Z</time>
      </trkpt>
      <trkpt lat="49.34066" lon="-0.74097">
        <ele>12.912349</ele>
        <time>2022-08-04T09:12:15.000Z</time>
      </trkpt>
      <trkpt lat="49.34063" lon="-0.74089">
        <ele>13.046927</ele>
        <time>2022-08-04T09:12:16.000Z</time>
      </trkpt>
      <trkpt lat="49.3406" lon="-0.74082">
        <ele>13.184114</ele>
        <time>2022-08-04T09:12:17.000Z</time>
      </trkpt>
      <trkpt lat="49.34056" lon="-0.74075">
        <ele>13.318711</ele>
        <time>2022-08-04T09:12:18.000Z</time>
      </trkpt>
      <trkpt lat="49.34053" lon="-0.74068">
        <ele>13.453289</ele>
        <time>2022-08-04T09:12:19.000Z</time>
      </trkpt>
      <trkpt lat="49.3405" lon="-0.74061">
        <ele>13.594686</ele>
        <time>2022-08-04T09:12:20.000Z</time>
      </trkpt>
      <trkpt lat="49.34047" lon="-0.74053">
        <ele>13.723105</ele>
        <time>2022-08-04T09:12:21.000Z</time>
      </trkpt>
      <trkpt lat="49.34044" lon="-0.74046">
        <ele>13.861595</ele>
        <time>2022-08-04T09:12:22.000Z</time>
      </trkpt>
      <trkpt lat="49.34041" lon="-0.74039">
        <ele>13.994832</ele>
        <time>2022-08-04T09:12:23.000Z</time>
      </trkpt>
      <trkpt lat="49.34038" lon="-0.74032">
        <ele>14.130721</ele>
        <time>2022-08-04T09:12:24.000Z</time>
      </trkpt>
      <trkpt lat="49.34035" lon="-0.74025">
        <ele>14.263958</ele>
        <time>2022-08-04T09:12:25.000Z</time>
      </trkpt>
      <trkpt lat="49.34032" lon="-0.74018">
        <ele>14.394528</ele>
        <time>2022-08-04T09:12:26.000Z</time>
      </trkpt>
      <trkpt lat="49.34029" lon="-0.74011">
        <ele>14.525098</ele>
        <time>2022-08-04T09:12:27.000Z</time>
      </trkpt>
      <trkpt lat="49.34026" lon="-0.74003">
        <ele>14.663588</ele>
        <time>2022-08-04T09:12:28.000Z</time>
      </trkpt>
      <trkpt lat="49.34024" lon="-0.73996">
        <ele>14.792008</ele>
        <time>2022-08-04T09:12:29.000Z</time>
      </trkpt>
      <trkpt lat="49.34021" lon="-0.73989">
        <ele>14.926606</ele>
        <time>2022-08-04T09:12:30.000Z</time>
      </trkpt>
      <trkpt lat="49.34018" lon="-0.73982">
        <ele>15.059843</ele>
        <time>2022-08-04T09:12:31.000Z</time>
      </trkpt>
      <trkpt lat="49.34014" lon="-0.73975">
        <ele>15.275841</ele>
        <time>2022-08-04T09:12:32.000Z</time>
      </trkpt>
      <trkpt lat="49.34012" lon="-0.73968">
        <ele>15.4902</ele>
        <time>2022-08-04T09:12:33.000Z</time>
      </trkpt>
      <trkpt lat="49.34008" lon="-0.7396">
        <ele>15.72412</ele>
        <time>2022-08-04T09:12:34.000Z</time>
      </trkpt>
      <trkpt lat="49.34005" lon="-0.73954">
        <ele>15.935751</ele>
        <time>2022-08-04T09:12:35.000Z</time>
      </trkpt>
      <trkpt lat="49.34003" lon="-0.73947">
        <ele>16.14522</ele>
        <time>2022-08-04T09:12:36.000Z</time>
      </trkpt>
      <trkpt lat="49.34" lon="-0.7394">
        <ele>16.343832</ele>
        <time>2022-08-04T09:12:37.000Z</time>
      </trkpt>
      <trkpt lat="49.33998" lon="-0.73935">
        <ele>16.509675</ele>
        <time>2022-08-04T09:12:38.000Z</time>
      </trkpt>
      <trkpt lat="49.33995" lon="-0.73927">
        <ele>16.754121</ele>
        <time>2022-08-04T09:12:39.000Z</time>
      </trkpt>
      <trkpt lat="49.33992" lon="-0.7392">
        <ele>16.954957</ele>
        <time>2022-08-04T09:12:40.000Z</time>
      </trkpt>
      <trkpt lat="49.33989" lon="-0.73914">
        <ele>17.15357</ele>
        <time>2022-08-04T09:12:41.000Z</time>
      </trkpt>
      <trkpt lat="49.33987" lon="-0.73907">
        <ele>17.360843</ele>
        <time>2022-08-04T09:12:42.000Z</time>
      </trkpt>
      <trkpt lat="49.33984" lon="-0.73901">
        <ele>17.555036</ele>
        <time>2022-08-04T09:12:43.000Z</time>
      </trkpt>
      <trkpt lat="49.33981" lon="-0.73895">
        <ele>17.747035</ele>
        <time>2022-08-04T09:12:44.000Z</time>
      </trkpt>
      <trkpt lat="49.33979" lon="-0.73888">
        <ele>17.9369</ele>
        <time>2022-08-04T09:12:45.000Z</time>
      </trkpt>
      <trkpt lat="49.33977" lon="-0.73883">
        <ele>18.084298</ele>
        <time>2022-08-04T09:12:46.000Z</time>
      </trkpt>
      <trkpt lat="49.33974" lon="-0.73876">
        <ele>18.317748</ele>
        <time>2022-08-04T09:12:47.000Z</time>
      </trkpt>
      <trkpt lat="49.33971" lon="-0.73869">
        <ele>18.527822</ele>
        <time>2022-08-04T09:12:48.000Z</time>
      </trkpt>
      <trkpt lat="49.33968" lon="-0.73863">
        <ele>18.722015</ele>
        <time>2022-08-04T09:12:49.000Z</time>
      </trkpt>
      <trkpt lat="49.33966" lon="-0.73857">
        <ele>18.907473</ele>
        <time>2022-08-04T09:12:50.000Z</time>
      </trkpt>
      <trkpt lat="49.33963" lon="-0.73851">
        <ele>19.106217</ele>
        <time>2022-08-04T09:12:51.000Z</time>
      </trkpt>
      <trkpt lat="49.3396" lon="-0.73845">
        <ele>19.296031</ele>
        <time>2022-08-04T09:12:52.000Z</time>
      </trkpt>
      <trkpt lat="49.33958" lon="-0.73838">
        <ele>19.490345</ele>
        <time>2022-08-04T09:12:53.000Z</time>
      </trkpt>
      <trkpt lat="49.33956" lon="-0.73832">
        <ele>19.671622</ele>
        <time>2022-08-04T09:12:54.000Z</time>
      </trkpt>
      <trkpt lat="49.33954" lon="-0.73828">
        <ele>19.817874</ele>
        <time>2022-08-04T09:12:55.000Z</time>
      </trkpt>
      <trkpt lat="49.33951" lon="-0.73821">
        <ele>20.029506</ele>
        <time>2022-08-04T09:12:56.000Z</time>
      </trkpt>
      <trkpt lat="49.33949" lon="-0.73815">
        <ele>20.202024</ele>
        <time>2022-08-04T09:12:57.000Z</time>
      </trkpt>
      <trkpt lat="49.33947" lon="-0.7381">
        <ele>20.359549</ele>
        <time>2022-08-04T09:12:58.000Z</time>
      </trkpt>
      <trkpt lat="49.33944" lon="-0.73804">
        <ele>20.534138</ele>
        <time>2022-08-04T09:12:59.000Z</time>
      </trkpt>
      <trkpt lat="49.33942" lon="-0.73798">
        <ele>20.703187</ele>
        <time>2022-08-04T09:13:00.000Z</time>
      </trkpt>
      <trkpt lat="49.3394" lon="-0.73793">
        <ele>20.875705</ele>
        <time>2022-08-04T09:13:01.000Z</time>
      </trkpt>
      <trkpt lat="49.33938" lon="-0.73787">
        <ele>21.056982</ele>
        <time>2022-08-04T09:13:02.000Z</time>
      </trkpt>
      <trkpt lat="49.33935" lon="-0.7378">
        <ele>21.257847</ele>
        <time>2022-08-04T09:13:03.000Z</time>
      </trkpt>
      <trkpt lat="49.33934" lon="-0.73775">
        <ele>21.396602</ele>
        <time>2022-08-04T09:13:04.000Z</time>
      </trkpt>
      <trkpt lat="49.33931" lon="-0.73768">
        <ele>21.634428</ele>
        <time>2022-08-04T09:13:05.000Z</time>
      </trkpt>
      <trkpt lat="49.33929" lon="-0.73763">
        <ele>21.787208</ele>
        <time>2022-08-04T09:13:06.000Z</time>
      </trkpt>
      <trkpt lat="49.33926" lon="-0.73755">
        <ele>22.016833</ele>
        <time>2022-08-04T09:13:07.000Z</time>
      </trkpt>
      <trkpt lat="49.33923" lon="-0.73749">
        <ele>22.224848</ele>
        <time>2022-08-04T09:13:08.000Z</time>
      </trkpt>
      <trkpt lat="49.33921" lon="-0.73744">
        <ele>22.344697</ele>
        <time>2022-08-04T09:13:09.000Z</time>
      </trkpt>
      <trkpt lat="49.33917" lon="-0.73736">
        <ele>22.523512</ele>
        <time>2022-08-04T09:13:10.000Z</time>
      </trkpt>
      <trkpt lat="49.33915" lon="-0.7373">
        <ele>22.661559</ele>
        <time>2022-08-04T09:13:11.000Z</time>
      </trkpt>
      <trkpt lat="49.33912" lon="-0.73724">
        <ele>22.80775</ele>
        <time>2022-08-04T09:13:12.000Z</time>
      </trkpt>
      <trkpt lat="49.33909" lon="-0.73719">
        <ele>22.937502</ele>
        <time>2022-08-04T09:13:13.000Z</time>
      </trkpt>
      <trkpt lat="49.33905" lon="-0.73712">
        <ele>23.124314</ele>
        <time>2022-08-04T09:13:14.000Z</time>
      </trkpt>
      <trkpt lat="49.33901" lon="-0.73707">
        <ele>23.266179</ele>
        <time>2022-08-04T09:13:15.000Z</time>
      </trkpt>
      <trkpt lat="49.33898" lon="-0.73702">
        <ele>23.397943</ele>
        <time>2022-08-04T09:13:16.000Z</time>
      </trkpt>
      <trkpt lat="49.33894" lon="-0.73698">
        <ele>23.537251</ele>
        <time>2022-08-04T09:13:17.000Z</time>
      </trkpt>
      <trkpt lat="49.33891" lon="-0.73694">
        <ele>23.657615</ele>
        <time>2022-08-04T09:13:18.000Z</time>
      </trkpt>
      <trkpt lat="49.33887" lon="-0.73691">
        <ele>23.786558</ele>
        <time>2022-08-04T09:13:19.000Z</time>
      </trkpt>
      <trkpt lat="49.33883" lon="-0.73688">
        <ele>23.9252</ele>
        <time>2022-08-04T09:13:20.000Z</time>
      </trkpt>
      <trkpt lat="49.3388" lon="-0.73684">
        <ele>24.042096</ele>
        <time>2022-08-04T09:13:21.000Z</time>
      </trkpt>
      <trkpt lat="49.33877" lon="-0.73681">
        <ele>24.161354</ele>
        <time>2022-08-04T09:13:22.000Z</time>
      </trkpt>
      <trkpt lat="49.33873" lon="-0.73678">
        <ele>24.282549</ele>
        <time>2022-08-04T09:13:23.000Z</time>
      </trkpt>
      <trkpt lat="49.3387" lon="-0.73675">
        <ele>24.389946</ele>
        <time>2022-08-04T09:13:24.000Z</time>
      </trkpt>
      <trkpt lat="49.33867" lon="-0.73671">
        <ele>24.513171</ele>
        <time>2022-08-04T09:13:25.000Z</time>
      </trkpt>
      <trkpt lat="49.33863" lon="-0.73669">
        <ele>24.638903</ele>
        <time>2022-08-04T09:13:26.000Z</time>
      </trkpt>
      <trkpt lat="49.33859" lon="-0.73667">
        <ele>24.756124</ele>
        <time>2022-08-04T09:13:27.000Z</time>
      </trkpt>
      <trkpt lat="49.33855" lon="-0.73668">
        <ele>24.881608</ele>
        <time>2022-08-04T09:13:28.000Z</time>
      </trkpt>
      <trkpt lat="49.33851" lon="-0.73669">
        <ele>24.998331</ele>
        <time>2022-08-04T09:13:29.000Z</time>
      </trkpt>
      <trkpt lat="49.33847" lon="-0.73672">
        <ele>25.121939</ele>
        <time>2022-08-04T09:13:30.000Z</time>
      </trkpt>
      <trkpt lat="49.33843" lon="-0.73674">
        <ele>25.242759</ele>
        <time>2022-08-04T09:13:31.000Z</time>
      </trkpt>
      <trkpt lat="49.33841" lon="-0.73676">
        <ele>25.334032</ele>
        <time>2022-08-04T09:13:32.000Z</time>
      </trkpt>
      <trkpt lat="49.33839" lon="-0.73678">
        <ele>25.398503</ele>
        <time>2022-08-04T09:13:33.000Z</time>
      </trkpt>
      <trkpt lat="49.33837" lon="-0.73679">
        <ele>25.453293</ele>
        <time>2022-08-04T09:13:35.000Z</time>
      </trkpt>
      <trkpt lat="49.33833" lon="-0.73673">
        <ele>25.629361</ele>
        <time>2022-08-04T09:14:19.000Z</time>
      </trkpt>
      <trkpt lat="49.3383" lon="-0.7367">
        <ele>25.718209</ele>
        <time>2022-08-04T09:14:20.000Z</time>
      </trkpt>
      <trkpt lat="49.33828" lon="-0.73668">
        <ele>25.819114</ele>
        <time>2022-08-04T09:14:21.000Z</time>
      </trkpt>
      <trkpt lat="49.33825" lon="-0.73665">
        <ele>25.916223</ele>
        <time>2022-08-04T09:14:22.000Z</time>
      </trkpt>
      <trkpt lat="49.33821" lon="-0.73663">
        <ele>26.028737</ele>
        <time>2022-08-04T09:14:23.000Z</time>
      </trkpt>
      <trkpt lat="49.33818" lon="-0.73661">
        <ele>26.133047</ele>
        <time>2022-08-04T09:14:24.000Z</time>
      </trkpt>
      <trkpt lat="49.33815" lon="-0.73659">
        <ele>26.230156</ele>
        <time>2022-08-04T09:14:25.000Z</time>
      </trkpt>
      <trkpt lat="49.33812" lon="-0.73656">
        <ele>26.336976</ele>
        <time>2022-08-04T09:14:26.000Z</time>
      </trkpt>
      <trkpt lat="49.3381" lon="-0.73654">
        <ele>26.416165</ele>
        <time>2022-08-04T09:14:27.000Z</time>
      </trkpt>
      <trkpt lat="49.33807" lon="-0.73651">
        <ele>26.507438</ele>
        <time>2022-08-04T09:14:28.000Z</time>
      </trkpt>
      <trkpt lat="49.33805" lon="-0.73648">
        <ele>26.593711</ele>
        <time>2022-08-04T09:14:29.000Z</time>
      </trkpt>
      <trkpt lat="49.33802" lon="-0.73646">
        <ele>26.690821</ele>
        <time>2022-08-04T09:14:30.000Z</time>
      </trkpt>
      <trkpt lat="49.33799" lon="-0.73644">
        <ele>26.78793</ele>
        <time>2022-08-04T09:14:31.000Z</time>
      </trkpt>
      <trkpt lat="49.33796" lon="-0.73642">
        <ele>26.89224</ele>
        <time>2022-08-04T09:14:32.000Z</time>
      </trkpt>
      <trkpt lat="49.33793" lon="-0.73639">
        <ele>26.978951</ele>
        <time>2022-08-04T09:14:33.000Z</time>
      </trkpt>
      <trkpt lat="49.3379" lon="-0.73637">
        <ele>27.08577</ele>
        <time>2022-08-04T09:14:34.000Z</time>
      </trkpt>
      <trkpt lat="49.33787" lon="-0.73634">
        <ele>27.183785</ele>
        <time>2022-08-04T09:14:35.000Z</time>
      </trkpt>
      <trkpt lat="49.33785" lon="-0.73632">
        <ele>27.262974</ele>
        <time>2022-08-04T09:14:36.000Z</time>
      </trkpt>
      <trkpt lat="49.33783" lon="-0.7363">
        <ele>27.336175</ele>
        <time>2022-08-04T09:14:37.000Z</time>
      </trkpt>
      <trkpt lat="49.3378" lon="-0.73626">
        <ele>27.444839</ele>
        <time>2022-08-04T09:14:39.000Z</time>
      </trkpt>
      <trkpt lat="49.33778" lon="-0.73624">
        <ele>27.524079</ele>
        <time>2022-08-04T09:14:40.000Z</time>
      </trkpt>
      <trkpt lat="49.33775" lon="-0.73621">
        <ele>27.63275</ele>
        <time>2022-08-04T09:14:42.000Z</time>
      </trkpt>
      <trkpt lat="49.33778" lon="-0.73625">
        <ele>27.797314</ele>
        <time>2022-08-04T09:15:29.000Z</time>
      </trkpt>
      <trkpt lat="49.33783" lon="-0.73628">
        <ele>28.039463</ele>
        <time>2022-08-04T09:15:30.000Z</time>
      </trkpt>
      <trkpt lat="49.33787" lon="-0.73632">
        <ele>28.272084</ele>
        <time>2022-08-04T09:15:31.000Z</time>
      </trkpt>
      <trkpt lat="49.33792" lon="-0.73636">
        <ele>28.520965</ele>
        <time>2022-08-04T09:15:32.000Z</time>
      </trkpt>
      <trkpt lat="49.33797" lon="-0.7364">
        <ele>28.783305</ele>
        <time>2022-08-04T09:15:33.000Z</time>
      </trkpt>
      <trkpt lat="49.33801" lon="-0.73645">
        <ele>29.020156</ele>
        <time>2022-08-04T09:15:34.000Z</time>
      </trkpt>
      <trkpt lat="49.33805" lon="-0.73649">
        <ele>29.232069</ele>
        <time>2022-08-04T09:15:35.000Z</time>
      </trkpt>
      <trkpt lat="49.33807" lon="-0.73653">
        <ele>29.387483</ele>
        <time>2022-08-04T09:15:36.000Z</time>
      </trkpt>
      <trkpt lat="49.33809" lon="-0.73654">
        <ele>29.494943</ele>
        <time>2022-08-04T09:15:37.000Z</time>
      </trkpt>
      <trkpt lat="49.33811" lon="-0.73653">
        <ele>29.586468</ele>
        <time>2022-08-04T09:15:38.000Z</time>
      </trkpt>
      <trkpt lat="49.33813" lon="-0.73651">
        <ele>29.700507</ele>
        <time>2022-08-04T09:15:39.000Z</time>
      </trkpt>
      <trkpt lat="49.33815" lon="-0.73647">
        <ele>29.820265</ele>
        <time>2022-08-04T09:15:40.000Z</time>
      </trkpt>
      <trkpt lat="49.33816" lon="-0.73644">
        <ele>29.947694</ele>
        <time>2022-08-04T09:15:41.000Z</time>
      </trkpt>
      <trkpt lat="49.33817" lon="-0.73639">
        <ele>30.088436</ele>
        <time>2022-08-04T09:15:42.000Z</time>
      </trkpt>
      <trkpt lat="49.33819" lon="-0.73635">
        <ele>30.22649</ele>
        <time>2022-08-04T09:15:43.000Z</time>
      </trkpt>
      <trkpt lat="49.3382" lon="-0.73631">
        <ele>30.36625</ele>
        <time>2022-08-04T09:15:44.000Z</time>
      </trkpt>
      <trkpt lat="49.33821" lon="-0.73626">
        <ele>30.507413</ele>
        <time>2022-08-04T09:15:45.000Z</time>
      </trkpt>
      <trkpt lat="49.33821" lon="-0.73622">
        <ele>30.647173</ele>
        <time>2022-08-04T09:15:46.000Z</time>
      </trkpt>
      <trkpt lat="49.33823" lon="-0.73617">
        <ele>30.799377</ele>
        <time>2022-08-04T09:15:47.000Z</time>
      </trkpt>
      <trkpt lat="49.33824" lon="-0.73612">
        <ele>30.946173</ele>
        <time>2022-08-04T09:15:48.000Z</time>
      </trkpt>
      <trkpt lat="49.33826" lon="-0.73608">
        <ele>31.088066</ele>
        <time>2022-08-04T09:15:49.000Z</time>
      </trkpt>
      <trkpt lat="49.33827" lon="-0.73604">
        <ele>31.220781</ele>
        <time>2022-08-04T09:15:50.000Z</time>
      </trkpt>
      <trkpt lat="49.33829" lon="-0.73601">
        <ele>31.340539</ele>
        <time>2022-08-04T09:15:51.000Z</time>
      </trkpt>
      <trkpt lat="49.33831" lon="-0.73596">
        <ele>31.524619</ele>
        <time>2022-08-04T09:15:52.000Z</time>
      </trkpt>
      <trkpt lat="49.33832" lon="-0.73592">
        <ele>31.666512</ele>
        <time>2022-08-04T09:15:53.000Z</time>
      </trkpt>
      <trkpt lat="49.33835" lon="-0.73588">
        <ele>31.829403</ele>
        <time>2022-08-04T09:15:54.000Z</time>
      </trkpt>
      <trkpt lat="49.33836" lon="-0.73584">
        <ele>31.946827</ele>
        <time>2022-08-04T09:15:55.000Z</time>
      </trkpt>
      <trkpt lat="49.33839" lon="-0.73579">
        <ele>32.15231</ele>
        <time>2022-08-04T09:15:56.000Z</time>
      </trkpt>
      <trkpt lat="49.3384" lon="-0.73574">
        <ele>32.301914</ele>
        <time>2022-08-04T09:15:57.000Z</time>
      </trkpt>
      <trkpt lat="49.33842" lon="-0.7357">
        <ele>32.461119</ele>
        <time>2022-08-04T09:15:58.000Z</time>
      </trkpt>
      <trkpt lat="49.33844" lon="-0.73566">
        <ele>32.608137</ele>
        <time>2022-08-04T09:15:59.000Z</time>
      </trkpt>
      <trkpt lat="49.33846" lon="-0.73561">
        <ele>32.786705</ele>
        <time>2022-08-04T09:16:00.000Z</time>
      </trkpt>
      <trkpt lat="49.33848" lon="-0.73556">
        <ele>32.953454</ele>
        <time>2022-08-04T09:16:01.000Z</time>
      </trkpt>
      <trkpt lat="49.33849" lon="-0.73551">
        <ele>33.105906</ele>
        <time>2022-08-04T09:16:02.000Z</time>
      </trkpt>
      <trkpt lat="49.3385" lon="-0.73547">
        <ele>33.24021</ele>
        <time>2022-08-04T09:16:03.000Z</time>
      </trkpt>
      <trkpt lat="49.3385" lon="-0.73543">
        <ele>33.36194</ele>
        <time>2022-08-04T09:16:04.000Z</time>
      </trkpt>
      <trkpt lat="49.33849" lon="-0.7354">
        <ele>33.452054</ele>
        <time>2022-08-04T09:16:05.000Z</time>
      </trkpt>
      <trkpt lat="49.33848" lon="-0.73536">
        <ele>33.584817</ele>
        <time>2022-08-04T09:16:06.000Z</time>
      </trkpt>
      <trkpt lat="49.33847" lon="-0.73533">
        <ele>33.682875</ele>
        <time>2022-08-04T09:16:07.000Z</time>
      </trkpt>
      <trkpt lat="49.33846" lon="-0.73528">
        <ele>33.835079</ele>
        <time>2022-08-04T09:16:09.000Z</time>
      </trkpt>
      <trkpt lat="49.33845" lon="-0.73525">
        <ele>33.929689</ele>
        <time>2022-08-04T09:16:10.000Z</time>
      </trkpt>
      <trkpt lat="49.33844" lon="-0.73522">
        <ele>34.036659</ele>
        <time>2022-08-04T09:16:11.000Z</time>
      </trkpt>
      <trkpt lat="49.33843" lon="-0.73519">
        <ele>34.129831</ele>
        <time>2022-08-04T09:16:12.000Z</time>
      </trkpt>
      <trkpt lat="49.3384" lon="-0.73513">
        <ele>34.351633</ele>
        <time>2022-08-04T09:16:14.000Z</time>
      </trkpt>
      <trkpt lat="49.33839" lon="-0.73511">
        <ele>34.442033</ele>
        <time>2022-08-04T09:16:15.000Z</time>
      </trkpt>
      <trkpt lat="49.33838" lon="-0.73508">
        <ele>34.551653</ele>
        <time>2022-08-04T09:16:16.000Z</time>
      </trkpt>
      <trkpt lat="49.33837" lon="-0.73504">
        <ele>34.663615</ele>
        <time>2022-08-04T09:16:17.000Z</time>
      </trkpt>
      <trkpt lat="49.33835" lon="-0.73501">
        <ele>34.797945</ele>
        <time>2022-08-04T09:16:18.000Z</time>
      </trkpt>
      <trkpt lat="49.33833" lon="-0.73497">
        <ele>34.917703</ele>
        <time>2022-08-04T09:16:19.000Z</time>
      </trkpt>
      <trkpt lat="49.33831" lon="-0.73494">
        <ele>35.041916</ele>
        <time>2022-08-04T09:16:20.000Z</time>
      </trkpt>
      <trkpt lat="49.3383" lon="-0.73492">
        <ele>35.148097</ele>
        <time>2022-08-04T09:16:21.000Z</time>
      </trkpt>
      <trkpt lat="49.33829" lon="-0.7349">
        <ele>35.236275</ele>
        <time>2022-08-04T09:16:22.000Z</time>
      </trkpt>
      <trkpt lat="49.33827" lon="-0.73486">
        <ele>35.364814</ele>
        <time>2022-08-04T09:16:23.000Z</time>
      </trkpt>
      <trkpt lat="49.33825" lon="-0.73484">
        <ele>35.475387</ele>
        <time>2022-08-04T09:16:24.000Z</time>
      </trkpt>
      <trkpt lat="49.33823" lon="-0.73481">
        <ele>35.573273</ele>
        <time>2022-08-04T09:16:25.000Z</time>
      </trkpt>
      <trkpt lat="49.33821" lon="-0.73478">
        <ele>35.720861</ele>
        <time>2022-08-04T09:16:26.000Z</time>
      </trkpt>
      <trkpt lat="49.33819" lon="-0.73475">
        <ele>35.895201</ele>
        <time>2022-08-04T09:16:27.000Z</time>
      </trkpt>
      <trkpt lat="49.33818" lon="-0.73473">
        <ele>36.120983</ele>
        <time>2022-08-04T09:16:28.000Z</time>
      </trkpt>
      <trkpt lat="49.33816" lon="-0.7347">
        <ele>36.423509</ele>
        <time>2022-08-04T09:16:29.000Z</time>
      </trkpt>
      <trkpt lat="49.33814" lon="-0.73467">
        <ele>36.683752</ele>
        <time>2022-08-04T09:16:30.000Z</time>
      </trkpt>
      <trkpt lat="49.33813" lon="-0.73464">
        <ele>36.888741</ele>
        <time>2022-08-04T09:16:31.000Z</time>
      </trkpt>
      <trkpt lat="49.33811" lon="-0.73461">
        <ele>37.223575</ele>
        <time>2022-08-04T09:16:32.000Z</time>
      </trkpt>
      <trkpt lat="49.33809" lon="-0.73458">
        <ele>37.468447</ele>
        <time>2022-08-04T09:16:33.000Z</time>
      </trkpt>
      <trkpt lat="49.33807" lon="-0.73456">
        <ele>37.741447</ele>
        <time>2022-08-04T09:16:34.000Z</time>
      </trkpt>
      <trkpt lat="49.33805" lon="-0.73453">
        <ele>38.018077</ele>
        <time>2022-08-04T09:16:35.000Z</time>
      </trkpt>
      <trkpt lat="49.33804" lon="-0.7345">
        <ele>38.305455</ele>
        <time>2022-08-04T09:16:36.000Z</time>
      </trkpt>
      <trkpt lat="49.33802" lon="-0.73448">
        <ele>38.555361</ele>
        <time>2022-08-04T09:16:37.000Z</time>
      </trkpt>
      <trkpt lat="49.33801" lon="-0.73445">
        <ele>38.807125</ele>
        <time>2022-08-04T09:16:38.000Z</time>
      </trkpt>
      <trkpt lat="49.33799" lon="-0.73442">
        <ele>39.065126</ele>
        <time>2022-08-04T09:16:39.000Z</time>
      </trkpt>
      <trkpt lat="49.33799" lon="-0.73439">
        <ele>39.268187</ele>
        <time>2022-08-04T09:16:40.000Z</time>
      </trkpt>
      <trkpt lat="49.33797" lon="-0.73435">
        <ele>39.59617</ele>
        <time>2022-08-04T09:16:41.000Z</time>
      </trkpt>
      <trkpt lat="49.33796" lon="-0.73432">
        <ele>39.846156</ele>
        <time>2022-08-04T09:16:42.000Z</time>
      </trkpt>
      <trkpt lat="49.33795" lon="-0.73428">
        <ele>40.115627</ele>
        <time>2022-08-04T09:16:43.000Z</time>
      </trkpt>
      <trkpt lat="49.33794" lon="-0.73426">
        <ele>40.339136</ele>
        <time>2022-08-04T09:16:44.000Z</time>
      </trkpt>
      <trkpt lat="49.33792" lon="-0.73422">
        <ele>40.657472</ele>
        <time>2022-08-04T09:16:45.000Z</time>
      </trkpt>
      <trkpt lat="49.3379" lon="-0.73419">
        <ele>40.94485</ele>
        <time>2022-08-04T09:16:46.000Z</time>
      </trkpt>
      <trkpt lat="49.33788" lon="-0.73416">
        <ele>41.215759</ele>
        <time>2022-08-04T09:16:47.000Z</time>
      </trkpt>
      <trkpt lat="49.33787" lon="-0.73414">
        <ele>41.428523</ele>
        <time>2022-08-04T09:16:48.000Z</time>
      </trkpt>
      <trkpt lat="49.33785" lon="-0.73412">
        <ele>41.641277</ele>
        <time>2022-08-04T09:16:49.000Z</time>
      </trkpt>
      <trkpt lat="49.33783" lon="-0.73411">
        <ele>41.901802</ele>
        <time>2022-08-04T09:16:50.000Z</time>
      </trkpt>
      <trkpt lat="49.33781" lon="-0.73411">
        <ele>42.108538</ele>
        <time>2022-08-04T09:16:51.000Z</time>
      </trkpt>
      <trkpt lat="49.33779" lon="-0.73411">
        <ele>42.344887</ele>
        <time>2022-08-04T09:16:52.000Z</time>
      </trkpt>
      <trkpt lat="49.33777" lon="-0.73412">
        <ele>42.560299</ele>
        <time>2022-08-04T09:16:53.000Z</time>
      </trkpt>
      <trkpt lat="49.33775" lon="-0.73413">
        <ele>42.828307</ele>
        <time>2022-08-04T09:16:54.000Z</time>
      </trkpt>
      <trkpt lat="49.33773" lon="-0.73415">
        <ele>43.075394</ele>
        <time>2022-08-04T09:16:55.000Z</time>
      </trkpt>
      <trkpt lat="49.3377" lon="-0.73417">
        <ele>43.387292</ele>
        <time>2022-08-04T09:16:56.000Z</time>
      </trkpt>
      <trkpt lat="49.33768" lon="-0.73419">
        <ele>43.626751</ele>
        <time>2022-08-04T09:16:57.000Z</time>
      </trkpt>
      <trkpt lat="49.33766" lon="-0.73421">
        <ele>43.855894</ele>
        <time>2022-08-04T09:16:58.000Z</time>
      </trkpt>
      <trkpt lat="49.33764" lon="-0.73423">
        <ele>44.149468</ele>
        <time>2022-08-04T09:16:59.000Z</time>
      </trkpt>
      <trkpt lat="49.33762" lon="-0.73425">
        <ele>44.417491</ele>
        <time>2022-08-04T09:17:00.000Z</time>
      </trkpt>
      <trkpt lat="49.33761" lon="-0.73428">
        <ele>44.617982</ele>
        <time>2022-08-04T09:17:01.000Z</time>
      </trkpt>
      <trkpt lat="49.33759" lon="-0.73429">
        <ele>44.826681</ele>
        <time>2022-08-04T09:17:02.000Z</time>
      </trkpt>
      <trkpt lat="49.33757" lon="-0.73432">
        <ele>45.176762</ele>
        <time>2022-08-04T09:17:03.000Z</time>
      </trkpt>
      <trkpt lat="49.33754" lon="-0.73434">
        <ele>45.46741</ele>
        <time>2022-08-04T09:17:04.000Z</time>
      </trkpt>
      <trkpt lat="49.33752" lon="-0.73436">
        <ele>45.745259</ele>
        <time>2022-08-04T09:17:05.000Z</time>
      </trkpt>
      <trkpt lat="49.3375" lon="-0.73438">
        <ele>46.013661</ele>
        <time>2022-08-04T09:17:06.000Z</time>
      </trkpt>
      <trkpt lat="49.33748" lon="-0.7344">
        <ele>46.249524</ele>
        <time>2022-08-04T09:17:07.000Z</time>
      </trkpt>
      <trkpt lat="49.33746" lon="-0.73443">
        <ele>46.586194</ele>
        <time>2022-08-04T09:17:08.000Z</time>
      </trkpt>
      <trkpt lat="49.33743" lon="-0.73445">
        <ele>46.860418</ele>
        <time>2022-08-04T09:17:09.000Z</time>
      </trkpt>
      <trkpt lat="49.33741" lon="-0.73447">
        <ele>47.143921</ele>
        <time>2022-08-04T09:17:10.000Z</time>
      </trkpt>
      <trkpt lat="49.33739" lon="-0.73449">
        <ele>47.391008</ele>
        <time>2022-08-04T09:17:11.000Z</time>
      </trkpt>
      <trkpt lat="49.33737" lon="-0.73451">
        <ele>47.638096</ele>
        <time>2022-08-04T09:17:12.000Z</time>
      </trkpt>
      <trkpt lat="49.33735" lon="-0.73452">
        <ele>47.908913</ele>
        <time>2022-08-04T09:17:13.000Z</time>
      </trkpt>
      <trkpt lat="49.33733" lon="-0.73454">
        <ele>48.138056</ele>
        <time>2022-08-04T09:17:14.000Z</time>
      </trkpt>
      <trkpt lat="49.33731" lon="-0.73455">
        <ele>48.425927</ele>
        <time>2022-08-04T09:17:15.000Z</time>
      </trkpt>
      <trkpt lat="49.33729" lon="-0.73456">
        <ele>48.65151</ele>
        <time>2022-08-04T09:17:16.000Z</time>
      </trkpt>
      <trkpt lat="49.33726" lon="-0.73458">
        <ele>48.909683</ele>
        <time>2022-08-04T09:17:18.000Z</time>
      </trkpt>
      <trkpt lat="49.33725" lon="-0.73459">
        <ele>49.12293</ele>
        <time>2022-08-04T09:17:21.000Z</time>
      </trkpt>
      <trkpt lat="49.33722" lon="-0.73452">
        <ele>49.639805</ele>
        <time>2022-08-04T09:18:18.000Z</time>
      </trkpt>
      <trkpt lat="49.33721" lon="-0.73448">
        <ele>49.935522</ele>
        <time>2022-08-04T09:18:19.000Z</time>
      </trkpt>
      <trkpt lat="49.3372" lon="-0.73444">
        <ele>50.26045</ele>
        <time>2022-08-04T09:18:20.000Z</time>
      </trkpt>
      <trkpt lat="49.33719" lon="-0.7344">
        <ele>50.585377</ele>
        <time>2022-08-04T09:18:21.000Z</time>
      </trkpt>
      <trkpt lat="49.33717" lon="-0.73436">
        <ele>50.904007</ele>
        <time>2022-08-04T09:18:22.000Z</time>
      </trkpt>
      <trkpt lat="49.33717" lon="-0.73432">
        <ele>51.179993</ele>
        <time>2022-08-04T09:18:23.000Z</time>
      </trkpt>
      <trkpt lat="49.33715" lon="-0.73427">
        <ele>51.588841</ele>
        <time>2022-08-04T09:18:24.000Z</time>
      </trkpt>
      <trkpt lat="49.33714" lon="-0.73423">
        <ele>51.875225</ele>
        <time>2022-08-04T09:18:25.000Z</time>
      </trkpt>
      <trkpt lat="49.33713" lon="-0.73418">
        <ele>52.237714</ele>
        <time>2022-08-04T09:18:26.000Z</time>
      </trkpt>
      <trkpt lat="49.33712" lon="-0.73412">
        <ele>52.672943</ele>
        <time>2022-08-04T09:18:27.000Z</time>
      </trkpt>
      <trkpt lat="49.33711" lon="-0.73407">
        <ele>53.035096</ele>
        <time>2022-08-04T09:18:28.000Z</time>
      </trkpt>
      <trkpt lat="49.3371" lon="-0.73403">
        <ele>53.327972</ele>
        <time>2022-08-04T09:18:29.000Z</time>
      </trkpt>
      <trkpt lat="49.33709" lon="-0.73397">
        <ele>53.726997</ele>
        <time>2022-08-04T09:18:30.000Z</time>
      </trkpt>
      <trkpt lat="49.33709" lon="-0.73393">
        <ele>54.055939</ele>
        <time>2022-08-04T09:18:31.000Z</time>
      </trkpt>
      <trkpt lat="49.33708" lon="-0.73389">
        <ele>54.34425</ele>
        <time>2022-08-04T09:18:32.000Z</time>
      </trkpt>
      <trkpt lat="49.33708" lon="-0.73383">
        <ele>54.765723</ele>
        <time>2022-08-04T09:18:33.000Z</time>
      </trkpt>
      <trkpt lat="49.33707" lon="-0.73378">
        <ele>55.115364</ele>
        <time>2022-08-04T09:18:34.000Z</time>
      </trkpt>
      <trkpt lat="49.33706" lon="-0.73373">
        <ele>55.2682</ele>
        <time>2022-08-04T09:18:35.000Z</time>
      </trkpt>
      <trkpt lat="49.33706" lon="-0.73369">
        <ele>55.386668</ele>
        <time>2022-08-04T09:18:36.000Z</time>
      </trkpt>
      <trkpt lat="49.33706" lon="-0.73364">
        <ele>55.542069</ele>
        <time>2022-08-04T09:18:37.000Z</time>
      </trkpt>
      <trkpt lat="49.33706" lon="-0.73358">
        <ele>55.721574</ele>
        <time>2022-08-04T09:18:38.000Z</time>
      </trkpt>
      <trkpt lat="49.33705" lon="-0.73353">
        <ele>55.883446</ele>
        <time>2022-08-04T09:18:39.000Z</time>
      </trkpt>
      <trkpt lat="49.33704" lon="-0.73348">
        <ele>56.035765</ele>
        <time>2022-08-04T09:18:40.000Z</time>
      </trkpt>
      <trkpt lat="49.33704" lon="-0.73344">
        <ele>56.16038</ele>
        <time>2022-08-04T09:18:41.000Z</time>
      </trkpt>
      <trkpt lat="49.33704" lon="-0.7334">
        <ele>56.309618</ele>
        <time>2022-08-04T09:18:42.000Z</time>
      </trkpt>
      <trkpt lat="49.33703" lon="-0.73335">
        <ele>56.462638</ele>
        <time>2022-08-04T09:18:43.000Z</time>
      </trkpt>
      <trkpt lat="49.33702" lon="-0.7333">
        <ele>56.621121</ele>
        <time>2022-08-04T09:18:44.000Z</time>
      </trkpt>
      <trkpt lat="49.33702" lon="-0.73327">
        <ele>56.721178</ele>
        <time>2022-08-04T09:18:45.000Z</time>
      </trkpt>
      <trkpt lat="49.33702" lon="-0.73323">
        <ele>56.845793</ele>
        <time>2022-08-04T09:18:46.000Z</time>
      </trkpt>
      <trkpt lat="49.33701" lon="-0.73318">
        <ele>57.00667</ele>
        <time>2022-08-04T09:18:47.000Z</time>
      </trkpt>
      <trkpt lat="49.33699" lon="-0.73315">
        <ele>57.115122</ele>
        <time>2022-08-04T09:18:48.000Z</time>
      </trkpt>
      <trkpt lat="49.33696" lon="-0.73313">
        <ele>57.256141</ele>
        <time>2022-08-04T09:18:49.000Z</time>
      </trkpt>
      <trkpt lat="49.33694" lon="-0.73313">
        <ele>57.375245</ele>
        <time>2022-08-04T09:18:50.000Z</time>
      </trkpt>
      <trkpt lat="49.3369" lon="-0.73313">
        <ele>57.561411</ele>
        <time>2022-08-04T09:18:51.000Z</time>
      </trkpt>
      <trkpt lat="49.33687" lon="-0.73315">
        <ele>57.717872</ele>
        <time>2022-08-04T09:18:52.000Z</time>
      </trkpt>
      <trkpt lat="49.33683" lon="-0.73316">
        <ele>57.902142</ele>
        <time>2022-08-04T09:18:53.000Z</time>
      </trkpt>
      <trkpt lat="49.3368" lon="-0.73317">
        <ele>58.03024</ele>
        <time>2022-08-04T09:18:54.000Z</time>
      </trkpt>
      <trkpt lat="49.33677" lon="-0.73318">
        <ele>58.174635</ele>
        <time>2022-08-04T09:18:55.000Z</time>
      </trkpt>
      <trkpt lat="49.33673" lon="-0.7332">
        <ele>58.392595</ele>
        <time>2022-08-04T09:18:56.000Z</time>
      </trkpt>
      <trkpt lat="49.3367" lon="-0.73322">
        <ele>58.554472</ele>
        <time>2022-08-04T09:18:57.000Z</time>
      </trkpt>
      <trkpt lat="49.33667" lon="-0.73323">
        <ele>58.711697</ele>
        <time>2022-08-04T09:18:58.000Z</time>
      </trkpt>
      <trkpt lat="49.33663" lon="-0.73325">
        <ele>58.893544</ele>
        <time>2022-08-04T09:18:59.000Z</time>
      </trkpt>
      <trkpt lat="49.3366" lon="-0.73327">
        <ele>59.038956</ele>
        <time>2022-08-04T09:19:00.000Z</time>
      </trkpt>
      <trkpt lat="49.33656" lon="-0.73329">
        <ele>59.235265</ele>
        <time>2022-08-04T09:19:01.000Z</time>
      </trkpt>
      <trkpt lat="49.33654" lon="-0.73331">
        <ele>59.36777</ele>
        <time>2022-08-04T09:19:02.000Z</time>
      </trkpt>
      <trkpt lat="49.3365" lon="-0.73333">
        <ele>59.549617</ele>
        <time>2022-08-04T09:19:03.000Z</time>
      </trkpt>
      <trkpt lat="49.33647" lon="-0.73335">
        <ele>59.713728</ele>
        <time>2022-08-04T09:19:04.000Z</time>
      </trkpt>
      <trkpt lat="49.33644" lon="-0.73337">
        <ele>59.860419</ele>
        <time>2022-08-04T09:19:05.000Z</time>
      </trkpt>
      <trkpt lat="49.33641" lon="-0.73339">
        <ele>60.022296</ele>
        <time>2022-08-04T09:19:06.000Z</time>
      </trkpt>
      <trkpt lat="49.33637" lon="-0.73341">
        <ele>60.217602</ele>
        <time>2022-08-04T09:19:07.000Z</time>
      </trkpt>
      <trkpt lat="49.33635" lon="-0.73342">
        <ele>60.342017</ele>
        <time>2022-08-04T09:19:08.000Z</time>
      </trkpt>
      <trkpt lat="49.33631" lon="-0.73344">
        <ele>60.503894</ele>
        <time>2022-08-04T09:19:09.000Z</time>
      </trkpt>
      <trkpt lat="49.33628" lon="-0.73347">
        <ele>60.677341</ele>
        <time>2022-08-04T09:19:10.000Z</time>
      </trkpt>
      <trkpt lat="49.33625" lon="-0.73349">
        <ele>60.829646</ele>
        <time>2022-08-04T09:19:11.000Z</time>
      </trkpt>
      <trkpt lat="49.33622" lon="-0.73352">
        <ele>60.990753</ele>
        <time>2022-08-04T09:19:12.000Z</time>
      </trkpt>
      <trkpt lat="49.33619" lon="-0.73354">
        <ele>61.161304</ele>
        <time>2022-08-04T09:19:13.000Z</time>
      </trkpt>
      <trkpt lat="49.33616" lon="-0.73357">
        <ele>61.319289</ele>
        <time>2022-08-04T09:19:14.000Z</time>
      </trkpt>
      <trkpt lat="49.33613" lon="-0.73359">
        <ele>61.485834</ele>
        <time>2022-08-04T09:19:15.000Z</time>
      </trkpt>
      <trkpt lat="49.3361" lon="-0.7336">
        <ele>61.645687</ele>
        <time>2022-08-04T09:19:16.000Z</time>
      </trkpt>
      <trkpt lat="49.33606" lon="-0.73362">
        <ele>61.831303</ele>
        <time>2022-08-04T09:19:17.000Z</time>
      </trkpt>
      <trkpt lat="49.33602" lon="-0.73362">
        <ele>62.017469</ele>
        <time>2022-08-04T09:19:18.000Z</time>
      </trkpt>
      <trkpt lat="49.33598" lon="-0.73362">
        <ele>62.199647</ele>
        <time>2022-08-04T09:19:19.000Z</time>
      </trkpt>
      <trkpt lat="49.33595" lon="-0.73359">
        <ele>62.387117</ele>
        <time>2022-08-04T09:19:20.000Z</time>
      </trkpt>
      <trkpt lat="49.33591" lon="-0.73354">
        <ele>62.612138</ele>
        <time>2022-08-04T09:19:21.000Z</time>
      </trkpt>
      <trkpt lat="49.33589" lon="-0.73349">
        <ele>62.821632</ele>
        <time>2022-08-04T09:19:22.000Z</time>
      </trkpt>
      <trkpt lat="49.33586" lon="-0.73343">
        <ele>63.023895</ele>
        <time>2022-08-04T09:19:23.000Z</time>
      </trkpt>
      <trkpt lat="49.33584" lon="-0.73337">
        <ele>63.244313</ele>
        <time>2022-08-04T09:19:24.000Z</time>
      </trkpt>
      <trkpt lat="49.33581" lon="-0.73331">
        <ele>63.459763</ele>
        <time>2022-08-04T09:19:25.000Z</time>
      </trkpt>
      <trkpt lat="49.33579" lon="-0.73325">
        <ele>63.653896</ele>
        <time>2022-08-04T09:19:26.000Z</time>
      </trkpt>
      <trkpt lat="49.33577" lon="-0.73318">
        <ele>63.724952</ele>
        <time>2022-08-04T09:19:27.000Z</time>
      </trkpt>
      <trkpt lat="49.33574" lon="-0.73313">
        <ele>63.793247</ele>
        <time>2022-08-04T09:19:28.000Z</time>
      </trkpt>
      <trkpt lat="49.33571" lon="-0.73307">
        <ele>63.866235</ele>
        <time>2022-08-04T09:19:29.000Z</time>
      </trkpt>
      <trkpt lat="49.33569" lon="-0.73301">
        <ele>63.936137</ele>
        <time>2022-08-04T09:19:30.000Z</time>
      </trkpt>
      <trkpt lat="49.33566" lon="-0.73296">
        <ele>64.002328</ele>
        <time>2022-08-04T09:19:31.000Z</time>
      </trkpt>
      <trkpt lat="49.33562" lon="-0.73292">
        <ele>64.068496</ele>
        <time>2022-08-04T09:19:32.000Z</time>
      </trkpt>
      <trkpt lat="49.33558" lon="-0.73289">
        <ele>64.138347</ele>
        <time>2022-08-04T09:19:33.000Z</time>
      </trkpt>
      <trkpt lat="49.33553" lon="-0.73287">
        <ele>64.208094</ele>
        <time>2022-08-04T09:19:34.000Z</time>
      </trkpt>
      <trkpt lat="49.33549" lon="-0.73285">
        <ele>64.282141</ele>
        <time>2022-08-04T09:19:35.000Z</time>
      </trkpt>
      <trkpt lat="49.33543" lon="-0.73283">
        <ele>64.360508</ele>
        <time>2022-08-04T09:19:36.000Z</time>
      </trkpt>
      <trkpt lat="49.33539" lon="-0.7328">
        <ele>64.43244</ele>
        <time>2022-08-04T09:19:37.000Z</time>
      </trkpt>
      <trkpt lat="49.33534" lon="-0.73277">
        <ele>64.505875</ele>
        <time>2022-08-04T09:19:38.000Z</time>
      </trkpt>
      <trkpt lat="49.3353" lon="-0.73273">
        <ele>64.586733</ele>
        <time>2022-08-04T09:19:39.000Z</time>
      </trkpt>
      <trkpt lat="49.33525" lon="-0.7327">
        <ele>64.659319</ele>
        <time>2022-08-04T09:19:40.000Z</time>
      </trkpt>
      <trkpt lat="49.33521" lon="-0.73266">
        <ele>64.731648</ele>
        <time>2022-08-04T09:19:41.000Z</time>
      </trkpt>
      <trkpt lat="49.33517" lon="-0.73261">
        <ele>64.811611</ele>
        <time>2022-08-04T09:19:42.000Z</time>
      </trkpt>
      <trkpt lat="49.33512" lon="-0.73256">
        <ele>64.897979</ele>
        <time>2022-08-04T09:19:43.000Z</time>
      </trkpt>
      <trkpt lat="49.33507" lon="-0.73251">
        <ele>64.982746</ele>
        <time>2022-08-04T09:19:44.000Z</time>
      </trkpt>
      <trkpt lat="49.33503" lon="-0.73246">
        <ele>65.065457</ele>
        <time>2022-08-04T09:19:45.000Z</time>
      </trkpt>
      <trkpt lat="49.33498" lon="-0.73241">
        <ele>65.155555</ele>
        <time>2022-08-04T09:19:46.000Z</time>
      </trkpt>
      <trkpt lat="49.33493" lon="-0.73236">
        <ele>65.241923</ele>
        <time>2022-08-04T09:19:47.000Z</time>
      </trkpt>
      <trkpt lat="49.33488" lon="-0.73231">
        <ele>65.328839</ele>
        <time>2022-08-04T09:19:48.000Z</time>
      </trkpt>
      <trkpt lat="49.33483" lon="-0.73226">
        <ele>65.414666</ele>
        <time>2022-08-04T09:19:49.000Z</time>
      </trkpt>
      <trkpt lat="49.33478" lon="-0.73221">
        <ele>65.506364</ele>
        <time>2022-08-04T09:19:50.000Z</time>
      </trkpt>
      <trkpt lat="49.33474" lon="-0.73216">
        <ele>65.587318</ele>
        <time>2022-08-04T09:19:51.000Z</time>
      </trkpt>
      <trkpt lat="49.33469" lon="-0.7321">
        <ele>65.672362</ele>
        <time>2022-08-04T09:19:52.000Z</time>
      </trkpt>
      <trkpt lat="49.33465" lon="-0.73205">
        <ele>65.754453</ele>
        <time>2022-08-04T09:19:53.000Z</time>
      </trkpt>
      <trkpt lat="49.33461" lon="-0.732">
        <ele>65.839498</ele>
        <time>2022-08-04T09:19:54.000Z</time>
      </trkpt>
      <trkpt lat="49.33456" lon="-0.73194">
        <ele>65.925751</ele>
        <time>2022-08-04T09:19:55.000Z</time>
      </trkpt>
      <trkpt lat="49.33452" lon="-0.73189">
        <ele>66.007324</ele>
        <time>2022-08-04T09:19:56.000Z</time>
      </trkpt>
      <trkpt lat="49.33448" lon="-0.73183">
        <ele>66.090341</ele>
        <time>2022-08-04T09:19:57.000Z</time>
      </trkpt>
      <trkpt lat="49.33443" lon="-0.73178">
        <ele>66.174792</ele>
        <time>2022-08-04T09:19:58.000Z</time>
      </trkpt>
      <trkpt lat="49.33438" lon="-0.73172">
        <ele>66.265149</ele>
        <time>2022-08-04T09:19:59.000Z</time>
      </trkpt>
      <trkpt lat="49.33434" lon="-0.73167">
        <ele>66.323584</ele>
        <time>2022-08-04T09:20:00.000Z</time>
      </trkpt>
      <trkpt lat="49.33429" lon="-0.73161">
        <ele>66.337919</ele>
        <time>2022-08-04T09:20:01.000Z</time>
      </trkpt>
      <trkpt lat="49.33426" lon="-0.73157">
        <ele>66.34856</ele>
        <time>2022-08-04T09:20:02.000Z</time>
      </trkpt>
      <trkpt lat="49.33421" lon="-0.73151">
        <ele>66.363998</ele>
        <time>2022-08-04T09:20:03.000Z</time>
      </trkpt>
      <trkpt lat="49.33418" lon="-0.73147">
        <ele>66.376331</ele>
        <time>2022-08-04T09:20:04.000Z</time>
      </trkpt>
      <trkpt lat="49.33413" lon="-0.73142">
        <ele>66.39072</ele>
        <time>2022-08-04T09:20:05.000Z</time>
      </trkpt>
      <trkpt lat="49.33409" lon="-0.73137">
        <ele>66.403953</ele>
        <time>2022-08-04T09:20:06.000Z</time>
      </trkpt>
      <trkpt lat="49.33405" lon="-0.73132">
        <ele>66.417187</ele>
        <time>2022-08-04T09:20:07.000Z</time>
      </trkpt>
      <trkpt lat="49.33401" lon="-0.73127">
        <ele>66.430029</ele>
        <time>2022-08-04T09:20:08.000Z</time>
      </trkpt>
      <trkpt lat="49.33397" lon="-0.73122">
        <ele>66.442961</ele>
        <time>2022-08-04T09:20:09.000Z</time>
      </trkpt>
      <trkpt lat="49.33393" lon="-0.73118">
        <ele>66.455292</ele>
        <time>2022-08-04T09:20:10.000Z</time>
      </trkpt>
      <trkpt lat="49.3339" lon="-0.73114">
        <ele>66.464522</ele>
        <time>2022-08-04T09:20:11.000Z</time>
      </trkpt>
      <trkpt lat="49.33385" lon="-0.73109">
        <ele>66.480482</ele>
        <time>2022-08-04T09:20:12.000Z</time>
      </trkpt>
      <trkpt lat="49.33381" lon="-0.73104">
        <ele>66.493024</ele>
        <time>2022-08-04T09:20:13.000Z</time>
      </trkpt>
      <trkpt lat="49.33378" lon="-0.73099">
        <ele>66.504104</ele>
        <time>2022-08-04T09:20:14.000Z</time>
      </trkpt>
      <trkpt lat="49.33374" lon="-0.73095">
        <ele>66.516438</ele>
        <time>2022-08-04T09:20:15.000Z</time>
      </trkpt>
      <trkpt lat="49.3337" lon="-0.7309">
        <ele>66.528489</ele>
        <time>2022-08-04T09:20:16.000Z</time>
      </trkpt>
      <trkpt lat="49.33366" lon="-0.73085">
        <ele>66.541032</ele>
        <time>2022-08-04T09:20:17.000Z</time>
      </trkpt>
      <trkpt lat="49.33363" lon="-0.7308">
        <ele>66.552112</ele>
        <time>2022-08-04T09:20:18.000Z</time>
      </trkpt>
      <trkpt lat="49.3336" lon="-0.73075">
        <ele>66.564084</ele>
        <time>2022-08-04T09:20:19.000Z</time>
      </trkpt>
      <trkpt lat="49.33356" lon="-0.7307">
        <ele>66.577032</ele>
        <time>2022-08-04T09:20:20.000Z</time>
      </trkpt>
      <trkpt lat="49.33352" lon="-0.73065">
        <ele>66.589575</ele>
        <time>2022-08-04T09:20:21.000Z</time>
      </trkpt>
      <trkpt lat="49.33348" lon="-0.73061">
        <ele>66.602808</ele>
        <time>2022-08-04T09:20:22.000Z</time>
      </trkpt>
      <trkpt lat="49.33344" lon="-0.73057">
        <ele>66.613642</ele>
        <time>2022-08-04T09:20:23.000Z</time>
      </trkpt>
      <trkpt lat="49.33341" lon="-0.73052">
        <ele>66.626292</ele>
        <time>2022-08-04T09:20:24.000Z</time>
      </trkpt>
      <trkpt lat="49.33337" lon="-0.73047">
        <ele>66.639134</ele>
        <time>2022-08-04T09:20:25.000Z</time>
      </trkpt>
      <trkpt lat="49.33332" lon="-0.73041">
        <ele>66.654778</ele>
        <time>2022-08-04T09:20:26.000Z</time>
      </trkpt>
      <trkpt lat="49.33329" lon="-0.73037">
        <ele>66.665208</ele>
        <time>2022-08-04T09:20:27.000Z</time>
      </trkpt>
      <trkpt lat="49.33325" lon="-0.73032">
        <ele>66.67775</ele>
        <time>2022-08-04T09:20:28.000Z</time>
      </trkpt>
      <trkpt lat="49.33321" lon="-0.73027">
        <ele>66.690984</ele>
        <time>2022-08-04T09:20:29.000Z</time>
      </trkpt>
      <trkpt lat="49.33317" lon="-0.73023">
        <ele>66.702314</ele>
        <time>2022-08-04T09:20:30.000Z</time>
      </trkpt>
      <trkpt lat="49.33313" lon="-0.73018">
        <ele>66.716549</ele>
        <time>2022-08-04T09:20:31.000Z</time>
      </trkpt>
      <trkpt lat="49.33309" lon="-0.73013">
        <ele>66.727776</ele>
        <time>2022-08-04T09:20:32.000Z</time>
      </trkpt>
      <trkpt lat="49.33307" lon="-0.7301">
        <ele>66.735796</ele>
        <time>2022-08-04T09:20:33.000Z</time>
      </trkpt>
      <trkpt lat="49.33303" lon="-0.73006">
        <ele>66.746226</ele>
        <time>2022-08-04T09:20:34.000Z</time>
      </trkpt>
      <trkpt lat="49.33301" lon="-0.73002">
        <ele>66.756079</ele>
        <time>2022-08-04T09:20:35.000Z</time>
      </trkpt>
      <trkpt lat="49.33297" lon="-0.72998">
        <ele>66.768713</ele>
        <time>2022-08-04T09:20:36.000Z</time>
      </trkpt>
      <trkpt lat="49.33293" lon="-0.72993">
        <ele>66.728679</ele>
        <time>2022-08-04T09:20:37.000Z</time>
      </trkpt>
      <trkpt lat="49.33291" lon="-0.7299">
        <ele>66.683964</ele>
        <time>2022-08-04T09:20:38.000Z</time>
      </trkpt>
      <trkpt lat="49.33287" lon="-0.72986">
        <ele>66.60996</ele>
        <time>2022-08-04T09:20:39.000Z</time>
      </trkpt>
      <trkpt lat="49.33284" lon="-0.72983">
        <ele>66.551129</ele>
        <time>2022-08-04T09:20:40.000Z</time>
      </trkpt>
      <trkpt lat="49.33281" lon="-0.72979">
        <ele>66.496492</ele>
        <time>2022-08-04T09:20:41.000Z</time>
      </trkpt>
      <trkpt lat="49.33277" lon="-0.72976">
        <ele>66.438772</ele>
        <time>2022-08-04T09:20:42.000Z</time>
      </trkpt>
      <trkpt lat="49.33275" lon="-0.72973">
        <ele>66.396598</ele>
        <time>2022-08-04T09:20:43.000Z</time>
      </trkpt>
      <trkpt lat="49.33272" lon="-0.7297">
        <ele>66.344238</ele>
        <time>2022-08-04T09:20:44.000Z</time>
      </trkpt>
      <trkpt lat="49.33269" lon="-0.72967">
        <ele>66.289003</ele>
        <time>2022-08-04T09:20:45.000Z</time>
      </trkpt>
      <trkpt lat="49.33268" lon="-0.72964">
        <ele>66.250423</ele>
        <time>2022-08-04T09:20:46.000Z</time>
      </trkpt>
      <trkpt lat="49.33267" lon="-0.72961">
        <ele>66.21642</ele>
        <time>2022-08-04T09:20:47.000Z</time>
      </trkpt>
      <trkpt lat="49.33267" lon="-0.72956">
        <ele>66.172288</ele>
        <time>2022-08-04T09:20:48.000Z</time>
      </trkpt>
      <trkpt lat="49.33267" lon="-0.72951">
        <ele>66.121358</ele>
        <time>2022-08-04T09:20:49.000Z</time>
      </trkpt>
      <trkpt lat="49.33268" lon="-0.72945">
        <ele>66.059242</ele>
        <time>2022-08-04T09:20:50.000Z</time>
      </trkpt>
      <trkpt lat="49.33269" lon="-0.7294">
        <ele>66.012996</ele>
        <time>2022-08-04T09:20:51.000Z</time>
      </trkpt>
      <trkpt lat="49.3327" lon="-0.72935">
        <ele>65.956894</ele>
        <time>2022-08-04T09:20:52.000Z</time>
      </trkpt>
      <trkpt lat="49.33272" lon="-0.72928">
        <ele>65.884712</ele>
        <time>2022-08-04T09:20:53.000Z</time>
      </trkpt>
      <trkpt lat="49.33273" lon="-0.72923">
        <ele>65.827122</ele>
        <time>2022-08-04T09:20:54.000Z</time>
      </trkpt>
      <trkpt lat="49.33275" lon="-0.72918">
        <ele>65.77711</ele>
        <time>2022-08-04T09:20:55.000Z</time>
      </trkpt>
      <trkpt lat="49.33277" lon="-0.72913">
        <ele>65.718348</ele>
        <time>2022-08-04T09:20:56.000Z</time>
      </trkpt>
      <trkpt lat="49.33279" lon="-0.72907">
        <ele>65.652875</ele>
        <time>2022-08-04T09:20:57.000Z</time>
      </trkpt>
      <trkpt lat="49.3328" lon="-0.72901">
        <ele>65.587818</ele>
        <time>2022-08-04T09:20:58.000Z</time>
      </trkpt>
      <trkpt lat="49.33283" lon="-0.72894">
        <ele>65.517367</ele>
        <time>2022-08-04T09:20:59.000Z</time>
      </trkpt>
      <trkpt lat="49.33285" lon="-0.72888">
        <ele>65.447865</ele>
        <time>2022-08-04T09:21:00.000Z</time>
      </trkpt>
      <trkpt lat="49.33285" lon="-0.72881">
        <ele>65.376341</ele>
        <time>2022-08-04T09:21:01.000Z</time>
      </trkpt>
      <trkpt lat="49.33286" lon="-0.72873">
        <ele>65.301655</ele>
        <time>2022-08-04T09:21:02.000Z</time>
      </trkpt>
      <trkpt lat="49.33285" lon="-0.72865">
        <ele>65.224053</ele>
        <time>2022-08-04T09:21:03.000Z</time>
      </trkpt>
      <trkpt lat="49.33283" lon="-0.72858">
        <ele>65.148233</ele>
        <time>2022-08-04T09:21:04.000Z</time>
      </trkpt>
      <trkpt lat="49.33279" lon="-0.72852">
        <ele>65.065556</ele>
        <time>2022-08-04T09:21:05.000Z</time>
      </trkpt>
      <trkpt lat="49.33275" lon="-0.72848">
        <ele>64.988351</ele>
        <time>2022-08-04T09:21:06.000Z</time>
      </trkpt>
      <trkpt lat="49.33271" lon="-0.72843">
        <ele>64.91053</ele>
        <time>2022-08-04T09:21:07.000Z</time>
      </trkpt>
      <trkpt lat="49.33267" lon="-0.72838">
        <ele>64.835064</ele>
        <time>2022-08-04T09:21:08.000Z</time>
      </trkpt>
      <trkpt lat="49.33262" lon="-0.72834">
        <ele>64.760541</ele>
        <time>2022-08-04T09:21:09.000Z</time>
      </trkpt>
      <trkpt lat="49.33258" lon="-0.7283">
        <ele>64.676835</ele>
        <time>2022-08-04T09:21:10.000Z</time>
      </trkpt>
      <trkpt lat="49.33253" lon="-0.72826">
        <ele>64.598486</ele>
        <time>2022-08-04T09:21:11.000Z</time>
      </trkpt>
      <trkpt lat="49.33249" lon="-0.72822">
        <ele>64.519634</ele>
        <time>2022-08-04T09:21:12.000Z</time>
      </trkpt>
      <trkpt lat="49.33244" lon="-0.72818">
        <ele>64.434757</ele>
        <time>2022-08-04T09:21:13.000Z</time>
      </trkpt>
      <trkpt lat="49.33239" lon="-0.72814">
        <ele>64.358326</ele>
        <time>2022-08-04T09:21:14.000Z</time>
      </trkpt>
      <trkpt lat="49.33235" lon="-0.72811">
        <ele>64.295218</ele>
        <time>2022-08-04T09:21:15.000Z</time>
      </trkpt>
      <trkpt lat="49.33231" lon="-0.72808">
        <ele>64.231241</ele>
        <time>2022-08-04T09:21:16.000Z</time>
      </trkpt>
      <trkpt lat="49.33228" lon="-0.72805">
        <ele>64.168956</ele>
        <time>2022-08-04T09:21:17.000Z</time>
      </trkpt>
      <trkpt lat="49.33225" lon="-0.72802">
        <ele>64.112816</ele>
        <time>2022-08-04T09:21:18.000Z</time>
      </trkpt>
      <trkpt lat="49.33221" lon="-0.72799">
        <ele>63.973797</ele>
        <time>2022-08-04T09:21:19.000Z</time>
      </trkpt>
      <trkpt lat="49.33218" lon="-0.72796">
        <ele>63.720937</ele>
        <time>2022-08-04T09:21:20.000Z</time>
      </trkpt>
      <trkpt lat="49.33215" lon="-0.72794">
        <ele>63.498568</ele>
        <time>2022-08-04T09:21:21.000Z</time>
      </trkpt>
      <trkpt lat="49.33212" lon="-0.72791">
        <ele>63.223516</ele>
        <time>2022-08-04T09:21:22.000Z</time>
      </trkpt>
      <trkpt lat="49.33208" lon="-0.72789">
        <ele>62.958511</ele>
        <time>2022-08-04T09:21:23.000Z</time>
      </trkpt>
      <trkpt lat="49.33205" lon="-0.72786">
        <ele>62.705651</ele>
        <time>2022-08-04T09:21:24.000Z</time>
      </trkpt>
      <trkpt lat="49.33202" lon="-0.72783">
        <ele>62.459162</ele>
        <time>2022-08-04T09:21:25.000Z</time>
      </trkpt>
      <trkpt lat="49.33198" lon="-0.7278">
        <ele>62.186124</ele>
        <time>2022-08-04T09:21:26.000Z</time>
      </trkpt>
      <trkpt lat="49.33196" lon="-0.72778">
        <ele>61.968086</ele>
        <time>2022-08-04T09:21:27.000Z</time>
      </trkpt>
      <trkpt lat="49.33193" lon="-0.72775">
        <ele>61.750235</ele>
        <time>2022-08-04T09:21:28.000Z</time>
      </trkpt>
      <trkpt lat="49.3319" lon="-0.72772">
        <ele>61.510158</ele>
        <time>2022-08-04T09:21:29.000Z</time>
      </trkpt>
      <trkpt lat="49.33188" lon="-0.72769">
        <ele>61.294658</ele>
        <time>2022-08-04T09:21:30.000Z</time>
      </trkpt>
      <trkpt lat="49.33185" lon="-0.72766">
        <ele>61.089826</ele>
        <time>2022-08-04T09:21:31.000Z</time>
      </trkpt>
      <trkpt lat="49.33183" lon="-0.72764">
        <ele>60.901381</ele>
        <time>2022-08-04T09:21:32.000Z</time>
      </trkpt>
      <trkpt lat="49.33181" lon="-0.72762">
        <ele>60.703556</ele>
        <time>2022-08-04T09:21:33.000Z</time>
      </trkpt>
      <trkpt lat="49.33178" lon="-0.7276">
        <ele>60.522089</ele>
        <time>2022-08-04T09:21:34.000Z</time>
      </trkpt>
      <trkpt lat="49.33176" lon="-0.72758">
        <ele>60.336153</ele>
        <time>2022-08-04T09:21:35.000Z</time>
      </trkpt>
      <trkpt lat="49.33173" lon="-0.72756">
        <ele>60.156849</ele>
        <time>2022-08-04T09:21:36.000Z</time>
      </trkpt>
      <trkpt lat="49.33171" lon="-0.72754">
        <ele>59.942919</ele>
        <time>2022-08-04T09:21:37.000Z</time>
      </trkpt>
      <trkpt lat="49.33169" lon="-0.72752">
        <ele>59.774002</ele>
        <time>2022-08-04T09:21:38.000Z</time>
      </trkpt>
      <trkpt lat="49.33166" lon="-0.72749">
        <ele>59.577803</ele>
        <time>2022-08-04T09:21:39.000Z</time>
      </trkpt>
      <trkpt lat="49.33164" lon="-0.72747">
        <ele>59.373995</ele>
        <time>2022-08-04T09:21:40.000Z</time>
      </trkpt>
      <trkpt lat="49.33161" lon="-0.72745">
        <ele>59.140043</ele>
        <time>2022-08-04T09:21:41.000Z</time>
      </trkpt>
      <trkpt lat="49.33158" lon="-0.72743">
        <ele>58.946513</ele>
        <time>2022-08-04T09:21:42.000Z</time>
      </trkpt>
      <trkpt lat="49.33155" lon="-0.72741">
        <ele>58.690143</ele>
        <time>2022-08-04T09:21:43.000Z</time>
      </trkpt>
      <trkpt lat="49.33151" lon="-0.72739">
        <ele>58.449446</ele>
        <time>2022-08-04T09:21:44.000Z</time>
      </trkpt>
      <trkpt lat="49.33148" lon="-0.72736">
        <ele>58.172399</ele>
        <time>2022-08-04T09:21:45.000Z</time>
      </trkpt>
      <trkpt lat="49.33144" lon="-0.72733">
        <ele>57.856648</ele>
        <time>2022-08-04T09:21:46.000Z</time>
      </trkpt>
      <trkpt lat="49.33139" lon="-0.72729">
        <ele>57.487924</ele>
        <time>2022-08-04T09:21:47.000Z</time>
      </trkpt>
      <trkpt lat="49.33134" lon="-0.72726">
        <ele>57.135345</ele>
        <time>2022-08-04T09:21:48.000Z</time>
      </trkpt>
      <trkpt lat="49.3313" lon="-0.72722">
        <ele>56.76662</ele>
        <time>2022-08-04T09:21:49.000Z</time>
      </trkpt>
      <trkpt lat="49.33123" lon="-0.72718">
        <ele>56.273127</ele>
        <time>2022-08-04T09:21:50.000Z</time>
      </trkpt>
      <trkpt lat="49.33118" lon="-0.72715">
        <ele>55.91208</ele>
        <time>2022-08-04T09:21:51.000Z</time>
      </trkpt>
      <trkpt lat="49.33111" lon="-0.72711">
        <ele>55.392902</ele>
        <time>2022-08-04T09:21:52.000Z</time>
      </trkpt>
      <trkpt lat="49.33104" lon="-0.72706">
        <ele>54.890866</ele>
        <time>2022-08-04T09:21:53.000Z</time>
      </trkpt>
      <trkpt lat="49.33097" lon="-0.72702">
        <ele>54.350847</ele>
        <time>2022-08-04T09:21:54.000Z</time>
      </trkpt>
      <trkpt lat="49.33088" lon="-0.72696">
        <ele>53.708307</ele>
        <time>2022-08-04T09:21:55.000Z</time>
      </trkpt>
      <trkpt lat="49.33083" lon="-0.72693">
        <ele>53.288518</ele>
        <time>2022-08-04T09:21:56.000Z</time>
      </trkpt>
      <trkpt lat="49.33075" lon="-0.72688">
        <ele>52.714585</ele>
        <time>2022-08-04T09:21:57.000Z</time>
      </trkpt>
      <trkpt lat="49.33068" lon="-0.72683">
        <ele>52.212548</ele>
        <time>2022-08-04T09:21:58.000Z</time>
      </trkpt>
      <trkpt lat="49.33062" lon="-0.72679">
        <ele>51.751754</ele>
        <time>2022-08-04T09:21:59.000Z</time>
      </trkpt>
      <trkpt lat="49.33055" lon="-0.72676">
        <ele>50.895646</ele>
        <time>2022-08-04T09:22:00.000Z</time>
      </trkpt>
      <trkpt lat="49.33049" lon="-0.72673">
        <ele>50.105247</ele>
        <time>2022-08-04T09:22:01.000Z</time>
      </trkpt>
      <trkpt lat="49.33043" lon="-0.7267">
        <ele>49.251825</ele>
        <time>2022-08-04T09:22:02.000Z</time>
      </trkpt>
      <trkpt lat="49.33036" lon="-0.72668">
        <ele>48.356885</ele>
        <time>2022-08-04T09:22:03.000Z</time>
      </trkpt>
      <trkpt lat="49.33029" lon="-0.72667">
        <ele>47.483171</ele>
        <time>2022-08-04T09:22:04.000Z</time>
      </trkpt>
      <trkpt lat="49.33021" lon="-0.72666">
        <ele>46.565998</ele>
        <time>2022-08-04T09:22:05.000Z</time>
      </trkpt>
      <trkpt lat="49.33013" lon="-0.72666">
        <ele>45.612939</ele>
        <time>2022-08-04T09:22:06.000Z</time>
      </trkpt>
      <trkpt lat="49.33006" lon="-0.72668">
        <ele>44.741162</ele>
        <time>2022-08-04T09:22:07.000Z</time>
      </trkpt>
      <trkpt lat="49.32999" lon="-0.72669">
        <ele>43.862694</ele>
        <time>2022-08-04T09:22:08.000Z</time>
      </trkpt>
      <trkpt lat="49.32993" lon="-0.7267">
        <ele>43.103404</ele>
        <time>2022-08-04T09:22:09.000Z</time>
      </trkpt>
      <trkpt lat="49.32987" lon="-0.72671">
        <ele>42.310622</ele>
        <time>2022-08-04T09:22:10.000Z</time>
      </trkpt>
      <trkpt lat="49.32981" lon="-0.72671">
        <ele>41.554551</ele>
        <time>2022-08-04T09:22:11.000Z</time>
      </trkpt>
      <trkpt lat="49.32974" lon="-0.72671">
        <ele>40.762385</ele>
        <time>2022-08-04T09:22:12.000Z</time>
      </trkpt>
      <trkpt lat="49.32968" lon="-0.72671">
        <ele>39.967636</ele>
        <time>2022-08-04T09:22:13.000Z</time>
      </trkpt>
      <trkpt lat="49.32962" lon="-0.72669">
        <ele>39.16962</ele>
        <time>2022-08-04T09:22:14.000Z</time>
      </trkpt>
      <trkpt lat="49.32956" lon="-0.72668">
        <ele>38.441631</ele>
        <time>2022-08-04T09:22:15.000Z</time>
      </trkpt>
      <trkpt lat="49.32949" lon="-0.72666">
        <ele>37.628071</ele>
        <time>2022-08-04T09:22:16.000Z</time>
      </trkpt>
      <trkpt lat="49.32943" lon="-0.72664">
        <ele>36.830054</ele>
        <time>2022-08-04T09:22:17.000Z</time>
      </trkpt>
      <trkpt lat="49.32936" lon="-0.72663">
        <ele>35.996065</ele>
        <time>2022-08-04T09:22:18.000Z</time>
      </trkpt>
      <trkpt lat="49.32931" lon="-0.7266">
        <ele>35.285252</ele>
        <time>2022-08-04T09:22:19.000Z</time>
      </trkpt>
      <trkpt lat="49.32925" lon="-0.72656">
        <ele>34.464205</ele>
        <time>2022-08-04T09:22:20.000Z</time>
      </trkpt>
      <trkpt lat="49.32918" lon="-0.72652">
        <ele>33.574392</ele>
        <time>2022-08-04T09:22:21.000Z</time>
      </trkpt>
      <trkpt lat="49.32912" lon="-0.72649">
        <ele>32.727908</ele>
        <time>2022-08-04T09:22:22.000Z</time>
      </trkpt>
      <trkpt lat="49.32906" lon="-0.72645">
        <ele>31.956526</ele>
        <time>2022-08-04T09:22:23.000Z</time>
      </trkpt>
      <trkpt lat="49.329" lon="-0.72642">
        <ele>31.150474</ele>
        <time>2022-08-04T09:22:24.000Z</time>
      </trkpt>
      <trkpt lat="49.32894" lon="-0.72638">
        <ele>30.41851</ele>
        <time>2022-08-04T09:22:25.000Z</time>
      </trkpt>
      <trkpt lat="49.32889" lon="-0.72635">
        <ele>29.733455</ele>
        <time>2022-08-04T09:22:26.000Z</time>
      </trkpt>
      <trkpt lat="49.32884" lon="-0.72631">
        <ele>29.348768</ele>
        <time>2022-08-04T09:22:27.000Z</time>
      </trkpt>
      <trkpt lat="49.32878" lon="-0.72629">
        <ele>29.162903</ele>
        <time>2022-08-04T09:22:28.000Z</time>
      </trkpt>
      <trkpt lat="49.32873" lon="-0.72626">
        <ele>28.984801</ele>
        <time>2022-08-04T09:22:29.000Z</time>
      </trkpt>
      <trkpt lat="49.32868" lon="-0.72623">
        <ele>28.806699</ele>
        <time>2022-08-04T09:22:30.000Z</time>
      </trkpt>
      <trkpt lat="49.32863" lon="-0.7262">
        <ele>28.618401</ele>
        <time>2022-08-04T09:22:31.000Z</time>
      </trkpt>
      <trkpt lat="49.32858" lon="-0.72617">
        <ele>28.452416</ele>
        <time>2022-08-04T09:22:32.000Z</time>
      </trkpt>
      <trkpt lat="49.32853" lon="-0.72614">
        <ele>28.293264</ele>
        <time>2022-08-04T09:22:33.000Z</time>
      </trkpt>
      <trkpt lat="49.32848" lon="-0.72612">
        <ele>28.118684</ele>
        <time>2022-08-04T09:22:34.000Z</time>
      </trkpt>
      <trkpt lat="49.32844" lon="-0.7261">
        <ele>27.978398</ele>
        <time>2022-08-04T09:22:35.000Z</time>
      </trkpt>
      <trkpt lat="49.32839" lon="-0.72608">
        <ele>27.814426</ele>
        <time>2022-08-04T09:22:36.000Z</time>
      </trkpt>
      <trkpt lat="49.32835" lon="-0.72605">
        <ele>27.647722</ele>
        <time>2022-08-04T09:22:37.000Z</time>
      </trkpt>
      <trkpt lat="49.3283" lon="-0.72602">
        <ele>27.481737</ele>
        <time>2022-08-04T09:22:38.000Z</time>
      </trkpt>
      <trkpt lat="49.32825" lon="-0.72599">
        <ele>27.309347</ele>
        <time>2022-08-04T09:22:39.000Z</time>
      </trkpt>
      <trkpt lat="49.3282" lon="-0.72595">
        <ele>27.123325</ele>
        <time>2022-08-04T09:22:40.000Z</time>
      </trkpt>
      <trkpt lat="49.32814" lon="-0.72592">
        <ele>26.921512</ele>
        <time>2022-08-04T09:22:41.000Z</time>
      </trkpt>
      <trkpt lat="49.32809" lon="-0.72587">
        <ele>26.72023</ele>
        <time>2022-08-04T09:22:42.000Z</time>
      </trkpt>
      <trkpt lat="49.32803" lon="-0.72582">
        <ele>26.510053</ele>
        <time>2022-08-04T09:22:43.000Z</time>
      </trkpt>
      <trkpt lat="49.32799" lon="-0.72576">
        <ele>26.311417</ele>
        <time>2022-08-04T09:22:44.000Z</time>
      </trkpt>
      <trkpt lat="49.32795" lon="-0.72568">
        <ele>26.103384</ele>
        <time>2022-08-04T09:22:45.000Z</time>
      </trkpt>
      <trkpt lat="49.32793" lon="-0.7256">
        <ele>25.915326</ele>
        <time>2022-08-04T09:22:46.000Z</time>
      </trkpt>
      <trkpt lat="49.32792" lon="-0.72551">
        <ele>25.719568</ele>
        <time>2022-08-04T09:22:47.000Z</time>
      </trkpt>
      <trkpt lat="49.32793" lon="-0.72542">
        <ele>25.528054</ele>
        <time>2022-08-04T09:22:48.000Z</time>
      </trkpt>
      <trkpt lat="49.32795" lon="-0.72533">
        <ele>25.332002</ele>
        <time>2022-08-04T09:22:49.000Z</time>
      </trkpt>
      <trkpt lat="49.32796" lon="-0.72525">
        <ele>25.157545</ele>
        <time>2022-08-04T09:22:50.000Z</time>
      </trkpt>
      <trkpt lat="49.32797" lon="-0.72518">
        <ele>25.000818</ele>
        <time>2022-08-04T09:22:51.000Z</time>
      </trkpt>
      <trkpt lat="49.32799" lon="-0.72512">
        <ele>24.859105</ele>
        <time>2022-08-04T09:22:52.000Z</time>
      </trkpt>
      <trkpt lat="49.328" lon="-0.72505">
        <ele>24.713034</ele>
        <time>2022-08-04T09:22:53.000Z</time>
      </trkpt>
      <trkpt lat="49.32801" lon="-0.72499">
        <ele>24.590461</ele>
        <time>2022-08-04T09:22:54.000Z</time>
      </trkpt>
      <trkpt lat="49.32802" lon="-0.72494">
        <ele>24.462124</ele>
        <time>2022-08-04T09:22:55.000Z</time>
      </trkpt>
      <trkpt lat="49.32803" lon="-0.72488">
        <ele>24.332589</ele>
        <time>2022-08-04T09:22:56.000Z</time>
      </trkpt>
      <trkpt lat="49.32803" lon="-0.72483">
        <ele>24.230809</ele>
        <time>2022-08-04T09:22:57.000Z</time>
      </trkpt>
      <trkpt lat="49.32804" lon="-0.72477">
        <ele>24.093011</ele>
        <time>2022-08-04T09:22:58.000Z</time>
      </trkpt>
      <trkpt lat="49.32805" lon="-0.72472">
        <ele>23.986866</ele>
        <time>2022-08-04T09:22:59.000Z</time>
      </trkpt>
      <trkpt lat="49.32806" lon="-0.72468">
        <ele>23.891877</ele>
        <time>2022-08-04T09:23:00.000Z</time>
      </trkpt>
      <trkpt lat="49.32807" lon="-0.72463">
        <ele>23.796346</ele>
        <time>2022-08-04T09:23:01.000Z</time>
      </trkpt>
      <trkpt lat="49.32808" lon="-0.7246">
        <ele>23.712427</ele>
        <time>2022-08-04T09:23:02.000Z</time>
      </trkpt>
      <trkpt lat="49.32808" lon="-0.72454">
        <ele>23.608551</ele>
        <time>2022-08-04T09:23:03.000Z</time>
      </trkpt>
      <trkpt lat="49.32809" lon="-0.7245">
        <ele>23.630906</ele>
        <time>2022-08-04T09:23:04.000Z</time>
      </trkpt>
      <trkpt lat="49.3281" lon="-0.72445">
        <ele>23.655231</ele>
        <time>2022-08-04T09:23:05.000Z</time>
      </trkpt>
      <trkpt lat="49.3281" lon="-0.72441">
        <ele>23.678569</ele>
        <time>2022-08-04T09:23:06.000Z</time>
      </trkpt>
      <trkpt lat="49.32811" lon="-0.72436">
        <ele>23.703842</ele>
        <time>2022-08-04T09:23:07.000Z</time>
      </trkpt>
      <trkpt lat="49.32812" lon="-0.7243">
        <ele>23.731827</ele>
        <time>2022-08-04T09:23:08.000Z</time>
      </trkpt>
      <trkpt lat="49.32813" lon="-0.72425">
        <ele>23.756952</ele>
        <time>2022-08-04T09:23:09.000Z</time>
      </trkpt>
      <trkpt lat="49.32814" lon="-0.7242">
        <ele>23.786796</ele>
        <time>2022-08-04T09:23:10.000Z</time>
      </trkpt>
      <trkpt lat="49.32815" lon="-0.72415">
        <ele>23.811479</ele>
        <time>2022-08-04T09:23:11.000Z</time>
      </trkpt>
      <trkpt lat="49.32816" lon="-0.72407">
        <ele>23.849354</ele>
        <time>2022-08-04T09:23:12.000Z</time>
      </trkpt>
      <trkpt lat="49.32818" lon="-0.72401">
        <ele>23.882955</ele>
        <time>2022-08-04T09:23:13.000Z</time>
      </trkpt>
      <trkpt lat="49.32819" lon="-0.72395">
        <ele>23.914039</ele>
        <time>2022-08-04T09:23:14.000Z</time>
      </trkpt>
      <trkpt lat="49.3282" lon="-0.72389">
        <ele>23.946993</ele>
        <time>2022-08-04T09:23:15.000Z</time>
      </trkpt>
      <trkpt lat="49.32821" lon="-0.72382">
        <ele>23.979436</ele>
        <time>2022-08-04T09:23:16.000Z</time>
      </trkpt>
      <trkpt lat="49.32822" lon="-0.72376">
        <ele>24.01285</ele>
        <time>2022-08-04T09:23:17.000Z</time>
      </trkpt>
      <trkpt lat="49.32824" lon="-0.7237">
        <ele>24.045036</ele>
        <time>2022-08-04T09:23:18.000Z</time>
      </trkpt>
      <trkpt lat="49.32825" lon="-0.72363">
        <ele>24.077875</ele>
        <time>2022-08-04T09:23:19.000Z</time>
      </trkpt>
      <trkpt lat="49.32826" lon="-0.72357">
        <ele>24.109912</ele>
        <time>2022-08-04T09:23:20.000Z</time>
      </trkpt>
      <trkpt lat="49.32828" lon="-0.72351">
        <ele>24.141159</ele>
        <time>2022-08-04T09:23:21.000Z</time>
      </trkpt>
      <trkpt lat="49.32829" lon="-0.72345">
        <ele>24.172723</ele>
        <time>2022-08-04T09:23:22.000Z</time>
      </trkpt>
      <trkpt lat="49.3283" lon="-0.72339">
        <ele>24.204439</ele>
        <time>2022-08-04T09:23:23.000Z</time>
      </trkpt>
      <trkpt lat="49.3283" lon="-0.72333">
        <ele>24.233949</ele>
        <time>2022-08-04T09:23:24.000Z</time>
      </trkpt>
      <trkpt lat="49.32832" lon="-0.72327">
        <ele>24.264259</ele>
        <time>2022-08-04T09:23:25.000Z</time>
      </trkpt>
      <trkpt lat="49.32832" lon="-0.72322">
        <ele>24.291818</ele>
        <time>2022-08-04T09:23:26.000Z</time>
      </trkpt>
      <trkpt lat="49.32834" lon="-0.72316">
        <ele>24.32073</ele>
        <time>2022-08-04T09:23:27.000Z</time>
      </trkpt>
      <trkpt lat="49.32834" lon="-0.7231">
        <ele>24.350728</ele>
        <time>2022-08-04T09:23:28.000Z</time>
      </trkpt>
      <trkpt lat="49.32835" lon="-0.72304">
        <ele>24.379878</ele>
        <time>2022-08-04T09:23:29.000Z</time>
      </trkpt>
      <trkpt lat="49.32836" lon="-0.723">
        <ele>24.40511</ele>
        <time>2022-08-04T09:23:30.000Z</time>
      </trkpt>
      <trkpt lat="49.32838" lon="-0.72292">
        <ele>24.442703</ele>
        <time>2022-08-04T09:23:31.000Z</time>
      </trkpt>
      <trkpt lat="49.32839" lon="-0.72286">
        <ele>24.473129</ele>
        <time>2022-08-04T09:23:32.000Z</time>
      </trkpt>
      <trkpt lat="49.3284" lon="-0.72281">
        <ele>24.504254</ele>
        <time>2022-08-04T09:23:33.000Z</time>
      </trkpt>
      <trkpt lat="49.32842" lon="-0.72275">
        <ele>24.534564</ele>
        <time>2022-08-04T09:23:34.000Z</time>
      </trkpt>
      <trkpt lat="49.32843" lon="-0.72269">
        <ele>24.56517</ele>
        <time>2022-08-04T09:23:35.000Z</time>
      </trkpt>
      <trkpt lat="49.32844" lon="-0.72264">
        <ele>24.591038</ele>
        <time>2022-08-04T09:23:36.000Z</time>
      </trkpt>
      <trkpt lat="49.32845" lon="-0.72259">
        <ele>24.619009</ele>
        <time>2022-08-04T09:23:37.000Z</time>
      </trkpt>
      <trkpt lat="49.32847" lon="-0.72253">
        <ele>24.653196</ele>
        <time>2022-08-04T09:23:38.000Z</time>
      </trkpt>
      <trkpt lat="49.32849" lon="-0.72246">
        <ele>24.689305</ele>
        <time>2022-08-04T09:23:39.000Z</time>
      </trkpt>
      <trkpt lat="49.32851" lon="-0.7224">
        <ele>24.7218</ele>
        <time>2022-08-04T09:23:40.000Z</time>
      </trkpt>
      <trkpt lat="49.32853" lon="-0.72233">
        <ele>24.758818</ele>
        <time>2022-08-04T09:23:41.000Z</time>
      </trkpt>
      <trkpt lat="49.32854" lon="-0.72227">
        <ele>24.792232</ele>
        <time>2022-08-04T09:23:42.000Z</time>
      </trkpt>
      <trkpt lat="49.32856" lon="-0.7222">
        <ele>24.826568</ele>
        <time>2022-08-04T09:23:43.000Z</time>
      </trkpt>
      <trkpt lat="49.32858" lon="-0.72214">
        <ele>24.858648</ele>
        <time>2022-08-04T09:23:44.000Z</time>
      </trkpt>
      <trkpt lat="49.3286" lon="-0.72208">
        <ele>24.890228</ele>
        <time>2022-08-04T09:23:45.000Z</time>
      </trkpt>
      <trkpt lat="49.32861" lon="-0.72203">
        <ele>24.920539</ele>
        <time>2022-08-04T09:23:46.000Z</time>
      </trkpt>
      <trkpt lat="49.32863" lon="-0.72197">
        <ele>24.952178</ele>
        <time>2022-08-04T09:23:47.000Z</time>
      </trkpt>
      <trkpt lat="49.32864" lon="-0.72191">
        <ele>25.007664</ele>
        <time>2022-08-04T09:23:48.000Z</time>
      </trkpt>
      <trkpt lat="49.32867" lon="-0.72184">
        <ele>25.107633</ele>
        <time>2022-08-04T09:23:49.000Z</time>
      </trkpt>
      <trkpt lat="49.32869" lon="-0.72179">
        <ele>25.19315</ele>
        <time>2022-08-04T09:23:50.000Z</time>
      </trkpt>
      <trkpt lat="49.3287" lon="-0.72173">
        <ele>25.282254</ele>
        <time>2022-08-04T09:23:51.000Z</time>
      </trkpt>
      <trkpt lat="49.32872" lon="-0.72167">
        <ele>25.368847</ele>
        <time>2022-08-04T09:23:52.000Z</time>
      </trkpt>
      <trkpt lat="49.32874" lon="-0.72161">
        <ele>25.45795</ele>
        <time>2022-08-04T09:23:53.000Z</time>
      </trkpt>
      <trkpt lat="49.32876" lon="-0.72155">
        <ele>25.547053</ele>
        <time>2022-08-04T09:23:54.000Z</time>
      </trkpt>
      <trkpt lat="49.32877" lon="-0.72149">
        <ele>25.633646</ele>
        <time>2022-08-04T09:23:55.000Z</time>
      </trkpt>
      <trkpt lat="49.32879" lon="-0.72143">
        <ele>25.723664</ele>
        <time>2022-08-04T09:23:56.000Z</time>
      </trkpt>
      <trkpt lat="49.32881" lon="-0.72137">
        <ele>25.812767</ele>
        <time>2022-08-04T09:23:57.000Z</time>
      </trkpt>
      <trkpt lat="49.32883" lon="-0.72131">
        <ele>25.898284</ele>
        <time>2022-08-04T09:23:58.000Z</time>
      </trkpt>
      <trkpt lat="49.32885" lon="-0.72126">
        <ele>25.971028</ele>
        <time>2022-08-04T09:23:59.000Z</time>
      </trkpt>
      <trkpt lat="49.32887" lon="-0.7212">
        <ele>26.06865</ele>
        <time>2022-08-04T09:24:00.000Z</time>
      </trkpt>
      <trkpt lat="49.32889" lon="-0.72115">
        <ele>26.133594</ele>
        <time>2022-08-04T09:24:01.000Z</time>
      </trkpt>
      <trkpt lat="49.32891" lon="-0.72109">
        <ele>26.235465</ele>
        <time>2022-08-04T09:24:02.000Z</time>
      </trkpt>
      <trkpt lat="49.32892" lon="-0.72104">
        <ele>26.302776</ele>
        <time>2022-08-04T09:24:03.000Z</time>
      </trkpt>
      <trkpt lat="49.32894" lon="-0.72097">
        <ele>26.404181</ele>
        <time>2022-08-04T09:24:04.000Z</time>
      </trkpt>
      <trkpt lat="49.32896" lon="-0.72091">
        <ele>26.492084</ele>
        <time>2022-08-04T09:24:05.000Z</time>
      </trkpt>
      <trkpt lat="49.32899" lon="-0.72086">
        <ele>26.579372</ele>
        <time>2022-08-04T09:24:06.000Z</time>
      </trkpt>
      <trkpt lat="49.329" lon="-0.72081">
        <ele>26.647843</ele>
        <time>2022-08-04T09:24:07.000Z</time>
      </trkpt>
      <trkpt lat="49.32902" lon="-0.72076">
        <ele>26.731776</ele>
        <time>2022-08-04T09:24:08.000Z</time>
      </trkpt>
      <trkpt lat="49.32905" lon="-0.7207">
        <ele>26.824707</ele>
        <time>2022-08-04T09:24:09.000Z</time>
      </trkpt>
      <trkpt lat="49.32907" lon="-0.72066">
        <ele>26.903089</ele>
        <time>2022-08-04T09:24:10.000Z</time>
      </trkpt>
      <trkpt lat="49.3291" lon="-0.7206">
        <ele>26.994506</ele>
        <time>2022-08-04T09:24:11.000Z</time>
      </trkpt>
      <trkpt lat="49.32912" lon="-0.72055">
        <ele>27.075088</ele>
        <time>2022-08-04T09:24:12.000Z</time>
      </trkpt>
      <trkpt lat="49.32915" lon="-0.72051">
        <ele>27.162514</ele>
        <time>2022-08-04T09:24:13.000Z</time>
      </trkpt>
      <trkpt lat="49.32918" lon="-0.72046">
        <ele>27.247954</ele>
        <time>2022-08-04T09:24:14.000Z</time>
      </trkpt>
      <trkpt lat="49.3292" lon="-0.72041">
        <ele>27.325247</ele>
        <time>2022-08-04T09:24:15.000Z</time>
      </trkpt>
      <trkpt lat="49.32923" lon="-0.72036">
        <ele>27.412673</ele>
        <time>2022-08-04T09:24:16.000Z</time>
      </trkpt>
      <trkpt lat="49.32925" lon="-0.72031">
        <ele>27.493707</ele>
        <time>2022-08-04T09:24:17.000Z</time>
      </trkpt>
      <trkpt lat="49.32928" lon="-0.72027">
        <ele>27.574034</ele>
        <time>2022-08-04T09:24:18.000Z</time>
      </trkpt>
      <trkpt lat="49.32931" lon="-0.72022">
        <ele>27.658566</ele>
        <time>2022-08-04T09:24:19.000Z</time>
      </trkpt>
      <trkpt lat="49.32933" lon="-0.72018">
        <ele>27.737548</ele>
        <time>2022-08-04T09:24:20.000Z</time>
      </trkpt>
      <trkpt lat="49.32936" lon="-0.72013">
        <ele>27.81888</ele>
        <time>2022-08-04T09:24:21.000Z</time>
      </trkpt>
      <trkpt lat="49.32939" lon="-0.72008">
        <ele>27.90729</ele>
        <time>2022-08-04T09:24:22.000Z</time>
      </trkpt>
      <trkpt lat="49.32941" lon="-0.72003">
        <ele>27.991466</ele>
        <time>2022-08-04T09:24:23.000Z</time>
      </trkpt>
      <trkpt lat="49.32944" lon="-0.71999">
        <ele>28.074834</ele>
        <time>2022-08-04T09:24:24.000Z</time>
      </trkpt>
      <trkpt lat="49.32947" lon="-0.71994">
        <ele>28.168438</ele>
        <time>2022-08-04T09:24:25.000Z</time>
      </trkpt>
      <trkpt lat="49.32951" lon="-0.71988">
        <ele>28.27402</ele>
        <time>2022-08-04T09:24:26.000Z</time>
      </trkpt>
      <trkpt lat="49.32953" lon="-0.71984">
        <ele>28.345271</ele>
        <time>2022-08-04T09:24:27.000Z</time>
      </trkpt>
      <trkpt lat="49.32956" lon="-0.71979">
        <ele>28.431582</ele>
        <time>2022-08-04T09:24:28.000Z</time>
      </trkpt>
      <trkpt lat="49.32959" lon="-0.71974">
        <ele>28.525186</ele>
        <time>2022-08-04T09:24:29.000Z</time>
      </trkpt>
      <trkpt lat="49.32961" lon="-0.71968">
        <ele>28.613792</ele>
        <time>2022-08-04T09:24:30.000Z</time>
      </trkpt>
      <trkpt lat="49.32965" lon="-0.71963">
        <ele>28.733669</ele>
        <time>2022-08-04T09:24:31.000Z</time>
      </trkpt>
      <trkpt lat="49.32967" lon="-0.71958">
        <ele>28.851637</ele>
        <time>2022-08-04T09:24:32.000Z</time>
      </trkpt>
      <trkpt lat="49.32969" lon="-0.71953">
        <ele>28.973684</ele>
        <time>2022-08-04T09:24:33.000Z</time>
      </trkpt>
      <trkpt lat="49.32973" lon="-0.71949">
        <ele>29.106594</ele>
        <time>2022-08-04T09:24:34.000Z</time>
      </trkpt>
      <trkpt lat="49.32976" lon="-0.71943">
        <ele>29.250765</ele>
        <time>2022-08-04T09:24:35.000Z</time>
      </trkpt>
      <trkpt lat="49.32978" lon="-0.71939">
        <ele>29.353113</ele>
        <time>2022-08-04T09:24:36.000Z</time>
      </trkpt>
      <trkpt lat="49.32981" lon="-0.71934">
        <ele>29.481101</ele>
        <time>2022-08-04T09:24:37.000Z</time>
      </trkpt>
      <trkpt lat="49.32984" lon="-0.71929">
        <ele>29.610529</ele>
        <time>2022-08-04T09:24:38.000Z</time>
      </trkpt>
      <trkpt lat="49.32987" lon="-0.71925">
        <ele>29.738517</ele>
        <time>2022-08-04T09:24:39.000Z</time>
      </trkpt>
      <trkpt lat="49.32989" lon="-0.71919">
        <ele>29.870415</ele>
        <time>2022-08-04T09:24:40.000Z</time>
      </trkpt>
      <trkpt lat="49.32992" lon="-0.71915">
        <ele>29.998403</ele>
        <time>2022-08-04T09:24:41.000Z</time>
      </trkpt>
      <trkpt lat="49.32995" lon="-0.7191">
        <ele>30.123482</ele>
        <time>2022-08-04T09:24:42.000Z</time>
      </trkpt>
      <trkpt lat="49.32998" lon="-0.71905">
        <ele>30.254364</ele>
        <time>2022-08-04T09:24:43.000Z</time>
      </trkpt>
      <trkpt lat="49.33001" lon="-0.719">
        <ele>30.380331</ele>
        <time>2022-08-04T09:24:44.000Z</time>
      </trkpt>
      <trkpt lat="49.33003" lon="-0.71895">
        <ele>30.50088</ele>
        <time>2022-08-04T09:24:45.000Z</time>
      </trkpt>
      <trkpt lat="49.33006" lon="-0.7189">
        <ele>30.622927</ele>
        <time>2022-08-04T09:24:46.000Z</time>
      </trkpt>
      <trkpt lat="49.33008" lon="-0.71885">
        <ele>30.744611</ele>
        <time>2022-08-04T09:24:47.000Z</time>
      </trkpt>
      <trkpt lat="49.33011" lon="-0.71881">
        <ele>30.866657</ele>
        <time>2022-08-04T09:24:48.000Z</time>
      </trkpt>
      <trkpt lat="49.33013" lon="-0.71876">
        <ele>30.981404</ele>
        <time>2022-08-04T09:24:49.000Z</time>
      </trkpt>
      <trkpt lat="49.33016" lon="-0.71871">
        <ele>31.101953</ele>
        <time>2022-08-04T09:24:50.000Z</time>
      </trkpt>
      <trkpt lat="49.33018" lon="-0.71866">
        <ele>31.222103</ele>
        <time>2022-08-04T09:24:51.000Z</time>
      </trkpt>
      <trkpt lat="49.33021" lon="-0.71862">
        <ele>31.337032</ele>
        <time>2022-08-04T09:24:52.000Z</time>
      </trkpt>
      <trkpt lat="49.33023" lon="-0.71857">
        <ele>31.447032</ele>
        <time>2022-08-04T09:24:53.000Z</time>
      </trkpt>
      <trkpt lat="49.33025" lon="-0.71852">
        <ele>31.56353</ele>
        <time>2022-08-04T09:24:54.000Z</time>
      </trkpt>
      <trkpt lat="49.33027" lon="-0.71847">
        <ele>31.680101</ele>
        <time>2022-08-04T09:24:55.000Z</time>
      </trkpt>
      <trkpt lat="49.33029" lon="-0.71842">
        <ele>31.793277</ele>
        <time>2022-08-04T09:24:56.000Z</time>
      </trkpt>
      <trkpt lat="49.3303" lon="-0.71837">
        <ele>31.902197</ele>
        <time>2022-08-04T09:24:57.000Z</time>
      </trkpt>
      <trkpt lat="49.33032" lon="-0.71832">
        <ele>32.016412</ele>
        <time>2022-08-04T09:24:58.000Z</time>
      </trkpt>
      <trkpt lat="49.33033" lon="-0.71826">
        <ele>32.125454</ele>
        <time>2022-08-04T09:24:59.000Z</time>
      </trkpt>
      <trkpt lat="49.33034" lon="-0.71821">
        <ele>32.240879</ele>
        <time>2022-08-04T09:25:00.000Z</time>
      </trkpt>
      <trkpt lat="49.33035" lon="-0.71815">
        <ele>32.356304</ele>
        <time>2022-08-04T09:25:01.000Z</time>
      </trkpt>
      <trkpt lat="49.33036" lon="-0.71808">
        <ele>32.491985</ele>
        <time>2022-08-04T09:25:02.000Z</time>
      </trkpt>
      <trkpt lat="49.33036" lon="-0.71802">
        <ele>32.611173</ele>
        <time>2022-08-04T09:25:03.000Z</time>
      </trkpt>
      <trkpt lat="49.33037" lon="-0.71796">
        <ele>32.72884</ele>
        <time>2022-08-04T09:25:04.000Z</time>
      </trkpt>
      <trkpt lat="49.33037" lon="-0.7179">
        <ele>32.851404</ele>
        <time>2022-08-04T09:25:05.000Z</time>
      </trkpt>
      <trkpt lat="49.33037" lon="-0.71784">
        <ele>32.970682</ele>
        <time>2022-08-04T09:25:06.000Z</time>
      </trkpt>
      <trkpt lat="49.33038" lon="-0.71778">
        <ele>33.095573</ele>
        <time>2022-08-04T09:25:07.000Z</time>
      </trkpt>
      <trkpt lat="49.33038" lon="-0.71772">
        <ele>33.213241</ele>
        <time>2022-08-04T09:25:08.000Z</time>
      </trkpt>
      <trkpt lat="49.33039" lon="-0.71766">
        <ele>33.330909</ele>
        <time>2022-08-04T09:25:09.000Z</time>
      </trkpt>
      <trkpt lat="49.33039" lon="-0.7176">
        <ele>33.450097</ele>
        <time>2022-08-04T09:25:10.000Z</time>
      </trkpt>
      <trkpt lat="49.3304" lon="-0.71755">
        <ele>33.545666</ele>
        <time>2022-08-04T09:25:11.000Z</time>
      </trkpt>
      <trkpt lat="49.3304" lon="-0.71748">
        <ele>33.682543</ele>
        <time>2022-08-04T09:25:12.000Z</time>
      </trkpt>
      <trkpt lat="49.33041" lon="-0.71742">
        <ele>33.801239</ele>
        <time>2022-08-04T09:25:13.000Z</time>
      </trkpt>
      <trkpt lat="49.33041" lon="-0.71736">
        <ele>33.917229</ele>
        <time>2022-08-04T09:25:14.000Z</time>
      </trkpt>
      <trkpt lat="49.33041" lon="-0.71731">
        <ele>34.007626</ele>
        <time>2022-08-04T09:25:15.000Z</time>
      </trkpt>
      <trkpt lat="49.33042" lon="-0.71724">
        <ele>34.087428</ele>
        <time>2022-08-04T09:25:16.000Z</time>
      </trkpt>
      <trkpt lat="49.33043" lon="-0.71718">
        <ele>34.12783</ele>
        <time>2022-08-04T09:25:17.000Z</time>
      </trkpt>
      <trkpt lat="49.33043" lon="-0.71712">
        <ele>34.16872</ele>
        <time>2022-08-04T09:25:18.000Z</time>
      </trkpt>
      <trkpt lat="49.33044" lon="-0.71705">
        <ele>34.211251</ele>
        <time>2022-08-04T09:25:19.000Z</time>
      </trkpt>
      <trkpt lat="49.33045" lon="-0.71699">
        <ele>34.254229</ele>
        <time>2022-08-04T09:25:20.000Z</time>
      </trkpt>
      <trkpt lat="49.33045" lon="-0.71692">
        <ele>34.298743</ele>
        <time>2022-08-04T09:25:21.000Z</time>
      </trkpt>
      <trkpt lat="49.33045" lon="-0.71686">
        <ele>34.342257</ele>
        <time>2022-08-04T09:25:22.000Z</time>
      </trkpt>
      <trkpt lat="49.33046" lon="-0.7168">
        <ele>34.385235</ele>
        <time>2022-08-04T09:25:23.000Z</time>
      </trkpt>
      <trkpt lat="49.33047" lon="-0.71673">
        <ele>34.429749</ele>
        <time>2022-08-04T09:25:24.000Z</time>
      </trkpt>
      <trkpt lat="49.33047" lon="-0.71666">
        <ele>34.47538</ele>
        <time>2022-08-04T09:25:25.000Z</time>
      </trkpt>
      <trkpt lat="49.33048" lon="-0.71659">
        <ele>34.520863</ele>
        <time>2022-08-04T09:25:26.000Z</time>
      </trkpt>
      <trkpt lat="49.33049" lon="-0.71652">
        <ele>34.567661</ele>
        <time>2022-08-04T09:25:27.000Z</time>
      </trkpt>
      <trkpt lat="49.33049" lon="-0.71646">
        <ele>34.612256</ele>
        <time>2022-08-04T09:25:28.000Z</time>
      </trkpt>
      <trkpt lat="49.33049" lon="-0.71639">
        <ele>34.65677</ele>
        <time>2022-08-04T09:25:29.000Z</time>
      </trkpt>
      <trkpt lat="49.3305" lon="-0.71632">
        <ele>34.70094</ele>
        <time>2022-08-04T09:25:30.000Z</time>
      </trkpt>
      <trkpt lat="49.3305" lon="-0.71626">
        <ele>34.74336</ele>
        <time>2022-08-04T09:25:31.000Z</time>
      </trkpt>
      <trkpt lat="49.3305" lon="-0.7162">
        <ele>34.783908</ele>
        <time>2022-08-04T09:25:32.000Z</time>
      </trkpt>
      <trkpt lat="49.3305" lon="-0.71614">
        <ele>34.825003</ele>
        <time>2022-08-04T09:25:33.000Z</time>
      </trkpt>
      <trkpt lat="49.33051" lon="-0.71607">
        <ele>34.866958</ele>
        <time>2022-08-04T09:25:34.000Z</time>
      </trkpt>
      <trkpt lat="49.33051" lon="-0.71601">
        <ele>34.908166</ele>
        <time>2022-08-04T09:25:35.000Z</time>
      </trkpt>
      <trkpt lat="49.33051" lon="-0.71596">
        <ele>34.941448</ele>
        <time>2022-08-04T09:25:36.000Z</time>
      </trkpt>
      <trkpt lat="49.33052" lon="-0.71589">
        <ele>34.992189</ele>
        <time>2022-08-04T09:25:37.000Z</time>
      </trkpt>
      <trkpt lat="49.33052" lon="-0.71582">
        <ele>35.033947</ele>
        <time>2022-08-04T09:25:38.000Z</time>
      </trkpt>
      <trkpt lat="49.33053" lon="-0.71576">
        <ele>35.078461</ele>
        <time>2022-08-04T09:25:39.000Z</time>
      </trkpt>
      <trkpt lat="49.33053" lon="-0.71569">
        <ele>35.12033</ele>
        <time>2022-08-04T09:25:40.000Z</time>
      </trkpt>
      <trkpt lat="49.33053" lon="-0.71563">
        <ele>35.16286</ele>
        <time>2022-08-04T09:25:41.000Z</time>
      </trkpt>
      <trkpt lat="49.33054" lon="-0.71557">
        <ele>35.205839</ele>
        <time>2022-08-04T09:25:42.000Z</time>
      </trkpt>
      <trkpt lat="49.33054" lon="-0.7155">
        <ele>35.247708</ele>
        <time>2022-08-04T09:25:43.000Z</time>
      </trkpt>
      <trkpt lat="49.33055" lon="-0.71544">
        <ele>35.290565</ele>
        <time>2022-08-04T09:25:44.000Z</time>
      </trkpt>
      <trkpt lat="49.33056" lon="-0.71538">
        <ele>35.333544</ele>
        <time>2022-08-04T09:25:45.000Z</time>
      </trkpt>
      <trkpt lat="49.33056" lon="-0.71531">
        <ele>35.376735</ele>
        <time>2022-08-04T09:25:46.000Z</time>
      </trkpt>
      <trkpt lat="49.33057" lon="-0.71524">
        <ele>35.421712</ele>
        <time>2022-08-04T09:25:47.000Z</time>
      </trkpt>
      <trkpt lat="49.33058" lon="-0.71518">
        <ele>35.464461</ele>
        <time>2022-08-04T09:25:48.000Z</time>
      </trkpt>
      <trkpt lat="49.33059" lon="-0.71512">
        <ele>35.508129</ele>
        <time>2022-08-04T09:25:49.000Z</time>
      </trkpt>
      <trkpt lat="49.33059" lon="-0.71505">
        <ele>35.549674</ele>
        <time>2022-08-04T09:25:50.000Z</time>
      </trkpt>
      <trkpt lat="49.3306" lon="-0.71499">
        <ele>35.589909</ele>
        <time>2022-08-04T09:25:51.000Z</time>
      </trkpt>
      <trkpt lat="49.33061" lon="-0.71494">
        <ele>35.628395</ele>
        <time>2022-08-04T09:25:52.000Z</time>
      </trkpt>
      <trkpt lat="49.33061" lon="-0.71488">
        <ele>35.667621</ele>
        <time>2022-08-04T09:25:53.000Z</time>
      </trkpt>
      <trkpt lat="49.33062" lon="-0.71482">
        <ele>35.70867</ele>
        <time>2022-08-04T09:25:54.000Z</time>
      </trkpt>
      <trkpt lat="49.33063" lon="-0.71476">
        <ele>35.750125</ele>
        <time>2022-08-04T09:25:55.000Z</time>
      </trkpt>
      <trkpt lat="49.33064" lon="-0.71469">
        <ele>35.794559</ele>
        <time>2022-08-04T09:25:56.000Z</time>
      </trkpt>
      <trkpt lat="49.33065" lon="-0.71463">
        <ele>35.837537</ele>
        <time>2022-08-04T09:25:57.000Z</time>
      </trkpt>
      <trkpt lat="49.33067" lon="-0.71457">
        <ele>35.881338</ele>
        <time>2022-08-04T09:25:58.000Z</time>
      </trkpt>
      <trkpt lat="49.33068" lon="-0.7145">
        <ele>35.74884</ele>
        <time>2022-08-04T09:25:59.000Z</time>
      </trkpt>
      <trkpt lat="49.3307" lon="-0.71443">
        <ele>35.60671</ele>
        <time>2022-08-04T09:26:00.000Z</time>
      </trkpt>
      <trkpt lat="49.33071" lon="-0.71435">
        <ele>35.450359</ele>
        <time>2022-08-04T09:26:01.000Z</time>
      </trkpt>
      <trkpt lat="49.33073" lon="-0.71426">
        <ele>35.287756</ele>
        <time>2022-08-04T09:26:02.000Z</time>
      </trkpt>
      <trkpt lat="49.33075" lon="-0.71418">
        <ele>35.123392</ele>
        <time>2022-08-04T09:26:03.000Z</time>
      </trkpt>
      <trkpt lat="49.33077" lon="-0.71409">
        <ele>34.951958</ele>
        <time>2022-08-04T09:26:04.000Z</time>
      </trkpt>
      <trkpt lat="49.33079" lon="-0.71401">
        <ele>34.782295</ele>
        <time>2022-08-04T09:26:05.000Z</time>
      </trkpt>
      <trkpt lat="49.33081" lon="-0.71392">
        <ele>34.60688</ele>
        <time>2022-08-04T09:26:06.000Z</time>
      </trkpt>
      <trkpt lat="49.33084" lon="-0.71384">
        <ele>34.430923</ele>
        <time>2022-08-04T09:26:07.000Z</time>
      </trkpt>
      <trkpt lat="49.33087" lon="-0.71375">
        <ele>34.256686</ele>
        <time>2022-08-04T09:26:08.000Z</time>
      </trkpt>
      <trkpt lat="49.33089" lon="-0.71366">
        <ele>34.077804</ele>
        <time>2022-08-04T09:26:09.000Z</time>
      </trkpt>
      <trkpt lat="49.33092" lon="-0.71357">
        <ele>33.891471</ele>
        <time>2022-08-04T09:26:10.000Z</time>
      </trkpt>
      <trkpt lat="49.33094" lon="-0.71348">
        <ele>33.70911</ele>
        <time>2022-08-04T09:26:11.000Z</time>
      </trkpt>
      <trkpt lat="49.33097" lon="-0.71339">
        <ele>33.526318</ele>
        <time>2022-08-04T09:26:12.000Z</time>
      </trkpt>
      <trkpt lat="49.331" lon="-0.7133">
        <ele>33.336403</ele>
        <time>2022-08-04T09:26:13.000Z</time>
      </trkpt>
      <trkpt lat="49.33103" lon="-0.71321">
        <ele>33.147142</ele>
        <time>2022-08-04T09:26:14.000Z</time>
      </trkpt>
      <trkpt lat="49.33106" lon="-0.71312">
        <ele>32.9562</ele>
        <time>2022-08-04T09:26:15.000Z</time>
      </trkpt>
      <trkpt lat="49.33109" lon="-0.71303">
        <ele>32.768615</ele>
        <time>2022-08-04T09:26:16.000Z</time>
      </trkpt>
      <trkpt lat="49.33111" lon="-0.71294">
        <ele>32.585518</ele>
        <time>2022-08-04T09:26:17.000Z</time>
      </trkpt>
      <trkpt lat="49.33114" lon="-0.71285">
        <ele>32.396257</ele>
        <time>2022-08-04T09:26:18.000Z</time>
      </trkpt>
      <trkpt lat="49.33116" lon="-0.71276">
        <ele>32.2089</ele>
        <time>2022-08-04T09:26:19.000Z</time>
      </trkpt>
      <trkpt lat="49.33119" lon="-0.71266">
        <ele>32.02094</ele>
        <time>2022-08-04T09:26:20.000Z</time>
      </trkpt>
      <trkpt lat="49.33121" lon="-0.71259">
        <ele>31.867109</ele>
        <time>2022-08-04T09:26:21.000Z</time>
      </trkpt>
      <trkpt lat="49.33124" lon="-0.7125">
        <ele>31.684532</ele>
        <time>2022-08-04T09:26:22.000Z</time>
      </trkpt>
      <trkpt lat="49.33126" lon="-0.7124">
        <ele>31.48344</ele>
        <time>2022-08-04T09:26:23.000Z</time>
      </trkpt>
      <trkpt lat="49.33129" lon="-0.71232">
        <ele>31.317758</ele>
        <time>2022-08-04T09:26:24.000Z</time>
      </trkpt>
      <trkpt lat="49.33131" lon="-0.71223">
        <ele>31.145802</ele>
        <time>2022-08-04T09:26:25.000Z</time>
      </trkpt>
      <trkpt lat="49.33133" lon="-0.71215">
        <ele>30.976141</ele>
        <time>2022-08-04T09:26:26.000Z</time>
      </trkpt>
      <trkpt lat="49.33134" lon="-0.71206">
        <ele>30.812632</ele>
        <time>2022-08-04T09:26:27.000Z</time>
      </trkpt>
      <trkpt lat="49.33135" lon="-0.71198">
        <ele>30.684403</ele>
        <time>2022-08-04T09:26:28.000Z</time>
      </trkpt>
      <trkpt lat="49.33136" lon="-0.71191">
        <ele>30.596119</ele>
        <time>2022-08-04T09:26:29.000Z</time>
      </trkpt>
      <trkpt lat="49.33138" lon="-0.71185">
        <ele>30.516879</ele>
        <time>2022-08-04T09:26:30.000Z</time>
      </trkpt>
      <trkpt lat="49.33139" lon="-0.71181">
        <ele>30.470377</ele>
        <time>2022-08-04T09:26:31.000Z</time>
      </trkpt>
      <trkpt lat="49.33141" lon="-0.71177">
        <ele>30.409463</ele>
        <time>2022-08-04T09:26:32.000Z</time>
      </trkpt>
      <trkpt lat="49.33141" lon="-0.71174">
        <ele>30.368047</ele>
        <time>2022-08-04T09:26:33.000Z</time>
      </trkpt>
      <trkpt lat="49.33143" lon="-0.71168">
        <ele>30.300755</ele>
        <time>2022-08-04T09:26:35.000Z</time>
      </trkpt>
      <trkpt lat="49.33143" lon="-0.71165">
        <ele>30.254973</ele>
        <time>2022-08-04T09:26:37.000Z</time>
      </trkpt>
      <trkpt lat="49.33141" lon="-0.71154">
        <ele>30.121645</ele>
        <time>2022-08-04T09:26:47.000Z</time>
      </trkpt>
      <trkpt lat="49.3314" lon="-0.71149">
        <ele>30.05622</ele>
        <time>2022-08-04T09:26:49.000Z</time>
      </trkpt>
      <trkpt lat="49.3314" lon="-0.71146">
        <ele>30.022158</ele>
        <time>2022-08-04T09:26:50.000Z</time>
      </trkpt>
      <trkpt lat="49.33141" lon="-0.71141">
        <ele>29.964858</ele>
        <time>2022-08-04T09:26:52.000Z</time>
      </trkpt>
      <trkpt lat="49.33141" lon="-0.71136">
        <ele>29.897474</ele>
        <time>2022-08-04T09:26:54.000Z</time>
      </trkpt>
      <trkpt lat="49.33141" lon="-0.71133">
        <ele>29.859449</ele>
        <time>2022-08-04T09:26:55.000Z</time>
      </trkpt>
      <trkpt lat="49.33142" lon="-0.71129">
        <ele>29.82073</ele>
        <time>2022-08-04T09:26:56.000Z</time>
      </trkpt>
      <trkpt lat="49.33142" lon="-0.71126">
        <ele>29.780019</ele>
        <time>2022-08-04T09:26:57.000Z</time>
      </trkpt>
      <trkpt lat="49.33142" lon="-0.71122">
        <ele>29.734864</ele>
        <time>2022-08-04T09:26:58.000Z</time>
      </trkpt>
      <trkpt lat="49.33142" lon="-0.71118">
        <ele>29.687333</ele>
        <time>2022-08-04T09:26:59.000Z</time>
      </trkpt>
      <trkpt lat="49.33143" lon="-0.71114">
        <ele>29.637126</ele>
        <time>2022-08-04T09:27:00.000Z</time>
      </trkpt>
      <trkpt lat="49.33143" lon="-0.7111">
        <ele>29.585611</ele>
        <time>2022-08-04T09:27:01.000Z</time>
      </trkpt>
      <trkpt lat="49.33143" lon="-0.71105">
        <ele>29.530636</ele>
        <time>2022-08-04T09:27:02.000Z</time>
      </trkpt>
      <trkpt lat="49.33143" lon="-0.71101">
        <ele>29.473598</ele>
        <time>2022-08-04T09:27:03.000Z</time>
      </trkpt>
      <trkpt lat="49.33143" lon="-0.71095">
        <ele>29.411807</ele>
        <time>2022-08-04T09:27:04.000Z</time>
      </trkpt>
      <trkpt lat="49.33143" lon="-0.7109">
        <ele>29.348828</ele>
        <time>2022-08-04T09:27:05.000Z</time>
      </trkpt>
      <trkpt lat="49.33143" lon="-0.71085">
        <ele>29.284568</ele>
        <time>2022-08-04T09:27:06.000Z</time>
      </trkpt>
      <trkpt lat="49.33143" lon="-0.71079">
        <ele>29.213307</ele>
        <time>2022-08-04T09:27:07.000Z</time>
      </trkpt>
      <trkpt lat="49.33143" lon="-0.71073">
        <ele>29.143215</ele>
        <time>2022-08-04T09:27:08.000Z</time>
      </trkpt>
      <trkpt lat="49.33143" lon="-0.71066">
        <ele>29.057658</ele>
        <time>2022-08-04T09:27:09.000Z</time>
      </trkpt>
      <trkpt lat="49.33144" lon="-0.71061">
        <ele>29.002724</ele>
        <time>2022-08-04T09:27:10.000Z</time>
      </trkpt>
      <trkpt lat="49.33144" lon="-0.71055">
        <ele>28.932615</ele>
        <time>2022-08-04T09:27:11.000Z</time>
      </trkpt>
      <trkpt lat="49.33144" lon="-0.71049">
        <ele>28.861317</ele>
        <time>2022-08-04T09:27:12.000Z</time>
      </trkpt>
      <trkpt lat="49.33144" lon="-0.71042">
        <ele>28.7744</ele>
        <time>2022-08-04T09:27:13.000Z</time>
      </trkpt>
      <trkpt lat="49.33144" lon="-0.71037">
        <ele>28.714986</ele>
        <time>2022-08-04T09:27:14.000Z</time>
      </trkpt>
      <trkpt lat="49.33144" lon="-0.71031">
        <ele>28.637554</ele>
        <time>2022-08-04T09:27:15.000Z</time>
      </trkpt>
      <trkpt lat="49.33145" lon="-0.71024">
        <ele>28.560503</ele>
        <time>2022-08-04T09:27:16.000Z</time>
      </trkpt>
      <trkpt lat="49.33145" lon="-0.71018">
        <ele>28.483264</ele>
        <time>2022-08-04T09:27:17.000Z</time>
      </trkpt>
      <trkpt lat="49.33145" lon="-0.71011">
        <ele>28.403649</ele>
        <time>2022-08-04T09:27:18.000Z</time>
      </trkpt>
      <trkpt lat="49.33145" lon="-0.71004">
        <ele>28.324034</ele>
        <time>2022-08-04T09:27:19.000Z</time>
      </trkpt>
      <trkpt lat="49.33146" lon="-0.70998">
        <ele>28.246024</ele>
        <time>2022-08-04T09:27:20.000Z</time>
      </trkpt>
      <trkpt lat="49.33146" lon="-0.70991">
        <ele>28.165036</ele>
        <time>2022-08-04T09:27:21.000Z</time>
      </trkpt>
      <trkpt lat="49.33147" lon="-0.70985">
        <ele>28.089819</ele>
        <time>2022-08-04T09:27:22.000Z</time>
      </trkpt>
      <trkpt lat="49.33147" lon="-0.70979">
        <ele>28.015338</ele>
        <time>2022-08-04T09:27:23.000Z</time>
      </trkpt>
      <trkpt lat="49.33148" lon="-0.70973">
        <ele>27.943831</ele>
        <time>2022-08-04T09:27:24.000Z</time>
      </trkpt>
      <trkpt lat="49.33148" lon="-0.70967">
        <ele>27.875878</ele>
        <time>2022-08-04T09:27:25.000Z</time>
      </trkpt>
      <trkpt lat="49.33148" lon="-0.70962">
        <ele>27.812899</ele>
        <time>2022-08-04T09:27:26.000Z</time>
      </trkpt>
      <trkpt lat="49.33148" lon="-0.70956">
        <ele>27.750679</ele>
        <time>2022-08-04T09:27:27.000Z</time>
      </trkpt>
      <trkpt lat="49.33148" lon="-0.70951">
        <ele>27.690076</ele>
        <time>2022-08-04T09:27:28.000Z</time>
      </trkpt>
      <trkpt lat="49.33149" lon="-0.70946">
        <ele>27.629663</ele>
        <time>2022-08-04T09:27:29.000Z</time>
      </trkpt>
      <trkpt lat="49.3315" lon="-0.70941">
        <ele>27.565238</ele>
        <time>2022-08-04T09:27:30.000Z</time>
      </trkpt>
      <trkpt lat="49.3315" lon="-0.70936">
        <ele>27.504825</ele>
        <time>2022-08-04T09:27:31.000Z</time>
      </trkpt>
      <trkpt lat="49.33151" lon="-0.70931">
        <ele>27.453044</ele>
        <time>2022-08-04T09:27:32.000Z</time>
      </trkpt>
      <trkpt lat="49.33152" lon="-0.70926">
        <ele>27.519415</ele>
        <time>2022-08-04T09:27:33.000Z</time>
      </trkpt>
      <trkpt lat="49.33153" lon="-0.7092">
        <ele>27.588131</ele>
        <time>2022-08-04T09:27:34.000Z</time>
      </trkpt>
      <trkpt lat="49.33154" lon="-0.70915">
        <ele>27.653321</ele>
        <time>2022-08-04T09:27:35.000Z</time>
      </trkpt>
      <trkpt lat="49.33155" lon="-0.7091">
        <ele>27.720214</ele>
        <time>2022-08-04T09:27:36.000Z</time>
      </trkpt>
      <trkpt lat="49.33157" lon="-0.70905">
        <ele>27.788931</ele>
        <time>2022-08-04T09:27:37.000Z</time>
      </trkpt>
      <trkpt lat="49.33157" lon="-0.709">
        <ele>27.854121</ele>
        <time>2022-08-04T09:27:38.000Z</time>
      </trkpt>
      <trkpt lat="49.33159" lon="-0.70895">
        <ele>27.920539</ele>
        <time>2022-08-04T09:27:39.000Z</time>
      </trkpt>
      <trkpt lat="49.3316" lon="-0.70889">
        <ele>28.002814</ele>
        <time>2022-08-04T09:27:40.000Z</time>
      </trkpt>
      <trkpt lat="49.33162" lon="-0.70885">
        <ele>28.057963</ele>
        <time>2022-08-04T09:27:41.000Z</time>
      </trkpt>
      <trkpt lat="49.33164" lon="-0.7088">
        <ele>28.127254</ele>
        <time>2022-08-04T09:27:42.000Z</time>
      </trkpt>
      <trkpt lat="49.33165" lon="-0.70875">
        <ele>28.19341</ele>
        <time>2022-08-04T09:27:43.000Z</time>
      </trkpt>
      <trkpt lat="49.33168" lon="-0.70869">
        <ele>28.278234</ele>
        <time>2022-08-04T09:27:44.000Z</time>
      </trkpt>
      <trkpt lat="49.33169" lon="-0.70866">
        <ele>28.331997</ele>
        <time>2022-08-04T09:27:45.000Z</time>
      </trkpt>
      <trkpt lat="49.33172" lon="-0.70861">
        <ele>28.401405</ele>
        <time>2022-08-04T09:27:46.000Z</time>
      </trkpt>
      <trkpt lat="49.33173" lon="-0.70857">
        <ele>28.463571</ele>
        <time>2022-08-04T09:27:47.000Z</time>
      </trkpt>
      <trkpt lat="49.33174" lon="-0.70853">
        <ele>28.516523</ele>
        <time>2022-08-04T09:27:48.000Z</time>
      </trkpt>
      <trkpt lat="49.33177" lon="-0.70849">
        <ele>28.590723</ele>
        <time>2022-08-04T09:27:49.000Z</time>
      </trkpt>
      <trkpt lat="49.33179" lon="-0.70845">
        <ele>28.643471</ele>
        <time>2022-08-04T09:27:50.000Z</time>
      </trkpt>
      <trkpt lat="49.33181" lon="-0.70842">
        <ele>28.696882</ele>
        <time>2022-08-04T09:27:51.000Z</time>
      </trkpt>
      <trkpt lat="49.33182" lon="-0.70839">
        <ele>28.744712</ele>
        <time>2022-08-04T09:27:52.000Z</time>
      </trkpt>
      <trkpt lat="49.33184" lon="-0.70837">
        <ele>28.784573</ele>
        <time>2022-08-04T09:27:53.000Z</time>
      </trkpt>
      <trkpt lat="49.33186" lon="-0.70835">
        <ele>28.828195</ele>
        <time>2022-08-04T09:27:55.000Z</time>
      </trkpt>
      <trkpt lat="49.33193" lon="-0.70825">
        <ele>29.01086</ele>
        <time>2022-08-04T09:29:38.000Z</time>
      </trkpt>
      <trkpt lat="49.33196" lon="-0.70823">
        <ele>29.070417</ele>
        <time>2022-08-04T09:29:39.000Z</time>
      </trkpt>
      <trkpt lat="49.33199" lon="-0.70821">
        <ele>29.135833</ele>
        <time>2022-08-04T09:29:40.000Z</time>
      </trkpt>
      <trkpt lat="49.33202" lon="-0.7082">
        <ele>29.192107</ele>
        <time>2022-08-04T09:29:41.000Z</time>
      </trkpt>
      <trkpt lat="49.33205" lon="-0.70819">
        <ele>29.259102</ele>
        <time>2022-08-04T09:29:42.000Z</time>
      </trkpt>
      <trkpt lat="49.33209" lon="-0.70818">
        <ele>29.329727</ele>
        <time>2022-08-04T09:29:43.000Z</time>
      </trkpt>
      <trkpt lat="49.33212" lon="-0.70816">
        <ele>29.395144</ele>
        <time>2022-08-04T09:29:44.000Z</time>
      </trkpt>
      <trkpt lat="49.33215" lon="-0.70814">
        <ele>29.460105</ele>
        <time>2022-08-04T09:29:45.000Z</time>
      </trkpt>
      <trkpt lat="49.33218" lon="-0.70812">
        <ele>29.512388</ele>
        <time>2022-08-04T09:29:46.000Z</time>
      </trkpt>
      <trkpt lat="49.33221" lon="-0.7081">
        <ele>29.5765</ele>
        <time>2022-08-04T09:29:47.000Z</time>
      </trkpt>
      <trkpt lat="49.33225" lon="-0.70809">
        <ele>29.646387</ele>
        <time>2022-08-04T09:29:48.000Z</time>
      </trkpt>
      <trkpt lat="49.33227" lon="-0.70807">
        <ele>29.70145</ele>
        <time>2022-08-04T09:29:49.000Z</time>
      </trkpt>
      <trkpt lat="49.3323" lon="-0.70804">
        <ele>29.75954</ele>
        <time>2022-08-04T09:29:50.000Z</time>
      </trkpt>
      <trkpt lat="49.33232" lon="-0.70801">
        <ele>29.815261</ele>
        <time>2022-08-04T09:29:51.000Z</time>
      </trkpt>
      <trkpt lat="49.33234" lon="-0.70797">
        <ele>29.870047</ele>
        <time>2022-08-04T09:29:52.000Z</time>
      </trkpt>
      <trkpt lat="49.33235" lon="-0.70793">
        <ele>29.928531</ele>
        <time>2022-08-04T09:29:53.000Z</time>
      </trkpt>
      <trkpt lat="49.33235" lon="-0.70788">
        <ele>29.988024</ele>
        <time>2022-08-04T09:29:54.000Z</time>
      </trkpt>
      <trkpt lat="49.33235" lon="-0.70783">
        <ele>30.054649</ele>
        <time>2022-08-04T09:29:55.000Z</time>
      </trkpt>
      <trkpt lat="49.33235" lon="-0.70779">
        <ele>30.108004</ele>
        <time>2022-08-04T09:29:56.000Z</time>
      </trkpt>
      <trkpt lat="49.33235" lon="-0.70772">
        <ele>30.185732</ele>
        <time>2022-08-04T09:29:57.000Z</time>
      </trkpt>
      <trkpt lat="49.33234" lon="-0.70767">
        <ele>30.254994</ele>
        <time>2022-08-04T09:29:58.000Z</time>
      </trkpt>
      <trkpt lat="49.33234" lon="-0.70761">
        <ele>30.329239</ele>
        <time>2022-08-04T09:29:59.000Z</time>
      </trkpt>
      <trkpt lat="49.33234" lon="-0.70755">
        <ele>30.400798</ele>
        <time>2022-08-04T09:30:00.000Z</time>
      </trkpt>
      <trkpt lat="49.33233" lon="-0.70749">
        <ele>30.472035</ele>
        <time>2022-08-04T09:30:01.000Z</time>
      </trkpt>
      <trkpt lat="49.33233" lon="-0.70744">
        <ele>30.537863</ele>
        <time>2022-08-04T09:30:02.000Z</time>
      </trkpt>
      <trkpt lat="49.33231" lon="-0.70739">
        <ele>30.607087</ele>
        <time>2022-08-04T09:30:03.000Z</time>
      </trkpt>
      <trkpt lat="49.33231" lon="-0.70735">
        <ele>30.659457</ele>
        <time>2022-08-04T09:30:04.000Z</time>
      </trkpt>
      <trkpt lat="49.3323" lon="-0.70729">
        <ele>30.727031</ele>
        <time>2022-08-04T09:30:05.000Z</time>
      </trkpt>
      <trkpt lat="49.3323" lon="-0.70724">
        <ele>30.793896</ele>
        <time>2022-08-04T09:30:06.000Z</time>
      </trkpt>
      <trkpt lat="49.33229" lon="-0.70718">
        <ele>30.855043</ele>
        <time>2022-08-04T09:30:07.000Z</time>
      </trkpt>
      <trkpt lat="49.33229" lon="-0.70713">
        <ele>30.877003</ele>
        <time>2022-08-04T09:30:08.000Z</time>
      </trkpt>
      <trkpt lat="49.33229" lon="-0.70707">
        <ele>30.898962</ele>
        <time>2022-08-04T09:30:09.000Z</time>
      </trkpt>
      <trkpt lat="49.33228" lon="-0.70701">
        <ele>30.922336</ele>
        <time>2022-08-04T09:30:10.000Z</time>
      </trkpt>
      <trkpt lat="49.33227" lon="-0.70695">
        <ele>30.944874</ele>
        <time>2022-08-04T09:30:11.000Z</time>
      </trkpt>
      <trkpt lat="49.33226" lon="-0.70689">
        <ele>30.967517</ele>
        <time>2022-08-04T09:30:12.000Z</time>
      </trkpt>
      <trkpt lat="49.33226" lon="-0.70683">
        <ele>30.989682</ele>
        <time>2022-08-04T09:30:13.000Z</time>
      </trkpt>
      <trkpt lat="49.33225" lon="-0.70677">
        <ele>31.013339</ele>
        <time>2022-08-04T09:30:14.000Z</time>
      </trkpt>
      <trkpt lat="49.33225" lon="-0.70671">
        <ele>31.03798</ele>
        <time>2022-08-04T09:30:15.000Z</time>
      </trkpt>
      <trkpt lat="49.33224" lon="-0.70664">
        <ele>31.06201</ele>
        <time>2022-08-04T09:30:16.000Z</time>
      </trkpt>
      <trkpt lat="49.33223" lon="-0.70658">
        <ele>31.085667</ele>
        <time>2022-08-04T09:30:17.000Z</time>
      </trkpt>
      <trkpt lat="49.33222" lon="-0.70652">
        <ele>31.110249</ele>
        <time>2022-08-04T09:30:18.000Z</time>
      </trkpt>
      <trkpt lat="49.33221" lon="-0.70646">
        <ele>31.133626</ele>
        <time>2022-08-04T09:30:19.000Z</time>
      </trkpt>
      <trkpt lat="49.33221" lon="-0.7064">
        <ele>31.156337</ele>
        <time>2022-08-04T09:30:20.000Z</time>
      </trkpt>
      <trkpt lat="49.33221" lon="-0.70634">
        <ele>31.179049</ele>
        <time>2022-08-04T09:30:21.000Z</time>
      </trkpt>
      <trkpt lat="49.3322" lon="-0.70628">
        <ele>31.202058</ele>
        <time>2022-08-04T09:30:22.000Z</time>
      </trkpt>
      <trkpt lat="49.33219" lon="-0.70622">
        <ele>31.223477</ele>
        <time>2022-08-04T09:30:23.000Z</time>
      </trkpt>
      <trkpt lat="49.33218" lon="-0.70616">
        <ele>31.247584</ele>
        <time>2022-08-04T09:30:24.000Z</time>
      </trkpt>
      <trkpt lat="49.33218" lon="-0.7061">
        <ele>31.270494</ele>
        <time>2022-08-04T09:30:25.000Z</time>
      </trkpt>
      <trkpt lat="49.33217" lon="-0.70604">
        <ele>31.292659</ele>
        <time>2022-08-04T09:30:26.000Z</time>
      </trkpt>
      <trkpt lat="49.33216" lon="-0.70598">
        <ele>31.316033</ele>
        <time>2022-08-04T09:30:27.000Z</time>
      </trkpt>
      <trkpt lat="49.33215" lon="-0.70592">
        <ele>31.33969</ele>
        <time>2022-08-04T09:30:28.000Z</time>
      </trkpt>
      <trkpt lat="49.33215" lon="-0.70586">
        <ele>31.364331</ele>
        <time>2022-08-04T09:30:29.000Z</time>
      </trkpt>
      <trkpt lat="49.33215" lon="-0.7058">
        <ele>31.386977</ele>
        <time>2022-08-04T09:30:30.000Z</time>
      </trkpt>
      <trkpt lat="49.33214" lon="-0.70574">
        <ele>31.409112</ele>
        <time>2022-08-04T09:30:31.000Z</time>
      </trkpt>
      <trkpt lat="49.33213" lon="-0.70568">
        <ele>31.430633</ele>
        <time>2022-08-04T09:30:32.000Z</time>
      </trkpt>
      <trkpt lat="49.33213" lon="-0.70562">
        <ele>31.453171</ele>
        <time>2022-08-04T09:30:33.000Z</time>
      </trkpt>
      <trkpt lat="49.33213" lon="-0.70557">
        <ele>31.475061</ele>
        <time>2022-08-04T09:30:34.000Z</time>
      </trkpt>
      <trkpt lat="49.33212" lon="-0.70551">
        <ele>31.496853</ele>
        <time>2022-08-04T09:30:35.000Z</time>
      </trkpt>
      <trkpt lat="49.33212" lon="-0.70545">
        <ele>31.52023</ele>
        <time>2022-08-04T09:30:36.000Z</time>
      </trkpt>
      <trkpt lat="49.33211" lon="-0.70539">
        <ele>31.543141</ele>
        <time>2022-08-04T09:30:37.000Z</time>
      </trkpt>
      <trkpt lat="49.3321" lon="-0.70533">
        <ele>31.566889</ele>
        <time>2022-08-04T09:30:38.000Z</time>
      </trkpt>
      <trkpt lat="49.3321" lon="-0.70527">
        <ele>31.588849</ele>
        <time>2022-08-04T09:30:39.000Z</time>
      </trkpt>
      <trkpt lat="49.3321" lon="-0.70521">
        <ele>31.611561</ele>
        <time>2022-08-04T09:30:40.000Z</time>
      </trkpt>
      <trkpt lat="49.33209" lon="-0.70515">
        <ele>31.634273</ele>
        <time>2022-08-04T09:30:41.000Z</time>
      </trkpt>
      <trkpt lat="49.33209" lon="-0.70509">
        <ele>31.657673</ele>
        <time>2022-08-04T09:30:42.000Z</time>
      </trkpt>
      <trkpt lat="49.3321" lon="-0.70503">
        <ele>31.680385</ele>
        <time>2022-08-04T09:30:43.000Z</time>
      </trkpt>
      <trkpt lat="49.3321" lon="-0.70496">
        <ele>31.70385</ele>
        <time>2022-08-04T09:30:44.000Z</time>
      </trkpt>
      <trkpt lat="49.3321" lon="-0.7049">
        <ele>31.726561</ele>
        <time>2022-08-04T09:30:45.000Z</time>
      </trkpt>
      <trkpt lat="49.33212" lon="-0.70485">
        <ele>31.749711</ele>
        <time>2022-08-04T09:30:46.000Z</time>
      </trkpt>
      <trkpt lat="49.33213" lon="-0.70479">
        <ele>31.77286</ele>
        <time>2022-08-04T09:30:47.000Z</time>
      </trkpt>
      <trkpt lat="49.33214" lon="-0.70473">
        <ele>31.795652</ele>
        <time>2022-08-04T09:30:48.000Z</time>
      </trkpt>
      <trkpt lat="49.33215" lon="-0.70467">
        <ele>31.819516</ele>
        <time>2022-08-04T09:30:49.000Z</time>
      </trkpt>
      <trkpt lat="49.33217" lon="-0.70462">
        <ele>31.841562</ele>
        <time>2022-08-04T09:30:50.000Z</time>
      </trkpt>
      <trkpt lat="49.33219" lon="-0.70456">
        <ele>31.865056</ele>
        <time>2022-08-04T09:30:51.000Z</time>
      </trkpt>
      <trkpt lat="49.3322" lon="-0.70451">
        <ele>31.885024</ele>
        <time>2022-08-04T09:30:52.000Z</time>
      </trkpt>
      <trkpt lat="49.33222" lon="-0.70446">
        <ele>31.964</ele>
        <time>2022-08-04T09:30:53.000Z</time>
      </trkpt>
      <trkpt lat="49.33224" lon="-0.70441">
        <ele>32.079909</ele>
        <time>2022-08-04T09:30:54.000Z</time>
      </trkpt>
      <trkpt lat="49.33226" lon="-0.70436">
        <ele>32.204571</ele>
        <time>2022-08-04T09:30:55.000Z</time>
      </trkpt>
      <trkpt lat="49.33228" lon="-0.7043">
        <ele>32.331006</ele>
        <time>2022-08-04T09:30:56.000Z</time>
      </trkpt>
      <trkpt lat="49.3323" lon="-0.70425">
        <ele>32.455391</ele>
        <time>2022-08-04T09:30:57.000Z</time>
      </trkpt>
      <trkpt lat="49.33231" lon="-0.7042">
        <ele>32.572364</ele>
        <time>2022-08-04T09:30:58.000Z</time>
      </trkpt>
      <trkpt lat="49.33234" lon="-0.70414">
        <ele>32.701601</ele>
        <time>2022-08-04T09:30:59.000Z</time>
      </trkpt>
      <trkpt lat="49.33236" lon="-0.70408">
        <ele>32.835994</ele>
        <time>2022-08-04T09:31:00.000Z</time>
      </trkpt>
      <trkpt lat="49.33238" lon="-0.70403">
        <ele>32.965636</ele>
        <time>2022-08-04T09:31:01.000Z</time>
      </trkpt>
      <trkpt lat="49.3324" lon="-0.70397">
        <ele>33.098302</ele>
        <time>2022-08-04T09:31:02.000Z</time>
      </trkpt>
      <trkpt lat="49.33242" lon="-0.70391">
        <ele>33.224737</ele>
        <time>2022-08-04T09:31:03.000Z</time>
      </trkpt>
      <trkpt lat="49.33244" lon="-0.70386">
        <ele>33.35295</ele>
        <time>2022-08-04T09:31:04.000Z</time>
      </trkpt>
      <trkpt lat="49.33246" lon="-0.7038">
        <ele>33.487209</ele>
        <time>2022-08-04T09:31:05.000Z</time>
      </trkpt>
      <trkpt lat="49.33248" lon="-0.70374">
        <ele>33.61187</ele>
        <time>2022-08-04T09:31:06.000Z</time>
      </trkpt>
      <trkpt lat="49.3325" lon="-0.70369">
        <ele>33.738304</ele>
        <time>2022-08-04T09:31:07.000Z</time>
      </trkpt>
      <trkpt lat="49.33253" lon="-0.70363">
        <ele>33.874374</ele>
        <time>2022-08-04T09:31:08.000Z</time>
      </trkpt>
      <trkpt lat="49.33254" lon="-0.70358">
        <ele>33.99727</ele>
        <time>2022-08-04T09:31:09.000Z</time>
      </trkpt>
      <trkpt lat="49.33256" lon="-0.70353">
        <ele>34.114242</ele>
        <time>2022-08-04T09:31:10.000Z</time>
      </trkpt>
      <trkpt lat="49.33259" lon="-0.70347">
        <ele>34.245497</ele>
        <time>2022-08-04T09:31:11.000Z</time>
      </trkpt>
      <trkpt lat="49.33261" lon="-0.70342">
        <ele>34.36314</ele>
        <time>2022-08-04T09:31:12.000Z</time>
      </trkpt>
      <trkpt lat="49.33263" lon="-0.70337">
        <ele>34.482302</ele>
        <time>2022-08-04T09:31:13.000Z</time>
      </trkpt>
      <trkpt lat="49.33265" lon="-0.70333">
        <ele>34.594769</ele>
        <time>2022-08-04T09:31:14.000Z</time>
      </trkpt>
      <trkpt lat="49.33267" lon="-0.70328">
        <ele>34.714081</ele>
        <time>2022-08-04T09:31:15.000Z</time>
      </trkpt>
      <trkpt lat="49.33269" lon="-0.70323">
        <ele>34.82999</ele>
        <time>2022-08-04T09:31:16.000Z</time>
      </trkpt>
      <trkpt lat="49.33271" lon="-0.70318">
        <ele>34.950806</ele>
        <time>2022-08-04T09:31:17.000Z</time>
      </trkpt>
      <trkpt lat="49.33273" lon="-0.70313">
        <ele>35.071737</ele>
        <time>2022-08-04T09:31:18.000Z</time>
      </trkpt>
      <trkpt lat="49.33275" lon="-0.70308">
        <ele>35.187646</ele>
        <time>2022-08-04T09:31:19.000Z</time>
      </trkpt>
      <trkpt lat="49.33277" lon="-0.70303">
        <ele>35.301911</ele>
        <time>2022-08-04T09:31:20.000Z</time>
      </trkpt>
      <trkpt lat="49.33279" lon="-0.70298">
        <ele>35.417696</ele>
        <time>2022-08-04T09:31:21.000Z</time>
      </trkpt>
      <trkpt lat="49.33281" lon="-0.70294">
        <ele>35.530163</ele>
        <time>2022-08-04T09:31:22.000Z</time>
      </trkpt>
      <trkpt lat="49.33284" lon="-0.70289">
        <ele>35.647681</ele>
        <time>2022-08-04T09:31:23.000Z</time>
      </trkpt>
      <trkpt lat="49.33285" lon="-0.70284">
        <ele>35.763589</ele>
        <time>2022-08-04T09:31:24.000Z</time>
      </trkpt>
      <trkpt lat="49.33287" lon="-0.70279">
        <ele>35.881076</ele>
        <time>2022-08-04T09:31:25.000Z</time>
      </trkpt>
      <trkpt lat="49.33289" lon="-0.70274">
        <ele>35.992625</ele>
        <time>2022-08-04T09:31:26.000Z</time>
      </trkpt>
      <trkpt lat="49.33291" lon="-0.70269">
        <ele>36.105282</ele>
        <time>2022-08-04T09:31:27.000Z</time>
      </trkpt>
      <trkpt lat="49.33293" lon="-0.70265">
        <ele>36.216042</ele>
        <time>2022-08-04T09:31:28.000Z</time>
      </trkpt>
      <trkpt lat="49.33295" lon="-0.7026">
        <ele>36.324011</ele>
        <time>2022-08-04T09:31:29.000Z</time>
      </trkpt>
      <trkpt lat="49.33297" lon="-0.70255">
        <ele>36.439919</ele>
        <time>2022-08-04T09:31:30.000Z</time>
      </trkpt>
      <trkpt lat="49.33299" lon="-0.7025">
        <ele>36.555704</ele>
        <time>2022-08-04T09:31:31.000Z</time>
      </trkpt>
      <trkpt lat="49.33301" lon="-0.70245">
        <ele>36.671612</ele>
        <time>2022-08-04T09:31:32.000Z</time>
      </trkpt>
      <trkpt lat="49.33302" lon="-0.7024">
        <ele>36.780676</ele>
        <time>2022-08-04T09:31:33.000Z</time>
      </trkpt>
      <trkpt lat="49.33304" lon="-0.70235">
        <ele>36.894859</ele>
        <time>2022-08-04T09:31:34.000Z</time>
      </trkpt>
      <trkpt lat="49.33307" lon="-0.70231">
        <ele>37.009385</ele>
        <time>2022-08-04T09:31:35.000Z</time>
      </trkpt>
      <trkpt lat="49.33309" lon="-0.70227">
        <ele>37.110134</ele>
        <time>2022-08-04T09:31:36.000Z</time>
      </trkpt>
      <trkpt lat="49.3331" lon="-0.70222">
        <ele>37.215836</ele>
        <time>2022-08-04T09:31:37.000Z</time>
      </trkpt>
      <trkpt lat="49.33312" lon="-0.70218">
        <ele>37.328303</ele>
        <time>2022-08-04T09:31:38.000Z</time>
      </trkpt>
      <trkpt lat="49.33314" lon="-0.70213">
        <ele>37.446526</ele>
        <time>2022-08-04T09:31:39.000Z</time>
      </trkpt>
      <trkpt lat="49.33317" lon="-0.70208">
        <ele>37.575898</ele>
        <time>2022-08-04T09:31:40.000Z</time>
      </trkpt>
      <trkpt lat="49.33319" lon="-0.70204">
        <ele>37.69623</ele>
        <time>2022-08-04T09:31:41.000Z</time>
      </trkpt>
      <trkpt lat="49.33321" lon="-0.702">
        <ele>37.813646</ele>
        <time>2022-08-04T09:31:42.000Z</time>
      </trkpt>
      <trkpt lat="49.33323" lon="-0.70195">
        <ele>37.932255</ele>
        <time>2022-08-04T09:31:43.000Z</time>
      </trkpt>
      <trkpt lat="49.33325" lon="-0.70191">
        <ele>38.041204</ele>
        <time>2022-08-04T09:31:44.000Z</time>
      </trkpt>
      <trkpt lat="49.33327" lon="-0.70187">
        <ele>38.150154</ele>
        <time>2022-08-04T09:31:45.000Z</time>
      </trkpt>
      <trkpt lat="49.33329" lon="-0.70183">
        <ele>38.25346</ele>
        <time>2022-08-04T09:31:46.000Z</time>
      </trkpt>
      <trkpt lat="49.33331" lon="-0.70179">
        <ele>38.369742</ele>
        <time>2022-08-04T09:31:47.000Z</time>
      </trkpt>
      <trkpt lat="49.33333" lon="-0.70175">
        <ele>38.490073</ele>
        <time>2022-08-04T09:31:48.000Z</time>
      </trkpt>
      <trkpt lat="49.33335" lon="-0.70171">
        <ele>38.608681</ele>
        <time>2022-08-04T09:31:49.000Z</time>
      </trkpt>
      <trkpt lat="49.33337" lon="-0.70166">
        <ele>38.734083</ele>
        <time>2022-08-04T09:31:50.000Z</time>
      </trkpt>
      <trkpt lat="49.33339" lon="-0.70161">
        <ele>38.855822</ele>
        <time>2022-08-04T09:31:51.000Z</time>
      </trkpt>
      <trkpt lat="49.33341" lon="-0.70156">
        <ele>38.983195</ele>
        <time>2022-08-04T09:31:52.000Z</time>
      </trkpt>
      <trkpt lat="49.33343" lon="-0.70152">
        <ele>39.103069</ele>
        <time>2022-08-04T09:31:53.000Z</time>
      </trkpt>
      <trkpt lat="49.33345" lon="-0.70147">
        <ele>39.227224</ele>
        <time>2022-08-04T09:31:54.000Z</time>
      </trkpt>
      <trkpt lat="49.33347" lon="-0.70143">
        <ele>39.33796</ele>
        <time>2022-08-04T09:31:55.000Z</time>
      </trkpt>
      <trkpt lat="49.33349" lon="-0.70139">
        <ele>39.455981</ele>
        <time>2022-08-04T09:31:56.000Z</time>
      </trkpt>
      <trkpt lat="49.33351" lon="-0.70134">
        <ele>39.57772</ele>
        <time>2022-08-04T09:31:57.000Z</time>
      </trkpt>
      <trkpt lat="49.33353" lon="-0.7013">
        <ele>39.686708</ele>
        <time>2022-08-04T09:31:58.000Z</time>
      </trkpt>
      <trkpt lat="49.33355" lon="-0.70126">
        <ele>39.814216</ele>
        <time>2022-08-04T09:31:59.000Z</time>
      </trkpt>
      <trkpt lat="49.33357" lon="-0.70122">
        <ele>39.923165</ele>
        <time>2022-08-04T09:32:00.000Z</time>
      </trkpt>
      <trkpt lat="49.3336" lon="-0.70118">
        <ele>40.047518</ele>
        <time>2022-08-04T09:32:01.000Z</time>
      </trkpt>
      <trkpt lat="49.33362" lon="-0.70113">
        <ele>40.171342</ele>
        <time>2022-08-04T09:32:02.000Z</time>
      </trkpt>
      <trkpt lat="49.33364" lon="-0.70109">
        <ele>40.285693</ele>
        <time>2022-08-04T09:32:03.000Z</time>
      </trkpt>
      <trkpt lat="49.33366" lon="-0.70104">
        <ele>40.415065</ele>
        <time>2022-08-04T09:32:04.000Z</time>
      </trkpt>
      <trkpt lat="49.33368" lon="-0.701">
        <ele>40.518751</ele>
        <time>2022-08-04T09:32:05.000Z</time>
      </trkpt>
      <trkpt lat="49.3337" lon="-0.70096">
        <ele>40.6277</ele>
        <time>2022-08-04T09:32:06.000Z</time>
      </trkpt>
      <trkpt lat="49.33372" lon="-0.70092">
        <ele>40.742052</ele>
        <time>2022-08-04T09:32:07.000Z</time>
      </trkpt>
      <trkpt lat="49.33374" lon="-0.70087">
        <ele>40.871423</ele>
        <time>2022-08-04T09:32:08.000Z</time>
      </trkpt>
      <trkpt lat="49.33376" lon="-0.70083">
        <ele>40.990093</ele>
        <time>2022-08-04T09:32:09.000Z</time>
      </trkpt>
      <trkpt lat="49.33378" lon="-0.70078">
        <ele>41.111832</ele>
        <time>2022-08-04T09:32:10.000Z</time>
      </trkpt>
      <trkpt lat="49.3338" lon="-0.70074">
        <ele>41.226183</ele>
        <time>2022-08-04T09:32:11.000Z</time>
      </trkpt>
      <trkpt lat="49.33382" lon="-0.70069">
        <ele>41.348628</ele>
        <time>2022-08-04T09:32:12.000Z</time>
      </trkpt>
      <trkpt lat="49.33384" lon="-0.70065">
        <ele>41.470698</ele>
        <time>2022-08-04T09:32:13.000Z</time>
      </trkpt>
      <trkpt lat="49.33386" lon="-0.7006">
        <ele>41.583529</ele>
        <time>2022-08-04T09:32:14.000Z</time>
      </trkpt>
      <trkpt lat="49.33387" lon="-0.70056">
        <ele>41.691873</ele>
        <time>2022-08-04T09:32:15.000Z</time>
      </trkpt>
      <trkpt lat="49.33389" lon="-0.70051">
        <ele>41.804705</ele>
        <time>2022-08-04T09:32:16.000Z</time>
      </trkpt>
      <trkpt lat="49.3339" lon="-0.70047">
        <ele>41.928319</ele>
        <time>2022-08-04T09:32:17.000Z</time>
      </trkpt>
      <trkpt lat="49.33393" lon="-0.70042">
        <ele>42.05569</ele>
        <time>2022-08-04T09:32:18.000Z</time>
      </trkpt>
      <trkpt lat="49.33395" lon="-0.70038">
        <ele>42.174766</ele>
        <time>2022-08-04T09:32:19.000Z</time>
      </trkpt>
      <trkpt lat="49.33397" lon="-0.70033">
        <ele>42.308302</ele>
        <time>2022-08-04T09:32:20.000Z</time>
      </trkpt>
      <trkpt lat="49.334" lon="-0.70028">
        <ele>42.437673</ele>
        <time>2022-08-04T09:32:21.000Z</time>
      </trkpt>
      <trkpt lat="49.33402" lon="-0.70024">
        <ele>42.563264</ele>
        <time>2022-08-04T09:32:22.000Z</time>
      </trkpt>
      <trkpt lat="49.33404" lon="-0.70019">
        <ele>42.696181</ele>
        <time>2022-08-04T09:32:23.000Z</time>
      </trkpt>
      <trkpt lat="49.33406" lon="-0.70014">
        <ele>42.821771</ele>
        <time>2022-08-04T09:32:24.000Z</time>
      </trkpt>
      <trkpt lat="49.33409" lon="-0.70009">
        <ele>42.954561</ele>
        <time>2022-08-04T09:32:25.000Z</time>
      </trkpt>
      <trkpt lat="49.33411" lon="-0.70004">
        <ele>43.087478</ele>
        <time>2022-08-04T09:32:26.000Z</time>
      </trkpt>
      <trkpt lat="49.33413" lon="-0.7">
        <ele>43.207351</ele>
        <time>2022-08-04T09:32:27.000Z</time>
      </trkpt>
      <trkpt lat="49.33415" lon="-0.69995">
        <ele>43.338085</ele>
        <time>2022-08-04T09:32:28.000Z</time>
      </trkpt>
      <trkpt lat="49.33417" lon="-0.69991">
        <ele>43.447033</ele>
        <time>2022-08-04T09:32:29.000Z</time>
      </trkpt>
      <trkpt lat="49.33419" lon="-0.69986">
        <ele>43.511481</ele>
        <time>2022-08-04T09:32:30.000Z</time>
      </trkpt>
      <trkpt lat="49.33421" lon="-0.69981">
        <ele>43.53826</ele>
        <time>2022-08-04T09:32:31.000Z</time>
      </trkpt>
      <trkpt lat="49.33423" lon="-0.69976">
        <ele>43.565039</ele>
        <time>2022-08-04T09:32:32.000Z</time>
      </trkpt>
      <trkpt lat="49.33425" lon="-0.69971">
        <ele>43.594838</ele>
        <time>2022-08-04T09:32:33.000Z</time>
      </trkpt>
      <trkpt lat="49.33427" lon="-0.69965">
        <ele>43.62201</ele>
        <time>2022-08-04T09:32:34.000Z</time>
      </trkpt>
      <trkpt lat="49.33429" lon="-0.6996">
        <ele>43.650616</ele>
        <time>2022-08-04T09:32:35.000Z</time>
      </trkpt>
      <trkpt lat="49.33431" lon="-0.69955">
        <ele>43.677353</ele>
        <time>2022-08-04T09:32:36.000Z</time>
      </trkpt>
      <trkpt lat="49.33433" lon="-0.6995">
        <ele>43.703352</ele>
        <time>2022-08-04T09:32:37.000Z</time>
      </trkpt>
      <trkpt lat="49.33436" lon="-0.69945">
        <ele>43.730452</ele>
        <time>2022-08-04T09:32:38.000Z</time>
      </trkpt>
      <trkpt lat="49.33437" lon="-0.6994">
        <ele>43.756451</ele>
        <time>2022-08-04T09:32:39.000Z</time>
      </trkpt>
      <trkpt lat="49.33439" lon="-0.69935">
        <ele>43.780632</ele>
        <time>2022-08-04T09:32:40.000Z</time>
      </trkpt>
      <trkpt lat="49.3344" lon="-0.6993">
        <ele>43.805653</ele>
        <time>2022-08-04T09:32:41.000Z</time>
      </trkpt>
      <trkpt lat="49.33442" lon="-0.69925">
        <ele>43.831652</ele>
        <time>2022-08-04T09:32:42.000Z</time>
      </trkpt>
      <trkpt lat="49.33444" lon="-0.6992">
        <ele>43.856119</ele>
        <time>2022-08-04T09:32:43.000Z</time>
      </trkpt>
      <trkpt lat="49.33446" lon="-0.69916">
        <ele>43.880325</ele>
        <time>2022-08-04T09:32:44.000Z</time>
      </trkpt>
      <trkpt lat="49.33448" lon="-0.69912">
        <ele>43.903291</ele>
        <time>2022-08-04T09:32:45.000Z</time>
      </trkpt>
      <trkpt lat="49.3345" lon="-0.69908">
        <ele>43.92589</ele>
        <time>2022-08-04T09:32:46.000Z</time>
      </trkpt>
      <trkpt lat="49.33452" lon="-0.69904">
        <ele>43.946775</ele>
        <time>2022-08-04T09:32:47.000Z</time>
      </trkpt>
      <trkpt lat="49.33452" lon="-0.699">
        <ele>43.965379</ele>
        <time>2022-08-04T09:32:48.000Z</time>
      </trkpt>
      <trkpt lat="49.33453" lon="-0.69896">
        <ele>43.983944</ele>
        <time>2022-08-04T09:32:49.000Z</time>
      </trkpt>
      <trkpt lat="49.33455" lon="-0.69893">
        <ele>44.001357</ele>
        <time>2022-08-04T09:32:50.000Z</time>
      </trkpt>
      <trkpt lat="49.33457" lon="-0.69889">
        <ele>44.022267</ele>
        <time>2022-08-04T09:32:51.000Z</time>
      </trkpt>
      <trkpt lat="49.33458" lon="-0.69886">
        <ele>44.040431</ele>
        <time>2022-08-04T09:32:52.000Z</time>
      </trkpt>
      <trkpt lat="49.3346" lon="-0.69882">
        <ele>44.061132</ele>
        <time>2022-08-04T09:32:53.000Z</time>
      </trkpt>
      <trkpt lat="49.33462" lon="-0.69878">
        <ele>44.084137</ele>
        <time>2022-08-04T09:32:54.000Z</time>
      </trkpt>
      <trkpt lat="49.33464" lon="-0.69874">
        <ele>44.107307</ele>
        <time>2022-08-04T09:32:55.000Z</time>
      </trkpt>
      <trkpt lat="49.33466" lon="-0.6987">
        <ele>44.129906</ele>
        <time>2022-08-04T09:32:56.000Z</time>
      </trkpt>
      <trkpt lat="49.33468" lon="-0.69865">
        <ele>44.153615</ele>
        <time>2022-08-04T09:32:57.000Z</time>
      </trkpt>
      <trkpt lat="49.3347" lon="-0.69861">
        <ele>44.177916</ele>
        <time>2022-08-04T09:32:58.000Z</time>
      </trkpt>
      <trkpt lat="49.33473" lon="-0.69857">
        <ele>44.206027</ele>
        <time>2022-08-04T09:32:59.000Z</time>
      </trkpt>
      <trkpt lat="49.33476" lon="-0.69852">
        <ele>44.237829</ele>
        <time>2022-08-04T09:33:00.000Z</time>
      </trkpt>
      <trkpt lat="49.33478" lon="-0.69848">
        <ele>44.262034</ele>
        <time>2022-08-04T09:33:01.000Z</time>
      </trkpt>
      <trkpt lat="49.33481" lon="-0.69844">
        <ele>44.288912</ele>
        <time>2022-08-04T09:33:02.000Z</time>
      </trkpt>
      <trkpt lat="49.33484" lon="-0.6984">
        <ele>44.312239</ele>
        <time>2022-08-04T09:33:03.000Z</time>
      </trkpt>
      <trkpt lat="49.33487" lon="-0.69837">
        <ele>44.341144</ele>
        <time>2022-08-04T09:33:04.000Z</time>
      </trkpt>
      <trkpt lat="49.3349" lon="-0.69833">
        <ele>44.365756</ele>
        <time>2022-08-04T09:33:05.000Z</time>
      </trkpt>
      <trkpt lat="49.33493" lon="-0.6983">
        <ele>44.388179</ele>
        <time>2022-08-04T09:33:06.000Z</time>
      </trkpt>
      <trkpt lat="49.33496" lon="-0.69827">
        <ele>44.41553</ele>
        <time>2022-08-04T09:33:07.000Z</time>
      </trkpt>
      <trkpt lat="49.335" lon="-0.69822">
        <ele>44.449172</ele>
        <time>2022-08-04T09:33:08.000Z</time>
      </trkpt>
      <trkpt lat="49.33503" lon="-0.69818">
        <ele>44.477622</ele>
        <time>2022-08-04T09:33:09.000Z</time>
      </trkpt>
      <trkpt lat="49.33506" lon="-0.69814">
        <ele>44.5045</ele>
        <time>2022-08-04T09:33:10.000Z</time>
      </trkpt>
      <trkpt lat="49.33509" lon="-0.6981">
        <ele>44.53239</ele>
        <time>2022-08-04T09:33:11.000Z</time>
      </trkpt>
      <trkpt lat="49.33512" lon="-0.69807">
        <ele>44.555365</ele>
        <time>2022-08-04T09:33:12.000Z</time>
      </trkpt>
      <trkpt lat="49.33515" lon="-0.69803">
        <ele>44.582983</ele>
        <time>2022-08-04T09:33:13.000Z</time>
      </trkpt>
      <trkpt lat="49.33518" lon="-0.69799">
        <ele>44.609861</ele>
        <time>2022-08-04T09:33:14.000Z</time>
      </trkpt>
      <trkpt lat="49.33521" lon="-0.69796">
        <ele>44.637211</ele>
        <time>2022-08-04T09:33:15.000Z</time>
      </trkpt>
      <trkpt lat="49.33525" lon="-0.69791">
        <ele>44.670025</ele>
        <time>2022-08-04T09:33:16.000Z</time>
      </trkpt>
      <trkpt lat="49.33527" lon="-0.69788">
        <ele>44.690312</ele>
        <time>2022-08-04T09:33:17.000Z</time>
      </trkpt>
      <trkpt lat="49.3353" lon="-0.69785">
        <ele>44.716023</ele>
        <time>2022-08-04T09:33:18.000Z</time>
      </trkpt>
      <trkpt lat="49.33533" lon="-0.69781">
        <ele>44.775562</ele>
        <time>2022-08-04T09:33:19.000Z</time>
      </trkpt>
      <trkpt lat="49.33535" lon="-0.69777">
        <ele>44.919165</ele>
        <time>2022-08-04T09:33:20.000Z</time>
      </trkpt>
      <trkpt lat="49.33538" lon="-0.69773">
        <ele>45.05221</ele>
        <time>2022-08-04T09:33:21.000Z</time>
      </trkpt>
      <trkpt lat="49.3354" lon="-0.69769">
        <ele>45.178025</ele>
        <time>2022-08-04T09:33:22.000Z</time>
      </trkpt>
      <trkpt lat="49.33541" lon="-0.69765">
        <ele>45.307982</ele>
        <time>2022-08-04T09:33:23.000Z</time>
      </trkpt>
      <trkpt lat="49.33543" lon="-0.6976">
        <ele>45.442263</ele>
        <time>2022-08-04T09:33:24.000Z</time>
      </trkpt>
      <trkpt lat="49.33545" lon="-0.69756">
        <ele>45.558828</ele>
        <time>2022-08-04T09:33:25.000Z</time>
      </trkpt>
      <trkpt lat="49.33546" lon="-0.69752">
        <ele>45.677013</ele>
        <time>2022-08-04T09:33:26.000Z</time>
      </trkpt>
      <trkpt lat="49.33548" lon="-0.69748">
        <ele>45.792008</ele>
        <time>2022-08-04T09:33:27.000Z</time>
      </trkpt>
      <trkpt lat="49.33549" lon="-0.69744">
        <ele>45.907003</ele>
        <time>2022-08-04T09:33:28.000Z</time>
      </trkpt>
      <trkpt lat="49.33551" lon="-0.6974">
        <ele>46.024142</ele>
        <time>2022-08-04T09:33:29.000Z</time>
      </trkpt>
      <trkpt lat="49.33552" lon="-0.69737">
        <ele>46.132812</ele>
        <time>2022-08-04T09:33:30.000Z</time>
      </trkpt>
      <trkpt lat="49.33553" lon="-0.69733">
        <ele>46.229949</ele>
        <time>2022-08-04T09:33:31.000Z</time>
      </trkpt>
      <trkpt lat="49.33555" lon="-0.6973">
        <ele>46.330465</ele>
        <time>2022-08-04T09:33:32.000Z</time>
      </trkpt>
      <trkpt lat="49.33556" lon="-0.69727">
        <ele>46.423742</ele>
        <time>2022-08-04T09:33:33.000Z</time>
      </trkpt>
      <trkpt lat="49.33557" lon="-0.69724">
        <ele>46.522279</ele>
        <time>2022-08-04T09:33:34.000Z</time>
      </trkpt>
      <trkpt lat="49.33559" lon="-0.69721">
        <ele>46.613176</ele>
        <time>2022-08-04T09:33:35.000Z</time>
      </trkpt>
      <trkpt lat="49.3356" lon="-0.69719">
        <ele>46.698505</ele>
        <time>2022-08-04T09:33:36.000Z</time>
      </trkpt>
      <trkpt lat="49.33561" lon="-0.69716">
        <ele>46.777442</ele>
        <time>2022-08-04T09:33:37.000Z</time>
      </trkpt>
      <trkpt lat="49.33562" lon="-0.69712">
        <ele>46.879783</ele>
        <time>2022-08-04T09:33:39.000Z</time>
      </trkpt>
      <trkpt lat="49.33565" lon="-0.69704">
        <ele>47.126816</ele>
        <time>2022-08-04T09:34:03.000Z</time>
      </trkpt>
      <trkpt lat="49.33567" lon="-0.697">
        <ele>47.233415</ele>
        <time>2022-08-04T09:34:04.000Z</time>
      </trkpt>
      <trkpt lat="49.33568" lon="-0.69697">
        <ele>47.337964</ele>
        <time>2022-08-04T09:34:05.000Z</time>
      </trkpt>
      <trkpt lat="49.3357" lon="-0.69694">
        <ele>47.433811</ele>
        <time>2022-08-04T09:34:06.000Z</time>
      </trkpt>
      <trkpt lat="49.33571" lon="-0.6969">
        <ele>47.536209</ele>
        <time>2022-08-04T09:34:07.000Z</time>
      </trkpt>
      <trkpt lat="49.33572" lon="-0.69687">
        <ele>47.640823</ele>
        <time>2022-08-04T09:34:08.000Z</time>
      </trkpt>
      <trkpt lat="49.33573" lon="-0.69683">
        <ele>47.750446</ele>
        <time>2022-08-04T09:34:09.000Z</time>
      </trkpt>
      <trkpt lat="49.33575" lon="-0.69679">
        <ele>47.859116</ele>
        <time>2022-08-04T09:34:10.000Z</time>
      </trkpt>
      <trkpt lat="49.33576" lon="-0.69676">
        <ele>47.95713</ele>
        <time>2022-08-04T09:34:11.000Z</time>
      </trkpt>
      <trkpt lat="49.33577" lon="-0.69673">
        <ele>48.054266</ele>
        <time>2022-08-04T09:34:12.000Z</time>
      </trkpt>
      <trkpt lat="49.33579" lon="-0.69669">
        <ele>48.15228</ele>
        <time>2022-08-04T09:34:13.000Z</time>
      </trkpt>
      <trkpt lat="49.33579" lon="-0.69666">
        <ele>48.236916</ele>
        <time>2022-08-04T09:34:14.000Z</time>
      </trkpt>
      <trkpt lat="49.3358" lon="-0.69663">
        <ele>48.30904</ele>
        <time>2022-08-04T09:34:15.000Z</time>
      </trkpt>
      <trkpt lat="49.33581" lon="-0.6966">
        <ele>48.392435</ele>
        <time>2022-08-04T09:34:16.000Z</time>
      </trkpt>
      <trkpt lat="49.33581" lon="-0.69658">
        <ele>48.462542</ele>
        <time>2022-08-04T09:34:17.000Z</time>
      </trkpt>
      <trkpt lat="49.33583" lon="-0.69655">
        <ele>48.555303</ele>
        <time>2022-08-04T09:34:18.000Z</time>
      </trkpt>
      <trkpt lat="49.33584" lon="-0.69652">
        <ele>48.648064</ele>
        <time>2022-08-04T09:34:19.000Z</time>
      </trkpt>
      <trkpt lat="49.33586" lon="-0.6965">
        <ele>48.731362</ele>
        <time>2022-08-04T09:34:20.000Z</time>
      </trkpt>
      <trkpt lat="49.33588" lon="-0.69648">
        <ele>48.824202</ele>
        <time>2022-08-04T09:34:21.000Z</time>
      </trkpt>
      <trkpt lat="49.33589" lon="-0.69645">
        <ele>48.907999</ele>
        <time>2022-08-04T09:34:22.000Z</time>
      </trkpt>
      <trkpt lat="49.33591" lon="-0.69643">
        <ele>48.999331</ele>
        <time>2022-08-04T09:34:23.000Z</time>
      </trkpt>
      <trkpt lat="49.33593" lon="-0.69641">
        <ele>49.092444</ele>
        <time>2022-08-04T09:34:24.000Z</time>
      </trkpt>
      <trkpt lat="49.33595" lon="-0.69639">
        <ele>49.185285</ele>
        <time>2022-08-04T09:34:25.000Z</time>
      </trkpt>
      <trkpt lat="49.33597" lon="-0.69637">
        <ele>49.278125</ele>
        <time>2022-08-04T09:34:26.000Z</time>
      </trkpt>
      <trkpt lat="49.33599" lon="-0.69635">
        <ele>49.381959</ele>
        <time>2022-08-04T09:34:27.000Z</time>
      </trkpt>
      <trkpt lat="49.33601" lon="-0.69632">
        <ele>49.477942</ele>
        <time>2022-08-04T09:34:28.000Z</time>
      </trkpt>
      <trkpt lat="49.33603" lon="-0.6963">
        <ele>49.563456</ele>
        <time>2022-08-04T09:34:29.000Z</time>
      </trkpt>
      <trkpt lat="49.33605" lon="-0.69628">
        <ele>49.663196</ele>
        <time>2022-08-04T09:34:30.000Z</time>
      </trkpt>
      <trkpt lat="49.33607" lon="-0.69626">
        <ele>49.748984</ele>
        <time>2022-08-04T09:34:31.000Z</time>
      </trkpt>
      <trkpt lat="49.33609" lon="-0.69625">
        <ele>49.84969</ele>
        <time>2022-08-04T09:34:32.000Z</time>
      </trkpt>
      <trkpt lat="49.33611" lon="-0.69623">
        <ele>49.933034</ele>
        <time>2022-08-04T09:34:33.000Z</time>
      </trkpt>
      <trkpt lat="49.33613" lon="-0.69621">
        <ele>50.020129</ele>
        <time>2022-08-04T09:34:34.000Z</time>
      </trkpt>
      <trkpt lat="49.33615" lon="-0.69619">
        <ele>50.11297</ele>
        <time>2022-08-04T09:34:35.000Z</time>
      </trkpt>
      <trkpt lat="49.33617" lon="-0.69617">
        <ele>50.20581</ele>
        <time>2022-08-04T09:34:36.000Z</time>
      </trkpt>
      <trkpt lat="49.33618" lon="-0.69615">
        <ele>50.291323</ele>
        <time>2022-08-04T09:34:37.000Z</time>
      </trkpt>
      <trkpt lat="49.3362" lon="-0.69613">
        <ele>50.371816</ele>
        <time>2022-08-04T09:34:38.000Z</time>
      </trkpt>
      <trkpt lat="49.33621" lon="-0.69611">
        <ele>50.452309</ele>
        <time>2022-08-04T09:34:39.000Z</time>
      </trkpt>
      <trkpt lat="49.33623" lon="-0.69608">
        <ele>50.548292</ele>
        <time>2022-08-04T09:34:40.000Z</time>
      </trkpt>
      <trkpt lat="49.33626" lon="-0.69607">
        <ele>50.666705</ele>
        <time>2022-08-04T09:34:41.000Z</time>
      </trkpt>
      <trkpt lat="49.33629" lon="-0.69605">
        <ele>50.780148</ele>
        <time>2022-08-04T09:34:42.000Z</time>
      </trkpt>
      <trkpt lat="49.33631" lon="-0.69603">
        <ele>50.870018</ele>
        <time>2022-08-04T09:34:43.000Z</time>
      </trkpt>
      <trkpt lat="49.33633" lon="-0.696">
        <ele>50.975732</ele>
        <time>2022-08-04T09:34:44.000Z</time>
      </trkpt>
      <trkpt lat="49.33635" lon="-0.69598">
        <ele>51.076791</ele>
        <time>2022-08-04T09:34:45.000Z</time>
      </trkpt>
      <trkpt lat="49.33638" lon="-0.69596">
        <ele>51.199786</ele>
        <time>2022-08-04T09:34:46.000Z</time>
      </trkpt>
      <trkpt lat="49.3364" lon="-0.69595">
        <ele>51.291741</ele>
        <time>2022-08-04T09:34:47.000Z</time>
      </trkpt>
      <trkpt lat="49.33643" lon="-0.69595">
        <ele>51.381779</ele>
        <time>2022-08-04T09:34:48.000Z</time>
      </trkpt>
      <trkpt lat="49.33645" lon="-0.69596">
        <ele>51.481392</ele>
        <time>2022-08-04T09:34:49.000Z</time>
      </trkpt>
      <trkpt lat="49.33647" lon="-0.69597">
        <ele>51.568487</ele>
        <time>2022-08-04T09:34:50.000Z</time>
      </trkpt>
      <trkpt lat="49.33649" lon="-0.696">
        <ele>51.667518</ele>
        <time>2022-08-04T09:34:51.000Z</time>
      </trkpt>
      <trkpt lat="49.33651" lon="-0.69602">
        <ele>51.764113</ele>
        <time>2022-08-04T09:34:52.000Z</time>
      </trkpt>
      <trkpt lat="49.33653" lon="-0.69605">
        <ele>51.847065</ele>
        <time>2022-08-04T09:34:53.000Z</time>
      </trkpt>
      <trkpt lat="49.33654" lon="-0.69607">
        <ele>51.917293</ele>
        <time>2022-08-04T09:34:54.000Z</time>
      </trkpt>
      <trkpt lat="49.33656" lon="-0.6961">
        <ele>51.986112</ele>
        <time>2022-08-04T09:34:55.000Z</time>
      </trkpt>
      <trkpt lat="49.33659" lon="-0.69614">
        <ele>52.111653</ele>
        <time>2022-08-04T09:34:57.000Z</time>
      </trkpt>
      <trkpt lat="49.33661" lon="-0.69617">
        <ele>52.196037</ele>
        <time>2022-08-04T09:34:59.000Z</time>
      </trkpt>
      <trkpt lat="49.33663" lon="-0.69627">
        <ele>52.417665</ele>
        <time>2022-08-04T09:36:06.000Z</time>
      </trkpt>
      <trkpt lat="49.33666" lon="-0.69633">
        <ele>52.570269</ele>
        <time>2022-08-04T09:36:07.000Z</time>
      </trkpt>
      <trkpt lat="49.33669" lon="-0.69638">
        <ele>52.707086</ele>
        <time>2022-08-04T09:36:08.000Z</time>
      </trkpt>
      <trkpt lat="49.33671" lon="-0.69643">
        <ele>52.838259</ele>
        <time>2022-08-04T09:36:09.000Z</time>
      </trkpt>
      <trkpt lat="49.33673" lon="-0.69647">
        <ele>52.954384</ele>
        <time>2022-08-04T09:36:10.000Z</time>
      </trkpt>
      <trkpt lat="49.33676" lon="-0.69654">
        <ele>53.124436</ele>
        <time>2022-08-04T09:36:11.000Z</time>
      </trkpt>
      <trkpt lat="49.3368" lon="-0.6966">
        <ele>53.287921</ele>
        <time>2022-08-04T09:36:12.000Z</time>
      </trkpt>
      <trkpt lat="49.33682" lon="-0.69664">
        <ele>53.410419</ele>
        <time>2022-08-04T09:36:13.000Z</time>
      </trkpt>
      <trkpt lat="49.33685" lon="-0.69671">
        <ele>53.569624</ele>
        <time>2022-08-04T09:36:14.000Z</time>
      </trkpt>
      <trkpt lat="49.33686" lon="-0.69675">
        <ele>53.674803</ele>
        <time>2022-08-04T09:36:15.000Z</time>
      </trkpt>
      <trkpt lat="49.33689" lon="-0.69681">
        <ele>53.8165</ele>
        <time>2022-08-04T09:36:16.000Z</time>
      </trkpt>
      <trkpt lat="49.3369" lon="-0.69686">
        <ele>53.936537</ele>
        <time>2022-08-04T09:36:17.000Z</time>
      </trkpt>
      <trkpt lat="49.33691" lon="-0.6969">
        <ele>54.029053</ele>
        <time>2022-08-04T09:36:18.000Z</time>
      </trkpt>
      <trkpt lat="49.33693" lon="-0.69696">
        <ele>54.167326</ele>
        <time>2022-08-04T09:36:19.000Z</time>
      </trkpt>
      <trkpt lat="49.33696" lon="-0.69703">
        <ele>54.335514</ele>
        <time>2022-08-04T09:36:20.000Z</time>
      </trkpt>
      <trkpt lat="49.33698" lon="-0.69708">
        <ele>54.453667</ele>
        <time>2022-08-04T09:36:21.000Z</time>
      </trkpt>
      <trkpt lat="49.337" lon="-0.69713">
        <ele>54.583609</ele>
        <time>2022-08-04T09:36:22.000Z</time>
      </trkpt>
      <trkpt lat="49.33701" lon="-0.69719">
        <ele>54.702801</ele>
        <time>2022-08-04T09:36:23.000Z</time>
      </trkpt>
      <trkpt lat="49.33702" lon="-0.69723">
        <ele>54.803646</ele>
        <time>2022-08-04T09:36:24.000Z</time>
      </trkpt>
      <trkpt lat="49.33703" lon="-0.69729">
        <ele>54.940905</ele>
        <time>2022-08-04T09:36:25.000Z</time>
      </trkpt>
      <trkpt lat="49.33705" lon="-0.69735">
        <ele>55.056055</ele>
        <time>2022-08-04T09:36:26.000Z</time>
      </trkpt>
      <trkpt lat="49.33706" lon="-0.6974">
        <ele>55.168426</ele>
        <time>2022-08-04T09:36:27.000Z</time>
      </trkpt>
      <trkpt lat="49.33706" lon="-0.69744">
        <ele>55.252472</ele>
        <time>2022-08-04T09:36:28.000Z</time>
      </trkpt>
      <trkpt lat="49.33708" lon="-0.6975">
        <ele>55.39167</ele>
        <time>2022-08-04T09:36:29.000Z</time>
      </trkpt>
      <trkpt lat="49.33709" lon="-0.69755">
        <ele>55.498421</ele>
        <time>2022-08-04T09:36:30.000Z</time>
      </trkpt>
      <trkpt lat="49.33709" lon="-0.6976">
        <ele>55.606698</ele>
        <time>2022-08-04T09:36:31.000Z</time>
      </trkpt>
      <trkpt lat="49.3371" lon="-0.69765">
        <ele>55.713449</ele>
        <time>2022-08-04T09:36:32.000Z</time>
      </trkpt>
      <trkpt lat="49.3371" lon="-0.69769">
        <ele>55.79957</ele>
        <time>2022-08-04T09:36:33.000Z</time>
      </trkpt>
      <trkpt lat="49.33712" lon="-0.69775">
        <ele>55.938767</ele>
        <time>2022-08-04T09:36:34.000Z</time>
      </trkpt>
      <trkpt lat="49.33713" lon="-0.6978">
        <ele>56.044891</ele>
        <time>2022-08-04T09:36:35.000Z</time>
      </trkpt>
      <trkpt lat="49.33713" lon="-0.69785">
        <ele>56.157772</ele>
        <time>2022-08-04T09:36:36.000Z</time>
      </trkpt>
      <trkpt lat="49.33714" lon="-0.6979">
        <ele>56.247524</ele>
        <time>2022-08-04T09:36:37.000Z</time>
      </trkpt>
      <trkpt lat="49.33715" lon="-0.69796">
        <ele>56.385044</ele>
        <time>2022-08-04T09:36:38.000Z</time>
      </trkpt>
      <trkpt lat="49.33716" lon="-0.69802">
        <ele>56.509498</ele>
        <time>2022-08-04T09:36:39.000Z</time>
      </trkpt>
      <trkpt lat="49.33716" lon="-0.69807">
        <ele>56.618466</ele>
        <time>2022-08-04T09:36:40.000Z</time>
      </trkpt>
      <trkpt lat="49.33717" lon="-0.69816">
        <ele>56.807162</ele>
        <time>2022-08-04T09:36:41.000Z</time>
      </trkpt>
      <trkpt lat="49.33718" lon="-0.69822">
        <ele>56.936436</ele>
        <time>2022-08-04T09:36:42.000Z</time>
      </trkpt>
      <trkpt lat="49.3372" lon="-0.69831">
        <ele>57.135901</ele>
        <time>2022-08-04T09:36:43.000Z</time>
      </trkpt>
      <trkpt lat="49.33722" lon="-0.69839">
        <ele>57.316118</ele>
        <time>2022-08-04T09:36:44.000Z</time>
      </trkpt>
      <trkpt lat="49.33723" lon="-0.69848">
        <ele>57.5008</ele>
        <time>2022-08-04T09:36:45.000Z</time>
      </trkpt>
      <trkpt lat="49.33724" lon="-0.69855">
        <ele>57.587096</ele>
        <time>2022-08-04T09:36:46.000Z</time>
      </trkpt>
      <trkpt lat="49.33725" lon="-0.69865">
        <ele>57.710074</ele>
        <time>2022-08-04T09:36:47.000Z</time>
      </trkpt>
      <trkpt lat="49.33726" lon="-0.69874">
        <ele>57.811948</ele>
        <time>2022-08-04T09:36:48.000Z</time>
      </trkpt>
      <trkpt lat="49.33728" lon="-0.69883">
        <ele>57.914854</ele>
        <time>2022-08-04T09:36:49.000Z</time>
      </trkpt>
      <trkpt lat="49.33729" lon="-0.6989">
        <ele>58.001611</ele>
        <time>2022-08-04T09:36:50.000Z</time>
      </trkpt>
      <trkpt lat="49.33731" lon="-0.69901">
        <ele>58.129189</ele>
        <time>2022-08-04T09:36:51.000Z</time>
      </trkpt>
      <trkpt lat="49.33733" lon="-0.6991">
        <ele>58.234321</ele>
        <time>2022-08-04T09:36:52.000Z</time>
      </trkpt>
      <trkpt lat="49.33734" lon="-0.69919">
        <ele>58.344386</ele>
        <time>2022-08-04T09:36:53.000Z</time>
      </trkpt>
      <trkpt lat="49.33736" lon="-0.69928">
        <ele>58.448579</ele>
        <time>2022-08-04T09:36:54.000Z</time>
      </trkpt>
      <trkpt lat="49.33738" lon="-0.69937">
        <ele>58.555008</ele>
        <time>2022-08-04T09:36:55.000Z</time>
      </trkpt>
      <trkpt lat="49.33741" lon="-0.69945">
        <ele>58.659971</ele>
        <time>2022-08-04T09:36:56.000Z</time>
      </trkpt>
      <trkpt lat="49.33742" lon="-0.69954">
        <ele>58.762455</ele>
        <time>2022-08-04T09:36:57.000Z</time>
      </trkpt>
      <trkpt lat="49.33745" lon="-0.69962">
        <ele>58.869542</ele>
        <time>2022-08-04T09:36:58.000Z</time>
      </trkpt>
      <trkpt lat="49.33747" lon="-0.69969">
        <ele>58.951993</ele>
        <time>2022-08-04T09:36:59.000Z</time>
      </trkpt>
      <trkpt lat="49.33749" lon="-0.69979">
        <ele>59.07822</ele>
        <time>2022-08-04T09:37:00.000Z</time>
      </trkpt>
      <trkpt lat="49.33752" lon="-0.69987">
        <ele>59.181081</ele>
        <time>2022-08-04T09:37:01.000Z</time>
      </trkpt>
      <trkpt lat="49.33754" lon="-0.69996">
        <ele>59.285386</ele>
        <time>2022-08-04T09:37:02.000Z</time>
      </trkpt>
      <trkpt lat="49.33757" lon="-0.70004">
        <ele>59.392473</ele>
        <time>2022-08-04T09:37:03.000Z</time>
      </trkpt>
      <trkpt lat="49.33759" lon="-0.70013">
        <ele>59.498828</ele>
        <time>2022-08-04T09:37:04.000Z</time>
      </trkpt>
      <trkpt lat="49.33762" lon="-0.70021">
        <ele>59.605915</ele>
        <time>2022-08-04T09:37:05.000Z</time>
      </trkpt>
      <trkpt lat="49.33764" lon="-0.7003">
        <ele>59.71022</ele>
        <time>2022-08-04T09:37:06.000Z</time>
      </trkpt>
      <trkpt lat="49.33766" lon="-0.70039">
        <ele>59.817294</ele>
        <time>2022-08-04T09:37:07.000Z</time>
      </trkpt>
      <trkpt lat="49.33768" lon="-0.70045">
        <ele>59.898673</ele>
        <time>2022-08-04T09:37:08.000Z</time>
      </trkpt>
      <trkpt lat="49.3377" lon="-0.70054">
        <ele>60.000861</ele>
        <time>2022-08-04T09:37:09.000Z</time>
      </trkpt>
      <trkpt lat="49.33773" lon="-0.70062">
        <ele>60.108267</ele>
        <time>2022-08-04T09:37:10.000Z</time>
      </trkpt>
      <trkpt lat="49.33775" lon="-0.7007">
        <ele>60.214323</ele>
        <time>2022-08-04T09:37:11.000Z</time>
      </trkpt>
      <trkpt lat="49.33778" lon="-0.70078">
        <ele>60.314402</ele>
        <time>2022-08-04T09:37:12.000Z</time>
      </trkpt>
      <trkpt lat="49.3378" lon="-0.70087">
        <ele>60.413655</ele>
        <time>2022-08-04T09:37:13.000Z</time>
      </trkpt>
      <trkpt lat="49.33781" lon="-0.70095">
        <ele>60.513982</ele>
        <time>2022-08-04T09:37:14.000Z</time>
      </trkpt>
      <trkpt lat="49.33783" lon="-0.70104">
        <ele>60.617076</ele>
        <time>2022-08-04T09:37:15.000Z</time>
      </trkpt>
      <trkpt lat="49.33785" lon="-0.70112">
        <ele>60.674363</ele>
        <time>2022-08-04T09:37:16.000Z</time>
      </trkpt>
      <trkpt lat="49.33786" lon="-0.70121">
        <ele>60.696374</ele>
        <time>2022-08-04T09:37:17.000Z</time>
      </trkpt>
      <trkpt lat="49.33788" lon="-0.70129">
        <ele>60.718778</ele>
        <time>2022-08-04T09:37:18.000Z</time>
      </trkpt>
      <trkpt lat="49.3379" lon="-0.70138">
        <ele>60.741309</ele>
        <time>2022-08-04T09:37:19.000Z</time>
      </trkpt>
      <trkpt lat="49.33791" lon="-0.70147">
        <ele>60.763847</ele>
        <time>2022-08-04T09:37:20.000Z</time>
      </trkpt>
      <trkpt lat="49.33793" lon="-0.70156">
        <ele>60.787106</ele>
        <time>2022-08-04T09:37:21.000Z</time>
      </trkpt>
      <trkpt lat="49.33795" lon="-0.70165">
        <ele>60.810693</ele>
        <time>2022-08-04T09:37:22.000Z</time>
      </trkpt>
      <trkpt lat="49.33797" lon="-0.70175">
        <ele>60.838583</ele>
        <time>2022-08-04T09:37:23.000Z</time>
      </trkpt>
      <trkpt lat="49.33798" lon="-0.70183">
        <ele>60.857211</ele>
        <time>2022-08-04T09:37:24.000Z</time>
      </trkpt>
      <trkpt lat="49.33801" lon="-0.70193">
        <ele>60.885785</ele>
        <time>2022-08-04T09:37:25.000Z</time>
      </trkpt>
      <trkpt lat="49.33803" lon="-0.70203">
        <ele>60.909965</ele>
        <time>2022-08-04T09:37:26.000Z</time>
      </trkpt>
      <trkpt lat="49.33805" lon="-0.70212">
        <ele>60.934265</ele>
        <time>2022-08-04T09:37:27.000Z</time>
      </trkpt>
      <trkpt lat="49.33806" lon="-0.70219">
        <ele>60.953373</ele>
        <time>2022-08-04T09:37:28.000Z</time>
      </trkpt>
      <trkpt lat="49.33808" lon="-0.70228">
        <ele>60.977197</ele>
        <time>2022-08-04T09:37:29.000Z</time>
      </trkpt>
      <trkpt lat="49.33809" lon="-0.70238">
        <ele>61.000937</ele>
        <time>2022-08-04T09:37:30.000Z</time>
      </trkpt>
      <trkpt lat="49.33811" lon="-0.70247">
        <ele>61.024651</ele>
        <time>2022-08-04T09:37:31.000Z</time>
      </trkpt>
      <trkpt lat="49.33813" lon="-0.70256">
        <ele>61.048713</ele>
        <time>2022-08-04T09:37:32.000Z</time>
      </trkpt>
      <trkpt lat="49.33813" lon="-0.70265">
        <ele>61.072153</ele>
        <time>2022-08-04T09:37:33.000Z</time>
      </trkpt>
      <trkpt lat="49.33815" lon="-0.70275">
        <ele>61.096807</ele>
        <time>2022-08-04T09:37:34.000Z</time>
      </trkpt>
      <trkpt lat="49.33817" lon="-0.70284">
        <ele>61.121106</ele>
        <time>2022-08-04T09:37:35.000Z</time>
      </trkpt>
      <trkpt lat="49.33819" lon="-0.70294">
        <ele>61.14557</ele>
        <time>2022-08-04T09:37:36.000Z</time>
      </trkpt>
      <trkpt lat="49.33821" lon="-0.70303">
        <ele>61.169156</ele>
        <time>2022-08-04T09:37:37.000Z</time>
      </trkpt>
      <trkpt lat="49.33823" lon="-0.70312">
        <ele>61.193456</ele>
        <time>2022-08-04T09:37:38.000Z</time>
      </trkpt>
      <trkpt lat="49.33824" lon="-0.70321">
        <ele>61.217657</ele>
        <time>2022-08-04T09:37:39.000Z</time>
      </trkpt>
      <trkpt lat="49.33826" lon="-0.70331">
        <ele>61.242433</ele>
        <time>2022-08-04T09:37:40.000Z</time>
      </trkpt>
      <trkpt lat="49.33828" lon="-0.7034">
        <ele>61.267209</ele>
        <time>2022-08-04T09:37:41.000Z</time>
      </trkpt>
      <trkpt lat="49.3383" lon="-0.7035">
        <ele>61.291388</ele>
        <time>2022-08-04T09:37:42.000Z</time>
      </trkpt>
      <trkpt lat="49.33832" lon="-0.70359">
        <ele>61.315688</ele>
        <time>2022-08-04T09:37:43.000Z</time>
      </trkpt>
      <trkpt lat="49.33834" lon="-0.70368">
        <ele>61.340225</ele>
        <time>2022-08-04T09:37:44.000Z</time>
      </trkpt>
      <trkpt lat="49.33836" lon="-0.70379">
        <ele>61.277473</ele>
        <time>2022-08-04T09:37:45.000Z</time>
      </trkpt>
      <trkpt lat="49.33837" lon="-0.70389">
        <ele>61.187563</ele>
        <time>2022-08-04T09:37:46.000Z</time>
      </trkpt>
      <trkpt lat="49.33839" lon="-0.70397">
        <ele>61.101297</ele>
        <time>2022-08-04T09:37:47.000Z</time>
      </trkpt>
      <trkpt lat="49.3384" lon="-0.70406">
        <ele>61.020668</ele>
        <time>2022-08-04T09:37:48.000Z</time>
      </trkpt>
      <trkpt lat="49.33841" lon="-0.70414">
        <ele>60.941652</ele>
        <time>2022-08-04T09:37:49.000Z</time>
      </trkpt>
      <trkpt lat="49.33843" lon="-0.70422">
        <ele>60.865631</ele>
        <time>2022-08-04T09:37:50.000Z</time>
      </trkpt>
      <trkpt lat="49.33844" lon="-0.70429">
        <ele>60.791765</ele>
        <time>2022-08-04T09:37:51.000Z</time>
      </trkpt>
      <trkpt lat="49.33845" lon="-0.70437">
        <ele>60.717249</ele>
        <time>2022-08-04T09:37:52.000Z</time>
      </trkpt>
      <trkpt lat="49.33846" lon="-0.70444">
        <ele>60.647578</ele>
        <time>2022-08-04T09:37:53.000Z</time>
      </trkpt>
      <trkpt lat="49.33847" lon="-0.70452">
        <ele>60.574657</ele>
        <time>2022-08-04T09:37:54.000Z</time>
      </trkpt>
      <trkpt lat="49.33848" lon="-0.70459">
        <ele>60.504111</ele>
        <time>2022-08-04T09:37:55.000Z</time>
      </trkpt>
      <trkpt lat="49.3385" lon="-0.70466">
        <ele>60.432654</ele>
        <time>2022-08-04T09:37:56.000Z</time>
      </trkpt>
      <trkpt lat="49.33851" lon="-0.70474">
        <ele>60.358519</ele>
        <time>2022-08-04T09:37:57.000Z</time>
      </trkpt>
      <trkpt lat="49.33852" lon="-0.70481">
        <ele>60.284003</ele>
        <time>2022-08-04T09:37:58.000Z</time>
      </trkpt>
      <trkpt lat="49.33853" lon="-0.70489">
        <ele>60.211066</ele>
        <time>2022-08-04T09:37:59.000Z</time>
      </trkpt>
      <trkpt lat="49.33854" lon="-0.70496">
        <ele>60.139527</ele>
        <time>2022-08-04T09:38:00.000Z</time>
      </trkpt>
      <trkpt lat="49.33855" lon="-0.70504">
        <ele>60.067519</ele>
        <time>2022-08-04T09:38:01.000Z</time>
      </trkpt>
      <trkpt lat="49.33855" lon="-0.70512">
        <ele>59.994109</ele>
        <time>2022-08-04T09:38:02.000Z</time>
      </trkpt>
      <trkpt lat="49.33856" lon="-0.70519">
        <ele>59.921274</ele>
        <time>2022-08-04T09:38:03.000Z</time>
      </trkpt>
      <trkpt lat="49.33856" lon="-0.70527">
        <ele>59.848988</ele>
        <time>2022-08-04T09:38:04.000Z</time>
      </trkpt>
      <trkpt lat="49.33857" lon="-0.70535">
        <ele>59.773708</ele>
        <time>2022-08-04T09:38:05.000Z</time>
      </trkpt>
      <trkpt lat="49.33858" lon="-0.70543">
        <ele>59.699547</ele>
        <time>2022-08-04T09:38:06.000Z</time>
      </trkpt>
      <trkpt lat="49.33859" lon="-0.7055">
        <ele>59.62444</ele>
        <time>2022-08-04T09:38:07.000Z</time>
      </trkpt>
      <trkpt lat="49.3386" lon="-0.70558">
        <ele>59.552154</ele>
        <time>2022-08-04T09:38:08.000Z</time>
      </trkpt>
      <trkpt lat="49.33861" lon="-0.70566">
        <ele>59.477048</ele>
        <time>2022-08-04T09:38:09.000Z</time>
      </trkpt>
      <trkpt lat="49.33863" lon="-0.70573">
        <ele>59.40196</ele>
        <time>2022-08-04T09:38:10.000Z</time>
      </trkpt>
      <trkpt lat="49.33867" lon="-0.70578">
        <ele>59.32967</ele>
        <time>2022-08-04T09:38:11.000Z</time>
      </trkpt>
      <trkpt lat="49.3387" lon="-0.70582">
        <ele>59.265448</ele>
        <time>2022-08-04T09:38:12.000Z</time>
      </trkpt>
      <trkpt lat="49.33875" lon="-0.70583">
        <ele>59.20336</ele>
        <time>2022-08-04T09:38:13.000Z</time>
      </trkpt>
      <trkpt lat="49.33878" lon="-0.70582">
        <ele>59.147778</ele>
        <time>2022-08-04T09:38:14.000Z</time>
      </trkpt>
      <trkpt lat="49.33882" lon="-0.70581">
        <ele>59.09136</ele>
        <time>2022-08-04T09:38:15.000Z</time>
      </trkpt>
      <trkpt lat="49.33885" lon="-0.70579">
        <ele>59.051109</ele>
        <time>2022-08-04T09:38:16.000Z</time>
      </trkpt>
      <trkpt lat="49.33887" lon="-0.70578">
        <ele>59.020146</ele>
        <time>2022-08-04T09:38:17.000Z</time>
      </trkpt>
      <trkpt lat="49.33889" lon="-0.70576">
        <ele>58.987284</ele>
        <time>2022-08-04T09:38:19.000Z</time>
      </trkpt>
      <trkpt lat="49.33894" lon="-0.70572">
        <ele>58.899879</ele>
        <time>2022-08-04T09:38:59.000Z</time>
      </trkpt>
      <trkpt lat="49.33897" lon="-0.7057">
        <ele>58.849809</ele>
        <time>2022-08-04T09:39:00.000Z</time>
      </trkpt>
      <trkpt lat="49.33901" lon="-0.70568">
        <ele>58.795689</ele>
        <time>2022-08-04T09:39:01.000Z</time>
      </trkpt>
      <trkpt lat="49.33904" lon="-0.70566">
        <ele>58.746464</ele>
        <time>2022-08-04T09:39:02.000Z</time>
      </trkpt>
      <trkpt lat="49.33908" lon="-0.70563">
        <ele>58.825762</ele>
        <time>2022-08-04T09:39:03.000Z</time>
      </trkpt>
      <trkpt lat="49.33912" lon="-0.70561">
        <ele>58.902402</ele>
        <time>2022-08-04T09:39:04.000Z</time>
      </trkpt>
      <trkpt lat="49.33915" lon="-0.70559">
        <ele>58.967227</ele>
        <time>2022-08-04T09:39:05.000Z</time>
      </trkpt>
      <trkpt lat="49.3392" lon="-0.70556">
        <ele>59.064466</ele>
        <time>2022-08-04T09:39:06.000Z</time>
      </trkpt>
      <trkpt lat="49.33924" lon="-0.70554">
        <ele>59.142036</ele>
        <time>2022-08-04T09:39:07.000Z</time>
      </trkpt>
      <trkpt lat="49.33927" lon="-0.70551">
        <ele>59.207823</ele>
        <time>2022-08-04T09:39:08.000Z</time>
      </trkpt>
      <trkpt lat="49.33931" lon="-0.70549">
        <ele>59.290699</ele>
        <time>2022-08-04T09:39:09.000Z</time>
      </trkpt>
      <trkpt lat="49.33935" lon="-0.70547">
        <ele>59.366899</ele>
        <time>2022-08-04T09:39:10.000Z</time>
      </trkpt>
      <trkpt lat="49.33939" lon="-0.70545">
        <ele>59.444856</ele>
        <time>2022-08-04T09:39:11.000Z</time>
      </trkpt>
      <trkpt lat="49.33943" lon="-0.70543">
        <ele>59.520228</ele>
        <time>2022-08-04T09:39:12.000Z</time>
      </trkpt>
      <trkpt lat="49.33947" lon="-0.70541">
        <ele>59.598615</ele>
        <time>2022-08-04T09:39:13.000Z</time>
      </trkpt>
      <trkpt lat="49.3395" lon="-0.70538">
        <ele>59.676185</ele>
        <time>2022-08-04T09:39:14.000Z</time>
      </trkpt>
      <trkpt lat="49.33955" lon="-0.70536">
        <ele>59.759448</ele>
        <time>2022-08-04T09:39:15.000Z</time>
      </trkpt>
      <trkpt lat="49.33958" lon="-0.70534">
        <ele>59.83482</ele>
        <time>2022-08-04T09:39:16.000Z</time>
      </trkpt>
      <trkpt lat="49.33962" lon="-0.70532">
        <ele>59.910191</ele>
        <time>2022-08-04T09:39:17.000Z</time>
      </trkpt>
      <trkpt lat="49.33966" lon="-0.7053">
        <ele>59.987339</ele>
        <time>2022-08-04T09:39:18.000Z</time>
      </trkpt>
      <trkpt lat="49.3397" lon="-0.70528">
        <ele>60.056594</ele>
        <time>2022-08-04T09:39:19.000Z</time>
      </trkpt>
      <trkpt lat="49.33973" lon="-0.70527">
        <ele>60.13021</ele>
        <time>2022-08-04T09:39:20.000Z</time>
      </trkpt>
      <trkpt lat="49.33977" lon="-0.70525">
        <ele>60.206276</ele>
        <time>2022-08-04T09:39:21.000Z</time>
      </trkpt>
      <trkpt lat="49.33981" lon="-0.70523">
        <ele>60.269052</ele>
        <time>2022-08-04T09:39:22.000Z</time>
      </trkpt>
      <trkpt lat="49.33984" lon="-0.70522">
        <ele>60.336614</ele>
        <time>2022-08-04T09:39:23.000Z</time>
      </trkpt>
      <trkpt lat="49.33988" lon="-0.70521">
        <ele>60.404793</ele>
        <time>2022-08-04T09:39:24.000Z</time>
      </trkpt>
      <trkpt lat="49.33991" lon="-0.70519">
        <ele>60.466899</ele>
        <time>2022-08-04T09:39:25.000Z</time>
      </trkpt>
      <trkpt lat="49.33994" lon="-0.70518">
        <ele>60.53476</ele>
        <time>2022-08-04T09:39:26.000Z</time>
      </trkpt>
      <trkpt lat="49.33997" lon="-0.70517">
        <ele>60.596865</ele>
        <time>2022-08-04T09:39:27.000Z</time>
      </trkpt>
      <trkpt lat="49.34" lon="-0.70515">
        <ele>60.647805</ele>
        <time>2022-08-04T09:39:28.000Z</time>
      </trkpt>
      <trkpt lat="49.34003" lon="-0.70515">
        <ele>60.697556</ele>
        <time>2022-08-04T09:39:29.000Z</time>
      </trkpt>
      <trkpt lat="49.34005" lon="-0.70514">
        <ele>60.751493</ele>
        <time>2022-08-04T09:39:30.000Z</time>
      </trkpt>
      <trkpt lat="49.34008" lon="-0.70513">
        <ele>60.796344</ele>
        <time>2022-08-04T09:39:31.000Z</time>
      </trkpt>
      <trkpt lat="49.3401" lon="-0.70511">
        <ele>60.845489</ele>
        <time>2022-08-04T09:39:32.000Z</time>
      </trkpt>
      <trkpt lat="49.34013" lon="-0.7051">
        <ele>60.906759</ele>
        <time>2022-08-04T09:39:33.000Z</time>
      </trkpt>
      <trkpt lat="49.34016" lon="-0.7051">
        <ele>60.956511</ele>
        <time>2022-08-04T09:39:34.000Z</time>
      </trkpt>
      <trkpt lat="49.34018" lon="-0.70509">
        <ele>60.998665</ele>
        <time>2022-08-04T09:39:35.000Z</time>
      </trkpt>
      <trkpt lat="49.34021" lon="-0.70509">
        <ele>61.053198</ele>
        <time>2022-08-04T09:39:36.000Z</time>
      </trkpt>
      <trkpt lat="49.34024" lon="-0.70508">
        <ele>61.10204</ele>
        <time>2022-08-04T09:39:37.000Z</time>
      </trkpt>
      <trkpt lat="49.34026" lon="-0.70508">
        <ele>61.149954</ele>
        <time>2022-08-04T09:39:38.000Z</time>
      </trkpt>
      <trkpt lat="49.34028" lon="-0.70507">
        <ele>61.189419</ele>
        <time>2022-08-04T09:39:39.000Z</time>
      </trkpt>
      <trkpt lat="49.3403" lon="-0.70506">
        <ele>61.227104</ele>
        <time>2022-08-04T09:39:40.000Z</time>
      </trkpt>
      <trkpt lat="49.34032" lon="-0.70504">
        <ele>61.265652</ele>
        <time>2022-08-04T09:39:41.000Z</time>
      </trkpt>
      <trkpt lat="49.34034" lon="-0.70503">
        <ele>61.308701</ele>
        <time>2022-08-04T09:39:42.000Z</time>
      </trkpt>
      <trkpt lat="49.34037" lon="-0.70503">
        <ele>61.363982</ele>
        <time>2022-08-04T09:39:43.000Z</time>
      </trkpt>
      <trkpt lat="49.3404" lon="-0.70502">
        <ele>61.418734</ele>
        <time>2022-08-04T09:39:44.000Z</time>
      </trkpt>
      <trkpt lat="49.34044" lon="-0.70501">
        <ele>61.485529</ele>
        <time>2022-08-04T09:39:45.000Z</time>
      </trkpt>
      <trkpt lat="49.34047" lon="-0.705">
        <ele>61.553092</ele>
        <time>2022-08-04T09:39:46.000Z</time>
      </trkpt>
      <trkpt lat="49.3405" lon="-0.70499">
        <ele>61.608858</ele>
        <time>2022-08-04T09:39:47.000Z</time>
      </trkpt>
      <trkpt lat="49.34053" lon="-0.70498">
        <ele>61.676143</ele>
        <time>2022-08-04T09:39:48.000Z</time>
      </trkpt>
      <trkpt lat="49.34057" lon="-0.70497">
        <ele>61.74439</ele>
        <time>2022-08-04T09:39:49.000Z</time>
      </trkpt>
      <trkpt lat="49.34061" lon="-0.70496">
        <ele>61.816197</ele>
        <time>2022-08-04T09:39:50.000Z</time>
      </trkpt>
      <trkpt lat="49.34064" lon="-0.70495">
        <ele>61.877467</ele>
        <time>2022-08-04T09:39:51.000Z</time>
      </trkpt>
      <trkpt lat="49.34067" lon="-0.70494">
        <ele>61.938737</ele>
        <time>2022-08-04T09:39:52.000Z</time>
      </trkpt>
      <trkpt lat="49.34071" lon="-0.70493">
        <ele>62.005128</ele>
        <time>2022-08-04T09:39:53.000Z</time>
      </trkpt>
      <trkpt lat="49.34074" lon="-0.70493">
        <ele>62.065773</ele>
        <time>2022-08-04T09:39:54.000Z</time>
      </trkpt>
      <trkpt lat="49.34077" lon="-0.70492">
        <ele>62.133538</ele>
        <time>2022-08-04T09:39:55.000Z</time>
      </trkpt>
      <trkpt lat="49.34081" lon="-0.70491">
        <ele>62.201521</ele>
        <time>2022-08-04T09:39:56.000Z</time>
      </trkpt>
      <trkpt lat="49.34084" lon="-0.7049">
        <ele>62.262439</ele>
        <time>2022-08-04T09:39:57.000Z</time>
      </trkpt>
      <trkpt lat="49.34087" lon="-0.7049">
        <ele>62.335916</ele>
        <time>2022-08-04T09:39:58.000Z</time>
      </trkpt>
      <trkpt lat="49.3409" lon="-0.70489">
        <ele>62.396667</ele>
        <time>2022-08-04T09:39:59.000Z</time>
      </trkpt>
      <trkpt lat="49.34093" lon="-0.70488">
        <ele>62.464162</ele>
        <time>2022-08-04T09:40:00.000Z</time>
      </trkpt>
      <trkpt lat="49.34096" lon="-0.70488">
        <ele>62.524777</ele>
        <time>2022-08-04T09:40:01.000Z</time>
      </trkpt>
      <trkpt lat="49.341" lon="-0.70488">
        <ele>62.597752</ele>
        <time>2022-08-04T09:40:02.000Z</time>
      </trkpt>
      <trkpt lat="49.34103" lon="-0.70487">
        <ele>62.670727</ele>
        <time>2022-08-04T09:40:03.000Z</time>
      </trkpt>
      <trkpt lat="49.34106" lon="-0.70487">
        <ele>62.731841</ele>
        <time>2022-08-04T09:40:04.000Z</time>
      </trkpt>
      <trkpt lat="49.34109" lon="-0.70486">
        <ele>62.799335</ele>
        <time>2022-08-04T09:40:05.000Z</time>
      </trkpt>
      <trkpt lat="49.34112" lon="-0.70485">
        <ele>62.866625</ele>
        <time>2022-08-04T09:40:06.000Z</time>
      </trkpt>
      <trkpt lat="49.34115" lon="-0.70485">
        <ele>62.927376</ele>
        <time>2022-08-04T09:40:07.000Z</time>
      </trkpt>
      <trkpt lat="49.34118" lon="-0.70484">
        <ele>62.981654</ele>
        <time>2022-08-04T09:40:08.000Z</time>
      </trkpt>
      <trkpt lat="49.34121" lon="-0.70484">
        <ele>63.040007</ele>
        <time>2022-08-04T09:40:09.000Z</time>
      </trkpt>
      <trkpt lat="49.34124" lon="-0.70484">
        <ele>63.100439</ele>
        <time>2022-08-04T09:40:10.000Z</time>
      </trkpt>
      <trkpt lat="49.34127" lon="-0.70484">
        <ele>63.167111</ele>
        <time>2022-08-04T09:40:11.000Z</time>
      </trkpt>
      <trkpt lat="49.34129" lon="-0.70483">
        <ele>63.222063</ele>
        <time>2022-08-04T09:40:12.000Z</time>
      </trkpt>
      <trkpt lat="49.34132" lon="-0.70483">
        <ele>63.282981</ele>
        <time>2022-08-04T09:40:13.000Z</time>
      </trkpt>
      <trkpt lat="49.34135" lon="-0.70482">
        <ele>63.335465</ele>
        <time>2022-08-04T09:40:14.000Z</time>
      </trkpt>
      <trkpt lat="49.34137" lon="-0.70482">
        <ele>63.390014</ele>
        <time>2022-08-04T09:40:15.000Z</time>
      </trkpt>
      <trkpt lat="49.34141" lon="-0.70481">
        <ele>63.45859</ele>
        <time>2022-08-04T09:40:16.000Z</time>
      </trkpt>
      <trkpt lat="49.34143" lon="-0.70479">
        <ele>63.51312</ele>
        <time>2022-08-04T09:40:17.000Z</time>
      </trkpt>
      <trkpt lat="49.34146" lon="-0.70479">
        <ele>63.580615</ele>
        <time>2022-08-04T09:40:18.000Z</time>
      </trkpt>
      <trkpt lat="49.34149" lon="-0.70478">
        <ele>63.635164</ele>
        <time>2022-08-04T09:40:19.000Z</time>
      </trkpt>
      <trkpt lat="49.34152" lon="-0.70477">
        <ele>63.703147</ele>
        <time>2022-08-04T09:40:20.000Z</time>
      </trkpt>
      <trkpt lat="49.34155" lon="-0.70476">
        <ele>63.758099</ele>
        <time>2022-08-04T09:40:21.000Z</time>
      </trkpt>
      <trkpt lat="49.34157" lon="-0.70476">
        <ele>63.810584</ele>
        <time>2022-08-04T09:40:22.000Z</time>
      </trkpt>
      <trkpt lat="49.3416" lon="-0.70475">
        <ele>63.871501</ele>
        <time>2022-08-04T09:40:23.000Z</time>
      </trkpt>
      <trkpt lat="49.34164" lon="-0.70473">
        <ele>63.963047</ele>
        <time>2022-08-04T09:40:25.000Z</time>
      </trkpt>
      <trkpt lat="49.34167" lon="-0.70472">
        <ele>64.024351</ele>
        <time>2022-08-04T09:40:26.000Z</time>
      </trkpt>
      <trkpt lat="49.3417" lon="-0.7047">
        <ele>64.094414</ele>
        <time>2022-08-04T09:40:27.000Z</time>
      </trkpt>
      <trkpt lat="49.34173" lon="-0.70469">
        <ele>64.150934</ele>
        <time>2022-08-04T09:40:28.000Z</time>
      </trkpt>
      <trkpt lat="49.34177" lon="-0.70468">
        <ele>64.239414</ele>
        <time>2022-08-04T09:40:29.000Z</time>
      </trkpt>
      <trkpt lat="49.34181" lon="-0.70467">
        <ele>64.319262</ele>
        <time>2022-08-04T09:40:30.000Z</time>
      </trkpt>
      <trkpt lat="49.34185" lon="-0.70467">
        <ele>64.406959</ele>
        <time>2022-08-04T09:40:31.000Z</time>
      </trkpt>
      <trkpt lat="49.34189" lon="-0.70465">
        <ele>64.48864</ele>
        <time>2022-08-04T09:40:32.000Z</time>
      </trkpt>
      <trkpt lat="49.34192" lon="-0.70464">
        <ele>64.565063</ele>
        <time>2022-08-04T09:40:33.000Z</time>
      </trkpt>
      <trkpt lat="49.34195" lon="-0.70462">
        <ele>64.629688</ele>
        <time>2022-08-04T09:40:34.000Z</time>
      </trkpt>
      <trkpt lat="49.342" lon="-0.70461">
        <ele>64.725013</ele>
        <time>2022-08-04T09:40:35.000Z</time>
      </trkpt>
      <trkpt lat="49.34203" lon="-0.70459">
        <ele>64.787539</ele>
        <time>2022-08-04T09:40:36.000Z</time>
      </trkpt>
      <trkpt lat="49.34206" lon="-0.70458">
        <ele>64.863565</ele>
        <time>2022-08-04T09:40:37.000Z</time>
      </trkpt>
      <trkpt lat="49.34209" lon="-0.70457">
        <ele>64.926091</ele>
        <time>2022-08-04T09:40:38.000Z</time>
      </trkpt>
      <trkpt lat="49.34213" lon="-0.70455">
        <ele>65.007773</ele>
        <time>2022-08-04T09:40:39.000Z</time>
      </trkpt>
      <trkpt lat="49.34216" lon="-0.70454">
        <ele>65.076684</ele>
        <time>2022-08-04T09:40:40.000Z</time>
      </trkpt>
      <trkpt lat="49.34219" lon="-0.70452">
        <ele>65.140391</ele>
        <time>2022-08-04T09:40:41.000Z</time>
      </trkpt>
      <trkpt lat="49.34221" lon="-0.7045">
        <ele>65.192942</ele>
        <time>2022-08-04T09:40:42.000Z</time>
      </trkpt>
      <trkpt lat="49.34224" lon="-0.70449">
        <ele>65.249868</ele>
        <time>2022-08-04T09:40:43.000Z</time>
      </trkpt>
      <trkpt lat="49.34226" lon="-0.70448">
        <ele>65.297633</ele>
        <time>2022-08-04T09:40:44.000Z</time>
      </trkpt>
      <trkpt lat="49.34228" lon="-0.70448">
        <ele>65.337395</ele>
        <time>2022-08-04T09:40:45.000Z</time>
      </trkpt>
      <trkpt lat="49.3423" lon="-0.70447">
        <ele>65.380783</ele>
        <time>2022-08-04T09:40:46.000Z</time>
      </trkpt>
      <trkpt lat="49.34233" lon="-0.70445">
        <ele>65.443979</ele>
        <time>2022-08-04T09:40:48.000Z</time>
      </trkpt>
      <trkpt lat="49.34235" lon="-0.70444">
        <ele>65.496003</ele>
        <time>2022-08-04T09:40:50.000Z</time>
      </trkpt>
      <trkpt lat="49.34243" lon="-0.70443">
        <ele>65.656351</ele>
        <time>2022-08-04T09:42:15.000Z</time>
      </trkpt>
      <trkpt lat="49.34246" lon="-0.70442">
        <ele>65.732</ele>
        <time>2022-08-04T09:42:16.000Z</time>
      </trkpt>
      <trkpt lat="49.3425" lon="-0.7044">
        <ele>65.807295</ele>
        <time>2022-08-04T09:42:17.000Z</time>
      </trkpt>
      <trkpt lat="49.34253" lon="-0.70439">
        <ele>65.848383</ele>
        <time>2022-08-04T09:42:18.000Z</time>
      </trkpt>
      <trkpt lat="49.34257" lon="-0.70438">
        <ele>65.767598</ele>
        <time>2022-08-04T09:42:19.000Z</time>
      </trkpt>
      <trkpt lat="49.34261" lon="-0.70437">
        <ele>65.685062</ele>
        <time>2022-08-04T09:42:20.000Z</time>
      </trkpt>
      <trkpt lat="49.34265" lon="-0.70436">
        <ele>65.599302</ele>
        <time>2022-08-04T09:42:21.000Z</time>
      </trkpt>
      <trkpt lat="49.34269" lon="-0.70435">
        <ele>65.511639</ele>
        <time>2022-08-04T09:42:22.000Z</time>
      </trkpt>
      <trkpt lat="49.34273" lon="-0.70435">
        <ele>65.41802</ele>
        <time>2022-08-04T09:42:23.000Z</time>
      </trkpt>
      <trkpt lat="49.34277" lon="-0.70434">
        <ele>65.33888</ele>
        <time>2022-08-04T09:42:24.000Z</time>
      </trkpt>
      <trkpt lat="49.34281" lon="-0.70434">
        <ele>65.25173</ele>
        <time>2022-08-04T09:42:25.000Z</time>
      </trkpt>
      <trkpt lat="49.34285" lon="-0.70434">
        <ele>65.166612</ele>
        <time>2022-08-04T09:42:26.000Z</time>
      </trkpt>
      <trkpt lat="49.3429" lon="-0.70433">
        <ele>65.078202</ele>
        <time>2022-08-04T09:42:27.000Z</time>
      </trkpt>
      <trkpt lat="49.34293" lon="-0.7043">
        <ele>64.992413</ele>
        <time>2022-08-04T09:42:28.000Z</time>
      </trkpt>
      <trkpt lat="49.34296" lon="-0.70426">
        <ele>64.906843</ele>
        <time>2022-08-04T09:42:29.000Z</time>
      </trkpt>
      <trkpt lat="49.34298" lon="-0.7042">
        <ele>64.820284</ele>
        <time>2022-08-04T09:42:30.000Z</time>
      </trkpt>
      <trkpt lat="49.34299" lon="-0.70414">
        <ele>64.729992</ele>
        <time>2022-08-04T09:42:31.000Z</time>
      </trkpt>
      <trkpt lat="49.34299" lon="-0.70407">
        <ele>64.638561</ele>
        <time>2022-08-04T09:42:32.000Z</time>
      </trkpt>
      <trkpt lat="49.34298" lon="-0.704">
        <ele>64.548159</ele>
        <time>2022-08-04T09:42:33.000Z</time>
      </trkpt>
      <trkpt lat="49.34298" lon="-0.70393">
        <ele>64.453319</ele>
        <time>2022-08-04T09:42:34.000Z</time>
      </trkpt>
      <trkpt lat="49.34297" lon="-0.70386">
        <ele>64.359829</ele>
        <time>2022-08-04T09:42:35.000Z</time>
      </trkpt>
      <trkpt lat="49.34297" lon="-0.7038">
        <ele>64.267898</ele>
        <time>2022-08-04T09:42:36.000Z</time>
      </trkpt>
      <trkpt lat="49.34297" lon="-0.70373">
        <ele>64.172154</ele>
        <time>2022-08-04T09:42:37.000Z</time>
      </trkpt>
      <trkpt lat="49.34296" lon="-0.70366">
        <ele>64.080013</ele>
        <time>2022-08-04T09:42:38.000Z</time>
      </trkpt>
      <trkpt lat="49.34297" lon="-0.70359">
        <ele>63.983129</ele>
        <time>2022-08-04T09:42:39.000Z</time>
      </trkpt>
      <trkpt lat="49.34298" lon="-0.70352">
        <ele>63.889019</ele>
        <time>2022-08-04T09:42:40.000Z</time>
      </trkpt>
      <trkpt lat="49.343" lon="-0.70345">
        <ele>63.792705</ele>
        <time>2022-08-04T09:42:41.000Z</time>
      </trkpt>
      <trkpt lat="49.34302" lon="-0.7034">
        <ele>63.70321</ele>
        <time>2022-08-04T09:42:42.000Z</time>
      </trkpt>
      <trkpt lat="49.34305" lon="-0.70335">
        <ele>63.611306</ele>
        <time>2022-08-04T09:42:43.000Z</time>
      </trkpt>
      <trkpt lat="49.34309" lon="-0.70331">
        <ele>63.523054</ele>
        <time>2022-08-04T09:42:44.000Z</time>
      </trkpt>
      <trkpt lat="49.34312" lon="-0.70327">
        <ele>63.431095</ele>
        <time>2022-08-04T09:42:45.000Z</time>
      </trkpt>
      <trkpt lat="49.34317" lon="-0.70324">
        <ele>63.324056</ele>
        <time>2022-08-04T09:42:46.000Z</time>
      </trkpt>
      <trkpt lat="49.34322" lon="-0.70322">
        <ele>63.217505</ele>
        <time>2022-08-04T09:42:47.000Z</time>
      </trkpt>
      <trkpt lat="49.34327" lon="-0.70319">
        <ele>63.106414</ele>
        <time>2022-08-04T09:42:48.000Z</time>
      </trkpt>
      <trkpt lat="49.34332" lon="-0.70317">
        <ele>63.007997</ele>
        <time>2022-08-04T09:42:49.000Z</time>
      </trkpt>
      <trkpt lat="49.34337" lon="-0.70315">
        <ele>62.890713</ele>
        <time>2022-08-04T09:42:50.000Z</time>
      </trkpt>
      <trkpt lat="49.34343" lon="-0.70312">
        <ele>62.768068</ele>
        <time>2022-08-04T09:42:51.000Z</time>
      </trkpt>
      <trkpt lat="49.34348" lon="-0.7031">
        <ele>62.662447</ele>
        <time>2022-08-04T09:42:52.000Z</time>
      </trkpt>
      <trkpt lat="49.34353" lon="-0.70307">
        <ele>62.542626</ele>
        <time>2022-08-04T09:42:53.000Z</time>
      </trkpt>
      <trkpt lat="49.34358" lon="-0.70304">
        <ele>62.434036</ele>
        <time>2022-08-04T09:42:54.000Z</time>
      </trkpt>
      <trkpt lat="49.34363" lon="-0.703">
        <ele>62.323181</ele>
        <time>2022-08-04T09:42:55.000Z</time>
      </trkpt>
      <trkpt lat="49.34367" lon="-0.70297">
        <ele>62.220348</ele>
        <time>2022-08-04T09:42:56.000Z</time>
      </trkpt>
      <trkpt lat="49.34372" lon="-0.70293">
        <ele>62.090309</ele>
        <time>2022-08-04T09:42:57.000Z</time>
      </trkpt>
      <trkpt lat="49.34377" lon="-0.7029">
        <ele>61.885419</ele>
        <time>2022-08-04T09:42:58.000Z</time>
      </trkpt>
      <trkpt lat="49.34381" lon="-0.70287">
        <ele>61.695292</ele>
        <time>2022-08-04T09:42:59.000Z</time>
      </trkpt>
      <trkpt lat="49.34387" lon="-0.70284">
        <ele>61.471102</ele>
        <time>2022-08-04T09:43:00.000Z</time>
      </trkpt>
      <trkpt lat="49.34391" lon="-0.70282">
        <ele>61.274442</ele>
        <time>2022-08-04T09:43:01.000Z</time>
      </trkpt>
      <trkpt lat="49.34397" lon="-0.7028">
        <ele>61.060195</ele>
        <time>2022-08-04T09:43:02.000Z</time>
      </trkpt>
      <trkpt lat="49.34402" lon="-0.70279">
        <ele>60.86986</ele>
        <time>2022-08-04T09:43:03.000Z</time>
      </trkpt>
      <trkpt lat="49.34407" lon="-0.70278">
        <ele>60.642197</ele>
        <time>2022-08-04T09:43:04.000Z</time>
      </trkpt>
      <trkpt lat="49.34413" lon="-0.70277">
        <ele>60.418702</ele>
        <time>2022-08-04T09:43:05.000Z</time>
      </trkpt>
      <trkpt lat="49.34419" lon="-0.70276">
        <ele>60.191605</ele>
        <time>2022-08-04T09:43:06.000Z</time>
      </trkpt>
      <trkpt lat="49.34423" lon="-0.70275">
        <ele>60.015643</ele>
        <time>2022-08-04T09:43:07.000Z</time>
      </trkpt>
      <trkpt lat="49.3443" lon="-0.70274">
        <ele>59.741772</ele>
        <time>2022-08-04T09:43:08.000Z</time>
      </trkpt>
      <trkpt lat="49.34436" lon="-0.70274">
        <ele>59.51513</ele>
        <time>2022-08-04T09:43:09.000Z</time>
      </trkpt>
      <trkpt lat="49.34441" lon="-0.70273">
        <ele>59.328072</ele>
        <time>2022-08-04T09:43:10.000Z</time>
      </trkpt>
      <trkpt lat="49.34445" lon="-0.70274">
        <ele>59.168272</ele>
        <time>2022-08-04T09:43:11.000Z</time>
      </trkpt>
      <trkpt lat="49.34448" lon="-0.70274">
        <ele>59.04338</ele>
        <time>2022-08-04T09:43:12.000Z</time>
      </trkpt>
      <trkpt lat="49.34451" lon="-0.70274">
        <ele>58.953638</ele>
        <time>2022-08-04T09:43:13.000Z</time>
      </trkpt>
      <trkpt lat="49.34453" lon="-0.70274">
        <ele>58.856248</ele>
        <time>2022-08-04T09:43:14.000Z</time>
      </trkpt>
      <trkpt lat="49.34456" lon="-0.70273">
        <ele>58.739242</ele>
        <time>2022-08-04T09:43:15.000Z</time>
      </trkpt>
      <trkpt lat="49.34458" lon="-0.7027">
        <ele>58.624602</ele>
        <time>2022-08-04T09:43:16.000Z</time>
      </trkpt>
      <trkpt lat="49.3446" lon="-0.70266">
        <ele>58.516085</ele>
        <time>2022-08-04T09:43:17.000Z</time>
      </trkpt>
      <trkpt lat="49.3446" lon="-0.70263">
        <ele>58.439944</ele>
        <time>2022-08-04T09:43:18.000Z</time>
      </trkpt>
      <trkpt lat="49.3446" lon="-0.7026">
        <ele>58.3435</ele>
        <time>2022-08-04T09:43:19.000Z</time>
      </trkpt>
      <trkpt lat="49.34459" lon="-0.70256">
        <ele>58.244263</ele>
        <time>2022-08-04T09:43:20.000Z</time>
      </trkpt>
      <trkpt lat="49.34459" lon="-0.70252">
        <ele>58.135134</ele>
        <time>2022-08-04T09:43:21.000Z</time>
      </trkpt>
      <trkpt lat="49.34458" lon="-0.70246">
        <ele>58.00224</ele>
        <time>2022-08-04T09:43:22.000Z</time>
      </trkpt>
      <trkpt lat="49.34458" lon="-0.70242">
        <ele>57.900049</ele>
        <time>2022-08-04T09:43:23.000Z</time>
      </trkpt>
      <trkpt lat="49.34457" lon="-0.70237">
        <ele>57.76104</ele>
        <time>2022-08-04T09:43:24.000Z</time>
      </trkpt>
      <trkpt lat="49.34457" lon="-0.70231">
        <ele>57.595335</ele>
        <time>2022-08-04T09:43:25.000Z</time>
      </trkpt>
      <trkpt lat="49.34456" lon="-0.70226">
        <ele>57.471288</ele>
        <time>2022-08-04T09:43:26.000Z</time>
      </trkpt>
      <trkpt lat="49.34456" lon="-0.7022">
        <ele>57.319007</ele>
        <time>2022-08-04T09:43:27.000Z</time>
      </trkpt>
      <trkpt lat="49.34455" lon="-0.70214">
        <ele>57.164942</ele>
        <time>2022-08-04T09:43:28.000Z</time>
      </trkpt>
      <trkpt lat="49.34455" lon="-0.70208">
        <ele>57.019439</ele>
        <time>2022-08-04T09:43:29.000Z</time>
      </trkpt>
      <trkpt lat="49.34455" lon="-0.70203">
        <ele>56.879848</ele>
        <time>2022-08-04T09:43:30.000Z</time>
      </trkpt>
      <trkpt lat="49.34455" lon="-0.70197">
        <ele>56.739768</ele>
        <time>2022-08-04T09:43:31.000Z</time>
      </trkpt>
      <trkpt lat="49.34455" lon="-0.70192">
        <ele>56.607791</ele>
        <time>2022-08-04T09:43:32.000Z</time>
      </trkpt>
      <trkpt lat="49.34455" lon="-0.70187">
        <ele>56.478352</ele>
        <time>2022-08-04T09:43:33.000Z</time>
      </trkpt>
      <trkpt lat="49.34454" lon="-0.70181">
        <ele>56.320562</ele>
        <time>2022-08-04T09:43:34.000Z</time>
      </trkpt>
      <trkpt lat="49.34454" lon="-0.70177">
        <ele>56.224117</ele>
        <time>2022-08-04T09:43:35.000Z</time>
      </trkpt>
      <trkpt lat="49.34453" lon="-0.70171">
        <ele>56.074297</ele>
        <time>2022-08-04T09:43:36.000Z</time>
      </trkpt>
      <trkpt lat="49.34453" lon="-0.70167">
        <ele>55.979665</ele>
        <time>2022-08-04T09:43:37.000Z</time>
      </trkpt>
      <trkpt lat="49.34453" lon="-0.70162">
        <ele>55.837057</ele>
        <time>2022-08-04T09:43:38.000Z</time>
      </trkpt>
      <trkpt lat="49.34453" lon="-0.70158">
        <ele>55.74315</ele>
        <time>2022-08-04T09:43:39.000Z</time>
      </trkpt>
      <trkpt lat="49.34453" lon="-0.70154">
        <ele>55.628939</ele>
        <time>2022-08-04T09:43:40.000Z</time>
      </trkpt>
      <trkpt lat="49.34452" lon="-0.70149">
        <ele>55.512361</ele>
        <time>2022-08-04T09:43:41.000Z</time>
      </trkpt>
      <trkpt lat="49.34452" lon="-0.70145">
        <ele>55.402331</ele>
        <time>2022-08-04T09:43:42.000Z</time>
      </trkpt>
      <trkpt lat="49.34452" lon="-0.7014">
        <ele>55.285582</ele>
        <time>2022-08-04T09:43:43.000Z</time>
      </trkpt>
      <trkpt lat="49.34451" lon="-0.70137">
        <ele>55.198502</ele>
        <time>2022-08-04T09:43:44.000Z</time>
      </trkpt>
      <trkpt lat="49.34451" lon="-0.70133">
        <ele>55.158199</ele>
        <time>2022-08-04T09:43:45.000Z</time>
      </trkpt>
      <trkpt lat="49.34451" lon="-0.70128">
        <ele>55.273707</ele>
        <time>2022-08-04T09:43:46.000Z</time>
      </trkpt>
      <trkpt lat="49.34451" lon="-0.70123">
        <ele>55.397482</ele>
        <time>2022-08-04T09:43:47.000Z</time>
      </trkpt>
      <trkpt lat="49.3445" lon="-0.70118">
        <ele>55.544639</ele>
        <time>2022-08-04T09:43:48.000Z</time>
      </trkpt>
      <trkpt lat="49.34449" lon="-0.70111">
        <ele>55.720235</ele>
        <time>2022-08-04T09:43:49.000Z</time>
      </trkpt>
      <trkpt lat="49.34448" lon="-0.70103">
        <ele>55.924289</ele>
        <time>2022-08-04T09:43:50.000Z</time>
      </trkpt>
      <trkpt lat="49.34447" lon="-0.70095">
        <ele>56.151396</ele>
        <time>2022-08-04T09:43:51.000Z</time>
      </trkpt>
      <trkpt lat="49.34445" lon="-0.70084">
        <ele>56.423706</ele>
        <time>2022-08-04T09:43:52.000Z</time>
      </trkpt>
      <trkpt lat="49.34444" lon="-0.70077">
        <ele>56.613013</ele>
        <time>2022-08-04T09:43:53.000Z</time>
      </trkpt>
      <trkpt lat="49.34442" lon="-0.70067">
        <ele>56.884835</ele>
        <time>2022-08-04T09:43:54.000Z</time>
      </trkpt>
      <trkpt lat="49.34441" lon="-0.70059">
        <ele>57.095752</ele>
        <time>2022-08-04T09:43:55.000Z</time>
      </trkpt>
      <trkpt lat="49.34441" lon="-0.70051">
        <ele>57.30144</ele>
        <time>2022-08-04T09:43:56.000Z</time>
      </trkpt>
      <trkpt lat="49.34441" lon="-0.70043">
        <ele>57.494598</ele>
        <time>2022-08-04T09:43:57.000Z</time>
      </trkpt>
      <trkpt lat="49.3444" lon="-0.70038">
        <ele>57.628597</ele>
        <time>2022-08-04T09:43:58.000Z</time>
      </trkpt>
      <trkpt lat="49.3444" lon="-0.70032">
        <ele>57.78818</ele>
        <time>2022-08-04T09:43:59.000Z</time>
      </trkpt>
      <trkpt lat="49.3444" lon="-0.70027">
        <ele>57.924224</ele>
        <time>2022-08-04T09:44:00.000Z</time>
      </trkpt>
      <trkpt lat="49.3444" lon="-0.70022">
        <ele>58.052567</ele>
        <time>2022-08-04T09:44:01.000Z</time>
      </trkpt>
      <trkpt lat="49.3444" lon="-0.70017">
        <ele>58.173209</ele>
        <time>2022-08-04T09:44:02.000Z</time>
      </trkpt>
      <trkpt lat="49.3444" lon="-0.70013">
        <ele>58.279112</ele>
        <time>2022-08-04T09:44:03.000Z</time>
      </trkpt>
      <trkpt lat="49.34441" lon="-0.70008">
        <ele>58.39267</ele>
        <time>2022-08-04T09:44:04.000Z</time>
      </trkpt>
      <trkpt lat="49.34441" lon="-0.70003">
        <ele>58.521977</ele>
        <time>2022-08-04T09:44:05.000Z</time>
      </trkpt>
      <trkpt lat="49.34441" lon="-0.7">
        <ele>58.599884</ele>
        <time>2022-08-04T09:44:06.000Z</time>
      </trkpt>
      <trkpt lat="49.34442" lon="-0.69996">
        <ele>58.720713</ele>
        <time>2022-08-04T09:44:07.000Z</time>
      </trkpt>
      <trkpt lat="49.34443" lon="-0.69993">
        <ele>58.794292</ele>
        <time>2022-08-04T09:44:08.000Z</time>
      </trkpt>
      <trkpt lat="49.34443" lon="-0.69989">
        <ele>58.889266</ele>
        <time>2022-08-04T09:44:09.000Z</time>
      </trkpt>
      <trkpt lat="49.34443" lon="-0.69986">
        <ele>58.97988</ele>
        <time>2022-08-04T09:44:10.000Z</time>
      </trkpt>
      <trkpt lat="49.34443" lon="-0.69982">
        <ele>59.085783</ele>
        <time>2022-08-04T09:44:11.000Z</time>
      </trkpt>
      <trkpt lat="49.34444" lon="-0.69975">
        <ele>59.265851</ele>
        <time>2022-08-04T09:44:13.000Z</time>
      </trkpt>
      <trkpt lat="49.34444" lon="-0.69972">
        <ele>59.347646</ele>
        <time>2022-08-04T09:44:14.000Z</time>
      </trkpt>
      <trkpt lat="49.34445" lon="-0.69968">
        <ele>59.450998</ele>
        <time>2022-08-04T09:44:15.000Z</time>
      </trkpt>
      <trkpt lat="49.34445" lon="-0.69964">
        <ele>59.540838</ele>
        <time>2022-08-04T09:44:16.000Z</time>
      </trkpt>
      <trkpt lat="49.34445" lon="-0.69961">
        <ele>59.630678</ele>
        <time>2022-08-04T09:44:17.000Z</time>
      </trkpt>
      <trkpt lat="49.34445" lon="-0.69957">
        <ele>59.731481</ele>
        <time>2022-08-04T09:44:18.000Z</time>
      </trkpt>
      <trkpt lat="49.34445" lon="-0.69952">
        <ele>59.868037</ele>
        <time>2022-08-04T09:44:20.000Z</time>
      </trkpt>
      <trkpt lat="49.34445" lon="-0.69947">
        <ele>59.988679</ele>
        <time>2022-08-04T09:44:22.000Z</time>
      </trkpt>
      <trkpt lat="49.34446" lon="-0.69942">
        <ele>60.118034</ele>
        <time>2022-08-04T09:49:40.000Z</time>
      </trkpt>
      <trkpt lat="49.34446" lon="-0.69939">
        <ele>60.201019</ele>
        <time>2022-08-04T09:49:41.000Z</time>
      </trkpt>
      <trkpt lat="49.34446" lon="-0.69935">
        <ele>60.298559</ele>
        <time>2022-08-04T09:49:42.000Z</time>
      </trkpt>
      <trkpt lat="49.34446" lon="-0.69931">
        <ele>60.3961</ele>
        <time>2022-08-04T09:49:43.000Z</time>
      </trkpt>
      <trkpt lat="49.34446" lon="-0.69927">
        <ele>60.503908</ele>
        <time>2022-08-04T09:49:44.000Z</time>
      </trkpt>
      <trkpt lat="49.34446" lon="-0.69923">
        <ele>60.601448</ele>
        <time>2022-08-04T09:49:45.000Z</time>
      </trkpt>
      <trkpt lat="49.34446" lon="-0.69919">
        <ele>60.701555</ele>
        <time>2022-08-04T09:49:46.000Z</time>
      </trkpt>
      <trkpt lat="49.34446" lon="-0.69916">
        <ele>60.799096</ele>
        <time>2022-08-04T09:49:47.000Z</time>
      </trkpt>
      <trkpt lat="49.34446" lon="-0.69912">
        <ele>60.883802</ele>
        <time>2022-08-04T09:49:48.000Z</time>
      </trkpt>
      <trkpt lat="49.34446" lon="-0.69909">
        <ele>60.973642</ele>
        <time>2022-08-04T09:49:49.000Z</time>
      </trkpt>
      <trkpt lat="49.34447" lon="-0.69905">
        <ele>61.064256</ele>
        <time>2022-08-04T09:49:50.000Z</time>
      </trkpt>
      <trkpt lat="49.34447" lon="-0.69902">
        <ele>61.159229</ele>
        <time>2022-08-04T09:49:51.000Z</time>
      </trkpt>
      <trkpt lat="49.34447" lon="-0.69898">
        <ele>61.257483</ele>
        <time>2022-08-04T09:49:52.000Z</time>
      </trkpt>
      <trkpt lat="49.34447" lon="-0.69894">
        <ele>61.35759</ele>
        <time>2022-08-04T09:49:53.000Z</time>
      </trkpt>
      <trkpt lat="49.34447" lon="-0.6989">
        <ele>61.461467</ele>
        <time>2022-08-04T09:49:54.000Z</time>
      </trkpt>
      <trkpt lat="49.34447" lon="-0.69886">
        <ele>61.566708</ele>
        <time>2022-08-04T09:49:55.000Z</time>
      </trkpt>
      <trkpt lat="49.34447" lon="-0.69882">
        <ele>61.674516</ele>
        <time>2022-08-04T09:49:56.000Z</time>
      </trkpt>
      <trkpt lat="49.34447" lon="-0.69877">
        <ele>61.782323</ele>
        <time>2022-08-04T09:49:57.000Z</time>
      </trkpt>
      <trkpt lat="49.34447" lon="-0.69873">
        <ele>61.887564</ele>
        <time>2022-08-04T09:49:58.000Z</time>
      </trkpt>
      <trkpt lat="49.34447" lon="-0.69869">
        <ele>61.998844</ele>
        <time>2022-08-04T09:49:59.000Z</time>
      </trkpt>
      <trkpt lat="49.34446" lon="-0.69865">
        <ele>62.111722</ele>
        <time>2022-08-04T09:50:00.000Z</time>
      </trkpt>
      <trkpt lat="49.34445" lon="-0.69861">
        <ele>62.222647</ele>
        <time>2022-08-04T09:50:01.000Z</time>
      </trkpt>
      <trkpt lat="49.34443" lon="-0.69858">
        <ele>62.303157</ele>
        <time>2022-08-04T09:50:02.000Z</time>
      </trkpt>
      <trkpt lat="49.34441" lon="-0.69856">
        <ele>62.389538</ele>
        <time>2022-08-04T09:50:03.000Z</time>
      </trkpt>
      <trkpt lat="49.34438" lon="-0.69855">
        <ele>62.472432</ele>
        <time>2022-08-04T09:50:04.000Z</time>
      </trkpt>
      <trkpt lat="49.34436" lon="-0.69854">
        <ele>62.555953</ele>
        <time>2022-08-04T09:50:05.000Z</time>
      </trkpt>
      <trkpt lat="49.34433" lon="-0.69854">
        <ele>62.635638</ele>
        <time>2022-08-04T09:50:06.000Z</time>
      </trkpt>
      <trkpt lat="49.3443" lon="-0.69854">
        <ele>62.718536</ele>
        <time>2022-08-04T09:50:07.000Z</time>
      </trkpt>
      <trkpt lat="49.34428" lon="-0.69855">
        <ele>62.789423</ele>
        <time>2022-08-04T09:50:08.000Z</time>
      </trkpt>
      <trkpt lat="49.34425" lon="-0.69856">
        <ele>62.882994</ele>
        <time>2022-08-04T09:50:09.000Z</time>
      </trkpt>
      <trkpt lat="49.34423" lon="-0.69856">
        <ele>62.957731</ele>
        <time>2022-08-04T09:50:10.000Z</time>
      </trkpt>
      <trkpt lat="49.34421" lon="-0.69857">
        <ele>63.03913</ele>
        <time>2022-08-04T09:50:11.000Z</time>
      </trkpt>
      <trkpt lat="49.34418" lon="-0.69858">
        <ele>63.134864</ele>
        <time>2022-08-04T09:50:12.000Z</time>
      </trkpt>
      <trkpt lat="49.34415" lon="-0.69859">
        <ele>63.220299</ele>
        <time>2022-08-04T09:50:13.000Z</time>
      </trkpt>
      <trkpt lat="49.34413" lon="-0.6986">
        <ele>63.301697</ele>
        <time>2022-08-04T09:50:14.000Z</time>
      </trkpt>
      <trkpt lat="49.3441" lon="-0.69861">
        <ele>63.397432</ele>
        <time>2022-08-04T09:50:15.000Z</time>
      </trkpt>
      <trkpt lat="49.34407" lon="-0.69862">
        <ele>63.482866</ele>
        <time>2022-08-04T09:50:16.000Z</time>
      </trkpt>
      <trkpt lat="49.34404" lon="-0.69863">
        <ele>63.586956</ele>
        <time>2022-08-04T09:50:17.000Z</time>
      </trkpt>
      <trkpt lat="49.34401" lon="-0.69864">
        <ele>63.669302</ele>
        <time>2022-08-04T09:50:18.000Z</time>
      </trkpt>
      <trkpt lat="49.34399" lon="-0.69865">
        <ele>63.755265</ele>
        <time>2022-08-04T09:50:19.000Z</time>
      </trkpt>
      <trkpt lat="49.34396" lon="-0.69867">
        <ele>63.852164</ele>
        <time>2022-08-04T09:50:20.000Z</time>
      </trkpt>
      <trkpt lat="49.34393" lon="-0.69868">
        <ele>63.945405</ele>
        <time>2022-08-04T09:50:21.000Z</time>
      </trkpt>
      <trkpt lat="49.3439" lon="-0.6987">
        <ele>64.052052</ele>
        <time>2022-08-04T09:50:22.000Z</time>
      </trkpt>
      <trkpt lat="49.34387" lon="-0.69871">
        <ele>64.147787</ele>
        <time>2022-08-04T09:50:23.000Z</time>
      </trkpt>
      <trkpt lat="49.34383" lon="-0.69872">
        <ele>64.261262</ele>
        <time>2022-08-04T09:50:24.000Z</time>
      </trkpt>
      <trkpt lat="49.3438" lon="-0.69873">
        <ele>64.377873</ele>
        <time>2022-08-04T09:50:25.000Z</time>
      </trkpt>
      <trkpt lat="49.34377" lon="-0.69874">
        <ele>64.469997</ele>
        <time>2022-08-04T09:50:26.000Z</time>
      </trkpt>
      <trkpt lat="49.34373" lon="-0.69875">
        <ele>64.587418</ele>
        <time>2022-08-04T09:50:27.000Z</time>
      </trkpt>
      <trkpt lat="49.3437" lon="-0.69876">
        <ele>64.701726</ele>
        <time>2022-08-04T09:50:28.000Z</time>
      </trkpt>
      <trkpt lat="49.34367" lon="-0.69877">
        <ele>64.796465</ele>
        <time>2022-08-04T09:50:29.000Z</time>
      </trkpt>
      <trkpt lat="49.34363" lon="-0.69878">
        <ele>64.919721</ele>
        <time>2022-08-04T09:50:30.000Z</time>
      </trkpt>
      <trkpt lat="49.3436" lon="-0.69879">
        <ele>65.02381</ele>
        <time>2022-08-04T09:50:31.000Z</time>
      </trkpt>
      <trkpt lat="49.34357" lon="-0.69881">
        <ele>65.12987</ele>
        <time>2022-08-04T09:50:32.000Z</time>
      </trkpt>
      <trkpt lat="49.34353" lon="-0.69882">
        <ele>65.253126</ele>
        <time>2022-08-04T09:50:33.000Z</time>
      </trkpt>
      <trkpt lat="49.34349" lon="-0.69883">
        <ele>65.371498</ele>
        <time>2022-08-04T09:50:34.000Z</time>
      </trkpt>
      <trkpt lat="49.34346" lon="-0.69885">
        <ele>65.496561</ele>
        <time>2022-08-04T09:50:35.000Z</time>
      </trkpt>
      <trkpt lat="49.34342" lon="-0.69886">
        <ele>65.620654</ele>
        <time>2022-08-04T09:50:36.000Z</time>
      </trkpt>
      <trkpt lat="49.34338" lon="-0.69887">
        <ele>65.75722</ele>
        <time>2022-08-04T09:50:37.000Z</time>
      </trkpt>
      <trkpt lat="49.34333" lon="-0.69889">
        <ele>65.894211</ele>
        <time>2022-08-04T09:50:38.000Z</time>
      </trkpt>
      <trkpt lat="49.34329" lon="-0.6989">
        <ele>66.028556</ele>
        <time>2022-08-04T09:50:39.000Z</time>
      </trkpt>
      <trkpt lat="49.34325" lon="-0.69892">
        <ele>66.175332</ele>
        <time>2022-08-04T09:50:40.000Z</time>
      </trkpt>
      <trkpt lat="49.34321" lon="-0.69893">
        <ele>66.300395</ele>
        <time>2022-08-04T09:50:41.000Z</time>
      </trkpt>
      <trkpt lat="49.34317" lon="-0.69895">
        <ele>66.427601</ele>
        <time>2022-08-04T09:50:42.000Z</time>
      </trkpt>
      <trkpt lat="49.34313" lon="-0.69896">
        <ele>66.559924</ele>
        <time>2022-08-04T09:50:43.000Z</time>
      </trkpt>
      <trkpt lat="49.34309" lon="-0.69897">
        <ele>66.688076</ele>
        <time>2022-08-04T09:50:44.000Z</time>
      </trkpt>
      <trkpt lat="49.34305" lon="-0.69899">
        <ele>66.823444</ele>
        <time>2022-08-04T09:50:45.000Z</time>
      </trkpt>
      <trkpt lat="49.34301" lon="-0.699">
        <ele>66.951596</ele>
        <time>2022-08-04T09:50:46.000Z</time>
      </trkpt>
      <trkpt lat="49.34297" lon="-0.69902">
        <ele>67.076659</ele>
        <time>2022-08-04T09:50:47.000Z</time>
      </trkpt>
      <trkpt lat="49.34293" lon="-0.69903">
        <ele>67.203865</ele>
        <time>2022-08-04T09:50:48.000Z</time>
      </trkpt>
      <trkpt lat="49.34289" lon="-0.69904">
        <ele>67.336903</ele>
        <time>2022-08-04T09:50:49.000Z</time>
      </trkpt>
      <trkpt lat="49.34285" lon="-0.69906">
        <ele>67.46411</ele>
        <time>2022-08-04T09:50:50.000Z</time>
      </trkpt>
      <trkpt lat="49.34281" lon="-0.69907">
        <ele>67.599478</ele>
        <time>2022-08-04T09:50:51.000Z</time>
      </trkpt>
      <trkpt lat="49.34277" lon="-0.69909">
        <ele>67.72763</ele>
        <time>2022-08-04T09:50:52.000Z</time>
      </trkpt>
      <trkpt lat="49.34273" lon="-0.6991">
        <ele>67.861073</ele>
        <time>2022-08-04T09:50:53.000Z</time>
      </trkpt>
      <trkpt lat="49.34269" lon="-0.69912">
        <ele>67.969045</ele>
        <time>2022-08-04T09:50:54.000Z</time>
      </trkpt>
      <trkpt lat="49.34266" lon="-0.69913">
        <ele>68.037782</ele>
        <time>2022-08-04T09:50:55.000Z</time>
      </trkpt>
      <trkpt lat="49.34262" lon="-0.69915">
        <ele>68.107055</ele>
        <time>2022-08-04T09:50:56.000Z</time>
      </trkpt>
      <trkpt lat="49.34258" lon="-0.69916">
        <ele>68.171647</ele>
        <time>2022-08-04T09:50:57.000Z</time>
      </trkpt>
      <trkpt lat="49.34255" lon="-0.69917">
        <ele>68.234963</ele>
        <time>2022-08-04T09:50:58.000Z</time>
      </trkpt>
      <trkpt lat="49.34252" lon="-0.69918">
        <ele>68.280576</ele>
        <time>2022-08-04T09:50:59.000Z</time>
      </trkpt>
      <trkpt lat="49.3425" lon="-0.69919">
        <ele>68.327393</ele>
        <time>2022-08-04T09:51:00.000Z</time>
      </trkpt>
      <trkpt lat="49.34247" lon="-0.69919">
        <ele>68.366235</ele>
        <time>2022-08-04T09:51:01.000Z</time>
      </trkpt>
      <trkpt lat="49.34245" lon="-0.69918">
        <ele>68.413558</ele>
        <time>2022-08-04T09:51:02.000Z</time>
      </trkpt>
      <trkpt lat="49.34243" lon="-0.69913">
        <ele>68.480141</ele>
        <time>2022-08-04T09:51:04.000Z</time>
      </trkpt>
      <trkpt lat="49.34243" lon="-0.69909">
        <ele>68.520401</ele>
        <time>2022-08-04T09:51:05.000Z</time>
      </trkpt>
      <trkpt lat="49.34244" lon="-0.69905">
        <ele>68.566912</ele>
        <time>2022-08-04T09:51:06.000Z</time>
      </trkpt>
      <trkpt lat="49.34244" lon="-0.69901">
        <ele>68.613463</ele>
        <time>2022-08-04T09:51:07.000Z</time>
      </trkpt>
      <trkpt lat="49.34245" lon="-0.69897">
        <ele>68.660679</ele>
        <time>2022-08-04T09:51:08.000Z</time>
      </trkpt>
      <trkpt lat="49.34245" lon="-0.69894">
        <ele>68.704539</ele>
        <time>2022-08-04T09:51:09.000Z</time>
      </trkpt>
      <trkpt lat="49.34246" lon="-0.6989">
        <ele>68.746653</ele>
        <time>2022-08-04T09:51:10.000Z</time>
      </trkpt>
      <trkpt lat="49.34247" lon="-0.69887">
        <ele>68.788285</ele>
        <time>2022-08-04T09:51:11.000Z</time>
      </trkpt>
      <trkpt lat="49.34247" lon="-0.69883">
        <ele>68.828206</ele>
        <time>2022-08-04T09:51:12.000Z</time>
      </trkpt>
      <trkpt lat="49.34248" lon="-0.6988">
        <ele>68.868725</ele>
        <time>2022-08-04T09:51:13.000Z</time>
      </trkpt>
      <trkpt lat="49.34248" lon="-0.69877">
        <ele>68.907053</ele>
        <time>2022-08-04T09:51:14.000Z</time>
      </trkpt>
      <trkpt lat="49.34249" lon="-0.69873">
        <ele>68.944242</ele>
        <time>2022-08-04T09:51:15.000Z</time>
      </trkpt>
      <trkpt lat="49.34249" lon="-0.6987">
        <ele>68.979467</ele>
        <time>2022-08-04T09:51:16.000Z</time>
      </trkpt>
      <trkpt lat="49.34249" lon="-0.69867">
        <ele>69.013976</ele>
        <time>2022-08-04T09:51:17.000Z</time>
      </trkpt>
      <trkpt lat="49.3425" lon="-0.69862">
        <ele>69.078123</ele>
        <time>2022-08-04T09:51:19.000Z</time>
      </trkpt>
      <trkpt lat="49.3425" lon="-0.69859">
        <ele>69.110764</ele>
        <time>2022-08-04T09:51:20.000Z</time>
      </trkpt>
      <trkpt lat="49.34251" lon="-0.69856">
        <ele>69.144191</ele>
        <time>2022-08-04T09:51:21.000Z</time>
      </trkpt>
      <trkpt lat="49.34251" lon="-0.69853">
        <ele>69.179105</ele>
        <time>2022-08-04T09:51:22.000Z</time>
      </trkpt>
      <trkpt lat="49.34251" lon="-0.6985">
        <ele>69.219365</ele>
        <time>2022-08-04T09:51:23.000Z</time>
      </trkpt>
      <trkpt lat="49.34251" lon="-0.69847">
        <ele>69.251574</ele>
        <time>2022-08-04T09:51:24.000Z</time>
      </trkpt>
      <trkpt lat="49.34251" lon="-0.69843">
        <ele>69.297586</ele>
        <time>2022-08-04T09:51:26.000Z</time>
      </trkpt>
      <trkpt lat="49.34253" lon="-0.69832">
        <ele>69.430605</ele>
        <time>2022-08-04T09:51:46.000Z</time>
      </trkpt>
      <trkpt lat="49.34253" lon="-0.69826">
        <ele>69.494721</ele>
        <time>2022-08-04T09:51:47.000Z</time>
      </trkpt>
      <trkpt lat="49.34254" lon="-0.69821">
        <ele>69.559524</ele>
        <time>2022-08-04T09:51:48.000Z</time>
      </trkpt>
      <trkpt lat="49.34255" lon="-0.69815">
        <ele>69.62699</ele>
        <time>2022-08-04T09:51:49.000Z</time>
      </trkpt>
      <trkpt lat="49.34256" lon="-0.69809">
        <ele>69.69823</ele>
        <time>2022-08-04T09:51:50.000Z</time>
      </trkpt>
      <trkpt lat="49.34256" lon="-0.69803">
        <ele>69.764011</ele>
        <time>2022-08-04T09:51:51.000Z</time>
      </trkpt>
      <trkpt lat="49.34257" lon="-0.69798">
        <ele>69.834567</ele>
        <time>2022-08-04T09:51:52.000Z</time>
      </trkpt>
      <trkpt lat="49.34258" lon="-0.69792">
        <ele>69.900984</ele>
        <time>2022-08-04T09:51:53.000Z</time>
      </trkpt>
      <trkpt lat="49.34259" lon="-0.69787">
        <ele>69.957565</ele>
        <time>2022-08-04T09:51:54.000Z</time>
      </trkpt>
      <trkpt lat="49.3426" lon="-0.69782">
        <ele>70.01502</ele>
        <time>2022-08-04T09:51:55.000Z</time>
      </trkpt>
      <trkpt lat="49.3426" lon="-0.69778">
        <ele>70.064889</ele>
        <time>2022-08-04T09:51:56.000Z</time>
      </trkpt>
      <trkpt lat="49.34261" lon="-0.69772">
        <ele>70.13699</ele>
        <time>2022-08-04T09:51:57.000Z</time>
      </trkpt>
      <trkpt lat="49.34261" lon="-0.69767">
        <ele>70.196604</ele>
        <time>2022-08-04T09:51:58.000Z</time>
      </trkpt>
      <trkpt lat="49.34262" lon="-0.69762">
        <ele>70.257683</ele>
        <time>2022-08-04T09:51:59.000Z</time>
      </trkpt>
      <trkpt lat="49.34263" lon="-0.69757">
        <ele>70.313905</ele>
        <time>2022-08-04T09:52:00.000Z</time>
      </trkpt>
      <trkpt lat="49.34263" lon="-0.69752">
        <ele>70.372733</ele>
        <time>2022-08-04T09:52:01.000Z</time>
      </trkpt>
      <trkpt lat="49.34264" lon="-0.69747">
        <ele>70.430085</ele>
        <time>2022-08-04T09:52:02.000Z</time>
      </trkpt>
      <trkpt lat="49.34264" lon="-0.69742">
        <ele>70.488989</ele>
        <time>2022-08-04T09:52:03.000Z</time>
      </trkpt>
      <trkpt lat="49.34265" lon="-0.69737">
        <ele>70.549153</ele>
        <time>2022-08-04T09:52:04.000Z</time>
      </trkpt>
      <trkpt lat="49.34266" lon="-0.69731">
        <ele>70.612166</ele>
        <time>2022-08-04T09:52:05.000Z</time>
      </trkpt>
      <trkpt lat="49.34267" lon="-0.69726">
        <ele>70.672119</ele>
        <time>2022-08-04T09:52:06.000Z</time>
      </trkpt>
      <trkpt lat="49.34267" lon="-0.69721">
        <ele>70.732865</ele>
        <time>2022-08-04T09:52:07.000Z</time>
      </trkpt>
      <trkpt lat="49.34268" lon="-0.69716">
        <ele>70.787957</ele>
        <time>2022-08-04T09:52:08.000Z</time>
      </trkpt>
      <trkpt lat="49.34269" lon="-0.69711">
        <ele>70.846785</ele>
        <time>2022-08-04T09:52:09.000Z</time>
      </trkpt>
      <trkpt lat="49.34269" lon="-0.69706">
        <ele>70.907565</ele>
        <time>2022-08-04T09:52:10.000Z</time>
      </trkpt>
      <trkpt lat="49.3427" lon="-0.69701">
        <ele>70.965512</ele>
        <time>2022-08-04T09:52:11.000Z</time>
      </trkpt>
      <trkpt lat="49.3427" lon="-0.69696">
        <ele>71.026258</ele>
        <time>2022-08-04T09:52:12.000Z</time>
      </trkpt>
      <trkpt lat="49.34271" lon="-0.69691">
        <ele>71.086308</ele>
        <time>2022-08-04T09:52:13.000Z</time>
      </trkpt>
      <trkpt lat="49.34272" lon="-0.69686">
        <ele>71.121341</ele>
        <time>2022-08-04T09:52:14.000Z</time>
      </trkpt>
      <trkpt lat="49.34272" lon="-0.6968">
        <ele>71.127628</ele>
        <time>2022-08-04T09:52:15.000Z</time>
      </trkpt>
      <trkpt lat="49.34273" lon="-0.69675">
        <ele>71.13408</ele>
        <time>2022-08-04T09:52:16.000Z</time>
      </trkpt>
      <trkpt lat="49.34274" lon="-0.69669">
        <ele>71.14032</ele>
        <time>2022-08-04T09:52:17.000Z</time>
      </trkpt>
      <trkpt lat="49.34275" lon="-0.69664">
        <ele>71.146704</ele>
        <time>2022-08-04T09:52:18.000Z</time>
      </trkpt>
      <trkpt lat="49.34276" lon="-0.69658">
        <ele>71.153164</ele>
        <time>2022-08-04T09:52:19.000Z</time>
      </trkpt>
      <trkpt lat="49.34276" lon="-0.69653">
        <ele>71.159659</ele>
        <time>2022-08-04T09:52:20.000Z</time>
      </trkpt>
      <trkpt lat="49.34277" lon="-0.69647">
        <ele>71.166267</ele>
        <time>2022-08-04T09:52:21.000Z</time>
      </trkpt>
      <trkpt lat="49.34278" lon="-0.69642">
        <ele>71.17265</ele>
        <time>2022-08-04T09:52:22.000Z</time>
      </trkpt>
      <trkpt lat="49.34279" lon="-0.69636">
        <ele>71.178891</ele>
        <time>2022-08-04T09:52:23.000Z</time>
      </trkpt>
      <trkpt lat="49.3428" lon="-0.69631">
        <ele>71.185342</ele>
        <time>2022-08-04T09:52:24.000Z</time>
      </trkpt>
      <trkpt lat="49.34281" lon="-0.69626">
        <ele>71.19147</ele>
        <time>2022-08-04T09:52:25.000Z</time>
      </trkpt>
      <trkpt lat="49.34282" lon="-0.69621">
        <ele>71.197815</ele>
        <time>2022-08-04T09:52:26.000Z</time>
      </trkpt>
      <trkpt lat="49.34283" lon="-0.69615">
        <ele>71.204198</ele>
        <time>2022-08-04T09:52:27.000Z</time>
      </trkpt>
      <trkpt lat="49.34284" lon="-0.69609">
        <ele>71.21099</ele>
        <time>2022-08-04T09:52:28.000Z</time>
      </trkpt>
      <trkpt lat="49.34284" lon="-0.69603">
        <ele>71.217934</ele>
        <time>2022-08-04T09:52:29.000Z</time>
      </trkpt>
      <trkpt lat="49.34285" lon="-0.69597">
        <ele>71.224975</ele>
        <time>2022-08-04T09:52:30.000Z</time>
      </trkpt>
      <trkpt lat="49.34286" lon="-0.69591">
        <ele>71.23203</ele>
        <time>2022-08-04T09:52:31.000Z</time>
      </trkpt>
      <trkpt lat="49.34288" lon="-0.69585">
        <ele>71.239341</ele>
        <time>2022-08-04T09:52:32.000Z</time>
      </trkpt>
      <trkpt lat="49.34289" lon="-0.69579">
        <ele>71.246355</ele>
        <time>2022-08-04T09:52:33.000Z</time>
      </trkpt>
      <trkpt lat="49.3429" lon="-0.69573">
        <ele>71.253558</ele>
        <time>2022-08-04T09:52:34.000Z</time>
      </trkpt>
      <trkpt lat="49.34292" lon="-0.69567">
        <ele>71.260838</ele>
        <time>2022-08-04T09:52:35.000Z</time>
      </trkpt>
      <trkpt lat="49.34293" lon="-0.69562">
        <ele>71.268233</ele>
        <time>2022-08-04T09:52:36.000Z</time>
      </trkpt>
      <trkpt lat="49.34295" lon="-0.69556">
        <ele>71.275303</ele>
        <time>2022-08-04T09:52:37.000Z</time>
      </trkpt>
      <trkpt lat="49.34297" lon="-0.6955">
        <ele>71.282269</ele>
        <time>2022-08-04T09:52:38.000Z</time>
      </trkpt>
      <trkpt lat="49.34298" lon="-0.69545">
        <ele>71.289339</ele>
        <time>2022-08-04T09:52:39.000Z</time>
      </trkpt>
      <trkpt lat="49.343" lon="-0.69539">
        <ele>71.296714</ele>
        <time>2022-08-04T09:52:40.000Z</time>
      </trkpt>
      <trkpt lat="49.34302" lon="-0.69534">
        <ele>71.303605</ele>
        <time>2022-08-04T09:52:41.000Z</time>
      </trkpt>
      <trkpt lat="49.34304" lon="-0.69528">
        <ele>71.310675</ele>
        <time>2022-08-04T09:52:42.000Z</time>
      </trkpt>
      <trkpt lat="49.34305" lon="-0.69522">
        <ele>71.317537</ele>
        <time>2022-08-04T09:52:43.000Z</time>
      </trkpt>
      <trkpt lat="49.34306" lon="-0.69517">
        <ele>71.323776</ele>
        <time>2022-08-04T09:52:44.000Z</time>
      </trkpt>
      <trkpt lat="49.34308" lon="-0.69512">
        <ele>71.330327</ele>
        <time>2022-08-04T09:52:45.000Z</time>
      </trkpt>
      <trkpt lat="49.3431" lon="-0.69507">
        <ele>71.337108</ele>
        <time>2022-08-04T09:52:46.000Z</time>
      </trkpt>
      <trkpt lat="49.34311" lon="-0.69502">
        <ele>71.343659</ele>
        <time>2022-08-04T09:52:47.000Z</time>
      </trkpt>
      <trkpt lat="49.34313" lon="-0.69496">
        <ele>71.35052</ele>
        <time>2022-08-04T09:52:48.000Z</time>
      </trkpt>
      <trkpt lat="49.34314" lon="-0.69491">
        <ele>71.356759</ele>
        <time>2022-08-04T09:52:49.000Z</time>
      </trkpt>
      <trkpt lat="49.34316" lon="-0.69486">
        <ele>71.363003</ele>
        <time>2022-08-04T09:52:50.000Z</time>
      </trkpt>
      <trkpt lat="49.34317" lon="-0.69482">
        <ele>71.368922</ele>
        <time>2022-08-04T09:52:51.000Z</time>
      </trkpt>
      <trkpt lat="49.3432" lon="-0.69478">
        <ele>71.374749</ele>
        <time>2022-08-04T09:52:52.000Z</time>
      </trkpt>
      <trkpt lat="49.34322" lon="-0.69476">
        <ele>71.379219</ele>
        <time>2022-08-04T09:52:53.000Z</time>
      </trkpt>
      <trkpt lat="49.34325" lon="-0.69475">
        <ele>71.384076</ele>
        <time>2022-08-04T09:52:54.000Z</time>
      </trkpt>
      <trkpt lat="49.34329" lon="-0.69474">
        <ele>71.391451</ele>
        <time>2022-08-04T09:52:56.000Z</time>
      </trkpt>
      <trkpt lat="49.34331" lon="-0.69475">
        <ele>71.395339</ele>
        <time>2022-08-04T09:52:57.000Z</time>
      </trkpt>
      <trkpt lat="49.34334" lon="-0.69476">
        <ele>71.399976</ele>
        <time>2022-08-04T09:52:58.000Z</time>
      </trkpt>
      <trkpt lat="49.34336" lon="-0.69477">
        <ele>71.404058</ele>
        <time>2022-08-04T09:52:59.000Z</time>
      </trkpt>
      <trkpt lat="49.34339" lon="-0.69478">
        <ele>71.40934</ele>
        <time>2022-08-04T09:53:00.000Z</time>
      </trkpt>
      <trkpt lat="49.34341" lon="-0.69479">
        <ele>71.413462</ele>
        <time>2022-08-04T09:53:01.000Z</time>
      </trkpt>
      <trkpt lat="49.34343" lon="-0.69481">
        <ele>71.41674</ele>
        <time>2022-08-04T09:53:02.000Z</time>
      </trkpt>
      <trkpt lat="49.34346" lon="-0.69484">
        <ele>71.422792</ele>
        <time>2022-08-04T09:53:03.000Z</time>
      </trkpt>
      <trkpt lat="49.34347" lon="-0.69486">
        <ele>71.426784</ele>
        <time>2022-08-04T09:53:04.000Z</time>
      </trkpt>
      <trkpt lat="49.34349" lon="-0.69488">
        <ele>71.431313</ele>
        <time>2022-08-04T09:53:05.000Z</time>
      </trkpt>
      <trkpt lat="49.34352" lon="-0.6949">
        <ele>71.420098</ele>
        <time>2022-08-04T09:53:06.000Z</time>
      </trkpt>
      <trkpt lat="49.34354" lon="-0.69492">
        <ele>71.403794</ele>
        <time>2022-08-04T09:53:07.000Z</time>
      </trkpt>
      <trkpt lat="49.34357" lon="-0.69492">
        <ele>71.381622</ele>
        <time>2022-08-04T09:53:08.000Z</time>
      </trkpt>
      <trkpt lat="49.3436" lon="-0.69492">
        <ele>71.363589</ele>
        <time>2022-08-04T09:53:09.000Z</time>
      </trkpt>
      <trkpt lat="49.34362" lon="-0.69491">
        <ele>71.348347</ele>
        <time>2022-08-04T09:53:10.000Z</time>
      </trkpt>
      <trkpt lat="49.34364" lon="-0.69492">
        <ele>71.335176</ele>
        <time>2022-08-04T09:53:11.000Z</time>
      </trkpt>
      <trkpt lat="49.34366" lon="-0.69493">
        <ele>71.31752</ele>
        <time>2022-08-04T09:53:13.000Z</time>
      </trkpt>
      <trkpt lat="49.34368" lon="-0.69495">
        <ele>71.302961</ele>
        <time>2022-08-04T09:53:17.000Z</time>
      </trkpt>
      <trkpt lat="49.3432" lon="-0.6948">
        <ele>70.965938</ele>
        <time>2022-08-04T10:36:11.000Z</time>
      </trkpt>
      <trkpt lat="49.34318" lon="-0.69477">
        <ele>70.949492</ele>
        <time>2022-08-04T10:36:13.000Z</time>
      </trkpt>
      <trkpt lat="49.34319" lon="-0.69473">
        <ele>70.928353</ele>
        <time>2022-08-04T10:36:15.000Z</time>
      </trkpt>
      <trkpt lat="49.3432" lon="-0.69467">
        <ele>70.901331</ele>
        <time>2022-08-04T10:36:17.000Z</time>
      </trkpt>
      <trkpt lat="49.3432" lon="-0.69464">
        <ele>70.886759</ele>
        <time>2022-08-04T10:36:18.000Z</time>
      </trkpt>
      <trkpt lat="49.34321" lon="-0.6946">
        <ele>70.870692</ele>
        <time>2022-08-04T10:36:19.000Z</time>
      </trkpt>
      <trkpt lat="49.34321" lon="-0.69457">
        <ele>70.855822</ele>
        <time>2022-08-04T10:36:20.000Z</time>
      </trkpt>
      <trkpt lat="49.34321" lon="-0.69454">
        <ele>70.841254</ele>
        <time>2022-08-04T10:36:21.000Z</time>
      </trkpt>
      <trkpt lat="49.34322" lon="-0.69451">
        <ele>70.827132</ele>
        <time>2022-08-04T10:36:22.000Z</time>
      </trkpt>
      <trkpt lat="49.34322" lon="-0.69447">
        <ele>70.811812</ele>
        <time>2022-08-04T10:36:23.000Z</time>
      </trkpt>
      <trkpt lat="49.34322" lon="-0.69444">
        <ele>70.79559</ele>
        <time>2022-08-04T10:36:24.000Z</time>
      </trkpt>
      <trkpt lat="49.34322" lon="-0.69439">
        <ele>70.775764</ele>
        <time>2022-08-04T10:36:25.000Z</time>
      </trkpt>
      <trkpt lat="49.34322" lon="-0.69435">
        <ele>70.756388</ele>
        <time>2022-08-04T10:36:26.000Z</time>
      </trkpt>
      <trkpt lat="49.34321" lon="-0.69431">
        <ele>70.736902</ele>
        <time>2022-08-04T10:36:27.000Z</time>
      </trkpt>
      <trkpt lat="49.34321" lon="-0.69427">
        <ele>70.717977</ele>
        <time>2022-08-04T10:36:28.000Z</time>
      </trkpt>
      <trkpt lat="49.34321" lon="-0.69422">
        <ele>70.697594</ele>
        <time>2022-08-04T10:36:29.000Z</time>
      </trkpt>
      <trkpt lat="49.3432" lon="-0.69418">
        <ele>70.678288</ele>
        <time>2022-08-04T10:36:30.000Z</time>
      </trkpt>
      <trkpt lat="49.3432" lon="-0.69414">
        <ele>70.659363</ele>
        <time>2022-08-04T10:36:31.000Z</time>
      </trkpt>
      <trkpt lat="49.3432" lon="-0.6941">
        <ele>70.639877</ele>
        <time>2022-08-04T10:36:32.000Z</time>
      </trkpt>
      <trkpt lat="49.34319" lon="-0.69405">
        <ele>70.620342</ele>
        <time>2022-08-04T10:36:33.000Z</time>
      </trkpt>
      <trkpt lat="49.34318" lon="-0.69401">
        <ele>70.600089</ele>
        <time>2022-08-04T10:36:34.000Z</time>
      </trkpt>
      <trkpt lat="49.34317" lon="-0.69397">
        <ele>70.580554</ele>
        <time>2022-08-04T10:36:35.000Z</time>
      </trkpt>
      <trkpt lat="49.34316" lon="-0.69393">
        <ele>70.560632</ele>
        <time>2022-08-04T10:36:36.000Z</time>
      </trkpt>
      <trkpt lat="49.34316" lon="-0.69389">
        <ele>70.541533</ele>
        <time>2022-08-04T10:36:37.000Z</time>
      </trkpt>
      <trkpt lat="49.34315" lon="-0.69385">
        <ele>70.522495</ele>
        <time>2022-08-04T10:36:38.000Z</time>
      </trkpt>
      <trkpt lat="49.34314" lon="-0.6938">
        <ele>70.502346</ele>
        <time>2022-08-04T10:36:39.000Z</time>
      </trkpt>
      <trkpt lat="49.34313" lon="-0.69376">
        <ele>70.483277</ele>
        <time>2022-08-04T10:36:40.000Z</time>
      </trkpt>
      <trkpt lat="49.34312" lon="-0.69373">
        <ele>70.46481</ele>
        <time>2022-08-04T10:36:41.000Z</time>
      </trkpt>
      <trkpt lat="49.34312" lon="-0.69369">
        <ele>70.446315</ele>
        <time>2022-08-04T10:36:42.000Z</time>
      </trkpt>
      <trkpt lat="49.34311" lon="-0.69365">
        <ele>70.428172</ele>
        <time>2022-08-04T10:36:43.000Z</time>
      </trkpt>
      <trkpt lat="49.34311" lon="-0.69361">
        <ele>70.410148</ele>
        <time>2022-08-04T10:36:44.000Z</time>
      </trkpt>
      <trkpt lat="49.34311" lon="-0.69356">
        <ele>70.391021</ele>
        <time>2022-08-04T10:36:45.000Z</time>
      </trkpt>
      <trkpt lat="49.34311" lon="-0.69352">
        <ele>70.372547</ele>
        <time>2022-08-04T10:36:46.000Z</time>
      </trkpt>
      <trkpt lat="49.3431" lon="-0.69348">
        <ele>70.352291</ele>
        <time>2022-08-04T10:36:47.000Z</time>
      </trkpt>
      <trkpt lat="49.3431" lon="-0.69344">
        <ele>70.3337</ele>
        <time>2022-08-04T10:36:48.000Z</time>
      </trkpt>
      <trkpt lat="49.3431" lon="-0.6934">
        <ele>70.314661</ele>
        <time>2022-08-04T10:36:49.000Z</time>
      </trkpt>
      <trkpt lat="49.3431" lon="-0.69335">
        <ele>70.295285</ele>
        <time>2022-08-04T10:36:50.000Z</time>
      </trkpt>
      <trkpt lat="49.3431" lon="-0.69331">
        <ele>70.27636</ele>
        <time>2022-08-04T10:36:51.000Z</time>
      </trkpt>
      <trkpt lat="49.3431" lon="-0.69327">
        <ele>70.256874</ele>
        <time>2022-08-04T10:36:52.000Z</time>
      </trkpt>
      <trkpt lat="49.3431" lon="-0.69322">
        <ele>70.237047</ele>
        <time>2022-08-04T10:36:53.000Z</time>
      </trkpt>
      <trkpt lat="49.34311" lon="-0.69318">
        <ele>70.217979</ele>
        <time>2022-08-04T10:36:54.000Z</time>
      </trkpt>
      <trkpt lat="49.34312" lon="-0.69315">
        <ele>70.200185</ele>
        <time>2022-08-04T10:36:55.000Z</time>
      </trkpt>
      <trkpt lat="49.34312" lon="-0.69311">
        <ele>70.174579</ele>
        <time>2022-08-04T10:36:56.000Z</time>
      </trkpt>
      <trkpt lat="49.34312" lon="-0.69307">
        <ele>70.134284</ele>
        <time>2022-08-04T10:36:57.000Z</time>
      </trkpt>
      <trkpt lat="49.34312" lon="-0.69303">
        <ele>70.098121</ele>
        <time>2022-08-04T10:36:58.000Z</time>
      </trkpt>
      <trkpt lat="49.34312" lon="-0.69299">
        <ele>70.056792</ele>
        <time>2022-08-04T10:36:59.000Z</time>
      </trkpt>
      <trkpt lat="49.34312" lon="-0.69295">
        <ele>70.01519</ele>
        <time>2022-08-04T10:37:00.000Z</time>
      </trkpt>
      <trkpt lat="49.34312" lon="-0.69291">
        <ele>69.972562</ele>
        <time>2022-08-04T10:37:01.000Z</time>
      </trkpt>
      <trkpt lat="49.34312" lon="-0.69287">
        <ele>69.929167</ele>
        <time>2022-08-04T10:37:02.000Z</time>
      </trkpt>
      <trkpt lat="49.34311" lon="-0.69283">
        <ele>69.886373</ele>
        <time>2022-08-04T10:37:03.000Z</time>
      </trkpt>
      <trkpt lat="49.3431" lon="-0.69279">
        <ele>69.841947</ele>
        <time>2022-08-04T10:37:04.000Z</time>
      </trkpt>
      <trkpt lat="49.3431" lon="-0.69275">
        <ele>69.797519</ele>
        <time>2022-08-04T10:37:05.000Z</time>
      </trkpt>
      <trkpt lat="49.3431" lon="-0.6927">
        <ele>69.753864</ele>
        <time>2022-08-04T10:37:06.000Z</time>
      </trkpt>
      <trkpt lat="49.34309" lon="-0.69267">
        <ele>69.711519</ele>
        <time>2022-08-04T10:37:07.000Z</time>
      </trkpt>
      <trkpt lat="49.34307" lon="-0.69264">
        <ele>69.668291</ele>
        <time>2022-08-04T10:37:08.000Z</time>
      </trkpt>
      <trkpt lat="49.34305" lon="-0.69262">
        <ele>69.627742</ele>
        <time>2022-08-04T10:37:09.000Z</time>
      </trkpt>
      <trkpt lat="49.34302" lon="-0.69261">
        <ele>69.581016</ele>
        <time>2022-08-04T10:37:10.000Z</time>
      </trkpt>
      <trkpt lat="49.34299" lon="-0.69261">
        <ele>69.534922</ele>
        <time>2022-08-04T10:37:11.000Z</time>
      </trkpt>
      <trkpt lat="49.34296" lon="-0.69262">
        <ele>69.478949</ele>
        <time>2022-08-04T10:37:12.000Z</time>
      </trkpt>
      <trkpt lat="49.34293" lon="-0.69263">
        <ele>69.436179</ele>
        <time>2022-08-04T10:37:13.000Z</time>
      </trkpt>
      <trkpt lat="49.3429" lon="-0.69264">
        <ele>69.379901</ele>
        <time>2022-08-04T10:37:14.000Z</time>
      </trkpt>
      <trkpt lat="49.34286" lon="-0.69264">
        <ele>69.329154</ele>
        <time>2022-08-04T10:37:15.000Z</time>
      </trkpt>
      <trkpt lat="49.34283" lon="-0.69262">
        <ele>69.276386</ele>
        <time>2022-08-04T10:37:16.000Z</time>
      </trkpt>
      <trkpt lat="49.3428" lon="-0.6926">
        <ele>69.219443</ele>
        <time>2022-08-04T10:37:17.000Z</time>
      </trkpt>
      <trkpt lat="49.34277" lon="-0.69256">
        <ele>69.162508</ele>
        <time>2022-08-04T10:37:18.000Z</time>
      </trkpt>
      <trkpt lat="49.34275" lon="-0.69252">
        <ele>69.099694</ele>
        <time>2022-08-04T10:37:19.000Z</time>
      </trkpt>
      <trkpt lat="49.34273" lon="-0.69248">
        <ele>69.045944</ele>
        <time>2022-08-04T10:37:20.000Z</time>
      </trkpt>
      <trkpt lat="49.34271" lon="-0.69243">
        <ele>68.993113</ele>
        <time>2022-08-04T10:37:21.000Z</time>
      </trkpt>
      <trkpt lat="49.3427" lon="-0.69239">
        <ele>68.948411</ele>
        <time>2022-08-04T10:37:22.000Z</time>
      </trkpt>
      <trkpt lat="49.34269" lon="-0.69235">
        <ele>68.902509</ele>
        <time>2022-08-04T10:37:23.000Z</time>
      </trkpt>
      <trkpt lat="49.3427" lon="-0.69231">
        <ele>68.860696</ele>
        <time>2022-08-04T10:37:24.000Z</time>
      </trkpt>
      <trkpt lat="49.34271" lon="-0.69227">
        <ele>68.820855</ele>
        <time>2022-08-04T10:37:25.000Z</time>
      </trkpt>
      <trkpt lat="49.34272" lon="-0.69224">
        <ele>68.774972</ele>
        <time>2022-08-04T10:37:26.000Z</time>
      </trkpt>
      <trkpt lat="49.34274" lon="-0.6922">
        <ele>68.730238</ele>
        <time>2022-08-04T10:37:27.000Z</time>
      </trkpt>
      <trkpt lat="49.34276" lon="-0.69218">
        <ele>68.691758</ele>
        <time>2022-08-04T10:37:28.000Z</time>
      </trkpt>
      <trkpt lat="49.34277" lon="-0.69215">
        <ele>68.653277</ele>
        <time>2022-08-04T10:37:29.000Z</time>
      </trkpt>
      <trkpt lat="49.34279" lon="-0.69211">
        <ele>68.612545</ele>
        <time>2022-08-04T10:37:30.000Z</time>
      </trkpt>
      <trkpt lat="49.3428" lon="-0.69208">
        <ele>68.573057</ele>
        <time>2022-08-04T10:37:31.000Z</time>
      </trkpt>
      <trkpt lat="49.3428" lon="-0.69204">
        <ele>68.535558</ele>
        <time>2022-08-04T10:37:32.000Z</time>
      </trkpt>
      <trkpt lat="49.3428" lon="-0.69201">
        <ele>68.499395</ele>
        <time>2022-08-04T10:37:33.000Z</time>
      </trkpt>
      <trkpt lat="49.3428" lon="-0.69197">
        <ele>68.464266</ele>
        <time>2022-08-04T10:37:34.000Z</time>
      </trkpt>
      <trkpt lat="49.34279" lon="-0.69194">
        <ele>68.426872</ele>
        <time>2022-08-04T10:37:35.000Z</time>
      </trkpt>
      <trkpt lat="49.34279" lon="-0.69191">
        <ele>68.392973</ele>
        <time>2022-08-04T10:37:36.000Z</time>
      </trkpt>
      <trkpt lat="49.34278" lon="-0.69187">
        <ele>68.357522</ele>
        <time>2022-08-04T10:37:37.000Z</time>
      </trkpt>
      <trkpt lat="49.34278" lon="-0.69184">
        <ele>68.321359</ele>
        <time>2022-08-04T10:37:38.000Z</time>
      </trkpt>
      <trkpt lat="49.34278" lon="-0.6918">
        <ele>68.282966</ele>
        <time>2022-08-04T10:37:39.000Z</time>
      </trkpt>
      <trkpt lat="49.34277" lon="-0.69177">
        <ele>68.246251</ele>
        <time>2022-08-04T10:37:40.000Z</time>
      </trkpt>
      <trkpt lat="49.34277" lon="-0.69173">
        <ele>68.207373</ele>
        <time>2022-08-04T10:37:41.000Z</time>
      </trkpt>
      <trkpt lat="49.34276" lon="-0.6917">
        <ele>68.168849</ele>
        <time>2022-08-04T10:37:42.000Z</time>
      </trkpt>
      <trkpt lat="49.34276" lon="-0.69166">
        <ele>68.129077</ele>
        <time>2022-08-04T10:37:43.000Z</time>
      </trkpt>
      <trkpt lat="49.34276" lon="-0.69162">
        <ele>68.090553</ele>
        <time>2022-08-04T10:37:44.000Z</time>
      </trkpt>
      <trkpt lat="49.34275" lon="-0.69158">
        <ele>68.048776</ele>
        <time>2022-08-04T10:37:45.000Z</time>
      </trkpt>
      <trkpt lat="49.34275" lon="-0.69154">
        <ele>68.008481</ele>
        <time>2022-08-04T10:37:46.000Z</time>
      </trkpt>
      <trkpt lat="49.34274" lon="-0.69151">
        <ele>67.968709</ele>
        <time>2022-08-04T10:37:47.000Z</time>
      </trkpt>
      <trkpt lat="49.34274" lon="-0.69147">
        <ele>67.929159</ele>
        <time>2022-08-04T10:37:48.000Z</time>
      </trkpt>
      <trkpt lat="49.34274" lon="-0.69143">
        <ele>67.888583</ele>
        <time>2022-08-04T10:37:49.000Z</time>
      </trkpt>
      <trkpt lat="49.34273" lon="-0.69139">
        <ele>67.845955</ele>
        <time>2022-08-04T10:37:50.000Z</time>
      </trkpt>
      <trkpt lat="49.34273" lon="-0.69135">
        <ele>67.801162</ele>
        <time>2022-08-04T10:37:51.000Z</time>
      </trkpt>
      <trkpt lat="49.34273" lon="-0.69131">
        <ele>67.759833</ele>
        <time>2022-08-04T10:37:52.000Z</time>
      </trkpt>
      <trkpt lat="49.34272" lon="-0.69126">
        <ele>67.715406</ele>
        <time>2022-08-04T10:37:53.000Z</time>
      </trkpt>
      <trkpt lat="49.34272" lon="-0.69122">
        <ele>67.673804</ele>
        <time>2022-08-04T10:37:54.000Z</time>
      </trkpt>
      <trkpt lat="49.34271" lon="-0.69118">
        <ele>67.629537</ele>
        <time>2022-08-04T10:37:55.000Z</time>
      </trkpt>
      <trkpt lat="49.3427" lon="-0.69115">
        <ele>67.589697</ele>
        <time>2022-08-04T10:37:56.000Z</time>
      </trkpt>
      <trkpt lat="49.34268" lon="-0.69111">
        <ele>67.546362</ele>
        <time>2022-08-04T10:37:57.000Z</time>
      </trkpt>
      <trkpt lat="49.34267" lon="-0.69108">
        <ele>67.506304</ele>
        <time>2022-08-04T10:37:58.000Z</time>
      </trkpt>
      <trkpt lat="49.34266" lon="-0.69103">
        <ele>67.452453</ele>
        <time>2022-08-04T10:38:00.000Z</time>
      </trkpt>
      <trkpt lat="49.34266" lon="-0.69099">
        <ele>67.405715</ele>
        <time>2022-08-04T10:38:02.000Z</time>
      </trkpt>
      <trkpt lat="49.34264" lon="-0.69097">
        <ele>67.376525</ele>
        <time>2022-08-04T10:38:03.000Z</time>
      </trkpt>
      <trkpt lat="49.34262" lon="-0.69092">
        <ele>67.333133</ele>
        <time>2022-08-04T10:38:05.000Z</time>
      </trkpt>
      <trkpt lat="49.34261" lon="-0.6909">
        <ele>67.326937</ele>
        <time>2022-08-04T10:38:06.000Z</time>
      </trkpt>
      <trkpt lat="49.34259" lon="-0.69088">
        <ele>67.319908</ele>
        <time>2022-08-04T10:38:07.000Z</time>
      </trkpt>
      <trkpt lat="49.34257" lon="-0.69087">
        <ele>67.313308</ele>
        <time>2022-08-04T10:38:08.000Z</time>
      </trkpt>
      <trkpt lat="49.34253" lon="-0.69086">
        <ele>67.303369</ele>
        <time>2022-08-04T10:38:10.000Z</time>
      </trkpt>
      <trkpt lat="49.34251" lon="-0.69086">
        <ele>67.295853</ele>
        <time>2022-08-04T10:38:11.000Z</time>
      </trkpt>
      <trkpt lat="49.34248" lon="-0.69086">
        <ele>67.287959</ele>
        <time>2022-08-04T10:38:12.000Z</time>
      </trkpt>
      <trkpt lat="49.34246" lon="-0.69087">
        <ele>67.280329</ele>
        <time>2022-08-04T10:38:13.000Z</time>
      </trkpt>
      <trkpt lat="49.34244" lon="-0.69088">
        <ele>67.273249</ele>
        <time>2022-08-04T10:38:14.000Z</time>
      </trkpt>
      <trkpt lat="49.3424" lon="-0.69089">
        <ele>67.263481</ele>
        <time>2022-08-04T10:38:15.000Z</time>
      </trkpt>
      <trkpt lat="49.34237" lon="-0.6909">
        <ele>67.252792</ele>
        <time>2022-08-04T10:38:16.000Z</time>
      </trkpt>
      <trkpt lat="49.34234" lon="-0.6909">
        <ele>67.244898</ele>
        <time>2022-08-04T10:38:17.000Z</time>
      </trkpt>
      <trkpt lat="49.34231" lon="-0.69091">
        <ele>67.235093</ele>
        <time>2022-08-04T10:38:18.000Z</time>
      </trkpt>
      <trkpt lat="49.34228" lon="-0.69092">
        <ele>67.225388</ele>
        <time>2022-08-04T10:38:19.000Z</time>
      </trkpt>
      <trkpt lat="49.34224" lon="-0.69092">
        <ele>67.213979</ele>
        <time>2022-08-04T10:38:20.000Z</time>
      </trkpt>
      <trkpt lat="49.34221" lon="-0.69091">
        <ele>67.20329</ele>
        <time>2022-08-04T10:38:21.000Z</time>
      </trkpt>
      <trkpt lat="49.34218" lon="-0.69089">
        <ele>67.194559</ele>
        <time>2022-08-04T10:38:22.000Z</time>
      </trkpt>
      <trkpt lat="49.34216" lon="-0.69086">
        <ele>67.185978</ele>
        <time>2022-08-04T10:38:23.000Z</time>
      </trkpt>
      <trkpt lat="49.34214" lon="-0.69082">
        <ele>67.176962</ele>
        <time>2022-08-04T10:38:24.000Z</time>
      </trkpt>
      <trkpt lat="49.34213" lon="-0.69078">
        <ele>67.167476</ele>
        <time>2022-08-04T10:38:25.000Z</time>
      </trkpt>
      <trkpt lat="49.34213" lon="-0.69073">
        <ele>67.157531</ele>
        <time>2022-08-04T10:38:26.000Z</time>
      </trkpt>
      <trkpt lat="49.34211" lon="-0.69068">
        <ele>67.147181</ele>
        <time>2022-08-04T10:38:27.000Z</time>
      </trkpt>
      <trkpt lat="49.3421" lon="-0.69063">
        <ele>67.137373</ele>
        <time>2022-08-04T10:38:28.000Z</time>
      </trkpt>
      <trkpt lat="49.34209" lon="-0.69058">
        <ele>67.126842</ele>
        <time>2022-08-04T10:38:29.000Z</time>
      </trkpt>
      <trkpt lat="49.34208" lon="-0.69053">
        <ele>67.116126</ele>
        <time>2022-08-04T10:38:30.000Z</time>
      </trkpt>
      <trkpt lat="49.34207" lon="-0.69047">
        <ele>67.104681</ele>
        <time>2022-08-04T10:38:31.000Z</time>
      </trkpt>
      <trkpt lat="49.34206" lon="-0.69042">
        <ele>67.093397</ele>
        <time>2022-08-04T10:38:32.000Z</time>
      </trkpt>
      <trkpt lat="49.34205" lon="-0.69036">
        <ele>67.081472</ele>
        <time>2022-08-04T10:38:33.000Z</time>
      </trkpt>
      <trkpt lat="49.34204" lon="-0.6903">
        <ele>67.069597</ele>
        <time>2022-08-04T10:38:34.000Z</time>
      </trkpt>
      <trkpt lat="49.34203" lon="-0.69024">
        <ele>67.056913</ele>
        <time>2022-08-04T10:38:35.000Z</time>
      </trkpt>
      <trkpt lat="49.34203" lon="-0.69018">
        <ele>67.045038</ele>
        <time>2022-08-04T10:38:36.000Z</time>
      </trkpt>
      <trkpt lat="49.34201" lon="-0.69012">
        <ele>67.032669</ele>
        <time>2022-08-04T10:38:37.000Z</time>
      </trkpt>
      <trkpt lat="49.34201" lon="-0.69005">
        <ele>67.02036</ele>
        <time>2022-08-04T10:38:38.000Z</time>
      </trkpt>
      <trkpt lat="49.342" lon="-0.68999">
        <ele>67.008125</ele>
        <time>2022-08-04T10:38:39.000Z</time>
      </trkpt>
      <trkpt lat="49.34198" lon="-0.68993">
        <ele>66.995624</ele>
        <time>2022-08-04T10:38:40.000Z</time>
      </trkpt>
      <trkpt lat="49.34197" lon="-0.68988">
        <ele>66.983303</ele>
        <time>2022-08-04T10:38:41.000Z</time>
      </trkpt>
      <trkpt lat="49.34195" lon="-0.68982">
        <ele>66.970778</ele>
        <time>2022-08-04T10:38:42.000Z</time>
      </trkpt>
      <trkpt lat="49.34193" lon="-0.68976">
        <ele>66.958409</ele>
        <time>2022-08-04T10:38:43.000Z</time>
      </trkpt>
      <trkpt lat="49.34192" lon="-0.6897">
        <ele>66.946104</ele>
        <time>2022-08-04T10:38:44.000Z</time>
      </trkpt>
      <trkpt lat="49.34191" lon="-0.68964">
        <ele>66.933363</ele>
        <time>2022-08-04T10:38:45.000Z</time>
      </trkpt>
      <trkpt lat="49.3419" lon="-0.68958">
        <ele>66.921085</ele>
        <time>2022-08-04T10:38:46.000Z</time>
      </trkpt>
      <trkpt lat="49.34189" lon="-0.68951">
        <ele>66.908401</ele>
        <time>2022-08-04T10:38:47.000Z</time>
      </trkpt>
      <trkpt lat="49.34187" lon="-0.68945">
        <ele>66.894808</ele>
        <time>2022-08-04T10:38:48.000Z</time>
      </trkpt>
      <trkpt lat="49.34186" lon="-0.68938">
        <ele>66.881743</ele>
        <time>2022-08-04T10:38:49.000Z</time>
      </trkpt>
      <trkpt lat="49.34185" lon="-0.68931">
        <ele>66.867416</ele>
        <time>2022-08-04T10:38:50.000Z</time>
      </trkpt>
      <trkpt lat="49.34183" lon="-0.68924">
        <ele>66.853068</ele>
        <time>2022-08-04T10:38:51.000Z</time>
      </trkpt>
      <trkpt lat="49.34182" lon="-0.68917">
        <ele>66.838452</ele>
        <time>2022-08-04T10:38:52.000Z</time>
      </trkpt>
      <trkpt lat="49.34181" lon="-0.6891">
        <ele>66.823571</ele>
        <time>2022-08-04T10:38:53.000Z</time>
      </trkpt>
      <trkpt lat="49.34179" lon="-0.68903">
        <ele>66.808874</ele>
        <time>2022-08-04T10:38:54.000Z</time>
      </trkpt>
      <trkpt lat="49.34178" lon="-0.68895">
        <ele>66.789713</ele>
        <time>2022-08-04T10:38:55.000Z</time>
      </trkpt>
      <trkpt lat="49.34176" lon="-0.68888">
        <ele>66.74949</ele>
        <time>2022-08-04T10:38:56.000Z</time>
      </trkpt>
      <trkpt lat="49.34175" lon="-0.68881">
        <ele>66.709267</ele>
        <time>2022-08-04T10:38:57.000Z</time>
      </trkpt>
      <trkpt lat="49.34173" lon="-0.68874">
        <ele>66.669253</ele>
        <time>2022-08-04T10:38:58.000Z</time>
      </trkpt>
      <trkpt lat="49.34172" lon="-0.68867">
        <ele>66.630982</ele>
        <time>2022-08-04T10:38:59.000Z</time>
      </trkpt>
      <trkpt lat="49.34171" lon="-0.6886">
        <ele>66.591759</ele>
        <time>2022-08-04T10:39:00.000Z</time>
      </trkpt>
      <trkpt lat="49.34169" lon="-0.68852">
        <ele>66.552255</ele>
        <time>2022-08-04T10:39:01.000Z</time>
      </trkpt>
      <trkpt lat="49.34168" lon="-0.68845">
        <ele>66.513769</ele>
        <time>2022-08-04T10:39:02.000Z</time>
      </trkpt>
      <trkpt lat="49.34167" lon="-0.68838">
        <ele>66.475283</ele>
        <time>2022-08-04T10:39:03.000Z</time>
      </trkpt>
      <trkpt lat="49.34165" lon="-0.68831">
        <ele>66.436797</ele>
        <time>2022-08-04T10:39:04.000Z</time>
      </trkpt>
      <trkpt lat="49.34165" lon="-0.68824">
        <ele>66.399071</ele>
        <time>2022-08-04T10:39:05.000Z</time>
      </trkpt>
      <trkpt lat="49.34163" lon="-0.68817">
        <ele>66.359848</ele>
        <time>2022-08-04T10:39:06.000Z</time>
      </trkpt>
      <trkpt lat="49.34161" lon="-0.68811">
        <ele>66.321621</ele>
        <time>2022-08-04T10:39:07.000Z</time>
      </trkpt>
      <trkpt lat="49.3416" lon="-0.68804">
        <ele>66.28415</ele>
        <time>2022-08-04T10:39:08.000Z</time>
      </trkpt>
      <trkpt lat="49.34159" lon="-0.68797">
        <ele>66.246173</ele>
        <time>2022-08-04T10:39:09.000Z</time>
      </trkpt>
      <trkpt lat="49.34157" lon="-0.6879">
        <ele>66.209716</ele>
        <time>2022-08-04T10:39:10.000Z</time>
      </trkpt>
      <trkpt lat="49.34157" lon="-0.68784">
        <ele>66.173545</ele>
        <time>2022-08-04T10:39:11.000Z</time>
      </trkpt>
      <trkpt lat="49.34155" lon="-0.68777">
        <ele>66.137594</ele>
        <time>2022-08-04T10:39:12.000Z</time>
      </trkpt>
      <trkpt lat="49.34154" lon="-0.68771">
        <ele>66.100855</ele>
        <time>2022-08-04T10:39:13.000Z</time>
      </trkpt>
      <trkpt lat="49.34153" lon="-0.68766">
        <ele>66.073973</ele>
        <time>2022-08-04T10:39:14.000Z</time>
      </trkpt>
      <trkpt lat="49.34151" lon="-0.68758">
        <ele>66.030144</ele>
        <time>2022-08-04T10:39:15.000Z</time>
      </trkpt>
      <trkpt lat="49.34149" lon="-0.68752">
        <ele>65.994392</ele>
        <time>2022-08-04T10:39:16.000Z</time>
      </trkpt>
      <trkpt lat="49.34149" lon="-0.68745">
        <ele>65.96029</ele>
        <time>2022-08-04T10:39:17.000Z</time>
      </trkpt>
      <trkpt lat="49.34147" lon="-0.68739">
        <ele>65.924844</ele>
        <time>2022-08-04T10:39:18.000Z</time>
      </trkpt>
      <trkpt lat="49.34146" lon="-0.68732">
        <ele>65.889531</ele>
        <time>2022-08-04T10:39:19.000Z</time>
      </trkpt>
      <trkpt lat="49.34145" lon="-0.68726">
        <ele>65.853779</ele>
        <time>2022-08-04T10:39:20.000Z</time>
      </trkpt>
      <trkpt lat="49.34143" lon="-0.6872">
        <ele>65.818058</ele>
        <time>2022-08-04T10:39:21.000Z</time>
      </trkpt>
      <trkpt lat="49.34142" lon="-0.68713">
        <ele>65.782744</ele>
        <time>2022-08-04T10:39:22.000Z</time>
      </trkpt>
      <trkpt lat="49.34141" lon="-0.68707">
        <ele>65.746793</ele>
        <time>2022-08-04T10:39:23.000Z</time>
      </trkpt>
      <trkpt lat="49.3414" lon="-0.687">
        <ele>65.710622</ele>
        <time>2022-08-04T10:39:24.000Z</time>
      </trkpt>
      <trkpt lat="49.34139" lon="-0.68693">
        <ele>65.673388</ele>
        <time>2022-08-04T10:39:25.000Z</time>
      </trkpt>
      <trkpt lat="49.34137" lon="-0.68687">
        <ele>65.636425</ele>
        <time>2022-08-04T10:39:26.000Z</time>
      </trkpt>
      <trkpt lat="49.34136" lon="-0.6868">
        <ele>65.598694</ele>
        <time>2022-08-04T10:39:27.000Z</time>
      </trkpt>
      <trkpt lat="49.34135" lon="-0.68675">
        <ele>65.570101</ele>
        <time>2022-08-04T10:39:28.000Z</time>
      </trkpt>
      <trkpt lat="49.34133" lon="-0.68667">
        <ele>65.526863</ele>
        <time>2022-08-04T10:39:29.000Z</time>
      </trkpt>
      <trkpt lat="49.34132" lon="-0.6866">
        <ele>65.489103</ele>
        <time>2022-08-04T10:39:30.000Z</time>
      </trkpt>
      <trkpt lat="49.34131" lon="-0.68653">
        <ele>65.452646</ele>
        <time>2022-08-04T10:39:31.000Z</time>
      </trkpt>
      <trkpt lat="49.34129" lon="-0.68647">
        <ele>65.414915</ele>
        <time>2022-08-04T10:39:32.000Z</time>
      </trkpt>
      <trkpt lat="49.34128" lon="-0.6864">
        <ele>65.378056</ele>
        <time>2022-08-04T10:39:33.000Z</time>
      </trkpt>
      <trkpt lat="49.34127" lon="-0.68633">
        <ele>65.341317</ele>
        <time>2022-08-04T10:39:34.000Z</time>
      </trkpt>
      <trkpt lat="49.34125" lon="-0.68627">
        <ele>65.30116</ele>
        <time>2022-08-04T10:39:35.000Z</time>
      </trkpt>
      <trkpt lat="49.34124" lon="-0.6862">
        <ele>65.259144</ele>
        <time>2022-08-04T10:39:36.000Z</time>
      </trkpt>
      <trkpt lat="49.34123" lon="-0.68613">
        <ele>65.219701</ele>
        <time>2022-08-04T10:39:37.000Z</time>
      </trkpt>
      <trkpt lat="49.34122" lon="-0.68608">
        <ele>65.185477</ele>
        <time>2022-08-04T10:39:38.000Z</time>
      </trkpt>
      <trkpt lat="49.3412" lon="-0.68601">
        <ele>65.144585</ele>
        <time>2022-08-04T10:39:39.000Z</time>
      </trkpt>
      <trkpt lat="49.34119" lon="-0.68594">
        <ele>65.103131</ele>
        <time>2022-08-04T10:39:40.000Z</time>
      </trkpt>
      <trkpt lat="49.34118" lon="-0.68588">
        <ele>65.062486</ele>
        <time>2022-08-04T10:39:41.000Z</time>
      </trkpt>
      <trkpt lat="49.34117" lon="-0.68581">
        <ele>65.021032</ele>
        <time>2022-08-04T10:39:42.000Z</time>
      </trkpt>
      <trkpt lat="49.34115" lon="-0.68574">
        <ele>64.979291</ele>
        <time>2022-08-04T10:39:43.000Z</time>
      </trkpt>
      <trkpt lat="49.34114" lon="-0.68567">
        <ele>64.939084</ele>
        <time>2022-08-04T10:39:44.000Z</time>
      </trkpt>
      <trkpt lat="49.34113" lon="-0.68561">
        <ele>64.900682</ele>
        <time>2022-08-04T10:39:45.000Z</time>
      </trkpt>
      <trkpt lat="49.34112" lon="-0.68554">
        <ele>64.861615</ele>
        <time>2022-08-04T10:39:46.000Z</time>
      </trkpt>
      <trkpt lat="49.34111" lon="-0.68548">
        <ele>64.824072</ele>
        <time>2022-08-04T10:39:47.000Z</time>
      </trkpt>
      <trkpt lat="49.34109" lon="-0.68542">
        <ele>64.785064</ele>
        <time>2022-08-04T10:39:48.000Z</time>
      </trkpt>
      <trkpt lat="49.34109" lon="-0.68536">
        <ele>64.747908</ele>
        <time>2022-08-04T10:39:49.000Z</time>
      </trkpt>
      <trkpt lat="49.34107" lon="-0.68528">
        <ele>64.702511</ele>
        <time>2022-08-04T10:39:50.000Z</time>
      </trkpt>
      <trkpt lat="49.34106" lon="-0.68522">
        <ele>64.664968</ele>
        <time>2022-08-04T10:39:51.000Z</time>
      </trkpt>
      <trkpt lat="49.34105" lon="-0.68516">
        <ele>64.629523</ele>
        <time>2022-08-04T10:39:52.000Z</time>
      </trkpt>
      <trkpt lat="49.34104" lon="-0.68512">
        <ele>64.600728</ele>
        <time>2022-08-04T10:39:53.000Z</time>
      </trkpt>
      <trkpt lat="49.34102" lon="-0.68506">
        <ele>64.566504</ele>
        <time>2022-08-04T10:39:54.000Z</time>
      </trkpt>
      <trkpt lat="49.34101" lon="-0.68501">
        <ele>64.530626</ele>
        <time>2022-08-04T10:39:55.000Z</time>
      </trkpt>
      <trkpt lat="49.341" lon="-0.68495">
        <ele>64.495392</ele>
        <time>2022-08-04T10:39:56.000Z</time>
      </trkpt>
      <trkpt lat="49.34098" lon="-0.68489">
        <ele>64.459087</ele>
        <time>2022-08-04T10:39:57.000Z</time>
      </trkpt>
      <trkpt lat="49.34097" lon="-0.68484">
        <ele>64.425916</ele>
        <time>2022-08-04T10:39:58.000Z</time>
      </trkpt>
      <trkpt lat="49.34096" lon="-0.68478">
        <ele>64.39195</ele>
        <time>2022-08-04T10:39:59.000Z</time>
      </trkpt>
      <trkpt lat="49.34095" lon="-0.68473">
        <ele>64.358549</ele>
        <time>2022-08-04T10:40:00.000Z</time>
      </trkpt>
      <trkpt lat="49.34093" lon="-0.68467">
        <ele>64.321166</ele>
        <time>2022-08-04T10:40:01.000Z</time>
      </trkpt>
      <trkpt lat="49.34093" lon="-0.68461">
        <ele>64.287427</ele>
        <time>2022-08-04T10:40:02.000Z</time>
      </trkpt>
      <trkpt lat="49.34091" lon="-0.68456">
        <ele>64.253203</ele>
        <time>2022-08-04T10:40:03.000Z</time>
      </trkpt>
      <trkpt lat="49.3409" lon="-0.6845">
        <ele>64.217877</ele>
        <time>2022-08-04T10:40:04.000Z</time>
      </trkpt>
      <trkpt lat="49.34089" lon="-0.68443">
        <ele>64.176984</ele>
        <time>2022-08-04T10:40:05.000Z</time>
      </trkpt>
      <trkpt lat="49.34087" lon="-0.68437">
        <ele>64.139061</ele>
        <time>2022-08-04T10:40:06.000Z</time>
      </trkpt>
      <trkpt lat="49.34086" lon="-0.68432">
        <ele>64.103464</ele>
        <time>2022-08-04T10:40:07.000Z</time>
      </trkpt>
      <trkpt lat="49.34085" lon="-0.68426">
        <ele>64.067237</ele>
        <time>2022-08-04T10:40:08.000Z</time>
      </trkpt>
      <trkpt lat="49.34084" lon="-0.68419">
        <ele>64.029138</ele>
        <time>2022-08-04T10:40:09.000Z</time>
      </trkpt>
      <trkpt lat="49.34082" lon="-0.68414">
        <ele>63.993369</ele>
        <time>2022-08-04T10:40:10.000Z</time>
      </trkpt>
      <trkpt lat="49.34081" lon="-0.68408">
        <ele>63.957923</ele>
        <time>2022-08-04T10:40:11.000Z</time>
      </trkpt>
      <trkpt lat="49.3408" lon="-0.68402">
        <ele>63.920381</ele>
        <time>2022-08-04T10:40:12.000Z</time>
      </trkpt>
      <trkpt lat="49.34078" lon="-0.68396">
        <ele>63.882458</ele>
        <time>2022-08-04T10:40:13.000Z</time>
      </trkpt>
      <trkpt lat="49.34077" lon="-0.6839">
        <ele>63.846797</ele>
        <time>2022-08-04T10:40:14.000Z</time>
      </trkpt>
      <trkpt lat="49.34076" lon="-0.68384">
        <ele>63.80981</ele>
        <time>2022-08-04T10:40:15.000Z</time>
      </trkpt>
      <trkpt lat="49.34075" lon="-0.68378">
        <ele>63.773794</ele>
        <time>2022-08-04T10:40:16.000Z</time>
      </trkpt>
      <trkpt lat="49.34074" lon="-0.68372">
        <ele>63.737</ele>
        <time>2022-08-04T10:40:17.000Z</time>
      </trkpt>
      <trkpt lat="49.34073" lon="-0.68366">
        <ele>63.690781</ele>
        <time>2022-08-04T10:40:18.000Z</time>
      </trkpt>
      <trkpt lat="49.34072" lon="-0.68359">
        <ele>63.637298</ele>
        <time>2022-08-04T10:40:19.000Z</time>
      </trkpt>
      <trkpt lat="49.34072" lon="-0.68353">
        <ele>63.586019</ele>
        <time>2022-08-04T10:40:20.000Z</time>
      </trkpt>
      <trkpt lat="49.34071" lon="-0.68347">
        <ele>63.534118</ele>
        <time>2022-08-04T10:40:21.000Z</time>
      </trkpt>
      <trkpt lat="49.34071" lon="-0.68341">
        <ele>63.482016</ele>
        <time>2022-08-04T10:40:22.000Z</time>
      </trkpt>
      <trkpt lat="49.3407" lon="-0.68334">
        <ele>63.427868</ele>
        <time>2022-08-04T10:40:23.000Z</time>
      </trkpt>
      <trkpt lat="49.3407" lon="-0.68328">
        <ele>63.375766</ele>
        <time>2022-08-04T10:40:24.000Z</time>
      </trkpt>
      <trkpt lat="49.34069" lon="-0.68321">
        <ele>63.322736</ele>
        <time>2022-08-04T10:40:25.000Z</time>
      </trkpt>
      <trkpt lat="49.34069" lon="-0.68315">
        <ele>63.270634</ele>
        <time>2022-08-04T10:40:26.000Z</time>
      </trkpt>
      <trkpt lat="49.34069" lon="-0.68309">
        <ele>63.218532</ele>
        <time>2022-08-04T10:40:27.000Z</time>
      </trkpt>
      <trkpt lat="49.34068" lon="-0.68302">
        <ele>63.164383</ele>
        <time>2022-08-04T10:40:28.000Z</time>
      </trkpt>
      <trkpt lat="49.34068" lon="-0.68296">
        <ele>63.110043</ele>
        <time>2022-08-04T10:40:29.000Z</time>
      </trkpt>
      <trkpt lat="49.34067" lon="-0.68289">
        <ele>63.05465</ele>
        <time>2022-08-04T10:40:30.000Z</time>
      </trkpt>
      <trkpt lat="49.34067" lon="-0.68282">
        <ele>62.999257</ele>
        <time>2022-08-04T10:40:31.000Z</time>
      </trkpt>
      <trkpt lat="49.34066" lon="-0.68276">
        <ele>62.94417</ele>
        <time>2022-08-04T10:40:32.000Z</time>
      </trkpt>
      <trkpt lat="49.34065" lon="-0.68269">
        <ele>62.888553</ele>
        <time>2022-08-04T10:40:33.000Z</time>
      </trkpt>
      <trkpt lat="49.34064" lon="-0.68263">
        <ele>62.831859</ele>
        <time>2022-08-04T10:40:34.000Z</time>
      </trkpt>
      <trkpt lat="49.34063" lon="-0.68256">
        <ele>62.776076</ele>
        <time>2022-08-04T10:40:35.000Z</time>
      </trkpt>
      <trkpt lat="49.34062" lon="-0.68249">
        <ele>62.719994</ele>
        <time>2022-08-04T10:40:36.000Z</time>
      </trkpt>
      <trkpt lat="49.34061" lon="-0.68243">
        <ele>62.662496</ele>
        <time>2022-08-04T10:40:37.000Z</time>
      </trkpt>
      <trkpt lat="49.3406" lon="-0.68236">
        <ele>62.603646</ele>
        <time>2022-08-04T10:40:38.000Z</time>
      </trkpt>
      <trkpt lat="49.34059" lon="-0.68229">
        <ele>62.546147</ele>
        <time>2022-08-04T10:40:39.000Z</time>
      </trkpt>
      <trkpt lat="49.34058" lon="-0.68222">
        <ele>62.486903</ele>
        <time>2022-08-04T10:40:40.000Z</time>
      </trkpt>
      <trkpt lat="49.34057" lon="-0.68215">
        <ele>62.42967</ele>
        <time>2022-08-04T10:40:41.000Z</time>
      </trkpt>
      <trkpt lat="49.34055" lon="-0.68208">
        <ele>62.370038</ele>
        <time>2022-08-04T10:40:42.000Z</time>
      </trkpt>
      <trkpt lat="49.34054" lon="-0.68201">
        <ele>62.310001</ele>
        <time>2022-08-04T10:40:43.000Z</time>
      </trkpt>
      <trkpt lat="49.34053" lon="-0.68194">
        <ele>62.249964</ele>
        <time>2022-08-04T10:40:44.000Z</time>
      </trkpt>
      <trkpt lat="49.34052" lon="-0.68187">
        <ele>62.19072</ele>
        <time>2022-08-04T10:40:45.000Z</time>
      </trkpt>
      <trkpt lat="49.3405" lon="-0.6818">
        <ele>62.130683</ele>
        <time>2022-08-04T10:40:46.000Z</time>
      </trkpt>
      <trkpt lat="49.34049" lon="-0.68173">
        <ele>62.070981</ele>
        <time>2022-08-04T10:40:47.000Z</time>
      </trkpt>
      <trkpt lat="49.34047" lon="-0.68167">
        <ele>62.011348</ele>
        <time>2022-08-04T10:40:48.000Z</time>
      </trkpt>
      <trkpt lat="49.34046" lon="-0.6816">
        <ele>61.951715</ele>
        <time>2022-08-04T10:40:49.000Z</time>
      </trkpt>
      <trkpt lat="49.34044" lon="-0.68153">
        <ele>61.890929</ele>
        <time>2022-08-04T10:40:50.000Z</time>
      </trkpt>
      <trkpt lat="49.34042" lon="-0.68146">
        <ele>61.831296</ele>
        <time>2022-08-04T10:40:51.000Z</time>
      </trkpt>
      <trkpt lat="49.34041" lon="-0.6814">
        <ele>61.773983</ele>
        <time>2022-08-04T10:40:52.000Z</time>
      </trkpt>
      <trkpt lat="49.34039" lon="-0.68133">
        <ele>61.713197</ele>
        <time>2022-08-04T10:40:53.000Z</time>
      </trkpt>
      <trkpt lat="49.34037" lon="-0.68126">
        <ele>61.653682</ele>
        <time>2022-08-04T10:40:54.000Z</time>
      </trkpt>
      <trkpt lat="49.34036" lon="-0.6812">
        <ele>61.594824</ele>
        <time>2022-08-04T10:40:55.000Z</time>
      </trkpt>
      <trkpt lat="49.34034" lon="-0.68113">
        <ele>61.537163</ele>
        <time>2022-08-04T10:40:56.000Z</time>
      </trkpt>
      <trkpt lat="49.34033" lon="-0.68106">
        <ele>61.479054</ele>
        <time>2022-08-04T10:40:57.000Z</time>
      </trkpt>
      <trkpt lat="49.34031" lon="-0.68099">
        <ele>61.439431</ele>
        <time>2022-08-04T10:40:58.000Z</time>
      </trkpt>
      <trkpt lat="49.3403" lon="-0.68093">
        <ele>61.426342</ele>
        <time>2022-08-04T10:40:59.000Z</time>
      </trkpt>
      <trkpt lat="49.34028" lon="-0.68086">
        <ele>61.413427</ele>
        <time>2022-08-04T10:41:00.000Z</time>
      </trkpt>
      <trkpt lat="49.34026" lon="-0.6808">
        <ele>61.400234</ele>
        <time>2022-08-04T10:41:01.000Z</time>
      </trkpt>
      <trkpt lat="49.34025" lon="-0.68074">
        <ele>61.388034</ele>
        <time>2022-08-04T10:41:02.000Z</time>
      </trkpt>
      <trkpt lat="49.34023" lon="-0.68067">
        <ele>61.375466</ele>
        <time>2022-08-04T10:41:03.000Z</time>
      </trkpt>
      <trkpt lat="49.34022" lon="-0.68061">
        <ele>61.363071</ele>
        <time>2022-08-04T10:41:04.000Z</time>
      </trkpt>
      <trkpt lat="49.3402" lon="-0.68055">
        <ele>61.350676</ele>
        <time>2022-08-04T10:41:05.000Z</time>
      </trkpt>
      <trkpt lat="49.34019" lon="-0.68049">
        <ele>61.338984</ele>
        <time>2022-08-04T10:41:06.000Z</time>
      </trkpt>
      <trkpt lat="49.34017" lon="-0.68043">
        <ele>61.326585</ele>
        <time>2022-08-04T10:41:07.000Z</time>
      </trkpt>
      <trkpt lat="49.34016" lon="-0.68037">
        <ele>61.31419</ele>
        <time>2022-08-04T10:41:08.000Z</time>
      </trkpt>
      <trkpt lat="49.34014" lon="-0.68031">
        <ele>61.302123</ele>
        <time>2022-08-04T10:41:09.000Z</time>
      </trkpt>
      <trkpt lat="49.34012" lon="-0.68025">
        <ele>61.290073</ele>
        <time>2022-08-04T10:41:10.000Z</time>
      </trkpt>
      <trkpt lat="49.3401" lon="-0.68019">
        <ele>61.277546</ele>
        <time>2022-08-04T10:41:11.000Z</time>
      </trkpt>
      <trkpt lat="49.34008" lon="-0.68013">
        <ele>61.265313</ele>
        <time>2022-08-04T10:41:12.000Z</time>
      </trkpt>
      <trkpt lat="49.34007" lon="-0.68007">
        <ele>61.253384</ele>
        <time>2022-08-04T10:41:13.000Z</time>
      </trkpt>
      <trkpt lat="49.34005" lon="-0.68001">
        <ele>61.241152</ele>
        <time>2022-08-04T10:41:14.000Z</time>
      </trkpt>
      <trkpt lat="49.34003" lon="-0.67995">
        <ele>61.229416</ele>
        <time>2022-08-04T10:41:15.000Z</time>
      </trkpt>
      <trkpt lat="49.34001" lon="-0.6799">
        <ele>61.217515</ele>
        <time>2022-08-04T10:41:16.000Z</time>
      </trkpt>
      <trkpt lat="49.33999" lon="-0.67984">
        <ele>61.205449</ele>
        <time>2022-08-04T10:41:17.000Z</time>
      </trkpt>
      <trkpt lat="49.33997" lon="-0.67978">
        <ele>61.193087</ele>
        <time>2022-08-04T10:41:18.000Z</time>
      </trkpt>
      <trkpt lat="49.33995" lon="-0.67972">
        <ele>61.181092</ele>
        <time>2022-08-04T10:41:19.000Z</time>
      </trkpt>
      <trkpt lat="49.33993" lon="-0.67967">
        <ele>61.169356</ele>
        <time>2022-08-04T10:41:20.000Z</time>
      </trkpt>
      <trkpt lat="49.33991" lon="-0.67961">
        <ele>61.157456</ele>
        <time>2022-08-04T10:41:21.000Z</time>
      </trkpt>
      <trkpt lat="49.33989" lon="-0.67955">
        <ele>61.145422</ele>
        <time>2022-08-04T10:41:22.000Z</time>
      </trkpt>
      <trkpt lat="49.33988" lon="-0.6795">
        <ele>61.134227</ele>
        <time>2022-08-04T10:41:23.000Z</time>
      </trkpt>
      <trkpt lat="49.33986" lon="-0.67944">
        <ele>61.12143</ele>
        <time>2022-08-04T10:41:24.000Z</time>
      </trkpt>
      <trkpt lat="49.33984" lon="-0.67938">
        <ele>61.108863</ele>
        <time>2022-08-04T10:41:25.000Z</time>
      </trkpt>
      <trkpt lat="49.33981" lon="-0.67931">
        <ele>61.095277</ele>
        <time>2022-08-04T10:41:26.000Z</time>
      </trkpt>
      <trkpt lat="49.33979" lon="-0.67925">
        <ele>61.081248</ele>
        <time>2022-08-04T10:41:27.000Z</time>
      </trkpt>
      <trkpt lat="49.33977" lon="-0.67918">
        <ele>61.068333</ele>
        <time>2022-08-04T10:41:28.000Z</time>
      </trkpt>
      <trkpt lat="49.33975" lon="-0.67912">
        <ele>61.054156</ele>
        <time>2022-08-04T10:41:29.000Z</time>
      </trkpt>
      <trkpt lat="49.33973" lon="-0.67905">
        <ele>61.040541</ele>
        <time>2022-08-04T10:41:30.000Z</time>
      </trkpt>
      <trkpt lat="49.33971" lon="-0.67899">
        <ele>61.0273</ele>
        <time>2022-08-04T10:41:31.000Z</time>
      </trkpt>
      <trkpt lat="49.33969" lon="-0.67892">
        <ele>61.013938</ele>
        <time>2022-08-04T10:41:32.000Z</time>
      </trkpt>
      <trkpt lat="49.33967" lon="-0.67886">
        <ele>61.001035</ele>
        <time>2022-08-04T10:41:33.000Z</time>
      </trkpt>
      <trkpt lat="49.33965" lon="-0.6788">
        <ele>60.987913</ele>
        <time>2022-08-04T10:41:34.000Z</time>
      </trkpt>
      <trkpt lat="49.33963" lon="-0.67874">
        <ele>60.975009</ele>
        <time>2022-08-04T10:41:35.000Z</time>
      </trkpt>
      <trkpt lat="49.33961" lon="-0.67867">
        <ele>60.961983</ele>
        <time>2022-08-04T10:41:36.000Z</time>
      </trkpt>
      <trkpt lat="49.33959" lon="-0.67861">
        <ele>60.948911</ele>
        <time>2022-08-04T10:41:37.000Z</time>
      </trkpt>
      <trkpt lat="49.33957" lon="-0.67855">
        <ele>60.936511</ele>
        <time>2022-08-04T10:41:38.000Z</time>
      </trkpt>
      <trkpt lat="49.33955" lon="-0.67849">
        <ele>60.946229</ele>
        <time>2022-08-04T10:41:39.000Z</time>
      </trkpt>
      <trkpt lat="49.33953" lon="-0.67842">
        <ele>60.968976</ele>
        <time>2022-08-04T10:41:40.000Z</time>
      </trkpt>
      <trkpt lat="49.33951" lon="-0.67835">
        <ele>60.992508</ele>
        <time>2022-08-04T10:41:41.000Z</time>
      </trkpt>
      <trkpt lat="49.3395" lon="-0.67829">
        <ele>61.013465</ele>
        <time>2022-08-04T10:41:42.000Z</time>
      </trkpt>
      <trkpt lat="49.33948" lon="-0.67823">
        <ele>61.035055</ele>
        <time>2022-08-04T10:41:43.000Z</time>
      </trkpt>
      <trkpt lat="49.33946" lon="-0.67817">
        <ele>61.057145</ele>
        <time>2022-08-04T10:41:44.000Z</time>
      </trkpt>
      <trkpt lat="49.33945" lon="-0.67811">
        <ele>61.077845</ele>
        <time>2022-08-04T10:41:45.000Z</time>
      </trkpt>
      <trkpt lat="49.33943" lon="-0.67805">
        <ele>61.097663</ele>
        <time>2022-08-04T10:41:46.000Z</time>
      </trkpt>
      <trkpt lat="49.33941" lon="-0.67799">
        <ele>61.118391</ele>
        <time>2022-08-04T10:41:47.000Z</time>
      </trkpt>
      <trkpt lat="49.3394" lon="-0.67793">
        <ele>61.137674</ele>
        <time>2022-08-04T10:41:48.000Z</time>
      </trkpt>
      <trkpt lat="49.33938" lon="-0.67788">
        <ele>61.157198</ele>
        <time>2022-08-04T10:41:49.000Z</time>
      </trkpt>
      <trkpt lat="49.33937" lon="-0.67782">
        <ele>61.177015</ele>
        <time>2022-08-04T10:41:50.000Z</time>
      </trkpt>
      <trkpt lat="49.33935" lon="-0.67777">
        <ele>61.196247</ele>
        <time>2022-08-04T10:41:51.000Z</time>
      </trkpt>
      <trkpt lat="49.33934" lon="-0.67771">
        <ele>61.214354</ele>
        <time>2022-08-04T10:41:52.000Z</time>
      </trkpt>
      <trkpt lat="49.33932" lon="-0.67766">
        <ele>61.233669</ele>
        <time>2022-08-04T10:41:53.000Z</time>
      </trkpt>
      <trkpt lat="49.33931" lon="-0.67761">
        <ele>61.252031</ele>
        <time>2022-08-04T10:41:54.000Z</time>
      </trkpt>
      <trkpt lat="49.3393" lon="-0.67756">
        <ele>61.268731</ele>
        <time>2022-08-04T10:41:55.000Z</time>
      </trkpt>
      <trkpt lat="49.33928" lon="-0.67751">
        <ele>61.286518</ele>
        <time>2022-08-04T10:41:56.000Z</time>
      </trkpt>
      <trkpt lat="49.33927" lon="-0.67745">
        <ele>61.304302</ele>
        <time>2022-08-04T10:41:57.000Z</time>
      </trkpt>
      <trkpt lat="49.33925" lon="-0.6774">
        <ele>61.323534</ele>
        <time>2022-08-04T10:41:58.000Z</time>
      </trkpt>
      <trkpt lat="49.33924" lon="-0.67735">
        <ele>61.341616</ele>
        <time>2022-08-04T10:41:59.000Z</time>
      </trkpt>
      <trkpt lat="49.33923" lon="-0.67729">
        <ele>61.360136</ele>
        <time>2022-08-04T10:42:00.000Z</time>
      </trkpt>
      <trkpt lat="49.33921" lon="-0.67724">
        <ele>61.378498</ele>
        <time>2022-08-04T10:42:01.000Z</time>
      </trkpt>
      <trkpt lat="49.3392" lon="-0.67719">
        <ele>61.395504</ele>
        <time>2022-08-04T10:42:02.000Z</time>
      </trkpt>
      <trkpt lat="49.33919" lon="-0.67713">
        <ele>61.413885</ele>
        <time>2022-08-04T10:42:03.000Z</time>
      </trkpt>
      <trkpt lat="49.33917" lon="-0.67708">
        <ele>61.431959</ele>
        <time>2022-08-04T10:42:04.000Z</time>
      </trkpt>
      <trkpt lat="49.33916" lon="-0.67703">
        <ele>61.449148</ele>
        <time>2022-08-04T10:42:05.000Z</time>
      </trkpt>
      <trkpt lat="49.33914" lon="-0.67698">
        <ele>61.466935</ele>
        <time>2022-08-04T10:42:06.000Z</time>
      </trkpt>
      <trkpt lat="49.33913" lon="-0.67693">
        <ele>61.483649</ele>
        <time>2022-08-04T10:42:07.000Z</time>
      </trkpt>
      <trkpt lat="49.33912" lon="-0.67688">
        <ele>61.500349</ele>
        <time>2022-08-04T10:42:08.000Z</time>
      </trkpt>
      <trkpt lat="49.3391" lon="-0.67683">
        <ele>61.518136</ele>
        <time>2022-08-04T10:42:09.000Z</time>
      </trkpt>
      <trkpt lat="49.33909" lon="-0.67678">
        <ele>61.535325</ele>
        <time>2022-08-04T10:42:10.000Z</time>
      </trkpt>
      <trkpt lat="49.33908" lon="-0.67673">
        <ele>61.552514</ele>
        <time>2022-08-04T10:42:11.000Z</time>
      </trkpt>
      <trkpt lat="49.33907" lon="-0.67668">
        <ele>61.569828</ele>
        <time>2022-08-04T10:42:12.000Z</time>
      </trkpt>
      <trkpt lat="49.33905" lon="-0.67663">
        <ele>61.587614</ele>
        <time>2022-08-04T10:42:13.000Z</time>
      </trkpt>
      <trkpt lat="49.33903" lon="-0.67658">
        <ele>61.605401</ele>
        <time>2022-08-04T10:42:14.000Z</time>
      </trkpt>
      <trkpt lat="49.33902" lon="-0.67653">
        <ele>61.62259</ele>
        <time>2022-08-04T10:42:15.000Z</time>
      </trkpt>
      <trkpt lat="49.33901" lon="-0.67648">
        <ele>61.640374</ele>
        <time>2022-08-04T10:42:16.000Z</time>
      </trkpt>
      <trkpt lat="49.33899" lon="-0.67643">
        <ele>61.658736</ele>
        <time>2022-08-04T10:42:17.000Z</time>
      </trkpt>
      <trkpt lat="49.33898" lon="-0.67638">
        <ele>61.676354</ele>
        <time>2022-08-04T10:42:18.000Z</time>
      </trkpt>
      <trkpt lat="49.33897" lon="-0.67632">
        <ele>61.694716</ele>
        <time>2022-08-04T10:42:19.000Z</time>
      </trkpt>
      <trkpt lat="49.33895" lon="-0.67627">
        <ele>61.71279</ele>
        <time>2022-08-04T10:42:20.000Z</time>
      </trkpt>
      <trkpt lat="49.33893" lon="-0.67622">
        <ele>61.731152</ele>
        <time>2022-08-04T10:42:21.000Z</time>
      </trkpt>
      <trkpt lat="49.33893" lon="-0.67617">
        <ele>61.748331</ele>
        <time>2022-08-04T10:42:22.000Z</time>
      </trkpt>
      <trkpt lat="49.33891" lon="-0.67612">
        <ele>61.766118</ele>
        <time>2022-08-04T10:42:23.000Z</time>
      </trkpt>
      <trkpt lat="49.3389" lon="-0.67607">
        <ele>61.783124</ele>
        <time>2022-08-04T10:42:24.000Z</time>
      </trkpt>
      <trkpt lat="49.33888" lon="-0.67601">
        <ele>61.802065</ele>
        <time>2022-08-04T10:42:25.000Z</time>
      </trkpt>
      <trkpt lat="49.33887" lon="-0.67596">
        <ele>61.807971</ele>
        <time>2022-08-04T10:42:26.000Z</time>
      </trkpt>
      <trkpt lat="49.33885" lon="-0.67591">
        <ele>61.793485</ele>
        <time>2022-08-04T10:42:27.000Z</time>
      </trkpt>
      <trkpt lat="49.33884" lon="-0.67586">
        <ele>61.779351</ele>
        <time>2022-08-04T10:42:28.000Z</time>
      </trkpt>
      <trkpt lat="49.33882" lon="-0.6758">
        <ele>61.763923</ele>
        <time>2022-08-04T10:42:29.000Z</time>
      </trkpt>
      <trkpt lat="49.33881" lon="-0.67575">
        <ele>61.749312</ele>
        <time>2022-08-04T10:42:30.000Z</time>
      </trkpt>
      <trkpt lat="49.33879" lon="-0.67569">
        <ele>61.73414</ele>
        <time>2022-08-04T10:42:31.000Z</time>
      </trkpt>
      <trkpt lat="49.33878" lon="-0.67564">
        <ele>61.719638</ele>
        <time>2022-08-04T10:42:32.000Z</time>
      </trkpt>
      <trkpt lat="49.33876" lon="-0.67558">
        <ele>61.703734</ele>
        <time>2022-08-04T10:42:33.000Z</time>
      </trkpt>
      <trkpt lat="49.33875" lon="-0.67553">
        <ele>61.688561</ele>
        <time>2022-08-04T10:42:34.000Z</time>
      </trkpt>
      <trkpt lat="49.33873" lon="-0.67547">
        <ele>61.672463</ele>
        <time>2022-08-04T10:42:35.000Z</time>
      </trkpt>
      <trkpt lat="49.33871" lon="-0.67541">
        <ele>61.656597</ele>
        <time>2022-08-04T10:42:36.000Z</time>
      </trkpt>
      <trkpt lat="49.3387" lon="-0.67535">
        <ele>61.641146</ele>
        <time>2022-08-04T10:42:37.000Z</time>
      </trkpt>
      <trkpt lat="49.33869" lon="-0.67529">
        <ele>61.625048</ele>
        <time>2022-08-04T10:42:38.000Z</time>
      </trkpt>
      <trkpt lat="49.33867" lon="-0.67523">
        <ele>61.608243</ele>
        <time>2022-08-04T10:42:39.000Z</time>
      </trkpt>
      <trkpt lat="49.33865" lon="-0.67518">
        <ele>61.592377</ele>
        <time>2022-08-04T10:42:40.000Z</time>
      </trkpt>
      <trkpt lat="49.33863" lon="-0.67512">
        <ele>61.576046</ele>
        <time>2022-08-04T10:42:41.000Z</time>
      </trkpt>
      <trkpt lat="49.33862" lon="-0.67506">
        <ele>61.560595</ele>
        <time>2022-08-04T10:42:42.000Z</time>
      </trkpt>
      <trkpt lat="49.3386" lon="-0.675">
        <ele>61.543791</ele>
        <time>2022-08-04T10:42:43.000Z</time>
      </trkpt>
      <trkpt lat="49.33859" lon="-0.67494">
        <ele>61.52746</ele>
        <time>2022-08-04T10:42:44.000Z</time>
      </trkpt>
      <trkpt lat="49.33857" lon="-0.67487">
        <ele>61.510192</ele>
        <time>2022-08-04T10:42:45.000Z</time>
      </trkpt>
      <trkpt lat="49.33855" lon="-0.67481">
        <ele>61.493159</ele>
        <time>2022-08-04T10:42:46.000Z</time>
      </trkpt>
      <trkpt lat="49.33854" lon="-0.67475">
        <ele>61.476828</ele>
        <time>2022-08-04T10:42:47.000Z</time>
      </trkpt>
      <trkpt lat="49.33852" lon="-0.67469">
        <ele>61.460497</ele>
        <time>2022-08-04T10:42:48.000Z</time>
      </trkpt>
      <trkpt lat="49.33851" lon="-0.67463">
        <ele>61.444166</ele>
        <time>2022-08-04T10:42:49.000Z</time>
      </trkpt>
      <trkpt lat="49.33849" lon="-0.67457">
        <ele>61.427367</ele>
        <time>2022-08-04T10:42:50.000Z</time>
      </trkpt>
      <trkpt lat="49.33847" lon="-0.67451">
        <ele>61.411036</ele>
        <time>2022-08-04T10:42:51.000Z</time>
      </trkpt>
      <trkpt lat="49.33845" lon="-0.67445">
        <ele>61.393834</ele>
        <time>2022-08-04T10:42:52.000Z</time>
      </trkpt>
      <trkpt lat="49.33844" lon="-0.67439">
        <ele>61.377503</ele>
        <time>2022-08-04T10:42:53.000Z</time>
      </trkpt>
      <trkpt lat="49.33842" lon="-0.67433">
        <ele>61.360705</ele>
        <time>2022-08-04T10:42:54.000Z</time>
      </trkpt>
      <trkpt lat="49.33841" lon="-0.67427">
        <ele>61.344374</ele>
        <time>2022-08-04T10:42:55.000Z</time>
      </trkpt>
      <trkpt lat="49.33839" lon="-0.67421">
        <ele>61.328508</ele>
        <time>2022-08-04T10:42:56.000Z</time>
      </trkpt>
      <trkpt lat="49.33837" lon="-0.67415">
        <ele>61.312409</ele>
        <time>2022-08-04T10:42:57.000Z</time>
      </trkpt>
      <trkpt lat="49.33836" lon="-0.67409">
        <ele>61.296505</ele>
        <time>2022-08-04T10:42:58.000Z</time>
      </trkpt>
      <trkpt lat="49.33834" lon="-0.67404">
        <ele>61.28087</ele>
        <time>2022-08-04T10:42:59.000Z</time>
      </trkpt>
      <trkpt lat="49.33833" lon="-0.67398">
        <ele>61.26542</ele>
        <time>2022-08-04T10:43:00.000Z</time>
      </trkpt>
      <trkpt lat="49.33831" lon="-0.67392">
        <ele>61.250247</ele>
        <time>2022-08-04T10:43:01.000Z</time>
      </trkpt>
      <trkpt lat="49.33829" lon="-0.67387">
        <ele>61.235074</ele>
        <time>2022-08-04T10:43:02.000Z</time>
      </trkpt>
      <trkpt lat="49.33828" lon="-0.67381">
        <ele>61.22013</ele>
        <time>2022-08-04T10:43:03.000Z</time>
      </trkpt>
      <trkpt lat="49.33827" lon="-0.67376">
        <ele>61.205996</ele>
        <time>2022-08-04T10:43:04.000Z</time>
      </trkpt>
      <trkpt lat="49.33825" lon="-0.67371">
        <ele>61.191966</ele>
        <time>2022-08-04T10:43:05.000Z</time>
      </trkpt>
      <trkpt lat="49.33826" lon="-0.67366">
        <ele>61.179819</ele>
        <time>2022-08-04T10:43:06.000Z</time>
      </trkpt>
      <trkpt lat="49.33827" lon="-0.67362">
        <ele>61.167419</ele>
        <time>2022-08-04T10:43:07.000Z</time>
      </trkpt>
      <trkpt lat="49.33829" lon="-0.67358">
        <ele>61.154801</ele>
        <time>2022-08-04T10:43:08.000Z</time>
      </trkpt>
      <trkpt lat="49.33831" lon="-0.67355">
        <ele>61.143451</ele>
        <time>2022-08-04T10:43:09.000Z</time>
      </trkpt>
      <trkpt lat="49.33835" lon="-0.67353">
        <ele>61.130094</ele>
        <time>2022-08-04T10:43:10.000Z</time>
      </trkpt>
      <trkpt lat="49.33837" lon="-0.67351">
        <ele>61.117881</ele>
        <time>2022-08-04T10:43:11.000Z</time>
      </trkpt>
      <trkpt lat="49.33841" lon="-0.67349">
        <ele>61.087695</ele>
        <time>2022-08-04T10:43:12.000Z</time>
      </trkpt>
      <trkpt lat="49.33844" lon="-0.67347">
        <ele>61.06304</ele>
        <time>2022-08-04T10:43:13.000Z</time>
      </trkpt>
      <trkpt lat="49.33847" lon="-0.67344">
        <ele>61.035557</ele>
        <time>2022-08-04T10:43:14.000Z</time>
      </trkpt>
      <trkpt lat="49.33851" lon="-0.67342">
        <ele>61.00537</ele>
        <time>2022-08-04T10:43:15.000Z</time>
      </trkpt>
      <trkpt lat="49.33854" lon="-0.6734">
        <ele>60.973537</ele>
        <time>2022-08-04T10:43:16.000Z</time>
      </trkpt>
      <trkpt lat="49.33858" lon="-0.67338">
        <ele>60.946054</ele>
        <time>2022-08-04T10:43:17.000Z</time>
      </trkpt>
      <trkpt lat="49.33861" lon="-0.67336">
        <ele>60.916212</ele>
        <time>2022-08-04T10:43:18.000Z</time>
      </trkpt>
      <trkpt lat="49.33865" lon="-0.67333">
        <ele>60.883465</ele>
        <time>2022-08-04T10:43:19.000Z</time>
      </trkpt>
      <trkpt lat="49.33869" lon="-0.67331">
        <ele>60.853418</ele>
        <time>2022-08-04T10:43:20.000Z</time>
      </trkpt>
      <trkpt lat="49.33872" lon="-0.67329">
        <ele>60.824145</ele>
        <time>2022-08-04T10:43:21.000Z</time>
      </trkpt>
      <trkpt lat="49.33876" lon="-0.67327">
        <ele>60.794873</ele>
        <time>2022-08-04T10:43:22.000Z</time>
      </trkpt>
      <trkpt lat="49.33878" lon="-0.67325">
        <ele>60.770886</ele>
        <time>2022-08-04T10:43:23.000Z</time>
      </trkpt>
      <trkpt lat="49.33883" lon="-0.67323">
        <ele>60.731473</ele>
        <time>2022-08-04T10:43:24.000Z</time>
      </trkpt>
      <trkpt lat="49.33887" lon="-0.67321">
        <ele>60.699986</ele>
        <time>2022-08-04T10:43:25.000Z</time>
      </trkpt>
      <trkpt lat="49.33891" lon="-0.67319">
        <ele>60.667239</ele>
        <time>2022-08-04T10:43:26.000Z</time>
      </trkpt>
      <trkpt lat="49.33894" lon="-0.67317">
        <ele>60.637966</ele>
        <time>2022-08-04T10:43:27.000Z</time>
      </trkpt>
      <trkpt lat="49.33898" lon="-0.67315">
        <ele>60.606942</ele>
        <time>2022-08-04T10:43:28.000Z</time>
      </trkpt>
      <trkpt lat="49.33902" lon="-0.67313">
        <ele>60.575021</ele>
        <time>2022-08-04T10:43:29.000Z</time>
      </trkpt>
      <trkpt lat="49.33906" lon="-0.67312">
        <ele>60.544268</ele>
        <time>2022-08-04T10:43:30.000Z</time>
      </trkpt>
      <trkpt lat="49.3391" lon="-0.6731">
        <ele>60.512491</ele>
        <time>2022-08-04T10:43:31.000Z</time>
      </trkpt>
      <trkpt lat="49.33913" lon="-0.67309">
        <ele>60.484008</ele>
        <time>2022-08-04T10:43:32.000Z</time>
      </trkpt>
      <trkpt lat="49.33917" lon="-0.67307">
        <ele>60.455526</ele>
        <time>2022-08-04T10:43:33.000Z</time>
      </trkpt>
      <trkpt lat="49.33921" lon="-0.67306">
        <ele>60.424772</ele>
        <time>2022-08-04T10:43:34.000Z</time>
      </trkpt>
      <trkpt lat="49.33925" lon="-0.67304">
        <ele>60.393259</ele>
        <time>2022-08-04T10:43:35.000Z</time>
      </trkpt>
      <trkpt lat="49.33928" lon="-0.67303">
        <ele>60.362743</ele>
        <time>2022-08-04T10:43:36.000Z</time>
      </trkpt>
      <trkpt lat="49.33933" lon="-0.67302">
        <ele>60.329258</ele>
        <time>2022-08-04T10:43:37.000Z</time>
      </trkpt>
      <trkpt lat="49.33936" lon="-0.673">
        <ele>60.29885</ele>
        <time>2022-08-04T10:43:38.000Z</time>
      </trkpt>
      <trkpt lat="49.3394" lon="-0.67299">
        <ele>60.26777</ele>
        <time>2022-08-04T10:43:39.000Z</time>
      </trkpt>
      <trkpt lat="49.33944" lon="-0.67298">
        <ele>60.234734</ele>
        <time>2022-08-04T10:43:40.000Z</time>
      </trkpt>
      <trkpt lat="49.33949" lon="-0.67297">
        <ele>60.201421</ele>
        <time>2022-08-04T10:43:41.000Z</time>
      </trkpt>
      <trkpt lat="49.33952" lon="-0.67296">
        <ele>60.171202</ele>
        <time>2022-08-04T10:43:42.000Z</time>
      </trkpt>
      <trkpt lat="49.33956" lon="-0.67295">
        <ele>60.14021</ele>
        <time>2022-08-04T10:43:43.000Z</time>
      </trkpt>
      <trkpt lat="49.3396" lon="-0.67294">
        <ele>60.107671</ele>
        <time>2022-08-04T10:43:44.000Z</time>
      </trkpt>
      <trkpt lat="49.33964" lon="-0.67293">
        <ele>60.076494</ele>
        <time>2022-08-04T10:43:45.000Z</time>
      </trkpt>
      <trkpt lat="49.33968" lon="-0.67291">
        <ele>60.04378</ele>
        <time>2022-08-04T10:43:46.000Z</time>
      </trkpt>
      <trkpt lat="49.33972" lon="-0.67291">
        <ele>60.013058</ele>
        <time>2022-08-04T10:43:47.000Z</time>
      </trkpt>
      <trkpt lat="49.33976" lon="-0.6729">
        <ele>59.985154</ele>
        <time>2022-08-04T10:43:48.000Z</time>
      </trkpt>
      <trkpt lat="49.3398" lon="-0.67289">
        <ele>59.952917</ele>
        <time>2022-08-04T10:43:49.000Z</time>
      </trkpt>
      <trkpt lat="49.33984" lon="-0.67288">
        <ele>59.922005</ele>
        <time>2022-08-04T10:43:50.000Z</time>
      </trkpt>
      <trkpt lat="49.33988" lon="-0.67288">
        <ele>59.889724</ele>
        <time>2022-08-04T10:43:51.000Z</time>
      </trkpt>
      <trkpt lat="49.33992" lon="-0.67287">
        <ele>59.856611</ele>
        <time>2022-08-04T10:43:52.000Z</time>
      </trkpt>
      <trkpt lat="49.33996" lon="-0.67287">
        <ele>59.826826</ele>
        <time>2022-08-04T10:43:53.000Z</time>
      </trkpt>
      <trkpt lat="49.34" lon="-0.67287">
        <ele>59.793891</ele>
        <time>2022-08-04T10:43:54.000Z</time>
      </trkpt>
      <trkpt lat="49.34004" lon="-0.67287">
        <ele>59.766453</ele>
        <time>2022-08-04T10:43:55.000Z</time>
      </trkpt>
      <trkpt lat="49.34007" lon="-0.67286">
        <ele>59.738945</ele>
        <time>2022-08-04T10:43:56.000Z</time>
      </trkpt>
      <trkpt lat="49.3401" lon="-0.67286">
        <ele>59.713863</ele>
        <time>2022-08-04T10:43:57.000Z</time>
      </trkpt>
      <trkpt lat="49.34014" lon="-0.67287">
        <ele>59.696555</ele>
        <time>2022-08-04T10:43:58.000Z</time>
      </trkpt>
      <trkpt lat="49.34018" lon="-0.67287">
        <ele>59.683755</ele>
        <time>2022-08-04T10:43:59.000Z</time>
      </trkpt>
      <trkpt lat="49.34021" lon="-0.67287">
        <ele>59.670948</ele>
        <time>2022-08-04T10:44:00.000Z</time>
      </trkpt>
      <trkpt lat="49.34024" lon="-0.67287">
        <ele>59.659238</ele>
        <time>2022-08-04T10:44:01.000Z</time>
      </trkpt>
      <trkpt lat="49.34028" lon="-0.67287">
        <ele>59.646438</ele>
        <time>2022-08-04T10:44:02.000Z</time>
      </trkpt>
      <trkpt lat="49.34031" lon="-0.67287">
        <ele>59.633255</ele>
        <time>2022-08-04T10:44:03.000Z</time>
      </trkpt>
      <trkpt lat="49.34035" lon="-0.67286">
        <ele>59.620087</ele>
        <time>2022-08-04T10:44:04.000Z</time>
      </trkpt>
      <trkpt lat="49.34038" lon="-0.67283">
        <ele>59.607685</ele>
        <time>2022-08-04T10:44:05.000Z</time>
      </trkpt>
      <trkpt lat="49.3404" lon="-0.67279">
        <ele>59.596273</ele>
        <time>2022-08-04T10:44:06.000Z</time>
      </trkpt>
      <trkpt lat="49.34041" lon="-0.67275">
        <ele>59.584545</ele>
        <time>2022-08-04T10:44:07.000Z</time>
      </trkpt>
      <trkpt lat="49.34041" lon="-0.6727">
        <ele>59.57282</ele>
        <time>2022-08-04T10:44:08.000Z</time>
      </trkpt>
      <trkpt lat="49.34042" lon="-0.67265">
        <ele>59.560145</ele>
        <time>2022-08-04T10:44:09.000Z</time>
      </trkpt>
      <trkpt lat="49.34042" lon="-0.67259">
        <ele>59.546996</ele>
        <time>2022-08-04T10:44:10.000Z</time>
      </trkpt>
      <trkpt lat="49.34042" lon="-0.67253">
        <ele>59.533372</ele>
        <time>2022-08-04T10:44:11.000Z</time>
      </trkpt>
      <trkpt lat="49.34042" lon="-0.67248">
        <ele>59.52003</ele>
        <time>2022-08-04T10:44:12.000Z</time>
      </trkpt>
      <trkpt lat="49.34042" lon="-0.67242">
        <ele>59.505973</ele>
        <time>2022-08-04T10:44:13.000Z</time>
      </trkpt>
      <trkpt lat="49.34042" lon="-0.67236">
        <ele>59.491679</ele>
        <time>2022-08-04T10:44:14.000Z</time>
      </trkpt>
      <trkpt lat="49.34042" lon="-0.6723">
        <ele>59.476669</ele>
        <time>2022-08-04T10:44:15.000Z</time>
      </trkpt>
      <trkpt lat="49.34042" lon="-0.67223">
        <ele>59.461659</ele>
        <time>2022-08-04T10:44:16.000Z</time>
      </trkpt>
      <trkpt lat="49.34042" lon="-0.67217">
        <ele>59.446888</ele>
        <time>2022-08-04T10:44:17.000Z</time>
      </trkpt>
      <trkpt lat="49.34042" lon="-0.67211">
        <ele>59.432117</ele>
        <time>2022-08-04T10:44:18.000Z</time>
      </trkpt>
      <trkpt lat="49.34042" lon="-0.67205">
        <ele>59.418968</ele>
        <time>2022-08-04T10:44:19.000Z</time>
      </trkpt>
      <trkpt lat="49.34042" lon="-0.672">
        <ele>59.407055</ele>
        <time>2022-08-04T10:44:20.000Z</time>
      </trkpt>
      <trkpt lat="49.34042" lon="-0.67196">
        <ele>59.396752</ele>
        <time>2022-08-04T10:44:21.000Z</time>
      </trkpt>
      <trkpt lat="49.34042" lon="-0.67192">
        <ele>59.386746</ele>
        <time>2022-08-04T10:44:22.000Z</time>
      </trkpt>
      <trkpt lat="49.34042" lon="-0.67188">
        <ele>59.377216</ele>
        <time>2022-08-04T10:44:23.000Z</time>
      </trkpt>
      <trkpt lat="49.34042" lon="-0.67184">
        <ele>59.368639</ele>
        <time>2022-08-04T10:44:24.000Z</time>
      </trkpt>
      <trkpt lat="49.34041" lon="-0.67181">
        <ele>59.360229</ele>
        <time>2022-08-04T10:44:25.000Z</time>
      </trkpt>
      <trkpt lat="49.34041" lon="-0.67177">
        <ele>59.351818</ele>
        <time>2022-08-04T10:44:26.000Z</time>
      </trkpt>
      <trkpt lat="49.34041" lon="-0.67174">
        <ele>59.343718</ele>
        <time>2022-08-04T10:44:27.000Z</time>
      </trkpt>
      <trkpt lat="49.34041" lon="-0.67171">
        <ele>59.335856</ele>
        <time>2022-08-04T10:44:28.000Z</time>
      </trkpt>
      <trkpt lat="49.3404" lon="-0.67167">
        <ele>59.327814</ele>
        <time>2022-08-04T10:44:29.000Z</time>
      </trkpt>
      <trkpt lat="49.3404" lon="-0.67164">
        <ele>59.320666</ele>
        <time>2022-08-04T10:44:30.000Z</time>
      </trkpt>
      <trkpt lat="49.3404" lon="-0.67161">
        <ele>59.313519</ele>
        <time>2022-08-04T10:44:31.000Z</time>
      </trkpt>
      <trkpt lat="49.3404" lon="-0.67157">
        <ele>59.302742</ele>
        <time>2022-08-04T10:44:33.000Z</time>
      </trkpt>
      <trkpt lat="49.34038" lon="-0.67142">
        <ele>59.266529</ele>
        <time>2022-08-04T10:46:36.000Z</time>
      </trkpt>
      <trkpt lat="49.34038" lon="-0.67133">
        <ele>59.24601</ele>
        <time>2022-08-04T10:46:37.000Z</time>
      </trkpt>
      <trkpt lat="49.34038" lon="-0.67124">
        <ele>59.223615</ele>
        <time>2022-08-04T10:46:38.000Z</time>
      </trkpt>
      <trkpt lat="49.34037" lon="-0.67114">
        <ele>59.200838</ele>
        <time>2022-08-04T10:46:39.000Z</time>
      </trkpt>
      <trkpt lat="49.34037" lon="-0.67105">
        <ele>59.177966</ele>
        <time>2022-08-04T10:46:40.000Z</time>
      </trkpt>
      <trkpt lat="49.34036" lon="-0.67095">
        <ele>59.154804</ele>
        <time>2022-08-04T10:46:41.000Z</time>
      </trkpt>
      <trkpt lat="49.34035" lon="-0.67085">
        <ele>59.131116</ele>
        <time>2022-08-04T10:46:42.000Z</time>
      </trkpt>
      <trkpt lat="49.34034" lon="-0.67075">
        <ele>59.106305</ele>
        <time>2022-08-04T10:46:43.000Z</time>
      </trkpt>
      <trkpt lat="49.34033" lon="-0.67066">
        <ele>59.083566</ele>
        <time>2022-08-04T10:46:44.000Z</time>
      </trkpt>
      <trkpt lat="49.34032" lon="-0.67056">
        <ele>59.060169</ele>
        <time>2022-08-04T10:46:45.000Z</time>
      </trkpt>
      <trkpt lat="49.34032" lon="-0.67046">
        <ele>58.979618</ele>
        <time>2022-08-04T10:46:46.000Z</time>
      </trkpt>
      <trkpt lat="49.34031" lon="-0.67036">
        <ele>58.854091</ele>
        <time>2022-08-04T10:46:47.000Z</time>
      </trkpt>
      <trkpt lat="49.3403" lon="-0.67027">
        <ele>58.728452</ele>
        <time>2022-08-04T10:46:48.000Z</time>
      </trkpt>
      <trkpt lat="49.3403" lon="-0.67017">
        <ele>58.601659</ele>
        <time>2022-08-04T10:46:49.000Z</time>
      </trkpt>
      <trkpt lat="49.34029" lon="-0.67006">
        <ele>58.471752</ele>
        <time>2022-08-04T10:46:50.000Z</time>
      </trkpt>
      <trkpt lat="49.34029" lon="-0.66996">
        <ele>58.344959</ele>
        <time>2022-08-04T10:46:51.000Z</time>
      </trkpt>
      <trkpt lat="49.34028" lon="-0.66986">
        <ele>58.217097</ele>
        <time>2022-08-04T10:46:52.000Z</time>
      </trkpt>
      <trkpt lat="49.34028" lon="-0.66976">
        <ele>58.089709</ele>
        <time>2022-08-04T10:46:53.000Z</time>
      </trkpt>
      <trkpt lat="49.34027" lon="-0.66966">
        <ele>57.962916</ele>
        <time>2022-08-04T10:46:54.000Z</time>
      </trkpt>
      <trkpt lat="49.34026" lon="-0.66956">
        <ele>57.833522</ele>
        <time>2022-08-04T10:46:55.000Z</time>
      </trkpt>
      <trkpt lat="49.34026" lon="-0.66946">
        <ele>57.706729</ele>
        <time>2022-08-04T10:46:56.000Z</time>
      </trkpt>
      <trkpt lat="49.34026" lon="-0.66936">
        <ele>57.58007</ele>
        <time>2022-08-04T10:46:57.000Z</time>
      </trkpt>
      <trkpt lat="49.34027" lon="-0.66927">
        <ele>57.456459</ele>
        <time>2022-08-04T10:46:58.000Z</time>
      </trkpt>
      <trkpt lat="49.34029" lon="-0.66918">
        <ele>57.336025</ele>
        <time>2022-08-04T10:46:59.000Z</time>
      </trkpt>
      <trkpt lat="49.34033" lon="-0.6691">
        <ele>57.214487</ele>
        <time>2022-08-04T10:47:00.000Z</time>
      </trkpt>
      <trkpt lat="49.34037" lon="-0.66904">
        <ele>57.097141</ele>
        <time>2022-08-04T10:47:01.000Z</time>
      </trkpt>
      <trkpt lat="49.34041" lon="-0.66897">
        <ele>56.987073</ele>
        <time>2022-08-04T10:47:02.000Z</time>
      </trkpt>
      <trkpt lat="49.34045" lon="-0.66892">
        <ele>56.889774</ele>
        <time>2022-08-04T10:47:03.000Z</time>
      </trkpt>
      <trkpt lat="49.34047" lon="-0.66889">
        <ele>56.820848</ele>
        <time>2022-08-04T10:47:04.000Z</time>
      </trkpt>
      <trkpt lat="49.34048" lon="-0.66886">
        <ele>56.784672</ele>
        <time>2022-08-04T10:47:05.000Z</time>
      </trkpt>
      <trkpt lat="49.34054" lon="-0.66874">
        <ele>56.598844</ele>
        <time>2022-08-04T10:47:16.000Z</time>
      </trkpt>
      <trkpt lat="49.34055" lon="-0.6687">
        <ele>56.541539</ele>
        <time>2022-08-04T10:47:17.000Z</time>
      </trkpt>
      <trkpt lat="49.34057" lon="-0.66866">
        <ele>56.476609</ele>
        <time>2022-08-04T10:47:18.000Z</time>
      </trkpt>
      <trkpt lat="49.34058" lon="-0.66861">
        <ele>56.40912</ele>
        <time>2022-08-04T10:47:19.000Z</time>
      </trkpt>
      <trkpt lat="49.3406" lon="-0.66855">
        <ele>56.327122</ele>
        <time>2022-08-04T10:47:20.000Z</time>
      </trkpt>
      <trkpt lat="49.34063" lon="-0.66849">
        <ele>56.234773</ele>
        <time>2022-08-04T10:47:21.000Z</time>
      </trkpt>
      <trkpt lat="49.34065" lon="-0.66842">
        <ele>56.14454</ele>
        <time>2022-08-04T10:47:22.000Z</time>
      </trkpt>
      <trkpt lat="49.34067" lon="-0.66836">
        <ele>56.047499</ele>
        <time>2022-08-04T10:47:23.000Z</time>
      </trkpt>
      <trkpt lat="49.34069" lon="-0.66829">
        <ele>55.951453</ele>
        <time>2022-08-04T10:47:24.000Z</time>
      </trkpt>
      <trkpt lat="49.34071" lon="-0.66822">
        <ele>55.849398</ele>
        <time>2022-08-04T10:47:25.000Z</time>
      </trkpt>
      <trkpt lat="49.34074" lon="-0.66814">
        <ele>55.742907</ele>
        <time>2022-08-04T10:47:26.000Z</time>
      </trkpt>
      <trkpt lat="49.34076" lon="-0.66806">
        <ele>55.631936</ele>
        <time>2022-08-04T10:47:27.000Z</time>
      </trkpt>
      <trkpt lat="49.34079" lon="-0.66798">
        <ele>55.527136</ele>
        <time>2022-08-04T10:47:28.000Z</time>
      </trkpt>
      <trkpt lat="49.34081" lon="-0.66789">
        <ele>55.44178</ele>
        <time>2022-08-04T10:47:29.000Z</time>
      </trkpt>
      <trkpt lat="49.34083" lon="-0.66781">
        <ele>55.354369</ele>
        <time>2022-08-04T10:47:30.000Z</time>
      </trkpt>
      <trkpt lat="49.34085" lon="-0.66772">
        <ele>55.265224</ele>
        <time>2022-08-04T10:47:31.000Z</time>
      </trkpt>
      <trkpt lat="49.34087" lon="-0.66762">
        <ele>55.17528</ele>
        <time>2022-08-04T10:47:32.000Z</time>
      </trkpt>
      <trkpt lat="49.34089" lon="-0.66753">
        <ele>55.081587</ele>
        <time>2022-08-04T10:47:33.000Z</time>
      </trkpt>
      <trkpt lat="49.3409" lon="-0.66742">
        <ele>54.986609</ele>
        <time>2022-08-04T10:47:34.000Z</time>
      </trkpt>
      <trkpt lat="49.3409" lon="-0.66732">
        <ele>54.889139</ele>
        <time>2022-08-04T10:47:35.000Z</time>
      </trkpt>
      <trkpt lat="49.3409" lon="-0.66721">
        <ele>54.788891</ele>
        <time>2022-08-04T10:47:36.000Z</time>
      </trkpt>
      <trkpt lat="49.34088" lon="-0.6671">
        <ele>54.686177</ele>
        <time>2022-08-04T10:47:37.000Z</time>
      </trkpt>
      <trkpt lat="49.34086" lon="-0.667">
        <ele>54.584772</ele>
        <time>2022-08-04T10:47:38.000Z</time>
      </trkpt>
      <trkpt lat="49.34083" lon="-0.6669">
        <ele>54.486643</ele>
        <time>2022-08-04T10:47:39.000Z</time>
      </trkpt>
      <trkpt lat="49.3408" lon="-0.66681">
        <ele>54.385432</ele>
        <time>2022-08-04T10:47:40.000Z</time>
      </trkpt>
      <trkpt lat="49.34077" lon="-0.66673">
        <ele>54.304552</ele>
        <time>2022-08-04T10:47:41.000Z</time>
      </trkpt>
      <trkpt lat="49.34073" lon="-0.66662">
        <ele>54.190723</ele>
        <time>2022-08-04T10:47:42.000Z</time>
      </trkpt>
      <trkpt lat="49.34069" lon="-0.66653">
        <ele>54.092785</ele>
        <time>2022-08-04T10:47:43.000Z</time>
      </trkpt>
      <trkpt lat="49.34066" lon="-0.66644">
        <ele>53.994104</ele>
        <time>2022-08-04T10:47:44.000Z</time>
      </trkpt>
      <trkpt lat="49.34062" lon="-0.66636">
        <ele>53.902416</ele>
        <time>2022-08-04T10:47:45.000Z</time>
      </trkpt>
      <trkpt lat="49.34059" lon="-0.66628">
        <ele>53.813774</ele>
        <time>2022-08-04T10:47:46.000Z</time>
      </trkpt>
      <trkpt lat="49.34055" lon="-0.6662">
        <ele>53.724409</ele>
        <time>2022-08-04T10:47:47.000Z</time>
      </trkpt>
      <trkpt lat="49.34052" lon="-0.66612">
        <ele>53.633228</ele>
        <time>2022-08-04T10:47:48.000Z</time>
      </trkpt>
      <trkpt lat="49.34048" lon="-0.66604">
        <ele>53.548529</ele>
        <time>2022-08-04T10:47:49.000Z</time>
      </trkpt>
      <trkpt lat="49.34045" lon="-0.66597">
        <ele>53.468466</ele>
        <time>2022-08-04T10:47:50.000Z</time>
      </trkpt>
      <trkpt lat="49.34042" lon="-0.6659">
        <ele>53.389922</ele>
        <time>2022-08-04T10:47:51.000Z</time>
      </trkpt>
      <trkpt lat="49.34038" lon="-0.66584">
        <ele>53.314543</ele>
        <time>2022-08-04T10:47:52.000Z</time>
      </trkpt>
      <trkpt lat="49.34036" lon="-0.66578">
        <ele>53.246164</ele>
        <time>2022-08-04T10:47:53.000Z</time>
      </trkpt>
      <trkpt lat="49.34033" lon="-0.66572">
        <ele>53.17922</ele>
        <time>2022-08-04T10:47:54.000Z</time>
      </trkpt>
      <trkpt lat="49.3403" lon="-0.66566">
        <ele>53.109938</ele>
        <time>2022-08-04T10:47:55.000Z</time>
      </trkpt>
      <trkpt lat="49.34028" lon="-0.6656">
        <ele>53.043882</ele>
        <time>2022-08-04T10:47:56.000Z</time>
      </trkpt>
      <trkpt lat="49.34025" lon="-0.66555">
        <ele>53.01067</ele>
        <time>2022-08-04T10:47:57.000Z</time>
      </trkpt>
      <trkpt lat="49.34022" lon="-0.6655">
        <ele>53.093564</ele>
        <time>2022-08-04T10:47:58.000Z</time>
      </trkpt>
      <trkpt lat="49.3402" lon="-0.66544">
        <ele>53.176457</ele>
        <time>2022-08-04T10:47:59.000Z</time>
      </trkpt>
      <trkpt lat="49.34018" lon="-0.66539">
        <ele>53.251842</ele>
        <time>2022-08-04T10:48:00.000Z</time>
      </trkpt>
      <trkpt lat="49.34016" lon="-0.66534">
        <ele>53.323088</ele>
        <time>2022-08-04T10:48:01.000Z</time>
      </trkpt>
      <trkpt lat="49.34013" lon="-0.6653">
        <ele>53.395537</ele>
        <time>2022-08-04T10:48:02.000Z</time>
      </trkpt>
      <trkpt lat="49.34012" lon="-0.66526">
        <ele>53.457387</ele>
        <time>2022-08-04T10:48:03.000Z</time>
      </trkpt>
      <trkpt lat="49.3401" lon="-0.66522">
        <ele>53.514972</ele>
        <time>2022-08-04T10:48:04.000Z</time>
      </trkpt>
      <trkpt lat="49.34008" lon="-0.66518">
        <ele>53.574821</ele>
        <time>2022-08-04T10:48:05.000Z</time>
      </trkpt>
      <trkpt lat="49.34006" lon="-0.66514">
        <ele>53.630307</ele>
        <time>2022-08-04T10:48:06.000Z</time>
      </trkpt>
      <trkpt lat="49.34005" lon="-0.66511">
        <ele>53.681734</ele>
        <time>2022-08-04T10:48:07.000Z</time>
      </trkpt>
      <trkpt lat="49.34004" lon="-0.66508">
        <ele>53.729215</ele>
        <time>2022-08-04T10:48:08.000Z</time>
      </trkpt>
      <trkpt lat="49.34001" lon="-0.66504">
        <ele>53.792731</ele>
        <time>2022-08-04T10:48:09.000Z</time>
      </trkpt>
      <trkpt lat="49.34" lon="-0.66501">
        <ele>53.840914</ele>
        <time>2022-08-04T10:48:10.000Z</time>
      </trkpt>
      <trkpt lat="49.33998" lon="-0.66497">
        <ele>53.893318</ele>
        <time>2022-08-04T10:48:11.000Z</time>
      </trkpt>
      <trkpt lat="49.33997" lon="-0.66494">
        <ele>53.939381</ele>
        <time>2022-08-04T10:48:12.000Z</time>
      </trkpt>
      <trkpt lat="49.33996" lon="-0.66491">
        <ele>53.987822</ele>
        <time>2022-08-04T10:48:13.000Z</time>
      </trkpt>
      <trkpt lat="49.33994" lon="-0.66488">
        <ele>54.038221</ele>
        <time>2022-08-04T10:48:14.000Z</time>
      </trkpt>
      <trkpt lat="49.33992" lon="-0.66485">
        <ele>54.084755</ele>
        <time>2022-08-04T10:48:15.000Z</time>
      </trkpt>
      <trkpt lat="49.33991" lon="-0.66483">
        <ele>54.130357</ele>
        <time>2022-08-04T10:48:16.000Z</time>
      </trkpt>
      <trkpt lat="49.33988" lon="-0.66477">
        <ele>54.212111</ele>
        <time>2022-08-04T10:48:18.000Z</time>
      </trkpt>
      <trkpt lat="49.33987" lon="-0.66475">
        <ele>54.250917</ele>
        <time>2022-08-04T10:48:19.000Z</time>
      </trkpt>
      <trkpt lat="49.33986" lon="-0.66472">
        <ele>54.296519</ele>
        <time>2022-08-04T10:48:20.000Z</time>
      </trkpt>
      <trkpt lat="49.33984" lon="-0.66469">
        <ele>54.337468</ele>
        <time>2022-08-04T10:48:21.000Z</time>
      </trkpt>
      <trkpt lat="49.33983" lon="-0.66467">
        <ele>54.373156</ele>
        <time>2022-08-04T10:48:22.000Z</time>
      </trkpt>
      <trkpt lat="49.33982" lon="-0.66464">
        <ele>54.417139</ele>
        <time>2022-08-04T10:48:23.000Z</time>
      </trkpt>
      <trkpt lat="49.33981" lon="-0.66461">
        <ele>54.460924</ele>
        <time>2022-08-04T10:48:24.000Z</time>
      </trkpt>
      <trkpt lat="49.3398" lon="-0.66459">
        <ele>54.497578</ele>
        <time>2022-08-04T10:48:25.000Z</time>
      </trkpt>
      <trkpt lat="49.33978" lon="-0.66456">
        <ele>54.546019</ele>
        <time>2022-08-04T10:48:26.000Z</time>
      </trkpt>
      <trkpt lat="49.33977" lon="-0.66453">
        <ele>54.580483</ele>
        <time>2022-08-04T10:48:27.000Z</time>
      </trkpt>
      <trkpt lat="49.33976" lon="-0.66451">
        <ele>54.622431</ele>
        <time>2022-08-04T10:48:28.000Z</time>
      </trkpt>
      <trkpt lat="49.33975" lon="-0.66448">
        <ele>54.662396</ele>
        <time>2022-08-04T10:48:29.000Z</time>
      </trkpt>
      <trkpt lat="49.33973" lon="-0.66445">
        <ele>54.704344</ele>
        <time>2022-08-04T10:48:30.000Z</time>
      </trkpt>
      <trkpt lat="49.33972" lon="-0.66443">
        <ele>54.74116</ele>
        <time>2022-08-04T10:48:31.000Z</time>
      </trkpt>
      <trkpt lat="49.33971" lon="-0.66441">
        <ele>54.784946</ele>
        <time>2022-08-04T10:48:32.000Z</time>
      </trkpt>
      <trkpt lat="49.33968" lon="-0.66436">
        <ele>54.861983</ele>
        <time>2022-08-04T10:48:34.000Z</time>
      </trkpt>
      <trkpt lat="49.33967" lon="-0.66433">
        <ele>54.902932</ele>
        <time>2022-08-04T10:48:35.000Z</time>
      </trkpt>
      <trkpt lat="49.33966" lon="-0.66431">
        <ele>54.93862</ele>
        <time>2022-08-04T10:48:36.000Z</time>
      </trkpt>
      <trkpt lat="49.33965" lon="-0.66428">
        <ele>54.978586</ele>
        <time>2022-08-04T10:48:37.000Z</time>
      </trkpt>
      <trkpt lat="49.33963" lon="-0.66426">
        <ele>55.022372</ele>
        <time>2022-08-04T10:48:38.000Z</time>
      </trkpt>
      <trkpt lat="49.33961" lon="-0.66421">
        <ele>55.091482</ele>
        <time>2022-08-04T10:48:40.000Z</time>
      </trkpt>
      <trkpt lat="49.3396" lon="-0.66419">
        <ele>55.128136</ele>
        <time>2022-08-04T10:48:41.000Z</time>
      </trkpt>
      <trkpt lat="49.33959" lon="-0.66416">
        <ele>55.166181</ele>
        <time>2022-08-04T10:48:42.000Z</time>
      </trkpt>
      <trkpt lat="49.33958" lon="-0.66414">
        <ele>55.20078</ele>
        <time>2022-08-04T10:48:43.000Z</time>
      </trkpt>
      <trkpt lat="49.33956" lon="-0.66411">
        <ele>55.244566</ele>
        <time>2022-08-04T10:48:44.000Z</time>
      </trkpt>
      <trkpt lat="49.33955" lon="-0.66409">
        <ele>55.28076</ele>
        <time>2022-08-04T10:48:45.000Z</time>
      </trkpt>
      <trkpt lat="49.33954" lon="-0.66407">
        <ele>55.317414</ele>
        <time>2022-08-04T10:48:46.000Z</time>
      </trkpt>
      <trkpt lat="49.33953" lon="-0.66404">
        <ele>55.359362</ele>
        <time>2022-08-04T10:48:47.000Z</time>
      </trkpt>
      <trkpt lat="49.33952" lon="-0.66402">
        <ele>55.39505</ele>
        <time>2022-08-04T10:48:48.000Z</time>
      </trkpt>
      <trkpt lat="49.3395" lon="-0.66399">
        <ele>55.432159</ele>
        <time>2022-08-04T10:48:49.000Z</time>
      </trkpt>
      <trkpt lat="49.33948" lon="-0.66395">
        <ele>55.497565</ele>
        <time>2022-08-04T10:48:51.000Z</time>
      </trkpt>
      <trkpt lat="49.33947" lon="-0.66393">
        <ele>55.535609</ele>
        <time>2022-08-04T10:48:52.000Z</time>
      </trkpt>
      <trkpt lat="49.33944" lon="-0.66388">
        <ele>55.61554</ele>
        <time>2022-08-04T10:48:54.000Z</time>
      </trkpt>
      <trkpt lat="49.33943" lon="-0.66385">
        <ele>55.657488</ele>
        <time>2022-08-04T10:48:55.000Z</time>
      </trkpt>
      <trkpt lat="49.33942" lon="-0.66383">
        <ele>55.694305</ele>
        <time>2022-08-04T10:48:56.000Z</time>
      </trkpt>
      <trkpt lat="49.3394" lon="-0.66381">
        <ele>55.736344</ele>
        <time>2022-08-04T10:48:57.000Z</time>
      </trkpt>
      <trkpt lat="49.33939" lon="-0.66378">
        <ele>55.775341</ele>
        <time>2022-08-04T10:48:58.000Z</time>
      </trkpt>
      <trkpt lat="49.33938" lon="-0.66376">
        <ele>55.811995</ele>
        <time>2022-08-04T10:48:59.000Z</time>
      </trkpt>
      <trkpt lat="49.33937" lon="-0.66373">
        <ele>55.852945</ele>
        <time>2022-08-04T10:49:00.000Z</time>
      </trkpt>
      <trkpt lat="49.33936" lon="-0.66371">
        <ele>55.887545</ele>
        <time>2022-08-04T10:49:01.000Z</time>
      </trkpt>
      <trkpt lat="49.33934" lon="-0.66368">
        <ele>55.92751</ele>
        <time>2022-08-04T10:49:02.000Z</time>
      </trkpt>
      <trkpt lat="49.33933" lon="-0.66366">
        <ele>55.96846</ele>
        <time>2022-08-04T10:49:03.000Z</time>
      </trkpt>
      <trkpt lat="49.33932" lon="-0.66363">
        <ele>56.004148</ele>
        <time>2022-08-04T10:49:04.000Z</time>
      </trkpt>
      <trkpt lat="49.33931" lon="-0.66361">
        <ele>56.046096</ele>
        <time>2022-08-04T10:49:05.000Z</time>
      </trkpt>
      <trkpt lat="49.3393" lon="-0.66358">
        <ele>56.085993</ele>
        <time>2022-08-04T10:49:06.000Z</time>
      </trkpt>
      <trkpt lat="49.33928" lon="-0.66355">
        <ele>56.134434</ele>
        <time>2022-08-04T10:49:07.000Z</time>
      </trkpt>
      <trkpt lat="49.33927" lon="-0.66352">
        <ele>56.180037</ele>
        <time>2022-08-04T10:49:08.000Z</time>
      </trkpt>
      <trkpt lat="49.33925" lon="-0.66349">
        <ele>56.226571</ele>
        <time>2022-08-04T10:49:09.000Z</time>
      </trkpt>
      <trkpt lat="49.33924" lon="-0.66346">
        <ele>56.271589</ele>
        <time>2022-08-04T10:49:10.000Z</time>
      </trkpt>
      <trkpt lat="49.33922" lon="-0.66343">
        <ele>56.31907</ele>
        <time>2022-08-04T10:49:11.000Z</time>
      </trkpt>
      <trkpt lat="49.33921" lon="-0.66341">
        <ele>56.365604</ele>
        <time>2022-08-04T10:49:12.000Z</time>
      </trkpt>
      <trkpt lat="49.3392" lon="-0.66338">
        <ele>56.401292</ele>
        <time>2022-08-04T10:49:13.000Z</time>
      </trkpt>
      <trkpt lat="49.33918" lon="-0.66336">
        <ele>56.443647</ele>
        <time>2022-08-04T10:49:14.000Z</time>
      </trkpt>
      <trkpt lat="49.33917" lon="-0.66333">
        <ele>56.452332</ele>
        <time>2022-08-04T10:49:15.000Z</time>
      </trkpt>
      <trkpt lat="49.33915" lon="-0.66331">
        <ele>56.462171</ele>
        <time>2022-08-04T10:49:16.000Z</time>
      </trkpt>
      <trkpt lat="49.33913" lon="-0.66326">
        <ele>56.479095</ele>
        <time>2022-08-04T10:49:18.000Z</time>
      </trkpt>
      <trkpt lat="49.33911" lon="-0.66324">
        <ele>56.488934</ele>
        <time>2022-08-04T10:49:19.000Z</time>
      </trkpt>
      <trkpt lat="49.3391" lon="-0.66319">
        <ele>56.504701</ele>
        <time>2022-08-04T10:49:21.000Z</time>
      </trkpt>
      <trkpt lat="49.33909" lon="-0.66317">
        <ele>56.514055</ele>
        <time>2022-08-04T10:49:22.000Z</time>
      </trkpt>
      <trkpt lat="49.33907" lon="-0.66315">
        <ele>56.52274</ele>
        <time>2022-08-04T10:49:23.000Z</time>
      </trkpt>
      <trkpt lat="49.33906" lon="-0.66312">
        <ele>56.530826</ele>
        <time>2022-08-04T10:49:24.000Z</time>
      </trkpt>
      <trkpt lat="49.33905" lon="-0.6631">
        <ele>56.540468</ele>
        <time>2022-08-04T10:49:25.000Z</time>
      </trkpt>
      <trkpt lat="49.33903" lon="-0.66308">
        <ele>56.550307</ele>
        <time>2022-08-04T10:49:26.000Z</time>
      </trkpt>
      <trkpt lat="49.33901" lon="-0.66306">
        <ele>56.559949</ele>
        <time>2022-08-04T10:49:27.000Z</time>
      </trkpt>
      <trkpt lat="49.339" lon="-0.66304">
        <ele>56.567899</ele>
        <time>2022-08-04T10:49:28.000Z</time>
      </trkpt>
      <trkpt lat="49.33899" lon="-0.66301">
        <ele>56.577541</ele>
        <time>2022-08-04T10:49:29.000Z</time>
      </trkpt>
      <trkpt lat="49.33897" lon="-0.66299">
        <ele>56.58738</ele>
        <time>2022-08-04T10:49:30.000Z</time>
      </trkpt>
      <trkpt lat="49.33895" lon="-0.66297">
        <ele>56.597021</ele>
        <time>2022-08-04T10:49:31.000Z</time>
      </trkpt>
      <trkpt lat="49.33893" lon="-0.66293">
        <ele>56.613544</ele>
        <time>2022-08-04T10:49:33.000Z</time>
      </trkpt>
      <trkpt lat="49.33891" lon="-0.66291">
        <ele>56.622993</ele>
        <time>2022-08-04T10:49:34.000Z</time>
      </trkpt>
      <trkpt lat="49.33889" lon="-0.66287">
        <ele>56.63931</ele>
        <time>2022-08-04T10:49:36.000Z</time>
      </trkpt>
      <trkpt lat="49.33886" lon="-0.66282">
        <ele>56.656472</ele>
        <time>2022-08-04T10:49:38.000Z</time>
      </trkpt>
      <trkpt lat="49.33885" lon="-0.6628">
        <ele>56.665158</ele>
        <time>2022-08-04T10:49:39.000Z</time>
      </trkpt>
      <trkpt lat="49.33884" lon="-0.66278">
        <ele>56.674997</ele>
        <time>2022-08-04T10:49:40.000Z</time>
      </trkpt>
      <trkpt lat="49.33881" lon="-0.66274">
        <ele>56.691206</ele>
        <time>2022-08-04T10:49:42.000Z</time>
      </trkpt>
      <trkpt lat="49.33878" lon="-0.6627">
        <ele>56.707119</ele>
        <time>2022-08-04T10:49:44.000Z</time>
      </trkpt>
      <trkpt lat="49.33877" lon="-0.66268">
        <ele>56.716568</ele>
        <time>2022-08-04T10:49:45.000Z</time>
      </trkpt>
      <trkpt lat="49.33873" lon="-0.66264">
        <ele>56.736509</ele>
        <time>2022-08-04T10:49:47.000Z</time>
      </trkpt>
      <trkpt lat="49.33872" lon="-0.66261">
        <ele>56.745194</ele>
        <time>2022-08-04T10:49:48.000Z</time>
      </trkpt>
      <trkpt lat="49.3387" lon="-0.66259">
        <ele>56.754643</ele>
        <time>2022-08-04T10:49:49.000Z</time>
      </trkpt>
      <trkpt lat="49.33867" lon="-0.66255">
        <ele>56.773926</ele>
        <time>2022-08-04T10:49:51.000Z</time>
      </trkpt>
      <trkpt lat="49.33865" lon="-0.66253">
        <ele>56.784266</ele>
        <time>2022-08-04T10:49:52.000Z</time>
      </trkpt>
      <trkpt lat="49.33863" lon="-0.66251">
        <ele>56.794775</ele>
        <time>2022-08-04T10:49:53.000Z</time>
      </trkpt>
      <trkpt lat="49.33861" lon="-0.66249">
        <ele>56.805489</ele>
        <time>2022-08-04T10:49:54.000Z</time>
      </trkpt>
      <trkpt lat="49.33858" lon="-0.66245">
        <ele>56.824012</ele>
        <time>2022-08-04T10:49:56.000Z</time>
      </trkpt>
      <trkpt lat="49.33856" lon="-0.66243">
        <ele>56.834694</ele>
        <time>2022-08-04T10:49:57.000Z</time>
      </trkpt>
      <trkpt lat="49.33855" lon="-0.6624">
        <ele>56.844336</ele>
        <time>2022-08-04T10:49:58.000Z</time>
      </trkpt>
      <trkpt lat="49.33853" lon="-0.66239">
        <ele>56.854357</ele>
        <time>2022-08-04T10:49:59.000Z</time>
      </trkpt>
      <trkpt lat="49.33851" lon="-0.66237">
        <ele>56.864228</ele>
        <time>2022-08-04T10:50:00.000Z</time>
      </trkpt>
      <trkpt lat="49.33849" lon="-0.66235">
        <ele>56.873132</ele>
        <time>2022-08-04T10:50:01.000Z</time>
      </trkpt>
      <trkpt lat="49.33848" lon="-0.66233">
        <ele>56.882773</ele>
        <time>2022-08-04T10:50:02.000Z</time>
      </trkpt>
      <trkpt lat="49.33846" lon="-0.66231">
        <ele>56.893282</ele>
        <time>2022-08-04T10:50:03.000Z</time>
      </trkpt>
      <trkpt lat="49.33845" lon="-0.66228">
        <ele>56.902409</ele>
        <time>2022-08-04T10:50:04.000Z</time>
      </trkpt>
      <trkpt lat="49.33843" lon="-0.66226">
        <ele>56.91167</ele>
        <time>2022-08-04T10:50:05.000Z</time>
      </trkpt>
      <trkpt lat="49.33841" lon="-0.66225">
        <ele>56.921397</ele>
        <time>2022-08-04T10:50:06.000Z</time>
      </trkpt>
      <trkpt lat="49.33839" lon="-0.66223">
        <ele>56.931954</ele>
        <time>2022-08-04T10:50:07.000Z</time>
      </trkpt>
      <trkpt lat="49.33837" lon="-0.66221">
        <ele>56.942463</ele>
        <time>2022-08-04T10:50:08.000Z</time>
      </trkpt>
      <trkpt lat="49.33835" lon="-0.66219">
        <ele>56.952803</ele>
        <time>2022-08-04T10:50:09.000Z</time>
      </trkpt>
      <trkpt lat="49.33833" lon="-0.66217">
        <ele>56.962674</ele>
        <time>2022-08-04T10:50:10.000Z</time>
      </trkpt>
      <trkpt lat="49.33831" lon="-0.66215">
        <ele>56.972545</ele>
        <time>2022-08-04T10:50:11.000Z</time>
      </trkpt>
      <trkpt lat="49.33829" lon="-0.66213">
        <ele>56.983259</ele>
        <time>2022-08-04T10:50:12.000Z</time>
      </trkpt>
      <trkpt lat="49.33828" lon="-0.66211">
        <ele>56.993599</ele>
        <time>2022-08-04T10:50:13.000Z</time>
      </trkpt>
      <trkpt lat="49.33826" lon="-0.66209">
        <ele>57.00394</ele>
        <time>2022-08-04T10:50:14.000Z</time>
      </trkpt>
      <trkpt lat="49.33824" lon="-0.66208">
        <ele>57.013961</ele>
        <time>2022-08-04T10:50:15.000Z</time>
      </trkpt>
      <trkpt lat="49.33822" lon="-0.66206">
        <ele>57.023551</ele>
        <time>2022-08-04T10:50:16.000Z</time>
      </trkpt>
      <trkpt lat="49.33819" lon="-0.66203">
        <ele>57.040109</ele>
        <time>2022-08-04T10:50:18.000Z</time>
      </trkpt>
      <trkpt lat="49.33817" lon="-0.66201">
        <ele>57.05013</ele>
        <time>2022-08-04T10:50:19.000Z</time>
      </trkpt>
      <trkpt lat="49.33815" lon="-0.66199">
        <ele>57.061174</ele>
        <time>2022-08-04T10:50:20.000Z</time>
      </trkpt>
      <trkpt lat="49.33813" lon="-0.66197">
        <ele>57.071195</ele>
        <time>2022-08-04T10:50:21.000Z</time>
      </trkpt>
      <trkpt lat="49.33811" lon="-0.66195">
        <ele>57.081536</ele>
        <time>2022-08-04T10:50:22.000Z</time>
      </trkpt>
      <trkpt lat="49.33809" lon="-0.66193">
        <ele>57.093012</ele>
        <time>2022-08-04T10:50:23.000Z</time>
      </trkpt>
      <trkpt lat="49.33807" lon="-0.66191">
        <ele>57.104877</ele>
        <time>2022-08-04T10:50:24.000Z</time>
      </trkpt>
      <trkpt lat="49.33805" lon="-0.66189">
        <ele>57.116353</ele>
        <time>2022-08-04T10:50:25.000Z</time>
      </trkpt>
      <trkpt lat="49.33802" lon="-0.66187">
        <ele>57.130872</ele>
        <time>2022-08-04T10:50:26.000Z</time>
      </trkpt>
      <trkpt lat="49.33799" lon="-0.66184">
        <ele>57.144962</ele>
        <time>2022-08-04T10:50:27.000Z</time>
      </trkpt>
      <trkpt lat="49.33797" lon="-0.66181">
        <ele>57.157248</ele>
        <time>2022-08-04T10:50:28.000Z</time>
      </trkpt>
      <trkpt lat="49.33795" lon="-0.66179">
        <ele>57.169534</ele>
        <time>2022-08-04T10:50:29.000Z</time>
      </trkpt>
      <trkpt lat="49.33792" lon="-0.66176">
        <ele>57.183461</ele>
        <time>2022-08-04T10:50:30.000Z</time>
      </trkpt>
      <trkpt lat="49.3379" lon="-0.66174">
        <ele>57.196104</ele>
        <time>2022-08-04T10:50:31.000Z</time>
      </trkpt>
      <trkpt lat="49.33788" lon="-0.66171">
        <ele>57.209101</ele>
        <time>2022-08-04T10:50:32.000Z</time>
      </trkpt>
      <trkpt lat="49.33785" lon="-0.66168">
        <ele>57.221563</ele>
        <time>2022-08-04T10:50:33.000Z</time>
      </trkpt>
      <trkpt lat="49.33783" lon="-0.66165">
        <ele>57.234923</ele>
        <time>2022-08-04T10:50:34.000Z</time>
      </trkpt>
      <trkpt lat="49.3378" lon="-0.66163">
        <ele>57.249611</ele>
        <time>2022-08-04T10:50:35.000Z</time>
      </trkpt>
      <trkpt lat="49.33778" lon="-0.6616">
        <ele>57.220355</ele>
        <time>2022-08-04T10:50:36.000Z</time>
      </trkpt>
      <trkpt lat="49.33775" lon="-0.66157">
        <ele>57.193093</ele>
        <time>2022-08-04T10:50:37.000Z</time>
      </trkpt>
      <trkpt lat="49.33773" lon="-0.66155">
        <ele>57.166991</ele>
        <time>2022-08-04T10:50:38.000Z</time>
      </trkpt>
      <trkpt lat="49.33772" lon="-0.66152">
        <ele>57.142484</ele>
        <time>2022-08-04T10:50:39.000Z</time>
      </trkpt>
      <trkpt lat="49.33769" lon="-0.6615">
        <ele>57.114022</ele>
        <time>2022-08-04T10:50:40.000Z</time>
      </trkpt>
      <trkpt lat="49.33767" lon="-0.66146">
        <ele>57.085929</ele>
        <time>2022-08-04T10:50:41.000Z</time>
      </trkpt>
      <trkpt lat="49.33765" lon="-0.66143">
        <ele>57.053141</ele>
        <time>2022-08-04T10:50:42.000Z</time>
      </trkpt>
      <trkpt lat="49.33762" lon="-0.6614">
        <ele>57.019123</ele>
        <time>2022-08-04T10:50:43.000Z</time>
      </trkpt>
      <trkpt lat="49.3376" lon="-0.66136">
        <ele>56.987096</ele>
        <time>2022-08-04T10:50:44.000Z</time>
      </trkpt>
      <trkpt lat="49.33758" lon="-0.66132">
        <ele>56.95313</ele>
        <time>2022-08-04T10:50:45.000Z</time>
      </trkpt>
      <trkpt lat="49.33756" lon="-0.66128">
        <ele>56.918996</ele>
        <time>2022-08-04T10:50:46.000Z</time>
      </trkpt>
      <trkpt lat="49.33753" lon="-0.66125">
        <ele>56.885297</ele>
        <time>2022-08-04T10:50:47.000Z</time>
      </trkpt>
      <trkpt lat="49.33751" lon="-0.66122">
        <ele>56.858337</ele>
        <time>2022-08-04T10:50:48.000Z</time>
      </trkpt>
      <trkpt lat="49.33749" lon="-0.66119">
        <ele>56.831189</ele>
        <time>2022-08-04T10:50:49.000Z</time>
      </trkpt>
      <trkpt lat="49.33747" lon="-0.66116">
        <ele>56.79749</ele>
        <time>2022-08-04T10:50:50.000Z</time>
      </trkpt>
      <trkpt lat="49.33745" lon="-0.66112">
        <ele>56.770798</ele>
        <time>2022-08-04T10:50:51.000Z</time>
      </trkpt>
      <trkpt lat="49.33742" lon="-0.66109">
        <ele>56.737607</ele>
        <time>2022-08-04T10:50:52.000Z</time>
      </trkpt>
      <trkpt lat="49.3374" lon="-0.66106">
        <ele>56.703166</ele>
        <time>2022-08-04T10:50:53.000Z</time>
      </trkpt>
      <trkpt lat="49.33738" lon="-0.66102">
        <ele>56.670662</ele>
        <time>2022-08-04T10:50:54.000Z</time>
      </trkpt>
      <trkpt lat="49.33735" lon="-0.66099">
        <ele>56.640919</ele>
        <time>2022-08-04T10:50:55.000Z</time>
      </trkpt>
      <trkpt lat="49.33733" lon="-0.66096">
        <ele>56.605349</ele>
        <time>2022-08-04T10:50:56.000Z</time>
      </trkpt>
      <trkpt lat="49.3373" lon="-0.66093">
        <ele>56.575288</ele>
        <time>2022-08-04T10:50:57.000Z</time>
      </trkpt>
      <trkpt lat="49.33727" lon="-0.66089">
        <ele>56.537252</ele>
        <time>2022-08-04T10:50:58.000Z</time>
      </trkpt>
      <trkpt lat="49.33724" lon="-0.66086">
        <ele>56.49812</ele>
        <time>2022-08-04T10:50:59.000Z</time>
      </trkpt>
      <trkpt lat="49.33721" lon="-0.66082">
        <ele>56.461682</ele>
        <time>2022-08-04T10:51:00.000Z</time>
      </trkpt>
      <trkpt lat="49.33718" lon="-0.66077">
        <ele>56.421071</ele>
        <time>2022-08-04T10:51:01.000Z</time>
      </trkpt>
      <trkpt lat="49.33716" lon="-0.66073">
        <ele>56.384408</ele>
        <time>2022-08-04T10:51:02.000Z</time>
      </trkpt>
      <trkpt lat="49.33713" lon="-0.6607">
        <ele>56.350708</ele>
        <time>2022-08-04T10:51:03.000Z</time>
      </trkpt>
      <trkpt lat="49.3371" lon="-0.66067">
        <ele>56.315513</ele>
        <time>2022-08-04T10:51:04.000Z</time>
      </trkpt>
      <trkpt lat="49.33708" lon="-0.66063">
        <ele>56.282039</ele>
        <time>2022-08-04T10:51:05.000Z</time>
      </trkpt>
      <trkpt lat="49.33706" lon="-0.66059">
        <ele>56.25134</ele>
        <time>2022-08-04T10:51:06.000Z</time>
      </trkpt>
      <trkpt lat="49.33703" lon="-0.66056">
        <ele>56.217333</ele>
        <time>2022-08-04T10:51:07.000Z</time>
      </trkpt>
      <trkpt lat="49.337" lon="-0.66053">
        <ele>56.1782</ele>
        <time>2022-08-04T10:51:08.000Z</time>
      </trkpt>
      <trkpt lat="49.33698" lon="-0.6605">
        <ele>56.14814</ele>
        <time>2022-08-04T10:51:09.000Z</time>
      </trkpt>
      <trkpt lat="49.33695" lon="-0.66046">
        <ele>56.114874</ele>
        <time>2022-08-04T10:51:10.000Z</time>
      </trkpt>
      <trkpt lat="49.33692" lon="-0.66043">
        <ele>56.077188</ele>
        <time>2022-08-04T10:51:11.000Z</time>
      </trkpt>
      <trkpt lat="49.3369" lon="-0.6604">
        <ele>56.042746</ele>
        <time>2022-08-04T10:51:12.000Z</time>
      </trkpt>
      <trkpt lat="49.33687" lon="-0.66036">
        <ele>56.011653</ele>
        <time>2022-08-04T10:51:13.000Z</time>
      </trkpt>
      <trkpt lat="49.33686" lon="-0.66033">
        <ele>55.983375</ele>
        <time>2022-08-04T10:51:14.000Z</time>
      </trkpt>
      <trkpt lat="49.33685" lon="-0.66029">
        <ele>55.956098</ele>
        <time>2022-08-04T10:51:15.000Z</time>
      </trkpt>
      <trkpt lat="49.33685" lon="-0.66025">
        <ele>55.930141</ele>
        <time>2022-08-04T10:51:16.000Z</time>
      </trkpt>
      <trkpt lat="49.33685" lon="-0.66021">
        <ele>55.904513</ele>
        <time>2022-08-04T10:51:17.000Z</time>
      </trkpt>
      <trkpt lat="49.33686" lon="-0.66018">
        <ele>55.882066</ele>
        <time>2022-08-04T10:51:18.000Z</time>
      </trkpt>
      <trkpt lat="49.33687" lon="-0.66016">
        <ele>55.861913</ele>
        <time>2022-08-04T10:51:19.000Z</time>
      </trkpt>
      <trkpt lat="49.33688" lon="-0.66013">
        <ele>55.843379</ele>
        <time>2022-08-04T10:51:20.000Z</time>
      </trkpt>
      <trkpt lat="49.3369" lon="-0.66009">
        <ele>55.811809</ele>
        <time>2022-08-04T10:51:22.000Z</time>
      </trkpt>
      <trkpt lat="49.33691" lon="-0.66006">
        <ele>55.789362</ele>
        <time>2022-08-04T10:51:24.000Z</time>
      </trkpt>
      <trkpt lat="49.33692" lon="-0.66003">
        <ele>55.76911</ele>
        <time>2022-08-04T10:51:25.000Z</time>
      </trkpt>
      <trkpt lat="49.33694" lon="-0.66">
        <ele>55.737083</ele>
        <time>2022-08-04T10:51:27.000Z</time>
      </trkpt>
      <trkpt lat="49.33697" lon="-0.65997">
        <ele>55.707774</ele>
        <time>2022-08-04T10:51:29.000Z</time>
      </trkpt>
      <trkpt lat="49.33699" lon="-0.65994">
        <ele>55.680373</ele>
        <time>2022-08-04T10:51:31.000Z</time>
      </trkpt>
      <trkpt lat="49.33699" lon="-0.65991">
        <ele>55.660678</ele>
        <time>2022-08-04T10:51:33.000Z</time>
      </trkpt>
      <trkpt lat="49.33701" lon="-0.65986">
        <ele>55.627412</ele>
        <time>2022-08-04T10:51:35.000Z</time>
      </trkpt>
      <trkpt lat="49.33702" lon="-0.65984">
        <ele>55.606146</ele>
        <time>2022-08-04T10:51:36.000Z</time>
      </trkpt>
      <trkpt lat="49.33703" lon="-0.65981">
        <ele>55.584714</ele>
        <time>2022-08-04T10:51:37.000Z</time>
      </trkpt>
      <trkpt lat="49.33704" lon="-0.65978">
        <ele>55.55854</ele>
        <time>2022-08-04T10:51:38.000Z</time>
      </trkpt>
      <trkpt lat="49.33706" lon="-0.65974">
        <ele>55.532366</ele>
        <time>2022-08-04T10:51:39.000Z</time>
      </trkpt>
      <trkpt lat="49.33708" lon="-0.65971">
        <ele>55.506704</ele>
        <time>2022-08-04T10:51:40.000Z</time>
      </trkpt>
      <trkpt lat="49.33709" lon="-0.65968">
        <ele>55.482233</ele>
        <time>2022-08-04T10:51:41.000Z</time>
      </trkpt>
      <trkpt lat="49.3371" lon="-0.65965">
        <ele>55.458078</ele>
        <time>2022-08-04T10:51:42.000Z</time>
      </trkpt>
      <trkpt lat="49.33711" lon="-0.65962">
        <ele>55.438314</ele>
        <time>2022-08-04T10:51:43.000Z</time>
      </trkpt>
      <trkpt lat="49.33713" lon="-0.65958">
        <ele>55.417131</ele>
        <time>2022-08-04T10:51:44.000Z</time>
      </trkpt>
      <trkpt lat="49.33714" lon="-0.65954">
        <ele>55.394796</ele>
        <time>2022-08-04T10:51:45.000Z</time>
      </trkpt>
      <trkpt lat="49.33716" lon="-0.65951">
        <ele>55.372036</ele>
        <time>2022-08-04T10:51:46.000Z</time>
      </trkpt>
      <trkpt lat="49.33717" lon="-0.65947">
        <ele>55.348848</ele>
        <time>2022-08-04T10:51:47.000Z</time>
      </trkpt>
      <trkpt lat="49.33719" lon="-0.65943">
        <ele>55.323411</ele>
        <time>2022-08-04T10:51:48.000Z</time>
      </trkpt>
      <trkpt lat="49.33721" lon="-0.65939">
        <ele>55.303141</ele>
        <time>2022-08-04T10:51:49.000Z</time>
      </trkpt>
      <trkpt lat="49.33723" lon="-0.65936">
        <ele>55.280782</ele>
        <time>2022-08-04T10:51:50.000Z</time>
      </trkpt>
      <trkpt lat="49.33725" lon="-0.65933">
        <ele>55.258593</ele>
        <time>2022-08-04T10:51:51.000Z</time>
      </trkpt>
      <trkpt lat="49.33726" lon="-0.6593">
        <ele>55.236023</ele>
        <time>2022-08-04T10:51:52.000Z</time>
      </trkpt>
      <trkpt lat="49.33728" lon="-0.65926">
        <ele>55.213066</ele>
        <time>2022-08-04T10:51:53.000Z</time>
      </trkpt>
      <trkpt lat="49.3373" lon="-0.65923">
        <ele>55.189322</ele>
        <time>2022-08-04T10:51:54.000Z</time>
      </trkpt>
      <trkpt lat="49.33732" lon="-0.65919">
        <ele>55.167409</ele>
        <time>2022-08-04T10:51:55.000Z</time>
      </trkpt>
      <trkpt lat="49.33733" lon="-0.65916">
        <ele>55.147204</ele>
        <time>2022-08-04T10:51:56.000Z</time>
      </trkpt>
      <trkpt lat="49.33735" lon="-0.65913">
        <ele>55.124634</ele>
        <time>2022-08-04T10:51:57.000Z</time>
      </trkpt>
      <trkpt lat="49.33736" lon="-0.65909">
        <ele>55.105306</ele>
        <time>2022-08-04T10:51:58.000Z</time>
      </trkpt>
      <trkpt lat="49.33738" lon="-0.65907">
        <ele>55.088913</ele>
        <time>2022-08-04T10:51:59.000Z</time>
      </trkpt>
      <trkpt lat="49.3374" lon="-0.65903">
        <ele>55.063543</ele>
        <time>2022-08-04T10:52:00.000Z</time>
      </trkpt>
      <trkpt lat="49.33741" lon="-0.65899">
        <ele>55.04163</ele>
        <time>2022-08-04T10:52:01.000Z</time>
      </trkpt>
      <trkpt lat="49.33742" lon="-0.65896">
        <ele>55.020982</ele>
        <time>2022-08-04T10:52:02.000Z</time>
      </trkpt>
      <trkpt lat="49.33744" lon="-0.65892">
        <ele>54.998647</ele>
        <time>2022-08-04T10:52:03.000Z</time>
      </trkpt>
      <trkpt lat="49.33746" lon="-0.65889">
        <ele>54.974502</ele>
        <time>2022-08-04T10:52:04.000Z</time>
      </trkpt>
      <trkpt lat="49.33748" lon="-0.65885">
        <ele>54.951743</ele>
        <time>2022-08-04T10:52:05.000Z</time>
      </trkpt>
      <trkpt lat="49.33749" lon="-0.65881">
        <ele>54.928554</ele>
        <time>2022-08-04T10:52:06.000Z</time>
      </trkpt>
      <trkpt lat="49.33751" lon="-0.65877">
        <ele>54.90441</ele>
        <time>2022-08-04T10:52:07.000Z</time>
      </trkpt>
      <trkpt lat="49.33752" lon="-0.65874">
        <ele>54.883315</ele>
        <time>2022-08-04T10:52:08.000Z</time>
      </trkpt>
      <trkpt lat="49.33754" lon="-0.6587">
        <ele>54.859966</ele>
        <time>2022-08-04T10:52:09.000Z</time>
      </trkpt>
      <trkpt lat="49.33756" lon="-0.65866">
        <ele>54.834125</ele>
        <time>2022-08-04T10:52:10.000Z</time>
      </trkpt>
      <trkpt lat="49.33758" lon="-0.65862">
        <ele>54.80792</ele>
        <time>2022-08-04T10:52:11.000Z</time>
      </trkpt>
      <trkpt lat="49.3376" lon="-0.65858">
        <ele>54.782984</ele>
        <time>2022-08-04T10:52:12.000Z</time>
      </trkpt>
      <trkpt lat="49.33761" lon="-0.65854">
        <ele>54.75849</ele>
        <time>2022-08-04T10:52:13.000Z</time>
      </trkpt>
      <trkpt lat="49.33763" lon="-0.6585">
        <ele>54.73487</ele>
        <time>2022-08-04T10:52:14.000Z</time>
      </trkpt>
      <trkpt lat="49.33765" lon="-0.65847">
        <ele>54.7123</ele>
        <time>2022-08-04T10:52:15.000Z</time>
      </trkpt>
      <trkpt lat="49.33766" lon="-0.65843">
        <ele>54.69411</ele>
        <time>2022-08-04T10:52:16.000Z</time>
      </trkpt>
      <trkpt lat="49.33767" lon="-0.65841">
        <ele>54.679009</ele>
        <time>2022-08-04T10:52:17.000Z</time>
      </trkpt>
      <trkpt lat="49.33768" lon="-0.65838">
        <ele>54.663091</ele>
        <time>2022-08-04T10:52:18.000Z</time>
      </trkpt>
      <trkpt lat="49.33769" lon="-0.65836">
        <ele>54.648245</ele>
        <time>2022-08-04T10:52:19.000Z</time>
      </trkpt>
      <trkpt lat="49.33772" lon="-0.65831">
        <ele>54.616469</ele>
        <time>2022-08-04T10:52:21.000Z</time>
      </trkpt>
      <trkpt lat="49.33773" lon="-0.65828">
        <ele>54.595387</ele>
        <time>2022-08-04T10:52:22.000Z</time>
      </trkpt>
      <trkpt lat="49.33775" lon="-0.65824">
        <ele>54.571331</ele>
        <time>2022-08-04T10:52:23.000Z</time>
      </trkpt>
      <trkpt lat="49.33775" lon="-0.6582">
        <ele>54.549112</ele>
        <time>2022-08-04T10:52:24.000Z</time>
      </trkpt>
      <trkpt lat="49.33777" lon="-0.65815">
        <ele>54.523733</ele>
        <time>2022-08-04T10:52:25.000Z</time>
      </trkpt>
      <trkpt lat="49.33778" lon="-0.65811">
        <ele>54.497861</ele>
        <time>2022-08-04T10:52:26.000Z</time>
      </trkpt>
      <trkpt lat="49.3378" lon="-0.65806">
        <ele>54.472926</ele>
        <time>2022-08-04T10:52:27.000Z</time>
      </trkpt>
      <trkpt lat="49.33781" lon="-0.65802">
        <ele>54.44887</ele>
        <time>2022-08-04T10:52:28.000Z</time>
      </trkpt>
      <trkpt lat="49.33783" lon="-0.65798">
        <ele>54.420952</ele>
        <time>2022-08-04T10:52:29.000Z</time>
      </trkpt>
      <trkpt lat="49.33785" lon="-0.65793">
        <ele>54.396032</ele>
        <time>2022-08-04T10:52:30.000Z</time>
      </trkpt>
      <trkpt lat="49.33786" lon="-0.65789">
        <ele>54.372663</ele>
        <time>2022-08-04T10:52:31.000Z</time>
      </trkpt>
      <trkpt lat="49.33787" lon="-0.65786">
        <ele>54.352015</ele>
        <time>2022-08-04T10:52:32.000Z</time>
      </trkpt>
      <trkpt lat="49.33789" lon="-0.65782">
        <ele>54.330102</ele>
        <time>2022-08-04T10:52:33.000Z</time>
      </trkpt>
      <trkpt lat="49.3379" lon="-0.65778">
        <ele>54.308621</ele>
        <time>2022-08-04T10:52:34.000Z</time>
      </trkpt>
      <trkpt lat="49.33791" lon="-0.65773">
        <ele>54.282035</ele>
        <time>2022-08-04T10:52:35.000Z</time>
      </trkpt>
      <trkpt lat="49.33791" lon="-0.65768">
        <ele>54.255824</ele>
        <time>2022-08-04T10:52:36.000Z</time>
      </trkpt>
      <trkpt lat="49.33793" lon="-0.65764">
        <ele>54.232788</ele>
        <time>2022-08-04T10:52:37.000Z</time>
      </trkpt>
      <trkpt lat="49.33794" lon="-0.65761">
        <ele>54.21214</ele>
        <time>2022-08-04T10:52:38.000Z</time>
      </trkpt>
      <trkpt lat="49.33795" lon="-0.65757">
        <ele>54.190595</ele>
        <time>2022-08-04T10:52:39.000Z</time>
      </trkpt>
      <trkpt lat="49.33796" lon="-0.65753">
        <ele>54.170065</ele>
        <time>2022-08-04T10:52:40.000Z</time>
      </trkpt>
      <trkpt lat="49.33797" lon="-0.65749">
        <ele>54.146918</ele>
        <time>2022-08-04T10:52:41.000Z</time>
      </trkpt>
      <trkpt lat="49.33798" lon="-0.65744">
        <ele>54.12109</ele>
        <time>2022-08-04T10:52:42.000Z</time>
      </trkpt>
      <trkpt lat="49.33799" lon="-0.65739">
        <ele>54.094997</ele>
        <time>2022-08-04T10:52:43.000Z</time>
      </trkpt>
      <trkpt lat="49.338" lon="-0.65735">
        <ele>54.070787</ele>
        <time>2022-08-04T10:52:44.000Z</time>
      </trkpt>
      <trkpt lat="49.338" lon="-0.65731">
        <ele>54.05015</ele>
        <time>2022-08-04T10:52:45.000Z</time>
      </trkpt>
      <trkpt lat="49.33801" lon="-0.65727">
        <ele>53.985104</ele>
        <time>2022-08-04T10:52:46.000Z</time>
      </trkpt>
      <trkpt lat="49.33801" lon="-0.65723">
        <ele>53.904043</ele>
        <time>2022-08-04T10:52:47.000Z</time>
      </trkpt>
      <trkpt lat="49.33801" lon="-0.65719">
        <ele>53.815384</ele>
        <time>2022-08-04T10:52:48.000Z</time>
      </trkpt>
      <trkpt lat="49.33801" lon="-0.65715">
        <ele>53.720639</ele>
        <time>2022-08-04T10:52:49.000Z</time>
      </trkpt>
      <trkpt lat="49.33802" lon="-0.6571">
        <ele>53.610635</ele>
        <time>2022-08-04T10:52:50.000Z</time>
      </trkpt>
      <trkpt lat="49.33802" lon="-0.65705">
        <ele>53.50063</ele>
        <time>2022-08-04T10:52:51.000Z</time>
      </trkpt>
      <trkpt lat="49.33803" lon="-0.657">
        <ele>53.388588</ele>
        <time>2022-08-04T10:52:52.000Z</time>
      </trkpt>
      <trkpt lat="49.33802" lon="-0.65695">
        <ele>53.280827</ele>
        <time>2022-08-04T10:52:53.000Z</time>
      </trkpt>
      <trkpt lat="49.33802" lon="-0.6569">
        <ele>53.166458</ele>
        <time>2022-08-04T10:52:54.000Z</time>
      </trkpt>
      <trkpt lat="49.33802" lon="-0.65685">
        <ele>53.050344</ele>
        <time>2022-08-04T10:52:55.000Z</time>
      </trkpt>
      <trkpt lat="49.33801" lon="-0.65679">
        <ele>52.92506</ele>
        <time>2022-08-04T10:52:56.000Z</time>
      </trkpt>
      <trkpt lat="49.33801" lon="-0.65672">
        <ele>52.769906</ele>
        <time>2022-08-04T10:52:57.000Z</time>
      </trkpt>
      <trkpt lat="49.33799" lon="-0.65667">
        <ele>52.659314</ele>
        <time>2022-08-04T10:52:58.000Z</time>
      </trkpt>
      <trkpt lat="49.33798" lon="-0.6566">
        <ele>52.499849</ele>
        <time>2022-08-04T10:52:59.000Z</time>
      </trkpt>
      <trkpt lat="49.33797" lon="-0.65655">
        <ele>52.37475</ele>
        <time>2022-08-04T10:53:00.000Z</time>
      </trkpt>
      <trkpt lat="49.33796" lon="-0.65649">
        <ele>52.240787</ele>
        <time>2022-08-04T10:53:01.000Z</time>
      </trkpt>
      <trkpt lat="49.33794" lon="-0.65644">
        <ele>52.118749</ele>
        <time>2022-08-04T10:53:02.000Z</time>
      </trkpt>
      <trkpt lat="49.33793" lon="-0.65641">
        <ele>52.026654</ele>
        <time>2022-08-04T10:53:03.000Z</time>
      </trkpt>
      <trkpt lat="49.33791" lon="-0.65635">
        <ele>51.890271</ele>
        <time>2022-08-04T10:53:04.000Z</time>
      </trkpt>
      <trkpt lat="49.33789" lon="-0.65631">
        <ele>51.786419</ele>
        <time>2022-08-04T10:53:05.000Z</time>
      </trkpt>
      <trkpt lat="49.33788" lon="-0.65626">
        <ele>51.676027</ele>
        <time>2022-08-04T10:53:06.000Z</time>
      </trkpt>
      <trkpt lat="49.33787" lon="-0.65623">
        <ele>51.587447</ele>
        <time>2022-08-04T10:53:07.000Z</time>
      </trkpt>
      <trkpt lat="49.33785" lon="-0.65618">
        <ele>51.469325</ele>
        <time>2022-08-04T10:53:08.000Z</time>
      </trkpt>
      <trkpt lat="49.33783" lon="-0.65612">
        <ele>51.332942</ele>
        <time>2022-08-04T10:53:09.000Z</time>
      </trkpt>
      <trkpt lat="49.33782" lon="-0.65608">
        <ele>51.231974</ele>
        <time>2022-08-04T10:53:10.000Z</time>
      </trkpt>
      <trkpt lat="49.3378" lon="-0.65603">
        <ele>51.088209</ele>
        <time>2022-08-04T10:53:11.000Z</time>
      </trkpt>
      <trkpt lat="49.33778" lon="-0.65599">
        <ele>50.990922</ele>
        <time>2022-08-04T10:53:12.000Z</time>
      </trkpt>
      <trkpt lat="49.33777" lon="-0.65594">
        <ele>50.884397</ele>
        <time>2022-08-04T10:53:13.000Z</time>
      </trkpt>
      <trkpt lat="49.33775" lon="-0.6559">
        <ele>50.763243</ele>
        <time>2022-08-04T10:53:14.000Z</time>
      </trkpt>
      <trkpt lat="49.33774" lon="-0.65587">
        <ele>50.682355</ele>
        <time>2022-08-04T10:53:15.000Z</time>
      </trkpt>
      <trkpt lat="49.33772" lon="-0.65583">
        <ele>50.577033</ele>
        <time>2022-08-04T10:53:16.000Z</time>
      </trkpt>
      <trkpt lat="49.3377" lon="-0.65579">
        <ele>50.475536</ele>
        <time>2022-08-04T10:53:17.000Z</time>
      </trkpt>
      <trkpt lat="49.33768" lon="-0.65575">
        <ele>50.354029</ele>
        <time>2022-08-04T10:53:18.000Z</time>
      </trkpt>
      <trkpt lat="49.33765" lon="-0.65569">
        <ele>50.193861</ele>
        <time>2022-08-04T10:53:19.000Z</time>
      </trkpt>
      <trkpt lat="49.33763" lon="-0.65565">
        <ele>50.081551</ele>
        <time>2022-08-04T10:53:20.000Z</time>
      </trkpt>
      <trkpt lat="49.33761" lon="-0.65557">
        <ele>49.907327</ele>
        <time>2022-08-04T10:53:21.000Z</time>
      </trkpt>
      <trkpt lat="49.33758" lon="-0.65552">
        <ele>49.753092</ele>
        <time>2022-08-04T10:53:22.000Z</time>
      </trkpt>
      <trkpt lat="49.33757" lon="-0.65546">
        <ele>49.617409</ele>
        <time>2022-08-04T10:53:23.000Z</time>
      </trkpt>
      <trkpt lat="49.33756" lon="-0.6554">
        <ele>49.484881</ele>
        <time>2022-08-04T10:53:24.000Z</time>
      </trkpt>
      <trkpt lat="49.33754" lon="-0.65534">
        <ele>49.342847</ele>
        <time>2022-08-04T10:53:25.000Z</time>
      </trkpt>
      <trkpt lat="49.33752" lon="-0.65529">
        <ele>49.210887</ele>
        <time>2022-08-04T10:53:26.000Z</time>
      </trkpt>
      <trkpt lat="49.33751" lon="-0.65524">
        <ele>49.093012</ele>
        <time>2022-08-04T10:53:27.000Z</time>
      </trkpt>
      <trkpt lat="49.3375" lon="-0.65518">
        <ele>48.970991</ele>
        <time>2022-08-04T10:53:28.000Z</time>
      </trkpt>
      <trkpt lat="49.33749" lon="-0.65514">
        <ele>48.860586</ele>
        <time>2022-08-04T10:53:29.000Z</time>
      </trkpt>
      <trkpt lat="49.33748" lon="-0.65509">
        <ele>48.74441</ele>
        <time>2022-08-04T10:53:30.000Z</time>
      </trkpt>
      <trkpt lat="49.33747" lon="-0.65504">
        <ele>48.638766</ele>
        <time>2022-08-04T10:53:31.000Z</time>
      </trkpt>
      <trkpt lat="49.33746" lon="-0.65499">
        <ele>48.528361</ele>
        <time>2022-08-04T10:53:32.000Z</time>
      </trkpt>
      <trkpt lat="49.33746" lon="-0.65495">
        <ele>48.424898</ele>
        <time>2022-08-04T10:53:33.000Z</time>
      </trkpt>
      <trkpt lat="49.33746" lon="-0.6549">
        <ele>48.330152</ele>
        <time>2022-08-04T10:53:34.000Z</time>
      </trkpt>
      <trkpt lat="49.33746" lon="-0.65486">
        <ele>48.233755</ele>
        <time>2022-08-04T10:53:35.000Z</time>
      </trkpt>
      <trkpt lat="49.33746" lon="-0.65482">
        <ele>48.139009</ele>
        <time>2022-08-04T10:53:36.000Z</time>
      </trkpt>
      <trkpt lat="49.33746" lon="-0.65477">
        <ele>48.035546</ele>
        <time>2022-08-04T10:53:37.000Z</time>
      </trkpt>
      <trkpt lat="49.33746" lon="-0.65472">
        <ele>47.990785</ele>
        <time>2022-08-04T10:53:38.000Z</time>
      </trkpt>
      <trkpt lat="49.33747" lon="-0.65468">
        <ele>47.98048</ele>
        <time>2022-08-04T10:53:39.000Z</time>
      </trkpt>
      <trkpt lat="49.33747" lon="-0.65463">
        <ele>47.970058</ele>
        <time>2022-08-04T10:53:40.000Z</time>
      </trkpt>
      <trkpt lat="49.33748" lon="-0.65459">
        <ele>47.959794</ele>
        <time>2022-08-04T10:53:41.000Z</time>
      </trkpt>
      <trkpt lat="49.33748" lon="-0.65455">
        <ele>47.950491</ele>
        <time>2022-08-04T10:53:42.000Z</time>
      </trkpt>
      <trkpt lat="49.33747" lon="-0.65452">
        <ele>47.943604</ele>
        <time>2022-08-04T10:53:43.000Z</time>
      </trkpt>
      <trkpt lat="49.33747" lon="-0.65448">
        <ele>47.934528</ele>
        <time>2022-08-04T10:53:44.000Z</time>
      </trkpt>
      <trkpt lat="49.33748" lon="-0.65445">
        <ele>47.927192</ele>
        <time>2022-08-04T10:53:45.000Z</time>
      </trkpt>
      <trkpt lat="49.33747" lon="-0.65442">
        <ele>47.920753</ele>
        <time>2022-08-04T10:53:46.000Z</time>
      </trkpt>
      <trkpt lat="49.33747" lon="-0.65439">
        <ele>47.914173</ele>
        <time>2022-08-04T10:53:47.000Z</time>
      </trkpt>
      <trkpt lat="49.33747" lon="-0.65434">
        <ele>47.902147</ele>
        <time>2022-08-04T10:53:49.000Z</time>
      </trkpt>
      <trkpt lat="49.33747" lon="-0.65429">
        <ele>47.891256</ele>
        <time>2022-08-04T10:53:51.000Z</time>
      </trkpt>
      <trkpt lat="49.33746" lon="-0.65426">
        <ele>47.883811</ele>
        <time>2022-08-04T10:53:52.000Z</time>
      </trkpt>
      <trkpt lat="49.33746" lon="-0.65423">
        <ele>47.877004</ele>
        <time>2022-08-04T10:53:53.000Z</time>
      </trkpt>
      <trkpt lat="49.33747" lon="-0.65419">
        <ele>47.868718</ele>
        <time>2022-08-04T10:53:54.000Z</time>
      </trkpt>
      <trkpt lat="49.33748" lon="-0.65416">
        <ele>47.860809</ele>
        <time>2022-08-04T10:53:55.000Z</time>
      </trkpt>
      <trkpt lat="49.33748" lon="-0.65413">
        <ele>47.854216</ele>
        <time>2022-08-04T10:53:56.000Z</time>
      </trkpt>
      <trkpt lat="49.33749" lon="-0.6541">
        <ele>47.845981</ele>
        <time>2022-08-04T10:53:57.000Z</time>
      </trkpt>
      <trkpt lat="49.33749" lon="-0.65405">
        <ele>47.835558</ele>
        <time>2022-08-04T10:53:58.000Z</time>
      </trkpt>
      <trkpt lat="49.33749" lon="-0.65402">
        <ele>47.827163</ele>
        <time>2022-08-04T10:53:59.000Z</time>
      </trkpt>
      <trkpt lat="49.33749" lon="-0.65398">
        <ele>47.819221</ele>
        <time>2022-08-04T10:54:00.000Z</time>
      </trkpt>
      <trkpt lat="49.3375" lon="-0.65395">
        <ele>47.811562</ele>
        <time>2022-08-04T10:54:01.000Z</time>
      </trkpt>
      <trkpt lat="49.3375" lon="-0.65391">
        <ele>47.803327</ele>
        <time>2022-08-04T10:54:02.000Z</time>
      </trkpt>
      <trkpt lat="49.33751" lon="-0.65387">
        <ele>47.792212</ele>
        <time>2022-08-04T10:54:03.000Z</time>
      </trkpt>
      <trkpt lat="49.33752" lon="-0.65382">
        <ele>47.782375</ele>
        <time>2022-08-04T10:54:04.000Z</time>
      </trkpt>
      <trkpt lat="49.33752" lon="-0.65379">
        <ele>47.774433</ele>
        <time>2022-08-04T10:54:05.000Z</time>
      </trkpt>
      <trkpt lat="49.33752" lon="-0.65374">
        <ele>47.764223</ele>
        <time>2022-08-04T10:54:06.000Z</time>
      </trkpt>
      <trkpt lat="49.33752" lon="-0.65369">
        <ele>47.75283</ele>
        <time>2022-08-04T10:54:07.000Z</time>
      </trkpt>
      <trkpt lat="49.33753" lon="-0.65364">
        <ele>47.739873</ele>
        <time>2022-08-04T10:54:08.000Z</time>
      </trkpt>
      <trkpt lat="49.33753" lon="-0.65359">
        <ele>47.728932</ele>
        <time>2022-08-04T10:54:09.000Z</time>
      </trkpt>
      <trkpt lat="49.33754" lon="-0.65355">
        <ele>47.720472</ele>
        <time>2022-08-04T10:54:10.000Z</time>
      </trkpt>
      <trkpt lat="49.33754" lon="-0.6535">
        <ele>47.708266</ele>
        <time>2022-08-04T10:54:11.000Z</time>
      </trkpt>
      <trkpt lat="49.33755" lon="-0.65345">
        <ele>47.697047</ele>
        <time>2022-08-04T10:54:12.000Z</time>
      </trkpt>
      <trkpt lat="49.33756" lon="-0.65341">
        <ele>47.686557</ele>
        <time>2022-08-04T10:54:13.000Z</time>
      </trkpt>
      <trkpt lat="49.33756" lon="-0.65337">
        <ele>47.678547</ele>
        <time>2022-08-04T10:54:14.000Z</time>
      </trkpt>
      <trkpt lat="49.33756" lon="-0.65332">
        <ele>47.665539</ele>
        <time>2022-08-04T10:54:15.000Z</time>
      </trkpt>
      <trkpt lat="49.33757" lon="-0.65327">
        <ele>47.654858</ele>
        <time>2022-08-04T10:54:16.000Z</time>
      </trkpt>
      <trkpt lat="49.33757" lon="-0.65323">
        <ele>47.644594</ele>
        <time>2022-08-04T10:54:17.000Z</time>
      </trkpt>
      <trkpt lat="49.33758" lon="-0.65318">
        <ele>47.633655</ele>
        <time>2022-08-04T10:54:18.000Z</time>
      </trkpt>
      <trkpt lat="49.33759" lon="-0.65313">
        <ele>47.622974</ele>
        <time>2022-08-04T10:54:19.000Z</time>
      </trkpt>
      <trkpt lat="49.3376" lon="-0.6531">
        <ele>47.61445</ele>
        <time>2022-08-04T10:54:20.000Z</time>
      </trkpt>
      <trkpt lat="49.33761" lon="-0.65304">
        <ele>47.601387</ele>
        <time>2022-08-04T10:54:21.000Z</time>
      </trkpt>
      <trkpt lat="49.33762" lon="-0.653">
        <ele>47.590743</ele>
        <time>2022-08-04T10:54:22.000Z</time>
      </trkpt>
      <trkpt lat="49.33762" lon="-0.65295">
        <ele>47.57943</ele>
        <time>2022-08-04T10:54:23.000Z</time>
      </trkpt>
      <trkpt lat="49.33763" lon="-0.6529">
        <ele>47.567996</ele>
        <time>2022-08-04T10:54:24.000Z</time>
      </trkpt>
      <trkpt lat="49.33764" lon="-0.65285">
        <ele>47.557128</ele>
        <time>2022-08-04T10:54:25.000Z</time>
      </trkpt>
      <trkpt lat="49.33765" lon="-0.65281">
        <ele>47.546373</ele>
        <time>2022-08-04T10:54:26.000Z</time>
      </trkpt>
      <trkpt lat="49.33766" lon="-0.65276">
        <ele>47.535154</ele>
        <time>2022-08-04T10:54:27.000Z</time>
      </trkpt>
      <trkpt lat="49.33767" lon="-0.65273">
        <ele>47.525416</ele>
        <time>2022-08-04T10:54:28.000Z</time>
      </trkpt>
      <trkpt lat="49.33769" lon="-0.65267">
        <ele>47.511749</ele>
        <time>2022-08-04T10:54:29.000Z</time>
      </trkpt>
      <trkpt lat="49.3377" lon="-0.65263">
        <ele>47.502574</ele>
        <time>2022-08-04T10:54:30.000Z</time>
      </trkpt>
      <trkpt lat="49.33772" lon="-0.6526">
        <ele>47.492873</ele>
        <time>2022-08-04T10:54:31.000Z</time>
      </trkpt>
      <trkpt lat="49.33773" lon="-0.65256">
        <ele>47.48271</ele>
        <time>2022-08-04T10:54:32.000Z</time>
      </trkpt>
      <trkpt lat="49.33775" lon="-0.65253">
        <ele>47.472812</ele>
        <time>2022-08-04T10:54:33.000Z</time>
      </trkpt>
      <trkpt lat="49.33777" lon="-0.65251">
        <ele>47.464097</ele>
        <time>2022-08-04T10:54:34.000Z</time>
      </trkpt>
      <trkpt lat="49.3378" lon="-0.65249">
        <ele>47.454749</ele>
        <time>2022-08-04T10:54:35.000Z</time>
      </trkpt>
      <trkpt lat="49.33782" lon="-0.65248">
        <ele>47.447095</ele>
        <time>2022-08-04T10:54:36.000Z</time>
      </trkpt>
      <trkpt lat="49.33784" lon="-0.65247">
        <ele>47.438885</ele>
        <time>2022-08-04T10:54:37.000Z</time>
      </trkpt>
      <trkpt lat="49.33786" lon="-0.65246">
        <ele>47.431012</ele>
        <time>2022-08-04T10:54:38.000Z</time>
      </trkpt>
      <trkpt lat="49.33788" lon="-0.65245">
        <ele>47.423956</ele>
        <time>2022-08-04T10:54:39.000Z</time>
      </trkpt>
      <trkpt lat="49.33791" lon="-0.65245">
        <ele>47.41414</ele>
        <time>2022-08-04T10:54:41.000Z</time>
      </trkpt>
      <trkpt lat="49.33795" lon="-0.65244">
        <ele>47.401553</ele>
        <time>2022-08-04T10:54:43.000Z</time>
      </trkpt>
      <trkpt lat="49.33797" lon="-0.65243">
        <ele>47.392286</ele>
        <time>2022-08-04T10:54:45.000Z</time>
      </trkpt>
      <trkpt lat="49.338" lon="-0.65241">
        <ele>47.382353</ele>
        <time>2022-08-04T10:54:47.000Z</time>
      </trkpt>
      <trkpt lat="49.33803" lon="-0.6524">
        <ele>47.370702</ele>
        <time>2022-08-04T10:54:49.000Z</time>
      </trkpt>
      <trkpt lat="49.33806" lon="-0.65238">
        <ele>47.397983</ele>
        <time>2022-08-04T10:54:51.000Z</time>
      </trkpt>
      <trkpt lat="49.33809" lon="-0.65237">
        <ele>47.424333</ele>
        <time>2022-08-04T10:54:53.000Z</time>
      </trkpt>
      <trkpt lat="49.33811" lon="-0.65237">
        <ele>47.445436</ele>
        <time>2022-08-04T10:54:54.000Z</time>
      </trkpt>
      <trkpt lat="49.33813" lon="-0.65236">
        <ele>47.463011</ele>
        <time>2022-08-04T10:54:55.000Z</time>
      </trkpt>
      <trkpt lat="49.33815" lon="-0.65236">
        <ele>47.486723</ele>
        <time>2022-08-04T10:54:57.000Z</time>
      </trkpt>
      <trkpt lat="49.33819" lon="-0.65237">
        <ele>47.515951</ele>
        <time>2022-08-04T10:54:59.000Z</time>
      </trkpt>
      <trkpt lat="49.33822" lon="-0.65235">
        <ele>47.545983</ele>
        <time>2022-08-04T10:55:01.000Z</time>
      </trkpt>
      <trkpt lat="49.33824" lon="-0.65235">
        <ele>47.566259</ele>
        <time>2022-08-04T10:55:02.000Z</time>
      </trkpt>
      <trkpt lat="49.33827" lon="-0.65235">
        <ele>47.59003</ele>
        <time>2022-08-04T10:55:03.000Z</time>
      </trkpt>
      <trkpt lat="49.33829" lon="-0.65234">
        <ele>47.612892</ele>
        <time>2022-08-04T10:55:04.000Z</time>
      </trkpt>
      <trkpt lat="49.33833" lon="-0.65233">
        <ele>47.648941</ele>
        <time>2022-08-04T10:55:06.000Z</time>
      </trkpt>
      <trkpt lat="49.33835" lon="-0.65233">
        <ele>47.669216</ele>
        <time>2022-08-04T10:55:07.000Z</time>
      </trkpt>
      <trkpt lat="49.33837" lon="-0.65232">
        <ele>47.6897</ele>
        <time>2022-08-04T10:55:08.000Z</time>
      </trkpt>
      <trkpt lat="49.3384" lon="-0.65232">
        <ele>47.710878</ele>
        <time>2022-08-04T10:55:09.000Z</time>
      </trkpt>
      <trkpt lat="49.33842" lon="-0.65231">
        <ele>47.73374</ele>
        <time>2022-08-04T10:55:10.000Z</time>
      </trkpt>
      <trkpt lat="49.33845" lon="-0.65231">
        <ele>47.754843</ele>
        <time>2022-08-04T10:55:11.000Z</time>
      </trkpt>
      <trkpt lat="49.33846" lon="-0.65231">
        <ele>47.772175</ele>
        <time>2022-08-04T10:55:12.000Z</time>
      </trkpt>
      <trkpt lat="49.33849" lon="-0.6523">
        <ele>47.792451</ele>
        <time>2022-08-04T10:55:13.000Z</time>
      </trkpt>
      <trkpt lat="49.33851" lon="-0.6523">
        <ele>47.811153</ele>
        <time>2022-08-04T10:55:14.000Z</time>
      </trkpt>
      <trkpt lat="49.33853" lon="-0.65229">
        <ele>47.834436</ele>
        <time>2022-08-04T10:55:15.000Z</time>
      </trkpt>
      <trkpt lat="49.33855" lon="-0.65228">
        <ele>47.85225</ele>
        <time>2022-08-04T10:55:16.000Z</time>
      </trkpt>
      <trkpt lat="49.33858" lon="-0.65228">
        <ele>47.876139</ele>
        <time>2022-08-04T10:55:17.000Z</time>
      </trkpt>
      <trkpt lat="49.3386" lon="-0.65227">
        <ele>47.89991</ele>
        <time>2022-08-04T10:55:18.000Z</time>
      </trkpt>
      <trkpt lat="49.33862" lon="-0.65227">
        <ele>47.917724</ele>
        <time>2022-08-04T10:55:19.000Z</time>
      </trkpt>
      <trkpt lat="49.33866" lon="-0.65226">
        <ele>47.955573</ele>
        <time>2022-08-04T10:55:21.000Z</time>
      </trkpt>
      <trkpt lat="49.33869" lon="-0.65225">
        <ele>47.976575</ele>
        <time>2022-08-04T10:55:22.000Z</time>
      </trkpt>
      <trkpt lat="49.3387" lon="-0.65225">
        <ele>47.993989</ele>
        <time>2022-08-04T10:55:23.000Z</time>
      </trkpt>
      <trkpt lat="49.33872" lon="-0.65225">
        <ele>48.011402</ele>
        <time>2022-08-04T10:55:24.000Z</time>
      </trkpt>
      <trkpt lat="49.33874" lon="-0.65224">
        <ele>48.02953</ele>
        <time>2022-08-04T10:55:25.000Z</time>
      </trkpt>
      <trkpt lat="49.33877" lon="-0.65223">
        <ele>48.0508</ele>
        <time>2022-08-04T10:55:26.000Z</time>
      </trkpt>
      <trkpt lat="49.33879" lon="-0.65224">
        <ele>48.073662</ele>
        <time>2022-08-04T10:55:27.000Z</time>
      </trkpt>
      <trkpt lat="49.33882" lon="-0.65223">
        <ele>48.10286</ele>
        <time>2022-08-04T10:55:28.000Z</time>
      </trkpt>
      <trkpt lat="49.33885" lon="-0.65223">
        <ele>48.126749</ele>
        <time>2022-08-04T10:55:29.000Z</time>
      </trkpt>
      <trkpt lat="49.33887" lon="-0.65222">
        <ele>48.15072</ele>
        <time>2022-08-04T10:55:30.000Z</time>
      </trkpt>
      <trkpt lat="49.3389" lon="-0.65222">
        <ele>48.176357</ele>
        <time>2022-08-04T10:55:31.000Z</time>
      </trkpt>
      <trkpt lat="49.33892" lon="-0.65222">
        <ele>48.194591</ele>
        <time>2022-08-04T10:55:32.000Z</time>
      </trkpt>
      <trkpt lat="49.33895" lon="-0.65221">
        <ele>48.217576</ele>
        <time>2022-08-04T10:55:33.000Z</time>
      </trkpt>
      <trkpt lat="49.33898" lon="-0.65221">
        <ele>48.247135</ele>
        <time>2022-08-04T10:55:34.000Z</time>
      </trkpt>
      <trkpt lat="49.33901" lon="-0.6522">
        <ele>48.27131</ele>
        <time>2022-08-04T10:55:35.000Z</time>
      </trkpt>
      <trkpt lat="49.33902" lon="-0.65219">
        <ele>48.290042</ele>
        <time>2022-08-04T10:55:36.000Z</time>
      </trkpt>
      <trkpt lat="49.33905" lon="-0.65218">
        <ele>48.314479</ele>
        <time>2022-08-04T10:55:37.000Z</time>
      </trkpt>
      <trkpt lat="49.33908" lon="-0.65217">
        <ele>48.340688</ele>
        <time>2022-08-04T10:55:38.000Z</time>
      </trkpt>
      <trkpt lat="49.33911" lon="-0.65216">
        <ele>48.367293</ele>
        <time>2022-08-04T10:55:39.000Z</time>
      </trkpt>
      <trkpt lat="49.33913" lon="-0.65215">
        <ele>48.391359</ele>
        <time>2022-08-04T10:55:40.000Z</time>
      </trkpt>
      <trkpt lat="49.33916" lon="-0.65215">
        <ele>48.414344</ele>
        <time>2022-08-04T10:55:41.000Z</time>
      </trkpt>
      <trkpt lat="49.33918" lon="-0.65215">
        <ele>48.438115</ele>
        <time>2022-08-04T10:55:42.000Z</time>
      </trkpt>
      <trkpt lat="49.33921" lon="-0.65214">
        <ele>48.462291</ele>
        <time>2022-08-04T10:55:43.000Z</time>
      </trkpt>
      <trkpt lat="49.33924" lon="-0.65213">
        <ele>48.48799</ele>
        <time>2022-08-04T10:55:44.000Z</time>
      </trkpt>
      <trkpt lat="49.33926" lon="-0.65212">
        <ele>48.512427</ele>
        <time>2022-08-04T10:55:45.000Z</time>
      </trkpt>
      <trkpt lat="49.3393" lon="-0.65211">
        <ele>48.542087</ele>
        <time>2022-08-04T10:55:46.000Z</time>
      </trkpt>
      <trkpt lat="49.33933" lon="-0.65211">
        <ele>48.56895</ele>
        <time>2022-08-04T10:55:47.000Z</time>
      </trkpt>
      <trkpt lat="49.33935" lon="-0.6521">
        <ele>48.592232</ele>
        <time>2022-08-04T10:55:48.000Z</time>
      </trkpt>
      <trkpt lat="49.33938" lon="-0.65208">
        <ele>48.619948</ele>
        <time>2022-08-04T10:55:49.000Z</time>
      </trkpt>
      <trkpt lat="49.33941" lon="-0.65207">
        <ele>48.645272</ele>
        <time>2022-08-04T10:55:50.000Z</time>
      </trkpt>
      <trkpt lat="49.33943" lon="-0.65206">
        <ele>48.669337</ele>
        <time>2022-08-04T10:55:51.000Z</time>
      </trkpt>
      <trkpt lat="49.33946" lon="-0.65204">
        <ele>48.69688</ele>
        <time>2022-08-04T10:55:52.000Z</time>
      </trkpt>
      <trkpt lat="49.33949" lon="-0.65203">
        <ele>48.722001</ele>
        <time>2022-08-04T10:55:53.000Z</time>
      </trkpt>
      <trkpt lat="49.33951" lon="-0.65201">
        <ele>48.746695</ele>
        <time>2022-08-04T10:55:54.000Z</time>
      </trkpt>
      <trkpt lat="49.33954" lon="-0.652">
        <ele>48.774412</ele>
        <time>2022-08-04T10:55:55.000Z</time>
      </trkpt>
      <trkpt lat="49.33957" lon="-0.65198">
        <ele>48.799735</ele>
        <time>2022-08-04T10:55:56.000Z</time>
      </trkpt>
      <trkpt lat="49.33959" lon="-0.65197">
        <ele>48.8238</ele>
        <time>2022-08-04T10:55:57.000Z</time>
      </trkpt>
      <trkpt lat="49.33962" lon="-0.65195">
        <ele>48.849565</ele>
        <time>2022-08-04T10:55:58.000Z</time>
      </trkpt>
      <trkpt lat="49.33964" lon="-0.65194">
        <ele>48.874889</ele>
        <time>2022-08-04T10:55:59.000Z</time>
      </trkpt>
      <trkpt lat="49.33967" lon="-0.65192">
        <ele>48.899583</ele>
        <time>2022-08-04T10:56:00.000Z</time>
      </trkpt>
      <trkpt lat="49.3397" lon="-0.65191">
        <ele>48.930456</ele>
        <time>2022-08-04T10:56:01.000Z</time>
      </trkpt>
      <trkpt lat="49.33973" lon="-0.65189">
        <ele>48.958758</ele>
        <time>2022-08-04T10:56:02.000Z</time>
      </trkpt>
      <trkpt lat="49.33976" lon="-0.65187">
        <ele>48.993018</ele>
        <time>2022-08-04T10:56:03.000Z</time>
      </trkpt>
      <trkpt lat="49.3398" lon="-0.65185">
        <ele>48.988674</ele>
        <time>2022-08-04T10:56:04.000Z</time>
      </trkpt>
      <trkpt lat="49.33983" lon="-0.65183">
        <ele>48.950109</ele>
        <time>2022-08-04T10:56:05.000Z</time>
      </trkpt>
      <trkpt lat="49.33986" lon="-0.65181">
        <ele>48.904808</ele>
        <time>2022-08-04T10:56:06.000Z</time>
      </trkpt>
      <trkpt lat="49.3399" lon="-0.65179">
        <ele>48.859347</ele>
        <time>2022-08-04T10:56:07.000Z</time>
      </trkpt>
      <trkpt lat="49.33993" lon="-0.65177">
        <ele>48.821886</ele>
        <time>2022-08-04T10:56:08.000Z</time>
      </trkpt>
      <trkpt lat="49.33996" lon="-0.65175">
        <ele>48.774884</ele>
        <time>2022-08-04T10:56:09.000Z</time>
      </trkpt>
      <trkpt lat="49.34" lon="-0.65173">
        <ele>48.729008</ele>
        <time>2022-08-04T10:56:10.000Z</time>
      </trkpt>
      <trkpt lat="49.34004" lon="-0.6517">
        <ele>48.678542</ele>
        <time>2022-08-04T10:56:11.000Z</time>
      </trkpt>
      <trkpt lat="49.34007" lon="-0.65168">
        <ele>48.626646</ele>
        <time>2022-08-04T10:56:12.000Z</time>
      </trkpt>
      <trkpt lat="49.34012" lon="-0.65165">
        <ele>48.572529</ele>
        <time>2022-08-04T10:56:13.000Z</time>
      </trkpt>
      <trkpt lat="49.34015" lon="-0.65162">
        <ele>48.519614</ele>
        <time>2022-08-04T10:56:14.000Z</time>
      </trkpt>
      <trkpt lat="49.34018" lon="-0.65159">
        <ele>48.478194</ele>
        <time>2022-08-04T10:56:15.000Z</time>
      </trkpt>
      <trkpt lat="49.34022" lon="-0.65156">
        <ele>48.426618</ele>
        <time>2022-08-04T10:56:16.000Z</time>
      </trkpt>
      <trkpt lat="49.34026" lon="-0.65154">
        <ele>48.379103</ele>
        <time>2022-08-04T10:56:17.000Z</time>
      </trkpt>
      <trkpt lat="49.34029" lon="-0.65151">
        <ele>48.329839</ele>
        <time>2022-08-04T10:56:18.000Z</time>
      </trkpt>
      <trkpt lat="49.34033" lon="-0.65149">
        <ele>48.279707</ele>
        <time>2022-08-04T10:56:19.000Z</time>
      </trkpt>
      <trkpt lat="49.34037" lon="-0.65147">
        <ele>48.228914</ele>
        <time>2022-08-04T10:56:20.000Z</time>
      </trkpt>
      <trkpt lat="49.3404" lon="-0.65144">
        <ele>48.18343</ele>
        <time>2022-08-04T10:56:21.000Z</time>
      </trkpt>
      <trkpt lat="49.34045" lon="-0.65141">
        <ele>48.12392</ele>
        <time>2022-08-04T10:56:22.000Z</time>
      </trkpt>
      <trkpt lat="49.34048" lon="-0.65138">
        <ele>48.076044</ele>
        <time>2022-08-04T10:56:23.000Z</time>
      </trkpt>
      <trkpt lat="49.34052" lon="-0.65135">
        <ele>48.024148</ele>
        <time>2022-08-04T10:56:24.000Z</time>
      </trkpt>
      <trkpt lat="49.34056" lon="-0.65132">
        <ele>47.973356</ele>
        <time>2022-08-04T10:56:25.000Z</time>
      </trkpt>
      <trkpt lat="49.3406" lon="-0.6513">
        <ele>47.92619</ele>
        <time>2022-08-04T10:56:26.000Z</time>
      </trkpt>
      <trkpt lat="49.34063" lon="-0.65127">
        <ele>47.874294</ele>
        <time>2022-08-04T10:56:27.000Z</time>
      </trkpt>
      <trkpt lat="49.34067" lon="-0.65124">
        <ele>47.823165</ele>
        <time>2022-08-04T10:56:28.000Z</time>
      </trkpt>
      <trkpt lat="49.34071" lon="-0.65122">
        <ele>47.776338</ele>
        <time>2022-08-04T10:56:29.000Z</time>
      </trkpt>
      <trkpt lat="49.34074" lon="-0.65119">
        <ele>47.732044</ele>
        <time>2022-08-04T10:56:30.000Z</time>
      </trkpt>
      <trkpt lat="49.34077" lon="-0.65117">
        <ele>47.68849</ele>
        <time>2022-08-04T10:56:31.000Z</time>
      </trkpt>
      <trkpt lat="49.3408" lon="-0.65115">
        <ele>47.649926</ele>
        <time>2022-08-04T10:56:32.000Z</time>
      </trkpt>
      <trkpt lat="49.34083" lon="-0.65112">
        <ele>47.606371</ele>
        <time>2022-08-04T10:56:33.000Z</time>
      </trkpt>
      <trkpt lat="49.34086" lon="-0.6511">
        <ele>47.567807</ele>
        <time>2022-08-04T10:56:34.000Z</time>
      </trkpt>
      <trkpt lat="49.34089" lon="-0.65108">
        <ele>47.529243</ele>
        <time>2022-08-04T10:56:35.000Z</time>
      </trkpt>
      <trkpt lat="49.34092" lon="-0.65106">
        <ele>47.495046</ele>
        <time>2022-08-04T10:56:36.000Z</time>
      </trkpt>
      <trkpt lat="49.34094" lon="-0.65104">
        <ele>47.459034</ele>
        <time>2022-08-04T10:56:37.000Z</time>
      </trkpt>
      <trkpt lat="49.34097" lon="-0.65102">
        <ele>47.420469</ele>
        <time>2022-08-04T10:56:38.000Z</time>
      </trkpt>
      <trkpt lat="49.341" lon="-0.651">
        <ele>47.386273</ele>
        <time>2022-08-04T10:56:39.000Z</time>
      </trkpt>
      <trkpt lat="49.34103" lon="-0.65098">
        <ele>47.34545</ele>
        <time>2022-08-04T10:56:40.000Z</time>
      </trkpt>
      <trkpt lat="49.34106" lon="-0.65097">
        <ele>47.304375</ele>
        <time>2022-08-04T10:56:41.000Z</time>
      </trkpt>
      <trkpt lat="49.34109" lon="-0.65095">
        <ele>47.259601</ele>
        <time>2022-08-04T10:56:42.000Z</time>
      </trkpt>
      <trkpt lat="49.34113" lon="-0.65093">
        <ele>47.209969</ele>
        <time>2022-08-04T10:56:43.000Z</time>
      </trkpt>
      <trkpt lat="49.34117" lon="-0.65091">
        <ele>47.16098</ele>
        <time>2022-08-04T10:56:44.000Z</time>
      </trkpt>
      <trkpt lat="49.34121" lon="-0.65089">
        <ele>47.111103</ele>
        <time>2022-08-04T10:56:45.000Z</time>
      </trkpt>
      <trkpt lat="49.34125" lon="-0.65087">
        <ele>47.05892</ele>
        <time>2022-08-04T10:56:46.000Z</time>
      </trkpt>
      <trkpt lat="49.34129" lon="-0.65085">
        <ele>47.009288</ele>
        <time>2022-08-04T10:56:47.000Z</time>
      </trkpt>
      <trkpt lat="49.34133" lon="-0.65083">
        <ele>46.96105</ele>
        <time>2022-08-04T10:56:48.000Z</time>
      </trkpt>
      <trkpt lat="49.34137" lon="-0.65081">
        <ele>46.908156</ele>
        <time>2022-08-04T10:56:49.000Z</time>
      </trkpt>
      <trkpt lat="49.34141" lon="-0.6508">
        <ele>46.856641</ele>
        <time>2022-08-04T10:56:50.000Z</time>
      </trkpt>
      <trkpt lat="49.34145" lon="-0.65078">
        <ele>46.801164</ele>
        <time>2022-08-04T10:56:51.000Z</time>
      </trkpt>
      <trkpt lat="49.34149" lon="-0.65076">
        <ele>46.740134</ele>
        <time>2022-08-04T10:56:52.000Z</time>
      </trkpt>
      <trkpt lat="49.34153" lon="-0.65075">
        <ele>46.679348</ele>
        <time>2022-08-04T10:56:53.000Z</time>
      </trkpt>
      <trkpt lat="49.34156" lon="-0.65073">
        <ele>46.621053</ele>
        <time>2022-08-04T10:56:54.000Z</time>
      </trkpt>
      <trkpt lat="49.3416" lon="-0.65072">
        <ele>46.560023</ele>
        <time>2022-08-04T10:56:55.000Z</time>
      </trkpt>
      <trkpt lat="49.34163" lon="-0.65071">
        <ele>46.513791</ele>
        <time>2022-08-04T10:56:56.000Z</time>
      </trkpt>
      <trkpt lat="49.34166" lon="-0.6507">
        <ele>46.463514</ele>
        <time>2022-08-04T10:56:57.000Z</time>
      </trkpt>
      <trkpt lat="49.34168" lon="-0.6507">
        <ele>46.433892</ele>
        <time>2022-08-04T10:56:58.000Z</time>
      </trkpt>
      <trkpt lat="49.3417" lon="-0.65069">
        <ele>46.398725</ele>
        <time>2022-08-04T10:57:00.000Z</time>
      </trkpt>
      <trkpt lat="49.34175" lon="-0.65065">
        <ele>46.312277</ele>
        <time>2022-08-04T10:58:04.000Z</time>
      </trkpt>
      <trkpt lat="49.34178" lon="-0.65064">
        <ele>46.266045</ele>
        <time>2022-08-04T10:58:05.000Z</time>
      </trkpt>
      <trkpt lat="49.34181" lon="-0.65062">
        <ele>46.218445</ele>
        <time>2022-08-04T10:58:06.000Z</time>
      </trkpt>
      <trkpt lat="49.34184" lon="-0.65061">
        <ele>46.162187</ele>
        <time>2022-08-04T10:58:07.000Z</time>
      </trkpt>
      <trkpt lat="49.34188" lon="-0.6506">
        <ele>46.106175</ele>
        <time>2022-08-04T10:58:08.000Z</time>
      </trkpt>
      <trkpt lat="49.34191" lon="-0.65058">
        <ele>46.059457</ele>
        <time>2022-08-04T10:58:09.000Z</time>
      </trkpt>
      <trkpt lat="49.34194" lon="-0.65057">
        <ele>46.00797</ele>
        <time>2022-08-04T10:58:10.000Z</time>
      </trkpt>
      <trkpt lat="49.34197" lon="-0.65056">
        <ele>45.964766</ele>
        <time>2022-08-04T10:58:11.000Z</time>
      </trkpt>
      <trkpt lat="49.34199" lon="-0.65054">
        <ele>45.925988</ele>
        <time>2022-08-04T10:58:13.000Z</time>
      </trkpt>
      <trkpt lat="49.34205" lon="-0.65051">
        <ele>45.831715</ele>
        <time>2022-08-04T10:58:50.000Z</time>
      </trkpt>
      <trkpt lat="49.34207" lon="-0.6505">
        <ele>45.790972</ele>
        <time>2022-08-04T10:58:51.000Z</time>
      </trkpt>
      <trkpt lat="49.3421" lon="-0.65049">
        <ele>45.739965</ele>
        <time>2022-08-04T10:58:52.000Z</time>
      </trkpt>
      <trkpt lat="49.34213" lon="-0.65047">
        <ele>45.692679</ele>
        <time>2022-08-04T10:58:53.000Z</time>
      </trkpt>
      <trkpt lat="49.34216" lon="-0.65046">
        <ele>45.641191</ele>
        <time>2022-08-04T10:58:54.000Z</time>
      </trkpt>
      <trkpt lat="49.3422" lon="-0.65045">
        <ele>45.578654</ele>
        <time>2022-08-04T10:58:55.000Z</time>
      </trkpt>
      <trkpt lat="49.34223" lon="-0.65043">
        <ele>45.532525</ele>
        <time>2022-08-04T10:58:56.000Z</time>
      </trkpt>
      <trkpt lat="49.34227" lon="-0.65042">
        <ele>45.469988</ele>
        <time>2022-08-04T10:58:57.000Z</time>
      </trkpt>
      <trkpt lat="49.3423" lon="-0.6504">
        <ele>45.413976</ele>
        <time>2022-08-04T10:58:58.000Z</time>
      </trkpt>
      <trkpt lat="49.34234" lon="-0.65039">
        <ele>45.356875</ele>
        <time>2022-08-04T10:58:59.000Z</time>
      </trkpt>
      <trkpt lat="49.34237" lon="-0.65037">
        <ele>45.298785</ele>
        <time>2022-08-04T10:59:00.000Z</time>
      </trkpt>
      <trkpt lat="49.34241" lon="-0.65035">
        <ele>45.245774</ele>
        <time>2022-08-04T10:59:01.000Z</time>
      </trkpt>
      <trkpt lat="49.34245" lon="-0.65033">
        <ele>45.18213</ele>
        <time>2022-08-04T10:59:02.000Z</time>
      </trkpt>
      <trkpt lat="49.34248" lon="-0.65031">
        <ele>45.123678</ele>
        <time>2022-08-04T10:59:03.000Z</time>
      </trkpt>
      <trkpt lat="49.34252" lon="-0.65028">
        <ele>45.064052</ele>
        <time>2022-08-04T10:59:04.000Z</time>
      </trkpt>
      <trkpt lat="49.34255" lon="-0.65026">
        <ele>44.999066</ele>
        <time>2022-08-04T10:59:05.000Z</time>
      </trkpt>
      <trkpt lat="49.34259" lon="-0.65024">
        <ele>44.944527</ele>
        <time>2022-08-04T10:59:06.000Z</time>
      </trkpt>
      <trkpt lat="49.34262" lon="-0.65022">
        <ele>44.88267</ele>
        <time>2022-08-04T10:59:07.000Z</time>
      </trkpt>
      <trkpt lat="49.34266" lon="-0.6502">
        <ele>44.820185</ele>
        <time>2022-08-04T10:59:08.000Z</time>
      </trkpt>
      <trkpt lat="49.3427" lon="-0.65018">
        <ele>44.757124</ele>
        <time>2022-08-04T10:59:09.000Z</time>
      </trkpt>
      <trkpt lat="49.34274" lon="-0.65017">
        <ele>44.695834</ele>
        <time>2022-08-04T10:59:10.000Z</time>
      </trkpt>
      <trkpt lat="49.34278" lon="-0.65015">
        <ele>44.633297</ele>
        <time>2022-08-04T10:59:11.000Z</time>
      </trkpt>
      <trkpt lat="49.34281" lon="-0.65014">
        <ele>44.577039</ele>
        <time>2022-08-04T10:59:12.000Z</time>
      </trkpt>
      <trkpt lat="49.34285" lon="-0.65013">
        <ele>44.51192</ele>
        <time>2022-08-04T10:59:13.000Z</time>
      </trkpt>
      <trkpt lat="49.34289" lon="-0.65011">
        <ele>44.449382</ele>
        <time>2022-08-04T10:59:14.000Z</time>
      </trkpt>
      <trkpt lat="49.34293" lon="-0.65009">
        <ele>44.383052</ele>
        <time>2022-08-04T10:59:15.000Z</time>
      </trkpt>
      <trkpt lat="49.34298" lon="-0.65008">
        <ele>44.315491</ele>
        <time>2022-08-04T10:59:16.000Z</time>
      </trkpt>
      <trkpt lat="49.34301" lon="-0.65006">
        <ele>44.253634</ele>
        <time>2022-08-04T10:59:17.000Z</time>
      </trkpt>
      <trkpt lat="49.34306" lon="-0.65004">
        <ele>44.185527</ele>
        <time>2022-08-04T10:59:18.000Z</time>
      </trkpt>
      <trkpt lat="49.3431" lon="-0.65002">
        <ele>44.1177</ele>
        <time>2022-08-04T10:59:19.000Z</time>
      </trkpt>
      <trkpt lat="49.34314" lon="-0.65">
        <ele>44.050785</ele>
        <time>2022-08-04T10:59:20.000Z</time>
      </trkpt>
      <trkpt lat="49.34318" lon="-0.64998">
        <ele>43.974265</ele>
        <time>2022-08-04T10:59:21.000Z</time>
      </trkpt>
      <trkpt lat="49.34322" lon="-0.64996">
        <ele>43.895054</ele>
        <time>2022-08-04T10:59:22.000Z</time>
      </trkpt>
      <trkpt lat="49.34326" lon="-0.64994">
        <ele>43.814525</ele>
        <time>2022-08-04T10:59:23.000Z</time>
      </trkpt>
      <trkpt lat="49.34331" lon="-0.64992">
        <ele>43.724273</ele>
        <time>2022-08-04T10:59:24.000Z</time>
      </trkpt>
      <trkpt lat="49.34335" lon="-0.64989">
        <ele>43.641645</ele>
        <time>2022-08-04T10:59:25.000Z</time>
      </trkpt>
      <trkpt lat="49.3434" lon="-0.64986">
        <ele>43.55871</ele>
        <time>2022-08-04T10:59:26.000Z</time>
      </trkpt>
      <trkpt lat="49.34344" lon="-0.64983">
        <ele>43.473624</ele>
        <time>2022-08-04T10:59:27.000Z</time>
      </trkpt>
      <trkpt lat="49.34347" lon="-0.64979">
        <ele>43.397823</ele>
        <time>2022-08-04T10:59:28.000Z</time>
      </trkpt>
      <trkpt lat="49.34351" lon="-0.64975">
        <ele>43.31864</ele>
        <time>2022-08-04T10:59:29.000Z</time>
      </trkpt>
      <trkpt lat="49.34354" lon="-0.64971">
        <ele>43.242238</ele>
        <time>2022-08-04T10:59:30.000Z</time>
      </trkpt>
      <trkpt lat="49.34358" lon="-0.64966">
        <ele>43.153702</ele>
        <time>2022-08-04T10:59:31.000Z</time>
      </trkpt>
      <trkpt lat="49.34361" lon="-0.64962">
        <ele>43.072511</ele>
        <time>2022-08-04T10:59:32.000Z</time>
      </trkpt>
      <trkpt lat="49.34364" lon="-0.64957">
        <ele>42.997998</ele>
        <time>2022-08-04T10:59:33.000Z</time>
      </trkpt>
      <trkpt lat="49.34367" lon="-0.64951">
        <ele>42.913434</ele>
        <time>2022-08-04T10:59:34.000Z</time>
      </trkpt>
      <trkpt lat="49.3437" lon="-0.64946">
        <ele>42.831609</ele>
        <time>2022-08-04T10:59:35.000Z</time>
      </trkpt>
      <trkpt lat="49.34373" lon="-0.64941">
        <ele>42.74796</ele>
        <time>2022-08-04T10:59:36.000Z</time>
      </trkpt>
      <trkpt lat="49.34375" lon="-0.64935">
        <ele>42.668676</ele>
        <time>2022-08-04T10:59:37.000Z</time>
      </trkpt>
      <trkpt lat="49.34378" lon="-0.6493">
        <ele>42.58834</ele>
        <time>2022-08-04T10:59:38.000Z</time>
      </trkpt>
      <trkpt lat="49.3438" lon="-0.64924">
        <ele>42.508995</ele>
        <time>2022-08-04T10:59:39.000Z</time>
      </trkpt>
      <trkpt lat="49.34383" lon="-0.64918">
        <ele>42.42162</ele>
        <time>2022-08-04T10:59:40.000Z</time>
      </trkpt>
      <trkpt lat="49.34385" lon="-0.64912">
        <ele>42.343357</ele>
        <time>2022-08-04T10:59:41.000Z</time>
      </trkpt>
      <trkpt lat="49.34387" lon="-0.64906">
        <ele>42.262989</ele>
        <time>2022-08-04T10:59:42.000Z</time>
      </trkpt>
      <trkpt lat="49.34389" lon="-0.64902">
        <ele>42.202382</ele>
        <time>2022-08-04T10:59:43.000Z</time>
      </trkpt>
      <trkpt lat="49.34391" lon="-0.64895">
        <ele>42.1112</ele>
        <time>2022-08-04T10:59:44.000Z</time>
      </trkpt>
      <trkpt lat="49.34393" lon="-0.6489">
        <ele>42.038645</ele>
        <time>2022-08-04T10:59:45.000Z</time>
      </trkpt>
      <trkpt lat="49.34395" lon="-0.64885">
        <ele>41.967127</ele>
        <time>2022-08-04T10:59:46.000Z</time>
      </trkpt>
      <trkpt lat="49.34397" lon="-0.64879">
        <ele>41.89561</ele>
        <time>2022-08-04T10:59:47.000Z</time>
      </trkpt>
      <trkpt lat="49.34399" lon="-0.64874">
        <ele>41.823054</ele>
        <time>2022-08-04T10:59:48.000Z</time>
      </trkpt>
      <trkpt lat="49.34401" lon="-0.64868">
        <ele>41.750763</ele>
        <time>2022-08-04T10:59:49.000Z</time>
      </trkpt>
      <trkpt lat="49.34402" lon="-0.64862">
        <ele>41.674117</ele>
        <time>2022-08-04T10:59:50.000Z</time>
      </trkpt>
      <trkpt lat="49.34404" lon="-0.64856">
        <ele>41.595278</ele>
        <time>2022-08-04T10:59:51.000Z</time>
      </trkpt>
      <trkpt lat="49.34405" lon="-0.6485">
        <ele>41.516439</ele>
        <time>2022-08-04T10:59:52.000Z</time>
      </trkpt>
      <trkpt lat="49.34407" lon="-0.64844">
        <ele>41.435706</ele>
        <time>2022-08-04T10:59:53.000Z</time>
      </trkpt>
      <trkpt lat="49.34409" lon="-0.64838">
        <ele>41.354704</ele>
        <time>2022-08-04T10:59:54.000Z</time>
      </trkpt>
      <trkpt lat="49.34411" lon="-0.64831">
        <ele>41.272631</ele>
        <time>2022-08-04T10:59:55.000Z</time>
      </trkpt>
      <trkpt lat="49.34413" lon="-0.64825">
        <ele>41.189484</ele>
        <time>2022-08-04T10:59:56.000Z</time>
      </trkpt>
      <trkpt lat="49.34415" lon="-0.64819">
        <ele>41.112838</ele>
        <time>2022-08-04T10:59:57.000Z</time>
      </trkpt>
      <trkpt lat="49.34416" lon="-0.64813">
        <ele>41.03962</ele>
        <time>2022-08-04T10:59:58.000Z</time>
      </trkpt>
      <trkpt lat="49.34417" lon="-0.64807">
        <ele>40.967329</ele>
        <time>2022-08-04T10:59:59.000Z</time>
      </trkpt>
      <trkpt lat="49.34419" lon="-0.64802">
        <ele>40.89927</ele>
        <time>2022-08-04T11:00:00.000Z</time>
      </trkpt>
      <trkpt lat="49.3442" lon="-0.64797">
        <ele>40.83235</ele>
        <time>2022-08-04T11:00:01.000Z</time>
      </trkpt>
      <trkpt lat="49.34421" lon="-0.64791">
        <ele>40.766374</ele>
        <time>2022-08-04T11:00:02.000Z</time>
      </trkpt>
      <trkpt lat="49.34422" lon="-0.64786">
        <ele>40.692668</ele>
        <time>2022-08-04T11:00:03.000Z</time>
      </trkpt>
      <trkpt lat="49.34423" lon="-0.6478">
        <ele>40.618216</ele>
        <time>2022-08-04T11:00:04.000Z</time>
      </trkpt>
      <trkpt lat="49.34424" lon="-0.64775">
        <ele>40.543345</ele>
        <time>2022-08-04T11:00:05.000Z</time>
      </trkpt>
      <trkpt lat="49.34425" lon="-0.64769">
        <ele>40.464172</ele>
        <time>2022-08-04T11:00:06.000Z</time>
      </trkpt>
      <trkpt lat="49.34425" lon="-0.64763">
        <ele>40.383922</ele>
        <time>2022-08-04T11:00:07.000Z</time>
      </trkpt>
      <trkpt lat="49.34426" lon="-0.64756">
        <ele>40.30193</ele>
        <time>2022-08-04T11:00:08.000Z</time>
      </trkpt>
      <trkpt lat="49.34427" lon="-0.6475">
        <ele>40.217654</ele>
        <time>2022-08-04T11:00:09.000Z</time>
      </trkpt>
      <trkpt lat="49.34427" lon="-0.64744">
        <ele>40.136117</ele>
        <time>2022-08-04T11:00:10.000Z</time>
      </trkpt>
      <trkpt lat="49.34427" lon="-0.64737">
        <ele>40.055867</ele>
        <time>2022-08-04T11:00:11.000Z</time>
      </trkpt>
      <trkpt lat="49.34427" lon="-0.64733">
        <ele>39.993909</ele>
        <time>2022-08-04T11:00:12.000Z</time>
      </trkpt>
      <trkpt lat="49.34428" lon="-0.64725">
        <ele>39.899493</ele>
        <time>2022-08-04T11:00:13.000Z</time>
      </trkpt>
      <trkpt lat="49.34428" lon="-0.64719">
        <ele>39.818271</ele>
        <time>2022-08-04T11:00:14.000Z</time>
      </trkpt>
      <trkpt lat="49.34429" lon="-0.64713">
        <ele>39.736734</ele>
        <time>2022-08-04T11:00:15.000Z</time>
      </trkpt>
      <trkpt lat="49.34429" lon="-0.64707">
        <ele>39.655826</ele>
        <time>2022-08-04T11:00:16.000Z</time>
      </trkpt>
      <trkpt lat="49.34429" lon="-0.64701">
        <ele>39.578378</ele>
        <time>2022-08-04T11:00:17.000Z</time>
      </trkpt>
      <trkpt lat="49.3443" lon="-0.64695">
        <ele>39.504671</ele>
        <time>2022-08-04T11:00:18.000Z</time>
      </trkpt>
      <trkpt lat="49.3443" lon="-0.64689">
        <ele>39.430856</ele>
        <time>2022-08-04T11:00:19.000Z</time>
      </trkpt>
      <trkpt lat="49.3443" lon="-0.64684">
        <ele>39.359862</ele>
        <time>2022-08-04T11:00:20.000Z</time>
      </trkpt>
      <trkpt lat="49.34431" lon="-0.64679">
        <ele>39.292967</ele>
        <time>2022-08-04T11:00:21.000Z</time>
      </trkpt>
      <trkpt lat="49.34431" lon="-0.64674">
        <ele>39.231784</ele>
        <time>2022-08-04T11:00:22.000Z</time>
      </trkpt>
      <trkpt lat="49.34432" lon="-0.6467">
        <ele>39.173395</ele>
        <time>2022-08-04T11:00:23.000Z</time>
      </trkpt>
      <trkpt lat="49.34432" lon="-0.64665">
        <ele>39.114105</ele>
        <time>2022-08-04T11:00:24.000Z</time>
      </trkpt>
      <trkpt lat="49.34433" lon="-0.6466">
        <ele>39.053147</ele>
        <time>2022-08-04T11:00:25.000Z</time>
      </trkpt>
      <trkpt lat="49.34433" lon="-0.64656">
        <ele>38.990684</ele>
        <time>2022-08-04T11:00:26.000Z</time>
      </trkpt>
      <trkpt lat="49.34433" lon="-0.6465">
        <ele>38.922014</ele>
        <time>2022-08-04T11:00:27.000Z</time>
      </trkpt>
      <trkpt lat="49.34434" lon="-0.64645">
        <ele>38.848199</ele>
        <time>2022-08-04T11:00:28.000Z</time>
      </trkpt>
      <trkpt lat="49.34435" lon="-0.64638">
        <ele>38.765753</ele>
        <time>2022-08-04T11:00:29.000Z</time>
      </trkpt>
      <trkpt lat="49.34435" lon="-0.64632">
        <ele>38.681641</ele>
        <time>2022-08-04T11:00:30.000Z</time>
      </trkpt>
      <trkpt lat="49.34435" lon="-0.64625">
        <ele>38.596242</ele>
        <time>2022-08-04T11:00:31.000Z</time>
      </trkpt>
      <trkpt lat="49.34436" lon="-0.64618">
        <ele>38.506978</ele>
        <time>2022-08-04T11:00:32.000Z</time>
      </trkpt>
      <trkpt lat="49.34435" lon="-0.64611">
        <ele>38.416427</ele>
        <time>2022-08-04T11:00:33.000Z</time>
      </trkpt>
      <trkpt lat="49.34435" lon="-0.64604">
        <ele>38.318891</ele>
        <time>2022-08-04T11:00:34.000Z</time>
      </trkpt>
      <trkpt lat="49.34433" lon="-0.64596">
        <ele>38.215795</ele>
        <time>2022-08-04T11:00:35.000Z</time>
      </trkpt>
      <trkpt lat="49.34431" lon="-0.64588">
        <ele>38.105305</ele>
        <time>2022-08-04T11:00:36.000Z</time>
      </trkpt>
      <trkpt lat="49.34429" lon="-0.6458">
        <ele>37.992286</ele>
        <time>2022-08-04T11:00:37.000Z</time>
      </trkpt>
      <trkpt lat="49.34428" lon="-0.64572">
        <ele>37.881161</ele>
        <time>2022-08-04T11:00:38.000Z</time>
      </trkpt>
      <trkpt lat="49.34425" lon="-0.64564">
        <ele>37.772632</ele>
        <time>2022-08-04T11:00:39.000Z</time>
      </trkpt>
      <trkpt lat="49.34423" lon="-0.64557">
        <ele>37.671163</ele>
        <time>2022-08-04T11:00:40.000Z</time>
      </trkpt>
      <trkpt lat="49.34421" lon="-0.6455">
        <ele>37.5725</ele>
        <time>2022-08-04T11:00:41.000Z</time>
      </trkpt>
      <trkpt lat="49.3442" lon="-0.64545">
        <ele>37.50372</ele>
        <time>2022-08-04T11:00:42.000Z</time>
      </trkpt>
      <trkpt lat="49.34418" lon="-0.64538">
        <ele>37.412097</ele>
        <time>2022-08-04T11:00:43.000Z</time>
      </trkpt>
      <trkpt lat="49.34417" lon="-0.64534">
        <ele>37.344788</ele>
        <time>2022-08-04T11:00:44.000Z</time>
      </trkpt>
      <trkpt lat="49.34415" lon="-0.6453">
        <ele>37.289115</ele>
        <time>2022-08-04T11:00:45.000Z</time>
      </trkpt>
      <trkpt lat="49.34414" lon="-0.64527">
        <ele>37.244464</ele>
        <time>2022-08-04T11:00:46.000Z</time>
      </trkpt>
      <trkpt lat="49.34413" lon="-0.64524">
        <ele>37.213966</ele>
        <time>2022-08-04T11:00:47.000Z</time>
      </trkpt>
      <trkpt lat="49.34413" lon="-0.64521">
        <ele>37.289389</ele>
        <time>2022-08-04T11:00:48.000Z</time>
      </trkpt>
      <trkpt lat="49.34411" lon="-0.64516">
        <ele>37.435296</ele>
        <time>2022-08-04T11:00:50.000Z</time>
      </trkpt>
      <trkpt lat="49.3441" lon="-0.64511">
        <ele>37.553679</ele>
        <time>2022-08-04T11:00:52.000Z</time>
      </trkpt>
      <trkpt lat="49.34409" lon="-0.64507">
        <ele>37.673377</ele>
        <time>2022-08-04T11:00:54.000Z</time>
      </trkpt>
      <trkpt lat="49.34401" lon="-0.64451">
        <ele>39.142882</ele>
        <time>2022-08-04T11:01:58.000Z</time>
      </trkpt>
      <trkpt lat="49.34398" lon="-0.64433">
        <ele>39.607413</ele>
        <time>2022-08-04T11:02:26.000Z</time>
      </trkpt>
      <trkpt lat="49.34397" lon="-0.64429">
        <ele>39.717042</ele>
        <time>2022-08-04T11:02:27.000Z</time>
      </trkpt>
      <trkpt lat="49.34397" lon="-0.64425">
        <ele>39.827065</ele>
        <time>2022-08-04T11:02:28.000Z</time>
      </trkpt>
      <trkpt lat="49.34396" lon="-0.64421">
        <ele>39.936694</ele>
        <time>2022-08-04T11:02:29.000Z</time>
      </trkpt>
      <trkpt lat="49.34395" lon="-0.64417">
        <ele>40.046718</ele>
        <time>2022-08-04T11:02:30.000Z</time>
      </trkpt>
      <trkpt lat="49.34395" lon="-0.64413">
        <ele>40.154243</ele>
        <time>2022-08-04T11:02:31.000Z</time>
      </trkpt>
      <trkpt lat="49.34394" lon="-0.64408">
        <ele>40.273485</ele>
        <time>2022-08-04T11:02:32.000Z</time>
      </trkpt>
      <trkpt lat="49.34393" lon="-0.64405">
        <ele>40.366092</ele>
        <time>2022-08-04T11:02:33.000Z</time>
      </trkpt>
      <trkpt lat="49.34392" lon="-0.644">
        <ele>40.504468</ele>
        <time>2022-08-04T11:02:34.000Z</time>
      </trkpt>
      <trkpt lat="49.34391" lon="-0.64395">
        <ele>40.624918</ele>
        <time>2022-08-04T11:02:35.000Z</time>
      </trkpt>
      <trkpt lat="49.34391" lon="-0.6439">
        <ele>40.748284</ele>
        <time>2022-08-04T11:02:36.000Z</time>
      </trkpt>
      <trkpt lat="49.3439" lon="-0.64386">
        <ele>40.871183</ele>
        <time>2022-08-04T11:02:37.000Z</time>
      </trkpt>
      <trkpt lat="49.34389" lon="-0.64382">
        <ele>40.974694</ele>
        <time>2022-08-04T11:02:38.000Z</time>
      </trkpt>
      <trkpt lat="49.34389" lon="-0.64376">
        <ele>41.130022</ele>
        <time>2022-08-04T11:02:39.000Z</time>
      </trkpt>
      <trkpt lat="49.34388" lon="-0.64371">
        <ele>41.263855</ele>
        <time>2022-08-04T11:02:40.000Z</time>
      </trkpt>
      <trkpt lat="49.34387" lon="-0.64366">
        <ele>41.401504</ele>
        <time>2022-08-04T11:02:41.000Z</time>
      </trkpt>
      <trkpt lat="49.34387" lon="-0.64361">
        <ele>41.517253</ele>
        <time>2022-08-04T11:02:42.000Z</time>
      </trkpt>
      <trkpt lat="49.34385" lon="-0.64355">
        <ele>41.683913</ele>
        <time>2022-08-04T11:02:43.000Z</time>
      </trkpt>
      <trkpt lat="49.34384" lon="-0.6435">
        <ele>41.828823</ele>
        <time>2022-08-04T11:02:44.000Z</time>
      </trkpt>
      <trkpt lat="49.34383" lon="-0.64344">
        <ele>41.963952</ele>
        <time>2022-08-04T11:02:45.000Z</time>
      </trkpt>
      <trkpt lat="49.34383" lon="-0.64339">
        <ele>42.107348</ele>
        <time>2022-08-04T11:02:46.000Z</time>
      </trkpt>
      <trkpt lat="49.34382" lon="-0.64334">
        <ele>42.247496</ele>
        <time>2022-08-04T11:02:47.000Z</time>
      </trkpt>
      <trkpt lat="49.34381" lon="-0.64328">
        <ele>42.38623</ele>
        <time>2022-08-04T11:02:48.000Z</time>
      </trkpt>
      <trkpt lat="49.3438" lon="-0.64323">
        <ele>42.526362</ele>
        <time>2022-08-04T11:02:49.000Z</time>
      </trkpt>
      <trkpt lat="49.34379" lon="-0.64318">
        <ele>42.661492</ele>
        <time>2022-08-04T11:02:50.000Z</time>
      </trkpt>
      <trkpt lat="49.34378" lon="-0.64314">
        <ele>42.780474</ele>
        <time>2022-08-04T11:02:51.000Z</time>
      </trkpt>
      <trkpt lat="49.34377" lon="-0.64308">
        <ele>42.941428</ele>
        <time>2022-08-04T11:02:52.000Z</time>
      </trkpt>
      <trkpt lat="49.34376" lon="-0.64303">
        <ele>43.061878</ele>
        <time>2022-08-04T11:02:53.000Z</time>
      </trkpt>
      <trkpt lat="49.34375" lon="-0.643">
        <ele>43.160465</ele>
        <time>2022-08-04T11:02:54.000Z</time>
      </trkpt>
      <trkpt lat="49.34374" lon="-0.64294">
        <ele>43.313744</ele>
        <time>2022-08-04T11:02:56.000Z</time>
      </trkpt>
      <trkpt lat="49.34373" lon="-0.64289">
        <ele>43.435405</ele>
        <time>2022-08-04T11:02:58.000Z</time>
      </trkpt>
      <trkpt lat="49.34372" lon="-0.64284">
        <ele>43.581518</ele>
        <time>2022-08-04T11:03:00.000Z</time>
      </trkpt>
      <trkpt lat="49.34371" lon="-0.64281">
        <ele>43.661818</ele>
        <time>2022-08-04T11:03:01.000Z</time>
      </trkpt>
      <trkpt lat="49.34371" lon="-0.64278">
        <ele>43.739482</ele>
        <time>2022-08-04T11:03:02.000Z</time>
      </trkpt>
      <trkpt lat="49.34371" lon="-0.64275">
        <ele>43.819676</ele>
        <time>2022-08-04T11:03:03.000Z</time>
      </trkpt>
      <trkpt lat="49.34369" lon="-0.64269">
        <ele>43.979047</ele>
        <time>2022-08-04T11:03:05.000Z</time>
      </trkpt>
      <trkpt lat="49.34369" lon="-0.64266">
        <ele>44.051656</ele>
        <time>2022-08-04T11:03:06.000Z</time>
      </trkpt>
      <trkpt lat="49.34368" lon="-0.64261">
        <ele>44.196567</ele>
        <time>2022-08-04T11:03:08.000Z</time>
      </trkpt>
      <trkpt lat="49.34367" lon="-0.64256">
        <ele>44.29528</ele>
        <time>2022-08-04T11:03:10.000Z</time>
      </trkpt>
      <trkpt lat="49.34366" lon="-0.64253">
        <ele>44.327287</ele>
        <time>2022-08-04T11:03:11.000Z</time>
      </trkpt>
      <trkpt lat="49.34365" lon="-0.6425">
        <ele>44.360506</ele>
        <time>2022-08-04T11:03:12.000Z</time>
      </trkpt>
      <trkpt lat="49.34364" lon="-0.64245">
        <ele>44.42127</ele>
        <time>2022-08-04T11:03:14.000Z</time>
      </trkpt>
      <trkpt lat="49.34364" lon="-0.6424">
        <ele>44.478581</ele>
        <time>2022-08-04T11:03:16.000Z</time>
      </trkpt>
      <trkpt lat="49.34363" lon="-0.64235">
        <ele>44.53776</ele>
        <time>2022-08-04T11:03:18.000Z</time>
      </trkpt>
      <trkpt lat="49.34362" lon="-0.64233">
        <ele>44.570634</ele>
        <time>2022-08-04T11:03:19.000Z</time>
      </trkpt>
      <trkpt lat="49.34361" lon="-0.64227">
        <ele>44.632011</ele>
        <time>2022-08-04T11:03:21.000Z</time>
      </trkpt>
      <trkpt lat="49.3436" lon="-0.64222">
        <ele>44.690623</ele>
        <time>2022-08-04T11:03:23.000Z</time>
      </trkpt>
      <trkpt lat="49.34359" lon="-0.64219">
        <ele>44.72472</ele>
        <time>2022-08-04T11:03:24.000Z</time>
      </trkpt>
      <trkpt lat="49.34359" lon="-0.64214">
        <ele>44.785322</ele>
        <time>2022-08-04T11:03:26.000Z</time>
      </trkpt>
      <trkpt lat="49.34358" lon="-0.64209">
        <ele>44.846699</ele>
        <time>2022-08-04T11:03:28.000Z</time>
      </trkpt>
      <trkpt lat="49.34357" lon="-0.64206">
        <ele>44.879263</ele>
        <time>2022-08-04T11:03:29.000Z</time>
      </trkpt>
      <trkpt lat="49.34356" lon="-0.64203">
        <ele>44.91325</ele>
        <time>2022-08-04T11:03:30.000Z</time>
      </trkpt>
      <trkpt lat="49.34355" lon="-0.64198">
        <ele>44.975084</ele>
        <time>2022-08-04T11:03:32.000Z</time>
      </trkpt>
      <trkpt lat="49.34355" lon="-0.64193">
        <ele>45.037576</ele>
        <time>2022-08-04T11:03:34.000Z</time>
      </trkpt>
      <trkpt lat="49.34353" lon="-0.64187">
        <ele>45.101039</ele>
        <time>2022-08-04T11:03:36.000Z</time>
      </trkpt>
      <trkpt lat="49.34353" lon="-0.64184">
        <ele>45.133944</ele>
        <time>2022-08-04T11:03:37.000Z</time>
      </trkpt>
      <trkpt lat="49.34352" lon="-0.64182">
        <ele>45.167779</ele>
        <time>2022-08-04T11:03:38.000Z</time>
      </trkpt>
      <trkpt lat="49.34352" lon="-0.64179">
        <ele>45.200684</ele>
        <time>2022-08-04T11:03:39.000Z</time>
      </trkpt>
      <trkpt lat="49.3435" lon="-0.64174">
        <ele>45.263109</ele>
        <time>2022-08-04T11:03:41.000Z</time>
      </trkpt>
      <trkpt lat="49.3435" lon="-0.64171">
        <ele>45.294908</ele>
        <time>2022-08-04T11:03:42.000Z</time>
      </trkpt>
      <trkpt lat="49.34349" lon="-0.64168">
        <ele>45.327472</ele>
        <time>2022-08-04T11:03:43.000Z</time>
      </trkpt>
      <trkpt lat="49.34348" lon="-0.64165">
        <ele>45.364484</ele>
        <time>2022-08-04T11:03:44.000Z</time>
      </trkpt>
      <trkpt lat="49.34348" lon="-0.64163">
        <ele>45.398092</ele>
        <time>2022-08-04T11:03:45.000Z</time>
      </trkpt>
      <trkpt lat="49.34347" lon="-0.6416">
        <ele>45.429891</ele>
        <time>2022-08-04T11:03:46.000Z</time>
      </trkpt>
      <trkpt lat="49.34346" lon="-0.64155">
        <ele>45.494335</ele>
        <time>2022-08-04T11:03:48.000Z</time>
      </trkpt>
      <trkpt lat="49.34345" lon="-0.64151">
        <ele>45.531651</ele>
        <time>2022-08-04T11:03:49.000Z</time>
      </trkpt>
      <trkpt lat="49.34344" lon="-0.64146">
        <ele>45.59827</ele>
        <time>2022-08-04T11:03:51.000Z</time>
      </trkpt>
      <trkpt lat="49.34343" lon="-0.64143">
        <ele>45.631176</ele>
        <time>2022-08-04T11:03:52.000Z</time>
      </trkpt>
      <trkpt lat="49.34343" lon="-0.6414">
        <ele>45.664784</ele>
        <time>2022-08-04T11:03:53.000Z</time>
      </trkpt>
      <trkpt lat="49.34342" lon="-0.64137">
        <ele>45.701796</ele>
        <time>2022-08-04T11:03:54.000Z</time>
      </trkpt>
      <trkpt lat="49.34341" lon="-0.64134">
        <ele>45.739559</ele>
        <time>2022-08-04T11:03:55.000Z</time>
      </trkpt>
      <trkpt lat="49.3434" lon="-0.64131">
        <ele>45.781819</ele>
        <time>2022-08-04T11:03:56.000Z</time>
      </trkpt>
      <trkpt lat="49.34339" lon="-0.64128">
        <ele>45.816986</ele>
        <time>2022-08-04T11:03:57.000Z</time>
      </trkpt>
      <trkpt lat="49.34338" lon="-0.64125">
        <ele>45.857362</ele>
        <time>2022-08-04T11:03:58.000Z</time>
      </trkpt>
      <trkpt lat="49.34337" lon="-0.64122">
        <ele>45.892529</ele>
        <time>2022-08-04T11:03:59.000Z</time>
      </trkpt>
      <trkpt lat="49.34336" lon="-0.64119">
        <ele>45.931294</ele>
        <time>2022-08-04T11:04:00.000Z</time>
      </trkpt>
      <trkpt lat="49.34335" lon="-0.64116">
        <ele>45.963262</ele>
        <time>2022-08-04T11:04:01.000Z</time>
      </trkpt>
      <trkpt lat="49.34334" lon="-0.64112">
        <ele>46.010371</ele>
        <time>2022-08-04T11:04:02.000Z</time>
      </trkpt>
      <trkpt lat="49.34333" lon="-0.64109">
        <ele>46.049262</ele>
        <time>2022-08-04T11:04:03.000Z</time>
      </trkpt>
      <trkpt lat="49.34333" lon="-0.64105">
        <ele>46.09199</ele>
        <time>2022-08-04T11:04:04.000Z</time>
      </trkpt>
      <trkpt lat="49.34332" lon="-0.64102">
        <ele>46.138115</ele>
        <time>2022-08-04T11:04:05.000Z</time>
      </trkpt>
      <trkpt lat="49.34331" lon="-0.64099">
        <ele>46.173282</ele>
        <time>2022-08-04T11:04:06.000Z</time>
      </trkpt>
      <trkpt lat="49.3433" lon="-0.64094">
        <ele>46.227423</ele>
        <time>2022-08-04T11:04:07.000Z</time>
      </trkpt>
      <trkpt lat="49.34328" lon="-0.64091">
        <ele>46.273548</ele>
        <time>2022-08-04T11:04:08.000Z</time>
      </trkpt>
      <trkpt lat="49.34327" lon="-0.64087">
        <ele>46.314674</ele>
        <time>2022-08-04T11:04:09.000Z</time>
      </trkpt>
      <trkpt lat="49.34326" lon="-0.64084">
        <ele>46.359822</ele>
        <time>2022-08-04T11:04:10.000Z</time>
      </trkpt>
      <trkpt lat="49.34325" lon="-0.64081">
        <ele>46.398714</ele>
        <time>2022-08-04T11:04:11.000Z</time>
      </trkpt>
      <trkpt lat="49.34325" lon="-0.64077">
        <ele>46.43603</ele>
        <time>2022-08-04T11:04:12.000Z</time>
      </trkpt>
      <trkpt lat="49.34324" lon="-0.64074">
        <ele>46.476405</ele>
        <time>2022-08-04T11:04:13.000Z</time>
      </trkpt>
      <trkpt lat="49.34323" lon="-0.64071">
        <ele>46.510418</ele>
        <time>2022-08-04T11:04:14.000Z</time>
      </trkpt>
      <trkpt lat="49.34322" lon="-0.64068">
        <ele>46.549183</ele>
        <time>2022-08-04T11:04:15.000Z</time>
      </trkpt>
      <trkpt lat="49.34321" lon="-0.64065">
        <ele>46.586194</ele>
        <time>2022-08-04T11:04:16.000Z</time>
      </trkpt>
      <trkpt lat="49.3432" lon="-0.64062">
        <ele>46.628455</ele>
        <time>2022-08-04T11:04:17.000Z</time>
      </trkpt>
      <trkpt lat="49.34319" lon="-0.64059">
        <ele>46.666848</ele>
        <time>2022-08-04T11:04:18.000Z</time>
      </trkpt>
      <trkpt lat="49.34318" lon="-0.64056">
        <ele>46.701653</ele>
        <time>2022-08-04T11:04:19.000Z</time>
      </trkpt>
      <trkpt lat="49.34317" lon="-0.64052">
        <ele>46.749665</ele>
        <time>2022-08-04T11:04:20.000Z</time>
      </trkpt>
      <trkpt lat="49.34316" lon="-0.64048">
        <ele>46.795981</ele>
        <time>2022-08-04T11:04:21.000Z</time>
      </trkpt>
      <trkpt lat="49.34316" lon="-0.64045">
        <ele>46.838083</ele>
        <time>2022-08-04T11:04:22.000Z</time>
      </trkpt>
      <trkpt lat="49.34314" lon="-0.64042">
        <ele>46.87753</ele>
        <time>2022-08-04T11:04:23.000Z</time>
      </trkpt>
      <trkpt lat="49.34313" lon="-0.64038">
        <ele>46.924953</ele>
        <time>2022-08-04T11:04:24.000Z</time>
      </trkpt>
      <trkpt lat="49.34312" lon="-0.64035">
        <ele>46.965739</ele>
        <time>2022-08-04T11:04:25.000Z</time>
      </trkpt>
      <trkpt lat="49.34311" lon="-0.64031">
        <ele>47.004797</ele>
        <time>2022-08-04T11:04:26.000Z</time>
      </trkpt>
      <trkpt lat="49.3431" lon="-0.64028">
        <ele>47.045583</ele>
        <time>2022-08-04T11:04:27.000Z</time>
      </trkpt>
      <trkpt lat="49.34309" lon="-0.64022">
        <ele>47.121779</ele>
        <time>2022-08-04T11:04:29.000Z</time>
      </trkpt>
      <trkpt lat="49.34308" lon="-0.64018">
        <ele>47.164994</ele>
        <time>2022-08-04T11:04:30.000Z</time>
      </trkpt>
      <trkpt lat="49.34307" lon="-0.64015">
        <ele>47.205551</ele>
        <time>2022-08-04T11:04:31.000Z</time>
      </trkpt>
      <trkpt lat="49.34306" lon="-0.64012">
        <ele>47.243315</ele>
        <time>2022-08-04T11:04:32.000Z</time>
      </trkpt>
      <trkpt lat="49.34305" lon="-0.64009">
        <ele>47.280327</ele>
        <time>2022-08-04T11:04:33.000Z</time>
      </trkpt>
      <trkpt lat="49.34304" lon="-0.64006">
        <ele>47.317096</ele>
        <time>2022-08-04T11:04:34.000Z</time>
      </trkpt>
      <trkpt lat="49.34304" lon="-0.64003">
        <ele>47.348006</ele>
        <time>2022-08-04T11:04:35.000Z</time>
      </trkpt>
      <trkpt lat="49.34303" lon="-0.64">
        <ele>47.363871</ele>
        <time>2022-08-04T11:04:36.000Z</time>
      </trkpt>
      <trkpt lat="49.34301" lon="-0.63995">
        <ele>47.370968</ele>
        <time>2022-08-04T11:04:38.000Z</time>
      </trkpt>
      <trkpt lat="49.34299" lon="-0.6399">
        <ele>47.377961</ele>
        <time>2022-08-04T11:04:40.000Z</time>
      </trkpt>
      <trkpt lat="49.34298" lon="-0.63985">
        <ele>47.385237</ele>
        <time>2022-08-04T11:04:42.000Z</time>
      </trkpt>
      <trkpt lat="49.34296" lon="-0.63982">
        <ele>47.389007</ele>
        <time>2022-08-04T11:04:43.000Z</time>
      </trkpt>
      <trkpt lat="49.34295" lon="-0.6398">
        <ele>47.392779</ele>
        <time>2022-08-04T11:04:44.000Z</time>
      </trkpt>
      <trkpt lat="49.34294" lon="-0.63977">
        <ele>47.39612</ele>
        <time>2022-08-04T11:04:45.000Z</time>
      </trkpt>
      <trkpt lat="49.34294" lon="-0.63974">
        <ele>47.400726</ele>
        <time>2022-08-04T11:04:46.000Z</time>
      </trkpt>
      <trkpt lat="49.34293" lon="-0.6397">
        <ele>47.404804</ele>
        <time>2022-08-04T11:04:47.000Z</time>
      </trkpt>
      <trkpt lat="49.34292" lon="-0.63967">
        <ele>47.409125</ele>
        <time>2022-08-04T11:04:48.000Z</time>
      </trkpt>
      <trkpt lat="49.34291" lon="-0.63964">
        <ele>47.413522</ele>
        <time>2022-08-04T11:04:49.000Z</time>
      </trkpt>
      <trkpt lat="49.3429" lon="-0.6396">
        <ele>47.418028</ele>
        <time>2022-08-04T11:04:50.000Z</time>
      </trkpt>
      <trkpt lat="49.3429" lon="-0.63957">
        <ele>47.421935</ele>
        <time>2022-08-04T11:04:51.000Z</time>
      </trkpt>
      <trkpt lat="49.34288" lon="-0.63954">
        <ele>47.426491</ele>
        <time>2022-08-04T11:04:52.000Z</time>
      </trkpt>
      <trkpt lat="49.34288" lon="-0.63951">
        <ele>47.430513</ele>
        <time>2022-08-04T11:04:53.000Z</time>
      </trkpt>
      <trkpt lat="49.34286" lon="-0.63948">
        <ele>47.434377</ele>
        <time>2022-08-04T11:04:54.000Z</time>
      </trkpt>
      <trkpt lat="49.34286" lon="-0.63944">
        <ele>47.439336</ele>
        <time>2022-08-04T11:04:55.000Z</time>
      </trkpt>
      <trkpt lat="49.34285" lon="-0.63941">
        <ele>47.443529</ele>
        <time>2022-08-04T11:04:56.000Z</time>
      </trkpt>
      <trkpt lat="49.34284" lon="-0.63938">
        <ele>47.448084</ele>
        <time>2022-08-04T11:04:57.000Z</time>
      </trkpt>
      <trkpt lat="49.34283" lon="-0.63935">
        <ele>47.45244</ele>
        <time>2022-08-04T11:04:58.000Z</time>
      </trkpt>
      <trkpt lat="49.34282" lon="-0.63932">
        <ele>47.455951</ele>
        <time>2022-08-04T11:04:59.000Z</time>
      </trkpt>
      <trkpt lat="49.34281" lon="-0.63928">
        <ele>47.461897</ele>
        <time>2022-08-04T11:05:00.000Z</time>
      </trkpt>
      <trkpt lat="49.3428" lon="-0.63924">
        <ele>47.466668</ele>
        <time>2022-08-04T11:05:01.000Z</time>
      </trkpt>
      <trkpt lat="49.34278" lon="-0.6392">
        <ele>47.471853</ele>
        <time>2022-08-04T11:05:02.000Z</time>
      </trkpt>
      <trkpt lat="49.34277" lon="-0.63917">
        <ele>47.476141</ele>
        <time>2022-08-04T11:05:03.000Z</time>
      </trkpt>
      <trkpt lat="49.34276" lon="-0.63912">
        <ele>47.482578</ele>
        <time>2022-08-04T11:05:04.000Z</time>
      </trkpt>
      <trkpt lat="49.34276" lon="-0.63908">
        <ele>47.487348</ele>
        <time>2022-08-04T11:05:05.000Z</time>
      </trkpt>
      <trkpt lat="49.34274" lon="-0.63904">
        <ele>47.492533</ele>
        <time>2022-08-04T11:05:06.000Z</time>
      </trkpt>
      <trkpt lat="49.34274" lon="-0.63901">
        <ele>47.496789</ele>
        <time>2022-08-04T11:05:07.000Z</time>
      </trkpt>
      <trkpt lat="49.34272" lon="-0.63894">
        <ele>47.505523</ele>
        <time>2022-08-04T11:05:09.000Z</time>
      </trkpt>
      <trkpt lat="49.34271" lon="-0.63891">
        <ele>47.509662</ele>
        <time>2022-08-04T11:05:10.000Z</time>
      </trkpt>
      <trkpt lat="49.3427" lon="-0.63887">
        <ele>47.514501</ele>
        <time>2022-08-04T11:05:11.000Z</time>
      </trkpt>
      <trkpt lat="49.3427" lon="-0.63884">
        <ele>47.518167</ele>
        <time>2022-08-04T11:05:12.000Z</time>
      </trkpt>
      <trkpt lat="49.3427" lon="-0.6388">
        <ele>47.522791</ele>
        <time>2022-08-04T11:05:13.000Z</time>
      </trkpt>
      <trkpt lat="49.34269" lon="-0.63875">
        <ele>47.528994</ele>
        <time>2022-08-04T11:05:14.000Z</time>
      </trkpt>
      <trkpt lat="49.34268" lon="-0.63872">
        <ele>47.533718</ele>
        <time>2022-08-04T11:05:15.000Z</time>
      </trkpt>
      <trkpt lat="49.34268" lon="-0.63868">
        <ele>47.538141</ele>
        <time>2022-08-04T11:05:16.000Z</time>
      </trkpt>
      <trkpt lat="49.34267" lon="-0.63863">
        <ele>47.544407</ele>
        <time>2022-08-04T11:05:17.000Z</time>
      </trkpt>
      <trkpt lat="49.34266" lon="-0.63859">
        <ele>47.549296</ele>
        <time>2022-08-04T11:05:18.000Z</time>
      </trkpt>
      <trkpt lat="49.34266" lon="-0.63855">
        <ele>47.554491</ele>
        <time>2022-08-04T11:05:19.000Z</time>
      </trkpt>
      <trkpt lat="49.34265" lon="-0.63851">
        <ele>47.559666</ele>
        <time>2022-08-04T11:05:20.000Z</time>
      </trkpt>
      <trkpt lat="49.34264" lon="-0.63847">
        <ele>47.56439</ele>
        <time>2022-08-04T11:05:21.000Z</time>
      </trkpt>
      <trkpt lat="49.34264" lon="-0.63843">
        <ele>47.569254</ele>
        <time>2022-08-04T11:05:22.000Z</time>
      </trkpt>
      <trkpt lat="49.34263" lon="-0.63839">
        <ele>47.574205</ele>
        <time>2022-08-04T11:05:23.000Z</time>
      </trkpt>
      <trkpt lat="49.34262" lon="-0.63835">
        <ele>47.579046</ele>
        <time>2022-08-04T11:05:24.000Z</time>
      </trkpt>
      <trkpt lat="49.34262" lon="-0.63832">
        <ele>47.582832</ele>
        <time>2022-08-04T11:05:25.000Z</time>
      </trkpt>
      <trkpt lat="49.34261" lon="-0.63828">
        <ele>47.588805</ele>
        <time>2022-08-04T11:05:26.000Z</time>
      </trkpt>
      <trkpt lat="49.34261" lon="-0.63824">
        <ele>47.593669</ele>
        <time>2022-08-04T11:05:27.000Z</time>
      </trkpt>
      <trkpt lat="49.3426" lon="-0.6382">
        <ele>47.598293</ele>
        <time>2022-08-04T11:05:28.000Z</time>
      </trkpt>
      <trkpt lat="49.3426" lon="-0.63816">
        <ele>47.603367</ele>
        <time>2022-08-04T11:05:29.000Z</time>
      </trkpt>
      <trkpt lat="49.3426" lon="-0.63812">
        <ele>47.607303</ele>
        <time>2022-08-04T11:05:30.000Z</time>
      </trkpt>
      <trkpt lat="49.3426" lon="-0.63807">
        <ele>47.613369</ele>
        <time>2022-08-04T11:05:31.000Z</time>
      </trkpt>
      <trkpt lat="49.34259" lon="-0.63803">
        <ele>47.618445</ele>
        <time>2022-08-04T11:05:32.000Z</time>
      </trkpt>
      <trkpt lat="49.34259" lon="-0.63799">
        <ele>47.623549</ele>
        <time>2022-08-04T11:05:33.000Z</time>
      </trkpt>
      <trkpt lat="49.34259" lon="-0.63796">
        <ele>47.627536</ele>
        <time>2022-08-04T11:05:34.000Z</time>
      </trkpt>
      <trkpt lat="49.34258" lon="-0.63792">
        <ele>47.632664</ele>
        <time>2022-08-04T11:05:35.000Z</time>
      </trkpt>
      <trkpt lat="49.34258" lon="-0.63786">
        <ele>47.639066</ele>
        <time>2022-08-04T11:05:36.000Z</time>
      </trkpt>
      <trkpt lat="49.34258" lon="-0.63782">
        <ele>47.644772</ele>
        <time>2022-08-04T11:05:37.000Z</time>
      </trkpt>
      <trkpt lat="49.34258" lon="-0.63778">
        <ele>47.649241</ele>
        <time>2022-08-04T11:05:38.000Z</time>
      </trkpt>
      <trkpt lat="49.34258" lon="-0.63773">
        <ele>47.655644</ele>
        <time>2022-08-04T11:05:39.000Z</time>
      </trkpt>
      <trkpt lat="49.34258" lon="-0.63768">
        <ele>47.661109</ele>
        <time>2022-08-04T11:05:40.000Z</time>
      </trkpt>
      <trkpt lat="49.34258" lon="-0.63763">
        <ele>47.666814</ele>
        <time>2022-08-04T11:05:41.000Z</time>
      </trkpt>
      <trkpt lat="49.34258" lon="-0.63759">
        <ele>47.67225</ele>
        <time>2022-08-04T11:05:42.000Z</time>
      </trkpt>
      <trkpt lat="49.34258" lon="-0.63755">
        <ele>47.676599</ele>
        <time>2022-08-04T11:05:43.000Z</time>
      </trkpt>
      <trkpt lat="49.34258" lon="-0.6375">
        <ele>47.683485</ele>
        <time>2022-08-04T11:05:44.000Z</time>
      </trkpt>
      <trkpt lat="49.34258" lon="-0.63745">
        <ele>47.688921</ele>
        <time>2022-08-04T11:05:45.000Z</time>
      </trkpt>
      <trkpt lat="49.34258" lon="-0.6374">
        <ele>47.694626</ele>
        <time>2022-08-04T11:05:46.000Z</time>
      </trkpt>
      <trkpt lat="49.34259" lon="-0.63736">
        <ele>47.639293</ele>
        <time>2022-08-04T11:05:47.000Z</time>
      </trkpt>
      <trkpt lat="49.34259" lon="-0.63732">
        <ele>47.572062</ele>
        <time>2022-08-04T11:05:48.000Z</time>
      </trkpt>
      <trkpt lat="49.34259" lon="-0.63728">
        <ele>47.512612</ele>
        <time>2022-08-04T11:05:49.000Z</time>
      </trkpt>
      <trkpt lat="49.3426" lon="-0.63724">
        <ele>47.451119</ele>
        <time>2022-08-04T11:05:50.000Z</time>
      </trkpt>
      <trkpt lat="49.3426" lon="-0.6372">
        <ele>47.398306</ele>
        <time>2022-08-04T11:05:51.000Z</time>
      </trkpt>
      <trkpt lat="49.34261" lon="-0.63717">
        <ele>47.344365</ele>
        <time>2022-08-04T11:05:52.000Z</time>
      </trkpt>
      <trkpt lat="49.34261" lon="-0.63713">
        <ele>47.285665</ele>
        <time>2022-08-04T11:05:53.000Z</time>
      </trkpt>
      <trkpt lat="49.34262" lon="-0.6371">
        <ele>47.235777</ele>
        <time>2022-08-04T11:05:54.000Z</time>
      </trkpt>
      <trkpt lat="49.34263" lon="-0.63706">
        <ele>47.179853</ele>
        <time>2022-08-04T11:05:55.000Z</time>
      </trkpt>
      <trkpt lat="49.34264" lon="-0.63704">
        <ele>47.132314</ele>
        <time>2022-08-04T11:05:56.000Z</time>
      </trkpt>
      <trkpt lat="49.34266" lon="-0.637">
        <ele>47.060003</ele>
        <time>2022-08-04T11:05:57.000Z</time>
      </trkpt>
      <trkpt lat="49.34267" lon="-0.63696">
        <ele>47.000468</ele>
        <time>2022-08-04T11:05:58.000Z</time>
      </trkpt>
      <trkpt lat="49.34268" lon="-0.63693">
        <ele>46.950027</ele>
        <time>2022-08-04T11:05:59.000Z</time>
      </trkpt>
      <trkpt lat="49.34269" lon="-0.6369">
        <ele>46.906427</ele>
        <time>2022-08-04T11:06:00.000Z</time>
      </trkpt>
      <trkpt lat="49.3427" lon="-0.63686">
        <ele>46.827972</ele>
        <time>2022-08-04T11:06:01.000Z</time>
      </trkpt>
      <trkpt lat="49.34272" lon="-0.63683">
        <ele>46.770657</ele>
        <time>2022-08-04T11:06:02.000Z</time>
      </trkpt>
      <trkpt lat="49.34273" lon="-0.63679">
        <ele>46.70952</ele>
        <time>2022-08-04T11:06:03.000Z</time>
      </trkpt>
      <trkpt lat="49.34275" lon="-0.63676">
        <ele>46.655971</ele>
        <time>2022-08-04T11:06:04.000Z</time>
      </trkpt>
      <trkpt lat="49.34276" lon="-0.63673">
        <ele>46.603651</ele>
        <time>2022-08-04T11:06:05.000Z</time>
      </trkpt>
      <trkpt lat="49.34277" lon="-0.6367">
        <ele>46.550656</ele>
        <time>2022-08-04T11:06:06.000Z</time>
      </trkpt>
      <trkpt lat="49.34277" lon="-0.63666">
        <ele>46.495428</ele>
        <time>2022-08-04T11:06:07.000Z</time>
      </trkpt>
      <trkpt lat="49.34277" lon="-0.63662">
        <ele>46.435585</ele>
        <time>2022-08-04T11:06:08.000Z</time>
      </trkpt>
      <trkpt lat="49.34277" lon="-0.63658">
        <ele>46.369832</ele>
        <time>2022-08-04T11:06:09.000Z</time>
      </trkpt>
      <trkpt lat="49.34276" lon="-0.63653">
        <ele>46.298448</ele>
        <time>2022-08-04T11:06:10.000Z</time>
      </trkpt>
      <trkpt lat="49.34276" lon="-0.63649">
        <ele>46.229687</ele>
        <time>2022-08-04T11:06:11.000Z</time>
      </trkpt>
      <trkpt lat="49.34274" lon="-0.63645">
        <ele>46.153693</ele>
        <time>2022-08-04T11:06:12.000Z</time>
      </trkpt>
      <trkpt lat="49.34272" lon="-0.63641">
        <ele>46.087691</ele>
        <time>2022-08-04T11:06:13.000Z</time>
      </trkpt>
      <trkpt lat="49.3427" lon="-0.63637">
        <ele>46.022922</ele>
        <time>2022-08-04T11:06:14.000Z</time>
      </trkpt>
      <trkpt lat="49.34269" lon="-0.63633">
        <ele>45.950546</ele>
        <time>2022-08-04T11:06:15.000Z</time>
      </trkpt>
      <trkpt lat="49.34267" lon="-0.6363">
        <ele>45.879354</ele>
        <time>2022-08-04T11:06:16.000Z</time>
      </trkpt>
      <trkpt lat="49.34264" lon="-0.63626">
        <ele>45.800062</ele>
        <time>2022-08-04T11:06:17.000Z</time>
      </trkpt>
      <trkpt lat="49.34262" lon="-0.63622">
        <ele>45.735715</ele>
        <time>2022-08-04T11:06:18.000Z</time>
      </trkpt>
      <trkpt lat="49.3426" lon="-0.63618">
        <ele>45.641644</ele>
        <time>2022-08-04T11:06:19.000Z</time>
      </trkpt>
      <trkpt lat="49.34257" lon="-0.63614">
        <ele>45.569362</ele>
        <time>2022-08-04T11:06:20.000Z</time>
      </trkpt>
      <trkpt lat="49.34254" lon="-0.63611">
        <ele>45.484279</ele>
        <time>2022-08-04T11:06:21.000Z</time>
      </trkpt>
      <trkpt lat="49.34252" lon="-0.63607">
        <ele>45.40983</ele>
        <time>2022-08-04T11:06:22.000Z</time>
      </trkpt>
      <trkpt lat="49.3425" lon="-0.63603">
        <ele>45.328948</ele>
        <time>2022-08-04T11:06:23.000Z</time>
      </trkpt>
      <trkpt lat="49.34247" lon="-0.636">
        <ele>45.25559</ele>
        <time>2022-08-04T11:06:24.000Z</time>
      </trkpt>
      <trkpt lat="49.34245" lon="-0.63596">
        <ele>45.172659</ele>
        <time>2022-08-04T11:06:25.000Z</time>
      </trkpt>
      <trkpt lat="49.34243" lon="-0.63592">
        <ele>45.103801</ele>
        <time>2022-08-04T11:06:26.000Z</time>
      </trkpt>
      <trkpt lat="49.34241" lon="-0.63589">
        <ele>45.029917</ele>
        <time>2022-08-04T11:06:27.000Z</time>
      </trkpt>
      <trkpt lat="49.34239" lon="-0.63586">
        <ele>44.969966</ele>
        <time>2022-08-04T11:06:28.000Z</time>
      </trkpt>
      <trkpt lat="49.34238" lon="-0.63582">
        <ele>44.913797</ele>
        <time>2022-08-04T11:06:29.000Z</time>
      </trkpt>
      <trkpt lat="49.34236" lon="-0.63579">
        <ele>44.851461</ele>
        <time>2022-08-04T11:06:30.000Z</time>
      </trkpt>
      <trkpt lat="49.34235" lon="-0.63576">
        <ele>44.800361</ele>
        <time>2022-08-04T11:06:31.000Z</time>
      </trkpt>
      <trkpt lat="49.34233" lon="-0.63571">
        <ele>44.718152</ele>
        <time>2022-08-04T11:06:32.000Z</time>
      </trkpt>
      <trkpt lat="49.34231" lon="-0.63567">
        <ele>44.639629</ele>
        <time>2022-08-04T11:06:33.000Z</time>
      </trkpt>
      <trkpt lat="49.3423" lon="-0.63562">
        <ele>44.564602</ele>
        <time>2022-08-04T11:06:34.000Z</time>
      </trkpt>
      <trkpt lat="49.34228" lon="-0.63558">
        <ele>44.47992</ele>
        <time>2022-08-04T11:06:35.000Z</time>
      </trkpt>
      <trkpt lat="49.34226" lon="-0.63552">
        <ele>44.39131</ele>
        <time>2022-08-04T11:06:36.000Z</time>
      </trkpt>
      <trkpt lat="49.34224" lon="-0.63547">
        <ele>44.308517</ele>
        <time>2022-08-04T11:06:37.000Z</time>
      </trkpt>
      <trkpt lat="49.34223" lon="-0.63542">
        <ele>44.224388</ele>
        <time>2022-08-04T11:06:38.000Z</time>
      </trkpt>
      <trkpt lat="49.34222" lon="-0.63537">
        <ele>44.14729</ele>
        <time>2022-08-04T11:06:39.000Z</time>
      </trkpt>
      <trkpt lat="49.3422" lon="-0.63532">
        <ele>44.064497</ele>
        <time>2022-08-04T11:06:40.000Z</time>
      </trkpt>
      <trkpt lat="49.34219" lon="-0.63527">
        <ele>43.985864</ele>
        <time>2022-08-04T11:06:41.000Z</time>
      </trkpt>
      <trkpt lat="49.34218" lon="-0.63522">
        <ele>43.905852</ele>
        <time>2022-08-04T11:06:42.000Z</time>
      </trkpt>
      <trkpt lat="49.34216" lon="-0.63517">
        <ele>43.819034</ele>
        <time>2022-08-04T11:06:43.000Z</time>
      </trkpt>
      <trkpt lat="49.34214" lon="-0.63512">
        <ele>43.729511</ele>
        <time>2022-08-04T11:06:44.000Z</time>
      </trkpt>
      <trkpt lat="49.34213" lon="-0.63506">
        <ele>43.635898</ele>
        <time>2022-08-04T11:06:45.000Z</time>
      </trkpt>
      <trkpt lat="49.34212" lon="-0.635">
        <ele>43.507118</ele>
        <time>2022-08-04T11:06:46.000Z</time>
      </trkpt>
      <trkpt lat="49.3421" lon="-0.63494">
        <ele>43.32603</ele>
        <time>2022-08-04T11:06:47.000Z</time>
      </trkpt>
      <trkpt lat="49.3421" lon="-0.63489">
        <ele>43.160022</ele>
        <time>2022-08-04T11:06:48.000Z</time>
      </trkpt>
      <trkpt lat="49.34209" lon="-0.63484">
        <ele>43.023323</ele>
        <time>2022-08-04T11:06:49.000Z</time>
      </trkpt>
      <trkpt lat="49.34208" lon="-0.63477">
        <ele>42.823821</ele>
        <time>2022-08-04T11:06:50.000Z</time>
      </trkpt>
      <trkpt lat="49.34207" lon="-0.63472">
        <ele>42.659648</ele>
        <time>2022-08-04T11:06:51.000Z</time>
      </trkpt>
      <trkpt lat="49.34206" lon="-0.63467">
        <ele>42.507815</ele>
        <time>2022-08-04T11:06:52.000Z</time>
      </trkpt>
      <trkpt lat="49.34206" lon="-0.63462">
        <ele>42.36345</ele>
        <time>2022-08-04T11:06:53.000Z</time>
      </trkpt>
      <trkpt lat="49.34205" lon="-0.63457">
        <ele>42.222029</ele>
        <time>2022-08-04T11:06:54.000Z</time>
      </trkpt>
      <trkpt lat="49.34205" lon="-0.63452">
        <ele>42.077664</ele>
        <time>2022-08-04T11:06:55.000Z</time>
      </trkpt>
      <trkpt lat="49.34205" lon="-0.63447">
        <ele>41.947608</ele>
        <time>2022-08-04T11:06:56.000Z</time>
      </trkpt>
      <trkpt lat="49.34204" lon="-0.63443">
        <ele>41.817385</ele>
        <time>2022-08-04T11:06:57.000Z</time>
      </trkpt>
      <trkpt lat="49.34203" lon="-0.63439">
        <ele>41.690951</ele>
        <time>2022-08-04T11:06:58.000Z</time>
      </trkpt>
      <trkpt lat="49.34203" lon="-0.63434">
        <ele>41.564518</ele>
        <time>2022-08-04T11:06:59.000Z</time>
      </trkpt>
      <trkpt lat="49.34202" lon="-0.63429">
        <ele>41.41748</ele>
        <time>2022-08-04T11:07:00.000Z</time>
      </trkpt>
      <trkpt lat="49.34201" lon="-0.63424">
        <ele>41.265646</ele>
        <time>2022-08-04T11:07:01.000Z</time>
      </trkpt>
      <trkpt lat="49.34201" lon="-0.63419">
        <ele>41.110165</ele>
        <time>2022-08-04T11:07:02.000Z</time>
      </trkpt>
      <trkpt lat="49.342" lon="-0.63413">
        <ele>40.949832</ele>
        <time>2022-08-04T11:07:03.000Z</time>
      </trkpt>
      <trkpt lat="49.34199" lon="-0.63408">
        <ele>40.785658</ele>
        <time>2022-08-04T11:07:04.000Z</time>
      </trkpt>
      <trkpt lat="49.34198" lon="-0.63402">
        <ele>40.611438</ele>
        <time>2022-08-04T11:07:05.000Z</time>
      </trkpt>
      <trkpt lat="49.34197" lon="-0.63396">
        <ele>40.43894</ele>
        <time>2022-08-04T11:07:06.000Z</time>
      </trkpt>
      <trkpt lat="49.34197" lon="-0.6339">
        <ele>40.264412</ele>
        <time>2022-08-04T11:07:07.000Z</time>
      </trkpt>
      <trkpt lat="49.34195" lon="-0.63384">
        <ele>40.090779</ele>
        <time>2022-08-04T11:07:08.000Z</time>
      </trkpt>
      <trkpt lat="49.34194" lon="-0.63379">
        <ele>39.922562</ele>
        <time>2022-08-04T11:07:09.000Z</time>
      </trkpt>
      <trkpt lat="49.34192" lon="-0.63373">
        <ele>39.743577</ele>
        <time>2022-08-04T11:07:10.000Z</time>
      </trkpt>
      <trkpt lat="49.3419" lon="-0.63369">
        <ele>39.582098</ele>
        <time>2022-08-04T11:07:11.000Z</time>
      </trkpt>
      <trkpt lat="49.34188" lon="-0.63364">
        <ele>39.427925</ele>
        <time>2022-08-04T11:07:12.000Z</time>
      </trkpt>
      <trkpt lat="49.34186" lon="-0.6336">
        <ele>39.276025</ele>
        <time>2022-08-04T11:07:13.000Z</time>
      </trkpt>
      <trkpt lat="49.34185" lon="-0.63356">
        <ele>39.157194</ele>
        <time>2022-08-04T11:07:14.000Z</time>
      </trkpt>
      <trkpt lat="49.34184" lon="-0.63354">
        <ele>39.07285</ele>
        <time>2022-08-04T11:07:15.000Z</time>
      </trkpt>
      <trkpt lat="49.34182" lon="-0.6335">
        <ele>38.930527</ele>
        <time>2022-08-04T11:07:17.000Z</time>
      </trkpt>
      <trkpt lat="49.34181" lon="-0.63347">
        <ele>38.83364</ele>
        <time>2022-08-04T11:07:19.000Z</time>
      </trkpt>
      <trkpt lat="49.34179" lon="-0.63337">
        <ele>38.547922</ele>
        <time>2022-08-04T11:08:05.000Z</time>
      </trkpt>
      <trkpt lat="49.34179" lon="-0.63332">
        <ele>38.410221</ele>
        <time>2022-08-04T11:08:06.000Z</time>
      </trkpt>
      <trkpt lat="49.34178" lon="-0.63328">
        <ele>38.282789</ele>
        <time>2022-08-04T11:08:07.000Z</time>
      </trkpt>
      <trkpt lat="49.34177" lon="-0.63324">
        <ele>38.152936</ele>
        <time>2022-08-04T11:08:08.000Z</time>
      </trkpt>
      <trkpt lat="49.34176" lon="-0.6332">
        <ele>38.028291</ele>
        <time>2022-08-04T11:08:09.000Z</time>
      </trkpt>
      <trkpt lat="49.34175" lon="-0.63315">
        <ele>37.898437</ele>
        <time>2022-08-04T11:08:10.000Z</time>
      </trkpt>
      <trkpt lat="49.34175" lon="-0.63311">
        <ele>37.773793</ele>
        <time>2022-08-04T11:08:11.000Z</time>
      </trkpt>
      <trkpt lat="49.34174" lon="-0.63307">
        <ele>37.661375</ele>
        <time>2022-08-04T11:08:12.000Z</time>
      </trkpt>
      <trkpt lat="49.34173" lon="-0.63304">
        <ele>37.569756</ele>
        <time>2022-08-04T11:08:13.000Z</time>
      </trkpt>
      <trkpt lat="49.34173" lon="-0.63301">
        <ele>37.482274</ele>
        <time>2022-08-04T11:08:14.000Z</time>
      </trkpt>
      <trkpt lat="49.34172" lon="-0.63296">
        <ele>37.32194</ele>
        <time>2022-08-04T11:08:16.000Z</time>
      </trkpt>
      <trkpt lat="49.34171" lon="-0.63293">
        <ele>37.235133</ele>
        <time>2022-08-04T11:08:17.000Z</time>
      </trkpt>
      <trkpt lat="49.3417" lon="-0.63288">
        <ele>37.065412</ele>
        <time>2022-08-04T11:08:19.000Z</time>
      </trkpt>
      <trkpt lat="49.3417" lon="-0.63285">
        <ele>36.979158</ele>
        <time>2022-08-04T11:08:20.000Z</time>
      </trkpt>
      <trkpt lat="49.34169" lon="-0.63282">
        <ele>36.88939</ele>
        <time>2022-08-04T11:08:21.000Z</time>
      </trkpt>
      <trkpt lat="49.34169" lon="-0.63277">
        <ele>36.742351</ele>
        <time>2022-08-04T11:08:23.000Z</time>
      </trkpt>
      <trkpt lat="49.34168" lon="-0.63274">
        <ele>36.657927</ele>
        <time>2022-08-04T11:08:24.000Z</time>
      </trkpt>
      <trkpt lat="49.34168" lon="-0.63271">
        <ele>36.576342</ele>
        <time>2022-08-04T11:08:25.000Z</time>
      </trkpt>
      <trkpt lat="49.34167" lon="-0.63268">
        <ele>36.494322</ele>
        <time>2022-08-04T11:08:26.000Z</time>
      </trkpt>
      <trkpt lat="49.34167" lon="-0.63263">
        <ele>36.326632</ele>
        <time>2022-08-04T11:08:28.000Z</time>
      </trkpt>
      <trkpt lat="49.34167" lon="-0.6326">
        <ele>36.245046</ele>
        <time>2022-08-04T11:08:29.000Z</time>
      </trkpt>
      <trkpt lat="49.34166" lon="-0.63257">
        <ele>36.160622</ele>
        <time>2022-08-04T11:08:30.000Z</time>
      </trkpt>
      <trkpt lat="49.34165" lon="-0.63253">
        <ele>36.029351</ele>
        <time>2022-08-04T11:08:32.000Z</time>
      </trkpt>
      <trkpt lat="49.34165" lon="-0.63249">
        <ele>35.933612</ele>
        <time>2022-08-04T11:08:34.000Z</time>
      </trkpt>
      <trkpt lat="49.34164" lon="-0.63247">
        <ele>35.839384</ele>
        <time>2022-08-04T11:08:37.000Z</time>
      </trkpt>
      <trkpt lat="49.3416" lon="-0.63237">
        <ele>35.389233</ele>
        <time>2022-08-04T11:09:40.000Z</time>
      </trkpt>
      <trkpt lat="49.34158" lon="-0.63233">
        <ele>35.107852</ele>
        <time>2022-08-04T11:09:41.000Z</time>
      </trkpt>
      <trkpt lat="49.34156" lon="-0.63231">
        <ele>34.840182</ele>
        <time>2022-08-04T11:09:42.000Z</time>
      </trkpt>
      <trkpt lat="49.34152" lon="-0.63228">
        <ele>34.503382</ele>
        <time>2022-08-04T11:09:44.000Z</time>
      </trkpt>
      <trkpt lat="49.3415" lon="-0.63227">
        <ele>34.328145</ele>
        <time>2022-08-04T11:09:45.000Z</time>
      </trkpt>
      <trkpt lat="49.34148" lon="-0.63227">
        <ele>34.162383</ele>
        <time>2022-08-04T11:09:46.000Z</time>
      </trkpt>
      <trkpt lat="49.34145" lon="-0.63228">
        <ele>33.847024</ele>
        <time>2022-08-04T11:09:48.000Z</time>
      </trkpt>
      <trkpt lat="49.34143" lon="-0.63228">
        <ele>33.680387</ele>
        <time>2022-08-04T11:09:49.000Z</time>
      </trkpt>
      <trkpt lat="49.3414" lon="-0.63228">
        <ele>33.461097</ele>
        <time>2022-08-04T11:09:50.000Z</time>
      </trkpt>
      <trkpt lat="49.34138" lon="-0.63228">
        <ele>33.286518</ele>
        <time>2022-08-04T11:09:51.000Z</time>
      </trkpt>
      <trkpt lat="49.34136" lon="-0.63228">
        <ele>33.120659</ele>
        <time>2022-08-04T11:09:52.000Z</time>
      </trkpt>
      <trkpt lat="49.34133" lon="-0.63228">
        <ele>32.83866</ele>
        <time>2022-08-04T11:09:53.000Z</time>
      </trkpt>
      <trkpt lat="49.34131" lon="-0.63228">
        <ele>32.646725</ele>
        <time>2022-08-04T11:09:54.000Z</time>
      </trkpt>
      <trkpt lat="49.34128" lon="-0.63228">
        <ele>32.419892</ele>
        <time>2022-08-04T11:09:55.000Z</time>
      </trkpt>
      <trkpt lat="49.34125" lon="-0.63228">
        <ele>32.166313</ele>
        <time>2022-08-04T11:09:56.000Z</time>
      </trkpt>
      <trkpt lat="49.34122" lon="-0.63228">
        <ele>31.886211</ele>
        <time>2022-08-04T11:09:57.000Z</time>
      </trkpt>
      <trkpt lat="49.34119" lon="-0.63228">
        <ele>31.580807</ele>
        <time>2022-08-04T11:09:58.000Z</time>
      </trkpt>
      <trkpt lat="49.34115" lon="-0.63229">
        <ele>31.274136</ele>
        <time>2022-08-04T11:09:59.000Z</time>
      </trkpt>
      <trkpt lat="49.34112" lon="-0.6323">
        <ele>30.966203</ele>
        <time>2022-08-04T11:10:00.000Z</time>
      </trkpt>
      <trkpt lat="49.34109" lon="-0.6323">
        <ele>30.684204</ele>
        <time>2022-08-04T11:10:01.000Z</time>
      </trkpt>
      <trkpt lat="49.34105" lon="-0.63231">
        <ele>30.403583</ele>
        <time>2022-08-04T11:10:02.000Z</time>
      </trkpt>
      <trkpt lat="49.34102" lon="-0.63231">
        <ele>30.150514</ele>
        <time>2022-08-04T11:10:03.000Z</time>
      </trkpt>
      <trkpt lat="49.341" lon="-0.63231">
        <ele>29.923682</ele>
        <time>2022-08-04T11:10:04.000Z</time>
      </trkpt>
      <trkpt lat="49.34098" lon="-0.63231">
        <ele>29.731663</ele>
        <time>2022-08-04T11:10:05.000Z</time>
      </trkpt>
      <trkpt lat="49.34095" lon="-0.63231">
        <ele>29.50483</ele>
        <time>2022-08-04T11:10:06.000Z</time>
      </trkpt>
      <trkpt lat="49.34093" lon="-0.63231">
        <ele>29.312559</ele>
        <time>2022-08-04T11:10:07.000Z</time>
      </trkpt>
      <trkpt lat="49.34091" lon="-0.6323">
        <ele>29.119868</ele>
        <time>2022-08-04T11:10:08.000Z</time>
      </trkpt>
      <trkpt lat="49.34088" lon="-0.6323">
        <ele>28.891899</ele>
        <time>2022-08-04T11:10:09.000Z</time>
      </trkpt>
      <trkpt lat="49.34086" lon="-0.63229">
        <ele>28.691724</ele>
        <time>2022-08-04T11:10:10.000Z</time>
      </trkpt>
      <trkpt lat="49.34085" lon="-0.63227">
        <ele>28.527064</ele>
        <time>2022-08-04T11:10:11.000Z</time>
      </trkpt>
      <trkpt lat="49.34083" lon="-0.63224">
        <ele>28.311055</ele>
        <time>2022-08-04T11:10:12.000Z</time>
      </trkpt>
      <trkpt lat="49.34081" lon="-0.63221">
        <ele>28.08625</ele>
        <time>2022-08-04T11:10:13.000Z</time>
      </trkpt>
      <trkpt lat="49.34081" lon="-0.63218">
        <ele>27.921067</ele>
        <time>2022-08-04T11:10:14.000Z</time>
      </trkpt>
      <trkpt lat="49.3408" lon="-0.63214">
        <ele>27.680516</ele>
        <time>2022-08-04T11:10:15.000Z</time>
      </trkpt>
      <trkpt lat="49.3408" lon="-0.63211">
        <ele>27.498615</ele>
        <time>2022-08-04T11:10:16.000Z</time>
      </trkpt>
      <trkpt lat="49.3408" lon="-0.63208">
        <ele>27.326086</ele>
        <time>2022-08-04T11:10:17.000Z</time>
      </trkpt>
      <trkpt lat="49.34081" lon="-0.63204">
        <ele>27.120361</ele>
        <time>2022-08-04T11:10:18.000Z</time>
      </trkpt>
      <trkpt lat="49.34082" lon="-0.63201">
        <ele>26.897901</ele>
        <time>2022-08-04T11:10:19.000Z</time>
      </trkpt>
      <trkpt lat="49.34083" lon="-0.63197">
        <ele>26.635924</ele>
        <time>2022-08-04T11:10:20.000Z</time>
      </trkpt>
      <trkpt lat="49.34085" lon="-0.63193">
        <ele>26.376965</ele>
        <time>2022-08-04T11:10:21.000Z</time>
      </trkpt>
      <trkpt lat="49.34087" lon="-0.6319">
        <ele>26.118006</ele>
        <time>2022-08-04T11:10:22.000Z</time>
      </trkpt>
      <trkpt lat="49.34089" lon="-0.63187">
        <ele>25.850955</ele>
        <time>2022-08-04T11:10:23.000Z</time>
      </trkpt>
      <trkpt lat="49.34091" lon="-0.63183">
        <ele>25.596338</ele>
        <time>2022-08-04T11:10:24.000Z</time>
      </trkpt>
      <trkpt lat="49.34093" lon="-0.63181">
        <ele>25.366534</ele>
        <time>2022-08-04T11:10:25.000Z</time>
      </trkpt>
      <trkpt lat="49.34095" lon="-0.63177">
        <ele>25.120435</ele>
        <time>2022-08-04T11:10:26.000Z</time>
      </trkpt>
      <trkpt lat="49.34097" lon="-0.63175">
        <ele>24.884261</ele>
        <time>2022-08-04T11:10:27.000Z</time>
      </trkpt>
      <trkpt lat="49.34099" lon="-0.63172">
        <ele>24.658357</ele>
        <time>2022-08-04T11:10:28.000Z</time>
      </trkpt>
      <trkpt lat="49.34101" lon="-0.6317">
        <ele>24.44724</ele>
        <time>2022-08-04T11:10:29.000Z</time>
      </trkpt>
      <trkpt lat="49.34102" lon="-0.63167">
        <ele>24.248042</ele>
        <time>2022-08-04T11:10:30.000Z</time>
      </trkpt>
      <trkpt lat="49.34104" lon="-0.63165">
        <ele>24.056787</ele>
        <time>2022-08-04T11:10:31.000Z</time>
      </trkpt>
      <trkpt lat="49.34106" lon="-0.63162">
        <ele>23.842104</ele>
        <time>2022-08-04T11:10:32.000Z</time>
      </trkpt>
      <trkpt lat="49.34108" lon="-0.6316">
        <ele>23.623765</ele>
        <time>2022-08-04T11:10:33.000Z</time>
      </trkpt>
      <trkpt lat="49.34109" lon="-0.63158">
        <ele>23.443738</ele>
        <time>2022-08-04T11:10:34.000Z</time>
      </trkpt>
      <trkpt lat="49.34111" lon="-0.63155">
        <ele>23.244539</ele>
        <time>2022-08-04T11:10:35.000Z</time>
      </trkpt>
      <trkpt lat="49.34114" lon="-0.63151">
        <ele>22.919317</ele>
        <time>2022-08-04T11:10:37.000Z</time>
      </trkpt>
      <trkpt lat="49.34115" lon="-0.6315">
        <ele>22.749543</ele>
        <time>2022-08-04T11:10:38.000Z</time>
      </trkpt>
      <trkpt lat="49.34117" lon="-0.63146">
        <ele>22.460584</ele>
        <time>2022-08-04T11:10:40.000Z</time>
      </trkpt>
      <trkpt lat="49.3412" lon="-0.63143">
        <ele>22.189749</ele>
        <time>2022-08-04T11:10:42.000Z</time>
      </trkpt>
      <trkpt lat="49.34121" lon="-0.63141">
        <ele>22.031806</ele>
        <time>2022-08-04T11:10:43.000Z</time>
      </trkpt>
      <trkpt lat="49.34125" lon="-0.63139">
        <ele>21.713222</ele>
        <time>2022-08-04T11:10:45.000Z</time>
      </trkpt>
      <trkpt lat="49.34127" lon="-0.63136">
        <ele>21.408112</ele>
        <time>2022-08-04T11:10:47.000Z</time>
      </trkpt>
      <trkpt lat="49.34129" lon="-0.63134">
        <ele>21.238338</ele>
        <time>2022-08-04T11:10:48.000Z</time>
      </trkpt>
      <trkpt lat="49.34131" lon="-0.63132">
        <ele>21.071734</ele>
        <time>2022-08-04T11:10:49.000Z</time>
      </trkpt>
      <trkpt lat="49.34132" lon="-0.6313">
        <ele>20.895242</ele>
        <time>2022-08-04T11:10:50.000Z</time>
      </trkpt>
      <trkpt lat="49.34133" lon="-0.63128">
        <ele>20.736466</ele>
        <time>2022-08-04T11:10:51.000Z</time>
      </trkpt>
      <trkpt lat="49.34135" lon="-0.63126">
        <ele>20.554647</ele>
        <time>2022-08-04T11:10:52.000Z</time>
      </trkpt>
      <trkpt lat="49.34136" lon="-0.63123">
        <ele>20.352908</ele>
        <time>2022-08-04T11:10:53.000Z</time>
      </trkpt>
      <trkpt lat="49.34136" lon="-0.6312">
        <ele>20.19075</ele>
        <time>2022-08-04T11:10:54.000Z</time>
      </trkpt>
      <trkpt lat="49.34136" lon="-0.63116">
        <ele>19.954741</ele>
        <time>2022-08-04T11:10:55.000Z</time>
      </trkpt>
      <trkpt lat="49.34136" lon="-0.63112">
        <ele>19.852295</ele>
        <time>2022-08-04T11:10:56.000Z</time>
      </trkpt>
      <trkpt lat="49.34135" lon="-0.63108">
        <ele>19.726835</ele>
        <time>2022-08-04T11:10:57.000Z</time>
      </trkpt>
      <trkpt lat="49.34135" lon="-0.63103">
        <ele>19.587521</ele>
        <time>2022-08-04T11:10:58.000Z</time>
      </trkpt>
      <trkpt lat="49.34134" lon="-0.63097">
        <ele>19.426999</ele>
        <time>2022-08-04T11:10:59.000Z</time>
      </trkpt>
      <trkpt lat="49.34133" lon="-0.63092">
        <ele>19.26837</ele>
        <time>2022-08-04T11:11:00.000Z</time>
      </trkpt>
      <trkpt lat="49.34132" lon="-0.63086">
        <ele>19.105101</ele>
        <time>2022-08-04T11:11:01.000Z</time>
      </trkpt>
      <trkpt lat="49.34132" lon="-0.63081">
        <ele>18.940911</ele>
        <time>2022-08-04T11:11:02.000Z</time>
      </trkpt>
      <trkpt lat="49.34131" lon="-0.63075">
        <ele>18.774676</ele>
        <time>2022-08-04T11:11:03.000Z</time>
      </trkpt>
      <trkpt lat="49.3413" lon="-0.63069">
        <ele>18.60492</ele>
        <time>2022-08-04T11:11:04.000Z</time>
      </trkpt>
      <trkpt lat="49.3413" lon="-0.63062">
        <ele>18.419088</ele>
        <time>2022-08-04T11:11:05.000Z</time>
      </trkpt>
      <trkpt lat="49.34129" lon="-0.63056">
        <ele>18.233257</ele>
        <time>2022-08-04T11:11:06.000Z</time>
      </trkpt>
      <trkpt lat="49.34128" lon="-0.6305">
        <ele>18.074628</ele>
        <time>2022-08-04T11:11:07.000Z</time>
      </trkpt>
      <trkpt lat="49.34127" lon="-0.63042">
        <ele>17.844823</ele>
        <time>2022-08-04T11:11:08.000Z</time>
      </trkpt>
      <trkpt lat="49.34126" lon="-0.63036">
        <ele>17.653013</ele>
        <time>2022-08-04T11:11:09.000Z</time>
      </trkpt>
      <trkpt lat="49.34125" lon="-0.63029">
        <ele>17.46396</ele>
        <time>2022-08-04T11:11:10.000Z</time>
      </trkpt>
      <trkpt lat="49.34125" lon="-0.63023">
        <ele>17.270315</ele>
        <time>2022-08-04T11:11:11.000Z</time>
      </trkpt>
      <trkpt lat="49.34124" lon="-0.63016">
        <ele>17.078237</ele>
        <time>2022-08-04T11:11:12.000Z</time>
      </trkpt>
      <trkpt lat="49.34123" lon="-0.63009">
        <ele>16.887365</ele>
        <time>2022-08-04T11:11:13.000Z</time>
      </trkpt>
      <trkpt lat="49.34122" lon="-0.63002">
        <ele>16.686897</ele>
        <time>2022-08-04T11:11:14.000Z</time>
      </trkpt>
      <trkpt lat="49.34121" lon="-0.62995">
        <ele>16.484742</ele>
        <time>2022-08-04T11:11:15.000Z</time>
      </trkpt>
      <trkpt lat="49.3412" lon="-0.62989">
        <ele>16.295458</ele>
        <time>2022-08-04T11:11:16.000Z</time>
      </trkpt>
      <trkpt lat="49.34119" lon="-0.62982">
        <ele>16.098771</ele>
        <time>2022-08-04T11:11:17.000Z</time>
      </trkpt>
      <trkpt lat="49.34117" lon="-0.62976">
        <ele>15.89394</ele>
        <time>2022-08-04T11:11:18.000Z</time>
      </trkpt>
      <trkpt lat="49.34114" lon="-0.6297">
        <ele>15.687603</ele>
        <time>2022-08-04T11:11:19.000Z</time>
      </trkpt>
      <trkpt lat="49.34112" lon="-0.62964">
        <ele>15.492715</ele>
        <time>2022-08-04T11:11:20.000Z</time>
      </trkpt>
      <trkpt lat="49.34109" lon="-0.62958">
        <ele>15.30293</ele>
        <time>2022-08-04T11:11:21.000Z</time>
      </trkpt>
      <trkpt lat="49.34107" lon="-0.62953">
        <ele>15.120001</ele>
        <time>2022-08-04T11:11:22.000Z</time>
      </trkpt>
      <trkpt lat="49.34105" lon="-0.62948">
        <ele>14.958103</ele>
        <time>2022-08-04T11:11:23.000Z</time>
      </trkpt>
      <trkpt lat="49.34103" lon="-0.62944">
        <ele>14.803932</ele>
        <time>2022-08-04T11:11:24.000Z</time>
      </trkpt>
      <trkpt lat="49.34101" lon="-0.62939">
        <ele>14.644679</ele>
        <time>2022-08-04T11:11:25.000Z</time>
      </trkpt>
      <trkpt lat="49.34099" lon="-0.62935">
        <ele>14.499566</ele>
        <time>2022-08-04T11:11:26.000Z</time>
      </trkpt>
      <trkpt lat="49.34097" lon="-0.6293">
        <ele>14.342996</ele>
        <time>2022-08-04T11:11:27.000Z</time>
      </trkpt>
      <trkpt lat="49.34095" lon="-0.62926">
        <ele>14.197883</ele>
        <time>2022-08-04T11:11:28.000Z</time>
      </trkpt>
      <trkpt lat="49.34094" lon="-0.62921">
        <ele>14.052769</ele>
        <time>2022-08-04T11:11:29.000Z</time>
      </trkpt>
      <trkpt lat="49.34093" lon="-0.62917">
        <ele>13.918584</ele>
        <time>2022-08-04T11:11:30.000Z</time>
      </trkpt>
      <trkpt lat="49.3409" lon="-0.62912">
        <ele>13.750441</ele>
        <time>2022-08-04T11:11:31.000Z</time>
      </trkpt>
      <trkpt lat="49.34089" lon="-0.62908">
        <ele>13.616256</ele>
        <time>2022-08-04T11:11:32.000Z</time>
      </trkpt>
      <trkpt lat="49.34087" lon="-0.62904">
        <ele>13.47152</ele>
        <time>2022-08-04T11:11:33.000Z</time>
      </trkpt>
      <trkpt lat="49.34085" lon="-0.629">
        <ele>13.32445</ele>
        <time>2022-08-04T11:11:34.000Z</time>
      </trkpt>
      <trkpt lat="49.34083" lon="-0.62895">
        <ele>13.18428</ele>
        <time>2022-08-04T11:11:35.000Z</time>
      </trkpt>
      <trkpt lat="49.34081" lon="-0.62891">
        <ele>13.034858</ele>
        <time>2022-08-04T11:11:36.000Z</time>
      </trkpt>
      <trkpt lat="49.34079" lon="-0.62887">
        <ele>12.892438</ele>
        <time>2022-08-04T11:11:37.000Z</time>
      </trkpt>
      <trkpt lat="49.34078" lon="-0.62883">
        <ele>12.759575</ele>
        <time>2022-08-04T11:11:38.000Z</time>
      </trkpt>
      <trkpt lat="49.34076" lon="-0.62879">
        <ele>12.61685</ele>
        <time>2022-08-04T11:11:39.000Z</time>
      </trkpt>
      <trkpt lat="49.34075" lon="-0.62875">
        <ele>12.487032</ele>
        <time>2022-08-04T11:11:40.000Z</time>
      </trkpt>
      <trkpt lat="49.34073" lon="-0.6287">
        <ele>12.352847</ele>
        <time>2022-08-04T11:11:41.000Z</time>
      </trkpt>
      <trkpt lat="49.34071" lon="-0.62866">
        <ele>12.215001</ele>
        <time>2022-08-04T11:11:42.000Z</time>
      </trkpt>
      <trkpt lat="49.3407" lon="-0.62864">
        <ele>12.136033</ele>
        <time>2022-08-04T11:11:43.000Z</time>
      </trkpt>
      <trkpt lat="49.34069" lon="-0.6286">
        <ele>12.075081</ele>
        <time>2022-08-04T11:11:44.000Z</time>
      </trkpt>
      <trkpt lat="49.34067" lon="-0.62857">
        <ele>12.020079</ele>
        <time>2022-08-04T11:11:45.000Z</time>
      </trkpt>
      <trkpt lat="49.34066" lon="-0.62854">
        <ele>11.977729</ele>
        <time>2022-08-04T11:11:46.000Z</time>
      </trkpt>
      <trkpt lat="49.34065" lon="-0.62851">
        <ele>11.935156</ele>
        <time>2022-08-04T11:11:47.000Z</time>
      </trkpt>
      <trkpt lat="49.34064" lon="-0.62848">
        <ele>11.889377</ele>
        <time>2022-08-04T11:11:48.000Z</time>
      </trkpt>
      <trkpt lat="49.34063" lon="-0.62845">
        <ele>11.843427</ele>
        <time>2022-08-04T11:11:49.000Z</time>
      </trkpt>
      <trkpt lat="49.34062" lon="-0.62843">
        <ele>11.79998</ele>
        <time>2022-08-04T11:11:50.000Z</time>
      </trkpt>
      <trkpt lat="49.34061" lon="-0.6284">
        <ele>11.759978</ele>
        <time>2022-08-04T11:11:51.000Z</time>
      </trkpt>
      <trkpt lat="49.34058" lon="-0.62835">
        <ele>11.673809</ele>
        <time>2022-08-04T11:11:53.000Z</time>
      </trkpt>
      <trkpt lat="49.34058" lon="-0.62833">
        <ele>11.633617</ele>
        <time>2022-08-04T11:11:54.000Z</time>
      </trkpt>
      <trkpt lat="49.34056" lon="-0.6283">
        <ele>11.584488</ele>
        <time>2022-08-04T11:11:55.000Z</time>
      </trkpt>
      <trkpt lat="49.34055" lon="-0.62826">
        <ele>11.533066</ele>
        <time>2022-08-04T11:11:56.000Z</time>
      </trkpt>
      <trkpt lat="49.34053" lon="-0.62823">
        <ele>11.476976</ele>
        <time>2022-08-04T11:11:57.000Z</time>
      </trkpt>
      <trkpt lat="49.34052" lon="-0.6282">
        <ele>11.423046</ele>
        <time>2022-08-04T11:11:58.000Z</time>
      </trkpt>
      <trkpt lat="49.34051" lon="-0.62816">
        <ele>11.365725</ele>
        <time>2022-08-04T11:11:59.000Z</time>
      </trkpt>
      <trkpt lat="49.34049" lon="-0.62812">
        <ele>11.302551</ele>
        <time>2022-08-04T11:12:00.000Z</time>
      </trkpt>
      <trkpt lat="49.34047" lon="-0.62809">
        <ele>11.241997</ele>
        <time>2022-08-04T11:12:01.000Z</time>
      </trkpt>
      <trkpt lat="49.34046" lon="-0.62805">
        <ele>11.177995</ele>
        <time>2022-08-04T11:12:02.000Z</time>
      </trkpt>
      <trkpt lat="49.34044" lon="-0.62801">
        <ele>11.113993</ele>
        <time>2022-08-04T11:12:03.000Z</time>
      </trkpt>
      <trkpt lat="49.34043" lon="-0.62796">
        <ele>11.050588</ele>
        <time>2022-08-04T11:12:04.000Z</time>
      </trkpt>
      <trkpt lat="49.34041" lon="-0.62793">
        <ele>10.996661</ele>
        <time>2022-08-04T11:12:05.000Z</time>
      </trkpt>
      <trkpt lat="49.34039" lon="-0.62788">
        <ele>10.917733</ele>
        <time>2022-08-04T11:12:06.000Z</time>
      </trkpt>
      <trkpt lat="49.34038" lon="-0.62784">
        <ele>10.853731</ele>
        <time>2022-08-04T11:12:07.000Z</time>
      </trkpt>
      <trkpt lat="49.34036" lon="-0.62781">
        <ele>10.790251</ele>
        <time>2022-08-04T11:12:08.000Z</time>
      </trkpt>
      <trkpt lat="49.34034" lon="-0.62778">
        <ele>10.732963</ele>
        <time>2022-08-04T11:12:09.000Z</time>
      </trkpt>
      <trkpt lat="49.34032" lon="-0.62777">
        <ele>10.686936</ele>
        <time>2022-08-04T11:12:10.000Z</time>
      </trkpt>
      <trkpt lat="49.3403" lon="-0.62775">
        <ele>10.647698</ele>
        <time>2022-08-04T11:12:11.000Z</time>
      </trkpt>
      <trkpt lat="49.34028" lon="-0.62773">
        <ele>10.595322</ele>
        <time>2022-08-04T11:12:13.000Z</time>
      </trkpt>
      <trkpt lat="49.34021" lon="-0.62763">
        <ele>10.401034</ele>
        <time>2022-08-04T11:12:28.000Z</time>
      </trkpt>
      <trkpt lat="49.3402" lon="-0.6276">
        <ele>10.358692</ele>
        <time>2022-08-04T11:12:29.000Z</time>
      </trkpt>
      <trkpt lat="49.3402" lon="-0.62757">
        <ele>10.308769</ele>
        <time>2022-08-04T11:12:30.000Z</time>
      </trkpt>
      <trkpt lat="49.34018" lon="-0.62753">
        <ele>10.250243</ele>
        <time>2022-08-04T11:12:31.000Z</time>
      </trkpt>
      <trkpt lat="49.34017" lon="-0.62749">
        <ele>10.183902</ele>
        <time>2022-08-04T11:12:32.000Z</time>
      </trkpt>
      <trkpt lat="49.34015" lon="-0.62745">
        <ele>10.120115</ele>
        <time>2022-08-04T11:12:33.000Z</time>
      </trkpt>
      <trkpt lat="49.34013" lon="-0.6274">
        <ele>10.045836</ele>
        <time>2022-08-04T11:12:34.000Z</time>
      </trkpt>
      <trkpt lat="49.34012" lon="-0.62736">
        <ele>9.972717</ele>
        <time>2022-08-04T11:12:35.000Z</time>
      </trkpt>
      <trkpt lat="49.34009" lon="-0.62731">
        <ele>9.896002</ele>
        <time>2022-08-04T11:12:36.000Z</time>
      </trkpt>
      <trkpt lat="49.34007" lon="-0.62727">
        <ele>9.822883</ele>
        <time>2022-08-04T11:12:37.000Z</time>
      </trkpt>
      <trkpt lat="49.34005" lon="-0.62722">
        <ele>9.751946</ele>
        <time>2022-08-04T11:12:38.000Z</time>
      </trkpt>
      <trkpt lat="49.34003" lon="-0.62718">
        <ele>9.67952</ele>
        <time>2022-08-04T11:12:39.000Z</time>
      </trkpt>
      <trkpt lat="49.34001" lon="-0.62714">
        <ele>9.612021</ele>
        <time>2022-08-04T11:12:40.000Z</time>
      </trkpt>
      <trkpt lat="49.33999" lon="-0.6271">
        <ele>9.534976</ele>
        <time>2022-08-04T11:12:41.000Z</time>
      </trkpt>
      <trkpt lat="49.33997" lon="-0.62706">
        <ele>9.468634</ele>
        <time>2022-08-04T11:12:42.000Z</time>
      </trkpt>
      <trkpt lat="49.33995" lon="-0.62702">
        <ele>9.387994</ele>
        <time>2022-08-04T11:12:43.000Z</time>
      </trkpt>
      <trkpt lat="49.33993" lon="-0.62698">
        <ele>9.319241</ele>
        <time>2022-08-04T11:12:44.000Z</time>
      </trkpt>
      <trkpt lat="49.3399" lon="-0.62693">
        <ele>9.245757</ele>
        <time>2022-08-04T11:12:45.000Z</time>
      </trkpt>
      <trkpt lat="49.33989" lon="-0.62689">
        <ele>9.178257</ele>
        <time>2022-08-04T11:12:46.000Z</time>
      </trkpt>
      <trkpt lat="49.33986" lon="-0.62685">
        <ele>9.104483</ele>
        <time>2022-08-04T11:12:47.000Z</time>
      </trkpt>
      <trkpt lat="49.33984" lon="-0.62681">
        <ele>9.028854</ele>
        <time>2022-08-04T11:12:48.000Z</time>
      </trkpt>
      <trkpt lat="49.33982" lon="-0.62677">
        <ele>8.960247</ele>
        <time>2022-08-04T11:12:49.000Z</time>
      </trkpt>
      <trkpt lat="49.3398" lon="-0.62674">
        <ele>8.901212</ele>
        <time>2022-08-04T11:12:50.000Z</time>
      </trkpt>
      <trkpt lat="49.33978" lon="-0.62669">
        <ele>8.821059</ele>
        <time>2022-08-04T11:12:51.000Z</time>
      </trkpt>
      <trkpt lat="49.33976" lon="-0.62665">
        <ele>8.757056</ele>
        <time>2022-08-04T11:12:52.000Z</time>
      </trkpt>
      <trkpt lat="49.33975" lon="-0.62662">
        <ele>8.700966</ele>
        <time>2022-08-04T11:12:53.000Z</time>
      </trkpt>
      <trkpt lat="49.33973" lon="-0.62658">
        <ele>8.649543</ele>
        <time>2022-08-04T11:12:54.000Z</time>
      </trkpt>
      <trkpt lat="49.33972" lon="-0.62655">
        <ele>8.596678</ele>
        <time>2022-08-04T11:12:55.000Z</time>
      </trkpt>
      <trkpt lat="49.33971" lon="-0.62652">
        <ele>8.548676</ele>
        <time>2022-08-04T11:12:56.000Z</time>
      </trkpt>
      <trkpt lat="49.3397" lon="-0.62649">
        <ele>8.501507</ele>
        <time>2022-08-04T11:12:57.000Z</time>
      </trkpt>
      <trkpt lat="49.33968" lon="-0.62646">
        <ele>8.450084</ele>
        <time>2022-08-04T11:12:58.000Z</time>
      </trkpt>
      <trkpt lat="49.33968" lon="-0.62643">
        <ele>8.403366</ele>
        <time>2022-08-04T11:12:59.000Z</time>
      </trkpt>
      <trkpt lat="49.33966" lon="-0.62639">
        <ele>8.363457</ele>
        <time>2022-08-04T11:13:00.000Z</time>
      </trkpt>
      <trkpt lat="49.33965" lon="-0.62636">
        <ele>8.336215</ele>
        <time>2022-08-04T11:13:01.000Z</time>
      </trkpt>
      <trkpt lat="49.33964" lon="-0.62632">
        <ele>8.307272</ele>
        <time>2022-08-04T11:13:02.000Z</time>
      </trkpt>
      <trkpt lat="49.33964" lon="-0.62629">
        <ele>8.280674</ele>
        <time>2022-08-04T11:13:03.000Z</time>
      </trkpt>
      <trkpt lat="49.33963" lon="-0.62626">
        <ele>8.253896</ele>
        <time>2022-08-04T11:13:04.000Z</time>
      </trkpt>
      <trkpt lat="49.33963" lon="-0.62622">
        <ele>8.225988</ele>
        <time>2022-08-04T11:13:05.000Z</time>
      </trkpt>
      <trkpt lat="49.33962" lon="-0.62618">
        <ele>8.199389</ele>
        <time>2022-08-04T11:13:06.000Z</time>
      </trkpt>
      <trkpt lat="49.33962" lon="-0.62615">
        <ele>8.172966</ele>
        <time>2022-08-04T11:13:07.000Z</time>
      </trkpt>
      <trkpt lat="49.33962" lon="-0.62612">
        <ele>8.148025</ele>
        <time>2022-08-04T11:13:08.000Z</time>
      </trkpt>
      <trkpt lat="49.33962" lon="-0.62609">
        <ele>8.12557</ele>
        <time>2022-08-04T11:13:09.000Z</time>
      </trkpt>
      <trkpt lat="49.33962" lon="-0.62606">
        <ele>8.104611</ele>
        <time>2022-08-04T11:13:10.000Z</time>
      </trkpt>
      <trkpt lat="49.33961" lon="-0.626">
        <ele>8.06287</ele>
        <time>2022-08-04T11:13:12.000Z</time>
      </trkpt>
      <trkpt lat="49.33961" lon="-0.62597">
        <ele>8.040414</ele>
        <time>2022-08-04T11:13:13.000Z</time>
      </trkpt>
      <trkpt lat="49.33961" lon="-0.62594">
        <ele>8.014964</ele>
        <time>2022-08-04T11:13:14.000Z</time>
      </trkpt>
      <trkpt lat="49.33961" lon="-0.62591">
        <ele>7.990263</ele>
        <time>2022-08-04T11:13:15.000Z</time>
      </trkpt>
      <trkpt lat="49.33961" lon="-0.62587">
        <ele>7.966311</ele>
        <time>2022-08-04T11:13:16.000Z</time>
      </trkpt>
      <trkpt lat="49.33962" lon="-0.62584">
        <ele>7.940666</ele>
        <time>2022-08-04T11:13:17.000Z</time>
      </trkpt>
      <trkpt lat="49.33962" lon="-0.62581">
        <ele>7.915965</ele>
        <time>2022-08-04T11:13:18.000Z</time>
      </trkpt>
      <trkpt lat="49.33962" lon="-0.62578">
        <ele>7.892012</ele>
        <time>2022-08-04T11:13:19.000Z</time>
      </trkpt>
      <trkpt lat="49.33962" lon="-0.62574">
        <ele>7.867072</ele>
        <time>2022-08-04T11:13:20.000Z</time>
      </trkpt>
      <trkpt lat="49.33962" lon="-0.62571">
        <ele>7.841622</ele>
        <time>2022-08-04T11:13:21.000Z</time>
      </trkpt>
      <trkpt lat="49.33962" lon="-0.62568">
        <ele>7.816682</ele>
        <time>2022-08-04T11:13:22.000Z</time>
      </trkpt>
      <trkpt lat="49.33963" lon="-0.62564">
        <ele>7.789277</ele>
        <time>2022-08-04T11:13:23.000Z</time>
      </trkpt>
      <trkpt lat="49.33964" lon="-0.6256">
        <ele>7.76001</ele>
        <time>2022-08-04T11:13:24.000Z</time>
      </trkpt>
      <trkpt lat="49.33964" lon="-0.62557">
        <ele>7.732102</ele>
        <time>2022-08-04T11:13:25.000Z</time>
      </trkpt>
      <trkpt lat="49.33964" lon="-0.62553">
        <ele>7.707401</ele>
        <time>2022-08-04T11:13:26.000Z</time>
      </trkpt>
      <trkpt lat="49.33964" lon="-0.6255">
        <ele>7.681202</ele>
        <time>2022-08-04T11:13:27.000Z</time>
      </trkpt>
      <trkpt lat="49.33964" lon="-0.62546">
        <ele>7.654604</ele>
        <time>2022-08-04T11:13:28.000Z</time>
      </trkpt>
      <trkpt lat="49.33965" lon="-0.62542">
        <ele>7.624609</ele>
        <time>2022-08-04T11:13:29.000Z</time>
      </trkpt>
      <trkpt lat="49.33965" lon="-0.62538">
        <ele>7.593886</ele>
        <time>2022-08-04T11:13:30.000Z</time>
      </trkpt>
      <trkpt lat="49.33966" lon="-0.62534">
        <ele>7.563594</ele>
        <time>2022-08-04T11:13:31.000Z</time>
      </trkpt>
      <trkpt lat="49.33966" lon="-0.6253">
        <ele>7.533654</ele>
        <time>2022-08-04T11:13:32.000Z</time>
      </trkpt>
      <trkpt lat="49.33966" lon="-0.62526">
        <ele>7.503515</ele>
        <time>2022-08-04T11:13:33.000Z</time>
      </trkpt>
      <trkpt lat="49.33967" lon="-0.62522">
        <ele>7.472791</ele>
        <time>2022-08-04T11:13:34.000Z</time>
      </trkpt>
      <trkpt lat="49.33967" lon="-0.6252">
        <ele>7.450343</ele>
        <time>2022-08-04T11:13:35.000Z</time>
      </trkpt>
      <trkpt lat="49.33968" lon="-0.62515">
        <ele>7.417249</ele>
        <time>2022-08-04T11:13:36.000Z</time>
      </trkpt>
      <trkpt lat="49.33969" lon="-0.62512">
        <ele>7.391272</ele>
        <time>2022-08-04T11:13:37.000Z</time>
      </trkpt>
      <trkpt lat="49.3397" lon="-0.62508">
        <ele>7.362732</ele>
        <time>2022-08-04T11:13:38.000Z</time>
      </trkpt>
      <trkpt lat="49.3397" lon="-0.62504">
        <ele>7.332008</ele>
        <time>2022-08-04T11:13:39.000Z</time>
      </trkpt>
      <trkpt lat="49.33971" lon="-0.62501">
        <ele>7.303887</ele>
        <time>2022-08-04T11:13:40.000Z</time>
      </trkpt>
      <trkpt lat="49.33972" lon="-0.62497">
        <ele>7.275723</ele>
        <time>2022-08-04T11:13:41.000Z</time>
      </trkpt>
      <trkpt lat="49.33973" lon="-0.62493">
        <ele>7.245443</ele>
        <time>2022-08-04T11:13:42.000Z</time>
      </trkpt>
      <trkpt lat="49.33973" lon="-0.6249">
        <ele>7.215179</ele>
        <time>2022-08-04T11:13:43.000Z</time>
      </trkpt>
      <trkpt lat="49.33973" lon="-0.62485">
        <ele>7.183741</ele>
        <time>2022-08-04T11:13:44.000Z</time>
      </trkpt>
      <trkpt lat="49.33974" lon="-0.62482">
        <ele>7.154182</ele>
        <time>2022-08-04T11:13:45.000Z</time>
      </trkpt>
      <trkpt lat="49.33975" lon="-0.62477">
        <ele>7.121998</ele>
        <time>2022-08-04T11:13:46.000Z</time>
      </trkpt>
      <trkpt lat="49.33976" lon="-0.62474">
        <ele>7.091322</ele>
        <time>2022-08-04T11:13:47.000Z</time>
      </trkpt>
      <trkpt lat="49.33976" lon="-0.62471">
        <ele>7.068604</ele>
        <time>2022-08-04T11:13:48.000Z</time>
      </trkpt>
      <trkpt lat="49.33977" lon="-0.62466">
        <ele>7.033122</ele>
        <time>2022-08-04T11:13:49.000Z</time>
      </trkpt>
      <trkpt lat="49.33978" lon="-0.62463">
        <ele>7.004582</ele>
        <time>2022-08-04T11:13:50.000Z</time>
      </trkpt>
      <trkpt lat="49.33979" lon="-0.62459">
        <ele>6.975023</ele>
        <time>2022-08-04T11:13:51.000Z</time>
      </trkpt>
      <trkpt lat="49.33979" lon="-0.62455">
        <ele>6.943397</ele>
        <time>2022-08-04T11:13:52.000Z</time>
      </trkpt>
      <trkpt lat="49.3398" lon="-0.6245">
        <ele>6.911213</ele>
        <time>2022-08-04T11:13:53.000Z</time>
      </trkpt>
      <trkpt lat="49.3398" lon="-0.62447">
        <ele>6.881654</ele>
        <time>2022-08-04T11:13:54.000Z</time>
      </trkpt>
      <trkpt lat="49.33981" lon="-0.62443">
        <ele>6.850046</ele>
        <time>2022-08-04T11:13:55.000Z</time>
      </trkpt>
      <trkpt lat="49.33982" lon="-0.62439">
        <ele>6.819755</ele>
        <time>2022-08-04T11:13:56.000Z</time>
      </trkpt>
      <trkpt lat="49.33983" lon="-0.62435">
        <ele>6.788079</ele>
        <time>2022-08-04T11:13:57.000Z</time>
      </trkpt>
      <trkpt lat="49.33983" lon="-0.62431">
        <ele>6.757078</ele>
        <time>2022-08-04T11:13:58.000Z</time>
      </trkpt>
      <trkpt lat="49.33984" lon="-0.62427">
        <ele>6.726354</ele>
        <time>2022-08-04T11:13:59.000Z</time>
      </trkpt>
      <trkpt lat="49.33985" lon="-0.62423">
        <ele>6.69563</ele>
        <time>2022-08-04T11:14:00.000Z</time>
      </trkpt>
      <trkpt lat="49.33986" lon="-0.62419">
        <ele>6.662172</ele>
        <time>2022-08-04T11:14:01.000Z</time>
      </trkpt>
      <trkpt lat="49.33987" lon="-0.62415">
        <ele>6.631892</ele>
        <time>2022-08-04T11:14:02.000Z</time>
      </trkpt>
      <trkpt lat="49.33987" lon="-0.62411">
        <ele>6.600439</ele>
        <time>2022-08-04T11:14:03.000Z</time>
      </trkpt>
      <trkpt lat="49.33988" lon="-0.62407">
        <ele>6.569715</ele>
        <time>2022-08-04T11:14:04.000Z</time>
      </trkpt>
      <trkpt lat="49.33988" lon="-0.62403">
        <ele>6.537943</ele>
        <time>2022-08-04T11:14:05.000Z</time>
      </trkpt>
      <trkpt lat="49.33989" lon="-0.62398">
        <ele>6.506317</ele>
        <time>2022-08-04T11:14:06.000Z</time>
      </trkpt>
      <trkpt lat="49.33989" lon="-0.62394">
        <ele>6.473933</ele>
        <time>2022-08-04T11:14:07.000Z</time>
      </trkpt>
      <trkpt lat="49.3399" lon="-0.6239">
        <ele>6.443654</ele>
        <time>2022-08-04T11:14:08.000Z</time>
      </trkpt>
      <trkpt lat="49.3399" lon="-0.62387">
        <ele>6.420196</ele>
        <time>2022-08-04T11:14:09.000Z</time>
      </trkpt>
      <trkpt lat="49.33992" lon="-0.62383">
        <ele>6.38335</ele>
        <time>2022-08-04T11:14:11.000Z</time>
      </trkpt>
      <trkpt lat="49.33992" lon="-0.62379">
        <ele>6.351166</ele>
        <time>2022-08-04T11:14:13.000Z</time>
      </trkpt>
      <trkpt lat="49.33992" lon="-0.62376">
        <ele>6.32871</ele>
        <time>2022-08-04T11:14:15.000Z</time>
      </trkpt>
      <trkpt lat="49.33994" lon="-0.62376">
        <ele>6.310133</ele>
        <time>2022-08-04T11:14:18.000Z</time>
      </trkpt>
      <trkpt lat="49.33996" lon="-0.62379">
        <ele>6.291343</ele>
        <time>2022-08-04T11:14:20.000Z</time>
      </trkpt>
      <trkpt lat="49.33997" lon="-0.62383">
        <ele>6.269551</ele>
        <time>2022-08-04T11:14:22.000Z</time>
      </trkpt>
      <trkpt lat="49.34" lon="-0.62385">
        <ele>6.247443</ele>
        <time>2022-08-04T11:14:25.000Z</time>
      </trkpt>
      <trkpt lat="49.34003" lon="-0.62385">
        <ele>6.224479</ele>
        <time>2022-08-04T11:14:27.000Z</time>
      </trkpt>
      <trkpt lat="49.34006" lon="-0.62385">
        <ele>6.199441</ele>
        <time>2022-08-04T11:14:29.000Z</time>
      </trkpt>
      <trkpt lat="49.34009" lon="-0.62386">
        <ele>6.171943</ele>
        <time>2022-08-04T11:14:31.000Z</time>
      </trkpt>
      <trkpt lat="49.34012" lon="-0.62388">
        <ele>6.1494</ele>
        <time>2022-08-04T11:14:33.000Z</time>
      </trkpt>
      <trkpt lat="49.34014" lon="-0.62389">
        <ele>6.132945</ele>
        <time>2022-08-04T11:14:34.000Z</time>
      </trkpt>
      <trkpt lat="49.34016" lon="-0.62389">
        <ele>6.118004</ele>
        <time>2022-08-04T11:14:35.000Z</time>
      </trkpt>
      <trkpt lat="49.34019" lon="-0.6239">
        <ele>6.090154</ele>
        <time>2022-08-04T11:14:37.000Z</time>
      </trkpt>
      <trkpt lat="49.34021" lon="-0.62391">
        <ele>6.075256</ele>
        <time>2022-08-04T11:14:38.000Z</time>
      </trkpt>
      <trkpt lat="49.34024" lon="-0.62391">
        <ele>6.054918</ele>
        <time>2022-08-04T11:14:40.000Z</time>
      </trkpt>
      <trkpt lat="49.34026" lon="-0.62391">
        <ele>6.04002</ele>
        <time>2022-08-04T11:14:42.000Z</time>
      </trkpt>
      <trkpt lat="49.34028" lon="-0.62391">
        <ele>6.02494</ele>
        <time>2022-08-04T11:14:45.000Z</time>
      </trkpt>
      <trkpt lat="49.34034" lon="-0.62389">
        <ele>5.975922</ele>
        <time>2022-08-04T11:14:56.000Z</time>
      </trkpt>
      <trkpt lat="49.34036" lon="-0.62389">
        <ele>5.961024</ele>
        <time>2022-08-04T11:14:57.000Z</time>
      </trkpt>
      <trkpt lat="49.34039" lon="-0.62389">
        <ele>5.933526</ele>
        <time>2022-08-04T11:14:59.000Z</time>
      </trkpt>
      <trkpt lat="49.34041" lon="-0.62386">
        <ele>5.913666</ele>
        <time>2022-08-04T11:15:01.000Z</time>
      </trkpt>
      <trkpt lat="49.34043" lon="-0.62385">
        <ele>5.897954</ele>
        <time>2022-08-04T11:15:05.000Z</time>
      </trkpt>
      <trkpt lat="49.34046" lon="-0.62381">
        <ele>5.864683</ele>
        <time>2022-08-04T11:15:09.000Z</time>
      </trkpt>
      <trkpt lat="49.34046" lon="-0.62378">
        <ele>5.848204</ele>
        <time>2022-08-04T11:15:11.000Z</time>
      </trkpt>
      <trkpt lat="49.34046" lon="-0.62374">
        <ele>5.829855</ele>
        <time>2022-08-04T11:15:14.000Z</time>
      </trkpt>
      <trkpt lat="49.34001" lon="-0.62149">
        <ele>5.164911</ele>
        <time>2022-08-04T13:08:45.000Z</time>
      </trkpt>
      <trkpt lat="49.34001" lon="-0.62145">
        <ele>5.180392</ele>
        <time>2022-08-04T13:08:46.000Z</time>
      </trkpt>
      <trkpt lat="49.34001" lon="-0.62142">
        <ele>5.19533</ele>
        <time>2022-08-04T13:08:47.000Z</time>
      </trkpt>
      <trkpt lat="49.34001" lon="-0.62139">
        <ele>5.2099</ele>
        <time>2022-08-04T13:08:48.000Z</time>
      </trkpt>
      <trkpt lat="49.34001" lon="-0.62136">
        <ele>5.224408</ele>
        <time>2022-08-04T13:08:49.000Z</time>
      </trkpt>
      <trkpt lat="49.34001" lon="-0.62133">
        <ele>5.238978</ele>
        <time>2022-08-04T13:08:50.000Z</time>
      </trkpt>
      <trkpt lat="49.34002" lon="-0.6213">
        <ele>5.254149</ele>
        <time>2022-08-04T13:08:51.000Z</time>
      </trkpt>
      <trkpt lat="49.34002" lon="-0.62126">
        <ele>5.268719</ele>
        <time>2022-08-04T13:08:52.000Z</time>
      </trkpt>
      <trkpt lat="49.34001" lon="-0.62121">
        <ele>5.293849</ele>
        <time>2022-08-04T13:08:54.000Z</time>
      </trkpt>
      <trkpt lat="49.34002" lon="-0.62116">
        <ele>5.315804</ele>
        <time>2022-08-04T13:08:56.000Z</time>
      </trkpt>
      <trkpt lat="49.34002" lon="-0.62112">
        <ele>5.335826</ele>
        <time>2022-08-04T13:08:58.000Z</time>
      </trkpt>
      <trkpt lat="49.34002" lon="-0.62107">
        <ele>5.355969</ele>
        <time>2022-08-04T13:09:00.000Z</time>
      </trkpt>
      <trkpt lat="49.34003" lon="-0.62105">
        <ele>5.368778</ele>
        <time>2022-08-04T13:09:02.000Z</time>
      </trkpt>
      <trkpt lat="49.34003" lon="-0.62101">
        <ele>5.386138</ele>
        <time>2022-08-04T13:09:04.000Z</time>
      </trkpt>
      <trkpt lat="49.34003" lon="-0.62097">
        <ele>5.403941</ele>
        <time>2022-08-04T13:09:06.000Z</time>
      </trkpt>
      <trkpt lat="49.34003" lon="-0.62093">
        <ele>5.423974</ele>
        <time>2022-08-04T13:09:08.000Z</time>
      </trkpt>
      <trkpt lat="49.34003" lon="-0.62089">
        <ele>5.43991</ele>
        <time>2022-08-04T13:09:11.000Z</time>
      </trkpt>
      <trkpt lat="49.34003" lon="-0.62079">
        <ele>5.485441</ele>
        <time>2022-08-04T13:09:27.000Z</time>
      </trkpt>
      <trkpt lat="49.34002" lon="-0.62075">
        <ele>5.506949</ele>
        <time>2022-08-04T13:09:29.000Z</time>
      </trkpt>
      <trkpt lat="49.34002" lon="-0.6207">
        <ele>5.529811</ele>
        <time>2022-08-04T13:09:31.000Z</time>
      </trkpt>
      <trkpt lat="49.34002" lon="-0.62066">
        <ele>5.548144</ele>
        <time>2022-08-04T13:09:33.000Z</time>
      </trkpt>
      <trkpt lat="49.34002" lon="-0.62061">
        <ele>5.568287</ele>
        <time>2022-08-04T13:09:35.000Z</time>
      </trkpt>
      <trkpt lat="49.34002" lon="-0.62058">
        <ele>5.581946</ele>
        <time>2022-08-04T13:09:36.000Z</time>
      </trkpt>
      <trkpt lat="49.34002" lon="-0.62055">
        <ele>5.59667</ele>
        <time>2022-08-04T13:09:38.000Z</time>
      </trkpt>
      <trkpt lat="49.34001" lon="-0.62052">
        <ele>5.612292</ele>
        <time>2022-08-04T13:09:40.000Z</time>
      </trkpt>
      <trkpt lat="49.34001" lon="-0.62048">
        <ele>5.63187</ele>
        <time>2022-08-04T13:09:42.000Z</time>
      </trkpt>
      <trkpt lat="49.34002" lon="-0.62043">
        <ele>5.653372</ele>
        <time>2022-08-04T13:09:44.000Z</time>
      </trkpt>
      <trkpt lat="49.34002" lon="-0.62038">
        <ele>5.677865</ele>
        <time>2022-08-04T13:09:46.000Z</time>
      </trkpt>
      <trkpt lat="49.34002" lon="-0.62035">
        <ele>5.690614</ele>
        <time>2022-08-04T13:09:47.000Z</time>
      </trkpt>
      <trkpt lat="49.34002" lon="-0.62032">
        <ele>5.705334</ele>
        <time>2022-08-04T13:09:48.000Z</time>
      </trkpt>
      <trkpt lat="49.34002" lon="-0.62028">
        <ele>5.72127</ele>
        <time>2022-08-04T13:09:49.000Z</time>
      </trkpt>
      <trkpt lat="49.34002" lon="-0.62025">
        <ele>5.737343</ele>
        <time>2022-08-04T13:09:50.000Z</time>
      </trkpt>
      <trkpt lat="49.34" lon="-0.62021">
        <ele>5.754513</ele>
        <time>2022-08-04T13:09:51.000Z</time>
      </trkpt>
      <trkpt lat="49.33998" lon="-0.62018">
        <ele>5.776009</ele>
        <time>2022-08-04T13:09:53.000Z</time>
      </trkpt>
      <trkpt lat="49.33997" lon="-0.62016">
        <ele>5.791021</ele>
        <time>2022-08-04T13:09:56.000Z</time>
      </trkpt>
      <trkpt lat="49.33984" lon="-0.6202">
        <ele>5.878701</ele>
        <time>2022-08-04T13:12:54.000Z</time>
      </trkpt>
      <trkpt lat="49.33981" lon="-0.62022">
        <ele>5.903975</ele>
        <time>2022-08-04T13:12:55.000Z</time>
      </trkpt>
      <trkpt lat="49.33979" lon="-0.62023">
        <ele>5.920797</ele>
        <time>2022-08-04T13:12:56.000Z</time>
      </trkpt>
      <trkpt lat="49.33976" lon="-0.62024">
        <ele>5.941567</ele>
        <time>2022-08-04T13:12:57.000Z</time>
      </trkpt>
      <trkpt lat="49.33973" lon="-0.62025">
        <ele>5.958272</ele>
        <time>2022-08-04T13:12:58.000Z</time>
      </trkpt>
      <trkpt lat="49.33971" lon="-0.62026">
        <ele>5.978361</ele>
        <time>2022-08-04T13:12:59.000Z</time>
      </trkpt>
      <trkpt lat="49.33969" lon="-0.62027">
        <ele>5.992804</ele>
        <time>2022-08-04T13:13:00.000Z</time>
      </trkpt>
      <trkpt lat="49.33967" lon="-0.62027">
        <ele>6.006081</ele>
        <time>2022-08-04T13:13:01.000Z</time>
      </trkpt>
      <trkpt lat="49.33965" lon="-0.62025">
        <ele>6.021684</ele>
        <time>2022-08-04T13:13:04.000Z</time>
      </trkpt>
      <trkpt lat="49.33972" lon="-0.62018">
        <ele>6.080174</ele>
        <time>2022-08-04T13:13:11.000Z</time>
      </trkpt>
      <trkpt lat="49.33974" lon="-0.62017">
        <ele>6.096304</ele>
        <time>2022-08-04T13:13:12.000Z</time>
      </trkpt>
      <trkpt lat="49.33976" lon="-0.62017">
        <ele>6.114062</ele>
        <time>2022-08-04T13:13:13.000Z</time>
      </trkpt>
      <trkpt lat="49.33979" lon="-0.62015">
        <ele>6.133035</ele>
        <time>2022-08-04T13:13:14.000Z</time>
      </trkpt>
      <trkpt lat="49.33981" lon="-0.62015">
        <ele>6.146505</ele>
        <time>2022-08-04T13:13:15.000Z</time>
      </trkpt>
      <trkpt lat="49.33984" lon="-0.62014">
        <ele>6.167617</ele>
        <time>2022-08-04T13:13:16.000Z</time>
      </trkpt>
      <trkpt lat="49.33986" lon="-0.62012">
        <ele>6.352849</ele>
        <time>2022-08-04T13:13:17.000Z</time>
      </trkpt>
      <trkpt lat="49.33988" lon="-0.62011">
        <ele>6.546174</ele>
        <time>2022-08-04T13:13:18.000Z</time>
      </trkpt>
      <trkpt lat="49.33991" lon="-0.62011">
        <ele>6.754175</ele>
        <time>2022-08-04T13:13:19.000Z</time>
      </trkpt>
      <trkpt lat="49.33994" lon="-0.62009">
        <ele>6.998811</ele>
        <time>2022-08-04T13:13:20.000Z</time>
      </trkpt>
      <trkpt lat="49.33996" lon="-0.62008">
        <ele>7.217126</ele>
        <time>2022-08-04T13:13:21.000Z</time>
      </trkpt>
      <trkpt lat="49.33999" lon="-0.62007">
        <ele>7.491244</ele>
        <time>2022-08-04T13:13:22.000Z</time>
      </trkpt>
      <trkpt lat="49.34002" lon="-0.62004">
        <ele>7.720677</ele>
        <time>2022-08-04T13:13:23.000Z</time>
      </trkpt>
      <trkpt lat="49.34004" lon="-0.62001">
        <ele>7.978763</ele>
        <time>2022-08-04T13:13:24.000Z</time>
      </trkpt>
      <trkpt lat="49.34005" lon="-0.61996">
        <ele>8.225526</ele>
        <time>2022-08-04T13:13:25.000Z</time>
      </trkpt>
      <trkpt lat="49.34005" lon="-0.61992">
        <ele>8.465585</ele>
        <time>2022-08-04T13:13:26.000Z</time>
      </trkpt>
      <trkpt lat="49.34006" lon="-0.61987">
        <ele>8.722393</ele>
        <time>2022-08-04T13:13:27.000Z</time>
      </trkpt>
      <trkpt lat="49.34006" lon="-0.61983">
        <ele>8.934671</ele>
        <time>2022-08-04T13:13:28.000Z</time>
      </trkpt>
      <trkpt lat="49.34006" lon="-0.61978">
        <ele>9.200018</ele>
        <time>2022-08-04T13:13:29.000Z</time>
      </trkpt>
      <trkpt lat="49.34006" lon="-0.61972">
        <ele>9.529048</ele>
        <time>2022-08-04T13:13:30.000Z</time>
      </trkpt>
      <trkpt lat="49.34006" lon="-0.61967">
        <ele>9.78495</ele>
        <time>2022-08-04T13:13:31.000Z</time>
      </trkpt>
      <trkpt lat="49.34006" lon="-0.61962">
        <ele>10.039683</ele>
        <time>2022-08-04T13:13:32.000Z</time>
      </trkpt>
      <trkpt lat="49.34006" lon="-0.61957">
        <ele>10.299723</ele>
        <time>2022-08-04T13:13:33.000Z</time>
      </trkpt>
      <trkpt lat="49.34006" lon="-0.61953">
        <ele>10.543842</ele>
        <time>2022-08-04T13:13:34.000Z</time>
      </trkpt>
      <trkpt lat="49.34006" lon="-0.61948">
        <ele>10.782655</ele>
        <time>2022-08-04T13:13:35.000Z</time>
      </trkpt>
      <trkpt lat="49.34006" lon="-0.61944">
        <ele>11.032081</ele>
        <time>2022-08-04T13:13:36.000Z</time>
      </trkpt>
      <trkpt lat="49.34006" lon="-0.61939">
        <ele>11.281507</ele>
        <time>2022-08-04T13:13:37.000Z</time>
      </trkpt>
      <trkpt lat="49.34006" lon="-0.61934">
        <ele>11.520319</ele>
        <time>2022-08-04T13:13:38.000Z</time>
      </trkpt>
      <trkpt lat="49.34006" lon="-0.6193">
        <ele>11.749822</ele>
        <time>2022-08-04T13:13:39.000Z</time>
      </trkpt>
      <trkpt lat="49.34006" lon="-0.61926">
        <ele>11.989881</ele>
        <time>2022-08-04T13:13:40.000Z</time>
      </trkpt>
      <trkpt lat="49.34006" lon="-0.61921">
        <ele>12.219384</ele>
        <time>2022-08-04T13:13:41.000Z</time>
      </trkpt>
      <trkpt lat="49.34006" lon="-0.61917">
        <ele>12.452889</ele>
        <time>2022-08-04T13:13:42.000Z</time>
      </trkpt>
      <trkpt lat="49.34007" lon="-0.61913">
        <ele>12.695187</ele>
        <time>2022-08-04T13:13:43.000Z</time>
      </trkpt>
      <trkpt lat="49.34008" lon="-0.61908">
        <ele>12.92469</ele>
        <time>2022-08-04T13:13:44.000Z</time>
      </trkpt>
      <trkpt lat="49.34008" lon="-0.61904">
        <ele>13.152876</ele>
        <time>2022-08-04T13:13:45.000Z</time>
      </trkpt>
      <trkpt lat="49.34009" lon="-0.619">
        <ele>13.366555</ele>
        <time>2022-08-04T13:13:46.000Z</time>
      </trkpt>
      <trkpt lat="49.34009" lon="-0.61896">
        <ele>13.576123</ele>
        <time>2022-08-04T13:13:47.000Z</time>
      </trkpt>
      <trkpt lat="49.3401" lon="-0.61892">
        <ele>13.804309</ele>
        <time>2022-08-04T13:13:48.000Z</time>
      </trkpt>
      <trkpt lat="49.34011" lon="-0.61888">
        <ele>14.039522</ele>
        <time>2022-08-04T13:13:49.000Z</time>
      </trkpt>
      <trkpt lat="49.34012" lon="-0.61884">
        <ele>14.274157</ele>
        <time>2022-08-04T13:13:50.000Z</time>
      </trkpt>
      <trkpt lat="49.34012" lon="-0.6188">
        <ele>14.487836</ele>
        <time>2022-08-04T13:13:51.000Z</time>
      </trkpt>
      <trkpt lat="49.34012" lon="-0.61875">
        <ele>14.713096</ele>
        <time>2022-08-04T13:13:52.000Z</time>
      </trkpt>
      <trkpt lat="49.34013" lon="-0.61871">
        <ele>14.952779</ele>
        <time>2022-08-04T13:13:53.000Z</time>
      </trkpt>
      <trkpt lat="49.34013" lon="-0.61867">
        <ele>15.180977</ele>
        <time>2022-08-04T13:13:54.000Z</time>
      </trkpt>
      <trkpt lat="49.34013" lon="-0.61863">
        <ele>15.394656</ele>
        <time>2022-08-04T13:13:55.000Z</time>
      </trkpt>
      <trkpt lat="49.34013" lon="-0.61858">
        <ele>15.628161</ele>
        <time>2022-08-04T13:13:56.000Z</time>
      </trkpt>
      <trkpt lat="49.34013" lon="-0.61854">
        <ele>15.845745</ele>
        <time>2022-08-04T13:13:57.000Z</time>
      </trkpt>
      <trkpt lat="49.34014" lon="-0.6185">
        <ele>16.086769</ele>
        <time>2022-08-04T13:13:58.000Z</time>
      </trkpt>
      <trkpt lat="49.34014" lon="-0.61845">
        <ele>16.320274</ele>
        <time>2022-08-04T13:13:59.000Z</time>
      </trkpt>
      <trkpt lat="49.34014" lon="-0.61841">
        <ele>16.564392</ele>
        <time>2022-08-04T13:14:00.000Z</time>
      </trkpt>
      <trkpt lat="49.34013" lon="-0.61837">
        <ele>16.811155</ele>
        <time>2022-08-04T13:14:01.000Z</time>
      </trkpt>
      <trkpt lat="49.34011" lon="-0.61833">
        <ele>17.040911</ele>
        <time>2022-08-04T13:14:02.000Z</time>
      </trkpt>
      <trkpt lat="49.34008" lon="-0.61832">
        <ele>17.263632</ele>
        <time>2022-08-04T13:14:03.000Z</time>
      </trkpt>
      <trkpt lat="49.34005" lon="-0.61833">
        <ele>17.477055</ele>
        <time>2022-08-04T13:14:04.000Z</time>
      </trkpt>
      <trkpt lat="49.34003" lon="-0.61834">
        <ele>17.669064</ele>
        <time>2022-08-04T13:14:05.000Z</time>
      </trkpt>
      <trkpt lat="49.34" lon="-0.61836">
        <ele>17.925888</ele>
        <time>2022-08-04T13:14:06.000Z</time>
      </trkpt>
      <trkpt lat="49.33998" lon="-0.61838">
        <ele>18.155512</ele>
        <time>2022-08-04T13:14:07.000Z</time>
      </trkpt>
      <trkpt lat="49.33995" lon="-0.6184">
        <ele>18.392389</ele>
        <time>2022-08-04T13:14:08.000Z</time>
      </trkpt>
      <trkpt lat="49.33993" lon="-0.61842">
        <ele>18.629265</ele>
        <time>2022-08-04T13:14:09.000Z</time>
      </trkpt>
      <trkpt lat="49.33991" lon="-0.61843">
        <ele>18.805782</ele>
        <time>2022-08-04T13:14:10.000Z</time>
      </trkpt>
      <trkpt lat="49.33988" lon="-0.61846">
        <ele>19.061023</ele>
        <time>2022-08-04T13:14:12.000Z</time>
      </trkpt>
      <trkpt lat="49.33986" lon="-0.6185">
        <ele>19.336271</ele>
        <time>2022-08-04T13:14:14.000Z</time>
      </trkpt>
      <trkpt lat="49.33985" lon="-0.61852">
        <ele>19.486194</ele>
        <time>2022-08-04T13:14:16.000Z</time>
      </trkpt>
      <trkpt lat="49.33986" lon="-0.61855">
        <ele>19.700256</ele>
        <time>2022-08-04T13:16:14.000Z</time>
      </trkpt>
      <trkpt lat="49.33988" lon="-0.61859">
        <ele>19.951326</ele>
        <time>2022-08-04T13:16:16.000Z</time>
      </trkpt>
      <trkpt lat="49.3399" lon="-0.61863">
        <ele>20.186993</ele>
        <time>2022-08-04T13:16:18.000Z</time>
      </trkpt>
      <trkpt lat="49.33992" lon="-0.61866">
        <ele>20.433869</ele>
        <time>2022-08-04T13:16:20.000Z</time>
      </trkpt>
      <trkpt lat="49.33994" lon="-0.61866">
        <ele>20.61501</ele>
        <time>2022-08-04T13:16:22.000Z</time>
      </trkpt>
      <trkpt lat="49.33999" lon="-0.61862">
        <ele>21.186659</ele>
        <time>2022-08-04T13:17:15.000Z</time>
      </trkpt>
      <trkpt lat="49.33992" lon="-0.61864">
        <ele>21.99309</ele>
        <time>2022-08-04T13:17:51.000Z</time>
      </trkpt>
      <trkpt lat="49.3399" lon="-0.61862">
        <ele>22.256615</ele>
        <time>2022-08-04T13:17:53.000Z</time>
      </trkpt>
      <trkpt lat="49.33988" lon="-0.6186">
        <ele>22.516234</ele>
        <time>2022-08-04T13:17:55.000Z</time>
      </trkpt>
      <trkpt lat="49.33987" lon="-0.61858">
        <ele>22.709924</ele>
        <time>2022-08-04T13:17:56.000Z</time>
      </trkpt>
      <trkpt lat="49.33985" lon="-0.61857">
        <ele>22.945107</ele>
        <time>2022-08-04T13:17:59.000Z</time>
      </trkpt>
      <trkpt lat="49.33981" lon="-0.61856">
        <ele>23.295952</ele>
        <time>2022-08-04T13:22:48.000Z</time>
      </trkpt>
      <trkpt lat="49.33979" lon="-0.61856">
        <ele>23.596249</ele>
        <time>2022-08-04T13:22:49.000Z</time>
      </trkpt>
      <trkpt lat="49.33976" lon="-0.61857">
        <ele>23.919479</ele>
        <time>2022-08-04T13:22:50.000Z</time>
      </trkpt>
      <trkpt lat="49.33973" lon="-0.61859">
        <ele>24.281773</ele>
        <time>2022-08-04T13:22:51.000Z</time>
      </trkpt>
      <trkpt lat="49.33969" lon="-0.61861">
        <ele>24.676697</ele>
        <time>2022-08-04T13:22:52.000Z</time>
      </trkpt>
      <trkpt lat="49.33966" lon="-0.61863">
        <ele>25.029197</ele>
        <time>2022-08-04T13:22:53.000Z</time>
      </trkpt>
      <trkpt lat="49.33963" lon="-0.61866">
        <ele>25.407245</ele>
        <time>2022-08-04T13:22:54.000Z</time>
      </trkpt>
      <trkpt lat="49.3396" lon="-0.61867">
        <ele>25.704419</ele>
        <time>2022-08-04T13:22:55.000Z</time>
      </trkpt>
      <trkpt lat="49.33958" lon="-0.61868">
        <ele>25.986826</ele>
        <time>2022-08-04T13:22:56.000Z</time>
      </trkpt>
      <trkpt lat="49.33955" lon="-0.61869">
        <ele>26.304827</ele>
        <time>2022-08-04T13:22:57.000Z</time>
      </trkpt>
      <trkpt lat="49.33952" lon="-0.61871">
        <ele>26.599621</ele>
        <time>2022-08-04T13:22:58.000Z</time>
      </trkpt>
      <trkpt lat="49.3395" lon="-0.61872">
        <ele>26.845102</ele>
        <time>2022-08-04T13:22:59.000Z</time>
      </trkpt>
      <trkpt lat="49.33948" lon="-0.61873">
        <ele>27.107332</ele>
        <time>2022-08-04T13:23:00.000Z</time>
      </trkpt>
      <trkpt lat="49.33946" lon="-0.61874">
        <ele>27.35713</ele>
        <time>2022-08-04T13:23:01.000Z</time>
      </trkpt>
      <trkpt lat="49.33943" lon="-0.61875">
        <ele>27.643902</ele>
        <time>2022-08-04T13:23:02.000Z</time>
      </trkpt>
      <trkpt lat="49.33941" lon="-0.61876">
        <ele>27.91219</ele>
        <time>2022-08-04T13:23:03.000Z</time>
      </trkpt>
      <trkpt lat="49.33938" lon="-0.61876">
        <ele>28.192535</ele>
        <time>2022-08-04T13:23:04.000Z</time>
      </trkpt>
      <trkpt lat="49.33935" lon="-0.61876">
        <ele>28.503506</ele>
        <time>2022-08-04T13:23:05.000Z</time>
      </trkpt>
      <trkpt lat="49.33933" lon="-0.61876">
        <ele>28.739807</ele>
        <time>2022-08-04T13:23:06.000Z</time>
      </trkpt>
      <trkpt lat="49.33931" lon="-0.61876">
        <ele>28.975595</ele>
        <time>2022-08-04T13:23:07.000Z</time>
      </trkpt>
      <trkpt lat="49.33929" lon="-0.61876">
        <ele>29.189571</ele>
        <time>2022-08-04T13:23:08.000Z</time>
      </trkpt>
      <trkpt lat="49.33926" lon="-0.61876">
        <ele>29.426592</ele>
        <time>2022-08-04T13:23:09.000Z</time>
      </trkpt>
      <trkpt lat="49.33924" lon="-0.61877">
        <ele>29.705547</ele>
        <time>2022-08-04T13:23:10.000Z</time>
      </trkpt>
      <trkpt lat="49.33921" lon="-0.61877">
        <ele>30.005844</ele>
        <time>2022-08-04T13:23:11.000Z</time>
      </trkpt>
      <trkpt lat="49.33919" lon="-0.61878">
        <ele>30.25979</ele>
        <time>2022-08-04T13:23:12.000Z</time>
      </trkpt>
      <trkpt lat="49.33917" lon="-0.61879">
        <ele>30.482354</ele>
        <time>2022-08-04T13:23:13.000Z</time>
      </trkpt>
      <trkpt lat="49.33915" lon="-0.6188">
        <ele>30.734572</ele>
        <time>2022-08-04T13:23:14.000Z</time>
      </trkpt>
      <trkpt lat="49.33913" lon="-0.61881">
        <ele>30.954043</ele>
        <time>2022-08-04T13:23:15.000Z</time>
      </trkpt>
      <trkpt lat="49.3391" lon="-0.61881">
        <ele>31.190345</ele>
        <time>2022-08-04T13:23:16.000Z</time>
      </trkpt>
      <trkpt lat="49.33909" lon="-0.61879">
        <ele>31.398546</ele>
        <time>2022-08-04T13:23:17.000Z</time>
      </trkpt>
      <trkpt lat="49.33907" lon="-0.61876">
        <ele>31.652967</ele>
        <time>2022-08-04T13:23:18.000Z</time>
      </trkpt>
      <trkpt lat="49.33907" lon="-0.61873">
        <ele>31.864551</ele>
        <time>2022-08-04T13:23:19.000Z</time>
      </trkpt>
      <trkpt lat="49.33907" lon="-0.6187">
        <ele>32.094599</ele>
        <time>2022-08-04T13:23:20.000Z</time>
      </trkpt>
      <trkpt lat="49.33908" lon="-0.61867">
        <ele>32.334276</ele>
        <time>2022-08-04T13:23:21.000Z</time>
      </trkpt>
      <trkpt lat="49.33909" lon="-0.61865">
        <ele>32.545697</ele>
        <time>2022-08-04T13:23:22.000Z</time>
      </trkpt>
      <trkpt lat="49.33911" lon="-0.61862">
        <ele>32.800119</ele>
        <time>2022-08-04T13:23:23.000Z</time>
      </trkpt>
      <trkpt lat="49.33912" lon="-0.61859">
        <ele>33.070379</ele>
        <time>2022-08-04T13:23:24.000Z</time>
      </trkpt>
      <trkpt lat="49.33913" lon="-0.61856">
        <ele>33.305291</ele>
        <time>2022-08-04T13:23:25.000Z</time>
      </trkpt>
      <trkpt lat="49.33915" lon="-0.61853">
        <ele>33.544968</ele>
        <time>2022-08-04T13:23:26.000Z</time>
      </trkpt>
      <trkpt lat="49.33916" lon="-0.61851">
        <ele>33.76143</ele>
        <time>2022-08-04T13:23:27.000Z</time>
      </trkpt>
      <trkpt lat="49.33917" lon="-0.61848">
        <ele>33.977934</ele>
        <time>2022-08-04T13:23:28.000Z</time>
      </trkpt>
      <trkpt lat="49.33918" lon="-0.61845">
        <ele>34.21761</ele>
        <time>2022-08-04T13:23:29.000Z</time>
      </trkpt>
      <trkpt lat="49.3392" lon="-0.61839">
        <ele>34.682659</ele>
        <time>2022-08-04T13:23:31.000Z</time>
      </trkpt>
      <trkpt lat="49.3392" lon="-0.61836">
        <ele>34.908033</ele>
        <time>2022-08-04T13:23:32.000Z</time>
      </trkpt>
      <trkpt lat="49.33921" lon="-0.61833">
        <ele>35.140309</ele>
        <time>2022-08-04T13:23:33.000Z</time>
      </trkpt>
      <trkpt lat="49.3392" lon="-0.61829">
        <ele>35.365683</ele>
        <time>2022-08-04T13:23:34.000Z</time>
      </trkpt>
      <trkpt lat="49.3392" lon="-0.61827">
        <ele>35.57116</ele>
        <time>2022-08-04T13:23:35.000Z</time>
      </trkpt>
      <trkpt lat="49.33918" lon="-0.61824">
        <ele>35.805704</ele>
        <time>2022-08-04T13:23:36.000Z</time>
      </trkpt>
      <trkpt lat="49.33916" lon="-0.61819">
        <ele>36.22131</ele>
        <time>2022-08-04T13:23:38.000Z</time>
      </trkpt>
      <trkpt lat="49.33916" lon="-0.61816">
        <ele>36.434778</ele>
        <time>2022-08-04T13:23:39.000Z</time>
      </trkpt>
      <trkpt lat="49.33915" lon="-0.61813">
        <ele>36.673615</ele>
        <time>2022-08-04T13:23:40.000Z</time>
      </trkpt>
      <trkpt lat="49.33915" lon="-0.6181">
        <ele>36.905744</ele>
        <time>2022-08-04T13:23:41.000Z</time>
      </trkpt>
      <trkpt lat="49.33914" lon="-0.61806">
        <ele>37.141057</ele>
        <time>2022-08-04T13:23:42.000Z</time>
      </trkpt>
      <trkpt lat="49.33913" lon="-0.61804">
        <ele>37.358708</ele>
        <time>2022-08-04T13:23:43.000Z</time>
      </trkpt>
      <trkpt lat="49.33912" lon="-0.61801">
        <ele>37.580848</ele>
        <time>2022-08-04T13:23:44.000Z</time>
      </trkpt>
      <trkpt lat="49.33911" lon="-0.61798">
        <ele>37.811084</ele>
        <time>2022-08-04T13:23:45.000Z</time>
      </trkpt>
      <trkpt lat="49.33911" lon="-0.61794">
        <ele>38.046397</ele>
        <time>2022-08-04T13:23:46.000Z</time>
      </trkpt>
      <trkpt lat="49.3391" lon="-0.61791">
        <ele>38.265163</ele>
        <time>2022-08-04T13:23:47.000Z</time>
      </trkpt>
      <trkpt lat="49.33909" lon="-0.61788">
        <ele>38.518873</ele>
        <time>2022-08-04T13:23:48.000Z</time>
      </trkpt>
      <trkpt lat="49.33909" lon="-0.61785">
        <ele>38.751149</ele>
        <time>2022-08-04T13:23:49.000Z</time>
      </trkpt>
      <trkpt lat="49.33909" lon="-0.61781">
        <ele>38.99514</ele>
        <time>2022-08-04T13:23:50.000Z</time>
      </trkpt>
      <trkpt lat="49.33909" lon="-0.61778">
        <ele>39.255062</ele>
        <time>2022-08-04T13:23:51.000Z</time>
      </trkpt>
      <trkpt lat="49.33909" lon="-0.61775">
        <ele>39.466646</ele>
        <time>2022-08-04T13:23:52.000Z</time>
      </trkpt>
      <trkpt lat="49.33909" lon="-0.6177">
        <ele>39.768119</ele>
        <time>2022-08-04T13:23:53.000Z</time>
      </trkpt>
      <trkpt lat="49.33907" lon="-0.61767">
        <ele>40.042934</ele>
        <time>2022-08-04T13:23:54.000Z</time>
      </trkpt>
      <trkpt lat="49.33907" lon="-0.61764">
        <ele>40.153558</ele>
        <time>2022-08-04T13:23:55.000Z</time>
      </trkpt>
      <trkpt lat="49.33907" lon="-0.6176">
        <ele>40.26561</ele>
        <time>2022-08-04T13:23:56.000Z</time>
      </trkpt>
      <trkpt lat="49.33907" lon="-0.61756">
        <ele>40.373799</ele>
        <time>2022-08-04T13:23:57.000Z</time>
      </trkpt>
      <trkpt lat="49.33907" lon="-0.61753">
        <ele>40.484993</ele>
        <time>2022-08-04T13:23:58.000Z</time>
      </trkpt>
      <trkpt lat="49.33907" lon="-0.61749">
        <ele>40.599192</ele>
        <time>2022-08-04T13:23:59.000Z</time>
      </trkpt>
      <trkpt lat="49.33907" lon="-0.61745">
        <ele>40.704376</ele>
        <time>2022-08-04T13:24:00.000Z</time>
      </trkpt>
      <trkpt lat="49.33906" lon="-0.61742">
        <ele>40.802297</ele>
        <time>2022-08-04T13:24:01.000Z</time>
      </trkpt>
      <trkpt lat="49.33906" lon="-0.61739">
        <ele>40.892455</ele>
        <time>2022-08-04T13:24:02.000Z</time>
      </trkpt>
      <trkpt lat="49.33906" lon="-0.61736">
        <ele>40.988622</ele>
        <time>2022-08-04T13:24:03.000Z</time>
      </trkpt>
      <trkpt lat="49.33906" lon="-0.61733">
        <ele>41.073899</ele>
        <time>2022-08-04T13:24:04.000Z</time>
      </trkpt>
      <trkpt lat="49.33906" lon="-0.61729">
        <ele>41.203125</ele>
        <time>2022-08-04T13:24:06.000Z</time>
      </trkpt>
      <trkpt lat="49.33906" lon="-0.61725">
        <ele>41.329345</ele>
        <time>2022-08-04T13:24:08.000Z</time>
      </trkpt>
      <trkpt lat="49.33905" lon="-0.61715">
        <ele>41.635793</ele>
        <time>2022-08-04T13:24:41.000Z</time>
      </trkpt>
      <trkpt lat="49.33905" lon="-0.6171">
        <ele>41.771029</ele>
        <time>2022-08-04T13:24:42.000Z</time>
      </trkpt>
      <trkpt lat="49.33905" lon="-0.61706">
        <ele>41.906265</ele>
        <time>2022-08-04T13:24:43.000Z</time>
      </trkpt>
      <trkpt lat="49.33904" lon="-0.61701">
        <ele>42.042207</ele>
        <time>2022-08-04T13:24:44.000Z</time>
      </trkpt>
      <trkpt lat="49.33904" lon="-0.61696">
        <ele>42.18413</ele>
        <time>2022-08-04T13:24:45.000Z</time>
      </trkpt>
      <trkpt lat="49.33903" lon="-0.61692">
        <ele>42.325114</ele>
        <time>2022-08-04T13:24:46.000Z</time>
      </trkpt>
      <trkpt lat="49.33903" lon="-0.61687">
        <ele>42.481387</ele>
        <time>2022-08-04T13:24:47.000Z</time>
      </trkpt>
      <trkpt lat="49.33903" lon="-0.61681">
        <ele>42.637659</ele>
        <time>2022-08-04T13:24:48.000Z</time>
      </trkpt>
      <trkpt lat="49.33903" lon="-0.61677">
        <ele>42.783086</ele>
        <time>2022-08-04T13:24:49.000Z</time>
      </trkpt>
      <trkpt lat="49.33903" lon="-0.61672">
        <ele>42.919028</ele>
        <time>2022-08-04T13:24:50.000Z</time>
      </trkpt>
      <trkpt lat="49.33903" lon="-0.61668">
        <ele>43.054264</ele>
        <time>2022-08-04T13:24:51.000Z</time>
      </trkpt>
      <trkpt lat="49.33902" lon="-0.61664">
        <ele>43.175268</ele>
        <time>2022-08-04T13:24:52.000Z</time>
      </trkpt>
      <trkpt lat="49.33902" lon="-0.6166">
        <ele>43.289467</ele>
        <time>2022-08-04T13:24:53.000Z</time>
      </trkpt>
      <trkpt lat="49.33902" lon="-0.61656">
        <ele>43.395557</ele>
        <time>2022-08-04T13:24:54.000Z</time>
      </trkpt>
      <trkpt lat="49.33902" lon="-0.61653">
        <ele>43.497736</ele>
        <time>2022-08-04T13:24:55.000Z</time>
      </trkpt>
      <trkpt lat="49.33902" lon="-0.6165">
        <ele>43.588949</ele>
        <time>2022-08-04T13:24:56.000Z</time>
      </trkpt>
      <trkpt lat="49.33903" lon="-0.61647">
        <ele>43.683133</ele>
        <time>2022-08-04T13:24:57.000Z</time>
      </trkpt>
      <trkpt lat="49.33903" lon="-0.61643">
        <ele>43.786244</ele>
        <time>2022-08-04T13:24:58.000Z</time>
      </trkpt>
      <trkpt lat="49.33904" lon="-0.6164">
        <ele>43.901096</ele>
        <time>2022-08-04T13:24:59.000Z</time>
      </trkpt>
      <trkpt lat="49.33905" lon="-0.61636">
        <ele>44.02445</ele>
        <time>2022-08-04T13:25:00.000Z</time>
      </trkpt>
      <trkpt lat="49.33905" lon="-0.61632">
        <ele>44.151825</ele>
        <time>2022-08-04T13:25:01.000Z</time>
      </trkpt>
      <trkpt lat="49.33906" lon="-0.61627">
        <ele>44.290418</ele>
        <time>2022-08-04T13:25:02.000Z</time>
      </trkpt>
      <trkpt lat="49.33907" lon="-0.61623">
        <ele>44.429454</ele>
        <time>2022-08-04T13:25:03.000Z</time>
      </trkpt>
      <trkpt lat="49.33907" lon="-0.61618">
        <ele>44.568386</ele>
        <time>2022-08-04T13:25:04.000Z</time>
      </trkpt>
      <trkpt lat="49.33908" lon="-0.61614">
        <ele>44.716972</ele>
        <time>2022-08-04T13:25:05.000Z</time>
      </trkpt>
      <trkpt lat="49.33909" lon="-0.61609">
        <ele>44.858895</ele>
        <time>2022-08-04T13:25:06.000Z</time>
      </trkpt>
      <trkpt lat="49.33909" lon="-0.61604">
        <ele>44.997827</ele>
        <time>2022-08-04T13:25:07.000Z</time>
      </trkpt>
      <trkpt lat="49.33909" lon="-0.616">
        <ele>45.133769</ele>
        <time>2022-08-04T13:25:08.000Z</time>
      </trkpt>
      <trkpt lat="49.3391" lon="-0.61595">
        <ele>45.272805</ele>
        <time>2022-08-04T13:25:09.000Z</time>
      </trkpt>
      <trkpt lat="49.3391" lon="-0.61591">
        <ele>45.405758</ele>
        <time>2022-08-04T13:25:10.000Z</time>
      </trkpt>
      <trkpt lat="49.3391" lon="-0.61587">
        <ele>45.528973</ele>
        <time>2022-08-04T13:25:11.000Z</time>
      </trkpt>
      <trkpt lat="49.3391" lon="-0.61583">
        <ele>45.655193</ele>
        <time>2022-08-04T13:25:12.000Z</time>
      </trkpt>
      <trkpt lat="49.3391" lon="-0.61578">
        <ele>45.784419</ele>
        <time>2022-08-04T13:25:13.000Z</time>
      </trkpt>
      <trkpt lat="49.33909" lon="-0.61574">
        <ele>45.924462</ele>
        <time>2022-08-04T13:25:14.000Z</time>
      </trkpt>
      <trkpt lat="49.33909" lon="-0.6157">
        <ele>46.047677</ele>
        <time>2022-08-04T13:25:15.000Z</time>
      </trkpt>
      <trkpt lat="49.33909" lon="-0.61566">
        <ele>46.167887</ele>
        <time>2022-08-04T13:25:16.000Z</time>
      </trkpt>
      <trkpt lat="49.33909" lon="-0.61562">
        <ele>46.270998</ele>
        <time>2022-08-04T13:25:17.000Z</time>
      </trkpt>
      <trkpt lat="49.33909" lon="-0.61558">
        <ele>46.394213</ele>
        <time>2022-08-04T13:25:18.000Z</time>
      </trkpt>
      <trkpt lat="49.33909" lon="-0.61553">
        <ele>46.54147</ele>
        <time>2022-08-04T13:25:19.000Z</time>
      </trkpt>
      <trkpt lat="49.33909" lon="-0.6155">
        <ele>46.64756</ele>
        <time>2022-08-04T13:25:20.000Z</time>
      </trkpt>
      <trkpt lat="49.3391" lon="-0.61547">
        <ele>46.751514</ele>
        <time>2022-08-04T13:25:21.000Z</time>
      </trkpt>
      <trkpt lat="49.33911" lon="-0.61544">
        <ele>46.850768</ele>
        <time>2022-08-04T13:25:22.000Z</time>
      </trkpt>
      <trkpt lat="49.33911" lon="-0.61541">
        <ele>46.939852</ele>
        <time>2022-08-04T13:25:23.000Z</time>
      </trkpt>
      <trkpt lat="49.33911" lon="-0.61536">
        <ele>47.07634</ele>
        <time>2022-08-04T13:25:25.000Z</time>
      </trkpt>
      <trkpt lat="49.33911" lon="-0.61532">
        <ele>47.206304</ele>
        <time>2022-08-04T13:25:27.000Z</time>
      </trkpt>
      <trkpt lat="49.33911" lon="-0.61527">
        <ele>47.351218</ele>
        <time>2022-08-04T13:25:29.000Z</time>
      </trkpt>
      <trkpt lat="49.33911" lon="-0.61521">
        <ele>47.547428</ele>
        <time>2022-08-04T13:25:31.000Z</time>
      </trkpt>
      <trkpt lat="49.33911" lon="-0.61517">
        <ele>47.654217</ele>
        <time>2022-08-04T13:25:32.000Z</time>
      </trkpt>
      <trkpt lat="49.3391" lon="-0.61514">
        <ele>47.76298</ele>
        <time>2022-08-04T13:25:33.000Z</time>
      </trkpt>
      <trkpt lat="49.3391" lon="-0.6151">
        <ele>47.866091</ele>
        <time>2022-08-04T13:25:34.000Z</time>
      </trkpt>
      <trkpt lat="49.33909" lon="-0.61508">
        <ele>47.969415</ele>
        <time>2022-08-04T13:25:35.000Z</time>
      </trkpt>
      <trkpt lat="49.33907" lon="-0.61502">
        <ele>48.142235</ele>
        <time>2022-08-04T13:25:37.000Z</time>
      </trkpt>
      <trkpt lat="49.33906" lon="-0.61498">
        <ele>48.27099</ele>
        <time>2022-08-04T13:25:39.000Z</time>
      </trkpt>
      <trkpt lat="49.33905" lon="-0.61496">
        <ele>48.354713</ele>
        <time>2022-08-04T13:25:41.000Z</time>
      </trkpt>
      <trkpt lat="49.33903" lon="-0.61485">
        <ele>48.268876</ele>
        <time>2022-08-04T13:26:13.000Z</time>
      </trkpt>
      <trkpt lat="49.33903" lon="-0.6148">
        <ele>48.230061</ele>
        <time>2022-08-04T13:26:14.000Z</time>
      </trkpt>
      <trkpt lat="49.33902" lon="-0.61475">
        <ele>48.190031</ele>
        <time>2022-08-04T13:26:15.000Z</time>
      </trkpt>
      <trkpt lat="49.33902" lon="-0.6147">
        <ele>48.15213</ele>
        <time>2022-08-04T13:26:16.000Z</time>
      </trkpt>
      <trkpt lat="49.33901" lon="-0.61465">
        <ele>48.114846</ele>
        <time>2022-08-04T13:26:17.000Z</time>
      </trkpt>
      <trkpt lat="49.33901" lon="-0.6146">
        <ele>48.079049</ele>
        <time>2022-08-04T13:26:18.000Z</time>
      </trkpt>
      <trkpt lat="49.33901" lon="-0.61455">
        <ele>48.043252</ele>
        <time>2022-08-04T13:26:19.000Z</time>
      </trkpt>
      <trkpt lat="49.33901" lon="-0.6145">
        <ele>48.003077</ele>
        <time>2022-08-04T13:26:20.000Z</time>
      </trkpt>
      <trkpt lat="49.33901" lon="-0.61446">
        <ele>47.968789</ele>
        <time>2022-08-04T13:26:21.000Z</time>
      </trkpt>
      <trkpt lat="49.339" lon="-0.61441">
        <ele>47.932237</ele>
        <time>2022-08-04T13:26:22.000Z</time>
      </trkpt>
      <trkpt lat="49.339" lon="-0.61436">
        <ele>47.894052</ele>
        <time>2022-08-04T13:26:23.000Z</time>
      </trkpt>
      <trkpt lat="49.33899" lon="-0.61431">
        <ele>47.853269</ele>
        <time>2022-08-04T13:26:24.000Z</time>
      </trkpt>
      <trkpt lat="49.33899" lon="-0.61425">
        <ele>47.813698</ele>
        <time>2022-08-04T13:26:25.000Z</time>
      </trkpt>
      <trkpt lat="49.33898" lon="-0.6142">
        <ele>47.77476</ele>
        <time>2022-08-04T13:26:26.000Z</time>
      </trkpt>
      <trkpt lat="49.33897" lon="-0.61415">
        <ele>47.73251</ele>
        <time>2022-08-04T13:26:27.000Z</time>
      </trkpt>
      <trkpt lat="49.33897" lon="-0.61409">
        <ele>47.686896</ele>
        <time>2022-08-04T13:26:28.000Z</time>
      </trkpt>
      <trkpt lat="49.33897" lon="-0.61403">
        <ele>47.640423</ele>
        <time>2022-08-04T13:26:29.000Z</time>
      </trkpt>
      <trkpt lat="49.33896" lon="-0.61397">
        <ele>47.593297</ele>
        <time>2022-08-04T13:26:30.000Z</time>
      </trkpt>
      <trkpt lat="49.33895" lon="-0.6139">
        <ele>47.544408</ele>
        <time>2022-08-04T13:26:31.000Z</time>
      </trkpt>
      <trkpt lat="49.33895" lon="-0.61384">
        <ele>47.495673</ele>
        <time>2022-08-04T13:26:32.000Z</time>
      </trkpt>
      <trkpt lat="49.33895" lon="-0.61377">
        <ele>47.446402</ele>
        <time>2022-08-04T13:26:33.000Z</time>
      </trkpt>
      <trkpt lat="49.33895" lon="-0.61371">
        <ele>47.394857</ele>
        <time>2022-08-04T13:26:34.000Z</time>
      </trkpt>
      <trkpt lat="49.33895" lon="-0.61364">
        <ele>47.345587</ele>
        <time>2022-08-04T13:26:35.000Z</time>
      </trkpt>
      <trkpt lat="49.33895" lon="-0.61358">
        <ele>47.296192</ele>
        <time>2022-08-04T13:26:36.000Z</time>
      </trkpt>
      <trkpt lat="49.33894" lon="-0.61351">
        <ele>47.24831</ele>
        <time>2022-08-04T13:26:37.000Z</time>
      </trkpt>
      <trkpt lat="49.33894" lon="-0.61345">
        <ele>47.203452</ele>
        <time>2022-08-04T13:26:38.000Z</time>
      </trkpt>
      <trkpt lat="49.33893" lon="-0.6134">
        <ele>47.160973</ele>
        <time>2022-08-04T13:26:39.000Z</time>
      </trkpt>
      <trkpt lat="49.33893" lon="-0.61334">
        <ele>47.118702</ele>
        <time>2022-08-04T13:26:40.000Z</time>
      </trkpt>
      <trkpt lat="49.33892" lon="-0.61329">
        <ele>47.077896</ele>
        <time>2022-08-04T13:26:41.000Z</time>
      </trkpt>
      <trkpt lat="49.33891" lon="-0.61324">
        <ele>47.038576</ele>
        <time>2022-08-04T13:26:42.000Z</time>
      </trkpt>
      <trkpt lat="49.3389" lon="-0.6132">
        <ele>47.004149</ele>
        <time>2022-08-04T13:26:43.000Z</time>
      </trkpt>
      <trkpt lat="49.3389" lon="-0.61316">
        <ele>46.976638</ele>
        <time>2022-08-04T13:26:44.000Z</time>
      </trkpt>
      <trkpt lat="49.33889" lon="-0.61313">
        <ele>46.951398</ele>
        <time>2022-08-04T13:26:45.000Z</time>
      </trkpt>
      <trkpt lat="49.33889" lon="-0.61308">
        <ele>46.913337</ele>
        <time>2022-08-04T13:26:47.000Z</time>
      </trkpt>
      <trkpt lat="49.33889" lon="-0.61303">
        <ele>46.871387</ele>
        <time>2022-08-04T13:26:49.000Z</time>
      </trkpt>
      <trkpt lat="49.33889" lon="-0.61299">
        <ele>46.843341</ele>
        <time>2022-08-04T13:26:50.000Z</time>
      </trkpt>
      <trkpt lat="49.33888" lon="-0.61294">
        <ele>46.809052</ele>
        <time>2022-08-04T13:26:51.000Z</time>
      </trkpt>
      <trkpt lat="49.33888" lon="-0.61289">
        <ele>46.770236</ele>
        <time>2022-08-04T13:26:52.000Z</time>
      </trkpt>
      <trkpt lat="49.33887" lon="-0.61284">
        <ele>46.727965</ele>
        <time>2022-08-04T13:26:53.000Z</time>
      </trkpt>
      <trkpt lat="49.33887" lon="-0.61278">
        <ele>46.684759</ele>
        <time>2022-08-04T13:26:54.000Z</time>
      </trkpt>
      <trkpt lat="49.33887" lon="-0.61272">
        <ele>46.63904</ele>
        <time>2022-08-04T13:26:55.000Z</time>
      </trkpt>
      <trkpt lat="49.33887" lon="-0.61266">
        <ele>46.591914</ele>
        <time>2022-08-04T13:26:56.000Z</time>
      </trkpt>
      <trkpt lat="49.33886" lon="-0.6126">
        <ele>46.545544</ele>
        <time>2022-08-04T13:26:57.000Z</time>
      </trkpt>
      <trkpt lat="49.33885" lon="-0.61254">
        <ele>46.498599</ele>
        <time>2022-08-04T13:26:58.000Z</time>
      </trkpt>
      <trkpt lat="49.33885" lon="-0.61248">
        <ele>46.452984</ele>
        <time>2022-08-04T13:26:59.000Z</time>
      </trkpt>
      <trkpt lat="49.33885" lon="-0.61242">
        <ele>46.406971</ele>
        <time>2022-08-04T13:27:00.000Z</time>
      </trkpt>
      <trkpt lat="49.33884" lon="-0.61236">
        <ele>46.362112</ele>
        <time>2022-08-04T13:27:01.000Z</time>
      </trkpt>
      <trkpt lat="49.33884" lon="-0.6123">
        <ele>46.315908</ele>
        <time>2022-08-04T13:27:02.000Z</time>
      </trkpt>
      <trkpt lat="49.33883" lon="-0.61224">
        <ele>46.271805</ele>
        <time>2022-08-04T13:27:03.000Z</time>
      </trkpt>
      <trkpt lat="49.33883" lon="-0.61218">
        <ele>46.178279</ele>
        <time>2022-08-04T13:27:04.000Z</time>
      </trkpt>
      <trkpt lat="49.33882" lon="-0.61212">
        <ele>46.076901</ele>
        <time>2022-08-04T13:27:05.000Z</time>
      </trkpt>
      <trkpt lat="49.33882" lon="-0.61205">
        <ele>45.970514</ele>
        <time>2022-08-04T13:27:06.000Z</time>
      </trkpt>
      <trkpt lat="49.33882" lon="-0.61199">
        <ele>45.863064</ele>
        <time>2022-08-04T13:27:07.000Z</time>
      </trkpt>
      <trkpt lat="49.33881" lon="-0.61192">
        <ele>45.756409</ele>
        <time>2022-08-04T13:27:08.000Z</time>
      </trkpt>
      <trkpt lat="49.33881" lon="-0.61186">
        <ele>45.654653</ele>
        <time>2022-08-04T13:27:09.000Z</time>
      </trkpt>
      <trkpt lat="49.33881" lon="-0.6118">
        <ele>45.55105</ele>
        <time>2022-08-04T13:27:10.000Z</time>
      </trkpt>
      <trkpt lat="49.3388" lon="-0.61174">
        <ele>45.449293</ele>
        <time>2022-08-04T13:27:11.000Z</time>
      </trkpt>
      <trkpt lat="49.3388" lon="-0.61167">
        <ele>45.347536</ele>
        <time>2022-08-04T13:27:12.000Z</time>
      </trkpt>
      <trkpt lat="49.3388" lon="-0.61161">
        <ele>45.244422</ele>
        <time>2022-08-04T13:27:13.000Z</time>
      </trkpt>
      <trkpt lat="49.3388" lon="-0.61155">
        <ele>45.142944</ele>
        <time>2022-08-04T13:27:14.000Z</time>
      </trkpt>
      <trkpt lat="49.3388" lon="-0.61149">
        <ele>45.04474</ele>
        <time>2022-08-04T13:27:15.000Z</time>
      </trkpt>
      <trkpt lat="49.3388" lon="-0.61143">
        <ele>44.94981</ele>
        <time>2022-08-04T13:27:16.000Z</time>
      </trkpt>
      <trkpt lat="49.3388" lon="-0.61137">
        <ele>44.854879</ele>
        <time>2022-08-04T13:27:17.000Z</time>
      </trkpt>
      <trkpt lat="49.3388" lon="-0.61132">
        <ele>44.764859</ele>
        <time>2022-08-04T13:27:18.000Z</time>
      </trkpt>
      <trkpt lat="49.3388" lon="-0.61126">
        <ele>44.676475</ele>
        <time>2022-08-04T13:27:19.000Z</time>
      </trkpt>
      <trkpt lat="49.3388" lon="-0.61121">
        <ele>44.593001</ele>
        <time>2022-08-04T13:27:20.000Z</time>
      </trkpt>
      <trkpt lat="49.3388" lon="-0.61116">
        <ele>44.510818</ele>
        <time>2022-08-04T13:27:21.000Z</time>
      </trkpt>
      <trkpt lat="49.3388" lon="-0.61111">
        <ele>44.428982</ele>
        <time>2022-08-04T13:27:22.000Z</time>
      </trkpt>
      <trkpt lat="49.3388" lon="-0.61106">
        <ele>44.347145</ele>
        <time>2022-08-04T13:27:23.000Z</time>
      </trkpt>
      <trkpt lat="49.3388" lon="-0.61101">
        <ele>44.265308</ele>
        <time>2022-08-04T13:27:24.000Z</time>
      </trkpt>
      <trkpt lat="49.33881" lon="-0.61096">
        <ele>44.183125</ele>
        <time>2022-08-04T13:27:25.000Z</time>
      </trkpt>
      <trkpt lat="49.33881" lon="-0.61091">
        <ele>44.101289</ele>
        <time>2022-08-04T13:27:26.000Z</time>
      </trkpt>
      <trkpt lat="49.33881" lon="-0.61086">
        <ele>44.012336</ele>
        <time>2022-08-04T13:27:27.000Z</time>
      </trkpt>
      <trkpt lat="49.33881" lon="-0.61081">
        <ele>43.928862</ele>
        <time>2022-08-04T13:27:28.000Z</time>
      </trkpt>
      <trkpt lat="49.33881" lon="-0.61075">
        <ele>43.840158</ele>
        <time>2022-08-04T13:27:29.000Z</time>
      </trkpt>
      <trkpt lat="49.33882" lon="-0.6107">
        <ele>43.757975</ele>
        <time>2022-08-04T13:27:30.000Z</time>
      </trkpt>
      <trkpt lat="49.33882" lon="-0.61065">
        <ele>43.669929</ele>
        <time>2022-08-04T13:27:31.000Z</time>
      </trkpt>
      <trkpt lat="49.33882" lon="-0.61059">
        <ele>43.576635</ele>
        <time>2022-08-04T13:27:32.000Z</time>
      </trkpt>
      <trkpt lat="49.33883" lon="-0.61054">
        <ele>43.486055</ele>
        <time>2022-08-04T13:27:33.000Z</time>
      </trkpt>
      <trkpt lat="49.33883" lon="-0.61048">
        <ele>43.39572</ele>
        <time>2022-08-04T13:27:34.000Z</time>
      </trkpt>
      <trkpt lat="49.33883" lon="-0.61043">
        <ele>43.303754</ele>
        <time>2022-08-04T13:27:35.000Z</time>
      </trkpt>
      <trkpt lat="49.33884" lon="-0.61037">
        <ele>43.210156</ele>
        <time>2022-08-04T13:27:36.000Z</time>
      </trkpt>
      <trkpt lat="49.33884" lon="-0.61031">
        <ele>43.113611</ele>
        <time>2022-08-04T13:27:37.000Z</time>
      </trkpt>
      <trkpt lat="49.33885" lon="-0.61025">
        <ele>43.01102</ele>
        <time>2022-08-04T13:27:38.000Z</time>
      </trkpt>
      <trkpt lat="49.33885" lon="-0.61019">
        <ele>42.915791</ele>
        <time>2022-08-04T13:27:39.000Z</time>
      </trkpt>
      <trkpt lat="49.33885" lon="-0.61014">
        <ele>42.830348</ele>
        <time>2022-08-04T13:27:40.000Z</time>
      </trkpt>
      <trkpt lat="49.33886" lon="-0.61009">
        <ele>42.740038</ele>
        <time>2022-08-04T13:27:41.000Z</time>
      </trkpt>
      <trkpt lat="49.33886" lon="-0.61003">
        <ele>42.651654</ele>
        <time>2022-08-04T13:27:42.000Z</time>
      </trkpt>
      <trkpt lat="49.33887" lon="-0.60998">
        <ele>42.555535</ele>
        <time>2022-08-04T13:27:43.000Z</time>
      </trkpt>
      <trkpt lat="49.33888" lon="-0.60992">
        <ele>42.457337</ele>
        <time>2022-08-04T13:27:44.000Z</time>
      </trkpt>
      <trkpt lat="49.33889" lon="-0.60986">
        <ele>42.354747</ele>
        <time>2022-08-04T13:27:45.000Z</time>
      </trkpt>
      <trkpt lat="49.33889" lon="-0.60979">
        <ele>42.247886</ele>
        <time>2022-08-04T13:27:46.000Z</time>
      </trkpt>
      <trkpt lat="49.33889" lon="-0.60972">
        <ele>42.136333</ele>
        <time>2022-08-04T13:27:47.000Z</time>
      </trkpt>
      <trkpt lat="49.3389" lon="-0.60967">
        <ele>42.040339</ele>
        <time>2022-08-04T13:27:48.000Z</time>
      </trkpt>
      <trkpt lat="49.33891" lon="-0.60958">
        <ele>41.904119</ele>
        <time>2022-08-04T13:27:49.000Z</time>
      </trkpt>
      <trkpt lat="49.33891" lon="-0.60951">
        <ele>41.782767</ele>
        <time>2022-08-04T13:27:50.000Z</time>
      </trkpt>
      <trkpt lat="49.33892" lon="-0.60944">
        <ele>41.551193</ele>
        <time>2022-08-04T13:27:51.000Z</time>
      </trkpt>
      <trkpt lat="49.33892" lon="-0.60937">
        <ele>41.263891</ele>
        <time>2022-08-04T13:27:52.000Z</time>
      </trkpt>
      <trkpt lat="49.33893" lon="-0.60929">
        <ele>40.979154</ele>
        <time>2022-08-04T13:27:53.000Z</time>
      </trkpt>
      <trkpt lat="49.33893" lon="-0.60922">
        <ele>40.702294</ele>
        <time>2022-08-04T13:27:54.000Z</time>
      </trkpt>
      <trkpt lat="49.33893" lon="-0.60916">
        <ele>40.441184</ele>
        <time>2022-08-04T13:27:55.000Z</time>
      </trkpt>
      <trkpt lat="49.33894" lon="-0.60909">
        <ele>40.162213</ele>
        <time>2022-08-04T13:27:56.000Z</time>
      </trkpt>
      <trkpt lat="49.33894" lon="-0.60902">
        <ele>39.905041</ele>
        <time>2022-08-04T13:27:57.000Z</time>
      </trkpt>
      <trkpt lat="49.33895" lon="-0.60896">
        <ele>39.663613</ele>
        <time>2022-08-04T13:27:58.000Z</time>
      </trkpt>
      <trkpt lat="49.33895" lon="-0.6089">
        <ele>39.42612</ele>
        <time>2022-08-04T13:27:59.000Z</time>
      </trkpt>
      <trkpt lat="49.33895" lon="-0.60885">
        <ele>39.207708</ele>
        <time>2022-08-04T13:28:00.000Z</time>
      </trkpt>
      <trkpt lat="49.33896" lon="-0.60879">
        <ele>38.987623</ele>
        <time>2022-08-04T13:28:01.000Z</time>
      </trkpt>
      <trkpt lat="49.33896" lon="-0.60874">
        <ele>38.761934</ele>
        <time>2022-08-04T13:28:02.000Z</time>
      </trkpt>
      <trkpt lat="49.33897" lon="-0.60868">
        <ele>38.53231</ele>
        <time>2022-08-04T13:28:03.000Z</time>
      </trkpt>
      <trkpt lat="49.33897" lon="-0.60862">
        <ele>38.295514</ele>
        <time>2022-08-04T13:28:04.000Z</time>
      </trkpt>
      <trkpt lat="49.33897" lon="-0.60856">
        <ele>38.077102</ele>
        <time>2022-08-04T13:28:05.000Z</time>
      </trkpt>
      <trkpt lat="49.33897" lon="-0.6085">
        <ele>37.843544</ele>
        <time>2022-08-04T13:28:06.000Z</time>
      </trkpt>
      <trkpt lat="49.33898" lon="-0.60844">
        <ele>37.603975</ele>
        <time>2022-08-04T13:28:07.000Z</time>
      </trkpt>
      <trkpt lat="49.33898" lon="-0.60838">
        <ele>37.347445</ele>
        <time>2022-08-04T13:28:08.000Z</time>
      </trkpt>
      <trkpt lat="49.33898" lon="-0.60831">
        <ele>37.078461</ele>
        <time>2022-08-04T13:28:09.000Z</time>
      </trkpt>
      <trkpt lat="49.33898" lon="-0.60826">
        <ele>36.872435</ele>
        <time>2022-08-04T13:28:10.000Z</time>
      </trkpt>
      <trkpt lat="49.33898" lon="-0.60819">
        <ele>36.611959</ele>
        <time>2022-08-04T13:28:11.000Z</time>
      </trkpt>
      <trkpt lat="49.33898" lon="-0.60811">
        <ele>36.29623</ele>
        <time>2022-08-04T13:28:12.000Z</time>
      </trkpt>
      <trkpt lat="49.33897" lon="-0.60804">
        <ele>36.017587</ele>
        <time>2022-08-04T13:28:13.000Z</time>
      </trkpt>
      <trkpt lat="49.33897" lon="-0.60797">
        <ele>35.725538</ele>
        <time>2022-08-04T13:28:14.000Z</time>
      </trkpt>
      <trkpt lat="49.33897" lon="-0.60791">
        <ele>35.495914</ele>
        <time>2022-08-04T13:28:15.000Z</time>
      </trkpt>
      <trkpt lat="49.33897" lon="-0.60782">
        <ele>35.151705</ele>
        <time>2022-08-04T13:28:16.000Z</time>
      </trkpt>
      <trkpt lat="49.33896" lon="-0.60776">
        <ele>34.880886</ele>
        <time>2022-08-04T13:28:17.000Z</time>
      </trkpt>
      <trkpt lat="49.33895" lon="-0.60768">
        <ele>34.594416</ele>
        <time>2022-08-04T13:28:18.000Z</time>
      </trkpt>
      <trkpt lat="49.33895" lon="-0.60761">
        <ele>34.311017</ele>
        <time>2022-08-04T13:28:19.000Z</time>
      </trkpt>
      <trkpt lat="49.33894" lon="-0.60754">
        <ele>34.012798</ele>
        <time>2022-08-04T13:28:20.000Z</time>
      </trkpt>
      <trkpt lat="49.33893" lon="-0.60746">
        <ele>33.706508</ele>
        <time>2022-08-04T13:28:21.000Z</time>
      </trkpt>
      <trkpt lat="49.33892" lon="-0.60738">
        <ele>33.384936</ele>
        <time>2022-08-04T13:28:22.000Z</time>
      </trkpt>
      <trkpt lat="49.33891" lon="-0.60731">
        <ele>33.072311</ele>
        <time>2022-08-04T13:28:23.000Z</time>
      </trkpt>
      <trkpt lat="49.33889" lon="-0.60723">
        <ele>32.742043</ele>
        <time>2022-08-04T13:28:24.000Z</time>
      </trkpt>
      <trkpt lat="49.33887" lon="-0.60714">
        <ele>32.404221</ele>
        <time>2022-08-04T13:28:25.000Z</time>
      </trkpt>
      <trkpt lat="49.33886" lon="-0.60706">
        <ele>32.067321</ele>
        <time>2022-08-04T13:28:26.000Z</time>
      </trkpt>
      <trkpt lat="49.33884" lon="-0.60697">
        <ele>31.693947</ele>
        <time>2022-08-04T13:28:27.000Z</time>
      </trkpt>
      <trkpt lat="49.33881" lon="-0.60688">
        <ele>31.290602</ele>
        <time>2022-08-04T13:28:28.000Z</time>
      </trkpt>
      <trkpt lat="49.33879" lon="-0.60679">
        <ele>30.909064</ele>
        <time>2022-08-04T13:28:29.000Z</time>
      </trkpt>
      <trkpt lat="49.33877" lon="-0.6067">
        <ele>30.398568</ele>
        <time>2022-08-04T13:28:30.000Z</time>
      </trkpt>
      <trkpt lat="49.33874" lon="-0.60661">
        <ele>29.840415</ele>
        <time>2022-08-04T13:28:31.000Z</time>
      </trkpt>
      <trkpt lat="49.33871" lon="-0.60652">
        <ele>29.257217</ele>
        <time>2022-08-04T13:28:32.000Z</time>
      </trkpt>
      <trkpt lat="49.33867" lon="-0.60642">
        <ele>28.626184</ele>
        <time>2022-08-04T13:28:33.000Z</time>
      </trkpt>
      <trkpt lat="49.33864" lon="-0.60631">
        <ele>27.985335</ele>
        <time>2022-08-04T13:28:34.000Z</time>
      </trkpt>
      <trkpt lat="49.33861" lon="-0.60621">
        <ele>27.340937</ele>
        <time>2022-08-04T13:28:35.000Z</time>
      </trkpt>
      <trkpt lat="49.33857" lon="-0.6061">
        <ele>26.654517</ele>
        <time>2022-08-04T13:28:36.000Z</time>
      </trkpt>
      <trkpt lat="49.33853" lon="-0.60599">
        <ele>25.962388</ele>
        <time>2022-08-04T13:28:37.000Z</time>
      </trkpt>
      <trkpt lat="49.33849" lon="-0.60588">
        <ele>25.256789</ele>
        <time>2022-08-04T13:28:38.000Z</time>
      </trkpt>
      <trkpt lat="49.33845" lon="-0.60576">
        <ele>24.536084</ele>
        <time>2022-08-04T13:28:39.000Z</time>
      </trkpt>
      <trkpt lat="49.33842" lon="-0.60565">
        <ele>23.840929</ele>
        <time>2022-08-04T13:28:40.000Z</time>
      </trkpt>
      <trkpt lat="49.33838" lon="-0.60553">
        <ele>23.114189</ele>
        <time>2022-08-04T13:28:41.000Z</time>
      </trkpt>
      <trkpt lat="49.33835" lon="-0.60541">
        <ele>22.372485</ele>
        <time>2022-08-04T13:28:42.000Z</time>
      </trkpt>
      <trkpt lat="49.33831" lon="-0.60529">
        <ele>21.627012</ele>
        <time>2022-08-04T13:28:43.000Z</time>
      </trkpt>
      <trkpt lat="49.33827" lon="-0.60516">
        <ele>20.860211</ele>
        <time>2022-08-04T13:28:44.000Z</time>
      </trkpt>
      <trkpt lat="49.33823" lon="-0.60504">
        <ele>20.089764</ele>
        <time>2022-08-04T13:28:45.000Z</time>
      </trkpt>
      <trkpt lat="49.3382" lon="-0.60492">
        <ele>19.394606</ele>
        <time>2022-08-04T13:28:46.000Z</time>
      </trkpt>
      <trkpt lat="49.33817" lon="-0.60482">
        <ele>18.77418</ele>
        <time>2022-08-04T13:28:47.000Z</time>
      </trkpt>
      <trkpt lat="49.33814" lon="-0.60473">
        <ele>18.201025</ele>
        <time>2022-08-04T13:28:48.000Z</time>
      </trkpt>
      <trkpt lat="49.33813" lon="-0.60465">
        <ele>17.76231</ele>
        <time>2022-08-04T13:28:49.000Z</time>
      </trkpt>
      <trkpt lat="49.33811" lon="-0.60459">
        <ele>17.389637</ele>
        <time>2022-08-04T13:28:50.000Z</time>
      </trkpt>
      <trkpt lat="49.3381" lon="-0.60454">
        <ele>17.085197</ele>
        <time>2022-08-04T13:28:51.000Z</time>
      </trkpt>
      <trkpt lat="49.3381" lon="-0.6045">
        <ele>16.866884</ele>
        <time>2022-08-04T13:28:52.000Z</time>
      </trkpt>
      <trkpt lat="49.33809" lon="-0.60446">
        <ele>16.660311</ele>
        <time>2022-08-04T13:28:53.000Z</time>
      </trkpt>
      <trkpt lat="49.33809" lon="-0.60443">
        <ele>16.468243</ele>
        <time>2022-08-04T13:28:54.000Z</time>
      </trkpt>
      <trkpt lat="49.33807" lon="-0.60439">
        <ele>16.216728</ele>
        <time>2022-08-04T13:28:56.000Z</time>
      </trkpt>
      <trkpt lat="49.33803" lon="-0.60425">
        <ele>15.394288</ele>
        <time>2022-08-04T13:29:39.000Z</time>
      </trkpt>
      <trkpt lat="49.33801" lon="-0.60417">
        <ele>15.054068</ele>
        <time>2022-08-04T13:29:40.000Z</time>
      </trkpt>
      <trkpt lat="49.33798" lon="-0.60409">
        <ele>14.668136</ele>
        <time>2022-08-04T13:29:41.000Z</time>
      </trkpt>
      <trkpt lat="49.33796" lon="-0.60399">
        <ele>14.245354</ele>
        <time>2022-08-04T13:29:42.000Z</time>
      </trkpt>
      <trkpt lat="49.33794" lon="-0.60388">
        <ele>13.806957</ele>
        <time>2022-08-04T13:29:43.000Z</time>
      </trkpt>
      <trkpt lat="49.33792" lon="-0.60377">
        <ele>13.339926</ele>
        <time>2022-08-04T13:29:44.000Z</time>
      </trkpt>
      <trkpt lat="49.3379" lon="-0.60367">
        <ele>12.897619</ele>
        <time>2022-08-04T13:29:45.000Z</time>
      </trkpt>
      <trkpt lat="49.33788" lon="-0.60357">
        <ele>12.455689</ele>
        <time>2022-08-04T13:29:46.000Z</time>
      </trkpt>
      <trkpt lat="49.33786" lon="-0.60347">
        <ele>12.045626</ele>
        <time>2022-08-04T13:29:47.000Z</time>
      </trkpt>
      <trkpt lat="49.33785" lon="-0.60337">
        <ele>11.639908</ele>
        <time>2022-08-04T13:29:48.000Z</time>
      </trkpt>
      <trkpt lat="49.33783" lon="-0.60327">
        <ele>11.21013</ele>
        <time>2022-08-04T13:29:49.000Z</time>
      </trkpt>
      <trkpt lat="49.33782" lon="-0.60316">
        <ele>10.784298</ele>
        <time>2022-08-04T13:29:50.000Z</time>
      </trkpt>
      <trkpt lat="49.33781" lon="-0.60306">
        <ele>10.345556</ele>
        <time>2022-08-04T13:29:51.000Z</time>
      </trkpt>
      <trkpt lat="49.3378" lon="-0.60295">
        <ele>9.891798</ele>
        <time>2022-08-04T13:29:52.000Z</time>
      </trkpt>
      <trkpt lat="49.33779" lon="-0.60283">
        <ele>9.423535</ele>
        <time>2022-08-04T13:29:53.000Z</time>
      </trkpt>
      <trkpt lat="49.33778" lon="-0.60271">
        <ele>8.944581</ele>
        <time>2022-08-04T13:29:54.000Z</time>
      </trkpt>
      <trkpt lat="49.33778" lon="-0.6026">
        <ele>8.46418</ele>
        <time>2022-08-04T13:29:55.000Z</time>
      </trkpt>
      <trkpt lat="49.33777" lon="-0.60248">
        <ele>7.983779</ele>
        <time>2022-08-04T13:29:56.000Z</time>
      </trkpt>
      <trkpt lat="49.33776" lon="-0.60236">
        <ele>7.492749</ele>
        <time>2022-08-04T13:29:57.000Z</time>
      </trkpt>
      <trkpt lat="49.33776" lon="-0.60224">
        <ele>7.009383</ele>
        <time>2022-08-04T13:29:58.000Z</time>
      </trkpt>
      <trkpt lat="49.33775" lon="-0.60212">
        <ele>6.530073</ele>
        <time>2022-08-04T13:29:59.000Z</time>
      </trkpt>
      <trkpt lat="49.33775" lon="-0.602">
        <ele>6.051128</ele>
        <time>2022-08-04T13:30:00.000Z</time>
      </trkpt>
      <trkpt lat="49.33775" lon="-0.60188">
        <ele>5.568124</ele>
        <time>2022-08-04T13:30:01.000Z</time>
      </trkpt>
      <trkpt lat="49.33775" lon="-0.60177">
        <ele>5.089178</ele>
        <time>2022-08-04T13:30:02.000Z</time>
      </trkpt>
      <trkpt lat="49.33776" lon="-0.60165">
        <ele>4.613924</ele>
        <time>2022-08-04T13:30:03.000Z</time>
      </trkpt>
      <trkpt lat="49.33776" lon="-0.60153">
        <ele>4.26584</ele>
        <time>2022-08-04T13:30:04.000Z</time>
      </trkpt>
      <trkpt lat="49.33777" lon="-0.60142">
        <ele>4.15368</ele>
        <time>2022-08-04T13:30:05.000Z</time>
      </trkpt>
      <trkpt lat="49.33777" lon="-0.60131">
        <ele>4.044349</ele>
        <time>2022-08-04T13:30:06.000Z</time>
      </trkpt>
      <trkpt lat="49.33778" lon="-0.6012">
        <ele>3.937636</ele>
        <time>2022-08-04T13:30:07.000Z</time>
      </trkpt>
      <trkpt lat="49.33779" lon="-0.60109">
        <ele>3.832413</ele>
        <time>2022-08-04T13:30:08.000Z</time>
      </trkpt>
      <trkpt lat="49.3378" lon="-0.60098">
        <ele>3.729554</ele>
        <time>2022-08-04T13:30:09.000Z</time>
      </trkpt>
      <trkpt lat="49.33781" lon="-0.60088">
        <ele>3.627925</ele>
        <time>2022-08-04T13:30:10.000Z</time>
      </trkpt>
      <trkpt lat="49.33782" lon="-0.60078">
        <ele>3.53394</ele>
        <time>2022-08-04T13:30:11.000Z</time>
      </trkpt>
      <trkpt lat="49.33783" lon="-0.60069">
        <ele>3.44039</ele>
        <time>2022-08-04T13:30:12.000Z</time>
      </trkpt>
      <trkpt lat="49.33785" lon="-0.60059">
        <ele>3.346468</ele>
        <time>2022-08-04T13:30:13.000Z</time>
      </trkpt>
      <trkpt lat="49.33786" lon="-0.6005">
        <ele>3.254517</ele>
        <time>2022-08-04T13:30:14.000Z</time>
      </trkpt>
      <trkpt lat="49.33787" lon="-0.60041">
        <ele>3.162565</ele>
        <time>2022-08-04T13:30:15.000Z</time>
      </trkpt>
      <trkpt lat="49.33789" lon="-0.60032">
        <ele>3.072379</ele>
        <time>2022-08-04T13:30:16.000Z</time>
      </trkpt>
      <trkpt lat="49.3379" lon="-0.60023">
        <ele>2.98507</ele>
        <time>2022-08-04T13:30:17.000Z</time>
      </trkpt>
      <trkpt lat="49.33792" lon="-0.60014">
        <ele>2.897283</ele>
        <time>2022-08-04T13:30:18.000Z</time>
      </trkpt>
      <trkpt lat="49.33793" lon="-0.60006">
        <ele>2.81175</ele>
        <time>2022-08-04T13:30:19.000Z</time>
      </trkpt>
      <trkpt lat="49.33795" lon="-0.59997">
        <ele>2.726218</ele>
        <time>2022-08-04T13:30:20.000Z</time>
      </trkpt>
      <trkpt lat="49.33796" lon="-0.59989">
        <ele>2.642754</ele>
        <time>2022-08-04T13:30:21.000Z</time>
      </trkpt>
      <trkpt lat="49.33798" lon="-0.59981">
        <ele>2.557708</ele>
        <time>2022-08-04T13:30:22.000Z</time>
      </trkpt>
      <trkpt lat="49.33801" lon="-0.59972">
        <ele>2.467553</ele>
        <time>2022-08-04T13:30:23.000Z</time>
      </trkpt>
      <trkpt lat="49.33803" lon="-0.59964">
        <ele>2.382909</ele>
        <time>2022-08-04T13:30:24.000Z</time>
      </trkpt>
      <trkpt lat="49.33805" lon="-0.59956">
        <ele>2.299685</ele>
        <time>2022-08-04T13:30:25.000Z</time>
      </trkpt>
      <trkpt lat="49.33807" lon="-0.59948">
        <ele>2.215741</ele>
        <time>2022-08-04T13:30:26.000Z</time>
      </trkpt>
      <trkpt lat="49.33809" lon="-0.5994">
        <ele>2.133426</ele>
        <time>2022-08-04T13:30:27.000Z</time>
      </trkpt>
      <trkpt lat="49.33811" lon="-0.59932">
        <ele>2.048894</ele>
        <time>2022-08-04T13:30:28.000Z</time>
      </trkpt>
      <trkpt lat="49.33813" lon="-0.59924">
        <ele>1.963166</ele>
        <time>2022-08-04T13:30:29.000Z</time>
      </trkpt>
      <trkpt lat="49.33815" lon="-0.59915">
        <ele>1.876862</ele>
        <time>2022-08-04T13:30:30.000Z</time>
      </trkpt>
      <trkpt lat="49.33818" lon="-0.59907">
        <ele>1.790217</ele>
        <time>2022-08-04T13:30:31.000Z</time>
      </trkpt>
      <trkpt lat="49.33821" lon="-0.59899">
        <ele>1.700022</ele>
        <time>2022-08-04T13:30:32.000Z</time>
      </trkpt>
      <trkpt lat="49.33823" lon="-0.59891">
        <ele>1.635791</ele>
        <time>2022-08-04T13:30:33.000Z</time>
      </trkpt>
      <trkpt lat="49.33827" lon="-0.59883">
        <ele>1.641228</ele>
        <time>2022-08-04T13:30:34.000Z</time>
      </trkpt>
      <trkpt lat="49.33829" lon="-0.59875">
        <ele>1.646368</ele>
        <time>2022-08-04T13:30:35.000Z</time>
      </trkpt>
      <trkpt lat="49.33832" lon="-0.59867">
        <ele>1.651546</ele>
        <time>2022-08-04T13:30:36.000Z</time>
      </trkpt>
      <trkpt lat="49.33835" lon="-0.59859">
        <ele>1.656984</ele>
        <time>2022-08-04T13:30:37.000Z</time>
      </trkpt>
      <trkpt lat="49.33838" lon="-0.59851">
        <ele>1.662186</ele>
        <time>2022-08-04T13:30:38.000Z</time>
      </trkpt>
      <trkpt lat="49.33841" lon="-0.59844">
        <ele>1.667624</ele>
        <time>2022-08-04T13:30:39.000Z</time>
      </trkpt>
      <trkpt lat="49.33845" lon="-0.59836">
        <ele>1.672817</ele>
        <time>2022-08-04T13:30:40.000Z</time>
      </trkpt>
      <trkpt lat="49.33848" lon="-0.59829">
        <ele>1.67801</ele>
        <time>2022-08-04T13:30:41.000Z</time>
      </trkpt>
      <trkpt lat="49.33851" lon="-0.59821">
        <ele>1.683203</ele>
        <time>2022-08-04T13:30:42.000Z</time>
      </trkpt>
      <trkpt lat="49.33854" lon="-0.59814">
        <ele>1.688008</ele>
        <time>2022-08-04T13:30:43.000Z</time>
      </trkpt>
      <trkpt lat="49.33857" lon="-0.59807">
        <ele>1.693028</ele>
        <time>2022-08-04T13:30:44.000Z</time>
      </trkpt>
      <trkpt lat="49.33861" lon="-0.598">
        <ele>1.697934</ele>
        <time>2022-08-04T13:30:45.000Z</time>
      </trkpt>
      <trkpt lat="49.33864" lon="-0.59793">
        <ele>1.702887</ele>
        <time>2022-08-04T13:30:46.000Z</time>
      </trkpt>
      <trkpt lat="49.33867" lon="-0.59786">
        <ele>1.707888</ele>
        <time>2022-08-04T13:30:47.000Z</time>
      </trkpt>
      <trkpt lat="49.3387" lon="-0.59779">
        <ele>1.713091</ele>
        <time>2022-08-04T13:30:48.000Z</time>
      </trkpt>
      <trkpt lat="49.33873" lon="-0.59772">
        <ele>1.717896</ele>
        <time>2022-08-04T13:30:49.000Z</time>
      </trkpt>
      <trkpt lat="49.33877" lon="-0.59765">
        <ele>1.722871</ele>
        <time>2022-08-04T13:30:50.000Z</time>
      </trkpt>
      <trkpt lat="49.3388" lon="-0.59759">
        <ele>1.72759</ele>
        <time>2022-08-04T13:30:51.000Z</time>
      </trkpt>
      <trkpt lat="49.33883" lon="-0.59752">
        <ele>1.732153</ele>
        <time>2022-08-04T13:30:52.000Z</time>
      </trkpt>
      <trkpt lat="49.33886" lon="-0.59746">
        <ele>1.736949</ele>
        <time>2022-08-04T13:30:53.000Z</time>
      </trkpt>
      <trkpt lat="49.3389" lon="-0.5974">
        <ele>1.741744</ele>
        <time>2022-08-04T13:30:54.000Z</time>
      </trkpt>
      <trkpt lat="49.33893" lon="-0.59733">
        <ele>1.746308</ele>
        <time>2022-08-04T13:30:55.000Z</time>
      </trkpt>
      <trkpt lat="49.33896" lon="-0.59727">
        <ele>1.751059</ele>
        <time>2022-08-04T13:30:56.000Z</time>
      </trkpt>
      <trkpt lat="49.339" lon="-0.59721">
        <ele>1.755855</ele>
        <time>2022-08-04T13:30:57.000Z</time>
      </trkpt>
      <trkpt lat="49.33903" lon="-0.59714">
        <ele>1.760371</ele>
        <time>2022-08-04T13:30:58.000Z</time>
      </trkpt>
      <trkpt lat="49.33906" lon="-0.59708">
        <ele>1.764907</ele>
        <time>2022-08-04T13:30:59.000Z</time>
      </trkpt>
      <trkpt lat="49.33909" lon="-0.59702">
        <ele>1.76947</ele>
        <time>2022-08-04T13:31:00.000Z</time>
      </trkpt>
      <trkpt lat="49.33912" lon="-0.59695">
        <ele>1.774143</ele>
        <time>2022-08-04T13:31:01.000Z</time>
      </trkpt>
      <trkpt lat="49.33915" lon="-0.59689">
        <ele>1.77877</ele>
        <time>2022-08-04T13:31:02.000Z</time>
      </trkpt>
      <trkpt lat="49.33918" lon="-0.59683">
        <ele>1.783334</ele>
        <time>2022-08-04T13:31:03.000Z</time>
      </trkpt>
      <trkpt lat="49.33921" lon="-0.59676">
        <ele>1.787606</ele>
        <time>2022-08-04T13:31:04.000Z</time>
      </trkpt>
      <trkpt lat="49.33924" lon="-0.5967">
        <ele>1.792279</ele>
        <time>2022-08-04T13:31:05.000Z</time>
      </trkpt>
      <trkpt lat="49.33927" lon="-0.59664">
        <ele>1.784081</ele>
        <time>2022-08-04T13:31:06.000Z</time>
      </trkpt>
      <trkpt lat="49.3393" lon="-0.59658">
        <ele>1.763089</ele>
        <time>2022-08-04T13:31:07.000Z</time>
      </trkpt>
      <trkpt lat="49.33933" lon="-0.59652">
        <ele>1.742896</ele>
        <time>2022-08-04T13:31:08.000Z</time>
      </trkpt>
      <trkpt lat="49.33936" lon="-0.59647">
        <ele>1.722115</ele>
        <time>2022-08-04T13:31:09.000Z</time>
      </trkpt>
      <trkpt lat="49.33939" lon="-0.59641">
        <ele>1.70214</ele>
        <time>2022-08-04T13:31:10.000Z</time>
      </trkpt>
      <trkpt lat="49.33941" lon="-0.59635">
        <ele>1.684079</ele>
        <time>2022-08-04T13:31:11.000Z</time>
      </trkpt>
      <trkpt lat="49.33944" lon="-0.5963">
        <ele>1.665311</ele>
        <time>2022-08-04T13:31:12.000Z</time>
      </trkpt>
      <trkpt lat="49.33946" lon="-0.59625">
        <ele>1.648186</ele>
        <time>2022-08-04T13:31:13.000Z</time>
      </trkpt>
      <trkpt lat="49.33949" lon="-0.5962">
        <ele>1.630946</ele>
        <time>2022-08-04T13:31:14.000Z</time>
      </trkpt>
      <trkpt lat="49.33951" lon="-0.59615">
        <ele>1.614188</ele>
        <time>2022-08-04T13:31:15.000Z</time>
      </trkpt>
      <trkpt lat="49.33954" lon="-0.59611">
        <ele>1.596706</ele>
        <time>2022-08-04T13:31:16.000Z</time>
      </trkpt>
      <trkpt lat="49.33957" lon="-0.59607">
        <ele>1.581676</ele>
        <time>2022-08-04T13:31:17.000Z</time>
      </trkpt>
      <trkpt lat="49.33958" lon="-0.59605">
        <ele>1.57175</ele>
        <time>2022-08-04T13:31:18.000Z</time>
      </trkpt>
      <trkpt lat="49.33961" lon="-0.59602">
        <ele>1.557962</ele>
        <time>2022-08-04T13:31:19.000Z</time>
      </trkpt>
      <trkpt lat="49.33964" lon="-0.59599">
        <ele>1.545313</ele>
        <time>2022-08-04T13:31:20.000Z</time>
      </trkpt>
      <trkpt lat="49.33965" lon="-0.59597">
        <ele>1.535547</ele>
        <time>2022-08-04T13:31:21.000Z</time>
      </trkpt>
      <trkpt lat="49.33967" lon="-0.59596">
        <ele>1.52611</ele>
        <time>2022-08-04T13:31:22.000Z</time>
      </trkpt>
      <trkpt lat="49.3397" lon="-0.59595">
        <ele>1.516213</ele>
        <time>2022-08-04T13:31:23.000Z</time>
      </trkpt>
      <trkpt lat="49.33972" lon="-0.59593">
        <ele>1.504704</ele>
        <time>2022-08-04T13:31:24.000Z</time>
      </trkpt>
      <trkpt lat="49.33975" lon="-0.59593">
        <ele>1.493879</ele>
        <time>2022-08-04T13:31:25.000Z</time>
      </trkpt>
      <trkpt lat="49.33978" lon="-0.59592">
        <ele>1.481279</ele>
        <time>2022-08-04T13:31:26.000Z</time>
      </trkpt>
      <trkpt lat="49.33981" lon="-0.5959">
        <ele>1.468472</ele>
        <time>2022-08-04T13:31:27.000Z</time>
      </trkpt>
      <trkpt lat="49.33983" lon="-0.59589">
        <ele>1.455313</ele>
        <time>2022-08-04T13:31:28.000Z</time>
      </trkpt>
      <trkpt lat="49.33986" lon="-0.59586">
        <ele>1.441979</ele>
        <time>2022-08-04T13:31:29.000Z</time>
      </trkpt>
      <trkpt lat="49.33989" lon="-0.59584">
        <ele>1.427</ele>
        <time>2022-08-04T13:31:30.000Z</time>
      </trkpt>
      <trkpt lat="49.33992" lon="-0.59582">
        <ele>1.416056</ele>
        <time>2022-08-04T13:31:31.000Z</time>
      </trkpt>
      <trkpt lat="49.33995" lon="-0.5958">
        <ele>1.40209</ele>
        <time>2022-08-04T13:31:32.000Z</time>
      </trkpt>
      <trkpt lat="49.33997" lon="-0.59579">
        <ele>1.3909</ele>
        <time>2022-08-04T13:31:33.000Z</time>
      </trkpt>
      <trkpt lat="49.34" lon="-0.59577">
        <ele>1.379126</ele>
        <time>2022-08-04T13:31:34.000Z</time>
      </trkpt>
      <trkpt lat="49.34002" lon="-0.59576">
        <ele>1.370416</ele>
        <time>2022-08-04T13:31:35.000Z</time>
      </trkpt>
      <trkpt lat="49.34004" lon="-0.59574">
        <ele>1.357962</ele>
        <time>2022-08-04T13:31:36.000Z</time>
      </trkpt>
      <trkpt lat="49.34006" lon="-0.59572">
        <ele>1.346831</ele>
        <time>2022-08-04T13:31:37.000Z</time>
      </trkpt>
      <trkpt lat="49.34008" lon="-0.59569">
        <ele>1.336573</ele>
        <time>2022-08-04T13:31:38.000Z</time>
      </trkpt>
      <trkpt lat="49.3401" lon="-0.59567">
        <ele>1.325597</ele>
        <time>2022-08-04T13:31:39.000Z</time>
      </trkpt>
      <trkpt lat="49.34013" lon="-0.59565">
        <ele>1.314653</ele>
        <time>2022-08-04T13:31:40.000Z</time>
      </trkpt>
      <trkpt lat="49.34015" lon="-0.59563">
        <ele>1.303372</ele>
        <time>2022-08-04T13:31:41.000Z</time>
      </trkpt>
      <trkpt lat="49.34017" lon="-0.59562">
        <ele>1.293238</ele>
        <time>2022-08-04T13:31:42.000Z</time>
      </trkpt>
      <trkpt lat="49.3402" lon="-0.59562">
        <ele>1.282413</ele>
        <time>2022-08-04T13:31:43.000Z</time>
      </trkpt>
      <trkpt lat="49.34022" lon="-0.59561">
        <ele>1.272416</ele>
        <time>2022-08-04T13:31:44.000Z</time>
      </trkpt>
      <trkpt lat="49.34025" lon="-0.59559">
        <ele>1.259444</ele>
        <time>2022-08-04T13:31:45.000Z</time>
      </trkpt>
      <trkpt lat="49.34028" lon="-0.59558">
        <ele>1.246679</ele>
        <time>2022-08-04T13:31:46.000Z</time>
      </trkpt>
      <trkpt lat="49.3403" lon="-0.59556">
        <ele>1.23629</ele>
        <time>2022-08-04T13:31:47.000Z</time>
      </trkpt>
      <trkpt lat="49.34033" lon="-0.59555">
        <ele>1.223317</ele>
        <time>2022-08-04T13:31:48.000Z</time>
      </trkpt>
      <trkpt lat="49.34037" lon="-0.5955">
        <ele>1.20211</ele>
        <time>2022-08-04T13:31:50.000Z</time>
      </trkpt>
      <trkpt lat="49.34039" lon="-0.59548">
        <ele>1.191852</ele>
        <time>2022-08-04T13:31:51.000Z</time>
      </trkpt>
      <trkpt lat="49.34041" lon="-0.59545">
        <ele>1.179997</ele>
        <time>2022-08-04T13:31:52.000Z</time>
      </trkpt>
      <trkpt lat="49.34042" lon="-0.59541">
        <ele>1.168582</ele>
        <time>2022-08-04T13:31:53.000Z</time>
      </trkpt>
      <trkpt lat="49.34044" lon="-0.59537">
        <ele>1.156236</ele>
        <time>2022-08-04T13:31:54.000Z</time>
      </trkpt>
      <trkpt lat="49.34045" lon="-0.59533">
        <ele>1.142077</ele>
        <time>2022-08-04T13:31:55.000Z</time>
      </trkpt>
      <trkpt lat="49.34046" lon="-0.59528">
        <ele>1.127952</ele>
        <time>2022-08-04T13:31:56.000Z</time>
      </trkpt>
      <trkpt lat="49.34047" lon="-0.59523">
        <ele>1.112975</ele>
        <time>2022-08-04T13:31:57.000Z</time>
      </trkpt>
      <trkpt lat="49.34048" lon="-0.59517">
        <ele>1.097768</ele>
        <time>2022-08-04T13:31:58.000Z</time>
      </trkpt>
      <trkpt lat="49.34048" lon="-0.59512">
        <ele>1.082577</ele>
        <time>2022-08-04T13:31:59.000Z</time>
      </trkpt>
      <trkpt lat="49.34047" lon="-0.59506">
        <ele>1.067333</ele>
        <time>2022-08-04T13:32:00.000Z</time>
      </trkpt>
      <trkpt lat="49.34047" lon="-0.59501">
        <ele>1.052142</ele>
        <time>2022-08-04T13:32:01.000Z</time>
      </trkpt>
      <trkpt lat="49.34047" lon="-0.59495">
        <ele>1.036675</ele>
        <time>2022-08-04T13:32:02.000Z</time>
      </trkpt>
      <trkpt lat="49.34048" lon="-0.5949">
        <ele>1.028177</ele>
        <time>2022-08-04T13:32:03.000Z</time>
      </trkpt>
      <trkpt lat="49.34049" lon="-0.59484">
        <ele>1.022185</ele>
        <time>2022-08-04T13:32:04.000Z</time>
      </trkpt>
      <trkpt lat="49.3405" lon="-0.59478">
        <ele>1.016534</ele>
        <time>2022-08-04T13:32:05.000Z</time>
      </trkpt>
      <trkpt lat="49.3405" lon="-0.59472">
        <ele>1.010926</ele>
        <time>2022-08-04T13:32:06.000Z</time>
      </trkpt>
      <trkpt lat="49.34052" lon="-0.59466">
        <ele>1.004933</ele>
        <time>2022-08-04T13:32:07.000Z</time>
      </trkpt>
      <trkpt lat="49.34052" lon="-0.5946">
        <ele>0.999419</ele>
        <time>2022-08-04T13:32:08.000Z</time>
      </trkpt>
      <trkpt lat="49.34053" lon="-0.59454">
        <ele>0.99355</ele>
        <time>2022-08-04T13:32:09.000Z</time>
      </trkpt>
      <trkpt lat="49.34053" lon="-0.59448">
        <ele>0.987847</ele>
        <time>2022-08-04T13:32:10.000Z</time>
      </trkpt>
      <trkpt lat="49.34054" lon="-0.59442">
        <ele>0.98207</ele>
        <time>2022-08-04T13:32:11.000Z</time>
      </trkpt>
      <trkpt lat="49.34054" lon="-0.59436">
        <ele>0.976367</ele>
        <time>2022-08-04T13:32:12.000Z</time>
      </trkpt>
      <trkpt lat="49.34055" lon="-0.5943">
        <ele>0.970426</ele>
        <time>2022-08-04T13:32:13.000Z</time>
      </trkpt>
      <trkpt lat="49.34055" lon="-0.59424">
        <ele>0.964836</ele>
        <time>2022-08-04T13:32:14.000Z</time>
      </trkpt>
      <trkpt lat="49.34056" lon="-0.59418">
        <ele>0.959364</ele>
        <time>2022-08-04T13:32:15.000Z</time>
      </trkpt>
      <trkpt lat="49.34057" lon="-0.59413">
        <ele>0.953861</ele>
        <time>2022-08-04T13:32:16.000Z</time>
      </trkpt>
      <trkpt lat="49.34058" lon="-0.59407">
        <ele>0.948576</ele>
        <time>2022-08-04T13:32:17.000Z</time>
      </trkpt>
      <trkpt lat="49.34058" lon="-0.59402">
        <ele>0.94344</ele>
        <time>2022-08-04T13:32:18.000Z</time>
      </trkpt>
      <trkpt lat="49.34059" lon="-0.59397">
        <ele>0.938392</ele>
        <time>2022-08-04T13:32:19.000Z</time>
      </trkpt>
      <trkpt lat="49.3406" lon="-0.59391">
        <ele>0.933107</ele>
        <time>2022-08-04T13:32:20.000Z</time>
      </trkpt>
      <trkpt lat="49.3406" lon="-0.59386">
        <ele>0.927876</ele>
        <time>2022-08-04T13:32:21.000Z</time>
      </trkpt>
      <trkpt lat="49.34061" lon="-0.5938">
        <ele>0.922282</ele>
        <time>2022-08-04T13:32:22.000Z</time>
      </trkpt>
      <trkpt lat="49.34061" lon="-0.59375">
        <ele>0.917051</ele>
        <time>2022-08-04T13:32:23.000Z</time>
      </trkpt>
      <trkpt lat="49.34062" lon="-0.59369">
        <ele>0.911554</ele>
        <time>2022-08-04T13:32:24.000Z</time>
      </trkpt>
      <trkpt lat="49.34063" lon="-0.59363">
        <ele>0.906057</ele>
        <time>2022-08-04T13:32:25.000Z</time>
      </trkpt>
      <trkpt lat="49.34064" lon="-0.59358">
        <ele>0.900932</ele>
        <time>2022-08-04T13:32:26.000Z</time>
      </trkpt>
      <trkpt lat="49.34065" lon="-0.59352">
        <ele>0.895209</ele>
        <time>2022-08-04T13:32:27.000Z</time>
      </trkpt>
      <trkpt lat="49.34066" lon="-0.59347">
        <ele>0.889742</ele>
        <time>2022-08-04T13:32:28.000Z</time>
      </trkpt>
      <trkpt lat="49.34067" lon="-0.59342">
        <ele>0.885326</ele>
        <time>2022-08-04T13:32:29.000Z</time>
      </trkpt>
      <trkpt lat="49.34068" lon="-0.59336">
        <ele>0.878823</ele>
        <time>2022-08-04T13:32:30.000Z</time>
      </trkpt>
      <trkpt lat="49.34068" lon="-0.5933">
        <ele>0.873403</ele>
        <time>2022-08-04T13:32:31.000Z</time>
      </trkpt>
      <trkpt lat="49.34069" lon="-0.59324">
        <ele>0.8679</ele>
        <time>2022-08-04T13:32:32.000Z</time>
      </trkpt>
      <trkpt lat="49.3407" lon="-0.59319">
        <ele>0.86258</ele>
        <time>2022-08-04T13:32:33.000Z</time>
      </trkpt>
      <trkpt lat="49.34071" lon="-0.59313">
        <ele>0.857205</ele>
        <time>2022-08-04T13:32:34.000Z</time>
      </trkpt>
      <trkpt lat="49.34072" lon="-0.59308">
        <ele>0.851976</ele>
        <time>2022-08-04T13:32:35.000Z</time>
      </trkpt>
      <trkpt lat="49.34073" lon="-0.59303">
        <ele>0.846785</ele>
        <time>2022-08-04T13:32:36.000Z</time>
      </trkpt>
      <trkpt lat="49.34074" lon="-0.59298">
        <ele>0.841647</ele>
        <time>2022-08-04T13:32:37.000Z</time>
      </trkpt>
      <trkpt lat="49.34075" lon="-0.59292">
        <ele>0.836418</ele>
        <time>2022-08-04T13:32:38.000Z</time>
      </trkpt>
      <trkpt lat="49.34075" lon="-0.59287">
        <ele>0.831413</ele>
        <time>2022-08-04T13:32:39.000Z</time>
      </trkpt>
      <trkpt lat="49.34076" lon="-0.59282">
        <ele>0.826275</ele>
        <time>2022-08-04T13:32:40.000Z</time>
      </trkpt>
      <trkpt lat="49.34077" lon="-0.59277">
        <ele>0.821363</ele>
        <time>2022-08-04T13:32:41.000Z</time>
      </trkpt>
      <trkpt lat="49.34078" lon="-0.59272">
        <ele>0.816406</ele>
        <time>2022-08-04T13:32:42.000Z</time>
      </trkpt>
      <trkpt lat="49.34079" lon="-0.59267">
        <ele>0.811307</ele>
        <time>2022-08-04T13:32:43.000Z</time>
      </trkpt>
      <trkpt lat="49.34079" lon="-0.59261">
        <ele>0.80636</ele>
        <time>2022-08-04T13:32:44.000Z</time>
      </trkpt>
      <trkpt lat="49.3408" lon="-0.59256">
        <ele>0.801235</ele>
        <time>2022-08-04T13:32:45.000Z</time>
      </trkpt>
      <trkpt lat="49.34081" lon="-0.59251">
        <ele>0.796044</ele>
        <time>2022-08-04T13:32:46.000Z</time>
      </trkpt>
      <trkpt lat="49.34081" lon="-0.59245">
        <ele>0.790799</ele>
        <time>2022-08-04T13:32:47.000Z</time>
      </trkpt>
      <trkpt lat="49.34082" lon="-0.5924">
        <ele>0.785608</ele>
        <time>2022-08-04T13:32:48.000Z</time>
      </trkpt>
      <trkpt lat="49.34082" lon="-0.59234">
        <ele>0.780377</ele>
        <time>2022-08-04T13:32:49.000Z</time>
      </trkpt>
      <trkpt lat="49.34083" lon="-0.59229">
        <ele>0.775329</ele>
        <time>2022-08-04T13:32:50.000Z</time>
      </trkpt>
      <trkpt lat="49.34084" lon="-0.59224">
        <ele>0.770511</ele>
        <time>2022-08-04T13:32:51.000Z</time>
      </trkpt>
      <trkpt lat="49.34085" lon="-0.59219">
        <ele>0.763492</ele>
        <time>2022-08-04T13:32:52.000Z</time>
      </trkpt>
      <trkpt lat="49.34085" lon="-0.59215">
        <ele>0.75725</ele>
        <time>2022-08-04T13:32:53.000Z</time>
      </trkpt>
      <trkpt lat="49.34086" lon="-0.5921">
        <ele>0.75056</ele>
        <time>2022-08-04T13:32:54.000Z</time>
      </trkpt>
      <trkpt lat="49.34087" lon="-0.59206">
        <ele>0.743801</ele>
        <time>2022-08-04T13:32:55.000Z</time>
      </trkpt>
      <trkpt lat="49.34088" lon="-0.59201">
        <ele>0.736979</ele>
        <time>2022-08-04T13:32:56.000Z</time>
      </trkpt>
      <trkpt lat="49.34089" lon="-0.59196">
        <ele>0.729807</ele>
        <time>2022-08-04T13:32:57.000Z</time>
      </trkpt>
      <trkpt lat="49.3409" lon="-0.59191">
        <ele>0.723199</ele>
        <time>2022-08-04T13:32:58.000Z</time>
      </trkpt>
      <trkpt lat="49.34091" lon="-0.59187">
        <ele>0.716508</ele>
        <time>2022-08-04T13:32:59.000Z</time>
      </trkpt>
      <trkpt lat="49.34091" lon="-0.59182">
        <ele>0.709629</ele>
        <time>2022-08-04T13:33:00.000Z</time>
      </trkpt>
      <trkpt lat="49.34092" lon="-0.59177">
        <ele>0.702885</ele>
        <time>2022-08-04T13:33:01.000Z</time>
      </trkpt>
      <trkpt lat="49.34093" lon="-0.59172">
        <ele>0.695932</ele>
        <time>2022-08-04T13:33:02.000Z</time>
      </trkpt>
      <trkpt lat="49.34093" lon="-0.59167">
        <ele>0.688374</ele>
        <time>2022-08-04T13:33:03.000Z</time>
      </trkpt>
      <trkpt lat="49.34095" lon="-0.59162">
        <ele>0.680561</ele>
        <time>2022-08-04T13:33:04.000Z</time>
      </trkpt>
      <trkpt lat="49.34095" lon="-0.59156">
        <ele>0.672829</ele>
        <time>2022-08-04T13:33:05.000Z</time>
      </trkpt>
      <trkpt lat="49.34096" lon="-0.5915">
        <ele>0.664939</ele>
        <time>2022-08-04T13:33:06.000Z</time>
      </trkpt>
      <trkpt lat="49.34097" lon="-0.59145">
        <ele>0.656712</ele>
        <time>2022-08-04T13:33:07.000Z</time>
      </trkpt>
      <trkpt lat="49.34098" lon="-0.59139">
        <ele>0.648435</ele>
        <time>2022-08-04T13:33:08.000Z</time>
      </trkpt>
      <trkpt lat="49.34099" lon="-0.59133">
        <ele>0.63989</ele>
        <time>2022-08-04T13:33:09.000Z</time>
      </trkpt>
      <trkpt lat="49.341" lon="-0.59127">
        <ele>0.631529</ele>
        <time>2022-08-04T13:33:10.000Z</time>
      </trkpt>
      <trkpt lat="49.34101" lon="-0.59121">
        <ele>0.622984</ele>
        <time>2022-08-04T13:33:11.000Z</time>
      </trkpt>
      <trkpt lat="49.34101" lon="-0.59115">
        <ele>0.614758</ele>
        <time>2022-08-04T13:33:12.000Z</time>
      </trkpt>
      <trkpt lat="49.34103" lon="-0.59109">
        <ele>0.606034</ele>
        <time>2022-08-04T13:33:13.000Z</time>
      </trkpt>
      <trkpt lat="49.34103" lon="-0.59103">
        <ele>0.597624</ele>
        <time>2022-08-04T13:33:14.000Z</time>
      </trkpt>
      <trkpt lat="49.34104" lon="-0.59097">
        <ele>0.589657</ele>
        <time>2022-08-04T13:33:15.000Z</time>
      </trkpt>
      <trkpt lat="49.34105" lon="-0.59092">
        <ele>0.581195</ele>
        <time>2022-08-04T13:33:16.000Z</time>
      </trkpt>
      <trkpt lat="49.34106" lon="-0.59086">
        <ele>0.573092</ele>
        <time>2022-08-04T13:33:17.000Z</time>
      </trkpt>
      <trkpt lat="49.34107" lon="-0.5908">
        <ele>0.564499</ele>
        <time>2022-08-04T13:33:18.000Z</time>
      </trkpt>
      <trkpt lat="49.34108" lon="-0.59074">
        <ele>0.556396</ele>
        <time>2022-08-04T13:33:19.000Z</time>
      </trkpt>
      <trkpt lat="49.34109" lon="-0.59068">
        <ele>0.548118</ele>
        <time>2022-08-04T13:33:20.000Z</time>
      </trkpt>
      <trkpt lat="49.3411" lon="-0.59062">
        <ele>0.539573</ele>
        <time>2022-08-04T13:33:21.000Z</time>
      </trkpt>
      <trkpt lat="49.34111" lon="-0.59056">
        <ele>0.530914</ele>
        <time>2022-08-04T13:33:22.000Z</time>
      </trkpt>
      <trkpt lat="49.34112" lon="-0.5905">
        <ele>0.52219</ele>
        <time>2022-08-04T13:33:23.000Z</time>
      </trkpt>
      <trkpt lat="49.34113" lon="-0.59044">
        <ele>0.513377</ele>
        <time>2022-08-04T13:33:24.000Z</time>
      </trkpt>
      <trkpt lat="49.34115" lon="-0.59038">
        <ele>0.504048</ele>
        <time>2022-08-04T13:33:25.000Z</time>
      </trkpt>
      <trkpt lat="49.34116" lon="-0.59032">
        <ele>0.495553</ele>
        <time>2022-08-04T13:33:26.000Z</time>
      </trkpt>
      <trkpt lat="49.34117" lon="-0.59025">
        <ele>0.486472</ele>
        <time>2022-08-04T13:33:27.000Z</time>
      </trkpt>
      <trkpt lat="49.34118" lon="-0.59019">
        <ele>0.477927</ele>
        <time>2022-08-04T13:33:28.000Z</time>
      </trkpt>
      <trkpt lat="49.34119" lon="-0.59014">
        <ele>0.469237</ele>
        <time>2022-08-04T13:33:29.000Z</time>
      </trkpt>
      <trkpt lat="49.3412" lon="-0.59008">
        <ele>0.461145</ele>
        <time>2022-08-04T13:33:30.000Z</time>
      </trkpt>
      <trkpt lat="49.34121" lon="-0.59002">
        <ele>0.452867</ele>
        <time>2022-08-04T13:33:31.000Z</time>
      </trkpt>
      <trkpt lat="49.34123" lon="-0.58997">
        <ele>0.445054</ele>
        <time>2022-08-04T13:33:32.000Z</time>
      </trkpt>
      <trkpt lat="49.34124" lon="-0.58992">
        <ele>0.437897</ele>
        <time>2022-08-04T13:33:33.000Z</time>
      </trkpt>
      <trkpt lat="49.34125" lon="-0.58987">
        <ele>0.429962</ele>
        <time>2022-08-04T13:33:34.000Z</time>
      </trkpt>
      <trkpt lat="49.34127" lon="-0.58981">
        <ele>0.421903</ele>
        <time>2022-08-04T13:33:35.000Z</time>
      </trkpt>
      <trkpt lat="49.34128" lon="-0.58976">
        <ele>0.414157</ele>
        <time>2022-08-04T13:33:36.000Z</time>
      </trkpt>
      <trkpt lat="49.34129" lon="-0.58971">
        <ele>0.406867</ele>
        <time>2022-08-04T13:33:37.000Z</time>
      </trkpt>
      <trkpt lat="49.34129" lon="-0.58966">
        <ele>0.399811</ele>
        <time>2022-08-04T13:33:38.000Z</time>
      </trkpt>
      <trkpt lat="49.34131" lon="-0.58961">
        <ele>0.392766</ele>
        <time>2022-08-04T13:33:39.000Z</time>
      </trkpt>
      <trkpt lat="49.34132" lon="-0.58956">
        <ele>0.39519</ele>
        <time>2022-08-04T13:33:40.000Z</time>
      </trkpt>
      <trkpt lat="49.34133" lon="-0.58952">
        <ele>0.405494</ele>
        <time>2022-08-04T13:33:41.000Z</time>
      </trkpt>
      <trkpt lat="49.34133" lon="-0.58948">
        <ele>0.414367</ele>
        <time>2022-08-04T13:33:42.000Z</time>
      </trkpt>
      <trkpt lat="49.34134" lon="-0.58945">
        <ele>0.423081</ele>
        <time>2022-08-04T13:33:43.000Z</time>
      </trkpt>
      <trkpt lat="49.34135" lon="-0.58942">
        <ele>0.43061</ele>
        <time>2022-08-04T13:33:44.000Z</time>
      </trkpt>
      <trkpt lat="49.34135" lon="-0.58939">
        <ele>0.437916</ele>
        <time>2022-08-04T13:33:45.000Z</time>
      </trkpt>
      <trkpt lat="49.34136" lon="-0.58935">
        <ele>0.445758</ele>
        <time>2022-08-04T13:33:46.000Z</time>
      </trkpt>
      <trkpt lat="49.34137" lon="-0.58932">
        <ele>0.454051</ele>
        <time>2022-08-04T13:33:47.000Z</time>
      </trkpt>
      <trkpt lat="49.34137" lon="-0.58929">
        <ele>0.461636</ele>
        <time>2022-08-04T13:33:48.000Z</time>
      </trkpt>
      <trkpt lat="49.34137" lon="-0.58925">
        <ele>0.470061</ele>
        <time>2022-08-04T13:33:49.000Z</time>
      </trkpt>
      <trkpt lat="49.34138" lon="-0.58921">
        <ele>0.478262</ele>
        <time>2022-08-04T13:33:50.000Z</time>
      </trkpt>
      <trkpt lat="49.34138" lon="-0.58917">
        <ele>0.487978</ele>
        <time>2022-08-04T13:33:51.000Z</time>
      </trkpt>
      <trkpt lat="49.34139" lon="-0.58913">
        <ele>0.497569</ele>
        <time>2022-08-04T13:33:52.000Z</time>
      </trkpt>
      <trkpt lat="49.34139" lon="-0.58909">
        <ele>0.507506</ele>
        <time>2022-08-04T13:33:53.000Z</time>
      </trkpt>
      <trkpt lat="49.3414" lon="-0.58905">
        <ele>0.516142</ele>
        <time>2022-08-04T13:33:54.000Z</time>
      </trkpt>
      <trkpt lat="49.34141" lon="-0.589">
        <ele>0.528956</ele>
        <time>2022-08-04T13:33:55.000Z</time>
      </trkpt>
      <trkpt lat="49.34142" lon="-0.58895">
        <ele>0.539668</ele>
        <time>2022-08-04T13:33:56.000Z</time>
      </trkpt>
      <trkpt lat="49.34144" lon="-0.58891">
        <ele>0.550585</ele>
        <time>2022-08-04T13:33:57.000Z</time>
      </trkpt>
      <trkpt lat="49.34145" lon="-0.58886">
        <ele>0.561915</ele>
        <time>2022-08-04T13:33:58.000Z</time>
      </trkpt>
      <trkpt lat="49.34147" lon="-0.58882">
        <ele>0.573499</ele>
        <time>2022-08-04T13:33:59.000Z</time>
      </trkpt>
      <trkpt lat="49.34148" lon="-0.58877">
        <ele>0.584136</ele>
        <time>2022-08-04T13:34:00.000Z</time>
      </trkpt>
      <trkpt lat="49.34149" lon="-0.58873">
        <ele>0.595673</ele>
        <time>2022-08-04T13:34:01.000Z</time>
      </trkpt>
      <trkpt lat="49.3415" lon="-0.58868">
        <ele>0.608261</ele>
        <time>2022-08-04T13:34:02.000Z</time>
      </trkpt>
      <trkpt lat="49.34151" lon="-0.58863">
        <ele>0.619648</ele>
        <time>2022-08-04T13:34:03.000Z</time>
      </trkpt>
      <trkpt lat="49.34153" lon="-0.58857">
        <ele>0.633259</ele>
        <time>2022-08-04T13:34:04.000Z</time>
      </trkpt>
      <trkpt lat="49.34155" lon="-0.58851">
        <ele>0.647699</ele>
        <time>2022-08-04T13:34:05.000Z</time>
      </trkpt>
      <trkpt lat="49.34156" lon="-0.58845">
        <ele>0.662558</ele>
        <time>2022-08-04T13:34:06.000Z</time>
      </trkpt>
      <trkpt lat="49.34157" lon="-0.58839">
        <ele>0.676912</ele>
        <time>2022-08-04T13:34:07.000Z</time>
      </trkpt>
      <trkpt lat="49.34159" lon="-0.58833">
        <ele>0.692191</ele>
        <time>2022-08-04T13:34:08.000Z</time>
      </trkpt>
      <trkpt lat="49.3416" lon="-0.58827">
        <ele>0.707259</ele>
        <time>2022-08-04T13:34:09.000Z</time>
      </trkpt>
      <trkpt lat="49.34162" lon="-0.5882">
        <ele>0.722192</ele>
        <time>2022-08-04T13:34:10.000Z</time>
      </trkpt>
      <trkpt lat="49.34164" lon="-0.58814">
        <ele>0.738084</ele>
        <time>2022-08-04T13:34:11.000Z</time>
      </trkpt>
      <trkpt lat="49.34165" lon="-0.58807">
        <ele>0.753785</ele>
        <time>2022-08-04T13:34:12.000Z</time>
      </trkpt>
      <trkpt lat="49.34167" lon="-0.58801">
        <ele>0.769698</ele>
        <time>2022-08-04T13:34:13.000Z</time>
      </trkpt>
      <trkpt lat="49.34168" lon="-0.58794">
        <ele>0.785928</ele>
        <time>2022-08-04T13:34:14.000Z</time>
      </trkpt>
      <trkpt lat="49.34169" lon="-0.58787">
        <ele>0.80102</ele>
        <time>2022-08-04T13:34:15.000Z</time>
      </trkpt>
      <trkpt lat="49.3417" lon="-0.58781">
        <ele>0.816503</ele>
        <time>2022-08-04T13:34:16.000Z</time>
      </trkpt>
      <trkpt lat="49.34172" lon="-0.58774">
        <ele>0.8323</ele>
        <time>2022-08-04T13:34:17.000Z</time>
      </trkpt>
      <trkpt lat="49.34173" lon="-0.58768">
        <ele>0.847664</ele>
        <time>2022-08-04T13:34:18.000Z</time>
      </trkpt>
      <trkpt lat="49.34174" lon="-0.58761">
        <ele>0.863789</ele>
        <time>2022-08-04T13:34:19.000Z</time>
      </trkpt>
      <trkpt lat="49.34175" lon="-0.58754">
        <ele>0.878847</ele>
        <time>2022-08-04T13:34:20.000Z</time>
      </trkpt>
      <trkpt lat="49.34176" lon="-0.58747">
        <ele>0.895077</ele>
        <time>2022-08-04T13:34:21.000Z</time>
      </trkpt>
      <trkpt lat="49.34177" lon="-0.5874">
        <ele>0.911271</ele>
        <time>2022-08-04T13:34:22.000Z</time>
      </trkpt>
      <trkpt lat="49.34178" lon="-0.58733">
        <ele>0.928059</ele>
        <time>2022-08-04T13:34:23.000Z</time>
      </trkpt>
      <trkpt lat="49.34179" lon="-0.58726">
        <ele>0.945063</ele>
        <time>2022-08-04T13:34:24.000Z</time>
      </trkpt>
      <trkpt lat="49.34178" lon="-0.5872">
        <ele>0.958392</ele>
        <time>2022-08-04T13:34:25.000Z</time>
      </trkpt>
      <trkpt lat="49.34178" lon="-0.58711">
        <ele>0.977599</ele>
        <time>2022-08-04T13:34:26.000Z</time>
      </trkpt>
      <trkpt lat="49.34179" lon="-0.58705">
        <ele>0.992031</ele>
        <time>2022-08-04T13:34:27.000Z</time>
      </trkpt>
      <trkpt lat="49.34181" lon="-0.58699">
        <ele>1.007002</ele>
        <time>2022-08-04T13:34:28.000Z</time>
      </trkpt>
      <trkpt lat="49.34184" lon="-0.58693">
        <ele>1.000898</ele>
        <time>2022-08-04T13:34:29.000Z</time>
      </trkpt>
      <trkpt lat="49.34186" lon="-0.58688">
        <ele>0.985427</ele>
        <time>2022-08-04T13:34:30.000Z</time>
      </trkpt>
      <trkpt lat="49.34188" lon="-0.5868">
        <ele>0.962021</ele>
        <time>2022-08-04T13:34:31.000Z</time>
      </trkpt>
      <trkpt lat="49.3419" lon="-0.58673">
        <ele>0.94277</ele>
        <time>2022-08-04T13:34:32.000Z</time>
      </trkpt>
      <trkpt lat="49.3419" lon="-0.58666">
        <ele>0.923934</ele>
        <time>2022-08-04T13:34:33.000Z</time>
      </trkpt>
      <trkpt lat="49.34191" lon="-0.58659">
        <ele>0.905337</ele>
        <time>2022-08-04T13:34:34.000Z</time>
      </trkpt>
      <trkpt lat="49.34193" lon="-0.58651">
        <ele>0.886051</ele>
        <time>2022-08-04T13:34:35.000Z</time>
      </trkpt>
      <trkpt lat="49.34194" lon="-0.58644">
        <ele>0.866912</ele>
        <time>2022-08-04T13:34:36.000Z</time>
      </trkpt>
      <trkpt lat="49.34195" lon="-0.58637">
        <ele>0.848569</ele>
        <time>2022-08-04T13:34:37.000Z</time>
      </trkpt>
      <trkpt lat="49.34196" lon="-0.58632">
        <ele>0.833386</ele>
        <time>2022-08-04T13:34:38.000Z</time>
      </trkpt>
      <trkpt lat="49.34198" lon="-0.58624">
        <ele>0.811669</ele>
        <time>2022-08-04T13:34:39.000Z</time>
      </trkpt>
      <trkpt lat="49.34198" lon="-0.58617">
        <ele>0.793862</ele>
        <time>2022-08-04T13:34:40.000Z</time>
      </trkpt>
      <trkpt lat="49.342" lon="-0.5861">
        <ele>0.775721</ele>
        <time>2022-08-04T13:34:41.000Z</time>
      </trkpt>
      <trkpt lat="49.34201" lon="-0.58604">
        <ele>0.757828</ele>
        <time>2022-08-04T13:34:42.000Z</time>
      </trkpt>
      <trkpt lat="49.34202" lon="-0.58599">
        <ele>0.743866</ele>
        <time>2022-08-04T13:34:43.000Z</time>
      </trkpt>
      <trkpt lat="49.34203" lon="-0.58591">
        <ele>0.722469</ele>
        <time>2022-08-04T13:34:44.000Z</time>
      </trkpt>
      <trkpt lat="49.34205" lon="-0.58584">
        <ele>0.70532</ele>
        <time>2022-08-04T13:34:45.000Z</time>
      </trkpt>
      <trkpt lat="49.34205" lon="-0.58578">
        <ele>0.68777</ele>
        <time>2022-08-04T13:34:46.000Z</time>
      </trkpt>
      <trkpt lat="49.34206" lon="-0.58571">
        <ele>0.669933</ele>
        <time>2022-08-04T13:34:47.000Z</time>
      </trkpt>
      <trkpt lat="49.34207" lon="-0.58564">
        <ele>0.652688</ele>
        <time>2022-08-04T13:34:48.000Z</time>
      </trkpt>
      <trkpt lat="49.34208" lon="-0.58558">
        <ele>0.635357</ele>
        <time>2022-08-04T13:34:49.000Z</time>
      </trkpt>
      <trkpt lat="49.34209" lon="-0.58551">
        <ele>0.618025</ele>
        <time>2022-08-04T13:34:50.000Z</time>
      </trkpt>
      <trkpt lat="49.3421" lon="-0.58545">
        <ele>0.601288</ele>
        <time>2022-08-04T13:34:51.000Z</time>
      </trkpt>
      <trkpt lat="49.34211" lon="-0.58539">
        <ele>0.584191</ele>
        <time>2022-08-04T13:34:52.000Z</time>
      </trkpt>
      <trkpt lat="49.34211" lon="-0.58532">
        <ele>0.566764</ele>
        <time>2022-08-04T13:34:53.000Z</time>
      </trkpt>
      <trkpt lat="49.34211" lon="-0.58525">
        <ele>0.549077</ele>
        <time>2022-08-04T13:34:54.000Z</time>
      </trkpt>
      <trkpt lat="49.3421" lon="-0.58518">
        <ele>0.530699</ele>
        <time>2022-08-04T13:34:55.000Z</time>
      </trkpt>
      <trkpt lat="49.34209" lon="-0.58511">
        <ele>0.511311</ele>
        <time>2022-08-04T13:34:56.000Z</time>
      </trkpt>
      <trkpt lat="49.34207" lon="-0.58504">
        <ele>0.492549</ele>
        <time>2022-08-04T13:34:57.000Z</time>
      </trkpt>
      <trkpt lat="49.34206" lon="-0.58497">
        <ele>0.474517</ele>
        <time>2022-08-04T13:34:58.000Z</time>
      </trkpt>
      <trkpt lat="49.34203" lon="-0.58491">
        <ele>0.455601</ele>
        <time>2022-08-04T13:34:59.000Z</time>
      </trkpt>
      <trkpt lat="49.34201" lon="-0.58486">
        <ele>0.437545</ele>
        <time>2022-08-04T13:35:00.000Z</time>
      </trkpt>
      <trkpt lat="49.34198" lon="-0.58481">
        <ele>0.421189</ele>
        <time>2022-08-04T13:35:01.000Z</time>
      </trkpt>
      <trkpt lat="49.34196" lon="-0.58476">
        <ele>0.405935</ele>
        <time>2022-08-04T13:35:02.000Z</time>
      </trkpt>
      <trkpt lat="49.34193" lon="-0.58471">
        <ele>0.389988</ele>
        <time>2022-08-04T13:35:03.000Z</time>
      </trkpt>
      <trkpt lat="49.34191" lon="-0.58467">
        <ele>0.375326</ele>
        <time>2022-08-04T13:35:04.000Z</time>
      </trkpt>
      <trkpt lat="49.34189" lon="-0.58465">
        <ele>0.365846</ele>
        <time>2022-08-04T13:35:05.000Z</time>
      </trkpt>
      <trkpt lat="49.34184" lon="-0.58464">
        <ele>0.347736</ele>
        <time>2022-08-04T13:35:06.000Z</time>
      </trkpt>
      <trkpt lat="49.3418" lon="-0.58464">
        <ele>0.331355</ele>
        <time>2022-08-04T13:35:07.000Z</time>
      </trkpt>
      <trkpt lat="49.34176" lon="-0.58464">
        <ele>0.314608</ele>
        <time>2022-08-04T13:35:08.000Z</time>
      </trkpt>
      <trkpt lat="49.34172" lon="-0.58463">
        <ele>0.29622</ele>
        <time>2022-08-04T13:35:09.000Z</time>
      </trkpt>
      <trkpt lat="49.34167" lon="-0.58461">
        <ele>0.270099</ele>
        <time>2022-08-04T13:35:10.000Z</time>
      </trkpt>
      <trkpt lat="49.34163" lon="-0.58459">
        <ele>0.244106</ele>
        <time>2022-08-04T13:35:11.000Z</time>
      </trkpt>
      <trkpt lat="49.34158" lon="-0.58457">
        <ele>0.219406</ele>
        <time>2022-08-04T13:35:12.000Z</time>
      </trkpt>
      <trkpt lat="49.34153" lon="-0.58455">
        <ele>0.190167</ele>
        <time>2022-08-04T13:35:13.000Z</time>
      </trkpt>
      <trkpt lat="49.34149" lon="-0.58455">
        <ele>0.164761</ele>
        <time>2022-08-04T13:35:14.000Z</time>
      </trkpt>
      <trkpt lat="49.34145" lon="-0.58455">
        <ele>0.141099</ele>
        <time>2022-08-04T13:35:15.000Z</time>
      </trkpt>
      <trkpt lat="49.34141" lon="-0.58456">
        <ele>0.121274</ele>
        <time>2022-08-04T13:35:16.000Z</time>
      </trkpt>
      <trkpt lat="49.34139" lon="-0.58456">
        <ele>0.107212</ele>
        <time>2022-08-04T13:35:17.000Z</time>
      </trkpt>
      <trkpt lat="49.34135" lon="-0.58453">
        <ele>0.086522</ele>
        <time>2022-08-04T13:35:19.000Z</time>
      </trkpt>
      <trkpt lat="49.34135" lon="-0.5845">
        <ele>0.075674</ele>
        <time>2022-08-04T13:35:20.000Z</time>
      </trkpt>
      <trkpt lat="49.34135" lon="-0.58446">
        <ele>0.062669</ele>
        <time>2022-08-04T13:35:21.000Z</time>
      </trkpt>
      <trkpt lat="49.34136" lon="-0.58442">
        <ele>0.046835</ele>
        <time>2022-08-04T13:35:22.000Z</time>
      </trkpt>
      <trkpt lat="49.34137" lon="-0.58438">
        <ele>0.031497</ele>
        <time>2022-08-04T13:35:23.000Z</time>
      </trkpt>
      <trkpt lat="49.34139" lon="-0.58432">
        <ele>0.006068</ele>
        <time>2022-08-04T13:35:24.000Z</time>
      </trkpt>
      <trkpt lat="49.34141" lon="-0.58426">
        <ele>-0.016983</ele>
        <time>2022-08-04T13:35:25.000Z</time>
      </trkpt>
      <trkpt lat="49.34141" lon="-0.5842">
        <ele>-0.04023</ele>
        <time>2022-08-04T13:35:26.000Z</time>
      </trkpt>
      <trkpt lat="49.34143" lon="-0.58414">
        <ele>-0.064895</ele>
        <time>2022-08-04T13:35:27.000Z</time>
      </trkpt>
      <trkpt lat="49.34145" lon="-0.58408">
        <ele>-0.088621</ele>
        <time>2022-08-04T13:35:28.000Z</time>
      </trkpt>
      <trkpt lat="49.34147" lon="-0.58402">
        <ele>-0.112687</ele>
        <time>2022-08-04T13:35:29.000Z</time>
      </trkpt>
      <trkpt lat="49.34148" lon="-0.58395">
        <ele>-0.136648</ele>
        <time>2022-08-04T13:35:30.000Z</time>
      </trkpt>
      <trkpt lat="49.34149" lon="-0.58389">
        <ele>-0.161394</ele>
        <time>2022-08-04T13:35:31.000Z</time>
      </trkpt>
      <trkpt lat="49.3415" lon="-0.58383">
        <ele>-0.186278</ele>
        <time>2022-08-04T13:35:32.000Z</time>
      </trkpt>
      <trkpt lat="49.34151" lon="-0.58376">
        <ele>-0.21179</ele>
        <time>2022-08-04T13:35:33.000Z</time>
      </trkpt>
      <trkpt lat="49.34152" lon="-0.58368">
        <ele>-0.239081</ele>
        <time>2022-08-04T13:35:34.000Z</time>
      </trkpt>
      <trkpt lat="49.34151" lon="-0.58361">
        <ele>-0.266735</ele>
        <time>2022-08-04T13:35:35.000Z</time>
      </trkpt>
      <trkpt lat="49.3415" lon="-0.58353">
        <ele>-0.29511</ele>
        <time>2022-08-04T13:35:36.000Z</time>
      </trkpt>
      <trkpt lat="49.34149" lon="-0.58346">
        <ele>-0.324219</ele>
        <time>2022-08-04T13:35:37.000Z</time>
      </trkpt>
      <trkpt lat="49.34146" lon="-0.58339">
        <ele>-0.352259</ele>
        <time>2022-08-04T13:35:38.000Z</time>
      </trkpt>
      <trkpt lat="49.34143" lon="-0.58332">
        <ele>-0.383687</ele>
        <time>2022-08-04T13:35:39.000Z</time>
      </trkpt>
      <trkpt lat="49.34139" lon="-0.58327">
        <ele>-0.414515</ele>
        <time>2022-08-04T13:35:40.000Z</time>
      </trkpt>
      <trkpt lat="49.34133" lon="-0.58322">
        <ele>-0.447868</ele>
        <time>2022-08-04T13:35:41.000Z</time>
      </trkpt>
      <trkpt lat="49.34129" lon="-0.58319">
        <ele>-0.477119</ele>
        <time>2022-08-04T13:35:42.000Z</time>
      </trkpt>
      <trkpt lat="49.34123" lon="-0.58317">
        <ele>-0.509962</ele>
        <time>2022-08-04T13:35:43.000Z</time>
      </trkpt>
      <trkpt lat="49.34117" lon="-0.58316">
        <ele>-0.542941</ele>
        <time>2022-08-04T13:35:44.000Z</time>
      </trkpt>
      <trkpt lat="49.34111" lon="-0.58315">
        <ele>-0.577399</ele>
        <time>2022-08-04T13:35:45.000Z</time>
      </trkpt>
      <trkpt lat="49.34105" lon="-0.58314">
        <ele>-0.609668</ele>
        <time>2022-08-04T13:35:46.000Z</time>
      </trkpt>
      <trkpt lat="49.341" lon="-0.58312">
        <ele>-0.642647</ele>
        <time>2022-08-04T13:35:47.000Z</time>
      </trkpt>
      <trkpt lat="49.34093" lon="-0.58311">
        <ele>-0.677105</ele>
        <time>2022-08-04T13:35:48.000Z</time>
      </trkpt>
      <trkpt lat="49.34088" lon="-0.58311">
        <ele>-0.709255</ele>
        <time>2022-08-04T13:35:49.000Z</time>
      </trkpt>
      <trkpt lat="49.34082" lon="-0.5831">
        <ele>-0.709491</ele>
        <time>2022-08-04T13:35:50.000Z</time>
      </trkpt>
      <trkpt lat="49.34077" lon="-0.58309">
        <ele>-0.70555</ele>
        <time>2022-08-04T13:35:51.000Z</time>
      </trkpt>
      <trkpt lat="49.34071" lon="-0.58309">
        <ele>-0.701375</ele>
        <time>2022-08-04T13:35:52.000Z</time>
      </trkpt>
      <trkpt lat="49.34066" lon="-0.58307">
        <ele>-0.696871</ele>
        <time>2022-08-04T13:35:53.000Z</time>
      </trkpt>
      <trkpt lat="49.34061" lon="-0.58307">
        <ele>-0.693155</ele>
        <time>2022-08-04T13:35:54.000Z</time>
      </trkpt>
      <trkpt lat="49.34055" lon="-0.58306">
        <ele>-0.688969</ele>
        <time>2022-08-04T13:35:55.000Z</time>
      </trkpt>
      <trkpt lat="49.3405" lon="-0.58305">
        <ele>-0.684717</ele>
        <time>2022-08-04T13:35:56.000Z</time>
      </trkpt>
      <trkpt lat="49.34045" lon="-0.58304">
        <ele>-0.680777</ele>
        <time>2022-08-04T13:35:57.000Z</time>
      </trkpt>
      <trkpt lat="49.34039" lon="-0.58304">
        <ele>-0.676618</ele>
        <time>2022-08-04T13:35:58.000Z</time>
      </trkpt>
      <trkpt lat="49.34034" lon="-0.58303">
        <ele>-0.672378</ele>
        <time>2022-08-04T13:35:59.000Z</time>
      </trkpt>
      <trkpt lat="49.34029" lon="-0.58303">
        <ele>-0.668207</ele>
        <time>2022-08-04T13:36:00.000Z</time>
      </trkpt>
      <trkpt lat="49.34024" lon="-0.58302">
        <ele>-0.664479</ele>
        <time>2022-08-04T13:36:01.000Z</time>
      </trkpt>
      <trkpt lat="49.34018" lon="-0.58301">
        <ele>-0.660002</ele>
        <time>2022-08-04T13:36:02.000Z</time>
      </trkpt>
      <trkpt lat="49.34014" lon="-0.583">
        <ele>-0.656837</ele>
        <time>2022-08-04T13:36:03.000Z</time>
      </trkpt>
      <trkpt lat="49.34007" lon="-0.58299">
        <ele>-0.651886</ele>
        <time>2022-08-04T13:36:04.000Z</time>
      </trkpt>
      <trkpt lat="49.34002" lon="-0.58298">
        <ele>-0.647623</ele>
        <time>2022-08-04T13:36:05.000Z</time>
      </trkpt>
      <trkpt lat="49.33996" lon="-0.58297">
        <ele>-0.643208</ele>
        <time>2022-08-04T13:36:06.000Z</time>
      </trkpt>
      <trkpt lat="49.33991" lon="-0.58296">
        <ele>-0.638925</ele>
        <time>2022-08-04T13:36:07.000Z</time>
      </trkpt>
      <trkpt lat="49.33986" lon="-0.58295">
        <ele>-0.634954</ele>
        <time>2022-08-04T13:36:08.000Z</time>
      </trkpt>
      <trkpt lat="49.3398" lon="-0.58294">
        <ele>-0.630762</ele>
        <time>2022-08-04T13:36:09.000Z</time>
      </trkpt>
      <trkpt lat="49.33975" lon="-0.58293">
        <ele>-0.626487</ele>
        <time>2022-08-04T13:36:10.000Z</time>
      </trkpt>
      <trkpt lat="49.3397" lon="-0.58291">
        <ele>-0.622516</ele>
        <time>2022-08-04T13:36:11.000Z</time>
      </trkpt>
      <trkpt lat="49.33965" lon="-0.58291">
        <ele>-0.618579</ele>
        <time>2022-08-04T13:36:12.000Z</time>
      </trkpt>
      <trkpt lat="49.3396" lon="-0.5829">
        <ele>-0.61511</ele>
        <time>2022-08-04T13:36:13.000Z</time>
      </trkpt>
      <trkpt lat="49.33956" lon="-0.5829">
        <ele>-0.612185</ele>
        <time>2022-08-04T13:36:14.000Z</time>
      </trkpt>
      <trkpt lat="49.33953" lon="-0.5829">
        <ele>-0.609414</ele>
        <time>2022-08-04T13:36:15.000Z</time>
      </trkpt>
      <trkpt lat="49.3395" lon="-0.58291">
        <ele>-0.607231</ele>
        <time>2022-08-04T13:36:17.000Z</time>
      </trkpt>
      <trkpt lat="49.33948" lon="-0.58291">
        <ele>-0.605461</ele>
        <time>2022-08-04T13:36:19.000Z</time>
      </trkpt>
      <trkpt lat="49.33939" lon="-0.58289">
        <ele>-0.598751</ele>
        <time>2022-08-04T13:36:43.000Z</time>
      </trkpt>
      <trkpt lat="49.33936" lon="-0.58288">
        <ele>-0.596676</ele>
        <time>2022-08-04T13:36:44.000Z</time>
      </trkpt>
      <trkpt lat="49.33933" lon="-0.58286">
        <ele>-0.594115</ele>
        <time>2022-08-04T13:36:45.000Z</time>
      </trkpt>
      <trkpt lat="49.3393" lon="-0.58285">
        <ele>-0.591567</ele>
        <time>2022-08-04T13:36:46.000Z</time>
      </trkpt>
      <trkpt lat="49.33926" lon="-0.58284">
        <ele>-0.588796</ele>
        <time>2022-08-04T13:36:47.000Z</time>
      </trkpt>
      <trkpt lat="49.33923" lon="-0.58283">
        <ele>-0.586036</ele>
        <time>2022-08-04T13:36:48.000Z</time>
      </trkpt>
      <trkpt lat="49.33919" lon="-0.58282">
        <ele>-0.583008</ele>
        <time>2022-08-04T13:36:49.000Z</time>
      </trkpt>
      <trkpt lat="49.33915" lon="-0.58281">
        <ele>-0.580022</ele>
        <time>2022-08-04T13:36:50.000Z</time>
      </trkpt>
      <trkpt lat="49.33911" lon="-0.5828">
        <ele>-0.576765</ele>
        <time>2022-08-04T13:36:51.000Z</time>
      </trkpt>
      <trkpt lat="49.33908" lon="-0.58279">
        <ele>-0.567715</ele>
        <time>2022-08-04T13:36:52.000Z</time>
      </trkpt>
      <trkpt lat="49.33903" lon="-0.58278">
        <ele>-0.492229</ele>
        <time>2022-08-04T13:36:53.000Z</time>
      </trkpt>
      <trkpt lat="49.33899" lon="-0.58277">
        <ele>-0.432635</ele>
        <time>2022-08-04T13:36:54.000Z</time>
      </trkpt>
      <trkpt lat="49.33894" lon="-0.58276">
        <ele>-0.367363</ele>
        <time>2022-08-04T13:36:55.000Z</time>
      </trkpt>
      <trkpt lat="49.3389" lon="-0.58275">
        <ele>-0.3062</ele>
        <time>2022-08-04T13:36:56.000Z</time>
      </trkpt>
      <trkpt lat="49.33886" lon="-0.58274">
        <ele>-0.24698</ele>
        <time>2022-08-04T13:36:57.000Z</time>
      </trkpt>
      <trkpt lat="49.33881" lon="-0.58273">
        <ele>-0.177671</ele>
        <time>2022-08-04T13:36:58.000Z</time>
      </trkpt>
      <trkpt lat="49.33877" lon="-0.58272">
        <ele>-0.116794</ele>
        <time>2022-08-04T13:36:59.000Z</time>
      </trkpt>
      <trkpt lat="49.33873" lon="-0.58272">
        <ele>-0.051764</ele>
        <time>2022-08-04T13:37:00.000Z</time>
      </trkpt>
      <trkpt lat="49.33868" lon="-0.58271">
        <ele>0.011737</ele>
        <time>2022-08-04T13:37:01.000Z</time>
      </trkpt>
      <trkpt lat="49.33863" lon="-0.5827">
        <ele>0.0808</ele>
        <time>2022-08-04T13:37:02.000Z</time>
      </trkpt>
      <trkpt lat="49.33859" lon="-0.5827">
        <ele>0.15011</ele>
        <time>2022-08-04T13:37:03.000Z</time>
      </trkpt>
      <trkpt lat="49.33853" lon="-0.58269">
        <ele>0.225131</ele>
        <time>2022-08-04T13:37:04.000Z</time>
      </trkpt>
      <trkpt lat="49.33849" lon="-0.58268">
        <ele>0.288852</ele>
        <time>2022-08-04T13:37:05.000Z</time>
      </trkpt>
      <trkpt lat="49.33844" lon="-0.58267">
        <ele>0.364082</ele>
        <time>2022-08-04T13:37:06.000Z</time>
      </trkpt>
      <trkpt lat="49.3384" lon="-0.58266">
        <ele>0.423412</ele>
        <time>2022-08-04T13:37:07.000Z</time>
      </trkpt>
      <trkpt lat="49.33835" lon="-0.58265">
        <ele>0.488442</ele>
        <time>2022-08-04T13:37:08.000Z</time>
      </trkpt>
      <trkpt lat="49.3383" lon="-0.58265">
        <ele>0.557657</ele>
        <time>2022-08-04T13:37:09.000Z</time>
      </trkpt>
      <trkpt lat="49.33826" lon="-0.58264">
        <ele>0.626967</ele>
        <time>2022-08-04T13:37:10.000Z</time>
      </trkpt>
      <trkpt lat="49.33821" lon="-0.58263">
        <ele>0.692111</ele>
        <time>2022-08-04T13:37:11.000Z</time>
      </trkpt>
      <trkpt lat="49.33816" lon="-0.58262">
        <ele>0.765704</ele>
        <time>2022-08-04T13:37:12.000Z</time>
      </trkpt>
      <trkpt lat="49.33811" lon="-0.58261">
        <ele>0.835241</ele>
        <time>2022-08-04T13:37:13.000Z</time>
      </trkpt>
      <trkpt lat="49.33806" lon="-0.5826">
        <ele>0.909307</ele>
        <time>2022-08-04T13:37:14.000Z</time>
      </trkpt>
      <trkpt lat="49.33801" lon="-0.58259">
        <ele>0.978844</ele>
        <time>2022-08-04T13:37:15.000Z</time>
      </trkpt>
      <trkpt lat="49.33796" lon="-0.58258">
        <ele>1.057996</ele>
        <time>2022-08-04T13:37:16.000Z</time>
      </trkpt>
      <trkpt lat="49.33791" lon="-0.58258">
        <ele>1.12706</ele>
        <time>2022-08-04T13:37:17.000Z</time>
      </trkpt>
      <trkpt lat="49.33786" lon="-0.58257">
        <ele>1.204853</ele>
        <time>2022-08-04T13:37:18.000Z</time>
      </trkpt>
      <trkpt lat="49.33781" lon="-0.58256">
        <ele>1.27439</ele>
        <time>2022-08-04T13:37:19.000Z</time>
      </trkpt>
      <trkpt lat="49.33775" lon="-0.58255">
        <ele>1.35247</ele>
        <time>2022-08-04T13:37:20.000Z</time>
      </trkpt>
      <trkpt lat="49.3377" lon="-0.58254">
        <ele>1.431975</ele>
        <time>2022-08-04T13:37:21.000Z</time>
      </trkpt>
      <trkpt lat="49.33765" lon="-0.58253">
        <ele>1.50119</ele>
        <time>2022-08-04T13:37:22.000Z</time>
      </trkpt>
      <trkpt lat="49.3376" lon="-0.58253">
        <ele>1.574616</ele>
        <time>2022-08-04T13:37:23.000Z</time>
      </trkpt>
      <trkpt lat="49.33755" lon="-0.58252">
        <ele>1.644153</ele>
        <time>2022-08-04T13:37:24.000Z</time>
      </trkpt>
      <trkpt lat="49.3375" lon="-0.58251">
        <ele>1.71822</ele>
        <time>2022-08-04T13:37:25.000Z</time>
      </trkpt>
      <trkpt lat="49.33745" lon="-0.5825">
        <ele>1.787283</ele>
        <time>2022-08-04T13:37:26.000Z</time>
      </trkpt>
      <trkpt lat="49.33741" lon="-0.5825">
        <ele>1.856346</ele>
        <time>2022-08-04T13:37:27.000Z</time>
      </trkpt>
      <trkpt lat="49.33736" lon="-0.58249">
        <ele>1.921275</ele>
        <time>2022-08-04T13:37:28.000Z</time>
      </trkpt>
      <trkpt lat="49.33732" lon="-0.58248">
        <ele>1.982438</ele>
        <time>2022-08-04T13:37:29.000Z</time>
      </trkpt>
      <trkpt lat="49.33728" lon="-0.58247">
        <ele>2.078012</ele>
        <time>2022-08-04T13:37:30.000Z</time>
      </trkpt>
      <trkpt lat="49.33724" lon="-0.58246">
        <ele>2.201253</ele>
        <time>2022-08-04T13:37:31.000Z</time>
      </trkpt>
      <trkpt lat="49.33719" lon="-0.58246">
        <ele>2.321419</ele>
        <time>2022-08-04T13:37:32.000Z</time>
      </trkpt>
      <trkpt lat="49.33715" lon="-0.58245">
        <ele>2.444498</ele>
        <time>2022-08-04T13:37:33.000Z</time>
      </trkpt>
      <trkpt lat="49.33711" lon="-0.58245">
        <ele>2.576318</ele>
        <time>2022-08-04T13:37:34.000Z</time>
      </trkpt>
      <trkpt lat="49.33707" lon="-0.58244">
        <ele>2.679441</ele>
        <time>2022-08-04T13:37:35.000Z</time>
      </trkpt>
      <trkpt lat="49.33703" lon="-0.58243">
        <ele>2.791504</ele>
        <time>2022-08-04T13:37:36.000Z</time>
      </trkpt>
      <trkpt lat="49.337" lon="-0.58242">
        <ele>2.906731</ele>
        <time>2022-08-04T13:37:37.000Z</time>
      </trkpt>
      <trkpt lat="49.33695" lon="-0.58242">
        <ele>3.026535</ele>
        <time>2022-08-04T13:37:38.000Z</time>
      </trkpt>
      <trkpt lat="49.33691" lon="-0.58242">
        <ele>3.15801</ele>
        <time>2022-08-04T13:37:39.000Z</time>
      </trkpt>
      <trkpt lat="49.33687" lon="-0.58242">
        <ele>3.280721</ele>
        <time>2022-08-04T13:37:40.000Z</time>
      </trkpt>
      <trkpt lat="49.33684" lon="-0.58242">
        <ele>3.374214</ele>
        <time>2022-08-04T13:37:41.000Z</time>
      </trkpt>
      <trkpt lat="49.33678" lon="-0.58243">
        <ele>3.523329</ele>
        <time>2022-08-04T13:37:42.000Z</time>
      </trkpt>
      <trkpt lat="49.33674" lon="-0.58243">
        <ele>3.646099</ele>
        <time>2022-08-04T13:37:43.000Z</time>
      </trkpt>
      <trkpt lat="49.3367" lon="-0.58243">
        <ele>3.765903</ele>
        <time>2022-08-04T13:37:44.000Z</time>
      </trkpt>
      <trkpt lat="49.33666" lon="-0.58243">
        <ele>3.888628</ele>
        <time>2022-08-04T13:37:45.000Z</time>
      </trkpt>
      <trkpt lat="49.33662" lon="-0.58243">
        <ele>3.990904</ele>
        <time>2022-08-04T13:37:46.000Z</time>
      </trkpt>
      <trkpt lat="49.33657" lon="-0.58243">
        <ele>4.148858</ele>
        <time>2022-08-04T13:37:47.000Z</time>
      </trkpt>
      <trkpt lat="49.33653" lon="-0.58244">
        <ele>4.271937</ele>
        <time>2022-08-04T13:37:48.000Z</time>
      </trkpt>
      <trkpt lat="49.33649" lon="-0.58245">
        <ele>4.395589</ele>
        <time>2022-08-04T13:37:49.000Z</time>
      </trkpt>
      <trkpt lat="49.33645" lon="-0.58245">
        <ele>4.498976</ele>
        <time>2022-08-04T13:37:50.000Z</time>
      </trkpt>
      <trkpt lat="49.3364" lon="-0.58246">
        <ele>4.649193</ele>
        <time>2022-08-04T13:37:51.000Z</time>
      </trkpt>
      <trkpt lat="49.33636" lon="-0.58247">
        <ele>4.772139</ele>
        <time>2022-08-04T13:37:52.000Z</time>
      </trkpt>
      <trkpt lat="49.33631" lon="-0.58247">
        <ele>4.90082</ele>
        <time>2022-08-04T13:37:53.000Z</time>
      </trkpt>
      <trkpt lat="49.33627" lon="-0.58248">
        <ele>5.023899</ele>
        <time>2022-08-04T13:37:54.000Z</time>
      </trkpt>
      <trkpt lat="49.33623" lon="-0.58248">
        <ele>5.147331</ele>
        <time>2022-08-04T13:37:55.000Z</time>
      </trkpt>
      <trkpt lat="49.33619" lon="-0.58249">
        <ele>5.276391</ele>
        <time>2022-08-04T13:37:56.000Z</time>
      </trkpt>
      <trkpt lat="49.33614" lon="-0.5825">
        <ele>5.399823</ele>
        <time>2022-08-04T13:37:57.000Z</time>
      </trkpt>
      <trkpt lat="49.3361" lon="-0.5825">
        <ele>5.531643</ele>
        <time>2022-08-04T13:37:58.000Z</time>
      </trkpt>
      <trkpt lat="49.33605" lon="-0.5825">
        <ele>5.663242</ele>
        <time>2022-08-04T13:37:59.000Z</time>
      </trkpt>
      <trkpt lat="49.33601" lon="-0.58249">
        <ele>5.78425</ele>
        <time>2022-08-04T13:38:00.000Z</time>
      </trkpt>
      <trkpt lat="49.33597" lon="-0.58247">
        <ele>5.910685</ele>
        <time>2022-08-04T13:38:01.000Z</time>
      </trkpt>
      <trkpt lat="49.33593" lon="-0.58245">
        <ele>6.047563</ele>
        <time>2022-08-04T13:38:02.000Z</time>
      </trkpt>
      <trkpt lat="49.33589" lon="-0.58243">
        <ele>6.176461</ele>
        <time>2022-08-04T13:38:03.000Z</time>
      </trkpt>
      <trkpt lat="49.33585" lon="-0.5824">
        <ele>6.290913</ele>
        <time>2022-08-04T13:38:04.000Z</time>
      </trkpt>
      <trkpt lat="49.33581" lon="-0.58236">
        <ele>6.447838</ele>
        <time>2022-08-04T13:38:05.000Z</time>
      </trkpt>
      <trkpt lat="49.33577" lon="-0.58231">
        <ele>6.58498</ele>
        <time>2022-08-04T13:38:06.000Z</time>
      </trkpt>
      <trkpt lat="49.33574" lon="-0.58225">
        <ele>6.725356</ele>
        <time>2022-08-04T13:38:07.000Z</time>
      </trkpt>
      <trkpt lat="49.33571" lon="-0.58219">
        <ele>6.860957</ele>
        <time>2022-08-04T13:38:08.000Z</time>
      </trkpt>
      <trkpt lat="49.33569" lon="-0.58213">
        <ele>6.999729</ele>
        <time>2022-08-04T13:38:09.000Z</time>
      </trkpt>
      <trkpt lat="49.33566" lon="-0.58208">
        <ele>7.125856</ele>
        <time>2022-08-04T13:38:10.000Z</time>
      </trkpt>
      <trkpt lat="49.33564" lon="-0.58202">
        <ele>7.259884</ele>
        <time>2022-08-04T13:38:11.000Z</time>
      </trkpt>
      <trkpt lat="49.33561" lon="-0.58196">
        <ele>7.391077</ele>
        <time>2022-08-04T13:38:12.000Z</time>
      </trkpt>
      <trkpt lat="49.33559" lon="-0.5819">
        <ele>7.523742</ele>
        <time>2022-08-04T13:38:13.000Z</time>
      </trkpt>
      <trkpt lat="49.33557" lon="-0.58184">
        <ele>7.650499</ele>
        <time>2022-08-04T13:38:14.000Z</time>
      </trkpt>
      <trkpt lat="49.33553" lon="-0.58178">
        <ele>7.786253</ele>
        <time>2022-08-04T13:38:15.000Z</time>
      </trkpt>
      <trkpt lat="49.33551" lon="-0.58173">
        <ele>7.911356</ele>
        <time>2022-08-04T13:38:16.000Z</time>
      </trkpt>
      <trkpt lat="49.33549" lon="-0.58169">
        <ele>8.010571</ele>
        <time>2022-08-04T13:38:17.000Z</time>
      </trkpt>
      <trkpt lat="49.33545" lon="-0.58162">
        <ele>8.177356</ele>
        <time>2022-08-04T13:38:18.000Z</time>
      </trkpt>
      <trkpt lat="49.33542" lon="-0.58156">
        <ele>8.313232</ele>
        <time>2022-08-04T13:38:19.000Z</time>
      </trkpt>
      <trkpt lat="49.3354" lon="-0.58149">
        <ele>8.447797</ele>
        <time>2022-08-04T13:38:20.000Z</time>
      </trkpt>
      <trkpt lat="49.33537" lon="-0.58143">
        <ele>8.580474</ele>
        <time>2022-08-04T13:38:21.000Z</time>
      </trkpt>
      <trkpt lat="49.33534" lon="-0.58137">
        <ele>8.728999</ele>
        <time>2022-08-04T13:38:22.000Z</time>
      </trkpt>
      <trkpt lat="49.33531" lon="-0.58131">
        <ele>8.861665</ele>
        <time>2022-08-04T13:38:23.000Z</time>
      </trkpt>
      <trkpt lat="49.33529" lon="-0.58125">
        <ele>8.995867</ele>
        <time>2022-08-04T13:38:24.000Z</time>
      </trkpt>
      <trkpt lat="49.33525" lon="-0.58119">
        <ele>9.13862</ele>
        <time>2022-08-04T13:38:25.000Z</time>
      </trkpt>
      <trkpt lat="49.33523" lon="-0.58114">
        <ele>9.249699</ele>
        <time>2022-08-04T13:38:26.000Z</time>
      </trkpt>
      <trkpt lat="49.3352" lon="-0.58106">
        <ele>9.417846</ele>
        <time>2022-08-04T13:38:27.000Z</time>
      </trkpt>
      <trkpt lat="49.33517" lon="-0.581">
        <ele>9.555145</ele>
        <time>2022-08-04T13:38:28.000Z</time>
      </trkpt>
      <trkpt lat="49.33515" lon="-0.58093">
        <ele>9.697074</ele>
        <time>2022-08-04T13:38:29.000Z</time>
      </trkpt>
      <trkpt lat="49.33511" lon="-0.58087">
        <ele>9.848538</ele>
        <time>2022-08-04T13:38:30.000Z</time>
      </trkpt>
      <trkpt lat="49.33508" lon="-0.5808">
        <ele>10.0056</ele>
        <time>2022-08-04T13:38:31.000Z</time>
      </trkpt>
      <trkpt lat="49.33505" lon="-0.58074">
        <ele>10.147529</ele>
        <time>2022-08-04T13:38:32.000Z</time>
      </trkpt>
      <trkpt lat="49.33501" lon="-0.58068">
        <ele>10.297695</ele>
        <time>2022-08-04T13:38:33.000Z</time>
      </trkpt>
      <trkpt lat="49.33498" lon="-0.58062">
        <ele>10.445962</ele>
        <time>2022-08-04T13:38:34.000Z</time>
      </trkpt>
      <trkpt lat="49.33495" lon="-0.58056">
        <ele>10.576225</ele>
        <time>2022-08-04T13:38:35.000Z</time>
      </trkpt>
      <trkpt lat="49.33492" lon="-0.58051">
        <ele>10.712594</ele>
        <time>2022-08-04T13:38:36.000Z</time>
      </trkpt>
      <trkpt lat="49.33488" lon="-0.58046">
        <ele>10.856793</ele>
        <time>2022-08-04T13:38:37.000Z</time>
      </trkpt>
      <trkpt lat="49.33485" lon="-0.5804">
        <ele>10.992548</ele>
        <time>2022-08-04T13:38:38.000Z</time>
      </trkpt>
      <trkpt lat="49.33481" lon="-0.58035">
        <ele>11.140136</ele>
        <time>2022-08-04T13:38:39.000Z</time>
      </trkpt>
      <trkpt lat="49.33477" lon="-0.58029">
        <ele>11.281092</ele>
        <time>2022-08-04T13:38:40.000Z</time>
      </trkpt>
      <trkpt lat="49.33474" lon="-0.58024">
        <ele>11.424947</ele>
        <time>2022-08-04T13:38:41.000Z</time>
      </trkpt>
      <trkpt lat="49.33469" lon="-0.58019">
        <ele>11.577422</ele>
        <time>2022-08-04T13:38:42.000Z</time>
      </trkpt>
      <trkpt lat="49.33466" lon="-0.58014">
        <ele>11.712531</ele>
        <time>2022-08-04T13:38:43.000Z</time>
      </trkpt>
      <trkpt lat="49.33462" lon="-0.58009">
        <ele>11.857618</ele>
        <time>2022-08-04T13:38:44.000Z</time>
      </trkpt>
      <trkpt lat="49.33458" lon="-0.58003">
        <ele>12.004808</ele>
        <time>2022-08-04T13:38:45.000Z</time>
      </trkpt>
      <trkpt lat="49.33455" lon="-0.57998">
        <ele>12.139195</ele>
        <time>2022-08-04T13:38:46.000Z</time>
      </trkpt>
      <trkpt lat="49.33451" lon="-0.57993">
        <ele>12.281831</ele>
        <time>2022-08-04T13:38:47.000Z</time>
      </trkpt>
      <trkpt lat="49.33447" lon="-0.57988">
        <ele>12.38264</ele>
        <time>2022-08-04T13:38:48.000Z</time>
      </trkpt>
      <trkpt lat="49.33444" lon="-0.57983">
        <ele>12.449471</ele>
        <time>2022-08-04T13:38:49.000Z</time>
      </trkpt>
      <trkpt lat="49.3344" lon="-0.57978">
        <ele>12.516647</ele>
        <time>2022-08-04T13:38:50.000Z</time>
      </trkpt>
      <trkpt lat="49.33436" lon="-0.57974">
        <ele>12.582712</ele>
        <time>2022-08-04T13:38:51.000Z</time>
      </trkpt>
      <trkpt lat="49.33432" lon="-0.57969">
        <ele>12.650966</ele>
        <time>2022-08-04T13:38:52.000Z</time>
      </trkpt>
      <trkpt lat="49.33429" lon="-0.57964">
        <ele>12.716783</ele>
        <time>2022-08-04T13:38:53.000Z</time>
      </trkpt>
      <trkpt lat="49.33426" lon="-0.57959">
        <ele>12.77964</ele>
        <time>2022-08-04T13:38:54.000Z</time>
      </trkpt>
      <trkpt lat="49.33422" lon="-0.57954">
        <ele>12.848537</ele>
        <time>2022-08-04T13:38:55.000Z</time>
      </trkpt>
      <trkpt lat="49.33418" lon="-0.57949">
        <ele>12.918484</ele>
        <time>2022-08-04T13:38:56.000Z</time>
      </trkpt>
      <trkpt lat="49.33414" lon="-0.57944">
        <ele>12.984916</ele>
        <time>2022-08-04T13:38:57.000Z</time>
      </trkpt>
      <trkpt lat="49.33411" lon="-0.57939">
        <ele>13.053232</ele>
        <time>2022-08-04T13:38:58.000Z</time>
      </trkpt>
      <trkpt lat="49.33407" lon="-0.57934">
        <ele>13.122043</ele>
        <time>2022-08-04T13:38:59.000Z</time>
      </trkpt>
      <trkpt lat="49.33403" lon="-0.57929">
        <ele>13.18922</ele>
        <time>2022-08-04T13:39:00.000Z</time>
      </trkpt>
      <trkpt lat="49.33399" lon="-0.57925">
        <ele>13.261298</ele>
        <time>2022-08-04T13:39:01.000Z</time>
      </trkpt>
      <trkpt lat="49.33395" lon="-0.5792">
        <ele>13.329041</ele>
        <time>2022-08-04T13:39:02.000Z</time>
      </trkpt>
      <trkpt lat="49.33391" lon="-0.57915">
        <ele>13.402206</ele>
        <time>2022-08-04T13:39:03.000Z</time>
      </trkpt>
      <trkpt lat="49.33387" lon="-0.5791">
        <ele>13.470522</ele>
        <time>2022-08-04T13:39:04.000Z</time>
      </trkpt>
      <trkpt lat="49.33383" lon="-0.57905">
        <ele>13.542601</ele>
        <time>2022-08-04T13:39:05.000Z</time>
      </trkpt>
      <trkpt lat="49.33379" lon="-0.579">
        <ele>13.611498</ele>
        <time>2022-08-04T13:39:06.000Z</time>
      </trkpt>
      <trkpt lat="49.33375" lon="-0.57895">
        <ele>13.683045</ele>
        <time>2022-08-04T13:39:07.000Z</time>
      </trkpt>
      <trkpt lat="49.3337" lon="-0.57891">
        <ele>13.756973</ele>
        <time>2022-08-04T13:39:08.000Z</time>
      </trkpt>
      <trkpt lat="49.33366" lon="-0.57886">
        <ele>13.829054</ele>
        <time>2022-08-04T13:39:09.000Z</time>
      </trkpt>
      <trkpt lat="49.33362" lon="-0.57881">
        <ele>13.902772</ele>
        <time>2022-08-04T13:39:10.000Z</time>
      </trkpt>
      <trkpt lat="49.33358" lon="-0.57875">
        <ele>13.974057</ele>
        <time>2022-08-04T13:39:11.000Z</time>
      </trkpt>
      <trkpt lat="49.33354" lon="-0.5787">
        <ele>14.050053</ele>
        <time>2022-08-04T13:39:12.000Z</time>
      </trkpt>
      <trkpt lat="49.33349" lon="-0.57864">
        <ele>14.134143</ele>
        <time>2022-08-04T13:39:13.000Z</time>
      </trkpt>
      <trkpt lat="49.33345" lon="-0.57858">
        <ele>14.215029</ele>
        <time>2022-08-04T13:39:14.000Z</time>
      </trkpt>
      <trkpt lat="49.3334" lon="-0.57852">
        <ele>14.295454</ele>
        <time>2022-08-04T13:39:15.000Z</time>
      </trkpt>
      <trkpt lat="49.33335" lon="-0.57846">
        <ele>14.380665</ele>
        <time>2022-08-04T13:39:16.000Z</time>
      </trkpt>
      <trkpt lat="49.33331" lon="-0.5784">
        <ele>14.462717</ele>
        <time>2022-08-04T13:39:17.000Z</time>
      </trkpt>
      <trkpt lat="49.33326" lon="-0.57834">
        <ele>14.546558</ele>
        <time>2022-08-04T13:39:18.000Z</time>
      </trkpt>
      <trkpt lat="49.33322" lon="-0.57828">
        <ele>14.629797</ele>
        <time>2022-08-04T13:39:19.000Z</time>
      </trkpt>
      <trkpt lat="49.33317" lon="-0.57822">
        <ele>14.715009</ele>
        <time>2022-08-04T13:39:20.000Z</time>
      </trkpt>
      <trkpt lat="49.33313" lon="-0.57816">
        <ele>14.792988</ele>
        <time>2022-08-04T13:39:21.000Z</time>
      </trkpt>
      <trkpt lat="49.33309" lon="-0.5781">
        <ele>14.833783</ele>
        <time>2022-08-04T13:39:22.000Z</time>
      </trkpt>
      <trkpt lat="49.33304" lon="-0.57804">
        <ele>14.85432</ele>
        <time>2022-08-04T13:39:23.000Z</time>
      </trkpt>
      <trkpt lat="49.33301" lon="-0.57798">
        <ele>14.87417</ele>
        <time>2022-08-04T13:39:24.000Z</time>
      </trkpt>
      <trkpt lat="49.33297" lon="-0.57792">
        <ele>14.893934</ele>
        <time>2022-08-04T13:39:25.000Z</time>
      </trkpt>
      <trkpt lat="49.33293" lon="-0.57786">
        <ele>14.913616</ele>
        <time>2022-08-04T13:39:26.000Z</time>
      </trkpt>
      <trkpt lat="49.33289" lon="-0.5778">
        <ele>14.934153</ele>
        <time>2022-08-04T13:39:27.000Z</time>
      </trkpt>
      <trkpt lat="49.33285" lon="-0.57774">
        <ele>14.954754</ele>
        <time>2022-08-04T13:39:28.000Z</time>
      </trkpt>
      <trkpt lat="49.33281" lon="-0.57767">
        <ele>14.975019</ele>
        <time>2022-08-04T13:39:29.000Z</time>
      </trkpt>
      <trkpt lat="49.33277" lon="-0.57761">
        <ele>14.99595</ele>
        <time>2022-08-04T13:39:30.000Z</time>
      </trkpt>
      <trkpt lat="49.33272" lon="-0.57755">
        <ele>15.016647</ele>
        <time>2022-08-04T13:39:31.000Z</time>
      </trkpt>
      <trkpt lat="49.33268" lon="-0.57749">
        <ele>15.037982</ele>
        <time>2022-08-04T13:39:32.000Z</time>
      </trkpt>
      <trkpt lat="49.33264" lon="-0.57743">
        <ele>15.058098</ele>
        <time>2022-08-04T13:39:33.000Z</time>
      </trkpt>
      <trkpt lat="49.33259" lon="-0.57737">
        <ele>15.07913</ele>
        <time>2022-08-04T13:39:34.000Z</time>
      </trkpt>
      <trkpt lat="49.33255" lon="-0.57731">
        <ele>15.099352</ele>
        <time>2022-08-04T13:39:35.000Z</time>
      </trkpt>
      <trkpt lat="49.33251" lon="-0.57725">
        <ele>15.120264</ele>
        <time>2022-08-04T13:39:36.000Z</time>
      </trkpt>
      <trkpt lat="49.33246" lon="-0.5772">
        <ele>15.14213</ele>
        <time>2022-08-04T13:39:37.000Z</time>
      </trkpt>
      <trkpt lat="49.33241" lon="-0.57714">
        <ele>15.163995</ele>
        <time>2022-08-04T13:39:38.000Z</time>
      </trkpt>
      <trkpt lat="49.33236" lon="-0.57708">
        <ele>15.186866</ele>
        <time>2022-08-04T13:39:39.000Z</time>
      </trkpt>
      <trkpt lat="49.33231" lon="-0.57702">
        <ele>15.209446</ele>
        <time>2022-08-04T13:39:40.000Z</time>
      </trkpt>
      <trkpt lat="49.33226" lon="-0.57697">
        <ele>15.23189</ele>
        <time>2022-08-04T13:39:41.000Z</time>
      </trkpt>
      <trkpt lat="49.33221" lon="-0.57691">
        <ele>15.25333</ele>
        <time>2022-08-04T13:39:42.000Z</time>
      </trkpt>
      <trkpt lat="49.33215" lon="-0.57686">
        <ele>15.276526</ele>
        <time>2022-08-04T13:39:43.000Z</time>
      </trkpt>
      <trkpt lat="49.3321" lon="-0.5768">
        <ele>15.30002</ele>
        <time>2022-08-04T13:39:44.000Z</time>
      </trkpt>
      <trkpt lat="49.33205" lon="-0.57675">
        <ele>15.321935</ele>
        <time>2022-08-04T13:39:45.000Z</time>
      </trkpt>
      <trkpt lat="49.33199" lon="-0.5767">
        <ele>15.344751</ele>
        <time>2022-08-04T13:39:46.000Z</time>
      </trkpt>
      <trkpt lat="49.33194" lon="-0.57664">
        <ele>15.368246</ele>
        <time>2022-08-04T13:39:47.000Z</time>
      </trkpt>
      <trkpt lat="49.33189" lon="-0.57659">
        <ele>15.391571</ele>
        <time>2022-08-04T13:39:48.000Z</time>
      </trkpt>
      <trkpt lat="49.33183" lon="-0.57654">
        <ele>15.413485</ele>
        <time>2022-08-04T13:39:49.000Z</time>
      </trkpt>
      <trkpt lat="49.33178" lon="-0.57648">
        <ele>15.43698</ele>
        <time>2022-08-04T13:39:50.000Z</time>
      </trkpt>
      <trkpt lat="49.33173" lon="-0.57643">
        <ele>15.460176</ele>
        <time>2022-08-04T13:39:51.000Z</time>
      </trkpt>
      <trkpt lat="49.33167" lon="-0.57637">
        <ele>15.448155</ele>
        <time>2022-08-04T13:39:52.000Z</time>
      </trkpt>
      <trkpt lat="49.33162" lon="-0.57631">
        <ele>15.429154</ele>
        <time>2022-08-04T13:39:53.000Z</time>
      </trkpt>
      <trkpt lat="49.33157" lon="-0.57626">
        <ele>15.410599</ele>
        <time>2022-08-04T13:39:54.000Z</time>
      </trkpt>
      <trkpt lat="49.33151" lon="-0.5762">
        <ele>15.392754</ele>
        <time>2022-08-04T13:39:55.000Z</time>
      </trkpt>
      <trkpt lat="49.33146" lon="-0.57615">
        <ele>15.374566</ele>
        <time>2022-08-04T13:39:56.000Z</time>
      </trkpt>
      <trkpt lat="49.33141" lon="-0.57609">
        <ele>15.356011</ele>
        <time>2022-08-04T13:39:57.000Z</time>
      </trkpt>
      <trkpt lat="49.33136" lon="-0.57603">
        <ele>15.339066</ele>
        <time>2022-08-04T13:39:58.000Z</time>
      </trkpt>
      <trkpt lat="49.33132" lon="-0.57598">
        <ele>15.321804</ele>
        <time>2022-08-04T13:39:59.000Z</time>
      </trkpt>
      <trkpt lat="49.33126" lon="-0.57592">
        <ele>15.303958</ele>
        <time>2022-08-04T13:40:00.000Z</time>
      </trkpt>
      <trkpt lat="49.33122" lon="-0.57587">
        <ele>15.287253</ele>
        <time>2022-08-04T13:40:01.000Z</time>
      </trkpt>
      <trkpt lat="49.33118" lon="-0.57581">
        <ele>15.271905</ele>
        <time>2022-08-04T13:40:02.000Z</time>
      </trkpt>
      <trkpt lat="49.33114" lon="-0.57577">
        <ele>15.258047</ele>
        <time>2022-08-04T13:40:03.000Z</time>
      </trkpt>
      <trkpt lat="49.33111" lon="-0.57573">
        <ele>15.246463</ele>
        <time>2022-08-04T13:40:04.000Z</time>
      </trkpt>
      <trkpt lat="49.33108" lon="-0.5757">
        <ele>15.237602</ele>
        <time>2022-08-04T13:40:05.000Z</time>
      </trkpt>
      <trkpt lat="49.33106" lon="-0.57568">
        <ele>15.228614</ele>
        <time>2022-08-04T13:40:06.000Z</time>
      </trkpt>
      <trkpt lat="49.33103" lon="-0.57565">
        <ele>15.218903</ele>
        <time>2022-08-04T13:40:07.000Z</time>
      </trkpt>
      <trkpt lat="49.33101" lon="-0.57562">
        <ele>15.210477</ele>
        <time>2022-08-04T13:40:08.000Z</time>
      </trkpt>
      <trkpt lat="49.33098" lon="-0.57559">
        <ele>15.201164</ele>
        <time>2022-08-04T13:40:09.000Z</time>
      </trkpt>
      <trkpt lat="49.33095" lon="-0.57556">
        <ele>15.191046</ele>
        <time>2022-08-04T13:40:10.000Z</time>
      </trkpt>
      <trkpt lat="49.33092" lon="-0.57553">
        <ele>15.181051</ele>
        <time>2022-08-04T13:40:11.000Z</time>
      </trkpt>
      <trkpt lat="49.3309" lon="-0.57549">
        <ele>15.171149</ele>
        <time>2022-08-04T13:40:12.000Z</time>
      </trkpt>
      <trkpt lat="49.33087" lon="-0.57546">
        <ele>15.161836</ele>
        <time>2022-08-04T13:40:13.000Z</time>
      </trkpt>
      <trkpt lat="49.33083" lon="-0.57541">
        <ele>15.147863</ele>
        <time>2022-08-04T13:40:14.000Z</time>
      </trkpt>
      <trkpt lat="49.3308" lon="-0.57538">
        <ele>15.137184</ele>
        <time>2022-08-04T13:40:15.000Z</time>
      </trkpt>
      <trkpt lat="49.33077" lon="-0.57534">
        <ele>15.125368</ele>
        <time>2022-08-04T13:40:16.000Z</time>
      </trkpt>
      <trkpt lat="49.33074" lon="-0.57529">
        <ele>15.112942</ele>
        <time>2022-08-04T13:40:17.000Z</time>
      </trkpt>
      <trkpt lat="49.3307" lon="-0.57525">
        <ele>15.09829</ele>
        <time>2022-08-04T13:40:18.000Z</time>
      </trkpt>
      <trkpt lat="49.33065" lon="-0.5752">
        <ele>15.081888</ele>
        <time>2022-08-04T13:40:19.000Z</time>
      </trkpt>
      <trkpt lat="49.33061" lon="-0.57515">
        <ele>15.065761</ele>
        <time>2022-08-04T13:40:20.000Z</time>
      </trkpt>
      <trkpt lat="49.33055" lon="-0.57509">
        <ele>15.048127</ele>
        <time>2022-08-04T13:40:21.000Z</time>
      </trkpt>
      <trkpt lat="49.3305" lon="-0.57504">
        <ele>15.030046</ele>
        <time>2022-08-04T13:40:22.000Z</time>
      </trkpt>
      <trkpt lat="49.33045" lon="-0.57499">
        <ele>15.012516</ele>
        <time>2022-08-04T13:40:23.000Z</time>
      </trkpt>
      <trkpt lat="49.3304" lon="-0.57493">
        <ele>14.994882</ele>
        <time>2022-08-04T13:40:24.000Z</time>
      </trkpt>
      <trkpt lat="49.33035" lon="-0.57488">
        <ele>14.976118</ele>
        <time>2022-08-04T13:40:25.000Z</time>
      </trkpt>
      <trkpt lat="49.33029" lon="-0.57481">
        <ele>14.955881</ele>
        <time>2022-08-04T13:40:26.000Z</time>
      </trkpt>
      <trkpt lat="49.33023" lon="-0.57475">
        <ele>14.933558</ele>
        <time>2022-08-04T13:40:27.000Z</time>
      </trkpt>
      <trkpt lat="49.33017" lon="-0.57469">
        <ele>14.908164</ele>
        <time>2022-08-04T13:40:28.000Z</time>
      </trkpt>
      <trkpt lat="49.33012" lon="-0.57463">
        <ele>14.885471</ele>
        <time>2022-08-04T13:40:29.000Z</time>
      </trkpt>
      <trkpt lat="49.33006" lon="-0.57456">
        <ele>14.860686</ele>
        <time>2022-08-04T13:40:30.000Z</time>
      </trkpt>
      <trkpt lat="49.33001" lon="-0.5745">
        <ele>14.836033</ele>
        <time>2022-08-04T13:40:31.000Z</time>
      </trkpt>
      <trkpt lat="49.32995" lon="-0.57444">
        <ele>14.811924</ele>
        <time>2022-08-04T13:40:32.000Z</time>
      </trkpt>
      <trkpt lat="49.32989" lon="-0.57438">
        <ele>14.788648</ele>
        <time>2022-08-04T13:40:33.000Z</time>
      </trkpt>
      <trkpt lat="49.32984" lon="-0.57433">
        <ele>14.765164</ele>
        <time>2022-08-04T13:40:34.000Z</time>
      </trkpt>
      <trkpt lat="49.32978" lon="-0.57427">
        <ele>14.741142</ele>
        <time>2022-08-04T13:40:35.000Z</time>
      </trkpt>
      <trkpt lat="49.32973" lon="-0.57421">
        <ele>14.718153</ele>
        <time>2022-08-04T13:40:36.000Z</time>
      </trkpt>
      <trkpt lat="49.32967" lon="-0.57415">
        <ele>14.693882</ele>
        <time>2022-08-04T13:40:37.000Z</time>
      </trkpt>
      <trkpt lat="49.32961" lon="-0.5741">
        <ele>14.670276</ele>
        <time>2022-08-04T13:40:38.000Z</time>
      </trkpt>
      <trkpt lat="49.32955" lon="-0.57404">
        <ele>14.646006</ele>
        <time>2022-08-04T13:40:39.000Z</time>
      </trkpt>
      <trkpt lat="49.32949" lon="-0.57398">
        <ele>14.62186</ele>
        <time>2022-08-04T13:40:40.000Z</time>
      </trkpt>
      <trkpt lat="49.32943" lon="-0.57392">
        <ele>14.597127</ele>
        <time>2022-08-04T13:40:41.000Z</time>
      </trkpt>
      <trkpt lat="49.32937" lon="-0.57387">
        <ele>14.572218</ele>
        <time>2022-08-04T13:40:42.000Z</time>
      </trkpt>
      <trkpt lat="49.32931" lon="-0.57381">
        <ele>14.547189</ele>
        <time>2022-08-04T13:40:43.000Z</time>
      </trkpt>
      <trkpt lat="49.32925" lon="-0.57376">
        <ele>14.522141</ele>
        <time>2022-08-04T13:40:44.000Z</time>
      </trkpt>
      <trkpt lat="49.32918" lon="-0.57372">
        <ele>14.497066</ele>
        <time>2022-08-04T13:40:45.000Z</time>
      </trkpt>
      <trkpt lat="49.32911" lon="-0.57369">
        <ele>14.472593</ele>
        <time>2022-08-04T13:40:46.000Z</time>
      </trkpt>
      <trkpt lat="49.32904" lon="-0.57366">
        <ele>14.446165</ele>
        <time>2022-08-04T13:40:47.000Z</time>
      </trkpt>
      <trkpt lat="49.32897" lon="-0.57364">
        <ele>14.42248</ele>
        <time>2022-08-04T13:40:48.000Z</time>
      </trkpt>
      <trkpt lat="49.3289" lon="-0.57364">
        <ele>14.396607</ele>
        <time>2022-08-04T13:40:49.000Z</time>
      </trkpt>
      <trkpt lat="49.32883" lon="-0.57364">
        <ele>14.371146</ele>
        <time>2022-08-04T13:40:50.000Z</time>
      </trkpt>
      <trkpt lat="49.32876" lon="-0.57364">
        <ele>14.347376</ele>
        <time>2022-08-04T13:40:51.000Z</time>
      </trkpt>
      <trkpt lat="49.32869" lon="-0.57365">
        <ele>14.321793</ele>
        <time>2022-08-04T13:40:52.000Z</time>
      </trkpt>
      <trkpt lat="49.32862" lon="-0.57367">
        <ele>14.250341</ele>
        <time>2022-08-04T13:40:53.000Z</time>
      </trkpt>
      <trkpt lat="49.32855" lon="-0.5737">
        <ele>14.179954</ele>
        <time>2022-08-04T13:40:54.000Z</time>
      </trkpt>
      <trkpt lat="49.32848" lon="-0.57373">
        <ele>14.101993</ele>
        <time>2022-08-04T13:40:55.000Z</time>
      </trkpt>
      <trkpt lat="49.32842" lon="-0.57375">
        <ele>14.031936</ele>
        <time>2022-08-04T13:40:56.000Z</time>
      </trkpt>
      <trkpt lat="49.32835" lon="-0.57377">
        <ele>13.956048</ele>
        <time>2022-08-04T13:40:57.000Z</time>
      </trkpt>
      <trkpt lat="49.32829" lon="-0.57379">
        <ele>13.885829</ele>
        <time>2022-08-04T13:40:58.000Z</time>
      </trkpt>
      <trkpt lat="49.32822" lon="-0.57381">
        <ele>13.816076</ele>
        <time>2022-08-04T13:40:59.000Z</time>
      </trkpt>
      <trkpt lat="49.32816" lon="-0.57384">
        <ele>13.749291</ele>
        <time>2022-08-04T13:41:00.000Z</time>
      </trkpt>
      <trkpt lat="49.3281" lon="-0.57386">
        <ele>13.678904</ele>
        <time>2022-08-04T13:41:01.000Z</time>
      </trkpt>
      <trkpt lat="49.32803" lon="-0.57389">
        <ele>13.608162</ele>
        <time>2022-08-04T13:41:02.000Z</time>
      </trkpt>
      <trkpt lat="49.32798" lon="-0.57391">
        <ele>13.554567</ele>
        <time>2022-08-04T13:41:03.000Z</time>
      </trkpt>
      <trkpt lat="49.32794" lon="-0.57393">
        <ele>13.508272</ele>
        <time>2022-08-04T13:41:04.000Z</time>
      </trkpt>
      <trkpt lat="49.32791" lon="-0.57394">
        <ele>13.477917</ele>
        <time>2022-08-04T13:41:05.000Z</time>
      </trkpt>
      <trkpt lat="49.32789" lon="-0.57394">
        <ele>13.446629</ele>
        <time>2022-08-04T13:41:07.000Z</time>
      </trkpt>
      <trkpt lat="49.32785" lon="-0.57392">
        <ele>13.409802</ele>
        <time>2022-08-04T13:41:09.000Z</time>
      </trkpt>
      <trkpt lat="49.32784" lon="-0.5739">
        <ele>13.388231</ele>
        <time>2022-08-04T13:41:10.000Z</time>
      </trkpt>
      <trkpt lat="49.32783" lon="-0.57387">
        <ele>13.364351</ele>
        <time>2022-08-04T13:41:11.000Z</time>
      </trkpt>
      <trkpt lat="49.32781" lon="-0.57381">
        <ele>13.321725</ele>
        <time>2022-08-04T13:41:12.000Z</time>
      </trkpt>
      <trkpt lat="49.3278" lon="-0.57376">
        <ele>13.283682</ele>
        <time>2022-08-04T13:41:13.000Z</time>
      </trkpt>
      <trkpt lat="49.32779" lon="-0.57371">
        <ele>13.243043</ele>
        <time>2022-08-04T13:41:14.000Z</time>
      </trkpt>
      <trkpt lat="49.32778" lon="-0.57365">
        <ele>13.20137</ele>
        <time>2022-08-04T13:41:15.000Z</time>
      </trkpt>
      <trkpt lat="49.32777" lon="-0.57359">
        <ele>13.15613</ele>
        <time>2022-08-04T13:41:16.000Z</time>
      </trkpt>
      <trkpt lat="49.32775" lon="-0.57352">
        <ele>13.107195</ele>
        <time>2022-08-04T13:41:17.000Z</time>
      </trkpt>
      <trkpt lat="49.32774" lon="-0.57345">
        <ele>13.058637</ele>
        <time>2022-08-04T13:41:18.000Z</time>
      </trkpt>
      <trkpt lat="49.32773" lon="-0.57338">
        <ele>13.009413</ele>
        <time>2022-08-04T13:41:19.000Z</time>
      </trkpt>
      <trkpt lat="49.32772" lon="-0.57331">
        <ele>12.958278</ele>
        <time>2022-08-04T13:41:20.000Z</time>
      </trkpt>
      <trkpt lat="49.3277" lon="-0.57324">
        <ele>12.904781</ele>
        <time>2022-08-04T13:41:21.000Z</time>
      </trkpt>
      <trkpt lat="49.32769" lon="-0.57316">
        <ele>12.849965</ele>
        <time>2022-08-04T13:41:22.000Z</time>
      </trkpt>
      <trkpt lat="49.32767" lon="-0.57309">
        <ele>12.794972</ele>
        <time>2022-08-04T13:41:23.000Z</time>
      </trkpt>
      <trkpt lat="49.32766" lon="-0.57301">
        <ele>12.739753</ele>
        <time>2022-08-04T13:41:24.000Z</time>
      </trkpt>
      <trkpt lat="49.32765" lon="-0.57293">
        <ele>12.681627</ele>
        <time>2022-08-04T13:41:25.000Z</time>
      </trkpt>
      <trkpt lat="49.32764" lon="-0.57285">
        <ele>12.623007</ele>
        <time>2022-08-04T13:41:26.000Z</time>
      </trkpt>
      <trkpt lat="49.32762" lon="-0.57276">
        <ele>12.564388</ele>
        <time>2022-08-04T13:41:27.000Z</time>
      </trkpt>
      <trkpt lat="49.32761" lon="-0.57268">
        <ele>12.502932</ele>
        <time>2022-08-04T13:41:28.000Z</time>
      </trkpt>
      <trkpt lat="49.32759" lon="-0.57259">
        <ele>12.439472</ele>
        <time>2022-08-04T13:41:29.000Z</time>
      </trkpt>
      <trkpt lat="49.32757" lon="-0.5725">
        <ele>12.359198</ele>
        <time>2022-08-04T13:41:30.000Z</time>
      </trkpt>
      <trkpt lat="49.32756" lon="-0.57241">
        <ele>12.256708</ele>
        <time>2022-08-04T13:41:31.000Z</time>
      </trkpt>
      <trkpt lat="49.32754" lon="-0.57232">
        <ele>12.154358</ele>
        <time>2022-08-04T13:41:32.000Z</time>
      </trkpt>
      <trkpt lat="49.32752" lon="-0.57223">
        <ele>12.046234</ele>
        <time>2022-08-04T13:41:33.000Z</time>
      </trkpt>
      <trkpt lat="49.32751" lon="-0.57214">
        <ele>11.940561</ele>
        <time>2022-08-04T13:41:34.000Z</time>
      </trkpt>
      <trkpt lat="49.32749" lon="-0.57204">
        <ele>11.83595</ele>
        <time>2022-08-04T13:41:35.000Z</time>
      </trkpt>
      <trkpt lat="49.32747" lon="-0.57195">
        <ele>11.728874</ele>
        <time>2022-08-04T13:41:36.000Z</time>
      </trkpt>
      <trkpt lat="49.32746" lon="-0.57186">
        <ele>11.621075</ele>
        <time>2022-08-04T13:41:37.000Z</time>
      </trkpt>
      <trkpt lat="49.32744" lon="-0.57176">
        <ele>11.515047</ele>
        <time>2022-08-04T13:41:38.000Z</time>
      </trkpt>
      <trkpt lat="49.32742" lon="-0.57167">
        <ele>11.412697</ele>
        <time>2022-08-04T13:41:39.000Z</time>
      </trkpt>
      <trkpt lat="49.32741" lon="-0.57158">
        <ele>11.308086</ele>
        <time>2022-08-04T13:41:40.000Z</time>
      </trkpt>
      <trkpt lat="49.3274" lon="-0.57149">
        <ele>11.203589</ele>
        <time>2022-08-04T13:41:41.000Z</time>
      </trkpt>
      <trkpt lat="49.32738" lon="-0.5714">
        <ele>11.100166</ele>
        <time>2022-08-04T13:41:42.000Z</time>
      </trkpt>
      <trkpt lat="49.32737" lon="-0.5713">
        <ele>10.997087</ele>
        <time>2022-08-04T13:41:43.000Z</time>
      </trkpt>
      <trkpt lat="49.32736" lon="-0.57122">
        <ele>10.897954</ele>
        <time>2022-08-04T13:41:44.000Z</time>
      </trkpt>
      <trkpt lat="49.32735" lon="-0.57112">
        <ele>10.795483</ele>
        <time>2022-08-04T13:41:45.000Z</time>
      </trkpt>
      <trkpt lat="49.32733" lon="-0.57103">
        <ele>10.693133</ele>
        <time>2022-08-04T13:41:46.000Z</time>
      </trkpt>
      <trkpt lat="49.32733" lon="-0.57094">
        <ele>10.590926</ele>
        <time>2022-08-04T13:41:47.000Z</time>
      </trkpt>
      <trkpt lat="49.32731" lon="-0.57085">
        <ele>10.489649</ele>
        <time>2022-08-04T13:41:48.000Z</time>
      </trkpt>
      <trkpt lat="49.3273" lon="-0.57076">
        <ele>10.387159</ele>
        <time>2022-08-04T13:41:49.000Z</time>
      </trkpt>
      <trkpt lat="49.32728" lon="-0.57067">
        <ele>10.285882</ele>
        <time>2022-08-04T13:41:50.000Z</time>
      </trkpt>
      <trkpt lat="49.32727" lon="-0.57058">
        <ele>10.18551</ele>
        <time>2022-08-04T13:41:51.000Z</time>
      </trkpt>
      <trkpt lat="49.32725" lon="-0.57049">
        <ele>10.083019</ele>
        <time>2022-08-04T13:41:52.000Z</time>
      </trkpt>
      <trkpt lat="49.32724" lon="-0.57041">
        <ele>9.984958</ele>
        <time>2022-08-04T13:41:53.000Z</time>
      </trkpt>
      <trkpt lat="49.32723" lon="-0.57032">
        <ele>9.884032</ele>
        <time>2022-08-04T13:41:54.000Z</time>
      </trkpt>
      <trkpt lat="49.32721" lon="-0.57023">
        <ele>9.784748</ele>
        <time>2022-08-04T13:41:55.000Z</time>
      </trkpt>
      <trkpt lat="49.32719" lon="-0.57015">
        <ele>9.688099</ele>
        <time>2022-08-04T13:41:56.000Z</time>
      </trkpt>
      <trkpt lat="49.32717" lon="-0.57006">
        <ele>9.590037</ele>
        <time>2022-08-04T13:41:57.000Z</time>
      </trkpt>
      <trkpt lat="49.32716" lon="-0.56997">
        <ele>9.487547</ele>
        <time>2022-08-04T13:41:58.000Z</time>
      </trkpt>
      <trkpt lat="49.32714" lon="-0.56988">
        <ele>9.382935</ele>
        <time>2022-08-04T13:41:59.000Z</time>
      </trkpt>
      <trkpt lat="49.32713" lon="-0.56979">
        <ele>9.336023</ele>
        <time>2022-08-04T13:42:00.000Z</time>
      </trkpt>
      <trkpt lat="49.32711" lon="-0.5697">
        <ele>9.29643</ele>
        <time>2022-08-04T13:42:01.000Z</time>
      </trkpt>
      <trkpt lat="49.32709" lon="-0.5696">
        <ele>9.255366</ele>
        <time>2022-08-04T13:42:02.000Z</time>
      </trkpt>
      <trkpt lat="49.32708" lon="-0.56951">
        <ele>9.215111</ele>
        <time>2022-08-04T13:42:03.000Z</time>
      </trkpt>
      <trkpt lat="49.32706" lon="-0.56941">
        <ele>9.173522</ele>
        <time>2022-08-04T13:42:04.000Z</time>
      </trkpt>
      <trkpt lat="49.32704" lon="-0.56932">
        <ele>9.131133</ele>
        <time>2022-08-04T13:42:05.000Z</time>
      </trkpt>
      <trkpt lat="49.32702" lon="-0.56922">
        <ele>9.087539</ele>
        <time>2022-08-04T13:42:06.000Z</time>
      </trkpt>
      <trkpt lat="49.32701" lon="-0.56912">
        <ele>9.045684</ele>
        <time>2022-08-04T13:42:07.000Z</time>
      </trkpt>
      <trkpt lat="49.32699" lon="-0.56902">
        <ele>9.002997</ele>
        <time>2022-08-04T13:42:08.000Z</time>
      </trkpt>
      <trkpt lat="49.32697" lon="-0.56892">
        <ele>8.960206</ele>
        <time>2022-08-04T13:42:09.000Z</time>
      </trkpt>
      <trkpt lat="49.32695" lon="-0.56883">
        <ele>8.919951</ele>
        <time>2022-08-04T13:42:10.000Z</time>
      </trkpt>
      <trkpt lat="49.32693" lon="-0.56873">
        <ele>8.87817</ele>
        <time>2022-08-04T13:42:11.000Z</time>
      </trkpt>
      <trkpt lat="49.32692" lon="-0.56864">
        <ele>8.838319</ele>
        <time>2022-08-04T13:42:12.000Z</time>
      </trkpt>
      <trkpt lat="49.32691" lon="-0.56855">
        <ele>8.799053</ele>
        <time>2022-08-04T13:42:13.000Z</time>
      </trkpt>
      <trkpt lat="49.32689" lon="-0.56846">
        <ele>8.758798</ele>
        <time>2022-08-04T13:42:14.000Z</time>
      </trkpt>
      <trkpt lat="49.32687" lon="-0.56836">
        <ele>8.718947</ele>
        <time>2022-08-04T13:42:15.000Z</time>
      </trkpt>
      <trkpt lat="49.32686" lon="-0.56827">
        <ele>8.679958</ele>
        <time>2022-08-04T13:42:16.000Z</time>
      </trkpt>
      <trkpt lat="49.32685" lon="-0.56818">
        <ele>8.641749</ele>
        <time>2022-08-04T13:42:17.000Z</time>
      </trkpt>
      <trkpt lat="49.32685" lon="-0.56809">
        <ele>8.603886</ele>
        <time>2022-08-04T13:42:18.000Z</time>
      </trkpt>
      <trkpt lat="49.32684" lon="-0.568">
        <ele>8.564851</ele>
        <time>2022-08-04T13:42:19.000Z</time>
      </trkpt>
      <trkpt lat="49.32683" lon="-0.56791">
        <ele>8.5263</ele>
        <time>2022-08-04T13:42:20.000Z</time>
      </trkpt>
      <trkpt lat="49.32683" lon="-0.56782">
        <ele>8.488166</ele>
        <time>2022-08-04T13:42:21.000Z</time>
      </trkpt>
      <trkpt lat="49.32682" lon="-0.56773">
        <ele>8.450369</ele>
        <time>2022-08-04T13:42:22.000Z</time>
      </trkpt>
      <trkpt lat="49.32682" lon="-0.56764">
        <ele>8.412653</ele>
        <time>2022-08-04T13:42:23.000Z</time>
      </trkpt>
      <trkpt lat="49.32682" lon="-0.56755">
        <ele>8.374987</ele>
        <time>2022-08-04T13:42:24.000Z</time>
      </trkpt>
      <trkpt lat="49.32682" lon="-0.56746">
        <ele>8.338158</ele>
        <time>2022-08-04T13:42:25.000Z</time>
      </trkpt>
      <trkpt lat="49.32681" lon="-0.56737">
        <ele>8.301278</ele>
        <time>2022-08-04T13:42:26.000Z</time>
      </trkpt>
      <trkpt lat="49.32681" lon="-0.56728">
        <ele>8.263981</ele>
        <time>2022-08-04T13:42:27.000Z</time>
      </trkpt>
      <trkpt lat="49.32681" lon="-0.5672">
        <ele>8.227897</ele>
        <time>2022-08-04T13:42:28.000Z</time>
      </trkpt>
      <trkpt lat="49.3268" lon="-0.56711">
        <ele>8.229166</ele>
        <time>2022-08-04T13:42:29.000Z</time>
      </trkpt>
      <trkpt lat="49.3268" lon="-0.56702">
        <ele>8.246975</ele>
        <time>2022-08-04T13:42:30.000Z</time>
      </trkpt>
      <trkpt lat="49.32679" lon="-0.56694">
        <ele>8.263986</ele>
        <time>2022-08-04T13:42:31.000Z</time>
      </trkpt>
      <trkpt lat="49.32679" lon="-0.56685">
        <ele>8.281216</ele>
        <time>2022-08-04T13:42:32.000Z</time>
      </trkpt>
      <trkpt lat="49.32678" lon="-0.56677">
        <ele>8.298228</ele>
        <time>2022-08-04T13:42:33.000Z</time>
      </trkpt>
      <trkpt lat="49.32678" lon="-0.56668">
        <ele>8.315239</ele>
        <time>2022-08-04T13:42:34.000Z</time>
      </trkpt>
      <trkpt lat="49.32677" lon="-0.5666">
        <ele>8.33236</ele>
        <time>2022-08-04T13:42:35.000Z</time>
      </trkpt>
      <trkpt lat="49.32676" lon="-0.56652">
        <ele>8.349174</ele>
        <time>2022-08-04T13:42:36.000Z</time>
      </trkpt>
      <trkpt lat="49.32676" lon="-0.56643">
        <ele>8.365899</ele>
        <time>2022-08-04T13:42:37.000Z</time>
      </trkpt>
      <trkpt lat="49.32675" lon="-0.56635">
        <ele>8.381713</ele>
        <time>2022-08-04T13:42:38.000Z</time>
      </trkpt>
      <trkpt lat="49.32675" lon="-0.56628">
        <ele>8.397409</ele>
        <time>2022-08-04T13:42:39.000Z</time>
      </trkpt>
      <trkpt lat="49.32674" lon="-0.5662">
        <ele>8.412315</ele>
        <time>2022-08-04T13:42:40.000Z</time>
      </trkpt>
      <trkpt lat="49.32673" lon="-0.56613">
        <ele>8.427217</ele>
        <time>2022-08-04T13:42:41.000Z</time>
      </trkpt>
      <trkpt lat="49.32673" lon="-0.56606">
        <ele>8.441459</ele>
        <time>2022-08-04T13:42:42.000Z</time>
      </trkpt>
      <trkpt lat="49.32672" lon="-0.56599">
        <ele>8.455717</ele>
        <time>2022-08-04T13:42:43.000Z</time>
      </trkpt>
      <trkpt lat="49.32671" lon="-0.56592">
        <ele>8.469672</ele>
        <time>2022-08-04T13:42:44.000Z</time>
      </trkpt>
      <trkpt lat="49.32671" lon="-0.56585">
        <ele>8.482893</ele>
        <time>2022-08-04T13:42:45.000Z</time>
      </trkpt>
      <trkpt lat="49.32671" lon="-0.56579">
        <ele>8.495882</ele>
        <time>2022-08-04T13:42:46.000Z</time>
      </trkpt>
      <trkpt lat="49.32671" lon="-0.56572">
        <ele>8.508672</ele>
        <time>2022-08-04T13:42:47.000Z</time>
      </trkpt>
      <trkpt lat="49.32671" lon="-0.56567">
        <ele>8.520299</ele>
        <time>2022-08-04T13:42:48.000Z</time>
      </trkpt>
      <trkpt lat="49.32671" lon="-0.56563">
        <ele>8.528293</ele>
        <time>2022-08-04T13:42:49.000Z</time>
      </trkpt>
      <trkpt lat="49.32672" lon="-0.56557">
        <ele>8.539491</ele>
        <time>2022-08-04T13:42:50.000Z</time>
      </trkpt>
      <trkpt lat="49.32673" lon="-0.56554">
        <ele>8.546091</ele>
        <time>2022-08-04T13:42:51.000Z</time>
      </trkpt>
      <trkpt lat="49.32673" lon="-0.5655">
        <ele>8.555336</ele>
        <time>2022-08-04T13:42:52.000Z</time>
      </trkpt>
      <trkpt lat="49.32674" lon="-0.56547">
        <ele>8.561226</ele>
        <time>2022-08-04T13:42:53.000Z</time>
      </trkpt>
      <trkpt lat="49.32676" lon="-0.56543">
        <ele>8.570605</ele>
        <time>2022-08-04T13:42:54.000Z</time>
      </trkpt>
      <trkpt lat="49.32676" lon="-0.5654">
        <ele>8.577351</ele>
        <time>2022-08-04T13:42:55.000Z</time>
      </trkpt>
      <trkpt lat="49.32678" lon="-0.56537">
        <ele>8.585097</ele>
        <time>2022-08-04T13:42:56.000Z</time>
      </trkpt>
      <trkpt lat="49.32679" lon="-0.56534">
        <ele>8.591628</ele>
        <time>2022-08-04T13:42:57.000Z</time>
      </trkpt>
      <trkpt lat="49.32681" lon="-0.56531">
        <ele>8.59907</ele>
        <time>2022-08-04T13:42:58.000Z</time>
      </trkpt>
      <trkpt lat="49.32682" lon="-0.56528">
        <ele>8.605276</ele>
        <time>2022-08-04T13:42:59.000Z</time>
      </trkpt>
      <trkpt lat="49.32683" lon="-0.56526">
        <ele>8.611667</ele>
        <time>2022-08-04T13:43:00.000Z</time>
      </trkpt>
      <trkpt lat="49.32684" lon="-0.56523">
        <ele>8.61755</ele>
        <time>2022-08-04T13:43:01.000Z</time>
      </trkpt>
      <trkpt lat="49.32685" lon="-0.5652">
        <ele>8.625004</ele>
        <time>2022-08-04T13:43:03.000Z</time>
      </trkpt>
      <trkpt lat="49.32688" lon="-0.56513">
        <ele>8.641749</ele>
        <time>2022-08-04T13:43:26.000Z</time>
      </trkpt>
      <trkpt lat="49.32689" lon="-0.56509">
        <ele>8.651128</ele>
        <time>2022-08-04T13:43:27.000Z</time>
      </trkpt>
      <trkpt lat="49.32691" lon="-0.56505">
        <ele>8.659881</ele>
        <time>2022-08-04T13:43:28.000Z</time>
      </trkpt>
      <trkpt lat="49.32691" lon="-0.56502">
        <ele>8.666344</ele>
        <time>2022-08-04T13:43:29.000Z</time>
      </trkpt>
      <trkpt lat="49.32693" lon="-0.56497">
        <ele>8.676587</ele>
        <time>2022-08-04T13:43:30.000Z</time>
      </trkpt>
      <trkpt lat="49.32694" lon="-0.56493">
        <ele>8.686656</ele>
        <time>2022-08-04T13:43:31.000Z</time>
      </trkpt>
      <trkpt lat="49.32696" lon="-0.56488">
        <ele>8.696493</ele>
        <time>2022-08-04T13:43:32.000Z</time>
      </trkpt>
      <trkpt lat="49.32698" lon="-0.56484">
        <ele>8.707715</ele>
        <time>2022-08-04T13:43:33.000Z</time>
      </trkpt>
      <trkpt lat="49.32699" lon="-0.5648">
        <ele>8.715251</ele>
        <time>2022-08-04T13:43:34.000Z</time>
      </trkpt>
      <trkpt lat="49.32701" lon="-0.56475">
        <ele>8.72769</ele>
        <time>2022-08-04T13:43:35.000Z</time>
      </trkpt>
      <trkpt lat="49.32701" lon="-0.5647">
        <ele>8.73785</ele>
        <time>2022-08-04T13:43:36.000Z</time>
      </trkpt>
      <trkpt lat="49.32702" lon="-0.56465">
        <ele>8.748876</ele>
        <time>2022-08-04T13:43:37.000Z</time>
      </trkpt>
      <trkpt lat="49.32702" lon="-0.56459">
        <ele>8.760415</ele>
        <time>2022-08-04T13:43:38.000Z</time>
      </trkpt>
      <trkpt lat="49.32701" lon="-0.56454">
        <ele>8.783609</ele>
        <time>2022-08-04T13:43:39.000Z</time>
      </trkpt>
      <trkpt lat="49.327" lon="-0.56448">
        <ele>8.852417</ele>
        <time>2022-08-04T13:43:40.000Z</time>
      </trkpt>
      <trkpt lat="49.32698" lon="-0.56443">
        <ele>8.924708</ele>
        <time>2022-08-04T13:43:41.000Z</time>
      </trkpt>
      <trkpt lat="49.32696" lon="-0.56438">
        <ele>8.99391</ele>
        <time>2022-08-04T13:43:42.000Z</time>
      </trkpt>
      <trkpt lat="49.32693" lon="-0.56433">
        <ele>9.066004</ele>
        <time>2022-08-04T13:43:43.000Z</time>
      </trkpt>
      <trkpt lat="49.32691" lon="-0.56428">
        <ele>9.136098</ele>
        <time>2022-08-04T13:43:44.000Z</time>
      </trkpt>
      <trkpt lat="49.32689" lon="-0.56423">
        <ele>9.205225</ele>
        <time>2022-08-04T13:43:45.000Z</time>
      </trkpt>
      <trkpt lat="49.32687" lon="-0.56418">
        <ele>9.274462</ele>
        <time>2022-08-04T13:43:46.000Z</time>
      </trkpt>
      <trkpt lat="49.32685" lon="-0.56414">
        <ele>9.341675</ele>
        <time>2022-08-04T13:43:47.000Z</time>
      </trkpt>
      <trkpt lat="49.32682" lon="-0.56409">
        <ele>9.414298</ele>
        <time>2022-08-04T13:43:48.000Z</time>
      </trkpt>
      <trkpt lat="49.3268" lon="-0.56405">
        <ele>9.480565</ele>
        <time>2022-08-04T13:43:49.000Z</time>
      </trkpt>
      <trkpt lat="49.32677" lon="-0.564">
        <ele>9.546095</ele>
        <time>2022-08-04T13:43:50.000Z</time>
      </trkpt>
      <trkpt lat="49.32675" lon="-0.56396">
        <ele>9.611425</ele>
        <time>2022-08-04T13:43:51.000Z</time>
      </trkpt>
      <trkpt lat="49.32673" lon="-0.56391">
        <ele>9.677692</ele>
        <time>2022-08-04T13:43:52.000Z</time>
      </trkpt>
      <trkpt lat="49.32671" lon="-0.56387">
        <ele>9.739115</ele>
        <time>2022-08-04T13:43:53.000Z</time>
      </trkpt>
      <trkpt lat="49.32669" lon="-0.56382">
        <ele>9.80556</ele>
        <time>2022-08-04T13:43:54.000Z</time>
      </trkpt>
      <trkpt lat="49.32667" lon="-0.56378">
        <ele>9.866759</ele>
        <time>2022-08-04T13:43:55.000Z</time>
      </trkpt>
      <trkpt lat="49.32665" lon="-0.56374">
        <ele>9.929922</ele>
        <time>2022-08-04T13:43:56.000Z</time>
      </trkpt>
      <trkpt lat="49.32663" lon="-0.56369">
        <ele>9.993086</ele>
        <time>2022-08-04T13:43:57.000Z</time>
      </trkpt>
      <trkpt lat="49.32661" lon="-0.56365">
        <ele>10.057249</ele>
        <time>2022-08-04T13:43:58.000Z</time>
      </trkpt>
      <trkpt lat="49.3266" lon="-0.5636">
        <ele>10.120412</ele>
        <time>2022-08-04T13:43:59.000Z</time>
      </trkpt>
      <trkpt lat="49.32658" lon="-0.56356">
        <ele>10.178742</ele>
        <time>2022-08-04T13:44:00.000Z</time>
      </trkpt>
      <trkpt lat="49.32656" lon="-0.56351">
        <ele>10.240919</ele>
        <time>2022-08-04T13:44:01.000Z</time>
      </trkpt>
      <trkpt lat="49.32654" lon="-0.56348">
        <ele>10.29734</ele>
        <time>2022-08-04T13:44:02.000Z</time>
      </trkpt>
      <trkpt lat="49.32652" lon="-0.56344">
        <ele>10.349212</ele>
        <time>2022-08-04T13:44:03.000Z</time>
      </trkpt>
      <trkpt lat="49.3265" lon="-0.56342">
        <ele>10.397362</ele>
        <time>2022-08-04T13:44:04.000Z</time>
      </trkpt>
      <trkpt lat="49.32648" lon="-0.56337">
        <ele>10.461761</ele>
        <time>2022-08-04T13:44:06.000Z</time>
      </trkpt>
      <trkpt lat="49.32647" lon="-0.56334">
        <ele>10.504394</ele>
        <time>2022-08-04T13:44:08.000Z</time>
      </trkpt>
      <trkpt lat="49.32646" lon="-0.56331">
        <ele>10.541157</ele>
        <time>2022-08-04T13:44:10.000Z</time>
      </trkpt>
      <trkpt lat="49.32642" lon="-0.56321">
        <ele>10.682293</ele>
        <time>2022-08-04T13:44:55.000Z</time>
      </trkpt>
      <trkpt lat="49.32639" lon="-0.56315">
        <ele>10.766185</ele>
        <time>2022-08-04T13:44:56.000Z</time>
      </trkpt>
      <trkpt lat="49.32637" lon="-0.56309">
        <ele>10.853036</ele>
        <time>2022-08-04T13:44:57.000Z</time>
      </trkpt>
      <trkpt lat="49.32634" lon="-0.56302">
        <ele>10.947784</ele>
        <time>2022-08-04T13:44:58.000Z</time>
      </trkpt>
      <trkpt lat="49.32631" lon="-0.56295">
        <ele>11.046492</ele>
        <time>2022-08-04T13:44:59.000Z</time>
      </trkpt>
      <trkpt lat="49.32629" lon="-0.56289">
        <ele>11.130384</ele>
        <time>2022-08-04T13:45:00.000Z</time>
      </trkpt>
      <trkpt lat="49.32625" lon="-0.56281">
        <ele>11.248067</ele>
        <time>2022-08-04T13:45:01.000Z</time>
      </trkpt>
      <trkpt lat="49.32622" lon="-0.56273">
        <ele>11.352832</ele>
        <time>2022-08-04T13:45:02.000Z</time>
      </trkpt>
      <trkpt lat="49.3262" lon="-0.56266">
        <ele>11.453544</ele>
        <time>2022-08-04T13:45:03.000Z</time>
      </trkpt>
      <trkpt lat="49.32617" lon="-0.56258">
        <ele>11.55069</ele>
        <time>2022-08-04T13:45:04.000Z</time>
      </trkpt>
      <trkpt lat="49.32614" lon="-0.56251">
        <ele>11.653353</ele>
        <time>2022-08-04T13:45:05.000Z</time>
      </trkpt>
      <trkpt lat="49.32611" lon="-0.56244">
        <ele>11.753426</ele>
        <time>2022-08-04T13:45:06.000Z</time>
      </trkpt>
      <trkpt lat="49.32608" lon="-0.56236">
        <ele>11.857064</ele>
        <time>2022-08-04T13:45:07.000Z</time>
      </trkpt>
      <trkpt lat="49.32605" lon="-0.56229">
        <ele>11.9561</ele>
        <time>2022-08-04T13:45:08.000Z</time>
      </trkpt>
      <trkpt lat="49.32603" lon="-0.56221">
        <ele>12.124164</ele>
        <time>2022-08-04T13:45:09.000Z</time>
      </trkpt>
      <trkpt lat="49.326" lon="-0.56214">
        <ele>12.386477</ele>
        <time>2022-08-04T13:45:10.000Z</time>
      </trkpt>
      <trkpt lat="49.32597" lon="-0.56207">
        <ele>12.643193</ele>
        <time>2022-08-04T13:45:11.000Z</time>
      </trkpt>
      <trkpt lat="49.32595" lon="-0.56201">
        <ele>12.902268</ele>
        <time>2022-08-04T13:45:12.000Z</time>
      </trkpt>
      <trkpt lat="49.32592" lon="-0.56194">
        <ele>13.156202</ele>
        <time>2022-08-04T13:45:13.000Z</time>
      </trkpt>
      <trkpt lat="49.32589" lon="-0.56187">
        <ele>13.407362</ele>
        <time>2022-08-04T13:45:14.000Z</time>
      </trkpt>
      <trkpt lat="49.32587" lon="-0.5618">
        <ele>13.666437</ele>
        <time>2022-08-04T13:45:15.000Z</time>
      </trkpt>
      <trkpt lat="49.32584" lon="-0.56173">
        <ele>13.916064</ele>
        <time>2022-08-04T13:45:16.000Z</time>
      </trkpt>
      <trkpt lat="49.32582" lon="-0.56167">
        <ele>14.167533</ele>
        <time>2022-08-04T13:45:17.000Z</time>
      </trkpt>
      <trkpt lat="49.3258" lon="-0.5616">
        <ele>14.405761</ele>
        <time>2022-08-04T13:45:18.000Z</time>
      </trkpt>
      <trkpt lat="49.32577" lon="-0.56154">
        <ele>14.65419</ele>
        <time>2022-08-04T13:45:19.000Z</time>
      </trkpt>
      <trkpt lat="49.32574" lon="-0.56147">
        <ele>14.894521</ele>
        <time>2022-08-04T13:45:20.000Z</time>
      </trkpt>
      <trkpt lat="49.32572" lon="-0.56142">
        <ele>15.080944</ele>
        <time>2022-08-04T13:45:21.000Z</time>
      </trkpt>
      <trkpt lat="49.3257" lon="-0.56135">
        <ele>15.340455</ele>
        <time>2022-08-04T13:45:22.000Z</time>
      </trkpt>
      <trkpt lat="49.32567" lon="-0.5613">
        <ele>15.551063</ele>
        <time>2022-08-04T13:45:23.000Z</time>
      </trkpt>
      <trkpt lat="49.32566" lon="-0.56124">
        <ele>15.742126</ele>
        <time>2022-08-04T13:45:24.000Z</time>
      </trkpt>
      <trkpt lat="49.32564" lon="-0.56121">
        <ele>15.887842</ele>
        <time>2022-08-04T13:45:25.000Z</time>
      </trkpt>
      <trkpt lat="49.32562" lon="-0.56115">
        <ele>16.085103</ele>
        <time>2022-08-04T13:45:26.000Z</time>
      </trkpt>
      <trkpt lat="49.32561" lon="-0.56111">
        <ele>16.226936</ele>
        <time>2022-08-04T13:45:27.000Z</time>
      </trkpt>
      <trkpt lat="49.3256" lon="-0.56107">
        <ele>16.36803</ele>
        <time>2022-08-04T13:45:28.000Z</time>
      </trkpt>
      <trkpt lat="49.32558" lon="-0.56104">
        <ele>16.513747</ele>
        <time>2022-08-04T13:45:29.000Z</time>
      </trkpt>
      <trkpt lat="49.32557" lon="-0.561">
        <ele>16.659464</ele>
        <time>2022-08-04T13:45:30.000Z</time>
      </trkpt>
      <trkpt lat="49.32556" lon="-0.56096">
        <ele>16.789153</ele>
        <time>2022-08-04T13:45:31.000Z</time>
      </trkpt>
      <trkpt lat="49.32557" lon="-0.56092">
        <ele>16.905722</ele>
        <time>2022-08-04T13:45:32.000Z</time>
      </trkpt>
      <trkpt lat="49.32559" lon="-0.56089">
        <ele>17.045151</ele>
        <time>2022-08-04T13:45:33.000Z</time>
      </trkpt>
      <trkpt lat="49.32562" lon="-0.56087">
        <ele>17.235946</ele>
        <time>2022-08-04T13:45:34.000Z</time>
      </trkpt>
      <trkpt lat="49.32566" lon="-0.56084">
        <ele>17.462256</ele>
        <time>2022-08-04T13:45:35.000Z</time>
      </trkpt>
      <trkpt lat="49.3257" lon="-0.5608">
        <ele>17.67965</ele>
        <time>2022-08-04T13:45:36.000Z</time>
      </trkpt>
      <trkpt lat="49.32574" lon="-0.56077">
        <ele>17.886895</ele>
        <time>2022-08-04T13:45:37.000Z</time>
      </trkpt>
      <trkpt lat="49.32578" lon="-0.56074">
        <ele>18.101116</ele>
        <time>2022-08-04T13:45:38.000Z</time>
      </trkpt>
      <trkpt lat="49.32581" lon="-0.56071">
        <ele>18.273965</ele>
        <time>2022-08-04T13:45:39.000Z</time>
      </trkpt>
      <trkpt lat="49.32584" lon="-0.56068">
        <ele>18.472095</ele>
        <time>2022-08-04T13:45:40.000Z</time>
      </trkpt>
      <trkpt lat="49.32588" lon="-0.56065">
        <ele>18.670225</ele>
        <time>2022-08-04T13:45:41.000Z</time>
      </trkpt>
      <trkpt lat="49.3259" lon="-0.56062">
        <ele>18.844896</ele>
        <time>2022-08-04T13:45:42.000Z</time>
      </trkpt>
      <trkpt lat="49.32593" lon="-0.56059">
        <ele>18.988234</ele>
        <time>2022-08-04T13:45:43.000Z</time>
      </trkpt>
      <trkpt lat="49.32596" lon="-0.56055">
        <ele>19.198453</ele>
        <time>2022-08-04T13:45:44.000Z</time>
      </trkpt>
      <trkpt lat="49.32598" lon="-0.56051">
        <ele>19.380413</ele>
        <time>2022-08-04T13:45:45.000Z</time>
      </trkpt>
      <trkpt lat="49.326" lon="-0.56046">
        <ele>19.553113</ele>
        <time>2022-08-04T13:45:46.000Z</time>
      </trkpt>
      <trkpt lat="49.32602" lon="-0.56041">
        <ele>19.720536</ele>
        <time>2022-08-04T13:45:47.000Z</time>
      </trkpt>
      <trkpt lat="49.32602" lon="-0.56037">
        <ele>19.852742</ele>
        <time>2022-08-04T13:45:48.000Z</time>
      </trkpt>
      <trkpt lat="49.32603" lon="-0.56031">
        <ele>20.047008</ele>
        <time>2022-08-04T13:45:49.000Z</time>
      </trkpt>
      <trkpt lat="49.32603" lon="-0.56026">
        <ele>20.217102</ele>
        <time>2022-08-04T13:45:50.000Z</time>
      </trkpt>
      <trkpt lat="49.32603" lon="-0.56021">
        <ele>20.374525</ele>
        <time>2022-08-04T13:45:51.000Z</time>
      </trkpt>
      <trkpt lat="49.32603" lon="-0.56017">
        <ele>20.52591</ele>
        <time>2022-08-04T13:45:52.000Z</time>
      </trkpt>
      <trkpt lat="49.32602" lon="-0.56012">
        <ele>20.665815</ele>
        <time>2022-08-04T13:45:53.000Z</time>
      </trkpt>
      <trkpt lat="49.32602" lon="-0.56008">
        <ele>20.810606</ele>
        <time>2022-08-04T13:45:54.000Z</time>
      </trkpt>
      <trkpt lat="49.32601" lon="-0.56004">
        <ele>20.9535</ele>
        <time>2022-08-04T13:45:55.000Z</time>
      </trkpt>
      <trkpt lat="49.326" lon="-0.56">
        <ele>21.140457</ele>
        <time>2022-08-04T13:45:56.000Z</time>
      </trkpt>
      <trkpt lat="49.326" lon="-0.55996">
        <ele>21.315083</ele>
        <time>2022-08-04T13:45:57.000Z</time>
      </trkpt>
      <trkpt lat="49.32599" lon="-0.55993">
        <ele>21.489026</ele>
        <time>2022-08-04T13:45:58.000Z</time>
      </trkpt>
      <trkpt lat="49.32598" lon="-0.55989">
        <ele>21.671761</ele>
        <time>2022-08-04T13:45:59.000Z</time>
      </trkpt>
      <trkpt lat="49.32598" lon="-0.55985">
        <ele>21.832809</ele>
        <time>2022-08-04T13:46:00.000Z</time>
      </trkpt>
      <trkpt lat="49.32597" lon="-0.55982">
        <ele>21.991131</ele>
        <time>2022-08-04T13:46:01.000Z</time>
      </trkpt>
      <trkpt lat="49.32596" lon="-0.55979">
        <ele>22.151713</ele>
        <time>2022-08-04T13:46:02.000Z</time>
      </trkpt>
      <trkpt lat="49.32596" lon="-0.55976">
        <ele>22.318735</ele>
        <time>2022-08-04T13:46:04.000Z</time>
      </trkpt>
      <trkpt lat="49.32594" lon="-0.55967">
        <ele>22.703734</ele>
        <time>2022-08-04T13:46:32.000Z</time>
      </trkpt>
      <trkpt lat="49.32593" lon="-0.55962">
        <ele>22.940378</ele>
        <time>2022-08-04T13:46:33.000Z</time>
      </trkpt>
      <trkpt lat="49.32592" lon="-0.55956">
        <ele>23.24185</ele>
        <time>2022-08-04T13:46:34.000Z</time>
      </trkpt>
      <trkpt lat="49.32591" lon="-0.55951">
        <ele>23.487261</ele>
        <time>2022-08-04T13:46:35.000Z</time>
      </trkpt>
      <trkpt lat="49.3259" lon="-0.55945">
        <ele>23.769795</ele>
        <time>2022-08-04T13:46:36.000Z</time>
      </trkpt>
      <trkpt lat="49.3259" lon="-0.55939">
        <ele>24.046723</ele>
        <time>2022-08-04T13:46:37.000Z</time>
      </trkpt>
      <trkpt lat="49.32589" lon="-0.55933">
        <ele>24.321877</ele>
        <time>2022-08-04T13:46:38.000Z</time>
      </trkpt>
      <trkpt lat="49.32589" lon="-0.55927">
        <ele>24.598806</ele>
        <time>2022-08-04T13:46:39.000Z</time>
      </trkpt>
      <trkpt lat="49.32589" lon="-0.55922">
        <ele>24.836034</ele>
        <time>2022-08-04T13:46:40.000Z</time>
      </trkpt>
      <trkpt lat="49.32589" lon="-0.55916">
        <ele>25.078735</ele>
        <time>2022-08-04T13:46:41.000Z</time>
      </trkpt>
      <trkpt lat="49.32588" lon="-0.55911">
        <ele>25.325982</ele>
        <time>2022-08-04T13:46:42.000Z</time>
      </trkpt>
      <trkpt lat="49.32588" lon="-0.55906">
        <ele>25.567773</ele>
        <time>2022-08-04T13:46:43.000Z</time>
      </trkpt>
      <trkpt lat="49.32589" lon="-0.559">
        <ele>25.810474</ele>
        <time>2022-08-04T13:46:44.000Z</time>
      </trkpt>
      <trkpt lat="49.32589" lon="-0.55895">
        <ele>26.039543</ele>
        <time>2022-08-04T13:46:45.000Z</time>
      </trkpt>
      <trkpt lat="49.32589" lon="-0.5589">
        <ele>26.28046</ele>
        <time>2022-08-04T13:46:46.000Z</time>
      </trkpt>
      <trkpt lat="49.3259" lon="-0.55885">
        <ele>26.522696</ele>
        <time>2022-08-04T13:46:47.000Z</time>
      </trkpt>
      <trkpt lat="49.32591" lon="-0.5588">
        <ele>26.745668</ele>
        <time>2022-08-04T13:46:48.000Z</time>
      </trkpt>
      <trkpt lat="49.32592" lon="-0.55875">
        <ele>26.982802</ele>
        <time>2022-08-04T13:46:49.000Z</time>
      </trkpt>
      <trkpt lat="49.32594" lon="-0.55871">
        <ele>27.216658</ele>
        <time>2022-08-04T13:46:50.000Z</time>
      </trkpt>
      <trkpt lat="49.32595" lon="-0.55866">
        <ele>27.466686</ele>
        <time>2022-08-04T13:46:51.000Z</time>
      </trkpt>
      <trkpt lat="49.32597" lon="-0.55861">
        <ele>27.695421</ele>
        <time>2022-08-04T13:46:52.000Z</time>
      </trkpt>
      <trkpt lat="49.32598" lon="-0.55857">
        <ele>27.925282</ele>
        <time>2022-08-04T13:46:53.000Z</time>
      </trkpt>
      <trkpt lat="49.326" lon="-0.55853">
        <ele>28.162284</ele>
        <time>2022-08-04T13:46:54.000Z</time>
      </trkpt>
      <trkpt lat="49.32602" lon="-0.55849">
        <ele>28.388088</ele>
        <time>2022-08-04T13:46:55.000Z</time>
      </trkpt>
      <trkpt lat="49.32604" lon="-0.55844">
        <ele>28.638352</ele>
        <time>2022-08-04T13:46:56.000Z</time>
      </trkpt>
      <trkpt lat="49.32606" lon="-0.55841">
        <ele>28.87023</ele>
        <time>2022-08-04T13:46:57.000Z</time>
      </trkpt>
      <trkpt lat="49.32608" lon="-0.55837">
        <ele>29.096034</ele>
        <time>2022-08-04T13:46:58.000Z</time>
      </trkpt>
      <trkpt lat="49.3261" lon="-0.55833">
        <ele>29.296913</ele>
        <time>2022-08-04T13:46:59.000Z</time>
      </trkpt>
      <trkpt lat="49.32613" lon="-0.55828">
        <ele>29.623177</ele>
        <time>2022-08-04T13:47:00.000Z</time>
      </trkpt>
      <trkpt lat="49.32615" lon="-0.55824">
        <ele>29.860478</ele>
        <time>2022-08-04T13:47:01.000Z</time>
      </trkpt>
      <trkpt lat="49.32618" lon="-0.5582">
        <ele>30.109869</ele>
        <time>2022-08-04T13:47:02.000Z</time>
      </trkpt>
      <trkpt lat="49.3262" lon="-0.55815">
        <ele>30.343109</ele>
        <time>2022-08-04T13:47:03.000Z</time>
      </trkpt>
      <trkpt lat="49.32622" lon="-0.55811">
        <ele>30.596882</ele>
        <time>2022-08-04T13:47:04.000Z</time>
      </trkpt>
      <trkpt lat="49.32624" lon="-0.55806">
        <ele>30.849195</ele>
        <time>2022-08-04T13:47:05.000Z</time>
      </trkpt>
      <trkpt lat="49.32626" lon="-0.55802">
        <ele>31.098587</ele>
        <time>2022-08-04T13:47:06.000Z</time>
      </trkpt>
      <trkpt lat="49.32628" lon="-0.55798">
        <ele>31.35236</ele>
        <time>2022-08-04T13:47:07.000Z</time>
      </trkpt>
      <trkpt lat="49.3263" lon="-0.55794">
        <ele>31.591135</ele>
        <time>2022-08-04T13:47:08.000Z</time>
      </trkpt>
      <trkpt lat="49.32633" lon="-0.5579">
        <ele>31.864091</ele>
        <time>2022-08-04T13:47:09.000Z</time>
      </trkpt>
      <trkpt lat="49.32636" lon="-0.55786">
        <ele>32.10991</ele>
        <time>2022-08-04T13:47:10.000Z</time>
      </trkpt>
      <trkpt lat="49.32638" lon="-0.55782">
        <ele>32.367632</ele>
        <time>2022-08-04T13:47:11.000Z</time>
      </trkpt>
      <trkpt lat="49.3264" lon="-0.55778">
        <ele>32.575436</ele>
        <time>2022-08-04T13:47:12.000Z</time>
      </trkpt>
      <trkpt lat="49.32643" lon="-0.55773">
        <ele>32.9017</ele>
        <time>2022-08-04T13:47:13.000Z</time>
      </trkpt>
      <trkpt lat="49.32645" lon="-0.55769">
        <ele>33.143979</ele>
        <time>2022-08-04T13:47:14.000Z</time>
      </trkpt>
      <trkpt lat="49.32648" lon="-0.55765">
        <ele>33.387327</ele>
        <time>2022-08-04T13:47:15.000Z</time>
      </trkpt>
      <trkpt lat="49.3265" lon="-0.55761">
        <ele>33.589776</ele>
        <time>2022-08-04T13:47:16.000Z</time>
      </trkpt>
      <trkpt lat="49.32652" lon="-0.55757">
        <ele>33.763832</ele>
        <time>2022-08-04T13:47:17.000Z</time>
      </trkpt>
      <trkpt lat="49.32655" lon="-0.55753">
        <ele>33.959875</ele>
        <time>2022-08-04T13:47:18.000Z</time>
      </trkpt>
      <trkpt lat="49.32657" lon="-0.55748">
        <ele>34.138876</ele>
        <time>2022-08-04T13:47:19.000Z</time>
      </trkpt>
      <trkpt lat="49.3266" lon="-0.55744">
        <ele>34.312167</ele>
        <time>2022-08-04T13:47:20.000Z</time>
      </trkpt>
      <trkpt lat="49.32661" lon="-0.55741">
        <ele>34.458307</ele>
        <time>2022-08-04T13:47:21.000Z</time>
      </trkpt>
      <trkpt lat="49.32664" lon="-0.55736">
        <ele>34.669583</ele>
        <time>2022-08-04T13:47:22.000Z</time>
      </trkpt>
      <trkpt lat="49.32666" lon="-0.55731">
        <ele>34.841808</ele>
        <time>2022-08-04T13:47:23.000Z</time>
      </trkpt>
      <trkpt lat="49.32669" lon="-0.55727">
        <ele>35.039237</ele>
        <time>2022-08-04T13:47:24.000Z</time>
      </trkpt>
      <trkpt lat="49.32671" lon="-0.55723">
        <ele>35.22825</ele>
        <time>2022-08-04T13:47:25.000Z</time>
      </trkpt>
      <trkpt lat="49.32673" lon="-0.5572">
        <ele>35.369499</ele>
        <time>2022-08-04T13:47:26.000Z</time>
      </trkpt>
      <trkpt lat="49.32676" lon="-0.55715">
        <ele>35.564935</ele>
        <time>2022-08-04T13:47:27.000Z</time>
      </trkpt>
      <trkpt lat="49.32678" lon="-0.55711">
        <ele>35.73899</ele>
        <time>2022-08-04T13:47:28.000Z</time>
      </trkpt>
      <trkpt lat="49.32681" lon="-0.55707">
        <ele>35.92946</ele>
        <time>2022-08-04T13:47:29.000Z</time>
      </trkpt>
      <trkpt lat="49.32683" lon="-0.55703">
        <ele>36.081344</ele>
        <time>2022-08-04T13:47:30.000Z</time>
      </trkpt>
      <trkpt lat="49.32685" lon="-0.55698">
        <ele>36.294824</ele>
        <time>2022-08-04T13:47:31.000Z</time>
      </trkpt>
      <trkpt lat="49.32687" lon="-0.55694">
        <ele>36.461648</ele>
        <time>2022-08-04T13:47:32.000Z</time>
      </trkpt>
      <trkpt lat="49.32689" lon="-0.5569">
        <ele>36.617579</ele>
        <time>2022-08-04T13:47:33.000Z</time>
      </trkpt>
      <trkpt lat="49.32691" lon="-0.55686">
        <ele>36.7892</ele>
        <time>2022-08-04T13:47:34.000Z</time>
      </trkpt>
      <trkpt lat="49.32693" lon="-0.55682">
        <ele>36.942341</ele>
        <time>2022-08-04T13:47:35.000Z</time>
      </trkpt>
      <trkpt lat="49.32695" lon="-0.55678">
        <ele>37.113124</ele>
        <time>2022-08-04T13:47:36.000Z</time>
      </trkpt>
      <trkpt lat="49.32697" lon="-0.55674">
        <ele>37.287179</ele>
        <time>2022-08-04T13:47:37.000Z</time>
      </trkpt>
      <trkpt lat="49.327" lon="-0.55669">
        <ele>37.48012</ele>
        <time>2022-08-04T13:47:38.000Z</time>
      </trkpt>
      <trkpt lat="49.32701" lon="-0.55666">
        <ele>37.631273</ele>
        <time>2022-08-04T13:47:39.000Z</time>
      </trkpt>
      <trkpt lat="49.32704" lon="-0.55661">
        <ele>37.828308</ele>
        <time>2022-08-04T13:47:40.000Z</time>
      </trkpt>
      <trkpt lat="49.32706" lon="-0.55656">
        <ele>38.003262</ele>
        <time>2022-08-04T13:47:41.000Z</time>
      </trkpt>
      <trkpt lat="49.32708" lon="-0.55651">
        <ele>38.208297</ele>
        <time>2022-08-04T13:47:42.000Z</time>
      </trkpt>
      <trkpt lat="49.32709" lon="-0.55647">
        <ele>38.353185</ele>
        <time>2022-08-04T13:47:43.000Z</time>
      </trkpt>
      <trkpt lat="49.32711" lon="-0.55643">
        <ele>38.525558</ele>
        <time>2022-08-04T13:47:44.000Z</time>
      </trkpt>
      <trkpt lat="49.32714" lon="-0.55638">
        <ele>38.748176</ele>
        <time>2022-08-04T13:47:45.000Z</time>
      </trkpt>
      <trkpt lat="49.32716" lon="-0.55634">
        <ele>38.893063</ele>
        <time>2022-08-04T13:47:46.000Z</time>
      </trkpt>
      <trkpt lat="49.32718" lon="-0.55629">
        <ele>39.076217</ele>
        <time>2022-08-04T13:47:47.000Z</time>
      </trkpt>
      <trkpt lat="49.3272" lon="-0.55625">
        <ele>39.271652</ele>
        <time>2022-08-04T13:47:48.000Z</time>
      </trkpt>
      <trkpt lat="49.32722" lon="-0.5562">
        <ele>39.460507</ele>
        <time>2022-08-04T13:47:49.000Z</time>
      </trkpt>
      <trkpt lat="49.32725" lon="-0.55615">
        <ele>39.657542</ele>
        <time>2022-08-04T13:47:50.000Z</time>
      </trkpt>
      <trkpt lat="49.32727" lon="-0.5561">
        <ele>39.857102</ele>
        <time>2022-08-04T13:47:51.000Z</time>
      </trkpt>
      <trkpt lat="49.32729" lon="-0.55605">
        <ele>40.051622</ele>
        <time>2022-08-04T13:47:52.000Z</time>
      </trkpt>
      <trkpt lat="49.32731" lon="-0.55599">
        <ele>40.248638</ele>
        <time>2022-08-04T13:47:53.000Z</time>
      </trkpt>
      <trkpt lat="49.32733" lon="-0.55594">
        <ele>40.448198</ele>
        <time>2022-08-04T13:47:54.000Z</time>
      </trkpt>
      <trkpt lat="49.32735" lon="-0.55588">
        <ele>40.672832</ele>
        <time>2022-08-04T13:47:55.000Z</time>
      </trkpt>
      <trkpt lat="49.32737" lon="-0.55584">
        <ele>40.823201</ele>
        <time>2022-08-04T13:47:56.000Z</time>
      </trkpt>
      <trkpt lat="49.32739" lon="-0.5558">
        <ele>41.009095</ele>
        <time>2022-08-04T13:47:57.000Z</time>
      </trkpt>
      <trkpt lat="49.32741" lon="-0.55575">
        <ele>41.200568</ele>
        <time>2022-08-04T13:47:58.000Z</time>
      </trkpt>
      <trkpt lat="49.32743" lon="-0.5557">
        <ele>41.39472</ele>
        <time>2022-08-04T13:47:59.000Z</time>
      </trkpt>
      <trkpt lat="49.32745" lon="-0.55565">
        <ele>41.583898</ele>
        <time>2022-08-04T13:48:00.000Z</time>
      </trkpt>
      <trkpt lat="49.32748" lon="-0.5556">
        <ele>41.778049</ele>
        <time>2022-08-04T13:48:01.000Z</time>
      </trkpt>
      <trkpt lat="49.3275" lon="-0.55556">
        <ele>41.991615</ele>
        <time>2022-08-04T13:48:02.000Z</time>
      </trkpt>
      <trkpt lat="49.32753" lon="-0.55549">
        <ele>42.232178</ele>
        <time>2022-08-04T13:48:03.000Z</time>
      </trkpt>
      <trkpt lat="49.32756" lon="-0.55544">
        <ele>42.440404</ele>
        <time>2022-08-04T13:48:04.000Z</time>
      </trkpt>
      <trkpt lat="49.32757" lon="-0.5554">
        <ele>42.562526</ele>
        <time>2022-08-04T13:48:05.000Z</time>
      </trkpt>
      <trkpt lat="49.32759" lon="-0.55535">
        <ele>42.674178</ele>
        <time>2022-08-04T13:48:06.000Z</time>
      </trkpt>
      <trkpt lat="49.32762" lon="-0.55529">
        <ele>42.814633</ele>
        <time>2022-08-04T13:48:07.000Z</time>
      </trkpt>
      <trkpt lat="49.32764" lon="-0.55525">
        <ele>42.897451</ele>
        <time>2022-08-04T13:48:08.000Z</time>
      </trkpt>
      <trkpt lat="49.32766" lon="-0.55521">
        <ele>43.016389</ele>
        <time>2022-08-04T13:48:09.000Z</time>
      </trkpt>
      <trkpt lat="49.32769" lon="-0.55517">
        <ele>43.127873</ele>
        <time>2022-08-04T13:48:10.000Z</time>
      </trkpt>
      <trkpt lat="49.32771" lon="-0.55512">
        <ele>43.232992</ele>
        <time>2022-08-04T13:48:11.000Z</time>
      </trkpt>
      <trkpt lat="49.32773" lon="-0.55507">
        <ele>43.339731</ele>
        <time>2022-08-04T13:48:12.000Z</time>
      </trkpt>
      <trkpt lat="49.32775" lon="-0.55502">
        <ele>43.449737</ele>
        <time>2022-08-04T13:48:13.000Z</time>
      </trkpt>
      <trkpt lat="49.32777" lon="-0.55497">
        <ele>43.563043</ele>
        <time>2022-08-04T13:48:14.000Z</time>
      </trkpt>
      <trkpt lat="49.32779" lon="-0.55492">
        <ele>43.671325</ele>
        <time>2022-08-04T13:48:15.000Z</time>
      </trkpt>
      <trkpt lat="49.32781" lon="-0.55487">
        <ele>43.778064</ele>
        <time>2022-08-04T13:48:16.000Z</time>
      </trkpt>
      <trkpt lat="49.32783" lon="-0.55483">
        <ele>43.888046</ele>
        <time>2022-08-04T13:48:17.000Z</time>
      </trkpt>
      <trkpt lat="49.32785" lon="-0.55478">
        <ele>43.996739</ele>
        <time>2022-08-04T13:48:18.000Z</time>
      </trkpt>
      <trkpt lat="49.32787" lon="-0.55474">
        <ele>44.100641</ele>
        <time>2022-08-04T13:48:19.000Z</time>
      </trkpt>
      <trkpt lat="49.32789" lon="-0.55469">
        <ele>44.196405</ele>
        <time>2022-08-04T13:48:20.000Z</time>
      </trkpt>
      <trkpt lat="49.32791" lon="-0.55465">
        <ele>44.292023</ele>
        <time>2022-08-04T13:48:21.000Z</time>
      </trkpt>
      <trkpt lat="49.32792" lon="-0.55461">
        <ele>44.376976</ele>
        <time>2022-08-04T13:48:22.000Z</time>
      </trkpt>
      <trkpt lat="49.32793" lon="-0.55458">
        <ele>44.456868</ele>
        <time>2022-08-04T13:48:23.000Z</time>
      </trkpt>
      <trkpt lat="49.32795" lon="-0.55454">
        <ele>44.530157</ele>
        <time>2022-08-04T13:48:24.000Z</time>
      </trkpt>
      <trkpt lat="49.32795" lon="-0.55451">
        <ele>44.593444</ele>
        <time>2022-08-04T13:48:25.000Z</time>
      </trkpt>
      <trkpt lat="49.32797" lon="-0.55448">
        <ele>44.674699</ele>
        <time>2022-08-04T13:48:26.000Z</time>
      </trkpt>
      <trkpt lat="49.32798" lon="-0.55446">
        <ele>44.728386</ele>
        <time>2022-08-04T13:48:27.000Z</time>
      </trkpt>
      <trkpt lat="49.32799" lon="-0.55443">
        <ele>44.791155</ele>
        <time>2022-08-04T13:48:28.000Z</time>
      </trkpt>
      <trkpt lat="49.328" lon="-0.5544">
        <ele>44.854958</ele>
        <time>2022-08-04T13:48:29.000Z</time>
      </trkpt>
      <trkpt lat="49.32801" lon="-0.55437">
        <ele>44.908424</ele>
        <time>2022-08-04T13:48:30.000Z</time>
      </trkpt>
      <trkpt lat="49.32803" lon="-0.55434">
        <ele>44.985081</ele>
        <time>2022-08-04T13:48:31.000Z</time>
      </trkpt>
      <trkpt lat="49.32804" lon="-0.55429">
        <ele>45.087552</ele>
        <time>2022-08-04T13:48:33.000Z</time>
      </trkpt>
      <trkpt lat="49.32805" lon="-0.55427">
        <ele>45.141834</ele>
        <time>2022-08-04T13:48:34.000Z</time>
      </trkpt>
      <trkpt lat="49.32806" lon="-0.55424">
        <ele>45.202621</ele>
        <time>2022-08-04T13:48:35.000Z</time>
      </trkpt>
      <trkpt lat="49.32808" lon="-0.55422">
        <ele>45.27198</ele>
        <time>2022-08-04T13:48:36.000Z</time>
      </trkpt>
      <trkpt lat="49.32809" lon="-0.55418">
        <ele>45.337096</ele>
        <time>2022-08-04T13:48:37.000Z</time>
      </trkpt>
      <trkpt lat="49.3281" lon="-0.55414">
        <ele>45.420353</ele>
        <time>2022-08-04T13:48:38.000Z</time>
      </trkpt>
      <trkpt lat="49.32811" lon="-0.55409">
        <ele>45.517552</ele>
        <time>2022-08-04T13:48:39.000Z</time>
      </trkpt>
      <trkpt lat="49.32811" lon="-0.55406">
        <ele>45.588176</ele>
        <time>2022-08-04T13:48:40.000Z</time>
      </trkpt>
      <trkpt lat="49.32813" lon="-0.55401">
        <ele>45.685218</ele>
        <time>2022-08-04T13:48:41.000Z</time>
      </trkpt>
      <trkpt lat="49.32814" lon="-0.55396">
        <ele>45.784011</ele>
        <time>2022-08-04T13:48:42.000Z</time>
      </trkpt>
      <trkpt lat="49.32815" lon="-0.55391">
        <ele>45.8826</ele>
        <time>2022-08-04T13:48:43.000Z</time>
      </trkpt>
      <trkpt lat="49.32816" lon="-0.55385">
        <ele>46.011827</ele>
        <time>2022-08-04T13:48:44.000Z</time>
      </trkpt>
      <trkpt lat="49.32817" lon="-0.5538">
        <ele>46.097265</ele>
        <time>2022-08-04T13:48:45.000Z</time>
      </trkpt>
      <trkpt lat="49.32818" lon="-0.55374">
        <ele>46.231953</ele>
        <time>2022-08-04T13:48:46.000Z</time>
      </trkpt>
      <trkpt lat="49.32819" lon="-0.55368">
        <ele>46.344145</ele>
        <time>2022-08-04T13:48:47.000Z</time>
      </trkpt>
      <trkpt lat="49.3282" lon="-0.55362">
        <ele>46.457463</ele>
        <time>2022-08-04T13:48:48.000Z</time>
      </trkpt>
      <trkpt lat="49.32821" lon="-0.55356">
        <ele>46.567705</ele>
        <time>2022-08-04T13:48:49.000Z</time>
      </trkpt>
      <trkpt lat="49.32822" lon="-0.55352">
        <ele>46.666498</ele>
        <time>2022-08-04T13:48:50.000Z</time>
      </trkpt>
      <trkpt lat="49.32822" lon="-0.55346">
        <ele>46.78187</ele>
        <time>2022-08-04T13:48:51.000Z</time>
      </trkpt>
      <trkpt lat="49.32823" lon="-0.55338">
        <ele>46.925486</ele>
        <time>2022-08-04T13:48:52.000Z</time>
      </trkpt>
      <trkpt lat="49.32824" lon="-0.55332">
        <ele>47.050702</ele>
        <time>2022-08-04T13:48:53.000Z</time>
      </trkpt>
      <trkpt lat="49.32824" lon="-0.55326">
        <ele>47.149921</ele>
        <time>2022-08-04T13:48:54.000Z</time>
      </trkpt>
      <trkpt lat="49.32824" lon="-0.5532">
        <ele>47.27377</ele>
        <time>2022-08-04T13:48:55.000Z</time>
      </trkpt>
      <trkpt lat="49.32825" lon="-0.55314">
        <ele>47.395237</ele>
        <time>2022-08-04T13:48:56.000Z</time>
      </trkpt>
      <trkpt lat="49.32826" lon="-0.55306">
        <ele>47.542627</ele>
        <time>2022-08-04T13:48:57.000Z</time>
      </trkpt>
      <trkpt lat="49.32826" lon="-0.553">
        <ele>47.647161</ele>
        <time>2022-08-04T13:48:58.000Z</time>
      </trkpt>
      <trkpt lat="49.32826" lon="-0.55294">
        <ele>47.747982</ele>
        <time>2022-08-04T13:48:59.000Z</time>
      </trkpt>
      <trkpt lat="49.32826" lon="-0.55287">
        <ele>47.743665</ele>
        <time>2022-08-04T13:49:00.000Z</time>
      </trkpt>
      <trkpt lat="49.32825" lon="-0.5528">
        <ele>47.739182</ele>
        <time>2022-08-04T13:49:01.000Z</time>
      </trkpt>
      <trkpt lat="49.32825" lon="-0.55272">
        <ele>47.734484</ele>
        <time>2022-08-04T13:49:02.000Z</time>
      </trkpt>
      <trkpt lat="49.32826" lon="-0.55265">
        <ele>47.729813</ele>
        <time>2022-08-04T13:49:03.000Z</time>
      </trkpt>
      <trkpt lat="49.32826" lon="-0.55257">
        <ele>47.724924</ele>
        <time>2022-08-04T13:49:04.000Z</time>
      </trkpt>
      <trkpt lat="49.32826" lon="-0.55248">
        <ele>47.719019</ele>
        <time>2022-08-04T13:49:05.000Z</time>
      </trkpt>
      <trkpt lat="49.32825" lon="-0.55242">
        <ele>47.715166</ele>
        <time>2022-08-04T13:49:06.000Z</time>
      </trkpt>
      <trkpt lat="49.32825" lon="-0.55234">
        <ele>47.710261</ele>
        <time>2022-08-04T13:49:07.000Z</time>
      </trkpt>
      <trkpt lat="49.32824" lon="-0.55227">
        <ele>47.705427</ele>
        <time>2022-08-04T13:49:08.000Z</time>
      </trkpt>
      <trkpt lat="49.32824" lon="-0.55218">
        <ele>47.699586</ele>
        <time>2022-08-04T13:49:09.000Z</time>
      </trkpt>
      <trkpt lat="49.32824" lon="-0.55212">
        <ele>47.695766</ele>
        <time>2022-08-04T13:49:10.000Z</time>
      </trkpt>
      <trkpt lat="49.32824" lon="-0.55202">
        <ele>47.689917</ele>
        <time>2022-08-04T13:49:11.000Z</time>
      </trkpt>
      <trkpt lat="49.32823" lon="-0.55196">
        <ele>47.685985</ele>
        <time>2022-08-04T13:49:12.000Z</time>
      </trkpt>
      <trkpt lat="49.32823" lon="-0.55189">
        <ele>47.681087</ele>
        <time>2022-08-04T13:49:13.000Z</time>
      </trkpt>
      <trkpt lat="49.32822" lon="-0.55181">
        <ele>47.676317</ele>
        <time>2022-08-04T13:49:14.000Z</time>
      </trkpt>
      <trkpt lat="49.32822" lon="-0.55174">
        <ele>47.671708</ele>
        <time>2022-08-04T13:49:15.000Z</time>
      </trkpt>
      <trkpt lat="49.32821" lon="-0.55167">
        <ele>47.667149</ele>
        <time>2022-08-04T13:49:16.000Z</time>
      </trkpt>
      <trkpt lat="49.32821" lon="-0.5516">
        <ele>47.662695</ele>
        <time>2022-08-04T13:49:17.000Z</time>
      </trkpt>
      <trkpt lat="49.3282" lon="-0.55153">
        <ele>47.658276</ele>
        <time>2022-08-04T13:49:18.000Z</time>
      </trkpt>
      <trkpt lat="49.3282" lon="-0.55146">
        <ele>47.653941</ele>
        <time>2022-08-04T13:49:19.000Z</time>
      </trkpt>
      <trkpt lat="49.32819" lon="-0.55139">
        <ele>47.649598</ele>
        <time>2022-08-04T13:49:20.000Z</time>
      </trkpt>
      <trkpt lat="49.32819" lon="-0.55133">
        <ele>47.645397</ele>
        <time>2022-08-04T13:49:21.000Z</time>
      </trkpt>
      <trkpt lat="49.32818" lon="-0.55126">
        <ele>47.641252</ele>
        <time>2022-08-04T13:49:22.000Z</time>
      </trkpt>
      <trkpt lat="49.32818" lon="-0.5512">
        <ele>47.636988</ele>
        <time>2022-08-04T13:49:23.000Z</time>
      </trkpt>
      <trkpt lat="49.32818" lon="-0.55113">
        <ele>47.632724</ele>
        <time>2022-08-04T13:49:24.000Z</time>
      </trkpt>
      <trkpt lat="49.32817" lon="-0.55106">
        <ele>47.628493</ele>
        <time>2022-08-04T13:49:25.000Z</time>
      </trkpt>
      <trkpt lat="49.32816" lon="-0.551">
        <ele>47.624311</ele>
        <time>2022-08-04T13:49:26.000Z</time>
      </trkpt>
      <trkpt lat="49.32816" lon="-0.55093">
        <ele>47.620237</ele>
        <time>2022-08-04T13:49:27.000Z</time>
      </trkpt>
      <trkpt lat="49.32815" lon="-0.55087">
        <ele>47.616243</ele>
        <time>2022-08-04T13:49:28.000Z</time>
      </trkpt>
      <trkpt lat="49.32815" lon="-0.55081">
        <ele>47.612423</ele>
        <time>2022-08-04T13:49:29.000Z</time>
      </trkpt>
      <trkpt lat="49.32814" lon="-0.55075">
        <ele>47.608602</ele>
        <time>2022-08-04T13:49:30.000Z</time>
      </trkpt>
      <trkpt lat="49.32814" lon="-0.55069">
        <ele>47.604623</ele>
        <time>2022-08-04T13:49:31.000Z</time>
      </trkpt>
      <trkpt lat="49.32813" lon="-0.55063">
        <ele>47.600753</ele>
        <time>2022-08-04T13:49:32.000Z</time>
      </trkpt>
      <trkpt lat="49.32813" lon="-0.55056">
        <ele>47.596081</ele>
        <time>2022-08-04T13:49:33.000Z</time>
      </trkpt>
      <trkpt lat="49.32813" lon="-0.55051">
        <ele>47.59297</ele>
        <time>2022-08-04T13:49:34.000Z</time>
      </trkpt>
      <trkpt lat="49.32812" lon="-0.55043">
        <ele>47.58816</ele>
        <time>2022-08-04T13:49:35.000Z</time>
      </trkpt>
      <trkpt lat="49.32811" lon="-0.55037">
        <ele>47.584118</ele>
        <time>2022-08-04T13:49:36.000Z</time>
      </trkpt>
      <trkpt lat="49.32811" lon="-0.5503">
        <ele>47.579824</ele>
        <time>2022-08-04T13:49:37.000Z</time>
      </trkpt>
      <trkpt lat="49.3281" lon="-0.55025">
        <ele>47.576436</ele>
        <time>2022-08-04T13:49:38.000Z</time>
      </trkpt>
      <trkpt lat="49.3281" lon="-0.55018">
        <ele>47.565147</ele>
        <time>2022-08-04T13:49:39.000Z</time>
      </trkpt>
      <trkpt lat="49.32809" lon="-0.55012">
        <ele>47.542309</ele>
        <time>2022-08-04T13:49:40.000Z</time>
      </trkpt>
      <trkpt lat="49.32808" lon="-0.55006">
        <ele>47.519359</ele>
        <time>2022-08-04T13:49:41.000Z</time>
      </trkpt>
      <trkpt lat="49.32808" lon="-0.54999">
        <ele>47.49554</ele>
        <time>2022-08-04T13:49:42.000Z</time>
      </trkpt>
      <trkpt lat="49.32807" lon="-0.54993">
        <ele>47.473031</ele>
        <time>2022-08-04T13:49:43.000Z</time>
      </trkpt>
      <trkpt lat="49.32807" lon="-0.54986">
        <ele>47.449378</ele>
        <time>2022-08-04T13:49:44.000Z</time>
      </trkpt>
      <trkpt lat="49.32806" lon="-0.54979">
        <ele>47.426428</ele>
        <time>2022-08-04T13:49:45.000Z</time>
      </trkpt>
      <trkpt lat="49.32806" lon="-0.54973">
        <ele>47.403126</ele>
        <time>2022-08-04T13:49:46.000Z</time>
      </trkpt>
      <trkpt lat="49.32806" lon="-0.54966">
        <ele>47.379473</ele>
        <time>2022-08-04T13:49:47.000Z</time>
      </trkpt>
      <trkpt lat="49.32805" lon="-0.54959">
        <ele>47.355264</ele>
        <time>2022-08-04T13:49:48.000Z</time>
      </trkpt>
      <trkpt lat="49.32805" lon="-0.54953">
        <ele>47.332314</ele>
        <time>2022-08-04T13:49:49.000Z</time>
      </trkpt>
      <trkpt lat="49.32804" lon="-0.54946">
        <ele>47.30831</ele>
        <time>2022-08-04T13:49:50.000Z</time>
      </trkpt>
      <trkpt lat="49.32804" lon="-0.54939">
        <ele>47.284263</ele>
        <time>2022-08-04T13:49:51.000Z</time>
      </trkpt>
      <trkpt lat="49.32803" lon="-0.54931">
        <ele>47.255201</ele>
        <time>2022-08-04T13:49:52.000Z</time>
      </trkpt>
      <trkpt lat="49.32803" lon="-0.54926">
        <ele>47.236464</ele>
        <time>2022-08-04T13:49:53.000Z</time>
      </trkpt>
      <trkpt lat="49.32803" lon="-0.54919">
        <ele>47.212866</ele>
        <time>2022-08-04T13:49:54.000Z</time>
      </trkpt>
      <trkpt lat="49.32803" lon="-0.54913">
        <ele>47.189916</ele>
        <time>2022-08-04T13:49:55.000Z</time>
      </trkpt>
      <trkpt lat="49.32803" lon="-0.54906">
        <ele>47.166318</ele>
        <time>2022-08-04T13:49:56.000Z</time>
      </trkpt>
      <trkpt lat="49.32802" lon="-0.54899">
        <ele>47.142973</ele>
        <time>2022-08-04T13:49:57.000Z</time>
      </trkpt>
      <trkpt lat="49.32802" lon="-0.54893">
        <ele>47.119375</ele>
        <time>2022-08-04T13:49:58.000Z</time>
      </trkpt>
      <trkpt lat="49.32802" lon="-0.54886">
        <ele>47.096482</ele>
        <time>2022-08-04T13:49:59.000Z</time>
      </trkpt>
      <trkpt lat="49.32802" lon="-0.54879">
        <ele>47.072885</ele>
        <time>2022-08-04T13:50:00.000Z</time>
      </trkpt>
      <trkpt lat="49.32802" lon="-0.54873">
        <ele>47.049583</ele>
        <time>2022-08-04T13:50:01.000Z</time>
      </trkpt>
      <trkpt lat="49.32802" lon="-0.54866">
        <ele>47.02593</ele>
        <time>2022-08-04T13:50:02.000Z</time>
      </trkpt>
      <trkpt lat="49.32803" lon="-0.54859">
        <ele>47.001883</ele>
        <time>2022-08-04T13:50:03.000Z</time>
      </trkpt>
      <trkpt lat="49.32803" lon="-0.54852">
        <ele>46.977229</ele>
        <time>2022-08-04T13:50:04.000Z</time>
      </trkpt>
      <trkpt lat="49.32803" lon="-0.54845">
        <ele>46.952873</ele>
        <time>2022-08-04T13:50:05.000Z</time>
      </trkpt>
      <trkpt lat="49.32803" lon="-0.54838">
        <ele>46.928166</ele>
        <time>2022-08-04T13:50:06.000Z</time>
      </trkpt>
      <trkpt lat="49.32804" lon="-0.54831">
        <ele>46.902926</ele>
        <time>2022-08-04T13:50:07.000Z</time>
      </trkpt>
      <trkpt lat="49.32805" lon="-0.54823">
        <ele>46.873649</ele>
        <time>2022-08-04T13:50:08.000Z</time>
      </trkpt>
      <trkpt lat="49.32805" lon="-0.54816">
        <ele>46.848783</ele>
        <time>2022-08-04T13:50:09.000Z</time>
      </trkpt>
      <trkpt lat="49.32806" lon="-0.54811">
        <ele>46.828672</ele>
        <time>2022-08-04T13:50:10.000Z</time>
      </trkpt>
      <trkpt lat="49.32807" lon="-0.54802">
        <ele>46.79856</ele>
        <time>2022-08-04T13:50:11.000Z</time>
      </trkpt>
      <trkpt lat="49.32807" lon="-0.54795">
        <ele>46.774555</ele>
        <time>2022-08-04T13:50:12.000Z</time>
      </trkpt>
      <trkpt lat="49.32808" lon="-0.54788">
        <ele>46.74892</ele>
        <time>2022-08-04T13:50:13.000Z</time>
      </trkpt>
      <trkpt lat="49.32809" lon="-0.54783">
        <ele>46.729481</ele>
        <time>2022-08-04T13:50:14.000Z</time>
      </trkpt>
      <trkpt lat="49.3281" lon="-0.54775">
        <ele>46.699758</ele>
        <time>2022-08-04T13:50:15.000Z</time>
      </trkpt>
      <trkpt lat="49.32811" lon="-0.54768">
        <ele>46.674519</ele>
        <time>2022-08-04T13:50:16.000Z</time>
      </trkpt>
      <trkpt lat="49.32812" lon="-0.54761">
        <ele>46.64939</ele>
        <time>2022-08-04T13:50:17.000Z</time>
      </trkpt>
      <trkpt lat="49.32813" lon="-0.54755">
        <ele>46.629653</ele>
        <time>2022-08-04T13:50:18.000Z</time>
      </trkpt>
      <trkpt lat="49.32813" lon="-0.54748">
        <ele>46.604787</ele>
        <time>2022-08-04T13:50:19.000Z</time>
      </trkpt>
      <trkpt lat="49.32814" lon="-0.5474">
        <ele>46.55391</ele>
        <time>2022-08-04T13:50:20.000Z</time>
      </trkpt>
      <trkpt lat="49.32815" lon="-0.54735">
        <ele>46.519645</ele>
        <time>2022-08-04T13:50:21.000Z</time>
      </trkpt>
      <trkpt lat="49.32816" lon="-0.54727">
        <ele>46.466147</ele>
        <time>2022-08-04T13:50:22.000Z</time>
      </trkpt>
      <trkpt lat="49.32817" lon="-0.54722">
        <ele>46.431628</ele>
        <time>2022-08-04T13:50:23.000Z</time>
      </trkpt>
      <trkpt lat="49.32818" lon="-0.54714">
        <ele>46.379389</ele>
        <time>2022-08-04T13:50:24.000Z</time>
      </trkpt>
      <trkpt lat="49.32819" lon="-0.54707">
        <ele>46.333524</ele>
        <time>2022-08-04T13:50:25.000Z</time>
      </trkpt>
      <trkpt lat="49.3282" lon="-0.547">
        <ele>46.290407</ele>
        <time>2022-08-04T13:50:26.000Z</time>
      </trkpt>
      <trkpt lat="49.32821" lon="-0.54695">
        <ele>46.254045</ele>
        <time>2022-08-04T13:50:27.000Z</time>
      </trkpt>
      <trkpt lat="49.32822" lon="-0.54688">
        <ele>46.209308</ele>
        <time>2022-08-04T13:50:28.000Z</time>
      </trkpt>
      <trkpt lat="49.32823" lon="-0.5468">
        <ele>46.155352</ele>
        <time>2022-08-04T13:50:29.000Z</time>
      </trkpt>
      <trkpt lat="49.32824" lon="-0.54673">
        <ele>46.108854</ele>
        <time>2022-08-04T13:50:30.000Z</time>
      </trkpt>
      <trkpt lat="49.32825" lon="-0.54666">
        <ele>46.062558</ele>
        <time>2022-08-04T13:50:31.000Z</time>
      </trkpt>
      <trkpt lat="49.32826" lon="-0.54661">
        <ele>46.025509</ele>
        <time>2022-08-04T13:50:32.000Z</time>
      </trkpt>
      <trkpt lat="49.32826" lon="-0.54654">
        <ele>45.979697</ele>
        <time>2022-08-04T13:50:33.000Z</time>
      </trkpt>
      <trkpt lat="49.32827" lon="-0.54645">
        <ele>45.925393</ele>
        <time>2022-08-04T13:50:34.000Z</time>
      </trkpt>
      <trkpt lat="49.32828" lon="-0.54638">
        <ele>45.878165</ele>
        <time>2022-08-04T13:50:35.000Z</time>
      </trkpt>
      <trkpt lat="49.32829" lon="-0.54633">
        <ele>45.840701</ele>
        <time>2022-08-04T13:50:36.000Z</time>
      </trkpt>
      <trkpt lat="49.3283" lon="-0.54624">
        <ele>45.785943</ele>
        <time>2022-08-04T13:50:37.000Z</time>
      </trkpt>
      <trkpt lat="49.32831" lon="-0.54617">
        <ele>45.737737</ele>
        <time>2022-08-04T13:50:38.000Z</time>
      </trkpt>
      <trkpt lat="49.32832" lon="-0.5461">
        <ele>45.689259</ele>
        <time>2022-08-04T13:50:39.000Z</time>
      </trkpt>
      <trkpt lat="49.32833" lon="-0.54603">
        <ele>45.641383</ele>
        <time>2022-08-04T13:50:40.000Z</time>
      </trkpt>
      <trkpt lat="49.32834" lon="-0.54597">
        <ele>45.604588</ele>
        <time>2022-08-04T13:50:41.000Z</time>
      </trkpt>
      <trkpt lat="49.32835" lon="-0.54589">
        <ele>45.550458</ele>
        <time>2022-08-04T13:50:42.000Z</time>
      </trkpt>
      <trkpt lat="49.32836" lon="-0.54583">
        <ele>45.513664</ele>
        <time>2022-08-04T13:50:43.000Z</time>
      </trkpt>
      <trkpt lat="49.32837" lon="-0.54575">
        <ele>45.458745</ele>
        <time>2022-08-04T13:50:44.000Z</time>
      </trkpt>
      <trkpt lat="49.32838" lon="-0.54568">
        <ele>45.412247</ele>
        <time>2022-08-04T13:50:45.000Z</time>
      </trkpt>
      <trkpt lat="49.32839" lon="-0.54561">
        <ele>45.365749</ele>
        <time>2022-08-04T13:50:46.000Z</time>
      </trkpt>
      <trkpt lat="49.3284" lon="-0.54554">
        <ele>45.319454</ele>
        <time>2022-08-04T13:50:47.000Z</time>
      </trkpt>
      <trkpt lat="49.32841" lon="-0.54547">
        <ele>45.273502</ele>
        <time>2022-08-04T13:50:48.000Z</time>
      </trkpt>
      <trkpt lat="49.32842" lon="-0.54541">
        <ele>45.234185</ele>
        <time>2022-08-04T13:50:49.000Z</time>
      </trkpt>
      <trkpt lat="49.32843" lon="-0.54533">
        <ele>45.177502</ele>
        <time>2022-08-04T13:50:50.000Z</time>
      </trkpt>
      <trkpt lat="49.32844" lon="-0.54525">
        <ele>45.127773</ele>
        <time>2022-08-04T13:50:51.000Z</time>
      </trkpt>
      <trkpt lat="49.32845" lon="-0.54518">
        <ele>45.078923</ele>
        <time>2022-08-04T13:50:52.000Z</time>
      </trkpt>
      <trkpt lat="49.32846" lon="-0.54511">
        <ele>45.030522</ele>
        <time>2022-08-04T13:50:53.000Z</time>
      </trkpt>
      <trkpt lat="49.32847" lon="-0.54505">
        <ele>44.990338</ele>
        <time>2022-08-04T13:50:54.000Z</time>
      </trkpt>
      <trkpt lat="49.32849" lon="-0.54496">
        <ele>44.930731</ele>
        <time>2022-08-04T13:50:55.000Z</time>
      </trkpt>
      <trkpt lat="49.3285" lon="-0.54488">
        <ele>44.87912</ele>
        <time>2022-08-04T13:50:56.000Z</time>
      </trkpt>
      <trkpt lat="49.32851" lon="-0.5448">
        <ele>44.828176</ele>
        <time>2022-08-04T13:50:57.000Z</time>
      </trkpt>
      <trkpt lat="49.32852" lon="-0.54474">
        <ele>44.772234</ele>
        <time>2022-08-04T13:50:58.000Z</time>
      </trkpt>
      <trkpt lat="49.32854" lon="-0.54465">
        <ele>44.6707</ele>
        <time>2022-08-04T13:50:59.000Z</time>
      </trkpt>
      <trkpt lat="49.32855" lon="-0.54457">
        <ele>44.584381</ele>
        <time>2022-08-04T13:51:00.000Z</time>
      </trkpt>
      <trkpt lat="49.32857" lon="-0.5445">
        <ele>44.500809</ele>
        <time>2022-08-04T13:51:01.000Z</time>
      </trkpt>
      <trkpt lat="49.32858" lon="-0.54442">
        <ele>44.41449</ele>
        <time>2022-08-04T13:51:02.000Z</time>
      </trkpt>
      <trkpt lat="49.3286" lon="-0.54435">
        <ele>44.343726</ele>
        <time>2022-08-04T13:51:03.000Z</time>
      </trkpt>
      <trkpt lat="49.32861" lon="-0.54428">
        <ele>44.258785</ele>
        <time>2022-08-04T13:51:04.000Z</time>
      </trkpt>
      <trkpt lat="49.32863" lon="-0.54419">
        <ele>44.157411</ele>
        <time>2022-08-04T13:51:05.000Z</time>
      </trkpt>
      <trkpt lat="49.32865" lon="-0.54411">
        <ele>44.073838</ele>
        <time>2022-08-04T13:51:06.000Z</time>
      </trkpt>
      <trkpt lat="49.32866" lon="-0.54405">
        <ele>44.003447</ele>
        <time>2022-08-04T13:51:07.000Z</time>
      </trkpt>
      <trkpt lat="49.32869" lon="-0.54396">
        <ele>43.9014</ele>
        <time>2022-08-04T13:51:08.000Z</time>
      </trkpt>
      <trkpt lat="49.3287" lon="-0.54389">
        <ele>43.818424</ele>
        <time>2022-08-04T13:51:09.000Z</time>
      </trkpt>
      <trkpt lat="49.32873" lon="-0.54381">
        <ele>43.731604</ele>
        <time>2022-08-04T13:51:10.000Z</time>
      </trkpt>
      <trkpt lat="49.32875" lon="-0.54374">
        <ele>43.646063</ele>
        <time>2022-08-04T13:51:11.000Z</time>
      </trkpt>
      <trkpt lat="49.32877" lon="-0.54366">
        <ele>43.563087</ele>
        <time>2022-08-04T13:51:12.000Z</time>
      </trkpt>
      <trkpt lat="49.32878" lon="-0.54359">
        <ele>43.479129</ele>
        <time>2022-08-04T13:51:13.000Z</time>
      </trkpt>
      <trkpt lat="49.32881" lon="-0.54352">
        <ele>43.396142</ele>
        <time>2022-08-04T13:51:14.000Z</time>
      </trkpt>
      <trkpt lat="49.32883" lon="-0.54344">
        <ele>43.311578</ele>
        <time>2022-08-04T13:51:15.000Z</time>
      </trkpt>
      <trkpt lat="49.32885" lon="-0.54339">
        <ele>43.244933</ele>
        <time>2022-08-04T13:51:16.000Z</time>
      </trkpt>
      <trkpt lat="49.32887" lon="-0.5433">
        <ele>43.146494</ele>
        <time>2022-08-04T13:51:17.000Z</time>
      </trkpt>
      <trkpt lat="49.3289" lon="-0.54323">
        <ele>43.059604</ele>
        <time>2022-08-04T13:51:18.000Z</time>
      </trkpt>
      <trkpt lat="49.32892" lon="-0.54316">
        <ele>42.974706</ele>
        <time>2022-08-04T13:51:19.000Z</time>
      </trkpt>
      <trkpt lat="49.32894" lon="-0.54308">
        <ele>42.888163</ele>
        <time>2022-08-04T13:51:20.000Z</time>
      </trkpt>
      <trkpt lat="49.32896" lon="-0.54301">
        <ele>42.803265</ele>
        <time>2022-08-04T13:51:21.000Z</time>
      </trkpt>
      <trkpt lat="49.32899" lon="-0.54294">
        <ele>42.715769</ele>
        <time>2022-08-04T13:51:22.000Z</time>
      </trkpt>
      <trkpt lat="49.32901" lon="-0.54286">
        <ele>42.626845</ele>
        <time>2022-08-04T13:51:23.000Z</time>
      </trkpt>
      <trkpt lat="49.32903" lon="-0.54279">
        <ele>42.539349</ele>
        <time>2022-08-04T13:51:24.000Z</time>
      </trkpt>
      <trkpt lat="49.32906" lon="-0.54271">
        <ele>42.454451</ele>
        <time>2022-08-04T13:51:25.000Z</time>
      </trkpt>
      <trkpt lat="49.32908" lon="-0.54264">
        <ele>42.36951</ele>
        <time>2022-08-04T13:51:26.000Z</time>
      </trkpt>
      <trkpt lat="49.3291" lon="-0.54256">
        <ele>42.280768</ele>
        <time>2022-08-04T13:51:27.000Z</time>
      </trkpt>
      <trkpt lat="49.32912" lon="-0.54249">
        <ele>42.192986</ele>
        <time>2022-08-04T13:51:28.000Z</time>
      </trkpt>
      <trkpt lat="49.32914" lon="-0.54243">
        <ele>42.124554</ele>
        <time>2022-08-04T13:51:29.000Z</time>
      </trkpt>
      <trkpt lat="49.32917" lon="-0.54234">
        <ele>42.014474</ele>
        <time>2022-08-04T13:51:30.000Z</time>
      </trkpt>
      <trkpt lat="49.32919" lon="-0.54226">
        <ele>41.928883</ele>
        <time>2022-08-04T13:51:31.000Z</time>
      </trkpt>
      <trkpt lat="49.32922" lon="-0.54219">
        <ele>41.844126</ele>
        <time>2022-08-04T13:51:32.000Z</time>
      </trkpt>
      <trkpt lat="49.32924" lon="-0.54212">
        <ele>41.763403</ele>
        <time>2022-08-04T13:51:33.000Z</time>
      </trkpt>
      <trkpt lat="49.32926" lon="-0.54204">
        <ele>41.683332</ele>
        <time>2022-08-04T13:51:34.000Z</time>
      </trkpt>
      <trkpt lat="49.32929" lon="-0.54197">
        <ele>41.596513</ele>
        <time>2022-08-04T13:51:35.000Z</time>
      </trkpt>
      <trkpt lat="49.32932" lon="-0.5419">
        <ele>41.517345</ele>
        <time>2022-08-04T13:51:36.000Z</time>
      </trkpt>
      <trkpt lat="49.32934" lon="-0.54182">
        <ele>41.435396</ele>
        <time>2022-08-04T13:51:37.000Z</time>
      </trkpt>
      <trkpt lat="49.32936" lon="-0.54175">
        <ele>41.357129</ele>
        <time>2022-08-04T13:51:38.000Z</time>
      </trkpt>
      <trkpt lat="49.32939" lon="-0.54168">
        <ele>41.275181</ele>
        <time>2022-08-04T13:51:39.000Z</time>
      </trkpt>
      <trkpt lat="49.32941" lon="-0.54161">
        <ele>41.195111</ele>
        <time>2022-08-04T13:51:40.000Z</time>
      </trkpt>
      <trkpt lat="49.32943" lon="-0.54154">
        <ele>41.115283</ele>
        <time>2022-08-04T13:51:41.000Z</time>
      </trkpt>
      <trkpt lat="49.32946" lon="-0.54148">
        <ele>41.049331</ele>
        <time>2022-08-04T13:51:42.000Z</time>
      </trkpt>
      <trkpt lat="49.32948" lon="-0.54139">
        <ele>40.954949</ele>
        <time>2022-08-04T13:51:43.000Z</time>
      </trkpt>
      <trkpt lat="49.32951" lon="-0.54132">
        <ele>40.871478</ele>
        <time>2022-08-04T13:51:44.000Z</time>
      </trkpt>
      <trkpt lat="49.32954" lon="-0.54125">
        <ele>40.789529</ele>
        <time>2022-08-04T13:51:45.000Z</time>
      </trkpt>
      <trkpt lat="49.32956" lon="-0.54118">
        <ele>40.70845</ele>
        <time>2022-08-04T13:51:46.000Z</time>
      </trkpt>
      <trkpt lat="49.32958" lon="-0.54112">
        <ele>40.644712</ele>
        <time>2022-08-04T13:51:47.000Z</time>
      </trkpt>
      <trkpt lat="49.32961" lon="-0.54104">
        <ele>40.546985</ele>
        <time>2022-08-04T13:51:48.000Z</time>
      </trkpt>
      <trkpt lat="49.32965" lon="-0.54097">
        <ele>40.461861</ele>
        <time>2022-08-04T13:51:49.000Z</time>
      </trkpt>
      <trkpt lat="49.32967" lon="-0.5409">
        <ele>40.384135</ele>
        <time>2022-08-04T13:51:50.000Z</time>
      </trkpt>
      <trkpt lat="49.3297" lon="-0.54083">
        <ele>40.303923</ele>
        <time>2022-08-04T13:51:51.000Z</time>
      </trkpt>
      <trkpt lat="49.32973" lon="-0.54076">
        <ele>40.217161</ele>
        <time>2022-08-04T13:51:52.000Z</time>
      </trkpt>
      <trkpt lat="49.32976" lon="-0.54068">
        <ele>40.132896</ele>
        <time>2022-08-04T13:51:53.000Z</time>
      </trkpt>
      <trkpt lat="49.32979" lon="-0.54061">
        <ele>40.047773</ele>
        <time>2022-08-04T13:51:54.000Z</time>
      </trkpt>
      <trkpt lat="49.32981" lon="-0.54056">
        <ele>39.985215</ele>
        <time>2022-08-04T13:51:55.000Z</time>
      </trkpt>
      <trkpt lat="49.32984" lon="-0.54048">
        <ele>39.890063</ele>
        <time>2022-08-04T13:51:56.000Z</time>
      </trkpt>
      <trkpt lat="49.32987" lon="-0.54041">
        <ele>39.811641</ele>
        <time>2022-08-04T13:51:57.000Z</time>
      </trkpt>
      <trkpt lat="49.3299" lon="-0.54035">
        <ele>39.728139</ele>
        <time>2022-08-04T13:51:58.000Z</time>
      </trkpt>
      <trkpt lat="49.32993" lon="-0.54028">
        <ele>39.648067</ele>
        <time>2022-08-04T13:51:59.000Z</time>
      </trkpt>
      <trkpt lat="49.32996" lon="-0.54022">
        <ele>39.581309</ele>
        <time>2022-08-04T13:52:00.000Z</time>
      </trkpt>
      <trkpt lat="49.33" lon="-0.54014">
        <ele>39.476101</ele>
        <time>2022-08-04T13:52:01.000Z</time>
      </trkpt>
      <trkpt lat="49.33003" lon="-0.54008">
        <ele>39.396856</ele>
        <time>2022-08-04T13:52:02.000Z</time>
      </trkpt>
      <trkpt lat="49.33007" lon="-0.54001">
        <ele>39.31368</ele>
        <time>2022-08-04T13:52:03.000Z</time>
      </trkpt>
      <trkpt lat="49.3301" lon="-0.53997">
        <ele>39.248518</ele>
        <time>2022-08-04T13:52:04.000Z</time>
      </trkpt>
      <trkpt lat="49.33014" lon="-0.53989">
        <ele>39.143502</ele>
        <time>2022-08-04T13:52:05.000Z</time>
      </trkpt>
      <trkpt lat="49.33018" lon="-0.53983">
        <ele>39.053732</ele>
        <time>2022-08-04T13:52:06.000Z</time>
      </trkpt>
      <trkpt lat="49.33021" lon="-0.53977">
        <ele>38.971138</ele>
        <time>2022-08-04T13:52:07.000Z</time>
      </trkpt>
      <trkpt lat="49.33026" lon="-0.53971">
        <ele>38.87898</ele>
        <time>2022-08-04T13:52:08.000Z</time>
      </trkpt>
      <trkpt lat="49.33029" lon="-0.53966">
        <ele>38.805078</ele>
        <time>2022-08-04T13:52:09.000Z</time>
      </trkpt>
      <trkpt lat="49.33034" lon="-0.5396">
        <ele>38.702861</ele>
        <time>2022-08-04T13:52:10.000Z</time>
      </trkpt>
      <trkpt lat="49.33037" lon="-0.53954">
        <ele>38.614616</ele>
        <time>2022-08-04T13:52:11.000Z</time>
      </trkpt>
      <trkpt lat="49.33042" lon="-0.53948">
        <ele>38.519502</ele>
        <time>2022-08-04T13:52:12.000Z</time>
      </trkpt>
      <trkpt lat="49.33045" lon="-0.53942">
        <ele>38.435352</ele>
        <time>2022-08-04T13:52:13.000Z</time>
      </trkpt>
      <trkpt lat="49.3305" lon="-0.53936">
        <ele>38.341582</ele>
        <time>2022-08-04T13:52:14.000Z</time>
      </trkpt>
      <trkpt lat="49.33054" lon="-0.53931">
        <ele>38.252219</ele>
        <time>2022-08-04T13:52:15.000Z</time>
      </trkpt>
      <trkpt lat="49.33058" lon="-0.53925">
        <ele>38.161248</ele>
        <time>2022-08-04T13:52:16.000Z</time>
      </trkpt>
      <trkpt lat="49.33062" lon="-0.5392">
        <ele>38.081637</ele>
        <time>2022-08-04T13:52:17.000Z</time>
      </trkpt>
      <trkpt lat="49.33067" lon="-0.53914">
        <ele>37.976619</ele>
        <time>2022-08-04T13:52:18.000Z</time>
      </trkpt>
      <trkpt lat="49.33071" lon="-0.53908">
        <ele>37.88848</ele>
        <time>2022-08-04T13:52:19.000Z</time>
      </trkpt>
      <trkpt lat="49.33075" lon="-0.53902">
        <ele>37.795607</ele>
        <time>2022-08-04T13:52:20.000Z</time>
      </trkpt>
      <trkpt lat="49.33079" lon="-0.53896">
        <ele>37.709603</ele>
        <time>2022-08-04T13:52:21.000Z</time>
      </trkpt>
      <trkpt lat="49.33083" lon="-0.53891">
        <ele>37.618155</ele>
        <time>2022-08-04T13:52:22.000Z</time>
      </trkpt>
      <trkpt lat="49.33087" lon="-0.53885">
        <ele>37.53141</ele>
        <time>2022-08-04T13:52:23.000Z</time>
      </trkpt>
      <trkpt lat="49.33091" lon="-0.53879">
        <ele>37.442773</ele>
        <time>2022-08-04T13:52:24.000Z</time>
      </trkpt>
      <trkpt lat="49.33095" lon="-0.53873">
        <ele>37.354528</ele>
        <time>2022-08-04T13:52:25.000Z</time>
      </trkpt>
      <trkpt lat="49.33098" lon="-0.53868">
        <ele>37.282104</ele>
        <time>2022-08-04T13:52:26.000Z</time>
      </trkpt>
      <trkpt lat="49.33102" lon="-0.53861">
        <ele>37.176885</ele>
        <time>2022-08-04T13:52:27.000Z</time>
      </trkpt>
      <trkpt lat="49.33106" lon="-0.53855">
        <ele>37.09014</ele>
        <time>2022-08-04T13:52:28.000Z</time>
      </trkpt>
      <trkpt lat="49.3311" lon="-0.53849">
        <ele>36.998493</ele>
        <time>2022-08-04T13:52:29.000Z</time>
      </trkpt>
      <trkpt lat="49.33113" lon="-0.53844">
        <ele>36.932023</ele>
        <time>2022-08-04T13:52:30.000Z</time>
      </trkpt>
      <trkpt lat="49.33117" lon="-0.53836">
        <ele>36.826117</ele>
        <time>2022-08-04T13:52:31.000Z</time>
      </trkpt>
      <trkpt lat="49.3312" lon="-0.5383">
        <ele>36.737186</ele>
        <time>2022-08-04T13:52:32.000Z</time>
      </trkpt>
      <trkpt lat="49.33124" lon="-0.53823">
        <ele>36.648254</ele>
        <time>2022-08-04T13:52:33.000Z</time>
      </trkpt>
      <trkpt lat="49.33127" lon="-0.53816">
        <ele>36.563422</ele>
        <time>2022-08-04T13:52:34.000Z</time>
      </trkpt>
      <trkpt lat="49.3313" lon="-0.5381">
        <ele>36.472029</ele>
        <time>2022-08-04T13:52:35.000Z</time>
      </trkpt>
      <trkpt lat="49.33134" lon="-0.53803">
        <ele>36.379625</ele>
        <time>2022-08-04T13:52:36.000Z</time>
      </trkpt>
      <trkpt lat="49.33137" lon="-0.53796">
        <ele>36.292997</ele>
        <time>2022-08-04T13:52:37.000Z</time>
      </trkpt>
      <trkpt lat="49.3314" lon="-0.53789">
        <ele>36.211937</ele>
        <time>2022-08-04T13:52:38.000Z</time>
      </trkpt>
      <trkpt lat="49.33143" lon="-0.53782">
        <ele>36.147603</ele>
        <time>2022-08-04T13:52:39.000Z</time>
      </trkpt>
      <trkpt lat="49.33146" lon="-0.53776">
        <ele>36.082597</ele>
        <time>2022-08-04T13:52:40.000Z</time>
      </trkpt>
      <trkpt lat="49.33149" lon="-0.53769">
        <ele>36.01759</ele>
        <time>2022-08-04T13:52:41.000Z</time>
      </trkpt>
      <trkpt lat="49.33152" lon="-0.53763">
        <ele>35.953033</ele>
        <time>2022-08-04T13:52:42.000Z</time>
      </trkpt>
      <trkpt lat="49.33155" lon="-0.53756">
        <ele>35.890695</ele>
        <time>2022-08-04T13:52:43.000Z</time>
      </trkpt>
      <trkpt lat="49.33157" lon="-0.5375">
        <ele>35.829729</ele>
        <time>2022-08-04T13:52:44.000Z</time>
      </trkpt>
      <trkpt lat="49.3316" lon="-0.53744">
        <ele>35.770141</ele>
        <time>2022-08-04T13:52:45.000Z</time>
      </trkpt>
      <trkpt lat="49.33163" lon="-0.53738">
        <ele>35.711232</ele>
        <time>2022-08-04T13:52:46.000Z</time>
      </trkpt>
      <trkpt lat="49.33165" lon="-0.53732">
        <ele>35.652243</ele>
        <time>2022-08-04T13:52:47.000Z</time>
      </trkpt>
      <trkpt lat="49.33168" lon="-0.53727">
        <ele>35.604091</ele>
        <time>2022-08-04T13:52:48.000Z</time>
      </trkpt>
      <trkpt lat="49.33171" lon="-0.5372">
        <ele>35.535682</ele>
        <time>2022-08-04T13:52:49.000Z</time>
      </trkpt>
      <trkpt lat="49.33173" lon="-0.53714">
        <ele>35.478125</ele>
        <time>2022-08-04T13:52:50.000Z</time>
      </trkpt>
      <trkpt lat="49.33175" lon="-0.53708">
        <ele>35.423252</ele>
        <time>2022-08-04T13:52:51.000Z</time>
      </trkpt>
      <trkpt lat="49.33177" lon="-0.53703">
        <ele>35.379677</ele>
        <time>2022-08-04T13:52:52.000Z</time>
      </trkpt>
      <trkpt lat="49.33179" lon="-0.53696">
        <ele>35.316867</ele>
        <time>2022-08-04T13:52:53.000Z</time>
      </trkpt>
      <trkpt lat="49.33181" lon="-0.5369">
        <ele>35.266531</ele>
        <time>2022-08-04T13:52:54.000Z</time>
      </trkpt>
      <trkpt lat="49.33182" lon="-0.53684">
        <ele>35.212616</ele>
        <time>2022-08-04T13:52:55.000Z</time>
      </trkpt>
      <trkpt lat="49.33185" lon="-0.53678">
        <ele>35.153707</ele>
        <time>2022-08-04T13:52:56.000Z</time>
      </trkpt>
      <trkpt lat="49.33186" lon="-0.53673">
        <ele>35.111401</ele>
        <time>2022-08-04T13:52:57.000Z</time>
      </trkpt>
      <trkpt lat="49.33189" lon="-0.53666">
        <ele>35.043678</ele>
        <time>2022-08-04T13:52:58.000Z</time>
      </trkpt>
      <trkpt lat="49.33191" lon="-0.5366">
        <ele>34.9839</ele>
        <time>2022-08-04T13:52:59.000Z</time>
      </trkpt>
      <trkpt lat="49.33193" lon="-0.53653">
        <ele>34.926324</ele>
        <time>2022-08-04T13:53:00.000Z</time>
      </trkpt>
      <trkpt lat="49.33195" lon="-0.53648">
        <ele>34.878381</ele>
        <time>2022-08-04T13:53:01.000Z</time>
      </trkpt>
      <trkpt lat="49.33197" lon="-0.5364">
        <ele>34.807458</ele>
        <time>2022-08-04T13:53:02.000Z</time>
      </trkpt>
      <trkpt lat="49.33198" lon="-0.53633">
        <ele>34.748631</ele>
        <time>2022-08-04T13:53:03.000Z</time>
      </trkpt>
      <trkpt lat="49.332" lon="-0.53626">
        <ele>34.685851</ele>
        <time>2022-08-04T13:53:04.000Z</time>
      </trkpt>
      <trkpt lat="49.33202" lon="-0.53618">
        <ele>34.623604</ele>
        <time>2022-08-04T13:53:05.000Z</time>
      </trkpt>
      <trkpt lat="49.33204" lon="-0.53612">
        <ele>34.571956</ele>
        <time>2022-08-04T13:53:06.000Z</time>
      </trkpt>
      <trkpt lat="49.33206" lon="-0.53603">
        <ele>34.493824</ele>
        <time>2022-08-04T13:53:07.000Z</time>
      </trkpt>
      <trkpt lat="49.33207" lon="-0.53596">
        <ele>34.431578</ele>
        <time>2022-08-04T13:53:08.000Z</time>
      </trkpt>
      <trkpt lat="49.33209" lon="-0.53588">
        <ele>34.366259</ele>
        <time>2022-08-04T13:53:09.000Z</time>
      </trkpt>
      <trkpt lat="49.3321" lon="-0.53582">
        <ele>34.314133</ele>
        <time>2022-08-04T13:53:10.000Z</time>
      </trkpt>
      <trkpt lat="49.33212" lon="-0.53573">
        <ele>34.234831</ele>
        <time>2022-08-04T13:53:11.000Z</time>
      </trkpt>
      <trkpt lat="49.33213" lon="-0.53564">
        <ele>34.165651</ele>
        <time>2022-08-04T13:53:12.000Z</time>
      </trkpt>
      <trkpt lat="49.33214" lon="-0.53557">
        <ele>34.101403</ele>
        <time>2022-08-04T13:53:13.000Z</time>
      </trkpt>
      <trkpt lat="49.33215" lon="-0.53549">
        <ele>34.03579</ele>
        <time>2022-08-04T13:53:14.000Z</time>
      </trkpt>
      <trkpt lat="49.33216" lon="-0.53541">
        <ele>33.950492</ele>
        <time>2022-08-04T13:53:15.000Z</time>
      </trkpt>
      <trkpt lat="49.33217" lon="-0.53533">
        <ele>33.850889</ele>
        <time>2022-08-04T13:53:16.000Z</time>
      </trkpt>
      <trkpt lat="49.33217" lon="-0.53525">
        <ele>33.752989</ele>
        <time>2022-08-04T13:53:17.000Z</time>
      </trkpt>
      <trkpt lat="49.33218" lon="-0.53517">
        <ele>33.658279</ele>
        <time>2022-08-04T13:53:18.000Z</time>
      </trkpt>
      <trkpt lat="49.33218" lon="-0.53511">
        <ele>33.578897</ele>
        <time>2022-08-04T13:53:19.000Z</time>
      </trkpt>
      <trkpt lat="49.33219" lon="-0.53502">
        <ele>33.463078</ele>
        <time>2022-08-04T13:53:20.000Z</time>
      </trkpt>
      <trkpt lat="49.3322" lon="-0.53494">
        <ele>33.365911</ele>
        <time>2022-08-04T13:53:21.000Z</time>
      </trkpt>
      <trkpt lat="49.3322" lon="-0.53486">
        <ele>33.269729</ele>
        <time>2022-08-04T13:53:22.000Z</time>
      </trkpt>
      <trkpt lat="49.33221" lon="-0.53478">
        <ele>33.172949</ele>
        <time>2022-08-04T13:53:23.000Z</time>
      </trkpt>
      <trkpt lat="49.33221" lon="-0.53471">
        <ele>33.079989</ele>
        <time>2022-08-04T13:53:24.000Z</time>
      </trkpt>
      <trkpt lat="49.33222" lon="-0.53463">
        <ele>32.98566</ele>
        <time>2022-08-04T13:53:25.000Z</time>
      </trkpt>
      <trkpt lat="49.33223" lon="-0.53456">
        <ele>32.890119</ele>
        <time>2022-08-04T13:53:26.000Z</time>
      </trkpt>
      <trkpt lat="49.33223" lon="-0.53448">
        <ele>32.798257</ele>
        <time>2022-08-04T13:53:27.000Z</time>
      </trkpt>
      <trkpt lat="49.33224" lon="-0.53443">
        <ele>32.729267</ele>
        <time>2022-08-04T13:53:28.000Z</time>
      </trkpt>
      <trkpt lat="49.33225" lon="-0.53435">
        <ele>32.63456</ele>
        <time>2022-08-04T13:53:29.000Z</time>
      </trkpt>
      <trkpt lat="49.33226" lon="-0.53427">
        <ele>32.533706</ele>
        <time>2022-08-04T13:53:30.000Z</time>
      </trkpt>
      <trkpt lat="49.33226" lon="-0.53421">
        <ele>32.453714</ele>
        <time>2022-08-04T13:53:31.000Z</time>
      </trkpt>
      <trkpt lat="49.33227" lon="-0.53415">
        <ele>32.383171</ele>
        <time>2022-08-04T13:53:32.000Z</time>
      </trkpt>
      <trkpt lat="49.33227" lon="-0.53407">
        <ele>32.281566</ele>
        <time>2022-08-04T13:53:33.000Z</time>
      </trkpt>
      <trkpt lat="49.33228" lon="-0.53397">
        <ele>32.151168</ele>
        <time>2022-08-04T13:53:34.000Z</time>
      </trkpt>
      <trkpt lat="49.33228" lon="-0.53389">
        <ele>32.061771</ele>
        <time>2022-08-04T13:53:35.000Z</time>
      </trkpt>
      <trkpt lat="49.33229" lon="-0.53383">
        <ele>31.976878</ele>
        <time>2022-08-04T13:53:36.000Z</time>
      </trkpt>
      <trkpt lat="49.33229" lon="-0.53376">
        <ele>31.898111</ele>
        <time>2022-08-04T13:53:37.000Z</time>
      </trkpt>
      <trkpt lat="49.3323" lon="-0.53367">
        <ele>31.785978</ele>
        <time>2022-08-04T13:53:38.000Z</time>
      </trkpt>
      <trkpt lat="49.33232" lon="-0.53357">
        <ele>31.650164</ele>
        <time>2022-08-04T13:53:39.000Z</time>
      </trkpt>
      <trkpt lat="49.33234" lon="-0.53347">
        <ele>31.529589</ele>
        <time>2022-08-04T13:53:40.000Z</time>
      </trkpt>
      <trkpt lat="49.33234" lon="-0.53341">
        <ele>31.448974</ele>
        <time>2022-08-04T13:53:41.000Z</time>
      </trkpt>
      <trkpt lat="49.33235" lon="-0.53332">
        <ele>31.342981</ele>
        <time>2022-08-04T13:53:42.000Z</time>
      </trkpt>
      <trkpt lat="49.33235" lon="-0.53325">
        <ele>31.253725</ele>
        <time>2022-08-04T13:53:43.000Z</time>
      </trkpt>
      <trkpt lat="49.33235" lon="-0.5332">
        <ele>31.18791</ele>
        <time>2022-08-04T13:53:44.000Z</time>
      </trkpt>
      <trkpt lat="49.33236" lon="-0.53315">
        <ele>31.131948</ele>
        <time>2022-08-04T13:53:45.000Z</time>
      </trkpt>
      <trkpt lat="49.33237" lon="-0.53307">
        <ele>31.026054</ele>
        <time>2022-08-04T13:53:46.000Z</time>
      </trkpt>
      <trkpt lat="49.33237" lon="-0.53298">
        <ele>30.917037</ele>
        <time>2022-08-04T13:53:47.000Z</time>
      </trkpt>
      <trkpt lat="49.33238" lon="-0.53291">
        <ele>30.823941</ele>
        <time>2022-08-04T13:53:48.000Z</time>
      </trkpt>
      <trkpt lat="49.33238" lon="-0.53283">
        <ele>30.731156</ele>
        <time>2022-08-04T13:53:49.000Z</time>
      </trkpt>
      <trkpt lat="49.33237" lon="-0.53278">
        <ele>30.660232</ele>
        <time>2022-08-04T13:53:50.000Z</time>
      </trkpt>
      <trkpt lat="49.33237" lon="-0.53269">
        <ele>30.556291</ele>
        <time>2022-08-04T13:53:51.000Z</time>
      </trkpt>
      <trkpt lat="49.33236" lon="-0.53262">
        <ele>30.455678</ele>
        <time>2022-08-04T13:53:52.000Z</time>
      </trkpt>
      <trkpt lat="49.33236" lon="-0.53255">
        <ele>30.3656</ele>
        <time>2022-08-04T13:53:53.000Z</time>
      </trkpt>
      <trkpt lat="49.33235" lon="-0.53249">
        <ele>30.289424</ele>
        <time>2022-08-04T13:53:54.000Z</time>
      </trkpt>
      <trkpt lat="49.33234" lon="-0.53241">
        <ele>30.170379</ele>
        <time>2022-08-04T13:53:55.000Z</time>
      </trkpt>
      <trkpt lat="49.33234" lon="-0.53233">
        <ele>30.073877</ele>
        <time>2022-08-04T13:53:56.000Z</time>
      </trkpt>
      <trkpt lat="49.33233" lon="-0.53227">
        <ele>29.99217</ele>
        <time>2022-08-04T13:53:57.000Z</time>
      </trkpt>
      <trkpt lat="49.33231" lon="-0.53218">
        <ele>29.865797</ele>
        <time>2022-08-04T13:53:58.000Z</time>
      </trkpt>
      <trkpt lat="49.3323" lon="-0.5321">
        <ele>29.755393</ele>
        <time>2022-08-04T13:53:59.000Z</time>
      </trkpt>
      <trkpt lat="49.33228" lon="-0.53202">
        <ele>29.644988</ele>
        <time>2022-08-04T13:54:00.000Z</time>
      </trkpt>
      <trkpt lat="49.33226" lon="-0.53194">
        <ele>29.532037</ele>
        <time>2022-08-04T13:54:01.000Z</time>
      </trkpt>
      <trkpt lat="49.33224" lon="-0.53186">
        <ele>29.42341</ele>
        <time>2022-08-04T13:54:02.000Z</time>
      </trkpt>
      <trkpt lat="49.33221" lon="-0.53179">
        <ele>29.31711</ele>
        <time>2022-08-04T13:54:03.000Z</time>
      </trkpt>
      <trkpt lat="49.33218" lon="-0.53173">
        <ele>29.20645</ele>
        <time>2022-08-04T13:54:04.000Z</time>
      </trkpt>
      <trkpt lat="49.33215" lon="-0.53165">
        <ele>29.095831</ele>
        <time>2022-08-04T13:54:05.000Z</time>
      </trkpt>
      <trkpt lat="49.33212" lon="-0.53159">
        <ele>28.982279</ele>
        <time>2022-08-04T13:54:06.000Z</time>
      </trkpt>
      <trkpt lat="49.33209" lon="-0.53154">
        <ele>28.893285</ele>
        <time>2022-08-04T13:54:07.000Z</time>
      </trkpt>
      <trkpt lat="49.33205" lon="-0.53146">
        <ele>28.757749</ele>
        <time>2022-08-04T13:54:08.000Z</time>
      </trkpt>
      <trkpt lat="49.33201" lon="-0.53139">
        <ele>28.648527</ele>
        <time>2022-08-04T13:54:09.000Z</time>
      </trkpt>
      <trkpt lat="49.33197" lon="-0.53133">
        <ele>28.531959</ele>
        <time>2022-08-04T13:54:10.000Z</time>
      </trkpt>
      <trkpt lat="49.33194" lon="-0.53126">
        <ele>28.412771</ele>
        <time>2022-08-04T13:54:11.000Z</time>
      </trkpt>
      <trkpt lat="49.3319" lon="-0.53119">
        <ele>28.297564</ele>
        <time>2022-08-04T13:54:12.000Z</time>
      </trkpt>
      <trkpt lat="49.33186" lon="-0.53113">
        <ele>28.181976</ele>
        <time>2022-08-04T13:54:13.000Z</time>
      </trkpt>
      <trkpt lat="49.33184" lon="-0.53105">
        <ele>28.068478</ele>
        <time>2022-08-04T13:54:14.000Z</time>
      </trkpt>
      <trkpt lat="49.33181" lon="-0.53098">
        <ele>27.958721</ele>
        <time>2022-08-04T13:54:15.000Z</time>
      </trkpt>
      <trkpt lat="49.33178" lon="-0.53091">
        <ele>27.849286</ele>
        <time>2022-08-04T13:54:16.000Z</time>
      </trkpt>
      <trkpt lat="49.33176" lon="-0.53083">
        <ele>27.743174</ele>
        <time>2022-08-04T13:54:17.000Z</time>
      </trkpt>
      <trkpt lat="49.33174" lon="-0.53076">
        <ele>27.638239</ele>
        <time>2022-08-04T13:54:18.000Z</time>
      </trkpt>
      <trkpt lat="49.33172" lon="-0.53068">
        <ele>27.532075</ele>
        <time>2022-08-04T13:54:19.000Z</time>
      </trkpt>
      <trkpt lat="49.3317" lon="-0.53061">
        <ele>27.428647</ele>
        <time>2022-08-04T13:54:20.000Z</time>
      </trkpt>
      <trkpt lat="49.33168" lon="-0.53056">
        <ele>27.355157</ele>
        <time>2022-08-04T13:54:21.000Z</time>
      </trkpt>
      <trkpt lat="49.33165" lon="-0.53049">
        <ele>27.238963</ele>
        <time>2022-08-04T13:54:22.000Z</time>
      </trkpt>
      <trkpt lat="49.33164" lon="-0.53043">
        <ele>27.150984</ele>
        <time>2022-08-04T13:54:23.000Z</time>
      </trkpt>
      <trkpt lat="49.33162" lon="-0.53036">
        <ele>27.056685</ele>
        <time>2022-08-04T13:54:24.000Z</time>
      </trkpt>
      <trkpt lat="49.3316" lon="-0.5303">
        <ele>26.966247</ele>
        <time>2022-08-04T13:54:25.000Z</time>
      </trkpt>
      <trkpt lat="49.33158" lon="-0.53024">
        <ele>26.98488</ele>
        <time>2022-08-04T13:54:26.000Z</time>
      </trkpt>
      <trkpt lat="49.33157" lon="-0.53018">
        <ele>27.018998</ele>
        <time>2022-08-04T13:54:27.000Z</time>
      </trkpt>
      <trkpt lat="49.33156" lon="-0.53013">
        <ele>27.053581</ele>
        <time>2022-08-04T13:54:28.000Z</time>
      </trkpt>
      <trkpt lat="49.33153" lon="-0.5301">
        <ele>27.083069</ele>
        <time>2022-08-04T13:54:29.000Z</time>
      </trkpt>
      <trkpt lat="49.3315" lon="-0.53004">
        <ele>27.128933</ele>
        <time>2022-08-04T13:54:30.000Z</time>
      </trkpt>
      <trkpt lat="49.33148" lon="-0.52998">
        <ele>27.168792</ele>
        <time>2022-08-04T13:54:31.000Z</time>
      </trkpt>
      <trkpt lat="49.33146" lon="-0.52992">
        <ele>27.211844</ele>
        <time>2022-08-04T13:54:32.000Z</time>
      </trkpt>
      <trkpt lat="49.33143" lon="-0.52987">
        <ele>27.252286</ele>
        <time>2022-08-04T13:54:33.000Z</time>
      </trkpt>
      <trkpt lat="49.3314" lon="-0.52983">
        <ele>27.284973</ele>
        <time>2022-08-04T13:54:34.000Z</time>
      </trkpt>
      <trkpt lat="49.33138" lon="-0.52978">
        <ele>27.319014</ele>
        <time>2022-08-04T13:54:35.000Z</time>
      </trkpt>
      <trkpt lat="49.33136" lon="-0.52973">
        <ele>27.355061</ele>
        <time>2022-08-04T13:54:36.000Z</time>
      </trkpt>
      <trkpt lat="49.33134" lon="-0.5297">
        <ele>27.377312</ele>
        <time>2022-08-04T13:54:37.000Z</time>
      </trkpt>
      <trkpt lat="49.33133" lon="-0.52968">
        <ele>27.395868</ele>
        <time>2022-08-04T13:54:38.000Z</time>
      </trkpt>
      <trkpt lat="49.33133" lon="-0.52963">
        <ele>27.422853</ele>
        <time>2022-08-04T13:54:40.000Z</time>
      </trkpt>
      <trkpt lat="49.33133" lon="-0.52959">
        <ele>27.449741</ele>
        <time>2022-08-04T13:54:42.000Z</time>
      </trkpt>
      <trkpt lat="49.33134" lon="-0.52957">
        <ele>27.466619</ele>
        <time>2022-08-04T13:54:43.000Z</time>
      </trkpt>
      <trkpt lat="49.33135" lon="-0.52955">
        <ele>27.485168</ele>
        <time>2022-08-04T13:54:44.000Z</time>
      </trkpt>
      <trkpt lat="49.33137" lon="-0.52953">
        <ele>27.501412</ele>
        <time>2022-08-04T13:54:45.000Z</time>
      </trkpt>
      <trkpt lat="49.33138" lon="-0.52951">
        <ele>27.520716</ele>
        <time>2022-08-04T13:54:46.000Z</time>
      </trkpt>
      <trkpt lat="49.3314" lon="-0.52947">
        <ele>27.545832</ele>
        <time>2022-08-04T13:54:47.000Z</time>
      </trkpt>
      <trkpt lat="49.33141" lon="-0.52943">
        <ele>27.569765</ele>
        <time>2022-08-04T13:54:48.000Z</time>
      </trkpt>
      <trkpt lat="49.33141" lon="-0.5294">
        <ele>27.59114</ele>
        <time>2022-08-04T13:54:49.000Z</time>
      </trkpt>
      <trkpt lat="49.33141" lon="-0.52936">
        <ele>27.613248</ele>
        <time>2022-08-04T13:54:50.000Z</time>
      </trkpt>
      <trkpt lat="49.33141" lon="-0.52932">
        <ele>27.637148</ele>
        <time>2022-08-04T13:54:51.000Z</time>
      </trkpt>
      <trkpt lat="49.33142" lon="-0.52929">
        <ele>27.658968</ele>
        <time>2022-08-04T13:54:52.000Z</time>
      </trkpt>
      <trkpt lat="49.33142" lon="-0.52925">
        <ele>27.682433</ele>
        <time>2022-08-04T13:54:53.000Z</time>
      </trkpt>
      <trkpt lat="49.33143" lon="-0.52921">
        <ele>27.704635</ele>
        <time>2022-08-04T13:54:54.000Z</time>
      </trkpt>
      <trkpt lat="49.33143" lon="-0.52917">
        <ele>27.728805</ele>
        <time>2022-08-04T13:54:55.000Z</time>
      </trkpt>
      <trkpt lat="49.33143" lon="-0.52914">
        <ele>27.74673</ele>
        <time>2022-08-04T13:54:56.000Z</time>
      </trkpt>
      <trkpt lat="49.33144" lon="-0.5291">
        <ele>27.773758</ele>
        <time>2022-08-04T13:54:57.000Z</time>
      </trkpt>
      <trkpt lat="49.33144" lon="-0.52906">
        <ele>27.797816</ele>
        <time>2022-08-04T13:54:58.000Z</time>
      </trkpt>
      <trkpt lat="49.33144" lon="-0.52902">
        <ele>27.822468</ele>
        <time>2022-08-04T13:54:59.000Z</time>
      </trkpt>
      <trkpt lat="49.33145" lon="-0.52898">
        <ele>27.849185</ele>
        <time>2022-08-04T13:55:00.000Z</time>
      </trkpt>
      <trkpt lat="49.33146" lon="-0.52894">
        <ele>27.873243</ele>
        <time>2022-08-04T13:55:01.000Z</time>
      </trkpt>
      <trkpt lat="49.33147" lon="-0.5289">
        <ele>27.901286</ele>
        <time>2022-08-04T13:55:02.000Z</time>
      </trkpt>
      <trkpt lat="49.33148" lon="-0.52886">
        <ele>27.925772</ele>
        <time>2022-08-04T13:55:03.000Z</time>
      </trkpt>
      <trkpt lat="49.3315" lon="-0.52882">
        <ele>27.956321</ele>
        <time>2022-08-04T13:55:04.000Z</time>
      </trkpt>
      <trkpt lat="49.33152" lon="-0.52878">
        <ele>27.984468</ele>
        <time>2022-08-04T13:55:05.000Z</time>
      </trkpt>
      <trkpt lat="49.33154" lon="-0.52874">
        <ele>28.013086</ele>
        <time>2022-08-04T13:55:06.000Z</time>
      </trkpt>
      <trkpt lat="49.33156" lon="-0.5287">
        <ele>28.041704</ele>
        <time>2022-08-04T13:55:07.000Z</time>
      </trkpt>
      <trkpt lat="49.33158" lon="-0.52867">
        <ele>28.070426</ele>
        <time>2022-08-04T13:55:08.000Z</time>
      </trkpt>
      <trkpt lat="49.3316" lon="-0.52863">
        <ele>28.098219</ele>
        <time>2022-08-04T13:55:09.000Z</time>
      </trkpt>
      <trkpt lat="49.33163" lon="-0.52861">
        <ele>28.127342</ele>
        <time>2022-08-04T13:55:10.000Z</time>
      </trkpt>
      <trkpt lat="49.33165" lon="-0.52857">
        <ele>28.15837</ele>
        <time>2022-08-04T13:55:11.000Z</time>
      </trkpt>
      <trkpt lat="49.33167" lon="-0.52853">
        <ele>28.192541</ele>
        <time>2022-08-04T13:55:12.000Z</time>
      </trkpt>
      <trkpt lat="49.33168" lon="-0.52848">
        <ele>28.221157</ele>
        <time>2022-08-04T13:55:13.000Z</time>
      </trkpt>
      <trkpt lat="49.33168" lon="-0.52843">
        <ele>28.248642</ele>
        <time>2022-08-04T13:55:14.000Z</time>
      </trkpt>
      <trkpt lat="49.33167" lon="-0.52836">
        <ele>28.290827</ele>
        <time>2022-08-04T13:55:15.000Z</time>
      </trkpt>
      <trkpt lat="49.33166" lon="-0.5283">
        <ele>28.331896</ele>
        <time>2022-08-04T13:55:16.000Z</time>
      </trkpt>
      <trkpt lat="49.33166" lon="-0.52823">
        <ele>28.371121</ele>
        <time>2022-08-04T13:55:17.000Z</time>
      </trkpt>
      <trkpt lat="49.33165" lon="-0.52817">
        <ele>28.405778</ele>
        <time>2022-08-04T13:55:18.000Z</time>
      </trkpt>
      <trkpt lat="49.33164" lon="-0.52809">
        <ele>28.455042</ele>
        <time>2022-08-04T13:55:19.000Z</time>
      </trkpt>
      <trkpt lat="49.33164" lon="-0.52803">
        <ele>28.495765</ele>
        <time>2022-08-04T13:55:20.000Z</time>
      </trkpt>
      <trkpt lat="49.33163" lon="-0.52796">
        <ele>28.537224</ele>
        <time>2022-08-04T13:55:21.000Z</time>
      </trkpt>
      <trkpt lat="49.33162" lon="-0.52789">
        <ele>28.577768</ele>
        <time>2022-08-04T13:55:22.000Z</time>
      </trkpt>
      <trkpt lat="49.33161" lon="-0.52784">
        <ele>28.614141</ele>
        <time>2022-08-04T13:55:23.000Z</time>
      </trkpt>
      <trkpt lat="49.3316" lon="-0.52776">
        <ele>28.688239</ele>
        <time>2022-08-04T13:55:24.000Z</time>
      </trkpt>
      <trkpt lat="49.33158" lon="-0.52769">
        <ele>28.752369</ele>
        <time>2022-08-04T13:55:25.000Z</time>
      </trkpt>
      <trkpt lat="49.33157" lon="-0.52762">
        <ele>28.815018</ele>
        <time>2022-08-04T13:55:26.000Z</time>
      </trkpt>
      <trkpt lat="49.33157" lon="-0.52755">
        <ele>28.880905</ele>
        <time>2022-08-04T13:55:27.000Z</time>
      </trkpt>
      <trkpt lat="49.33156" lon="-0.52748">
        <ele>28.946328</ele>
        <time>2022-08-04T13:55:28.000Z</time>
      </trkpt>
      <trkpt lat="49.33155" lon="-0.52741">
        <ele>29.011378</ele>
        <time>2022-08-04T13:55:29.000Z</time>
      </trkpt>
      <trkpt lat="49.33154" lon="-0.52734">
        <ele>29.07666</ele>
        <time>2022-08-04T13:55:30.000Z</time>
      </trkpt>
      <trkpt lat="49.33152" lon="-0.52727">
        <ele>29.142075</ele>
        <time>2022-08-04T13:55:31.000Z</time>
      </trkpt>
      <trkpt lat="49.33152" lon="-0.52721">
        <ele>29.195741</ele>
        <time>2022-08-04T13:55:32.000Z</time>
      </trkpt>
      <trkpt lat="49.3315" lon="-0.52713">
        <ele>29.273529</ele>
        <time>2022-08-04T13:55:33.000Z</time>
      </trkpt>
      <trkpt lat="49.33149" lon="-0.52706">
        <ele>29.338944</ele>
        <time>2022-08-04T13:55:34.000Z</time>
      </trkpt>
      <trkpt lat="49.33148" lon="-0.52699">
        <ele>29.402396</ele>
        <time>2022-08-04T13:55:35.000Z</time>
      </trkpt>
      <trkpt lat="49.33148" lon="-0.52692">
        <ele>29.466042</ele>
        <time>2022-08-04T13:55:36.000Z</time>
      </trkpt>
      <trkpt lat="49.33147" lon="-0.52684">
        <ele>29.532812</ele>
        <time>2022-08-04T13:55:37.000Z</time>
      </trkpt>
      <trkpt lat="49.33146" lon="-0.52677">
        <ele>29.600732</ele>
        <time>2022-08-04T13:55:38.000Z</time>
      </trkpt>
      <trkpt lat="49.33144" lon="-0.52669">
        <ele>29.670479</ele>
        <time>2022-08-04T13:55:39.000Z</time>
      </trkpt>
      <trkpt lat="49.33143" lon="-0.52662">
        <ele>29.739016</ele>
        <time>2022-08-04T13:55:40.000Z</time>
      </trkpt>
      <trkpt lat="49.33142" lon="-0.52655">
        <ele>29.807027</ele>
        <time>2022-08-04T13:55:41.000Z</time>
      </trkpt>
      <trkpt lat="49.33141" lon="-0.52647">
        <ele>29.876898</ele>
        <time>2022-08-04T13:55:42.000Z</time>
      </trkpt>
      <trkpt lat="49.33141" lon="-0.52639">
        <ele>29.948089</ele>
        <time>2022-08-04T13:55:43.000Z</time>
      </trkpt>
      <trkpt lat="49.3314" lon="-0.52631">
        <ele>30.020105</ele>
        <time>2022-08-04T13:55:44.000Z</time>
      </trkpt>
      <trkpt lat="49.3314" lon="-0.52623">
        <ele>30.0938</ele>
        <time>2022-08-04T13:55:45.000Z</time>
      </trkpt>
      <trkpt lat="49.33141" lon="-0.52615">
        <ele>30.166713</ele>
        <time>2022-08-04T13:55:46.000Z</time>
      </trkpt>
      <trkpt lat="49.33141" lon="-0.52607">
        <ele>30.240408</ele>
        <time>2022-08-04T13:55:47.000Z</time>
      </trkpt>
      <trkpt lat="49.33141" lon="-0.52599">
        <ele>30.309609</ele>
        <time>2022-08-04T13:55:48.000Z</time>
      </trkpt>
      <trkpt lat="49.33141" lon="-0.52592">
        <ele>30.373418</ele>
        <time>2022-08-04T13:55:49.000Z</time>
      </trkpt>
      <trkpt lat="49.33141" lon="-0.52585">
        <ele>30.435567</ele>
        <time>2022-08-04T13:55:50.000Z</time>
      </trkpt>
      <trkpt lat="49.33141" lon="-0.52578">
        <ele>30.499019</ele>
        <time>2022-08-04T13:55:51.000Z</time>
      </trkpt>
      <trkpt lat="49.33142" lon="-0.52571">
        <ele>30.56217</ele>
        <time>2022-08-04T13:55:52.000Z</time>
      </trkpt>
      <trkpt lat="49.33142" lon="-0.52564">
        <ele>30.62163</ele>
        <time>2022-08-04T13:55:53.000Z</time>
      </trkpt>
      <trkpt lat="49.33142" lon="-0.52559">
        <ele>30.670336</ele>
        <time>2022-08-04T13:55:54.000Z</time>
      </trkpt>
      <trkpt lat="49.33143" lon="-0.52551">
        <ele>30.739136</ele>
        <time>2022-08-04T13:55:55.000Z</time>
      </trkpt>
      <trkpt lat="49.33144" lon="-0.52545">
        <ele>30.796357</ele>
        <time>2022-08-04T13:55:56.000Z</time>
      </trkpt>
      <trkpt lat="49.33144" lon="-0.52539">
        <ele>30.853127</ele>
        <time>2022-08-04T13:55:57.000Z</time>
      </trkpt>
      <trkpt lat="49.33145" lon="-0.52532">
        <ele>30.912275</ele>
        <time>2022-08-04T13:55:58.000Z</time>
      </trkpt>
      <trkpt lat="49.33146" lon="-0.52526">
        <ele>30.969495</ele>
        <time>2022-08-04T13:55:59.000Z</time>
      </trkpt>
      <trkpt lat="49.33147" lon="-0.5252">
        <ele>31.028704</ele>
        <time>2022-08-04T13:56:00.000Z</time>
      </trkpt>
      <trkpt lat="49.33148" lon="-0.52513">
        <ele>31.08044</ele>
        <time>2022-08-04T13:56:01.000Z</time>
      </trkpt>
      <trkpt lat="49.33149" lon="-0.52507">
        <ele>31.064391</ele>
        <time>2022-08-04T13:56:02.000Z</time>
      </trkpt>
      <trkpt lat="49.3315" lon="-0.52501">
        <ele>31.049246</ele>
        <time>2022-08-04T13:56:03.000Z</time>
      </trkpt>
      <trkpt lat="49.33151" lon="-0.52494">
        <ele>31.033446</ele>
        <time>2022-08-04T13:56:04.000Z</time>
      </trkpt>
      <trkpt lat="49.33152" lon="-0.52488">
        <ele>31.017541</ele>
        <time>2022-08-04T13:56:05.000Z</time>
      </trkpt>
      <trkpt lat="49.33153" lon="-0.52481">
        <ele>31.000717</ele>
        <time>2022-08-04T13:56:06.000Z</time>
      </trkpt>
      <trkpt lat="49.33154" lon="-0.52475">
        <ele>30.984916</ele>
        <time>2022-08-04T13:56:07.000Z</time>
      </trkpt>
      <trkpt lat="49.33155" lon="-0.52468">
        <ele>30.968552</ele>
        <time>2022-08-04T13:56:08.000Z</time>
      </trkpt>
      <trkpt lat="49.33156" lon="-0.52462">
        <ele>30.952244</ele>
        <time>2022-08-04T13:56:09.000Z</time>
      </trkpt>
      <trkpt lat="49.33157" lon="-0.52455">
        <ele>30.935056</ele>
        <time>2022-08-04T13:56:10.000Z</time>
      </trkpt>
      <trkpt lat="49.33158" lon="-0.52448">
        <ele>30.918487</ele>
        <time>2022-08-04T13:56:11.000Z</time>
      </trkpt>
      <trkpt lat="49.33159" lon="-0.52441">
        <ele>30.900505</ele>
        <time>2022-08-04T13:56:12.000Z</time>
      </trkpt>
      <trkpt lat="49.3316" lon="-0.52434">
        <ele>30.88399</ele>
        <time>2022-08-04T13:56:13.000Z</time>
      </trkpt>
      <trkpt lat="49.33161" lon="-0.52427">
        <ele>30.865776</ele>
        <time>2022-08-04T13:56:14.000Z</time>
      </trkpt>
      <trkpt lat="49.33162" lon="-0.52419">
        <ele>30.847659</ele>
        <time>2022-08-04T13:56:15.000Z</time>
      </trkpt>
      <trkpt lat="49.33164" lon="-0.52412">
        <ele>30.828437</ele>
        <time>2022-08-04T13:56:16.000Z</time>
      </trkpt>
      <trkpt lat="49.33166" lon="-0.52404">
        <ele>30.807814</ele>
        <time>2022-08-04T13:56:17.000Z</time>
      </trkpt>
      <trkpt lat="49.33167" lon="-0.52396">
        <ele>30.787674</ele>
        <time>2022-08-04T13:56:18.000Z</time>
      </trkpt>
      <trkpt lat="49.33169" lon="-0.52388">
        <ele>30.767181</ele>
        <time>2022-08-04T13:56:19.000Z</time>
      </trkpt>
      <trkpt lat="49.33171" lon="-0.5238">
        <ele>30.746914</ele>
        <time>2022-08-04T13:56:20.000Z</time>
      </trkpt>
      <trkpt lat="49.33173" lon="-0.52372">
        <ele>30.727547</ele>
        <time>2022-08-04T13:56:21.000Z</time>
      </trkpt>
      <trkpt lat="49.33174" lon="-0.52365">
        <ele>30.708869</ele>
        <time>2022-08-04T13:56:22.000Z</time>
      </trkpt>
      <trkpt lat="49.33176" lon="-0.52357">
        <ele>30.689502</ele>
        <time>2022-08-04T13:56:23.000Z</time>
      </trkpt>
      <trkpt lat="49.33178" lon="-0.5235">
        <ele>30.670583</ele>
        <time>2022-08-04T13:56:24.000Z</time>
      </trkpt>
      <trkpt lat="49.3318" lon="-0.52342">
        <ele>30.651132</ele>
        <time>2022-08-04T13:56:25.000Z</time>
      </trkpt>
      <trkpt lat="49.33182" lon="-0.52335">
        <ele>30.630965</ele>
        <time>2022-08-04T13:56:26.000Z</time>
      </trkpt>
      <trkpt lat="49.33184" lon="-0.52327">
        <ele>30.611149</ele>
        <time>2022-08-04T13:56:27.000Z</time>
      </trkpt>
      <trkpt lat="49.33186" lon="-0.52319">
        <ele>30.590693</ele>
        <time>2022-08-04T13:56:28.000Z</time>
      </trkpt>
      <trkpt lat="49.33188" lon="-0.52312">
        <ele>30.570743</ele>
        <time>2022-08-04T13:56:29.000Z</time>
      </trkpt>
      <trkpt lat="49.3319" lon="-0.52304">
        <ele>30.550288</ele>
        <time>2022-08-04T13:56:30.000Z</time>
      </trkpt>
      <trkpt lat="49.33193" lon="-0.52296">
        <ele>30.528772</ele>
        <time>2022-08-04T13:56:31.000Z</time>
      </trkpt>
      <trkpt lat="49.33195" lon="-0.52288">
        <ele>30.50743</ele>
        <time>2022-08-04T13:56:32.000Z</time>
      </trkpt>
      <trkpt lat="49.33197" lon="-0.52279">
        <ele>30.486484</ele>
        <time>2022-08-04T13:56:33.000Z</time>
      </trkpt>
      <trkpt lat="49.33199" lon="-0.52271">
        <ele>30.465219</ele>
        <time>2022-08-04T13:56:34.000Z</time>
      </trkpt>
      <trkpt lat="49.33201" lon="-0.52263">
        <ele>30.443819</ele>
        <time>2022-08-04T13:56:35.000Z</time>
      </trkpt>
      <trkpt lat="49.33203" lon="-0.52255">
        <ele>30.423449</ele>
        <time>2022-08-04T13:56:36.000Z</time>
      </trkpt>
      <trkpt lat="49.33204" lon="-0.52247">
        <ele>30.402245</ele>
        <time>2022-08-04T13:56:37.000Z</time>
      </trkpt>
      <trkpt lat="49.33206" lon="-0.52238">
        <ele>30.379594</ele>
        <time>2022-08-04T13:56:38.000Z</time>
      </trkpt>
      <trkpt lat="49.33208" lon="-0.5223">
        <ele>30.357605</ele>
        <time>2022-08-04T13:56:39.000Z</time>
      </trkpt>
      <trkpt lat="49.3321" lon="-0.52222">
        <ele>30.335252</ele>
        <time>2022-08-04T13:56:40.000Z</time>
      </trkpt>
      <trkpt lat="49.33212" lon="-0.52213">
        <ele>30.311743</ele>
        <time>2022-08-04T13:56:41.000Z</time>
      </trkpt>
      <trkpt lat="49.33214" lon="-0.52205">
        <ele>30.28879</ele>
        <time>2022-08-04T13:56:42.000Z</time>
      </trkpt>
      <trkpt lat="49.33216" lon="-0.52196">
        <ele>30.265192</ele>
        <time>2022-08-04T13:56:43.000Z</time>
      </trkpt>
      <trkpt lat="49.33218" lon="-0.52188">
        <ele>30.242838</ele>
        <time>2022-08-04T13:56:44.000Z</time>
      </trkpt>
      <trkpt lat="49.3322" lon="-0.52179">
        <ele>30.219885</ele>
        <time>2022-08-04T13:56:45.000Z</time>
      </trkpt>
      <trkpt lat="49.33222" lon="-0.52171">
        <ele>30.197282</ele>
        <time>2022-08-04T13:56:46.000Z</time>
      </trkpt>
      <trkpt lat="49.33224" lon="-0.52163">
        <ele>30.174812</ele>
        <time>2022-08-04T13:56:47.000Z</time>
      </trkpt>
      <trkpt lat="49.33226" lon="-0.52154">
        <ele>30.1521</ele>
        <time>2022-08-04T13:56:48.000Z</time>
      </trkpt>
      <trkpt lat="49.33227" lon="-0.52146">
        <ele>30.129501</ele>
        <time>2022-08-04T13:56:49.000Z</time>
      </trkpt>
      <trkpt lat="49.33229" lon="-0.52137">
        <ele>30.106548</ele>
        <time>2022-08-04T13:56:50.000Z</time>
      </trkpt>
      <trkpt lat="49.33231" lon="-0.52129">
        <ele>30.083511</ele>
        <time>2022-08-04T13:56:51.000Z</time>
      </trkpt>
      <trkpt lat="49.33233" lon="-0.52121">
        <ele>30.061041</ele>
        <time>2022-08-04T13:56:52.000Z</time>
      </trkpt>
      <trkpt lat="49.33235" lon="-0.52112">
        <ele>30.038329</ele>
        <time>2022-08-04T13:56:53.000Z</time>
      </trkpt>
      <trkpt lat="49.33237" lon="-0.52104">
        <ele>30.01634</ele>
        <time>2022-08-04T13:56:54.000Z</time>
      </trkpt>
      <trkpt lat="49.33239" lon="-0.52096">
        <ele>29.993629</ele>
        <time>2022-08-04T13:56:55.000Z</time>
      </trkpt>
      <trkpt lat="49.33241" lon="-0.52088">
        <ele>29.971521</ele>
        <time>2022-08-04T13:56:56.000Z</time>
      </trkpt>
      <trkpt lat="49.33243" lon="-0.52079">
        <ele>29.948917</ele>
        <time>2022-08-04T13:56:57.000Z</time>
      </trkpt>
      <trkpt lat="49.33245" lon="-0.52071">
        <ele>29.926688</ele>
        <time>2022-08-04T13:56:58.000Z</time>
      </trkpt>
      <trkpt lat="49.33246" lon="-0.52063">
        <ele>29.90458</ele>
        <time>2022-08-04T13:56:59.000Z</time>
      </trkpt>
      <trkpt lat="49.33249" lon="-0.52054">
        <ele>29.880992</ele>
        <time>2022-08-04T13:57:00.000Z</time>
      </trkpt>
      <trkpt lat="49.33251" lon="-0.52046">
        <ele>29.858389</ele>
        <time>2022-08-04T13:57:01.000Z</time>
      </trkpt>
      <trkpt lat="49.33253" lon="-0.52038">
        <ele>29.835502</ele>
        <time>2022-08-04T13:57:02.000Z</time>
      </trkpt>
      <trkpt lat="49.33255" lon="-0.52029">
        <ele>29.812379</ele>
        <time>2022-08-04T13:57:03.000Z</time>
      </trkpt>
      <trkpt lat="49.33257" lon="-0.52021">
        <ele>29.790254</ele>
        <time>2022-08-04T13:57:04.000Z</time>
      </trkpt>
      <trkpt lat="49.33259" lon="-0.52013">
        <ele>29.767543</ele>
        <time>2022-08-04T13:57:05.000Z</time>
      </trkpt>
      <trkpt lat="49.33261" lon="-0.52005">
        <ele>29.745554</ele>
        <time>2022-08-04T13:57:06.000Z</time>
      </trkpt>
      <trkpt lat="49.33263" lon="-0.51997">
        <ele>29.722903</ele>
        <time>2022-08-04T13:57:07.000Z</time>
      </trkpt>
      <trkpt lat="49.33265" lon="-0.51988">
        <ele>29.7025</ele>
        <time>2022-08-04T13:57:08.000Z</time>
      </trkpt>
      <trkpt lat="49.33267" lon="-0.5198">
        <ele>29.684693</ele>
        <time>2022-08-04T13:57:09.000Z</time>
      </trkpt>
      <trkpt lat="49.33269" lon="-0.51974">
        <ele>29.66958</ele>
        <time>2022-08-04T13:57:10.000Z</time>
      </trkpt>
      <trkpt lat="49.33271" lon="-0.51963">
        <ele>29.647254</ele>
        <time>2022-08-04T13:57:11.000Z</time>
      </trkpt>
      <trkpt lat="49.33274" lon="-0.51955">
        <ele>29.628145</ele>
        <time>2022-08-04T13:57:12.000Z</time>
      </trkpt>
      <trkpt lat="49.33276" lon="-0.51946">
        <ele>29.609227</ele>
        <time>2022-08-04T13:57:13.000Z</time>
      </trkpt>
      <trkpt lat="49.33279" lon="-0.51938">
        <ele>29.589014</ele>
        <time>2022-08-04T13:57:14.000Z</time>
      </trkpt>
      <trkpt lat="49.33281" lon="-0.51929">
        <ele>29.569403</ele>
        <time>2022-08-04T13:57:15.000Z</time>
      </trkpt>
      <trkpt lat="49.33283" lon="-0.5192">
        <ele>29.549714</ele>
        <time>2022-08-04T13:57:16.000Z</time>
      </trkpt>
      <trkpt lat="49.33285" lon="-0.51911">
        <ele>29.530604</ele>
        <time>2022-08-04T13:57:17.000Z</time>
      </trkpt>
      <trkpt lat="49.33288" lon="-0.51903">
        <ele>29.510392</ele>
        <time>2022-08-04T13:57:18.000Z</time>
      </trkpt>
      <trkpt lat="49.33291" lon="-0.51894">
        <ele>29.491736</ele>
        <time>2022-08-04T13:57:19.000Z</time>
      </trkpt>
      <trkpt lat="49.33293" lon="-0.51886">
        <ele>29.472635</ele>
        <time>2022-08-04T13:57:20.000Z</time>
      </trkpt>
      <trkpt lat="49.33296" lon="-0.51878">
        <ele>29.454514</ele>
        <time>2022-08-04T13:57:21.000Z</time>
      </trkpt>
      <trkpt lat="49.33299" lon="-0.5187">
        <ele>29.435216</ele>
        <time>2022-08-04T13:57:22.000Z</time>
      </trkpt>
      <trkpt lat="49.33301" lon="-0.51862">
        <ele>29.416865</ele>
        <time>2022-08-04T13:57:23.000Z</time>
      </trkpt>
      <trkpt lat="49.33304" lon="-0.51854">
        <ele>29.398374</ele>
        <time>2022-08-04T13:57:24.000Z</time>
      </trkpt>
      <trkpt lat="49.33307" lon="-0.51846">
        <ele>29.379309</ele>
        <time>2022-08-04T13:57:25.000Z</time>
      </trkpt>
      <trkpt lat="49.33309" lon="-0.51838">
        <ele>29.360958</ele>
        <time>2022-08-04T13:57:26.000Z</time>
      </trkpt>
      <trkpt lat="49.33313" lon="-0.5183">
        <ele>29.341542</ele>
        <time>2022-08-04T13:57:27.000Z</time>
      </trkpt>
      <trkpt lat="49.33315" lon="-0.51822">
        <ele>29.323604</ele>
        <time>2022-08-04T13:57:28.000Z</time>
      </trkpt>
      <trkpt lat="49.33318" lon="-0.51815">
        <ele>29.305407</ele>
        <time>2022-08-04T13:57:29.000Z</time>
      </trkpt>
      <trkpt lat="49.33321" lon="-0.51808">
        <ele>29.28838</ele>
        <time>2022-08-04T13:57:30.000Z</time>
      </trkpt>
      <trkpt lat="49.33324" lon="-0.51801">
        <ele>29.270525</ele>
        <time>2022-08-04T13:57:31.000Z</time>
      </trkpt>
      <trkpt lat="49.33326" lon="-0.51795">
        <ele>29.256822</ele>
        <time>2022-08-04T13:57:32.000Z</time>
      </trkpt>
      <trkpt lat="49.3333" lon="-0.51786">
        <ele>29.235159</ele>
        <time>2022-08-04T13:57:33.000Z</time>
      </trkpt>
      <trkpt lat="49.33333" lon="-0.51779">
        <ele>29.217473</ele>
        <time>2022-08-04T13:57:34.000Z</time>
      </trkpt>
      <trkpt lat="49.33337" lon="-0.51772">
        <ele>29.198865</ele>
        <time>2022-08-04T13:57:35.000Z</time>
      </trkpt>
      <trkpt lat="49.33341" lon="-0.51765">
        <ele>29.179953</ele>
        <time>2022-08-04T13:57:36.000Z</time>
      </trkpt>
      <trkpt lat="49.33343" lon="-0.51758">
        <ele>29.162621</ele>
        <time>2022-08-04T13:57:37.000Z</time>
      </trkpt>
      <trkpt lat="49.33346" lon="-0.51752">
        <ele>29.14841</ele>
        <time>2022-08-04T13:57:38.000Z</time>
      </trkpt>
      <trkpt lat="49.3335" lon="-0.51744">
        <ele>29.131292</ele>
        <time>2022-08-04T13:57:39.000Z</time>
      </trkpt>
      <trkpt lat="49.33353" lon="-0.51737">
        <ele>29.119164</ele>
        <time>2022-08-04T13:57:40.000Z</time>
      </trkpt>
      <trkpt lat="49.33356" lon="-0.5173">
        <ele>29.107153</ele>
        <time>2022-08-04T13:57:41.000Z</time>
      </trkpt>
      <trkpt lat="49.33359" lon="-0.51723">
        <ele>29.095161</ele>
        <time>2022-08-04T13:57:42.000Z</time>
      </trkpt>
      <trkpt lat="49.33363" lon="-0.51716">
        <ele>29.082255</ele>
        <time>2022-08-04T13:57:43.000Z</time>
      </trkpt>
      <trkpt lat="49.33366" lon="-0.5171">
        <ele>29.069396</ele>
        <time>2022-08-04T13:57:44.000Z</time>
      </trkpt>
      <trkpt lat="49.3337" lon="-0.51703">
        <ele>29.056428</ele>
        <time>2022-08-04T13:57:45.000Z</time>
      </trkpt>
      <trkpt lat="49.33374" lon="-0.51697">
        <ele>29.043527</ele>
        <time>2022-08-04T13:57:46.000Z</time>
      </trkpt>
      <trkpt lat="49.33378" lon="-0.5169">
        <ele>29.030778</ele>
        <time>2022-08-04T13:57:47.000Z</time>
      </trkpt>
      <trkpt lat="49.33381" lon="-0.51684">
        <ele>29.018883</ele>
        <time>2022-08-04T13:57:48.000Z</time>
      </trkpt>
      <trkpt lat="49.33386" lon="-0.51677">
        <ele>29.005037</ele>
        <time>2022-08-04T13:57:49.000Z</time>
      </trkpt>
      <trkpt lat="49.33389" lon="-0.51671">
        <ele>28.99261</ele>
        <time>2022-08-04T13:57:50.000Z</time>
      </trkpt>
      <trkpt lat="49.33393" lon="-0.51665">
        <ele>28.980702</ele>
        <time>2022-08-04T13:57:51.000Z</time>
      </trkpt>
      <trkpt lat="49.33397" lon="-0.51659">
        <ele>28.967514</ele>
        <time>2022-08-04T13:57:52.000Z</time>
      </trkpt>
      <trkpt lat="49.33402" lon="-0.51653">
        <ele>28.954657</ele>
        <time>2022-08-04T13:57:53.000Z</time>
      </trkpt>
      <trkpt lat="49.33405" lon="-0.51647">
        <ele>28.943337</ele>
        <time>2022-08-04T13:57:54.000Z</time>
      </trkpt>
      <trkpt lat="49.33408" lon="-0.51641">
        <ele>28.93147</ele>
        <time>2022-08-04T13:57:55.000Z</time>
      </trkpt>
      <trkpt lat="49.33412" lon="-0.51635">
        <ele>28.919097</ele>
        <time>2022-08-04T13:57:56.000Z</time>
      </trkpt>
      <trkpt lat="49.33416" lon="-0.51629">
        <ele>28.906985</ele>
        <time>2022-08-04T13:57:57.000Z</time>
      </trkpt>
      <trkpt lat="49.3342" lon="-0.51623">
        <ele>28.895228</ele>
        <time>2022-08-04T13:57:58.000Z</time>
      </trkpt>
      <trkpt lat="49.33423" lon="-0.51617">
        <ele>28.883059</ele>
        <time>2022-08-04T13:57:59.000Z</time>
      </trkpt>
      <trkpt lat="49.33427" lon="-0.51611">
        <ele>28.870843</ele>
        <time>2022-08-04T13:58:00.000Z</time>
      </trkpt>
      <trkpt lat="49.33431" lon="-0.51605">
        <ele>28.859086</ele>
        <time>2022-08-04T13:58:01.000Z</time>
      </trkpt>
      <trkpt lat="49.33435" lon="-0.51599">
        <ele>28.846713</ele>
        <time>2022-08-04T13:58:02.000Z</time>
      </trkpt>
      <trkpt lat="49.33438" lon="-0.51593">
        <ele>28.834286</ele>
        <time>2022-08-04T13:58:03.000Z</time>
      </trkpt>
      <trkpt lat="49.33443" lon="-0.51587">
        <ele>28.821429</ele>
        <time>2022-08-04T13:58:04.000Z</time>
      </trkpt>
      <trkpt lat="49.33446" lon="-0.51581">
        <ele>28.809108</ele>
        <time>2022-08-04T13:58:05.000Z</time>
      </trkpt>
      <trkpt lat="49.33451" lon="-0.51575">
        <ele>28.79635</ele>
        <time>2022-08-04T13:58:06.000Z</time>
      </trkpt>
      <trkpt lat="49.33455" lon="-0.51569">
        <ele>28.783354</ele>
        <time>2022-08-04T13:58:07.000Z</time>
      </trkpt>
      <trkpt lat="49.33459" lon="-0.51563">
        <ele>28.771765</ele>
        <time>2022-08-04T13:58:08.000Z</time>
      </trkpt>
      <trkpt lat="49.33463" lon="-0.51558">
        <ele>28.75905</ele>
        <time>2022-08-04T13:58:09.000Z</time>
      </trkpt>
      <trkpt lat="49.33467" lon="-0.51552">
        <ele>28.747083</ele>
        <time>2022-08-04T13:58:10.000Z</time>
      </trkpt>
      <trkpt lat="49.3347" lon="-0.51547">
        <ele>28.732242</ele>
        <time>2022-08-04T13:58:11.000Z</time>
      </trkpt>
      <trkpt lat="49.33475" lon="-0.51541">
        <ele>28.703826</ele>
        <time>2022-08-04T13:58:12.000Z</time>
      </trkpt>
      <trkpt lat="49.33478" lon="-0.51536">
        <ele>28.679366</ele>
        <time>2022-08-04T13:58:13.000Z</time>
      </trkpt>
      <trkpt lat="49.33482" lon="-0.51531">
        <ele>28.653822</ele>
        <time>2022-08-04T13:58:14.000Z</time>
      </trkpt>
      <trkpt lat="49.33486" lon="-0.51525">
        <ele>28.627693</ele>
        <time>2022-08-04T13:58:15.000Z</time>
      </trkpt>
      <trkpt lat="49.3349" lon="-0.5152">
        <ele>28.60258</ele>
        <time>2022-08-04T13:58:16.000Z</time>
      </trkpt>
      <trkpt lat="49.33494" lon="-0.51515">
        <ele>28.577301</ele>
        <time>2022-08-04T13:58:17.000Z</time>
      </trkpt>
      <trkpt lat="49.33498" lon="-0.5151">
        <ele>28.551538</ele>
        <time>2022-08-04T13:58:18.000Z</time>
      </trkpt>
      <trkpt lat="49.33501" lon="-0.51505">
        <ele>28.527529</ele>
        <time>2022-08-04T13:58:19.000Z</time>
      </trkpt>
      <trkpt lat="49.33505" lon="-0.515">
        <ele>28.50225</ele>
        <time>2022-08-04T13:58:20.000Z</time>
      </trkpt>
      <trkpt lat="49.33509" lon="-0.51495">
        <ele>28.47735</ele>
        <time>2022-08-04T13:58:21.000Z</time>
      </trkpt>
      <trkpt lat="49.33512" lon="-0.5149">
        <ele>28.454166</ele>
        <time>2022-08-04T13:58:22.000Z</time>
      </trkpt>
      <trkpt lat="49.33516" lon="-0.51485">
        <ele>28.429266</ele>
        <time>2022-08-04T13:58:23.000Z</time>
      </trkpt>
      <trkpt lat="49.33519" lon="-0.51479">
        <ele>28.404673</ele>
        <time>2022-08-04T13:58:24.000Z</time>
      </trkpt>
      <trkpt lat="49.33523" lon="-0.51474">
        <ele>28.379773</ele>
        <time>2022-08-04T13:58:25.000Z</time>
      </trkpt>
      <trkpt lat="49.33527" lon="-0.51469">
        <ele>28.35423</ele>
        <time>2022-08-04T13:58:26.000Z</time>
      </trkpt>
      <trkpt lat="49.33531" lon="-0.51464">
        <ele>28.32818</ele>
        <time>2022-08-04T13:58:27.000Z</time>
      </trkpt>
      <trkpt lat="49.33535" lon="-0.51459">
        <ele>28.30328</ele>
        <time>2022-08-04T13:58:28.000Z</time>
      </trkpt>
      <trkpt lat="49.33539" lon="-0.51454">
        <ele>28.27758</ele>
        <time>2022-08-04T13:58:29.000Z</time>
      </trkpt>
      <trkpt lat="49.33542" lon="-0.51449">
        <ele>28.253347</ele>
        <time>2022-08-04T13:58:30.000Z</time>
      </trkpt>
      <trkpt lat="49.33546" lon="-0.51444">
        <ele>28.230398</ele>
        <time>2022-08-04T13:58:31.000Z</time>
      </trkpt>
      <trkpt lat="49.33549" lon="-0.51439">
        <ele>28.205071</ele>
        <time>2022-08-04T13:58:32.000Z</time>
      </trkpt>
      <trkpt lat="49.33553" lon="-0.51433">
        <ele>28.179157</ele>
        <time>2022-08-04T13:58:33.000Z</time>
      </trkpt>
      <trkpt lat="49.33557" lon="-0.51428">
        <ele>28.152281</ele>
        <time>2022-08-04T13:58:34.000Z</time>
      </trkpt>
      <trkpt lat="49.33561" lon="-0.51423">
        <ele>28.126792</ele>
        <time>2022-08-04T13:58:35.000Z</time>
      </trkpt>
      <trkpt lat="49.33565" lon="-0.51417">
        <ele>28.10103</ele>
        <time>2022-08-04T13:58:36.000Z</time>
      </trkpt>
      <trkpt lat="49.33569" lon="-0.51412">
        <ele>28.075541</ele>
        <time>2022-08-04T13:58:37.000Z</time>
      </trkpt>
      <trkpt lat="49.33573" lon="-0.51407">
        <ele>28.048665</ele>
        <time>2022-08-04T13:58:38.000Z</time>
      </trkpt>
      <trkpt lat="49.33577" lon="-0.51402">
        <ele>28.024205</ele>
        <time>2022-08-04T13:58:39.000Z</time>
      </trkpt>
      <trkpt lat="49.33581" lon="-0.51396">
        <ele>27.998505</ele>
        <time>2022-08-04T13:58:40.000Z</time>
      </trkpt>
      <trkpt lat="49.33584" lon="-0.51391">
        <ele>27.973393</ele>
        <time>2022-08-04T13:58:41.000Z</time>
      </trkpt>
      <trkpt lat="49.33588" lon="-0.51386">
        <ele>27.947264</ele>
        <time>2022-08-04T13:58:42.000Z</time>
      </trkpt>
      <trkpt lat="49.33592" lon="-0.51381">
        <ele>27.922152</ele>
        <time>2022-08-04T13:58:43.000Z</time>
      </trkpt>
      <trkpt lat="49.33596" lon="-0.51375">
        <ele>27.897464</ele>
        <time>2022-08-04T13:58:44.000Z</time>
      </trkpt>
      <trkpt lat="49.336" lon="-0.5137">
        <ele>27.869827</ele>
        <time>2022-08-04T13:58:45.000Z</time>
      </trkpt>
      <trkpt lat="49.33603" lon="-0.51365">
        <ele>27.84711</ele>
        <time>2022-08-04T13:58:46.000Z</time>
      </trkpt>
      <trkpt lat="49.33607" lon="-0.51361">
        <ele>27.800127</ele>
        <time>2022-08-04T13:58:47.000Z</time>
      </trkpt>
      <trkpt lat="49.3361" lon="-0.51357">
        <ele>27.758908</ele>
        <time>2022-08-04T13:58:48.000Z</time>
      </trkpt>
      <trkpt lat="49.33614" lon="-0.51351">
        <ele>27.701792</ele>
        <time>2022-08-04T13:58:49.000Z</time>
      </trkpt>
      <trkpt lat="49.33618" lon="-0.51347">
        <ele>27.656119</ele>
        <time>2022-08-04T13:58:50.000Z</time>
      </trkpt>
      <trkpt lat="49.33621" lon="-0.51343">
        <ele>27.616397</ele>
        <time>2022-08-04T13:58:51.000Z</time>
      </trkpt>
      <trkpt lat="49.33623" lon="-0.51339">
        <ele>27.580275</ele>
        <time>2022-08-04T13:58:52.000Z</time>
      </trkpt>
      <trkpt lat="49.33627" lon="-0.51334">
        <ele>27.52841</ele>
        <time>2022-08-04T13:58:53.000Z</time>
      </trkpt>
      <trkpt lat="49.33631" lon="-0.51329">
        <ele>27.479105</ele>
        <time>2022-08-04T13:58:54.000Z</time>
      </trkpt>
      <trkpt lat="49.33634" lon="-0.51325">
        <ele>27.433982</ele>
        <time>2022-08-04T13:58:55.000Z</time>
      </trkpt>
      <trkpt lat="49.33637" lon="-0.51321">
        <ele>27.397861</ele>
        <time>2022-08-04T13:58:56.000Z</time>
      </trkpt>
      <trkpt lat="49.33641" lon="-0.51315">
        <ele>27.337996</ele>
        <time>2022-08-04T13:58:57.000Z</time>
      </trkpt>
      <trkpt lat="49.33645" lon="-0.5131">
        <ele>27.290618</ele>
        <time>2022-08-04T13:58:58.000Z</time>
      </trkpt>
      <trkpt lat="49.33649" lon="-0.51305">
        <ele>27.239626</ele>
        <time>2022-08-04T13:58:59.000Z</time>
      </trkpt>
      <trkpt lat="49.33653" lon="-0.513">
        <ele>27.187857</ele>
        <time>2022-08-04T13:59:00.000Z</time>
      </trkpt>
      <trkpt lat="49.33655" lon="-0.51296">
        <ele>27.150583</ele>
        <time>2022-08-04T13:59:01.000Z</time>
      </trkpt>
      <trkpt lat="49.3366" lon="-0.5129">
        <ele>27.082262</ele>
        <time>2022-08-04T13:59:02.000Z</time>
      </trkpt>
      <trkpt lat="49.33664" lon="-0.51285">
        <ele>27.032636</ele>
        <time>2022-08-04T13:59:03.000Z</time>
      </trkpt>
      <trkpt lat="49.33668" lon="-0.51279">
        <ele>26.980326</ele>
        <time>2022-08-04T13:59:04.000Z</time>
      </trkpt>
      <trkpt lat="49.33671" lon="-0.51274">
        <ele>26.929767</ele>
        <time>2022-08-04T13:59:05.000Z</time>
      </trkpt>
      <trkpt lat="49.33676" lon="-0.51268">
        <ele>26.871164</ele>
        <time>2022-08-04T13:59:06.000Z</time>
      </trkpt>
      <trkpt lat="49.3368" lon="-0.51263">
        <ele>26.815771</ele>
        <time>2022-08-04T13:59:07.000Z</time>
      </trkpt>
      <trkpt lat="49.33684" lon="-0.51257">
        <ele>26.759414</ele>
        <time>2022-08-04T13:59:08.000Z</time>
      </trkpt>
      <trkpt lat="49.33688" lon="-0.51252">
        <ele>26.705005</ele>
        <time>2022-08-04T13:59:09.000Z</time>
      </trkpt>
      <trkpt lat="49.33692" lon="-0.51246">
        <ele>26.648648</ele>
        <time>2022-08-04T13:59:10.000Z</time>
      </trkpt>
      <trkpt lat="49.33696" lon="-0.51241">
        <ele>26.59558</ele>
        <time>2022-08-04T13:59:11.000Z</time>
      </trkpt>
      <trkpt lat="49.337" lon="-0.51235">
        <ele>26.542822</ele>
        <time>2022-08-04T13:59:12.000Z</time>
      </trkpt>
      <trkpt lat="49.33703" lon="-0.5123">
        <ele>26.489754</ele>
        <time>2022-08-04T13:59:13.000Z</time>
      </trkpt>
      <trkpt lat="49.33708" lon="-0.51225">
        <ele>26.435145</ele>
        <time>2022-08-04T13:59:14.000Z</time>
      </trkpt>
      <trkpt lat="49.33711" lon="-0.51219">
        <ele>26.381634</ele>
        <time>2022-08-04T13:59:15.000Z</time>
      </trkpt>
      <trkpt lat="49.33715" lon="-0.51214">
        <ele>26.333672</ele>
        <time>2022-08-04T13:59:16.000Z</time>
      </trkpt>
      <trkpt lat="49.33718" lon="-0.51209">
        <ele>26.281807</ele>
        <time>2022-08-04T13:59:17.000Z</time>
      </trkpt>
      <trkpt lat="49.33723" lon="-0.51204">
        <ele>26.226414</ele>
        <time>2022-08-04T13:59:18.000Z</time>
      </trkpt>
      <trkpt lat="49.33726" lon="-0.51198">
        <ele>26.174105</ele>
        <time>2022-08-04T13:59:19.000Z</time>
      </trkpt>
      <trkpt lat="49.3373" lon="-0.51193">
        <ele>26.119974</ele>
        <time>2022-08-04T13:59:20.000Z</time>
      </trkpt>
      <trkpt lat="49.33734" lon="-0.51187">
        <ele>26.06511</ele>
        <time>2022-08-04T13:59:21.000Z</time>
      </trkpt>
      <trkpt lat="49.33738" lon="-0.51181">
        <ele>26.00874</ele>
        <time>2022-08-04T13:59:22.000Z</time>
      </trkpt>
      <trkpt lat="49.33742" lon="-0.51176">
        <ele>25.929233</ele>
        <time>2022-08-04T13:59:23.000Z</time>
      </trkpt>
      <trkpt lat="49.33746" lon="-0.51171">
        <ele>25.85529</ele>
        <time>2022-08-04T13:59:24.000Z</time>
      </trkpt>
      <trkpt lat="49.3375" lon="-0.51165">
        <ele>25.780894</ele>
        <time>2022-08-04T13:59:25.000Z</time>
      </trkpt>
      <trkpt lat="49.33754" lon="-0.5116">
        <ele>25.706951</ele>
        <time>2022-08-04T13:59:26.000Z</time>
      </trkpt>
      <trkpt lat="49.33758" lon="-0.51155">
        <ele>25.629242</ele>
        <time>2022-08-04T13:59:27.000Z</time>
      </trkpt>
      <trkpt lat="49.33762" lon="-0.51149">
        <ele>25.554024</ele>
        <time>2022-08-04T13:59:28.000Z</time>
      </trkpt>
      <trkpt lat="49.33766" lon="-0.51144">
        <ele>25.474518</ele>
        <time>2022-08-04T13:59:29.000Z</time>
      </trkpt>
      <trkpt lat="49.3377" lon="-0.51138">
        <ele>25.397341</ele>
        <time>2022-08-04T13:59:30.000Z</time>
      </trkpt>
      <trkpt lat="49.33774" lon="-0.51132">
        <ele>25.314713</ele>
        <time>2022-08-04T13:59:31.000Z</time>
      </trkpt>
      <trkpt lat="49.33778" lon="-0.51126">
        <ele>25.237536</ele>
        <time>2022-08-04T13:59:32.000Z</time>
      </trkpt>
      <trkpt lat="49.33782" lon="-0.5112">
        <ele>25.155544</ele>
        <time>2022-08-04T13:59:33.000Z</time>
      </trkpt>
      <trkpt lat="49.33786" lon="-0.51115">
        <ele>25.077127</ele>
        <time>2022-08-04T13:59:34.000Z</time>
      </trkpt>
      <trkpt lat="49.33791" lon="-0.5111">
        <ele>24.995443</ele>
        <time>2022-08-04T13:59:35.000Z</time>
      </trkpt>
      <trkpt lat="49.33795" lon="-0.51104">
        <ele>24.917734</ele>
        <time>2022-08-04T13:59:36.000Z</time>
      </trkpt>
      <trkpt lat="49.33799" lon="-0.51099">
        <ele>24.839318</ele>
        <time>2022-08-04T13:59:37.000Z</time>
      </trkpt>
      <trkpt lat="49.33803" lon="-0.51093">
        <ele>24.759812</ele>
        <time>2022-08-04T13:59:38.000Z</time>
      </trkpt>
      <trkpt lat="49.33807" lon="-0.51088">
        <ele>24.680305</ele>
        <time>2022-08-04T13:59:39.000Z</time>
      </trkpt>
      <trkpt lat="49.33811" lon="-0.51082">
        <ele>24.604441</ele>
        <time>2022-08-04T13:59:40.000Z</time>
      </trkpt>
      <trkpt lat="49.33815" lon="-0.51078">
        <ele>24.538691</ele>
        <time>2022-08-04T13:59:41.000Z</time>
      </trkpt>
      <trkpt lat="49.3382" lon="-0.51071">
        <ele>24.443984</ele>
        <time>2022-08-04T13:59:42.000Z</time>
      </trkpt>
      <trkpt lat="49.33824" lon="-0.51065">
        <ele>24.362622</ele>
        <time>2022-08-04T13:59:43.000Z</time>
      </trkpt>
      <trkpt lat="49.33829" lon="-0.51059">
        <ele>24.275225</ele>
        <time>2022-08-04T13:59:44.000Z</time>
      </trkpt>
      <trkpt lat="49.33833" lon="-0.51054">
        <ele>24.194928</ele>
        <time>2022-08-04T13:59:45.000Z</time>
      </trkpt>
      <trkpt lat="49.33837" lon="-0.51048">
        <ele>24.113567</ele>
        <time>2022-08-04T13:59:46.000Z</time>
      </trkpt>
      <trkpt lat="49.33841" lon="-0.51042">
        <ele>24.030939</ele>
        <time>2022-08-04T13:59:47.000Z</time>
      </trkpt>
      <trkpt lat="49.33845" lon="-0.51036">
        <ele>23.944922</ele>
        <time>2022-08-04T13:59:48.000Z</time>
      </trkpt>
      <trkpt lat="49.3385" lon="-0.51029">
        <ele>23.861003</ele>
        <time>2022-08-04T13:59:49.000Z</time>
      </trkpt>
      <trkpt lat="49.33854" lon="-0.51023">
        <ele>23.776432</ele>
        <time>2022-08-04T13:59:50.000Z</time>
      </trkpt>
      <trkpt lat="49.33858" lon="-0.51017">
        <ele>23.689778</ele>
        <time>2022-08-04T13:59:51.000Z</time>
      </trkpt>
      <trkpt lat="49.33861" lon="-0.5101">
        <ele>23.611832</ele>
        <time>2022-08-04T13:59:52.000Z</time>
      </trkpt>
      <trkpt lat="49.33865" lon="-0.51004">
        <ele>23.530294</ele>
        <time>2022-08-04T13:59:53.000Z</time>
      </trkpt>
      <trkpt lat="49.33869" lon="-0.50997">
        <ele>23.446948</ele>
        <time>2022-08-04T13:59:54.000Z</time>
      </trkpt>
      <trkpt lat="49.33873" lon="-0.50991">
        <ele>23.228102</ele>
        <time>2022-08-04T13:59:55.000Z</time>
      </trkpt>
      <trkpt lat="49.33877" lon="-0.50984">
        <ele>22.969707</ele>
        <time>2022-08-04T13:59:56.000Z</time>
      </trkpt>
      <trkpt lat="49.3388" lon="-0.50978">
        <ele>22.713685</ele>
        <time>2022-08-04T13:59:57.000Z</time>
      </trkpt>
      <trkpt lat="49.33883" lon="-0.50972">
        <ele>22.469453</ele>
        <time>2022-08-04T13:59:58.000Z</time>
      </trkpt>
      <trkpt lat="49.33887" lon="-0.50966">
        <ele>22.218125</ele>
        <time>2022-08-04T13:59:59.000Z</time>
      </trkpt>
      <trkpt lat="49.33891" lon="-0.50961">
        <ele>21.96208</ele>
        <time>2022-08-04T14:00:00.000Z</time>
      </trkpt>
      <trkpt lat="49.33894" lon="-0.50956">
        <ele>21.713854</ele>
        <time>2022-08-04T14:00:01.000Z</time>
      </trkpt>
      <trkpt lat="49.33898" lon="-0.5095">
        <ele>21.467735</ele>
        <time>2022-08-04T14:00:02.000Z</time>
      </trkpt>
      <trkpt lat="49.33902" lon="-0.50946">
        <ele>21.220115</ele>
        <time>2022-08-04T14:00:03.000Z</time>
      </trkpt>
      <trkpt lat="49.33907" lon="-0.50942">
        <ele>20.968722</ele>
        <time>2022-08-04T14:00:04.000Z</time>
      </trkpt>
      <trkpt lat="49.33911" lon="-0.50938">
        <ele>20.712462</ele>
        <time>2022-08-04T14:00:05.000Z</time>
      </trkpt>
      <trkpt lat="49.33916" lon="-0.50933">
        <ele>20.445356</ele>
        <time>2022-08-04T14:00:06.000Z</time>
      </trkpt>
      <trkpt lat="49.33921" lon="-0.50929">
        <ele>20.189748</ele>
        <time>2022-08-04T14:00:07.000Z</time>
      </trkpt>
      <trkpt lat="49.33926" lon="-0.50924">
        <ele>19.896403</ele>
        <time>2022-08-04T14:00:08.000Z</time>
      </trkpt>
      <trkpt lat="49.33931" lon="-0.50919">
        <ele>19.615961</ele>
        <time>2022-08-04T14:00:09.000Z</time>
      </trkpt>
      <trkpt lat="49.33936" lon="-0.50914">
        <ele>19.315856</ele>
        <time>2022-08-04T14:00:10.000Z</time>
      </trkpt>
      <trkpt lat="49.33941" lon="-0.50909">
        <ele>19.0233</ele>
        <time>2022-08-04T14:00:11.000Z</time>
      </trkpt>
      <trkpt lat="49.33947" lon="-0.50904">
        <ele>18.696979</ele>
        <time>2022-08-04T14:00:12.000Z</time>
      </trkpt>
      <trkpt lat="49.33954" lon="-0.50898">
        <ele>18.326652</ele>
        <time>2022-08-04T14:00:13.000Z</time>
      </trkpt>
      <trkpt lat="49.3396" lon="-0.50892">
        <ele>17.974691</ele>
        <time>2022-08-04T14:00:14.000Z</time>
      </trkpt>
      <trkpt lat="49.33966" lon="-0.50885">
        <ele>17.594772</ele>
        <time>2022-08-04T14:00:15.000Z</time>
      </trkpt>
      <trkpt lat="49.33973" lon="-0.50878">
        <ele>17.205503</ele>
        <time>2022-08-04T14:00:16.000Z</time>
      </trkpt>
      <trkpt lat="49.3398" lon="-0.5087">
        <ele>16.782576</ele>
        <time>2022-08-04T14:00:17.000Z</time>
      </trkpt>
      <trkpt lat="49.33987" lon="-0.50863">
        <ele>16.381411</ele>
        <time>2022-08-04T14:00:18.000Z</time>
      </trkpt>
      <trkpt lat="49.33993" lon="-0.50856">
        <ele>15.986013</ele>
        <time>2022-08-04T14:00:19.000Z</time>
      </trkpt>
      <trkpt lat="49.33999" lon="-0.50849">
        <ele>15.625214</ele>
        <time>2022-08-04T14:00:20.000Z</time>
      </trkpt>
      <trkpt lat="49.34005" lon="-0.50843">
        <ele>15.304741</ele>
        <time>2022-08-04T14:00:21.000Z</time>
      </trkpt>
      <trkpt lat="49.3401" lon="-0.50836">
        <ele>14.984269</ele>
        <time>2022-08-04T14:00:22.000Z</time>
      </trkpt>
      <trkpt lat="49.34015" lon="-0.5083">
        <ele>14.651782</ele>
        <time>2022-08-04T14:00:23.000Z</time>
      </trkpt>
      <trkpt lat="49.3402" lon="-0.50824">
        <ele>14.313039</ele>
        <time>2022-08-04T14:00:24.000Z</time>
      </trkpt>
      <trkpt lat="49.34024" lon="-0.50818">
        <ele>14.009404</ele>
        <time>2022-08-04T14:00:25.000Z</time>
      </trkpt>
      <trkpt lat="49.34028" lon="-0.50812">
        <ele>13.705768</ele>
        <time>2022-08-04T14:00:26.000Z</time>
      </trkpt>
      <trkpt lat="49.34032" lon="-0.50806">
        <ele>13.413027</ele>
        <time>2022-08-04T14:00:27.000Z</time>
      </trkpt>
      <trkpt lat="49.34037" lon="-0.508">
        <ele>13.089746</ele>
        <time>2022-08-04T14:00:28.000Z</time>
      </trkpt>
      <trkpt lat="49.34041" lon="-0.50794">
        <ele>12.790766</ele>
        <time>2022-08-04T14:00:29.000Z</time>
      </trkpt>
      <trkpt lat="49.34045" lon="-0.50788">
        <ele>12.493352</ele>
        <time>2022-08-04T14:00:30.000Z</time>
      </trkpt>
      <trkpt lat="49.34049" lon="-0.50783">
        <ele>12.217696</ele>
        <time>2022-08-04T14:00:31.000Z</time>
      </trkpt>
      <trkpt lat="49.34053" lon="-0.50778">
        <ele>11.971598</ele>
        <time>2022-08-04T14:00:32.000Z</time>
      </trkpt>
      <trkpt lat="49.34056" lon="-0.50775">
        <ele>11.774222</ele>
        <time>2022-08-04T14:00:33.000Z</time>
      </trkpt>
      <trkpt lat="49.34059" lon="-0.50771">
        <ele>11.568267</ele>
        <time>2022-08-04T14:00:34.000Z</time>
      </trkpt>
      <trkpt lat="49.34061" lon="-0.50768">
        <ele>11.392997</ele>
        <time>2022-08-04T14:00:35.000Z</time>
      </trkpt>
      <trkpt lat="49.34063" lon="-0.50763">
        <ele>11.201178</ele>
        <time>2022-08-04T14:00:36.000Z</time>
      </trkpt>
      <trkpt lat="49.34065" lon="-0.50759">
        <ele>11.024884</ele>
        <time>2022-08-04T14:00:37.000Z</time>
      </trkpt>
      <trkpt lat="49.34067" lon="-0.50754">
        <ele>10.832819</ele>
        <time>2022-08-04T14:00:38.000Z</time>
      </trkpt>
      <trkpt lat="49.34067" lon="-0.50748">
        <ele>10.632212</ele>
        <time>2022-08-04T14:00:39.000Z</time>
      </trkpt>
      <trkpt lat="49.34066" lon="-0.50742">
        <ele>10.422015</ele>
        <time>2022-08-04T14:00:40.000Z</time>
      </trkpt>
      <trkpt lat="49.34065" lon="-0.50736">
        <ele>10.189079</ele>
        <time>2022-08-04T14:00:41.000Z</time>
      </trkpt>
      <trkpt lat="49.34063" lon="-0.5073">
        <ele>9.962821</ele>
        <time>2022-08-04T14:00:42.000Z</time>
      </trkpt>
      <trkpt lat="49.34061" lon="-0.50724">
        <ele>9.729685</ele>
        <time>2022-08-04T14:00:43.000Z</time>
      </trkpt>
      <trkpt lat="49.3406" lon="-0.50717">
        <ele>9.493333</ele>
        <time>2022-08-04T14:00:44.000Z</time>
      </trkpt>
      <trkpt lat="49.34058" lon="-0.50711">
        <ele>9.260197</ele>
        <time>2022-08-04T14:00:45.000Z</time>
      </trkpt>
      <trkpt lat="49.34056" lon="-0.50705">
        <ele>9.020837</ele>
        <time>2022-08-04T14:00:46.000Z</time>
      </trkpt>
      <trkpt lat="49.34055" lon="-0.50698">
        <ele>8.789696</ele>
        <time>2022-08-04T14:00:47.000Z</time>
      </trkpt>
      <trkpt lat="49.34053" lon="-0.50692">
        <ele>8.546893</ele>
        <time>2022-08-04T14:00:48.000Z</time>
      </trkpt>
      <trkpt lat="49.34052" lon="-0.50685">
        <ele>8.294951</ele>
        <time>2022-08-04T14:00:49.000Z</time>
      </trkpt>
      <trkpt lat="49.34049" lon="-0.50679">
        <ele>8.048502</ele>
        <time>2022-08-04T14:00:50.000Z</time>
      </trkpt>
      <trkpt lat="49.34047" lon="-0.50672">
        <ele>7.802867</ele>
        <time>2022-08-04T14:00:51.000Z</time>
      </trkpt>
      <trkpt lat="49.34045" lon="-0.50666">
        <ele>7.533989</ele>
        <time>2022-08-04T14:00:52.000Z</time>
      </trkpt>
      <trkpt lat="49.34042" lon="-0.50659">
        <ele>7.26511</ele>
        <time>2022-08-04T14:00:53.000Z</time>
      </trkpt>
      <trkpt lat="49.3404" lon="-0.50652">
        <ele>7.016325</ele>
        <time>2022-08-04T14:00:54.000Z</time>
      </trkpt>
      <trkpt lat="49.34038" lon="-0.50645">
        <ele>6.748487</ele>
        <time>2022-08-04T14:00:55.000Z</time>
      </trkpt>
      <trkpt lat="49.34037" lon="-0.50638">
        <ele>6.487027</ele>
        <time>2022-08-04T14:00:56.000Z</time>
      </trkpt>
      <trkpt lat="49.34035" lon="-0.50631">
        <ele>6.231252</ele>
        <time>2022-08-04T14:00:57.000Z</time>
      </trkpt>
      <trkpt lat="49.34033" lon="-0.50624">
        <ele>5.969793</ele>
        <time>2022-08-04T14:00:58.000Z</time>
      </trkpt>
      <trkpt lat="49.34031" lon="-0.50617">
        <ele>5.699923</ele>
        <time>2022-08-04T14:00:59.000Z</time>
      </trkpt>
      <trkpt lat="49.34029" lon="-0.50611">
        <ele>5.476392</ele>
        <time>2022-08-04T14:01:00.000Z</time>
      </trkpt>
      <trkpt lat="49.34028" lon="-0.50603">
        <ele>5.207657</ele>
        <time>2022-08-04T14:01:01.000Z</time>
      </trkpt>
      <trkpt lat="49.34026" lon="-0.50596">
        <ele>5.18663</ele>
        <time>2022-08-04T14:01:02.000Z</time>
      </trkpt>
      <trkpt lat="49.34024" lon="-0.50588">
        <ele>5.163352</ele>
        <time>2022-08-04T14:01:03.000Z</time>
      </trkpt>
      <trkpt lat="49.34022" lon="-0.5058">
        <ele>5.140419</ele>
        <time>2022-08-04T14:01:04.000Z</time>
      </trkpt>
      <trkpt lat="49.34021" lon="-0.50571">
        <ele>5.117026</ele>
        <time>2022-08-04T14:01:05.000Z</time>
      </trkpt>
      <trkpt lat="49.3402" lon="-0.50563">
        <ele>5.092793</ele>
        <time>2022-08-04T14:01:06.000Z</time>
      </trkpt>
      <trkpt lat="49.34018" lon="-0.50554">
        <ele>5.068821</ele>
        <time>2022-08-04T14:01:07.000Z</time>
      </trkpt>
      <trkpt lat="49.34017" lon="-0.50546">
        <ele>5.045428</ele>
        <time>2022-08-04T14:01:08.000Z</time>
      </trkpt>
      <trkpt lat="49.34016" lon="-0.50538">
        <ele>5.02263</ele>
        <time>2022-08-04T14:01:09.000Z</time>
      </trkpt>
      <trkpt lat="49.34014" lon="-0.50529">
        <ele>4.998974</ele>
        <time>2022-08-04T14:01:10.000Z</time>
      </trkpt>
      <trkpt lat="49.34013" lon="-0.50521">
        <ele>4.976104</ele>
        <time>2022-08-04T14:01:11.000Z</time>
      </trkpt>
      <trkpt lat="49.34012" lon="-0.50512">
        <ele>4.952804</ele>
        <time>2022-08-04T14:01:12.000Z</time>
      </trkpt>
      <trkpt lat="49.34011" lon="-0.50504">
        <ele>4.929401</ele>
        <time>2022-08-04T14:01:13.000Z</time>
      </trkpt>
      <trkpt lat="49.34009" lon="-0.50496">
        <ele>4.905565</ele>
        <time>2022-08-04T14:01:14.000Z</time>
      </trkpt>
      <trkpt lat="49.34008" lon="-0.50487">
        <ele>4.88081</ele>
        <time>2022-08-04T14:01:15.000Z</time>
      </trkpt>
      <trkpt lat="49.34006" lon="-0.50478">
        <ele>4.856097</ele>
        <time>2022-08-04T14:01:16.000Z</time>
      </trkpt>
      <trkpt lat="49.34005" lon="-0.50469">
        <ele>4.832428</ele>
        <time>2022-08-04T14:01:17.000Z</time>
      </trkpt>
      <trkpt lat="49.34004" lon="-0.50459">
        <ele>4.802901</ele>
        <time>2022-08-04T14:01:18.000Z</time>
      </trkpt>
      <trkpt lat="49.34002" lon="-0.5045">
        <ele>4.778553</ele>
        <time>2022-08-04T14:01:19.000Z</time>
      </trkpt>
      <trkpt lat="49.34" lon="-0.50442">
        <ele>4.754841</ele>
        <time>2022-08-04T14:01:20.000Z</time>
      </trkpt>
      <trkpt lat="49.33998" lon="-0.50434">
        <ele>4.731908</ele>
        <time>2022-08-04T14:01:21.000Z</time>
      </trkpt>
      <trkpt lat="49.33997" lon="-0.50426">
        <ele>4.710103</ele>
        <time>2022-08-04T14:01:22.000Z</time>
      </trkpt>
      <trkpt lat="49.33996" lon="-0.50418">
        <ele>4.687946</ele>
        <time>2022-08-04T14:01:23.000Z</time>
      </trkpt>
      <trkpt lat="49.33994" lon="-0.5041">
        <ele>4.665637</ele>
        <time>2022-08-04T14:01:24.000Z</time>
      </trkpt>
      <trkpt lat="49.33992" lon="-0.50403">
        <ele>4.643581</ele>
        <time>2022-08-04T14:01:25.000Z</time>
      </trkpt>
      <trkpt lat="49.3399" lon="-0.50395">
        <ele>4.621543</ele>
        <time>2022-08-04T14:01:26.000Z</time>
      </trkpt>
      <trkpt lat="49.33988" lon="-0.50388">
        <ele>4.599335</ele>
        <time>2022-08-04T14:01:27.000Z</time>
      </trkpt>
      <trkpt lat="49.33986" lon="-0.5038">
        <ele>4.576554</ele>
        <time>2022-08-04T14:01:28.000Z</time>
      </trkpt>
      <trkpt lat="49.33983" lon="-0.50373">
        <ele>4.554268</ele>
        <time>2022-08-04T14:01:29.000Z</time>
      </trkpt>
      <trkpt lat="49.33981" lon="-0.50365">
        <ele>4.531809</ele>
        <time>2022-08-04T14:01:30.000Z</time>
      </trkpt>
      <trkpt lat="49.33979" lon="-0.50357">
        <ele>4.508153</ele>
        <time>2022-08-04T14:01:31.000Z</time>
      </trkpt>
      <trkpt lat="49.33976" lon="-0.5035">
        <ele>4.485373</ele>
        <time>2022-08-04T14:01:32.000Z</time>
      </trkpt>
      <trkpt lat="49.33974" lon="-0.50342">
        <ele>4.463088</ele>
        <time>2022-08-04T14:01:33.000Z</time>
      </trkpt>
      <trkpt lat="49.33971" lon="-0.50335">
        <ele>4.468389</ele>
        <time>2022-08-04T14:01:34.000Z</time>
      </trkpt>
      <trkpt lat="49.33968" lon="-0.50328">
        <ele>4.476264</ele>
        <time>2022-08-04T14:01:35.000Z</time>
      </trkpt>
      <trkpt lat="49.33965" lon="-0.5032">
        <ele>4.484995</ele>
        <time>2022-08-04T14:01:36.000Z</time>
      </trkpt>
      <trkpt lat="49.33962" lon="-0.50312">
        <ele>4.493413</ele>
        <time>2022-08-04T14:01:37.000Z</time>
      </trkpt>
      <trkpt lat="49.33958" lon="-0.50305">
        <ele>4.502144</ele>
        <time>2022-08-04T14:01:38.000Z</time>
      </trkpt>
      <trkpt lat="49.33955" lon="-0.50297">
        <ele>4.510629</ele>
        <time>2022-08-04T14:01:39.000Z</time>
      </trkpt>
      <trkpt lat="49.33952" lon="-0.5029">
        <ele>4.518956</ele>
        <time>2022-08-04T14:01:40.000Z</time>
      </trkpt>
      <trkpt lat="49.33949" lon="-0.50283">
        <ele>4.527205</ele>
        <time>2022-08-04T14:01:41.000Z</time>
      </trkpt>
      <trkpt lat="49.33946" lon="-0.50276">
        <ele>4.535298</ele>
        <time>2022-08-04T14:01:42.000Z</time>
      </trkpt>
      <trkpt lat="49.33942" lon="-0.50268">
        <ele>4.544029</ele>
        <time>2022-08-04T14:01:43.000Z</time>
      </trkpt>
      <trkpt lat="49.33939" lon="-0.50261">
        <ele>4.552531</ele>
        <time>2022-08-04T14:01:44.000Z</time>
      </trkpt>
      <trkpt lat="49.33935" lon="-0.50254">
        <ele>4.561046</ele>
        <time>2022-08-04T14:01:45.000Z</time>
      </trkpt>
      <trkpt lat="49.33932" lon="-0.50246">
        <ele>4.569531</ele>
        <time>2022-08-04T14:01:46.000Z</time>
      </trkpt>
      <trkpt lat="49.33928" lon="-0.50239">
        <ele>4.578186</ele>
        <time>2022-08-04T14:01:47.000Z</time>
      </trkpt>
      <trkpt lat="49.33925" lon="-0.50232">
        <ele>4.587029</ele>
        <time>2022-08-04T14:01:48.000Z</time>
      </trkpt>
      <trkpt lat="49.33921" lon="-0.50224">
        <ele>4.595532</ele>
        <time>2022-08-04T14:01:49.000Z</time>
      </trkpt>
      <trkpt lat="49.33918" lon="-0.50217">
        <ele>4.603703</ele>
        <time>2022-08-04T14:01:50.000Z</time>
      </trkpt>
      <trkpt lat="49.33914" lon="-0.5021">
        <ele>4.612292</ele>
        <time>2022-08-04T14:01:51.000Z</time>
      </trkpt>
      <trkpt lat="49.33911" lon="-0.50203">
        <ele>4.620644</ele>
        <time>2022-08-04T14:01:52.000Z</time>
      </trkpt>
      <trkpt lat="49.33907" lon="-0.50196">
        <ele>4.629222</ele>
        <time>2022-08-04T14:01:53.000Z</time>
      </trkpt>
      <trkpt lat="49.33903" lon="-0.50189">
        <ele>4.637845</ele>
        <time>2022-08-04T14:01:54.000Z</time>
      </trkpt>
      <trkpt lat="49.339" lon="-0.50182">
        <ele>4.645861</ele>
        <time>2022-08-04T14:01:55.000Z</time>
      </trkpt>
      <trkpt lat="49.33897" lon="-0.50175">
        <ele>4.654008</ele>
        <time>2022-08-04T14:01:56.000Z</time>
      </trkpt>
      <trkpt lat="49.33893" lon="-0.50169">
        <ele>4.662274</ele>
        <time>2022-08-04T14:01:57.000Z</time>
      </trkpt>
      <trkpt lat="49.33889" lon="-0.50162">
        <ele>4.670401</ele>
        <time>2022-08-04T14:01:58.000Z</time>
      </trkpt>
      <trkpt lat="49.33886" lon="-0.50156">
        <ele>4.678112</ele>
        <time>2022-08-04T14:01:59.000Z</time>
      </trkpt>
      <trkpt lat="49.33883" lon="-0.50149">
        <ele>4.68624</ele>
        <time>2022-08-04T14:02:00.000Z</time>
      </trkpt>
      <trkpt lat="49.33879" lon="-0.50142">
        <ele>4.694314</ele>
        <time>2022-08-04T14:02:01.000Z</time>
      </trkpt>
      <trkpt lat="49.33876" lon="-0.50136">
        <ele>4.702295</ele>
        <time>2022-08-04T14:02:02.000Z</time>
      </trkpt>
      <trkpt lat="49.33872" lon="-0.50129">
        <ele>4.710082</ele>
        <time>2022-08-04T14:02:03.000Z</time>
      </trkpt>
      <trkpt lat="49.33869" lon="-0.50124">
        <ele>4.716852</ele>
        <time>2022-08-04T14:02:04.000Z</time>
      </trkpt>
      <trkpt lat="49.33866" lon="-0.50118">
        <ele>4.725885</ele>
        <time>2022-08-04T14:02:05.000Z</time>
      </trkpt>
      <trkpt lat="49.33862" lon="-0.50112">
        <ele>4.737308</ele>
        <time>2022-08-04T14:02:06.000Z</time>
      </trkpt>
      <trkpt lat="49.33859" lon="-0.50106">
        <ele>4.748836</ele>
        <time>2022-08-04T14:02:07.000Z</time>
      </trkpt>
      <trkpt lat="49.33855" lon="-0.50099">
        <ele>4.761048</ele>
        <time>2022-08-04T14:02:08.000Z</time>
      </trkpt>
      <trkpt lat="49.33851" lon="-0.50093">
        <ele>4.772366</ele>
        <time>2022-08-04T14:02:09.000Z</time>
      </trkpt>
      <trkpt lat="49.33847" lon="-0.50087">
        <ele>4.784638</ele>
        <time>2022-08-04T14:02:10.000Z</time>
      </trkpt>
      <trkpt lat="49.33844" lon="-0.5008">
        <ele>4.79652</ele>
        <time>2022-08-04T14:02:11.000Z</time>
      </trkpt>
      <trkpt lat="49.3384" lon="-0.50074">
        <ele>4.807838</ele>
        <time>2022-08-04T14:02:12.000Z</time>
      </trkpt>
      <trkpt lat="49.33836" lon="-0.50068">
        <ele>4.820695</ele>
        <time>2022-08-04T14:02:13.000Z</time>
      </trkpt>
      <trkpt lat="49.33832" lon="-0.50062">
        <ele>4.832012</ele>
        <time>2022-08-04T14:02:14.000Z</time>
      </trkpt>
      <trkpt lat="49.33829" lon="-0.50056">
        <ele>4.844077</ele>
        <time>2022-08-04T14:02:15.000Z</time>
      </trkpt>
      <trkpt lat="49.33825" lon="-0.5005">
        <ele>4.855927</ele>
        <time>2022-08-04T14:02:16.000Z</time>
      </trkpt>
      <trkpt lat="49.33821" lon="-0.50043">
        <ele>4.868659</ele>
        <time>2022-08-04T14:02:17.000Z</time>
      </trkpt>
      <trkpt lat="49.33817" lon="-0.50036">
        <ele>4.880931</ele>
        <time>2022-08-04T14:02:18.000Z</time>
      </trkpt>
      <trkpt lat="49.33813" lon="-0.5003">
        <ele>4.893349</ele>
        <time>2022-08-04T14:02:19.000Z</time>
      </trkpt>
      <trkpt lat="49.3381" lon="-0.50023">
        <ele>4.905621</ele>
        <time>2022-08-04T14:02:20.000Z</time>
      </trkpt>
      <trkpt lat="49.33806" lon="-0.50016">
        <ele>4.918426</ele>
        <time>2022-08-04T14:02:21.000Z</time>
      </trkpt>
      <trkpt lat="49.33802" lon="-0.50008">
        <ele>4.933306</ele>
        <time>2022-08-04T14:02:22.000Z</time>
      </trkpt>
      <trkpt lat="49.33799" lon="-0.50002">
        <ele>4.942969</ele>
        <time>2022-08-04T14:02:23.000Z</time>
      </trkpt>
      <trkpt lat="49.33795" lon="-0.49995">
        <ele>4.955774</ele>
        <time>2022-08-04T14:02:24.000Z</time>
      </trkpt>
      <trkpt lat="49.33792" lon="-0.49988">
        <ele>4.968174</ele>
        <time>2022-08-04T14:02:25.000Z</time>
      </trkpt>
      <trkpt lat="49.33788" lon="-0.49981">
        <ele>4.980798</ele>
        <time>2022-08-04T14:02:26.000Z</time>
      </trkpt>
      <trkpt lat="49.33785" lon="-0.49974">
        <ele>4.993664</ele>
        <time>2022-08-04T14:02:27.000Z</time>
      </trkpt>
      <trkpt lat="49.33781" lon="-0.49966">
        <ele>5.006905</ele>
        <time>2022-08-04T14:02:28.000Z</time>
      </trkpt>
      <trkpt lat="49.33777" lon="-0.49959">
        <ele>5.01987</ele>
        <time>2022-08-04T14:02:29.000Z</time>
      </trkpt>
      <trkpt lat="49.33774" lon="-0.49951">
        <ele>5.032949</ele>
        <time>2022-08-04T14:02:30.000Z</time>
      </trkpt>
      <trkpt lat="49.3377" lon="-0.49944">
        <ele>5.046655</ele>
        <time>2022-08-04T14:02:31.000Z</time>
      </trkpt>
      <trkpt lat="49.33766" lon="-0.49936">
        <ele>5.060007</ele>
        <time>2022-08-04T14:02:32.000Z</time>
      </trkpt>
      <trkpt lat="49.33762" lon="-0.49928">
        <ele>5.074227</ele>
        <time>2022-08-04T14:02:33.000Z</time>
      </trkpt>
      <trkpt lat="49.33758" lon="-0.4992">
        <ele>5.088369</ele>
        <time>2022-08-04T14:02:34.000Z</time>
      </trkpt>
      <trkpt lat="49.33754" lon="-0.49912">
        <ele>5.103027</ele>
        <time>2022-08-04T14:02:35.000Z</time>
      </trkpt>
      <trkpt lat="49.3375" lon="-0.49904">
        <ele>5.071799</ele>
        <time>2022-08-04T14:02:36.000Z</time>
      </trkpt>
      <trkpt lat="49.33747" lon="-0.49896">
        <ele>4.998055</ele>
        <time>2022-08-04T14:02:37.000Z</time>
      </trkpt>
      <trkpt lat="49.33743" lon="-0.49887">
        <ele>4.923672</ele>
        <time>2022-08-04T14:02:38.000Z</time>
      </trkpt>
      <trkpt lat="49.3374" lon="-0.49879">
        <ele>4.851121</ele>
        <time>2022-08-04T14:02:39.000Z</time>
      </trkpt>
      <trkpt lat="49.33736" lon="-0.49871">
        <ele>4.777376</ele>
        <time>2022-08-04T14:02:40.000Z</time>
      </trkpt>
      <trkpt lat="49.33733" lon="-0.49861">
        <ele>4.691586</ele>
        <time>2022-08-04T14:02:41.000Z</time>
      </trkpt>
      <trkpt lat="49.33729" lon="-0.49853">
        <ele>4.619034</ele>
        <time>2022-08-04T14:02:42.000Z</time>
      </trkpt>
      <trkpt lat="49.33726" lon="-0.49844">
        <ele>4.540186</ele>
        <time>2022-08-04T14:02:43.000Z</time>
      </trkpt>
      <trkpt lat="49.33722" lon="-0.49835">
        <ele>4.462655</ele>
        <time>2022-08-04T14:02:44.000Z</time>
      </trkpt>
      <trkpt lat="49.3372" lon="-0.49828">
        <ele>4.402603</ele>
        <time>2022-08-04T14:02:45.000Z</time>
      </trkpt>
      <trkpt lat="49.33716" lon="-0.49819">
        <ele>4.32246</ele>
        <time>2022-08-04T14:02:46.000Z</time>
      </trkpt>
      <trkpt lat="49.33712" lon="-0.4981">
        <ele>4.240399</ele>
        <time>2022-08-04T14:02:47.000Z</time>
      </trkpt>
      <trkpt lat="49.33708" lon="-0.49802">
        <ele>4.164087</ele>
        <time>2022-08-04T14:02:48.000Z</time>
      </trkpt>
      <trkpt lat="49.33704" lon="-0.49794">
        <ele>4.086799</ele>
        <time>2022-08-04T14:02:49.000Z</time>
      </trkpt>
      <trkpt lat="49.337" lon="-0.49785">
        <ele>4.00987</ele>
        <time>2022-08-04T14:02:50.000Z</time>
      </trkpt>
      <trkpt lat="49.33696" lon="-0.49778">
        <ele>3.934902</ele>
        <time>2022-08-04T14:02:51.000Z</time>
      </trkpt>
      <trkpt lat="49.33691" lon="-0.4977">
        <ele>3.851242</ele>
        <time>2022-08-04T14:02:52.000Z</time>
      </trkpt>
      <trkpt lat="49.33686" lon="-0.49762">
        <ele>3.771164</ele>
        <time>2022-08-04T14:02:53.000Z</time>
      </trkpt>
      <trkpt lat="49.33682" lon="-0.49754">
        <ele>3.692226</ele>
        <time>2022-08-04T14:02:54.000Z</time>
      </trkpt>
      <trkpt lat="49.33678" lon="-0.49746">
        <ele>3.618577</ele>
        <time>2022-08-04T14:02:55.000Z</time>
      </trkpt>
      <trkpt lat="49.33673" lon="-0.49739">
        <ele>3.538953</ele>
        <time>2022-08-04T14:02:56.000Z</time>
      </trkpt>
      <trkpt lat="49.33669" lon="-0.49732">
        <ele>3.471866</ele>
        <time>2022-08-04T14:02:57.000Z</time>
      </trkpt>
      <trkpt lat="49.33665" lon="-0.49725">
        <ele>3.397606</ele>
        <time>2022-08-04T14:02:58.000Z</time>
      </trkpt>
      <trkpt lat="49.33662" lon="-0.49717">
        <ele>3.331418</ele>
        <time>2022-08-04T14:02:59.000Z</time>
      </trkpt>
      <trkpt lat="49.33658" lon="-0.4971">
        <ele>3.259231</ele>
        <time>2022-08-04T14:03:00.000Z</time>
      </trkpt>
      <trkpt lat="49.33655" lon="-0.49702">
        <ele>3.192417</ele>
        <time>2022-08-04T14:03:01.000Z</time>
      </trkpt>
      <trkpt lat="49.33652" lon="-0.49695">
        <ele>3.126809</ele>
        <time>2022-08-04T14:03:02.000Z</time>
      </trkpt>
      <trkpt lat="49.33648" lon="-0.49686">
        <ele>3.049248</ele>
        <time>2022-08-04T14:03:03.000Z</time>
      </trkpt>
      <trkpt lat="49.33646" lon="-0.49679">
        <ele>3.181809</ele>
        <time>2022-08-04T14:03:04.000Z</time>
      </trkpt>
      <trkpt lat="49.33643" lon="-0.49672">
        <ele>3.381787</ele>
        <time>2022-08-04T14:03:05.000Z</time>
      </trkpt>
      <trkpt lat="49.33641" lon="-0.49665">
        <ele>3.572613</ele>
        <time>2022-08-04T14:03:06.000Z</time>
      </trkpt>
      <trkpt lat="49.33639" lon="-0.49658">
        <ele>3.758042</ele>
        <time>2022-08-04T14:03:07.000Z</time>
      </trkpt>
      <trkpt lat="49.33637" lon="-0.49651">
        <ele>3.944236</ele>
        <time>2022-08-04T14:03:08.000Z</time>
      </trkpt>
      <trkpt lat="49.33636" lon="-0.49645">
        <ele>4.095414</ele>
        <time>2022-08-04T14:03:09.000Z</time>
      </trkpt>
      <trkpt lat="49.33635" lon="-0.49636">
        <ele>4.331592</ele>
        <time>2022-08-04T14:03:10.000Z</time>
      </trkpt>
      <trkpt lat="49.33633" lon="-0.49628">
        <ele>4.537069</ele>
        <time>2022-08-04T14:03:11.000Z</time>
      </trkpt>
      <trkpt lat="49.33631" lon="-0.4962">
        <ele>4.747289</ele>
        <time>2022-08-04T14:03:12.000Z</time>
      </trkpt>
      <trkpt lat="49.33628" lon="-0.49612">
        <ele>4.965143</ele>
        <time>2022-08-04T14:03:13.000Z</time>
      </trkpt>
      <trkpt lat="49.33626" lon="-0.49604">
        <ele>5.177602</ele>
        <time>2022-08-04T14:03:14.000Z</time>
      </trkpt>
      <trkpt lat="49.33623" lon="-0.49596">
        <ele>5.39174</ele>
        <time>2022-08-04T14:03:15.000Z</time>
      </trkpt>
      <trkpt lat="49.33621" lon="-0.4959">
        <ele>5.578156</ele>
        <time>2022-08-04T14:03:16.000Z</time>
      </trkpt>
      <trkpt lat="49.33618" lon="-0.49584">
        <ele>5.755083</ele>
        <time>2022-08-04T14:03:17.000Z</time>
      </trkpt>
      <trkpt lat="49.33616" lon="-0.49578">
        <ele>5.917751</ele>
        <time>2022-08-04T14:03:18.000Z</time>
      </trkpt>
      <trkpt lat="49.33613" lon="-0.49573">
        <ele>6.083954</ele>
        <time>2022-08-04T14:03:19.000Z</time>
      </trkpt>
      <trkpt lat="49.33611" lon="-0.49568">
        <ele>6.232926</ele>
        <time>2022-08-04T14:03:20.000Z</time>
      </trkpt>
      <trkpt lat="49.33607" lon="-0.49563">
        <ele>6.399834</ele>
        <time>2022-08-04T14:03:21.000Z</time>
      </trkpt>
      <trkpt lat="49.33605" lon="-0.49559">
        <ele>6.546763</ele>
        <time>2022-08-04T14:03:22.000Z</time>
      </trkpt>
      <trkpt lat="49.33601" lon="-0.49555">
        <ele>6.702283</ele>
        <time>2022-08-04T14:03:23.000Z</time>
      </trkpt>
      <trkpt lat="49.33598" lon="-0.49551">
        <ele>6.849213</ele>
        <time>2022-08-04T14:03:24.000Z</time>
      </trkpt>
      <trkpt lat="49.33596" lon="-0.49548">
        <ele>6.992905</ele>
        <time>2022-08-04T14:03:25.000Z</time>
      </trkpt>
      <trkpt lat="49.33593" lon="-0.49544">
        <ele>7.125497</ele>
        <time>2022-08-04T14:03:26.000Z</time>
      </trkpt>
      <trkpt lat="49.3359" lon="-0.4954">
        <ele>7.259111</ele>
        <time>2022-08-04T14:03:27.000Z</time>
      </trkpt>
      <trkpt lat="49.33588" lon="-0.49536">
        <ele>7.402803</ele>
        <time>2022-08-04T14:03:28.000Z</time>
      </trkpt>
      <trkpt lat="49.33585" lon="-0.49531">
        <ele>7.565338</ele>
        <time>2022-08-04T14:03:29.000Z</time>
      </trkpt>
      <trkpt lat="49.33581" lon="-0.49526">
        <ele>7.739182</ele>
        <time>2022-08-04T14:03:30.000Z</time>
      </trkpt>
      <trkpt lat="49.33579" lon="-0.49521">
        <ele>7.901852</ele>
        <time>2022-08-04T14:03:31.000Z</time>
      </trkpt>
      <trkpt lat="49.33577" lon="-0.49515">
        <ele>8.059061</ele>
        <time>2022-08-04T14:03:32.000Z</time>
      </trkpt>
      <trkpt lat="49.33575" lon="-0.49509">
        <ele>8.23211</ele>
        <time>2022-08-04T14:03:33.000Z</time>
      </trkpt>
      <trkpt lat="49.33573" lon="-0.49502">
        <ele>8.407324</ele>
        <time>2022-08-04T14:03:34.000Z</time>
      </trkpt>
      <trkpt lat="49.33572" lon="-0.49495">
        <ele>8.585054</ele>
        <time>2022-08-04T14:03:35.000Z</time>
      </trkpt>
      <trkpt lat="49.33571" lon="-0.49488">
        <ele>8.771843</ele>
        <time>2022-08-04T14:03:36.000Z</time>
      </trkpt>
      <trkpt lat="49.33569" lon="-0.49481">
        <ele>8.950569</ele>
        <time>2022-08-04T14:03:37.000Z</time>
      </trkpt>
      <trkpt lat="49.33568" lon="-0.49474">
        <ele>9.135036</ele>
        <time>2022-08-04T14:03:38.000Z</time>
      </trkpt>
      <trkpt lat="49.33566" lon="-0.49467">
        <ele>9.31849</ele>
        <time>2022-08-04T14:03:39.000Z</time>
      </trkpt>
      <trkpt lat="49.33565" lon="-0.49459">
        <ele>9.505279</ele>
        <time>2022-08-04T14:03:40.000Z</time>
      </trkpt>
      <trkpt lat="49.33563" lon="-0.49452">
        <ele>9.694395</ele>
        <time>2022-08-04T14:03:41.000Z</time>
      </trkpt>
      <trkpt lat="49.33562" lon="-0.49445">
        <ele>9.797042</ele>
        <time>2022-08-04T14:03:42.000Z</time>
      </trkpt>
      <trkpt lat="49.3356" lon="-0.49437">
        <ele>9.759541</ele>
        <time>2022-08-04T14:03:43.000Z</time>
      </trkpt>
      <trkpt lat="49.33559" lon="-0.4943">
        <ele>9.722336</ele>
        <time>2022-08-04T14:03:44.000Z</time>
      </trkpt>
      <trkpt lat="49.33557" lon="-0.49422">
        <ele>9.683077</ele>
        <time>2022-08-04T14:03:45.000Z</time>
      </trkpt>
      <trkpt lat="49.33555" lon="-0.49414">
        <ele>9.642934</ele>
        <time>2022-08-04T14:03:46.000Z</time>
      </trkpt>
      <trkpt lat="49.33553" lon="-0.49406">
        <ele>9.603931</ele>
        <time>2022-08-04T14:03:47.000Z</time>
      </trkpt>
      <trkpt lat="49.33551" lon="-0.49398">
        <ele>9.563788</ele>
        <time>2022-08-04T14:03:48.000Z</time>
      </trkpt>
      <trkpt lat="49.33549" lon="-0.4939">
        <ele>9.523391</ele>
        <time>2022-08-04T14:03:49.000Z</time>
      </trkpt>
      <trkpt lat="49.33548" lon="-0.49382">
        <ele>9.483488</ele>
        <time>2022-08-04T14:03:50.000Z</time>
      </trkpt>
      <trkpt lat="49.33546" lon="-0.49374">
        <ele>9.44168</ele>
        <time>2022-08-04T14:03:51.000Z</time>
      </trkpt>
      <trkpt lat="49.33544" lon="-0.49365">
        <ele>9.400205</ele>
        <time>2022-08-04T14:03:52.000Z</time>
      </trkpt>
      <trkpt lat="49.33541" lon="-0.49357">
        <ele>9.357212</ele>
        <time>2022-08-04T14:03:53.000Z</time>
      </trkpt>
      <trkpt lat="49.33539" lon="-0.49349">
        <ele>9.317141</ele>
        <time>2022-08-04T14:03:54.000Z</time>
      </trkpt>
      <trkpt lat="49.33536" lon="-0.49341">
        <ele>9.273982</ele>
        <time>2022-08-04T14:03:55.000Z</time>
      </trkpt>
      <trkpt lat="49.33533" lon="-0.49333">
        <ele>9.231234</ele>
        <time>2022-08-04T14:03:56.000Z</time>
      </trkpt>
      <trkpt lat="49.3353" lon="-0.49325">
        <ele>9.185805</ele>
        <time>2022-08-04T14:03:57.000Z</time>
      </trkpt>
      <trkpt lat="49.33527" lon="-0.49317">
        <ele>9.142233</ele>
        <time>2022-08-04T14:03:58.000Z</time>
      </trkpt>
      <trkpt lat="49.33524" lon="-0.49309">
        <ele>9.096359</ele>
        <time>2022-08-04T14:03:59.000Z</time>
      </trkpt>
      <trkpt lat="49.3352" lon="-0.49301">
        <ele>9.050539</ele>
        <time>2022-08-04T14:04:00.000Z</time>
      </trkpt>
      <trkpt lat="49.33516" lon="-0.49292">
        <ele>9.002328</ele>
        <time>2022-08-04T14:04:01.000Z</time>
      </trkpt>
      <trkpt lat="49.33513" lon="-0.49284">
        <ele>8.954534</ele>
        <time>2022-08-04T14:04:02.000Z</time>
      </trkpt>
      <trkpt lat="49.33508" lon="-0.49275">
        <ele>8.902985</ele>
        <time>2022-08-04T14:04:03.000Z</time>
      </trkpt>
      <trkpt lat="49.33505" lon="-0.49266">
        <ele>8.853818</ele>
        <time>2022-08-04T14:04:04.000Z</time>
      </trkpt>
      <trkpt lat="49.33502" lon="-0.49256">
        <ele>8.80256</ele>
        <time>2022-08-04T14:04:05.000Z</time>
      </trkpt>
      <trkpt lat="49.335" lon="-0.49246">
        <ele>8.754014</ele>
        <time>2022-08-04T14:04:06.000Z</time>
      </trkpt>
      <trkpt lat="49.335" lon="-0.49237">
        <ele>8.707535</ele>
        <time>2022-08-04T14:04:07.000Z</time>
      </trkpt>
      <trkpt lat="49.335" lon="-0.49227">
        <ele>8.662693</ele>
        <time>2022-08-04T14:04:08.000Z</time>
      </trkpt>
      <trkpt lat="49.335" lon="-0.49218">
        <ele>8.620207</ele>
        <time>2022-08-04T14:04:09.000Z</time>
      </trkpt>
      <trkpt lat="49.335" lon="-0.4921">
        <ele>8.58249</ele>
        <time>2022-08-04T14:04:10.000Z</time>
      </trkpt>
      <trkpt lat="49.335" lon="-0.49203">
        <ele>8.549488</ele>
        <time>2022-08-04T14:04:11.000Z</time>
      </trkpt>
      <trkpt lat="49.33501" lon="-0.49197">
        <ele>8.518781</ele>
        <time>2022-08-04T14:04:12.000Z</time>
      </trkpt>
      <trkpt lat="49.33502" lon="-0.49192">
        <ele>8.446089</ele>
        <time>2022-08-04T14:04:13.000Z</time>
      </trkpt>
      <trkpt lat="49.33503" lon="-0.49188">
        <ele>8.353735</ele>
        <time>2022-08-04T14:04:14.000Z</time>
      </trkpt>
      <trkpt lat="49.33504" lon="-0.49185">
        <ele>8.282129</ele>
        <time>2022-08-04T14:04:15.000Z</time>
      </trkpt>
      <trkpt lat="49.33506" lon="-0.49183">
        <ele>8.186405</ele>
        <time>2022-08-04T14:04:17.000Z</time>
      </trkpt>
      <trkpt lat="49.33509" lon="-0.49182">
        <ele>8.07782</ele>
        <time>2022-08-04T14:04:19.000Z</time>
      </trkpt>
      <trkpt lat="49.33511" lon="-0.49181">
        <ele>8.013257</ele>
        <time>2022-08-04T14:04:20.000Z</time>
      </trkpt>
      <trkpt lat="49.33514" lon="-0.49179">
        <ele>7.90765</ele>
        <time>2022-08-04T14:04:22.000Z</time>
      </trkpt>
      <trkpt lat="49.33517" lon="-0.49177">
        <ele>7.781789</ele>
        <time>2022-08-04T14:04:24.000Z</time>
      </trkpt>
      <trkpt lat="49.33521" lon="-0.49175">
        <ele>7.666874</ele>
        <time>2022-08-04T14:04:26.000Z</time>
      </trkpt>
      <trkpt lat="49.33523" lon="-0.49174">
        <ele>7.584785</ele>
        <time>2022-08-04T14:04:27.000Z</time>
      </trkpt>
      <trkpt lat="49.33525" lon="-0.49172">
        <ele>7.50229</ele>
        <time>2022-08-04T14:04:28.000Z</time>
      </trkpt>
      <trkpt lat="49.33527" lon="-0.49171">
        <ele>7.415821</ele>
        <time>2022-08-04T14:04:29.000Z</time>
      </trkpt>
      <trkpt lat="49.3353" lon="-0.49168">
        <ele>7.318199</ele>
        <time>2022-08-04T14:04:30.000Z</time>
      </trkpt>
      <trkpt lat="49.33533" lon="-0.49166">
        <ele>7.200763</ele>
        <time>2022-08-04T14:04:31.000Z</time>
      </trkpt>
      <trkpt lat="49.33536" lon="-0.49164">
        <ele>7.101325</ele>
        <time>2022-08-04T14:04:32.000Z</time>
      </trkpt>
      <trkpt lat="49.33538" lon="-0.49162">
        <ele>7.015686</ele>
        <time>2022-08-04T14:04:33.000Z</time>
      </trkpt>
      <trkpt lat="49.33541" lon="-0.49161">
        <ele>6.926875</ele>
        <time>2022-08-04T14:04:34.000Z</time>
      </trkpt>
      <trkpt lat="49.33543" lon="-0.4916">
        <ele>6.851153</ele>
        <time>2022-08-04T14:04:35.000Z</time>
      </trkpt>
      <trkpt lat="49.33545" lon="-0.4916">
        <ele>6.786591</ele>
        <time>2022-08-04T14:04:36.000Z</time>
      </trkpt>
      <trkpt lat="49.33547" lon="-0.49159">
        <ele>6.718725</ele>
        <time>2022-08-04T14:04:37.000Z</time>
      </trkpt>
      <trkpt lat="49.33549" lon="-0.49159">
        <ele>6.655054</ele>
        <time>2022-08-04T14:04:41.000Z</time>
      </trkpt>
      <trkpt lat="49.33556" lon="-0.49155">
        <ele>6.395448</ele>
        <time>2022-08-04T14:05:43.000Z</time>
      </trkpt>
      <trkpt lat="49.33561" lon="-0.49152">
        <ele>6.196036</ele>
        <time>2022-08-04T14:05:44.000Z</time>
      </trkpt>
      <trkpt lat="49.33567" lon="-0.49148">
        <ele>5.994257</ele>
        <time>2022-08-04T14:05:45.000Z</time>
      </trkpt>
      <trkpt lat="49.33573" lon="-0.49143">
        <ele>5.765655</ele>
        <time>2022-08-04T14:05:46.000Z</time>
      </trkpt>
      <trkpt lat="49.3358" lon="-0.49138">
        <ele>5.516137</ele>
        <time>2022-08-04T14:05:47.000Z</time>
      </trkpt>
      <trkpt lat="49.33587" lon="-0.49132">
        <ele>5.247775</ele>
        <time>2022-08-04T14:05:48.000Z</time>
      </trkpt>
      <trkpt lat="49.33594" lon="-0.49127">
        <ele>4.968191</ele>
        <time>2022-08-04T14:05:49.000Z</time>
      </trkpt>
      <trkpt lat="49.33601" lon="-0.49122">
        <ele>4.710754</ele>
        <time>2022-08-04T14:05:50.000Z</time>
      </trkpt>
      <trkpt lat="49.33608" lon="-0.49116">
        <ele>4.441212</ele>
        <time>2022-08-04T14:05:51.000Z</time>
      </trkpt>
      <trkpt lat="49.33615" lon="-0.49112">
        <ele>4.193572</ele>
        <time>2022-08-04T14:05:52.000Z</time>
      </trkpt>
      <trkpt lat="49.33622" lon="-0.49107">
        <ele>3.933731</ele>
        <time>2022-08-04T14:05:53.000Z</time>
      </trkpt>
      <trkpt lat="49.33629" lon="-0.49101">
        <ele>3.668333</ele>
        <time>2022-08-04T14:05:54.000Z</time>
      </trkpt>
      <trkpt lat="49.33637" lon="-0.49096">
        <ele>3.397538</ele>
        <time>2022-08-04T14:05:55.000Z</time>
      </trkpt>
      <trkpt lat="49.33643" lon="-0.49091">
        <ele>3.14802</ele>
        <time>2022-08-04T14:05:56.000Z</time>
      </trkpt>
      <trkpt lat="49.3365" lon="-0.49086">
        <ele>2.887558</ele>
        <time>2022-08-04T14:05:57.000Z</time>
      </trkpt>
      <trkpt lat="49.33657" lon="-0.4908">
        <ele>2.627004</ele>
        <time>2022-08-04T14:05:58.000Z</time>
      </trkpt>
      <trkpt lat="49.33663" lon="-0.49073">
        <ele>2.455393</ele>
        <time>2022-08-04T14:05:59.000Z</time>
      </trkpt>
      <trkpt lat="49.33669" lon="-0.49066">
        <ele>2.37911</ele>
        <time>2022-08-04T14:06:00.000Z</time>
      </trkpt>
      <trkpt lat="49.33674" lon="-0.49057">
        <ele>2.311507</ele>
        <time>2022-08-04T14:06:01.000Z</time>
      </trkpt>
      <trkpt lat="49.33677" lon="-0.49048">
        <ele>2.245214</ele>
        <time>2022-08-04T14:06:02.000Z</time>
      </trkpt>
      <trkpt lat="49.33679" lon="-0.49038">
        <ele>2.180453</ele>
        <time>2022-08-04T14:06:03.000Z</time>
      </trkpt>
      <trkpt lat="49.3368" lon="-0.49027">
        <ele>2.113117</ele>
        <time>2022-08-04T14:06:04.000Z</time>
      </trkpt>
      <trkpt lat="49.3368" lon="-0.49016">
        <ele>2.046391</ele>
        <time>2022-08-04T14:06:05.000Z</time>
      </trkpt>
      <trkpt lat="49.33678" lon="-0.49006">
        <ele>1.982829</ele>
        <time>2022-08-04T14:06:06.000Z</time>
      </trkpt>
      <trkpt lat="49.33677" lon="-0.48997">
        <ele>1.922261</ele>
        <time>2022-08-04T14:06:07.000Z</time>
      </trkpt>
      <trkpt lat="49.33675" lon="-0.48987">
        <ele>1.86229</ele>
        <time>2022-08-04T14:06:08.000Z</time>
      </trkpt>
      <trkpt lat="49.33673" lon="-0.48978">
        <ele>1.802615</ele>
        <time>2022-08-04T14:06:09.000Z</time>
      </trkpt>
      <trkpt lat="49.33671" lon="-0.4897">
        <ele>1.747408</ele>
        <time>2022-08-04T14:06:10.000Z</time>
      </trkpt>
      <trkpt lat="49.33669" lon="-0.48961">
        <ele>1.689802</ele>
        <time>2022-08-04T14:06:11.000Z</time>
      </trkpt>
      <trkpt lat="49.33668" lon="-0.48952">
        <ele>1.634705</ele>
        <time>2022-08-04T14:06:12.000Z</time>
      </trkpt>
      <trkpt lat="49.33666" lon="-0.48944">
        <ele>1.579498</ele>
        <time>2022-08-04T14:06:13.000Z</time>
      </trkpt>
      <trkpt lat="49.33664" lon="-0.48935">
        <ele>1.522859</ele>
        <time>2022-08-04T14:06:14.000Z</time>
      </trkpt>
      <trkpt lat="49.33662" lon="-0.48927">
        <ele>1.467388</ele>
        <time>2022-08-04T14:06:15.000Z</time>
      </trkpt>
      <trkpt lat="49.33661" lon="-0.48918">
        <ele>1.411587</ele>
        <time>2022-08-04T14:06:16.000Z</time>
      </trkpt>
      <trkpt lat="49.3366" lon="-0.48909">
        <ele>1.35523</ele>
        <time>2022-08-04T14:06:17.000Z</time>
      </trkpt>
      <trkpt lat="49.33658" lon="-0.489">
        <ele>1.297724</ele>
        <time>2022-08-04T14:06:18.000Z</time>
      </trkpt>
      <trkpt lat="49.33658" lon="-0.48891">
        <ele>1.24065</ele>
        <time>2022-08-04T14:06:19.000Z</time>
      </trkpt>
      <trkpt lat="49.33658" lon="-0.48881">
        <ele>1.183789</ele>
        <time>2022-08-04T14:06:20.000Z</time>
      </trkpt>
      <trkpt lat="49.3366" lon="-0.48873">
        <ele>1.129249</ele>
        <time>2022-08-04T14:06:21.000Z</time>
      </trkpt>
      <trkpt lat="49.33663" lon="-0.48866">
        <ele>1.076427</ele>
        <time>2022-08-04T14:06:22.000Z</time>
      </trkpt>
      <trkpt lat="49.33667" lon="-0.48859">
        <ele>1.020509</ele>
        <time>2022-08-04T14:06:23.000Z</time>
      </trkpt>
      <trkpt lat="49.33672" lon="-0.48853">
        <ele>0.961076</ele>
        <time>2022-08-04T14:06:24.000Z</time>
      </trkpt>
      <trkpt lat="49.33676" lon="-0.48847">
        <ele>0.90658</ele>
        <time>2022-08-04T14:06:25.000Z</time>
      </trkpt>
      <trkpt lat="49.33682" lon="-0.48843">
        <ele>0.847464</ele>
        <time>2022-08-04T14:06:26.000Z</time>
      </trkpt>
      <trkpt lat="49.33687" lon="-0.48838">
        <ele>0.79111</ele>
        <time>2022-08-04T14:06:27.000Z</time>
      </trkpt>
      <trkpt lat="49.33693" lon="-0.48834">
        <ele>0.740644</ele>
        <time>2022-08-04T14:06:28.000Z</time>
      </trkpt>
      <trkpt lat="49.33699" lon="-0.48831">
        <ele>0.690286</ele>
        <time>2022-08-04T14:06:29.000Z</time>
      </trkpt>
      <trkpt lat="49.33704" lon="-0.48827">
        <ele>0.64243</ele>
        <time>2022-08-04T14:06:30.000Z</time>
      </trkpt>
      <trkpt lat="49.3371" lon="-0.48824">
        <ele>0.594598</ele>
        <time>2022-08-04T14:06:31.000Z</time>
      </trkpt>
      <trkpt lat="49.33716" lon="-0.4882">
        <ele>0.547125</ele>
        <time>2022-08-04T14:06:32.000Z</time>
      </trkpt>
      <trkpt lat="49.33721" lon="-0.48817">
        <ele>0.501461</ele>
        <time>2022-08-04T14:06:33.000Z</time>
      </trkpt>
      <trkpt lat="49.33727" lon="-0.48813">
        <ele>0.453203</ele>
        <time>2022-08-04T14:06:34.000Z</time>
      </trkpt>
      <trkpt lat="49.33732" lon="-0.48809">
        <ele>0.407997</ele>
        <time>2022-08-04T14:06:35.000Z</time>
      </trkpt>
      <trkpt lat="49.33738" lon="-0.48805">
        <ele>0.361185</ele>
        <time>2022-08-04T14:06:36.000Z</time>
      </trkpt>
      <trkpt lat="49.33742" lon="-0.48801">
        <ele>0.31965</ele>
        <time>2022-08-04T14:06:37.000Z</time>
      </trkpt>
      <trkpt lat="49.33748" lon="-0.48797">
        <ele>0.275811</ele>
        <time>2022-08-04T14:06:38.000Z</time>
      </trkpt>
      <trkpt lat="49.33753" lon="-0.48793">
        <ele>0.228748</ele>
        <time>2022-08-04T14:06:39.000Z</time>
      </trkpt>
      <trkpt lat="49.33758" lon="-0.48789">
        <ele>0.186513</ele>
        <time>2022-08-04T14:06:40.000Z</time>
      </trkpt>
      <trkpt lat="49.33763" lon="-0.48785">
        <ele>0.142892</ele>
        <time>2022-08-04T14:06:41.000Z</time>
      </trkpt>
      <trkpt lat="49.33768" lon="-0.48782">
        <ele>0.102222</ele>
        <time>2022-08-04T14:06:42.000Z</time>
      </trkpt>
      <trkpt lat="49.33772" lon="-0.48779">
        <ele>0.063212</ele>
        <time>2022-08-04T14:06:43.000Z</time>
      </trkpt>
      <trkpt lat="49.33777" lon="-0.48774">
        <ele>0.020234</ele>
        <time>2022-08-04T14:06:44.000Z</time>
      </trkpt>
      <trkpt lat="49.33782" lon="-0.4877">
        <ele>-0.025255</ele>
        <time>2022-08-04T14:06:45.000Z</time>
      </trkpt>
      <trkpt lat="49.33787" lon="-0.48766">
        <ele>-0.07001</ele>
        <time>2022-08-04T14:06:46.000Z</time>
      </trkpt>
      <trkpt lat="49.33791" lon="-0.48762">
        <ele>-0.106496</ele>
        <time>2022-08-04T14:06:47.000Z</time>
      </trkpt>
      <trkpt lat="49.33797" lon="-0.48757">
        <ele>-0.155263</ele>
        <time>2022-08-04T14:06:48.000Z</time>
      </trkpt>
      <trkpt lat="49.33801" lon="-0.48753">
        <ele>-0.194586</ele>
        <time>2022-08-04T14:06:49.000Z</time>
      </trkpt>
      <trkpt lat="49.33805" lon="-0.48749">
        <ele>-0.234922</ele>
        <time>2022-08-04T14:06:50.000Z</time>
      </trkpt>
      <trkpt lat="49.3381" lon="-0.48744">
        <ele>-0.273962</ele>
        <time>2022-08-04T14:06:51.000Z</time>
      </trkpt>
      <trkpt lat="49.33814" lon="-0.4874">
        <ele>-0.314174</ele>
        <time>2022-08-04T14:06:52.000Z</time>
      </trkpt>
      <trkpt lat="49.33819" lon="-0.48736">
        <ele>-0.357407</ele>
        <time>2022-08-04T14:06:53.000Z</time>
      </trkpt>
      <trkpt lat="49.33823" lon="-0.48731">
        <ele>-0.396384</ele>
        <time>2022-08-04T14:06:54.000Z</time>
      </trkpt>
      <trkpt lat="49.33827" lon="-0.48727">
        <ele>-0.435992</ele>
        <time>2022-08-04T14:06:55.000Z</time>
      </trkpt>
      <trkpt lat="49.33831" lon="-0.48722">
        <ele>-0.476485</ele>
        <time>2022-08-04T14:06:56.000Z</time>
      </trkpt>
      <trkpt lat="49.33835" lon="-0.48718">
        <ele>-0.509637</ele>
        <time>2022-08-04T14:06:57.000Z</time>
      </trkpt>
      <trkpt lat="49.33839" lon="-0.48713">
        <ele>-0.550131</ele>
        <time>2022-08-04T14:06:58.000Z</time>
      </trkpt>
      <trkpt lat="49.33843" lon="-0.48708">
        <ele>-0.590747</ele>
        <time>2022-08-04T14:06:59.000Z</time>
      </trkpt>
      <trkpt lat="49.33847" lon="-0.48703">
        <ele>-0.596974</ele>
        <time>2022-08-04T14:07:00.000Z</time>
      </trkpt>
      <trkpt lat="49.33852" lon="-0.48698">
        <ele>-0.574182</ele>
        <time>2022-08-04T14:07:01.000Z</time>
      </trkpt>
      <trkpt lat="49.33855" lon="-0.48693">
        <ele>-0.553333</ele>
        <time>2022-08-04T14:07:02.000Z</time>
      </trkpt>
      <trkpt lat="49.33861" lon="-0.48687">
        <ele>-0.52713</ele>
        <time>2022-08-04T14:07:03.000Z</time>
      </trkpt>
      <trkpt lat="49.33865" lon="-0.48682">
        <ele>-0.505138</ele>
        <time>2022-08-04T14:07:04.000Z</time>
      </trkpt>
      <trkpt lat="49.33869" lon="-0.48676">
        <ele>-0.483942</ele>
        <time>2022-08-04T14:07:05.000Z</time>
      </trkpt>
      <trkpt lat="49.33873" lon="-0.48671">
        <ele>-0.46229</ele>
        <time>2022-08-04T14:07:06.000Z</time>
      </trkpt>
      <trkpt lat="49.33877" lon="-0.48666">
        <ele>-0.440482</ele>
        <time>2022-08-04T14:07:07.000Z</time>
      </trkpt>
      <trkpt lat="49.33881" lon="-0.48661">
        <ele>-0.419235</ele>
        <time>2022-08-04T14:07:08.000Z</time>
      </trkpt>
      <trkpt lat="49.33885" lon="-0.48655">
        <ele>-0.397505</ele>
        <time>2022-08-04T14:07:09.000Z</time>
      </trkpt>
      <trkpt lat="49.33888" lon="-0.4865">
        <ele>-0.377704</ele>
        <time>2022-08-04T14:07:10.000Z</time>
      </trkpt>
      <trkpt lat="49.33892" lon="-0.48645">
        <ele>-0.358087</ele>
        <time>2022-08-04T14:07:11.000Z</time>
      </trkpt>
      <trkpt lat="49.33895" lon="-0.4864">
        <ele>-0.337408</ele>
        <time>2022-08-04T14:07:12.000Z</time>
      </trkpt>
      <trkpt lat="49.33899" lon="-0.48636">
        <ele>-0.318503</ele>
        <time>2022-08-04T14:07:13.000Z</time>
      </trkpt>
      <trkpt lat="49.33902" lon="-0.48631">
        <ele>-0.300331</ele>
        <time>2022-08-04T14:07:14.000Z</time>
      </trkpt>
      <trkpt lat="49.33905" lon="-0.48627">
        <ele>-0.282525</ele>
        <time>2022-08-04T14:07:15.000Z</time>
      </trkpt>
      <trkpt lat="49.33909" lon="-0.48622">
        <ele>-0.264131</ele>
        <time>2022-08-04T14:07:16.000Z</time>
      </trkpt>
      <trkpt lat="49.33912" lon="-0.48619">
        <ele>-0.247694</ele>
        <time>2022-08-04T14:07:17.000Z</time>
      </trkpt>
      <trkpt lat="49.33915" lon="-0.48615">
        <ele>-0.233851</ele>
        <time>2022-08-04T14:07:18.000Z</time>
      </trkpt>
      <trkpt lat="49.33917" lon="-0.48613">
        <ele>-0.222778</ele>
        <time>2022-08-04T14:07:19.000Z</time>
      </trkpt>
      <trkpt lat="49.33919" lon="-0.4861">
        <ele>-0.210704</ele>
        <time>2022-08-04T14:07:20.000Z</time>
      </trkpt>
      <trkpt lat="49.33921" lon="-0.48608">
        <ele>-0.202565</ele>
        <time>2022-08-04T14:07:21.000Z</time>
      </trkpt>
      <trkpt lat="49.33922" lon="-0.48606">
        <ele>-0.194581</ele>
        <time>2022-08-04T14:07:22.000Z</time>
      </trkpt>
      <trkpt lat="49.33925" lon="-0.48604">
        <ele>-0.183318</ele>
        <time>2022-08-04T14:07:24.000Z</time>
      </trkpt>
      <trkpt lat="49.33926" lon="-0.48602">
        <ele>-0.175766</ele>
        <time>2022-08-04T14:07:26.000Z</time>
      </trkpt>
      <trkpt lat="49.3392" lon="-0.48608">
        <ele>-0.146768</ele>
        <time>2022-08-04T14:08:14.000Z</time>
      </trkpt>
      <trkpt lat="49.33917" lon="-0.48611">
        <ele>-0.132988</ele>
        <time>2022-08-04T14:08:16.000Z</time>
      </trkpt>
      <trkpt lat="49.33915" lon="-0.48614">
        <ele>-0.119633</ele>
        <time>2022-08-04T14:08:18.000Z</time>
      </trkpt>
      <trkpt lat="49.33913" lon="-0.48615">
        <ele>-0.112205</ele>
        <time>2022-08-04T14:08:19.000Z</time>
      </trkpt>
      <trkpt lat="49.33911" lon="-0.48617">
        <ele>-0.103072</ele>
        <time>2022-08-04T14:08:20.000Z</time>
      </trkpt>
      <trkpt lat="49.33909" lon="-0.48618">
        <ele>-0.094425</ele>
        <time>2022-08-04T14:08:21.000Z</time>
      </trkpt>
      <trkpt lat="49.33906" lon="-0.48622">
        <ele>-0.078429</ele>
        <time>2022-08-04T14:08:23.000Z</time>
      </trkpt>
      <trkpt lat="49.33905" lon="-0.48625">
        <ele>-0.070552</ele>
        <time>2022-08-04T14:08:24.000Z</time>
      </trkpt>
      <trkpt lat="49.33903" lon="-0.48627">
        <ele>-0.061738</ele>
        <time>2022-08-04T14:08:25.000Z</time>
      </trkpt>
      <trkpt lat="49.33901" lon="-0.48629">
        <ele>-0.050893</ele>
        <time>2022-08-04T14:08:26.000Z</time>
      </trkpt>
      <trkpt lat="49.33899" lon="-0.48631">
        <ele>-0.041287</ele>
        <time>2022-08-04T14:08:27.000Z</time>
      </trkpt>
      <trkpt lat="49.33897" lon="-0.48634">
        <ele>-0.030103</ele>
        <time>2022-08-04T14:08:28.000Z</time>
      </trkpt>
      <trkpt lat="49.33895" lon="-0.48637">
        <ele>-0.01853</ele>
        <time>2022-08-04T14:08:29.000Z</time>
      </trkpt>
      <trkpt lat="49.33893" lon="-0.4864">
        <ele>-0.005793</ele>
        <time>2022-08-04T14:08:30.000Z</time>
      </trkpt>
      <trkpt lat="49.33891" lon="-0.48644">
        <ele>0.006828</ele>
        <time>2022-08-04T14:08:31.000Z</time>
      </trkpt>
      <trkpt lat="49.33889" lon="-0.48647">
        <ele>0.019746</ele>
        <time>2022-08-04T14:08:32.000Z</time>
      </trkpt>
      <trkpt lat="49.33886" lon="-0.4865">
        <ele>0.033629</ele>
        <time>2022-08-04T14:08:33.000Z</time>
      </trkpt>
      <trkpt lat="49.33883" lon="-0.48654">
        <ele>0.048283</ele>
        <time>2022-08-04T14:08:34.000Z</time>
      </trkpt>
      <trkpt lat="49.33881" lon="-0.48657">
        <ele>0.062125</ele>
        <time>2022-08-04T14:08:35.000Z</time>
      </trkpt>
      <trkpt lat="49.33878" lon="-0.4866">
        <ele>0.075481</ele>
        <time>2022-08-04T14:08:36.000Z</time>
      </trkpt>
      <trkpt lat="49.33876" lon="-0.48663">
        <ele>0.088512</ele>
        <time>2022-08-04T14:08:37.000Z</time>
      </trkpt>
      <trkpt lat="49.33873" lon="-0.48666">
        <ele>0.103648</ele>
        <time>2022-08-04T14:08:38.000Z</time>
      </trkpt>
      <trkpt lat="49.33869" lon="-0.4867">
        <ele>0.119769</ele>
        <time>2022-08-04T14:08:39.000Z</time>
      </trkpt>
      <trkpt lat="49.33867" lon="-0.48674">
        <ele>0.130885</ele>
        <time>2022-08-04T14:08:40.000Z</time>
      </trkpt>
      <trkpt lat="49.33864" lon="-0.48678">
        <ele>0.135639</ele>
        <time>2022-08-04T14:08:41.000Z</time>
      </trkpt>
      <trkpt lat="49.33861" lon="-0.48682">
        <ele>0.140228</ele>
        <time>2022-08-04T14:08:42.000Z</time>
      </trkpt>
      <trkpt lat="49.33858" lon="-0.48685">
        <ele>0.144982</ele>
        <time>2022-08-04T14:08:43.000Z</time>
      </trkpt>
      <trkpt lat="49.33855" lon="-0.48689">
        <ele>0.150127</ele>
        <time>2022-08-04T14:08:44.000Z</time>
      </trkpt>
      <trkpt lat="49.33853" lon="-0.48693">
        <ele>0.154571</ele>
        <time>2022-08-04T14:08:45.000Z</time>
      </trkpt>
      <trkpt lat="49.33849" lon="-0.48697">
        <ele>0.159616</ele>
        <time>2022-08-04T14:08:46.000Z</time>
      </trkpt>
      <trkpt lat="49.33846" lon="-0.48701">
        <ele>0.16437</ele>
        <time>2022-08-04T14:08:47.000Z</time>
      </trkpt>
      <trkpt lat="49.33843" lon="-0.48705">
        <ele>0.169464</ele>
        <time>2022-08-04T14:08:48.000Z</time>
      </trkpt>
      <trkpt lat="49.3384" lon="-0.48709">
        <ele>0.174218</ele>
        <time>2022-08-04T14:08:49.000Z</time>
      </trkpt>
      <trkpt lat="49.33837" lon="-0.48712">
        <ele>0.179213</ele>
        <time>2022-08-04T14:08:50.000Z</time>
      </trkpt>
      <trkpt lat="49.33834" lon="-0.48716">
        <ele>0.184159</ele>
        <time>2022-08-04T14:08:51.000Z</time>
      </trkpt>
      <trkpt lat="49.33831" lon="-0.4872">
        <ele>0.188861</ele>
        <time>2022-08-04T14:08:52.000Z</time>
      </trkpt>
      <trkpt lat="49.33828" lon="-0.48723">
        <ele>0.193982</ele>
        <time>2022-08-04T14:08:53.000Z</time>
      </trkpt>
      <trkpt lat="49.33824" lon="-0.48726">
        <ele>0.199061</ele>
        <time>2022-08-04T14:08:54.000Z</time>
      </trkpt>
      <trkpt lat="49.33821" lon="-0.4873">
        <ele>0.204501</ele>
        <time>2022-08-04T14:08:55.000Z</time>
      </trkpt>
      <trkpt lat="49.33817" lon="-0.48734">
        <ele>0.2094</ele>
        <time>2022-08-04T14:08:56.000Z</time>
      </trkpt>
      <trkpt lat="49.33814" lon="-0.48737">
        <ele>0.214206</ele>
        <time>2022-08-04T14:08:57.000Z</time>
      </trkpt>
      <trkpt lat="49.33811" lon="-0.4874">
        <ele>0.218881</ele>
        <time>2022-08-04T14:08:58.000Z</time>
      </trkpt>
      <trkpt lat="49.33807" lon="-0.48743">
        <ele>0.223765</ele>
        <time>2022-08-04T14:08:59.000Z</time>
      </trkpt>
      <trkpt lat="49.33805" lon="-0.48745">
        <ele>0.227911</ele>
        <time>2022-08-04T14:09:00.000Z</time>
      </trkpt>
      <trkpt lat="49.33802" lon="-0.48747">
        <ele>0.231944</ele>
        <time>2022-08-04T14:09:01.000Z</time>
      </trkpt>
      <trkpt lat="49.33798" lon="-0.48751">
        <ele>0.237599</ele>
        <time>2022-08-04T14:09:02.000Z</time>
      </trkpt>
      <trkpt lat="49.33795" lon="-0.48754">
        <ele>0.242405</ele>
        <time>2022-08-04T14:09:03.000Z</time>
      </trkpt>
      <trkpt lat="49.33791" lon="-0.48758">
        <ele>0.247592</ele>
        <time>2022-08-04T14:09:04.000Z</time>
      </trkpt>
      <trkpt lat="49.33787" lon="-0.48761">
        <ele>0.253035</ele>
        <time>2022-08-04T14:09:05.000Z</time>
      </trkpt>
      <trkpt lat="49.33784" lon="-0.48764">
        <ele>0.258114</ele>
        <time>2022-08-04T14:09:06.000Z</time>
      </trkpt>
      <trkpt lat="49.3378" lon="-0.48767">
        <ele>0.263553</ele>
        <time>2022-08-04T14:09:07.000Z</time>
      </trkpt>
      <trkpt lat="49.33776" lon="-0.48771">
        <ele>0.269402</ele>
        <time>2022-08-04T14:09:08.000Z</time>
      </trkpt>
      <trkpt lat="49.33772" lon="-0.48774">
        <ele>0.274915</ele>
        <time>2022-08-04T14:09:09.000Z</time>
      </trkpt>
      <trkpt lat="49.33768" lon="-0.48777">
        <ele>0.28044</ele>
        <time>2022-08-04T14:09:10.000Z</time>
      </trkpt>
      <trkpt lat="49.33764" lon="-0.48781">
        <ele>0.286322</ele>
        <time>2022-08-04T14:09:11.000Z</time>
      </trkpt>
      <trkpt lat="49.3376" lon="-0.48784">
        <ele>0.291933</ele>
        <time>2022-08-04T14:09:12.000Z</time>
      </trkpt>
      <trkpt lat="49.33756" lon="-0.48788">
        <ele>0.297891</ele>
        <time>2022-08-04T14:09:13.000Z</time>
      </trkpt>
      <trkpt lat="49.33752" lon="-0.48791">
        <ele>0.303589</ele>
        <time>2022-08-04T14:09:14.000Z</time>
      </trkpt>
      <trkpt lat="49.33749" lon="-0.48793">
        <ele>0.307372</ele>
        <time>2022-08-04T14:09:15.000Z</time>
      </trkpt>
      <trkpt lat="49.33745" lon="-0.48796">
        <ele>0.312966</ele>
        <time>2022-08-04T14:09:16.000Z</time>
      </trkpt>
      <trkpt lat="49.33741" lon="-0.48799">
        <ele>0.319149</ele>
        <time>2022-08-04T14:09:17.000Z</time>
      </trkpt>
      <trkpt lat="49.33737" lon="-0.48802">
        <ele>0.323742</ele>
        <time>2022-08-04T14:09:18.000Z</time>
      </trkpt>
      <trkpt lat="49.33734" lon="-0.48805">
        <ele>0.328625</ele>
        <time>2022-08-04T14:09:19.000Z</time>
      </trkpt>
      <trkpt lat="49.3373" lon="-0.48808">
        <ele>0.333657</ele>
        <time>2022-08-04T14:09:20.000Z</time>
      </trkpt>
      <trkpt lat="49.33726" lon="-0.4881">
        <ele>0.338811</ele>
        <time>2022-08-04T14:09:21.000Z</time>
      </trkpt>
      <trkpt lat="49.33724" lon="-0.48813">
        <ele>0.343083</ele>
        <time>2022-08-04T14:09:22.000Z</time>
      </trkpt>
      <trkpt lat="49.3372" lon="-0.48816">
        <ele>0.347635</ele>
        <time>2022-08-04T14:09:23.000Z</time>
      </trkpt>
      <trkpt lat="49.33717" lon="-0.48818">
        <ele>0.351705</ele>
        <time>2022-08-04T14:09:24.000Z</time>
      </trkpt>
      <trkpt lat="49.33714" lon="-0.4882">
        <ele>0.360538</ele>
        <time>2022-08-04T14:09:25.000Z</time>
      </trkpt>
      <trkpt lat="49.33711" lon="-0.48822">
        <ele>0.370337</ele>
        <time>2022-08-04T14:09:26.000Z</time>
      </trkpt>
      <trkpt lat="49.33708" lon="-0.48824">
        <ele>0.378496</ele>
        <time>2022-08-04T14:09:27.000Z</time>
      </trkpt>
      <trkpt lat="49.33706" lon="-0.48825">
        <ele>0.384937</ele>
        <time>2022-08-04T14:09:28.000Z</time>
      </trkpt>
      <trkpt lat="49.33704" lon="-0.48826">
        <ele>0.390639</ele>
        <time>2022-08-04T14:09:29.000Z</time>
      </trkpt>
      <trkpt lat="49.33701" lon="-0.48827">
        <ele>0.39933</ele>
        <time>2022-08-04T14:09:31.000Z</time>
      </trkpt>
      <trkpt lat="49.337" lon="-0.48823">
        <ele>0.407861</ele>
        <time>2022-08-04T14:09:34.000Z</time>
      </trkpt>
      <trkpt lat="49.33702" lon="-0.48804">
        <ele>0.445228</ele>
        <time>2022-08-04T14:09:40.000Z</time>
      </trkpt>
      <trkpt lat="49.33702" lon="-0.48799">
        <ele>0.454508</ele>
        <time>2022-08-04T14:09:41.000Z</time>
      </trkpt>
      <trkpt lat="49.33702" lon="-0.48794">
        <ele>0.46428</ele>
        <time>2022-08-04T14:09:42.000Z</time>
      </trkpt>
      <trkpt lat="49.33701" lon="-0.48789">
        <ele>0.473779</ele>
        <time>2022-08-04T14:09:43.000Z</time>
      </trkpt>
      <trkpt lat="49.33701" lon="-0.48784">
        <ele>0.483366</ele>
        <time>2022-08-04T14:09:44.000Z</time>
      </trkpt>
      <trkpt lat="49.337" lon="-0.48779">
        <ele>0.492952</ele>
        <time>2022-08-04T14:09:45.000Z</time>
      </trkpt>
      <trkpt lat="49.337" lon="-0.48774">
        <ele>0.501676</ele>
        <time>2022-08-04T14:09:46.000Z</time>
      </trkpt>
      <trkpt lat="49.33699" lon="-0.4877">
        <ele>0.510372</ele>
        <time>2022-08-04T14:09:47.000Z</time>
      </trkpt>
      <trkpt lat="49.33698" lon="-0.48766">
        <ele>0.517275</ele>
        <time>2022-08-04T14:09:48.000Z</time>
      </trkpt>
      <trkpt lat="49.33696" lon="-0.48762">
        <ele>0.526941</ele>
        <time>2022-08-04T14:09:50.000Z</time>
      </trkpt>
      <trkpt lat="49.33694" lon="-0.48751">
        <ele>0.548021</ele>
        <time>2022-08-04T14:14:54.000Z</time>
      </trkpt>
      <trkpt lat="49.33695" lon="-0.48716">
        <ele>0.614068</ele>
        <time>2022-08-04T14:18:18.000Z</time>
      </trkpt>
      <trkpt lat="49.33694" lon="-0.48711">
        <ele>0.62384</ele>
        <time>2022-08-04T14:18:19.000Z</time>
      </trkpt>
      <trkpt lat="49.33693" lon="-0.48707">
        <ele>0.633468</ele>
        <time>2022-08-04T14:18:20.000Z</time>
      </trkpt>
      <trkpt lat="49.33693" lon="-0.48702">
        <ele>0.642936</ele>
        <time>2022-08-04T14:18:21.000Z</time>
      </trkpt>
      <trkpt lat="49.33693" lon="-0.48697">
        <ele>0.652364</ele>
        <time>2022-08-04T14:18:22.000Z</time>
      </trkpt>
      <trkpt lat="49.33693" lon="-0.48692">
        <ele>0.661792</ele>
        <time>2022-08-04T14:18:23.000Z</time>
      </trkpt>
      <trkpt lat="49.33692" lon="-0.48686">
        <ele>0.672199</ele>
        <time>2022-08-04T14:18:24.000Z</time>
      </trkpt>
      <trkpt lat="49.33692" lon="-0.48681">
        <ele>0.681698</ele>
        <time>2022-08-04T14:18:25.000Z</time>
      </trkpt>
      <trkpt lat="49.33692" lon="-0.48675">
        <ele>0.692446</ele>
        <time>2022-08-04T14:18:26.000Z</time>
      </trkpt>
      <trkpt lat="49.33692" lon="-0.4867">
        <ele>0.701914</ele>
        <time>2022-08-04T14:18:27.000Z</time>
      </trkpt>
      <trkpt lat="49.33691" lon="-0.48666">
        <ele>0.71097</ele>
        <time>2022-08-04T14:18:28.000Z</time>
      </trkpt>
      <trkpt lat="49.3369" lon="-0.48661">
        <ele>0.719908</ele>
        <time>2022-08-04T14:18:29.000Z</time>
      </trkpt>
      <trkpt lat="49.3369" lon="-0.48657">
        <ele>0.728569</ele>
        <time>2022-08-04T14:18:30.000Z</time>
      </trkpt>
      <trkpt lat="49.3369" lon="-0.48652">
        <ele>0.737431</ele>
        <time>2022-08-04T14:18:31.000Z</time>
      </trkpt>
      <trkpt lat="49.33689" lon="-0.48647">
        <ele>0.746092</ele>
        <time>2022-08-04T14:18:32.000Z</time>
      </trkpt>
      <trkpt lat="49.33689" lon="-0.48643">
        <ele>0.755143</ele>
        <time>2022-08-04T14:18:33.000Z</time>
      </trkpt>
      <trkpt lat="49.33688" lon="-0.48637">
        <ele>0.765155</ele>
        <time>2022-08-04T14:18:34.000Z</time>
      </trkpt>
      <trkpt lat="49.33688" lon="-0.48632">
        <ele>0.774583</ele>
        <time>2022-08-04T14:18:35.000Z</time>
      </trkpt>
      <trkpt lat="49.33688" lon="-0.48628">
        <ele>0.783634</ele>
        <time>2022-08-04T14:18:36.000Z</time>
      </trkpt>
      <trkpt lat="49.33688" lon="-0.48622">
        <ele>0.793478</ele>
        <time>2022-08-04T14:18:37.000Z</time>
      </trkpt>
      <trkpt lat="49.33688" lon="-0.48617">
        <ele>0.803509</ele>
        <time>2022-08-04T14:18:38.000Z</time>
      </trkpt>
      <trkpt lat="49.33687" lon="-0.48612">
        <ele>0.814276</ele>
        <time>2022-08-04T14:18:39.000Z</time>
      </trkpt>
      <trkpt lat="49.33686" lon="-0.48606">
        <ele>0.824683</ele>
        <time>2022-08-04T14:18:40.000Z</time>
      </trkpt>
      <trkpt lat="49.33686" lon="-0.48601">
        <ele>0.835199</ele>
        <time>2022-08-04T14:18:41.000Z</time>
      </trkpt>
      <trkpt lat="49.33685" lon="-0.48596">
        <ele>0.844323</ele>
        <time>2022-08-04T14:18:42.000Z</time>
      </trkpt>
      <trkpt lat="49.33686" lon="-0.48591">
        <ele>0.853261</ele>
        <time>2022-08-04T14:18:43.000Z</time>
      </trkpt>
      <trkpt lat="49.33685" lon="-0.48586">
        <ele>0.862198</ele>
        <time>2022-08-04T14:18:44.000Z</time>
      </trkpt>
      <trkpt lat="49.33685" lon="-0.48582">
        <ele>0.87049</ele>
        <time>2022-08-04T14:18:45.000Z</time>
      </trkpt>
      <trkpt lat="49.33685" lon="-0.48578">
        <ele>0.872382</ele>
        <time>2022-08-04T14:18:46.000Z</time>
      </trkpt>
      <trkpt lat="49.33685" lon="-0.48574">
        <ele>0.869997</ele>
        <time>2022-08-04T14:18:47.000Z</time>
      </trkpt>
      <trkpt lat="49.33684" lon="-0.48569">
        <ele>0.867162</ele>
        <time>2022-08-04T14:18:48.000Z</time>
      </trkpt>
      <trkpt lat="49.33684" lon="-0.48564">
        <ele>0.864565</ele>
        <time>2022-08-04T14:18:49.000Z</time>
      </trkpt>
      <trkpt lat="49.33684" lon="-0.4856">
        <ele>0.862025</ele>
        <time>2022-08-04T14:18:50.000Z</time>
      </trkpt>
      <trkpt lat="49.33684" lon="-0.48554">
        <ele>0.858956</ele>
        <time>2022-08-04T14:18:51.000Z</time>
      </trkpt>
      <trkpt lat="49.33683" lon="-0.48547">
        <ele>0.854595</ele>
        <time>2022-08-04T14:18:52.000Z</time>
      </trkpt>
      <trkpt lat="49.33682" lon="-0.4854">
        <ele>0.850825</ele>
        <time>2022-08-04T14:18:53.000Z</time>
      </trkpt>
      <trkpt lat="49.33682" lon="-0.48534">
        <ele>0.847324</ele>
        <time>2022-08-04T14:18:54.000Z</time>
      </trkpt>
      <trkpt lat="49.33681" lon="-0.48528">
        <ele>0.843848</ele>
        <time>2022-08-04T14:18:55.000Z</time>
      </trkpt>
      <trkpt lat="49.3368" lon="-0.48522">
        <ele>0.840296</ele>
        <time>2022-08-04T14:18:56.000Z</time>
      </trkpt>
      <trkpt lat="49.3368" lon="-0.48516">
        <ele>0.837147</ele>
        <time>2022-08-04T14:18:57.000Z</time>
      </trkpt>
      <trkpt lat="49.33679" lon="-0.48511">
        <ele>0.833923</ele>
        <time>2022-08-04T14:18:58.000Z</time>
      </trkpt>
      <trkpt lat="49.33678" lon="-0.48506">
        <ele>0.831053</ele>
        <time>2022-08-04T14:18:59.000Z</time>
      </trkpt>
      <trkpt lat="49.33677" lon="-0.48501">
        <ele>0.828111</ele>
        <time>2022-08-04T14:19:00.000Z</time>
      </trkpt>
      <trkpt lat="49.33677" lon="-0.48496">
        <ele>0.825182</ele>
        <time>2022-08-04T14:19:01.000Z</time>
      </trkpt>
      <trkpt lat="49.33676" lon="-0.48491">
        <ele>0.822295</ele>
        <time>2022-08-04T14:19:02.000Z</time>
      </trkpt>
      <trkpt lat="49.33675" lon="-0.48486">
        <ele>0.81942</ele>
        <time>2022-08-04T14:19:03.000Z</time>
      </trkpt>
      <trkpt lat="49.33675" lon="-0.48481">
        <ele>0.81681</ele>
        <time>2022-08-04T14:19:04.000Z</time>
      </trkpt>
      <trkpt lat="49.33674" lon="-0.48476">
        <ele>0.813978</ele>
        <time>2022-08-04T14:19:05.000Z</time>
      </trkpt>
      <trkpt lat="49.33674" lon="-0.48472">
        <ele>0.811368</ele>
        <time>2022-08-04T14:19:06.000Z</time>
      </trkpt>
      <trkpt lat="49.33673" lon="-0.48468">
        <ele>0.808844</ele>
        <time>2022-08-04T14:19:07.000Z</time>
      </trkpt>
      <trkpt lat="49.33672" lon="-0.48464">
        <ele>0.806561</ele>
        <time>2022-08-04T14:19:08.000Z</time>
      </trkpt>
      <trkpt lat="49.33671" lon="-0.4846">
        <ele>0.8043</ele>
        <time>2022-08-04T14:19:09.000Z</time>
      </trkpt>
      <trkpt lat="49.3367" lon="-0.48456">
        <ele>0.801872</ele>
        <time>2022-08-04T14:19:10.000Z</time>
      </trkpt>
      <trkpt lat="49.33669" lon="-0.48452">
        <ele>0.79937</ele>
        <time>2022-08-04T14:19:11.000Z</time>
      </trkpt>
      <trkpt lat="49.33669" lon="-0.48447">
        <ele>0.79682</ele>
        <time>2022-08-04T14:19:12.000Z</time>
      </trkpt>
      <trkpt lat="49.33669" lon="-0.48443">
        <ele>0.794449</ele>
        <time>2022-08-04T14:19:13.000Z</time>
      </trkpt>
      <trkpt lat="49.33668" lon="-0.48439">
        <ele>0.792001</ele>
        <time>2022-08-04T14:19:14.000Z</time>
      </trkpt>
      <trkpt lat="49.33668" lon="-0.48435">
        <ele>0.789672</ele>
        <time>2022-08-04T14:19:15.000Z</time>
      </trkpt>
      <trkpt lat="49.33667" lon="-0.48431">
        <ele>0.787283</ele>
        <time>2022-08-04T14:19:16.000Z</time>
      </trkpt>
      <trkpt lat="49.33666" lon="-0.48426">
        <ele>0.784671</ele>
        <time>2022-08-04T14:19:17.000Z</time>
      </trkpt>
      <trkpt lat="49.33665" lon="-0.48422">
        <ele>0.781905</ele>
        <time>2022-08-04T14:19:18.000Z</time>
      </trkpt>
      <trkpt lat="49.33664" lon="-0.48416">
        <ele>0.778907</ele>
        <time>2022-08-04T14:19:19.000Z</time>
      </trkpt>
      <trkpt lat="49.33663" lon="-0.48411">
        <ele>0.775604</ele>
        <time>2022-08-04T14:19:20.000Z</time>
      </trkpt>
      <trkpt lat="49.33662" lon="-0.48405">
        <ele>0.772402</ele>
        <time>2022-08-04T14:19:21.000Z</time>
      </trkpt>
      <trkpt lat="49.33661" lon="-0.484">
        <ele>0.769287</ele>
        <time>2022-08-04T14:19:22.000Z</time>
      </trkpt>
      <trkpt lat="49.3366" lon="-0.48395">
        <ele>0.766086</ele>
        <time>2022-08-04T14:19:23.000Z</time>
      </trkpt>
      <trkpt lat="49.33659" lon="-0.48389">
        <ele>0.762676</ele>
        <time>2022-08-04T14:19:24.000Z</time>
      </trkpt>
      <trkpt lat="49.33658" lon="-0.48383">
        <ele>0.759512</ele>
        <time>2022-08-04T14:19:25.000Z</time>
      </trkpt>
      <trkpt lat="49.33658" lon="-0.48378">
        <ele>0.756475</ele>
        <time>2022-08-04T14:19:26.000Z</time>
      </trkpt>
      <trkpt lat="49.33656" lon="-0.48372">
        <ele>0.753066</ele>
        <time>2022-08-04T14:19:27.000Z</time>
      </trkpt>
      <trkpt lat="49.33655" lon="-0.48367">
        <ele>0.750026</ele>
        <time>2022-08-04T14:19:28.000Z</time>
      </trkpt>
      <trkpt lat="49.33655" lon="-0.48363">
        <ele>0.747429</ele>
        <time>2022-08-04T14:19:29.000Z</time>
      </trkpt>
      <trkpt lat="49.33654" lon="-0.48358">
        <ele>0.744664</ele>
        <time>2022-08-04T14:19:30.000Z</time>
      </trkpt>
      <trkpt lat="49.33653" lon="-0.48353">
        <ele>0.741818</ele>
        <time>2022-08-04T14:19:31.000Z</time>
      </trkpt>
      <trkpt lat="49.33652" lon="-0.48349">
        <ele>0.739161</ele>
        <time>2022-08-04T14:19:32.000Z</time>
      </trkpt>
      <trkpt lat="49.33651" lon="-0.48344">
        <ele>0.736278</ele>
        <time>2022-08-04T14:19:33.000Z</time>
      </trkpt>
      <trkpt lat="49.33651" lon="-0.4834">
        <ele>0.733837</ele>
        <time>2022-08-04T14:19:34.000Z</time>
      </trkpt>
      <trkpt lat="49.3365" lon="-0.48335">
        <ele>0.731152</ele>
        <time>2022-08-04T14:19:35.000Z</time>
      </trkpt>
      <trkpt lat="49.33648" lon="-0.48331">
        <ele>0.728629</ele>
        <time>2022-08-04T14:19:36.000Z</time>
      </trkpt>
      <trkpt lat="49.33647" lon="-0.48327">
        <ele>0.725979</ele>
        <time>2022-08-04T14:19:37.000Z</time>
      </trkpt>
      <trkpt lat="49.33646" lon="-0.48323">
        <ele>0.723375</ele>
        <time>2022-08-04T14:19:38.000Z</time>
      </trkpt>
      <trkpt lat="49.33644" lon="-0.48318">
        <ele>0.720481</ele>
        <time>2022-08-04T14:19:39.000Z</time>
      </trkpt>
      <trkpt lat="49.33643" lon="-0.48314">
        <ele>0.717903</ele>
        <time>2022-08-04T14:19:40.000Z</time>
      </trkpt>
      <trkpt lat="49.33642" lon="-0.4831">
        <ele>0.717519</ele>
        <time>2022-08-04T14:19:41.000Z</time>
      </trkpt>
      <trkpt lat="49.33641" lon="-0.48305">
        <ele>0.71715</ele>
        <time>2022-08-04T14:19:42.000Z</time>
      </trkpt>
      <trkpt lat="49.3364" lon="-0.483">
        <ele>0.716754</ele>
        <time>2022-08-04T14:19:43.000Z</time>
      </trkpt>
      <trkpt lat="49.33639" lon="-0.48295">
        <ele>0.71636</ele>
        <time>2022-08-04T14:19:44.000Z</time>
      </trkpt>
      <trkpt lat="49.33638" lon="-0.4829">
        <ele>0.715982</ele>
        <time>2022-08-04T14:19:45.000Z</time>
      </trkpt>
      <trkpt lat="49.33637" lon="-0.48285">
        <ele>0.715581</ele>
        <time>2022-08-04T14:19:46.000Z</time>
      </trkpt>
      <trkpt lat="49.33635" lon="-0.4828">
        <ele>0.715222</ele>
        <time>2022-08-04T14:19:47.000Z</time>
      </trkpt>
      <trkpt lat="49.33634" lon="-0.48276">
        <ele>0.714842</ele>
        <time>2022-08-04T14:19:48.000Z</time>
      </trkpt>
      <trkpt lat="49.33633" lon="-0.4827">
        <ele>0.714435</ele>
        <time>2022-08-04T14:19:49.000Z</time>
      </trkpt>
      <trkpt lat="49.33631" lon="-0.48265">
        <ele>0.714008</ele>
        <time>2022-08-04T14:19:50.000Z</time>
      </trkpt>
      <trkpt lat="49.3363" lon="-0.4826">
        <ele>0.713608</ele>
        <time>2022-08-04T14:19:51.000Z</time>
      </trkpt>
      <trkpt lat="49.33629" lon="-0.48254">
        <ele>0.713155</ele>
        <time>2022-08-04T14:19:52.000Z</time>
      </trkpt>
      <trkpt lat="49.33627" lon="-0.48246">
        <ele>0.712564</ele>
        <time>2022-08-04T14:19:53.000Z</time>
      </trkpt>
      <trkpt lat="49.33626" lon="-0.4824">
        <ele>0.712076</ele>
        <time>2022-08-04T14:19:54.000Z</time>
      </trkpt>
      <trkpt lat="49.33625" lon="-0.48235">
        <ele>0.711663</ele>
        <time>2022-08-04T14:19:55.000Z</time>
      </trkpt>
      <trkpt lat="49.33623" lon="-0.4823">
        <ele>0.711294</ele>
        <time>2022-08-04T14:19:56.000Z</time>
      </trkpt>
      <trkpt lat="49.33622" lon="-0.48225">
        <ele>0.710946</ele>
        <time>2022-08-04T14:19:57.000Z</time>
      </trkpt>
      <trkpt lat="49.33621" lon="-0.48221">
        <ele>0.710565</ele>
        <time>2022-08-04T14:19:58.000Z</time>
      </trkpt>
      <trkpt lat="49.33619" lon="-0.48216">
        <ele>0.710143</ele>
        <time>2022-08-04T14:19:59.000Z</time>
      </trkpt>
      <trkpt lat="49.33617" lon="-0.48211">
        <ele>0.70972</ele>
        <time>2022-08-04T14:20:00.000Z</time>
      </trkpt>
      <trkpt lat="49.33615" lon="-0.48206">
        <ele>0.709319</ele>
        <time>2022-08-04T14:20:01.000Z</time>
      </trkpt>
      <trkpt lat="49.33615" lon="-0.48202">
        <ele>0.70901</ele>
        <time>2022-08-04T14:20:02.000Z</time>
      </trkpt>
      <trkpt lat="49.33613" lon="-0.48197">
        <ele>0.708623</ele>
        <time>2022-08-04T14:20:03.000Z</time>
      </trkpt>
      <trkpt lat="49.33613" lon="-0.48192">
        <ele>0.708266</ele>
        <time>2022-08-04T14:20:04.000Z</time>
      </trkpt>
      <trkpt lat="49.33612" lon="-0.48187">
        <ele>0.707886</ele>
        <time>2022-08-04T14:20:05.000Z</time>
      </trkpt>
      <trkpt lat="49.33611" lon="-0.48183">
        <ele>0.707528</ele>
        <time>2022-08-04T14:20:06.000Z</time>
      </trkpt>
      <trkpt lat="49.3361" lon="-0.48178">
        <ele>0.707169</ele>
        <time>2022-08-04T14:20:07.000Z</time>
      </trkpt>
      <trkpt lat="49.33608" lon="-0.48173">
        <ele>0.706749</ele>
        <time>2022-08-04T14:20:08.000Z</time>
      </trkpt>
      <trkpt lat="49.33607" lon="-0.48168">
        <ele>0.706402</ele>
        <time>2022-08-04T14:20:09.000Z</time>
      </trkpt>
      <trkpt lat="49.33605" lon="-0.48164">
        <ele>0.706034</ele>
        <time>2022-08-04T14:20:10.000Z</time>
      </trkpt>
      <trkpt lat="49.33604" lon="-0.48159">
        <ele>0.705679</ele>
        <time>2022-08-04T14:20:11.000Z</time>
      </trkpt>
      <trkpt lat="49.33603" lon="-0.48155">
        <ele>0.705325</ele>
        <time>2022-08-04T14:20:12.000Z</time>
      </trkpt>
      <trkpt lat="49.33603" lon="-0.4815">
        <ele>0.704975</ele>
        <time>2022-08-04T14:20:13.000Z</time>
      </trkpt>
      <trkpt lat="49.33602" lon="-0.48146">
        <ele>0.704658</ele>
        <time>2022-08-04T14:20:14.000Z</time>
      </trkpt>
      <trkpt lat="49.33601" lon="-0.48142">
        <ele>0.704383</ele>
        <time>2022-08-04T14:20:15.000Z</time>
      </trkpt>
      <trkpt lat="49.33601" lon="-0.48139">
        <ele>0.704152</ele>
        <time>2022-08-04T14:20:16.000Z</time>
      </trkpt>
      <trkpt lat="49.33599" lon="-0.48136">
        <ele>0.703895</ele>
        <time>2022-08-04T14:20:17.000Z</time>
      </trkpt>
      <trkpt lat="49.33598" lon="-0.48133">
        <ele>0.703603</ele>
        <time>2022-08-04T14:20:18.000Z</time>
      </trkpt>
      <trkpt lat="49.33597" lon="-0.48128">
        <ele>0.703243</ele>
        <time>2022-08-04T14:20:19.000Z</time>
      </trkpt>
      <trkpt lat="49.33596" lon="-0.48122">
        <ele>0.702756</ele>
        <time>2022-08-04T14:20:20.000Z</time>
      </trkpt>
      <trkpt lat="49.33595" lon="-0.48118">
        <ele>0.70247</ele>
        <time>2022-08-04T14:20:21.000Z</time>
      </trkpt>
      <trkpt lat="49.33594" lon="-0.48114">
        <ele>0.702124</ele>
        <time>2022-08-04T14:20:22.000Z</time>
      </trkpt>
      <trkpt lat="49.33592" lon="-0.48109">
        <ele>0.701764</ele>
        <time>2022-08-04T14:20:23.000Z</time>
      </trkpt>
      <trkpt lat="49.3359" lon="-0.48104">
        <ele>0.701329</ele>
        <time>2022-08-04T14:20:24.000Z</time>
      </trkpt>
      <trkpt lat="49.33589" lon="-0.481">
        <ele>0.700969</ele>
        <time>2022-08-04T14:20:25.000Z</time>
      </trkpt>
      <trkpt lat="49.33588" lon="-0.48096">
        <ele>0.700638</ele>
        <time>2022-08-04T14:20:26.000Z</time>
      </trkpt>
      <trkpt lat="49.33587" lon="-0.48091">
        <ele>0.700294</ele>
        <time>2022-08-04T14:20:27.000Z</time>
      </trkpt>
      <trkpt lat="49.33585" lon="-0.48087">
        <ele>0.699939</ele>
        <time>2022-08-04T14:20:28.000Z</time>
      </trkpt>
      <trkpt lat="49.33584" lon="-0.48083">
        <ele>0.699579</ele>
        <time>2022-08-04T14:20:29.000Z</time>
      </trkpt>
      <trkpt lat="49.33583" lon="-0.48079">
        <ele>0.6993</ele>
        <time>2022-08-04T14:20:30.000Z</time>
      </trkpt>
      <trkpt lat="49.33581" lon="-0.48076">
        <ele>0.698967</ele>
        <time>2022-08-04T14:20:31.000Z</time>
      </trkpt>
      <trkpt lat="49.33579" lon="-0.48071">
        <ele>0.698612</ele>
        <time>2022-08-04T14:20:32.000Z</time>
      </trkpt>
      <trkpt lat="49.33578" lon="-0.48067">
        <ele>0.698299</ele>
        <time>2022-08-04T14:20:33.000Z</time>
      </trkpt>
      <trkpt lat="49.33577" lon="-0.48063">
        <ele>0.697937</ele>
        <time>2022-08-04T14:20:34.000Z</time>
      </trkpt>
      <trkpt lat="49.33575" lon="-0.48059">
        <ele>0.705255</ele>
        <time>2022-08-04T14:20:35.000Z</time>
      </trkpt>
      <trkpt lat="49.33573" lon="-0.48056">
        <ele>0.719003</ele>
        <time>2022-08-04T14:20:36.000Z</time>
      </trkpt>
      <trkpt lat="49.33571" lon="-0.48054">
        <ele>0.73449</ele>
        <time>2022-08-04T14:20:37.000Z</time>
      </trkpt>
      <trkpt lat="49.33569" lon="-0.48052">
        <ele>0.749235</ele>
        <time>2022-08-04T14:20:38.000Z</time>
      </trkpt>
      <trkpt lat="49.33568" lon="-0.4805">
        <ele>0.761689</ele>
        <time>2022-08-04T14:20:39.000Z</time>
      </trkpt>
      <trkpt lat="49.33565" lon="-0.48048">
        <ele>0.783616</ele>
        <time>2022-08-04T14:20:41.000Z</time>
      </trkpt>
      <trkpt lat="49.33563" lon="-0.48047">
        <ele>0.796471</ele>
        <time>2022-08-04T14:20:42.000Z</time>
      </trkpt>
      <trkpt lat="49.33559" lon="-0.48044">
        <ele>0.821177</ele>
        <time>2022-08-04T14:20:44.000Z</time>
      </trkpt>
      <trkpt lat="49.33558" lon="-0.4804">
        <ele>0.839044</ele>
        <time>2022-08-04T14:20:46.000Z</time>
      </trkpt>
      <trkpt lat="49.33559" lon="-0.48036">
        <ele>0.855006</ele>
        <time>2022-08-04T14:20:48.000Z</time>
      </trkpt>
      <trkpt lat="49.3356" lon="-0.48031">
        <ele>0.877862</ele>
        <time>2022-08-04T14:20:50.000Z</time>
      </trkpt>
      <trkpt lat="49.33561" lon="-0.48027">
        <ele>0.896726</ele>
        <time>2022-08-04T14:20:52.000Z</time>
      </trkpt>
      <trkpt lat="49.33561" lon="-0.48023">
        <ele>0.91484</ele>
        <time>2022-08-04T14:20:54.000Z</time>
      </trkpt>
      <trkpt lat="49.33561" lon="-0.48017">
        <ele>0.93709</ele>
        <time>2022-08-04T14:20:56.000Z</time>
      </trkpt>
      <trkpt lat="49.3356" lon="-0.48012">
        <ele>0.95832</ele>
        <time>2022-08-04T14:20:58.000Z</time>
      </trkpt>
      <trkpt lat="49.33558" lon="-0.48008">
        <ele>0.977334</ele>
        <time>2022-08-04T14:21:00.000Z</time>
      </trkpt>
      <trkpt lat="49.33556" lon="-0.48005">
        <ele>0.999195</ele>
        <time>2022-08-04T14:21:02.000Z</time>
      </trkpt>
      <trkpt lat="49.33557" lon="-0.48001">
        <ele>1.016467</ele>
        <time>2022-08-04T14:21:04.000Z</time>
      </trkpt>
      <trkpt lat="49.33559" lon="-0.48001">
        <ele>1.030645</ele>
        <time>2022-08-04T14:21:06.000Z</time>
      </trkpt>
      <trkpt lat="49.33559" lon="-0.48004">
        <ele>1.042377</ele>
        <time>2022-08-04T14:21:07.000Z</time>
      </trkpt>
      <trkpt lat="49.3356" lon="-0.48007">
        <ele>1.056911</ele>
        <time>2022-08-04T14:21:08.000Z</time>
      </trkpt>
      <trkpt lat="49.3356" lon="-0.48011">
        <ele>1.072758</ele>
        <time>2022-08-04T14:21:09.000Z</time>
      </trkpt>
      <trkpt lat="49.3356" lon="-0.48015">
        <ele>1.089439</ele>
        <time>2022-08-04T14:21:10.000Z</time>
      </trkpt>
      <trkpt lat="49.33561" lon="-0.48019">
        <ele>1.107059</ele>
        <time>2022-08-04T14:21:11.000Z</time>
      </trkpt>
      <trkpt lat="49.33561" lon="-0.48024">
        <ele>1.125998</ele>
        <time>2022-08-04T14:21:12.000Z</time>
      </trkpt>
      <trkpt lat="49.33561" lon="-0.48028">
        <ele>1.14393</ele>
        <time>2022-08-04T14:21:13.000Z</time>
      </trkpt>
      <trkpt lat="49.33561" lon="-0.48032">
        <ele>1.162279</ele>
        <time>2022-08-04T14:21:14.000Z</time>
      </trkpt>
      <trkpt lat="49.33561" lon="-0.48036">
        <ele>1.179155</ele>
        <time>2022-08-04T14:21:15.000Z</time>
      </trkpt>
      <trkpt lat="49.3356" lon="-0.4804">
        <ele>1.19429</ele>
        <time>2022-08-04T14:21:16.000Z</time>
      </trkpt>
      <trkpt lat="49.3356" lon="-0.48043">
        <ele>1.20898</ele>
        <time>2022-08-04T14:21:17.000Z</time>
      </trkpt>
      <trkpt lat="49.33559" lon="-0.48046">
        <ele>1.222268</ele>
        <time>2022-08-04T14:21:18.000Z</time>
      </trkpt>
      <trkpt lat="49.33558" lon="-0.48049">
        <ele>1.233771</ele>
        <time>2022-08-04T14:21:19.000Z</time>
      </trkpt>
      <trkpt lat="49.33557" lon="-0.48051">
        <ele>1.246785</ele>
        <time>2022-08-04T14:21:20.000Z</time>
      </trkpt>
      <trkpt lat="49.33556" lon="-0.48053">
        <ele>1.259992</ele>
        <time>2022-08-04T14:21:21.000Z</time>
      </trkpt>
      <trkpt lat="49.33554" lon="-0.48055">
        <ele>1.272213</ele>
        <time>2022-08-04T14:21:22.000Z</time>
      </trkpt>
      <trkpt lat="49.33551" lon="-0.48058">
        <ele>1.292269</ele>
        <time>2022-08-04T14:21:24.000Z</time>
      </trkpt>
      <trkpt lat="49.33549" lon="-0.48059">
        <ele>1.30843</ele>
        <time>2022-08-04T14:21:26.000Z</time>
      </trkpt>
      <trkpt lat="49.33547" lon="-0.4806">
        <ele>1.324516</ele>
        <time>2022-08-04T14:21:28.000Z</time>
      </trkpt>
      <trkpt lat="49.33544" lon="-0.48061">
        <ele>1.344101</ele>
        <time>2022-08-04T14:21:30.000Z</time>
      </trkpt>
      <trkpt lat="49.33542" lon="-0.48065">
        <ele>1.36342</ele>
        <time>2022-08-04T14:21:32.000Z</time>
      </trkpt>
      <trkpt lat="49.3354" lon="-0.48068">
        <ele>1.382471</ele>
        <time>2022-08-04T14:21:34.000Z</time>
      </trkpt>
      <trkpt lat="49.33537" lon="-0.48069">
        <ele>1.402055</ele>
        <time>2022-08-04T14:21:36.000Z</time>
      </trkpt>
      <trkpt lat="49.33534" lon="-0.48071">
        <ele>1.421821</ele>
        <time>2022-08-04T14:21:38.000Z</time>
      </trkpt>
      <trkpt lat="49.33531" lon="-0.48074">
        <ele>1.444801</ele>
        <time>2022-08-04T14:21:40.000Z</time>
      </trkpt>
      <trkpt lat="49.33529" lon="-0.48075">
        <ele>1.456387</ele>
        <time>2022-08-04T14:21:41.000Z</time>
      </trkpt>
      <trkpt lat="49.33526" lon="-0.48077">
        <ele>1.478499</ele>
        <time>2022-08-04T14:21:43.000Z</time>
      </trkpt>
      <trkpt lat="49.33523" lon="-0.48079">
        <ele>1.497705</ele>
        <time>2022-08-04T14:21:45.000Z</time>
      </trkpt>
      <trkpt lat="49.33521" lon="-0.48081">
        <ele>1.515791</ele>
        <time>2022-08-04T14:21:47.000Z</time>
      </trkpt>
      <trkpt lat="49.33519" lon="-0.48082">
        <ele>1.52894</ele>
        <time>2022-08-04T14:21:48.000Z</time>
      </trkpt>
      <trkpt lat="49.33517" lon="-0.48084">
        <ele>1.542614</ele>
        <time>2022-08-04T14:21:49.000Z</time>
      </trkpt>
      <trkpt lat="49.33515" lon="-0.48085">
        <ele>1.555927</ele>
        <time>2022-08-04T14:21:50.000Z</time>
      </trkpt>
      <trkpt lat="49.33513" lon="-0.48086">
        <ele>1.569076</ele>
        <time>2022-08-04T14:21:51.000Z</time>
      </trkpt>
      <trkpt lat="49.33511" lon="-0.48087">
        <ele>1.582673</ele>
        <time>2022-08-04T14:21:52.000Z</time>
      </trkpt>
      <trkpt lat="49.33509" lon="-0.48089">
        <ele>1.596161</ele>
        <time>2022-08-04T14:21:53.000Z</time>
      </trkpt>
      <trkpt lat="49.33507" lon="-0.4809">
        <ele>1.609475</ele>
        <time>2022-08-04T14:21:54.000Z</time>
      </trkpt>
      <trkpt lat="49.33505" lon="-0.48092">
        <ele>1.627251</ele>
        <time>2022-08-04T14:21:55.000Z</time>
      </trkpt>
      <trkpt lat="49.33503" lon="-0.48093">
        <ele>1.6404</ele>
        <time>2022-08-04T14:21:56.000Z</time>
      </trkpt>
      <trkpt lat="49.335" lon="-0.48094">
        <ele>1.657043</ele>
        <time>2022-08-04T14:21:57.000Z</time>
      </trkpt>
      <trkpt lat="49.33498" lon="-0.48095">
        <ele>1.672878</ele>
        <time>2022-08-04T14:21:58.000Z</time>
      </trkpt>
      <trkpt lat="49.33495" lon="-0.48097">
        <ele>1.690057</ele>
        <time>2022-08-04T14:21:59.000Z</time>
      </trkpt>
      <trkpt lat="49.33493" lon="-0.48098">
        <ele>1.707984</ele>
        <time>2022-08-04T14:22:00.000Z</time>
      </trkpt>
      <trkpt lat="49.3349" lon="-0.481">
        <ele>1.728164</ele>
        <time>2022-08-04T14:22:01.000Z</time>
      </trkpt>
      <trkpt lat="49.33487" lon="-0.48102">
        <ele>1.745499</ele>
        <time>2022-08-04T14:22:02.000Z</time>
      </trkpt>
      <trkpt lat="49.33485" lon="-0.48103">
        <ele>1.763275</ele>
        <time>2022-08-04T14:22:03.000Z</time>
      </trkpt>
      <trkpt lat="49.33482" lon="-0.48105">
        <ele>1.781051</ele>
        <time>2022-08-04T14:22:04.000Z</time>
      </trkpt>
      <trkpt lat="49.3348" lon="-0.48106">
        <ele>1.79454</ele>
        <time>2022-08-04T14:22:05.000Z</time>
      </trkpt>
      <trkpt lat="49.33478" lon="-0.48108">
        <ele>1.809946</ele>
        <time>2022-08-04T14:22:06.000Z</time>
      </trkpt>
      <trkpt lat="49.33476" lon="-0.48109">
        <ele>1.825939</ele>
        <time>2022-08-04T14:22:07.000Z</time>
      </trkpt>
      <trkpt lat="49.33474" lon="-0.48111">
        <ele>1.841895</ele>
        <time>2022-08-04T14:22:08.000Z</time>
      </trkpt>
      <trkpt lat="49.33471" lon="-0.48113">
        <ele>1.899035</ele>
        <time>2022-08-04T14:22:09.000Z</time>
      </trkpt>
      <trkpt lat="49.33468" lon="-0.48115">
        <ele>2.038204</ele>
        <time>2022-08-04T14:22:10.000Z</time>
      </trkpt>
      <trkpt lat="49.33466" lon="-0.48117">
        <ele>2.130604</ele>
        <time>2022-08-04T14:22:11.000Z</time>
      </trkpt>
      <trkpt lat="49.33463" lon="-0.48119">
        <ele>2.221827</ele>
        <time>2022-08-04T14:22:12.000Z</time>
      </trkpt>
      <trkpt lat="49.3346" lon="-0.48121">
        <ele>2.351583</ele>
        <time>2022-08-04T14:22:13.000Z</time>
      </trkpt>
      <trkpt lat="49.33458" lon="-0.48124">
        <ele>2.450783</ele>
        <time>2022-08-04T14:22:14.000Z</time>
      </trkpt>
      <trkpt lat="49.33456" lon="-0.48125">
        <ele>2.53147</ele>
        <time>2022-08-04T14:22:15.000Z</time>
      </trkpt>
      <trkpt lat="49.33454" lon="-0.48127">
        <ele>2.622692</ele>
        <time>2022-08-04T14:22:16.000Z</time>
      </trkpt>
      <trkpt lat="49.33451" lon="-0.48129">
        <ele>2.723917</ele>
        <time>2022-08-04T14:22:17.000Z</time>
      </trkpt>
      <trkpt lat="49.33448" lon="-0.4813">
        <ele>2.833773</ele>
        <time>2022-08-04T14:22:18.000Z</time>
      </trkpt>
      <trkpt lat="49.33445" lon="-0.48132">
        <ele>2.948662</ele>
        <time>2022-08-04T14:22:19.000Z</time>
      </trkpt>
      <trkpt lat="49.33443" lon="-0.48134">
        <ele>3.035653</ele>
        <time>2022-08-04T14:22:20.000Z</time>
      </trkpt>
      <trkpt lat="49.3344" lon="-0.48136">
        <ele>3.163342</ele>
        <time>2022-08-04T14:22:21.000Z</time>
      </trkpt>
      <trkpt lat="49.33438" lon="-0.48138">
        <ele>3.242817</ele>
        <time>2022-08-04T14:22:22.000Z</time>
      </trkpt>
      <trkpt lat="49.33435" lon="-0.4814">
        <ele>3.378614</ele>
        <time>2022-08-04T14:22:23.000Z</time>
      </trkpt>
      <trkpt lat="49.33432" lon="-0.48142">
        <ele>3.485902</ele>
        <time>2022-08-04T14:22:24.000Z</time>
      </trkpt>
      <trkpt lat="49.3343" lon="-0.48144">
        <ele>3.578303</ele>
        <time>2022-08-04T14:22:25.000Z</time>
      </trkpt>
      <trkpt lat="49.33427" lon="-0.48146">
        <ele>3.681373</ele>
        <time>2022-08-04T14:22:26.000Z</time>
      </trkpt>
      <trkpt lat="49.33424" lon="-0.48148">
        <ele>3.796262</ele>
        <time>2022-08-04T14:22:27.000Z</time>
      </trkpt>
      <trkpt lat="49.33422" lon="-0.4815">
        <ele>3.898139</ele>
        <time>2022-08-04T14:22:28.000Z</time>
      </trkpt>
      <trkpt lat="49.3342" lon="-0.48152">
        <ele>3.998645</ele>
        <time>2022-08-04T14:22:29.000Z</time>
      </trkpt>
      <trkpt lat="49.33417" lon="-0.48155">
        <ele>4.097566</ele>
        <time>2022-08-04T14:22:30.000Z</time>
      </trkpt>
      <trkpt lat="49.33415" lon="-0.48157">
        <ele>4.202661</ele>
        <time>2022-08-04T14:22:31.000Z</time>
      </trkpt>
      <trkpt lat="49.33413" lon="-0.48159">
        <ele>4.283348</ele>
        <time>2022-08-04T14:22:32.000Z</time>
      </trkpt>
      <trkpt lat="49.33411" lon="-0.4816">
        <ele>4.362823</ele>
        <time>2022-08-04T14:22:33.000Z</time>
      </trkpt>
      <trkpt lat="49.33409" lon="-0.48162">
        <ele>4.44351</ele>
        <time>2022-08-04T14:22:34.000Z</time>
      </trkpt>
      <trkpt lat="49.33407" lon="-0.48164">
        <ele>4.513833</ele>
        <time>2022-08-04T14:22:35.000Z</time>
      </trkpt>
      <trkpt lat="49.33405" lon="-0.48165">
        <ele>4.595335</ele>
        <time>2022-08-04T14:22:36.000Z</time>
      </trkpt>
      <trkpt lat="49.33404" lon="-0.48167">
        <ele>4.677283</ele>
        <time>2022-08-04T14:22:37.000Z</time>
      </trkpt>
      <trkpt lat="49.33402" lon="-0.48169">
        <ele>4.761895</ele>
        <time>2022-08-04T14:22:38.000Z</time>
      </trkpt>
      <trkpt lat="49.334" lon="-0.48171">
        <ele>4.836465</ele>
        <time>2022-08-04T14:22:39.000Z</time>
      </trkpt>
      <trkpt lat="49.33398" lon="-0.48174">
        <ele>4.917314</ele>
        <time>2022-08-04T14:22:40.000Z</time>
      </trkpt>
      <trkpt lat="49.33397" lon="-0.48176">
        <ele>4.996536</ele>
        <time>2022-08-04T14:22:41.000Z</time>
      </trkpt>
      <trkpt lat="49.33396" lon="-0.48179">
        <ele>5.075586</ele>
        <time>2022-08-04T14:22:42.000Z</time>
      </trkpt>
      <trkpt lat="49.33394" lon="-0.48181">
        <ele>5.152756</ele>
        <time>2022-08-04T14:22:43.000Z</time>
      </trkpt>
      <trkpt lat="49.33393" lon="-0.48184">
        <ele>5.229714</ele>
        <time>2022-08-04T14:22:44.000Z</time>
      </trkpt>
      <trkpt lat="49.33392" lon="-0.48187">
        <ele>5.31455</ele>
        <time>2022-08-04T14:22:45.000Z</time>
      </trkpt>
      <trkpt lat="49.3339" lon="-0.4819">
        <ele>5.3936</ele>
        <time>2022-08-04T14:22:46.000Z</time>
      </trkpt>
      <trkpt lat="49.33389" lon="-0.48193">
        <ele>5.468787</ele>
        <time>2022-08-04T14:22:47.000Z</time>
      </trkpt>
      <trkpt lat="49.33389" lon="-0.48196">
        <ele>5.546556</ele>
        <time>2022-08-04T14:22:48.000Z</time>
      </trkpt>
      <trkpt lat="49.33388" lon="-0.48198">
        <ele>5.617175</ele>
        <time>2022-08-04T14:22:49.000Z</time>
      </trkpt>
      <trkpt lat="49.33387" lon="-0.48201">
        <ele>5.688589</ele>
        <time>2022-08-04T14:22:50.000Z</time>
      </trkpt>
      <trkpt lat="49.33386" lon="-0.48204">
        <ele>5.757664</ele>
        <time>2022-08-04T14:22:51.000Z</time>
      </trkpt>
      <trkpt lat="49.33385" lon="-0.48206">
        <ele>5.824919</ele>
        <time>2022-08-04T14:22:52.000Z</time>
      </trkpt>
      <trkpt lat="49.33384" lon="-0.48208">
        <ele>5.891438</ele>
        <time>2022-08-04T14:22:53.000Z</time>
      </trkpt>
      <trkpt lat="49.33382" lon="-0.4821">
        <ele>5.970913</ele>
        <time>2022-08-04T14:22:54.000Z</time>
      </trkpt>
      <trkpt lat="49.3338" lon="-0.48211">
        <ele>6.036334</ele>
        <time>2022-08-04T14:22:55.000Z</time>
      </trkpt>
      <trkpt lat="49.33378" lon="-0.48213">
        <ele>6.116774</ele>
        <time>2022-08-04T14:22:56.000Z</time>
      </trkpt>
      <trkpt lat="49.33376" lon="-0.48213">
        <ele>6.187969</ele>
        <time>2022-08-04T14:22:57.000Z</time>
      </trkpt>
      <trkpt lat="49.33374" lon="-0.48214">
        <ele>6.260553</ele>
        <time>2022-08-04T14:22:58.000Z</time>
      </trkpt>
      <trkpt lat="49.33373" lon="-0.48216">
        <ele>6.340028</ele>
        <time>2022-08-04T14:22:59.000Z</time>
      </trkpt>
      <trkpt lat="49.33371" lon="-0.48218">
        <ele>6.420715</ele>
        <time>2022-08-04T14:23:00.000Z</time>
      </trkpt>
      <trkpt lat="49.33369" lon="-0.4822">
        <ele>6.509635</ele>
        <time>2022-08-04T14:23:01.000Z</time>
      </trkpt>
      <trkpt lat="49.33366" lon="-0.48221">
        <ele>6.594824</ele>
        <time>2022-08-04T14:23:02.000Z</time>
      </trkpt>
      <trkpt lat="49.33364" lon="-0.48222">
        <ele>6.676012</ele>
        <time>2022-08-04T14:23:03.000Z</time>
      </trkpt>
      <trkpt lat="49.33362" lon="-0.48223">
        <ele>6.761232</ele>
        <time>2022-08-04T14:23:04.000Z</time>
      </trkpt>
      <trkpt lat="49.3336" lon="-0.48224">
        <ele>6.843507</ele>
        <time>2022-08-04T14:23:05.000Z</time>
      </trkpt>
      <trkpt lat="49.33357" lon="-0.48225">
        <ele>6.939329</ele>
        <time>2022-08-04T14:23:06.000Z</time>
      </trkpt>
      <trkpt lat="49.33355" lon="-0.48226">
        <ele>7.023699</ele>
        <time>2022-08-04T14:23:07.000Z</time>
      </trkpt>
      <trkpt lat="49.33353" lon="-0.48227">
        <ele>7.110754</ele>
        <time>2022-08-04T14:23:08.000Z</time>
      </trkpt>
      <trkpt lat="49.3335" lon="-0.48228">
        <ele>7.193666</ele>
        <time>2022-08-04T14:23:09.000Z</time>
      </trkpt>
      <trkpt lat="49.33348" lon="-0.48229">
        <ele>7.27594</ele>
        <time>2022-08-04T14:23:10.000Z</time>
      </trkpt>
      <trkpt lat="49.33346" lon="-0.4823">
        <ele>7.36116</ele>
        <time>2022-08-04T14:23:11.000Z</time>
      </trkpt>
      <trkpt lat="49.33343" lon="-0.48231">
        <ele>7.455815</ele>
        <time>2022-08-04T14:23:12.000Z</time>
      </trkpt>
      <trkpt lat="49.33341" lon="-0.48232">
        <ele>7.542869</ele>
        <time>2022-08-04T14:23:13.000Z</time>
      </trkpt>
      <trkpt lat="49.33339" lon="-0.48233">
        <ele>7.628932</ele>
        <time>2022-08-04T14:23:14.000Z</time>
      </trkpt>
      <trkpt lat="49.33337" lon="-0.48234">
        <ele>7.701515</ele>
        <time>2022-08-04T14:23:15.000Z</time>
      </trkpt>
      <trkpt lat="49.33335" lon="-0.48235">
        <ele>7.774739</ele>
        <time>2022-08-04T14:23:16.000Z</time>
      </trkpt>
      <trkpt lat="49.33332" lon="-0.48235">
        <ele>7.8769</ele>
        <time>2022-08-04T14:23:18.000Z</time>
      </trkpt>
      <trkpt lat="49.33329" lon="-0.48234">
        <ele>7.998517</ele>
        <time>2022-08-04T14:23:20.000Z</time>
      </trkpt>
      <trkpt lat="49.33328" lon="-0.48231">
        <ele>8.067592</ele>
        <time>2022-08-04T14:23:21.000Z</time>
      </trkpt>
      <trkpt lat="49.33327" lon="-0.48228">
        <ele>8.160419</ele>
        <time>2022-08-04T14:23:22.000Z</time>
      </trkpt>
      <trkpt lat="49.33326" lon="-0.48224">
        <ele>8.25249</ele>
        <time>2022-08-04T14:23:23.000Z</time>
      </trkpt>
      <trkpt lat="49.33325" lon="-0.4822">
        <ele>8.35184</ele>
        <time>2022-08-04T14:23:24.000Z</time>
      </trkpt>
      <trkpt lat="49.33324" lon="-0.48216">
        <ele>8.379022</ele>
        <time>2022-08-04T14:23:25.000Z</time>
      </trkpt>
      <trkpt lat="49.33323" lon="-0.48211">
        <ele>8.412297</ele>
        <time>2022-08-04T14:23:26.000Z</time>
      </trkpt>
      <trkpt lat="49.33321" lon="-0.48206">
        <ele>8.446728</ele>
        <time>2022-08-04T14:23:27.000Z</time>
      </trkpt>
      <trkpt lat="49.3332" lon="-0.482">
        <ele>8.480835</ele>
        <time>2022-08-04T14:23:28.000Z</time>
      </trkpt>
      <trkpt lat="49.33319" lon="-0.48194">
        <ele>8.519918</ele>
        <time>2022-08-04T14:23:29.000Z</time>
      </trkpt>
      <trkpt lat="49.33318" lon="-0.48188">
        <ele>8.559181</ele>
        <time>2022-08-04T14:23:30.000Z</time>
      </trkpt>
      <trkpt lat="49.33317" lon="-0.48182">
        <ele>8.60213</ele>
        <time>2022-08-04T14:23:31.000Z</time>
      </trkpt>
      <trkpt lat="49.33315" lon="-0.48175">
        <ele>8.646818</ele>
        <time>2022-08-04T14:23:32.000Z</time>
      </trkpt>
      <trkpt lat="49.33313" lon="-0.48168">
        <ele>8.69384</ele>
        <time>2022-08-04T14:23:33.000Z</time>
      </trkpt>
      <trkpt lat="49.33312" lon="-0.4816">
        <ele>8.740022</ele>
        <time>2022-08-04T14:23:34.000Z</time>
      </trkpt>
      <trkpt lat="49.3331" lon="-0.48153">
        <ele>8.787629</ele>
        <time>2022-08-04T14:23:35.000Z</time>
      </trkpt>
      <trkpt lat="49.33309" lon="-0.48145">
        <ele>8.838522</ele>
        <time>2022-08-04T14:23:36.000Z</time>
      </trkpt>
      <trkpt lat="49.33307" lon="-0.48138">
        <ele>8.888261</ele>
        <time>2022-08-04T14:23:37.000Z</time>
      </trkpt>
      <trkpt lat="49.33304" lon="-0.4813">
        <ele>8.939498</ele>
        <time>2022-08-04T14:23:38.000Z</time>
      </trkpt>
      <trkpt lat="49.33302" lon="-0.48123">
        <ele>8.992034</ele>
        <time>2022-08-04T14:23:39.000Z</time>
      </trkpt>
      <trkpt lat="49.333" lon="-0.48115">
        <ele>9.044545</ele>
        <time>2022-08-04T14:23:40.000Z</time>
      </trkpt>
      <trkpt lat="49.33297" lon="-0.48108">
        <ele>9.095384</ele>
        <time>2022-08-04T14:23:41.000Z</time>
      </trkpt>
      <trkpt lat="49.33295" lon="-0.481">
        <ele>9.146621</ele>
        <time>2022-08-04T14:23:42.000Z</time>
      </trkpt>
      <trkpt lat="49.33293" lon="-0.48093">
        <ele>9.19521</ele>
        <time>2022-08-04T14:23:43.000Z</time>
      </trkpt>
      <trkpt lat="49.33291" lon="-0.48086">
        <ele>9.243226</ele>
        <time>2022-08-04T14:23:44.000Z</time>
      </trkpt>
      <trkpt lat="49.33289" lon="-0.48078">
        <ele>9.291241</ele>
        <time>2022-08-04T14:23:45.000Z</time>
      </trkpt>
      <trkpt lat="49.33287" lon="-0.48072">
        <ele>9.336961</ele>
        <time>2022-08-04T14:23:46.000Z</time>
      </trkpt>
      <trkpt lat="49.33285" lon="-0.48066">
        <ele>9.380056</ele>
        <time>2022-08-04T14:23:47.000Z</time>
      </trkpt>
      <trkpt lat="49.33282" lon="-0.4806">
        <ele>9.422056</ele>
        <time>2022-08-04T14:23:48.000Z</time>
      </trkpt>
      <trkpt lat="49.33279" lon="-0.48055">
        <ele>9.466265</ele>
        <time>2022-08-04T14:23:49.000Z</time>
      </trkpt>
      <trkpt lat="49.33276" lon="-0.4805">
        <ele>9.508711</ele>
        <time>2022-08-04T14:23:50.000Z</time>
      </trkpt>
      <trkpt lat="49.33273" lon="-0.48046">
        <ele>9.546212</ele>
        <time>2022-08-04T14:23:51.000Z</time>
      </trkpt>
      <trkpt lat="49.3327" lon="-0.48041">
        <ele>9.589524</ele>
        <time>2022-08-04T14:23:52.000Z</time>
      </trkpt>
      <trkpt lat="49.33267" lon="-0.48037">
        <ele>9.627775</ele>
        <time>2022-08-04T14:23:53.000Z</time>
      </trkpt>
      <trkpt lat="49.33264" lon="-0.48033">
        <ele>9.667716</ele>
        <time>2022-08-04T14:23:54.000Z</time>
      </trkpt>
      <trkpt lat="49.33261" lon="-0.48029">
        <ele>9.703888</ele>
        <time>2022-08-04T14:23:55.000Z</time>
      </trkpt>
      <trkpt lat="49.33258" lon="-0.48025">
        <ele>9.741893</ele>
        <time>2022-08-04T14:23:56.000Z</time>
      </trkpt>
      <trkpt lat="49.33255" lon="-0.48021">
        <ele>9.778065</ele>
        <time>2022-08-04T14:23:57.000Z</time>
      </trkpt>
      <trkpt lat="49.33251" lon="-0.48017">
        <ele>9.81946</ele>
        <time>2022-08-04T14:23:58.000Z</time>
      </trkpt>
      <trkpt lat="49.33248" lon="-0.48013">
        <ele>9.858222</ele>
        <time>2022-08-04T14:23:59.000Z</time>
      </trkpt>
      <trkpt lat="49.33245" lon="-0.4801">
        <ele>9.896602</ele>
        <time>2022-08-04T14:24:00.000Z</time>
      </trkpt>
      <trkpt lat="49.33241" lon="-0.48006">
        <ele>9.935567</ele>
        <time>2022-08-04T14:24:01.000Z</time>
      </trkpt>
      <trkpt lat="49.33237" lon="-0.48004">
        <ele>9.974379</ele>
        <time>2022-08-04T14:24:02.000Z</time>
      </trkpt>
      <trkpt lat="49.33234" lon="-0.48004">
        <ele>10.010429</ele>
        <time>2022-08-04T14:24:03.000Z</time>
      </trkpt>
      <trkpt lat="49.33231" lon="-0.48005">
        <ele>10.038623</ele>
        <time>2022-08-04T14:24:04.000Z</time>
      </trkpt>
      <trkpt lat="49.33228" lon="-0.48006">
        <ele>10.045115</ele>
        <time>2022-08-04T14:24:05.000Z</time>
      </trkpt>
      <trkpt lat="49.33226" lon="-0.48007">
        <ele>10.021363</ele>
        <time>2022-08-04T14:24:06.000Z</time>
      </trkpt>
      <trkpt lat="49.33223" lon="-0.48007">
        <ele>9.988583</ele>
        <time>2022-08-04T14:24:08.000Z</time>
      </trkpt>
      <trkpt lat="49.33221" lon="-0.48007">
        <ele>9.969156</ele>
        <time>2022-08-04T14:24:09.000Z</time>
      </trkpt>
      <trkpt lat="49.33219" lon="-0.48006">
        <ele>9.949446</ele>
        <time>2022-08-04T14:24:10.000Z</time>
      </trkpt>
      <trkpt lat="49.33217" lon="-0.48005">
        <ele>9.930275</ele>
        <time>2022-08-04T14:24:11.000Z</time>
      </trkpt>
      <trkpt lat="49.33216" lon="-0.48003">
        <ele>9.910975</ele>
        <time>2022-08-04T14:24:12.000Z</time>
      </trkpt>
      <trkpt lat="49.33215" lon="-0.48">
        <ele>9.88697</ele>
        <time>2022-08-04T14:24:13.000Z</time>
      </trkpt>
      <trkpt lat="49.33214" lon="-0.47997">
        <ele>9.863747</ele>
        <time>2022-08-04T14:24:14.000Z</time>
      </trkpt>
      <trkpt lat="49.33213" lon="-0.47993">
        <ele>9.839498</ele>
        <time>2022-08-04T14:24:15.000Z</time>
      </trkpt>
      <trkpt lat="49.33211" lon="-0.4799">
        <ele>9.811011</ele>
        <time>2022-08-04T14:24:16.000Z</time>
      </trkpt>
      <trkpt lat="49.3321" lon="-0.47986">
        <ele>9.781822</ele>
        <time>2022-08-04T14:24:17.000Z</time>
      </trkpt>
      <trkpt lat="49.33209" lon="-0.47982">
        <ele>9.75613</ele>
        <time>2022-08-04T14:24:18.000Z</time>
      </trkpt>
      <trkpt lat="49.33207" lon="-0.47978">
        <ele>9.725423</ele>
        <time>2022-08-04T14:24:19.000Z</time>
      </trkpt>
      <trkpt lat="49.33206" lon="-0.47974">
        <ele>9.69243</ele>
        <time>2022-08-04T14:24:20.000Z</time>
      </trkpt>
      <trkpt lat="49.33204" lon="-0.4797">
        <ele>9.660014</ele>
        <time>2022-08-04T14:24:21.000Z</time>
      </trkpt>
      <trkpt lat="49.33202" lon="-0.47966">
        <ele>9.625889</ele>
        <time>2022-08-04T14:24:22.000Z</time>
      </trkpt>
      <trkpt lat="49.33201" lon="-0.47962">
        <ele>9.595333</ele>
        <time>2022-08-04T14:24:23.000Z</time>
      </trkpt>
      <trkpt lat="49.33199" lon="-0.47957">
        <ele>9.55793</ele>
        <time>2022-08-04T14:24:24.000Z</time>
      </trkpt>
      <trkpt lat="49.33197" lon="-0.47952">
        <ele>9.523774</ele>
        <time>2022-08-04T14:24:25.000Z</time>
      </trkpt>
      <trkpt lat="49.33196" lon="-0.47948">
        <ele>9.488046</ele>
        <time>2022-08-04T14:24:26.000Z</time>
      </trkpt>
      <trkpt lat="49.33194" lon="-0.47943">
        <ele>9.450625</ele>
        <time>2022-08-04T14:24:27.000Z</time>
      </trkpt>
      <trkpt lat="49.33192" lon="-0.47939">
        <ele>9.414898</ele>
        <time>2022-08-04T14:24:28.000Z</time>
      </trkpt>
      <trkpt lat="49.3319" lon="-0.47934">
        <ele>9.378044</ele>
        <time>2022-08-04T14:24:29.000Z</time>
      </trkpt>
      <trkpt lat="49.33188" lon="-0.47929">
        <ele>9.338346</ele>
        <time>2022-08-04T14:24:30.000Z</time>
      </trkpt>
      <trkpt lat="49.33186" lon="-0.47924">
        <ele>9.29978</ele>
        <time>2022-08-04T14:24:31.000Z</time>
      </trkpt>
      <trkpt lat="49.33184" lon="-0.47919">
        <ele>9.261214</ele>
        <time>2022-08-04T14:24:32.000Z</time>
      </trkpt>
      <trkpt lat="49.33182" lon="-0.47914">
        <ele>9.221491</ele>
        <time>2022-08-04T14:24:33.000Z</time>
      </trkpt>
      <trkpt lat="49.3318" lon="-0.47909">
        <ele>9.180711</ele>
        <time>2022-08-04T14:24:34.000Z</time>
      </trkpt>
      <trkpt lat="49.33177" lon="-0.47903">
        <ele>9.13771</ele>
        <time>2022-08-04T14:24:35.000Z</time>
      </trkpt>
      <trkpt lat="49.33174" lon="-0.47898">
        <ele>9.088999</ele>
        <time>2022-08-04T14:24:36.000Z</time>
      </trkpt>
      <trkpt lat="49.33172" lon="-0.47891">
        <ele>9.039312</ele>
        <time>2022-08-04T14:24:37.000Z</time>
      </trkpt>
      <trkpt lat="49.33169" lon="-0.47885">
        <ele>8.98902</ele>
        <time>2022-08-04T14:24:38.000Z</time>
      </trkpt>
      <trkpt lat="49.33166" lon="-0.47879">
        <ele>8.938169</ele>
        <time>2022-08-04T14:24:39.000Z</time>
      </trkpt>
      <trkpt lat="49.33164" lon="-0.47872">
        <ele>8.886209</ele>
        <time>2022-08-04T14:24:40.000Z</time>
      </trkpt>
      <trkpt lat="49.33161" lon="-0.47865">
        <ele>8.830321</ele>
        <time>2022-08-04T14:24:41.000Z</time>
      </trkpt>
      <trkpt lat="49.33158" lon="-0.47858">
        <ele>8.775593</ele>
        <time>2022-08-04T14:24:42.000Z</time>
      </trkpt>
      <trkpt lat="49.33155" lon="-0.47851">
        <ele>8.718619</ele>
        <time>2022-08-04T14:24:43.000Z</time>
      </trkpt>
      <trkpt lat="49.33152" lon="-0.47844">
        <ele>8.663771</ele>
        <time>2022-08-04T14:24:44.000Z</time>
      </trkpt>
      <trkpt lat="49.33149" lon="-0.47836">
        <ele>8.601762</ele>
        <time>2022-08-04T14:24:45.000Z</time>
      </trkpt>
      <trkpt lat="49.33146" lon="-0.47829">
        <ele>8.543653</ele>
        <time>2022-08-04T14:24:46.000Z</time>
      </trkpt>
      <trkpt lat="49.33142" lon="-0.47821">
        <ele>8.484477</ele>
        <time>2022-08-04T14:24:47.000Z</time>
      </trkpt>
      <trkpt lat="49.33139" lon="-0.47814">
        <ele>8.422468</ele>
        <time>2022-08-04T14:24:48.000Z</time>
      </trkpt>
      <trkpt lat="49.33136" lon="-0.47806">
        <ele>8.364359</ele>
        <time>2022-08-04T14:24:49.000Z</time>
      </trkpt>
      <trkpt lat="49.33133" lon="-0.47799">
        <ele>8.303507</ele>
        <time>2022-08-04T14:24:50.000Z</time>
      </trkpt>
      <trkpt lat="49.3313" lon="-0.47791">
        <ele>8.243775</ele>
        <time>2022-08-04T14:24:51.000Z</time>
      </trkpt>
      <trkpt lat="49.33127" lon="-0.47784">
        <ele>8.168025</ele>
        <time>2022-08-04T14:24:52.000Z</time>
      </trkpt>
      <trkpt lat="49.33124" lon="-0.47776">
        <ele>8.077103</ele>
        <time>2022-08-04T14:24:53.000Z</time>
      </trkpt>
      <trkpt lat="49.33121" lon="-0.47769">
        <ele>7.984419</ele>
        <time>2022-08-04T14:24:54.000Z</time>
      </trkpt>
      <trkpt lat="49.33118" lon="-0.47762">
        <ele>7.895249</ele>
        <time>2022-08-04T14:24:55.000Z</time>
      </trkpt>
      <trkpt lat="49.33115" lon="-0.47755">
        <ele>7.803442</ele>
        <time>2022-08-04T14:24:56.000Z</time>
      </trkpt>
      <trkpt lat="49.33111" lon="-0.47747">
        <ele>7.705233</ele>
        <time>2022-08-04T14:24:57.000Z</time>
      </trkpt>
      <trkpt lat="49.33109" lon="-0.4774">
        <ele>7.617531</ele>
        <time>2022-08-04T14:24:58.000Z</time>
      </trkpt>
      <trkpt lat="49.33105" lon="-0.47733">
        <ele>7.521148</ele>
        <time>2022-08-04T14:24:59.000Z</time>
      </trkpt>
      <trkpt lat="49.33102" lon="-0.47726">
        <ele>7.431131</ele>
        <time>2022-08-04T14:25:00.000Z</time>
      </trkpt>
      <trkpt lat="49.33099" lon="-0.47718">
        <ele>7.335794</ele>
        <time>2022-08-04T14:25:01.000Z</time>
      </trkpt>
      <trkpt lat="49.33096" lon="-0.47711">
        <ele>7.244871</ele>
        <time>2022-08-04T14:25:02.000Z</time>
      </trkpt>
      <trkpt lat="49.33093" lon="-0.47704">
        <ele>7.149343</ele>
        <time>2022-08-04T14:25:03.000Z</time>
      </trkpt>
      <trkpt lat="49.3309" lon="-0.47696">
        <ele>7.056597</ele>
        <time>2022-08-04T14:25:04.000Z</time>
      </trkpt>
      <trkpt lat="49.33086" lon="-0.47689">
        <ele>6.958493</ele>
        <time>2022-08-04T14:25:05.000Z</time>
      </trkpt>
      <trkpt lat="49.33083" lon="-0.47681">
        <ele>6.864928</ele>
        <time>2022-08-04T14:25:06.000Z</time>
      </trkpt>
      <trkpt lat="49.3308" lon="-0.47674">
        <ele>6.773095</ele>
        <time>2022-08-04T14:25:07.000Z</time>
      </trkpt>
      <trkpt lat="49.33077" lon="-0.47666">
        <ele>6.677757</ele>
        <time>2022-08-04T14:25:08.000Z</time>
      </trkpt>
      <trkpt lat="49.33074" lon="-0.47659">
        <ele>6.589283</ele>
        <time>2022-08-04T14:25:09.000Z</time>
      </trkpt>
      <trkpt lat="49.33071" lon="-0.47652">
        <ele>6.495451</ele>
        <time>2022-08-04T14:25:10.000Z</time>
      </trkpt>
      <trkpt lat="49.33068" lon="-0.47645">
        <ele>6.405434</ele>
        <time>2022-08-04T14:25:11.000Z</time>
      </trkpt>
      <trkpt lat="49.33064" lon="-0.47637">
        <ele>6.307329</ele>
        <time>2022-08-04T14:25:12.000Z</time>
      </trkpt>
      <trkpt lat="49.33061" lon="-0.4763">
        <ele>6.2111</ele>
        <time>2022-08-04T14:25:13.000Z</time>
      </trkpt>
      <trkpt lat="49.33058" lon="-0.47622">
        <ele>6.118354</ele>
        <time>2022-08-04T14:25:14.000Z</time>
      </trkpt>
      <trkpt lat="49.33055" lon="-0.47615">
        <ele>6.018512</ele>
        <time>2022-08-04T14:25:15.000Z</time>
      </trkpt>
      <trkpt lat="49.33052" lon="-0.47607">
        <ele>5.925766</ele>
        <time>2022-08-04T14:25:16.000Z</time>
      </trkpt>
      <trkpt lat="49.33048" lon="-0.47599">
        <ele>5.825924</ele>
        <time>2022-08-04T14:25:17.000Z</time>
      </trkpt>
      <trkpt lat="49.33045" lon="-0.47592">
        <ele>5.727901</ele>
        <time>2022-08-04T14:25:18.000Z</time>
      </trkpt>
      <trkpt lat="49.33042" lon="-0.47584">
        <ele>5.632397</ele>
        <time>2022-08-04T14:25:19.000Z</time>
      </trkpt>
      <trkpt lat="49.33038" lon="-0.47576">
        <ele>5.531363</ele>
        <time>2022-08-04T14:25:20.000Z</time>
      </trkpt>
      <trkpt lat="49.33035" lon="-0.47568">
        <ele>5.429769</ele>
        <time>2022-08-04T14:25:21.000Z</time>
      </trkpt>
      <trkpt lat="49.33031" lon="-0.47561">
        <ele>5.329053</ele>
        <time>2022-08-04T14:25:22.000Z</time>
      </trkpt>
      <trkpt lat="49.33028" lon="-0.47553">
        <ele>5.212271</ele>
        <time>2022-08-04T14:25:23.000Z</time>
      </trkpt>
      <trkpt lat="49.33025" lon="-0.47545">
        <ele>5.076699</ele>
        <time>2022-08-04T14:25:24.000Z</time>
      </trkpt>
      <trkpt lat="49.33021" lon="-0.47537">
        <ele>4.940027</ele>
        <time>2022-08-04T14:25:25.000Z</time>
      </trkpt>
      <trkpt lat="49.33018" lon="-0.47529">
        <ele>4.810181</ele>
        <time>2022-08-04T14:25:26.000Z</time>
      </trkpt>
      <trkpt lat="49.33015" lon="-0.47521">
        <ele>4.674612</ele>
        <time>2022-08-04T14:25:27.000Z</time>
      </trkpt>
      <trkpt lat="49.33012" lon="-0.47513">
        <ele>4.549542</ele>
        <time>2022-08-04T14:25:28.000Z</time>
      </trkpt>
      <trkpt lat="49.33009" lon="-0.47506">
        <ele>4.424752</ele>
        <time>2022-08-04T14:25:29.000Z</time>
      </trkpt>
      <trkpt lat="49.33005" lon="-0.47498">
        <ele>4.29263</ele>
        <time>2022-08-04T14:25:30.000Z</time>
      </trkpt>
      <trkpt lat="49.33003" lon="-0.4749">
        <ele>4.166784</ele>
        <time>2022-08-04T14:25:31.000Z</time>
      </trkpt>
      <trkpt lat="49.33002" lon="-0.47482">
        <ele>4.042943</ele>
        <time>2022-08-04T14:25:32.000Z</time>
      </trkpt>
      <trkpt lat="49.33002" lon="-0.47473">
        <ele>3.925214</ele>
        <time>2022-08-04T14:25:33.000Z</time>
      </trkpt>
      <trkpt lat="49.33004" lon="-0.47466">
        <ele>3.808428</ele>
        <time>2022-08-04T14:25:34.000Z</time>
      </trkpt>
      <trkpt lat="49.33006" lon="-0.47459">
        <ele>3.699759</ele>
        <time>2022-08-04T14:25:35.000Z</time>
      </trkpt>
      <trkpt lat="49.33009" lon="-0.47452">
        <ele>3.58534</ele>
        <time>2022-08-04T14:25:36.000Z</time>
      </trkpt>
      <trkpt lat="49.33012" lon="-0.47446">
        <ele>3.472043</ele>
        <time>2022-08-04T14:25:37.000Z</time>
      </trkpt>
      <trkpt lat="49.33015" lon="-0.4744">
        <ele>3.36742</ele>
        <time>2022-08-04T14:25:38.000Z</time>
      </trkpt>
      <trkpt lat="49.33017" lon="-0.47433">
        <ele>3.259863</ele>
        <time>2022-08-04T14:25:39.000Z</time>
      </trkpt>
      <trkpt lat="49.33018" lon="-0.47425">
        <ele>3.147927</ele>
        <time>2022-08-04T14:25:40.000Z</time>
      </trkpt>
      <trkpt lat="49.33019" lon="-0.47418">
        <ele>3.038362</ele>
        <time>2022-08-04T14:25:41.000Z</time>
      </trkpt>
      <trkpt lat="49.33017" lon="-0.4741">
        <ele>2.925538</ele>
        <time>2022-08-04T14:25:42.000Z</time>
      </trkpt>
      <trkpt lat="49.33016" lon="-0.47402">
        <ele>2.813602</ele>
        <time>2022-08-04T14:25:43.000Z</time>
      </trkpt>
      <trkpt lat="49.33013" lon="-0.47395">
        <ele>2.696031</ele>
        <time>2022-08-04T14:25:44.000Z</time>
      </trkpt>
      <trkpt lat="49.33011" lon="-0.47388">
        <ele>2.57953</ele>
        <time>2022-08-04T14:25:45.000Z</time>
      </trkpt>
      <trkpt lat="49.33008" lon="-0.47382">
        <ele>2.472431</ele>
        <time>2022-08-04T14:25:46.000Z</time>
      </trkpt>
      <trkpt lat="49.33006" lon="-0.47377">
        <ele>2.387871</ele>
        <time>2022-08-04T14:25:47.000Z</time>
      </trkpt>
      <trkpt lat="49.33004" lon="-0.47372">
        <ele>2.307061</ele>
        <time>2022-08-04T14:25:48.000Z</time>
      </trkpt>
      <trkpt lat="49.33003" lon="-0.47368">
        <ele>2.244349</ele>
        <time>2022-08-04T14:25:49.000Z</time>
      </trkpt>
      <trkpt lat="49.33002" lon="-0.47364">
        <ele>2.183474</ele>
        <time>2022-08-04T14:25:50.000Z</time>
      </trkpt>
      <trkpt lat="49.33001" lon="-0.4736">
        <ele>2.130564</ele>
        <time>2022-08-04T14:25:51.000Z</time>
      </trkpt>
      <trkpt lat="49.32999" lon="-0.47358">
        <ele>2.086523</ele>
        <time>2022-08-04T14:25:52.000Z</time>
      </trkpt>
      <trkpt lat="49.32998" lon="-0.47356">
        <ele>2.040697</ele>
        <time>2022-08-04T14:25:53.000Z</time>
      </trkpt>
      <trkpt lat="49.32996" lon="-0.47352">
        <ele>1.972512</ele>
        <time>2022-08-04T14:25:55.000Z</time>
      </trkpt>
      <trkpt lat="49.32995" lon="-0.47349">
        <ele>1.923917</ele>
        <time>2022-08-04T14:25:57.000Z</time>
      </trkpt>
      <trkpt lat="49.32997" lon="-0.47345">
        <ele>1.852874</ele>
        <time>2022-08-04T14:25:59.000Z</time>
      </trkpt>
      <trkpt lat="49.32999" lon="-0.47344">
        <ele>1.805599</ele>
        <time>2022-08-04T14:26:00.000Z</time>
      </trkpt>
      <trkpt lat="49.33001" lon="-0.47343">
        <ele>1.763071</ele>
        <time>2022-08-04T14:26:01.000Z</time>
      </trkpt>
      <trkpt lat="49.33004" lon="-0.47342">
        <ele>1.70776</ele>
        <time>2022-08-04T14:26:02.000Z</time>
      </trkpt>
      <trkpt lat="49.33006" lon="-0.47341">
        <ele>1.649059</ele>
        <time>2022-08-04T14:26:03.000Z</time>
      </trkpt>
      <trkpt lat="49.33008" lon="-0.4734">
        <ele>1.601189</ele>
        <time>2022-08-04T14:26:04.000Z</time>
      </trkpt>
      <trkpt lat="49.33011" lon="-0.47336">
        <ele>1.52775</ele>
        <time>2022-08-04T14:26:06.000Z</time>
      </trkpt>
      <trkpt lat="49.33013" lon="-0.47335">
        <ele>1.486941</ele>
        <time>2022-08-04T14:26:09.000Z</time>
      </trkpt>
      <trkpt lat="49.33014" lon="-0.47343">
        <ele>1.364611</ele>
        <time>2022-08-04T14:27:11.000Z</time>
      </trkpt>
      <trkpt lat="49.33015" lon="-0.47346">
        <ele>1.351031</ele>
        <time>2022-08-04T14:27:12.000Z</time>
      </trkpt>
      <trkpt lat="49.33017" lon="-0.47349">
        <ele>1.333043</ele>
        <time>2022-08-04T14:27:14.000Z</time>
      </trkpt>
      <trkpt lat="49.33019" lon="-0.47349">
        <ele>1.317608</ele>
        <time>2022-08-04T14:29:33.000Z</time>
      </trkpt>
      <trkpt lat="49.33021" lon="-0.47346">
        <ele>1.300229</ele>
        <time>2022-08-04T14:29:34.000Z</time>
      </trkpt>
      <trkpt lat="49.33022" lon="-0.47344">
        <ele>1.285897</ele>
        <time>2022-08-04T14:29:35.000Z</time>
      </trkpt>
      <trkpt lat="49.33022" lon="-0.4734">
        <ele>1.268841</ele>
        <time>2022-08-04T14:29:37.000Z</time>
      </trkpt>
      <trkpt lat="49.3302" lon="-0.4734">
        <ele>1.251371</ele>
        <time>2022-08-04T14:29:39.000Z</time>
      </trkpt>
      <trkpt lat="49.33017" lon="-0.47343">
        <ele>1.229523</ele>
        <time>2022-08-04T14:29:41.000Z</time>
      </trkpt>
      <trkpt lat="49.33015" lon="-0.47345">
        <ele>1.211562</ele>
        <time>2022-08-04T14:29:43.000Z</time>
      </trkpt>
      <trkpt lat="49.33013" lon="-0.47343">
        <ele>1.197432</ele>
        <time>2022-08-04T14:29:46.000Z</time>
      </trkpt>
      <trkpt lat="49.33016" lon="-0.47339">
        <ele>1.169174</ele>
        <time>2022-08-04T14:29:48.000Z</time>
      </trkpt>
      <trkpt lat="49.3302" lon="-0.47337">
        <ele>1.145642</ele>
        <time>2022-08-04T14:29:49.000Z</time>
      </trkpt>
      <trkpt lat="49.33023" lon="-0.47334">
        <ele>1.119546</ele>
        <time>2022-08-04T14:29:50.000Z</time>
      </trkpt>
      <trkpt lat="49.33027" lon="-0.47331">
        <ele>1.092054</ele>
        <time>2022-08-04T14:29:51.000Z</time>
      </trkpt>
      <trkpt lat="49.3303" lon="-0.47328">
        <ele>1.065361</ele>
        <time>2022-08-04T14:29:52.000Z</time>
      </trkpt>
      <trkpt lat="49.33034" lon="-0.47326">
        <ele>1.039265</ele>
        <time>2022-08-04T14:29:53.000Z</time>
      </trkpt>
      <trkpt lat="49.33037" lon="-0.47323">
        <ele>1.011688</ele>
        <time>2022-08-04T14:29:54.000Z</time>
      </trkpt>
      <trkpt lat="49.33042" lon="-0.47321">
        <ele>0.977942</ele>
        <time>2022-08-04T14:29:55.000Z</time>
      </trkpt>
      <trkpt lat="49.33046" lon="-0.47318">
        <ele>0.949229</ele>
        <time>2022-08-04T14:29:56.000Z</time>
      </trkpt>
      <trkpt lat="49.3305" lon="-0.47315">
        <ele>0.918556</ele>
        <time>2022-08-04T14:29:57.000Z</time>
      </trkpt>
      <trkpt lat="49.33055" lon="-0.47313">
        <ele>0.886131</ele>
        <time>2022-08-04T14:29:58.000Z</time>
      </trkpt>
      <trkpt lat="49.33059" lon="-0.4731">
        <ele>0.855572</ele>
        <time>2022-08-04T14:29:59.000Z</time>
      </trkpt>
      <trkpt lat="49.33063" lon="-0.47308">
        <ele>0.828467</ele>
        <time>2022-08-04T14:30:00.000Z</time>
      </trkpt>
      <trkpt lat="49.33067" lon="-0.47305">
        <ele>0.800103</ele>
        <time>2022-08-04T14:30:01.000Z</time>
      </trkpt>
      <trkpt lat="49.3307" lon="-0.47303">
        <ele>0.772356</ele>
        <time>2022-08-04T14:30:02.000Z</time>
      </trkpt>
      <trkpt lat="49.33074" lon="-0.473">
        <ele>0.744779</ele>
        <time>2022-08-04T14:30:03.000Z</time>
      </trkpt>
      <trkpt lat="49.33078" lon="-0.47298">
        <ele>0.714853</ele>
        <time>2022-08-04T14:30:04.000Z</time>
      </trkpt>
      <trkpt lat="49.33083" lon="-0.47296">
        <ele>0.684926</ele>
        <time>2022-08-04T14:30:05.000Z</time>
      </trkpt>
      <trkpt lat="49.33086" lon="-0.47294">
        <ele>0.657967</ele>
        <time>2022-08-04T14:30:06.000Z</time>
      </trkpt>
      <trkpt lat="49.3309" lon="-0.47292">
        <ele>0.631404</ele>
        <time>2022-08-04T14:30:07.000Z</time>
      </trkpt>
      <trkpt lat="49.33094" lon="-0.4729">
        <ele>0.604196</ele>
        <time>2022-08-04T14:30:08.000Z</time>
      </trkpt>
      <trkpt lat="49.33098" lon="-0.47289">
        <ele>0.577507</ele>
        <time>2022-08-04T14:30:09.000Z</time>
      </trkpt>
      <trkpt lat="49.33101" lon="-0.47287">
        <ele>0.555053</ele>
        <time>2022-08-04T14:30:10.000Z</time>
      </trkpt>
      <trkpt lat="49.33105" lon="-0.47286">
        <ele>0.530986</ele>
        <time>2022-08-04T14:30:11.000Z</time>
      </trkpt>
      <trkpt lat="49.33108" lon="-0.47285">
        <ele>0.506685</ele>
        <time>2022-08-04T14:30:12.000Z</time>
      </trkpt>
      <trkpt lat="49.33112" lon="-0.47285">
        <ele>0.482998</ele>
        <time>2022-08-04T14:30:13.000Z</time>
      </trkpt>
      <trkpt lat="49.33114" lon="-0.47284">
        <ele>0.465944</ele>
        <time>2022-08-04T14:30:14.000Z</time>
      </trkpt>
      <trkpt lat="49.33117" lon="-0.47283">
        <ele>0.450287</ele>
        <time>2022-08-04T14:30:15.000Z</time>
      </trkpt>
      <trkpt lat="49.33118" lon="-0.47283">
        <ele>0.437507</ele>
        <time>2022-08-04T14:30:16.000Z</time>
      </trkpt>
      <trkpt lat="49.33122" lon="-0.47283">
        <ele>0.413982</ele>
        <time>2022-08-04T14:30:18.000Z</time>
      </trkpt>
      <trkpt lat="49.33124" lon="-0.47283">
        <ele>0.398393</ele>
        <time>2022-08-04T14:30:19.000Z</time>
      </trkpt>
      <trkpt lat="49.33127" lon="-0.47282">
        <ele>0.381255</ele>
        <time>2022-08-04T14:30:20.000Z</time>
      </trkpt>
      <trkpt lat="49.3313" lon="-0.47281">
        <ele>0.361554</ele>
        <time>2022-08-04T14:30:21.000Z</time>
      </trkpt>
      <trkpt lat="49.33132" lon="-0.4728">
        <ele>0.343455</ele>
        <time>2022-08-04T14:30:22.000Z</time>
      </trkpt>
      <trkpt lat="49.33135" lon="-0.47279">
        <ele>0.326117</ele>
        <time>2022-08-04T14:30:23.000Z</time>
      </trkpt>
      <trkpt lat="49.33137" lon="-0.47278">
        <ele>0.312773</ele>
        <time>2022-08-04T14:30:24.000Z</time>
      </trkpt>
      <trkpt lat="49.33139" lon="-0.47278">
        <ele>0.296946</ele>
        <time>2022-08-04T14:30:25.000Z</time>
      </trkpt>
      <trkpt lat="49.33141" lon="-0.47277">
        <ele>0.279609</ele>
        <time>2022-08-04T14:30:26.000Z</time>
      </trkpt>
      <trkpt lat="49.33144" lon="-0.47275">
        <ele>0.263306</ele>
        <time>2022-08-04T14:30:27.000Z</time>
      </trkpt>
      <trkpt lat="49.33146" lon="-0.47274">
        <ele>0.247485</ele>
        <time>2022-08-04T14:30:28.000Z</time>
      </trkpt>
      <trkpt lat="49.33148" lon="-0.47273">
        <ele>0.231182</ele>
        <time>2022-08-04T14:30:29.000Z</time>
      </trkpt>
      <trkpt lat="49.33151" lon="-0.47272">
        <ele>0.214201</ele>
        <time>2022-08-04T14:30:30.000Z</time>
      </trkpt>
      <trkpt lat="49.33153" lon="-0.47271">
        <ele>0.195981</ele>
        <time>2022-08-04T14:30:31.000Z</time>
      </trkpt>
      <trkpt lat="49.33156" lon="-0.47269">
        <ele>0.174988</ele>
        <time>2022-08-04T14:30:32.000Z</time>
      </trkpt>
      <trkpt lat="49.3316" lon="-0.47267">
        <ele>0.161052</ele>
        <time>2022-08-04T14:30:33.000Z</time>
      </trkpt>
      <trkpt lat="49.33164" lon="-0.47265">
        <ele>0.168611</ele>
        <time>2022-08-04T14:30:34.000Z</time>
      </trkpt>
      <trkpt lat="49.33168" lon="-0.47263">
        <ele>0.17627</ele>
        <time>2022-08-04T14:30:35.000Z</time>
      </trkpt>
      <trkpt lat="49.33172" lon="-0.47261">
        <ele>0.184361</ele>
        <time>2022-08-04T14:30:36.000Z</time>
      </trkpt>
      <trkpt lat="49.33176" lon="-0.47259">
        <ele>0.193201</ele>
        <time>2022-08-04T14:30:37.000Z</time>
      </trkpt>
      <trkpt lat="49.33181" lon="-0.47257">
        <ele>0.201548</ele>
        <time>2022-08-04T14:30:38.000Z</time>
      </trkpt>
      <trkpt lat="49.33185" lon="-0.47254">
        <ele>0.211036</ele>
        <time>2022-08-04T14:30:39.000Z</time>
      </trkpt>
      <trkpt lat="49.3319" lon="-0.47251">
        <ele>0.220691</ele>
        <time>2022-08-04T14:30:40.000Z</time>
      </trkpt>
      <trkpt lat="49.33196" lon="-0.47249">
        <ele>0.231249</ele>
        <time>2022-08-04T14:30:41.000Z</time>
      </trkpt>
      <trkpt lat="49.332" lon="-0.47246">
        <ele>0.240861</ele>
        <time>2022-08-04T14:30:42.000Z</time>
      </trkpt>
      <trkpt lat="49.33206" lon="-0.47243">
        <ele>0.251707</ele>
        <time>2022-08-04T14:30:43.000Z</time>
      </trkpt>
      <trkpt lat="49.33211" lon="-0.4724">
        <ele>0.262542</ele>
        <time>2022-08-04T14:30:44.000Z</time>
      </trkpt>
      <trkpt lat="49.33217" lon="-0.47237">
        <ele>0.274207</ele>
        <time>2022-08-04T14:30:45.000Z</time>
      </trkpt>
      <trkpt lat="49.33222" lon="-0.47233">
        <ele>0.284052</ele>
        <time>2022-08-04T14:30:46.000Z</time>
      </trkpt>
      <trkpt lat="49.33227" lon="-0.4723">
        <ele>0.294978</ele>
        <time>2022-08-04T14:30:47.000Z</time>
      </trkpt>
      <trkpt lat="49.33233" lon="-0.47227">
        <ele>0.305857</ele>
        <time>2022-08-04T14:30:48.000Z</time>
      </trkpt>
      <trkpt lat="49.33237" lon="-0.47223">
        <ele>0.315804</ele>
        <time>2022-08-04T14:30:49.000Z</time>
      </trkpt>
      <trkpt lat="49.33243" lon="-0.4722">
        <ele>0.326291</ele>
        <time>2022-08-04T14:30:50.000Z</time>
      </trkpt>
      <trkpt lat="49.33247" lon="-0.47217">
        <ele>0.335207</ele>
        <time>2022-08-04T14:30:51.000Z</time>
      </trkpt>
      <trkpt lat="49.33252" lon="-0.47214">
        <ele>0.34425</ele>
        <time>2022-08-04T14:30:52.000Z</time>
      </trkpt>
      <trkpt lat="49.33255" lon="-0.47212">
        <ele>0.35231</ele>
        <time>2022-08-04T14:30:53.000Z</time>
      </trkpt>
      <trkpt lat="49.33258" lon="-0.47209">
        <ele>0.35766</ele>
        <time>2022-08-04T14:30:54.000Z</time>
      </trkpt>
      <trkpt lat="49.3326" lon="-0.47206">
        <ele>0.362933</ele>
        <time>2022-08-04T14:30:55.000Z</time>
      </trkpt>
      <trkpt lat="49.33262" lon="-0.47203">
        <ele>0.367919</ele>
        <time>2022-08-04T14:30:56.000Z</time>
      </trkpt>
      <trkpt lat="49.33265" lon="-0.47201">
        <ele>0.374044</ele>
        <time>2022-08-04T14:30:57.000Z</time>
      </trkpt>
      <trkpt lat="49.33268" lon="-0.47198">
        <ele>0.380211</ele>
        <time>2022-08-04T14:30:58.000Z</time>
      </trkpt>
      <trkpt lat="49.33272" lon="-0.47196">
        <ele>0.388558</ele>
        <time>2022-08-04T14:30:59.000Z</time>
      </trkpt>
      <trkpt lat="49.33276" lon="-0.47193">
        <ele>0.396909</ele>
        <time>2022-08-04T14:31:00.000Z</time>
      </trkpt>
      <trkpt lat="49.3328" lon="-0.4719">
        <ele>0.406093</ele>
        <time>2022-08-04T14:31:01.000Z</time>
      </trkpt>
      <trkpt lat="49.33285" lon="-0.47188">
        <ele>0.415093</ele>
        <time>2022-08-04T14:31:02.000Z</time>
      </trkpt>
      <trkpt lat="49.3329" lon="-0.47185">
        <ele>0.424749</ele>
        <time>2022-08-04T14:31:03.000Z</time>
      </trkpt>
      <trkpt lat="49.33294" lon="-0.47182">
        <ele>0.434496</ele>
        <time>2022-08-04T14:31:04.000Z</time>
      </trkpt>
      <trkpt lat="49.33299" lon="-0.47178">
        <ele>0.444392</ele>
        <time>2022-08-04T14:31:05.000Z</time>
      </trkpt>
      <trkpt lat="49.33304" lon="-0.47175">
        <ele>0.454849</ele>
        <time>2022-08-04T14:31:06.000Z</time>
      </trkpt>
      <trkpt lat="49.33309" lon="-0.47172">
        <ele>0.465209</ele>
        <time>2022-08-04T14:31:07.000Z</time>
      </trkpt>
      <trkpt lat="49.33315" lon="-0.47168">
        <ele>0.475837</ele>
        <time>2022-08-04T14:31:08.000Z</time>
      </trkpt>
      <trkpt lat="49.3332" lon="-0.47165">
        <ele>0.486672</ele>
        <time>2022-08-04T14:31:09.000Z</time>
      </trkpt>
      <trkpt lat="49.33325" lon="-0.47162">
        <ele>0.494973</ele>
        <time>2022-08-04T14:31:10.000Z</time>
      </trkpt>
      <trkpt lat="49.3333" lon="-0.47159">
        <ele>0.495454</ele>
        <time>2022-08-04T14:31:11.000Z</time>
      </trkpt>
      <trkpt lat="49.33335" lon="-0.47156">
        <ele>0.495909</ele>
        <time>2022-08-04T14:31:12.000Z</time>
      </trkpt>
      <trkpt lat="49.3334" lon="-0.47152">
        <ele>0.4964</ele>
        <time>2022-08-04T14:31:13.000Z</time>
      </trkpt>
      <trkpt lat="49.33345" lon="-0.47149">
        <ele>0.49686</ele>
        <time>2022-08-04T14:31:14.000Z</time>
      </trkpt>
      <trkpt lat="49.3335" lon="-0.47146">
        <ele>0.497352</ele>
        <time>2022-08-04T14:31:15.000Z</time>
      </trkpt>
      <trkpt lat="49.33355" lon="-0.47143">
        <ele>0.497809</ele>
        <time>2022-08-04T14:31:16.000Z</time>
      </trkpt>
      <trkpt lat="49.3336" lon="-0.4714">
        <ele>0.498283</ele>
        <time>2022-08-04T14:31:17.000Z</time>
      </trkpt>
      <trkpt lat="49.33365" lon="-0.47137">
        <ele>0.498734</ele>
        <time>2022-08-04T14:31:18.000Z</time>
      </trkpt>
      <trkpt lat="49.3337" lon="-0.47134">
        <ele>0.499236</ele>
        <time>2022-08-04T14:31:19.000Z</time>
      </trkpt>
      <trkpt lat="49.33375" lon="-0.47132">
        <ele>0.499687</ele>
        <time>2022-08-04T14:31:20.000Z</time>
      </trkpt>
      <trkpt lat="49.3338" lon="-0.47128">
        <ele>0.500149</ele>
        <time>2022-08-04T14:31:21.000Z</time>
      </trkpt>
      <trkpt lat="49.33384" lon="-0.47125">
        <ele>0.500604</ele>
        <time>2022-08-04T14:31:22.000Z</time>
      </trkpt>
      <trkpt lat="49.33389" lon="-0.47122">
        <ele>0.501084</ele>
        <time>2022-08-04T14:31:23.000Z</time>
      </trkpt>
      <trkpt lat="49.33394" lon="-0.47119">
        <ele>0.501524</ele>
        <time>2022-08-04T14:31:24.000Z</time>
      </trkpt>
      <trkpt lat="49.33398" lon="-0.47116">
        <ele>0.501957</ele>
        <time>2022-08-04T14:31:25.000Z</time>
      </trkpt>
      <trkpt lat="49.33403" lon="-0.47113">
        <ele>0.502388</ele>
        <time>2022-08-04T14:31:26.000Z</time>
      </trkpt>
      <trkpt lat="49.33408" lon="-0.4711">
        <ele>0.502837</ele>
        <time>2022-08-04T14:31:27.000Z</time>
      </trkpt>
      <trkpt lat="49.33412" lon="-0.47107">
        <ele>0.503264</ele>
        <time>2022-08-04T14:31:28.000Z</time>
      </trkpt>
      <trkpt lat="49.33417" lon="-0.47104">
        <ele>0.503686</ele>
        <time>2022-08-04T14:31:29.000Z</time>
      </trkpt>
      <trkpt lat="49.33421" lon="-0.47102">
        <ele>0.504135</ele>
        <time>2022-08-04T14:31:30.000Z</time>
      </trkpt>
      <trkpt lat="49.33426" lon="-0.47099">
        <ele>0.504535</ele>
        <time>2022-08-04T14:31:31.000Z</time>
      </trkpt>
      <trkpt lat="49.3343" lon="-0.47096">
        <ele>0.504956</ele>
        <time>2022-08-04T14:31:32.000Z</time>
      </trkpt>
      <trkpt lat="49.33434" lon="-0.47094">
        <ele>0.505345</ele>
        <time>2022-08-04T14:31:33.000Z</time>
      </trkpt>
      <trkpt lat="49.33438" lon="-0.47091">
        <ele>0.505714</ele>
        <time>2022-08-04T14:31:34.000Z</time>
      </trkpt>
      <trkpt lat="49.33443" lon="-0.47089">
        <ele>0.506126</ele>
        <time>2022-08-04T14:31:35.000Z</time>
      </trkpt>
      <trkpt lat="49.33446" lon="-0.47087">
        <ele>0.506489</ele>
        <time>2022-08-04T14:31:36.000Z</time>
      </trkpt>
      <trkpt lat="49.3345" lon="-0.47085">
        <ele>0.506819</ele>
        <time>2022-08-04T14:31:37.000Z</time>
      </trkpt>
      <trkpt lat="49.33453" lon="-0.47084">
        <ele>0.507054</ele>
        <time>2022-08-04T14:31:38.000Z</time>
      </trkpt>
      <trkpt lat="49.33455" lon="-0.47084">
        <ele>0.507274</ele>
        <time>2022-08-04T14:31:39.000Z</time>
      </trkpt>
      <trkpt lat="49.33457" lon="-0.47084">
        <ele>0.50745</ele>
        <time>2022-08-04T14:31:40.000Z</time>
      </trkpt>
      <trkpt lat="49.33461" lon="-0.47083">
        <ele>0.507842</ele>
        <time>2022-08-04T14:31:42.000Z</time>
      </trkpt>
      <trkpt lat="49.33464" lon="-0.47081">
        <ele>0.508071</ele>
        <time>2022-08-04T14:31:43.000Z</time>
      </trkpt>
      <trkpt lat="49.33466" lon="-0.47079">
        <ele>0.508309</ele>
        <time>2022-08-04T14:31:44.000Z</time>
      </trkpt>
      <trkpt lat="49.33469" lon="-0.47077">
        <ele>0.508588</ele>
        <time>2022-08-04T14:31:45.000Z</time>
      </trkpt>
      <trkpt lat="49.33471" lon="-0.47075">
        <ele>0.508787</ele>
        <time>2022-08-04T14:31:46.000Z</time>
      </trkpt>
      <trkpt lat="49.33473" lon="-0.47074">
        <ele>0.508983</ele>
        <time>2022-08-04T14:31:47.000Z</time>
      </trkpt>
      <trkpt lat="49.33475" lon="-0.47073">
        <ele>0.50919</ele>
        <time>2022-08-04T14:31:48.000Z</time>
      </trkpt>
      <trkpt lat="49.33477" lon="-0.47071">
        <ele>0.50937</ele>
        <time>2022-08-04T14:31:49.000Z</time>
      </trkpt>
      <trkpt lat="49.33479" lon="-0.4707">
        <ele>0.509553</ele>
        <time>2022-08-04T14:31:50.000Z</time>
      </trkpt>
      <trkpt lat="49.33481" lon="-0.47068">
        <ele>0.509794</ele>
        <time>2022-08-04T14:31:52.000Z</time>
      </trkpt>
      <trkpt lat="49.33483" lon="-0.47066">
        <ele>0.509959</ele>
        <time>2022-08-04T14:31:54.000Z</time>
      </trkpt>
      <trkpt lat="49.33493" lon="-0.47062">
        <ele>0.509479</ele>
        <time>2022-08-04T14:32:07.000Z</time>
      </trkpt>
      <trkpt lat="49.33497" lon="-0.4706">
        <ele>0.507236</ele>
        <time>2022-08-04T14:32:08.000Z</time>
      </trkpt>
      <trkpt lat="49.33501" lon="-0.47059">
        <ele>0.505028</ele>
        <time>2022-08-04T14:32:09.000Z</time>
      </trkpt>
      <trkpt lat="49.33504" lon="-0.47057">
        <ele>0.503191</ele>
        <time>2022-08-04T14:32:10.000Z</time>
      </trkpt>
      <trkpt lat="49.33508" lon="-0.47056">
        <ele>0.501033</ele>
        <time>2022-08-04T14:32:11.000Z</time>
      </trkpt>
      <trkpt lat="49.33512" lon="-0.47055">
        <ele>0.498815</ele>
        <time>2022-08-04T14:32:12.000Z</time>
      </trkpt>
      <trkpt lat="49.33515" lon="-0.47054">
        <ele>0.496787</ele>
        <time>2022-08-04T14:32:13.000Z</time>
      </trkpt>
      <trkpt lat="49.33518" lon="-0.47052">
        <ele>0.495014</ele>
        <time>2022-08-04T14:32:14.000Z</time>
      </trkpt>
      <trkpt lat="49.33522" lon="-0.4705">
        <ele>0.492955</ele>
        <time>2022-08-04T14:32:15.000Z</time>
      </trkpt>
      <trkpt lat="49.33525" lon="-0.47048">
        <ele>0.491027</ele>
        <time>2022-08-04T14:32:16.000Z</time>
      </trkpt>
      <trkpt lat="49.33528" lon="-0.47046">
        <ele>0.489113</ele>
        <time>2022-08-04T14:32:17.000Z</time>
      </trkpt>
      <trkpt lat="49.33532" lon="-0.47044">
        <ele>0.486872</ele>
        <time>2022-08-04T14:32:18.000Z</time>
      </trkpt>
      <trkpt lat="49.33535" lon="-0.47042">
        <ele>0.484697</ele>
        <time>2022-08-04T14:32:19.000Z</time>
      </trkpt>
      <trkpt lat="49.33539" lon="-0.47039">
        <ele>0.482573</ele>
        <time>2022-08-04T14:32:20.000Z</time>
      </trkpt>
      <trkpt lat="49.33543" lon="-0.47037">
        <ele>0.480266</ele>
        <time>2022-08-04T14:32:21.000Z</time>
      </trkpt>
      <trkpt lat="49.33546" lon="-0.47034">
        <ele>0.478279</ele>
        <time>2022-08-04T14:32:22.000Z</time>
      </trkpt>
      <trkpt lat="49.33549" lon="-0.47032">
        <ele>0.476183</ele>
        <time>2022-08-04T14:32:23.000Z</time>
      </trkpt>
      <trkpt lat="49.33554" lon="-0.4703">
        <ele>0.473707</ele>
        <time>2022-08-04T14:32:24.000Z</time>
      </trkpt>
      <trkpt lat="49.33557" lon="-0.47028">
        <ele>0.471429</ele>
        <time>2022-08-04T14:32:25.000Z</time>
      </trkpt>
      <trkpt lat="49.33561" lon="-0.47025">
        <ele>0.469071</ele>
        <time>2022-08-04T14:32:26.000Z</time>
      </trkpt>
      <trkpt lat="49.33565" lon="-0.47023">
        <ele>0.46661</ele>
        <time>2022-08-04T14:32:27.000Z</time>
      </trkpt>
      <trkpt lat="49.3357" lon="-0.4702">
        <ele>0.46411</ele>
        <time>2022-08-04T14:32:28.000Z</time>
      </trkpt>
      <trkpt lat="49.33573" lon="-0.47018">
        <ele>0.461789</ele>
        <time>2022-08-04T14:32:29.000Z</time>
      </trkpt>
      <trkpt lat="49.33578" lon="-0.47015">
        <ele>0.459276</ele>
        <time>2022-08-04T14:32:30.000Z</time>
      </trkpt>
      <trkpt lat="49.33581" lon="-0.47013">
        <ele>0.45694</ele>
        <time>2022-08-04T14:32:31.000Z</time>
      </trkpt>
      <trkpt lat="49.33586" lon="-0.4701">
        <ele>0.454385</ele>
        <time>2022-08-04T14:32:32.000Z</time>
      </trkpt>
      <trkpt lat="49.3359" lon="-0.47007">
        <ele>0.451663</ele>
        <time>2022-08-04T14:32:33.000Z</time>
      </trkpt>
      <trkpt lat="49.33594" lon="-0.47004">
        <ele>0.449509</ele>
        <time>2022-08-04T14:32:34.000Z</time>
      </trkpt>
      <trkpt lat="49.33598" lon="-0.47002">
        <ele>0.446704</ele>
        <time>2022-08-04T14:32:35.000Z</time>
      </trkpt>
      <trkpt lat="49.33603" lon="-0.46999">
        <ele>0.444164</ele>
        <time>2022-08-04T14:32:36.000Z</time>
      </trkpt>
      <trkpt lat="49.33607" lon="-0.46997">
        <ele>0.44166</ele>
        <time>2022-08-04T14:32:37.000Z</time>
      </trkpt>
      <trkpt lat="49.33611" lon="-0.46994">
        <ele>0.439273</ele>
        <time>2022-08-04T14:32:38.000Z</time>
      </trkpt>
      <trkpt lat="49.33615" lon="-0.46991">
        <ele>0.436812</ele>
        <time>2022-08-04T14:32:39.000Z</time>
      </trkpt>
      <trkpt lat="49.33619" lon="-0.46989">
        <ele>0.434299</ele>
        <time>2022-08-04T14:32:40.000Z</time>
      </trkpt>
      <trkpt lat="49.33623" lon="-0.46986">
        <ele>0.431978</ele>
        <time>2022-08-04T14:32:41.000Z</time>
      </trkpt>
      <trkpt lat="49.33627" lon="-0.46984">
        <ele>0.429438</ele>
        <time>2022-08-04T14:32:42.000Z</time>
      </trkpt>
      <trkpt lat="49.33631" lon="-0.46981">
        <ele>0.426977</ele>
        <time>2022-08-04T14:32:43.000Z</time>
      </trkpt>
      <trkpt lat="49.33635" lon="-0.46979">
        <ele>0.424489</ele>
        <time>2022-08-04T14:32:44.000Z</time>
      </trkpt>
      <trkpt lat="49.33639" lon="-0.46976">
        <ele>0.422153</ele>
        <time>2022-08-04T14:32:45.000Z</time>
      </trkpt>
      <trkpt lat="49.33643" lon="-0.46973">
        <ele>0.419613</ele>
        <time>2022-08-04T14:32:46.000Z</time>
      </trkpt>
      <trkpt lat="49.33647" lon="-0.46971">
        <ele>0.417292</ele>
        <time>2022-08-04T14:32:47.000Z</time>
      </trkpt>
      <trkpt lat="49.33651" lon="-0.46968">
        <ele>0.414906</ele>
        <time>2022-08-04T14:32:48.000Z</time>
      </trkpt>
      <trkpt lat="49.33655" lon="-0.46965">
        <ele>0.41257</ele>
        <time>2022-08-04T14:32:49.000Z</time>
      </trkpt>
      <trkpt lat="49.33659" lon="-0.46963">
        <ele>0.423128</ele>
        <time>2022-08-04T14:32:50.000Z</time>
      </trkpt>
      <trkpt lat="49.33663" lon="-0.4696">
        <ele>0.519419</ele>
        <time>2022-08-04T14:32:51.000Z</time>
      </trkpt>
      <trkpt lat="49.33666" lon="-0.46958">
        <ele>0.608093</ele>
        <time>2022-08-04T14:32:52.000Z</time>
      </trkpt>
      <trkpt lat="49.3367" lon="-0.46956">
        <ele>0.698912</ele>
        <time>2022-08-04T14:32:53.000Z</time>
      </trkpt>
      <trkpt lat="49.33673" lon="-0.46953">
        <ele>0.781863</ele>
        <time>2022-08-04T14:32:54.000Z</time>
      </trkpt>
      <trkpt lat="49.33676" lon="-0.46951">
        <ele>0.86416</ele>
        <time>2022-08-04T14:32:55.000Z</time>
      </trkpt>
      <trkpt lat="49.3368" lon="-0.46949">
        <ele>0.952247</ele>
        <time>2022-08-04T14:32:56.000Z</time>
      </trkpt>
      <trkpt lat="49.33683" lon="-0.46947">
        <ele>1.026929</ele>
        <time>2022-08-04T14:32:57.000Z</time>
      </trkpt>
      <trkpt lat="49.33685" lon="-0.46944">
        <ele>1.102375</ele>
        <time>2022-08-04T14:32:58.000Z</time>
      </trkpt>
      <trkpt lat="49.33688" lon="-0.46942">
        <ele>1.177717</ele>
        <time>2022-08-04T14:32:59.000Z</time>
      </trkpt>
      <trkpt lat="49.33691" lon="-0.4694">
        <ele>1.245452</ele>
        <time>2022-08-04T14:33:00.000Z</time>
      </trkpt>
      <trkpt lat="49.33693" lon="-0.46939">
        <ele>1.307968</ele>
        <time>2022-08-04T14:33:01.000Z</time>
      </trkpt>
      <trkpt lat="49.33697" lon="-0.46936">
        <ele>1.390265</ele>
        <time>2022-08-04T14:33:02.000Z</time>
      </trkpt>
      <trkpt lat="49.337" lon="-0.46934">
        <ele>1.470736</ele>
        <time>2022-08-04T14:33:03.000Z</time>
      </trkpt>
      <trkpt lat="49.33703" lon="-0.46932">
        <ele>1.546078</ele>
        <time>2022-08-04T14:33:04.000Z</time>
      </trkpt>
      <trkpt lat="49.33705" lon="-0.4693">
        <ele>1.615971</ele>
        <time>2022-08-04T14:33:05.000Z</time>
      </trkpt>
      <trkpt lat="49.33708" lon="-0.46925">
        <ele>1.708045</ele>
        <time>2022-08-04T14:33:06.000Z</time>
      </trkpt>
      <trkpt lat="49.3371" lon="-0.4692">
        <ele>1.793234</ele>
        <time>2022-08-04T14:33:07.000Z</time>
      </trkpt>
      <trkpt lat="49.33711" lon="-0.46917">
        <ele>1.861895</ele>
        <time>2022-08-04T14:33:08.000Z</time>
      </trkpt>
      <trkpt lat="49.33712" lon="-0.46912">
        <ele>1.940616</ele>
        <time>2022-08-04T14:33:09.000Z</time>
      </trkpt>
      <trkpt lat="49.33714" lon="-0.46906">
        <ele>2.026558</ele>
        <time>2022-08-04T14:33:10.000Z</time>
      </trkpt>
      <trkpt lat="49.33715" lon="-0.46901">
        <ele>2.113214</ele>
        <time>2022-08-04T14:33:11.000Z</time>
      </trkpt>
      <trkpt lat="49.33716" lon="-0.46895">
        <ele>2.201236</ele>
        <time>2022-08-04T14:33:12.000Z</time>
      </trkpt>
      <trkpt lat="49.33717" lon="-0.4689">
        <ele>2.292643</ele>
        <time>2022-08-04T14:33:13.000Z</time>
      </trkpt>
      <trkpt lat="49.33718" lon="-0.46884">
        <ele>2.385146</ele>
        <time>2022-08-04T14:33:14.000Z</time>
      </trkpt>
      <trkpt lat="49.33719" lon="-0.46877">
        <ele>2.495302</ele>
        <time>2022-08-04T14:33:15.000Z</time>
      </trkpt>
      <trkpt lat="49.3372" lon="-0.46871">
        <ele>2.588384</ele>
        <time>2022-08-04T14:33:16.000Z</time>
      </trkpt>
      <trkpt lat="49.3372" lon="-0.46865">
        <ele>2.679707</ele>
        <time>2022-08-04T14:33:17.000Z</time>
      </trkpt>
      <trkpt lat="49.33721" lon="-0.4686">
        <ele>2.75763</ele>
        <time>2022-08-04T14:33:18.000Z</time>
      </trkpt>
      <trkpt lat="49.33721" lon="-0.46853">
        <ele>2.863861</ele>
        <time>2022-08-04T14:33:19.000Z</time>
      </trkpt>
      <trkpt lat="49.33721" lon="-0.46847">
        <ele>2.953378</ele>
        <time>2022-08-04T14:33:20.000Z</time>
      </trkpt>
      <trkpt lat="49.3372" lon="-0.46842">
        <ele>3.038007</ele>
        <time>2022-08-04T14:33:21.000Z</time>
      </trkpt>
      <trkpt lat="49.33719" lon="-0.46836">
        <ele>3.125631</ele>
        <time>2022-08-04T14:33:22.000Z</time>
      </trkpt>
      <trkpt lat="49.33718" lon="-0.46831">
        <ele>3.199222</ele>
        <time>2022-08-04T14:33:23.000Z</time>
      </trkpt>
      <trkpt lat="49.33717" lon="-0.46825">
        <ele>3.303534</ele>
        <time>2022-08-04T14:33:24.000Z</time>
      </trkpt>
      <trkpt lat="49.33717" lon="-0.46819">
        <ele>3.392539</ele>
        <time>2022-08-04T14:33:25.000Z</time>
      </trkpt>
      <trkpt lat="49.33716" lon="-0.46813">
        <ele>3.479074</ele>
        <time>2022-08-04T14:33:26.000Z</time>
      </trkpt>
      <trkpt lat="49.33715" lon="-0.46808">
        <ele>3.567096</ele>
        <time>2022-08-04T14:33:27.000Z</time>
      </trkpt>
      <trkpt lat="49.33713" lon="-0.46802">
        <ele>3.65446</ele>
        <time>2022-08-04T14:33:28.000Z</time>
      </trkpt>
      <trkpt lat="49.33712" lon="-0.46797">
        <ele>3.741115</ele>
        <time>2022-08-04T14:33:29.000Z</time>
      </trkpt>
      <trkpt lat="49.33712" lon="-0.46791">
        <ele>3.830238</ele>
        <time>2022-08-04T14:33:30.000Z</time>
      </trkpt>
      <trkpt lat="49.33711" lon="-0.46785">
        <ele>3.921287</ele>
        <time>2022-08-04T14:33:31.000Z</time>
      </trkpt>
      <trkpt lat="49.3371" lon="-0.4678">
        <ele>3.995976</ele>
        <time>2022-08-04T14:33:32.000Z</time>
      </trkpt>
      <trkpt lat="49.33709" lon="-0.46773">
        <ele>4.106213</ele>
        <time>2022-08-04T14:33:33.000Z</time>
      </trkpt>
      <trkpt lat="49.33709" lon="-0.46768">
        <ele>4.192716</ele>
        <time>2022-08-04T14:33:34.000Z</time>
      </trkpt>
      <trkpt lat="49.33709" lon="-0.46762">
        <ele>4.279218</ele>
        <time>2022-08-04T14:33:35.000Z</time>
      </trkpt>
      <trkpt lat="49.3371" lon="-0.46756">
        <ele>4.368735</ele>
        <time>2022-08-04T14:33:36.000Z</time>
      </trkpt>
      <trkpt lat="49.3371" lon="-0.46751">
        <ele>4.452495</ele>
        <time>2022-08-04T14:33:37.000Z</time>
      </trkpt>
      <trkpt lat="49.33712" lon="-0.46745">
        <ele>4.545576</ele>
        <time>2022-08-04T14:33:38.000Z</time>
      </trkpt>
      <trkpt lat="49.33713" lon="-0.46739">
        <ele>4.590459</ele>
        <time>2022-08-04T14:33:39.000Z</time>
      </trkpt>
      <trkpt lat="49.33715" lon="-0.46734">
        <ele>4.571457</ele>
        <time>2022-08-04T14:33:40.000Z</time>
      </trkpt>
      <trkpt lat="49.33717" lon="-0.46728">
        <ele>4.54923</ele>
        <time>2022-08-04T14:33:41.000Z</time>
      </trkpt>
      <trkpt lat="49.33719" lon="-0.46723">
        <ele>4.530238</ele>
        <time>2022-08-04T14:33:42.000Z</time>
      </trkpt>
      <trkpt lat="49.33721" lon="-0.46718">
        <ele>4.507709</ele>
        <time>2022-08-04T14:33:43.000Z</time>
      </trkpt>
      <trkpt lat="49.33724" lon="-0.46713">
        <ele>4.486624</ele>
        <time>2022-08-04T14:33:44.000Z</time>
      </trkpt>
      <trkpt lat="49.33725" lon="-0.46707">
        <ele>4.466326</ele>
        <time>2022-08-04T14:33:45.000Z</time>
      </trkpt>
      <trkpt lat="49.33727" lon="-0.46702">
        <ele>4.445193</ele>
        <time>2022-08-04T14:33:46.000Z</time>
      </trkpt>
      <trkpt lat="49.33729" lon="-0.46696">
        <ele>4.42371</ele>
        <time>2022-08-04T14:33:47.000Z</time>
      </trkpt>
      <trkpt lat="49.3373" lon="-0.46691">
        <ele>4.404998</ele>
        <time>2022-08-04T14:33:48.000Z</time>
      </trkpt>
      <trkpt lat="49.3373" lon="-0.46684">
        <ele>4.384138</ele>
        <time>2022-08-04T14:33:49.000Z</time>
      </trkpt>
      <trkpt lat="49.3373" lon="-0.46679">
        <ele>4.367361</ele>
        <time>2022-08-04T14:33:50.000Z</time>
      </trkpt>
      <trkpt lat="49.3373" lon="-0.46672">
        <ele>4.342672</ele>
        <time>2022-08-04T14:33:51.000Z</time>
      </trkpt>
      <trkpt lat="49.33729" lon="-0.46666">
        <ele>4.321892</ele>
        <time>2022-08-04T14:33:52.000Z</time>
      </trkpt>
      <trkpt lat="49.33728" lon="-0.4666">
        <ele>4.301887</ele>
        <time>2022-08-04T14:33:53.000Z</time>
      </trkpt>
      <trkpt lat="49.33727" lon="-0.46656">
        <ele>4.28571</ele>
        <time>2022-08-04T14:33:54.000Z</time>
      </trkpt>
      <trkpt lat="49.33726" lon="-0.46649">
        <ele>4.261769</ele>
        <time>2022-08-04T14:33:55.000Z</time>
      </trkpt>
      <trkpt lat="49.33725" lon="-0.46643">
        <ele>4.240989</ele>
        <time>2022-08-04T14:33:56.000Z</time>
      </trkpt>
      <trkpt lat="49.33724" lon="-0.46637">
        <ele>4.22131</ele>
        <time>2022-08-04T14:33:57.000Z</time>
      </trkpt>
      <trkpt lat="49.33723" lon="-0.46631">
        <ele>4.200204</ele>
        <time>2022-08-04T14:33:58.000Z</time>
      </trkpt>
      <trkpt lat="49.33722" lon="-0.46625">
        <ele>4.178988</ele>
        <time>2022-08-04T14:33:59.000Z</time>
      </trkpt>
      <trkpt lat="49.33721" lon="-0.46618">
        <ele>4.156494</ele>
        <time>2022-08-04T14:34:00.000Z</time>
      </trkpt>
      <trkpt lat="49.3372" lon="-0.46612">
        <ele>4.134467</ele>
        <time>2022-08-04T14:34:01.000Z</time>
      </trkpt>
      <trkpt lat="49.33719" lon="-0.46605">
        <ele>4.111652</ele>
        <time>2022-08-04T14:34:02.000Z</time>
      </trkpt>
      <trkpt lat="49.33718" lon="-0.466">
        <ele>4.094263</ele>
        <time>2022-08-04T14:34:03.000Z</time>
      </trkpt>
      <trkpt lat="49.33717" lon="-0.46592">
        <ele>4.06726</ele>
        <time>2022-08-04T14:34:04.000Z</time>
      </trkpt>
      <trkpt lat="49.33716" lon="-0.46586">
        <ele>4.044125</ele>
        <time>2022-08-04T14:34:05.000Z</time>
      </trkpt>
      <trkpt lat="49.33715" lon="-0.4658">
        <ele>4.023066</ele>
        <time>2022-08-04T14:34:06.000Z</time>
      </trkpt>
      <trkpt lat="49.33714" lon="-0.46575">
        <ele>4.007868</ele>
        <time>2022-08-04T14:34:07.000Z</time>
      </trkpt>
      <trkpt lat="49.33714" lon="-0.46571">
        <ele>3.994358</ele>
        <time>2022-08-04T14:34:08.000Z</time>
      </trkpt>
      <trkpt lat="49.33714" lon="-0.46568">
        <ele>3.983507</ele>
        <time>2022-08-04T14:34:09.000Z</time>
      </trkpt>
      <trkpt lat="49.33716" lon="-0.46566">
        <ele>3.971986</ele>
        <time>2022-08-04T14:34:10.000Z</time>
      </trkpt>
      <trkpt lat="49.33717" lon="-0.46562">
        <ele>3.956988</ele>
        <time>2022-08-04T14:34:12.000Z</time>
      </trkpt>
      <trkpt lat="49.33717" lon="-0.46558">
        <ele>3.94452</ele>
        <time>2022-08-04T14:34:14.000Z</time>
      </trkpt>
      <trkpt lat="49.33713" lon="-0.46551">
        <ele>3.911796</ele>
        <time>2022-08-04T14:34:56.000Z</time>
      </trkpt>
      <trkpt lat="49.33711" lon="-0.46547">
        <ele>3.895725</ele>
        <time>2022-08-04T14:34:57.000Z</time>
      </trkpt>
      <trkpt lat="49.33709" lon="-0.46542">
        <ele>3.877661</ele>
        <time>2022-08-04T14:34:58.000Z</time>
      </trkpt>
      <trkpt lat="49.33708" lon="-0.46537">
        <ele>3.859271</ele>
        <time>2022-08-04T14:34:59.000Z</time>
      </trkpt>
      <trkpt lat="49.33706" lon="-0.46532">
        <ele>3.83985</ele>
        <time>2022-08-04T14:35:00.000Z</time>
      </trkpt>
      <trkpt lat="49.33704" lon="-0.46528">
        <ele>3.824101</ele>
        <time>2022-08-04T14:35:01.000Z</time>
      </trkpt>
      <trkpt lat="49.33702" lon="-0.46522">
        <ele>3.80216</ele>
        <time>2022-08-04T14:35:02.000Z</time>
      </trkpt>
      <trkpt lat="49.337" lon="-0.46517">
        <ele>3.782156</ele>
        <time>2022-08-04T14:35:03.000Z</time>
      </trkpt>
      <trkpt lat="49.33699" lon="-0.46512">
        <ele>3.764363</ele>
        <time>2022-08-04T14:35:04.000Z</time>
      </trkpt>
      <trkpt lat="49.33697" lon="-0.46507">
        <ele>3.7463</ele>
        <time>2022-08-04T14:35:05.000Z</time>
      </trkpt>
      <trkpt lat="49.33696" lon="-0.46504">
        <ele>3.731899</ele>
        <time>2022-08-04T14:35:06.000Z</time>
      </trkpt>
      <trkpt lat="49.33694" lon="-0.46498">
        <ele>3.711074</ele>
        <time>2022-08-04T14:35:07.000Z</time>
      </trkpt>
      <trkpt lat="49.33693" lon="-0.46493">
        <ele>3.6928</ele>
        <time>2022-08-04T14:35:08.000Z</time>
      </trkpt>
      <trkpt lat="49.33691" lon="-0.46489">
        <ele>3.67646</ele>
        <time>2022-08-04T14:35:09.000Z</time>
      </trkpt>
      <trkpt lat="49.3369" lon="-0.46487">
        <ele>3.66316</ele>
        <time>2022-08-04T14:35:10.000Z</time>
      </trkpt>
      <trkpt lat="49.33687" lon="-0.46484">
        <ele>3.640705</ele>
        <time>2022-08-04T14:35:11.000Z</time>
      </trkpt>
      <trkpt lat="49.33685" lon="-0.46483">
        <ele>3.619965</ele>
        <time>2022-08-04T14:35:12.000Z</time>
      </trkpt>
      <trkpt lat="49.33683" lon="-0.46484">
        <ele>3.602076</ele>
        <time>2022-08-04T14:35:13.000Z</time>
      </trkpt>
      <trkpt lat="49.3368" lon="-0.46486">
        <ele>3.582819</ele>
        <time>2022-08-04T14:35:14.000Z</time>
      </trkpt>
      <trkpt lat="49.33678" lon="-0.46487">
        <ele>3.567038</ele>
        <time>2022-08-04T14:35:15.000Z</time>
      </trkpt>
      <trkpt lat="49.33676" lon="-0.46487">
        <ele>3.546584</ele>
        <time>2022-08-04T14:35:16.000Z</time>
      </trkpt>
      <trkpt lat="49.33674" lon="-0.46486">
        <ele>3.530442</ele>
        <time>2022-08-04T14:35:17.000Z</time>
      </trkpt>
      <trkpt lat="49.33672" lon="-0.46483">
        <ele>3.510594</ele>
        <time>2022-08-04T14:35:18.000Z</time>
      </trkpt>
      <trkpt lat="49.33672" lon="-0.4648">
        <ele>3.496067</ele>
        <time>2022-08-04T14:35:19.000Z</time>
      </trkpt>
      <trkpt lat="49.33672" lon="-0.46477">
        <ele>3.479515</ele>
        <time>2022-08-04T14:35:20.000Z</time>
      </trkpt>
      <trkpt lat="49.33674" lon="-0.46474">
        <ele>3.459171</ele>
        <time>2022-08-04T14:35:21.000Z</time>
      </trkpt>
      <trkpt lat="49.33676" lon="-0.46473">
        <ele>3.442478</ele>
        <time>2022-08-04T14:35:22.000Z</time>
      </trkpt>
      <trkpt lat="49.33679" lon="-0.46472">
        <ele>3.42273</ele>
        <time>2022-08-04T14:35:23.000Z</time>
      </trkpt>
      <trkpt lat="49.33683" lon="-0.46474">
        <ele>3.388962</ele>
        <time>2022-08-04T14:35:25.000Z</time>
      </trkpt>
      <trkpt lat="49.33685" lon="-0.46476">
        <ele>3.371418</ele>
        <time>2022-08-04T14:35:26.000Z</time>
      </trkpt>
      <trkpt lat="49.33686" lon="-0.46478">
        <ele>3.355831</ele>
        <time>2022-08-04T14:35:27.000Z</time>
      </trkpt>
      <trkpt lat="49.33685" lon="-0.46484">
        <ele>3.323945</ele>
        <time>2022-08-04T14:35:29.000Z</time>
      </trkpt>
      <trkpt lat="49.33683" lon="-0.46485">
        <ele>3.306917</ele>
        <time>2022-08-04T14:35:30.000Z</time>
      </trkpt>
      <trkpt lat="49.3368" lon="-0.46486">
        <ele>3.28411</ele>
        <time>2022-08-04T14:35:31.000Z</time>
      </trkpt>
      <trkpt lat="49.33677" lon="-0.46485">
        <ele>3.263624</ele>
        <time>2022-08-04T14:35:32.000Z</time>
      </trkpt>
      <trkpt lat="49.33673" lon="-0.46485">
        <ele>3.229054</ele>
        <time>2022-08-04T14:35:33.000Z</time>
      </trkpt>
      <trkpt lat="49.33669" lon="-0.46486">
        <ele>3.200604</ele>
        <time>2022-08-04T14:35:34.000Z</time>
      </trkpt>
      <trkpt lat="49.33666" lon="-0.46487">
        <ele>3.170394</ele>
        <time>2022-08-04T14:35:35.000Z</time>
      </trkpt>
      <trkpt lat="49.33662" lon="-0.46488">
        <ele>3.140012</ele>
        <time>2022-08-04T14:35:36.000Z</time>
      </trkpt>
      <trkpt lat="49.33659" lon="-0.46489">
        <ele>3.114451</ele>
        <time>2022-08-04T14:35:37.000Z</time>
      </trkpt>
      <trkpt lat="49.33654" lon="-0.4649">
        <ele>3.078159</ele>
        <time>2022-08-04T14:35:38.000Z</time>
      </trkpt>
      <trkpt lat="49.33651" lon="-0.46491">
        <ele>3.052501</ele>
        <time>2022-08-04T14:35:39.000Z</time>
      </trkpt>
      <trkpt lat="49.33646" lon="-0.46493">
        <ele>3.014292</ele>
        <time>2022-08-04T14:35:40.000Z</time>
      </trkpt>
      <trkpt lat="49.33643" lon="-0.46493">
        <ele>2.986489</ele>
        <time>2022-08-04T14:35:41.000Z</time>
      </trkpt>
      <trkpt lat="49.3364" lon="-0.46494">
        <ele>2.963682</ele>
        <time>2022-08-04T14:35:42.000Z</time>
      </trkpt>
      <trkpt lat="49.33635" lon="-0.46494">
        <ele>2.928145</ele>
        <time>2022-08-04T14:35:43.000Z</time>
      </trkpt>
      <trkpt lat="49.33632" lon="-0.46495">
        <ele>2.904995</ele>
        <time>2022-08-04T14:35:44.000Z</time>
      </trkpt>
      <trkpt lat="49.33629" lon="-0.46496">
        <ele>2.879337</ele>
        <time>2022-08-04T14:35:45.000Z</time>
      </trkpt>
      <trkpt lat="49.33627" lon="-0.46497">
        <ele>2.861684</ele>
        <time>2022-08-04T14:35:46.000Z</time>
      </trkpt>
      <trkpt lat="49.33623" lon="-0.46497">
        <ele>2.834181</ele>
        <time>2022-08-04T14:35:47.000Z</time>
      </trkpt>
      <trkpt lat="49.33621" lon="-0.46497">
        <ele>2.811304</ele>
        <time>2022-08-04T14:35:48.000Z</time>
      </trkpt>
      <trkpt lat="49.33617" lon="-0.46498">
        <ele>2.783634</ele>
        <time>2022-08-04T14:35:49.000Z</time>
      </trkpt>
      <trkpt lat="49.33614" lon="-0.465">
        <ele>2.76143</ele>
        <time>2022-08-04T14:35:50.000Z</time>
      </trkpt>
      <trkpt lat="49.33612" lon="-0.46501">
        <ele>2.736852</ele>
        <time>2022-08-04T14:35:51.000Z</time>
      </trkpt>
      <trkpt lat="49.33607" lon="-0.46504">
        <ele>2.701165</ele>
        <time>2022-08-04T14:35:52.000Z</time>
      </trkpt>
      <trkpt lat="49.33604" lon="-0.46507">
        <ele>2.667116</ele>
        <time>2022-08-04T14:35:53.000Z</time>
      </trkpt>
      <trkpt lat="49.336" lon="-0.46511">
        <ele>2.634842</ele>
        <time>2022-08-04T14:35:54.000Z</time>
      </trkpt>
      <trkpt lat="49.33596" lon="-0.46515">
        <ele>2.598637</ele>
        <time>2022-08-04T14:35:55.000Z</time>
      </trkpt>
      <trkpt lat="49.33592" lon="-0.46519">
        <ele>2.561782</ele>
        <time>2022-08-04T14:35:56.000Z</time>
      </trkpt>
      <trkpt lat="49.33588" lon="-0.46522">
        <ele>2.519347</ele>
        <time>2022-08-04T14:35:57.000Z</time>
      </trkpt>
      <trkpt lat="49.33583" lon="-0.46526">
        <ele>2.481977</ele>
        <time>2022-08-04T14:35:58.000Z</time>
      </trkpt>
      <trkpt lat="49.33579" lon="-0.4653">
        <ele>2.439063</ele>
        <time>2022-08-04T14:35:59.000Z</time>
      </trkpt>
      <trkpt lat="49.33573" lon="-0.46534">
        <ele>2.392895</ele>
        <time>2022-08-04T14:36:00.000Z</time>
      </trkpt>
      <trkpt lat="49.33569" lon="-0.46539">
        <ele>2.349227</ele>
        <time>2022-08-04T14:36:01.000Z</time>
      </trkpt>
      <trkpt lat="49.33564" lon="-0.46543">
        <ele>2.303508</ele>
        <time>2022-08-04T14:36:02.000Z</time>
      </trkpt>
      <trkpt lat="49.33559" lon="-0.46546">
        <ele>2.264541</ele>
        <time>2022-08-04T14:36:03.000Z</time>
      </trkpt>
      <trkpt lat="49.33553" lon="-0.46549">
        <ele>2.240984</ele>
        <time>2022-08-04T14:36:04.000Z</time>
      </trkpt>
      <trkpt lat="49.33547" lon="-0.46551">
        <ele>2.222057</ele>
        <time>2022-08-04T14:36:05.000Z</time>
      </trkpt>
      <trkpt lat="49.33541" lon="-0.46552">
        <ele>2.202957</ele>
        <time>2022-08-04T14:36:06.000Z</time>
      </trkpt>
      <trkpt lat="49.33534" lon="-0.46553">
        <ele>2.183809</ele>
        <time>2022-08-04T14:36:07.000Z</time>
      </trkpt>
      <trkpt lat="49.33529" lon="-0.46554">
        <ele>2.165638</ele>
        <time>2022-08-04T14:36:08.000Z</time>
      </trkpt>
      <trkpt lat="49.33524" lon="-0.46554">
        <ele>2.149713</ele>
        <time>2022-08-04T14:36:09.000Z</time>
      </trkpt>
      <trkpt lat="49.33516" lon="-0.46555">
        <ele>2.126894</ele>
        <time>2022-08-04T14:36:10.000Z</time>
      </trkpt>
      <trkpt lat="49.33511" lon="-0.46556">
        <ele>2.109651</ele>
        <time>2022-08-04T14:36:11.000Z</time>
      </trkpt>
      <trkpt lat="49.33505" lon="-0.46558">
        <ele>2.0926</ele>
        <time>2022-08-04T14:36:12.000Z</time>
      </trkpt>
      <trkpt lat="49.33499" lon="-0.46559">
        <ele>2.073538</ele>
        <time>2022-08-04T14:36:13.000Z</time>
      </trkpt>
      <trkpt lat="49.33494" lon="-0.4656">
        <ele>2.056453</ele>
        <time>2022-08-04T14:36:14.000Z</time>
      </trkpt>
      <trkpt lat="49.33489" lon="-0.46562">
        <ele>2.040967</ele>
        <time>2022-08-04T14:36:15.000Z</time>
      </trkpt>
      <trkpt lat="49.33485" lon="-0.46563">
        <ele>2.029453</ele>
        <time>2022-08-04T14:36:16.000Z</time>
      </trkpt>
      <trkpt lat="49.33482" lon="-0.46564">
        <ele>2.018404</ele>
        <time>2022-08-04T14:36:17.000Z</time>
      </trkpt>
      <trkpt lat="49.33479" lon="-0.46564">
        <ele>2.010617</ele>
        <time>2022-08-04T14:36:18.000Z</time>
      </trkpt>
      <trkpt lat="49.33477" lon="-0.46564">
        <ele>2.001532</ele>
        <time>2022-08-04T14:36:19.000Z</time>
      </trkpt>
      <trkpt lat="49.33474" lon="-0.46562">
        <ele>1.992984</ele>
        <time>2022-08-04T14:36:20.000Z</time>
      </trkpt>
      <trkpt lat="49.33472" lon="-0.46556">
        <ele>1.980406</ele>
        <time>2022-08-04T14:36:21.000Z</time>
      </trkpt>
      <trkpt lat="49.33472" lon="-0.46552">
        <ele>1.971228</ele>
        <time>2022-08-04T14:36:22.000Z</time>
      </trkpt>
      <trkpt lat="49.33471" lon="-0.46545">
        <ele>1.957261</ele>
        <time>2022-08-04T14:36:23.000Z</time>
      </trkpt>
      <trkpt lat="49.33471" lon="-0.46539">
        <ele>1.945494</ele>
        <time>2022-08-04T14:36:24.000Z</time>
      </trkpt>
      <trkpt lat="49.33471" lon="-0.46533">
        <ele>1.933524</ele>
        <time>2022-08-04T14:36:25.000Z</time>
      </trkpt>
      <trkpt lat="49.33471" lon="-0.46528">
        <ele>1.921757</ele>
        <time>2022-08-04T14:36:26.000Z</time>
      </trkpt>
      <trkpt lat="49.33471" lon="-0.46522">
        <ele>1.909583</ele>
        <time>2022-08-04T14:36:27.000Z</time>
      </trkpt>
      <trkpt lat="49.3347" lon="-0.46516">
        <ele>1.897268</ele>
        <time>2022-08-04T14:36:28.000Z</time>
      </trkpt>
      <trkpt lat="49.3347" lon="-0.46509">
        <ele>1.884486</ele>
        <time>2022-08-04T14:36:29.000Z</time>
      </trkpt>
      <trkpt lat="49.3347" lon="-0.46504">
        <ele>1.872772</ele>
        <time>2022-08-04T14:36:30.000Z</time>
      </trkpt>
      <trkpt lat="49.33468" lon="-0.46499">
        <ele>1.862902</ele>
        <time>2022-08-04T14:36:31.000Z</time>
      </trkpt>
      <trkpt lat="49.33466" lon="-0.46493">
        <ele>1.849047</ele>
        <time>2022-08-04T14:36:32.000Z</time>
      </trkpt>
      <trkpt lat="49.33466" lon="-0.46488">
        <ele>1.838903</ele>
        <time>2022-08-04T14:36:33.000Z</time>
      </trkpt>
      <trkpt lat="49.33466" lon="-0.46483">
        <ele>1.828353</ele>
        <time>2022-08-04T14:36:34.000Z</time>
      </trkpt>
      <trkpt lat="49.33466" lon="-0.46478">
        <ele>1.817803</ele>
        <time>2022-08-04T14:36:35.000Z</time>
      </trkpt>
      <trkpt lat="49.33466" lon="-0.46474">
        <ele>1.809688</ele>
        <time>2022-08-04T14:36:36.000Z</time>
      </trkpt>
      <trkpt lat="49.33466" lon="-0.46468">
        <ele>1.797883</ele>
        <time>2022-08-04T14:36:37.000Z</time>
      </trkpt>
      <trkpt lat="49.33465" lon="-0.46464">
        <ele>1.789298</ele>
        <time>2022-08-04T14:36:38.000Z</time>
      </trkpt>
      <trkpt lat="49.33463" lon="-0.46461">
        <ele>1.781433</ele>
        <time>2022-08-04T14:36:39.000Z</time>
      </trkpt>
      <trkpt lat="49.33461" lon="-0.46459">
        <ele>1.774214</ele>
        <time>2022-08-04T14:36:40.000Z</time>
      </trkpt>
      <trkpt lat="49.33458" lon="-0.46458">
        <ele>1.763671</ele>
        <time>2022-08-04T14:36:42.000Z</time>
      </trkpt>
      <trkpt lat="49.33456" lon="-0.46455">
        <ele>1.754153</ele>
        <time>2022-08-04T14:36:45.000Z</time>
      </trkpt>
      <trkpt lat="49.33454" lon="-0.46454">
        <ele>1.748019</ele>
        <time>2022-08-04T14:36:46.000Z</time>
      </trkpt>
      <trkpt lat="49.33452" lon="-0.46454">
        <ele>1.74171</ele>
        <time>2022-08-04T14:36:47.000Z</time>
      </trkpt>
      <trkpt lat="49.3345" lon="-0.46453">
        <ele>1.734848</ele>
        <time>2022-08-04T14:36:48.000Z</time>
      </trkpt>
      <trkpt lat="49.33448" lon="-0.46454">
        <ele>1.728877</ele>
        <time>2022-08-04T14:36:49.000Z</time>
      </trkpt>
      <trkpt lat="49.33445" lon="-0.46454">
        <ele>1.720759</ele>
        <time>2022-08-04T14:36:50.000Z</time>
      </trkpt>
      <trkpt lat="49.33442" lon="-0.46454">
        <ele>1.71171</ele>
        <time>2022-08-04T14:36:51.000Z</time>
      </trkpt>
      <trkpt lat="49.3344" lon="-0.46454">
        <ele>1.703924</ele>
        <time>2022-08-04T14:36:52.000Z</time>
      </trkpt>
      <trkpt lat="49.33437" lon="-0.46454">
        <ele>1.698648</ele>
        <time>2022-08-04T14:36:53.000Z</time>
      </trkpt>
      <trkpt lat="49.33435" lon="-0.46454">
        <ele>1.694958</ele>
        <time>2022-08-04T14:36:54.000Z</time>
      </trkpt>
      <trkpt lat="49.33432" lon="-0.46454">
        <ele>1.691141</ele>
        <time>2022-08-04T14:36:55.000Z</time>
      </trkpt>
      <trkpt lat="49.33429" lon="-0.46454">
        <ele>1.688106</ele>
        <time>2022-08-04T14:36:56.000Z</time>
      </trkpt>
      <trkpt lat="49.33427" lon="-0.46455">
        <ele>1.684376</ele>
        <time>2022-08-04T14:36:57.000Z</time>
      </trkpt>
      <trkpt lat="49.33423" lon="-0.46455">
        <ele>1.679213</ele>
        <time>2022-08-04T14:36:59.000Z</time>
      </trkpt>
      <trkpt lat="49.33421" lon="-0.46456">
        <ele>1.676679</ele>
        <time>2022-08-04T14:37:00.000Z</time>
      </trkpt>
      <trkpt lat="49.33419" lon="-0.46456">
        <ele>1.673755</ele>
        <time>2022-08-04T14:37:01.000Z</time>
      </trkpt>
      <trkpt lat="49.33415" lon="-0.46457">
        <ele>1.668601</ele>
        <time>2022-08-04T14:37:03.000Z</time>
      </trkpt>
      <trkpt lat="49.33411" lon="-0.46456">
        <ele>1.663186</ele>
        <time>2022-08-04T14:37:05.000Z</time>
      </trkpt>
      <trkpt lat="49.33408" lon="-0.46455">
        <ele>1.659189</ele>
        <time>2022-08-04T14:37:07.000Z</time>
      </trkpt>
      <trkpt lat="49.33405" lon="-0.46454">
        <ele>1.65495</ele>
        <time>2022-08-04T14:37:08.000Z</time>
      </trkpt>
      <trkpt lat="49.33402" lon="-0.46455">
        <ele>1.651404</ele>
        <time>2022-08-04T14:37:09.000Z</time>
      </trkpt>
      <trkpt lat="49.33399" lon="-0.46456">
        <ele>1.64711</ele>
        <time>2022-08-04T14:37:10.000Z</time>
      </trkpt>
      <trkpt lat="49.33396" lon="-0.46457">
        <ele>1.643805</ele>
        <time>2022-08-04T14:37:11.000Z</time>
      </trkpt>
      <trkpt lat="49.33394" lon="-0.46457">
        <ele>1.64036</ele>
        <time>2022-08-04T14:37:12.000Z</time>
      </trkpt>
      <trkpt lat="49.33389" lon="-0.46458">
        <ele>1.634821</ele>
        <time>2022-08-04T14:37:13.000Z</time>
      </trkpt>
      <trkpt lat="49.33386" lon="-0.46458">
        <ele>1.629824</ele>
        <time>2022-08-04T14:37:14.000Z</time>
      </trkpt>
      <trkpt lat="49.33381" lon="-0.46458">
        <ele>1.623907</ele>
        <time>2022-08-04T14:37:15.000Z</time>
      </trkpt>
      <trkpt lat="49.33378" lon="-0.46458">
        <ele>1.620085</ele>
        <time>2022-08-04T14:37:16.000Z</time>
      </trkpt>
      <trkpt lat="49.33374" lon="-0.46459">
        <ele>1.614237</ele>
        <time>2022-08-04T14:37:17.000Z</time>
      </trkpt>
      <trkpt lat="49.3337" lon="-0.4646">
        <ele>1.608698</ele>
        <time>2022-08-04T14:37:18.000Z</time>
      </trkpt>
      <trkpt lat="49.33365" lon="-0.4646">
        <ele>1.602387</ele>
        <time>2022-08-04T14:37:19.000Z</time>
      </trkpt>
      <trkpt lat="49.33362" lon="-0.4646">
        <ele>1.598574</ele>
        <time>2022-08-04T14:37:20.000Z</time>
      </trkpt>
      <trkpt lat="49.33357" lon="-0.46459">
        <ele>1.592261</ele>
        <time>2022-08-04T14:37:21.000Z</time>
      </trkpt>
      <trkpt lat="49.33351" lon="-0.4646">
        <ele>1.584759</ele>
        <time>2022-08-04T14:37:22.000Z</time>
      </trkpt>
      <trkpt lat="49.33347" lon="-0.4646">
        <ele>1.578842</ele>
        <time>2022-08-04T14:37:23.000Z</time>
      </trkpt>
      <trkpt lat="49.33342" lon="-0.4646">
        <ele>1.572925</ele>
        <time>2022-08-04T14:37:24.000Z</time>
      </trkpt>
      <trkpt lat="49.33339" lon="-0.4646">
        <ele>1.567923</ele>
        <time>2022-08-04T14:37:25.000Z</time>
      </trkpt>
      <trkpt lat="49.33334" lon="-0.46461">
        <ele>1.561966</ele>
        <time>2022-08-04T14:37:26.000Z</time>
      </trkpt>
      <trkpt lat="49.33328" lon="-0.46462">
        <ele>1.554302</ele>
        <time>2022-08-04T14:37:27.000Z</time>
      </trkpt>
      <trkpt lat="49.33324" lon="-0.46463">
        <ele>1.547953</ele>
        <time>2022-08-04T14:37:28.000Z</time>
      </trkpt>
      <trkpt lat="49.3332" lon="-0.46463">
        <ele>1.543348</ele>
        <time>2022-08-04T14:37:29.000Z</time>
      </trkpt>
      <trkpt lat="49.33315" lon="-0.46463">
        <ele>1.536642</ele>
        <time>2022-08-04T14:37:30.000Z</time>
      </trkpt>
      <trkpt lat="49.33309" lon="-0.46463">
        <ele>1.529014</ele>
        <time>2022-08-04T14:37:31.000Z</time>
      </trkpt>
      <trkpt lat="49.33305" lon="-0.46463">
        <ele>1.523095</ele>
        <time>2022-08-04T14:37:32.000Z</time>
      </trkpt>
      <trkpt lat="49.333" lon="-0.46463">
        <ele>1.51731</ele>
        <time>2022-08-04T14:37:33.000Z</time>
      </trkpt>
      <trkpt lat="49.33297" lon="-0.46464">
        <ele>1.512557</ele>
        <time>2022-08-04T14:37:34.000Z</time>
      </trkpt>
      <trkpt lat="49.33291" lon="-0.46464">
        <ele>1.505453</ele>
        <time>2022-08-04T14:37:35.000Z</time>
      </trkpt>
      <trkpt lat="49.33287" lon="-0.46464">
        <ele>1.500454</ele>
        <time>2022-08-04T14:37:36.000Z</time>
      </trkpt>
      <trkpt lat="49.33282" lon="-0.46464">
        <ele>1.493617</ele>
        <time>2022-08-04T14:37:37.000Z</time>
      </trkpt>
      <trkpt lat="49.33278" lon="-0.46464">
        <ele>1.488609</ele>
        <time>2022-08-04T14:37:38.000Z</time>
      </trkpt>
      <trkpt lat="49.33273" lon="-0.46464">
        <ele>1.480981</ele>
        <time>2022-08-04T14:37:39.000Z</time>
      </trkpt>
      <trkpt lat="49.33269" lon="-0.46464">
        <ele>1.47559</ele>
        <time>2022-08-04T14:37:40.000Z</time>
      </trkpt>
      <trkpt lat="49.33265" lon="-0.46464">
        <ele>1.471375</ele>
        <time>2022-08-04T14:37:41.000Z</time>
      </trkpt>
      <trkpt lat="49.33261" lon="-0.46465">
        <ele>1.465448</ele>
        <time>2022-08-04T14:37:42.000Z</time>
      </trkpt>
      <trkpt lat="49.33258" lon="-0.46465">
        <ele>1.469384</ele>
        <time>2022-08-04T14:37:43.000Z</time>
      </trkpt>
      <trkpt lat="49.33254" lon="-0.46466">
        <ele>1.483546</ele>
        <time>2022-08-04T14:37:44.000Z</time>
      </trkpt>
      <trkpt lat="49.33251" lon="-0.46467">
        <ele>1.496297</ele>
        <time>2022-08-04T14:37:45.000Z</time>
      </trkpt>
      <trkpt lat="49.33249" lon="-0.46466">
        <ele>1.506922</ele>
        <time>2022-08-04T14:37:46.000Z</time>
      </trkpt>
      <trkpt lat="49.33247" lon="-0.46464">
        <ele>1.516204</ele>
        <time>2022-08-04T14:37:47.000Z</time>
      </trkpt>
      <trkpt lat="49.33245" lon="-0.4646">
        <ele>1.528372</ele>
        <time>2022-08-04T14:37:48.000Z</time>
      </trkpt>
      <trkpt lat="49.33243" lon="-0.46457">
        <ele>1.538791</ele>
        <time>2022-08-04T14:37:49.000Z</time>
      </trkpt>
      <trkpt lat="49.33242" lon="-0.46454">
        <ele>1.548029</ele>
        <time>2022-08-04T14:37:50.000Z</time>
      </trkpt>
      <trkpt lat="49.33239" lon="-0.46453">
        <ele>1.557793</ele>
        <time>2022-08-04T14:37:51.000Z</time>
      </trkpt>
      <trkpt lat="49.33236" lon="-0.46452">
        <ele>1.573261</ele>
        <time>2022-08-04T14:37:53.000Z</time>
      </trkpt>
      <trkpt lat="49.33233" lon="-0.46454">
        <ele>1.583398</ele>
        <time>2022-08-04T14:37:54.000Z</time>
      </trkpt>
      <trkpt lat="49.33231" lon="-0.46457">
        <ele>1.59457</ele>
        <time>2022-08-04T14:37:55.000Z</time>
      </trkpt>
      <trkpt lat="49.33229" lon="-0.4646">
        <ele>1.607132</ele>
        <time>2022-08-04T14:37:56.000Z</time>
      </trkpt>
      <trkpt lat="49.33226" lon="-0.46464">
        <ele>1.621757</ele>
        <time>2022-08-04T14:37:57.000Z</time>
      </trkpt>
      <trkpt lat="49.33224" lon="-0.46467">
        <ele>1.63238</ele>
        <time>2022-08-04T14:37:58.000Z</time>
      </trkpt>
      <trkpt lat="49.33221" lon="-0.46471">
        <ele>1.648905</ele>
        <time>2022-08-04T14:37:59.000Z</time>
      </trkpt>
      <trkpt lat="49.33217" lon="-0.46475">
        <ele>1.665752</ele>
        <time>2022-08-04T14:38:00.000Z</time>
      </trkpt>
      <trkpt lat="49.33215" lon="-0.46477">
        <ele>1.677649</ele>
        <time>2022-08-04T14:38:01.000Z</time>
      </trkpt>
      <trkpt lat="49.3321" lon="-0.4648">
        <ele>1.698715</ele>
        <time>2022-08-04T14:38:02.000Z</time>
      </trkpt>
      <trkpt lat="49.33206" lon="-0.46483">
        <ele>1.715654</ele>
        <time>2022-08-04T14:38:03.000Z</time>
      </trkpt>
      <trkpt lat="49.33203" lon="-0.46486">
        <ele>1.729888</ele>
        <time>2022-08-04T14:38:04.000Z</time>
      </trkpt>
      <trkpt lat="49.33199" lon="-0.46487">
        <ele>1.744226</ele>
        <time>2022-08-04T14:38:05.000Z</time>
      </trkpt>
      <trkpt lat="49.33197" lon="-0.46488">
        <ele>1.754738</ele>
        <time>2022-08-04T14:38:06.000Z</time>
      </trkpt>
      <trkpt lat="49.33193" lon="-0.46488">
        <ele>1.768633</ele>
        <time>2022-08-04T14:38:07.000Z</time>
      </trkpt>
      <trkpt lat="49.3319" lon="-0.46486">
        <ele>1.780684</ele>
        <time>2022-08-04T14:38:08.000Z</time>
      </trkpt>
      <trkpt lat="49.33189" lon="-0.46483">
        <ele>1.791677</ele>
        <time>2022-08-04T14:38:09.000Z</time>
      </trkpt>
      <trkpt lat="49.33187" lon="-0.4648">
        <ele>1.802721</ele>
        <time>2022-08-04T14:38:10.000Z</time>
      </trkpt>
      <trkpt lat="49.33185" lon="-0.46477">
        <ele>1.812987</ele>
        <time>2022-08-04T14:38:11.000Z</time>
      </trkpt>
      <trkpt lat="49.33182" lon="-0.46475">
        <ele>1.825387</ele>
        <time>2022-08-04T14:38:12.000Z</time>
      </trkpt>
      <trkpt lat="49.3318" lon="-0.46474">
        <ele>1.835293</ele>
        <time>2022-08-04T14:38:13.000Z</time>
      </trkpt>
      <trkpt lat="49.33178" lon="-0.46473">
        <ele>1.843438</ele>
        <time>2022-08-04T14:38:14.000Z</time>
      </trkpt>
      <trkpt lat="49.33176" lon="-0.46471">
        <ele>1.852693</ele>
        <time>2022-08-04T14:38:15.000Z</time>
      </trkpt>
      <trkpt lat="49.33174" lon="-0.4647">
        <ele>1.860557</ele>
        <time>2022-08-04T14:38:16.000Z</time>
      </trkpt>
      <trkpt lat="49.33172" lon="-0.46465">
        <ele>1.874729</ele>
        <time>2022-08-04T14:38:18.000Z</time>
      </trkpt>
      <trkpt lat="49.3317" lon="-0.46461">
        <ele>1.887971</ele>
        <time>2022-08-04T14:38:20.000Z</time>
      </trkpt>
      <trkpt lat="49.3317" lon="-0.46458">
        <ele>1.895096</ele>
        <time>2022-08-04T14:38:21.000Z</time>
      </trkpt>
      <trkpt lat="49.33168" lon="-0.46456">
        <ele>1.903359</ele>
        <time>2022-08-04T14:38:22.000Z</time>
      </trkpt>
      <trkpt lat="49.33167" lon="-0.46453">
        <ele>1.911621</ele>
        <time>2022-08-04T14:38:23.000Z</time>
      </trkpt>
      <trkpt lat="49.33165" lon="-0.46449">
        <ele>1.925752</ele>
        <time>2022-08-04T14:38:24.000Z</time>
      </trkpt>
      <trkpt lat="49.33163" lon="-0.46446">
        <ele>1.936559</ele>
        <time>2022-08-04T14:38:25.000Z</time>
      </trkpt>
      <trkpt lat="49.3316" lon="-0.46442">
        <ele>1.951332</ele>
        <time>2022-08-04T14:38:26.000Z</time>
      </trkpt>
      <trkpt lat="49.33159" lon="-0.46437">
        <ele>1.964982</ele>
        <time>2022-08-04T14:38:27.000Z</time>
      </trkpt>
      <trkpt lat="49.33159" lon="-0.46433">
        <ele>1.975431</ele>
        <time>2022-08-04T14:38:28.000Z</time>
      </trkpt>
      <trkpt lat="49.33159" lon="-0.46428">
        <ele>1.988642</ele>
        <time>2022-08-04T14:38:29.000Z</time>
      </trkpt>
      <trkpt lat="49.33159" lon="-0.46423">
        <ele>2.001817</ele>
        <time>2022-08-04T14:38:30.000Z</time>
      </trkpt>
      <trkpt lat="49.3316" lon="-0.46417">
        <ele>2.017104</ele>
        <time>2022-08-04T14:38:31.000Z</time>
      </trkpt>
      <trkpt lat="49.3316" lon="-0.46411">
        <ele>2.032649</ele>
        <time>2022-08-04T14:38:32.000Z</time>
      </trkpt>
      <trkpt lat="49.33161" lon="-0.46404">
        <ele>2.051452</ele>
        <time>2022-08-04T14:38:33.000Z</time>
      </trkpt>
      <trkpt lat="49.33163" lon="-0.46399">
        <ele>2.06596</ele>
        <time>2022-08-04T14:38:34.000Z</time>
      </trkpt>
      <trkpt lat="49.33166" lon="-0.46393">
        <ele>2.085662</ele>
        <time>2022-08-04T14:38:35.000Z</time>
      </trkpt>
      <trkpt lat="49.33169" lon="-0.46388">
        <ele>2.104269</ele>
        <time>2022-08-04T14:38:36.000Z</time>
      </trkpt>
      <trkpt lat="49.33172" lon="-0.46384">
        <ele>2.118037</ele>
        <time>2022-08-04T14:38:37.000Z</time>
      </trkpt>
      <trkpt lat="49.33176" lon="-0.46378">
        <ele>2.140784</ele>
        <time>2022-08-04T14:38:38.000Z</time>
      </trkpt>
      <trkpt lat="49.3318" lon="-0.46374">
        <ele>2.159811</ele>
        <time>2022-08-04T14:38:39.000Z</time>
      </trkpt>
      <trkpt lat="49.33184" lon="-0.46369">
        <ele>2.175946</ele>
        <time>2022-08-04T14:38:40.000Z</time>
      </trkpt>
      <trkpt lat="49.33186" lon="-0.46365">
        <ele>2.173197</ele>
        <time>2022-08-04T14:38:41.000Z</time>
      </trkpt>
      <trkpt lat="49.33191" lon="-0.46359">
        <ele>2.168606</ele>
        <time>2022-08-04T14:38:42.000Z</time>
      </trkpt>
      <trkpt lat="49.33195" lon="-0.46354">
        <ele>2.164837</ele>
        <time>2022-08-04T14:38:43.000Z</time>
      </trkpt>
      <trkpt lat="49.33198" lon="-0.46348">
        <ele>2.16138</ele>
        <time>2022-08-04T14:38:44.000Z</time>
      </trkpt>
      <trkpt lat="49.33202" lon="-0.46343">
        <ele>2.157636</ele>
        <time>2022-08-04T14:38:45.000Z</time>
      </trkpt>
      <trkpt lat="49.33205" lon="-0.46339">
        <ele>2.154514</ele>
        <time>2022-08-04T14:38:46.000Z</time>
      </trkpt>
      <trkpt lat="49.3321" lon="-0.46333">
        <ele>2.149861</ele>
        <time>2022-08-04T14:38:47.000Z</time>
      </trkpt>
      <trkpt lat="49.33214" lon="-0.46328">
        <ele>2.145889</ele>
        <time>2022-08-04T14:38:48.000Z</time>
      </trkpt>
      <trkpt lat="49.33218" lon="-0.46323">
        <ele>2.142276</ele>
        <time>2022-08-04T14:38:49.000Z</time>
      </trkpt>
      <trkpt lat="49.33221" lon="-0.46319">
        <ele>2.139215</ele>
        <time>2022-08-04T14:38:50.000Z</time>
      </trkpt>
      <trkpt lat="49.33225" lon="-0.46313">
        <ele>2.135439</ele>
        <time>2022-08-04T14:38:51.000Z</time>
      </trkpt>
      <trkpt lat="49.33229" lon="-0.46307">
        <ele>2.130848</ele>
        <time>2022-08-04T14:38:52.000Z</time>
      </trkpt>
      <trkpt lat="49.33233" lon="-0.46302">
        <ele>2.126984</ele>
        <time>2022-08-04T14:38:53.000Z</time>
      </trkpt>
      <trkpt lat="49.33237" lon="-0.46297">
        <ele>2.123338</ele>
        <time>2022-08-04T14:38:54.000Z</time>
      </trkpt>
      <trkpt lat="49.3324" lon="-0.46291">
        <ele>2.119702</ele>
        <time>2022-08-04T14:38:55.000Z</time>
      </trkpt>
      <trkpt lat="49.33244" lon="-0.46286">
        <ele>2.115894</ele>
        <time>2022-08-04T14:38:56.000Z</time>
      </trkpt>
      <trkpt lat="49.33248" lon="-0.46281">
        <ele>2.112062</ele>
        <time>2022-08-04T14:38:57.000Z</time>
      </trkpt>
      <trkpt lat="49.33252" lon="-0.46275">
        <ele>2.108286</ele>
        <time>2022-08-04T14:38:58.000Z</time>
      </trkpt>
      <trkpt lat="49.33255" lon="-0.46271">
        <ele>2.105195</ele>
        <time>2022-08-04T14:38:59.000Z</time>
      </trkpt>
      <trkpt lat="49.33259" lon="-0.46265">
        <ele>2.100939</ele>
        <time>2022-08-04T14:39:00.000Z</time>
      </trkpt>
      <trkpt lat="49.33263" lon="-0.4626">
        <ele>2.097163</ele>
        <time>2022-08-04T14:39:01.000Z</time>
      </trkpt>
      <trkpt lat="49.33266" lon="-0.46255">
        <ele>2.093671</ele>
        <time>2022-08-04T14:39:02.000Z</time>
      </trkpt>
      <trkpt lat="49.33269" lon="-0.4625">
        <ele>2.090485</ele>
        <time>2022-08-04T14:39:03.000Z</time>
      </trkpt>
      <trkpt lat="49.33273" lon="-0.46245">
        <ele>2.086295</ele>
        <time>2022-08-04T14:39:04.000Z</time>
      </trkpt>
      <trkpt lat="49.33277" lon="-0.4624">
        <ele>2.082813</ele>
        <time>2022-08-04T14:39:05.000Z</time>
      </trkpt>
      <trkpt lat="49.3328" lon="-0.46235">
        <ele>2.079755</ele>
        <time>2022-08-04T14:39:06.000Z</time>
      </trkpt>
      <trkpt lat="49.33283" lon="-0.46231">
        <ele>2.076568</ele>
        <time>2022-08-04T14:39:07.000Z</time>
      </trkpt>
      <trkpt lat="49.33285" lon="-0.46228">
        <ele>2.074185</ele>
        <time>2022-08-04T14:39:08.000Z</time>
      </trkpt>
      <trkpt lat="49.33289" lon="-0.46224">
        <ele>2.070971</ele>
        <time>2022-08-04T14:39:09.000Z</time>
      </trkpt>
      <trkpt lat="49.33292" lon="-0.4622">
        <ele>2.068187</ele>
        <time>2022-08-04T14:39:10.000Z</time>
      </trkpt>
      <trkpt lat="49.33293" lon="-0.46216">
        <ele>2.066251</ele>
        <time>2022-08-04T14:39:11.000Z</time>
      </trkpt>
      <trkpt lat="49.33293" lon="-0.46213">
        <ele>2.064898</ele>
        <time>2022-08-04T14:39:12.000Z</time>
      </trkpt>
      <trkpt lat="49.33292" lon="-0.46207">
        <ele>2.061893</ele>
        <time>2022-08-04T14:39:14.000Z</time>
      </trkpt>
      <trkpt lat="49.33293" lon="-0.46203">
        <ele>2.059984</ele>
        <time>2022-08-04T14:39:15.000Z</time>
      </trkpt>
      <trkpt lat="49.33295" lon="-0.462">
        <ele>2.057783</ele>
        <time>2022-08-04T14:39:16.000Z</time>
      </trkpt>
      <trkpt lat="49.33297" lon="-0.46197">
        <ele>2.05587</ele>
        <time>2022-08-04T14:39:17.000Z</time>
      </trkpt>
      <trkpt lat="49.33301" lon="-0.46193">
        <ele>2.052484</ele>
        <time>2022-08-04T14:39:18.000Z</time>
      </trkpt>
      <trkpt lat="49.33303" lon="-0.46189">
        <ele>2.04977</ele>
        <time>2022-08-04T14:39:19.000Z</time>
      </trkpt>
      <trkpt lat="49.33306" lon="-0.46184">
        <ele>2.0469</ele>
        <time>2022-08-04T14:39:20.000Z</time>
      </trkpt>
      <trkpt lat="49.33309" lon="-0.4618">
        <ele>2.043808</ele>
        <time>2022-08-04T14:39:21.000Z</time>
      </trkpt>
      <trkpt lat="49.33312" lon="-0.46176">
        <ele>2.041119</ele>
        <time>2022-08-04T14:39:22.000Z</time>
      </trkpt>
      <trkpt lat="49.33316" lon="-0.46172">
        <ele>2.038662</ele>
        <time>2022-08-04T14:39:23.000Z</time>
      </trkpt>
      <trkpt lat="49.33319" lon="-0.46168">
        <ele>2.036206</ele>
        <time>2022-08-04T14:39:24.000Z</time>
      </trkpt>
      <trkpt lat="49.33321" lon="-0.46164">
        <ele>2.034031</ele>
        <time>2022-08-04T14:39:25.000Z</time>
      </trkpt>
      <trkpt lat="49.33325" lon="-0.4616">
        <ele>2.031646</ele>
        <time>2022-08-04T14:39:26.000Z</time>
      </trkpt>
      <trkpt lat="49.33327" lon="-0.46156">
        <ele>2.02947</ele>
        <time>2022-08-04T14:39:27.000Z</time>
      </trkpt>
      <trkpt lat="49.33331" lon="-0.46153">
        <ele>2.027033</ele>
        <time>2022-08-04T14:39:28.000Z</time>
      </trkpt>
      <trkpt lat="49.33334" lon="-0.46151">
        <ele>2.024854</ele>
        <time>2022-08-04T14:39:29.000Z</time>
      </trkpt>
      <trkpt lat="49.33338" lon="-0.46149">
        <ele>2.022574</ele>
        <time>2022-08-04T14:39:30.000Z</time>
      </trkpt>
      <trkpt lat="49.33341" lon="-0.46149">
        <ele>2.020707</ele>
        <time>2022-08-04T14:39:31.000Z</time>
      </trkpt>
      <trkpt lat="49.33345" lon="-0.4615">
        <ele>2.018423</ele>
        <time>2022-08-04T14:39:32.000Z</time>
      </trkpt>
      <trkpt lat="49.33349" lon="-0.46151">
        <ele>2.016303</ele>
        <time>2022-08-04T14:39:33.000Z</time>
      </trkpt>
      <trkpt lat="49.33351" lon="-0.46153">
        <ele>2.014639</ele>
        <time>2022-08-04T14:39:34.000Z</time>
      </trkpt>
      <trkpt lat="49.33353" lon="-0.46154">
        <ele>2.01344</ele>
        <time>2022-08-04T14:39:35.000Z</time>
      </trkpt>
      <trkpt lat="49.33355" lon="-0.46155">
        <ele>2.012316</ele>
        <time>2022-08-04T14:39:36.000Z</time>
      </trkpt>
      <trkpt lat="49.33357" lon="-0.46154">
        <ele>2.011176</ele>
        <time>2022-08-04T14:39:37.000Z</time>
      </trkpt>
      <trkpt lat="49.33359" lon="-0.4615">
        <ele>2.0092</ele>
        <time>2022-08-04T14:39:39.000Z</time>
      </trkpt>
      <trkpt lat="49.3336" lon="-0.46147">
        <ele>2.007989</ele>
        <time>2022-08-04T14:39:40.000Z</time>
      </trkpt>
      <trkpt lat="49.3336" lon="-0.46143">
        <ele>2.006354</ele>
        <time>2022-08-04T14:39:41.000Z</time>
      </trkpt>
      <trkpt lat="49.33361" lon="-0.46139">
        <ele>2.005012</ele>
        <time>2022-08-04T14:39:42.000Z</time>
      </trkpt>
      <trkpt lat="49.33361" lon="-0.46135">
        <ele>2.003586</ele>
        <time>2022-08-04T14:39:43.000Z</time>
      </trkpt>
      <trkpt lat="49.33362" lon="-0.46133">
        <ele>2.002467</ele>
        <time>2022-08-04T14:39:44.000Z</time>
      </trkpt>
      <trkpt lat="49.33363" lon="-0.46129">
        <ele>2.000767</ele>
        <time>2022-08-04T14:39:45.000Z</time>
      </trkpt>
      <trkpt lat="49.33364" lon="-0.46126">
        <ele>1.999397</ele>
        <time>2022-08-04T14:39:46.000Z</time>
      </trkpt>
      <trkpt lat="49.33366" lon="-0.46122">
        <ele>1.997751</ele>
        <time>2022-08-04T14:39:47.000Z</time>
      </trkpt>
      <trkpt lat="49.33368" lon="-0.46119">
        <ele>1.996077</ele>
        <time>2022-08-04T14:39:48.000Z</time>
      </trkpt>
      <trkpt lat="49.3337" lon="-0.46116">
        <ele>1.994282</ele>
        <time>2022-08-04T14:39:49.000Z</time>
      </trkpt>
      <trkpt lat="49.33373" lon="-0.46113">
        <ele>1.992471</ele>
        <time>2022-08-04T14:39:50.000Z</time>
      </trkpt>
      <trkpt lat="49.33375" lon="-0.46109">
        <ele>1.990572</ele>
        <time>2022-08-04T14:39:51.000Z</time>
      </trkpt>
      <trkpt lat="49.33378" lon="-0.46106">
        <ele>1.988465</ele>
        <time>2022-08-04T14:39:52.000Z</time>
      </trkpt>
      <trkpt lat="49.33381" lon="-0.46103">
        <ele>1.986447</ele>
        <time>2022-08-04T14:39:53.000Z</time>
      </trkpt>
      <trkpt lat="49.33383" lon="-0.46099">
        <ele>1.984473</ele>
        <time>2022-08-04T14:39:54.000Z</time>
      </trkpt>
      <trkpt lat="49.33386" lon="-0.46095">
        <ele>1.982135</ele>
        <time>2022-08-04T14:39:55.000Z</time>
      </trkpt>
      <trkpt lat="49.33389" lon="-0.46091">
        <ele>1.979987</ele>
        <time>2022-08-04T14:39:56.000Z</time>
      </trkpt>
      <trkpt lat="49.33392" lon="-0.46088">
        <ele>1.977627</ele>
        <time>2022-08-04T14:39:57.000Z</time>
      </trkpt>
      <trkpt lat="49.33395" lon="-0.46084">
        <ele>1.975352</ele>
        <time>2022-08-04T14:39:58.000Z</time>
      </trkpt>
      <trkpt lat="49.33398" lon="-0.4608">
        <ele>1.973014</ele>
        <time>2022-08-04T14:39:59.000Z</time>
      </trkpt>
      <trkpt lat="49.33401" lon="-0.46076">
        <ele>1.970714</ele>
        <time>2022-08-04T14:40:00.000Z</time>
      </trkpt>
      <trkpt lat="49.33404" lon="-0.46072">
        <ele>1.968429</ele>
        <time>2022-08-04T14:40:01.000Z</time>
      </trkpt>
      <trkpt lat="49.33406" lon="-0.46067">
        <ele>1.966199</ele>
        <time>2022-08-04T14:40:02.000Z</time>
      </trkpt>
      <trkpt lat="49.3341" lon="-0.46063">
        <ele>1.963743</ele>
        <time>2022-08-04T14:40:03.000Z</time>
      </trkpt>
      <trkpt lat="49.33412" lon="-0.4606">
        <ele>1.961725</ele>
        <time>2022-08-04T14:40:04.000Z</time>
      </trkpt>
      <trkpt lat="49.33415" lon="-0.46057">
        <ele>1.959873</ele>
        <time>2022-08-04T14:40:05.000Z</time>
      </trkpt>
      <trkpt lat="49.33418" lon="-0.46054">
        <ele>1.957685</ele>
        <time>2022-08-04T14:40:06.000Z</time>
      </trkpt>
      <trkpt lat="49.33421" lon="-0.46051">
        <ele>1.955645</ele>
        <time>2022-08-04T14:40:07.000Z</time>
      </trkpt>
      <trkpt lat="49.33424" lon="-0.46048">
        <ele>1.953496</ele>
        <time>2022-08-04T14:40:08.000Z</time>
      </trkpt>
      <trkpt lat="49.33426" lon="-0.46046">
        <ele>1.951964</ele>
        <time>2022-08-04T14:40:09.000Z</time>
      </trkpt>
      <trkpt lat="49.3343" lon="-0.46043">
        <ele>1.949574</ele>
        <time>2022-08-04T14:40:10.000Z</time>
      </trkpt>
      <trkpt lat="49.33432" lon="-0.4604">
        <ele>1.948042</ele>
        <time>2022-08-04T14:40:11.000Z</time>
      </trkpt>
      <trkpt lat="49.33434" lon="-0.46038">
        <ele>1.946422</ele>
        <time>2022-08-04T14:40:12.000Z</time>
      </trkpt>
      <trkpt lat="49.33437" lon="-0.46035">
        <ele>1.944291</ele>
        <time>2022-08-04T14:40:13.000Z</time>
      </trkpt>
      <trkpt lat="49.3344" lon="-0.46032">
        <ele>1.942393</ele>
        <time>2022-08-04T14:40:14.000Z</time>
      </trkpt>
      <trkpt lat="49.33442" lon="-0.46029">
        <ele>1.940882</ele>
        <time>2022-08-04T14:40:15.000Z</time>
      </trkpt>
      <trkpt lat="49.33445" lon="-0.46026">
        <ele>1.938568</ele>
        <time>2022-08-04T14:40:16.000Z</time>
      </trkpt>
      <trkpt lat="49.33448" lon="-0.46022">
        <ele>1.937178</ele>
        <time>2022-08-04T14:40:17.000Z</time>
      </trkpt>
      <trkpt lat="49.3345" lon="-0.46017">
        <ele>1.935893</ele>
        <time>2022-08-04T14:40:18.000Z</time>
      </trkpt>
      <trkpt lat="49.33453" lon="-0.46013">
        <ele>1.934611</ele>
        <time>2022-08-04T14:40:19.000Z</time>
      </trkpt>
      <trkpt lat="49.33454" lon="-0.4601">
        <ele>1.933865</ele>
        <time>2022-08-04T14:40:20.000Z</time>
      </trkpt>
      <trkpt lat="49.33458" lon="-0.46006">
        <ele>1.932523</ele>
        <time>2022-08-04T14:40:21.000Z</time>
      </trkpt>
      <trkpt lat="49.3346" lon="-0.46002">
        <ele>1.931558</ele>
        <time>2022-08-04T14:40:22.000Z</time>
      </trkpt>
      <trkpt lat="49.33461" lon="-0.45999">
        <ele>1.930625</ele>
        <time>2022-08-04T14:40:23.000Z</time>
      </trkpt>
      <trkpt lat="49.33464" lon="-0.45997">
        <ele>1.929733</ele>
        <time>2022-08-04T14:40:24.000Z</time>
      </trkpt>
      <trkpt lat="49.33467" lon="-0.45993">
        <ele>1.92843</ele>
        <time>2022-08-04T14:40:25.000Z</time>
      </trkpt>
      <trkpt lat="49.3347" lon="-0.4599">
        <ele>1.927328</ele>
        <time>2022-08-04T14:40:26.000Z</time>
      </trkpt>
      <trkpt lat="49.33474" lon="-0.45988">
        <ele>1.926</ele>
        <time>2022-08-04T14:40:27.000Z</time>
      </trkpt>
      <trkpt lat="49.33477" lon="-0.45986">
        <ele>1.924762</ele>
        <time>2022-08-04T14:40:28.000Z</time>
      </trkpt>
      <trkpt lat="49.33479" lon="-0.45983">
        <ele>1.923846</ele>
        <time>2022-08-04T14:40:29.000Z</time>
      </trkpt>
      <trkpt lat="49.33483" lon="-0.4598">
        <ele>1.922405</ele>
        <time>2022-08-04T14:40:30.000Z</time>
      </trkpt>
      <trkpt lat="49.33485" lon="-0.45976">
        <ele>1.92139</ele>
        <time>2022-08-04T14:40:31.000Z</time>
      </trkpt>
      <trkpt lat="49.33488" lon="-0.45973">
        <ele>1.920252</ele>
        <time>2022-08-04T14:40:32.000Z</time>
      </trkpt>
      <trkpt lat="49.3349" lon="-0.4597">
        <ele>1.919334</ele>
        <time>2022-08-04T14:40:33.000Z</time>
      </trkpt>
      <trkpt lat="49.33493" lon="-0.45964">
        <ele>1.917804</ele>
        <time>2022-08-04T14:40:34.000Z</time>
      </trkpt>
      <trkpt lat="49.33495" lon="-0.4596">
        <ele>1.916592</ele>
        <time>2022-08-04T14:40:35.000Z</time>
      </trkpt>
      <trkpt lat="49.33498" lon="-0.45955">
        <ele>1.915417</ele>
        <time>2022-08-04T14:40:36.000Z</time>
      </trkpt>
      <trkpt lat="49.335" lon="-0.45951">
        <ele>1.914352</ele>
        <time>2022-08-04T14:40:37.000Z</time>
      </trkpt>
      <trkpt lat="49.33501" lon="-0.45948">
        <ele>1.913498</ele>
        <time>2022-08-04T14:40:38.000Z</time>
      </trkpt>
      <trkpt lat="49.33502" lon="-0.45944">
        <ele>1.912551</ele>
        <time>2022-08-04T14:40:39.000Z</time>
      </trkpt>
      <trkpt lat="49.33505" lon="-0.45939">
        <ele>1.911266</ele>
        <time>2022-08-04T14:40:40.000Z</time>
      </trkpt>
      <trkpt lat="49.33507" lon="-0.45936">
        <ele>1.910142</ele>
        <time>2022-08-04T14:40:41.000Z</time>
      </trkpt>
      <trkpt lat="49.33509" lon="-0.45932">
        <ele>1.909225</ele>
        <time>2022-08-04T14:40:42.000Z</time>
      </trkpt>
      <trkpt lat="49.33512" lon="-0.45928">
        <ele>1.908028</ele>
        <time>2022-08-04T14:40:43.000Z</time>
      </trkpt>
      <trkpt lat="49.33516" lon="-0.45923">
        <ele>1.906312</ele>
        <time>2022-08-04T14:40:44.000Z</time>
      </trkpt>
      <trkpt lat="49.33519" lon="-0.45919">
        <ele>1.904915</ele>
        <time>2022-08-04T14:40:45.000Z</time>
      </trkpt>
      <trkpt lat="49.33523" lon="-0.45915">
        <ele>1.903432</ele>
        <time>2022-08-04T14:40:46.000Z</time>
      </trkpt>
      <trkpt lat="49.33525" lon="-0.45911">
        <ele>1.90236</ele>
        <time>2022-08-04T14:40:47.000Z</time>
      </trkpt>
      <trkpt lat="49.33529" lon="-0.45907">
        <ele>1.900889</ele>
        <time>2022-08-04T14:40:48.000Z</time>
      </trkpt>
      <trkpt lat="49.33531" lon="-0.45904">
        <ele>1.899792</ele>
        <time>2022-08-04T14:40:49.000Z</time>
      </trkpt>
      <trkpt lat="49.33533" lon="-0.459">
        <ele>1.898852</ele>
        <time>2022-08-04T14:40:50.000Z</time>
      </trkpt>
      <trkpt lat="49.33533" lon="-0.45893">
        <ele>1.89745</ele>
        <time>2022-08-04T14:40:52.000Z</time>
      </trkpt>
      <trkpt lat="49.33534" lon="-0.4589">
        <ele>1.896775</ele>
        <time>2022-08-04T14:40:53.000Z</time>
      </trkpt>
      <trkpt lat="49.33535" lon="-0.45887">
        <ele>1.895887</ele>
        <time>2022-08-04T14:40:54.000Z</time>
      </trkpt>
      <trkpt lat="49.33538" lon="-0.45883">
        <ele>1.894841</ele>
        <time>2022-08-04T14:40:55.000Z</time>
      </trkpt>
      <trkpt lat="49.3354" lon="-0.4588">
        <ele>1.893955</ele>
        <time>2022-08-04T14:40:56.000Z</time>
      </trkpt>
      <trkpt lat="49.33543" lon="-0.45875">
        <ele>1.8924</ele>
        <time>2022-08-04T14:40:57.000Z</time>
      </trkpt>
      <trkpt lat="49.33547" lon="-0.45871">
        <ele>1.890968</ele>
        <time>2022-08-04T14:40:58.000Z</time>
      </trkpt>
      <trkpt lat="49.33549" lon="-0.45868">
        <ele>1.88978</ele>
        <time>2022-08-04T14:40:59.000Z</time>
      </trkpt>
      <trkpt lat="49.33551" lon="-0.45865">
        <ele>1.888914</ele>
        <time>2022-08-04T14:41:00.000Z</time>
      </trkpt>
      <trkpt lat="49.33555" lon="-0.45862">
        <ele>1.887579</ele>
        <time>2022-08-04T14:41:01.000Z</time>
      </trkpt>
      <trkpt lat="49.33557" lon="-0.45859">
        <ele>1.886547</ele>
        <time>2022-08-04T14:41:02.000Z</time>
      </trkpt>
      <trkpt lat="49.33559" lon="-0.45855">
        <ele>1.885607</ele>
        <time>2022-08-04T14:41:03.000Z</time>
      </trkpt>
      <trkpt lat="49.33561" lon="-0.45852">
        <ele>1.884833</ele>
        <time>2022-08-04T14:41:04.000Z</time>
      </trkpt>
      <trkpt lat="49.33563" lon="-0.45849">
        <ele>1.883838</ele>
        <time>2022-08-04T14:41:05.000Z</time>
      </trkpt>
      <trkpt lat="49.33565" lon="-0.45847">
        <ele>1.882996</ele>
        <time>2022-08-04T14:41:06.000Z</time>
      </trkpt>
      <trkpt lat="49.33567" lon="-0.45844">
        <ele>1.882183</ele>
        <time>2022-08-04T14:41:07.000Z</time>
      </trkpt>
      <trkpt lat="49.33568" lon="-0.45841">
        <ele>1.881373</ele>
        <time>2022-08-04T14:41:09.000Z</time>
      </trkpt>
      <trkpt lat="49.33567" lon="-0.45837">
        <ele>1.880505</ele>
        <time>2022-08-04T14:41:11.000Z</time>
      </trkpt>
      <trkpt lat="49.33564" lon="-0.45839">
        <ele>1.884334</ele>
        <time>2022-08-04T14:41:13.000Z</time>
      </trkpt>
      <trkpt lat="49.33561" lon="-0.45844">
        <ele>1.901398</ele>
        <time>2022-08-04T14:41:15.000Z</time>
      </trkpt>
      <trkpt lat="49.33559" lon="-0.45847">
        <ele>1.91451</ele>
        <time>2022-08-04T14:41:17.000Z</time>
      </trkpt>
      <trkpt lat="49.33559" lon="-0.45843">
        <ele>1.927508</ele>
        <time>2022-08-04T14:41:20.000Z</time>
      </trkpt>
      <trkpt lat="49.33561" lon="-0.45841">
        <ele>1.93724</ele>
        <time>2022-08-04T14:41:22.000Z</time>
      </trkpt>
      <trkpt lat="49.33567" lon="-0.45834">
        <ele>1.968296</ele>
        <time>2022-08-04T14:41:52.000Z</time>
      </trkpt>
      <trkpt lat="49.33568" lon="-0.4583">
        <ele>1.98098</ele>
        <time>2022-08-04T14:41:53.000Z</time>
      </trkpt>
      <trkpt lat="49.33569" lon="-0.45827">
        <ele>1.990531</ele>
        <time>2022-08-04T14:41:54.000Z</time>
      </trkpt>
      <trkpt lat="49.3357" lon="-0.45822">
        <ele>2.005714</ele>
        <time>2022-08-04T14:41:55.000Z</time>
      </trkpt>
      <trkpt lat="49.33571" lon="-0.45817">
        <ele>2.019579</ele>
        <time>2022-08-04T14:41:56.000Z</time>
      </trkpt>
      <trkpt lat="49.33571" lon="-0.45812">
        <ele>2.034384</ele>
        <time>2022-08-04T14:41:57.000Z</time>
      </trkpt>
      <trkpt lat="49.33571" lon="-0.45806">
        <ele>2.050348</ele>
        <time>2022-08-04T14:41:58.000Z</time>
      </trkpt>
      <trkpt lat="49.33572" lon="-0.45801">
        <ele>2.063345</ele>
        <time>2022-08-04T14:41:59.000Z</time>
      </trkpt>
      <trkpt lat="49.33572" lon="-0.45795">
        <ele>2.080409</ele>
        <time>2022-08-04T14:42:00.000Z</time>
      </trkpt>
      <trkpt lat="49.33572" lon="-0.4579">
        <ele>2.09307</ele>
        <time>2022-08-04T14:42:01.000Z</time>
      </trkpt>
      <trkpt lat="49.33572" lon="-0.45786">
        <ele>2.10518</ele>
        <time>2022-08-04T14:42:02.000Z</time>
      </trkpt>
      <trkpt lat="49.33571" lon="-0.45783">
        <ele>2.11435</ele>
        <time>2022-08-04T14:42:03.000Z</time>
      </trkpt>
      <trkpt lat="49.33571" lon="-0.45778">
        <ele>2.1268</ele>
        <time>2022-08-04T14:42:04.000Z</time>
      </trkpt>
      <trkpt lat="49.33571" lon="-0.45774">
        <ele>2.137062</ele>
        <time>2022-08-04T14:42:05.000Z</time>
      </trkpt>
      <trkpt lat="49.3357" lon="-0.45771">
        <ele>2.147113</ele>
        <time>2022-08-04T14:42:06.000Z</time>
      </trkpt>
      <trkpt lat="49.3357" lon="-0.45767">
        <ele>2.156808</ele>
        <time>2022-08-04T14:42:07.000Z</time>
      </trkpt>
      <trkpt lat="49.33569" lon="-0.45764">
        <ele>2.167343</ele>
        <time>2022-08-04T14:42:08.000Z</time>
      </trkpt>
      <trkpt lat="49.33569" lon="-0.45759">
        <ele>2.180881</ele>
        <time>2022-08-04T14:42:09.000Z</time>
      </trkpt>
      <trkpt lat="49.33568" lon="-0.45755">
        <ele>2.19305</ele>
        <time>2022-08-04T14:42:10.000Z</time>
      </trkpt>
      <trkpt lat="49.33567" lon="-0.4575">
        <ele>2.205248</ele>
        <time>2022-08-04T14:42:11.000Z</time>
      </trkpt>
      <trkpt lat="49.33566" lon="-0.45746">
        <ele>2.216277</ele>
        <time>2022-08-04T14:42:12.000Z</time>
      </trkpt>
      <trkpt lat="49.33565" lon="-0.4574">
        <ele>2.234465</ele>
        <time>2022-08-04T14:42:13.000Z</time>
      </trkpt>
      <trkpt lat="49.33564" lon="-0.45735">
        <ele>2.250568</ele>
        <time>2022-08-04T14:42:14.000Z</time>
      </trkpt>
      <trkpt lat="49.33564" lon="-0.4573">
        <ele>2.263018</ele>
        <time>2022-08-04T14:42:15.000Z</time>
      </trkpt>
      <trkpt lat="49.33563" lon="-0.45724">
        <ele>2.280269</ele>
        <time>2022-08-04T14:42:16.000Z</time>
      </trkpt>
      <trkpt lat="49.33562" lon="-0.45717">
        <ele>2.300567</ele>
        <time>2022-08-04T14:42:17.000Z</time>
      </trkpt>
      <trkpt lat="49.33561" lon="-0.45708">
        <ele>2.324098</ele>
        <time>2022-08-04T14:42:18.000Z</time>
      </trkpt>
      <trkpt lat="49.3356" lon="-0.45701">
        <ele>2.345496</ele>
        <time>2022-08-04T14:42:19.000Z</time>
      </trkpt>
      <trkpt lat="49.33559" lon="-0.45693">
        <ele>2.367298</ele>
        <time>2022-08-04T14:42:20.000Z</time>
      </trkpt>
      <trkpt lat="49.33559" lon="-0.45687">
        <ele>2.384616</ele>
        <time>2022-08-04T14:42:21.000Z</time>
      </trkpt>
      <trkpt lat="49.33558" lon="-0.45677">
        <ele>2.410221</ele>
        <time>2022-08-04T14:42:22.000Z</time>
      </trkpt>
      <trkpt lat="49.33557" lon="-0.4567">
        <ele>2.431074</ele>
        <time>2022-08-04T14:42:23.000Z</time>
      </trkpt>
      <trkpt lat="49.33556" lon="-0.45662">
        <ele>2.453233</ele>
        <time>2022-08-04T14:42:24.000Z</time>
      </trkpt>
      <trkpt lat="49.33555" lon="-0.45654">
        <ele>2.475396</ele>
        <time>2022-08-04T14:42:25.000Z</time>
      </trkpt>
      <trkpt lat="49.33555" lon="-0.45648">
        <ele>2.491959</ele>
        <time>2022-08-04T14:42:26.000Z</time>
      </trkpt>
      <trkpt lat="49.33554" lon="-0.45639">
        <ele>2.518137</ele>
        <time>2022-08-04T14:42:27.000Z</time>
      </trkpt>
      <trkpt lat="49.33553" lon="-0.45631">
        <ele>2.539747</ele>
        <time>2022-08-04T14:42:28.000Z</time>
      </trkpt>
      <trkpt lat="49.33551" lon="-0.45624">
        <ele>2.561467</ele>
        <time>2022-08-04T14:42:29.000Z</time>
      </trkpt>
      <trkpt lat="49.3355" lon="-0.45616">
        <ele>2.581718</ele>
        <time>2022-08-04T14:42:30.000Z</time>
      </trkpt>
      <trkpt lat="49.33549" lon="-0.45609">
        <ele>2.602518</ele>
        <time>2022-08-04T14:42:31.000Z</time>
      </trkpt>
      <trkpt lat="49.33549" lon="-0.45603">
        <ele>2.61908</ele>
        <time>2022-08-04T14:42:32.000Z</time>
      </trkpt>
      <trkpt lat="49.33549" lon="-0.45594">
        <ele>2.635928</ele>
        <time>2022-08-04T14:42:33.000Z</time>
      </trkpt>
      <trkpt lat="49.33548" lon="-0.45587">
        <ele>2.617552</ele>
        <time>2022-08-04T14:42:34.000Z</time>
      </trkpt>
      <trkpt lat="49.33547" lon="-0.4558">
        <ele>2.599454</ele>
        <time>2022-08-04T14:42:35.000Z</time>
      </trkpt>
      <trkpt lat="49.33546" lon="-0.45572">
        <ele>2.580841</ele>
        <time>2022-08-04T14:42:36.000Z</time>
      </trkpt>
      <trkpt lat="49.33545" lon="-0.45565">
        <ele>2.562252</ele>
        <time>2022-08-04T14:42:37.000Z</time>
      </trkpt>
      <trkpt lat="49.33544" lon="-0.45557">
        <ele>2.543253</ele>
        <time>2022-08-04T14:42:38.000Z</time>
      </trkpt>
      <trkpt lat="49.33543" lon="-0.4555">
        <ele>2.524131</ele>
        <time>2022-08-04T14:42:39.000Z</time>
      </trkpt>
      <trkpt lat="49.33542" lon="-0.45542">
        <ele>2.504657</ele>
        <time>2022-08-04T14:42:40.000Z</time>
      </trkpt>
      <trkpt lat="49.33541" lon="-0.45534">
        <ele>2.485779</ele>
        <time>2022-08-04T14:42:41.000Z</time>
      </trkpt>
      <trkpt lat="49.3354" lon="-0.45527">
        <ele>2.466214</ele>
        <time>2022-08-04T14:42:42.000Z</time>
      </trkpt>
      <trkpt lat="49.33539" lon="-0.45521">
        <ele>2.451284</ele>
        <time>2022-08-04T14:42:43.000Z</time>
      </trkpt>
      <trkpt lat="49.33539" lon="-0.45512">
        <ele>2.429521</ele>
        <time>2022-08-04T14:42:44.000Z</time>
      </trkpt>
      <trkpt lat="49.33538" lon="-0.45504">
        <ele>2.410209</ele>
        <time>2022-08-04T14:42:45.000Z</time>
      </trkpt>
      <trkpt lat="49.33537" lon="-0.45498">
        <ele>2.394793</ele>
        <time>2022-08-04T14:42:46.000Z</time>
      </trkpt>
      <trkpt lat="49.33536" lon="-0.4549">
        <ele>2.375963</ele>
        <time>2022-08-04T14:42:47.000Z</time>
      </trkpt>
      <trkpt lat="49.33535" lon="-0.45483">
        <ele>2.356893</ele>
        <time>2022-08-04T14:42:48.000Z</time>
      </trkpt>
      <trkpt lat="49.33534" lon="-0.45473">
        <ele>2.333417</ele>
        <time>2022-08-04T14:42:49.000Z</time>
      </trkpt>
      <trkpt lat="49.33533" lon="-0.45465">
        <ele>2.313137</ele>
        <time>2022-08-04T14:42:50.000Z</time>
      </trkpt>
      <trkpt lat="49.33533" lon="-0.45457">
        <ele>2.292108</ele>
        <time>2022-08-04T14:42:51.000Z</time>
      </trkpt>
      <trkpt lat="49.33531" lon="-0.45448">
        <ele>2.270634</ele>
        <time>2022-08-04T14:42:52.000Z</time>
      </trkpt>
      <trkpt lat="49.3353" lon="-0.4544">
        <ele>2.249398</ele>
        <time>2022-08-04T14:42:53.000Z</time>
      </trkpt>
      <trkpt lat="49.33529" lon="-0.45432">
        <ele>2.228858</ele>
        <time>2022-08-04T14:42:54.000Z</time>
      </trkpt>
      <trkpt lat="49.33529" lon="-0.45423">
        <ele>2.208517</ele>
        <time>2022-08-04T14:42:55.000Z</time>
      </trkpt>
      <trkpt lat="49.33527" lon="-0.45415">
        <ele>2.188085</ele>
        <time>2022-08-04T14:42:56.000Z</time>
      </trkpt>
      <trkpt lat="49.33527" lon="-0.45409">
        <ele>2.172609</ele>
        <time>2022-08-04T14:42:57.000Z</time>
      </trkpt>
      <trkpt lat="49.33526" lon="-0.454">
        <ele>2.149483</ele>
        <time>2022-08-04T14:42:58.000Z</time>
      </trkpt>
      <trkpt lat="49.33525" lon="-0.45393">
        <ele>2.132097</ele>
        <time>2022-08-04T14:42:59.000Z</time>
      </trkpt>
      <trkpt lat="49.33524" lon="-0.45386">
        <ele>2.114951</ele>
        <time>2022-08-04T14:43:00.000Z</time>
      </trkpt>
      <trkpt lat="49.33523" lon="-0.45379">
        <ele>2.098073</ele>
        <time>2022-08-04T14:43:01.000Z</time>
      </trkpt>
      <trkpt lat="49.33522" lon="-0.45372">
        <ele>2.080406</ele>
        <time>2022-08-04T14:43:02.000Z</time>
      </trkpt>
      <trkpt lat="49.33522" lon="-0.45367">
        <ele>2.067321</ele>
        <time>2022-08-04T14:43:03.000Z</time>
      </trkpt>
      <trkpt lat="49.33521" lon="-0.45359">
        <ele>2.047612</ele>
        <time>2022-08-04T14:43:04.000Z</time>
      </trkpt>
      <trkpt lat="49.33521" lon="-0.45352">
        <ele>2.030922</ele>
        <time>2022-08-04T14:43:05.000Z</time>
      </trkpt>
      <trkpt lat="49.33521" lon="-0.45347">
        <ele>2.017886</ele>
        <time>2022-08-04T14:43:06.000Z</time>
      </trkpt>
      <trkpt lat="49.3352" lon="-0.4534">
        <ele>1.999612</ele>
        <time>2022-08-04T14:43:07.000Z</time>
      </trkpt>
      <trkpt lat="49.33519" lon="-0.45331">
        <ele>1.977563</ele>
        <time>2022-08-04T14:43:08.000Z</time>
      </trkpt>
      <trkpt lat="49.33518" lon="-0.45325">
        <ele>1.96189</ele>
        <time>2022-08-04T14:43:09.000Z</time>
      </trkpt>
      <trkpt lat="49.33517" lon="-0.45317">
        <ele>1.933179</ele>
        <time>2022-08-04T14:43:10.000Z</time>
      </trkpt>
      <trkpt lat="49.33516" lon="-0.45307">
        <ele>1.897387</ele>
        <time>2022-08-04T14:43:11.000Z</time>
      </trkpt>
      <trkpt lat="49.33515" lon="-0.45299">
        <ele>1.867453</ele>
        <time>2022-08-04T14:43:12.000Z</time>
      </trkpt>
      <trkpt lat="49.33514" lon="-0.45291">
        <ele>1.836694</ele>
        <time>2022-08-04T14:43:13.000Z</time>
      </trkpt>
      <trkpt lat="49.33513" lon="-0.45283">
        <ele>1.806268</ele>
        <time>2022-08-04T14:43:14.000Z</time>
      </trkpt>
      <trkpt lat="49.33512" lon="-0.45275">
        <ele>1.777318</ele>
        <time>2022-08-04T14:43:15.000Z</time>
      </trkpt>
      <trkpt lat="49.33511" lon="-0.45268">
        <ele>1.748358</ele>
        <time>2022-08-04T14:43:16.000Z</time>
      </trkpt>
      <trkpt lat="49.3351" lon="-0.4526">
        <ele>1.717957</ele>
        <time>2022-08-04T14:43:17.000Z</time>
      </trkpt>
      <trkpt lat="49.33509" lon="-0.45252">
        <ele>1.68973</ele>
        <time>2022-08-04T14:43:18.000Z</time>
      </trkpt>
      <trkpt lat="49.33508" lon="-0.45245">
        <ele>1.661611</ele>
        <time>2022-08-04T14:43:19.000Z</time>
      </trkpt>
      <trkpt lat="49.33507" lon="-0.45237">
        <ele>1.634467</ele>
        <time>2022-08-04T14:43:20.000Z</time>
      </trkpt>
      <trkpt lat="49.33506" lon="-0.4523">
        <ele>1.605851</ele>
        <time>2022-08-04T14:43:21.000Z</time>
      </trkpt>
      <trkpt lat="49.33505" lon="-0.45223">
        <ele>1.578721</ele>
        <time>2022-08-04T14:43:22.000Z</time>
      </trkpt>
      <trkpt lat="49.33504" lon="-0.45215">
        <ele>1.550105</ele>
        <time>2022-08-04T14:43:23.000Z</time>
      </trkpt>
      <trkpt lat="49.33503" lon="-0.45209">
        <ele>1.526994</ele>
        <time>2022-08-04T14:43:24.000Z</time>
      </trkpt>
      <trkpt lat="49.33502" lon="-0.452">
        <ele>1.491922</ele>
        <time>2022-08-04T14:43:25.000Z</time>
      </trkpt>
      <trkpt lat="49.33501" lon="-0.45192">
        <ele>1.46216</ele>
        <time>2022-08-04T14:43:26.000Z</time>
      </trkpt>
      <trkpt lat="49.335" lon="-0.45184">
        <ele>1.432967</ele>
        <time>2022-08-04T14:43:27.000Z</time>
      </trkpt>
      <trkpt lat="49.33499" lon="-0.45178">
        <ele>1.409774</ele>
        <time>2022-08-04T14:43:28.000Z</time>
      </trkpt>
      <trkpt lat="49.33498" lon="-0.45168">
        <ele>1.374342</ele>
        <time>2022-08-04T14:43:29.000Z</time>
      </trkpt>
      <trkpt lat="49.33496" lon="-0.4516">
        <ele>1.343486</ele>
        <time>2022-08-04T14:43:30.000Z</time>
      </trkpt>
      <trkpt lat="49.33495" lon="-0.45152">
        <ele>1.313189</ele>
        <time>2022-08-04T14:43:31.000Z</time>
      </trkpt>
      <trkpt lat="49.33494" lon="-0.45144">
        <ele>1.28092</ele>
        <time>2022-08-04T14:43:32.000Z</time>
      </trkpt>
      <trkpt lat="49.33493" lon="-0.45136">
        <ele>1.250884</ele>
        <time>2022-08-04T14:43:33.000Z</time>
      </trkpt>
      <trkpt lat="49.33491" lon="-0.45128">
        <ele>1.219676</ele>
        <time>2022-08-04T14:43:34.000Z</time>
      </trkpt>
      <trkpt lat="49.3349" lon="-0.45119">
        <ele>1.187482</ele>
        <time>2022-08-04T14:43:35.000Z</time>
      </trkpt>
      <trkpt lat="49.33488" lon="-0.45111">
        <ele>1.15486</ele>
        <time>2022-08-04T14:43:36.000Z</time>
      </trkpt>
      <trkpt lat="49.33487" lon="-0.45102">
        <ele>1.122379</ele>
        <time>2022-08-04T14:43:37.000Z</time>
      </trkpt>
      <trkpt lat="49.33486" lon="-0.45093">
        <ele>1.089467</ele>
        <time>2022-08-04T14:43:38.000Z</time>
      </trkpt>
      <trkpt lat="49.33485" lon="-0.45085">
        <ele>1.056915</ele>
        <time>2022-08-04T14:43:39.000Z</time>
      </trkpt>
      <trkpt lat="49.33484" lon="-0.45076">
        <ele>1.024722</ele>
        <time>2022-08-04T14:43:40.000Z</time>
      </trkpt>
      <trkpt lat="49.33482" lon="-0.45068">
        <ele>0.992529</ele>
        <time>2022-08-04T14:43:41.000Z</time>
      </trkpt>
      <trkpt lat="49.33481" lon="-0.45059">
        <ele>0.960048</ele>
        <time>2022-08-04T14:43:42.000Z</time>
      </trkpt>
      <trkpt lat="49.33479" lon="-0.45051">
        <ele>0.948159</ele>
        <time>2022-08-04T14:43:43.000Z</time>
      </trkpt>
      <trkpt lat="49.33478" lon="-0.45042">
        <ele>0.959112</ele>
        <time>2022-08-04T14:43:44.000Z</time>
      </trkpt>
      <trkpt lat="49.33477" lon="-0.45034">
        <ele>0.969971</ele>
        <time>2022-08-04T14:43:45.000Z</time>
      </trkpt>
      <trkpt lat="49.33475" lon="-0.45025">
        <ele>0.980802</ele>
        <time>2022-08-04T14:43:46.000Z</time>
      </trkpt>
      <trkpt lat="49.33474" lon="-0.45017">
        <ele>0.99166</ele>
        <time>2022-08-04T14:43:47.000Z</time>
      </trkpt>
      <trkpt lat="49.33472" lon="-0.45009">
        <ele>1.00276</ele>
        <time>2022-08-04T14:43:48.000Z</time>
      </trkpt>
      <trkpt lat="49.33471" lon="-0.45">
        <ele>1.013349</ele>
        <time>2022-08-04T14:43:49.000Z</time>
      </trkpt>
      <trkpt lat="49.33469" lon="-0.44992">
        <ele>1.024327</ele>
        <time>2022-08-04T14:43:50.000Z</time>
      </trkpt>
      <trkpt lat="49.33468" lon="-0.44984">
        <ele>1.034993</ele>
        <time>2022-08-04T14:43:51.000Z</time>
      </trkpt>
      <trkpt lat="49.33467" lon="-0.44975">
        <ele>1.045702</ele>
        <time>2022-08-04T14:43:52.000Z</time>
      </trkpt>
      <trkpt lat="49.33466" lon="-0.44967">
        <ele>1.056289</ele>
        <time>2022-08-04T14:43:53.000Z</time>
      </trkpt>
      <trkpt lat="49.33465" lon="-0.44959">
        <ele>1.066392</ele>
        <time>2022-08-04T14:43:54.000Z</time>
      </trkpt>
      <trkpt lat="49.33464" lon="-0.44951">
        <ele>1.076735</ele>
        <time>2022-08-04T14:43:55.000Z</time>
      </trkpt>
      <trkpt lat="49.33462" lon="-0.44943">
        <ele>1.086714</ele>
        <time>2022-08-04T14:43:56.000Z</time>
      </trkpt>
      <trkpt lat="49.33462" lon="-0.44936">
        <ele>1.096193</ele>
        <time>2022-08-04T14:43:57.000Z</time>
      </trkpt>
      <trkpt lat="49.33461" lon="-0.44929">
        <ele>1.10545</ele>
        <time>2022-08-04T14:43:58.000Z</time>
      </trkpt>
      <trkpt lat="49.3346" lon="-0.44921">
        <ele>1.114944</ele>
        <time>2022-08-04T14:43:59.000Z</time>
      </trkpt>
      <trkpt lat="49.33458" lon="-0.44914">
        <ele>1.124844</ele>
        <time>2022-08-04T14:44:00.000Z</time>
      </trkpt>
      <trkpt lat="49.33457" lon="-0.44906">
        <ele>1.134658</ele>
        <time>2022-08-04T14:44:01.000Z</time>
      </trkpt>
      <trkpt lat="49.33456" lon="-0.44898">
        <ele>1.144797</ele>
        <time>2022-08-04T14:44:02.000Z</time>
      </trkpt>
      <trkpt lat="49.33455" lon="-0.44891">
        <ele>1.154426</ele>
        <time>2022-08-04T14:44:03.000Z</time>
      </trkpt>
      <trkpt lat="49.33454" lon="-0.44883">
        <ele>1.163993</ele>
        <time>2022-08-04T14:44:04.000Z</time>
      </trkpt>
      <trkpt lat="49.33452" lon="-0.44876">
        <ele>1.173417</ele>
        <time>2022-08-04T14:44:05.000Z</time>
      </trkpt>
      <trkpt lat="49.33451" lon="-0.44869">
        <ele>1.182285</ele>
        <time>2022-08-04T14:44:06.000Z</time>
      </trkpt>
      <trkpt lat="49.3345" lon="-0.44862">
        <ele>1.191275</ele>
        <time>2022-08-04T14:44:07.000Z</time>
      </trkpt>
      <trkpt lat="49.33449" lon="-0.44856">
        <ele>1.199734</ele>
        <time>2022-08-04T14:44:08.000Z</time>
      </trkpt>
      <trkpt lat="49.33448" lon="-0.4485">
        <ele>1.206777</ele>
        <time>2022-08-04T14:44:09.000Z</time>
      </trkpt>
      <trkpt lat="49.33447" lon="-0.44843">
        <ele>1.216634</ele>
        <time>2022-08-04T14:44:10.000Z</time>
      </trkpt>
      <trkpt lat="49.33446" lon="-0.44836">
        <ele>1.224848</ele>
        <time>2022-08-04T14:44:11.000Z</time>
      </trkpt>
      <trkpt lat="49.33445" lon="-0.4483">
        <ele>1.233227</ele>
        <time>2022-08-04T14:44:12.000Z</time>
      </trkpt>
      <trkpt lat="49.33444" lon="-0.44825">
        <ele>1.240331</ele>
        <time>2022-08-04T14:44:13.000Z</time>
      </trkpt>
      <trkpt lat="49.33442" lon="-0.44816">
        <ele>1.251069</ele>
        <time>2022-08-04T14:44:14.000Z</time>
      </trkpt>
      <trkpt lat="49.33441" lon="-0.44809">
        <ele>1.260494</ele>
        <time>2022-08-04T14:44:15.000Z</time>
      </trkpt>
      <trkpt lat="49.3344" lon="-0.44802">
        <ele>1.269322</ele>
        <time>2022-08-04T14:44:16.000Z</time>
      </trkpt>
      <trkpt lat="49.33438" lon="-0.44795">
        <ele>1.278747</ele>
        <time>2022-08-04T14:44:17.000Z</time>
      </trkpt>
      <trkpt lat="49.33437" lon="-0.44788">
        <ele>1.288252</ele>
        <time>2022-08-04T14:44:18.000Z</time>
      </trkpt>
      <trkpt lat="49.33436" lon="-0.4478">
        <ele>1.287826</ele>
        <time>2022-08-04T14:44:19.000Z</time>
      </trkpt>
      <trkpt lat="49.33434" lon="-0.44773">
        <ele>1.286529</ele>
        <time>2022-08-04T14:44:20.000Z</time>
      </trkpt>
      <trkpt lat="49.33433" lon="-0.44766">
        <ele>1.285244</ele>
        <time>2022-08-04T14:44:21.000Z</time>
      </trkpt>
      <trkpt lat="49.33432" lon="-0.44758">
        <ele>1.283937</ele>
        <time>2022-08-04T14:44:22.000Z</time>
      </trkpt>
      <trkpt lat="49.33431" lon="-0.4475">
        <ele>1.282597</ele>
        <time>2022-08-04T14:44:23.000Z</time>
      </trkpt>
      <trkpt lat="49.3343" lon="-0.44743">
        <ele>1.281312</ele>
        <time>2022-08-04T14:44:24.000Z</time>
      </trkpt>
      <trkpt lat="49.33428" lon="-0.44735">
        <ele>1.279967</ele>
        <time>2022-08-04T14:44:25.000Z</time>
      </trkpt>
      <trkpt lat="49.33427" lon="-0.44728">
        <ele>1.278644</ele>
        <time>2022-08-04T14:44:26.000Z</time>
      </trkpt>
      <trkpt lat="49.33426" lon="-0.4472">
        <ele>1.277288</ele>
        <time>2022-08-04T14:44:27.000Z</time>
      </trkpt>
      <trkpt lat="49.33425" lon="-0.44712">
        <ele>1.275915</ele>
        <time>2022-08-04T14:44:28.000Z</time>
      </trkpt>
      <trkpt lat="49.33424" lon="-0.44704">
        <ele>1.27463</ele>
        <time>2022-08-04T14:44:29.000Z</time>
      </trkpt>
      <trkpt lat="49.33422" lon="-0.44697">
        <ele>1.273274</ele>
        <time>2022-08-04T14:44:30.000Z</time>
      </trkpt>
      <trkpt lat="49.33421" lon="-0.44689">
        <ele>1.271935</ele>
        <time>2022-08-04T14:44:31.000Z</time>
      </trkpt>
      <trkpt lat="49.3342" lon="-0.44681">
        <ele>1.270605</ele>
        <time>2022-08-04T14:44:32.000Z</time>
      </trkpt>
      <trkpt lat="49.33419" lon="-0.44674">
        <ele>1.269304</ele>
        <time>2022-08-04T14:44:33.000Z</time>
      </trkpt>
      <trkpt lat="49.33418" lon="-0.44666">
        <ele>1.267981</ele>
        <time>2022-08-04T14:44:34.000Z</time>
      </trkpt>
      <trkpt lat="49.33416" lon="-0.44658">
        <ele>1.266641</ele>
        <time>2022-08-04T14:44:35.000Z</time>
      </trkpt>
      <trkpt lat="49.33415" lon="-0.44651">
        <ele>1.26534</ele>
        <time>2022-08-04T14:44:36.000Z</time>
      </trkpt>
      <trkpt lat="49.33414" lon="-0.44643">
        <ele>1.264</ele>
        <time>2022-08-04T14:44:37.000Z</time>
      </trkpt>
      <trkpt lat="49.33413" lon="-0.44635">
        <ele>1.26266</ele>
        <time>2022-08-04T14:44:38.000Z</time>
      </trkpt>
      <trkpt lat="49.33412" lon="-0.44629">
        <ele>1.261504</ele>
        <time>2022-08-04T14:44:39.000Z</time>
      </trkpt>
      <trkpt lat="49.33411" lon="-0.44623">
        <ele>1.260518</ele>
        <time>2022-08-04T14:44:40.000Z</time>
      </trkpt>
      <trkpt lat="49.3341" lon="-0.44615">
        <ele>1.259179</ele>
        <time>2022-08-04T14:44:41.000Z</time>
      </trkpt>
      <trkpt lat="49.33409" lon="-0.44609">
        <ele>1.258082</ele>
        <time>2022-08-04T14:44:42.000Z</time>
      </trkpt>
      <trkpt lat="49.33408" lon="-0.44604">
        <ele>1.25727</ele>
        <time>2022-08-04T14:44:43.000Z</time>
      </trkpt>
      <trkpt lat="49.33407" lon="-0.44598">
        <ele>1.256167</ele>
        <time>2022-08-04T14:44:44.000Z</time>
      </trkpt>
      <trkpt lat="49.33406" lon="-0.44591">
        <ele>1.254924</ele>
        <time>2022-08-04T14:44:45.000Z</time>
      </trkpt>
      <trkpt lat="49.33405" lon="-0.44585">
        <ele>1.253954</ele>
        <time>2022-08-04T14:44:46.000Z</time>
      </trkpt>
      <trkpt lat="49.33404" lon="-0.44582">
        <ele>1.253296</ele>
        <time>2022-08-04T14:44:47.000Z</time>
      </trkpt>
      <trkpt lat="49.33403" lon="-0.44576">
        <ele>1.25225</ele>
        <time>2022-08-04T14:44:48.000Z</time>
      </trkpt>
      <trkpt lat="49.33402" lon="-0.44572">
        <ele>1.251633</ele>
        <time>2022-08-04T14:44:49.000Z</time>
      </trkpt>
      <trkpt lat="49.33402" lon="-0.44569">
        <ele>1.250993</ele>
        <time>2022-08-04T14:44:50.000Z</time>
      </trkpt>
      <trkpt lat="49.33403" lon="-0.44565">
        <ele>1.250318</ele>
        <time>2022-08-04T14:44:51.000Z</time>
      </trkpt>
      <trkpt lat="49.33405" lon="-0.44563">
        <ele>1.249693</ele>
        <time>2022-08-04T14:44:52.000Z</time>
      </trkpt>
      <trkpt lat="49.33406" lon="-0.44561">
        <ele>1.249225</ele>
        <time>2022-08-04T14:44:53.000Z</time>
      </trkpt>
      <trkpt lat="49.3341" lon="-0.4456">
        <ele>1.24836</ele>
        <time>2022-08-04T14:44:54.000Z</time>
      </trkpt>
      <trkpt lat="49.33412" lon="-0.44559">
        <ele>1.247671</ele>
        <time>2022-08-04T14:44:55.000Z</time>
      </trkpt>
      <trkpt lat="49.33414" lon="-0.44558">
        <ele>1.247096</ele>
        <time>2022-08-04T14:44:56.000Z</time>
      </trkpt>
      <trkpt lat="49.33418" lon="-0.44558">
        <ele>1.246104</ele>
        <time>2022-08-04T14:44:57.000Z</time>
      </trkpt>
      <trkpt lat="49.33422" lon="-0.44557">
        <ele>1.245166</ele>
        <time>2022-08-04T14:44:58.000Z</time>
      </trkpt>
      <trkpt lat="49.33426" lon="-0.44556">
        <ele>1.244174</ele>
        <time>2022-08-04T14:44:59.000Z</time>
      </trkpt>
      <trkpt lat="49.33429" lon="-0.44555">
        <ele>1.243339</ele>
        <time>2022-08-04T14:45:00.000Z</time>
      </trkpt>
      <trkpt lat="49.33433" lon="-0.44555">
        <ele>1.251581</ele>
        <time>2022-08-04T14:45:01.000Z</time>
      </trkpt>
      <trkpt lat="49.33436" lon="-0.44554">
        <ele>1.297876</ele>
        <time>2022-08-04T14:45:02.000Z</time>
      </trkpt>
      <trkpt lat="49.3344" lon="-0.44554">
        <ele>1.346636</ele>
        <time>2022-08-04T14:45:03.000Z</time>
      </trkpt>
      <trkpt lat="49.33444" lon="-0.44553">
        <ele>1.392006</ele>
        <time>2022-08-04T14:45:04.000Z</time>
      </trkpt>
      <trkpt lat="49.33447" lon="-0.44552">
        <ele>1.437031</ele>
        <time>2022-08-04T14:45:05.000Z</time>
      </trkpt>
      <trkpt lat="49.33451" lon="-0.44552">
        <ele>1.483423</ele>
        <time>2022-08-04T14:45:06.000Z</time>
      </trkpt>
      <trkpt lat="49.33453" lon="-0.44551">
        <ele>1.519462</ele>
        <time>2022-08-04T14:45:07.000Z</time>
      </trkpt>
      <trkpt lat="49.33458" lon="-0.4455">
        <ele>1.57408</ele>
        <time>2022-08-04T14:45:08.000Z</time>
      </trkpt>
      <trkpt lat="49.33461" lon="-0.44549">
        <ele>1.619595</ele>
        <time>2022-08-04T14:45:09.000Z</time>
      </trkpt>
      <trkpt lat="49.33465" lon="-0.44548">
        <ele>1.669898</ele>
        <time>2022-08-04T14:45:10.000Z</time>
      </trkpt>
      <trkpt lat="49.33468" lon="-0.44548">
        <ele>1.705783</ele>
        <time>2022-08-04T14:45:11.000Z</time>
      </trkpt>
      <trkpt lat="49.33472" lon="-0.44547">
        <ele>1.756334</ele>
        <time>2022-08-04T14:45:12.000Z</time>
      </trkpt>
      <trkpt lat="49.33476" lon="-0.44546">
        <ele>1.805624</ele>
        <time>2022-08-04T14:45:13.000Z</time>
      </trkpt>
      <trkpt lat="49.33479" lon="-0.44545">
        <ele>1.850994</ele>
        <time>2022-08-04T14:45:14.000Z</time>
      </trkpt>
      <trkpt lat="49.33483" lon="-0.44544">
        <ele>1.901298</ele>
        <time>2022-08-04T14:45:15.000Z</time>
      </trkpt>
      <trkpt lat="49.33486" lon="-0.44543">
        <ele>1.947756</ele>
        <time>2022-08-04T14:45:16.000Z</time>
      </trkpt>
      <trkpt lat="49.3349" lon="-0.44541">
        <ele>1.995504</ele>
        <time>2022-08-04T14:45:17.000Z</time>
      </trkpt>
      <trkpt lat="49.33493" lon="-0.44539">
        <ele>2.039678</ele>
        <time>2022-08-04T14:45:18.000Z</time>
      </trkpt>
      <trkpt lat="49.33497" lon="-0.44535">
        <ele>2.102873</ele>
        <time>2022-08-04T14:45:19.000Z</time>
      </trkpt>
      <trkpt lat="49.33501" lon="-0.44531">
        <ele>2.158664</ele>
        <time>2022-08-04T14:45:20.000Z</time>
      </trkpt>
      <trkpt lat="49.33504" lon="-0.44526">
        <ele>2.212588</ele>
        <time>2022-08-04T14:45:21.000Z</time>
      </trkpt>
      <trkpt lat="49.33507" lon="-0.44521">
        <ele>2.272781</ele>
        <time>2022-08-04T14:45:22.000Z</time>
      </trkpt>
      <trkpt lat="49.33509" lon="-0.44515">
        <ele>2.328356</ele>
        <time>2022-08-04T14:45:23.000Z</time>
      </trkpt>
      <trkpt lat="49.3351" lon="-0.44508">
        <ele>2.383996</ele>
        <time>2022-08-04T14:45:24.000Z</time>
      </trkpt>
      <trkpt lat="49.33511" lon="-0.44502">
        <ele>2.437727</ele>
        <time>2022-08-04T14:45:25.000Z</time>
      </trkpt>
      <trkpt lat="49.33511" lon="-0.44496">
        <ele>2.489378</ele>
        <time>2022-08-04T14:45:26.000Z</time>
      </trkpt>
      <trkpt lat="49.33511" lon="-0.44489">
        <ele>2.541172</ele>
        <time>2022-08-04T14:45:27.000Z</time>
      </trkpt>
      <trkpt lat="49.33511" lon="-0.44483">
        <ele>2.591157</ele>
        <time>2022-08-04T14:45:28.000Z</time>
      </trkpt>
      <trkpt lat="49.33511" lon="-0.44478">
        <ele>2.639476</ele>
        <time>2022-08-04T14:45:29.000Z</time>
      </trkpt>
      <trkpt lat="49.33511" lon="-0.44472">
        <ele>2.689723</ele>
        <time>2022-08-04T14:45:30.000Z</time>
      </trkpt>
      <trkpt lat="49.33511" lon="-0.44466">
        <ele>2.737209</ele>
        <time>2022-08-04T14:45:31.000Z</time>
      </trkpt>
      <trkpt lat="49.33511" lon="-0.4446">
        <ele>2.783029</ele>
        <time>2022-08-04T14:45:32.000Z</time>
      </trkpt>
      <trkpt lat="49.33511" lon="-0.44455">
        <ele>2.825823</ele>
        <time>2022-08-04T14:45:33.000Z</time>
      </trkpt>
      <trkpt lat="49.33511" lon="-0.4445">
        <ele>2.870973</ele>
        <time>2022-08-04T14:45:34.000Z</time>
      </trkpt>
      <trkpt lat="49.33511" lon="-0.44445">
        <ele>2.909486</ele>
        <time>2022-08-04T14:45:35.000Z</time>
      </trkpt>
      <trkpt lat="49.33512" lon="-0.44441">
        <ele>2.945178</ele>
        <time>2022-08-04T14:45:36.000Z</time>
      </trkpt>
      <trkpt lat="49.33513" lon="-0.44438">
        <ele>2.976593</ele>
        <time>2022-08-04T14:45:37.000Z</time>
      </trkpt>
      <trkpt lat="49.33516" lon="-0.44437">
        <ele>3.007371</ele>
        <time>2022-08-04T14:45:38.000Z</time>
      </trkpt>
      <trkpt lat="49.33518" lon="-0.44437">
        <ele>3.036775</ele>
        <time>2022-08-04T14:45:39.000Z</time>
      </trkpt>
      <trkpt lat="49.33522" lon="-0.44437">
        <ele>3.085421</ele>
        <time>2022-08-04T14:45:40.000Z</time>
      </trkpt>
      <trkpt lat="49.33525" lon="-0.44437">
        <ele>3.126366</ele>
        <time>2022-08-04T14:45:41.000Z</time>
      </trkpt>
      <trkpt lat="49.33528" lon="-0.44437">
        <ele>3.163525</ele>
        <time>2022-08-04T14:45:42.000Z</time>
      </trkpt>
      <trkpt lat="49.33531" lon="-0.44438">
        <ele>3.20447</ele>
        <time>2022-08-04T14:45:43.000Z</time>
      </trkpt>
      <trkpt lat="49.33533" lon="-0.44438">
        <ele>3.236475</ele>
        <time>2022-08-04T14:45:44.000Z</time>
      </trkpt>
      <trkpt lat="49.33536" lon="-0.44437">
        <ele>3.269882</ele>
        <time>2022-08-04T14:45:45.000Z</time>
      </trkpt>
      <trkpt lat="49.33539" lon="-0.44437">
        <ele>3.303216</ele>
        <time>2022-08-04T14:45:46.000Z</time>
      </trkpt>
      <trkpt lat="49.33541" lon="-0.44437">
        <ele>3.335275</ele>
        <time>2022-08-04T14:45:47.000Z</time>
      </trkpt>
      <trkpt lat="49.33543" lon="-0.44438">
        <ele>3.359623</ele>
        <time>2022-08-04T14:45:48.000Z</time>
      </trkpt>
      <trkpt lat="49.33545" lon="-0.44437">
        <ele>3.385246</ele>
        <time>2022-08-04T14:45:49.000Z</time>
      </trkpt>
      <trkpt lat="49.33547" lon="-0.44437">
        <ele>3.409891</ele>
        <time>2022-08-04T14:45:50.000Z</time>
      </trkpt>
      <trkpt lat="49.33549" lon="-0.44434">
        <ele>3.442437</ele>
        <time>2022-08-04T14:45:52.000Z</time>
      </trkpt>
      <trkpt lat="49.33549" lon="-0.44431">
        <ele>3.473499</ele>
        <time>2022-08-04T14:45:54.000Z</time>
      </trkpt>
      <trkpt lat="49.33552" lon="-0.44424">
        <ele>3.541468</ele>
        <time>2022-08-04T14:46:10.000Z</time>
      </trkpt>
      <trkpt lat="49.33555" lon="-0.44421">
        <ele>3.521828</ele>
        <time>2022-08-04T14:46:12.000Z</time>
      </trkpt>
      <trkpt lat="49.33556" lon="-0.44416">
        <ele>3.503322</ele>
        <time>2022-08-04T14:46:14.000Z</time>
      </trkpt>
      <trkpt lat="49.33556" lon="-0.4441">
        <ele>3.484047</ele>
        <time>2022-08-04T14:46:16.000Z</time>
      </trkpt>
      <trkpt lat="49.33555" lon="-0.44407">
        <ele>3.47341</ele>
        <time>2022-08-04T14:46:17.000Z</time>
      </trkpt>
      <trkpt lat="49.33555" lon="-0.44404">
        <ele>3.462546</ele>
        <time>2022-08-04T14:46:18.000Z</time>
      </trkpt>
      <trkpt lat="49.33557" lon="-0.44399">
        <ele>3.441383</ele>
        <time>2022-08-04T14:46:20.000Z</time>
      </trkpt>
      <trkpt lat="49.33557" lon="-0.44396">
        <ele>3.430385</ele>
        <time>2022-08-04T14:46:21.000Z</time>
      </trkpt>
      <trkpt lat="49.33557" lon="-0.4439">
        <ele>3.412162</ele>
        <time>2022-08-04T14:46:23.000Z</time>
      </trkpt>
      <trkpt lat="49.33557" lon="-0.44387">
        <ele>3.401179</ele>
        <time>2022-08-04T14:46:24.000Z</time>
      </trkpt>
      <trkpt lat="49.33557" lon="-0.44384">
        <ele>3.390888</ele>
        <time>2022-08-04T14:46:25.000Z</time>
      </trkpt>
      <trkpt lat="49.33556" lon="-0.44382">
        <ele>3.380308</ele>
        <time>2022-08-04T14:46:26.000Z</time>
      </trkpt>
      <trkpt lat="49.33555" lon="-0.44379">
        <ele>3.369645</ele>
        <time>2022-08-04T14:46:27.000Z</time>
      </trkpt>
      <trkpt lat="49.33553" lon="-0.44373">
        <ele>3.348536</ele>
        <time>2022-08-04T14:46:29.000Z</time>
      </trkpt>
      <trkpt lat="49.33553" lon="-0.44371">
        <ele>3.338027</ele>
        <time>2022-08-04T14:46:30.000Z</time>
      </trkpt>
      <trkpt lat="49.33552" lon="-0.44368">
        <ele>3.326452</ele>
        <time>2022-08-04T14:46:31.000Z</time>
      </trkpt>
      <trkpt lat="49.33551" lon="-0.44361">
        <ele>3.302022</ele>
        <time>2022-08-04T14:46:33.000Z</time>
      </trkpt>
      <trkpt lat="49.3355" lon="-0.44357">
        <ele>3.288956</ele>
        <time>2022-08-04T14:46:34.000Z</time>
      </trkpt>
      <trkpt lat="49.33549" lon="-0.44354">
        <ele>3.276518</ele>
        <time>2022-08-04T14:46:35.000Z</time>
      </trkpt>
      <trkpt lat="49.33549" lon="-0.4435">
        <ele>3.263835</ele>
        <time>2022-08-04T14:46:36.000Z</time>
      </trkpt>
      <trkpt lat="49.33548" lon="-0.44347">
        <ele>3.251081</ele>
        <time>2022-08-04T14:46:37.000Z</time>
      </trkpt>
      <trkpt lat="49.33547" lon="-0.44343">
        <ele>3.235587</ele>
        <time>2022-08-04T14:46:38.000Z</time>
      </trkpt>
      <trkpt lat="49.33547" lon="-0.44339">
        <ele>3.222172</ele>
        <time>2022-08-04T14:46:39.000Z</time>
      </trkpt>
      <trkpt lat="49.33546" lon="-0.44335">
        <ele>3.20698</ele>
        <time>2022-08-04T14:46:40.000Z</time>
      </trkpt>
      <trkpt lat="49.33546" lon="-0.44331">
        <ele>3.194608</ele>
        <time>2022-08-04T14:46:41.000Z</time>
      </trkpt>
      <trkpt lat="49.33545" lon="-0.44326">
        <ele>3.174028</ele>
        <time>2022-08-04T14:46:42.000Z</time>
      </trkpt>
      <trkpt lat="49.33544" lon="-0.44321">
        <ele>3.158357</ele>
        <time>2022-08-04T14:46:43.000Z</time>
      </trkpt>
      <trkpt lat="49.33543" lon="-0.44316">
        <ele>3.137776</ele>
        <time>2022-08-04T14:46:44.000Z</time>
      </trkpt>
      <trkpt lat="49.33543" lon="-0.44311">
        <ele>3.120538</ele>
        <time>2022-08-04T14:46:45.000Z</time>
      </trkpt>
      <trkpt lat="49.33542" lon="-0.44306">
        <ele>3.103371</ele>
        <time>2022-08-04T14:46:46.000Z</time>
      </trkpt>
      <trkpt lat="49.33541" lon="-0.44302">
        <ele>3.088178</ele>
        <time>2022-08-04T14:46:47.000Z</time>
      </trkpt>
      <trkpt lat="49.33541" lon="-0.44297">
        <ele>3.072081</ele>
        <time>2022-08-04T14:46:48.000Z</time>
      </trkpt>
      <trkpt lat="49.3354" lon="-0.44294">
        <ele>3.059251</ele>
        <time>2022-08-04T14:46:49.000Z</time>
      </trkpt>
      <trkpt lat="49.3354" lon="-0.4429">
        <ele>3.044095</ele>
        <time>2022-08-04T14:46:50.000Z</time>
      </trkpt>
      <trkpt lat="49.33539" lon="-0.44285">
        <ele>3.026967</ele>
        <time>2022-08-04T14:46:51.000Z</time>
      </trkpt>
      <trkpt lat="49.33538" lon="-0.44281">
        <ele>3.011952</ele>
        <time>2022-08-04T14:46:52.000Z</time>
      </trkpt>
      <trkpt lat="49.33537" lon="-0.44277">
        <ele>2.99859</ele>
        <time>2022-08-04T14:46:53.000Z</time>
      </trkpt>
      <trkpt lat="49.33537" lon="-0.44273">
        <ele>2.985176</ele>
        <time>2022-08-04T14:46:54.000Z</time>
      </trkpt>
      <trkpt lat="49.33536" lon="-0.4427">
        <ele>2.972103</ele>
        <time>2022-08-04T14:46:55.000Z</time>
      </trkpt>
      <trkpt lat="49.33536" lon="-0.44265">
        <ele>2.953459</ele>
        <time>2022-08-04T14:46:56.000Z</time>
      </trkpt>
      <trkpt lat="49.33535" lon="-0.4426">
        <ele>2.936221</ele>
        <time>2022-08-04T14:46:57.000Z</time>
      </trkpt>
      <trkpt lat="49.33535" lon="-0.44255">
        <ele>2.917927</ele>
        <time>2022-08-04T14:46:58.000Z</time>
      </trkpt>
      <trkpt lat="49.33534" lon="-0.44251">
        <ele>2.903096</ele>
        <time>2022-08-04T14:46:59.000Z</time>
      </trkpt>
      <trkpt lat="49.33533" lon="-0.44245">
        <ele>2.882425</ele>
        <time>2022-08-04T14:47:00.000Z</time>
      </trkpt>
      <trkpt lat="49.33533" lon="-0.4424">
        <ele>2.86564</ele>
        <time>2022-08-04T14:47:01.000Z</time>
      </trkpt>
      <trkpt lat="49.33532" lon="-0.44236">
        <ele>2.848978</ele>
        <time>2022-08-04T14:47:02.000Z</time>
      </trkpt>
      <trkpt lat="49.33531" lon="-0.44232">
        <ele>2.836607</ele>
        <time>2022-08-04T14:47:03.000Z</time>
      </trkpt>
      <trkpt lat="49.33531" lon="-0.44228">
        <ele>2.821538</ele>
        <time>2022-08-04T14:47:04.000Z</time>
      </trkpt>
      <trkpt lat="49.3353" lon="-0.44224">
        <ele>2.806685</ele>
        <time>2022-08-04T14:47:05.000Z</time>
      </trkpt>
      <trkpt lat="49.33529" lon="-0.44219">
        <ele>2.788867</ele>
        <time>2022-08-04T14:47:06.000Z</time>
      </trkpt>
      <trkpt lat="49.33528" lon="-0.44215">
        <ele>2.773305</ele>
        <time>2022-08-04T14:47:07.000Z</time>
      </trkpt>
      <trkpt lat="49.33526" lon="-0.44213">
        <ele>2.761297</ele>
        <time>2022-08-04T14:47:08.000Z</time>
      </trkpt>
      <trkpt lat="49.33524" lon="-0.44211">
        <ele>2.746721</ele>
        <time>2022-08-04T14:47:09.000Z</time>
      </trkpt>
      <trkpt lat="49.33522" lon="-0.4421">
        <ele>2.735533</ele>
        <time>2022-08-04T14:47:10.000Z</time>
      </trkpt>
      <trkpt lat="49.3352" lon="-0.44208">
        <ele>2.725628</ele>
        <time>2022-08-04T14:47:11.000Z</time>
      </trkpt>
      <trkpt lat="49.33517" lon="-0.44206">
        <ele>2.707739</ele>
        <time>2022-08-04T14:47:13.000Z</time>
      </trkpt>
      <trkpt lat="49.33515" lon="-0.44203">
        <ele>2.691691</ele>
        <time>2022-08-04T14:47:15.000Z</time>
      </trkpt>
      <trkpt lat="49.33513" lon="-0.44202">
        <ele>2.68001</ele>
        <time>2022-08-04T14:47:17.000Z</time>
      </trkpt>
      <trkpt lat="49.33509" lon="-0.442">
        <ele>2.660266</ele>
        <time>2022-08-04T14:47:19.000Z</time>
      </trkpt>
      <trkpt lat="49.33507" lon="-0.44199">
        <ele>2.649464</ele>
        <time>2022-08-04T14:47:20.000Z</time>
      </trkpt>
      <trkpt lat="49.33505" lon="-0.44198">
        <ele>2.637124</ele>
        <time>2022-08-04T14:47:21.000Z</time>
      </trkpt>
      <trkpt lat="49.33503" lon="-0.44198">
        <ele>2.624577</ele>
        <time>2022-08-04T14:47:22.000Z</time>
      </trkpt>
      <trkpt lat="49.335" lon="-0.44197">
        <ele>2.606861</ele>
        <time>2022-08-04T14:47:23.000Z</time>
      </trkpt>
      <trkpt lat="49.33498" lon="-0.44196">
        <ele>2.596265</ele>
        <time>2022-08-04T14:47:24.000Z</time>
      </trkpt>
      <trkpt lat="49.33495" lon="-0.44194">
        <ele>2.583318</ele>
        <time>2022-08-04T14:47:25.000Z</time>
      </trkpt>
      <trkpt lat="49.33493" lon="-0.44193">
        <ele>2.568575</ele>
        <time>2022-08-04T14:47:26.000Z</time>
      </trkpt>
      <trkpt lat="49.3349" lon="-0.44191">
        <ele>2.535735</ele>
        <time>2022-08-04T14:47:27.000Z</time>
      </trkpt>
      <trkpt lat="49.33487" lon="-0.4419">
        <ele>2.512123</ele>
        <time>2022-08-04T14:47:28.000Z</time>
      </trkpt>
      <trkpt lat="49.33484" lon="-0.44188">
        <ele>2.47904</ele>
        <time>2022-08-04T14:47:29.000Z</time>
      </trkpt>
      <trkpt lat="49.33481" lon="-0.44187">
        <ele>2.452697</ele>
        <time>2022-08-04T14:47:30.000Z</time>
      </trkpt>
      <trkpt lat="49.33478" lon="-0.44186">
        <ele>2.423085</ele>
        <time>2022-08-04T14:47:31.000Z</time>
      </trkpt>
      <trkpt lat="49.33475" lon="-0.44184">
        <ele>2.396059</ele>
        <time>2022-08-04T14:47:32.000Z</time>
      </trkpt>
      <trkpt lat="49.33471" lon="-0.44183">
        <ele>2.363553</ele>
        <time>2022-08-04T14:47:33.000Z</time>
      </trkpt>
      <trkpt lat="49.33468" lon="-0.44181">
        <ele>2.329859</ele>
        <time>2022-08-04T14:47:34.000Z</time>
      </trkpt>
      <trkpt lat="49.33465" lon="-0.4418">
        <ele>2.306748</ele>
        <time>2022-08-04T14:47:35.000Z</time>
      </trkpt>
      <trkpt lat="49.33461" lon="-0.44178">
        <ele>2.26774</ele>
        <time>2022-08-04T14:47:36.000Z</time>
      </trkpt>
      <trkpt lat="49.33457" lon="-0.44177">
        <ele>2.232332</ele>
        <time>2022-08-04T14:47:37.000Z</time>
      </trkpt>
      <trkpt lat="49.33454" lon="-0.44175">
        <ele>2.20204</ele>
        <time>2022-08-04T14:47:38.000Z</time>
      </trkpt>
      <trkpt lat="49.33452" lon="-0.44174">
        <ele>2.177579</ele>
        <time>2022-08-04T14:47:39.000Z</time>
      </trkpt>
      <trkpt lat="49.33448" lon="-0.44172">
        <ele>2.145072</ele>
        <time>2022-08-04T14:47:40.000Z</time>
      </trkpt>
      <trkpt lat="49.33444" lon="-0.4417">
        <ele>2.102644</ele>
        <time>2022-08-04T14:47:41.000Z</time>
      </trkpt>
      <trkpt lat="49.33439" lon="-0.44168">
        <ele>2.064332</ele>
        <time>2022-08-04T14:47:42.000Z</time>
      </trkpt>
      <trkpt lat="49.33435" lon="-0.44167">
        <ele>2.026004</ele>
        <time>2022-08-04T14:47:43.000Z</time>
      </trkpt>
      <trkpt lat="49.3343" lon="-0.44165">
        <ele>1.981512</ele>
        <time>2022-08-04T14:47:44.000Z</time>
      </trkpt>
      <trkpt lat="49.33427" lon="-0.44163">
        <ele>1.9519</ele>
        <time>2022-08-04T14:47:45.000Z</time>
      </trkpt>
      <trkpt lat="49.33422" lon="-0.44161">
        <ele>1.906557</ele>
        <time>2022-08-04T14:47:46.000Z</time>
      </trkpt>
      <trkpt lat="49.33419" lon="-0.44159">
        <ele>1.870621</ele>
        <time>2022-08-04T14:47:47.000Z</time>
      </trkpt>
      <trkpt lat="49.33414" lon="-0.44157">
        <ele>1.82887</ele>
        <time>2022-08-04T14:47:48.000Z</time>
      </trkpt>
      <trkpt lat="49.3341" lon="-0.44155">
        <ele>1.792904</ele>
        <time>2022-08-04T14:47:49.000Z</time>
      </trkpt>
      <trkpt lat="49.33406" lon="-0.44154">
        <ele>1.755061</ele>
        <time>2022-08-04T14:47:50.000Z</time>
      </trkpt>
      <trkpt lat="49.33402" lon="-0.44152">
        <ele>1.718458</ele>
        <time>2022-08-04T14:47:51.000Z</time>
      </trkpt>
      <trkpt lat="49.33398" lon="-0.4415">
        <ele>1.68031</ele>
        <time>2022-08-04T14:47:52.000Z</time>
      </trkpt>
      <trkpt lat="49.33395" lon="-0.44149">
        <ele>1.650699</ele>
        <time>2022-08-04T14:47:53.000Z</time>
      </trkpt>
      <trkpt lat="49.3339" lon="-0.44147">
        <ele>1.605887</ele>
        <time>2022-08-04T14:47:54.000Z</time>
      </trkpt>
      <trkpt lat="49.33386" lon="-0.44145">
        <ele>1.569456</ele>
        <time>2022-08-04T14:47:55.000Z</time>
      </trkpt>
      <trkpt lat="49.33382" lon="-0.44143">
        <ele>1.534048</ele>
        <time>2022-08-04T14:47:56.000Z</time>
      </trkpt>
      <trkpt lat="49.33379" lon="-0.44141">
        <ele>1.501209</ele>
        <time>2022-08-04T14:47:57.000Z</time>
      </trkpt>
      <trkpt lat="49.33375" lon="-0.4414">
        <ele>1.465242</ele>
        <time>2022-08-04T14:47:58.000Z</time>
      </trkpt>
      <trkpt lat="49.33371" lon="-0.44139">
        <ele>1.430754</ele>
        <time>2022-08-04T14:47:59.000Z</time>
      </trkpt>
      <trkpt lat="49.33367" lon="-0.44138">
        <ele>1.392733</ele>
        <time>2022-08-04T14:48:00.000Z</time>
      </trkpt>
      <trkpt lat="49.33363" lon="-0.44137">
        <ele>1.358423</ele>
        <time>2022-08-04T14:48:01.000Z</time>
      </trkpt>
      <trkpt lat="49.3336" lon="-0.44136">
        <ele>1.326768</ele>
        <time>2022-08-04T14:48:02.000Z</time>
      </trkpt>
      <trkpt lat="49.33356" lon="-0.44135">
        <ele>1.294921</ele>
        <time>2022-08-04T14:48:03.000Z</time>
      </trkpt>
      <trkpt lat="49.33352" lon="-0.44134">
        <ele>1.259642</ele>
        <time>2022-08-04T14:48:04.000Z</time>
      </trkpt>
      <trkpt lat="49.33349" lon="-0.44134">
        <ele>1.225604</ele>
        <time>2022-08-04T14:48:05.000Z</time>
      </trkpt>
      <trkpt lat="49.33345" lon="-0.44134">
        <ele>1.19416</ele>
        <time>2022-08-04T14:48:06.000Z</time>
      </trkpt>
      <trkpt lat="49.33341" lon="-0.44133">
        <ele>1.161825</ele>
        <time>2022-08-04T14:48:07.000Z</time>
      </trkpt>
      <trkpt lat="49.33338" lon="-0.44133">
        <ele>1.133176</ele>
        <time>2022-08-04T14:48:08.000Z</time>
      </trkpt>
      <trkpt lat="49.33335" lon="-0.44133">
        <ele>1.104527</ele>
        <time>2022-08-04T14:48:09.000Z</time>
      </trkpt>
      <trkpt lat="49.33331" lon="-0.44133">
        <ele>1.07049</ele>
        <time>2022-08-04T14:48:10.000Z</time>
      </trkpt>
      <trkpt lat="49.33328" lon="-0.44134">
        <ele>1.041841</ele>
        <time>2022-08-04T14:48:11.000Z</time>
      </trkpt>
      <trkpt lat="49.33325" lon="-0.44134">
        <ele>1.013192</ele>
        <time>2022-08-04T14:48:12.000Z</time>
      </trkpt>
      <trkpt lat="49.33322" lon="-0.44134">
        <ele>0.989868</ele>
        <time>2022-08-04T14:48:13.000Z</time>
      </trkpt>
      <trkpt lat="49.33319" lon="-0.44134">
        <ele>0.966798</ele>
        <time>2022-08-04T14:48:14.000Z</time>
      </trkpt>
      <trkpt lat="49.33317" lon="-0.44135">
        <ele>0.970731</ele>
        <time>2022-08-04T14:48:15.000Z</time>
      </trkpt>
      <trkpt lat="49.33315" lon="-0.44134">
        <ele>0.974683</ele>
        <time>2022-08-04T14:48:16.000Z</time>
      </trkpt>
      <trkpt lat="49.33314" lon="-0.44132">
        <ele>0.97956</ele>
        <time>2022-08-04T14:48:17.000Z</time>
      </trkpt>
      <trkpt lat="49.33313" lon="-0.44128">
        <ele>0.984396</ele>
        <time>2022-08-04T14:48:18.000Z</time>
      </trkpt>
      <trkpt lat="49.33313" lon="-0.44124">
        <ele>0.989539</ele>
        <time>2022-08-04T14:48:19.000Z</time>
      </trkpt>
      <trkpt lat="49.33312" lon="-0.4412">
        <ele>0.994919</ele>
        <time>2022-08-04T14:48:20.000Z</time>
      </trkpt>
      <trkpt lat="49.33312" lon="-0.44116">
        <ele>1.00013</ele>
        <time>2022-08-04T14:48:21.000Z</time>
      </trkpt>
      <trkpt lat="49.33312" lon="-0.44113">
        <ele>1.004847</ele>
        <time>2022-08-04T14:48:22.000Z</time>
      </trkpt>
      <trkpt lat="49.33311" lon="-0.4411">
        <ele>1.009226</ele>
        <time>2022-08-04T14:48:23.000Z</time>
      </trkpt>
      <trkpt lat="49.33309" lon="-0.44107">
        <ele>1.015173</ele>
        <time>2022-08-04T14:48:24.000Z</time>
      </trkpt>
      <trkpt lat="49.33306" lon="-0.44106">
        <ele>1.020113</ele>
        <time>2022-08-04T14:48:25.000Z</time>
      </trkpt>
      <trkpt lat="49.33304" lon="-0.44105">
        <ele>1.025378</ele>
        <time>2022-08-04T14:48:26.000Z</time>
      </trkpt>
      <trkpt lat="49.33299" lon="-0.44104">
        <ele>1.03551</ele>
        <time>2022-08-04T14:48:28.000Z</time>
      </trkpt>
      <trkpt lat="49.33294" lon="-0.44102">
        <ele>1.044952</ele>
        <time>2022-08-04T14:48:30.000Z</time>
      </trkpt>
      <trkpt lat="49.33292" lon="-0.44101">
        <ele>1.049559</ele>
        <time>2022-08-04T14:48:31.000Z</time>
      </trkpt>
      <trkpt lat="49.33289" lon="-0.44101">
        <ele>1.05556</ele>
        <time>2022-08-04T14:48:32.000Z</time>
      </trkpt>
      <trkpt lat="49.33286" lon="-0.441">
        <ele>1.061626</ele>
        <time>2022-08-04T14:48:33.000Z</time>
      </trkpt>
      <trkpt lat="49.33284" lon="-0.44099">
        <ele>1.067668</ele>
        <time>2022-08-04T14:48:34.000Z</time>
      </trkpt>
      <trkpt lat="49.33281" lon="-0.44098">
        <ele>1.073687</ele>
        <time>2022-08-04T14:48:35.000Z</time>
      </trkpt>
      <trkpt lat="49.33279" lon="-0.44098">
        <ele>1.077604</ele>
        <time>2022-08-04T14:48:36.000Z</time>
      </trkpt>
      <trkpt lat="49.33276" lon="-0.44098">
        <ele>1.084178</ele>
        <time>2022-08-04T14:48:37.000Z</time>
      </trkpt>
      <trkpt lat="49.33272" lon="-0.44099">
        <ele>1.092161</ele>
        <time>2022-08-04T14:48:39.000Z</time>
      </trkpt>
      <trkpt lat="49.33269" lon="-0.441">
        <ele>1.096969</ele>
        <time>2022-08-04T14:48:40.000Z</time>
      </trkpt>
      <trkpt lat="49.33267" lon="-0.44101">
        <ele>1.102205</ele>
        <time>2022-08-04T14:48:41.000Z</time>
      </trkpt>
      <trkpt lat="49.33264" lon="-0.44101">
        <ele>1.108853</ele>
        <time>2022-08-04T14:48:42.000Z</time>
      </trkpt>
      <trkpt lat="49.33261" lon="-0.44102">
        <ele>1.115549</ele>
        <time>2022-08-04T14:48:43.000Z</time>
      </trkpt>
      <trkpt lat="49.33257" lon="-0.44103">
        <ele>1.122849</ele>
        <time>2022-08-04T14:48:44.000Z</time>
      </trkpt>
      <trkpt lat="49.33253" lon="-0.44105">
        <ele>1.130498</ele>
        <time>2022-08-04T14:48:45.000Z</time>
      </trkpt>
      <trkpt lat="49.3325" lon="-0.44107">
        <ele>1.138026</ele>
        <time>2022-08-04T14:48:46.000Z</time>
      </trkpt>
      <trkpt lat="49.33247" lon="-0.44108">
        <ele>1.145014</ele>
        <time>2022-08-04T14:48:47.000Z</time>
      </trkpt>
      <trkpt lat="49.33243" lon="-0.4411">
        <ele>1.153251</ele>
        <time>2022-08-04T14:48:48.000Z</time>
      </trkpt>
      <trkpt lat="49.33239" lon="-0.44113">
        <ele>1.161112</ele>
        <time>2022-08-04T14:48:49.000Z</time>
      </trkpt>
      <trkpt lat="49.33237" lon="-0.44115">
        <ele>1.166961</ele>
        <time>2022-08-04T14:48:50.000Z</time>
      </trkpt>
      <trkpt lat="49.33233" lon="-0.44117">
        <ele>1.174716</ele>
        <time>2022-08-04T14:48:51.000Z</time>
      </trkpt>
      <trkpt lat="49.3323" lon="-0.44119">
        <ele>1.182374</ele>
        <time>2022-08-04T14:48:52.000Z</time>
      </trkpt>
      <trkpt lat="49.33225" lon="-0.44121">
        <ele>1.192768</ele>
        <time>2022-08-04T14:48:53.000Z</time>
      </trkpt>
      <trkpt lat="49.33221" lon="-0.44124">
        <ele>1.201335</ele>
        <time>2022-08-04T14:48:54.000Z</time>
      </trkpt>
      <trkpt lat="49.33217" lon="-0.44126">
        <ele>1.209921</ele>
        <time>2022-08-04T14:48:55.000Z</time>
      </trkpt>
      <trkpt lat="49.33214" lon="-0.44129">
        <ele>1.217728</ele>
        <time>2022-08-04T14:48:56.000Z</time>
      </trkpt>
      <trkpt lat="49.33209" lon="-0.44132">
        <ele>1.22826</ele>
        <time>2022-08-04T14:48:57.000Z</time>
      </trkpt>
      <trkpt lat="49.33206" lon="-0.44136">
        <ele>1.236614</ele>
        <time>2022-08-04T14:48:58.000Z</time>
      </trkpt>
      <trkpt lat="49.33203" lon="-0.44139">
        <ele>1.243786</ele>
        <time>2022-08-04T14:48:59.000Z</time>
      </trkpt>
      <trkpt lat="49.332" lon="-0.44141">
        <ele>1.250077</ele>
        <time>2022-08-04T14:49:00.000Z</time>
      </trkpt>
      <trkpt lat="49.33197" lon="-0.44145">
        <ele>1.258072</ele>
        <time>2022-08-04T14:49:01.000Z</time>
      </trkpt>
      <trkpt lat="49.33195" lon="-0.44149">
        <ele>1.264765</ele>
        <time>2022-08-04T14:49:02.000Z</time>
      </trkpt>
      <trkpt lat="49.33193" lon="-0.44153">
        <ele>1.271862</ele>
        <time>2022-08-04T14:49:03.000Z</time>
      </trkpt>
      <trkpt lat="49.3319" lon="-0.44158">
        <ele>1.2801</ele>
        <time>2022-08-04T14:49:04.000Z</time>
      </trkpt>
      <trkpt lat="49.33189" lon="-0.44162">
        <ele>1.287604</ele>
        <time>2022-08-04T14:49:05.000Z</time>
      </trkpt>
      <trkpt lat="49.33186" lon="-0.44167">
        <ele>1.295782</ele>
        <time>2022-08-04T14:49:06.000Z</time>
      </trkpt>
      <trkpt lat="49.33184" lon="-0.44172">
        <ele>1.303516</ele>
        <time>2022-08-04T14:49:07.000Z</time>
      </trkpt>
      <trkpt lat="49.33183" lon="-0.44177">
        <ele>1.310586</ele>
        <time>2022-08-04T14:49:08.000Z</time>
      </trkpt>
      <trkpt lat="49.33181" lon="-0.44182">
        <ele>1.317863</ele>
        <time>2022-08-04T14:49:09.000Z</time>
      </trkpt>
      <trkpt lat="49.3318" lon="-0.44186">
        <ele>1.324713</ele>
        <time>2022-08-04T14:49:10.000Z</time>
      </trkpt>
      <trkpt lat="49.33178" lon="-0.44191">
        <ele>1.331766</ele>
        <time>2022-08-04T14:49:11.000Z</time>
      </trkpt>
      <trkpt lat="49.33176" lon="-0.44195">
        <ele>1.367653</ele>
        <time>2022-08-04T14:49:12.000Z</time>
      </trkpt>
      <trkpt lat="49.33174" lon="-0.44199">
        <ele>1.416189</ele>
        <time>2022-08-04T14:49:13.000Z</time>
      </trkpt>
      <trkpt lat="49.33172" lon="-0.44203">
        <ele>1.472479</ele>
        <time>2022-08-04T14:49:14.000Z</time>
      </trkpt>
      <trkpt lat="49.33169" lon="-0.44208">
        <ele>1.543929</ele>
        <time>2022-08-04T14:49:15.000Z</time>
      </trkpt>
      <trkpt lat="49.33167" lon="-0.44213">
        <ele>1.60106</ele>
        <time>2022-08-04T14:49:16.000Z</time>
      </trkpt>
      <trkpt lat="49.33165" lon="-0.44217">
        <ele>1.661996</ele>
        <time>2022-08-04T14:49:17.000Z</time>
      </trkpt>
      <trkpt lat="49.33163" lon="-0.44222">
        <ele>1.716473</ele>
        <time>2022-08-04T14:49:18.000Z</time>
      </trkpt>
      <trkpt lat="49.33161" lon="-0.44225">
        <ele>1.767507</ele>
        <time>2022-08-04T14:49:19.000Z</time>
      </trkpt>
      <trkpt lat="49.33159" lon="-0.44229">
        <ele>1.82336</ele>
        <time>2022-08-04T14:49:20.000Z</time>
      </trkpt>
      <trkpt lat="49.33157" lon="-0.44232">
        <ele>1.86979</ele>
        <time>2022-08-04T14:49:21.000Z</time>
      </trkpt>
      <trkpt lat="49.33155" lon="-0.44236">
        <ele>1.919982</ele>
        <time>2022-08-04T14:49:22.000Z</time>
      </trkpt>
      <trkpt lat="49.33154" lon="-0.44239">
        <ele>1.961288</ele>
        <time>2022-08-04T14:49:23.000Z</time>
      </trkpt>
      <trkpt lat="49.33151" lon="-0.44243">
        <ele>2.023638</ele>
        <time>2022-08-04T14:49:24.000Z</time>
      </trkpt>
      <trkpt lat="49.33149" lon="-0.44246">
        <ele>2.059408</ele>
        <time>2022-08-04T14:49:25.000Z</time>
      </trkpt>
      <trkpt lat="49.33147" lon="-0.4425">
        <ele>2.124177</ele>
        <time>2022-08-04T14:49:26.000Z</time>
      </trkpt>
      <trkpt lat="49.33145" lon="-0.44253">
        <ele>2.162564</ele>
        <time>2022-08-04T14:49:27.000Z</time>
      </trkpt>
      <trkpt lat="49.33142" lon="-0.44257">
        <ele>2.229997</ele>
        <time>2022-08-04T14:49:28.000Z</time>
      </trkpt>
      <trkpt lat="49.33141" lon="-0.44261">
        <ele>2.28188</ele>
        <time>2022-08-04T14:49:29.000Z</time>
      </trkpt>
      <trkpt lat="49.33139" lon="-0.44265">
        <ele>2.3288</ele>
        <time>2022-08-04T14:49:30.000Z</time>
      </trkpt>
      <trkpt lat="49.33136" lon="-0.44268">
        <ele>2.378155</ele>
        <time>2022-08-04T14:49:31.000Z</time>
      </trkpt>
      <trkpt lat="49.33135" lon="-0.44271">
        <ele>2.421981</ele>
        <time>2022-08-04T14:49:32.000Z</time>
      </trkpt>
      <trkpt lat="49.33133" lon="-0.44274">
        <ele>2.464906</ele>
        <time>2022-08-04T14:49:33.000Z</time>
      </trkpt>
      <trkpt lat="49.33132" lon="-0.44278">
        <ele>2.504245</ele>
        <time>2022-08-04T14:49:34.000Z</time>
      </trkpt>
      <trkpt lat="49.33131" lon="-0.4428">
        <ele>2.540091</ele>
        <time>2022-08-04T14:49:35.000Z</time>
      </trkpt>
      <trkpt lat="49.33129" lon="-0.44283">
        <ele>2.584776</ele>
        <time>2022-08-04T14:49:36.000Z</time>
      </trkpt>
      <trkpt lat="49.33126" lon="-0.44287">
        <ele>2.641326</ele>
        <time>2022-08-04T14:49:37.000Z</time>
      </trkpt>
      <trkpt lat="49.33124" lon="-0.44289">
        <ele>2.683135</ele>
        <time>2022-08-04T14:49:38.000Z</time>
      </trkpt>
      <trkpt lat="49.33122" lon="-0.44289">
        <ele>2.720756</ele>
        <time>2022-08-04T14:49:39.000Z</time>
      </trkpt>
      <trkpt lat="49.3312" lon="-0.44288">
        <ele>2.753959</ele>
        <time>2022-08-04T14:49:40.000Z</time>
      </trkpt>
      <trkpt lat="49.33117" lon="-0.44282">
        <ele>2.835109</ele>
        <time>2022-08-04T14:49:42.000Z</time>
      </trkpt>
      <trkpt lat="49.33115" lon="-0.44279">
        <ele>2.880453</ele>
        <time>2022-08-04T14:49:43.000Z</time>
      </trkpt>
      <trkpt lat="49.33112" lon="-0.44276">
        <ele>2.936307</ele>
        <time>2022-08-04T14:49:44.000Z</time>
      </trkpt>
      <trkpt lat="49.3311" lon="-0.44273">
        <ele>2.979378</ele>
        <time>2022-08-04T14:49:45.000Z</time>
      </trkpt>
      <trkpt lat="49.33108" lon="-0.44269">
        <ele>3.036217</ele>
        <time>2022-08-04T14:49:46.000Z</time>
      </trkpt>
      <trkpt lat="49.33106" lon="-0.44265">
        <ele>3.083531</ele>
        <time>2022-08-04T14:49:47.000Z</time>
      </trkpt>
      <trkpt lat="49.33104" lon="-0.44261">
        <ele>3.136272</ele>
        <time>2022-08-04T14:49:48.000Z</time>
      </trkpt>
      <trkpt lat="49.33102" lon="-0.44258">
        <ele>3.185633</ele>
        <time>2022-08-04T14:49:49.000Z</time>
      </trkpt>
      <trkpt lat="49.33101" lon="-0.44254">
        <ele>3.235826</ele>
        <time>2022-08-04T14:49:50.000Z</time>
      </trkpt>
      <trkpt lat="49.33099" lon="-0.44251">
        <ele>3.284363</ele>
        <time>2022-08-04T14:49:51.000Z</time>
      </trkpt>
      <trkpt lat="49.33097" lon="-0.44247">
        <ele>3.335584</ele>
        <time>2022-08-04T14:49:52.000Z</time>
      </trkpt>
      <trkpt lat="49.33095" lon="-0.44243">
        <ele>3.384944</ele>
        <time>2022-08-04T14:49:53.000Z</time>
      </trkpt>
      <trkpt lat="49.33093" lon="-0.4424">
        <ele>3.436758</ele>
        <time>2022-08-04T14:49:54.000Z</time>
      </trkpt>
      <trkpt lat="49.33091" lon="-0.44236">
        <ele>3.484481</ele>
        <time>2022-08-04T14:49:55.000Z</time>
      </trkpt>
      <trkpt lat="49.33089" lon="-0.44233">
        <ele>3.53021</ele>
        <time>2022-08-04T14:49:56.000Z</time>
      </trkpt>
      <trkpt lat="49.33085" lon="-0.44229">
        <ele>3.60696</ele>
        <time>2022-08-04T14:49:58.000Z</time>
      </trkpt>
      <trkpt lat="49.33083" lon="-0.44227">
        <ele>3.644632</ele>
        <time>2022-08-04T14:49:59.000Z</time>
      </trkpt>
      <trkpt lat="49.33081" lon="-0.44225">
        <ele>3.686441</ele>
        <time>2022-08-04T14:50:00.000Z</time>
      </trkpt>
      <trkpt lat="49.33079" lon="-0.44223">
        <ele>3.727302</ele>
        <time>2022-08-04T14:50:01.000Z</time>
      </trkpt>
      <trkpt lat="49.33075" lon="-0.44222">
        <ele>3.786718</ele>
        <time>2022-08-04T14:50:02.000Z</time>
      </trkpt>
      <trkpt lat="49.33073" lon="-0.44221">
        <ele>3.829561</ele>
        <time>2022-08-04T14:50:03.000Z</time>
      </trkpt>
      <trkpt lat="49.3307" lon="-0.44221">
        <ele>3.87565</ele>
        <time>2022-08-04T14:50:04.000Z</time>
      </trkpt>
      <trkpt lat="49.33066" lon="-0.44221">
        <ele>3.934511</ele>
        <time>2022-08-04T14:50:05.000Z</time>
      </trkpt>
      <trkpt lat="49.33063" lon="-0.44221">
        <ele>3.991776</ele>
        <time>2022-08-04T14:50:06.000Z</time>
      </trkpt>
      <trkpt lat="49.33059" lon="-0.44222">
        <ele>4.049986</ele>
        <time>2022-08-04T14:50:07.000Z</time>
      </trkpt>
      <trkpt lat="49.33056" lon="-0.44223">
        <ele>4.098584</ele>
        <time>2022-08-04T14:50:08.000Z</time>
      </trkpt>
      <trkpt lat="49.33053" lon="-0.44223">
        <ele>4.146297</ele>
        <time>2022-08-04T14:50:09.000Z</time>
      </trkpt>
      <trkpt lat="49.33051" lon="-0.44224">
        <ele>4.192387</ele>
        <time>2022-08-04T14:50:10.000Z</time>
      </trkpt>
      <trkpt lat="49.33049" lon="-0.44224">
        <ele>4.225518</ele>
        <time>2022-08-04T14:50:11.000Z</time>
      </trkpt>
      <trkpt lat="49.33045" lon="-0.44225">
        <ele>4.277533</ele>
        <time>2022-08-04T14:50:12.000Z</time>
      </trkpt>
      <trkpt lat="49.33043" lon="-0.44225">
        <ele>4.316612</ele>
        <time>2022-08-04T14:50:13.000Z</time>
      </trkpt>
      <trkpt lat="49.3304" lon="-0.44226">
        <ele>4.349542</ele>
        <time>2022-08-04T14:50:14.000Z</time>
      </trkpt>
      <trkpt lat="49.33038" lon="-0.44226">
        <ele>4.37986</ele>
        <time>2022-08-04T14:50:15.000Z</time>
      </trkpt>
      <trkpt lat="49.33036" lon="-0.44226">
        <ele>4.415777</ele>
        <time>2022-08-04T14:50:16.000Z</time>
      </trkpt>
      <trkpt lat="49.33033" lon="-0.44226">
        <ele>4.455765</ele>
        <time>2022-08-04T14:50:17.000Z</time>
      </trkpt>
      <trkpt lat="49.3303" lon="-0.44226">
        <ele>4.486071</ele>
        <time>2022-08-04T14:50:18.000Z</time>
      </trkpt>
      <trkpt lat="49.33028" lon="-0.44227">
        <ele>4.526828</ele>
        <time>2022-08-04T14:50:19.000Z</time>
      </trkpt>
      <trkpt lat="49.33024" lon="-0.44228">
        <ele>4.572427</ele>
        <time>2022-08-04T14:50:20.000Z</time>
      </trkpt>
      <trkpt lat="49.33021" lon="-0.44229">
        <ele>4.612626</ele>
        <time>2022-08-04T14:50:21.000Z</time>
      </trkpt>
      <trkpt lat="49.33018" lon="-0.44229">
        <ele>4.657288</ele>
        <time>2022-08-04T14:50:22.000Z</time>
      </trkpt>
      <trkpt lat="49.33015" lon="-0.4423">
        <ele>4.702274</ele>
        <time>2022-08-04T14:50:23.000Z</time>
      </trkpt>
      <trkpt lat="49.33013" lon="-0.44231">
        <ele>4.733638</ele>
        <time>2022-08-04T14:50:24.000Z</time>
      </trkpt>
      <trkpt lat="49.33011" lon="-0.44232">
        <ele>4.760359</ele>
        <time>2022-08-04T14:50:25.000Z</time>
      </trkpt>
      <trkpt lat="49.33008" lon="-0.44233">
        <ele>4.804885</ele>
        <time>2022-08-04T14:50:26.000Z</time>
      </trkpt>
      <trkpt lat="49.33005" lon="-0.44233">
        <ele>4.840981</ele>
        <time>2022-08-04T14:50:27.000Z</time>
      </trkpt>
      <trkpt lat="49.33003" lon="-0.44233">
        <ele>4.867292</ele>
        <time>2022-08-04T14:50:28.000Z</time>
      </trkpt>
      <trkpt lat="49.33001" lon="-0.44234">
        <ele>4.89371</ele>
        <time>2022-08-04T14:50:29.000Z</time>
      </trkpt>
      <trkpt lat="49.32999" lon="-0.44233">
        <ele>4.929705</ele>
        <time>2022-08-04T14:50:31.000Z</time>
      </trkpt>
      <trkpt lat="49.32997" lon="-0.44234">
        <ele>4.956123</ele>
        <time>2022-08-04T14:50:33.000Z</time>
      </trkpt>
      <trkpt lat="49.32992" lon="-0.44232">
        <ele>5.020659</ele>
        <time>2022-08-04T14:50:53.000Z</time>
      </trkpt>
      <trkpt lat="49.32991" lon="-0.44228">
        <ele>5.053604</ele>
        <time>2022-08-04T14:50:54.000Z</time>
      </trkpt>
      <trkpt lat="49.32991" lon="-0.44224">
        <ele>5.09601</ele>
        <time>2022-08-04T14:50:55.000Z</time>
      </trkpt>
      <trkpt lat="49.32989" lon="-0.44218">
        <ele>5.148533</ele>
        <time>2022-08-04T14:50:56.000Z</time>
      </trkpt>
      <trkpt lat="49.32989" lon="-0.44212">
        <ele>5.204345</ele>
        <time>2022-08-04T14:50:57.000Z</time>
      </trkpt>
      <trkpt lat="49.32988" lon="-0.44206">
        <ele>5.265384</ele>
        <time>2022-08-04T14:50:58.000Z</time>
      </trkpt>
      <trkpt lat="49.32988" lon="-0.44199">
        <ele>5.323883</ele>
        <time>2022-08-04T14:50:59.000Z</time>
      </trkpt>
      <trkpt lat="49.32987" lon="-0.44194">
        <ele>5.369524</ele>
        <time>2022-08-04T14:51:00.000Z</time>
      </trkpt>
      <trkpt lat="49.32987" lon="-0.44187">
        <ele>5.432501</ele>
        <time>2022-08-04T14:51:01.000Z</time>
      </trkpt>
      <trkpt lat="49.32986" lon="-0.44179">
        <ele>5.506744</ele>
        <time>2022-08-04T14:51:02.000Z</time>
      </trkpt>
      <trkpt lat="49.32986" lon="-0.44172">
        <ele>5.566138</ele>
        <time>2022-08-04T14:51:03.000Z</time>
      </trkpt>
      <trkpt lat="49.32986" lon="-0.44166">
        <ele>5.626287</ele>
        <time>2022-08-04T14:51:04.000Z</time>
      </trkpt>
      <trkpt lat="49.32985" lon="-0.4416">
        <ele>5.674579</ele>
        <time>2022-08-04T14:51:05.000Z</time>
      </trkpt>
      <trkpt lat="49.32985" lon="-0.44153">
        <ele>5.736767</ele>
        <time>2022-08-04T14:51:06.000Z</time>
      </trkpt>
      <trkpt lat="49.32984" lon="-0.44145">
        <ele>5.808705</ele>
        <time>2022-08-04T14:51:07.000Z</time>
      </trkpt>
      <trkpt lat="49.32984" lon="-0.44139">
        <ele>5.868529</ele>
        <time>2022-08-04T14:51:08.000Z</time>
      </trkpt>
      <trkpt lat="49.32983" lon="-0.44132">
        <ele>5.932106</ele>
        <time>2022-08-04T14:51:09.000Z</time>
      </trkpt>
      <trkpt lat="49.32983" lon="-0.44125">
        <ele>5.994049</ele>
        <time>2022-08-04T14:51:10.000Z</time>
      </trkpt>
      <trkpt lat="49.32983" lon="-0.44118">
        <ele>6.055235</ele>
        <time>2022-08-04T14:51:11.000Z</time>
      </trkpt>
      <trkpt lat="49.32982" lon="-0.44111">
        <ele>6.119287</ele>
        <time>2022-08-04T14:51:12.000Z</time>
      </trkpt>
      <trkpt lat="49.32981" lon="-0.44104">
        <ele>6.18237</ele>
        <time>2022-08-04T14:51:13.000Z</time>
      </trkpt>
      <trkpt lat="49.32981" lon="-0.44097">
        <ele>6.248424</ele>
        <time>2022-08-04T14:51:14.000Z</time>
      </trkpt>
      <trkpt lat="49.32981" lon="-0.4409">
        <ele>6.313193</ele>
        <time>2022-08-04T14:51:15.000Z</time>
      </trkpt>
      <trkpt lat="49.3298" lon="-0.44083">
        <ele>6.376769</ele>
        <time>2022-08-04T14:51:16.000Z</time>
      </trkpt>
      <trkpt lat="49.32979" lon="-0.44075">
        <ele>6.442823</ele>
        <time>2022-08-04T14:51:17.000Z</time>
      </trkpt>
      <trkpt lat="49.32979" lon="-0.44068">
        <ele>6.507592</ele>
        <time>2022-08-04T14:51:18.000Z</time>
      </trkpt>
      <trkpt lat="49.32979" lon="-0.44062">
        <ele>6.558763</ele>
        <time>2022-08-04T14:51:19.000Z</time>
      </trkpt>
      <trkpt lat="49.32978" lon="-0.44054">
        <ele>6.636304</ele>
        <time>2022-08-04T14:51:20.000Z</time>
      </trkpt>
      <trkpt lat="49.32978" lon="-0.44047">
        <ele>6.699281</ele>
        <time>2022-08-04T14:51:21.000Z</time>
      </trkpt>
      <trkpt lat="49.32977" lon="-0.44041">
        <ele>6.749724</ele>
        <time>2022-08-04T14:51:22.000Z</time>
      </trkpt>
      <trkpt lat="49.32977" lon="-0.44033">
        <ele>6.756687</ele>
        <time>2022-08-04T14:51:23.000Z</time>
      </trkpt>
      <trkpt lat="49.32977" lon="-0.44028">
        <ele>6.759171</ele>
        <time>2022-08-04T14:51:24.000Z</time>
      </trkpt>
      <trkpt lat="49.32976" lon="-0.4402">
        <ele>6.763013</ele>
        <time>2022-08-04T14:51:25.000Z</time>
      </trkpt>
      <trkpt lat="49.32975" lon="-0.44013">
        <ele>6.766162</ele>
        <time>2022-08-04T14:51:26.000Z</time>
      </trkpt>
      <trkpt lat="49.32975" lon="-0.44006">
        <ele>6.769188</ele>
        <time>2022-08-04T14:51:27.000Z</time>
      </trkpt>
      <trkpt lat="49.32975" lon="-0.44001">
        <ele>6.771765</ele>
        <time>2022-08-04T14:51:28.000Z</time>
      </trkpt>
      <trkpt lat="49.32975" lon="-0.43993">
        <ele>6.775403</ele>
        <time>2022-08-04T14:51:29.000Z</time>
      </trkpt>
      <trkpt lat="49.32974" lon="-0.43987">
        <ele>6.778497</ele>
        <time>2022-08-04T14:51:30.000Z</time>
      </trkpt>
      <trkpt lat="49.32973" lon="-0.4398">
        <ele>6.781656</ele>
        <time>2022-08-04T14:51:31.000Z</time>
      </trkpt>
      <trkpt lat="49.32973" lon="-0.43973">
        <ele>6.784759</ele>
        <time>2022-08-04T14:51:32.000Z</time>
      </trkpt>
      <trkpt lat="49.32973" lon="-0.43968">
        <ele>6.78718</ele>
        <time>2022-08-04T14:51:33.000Z</time>
      </trkpt>
      <trkpt lat="49.32972" lon="-0.4396">
        <ele>6.790835</ele>
        <time>2022-08-04T14:51:34.000Z</time>
      </trkpt>
      <trkpt lat="49.32971" lon="-0.43955">
        <ele>6.793312</ele>
        <time>2022-08-04T14:51:35.000Z</time>
      </trkpt>
      <trkpt lat="49.32971" lon="-0.43947">
        <ele>6.79695</ele>
        <time>2022-08-04T14:51:36.000Z</time>
      </trkpt>
      <trkpt lat="49.32971" lon="-0.43942">
        <ele>6.799473</ele>
        <time>2022-08-04T14:51:37.000Z</time>
      </trkpt>
      <trkpt lat="49.3297" lon="-0.43934">
        <ele>6.803083</ele>
        <time>2022-08-04T14:51:38.000Z</time>
      </trkpt>
      <trkpt lat="49.3297" lon="-0.43928">
        <ele>6.806109</ele>
        <time>2022-08-04T14:51:39.000Z</time>
      </trkpt>
      <trkpt lat="49.32969" lon="-0.43921">
        <ele>6.809143</ele>
        <time>2022-08-04T14:51:40.000Z</time>
      </trkpt>
      <trkpt lat="49.32969" lon="-0.43915">
        <ele>6.812303</ele>
        <time>2022-08-04T14:51:41.000Z</time>
      </trkpt>
      <trkpt lat="49.32968" lon="-0.43908">
        <ele>6.815451</ele>
        <time>2022-08-04T14:51:42.000Z</time>
      </trkpt>
      <trkpt lat="49.32968" lon="-0.43901">
        <ele>6.818625</ele>
        <time>2022-08-04T14:51:43.000Z</time>
      </trkpt>
      <trkpt lat="49.32967" lon="-0.43896">
        <ele>6.821055</ele>
        <time>2022-08-04T14:51:44.000Z</time>
      </trkpt>
      <trkpt lat="49.32967" lon="-0.43888">
        <ele>6.824837</ele>
        <time>2022-08-04T14:51:45.000Z</time>
      </trkpt>
      <trkpt lat="49.32967" lon="-0.43881">
        <ele>6.828103</ele>
        <time>2022-08-04T14:51:46.000Z</time>
      </trkpt>
      <trkpt lat="49.32966" lon="-0.43874">
        <ele>6.831288</ele>
        <time>2022-08-04T14:51:47.000Z</time>
      </trkpt>
      <trkpt lat="49.32966" lon="-0.43867">
        <ele>6.834454</ele>
        <time>2022-08-04T14:51:48.000Z</time>
      </trkpt>
      <trkpt lat="49.32965" lon="-0.43861">
        <ele>6.837494</ele>
        <time>2022-08-04T14:51:49.000Z</time>
      </trkpt>
      <trkpt lat="49.32965" lon="-0.43855">
        <ele>6.840389</ele>
        <time>2022-08-04T14:51:50.000Z</time>
      </trkpt>
      <trkpt lat="49.32965" lon="-0.43849">
        <ele>6.843098</ele>
        <time>2022-08-04T14:51:51.000Z</time>
      </trkpt>
      <trkpt lat="49.32965" lon="-0.43843">
        <ele>6.845658</ele>
        <time>2022-08-04T14:51:52.000Z</time>
      </trkpt>
      <trkpt lat="49.32965" lon="-0.43838">
        <ele>6.848089</ele>
        <time>2022-08-04T14:51:53.000Z</time>
      </trkpt>
      <trkpt lat="49.32965" lon="-0.43833">
        <ele>6.85065</ele>
        <time>2022-08-04T14:51:54.000Z</time>
      </trkpt>
      <trkpt lat="49.32964" lon="-0.43828">
        <ele>6.852713</ele>
        <time>2022-08-04T14:51:55.000Z</time>
      </trkpt>
      <trkpt lat="49.32963" lon="-0.43822">
        <ele>6.855862</ele>
        <time>2022-08-04T14:51:56.000Z</time>
      </trkpt>
      <trkpt lat="49.32963" lon="-0.43816">
        <ele>6.858571</ele>
        <time>2022-08-04T14:51:57.000Z</time>
      </trkpt>
      <trkpt lat="49.32963" lon="-0.43809">
        <ele>6.861558</ele>
        <time>2022-08-04T14:51:58.000Z</time>
      </trkpt>
      <trkpt lat="49.32962" lon="-0.43804">
        <ele>6.864076</ele>
        <time>2022-08-04T14:51:59.000Z</time>
      </trkpt>
      <trkpt lat="49.32962" lon="-0.43797">
        <ele>6.867342</ele>
        <time>2022-08-04T14:52:00.000Z</time>
      </trkpt>
      <trkpt lat="49.32961" lon="-0.4379">
        <ele>6.870748</ele>
        <time>2022-08-04T14:52:01.000Z</time>
      </trkpt>
      <trkpt lat="49.32961" lon="-0.43782">
        <ele>6.874339</ele>
        <time>2022-08-04T14:52:02.000Z</time>
      </trkpt>
      <trkpt lat="49.32961" lon="-0.43774">
        <ele>6.878075</ele>
        <time>2022-08-04T14:52:03.000Z</time>
      </trkpt>
      <trkpt lat="49.3296" lon="-0.43766">
        <ele>6.880918</ele>
        <time>2022-08-04T14:52:04.000Z</time>
      </trkpt>
      <trkpt lat="49.3296" lon="-0.43758">
        <ele>6.869091</ele>
        <time>2022-08-04T14:52:05.000Z</time>
      </trkpt>
      <trkpt lat="49.32959" lon="-0.4375">
        <ele>6.857263</ele>
        <time>2022-08-04T14:52:06.000Z</time>
      </trkpt>
      <trkpt lat="49.32959" lon="-0.43742">
        <ele>6.845277</ele>
        <time>2022-08-04T14:52:07.000Z</time>
      </trkpt>
      <trkpt lat="49.32958" lon="-0.43732">
        <ele>6.830634</ele>
        <time>2022-08-04T14:52:08.000Z</time>
      </trkpt>
      <trkpt lat="49.32957" lon="-0.43723">
        <ele>6.818648</ele>
        <time>2022-08-04T14:52:09.000Z</time>
      </trkpt>
      <trkpt lat="49.32957" lon="-0.43717">
        <ele>6.808977</ele>
        <time>2022-08-04T14:52:10.000Z</time>
      </trkpt>
      <trkpt lat="49.32956" lon="-0.43706">
        <ele>6.794154</ele>
        <time>2022-08-04T14:52:11.000Z</time>
      </trkpt>
      <trkpt lat="49.32956" lon="-0.43698">
        <ele>6.781737</ele>
        <time>2022-08-04T14:52:12.000Z</time>
      </trkpt>
      <trkpt lat="49.32956" lon="-0.43689">
        <ele>6.769622</ele>
        <time>2022-08-04T14:52:13.000Z</time>
      </trkpt>
      <trkpt lat="49.32955" lon="-0.43682">
        <ele>6.759519</ele>
        <time>2022-08-04T14:52:14.000Z</time>
      </trkpt>
      <trkpt lat="49.32955" lon="-0.43674">
        <ele>6.747207</ele>
        <time>2022-08-04T14:52:15.000Z</time>
      </trkpt>
      <trkpt lat="49.32954" lon="-0.43664">
        <ele>6.732637</ele>
        <time>2022-08-04T14:52:16.000Z</time>
      </trkpt>
      <trkpt lat="49.32953" lon="-0.43657">
        <ele>6.722755</ele>
        <time>2022-08-04T14:52:17.000Z</time>
      </trkpt>
      <trkpt lat="49.32953" lon="-0.43649">
        <ele>6.710769</ele>
        <time>2022-08-04T14:52:18.000Z</time>
      </trkpt>
      <trkpt lat="49.32952" lon="-0.4364">
        <ele>6.6986</ele>
        <time>2022-08-04T14:52:19.000Z</time>
      </trkpt>
      <trkpt lat="49.32951" lon="-0.4363">
        <ele>6.683994</ele>
        <time>2022-08-04T14:52:20.000Z</time>
      </trkpt>
      <trkpt lat="49.32951" lon="-0.43624">
        <ele>6.674305</ele>
        <time>2022-08-04T14:52:21.000Z</time>
      </trkpt>
      <trkpt lat="49.3295" lon="-0.43613">
        <ele>6.659236</ele>
        <time>2022-08-04T14:52:22.000Z</time>
      </trkpt>
      <trkpt lat="49.32949" lon="-0.43604">
        <ele>6.646389</ele>
        <time>2022-08-04T14:52:23.000Z</time>
      </trkpt>
      <trkpt lat="49.32949" lon="-0.43598">
        <ele>6.636861</ele>
        <time>2022-08-04T14:52:24.000Z</time>
      </trkpt>
      <trkpt lat="49.32949" lon="-0.43589">
        <ele>6.624746</ele>
        <time>2022-08-04T14:52:25.000Z</time>
      </trkpt>
      <trkpt lat="49.32948" lon="-0.43579">
        <ele>6.610034</ele>
        <time>2022-08-04T14:52:26.000Z</time>
      </trkpt>
      <trkpt lat="49.32948" lon="-0.43571">
        <ele>6.598206</ele>
        <time>2022-08-04T14:52:27.000Z</time>
      </trkpt>
      <trkpt lat="49.32947" lon="-0.43563">
        <ele>6.586235</ele>
        <time>2022-08-04T14:52:28.000Z</time>
      </trkpt>
      <trkpt lat="49.32946" lon="-0.43554">
        <ele>6.573938</ele>
        <time>2022-08-04T14:52:29.000Z</time>
      </trkpt>
      <trkpt lat="49.32946" lon="-0.43546">
        <ele>6.562397</ele>
        <time>2022-08-04T14:52:30.000Z</time>
      </trkpt>
      <trkpt lat="49.32945" lon="-0.43538">
        <ele>6.550371</ele>
        <time>2022-08-04T14:52:31.000Z</time>
      </trkpt>
      <trkpt lat="49.32945" lon="-0.4353">
        <ele>6.538461</ele>
        <time>2022-08-04T14:52:32.000Z</time>
      </trkpt>
      <trkpt lat="49.32944" lon="-0.43522">
        <ele>6.526435</ele>
        <time>2022-08-04T14:52:33.000Z</time>
      </trkpt>
      <trkpt lat="49.32943" lon="-0.43514">
        <ele>6.515124</ele>
        <time>2022-08-04T14:52:34.000Z</time>
      </trkpt>
      <trkpt lat="49.32943" lon="-0.43506">
        <ele>6.503282</ele>
        <time>2022-08-04T14:52:35.000Z</time>
      </trkpt>
      <trkpt lat="49.32943" lon="-0.43498">
        <ele>6.492173</ele>
        <time>2022-08-04T14:52:36.000Z</time>
      </trkpt>
      <trkpt lat="49.32942" lon="-0.4349">
        <ele>6.480475</ele>
        <time>2022-08-04T14:52:37.000Z</time>
      </trkpt>
      <trkpt lat="49.32942" lon="-0.43483">
        <ele>6.46835</ele>
        <time>2022-08-04T14:52:38.000Z</time>
      </trkpt>
      <trkpt lat="49.32941" lon="-0.43475">
        <ele>6.455402</ele>
        <time>2022-08-04T14:52:39.000Z</time>
      </trkpt>
      <trkpt lat="49.32941" lon="-0.43467">
        <ele>6.442816</ele>
        <time>2022-08-04T14:52:40.000Z</time>
      </trkpt>
      <trkpt lat="49.32941" lon="-0.43459">
        <ele>6.429906</ele>
        <time>2022-08-04T14:52:41.000Z</time>
      </trkpt>
      <trkpt lat="49.32942" lon="-0.43451">
        <ele>6.417442</ele>
        <time>2022-08-04T14:52:42.000Z</time>
      </trkpt>
      <trkpt lat="49.32942" lon="-0.43443">
        <ele>6.404855</ele>
        <time>2022-08-04T14:52:43.000Z</time>
      </trkpt>
      <trkpt lat="49.32943" lon="-0.43435">
        <ele>6.391913</ele>
        <time>2022-08-04T14:52:44.000Z</time>
      </trkpt>
      <trkpt lat="49.32943" lon="-0.43428">
        <ele>6.379305</ele>
        <time>2022-08-04T14:52:45.000Z</time>
      </trkpt>
      <trkpt lat="49.32943" lon="-0.4342">
        <ele>6.367162</ele>
        <time>2022-08-04T14:52:46.000Z</time>
      </trkpt>
      <trkpt lat="49.32944" lon="-0.43412">
        <ele>6.354553</ele>
        <time>2022-08-04T14:52:47.000Z</time>
      </trkpt>
      <trkpt lat="49.32944" lon="-0.43404">
        <ele>6.341805</ele>
        <time>2022-08-04T14:52:48.000Z</time>
      </trkpt>
      <trkpt lat="49.32944" lon="-0.43397">
        <ele>6.329703</ele>
        <time>2022-08-04T14:52:49.000Z</time>
      </trkpt>
      <trkpt lat="49.32943" lon="-0.43389">
        <ele>6.317577</ele>
        <time>2022-08-04T14:52:50.000Z</time>
      </trkpt>
      <trkpt lat="49.32943" lon="-0.43382">
        <ele>6.305351</ele>
        <time>2022-08-04T14:52:51.000Z</time>
      </trkpt>
      <trkpt lat="49.32941" lon="-0.43375">
        <ele>6.293606</ele>
        <time>2022-08-04T14:52:52.000Z</time>
      </trkpt>
      <trkpt lat="49.3294" lon="-0.43368">
        <ele>6.281926</ele>
        <time>2022-08-04T14:52:53.000Z</time>
      </trkpt>
      <trkpt lat="49.32939" lon="-0.43361">
        <ele>6.27018</ele>
        <time>2022-08-04T14:52:54.000Z</time>
      </trkpt>
      <trkpt lat="49.32937" lon="-0.43354">
        <ele>6.257944</ele>
        <time>2022-08-04T14:52:55.000Z</time>
      </trkpt>
      <trkpt lat="49.32935" lon="-0.43347">
        <ele>6.246732</ele>
        <time>2022-08-04T14:52:56.000Z</time>
      </trkpt>
      <trkpt lat="49.32934" lon="-0.43341">
        <ele>6.236068</ele>
        <time>2022-08-04T14:52:57.000Z</time>
      </trkpt>
      <trkpt lat="49.32933" lon="-0.43335">
        <ele>6.226075</ele>
        <time>2022-08-04T14:52:58.000Z</time>
      </trkpt>
      <trkpt lat="49.32933" lon="-0.43329">
        <ele>6.216847</ele>
        <time>2022-08-04T14:52:59.000Z</time>
      </trkpt>
      <trkpt lat="49.32932" lon="-0.43324">
        <ele>6.207943</ele>
        <time>2022-08-04T14:53:00.000Z</time>
      </trkpt>
      <trkpt lat="49.32932" lon="-0.43319">
        <ele>6.199552</ele>
        <time>2022-08-04T14:53:01.000Z</time>
      </trkpt>
      <trkpt lat="49.32932" lon="-0.43314">
        <ele>6.192129</ele>
        <time>2022-08-04T14:53:02.000Z</time>
      </trkpt>
      <trkpt lat="49.32932" lon="-0.43309">
        <ele>6.184187</ele>
        <time>2022-08-04T14:53:03.000Z</time>
      </trkpt>
      <trkpt lat="49.32932" lon="-0.43305">
        <ele>6.176926</ele>
        <time>2022-08-04T14:53:04.000Z</time>
      </trkpt>
      <trkpt lat="49.32932" lon="-0.43301">
        <ele>6.170086</ele>
        <time>2022-08-04T14:53:05.000Z</time>
      </trkpt>
      <trkpt lat="49.32932" lon="-0.43296">
        <ele>6.162825</ele>
        <time>2022-08-04T14:53:06.000Z</time>
      </trkpt>
      <trkpt lat="49.32933" lon="-0.43291">
        <ele>6.154454</ele>
        <time>2022-08-04T14:53:07.000Z</time>
      </trkpt>
      <trkpt lat="49.32933" lon="-0.43286">
        <ele>6.145548</ele>
        <time>2022-08-04T14:53:08.000Z</time>
      </trkpt>
      <trkpt lat="49.32933" lon="-0.4328">
        <ele>6.136642</ele>
        <time>2022-08-04T14:53:09.000Z</time>
      </trkpt>
      <trkpt lat="49.32933" lon="-0.43274">
        <ele>6.126609</ele>
        <time>2022-08-04T14:53:10.000Z</time>
      </trkpt>
      <trkpt lat="49.32932" lon="-0.43267">
        <ele>6.11536</ele>
        <time>2022-08-04T14:53:11.000Z</time>
      </trkpt>
      <trkpt lat="49.32932" lon="-0.4326">
        <ele>6.104201</ele>
        <time>2022-08-04T14:53:12.000Z</time>
      </trkpt>
      <trkpt lat="49.3293" lon="-0.43253">
        <ele>6.091989</ele>
        <time>2022-08-04T14:53:13.000Z</time>
      </trkpt>
      <trkpt lat="49.3293" lon="-0.43246">
        <ele>6.080694</ele>
        <time>2022-08-04T14:53:14.000Z</time>
      </trkpt>
      <trkpt lat="49.3293" lon="-0.43239">
        <ele>6.069374</ele>
        <time>2022-08-04T14:53:15.000Z</time>
      </trkpt>
      <trkpt lat="49.3293" lon="-0.43232">
        <ele>6.057248</ele>
        <time>2022-08-04T14:53:16.000Z</time>
      </trkpt>
      <trkpt lat="49.3293" lon="-0.43225">
        <ele>6.045952</ele>
        <time>2022-08-04T14:53:17.000Z</time>
      </trkpt>
      <trkpt lat="49.32929" lon="-0.43217">
        <ele>6.01754</ele>
        <time>2022-08-04T14:53:18.000Z</time>
      </trkpt>
      <trkpt lat="49.32928" lon="-0.43209">
        <ele>5.962684</ele>
        <time>2022-08-04T14:53:19.000Z</time>
      </trkpt>
      <trkpt lat="49.32928" lon="-0.43202">
        <ele>5.909889</ele>
        <time>2022-08-04T14:53:20.000Z</time>
      </trkpt>
      <trkpt lat="49.32927" lon="-0.43194">
        <ele>5.856692</ele>
        <time>2022-08-04T14:53:21.000Z</time>
      </trkpt>
      <trkpt lat="49.32927" lon="-0.43186">
        <ele>5.801496</ele>
        <time>2022-08-04T14:53:22.000Z</time>
      </trkpt>
      <trkpt lat="49.32926" lon="-0.43179">
        <ele>5.745954</ele>
        <time>2022-08-04T14:53:23.000Z</time>
      </trkpt>
      <trkpt lat="49.32926" lon="-0.43171">
        <ele>5.689966</ele>
        <time>2022-08-04T14:53:24.000Z</time>
      </trkpt>
      <trkpt lat="49.32926" lon="-0.43163">
        <ele>5.633979</ele>
        <time>2022-08-04T14:53:25.000Z</time>
      </trkpt>
      <trkpt lat="49.32925" lon="-0.43155">
        <ele>5.577066</ele>
        <time>2022-08-04T14:53:26.000Z</time>
      </trkpt>
      <trkpt lat="49.32923" lon="-0.43146">
        <ele>5.516591</ele>
        <time>2022-08-04T14:53:27.000Z</time>
      </trkpt>
      <trkpt lat="49.32922" lon="-0.43138">
        <ele>5.457628</ele>
        <time>2022-08-04T14:53:28.000Z</time>
      </trkpt>
      <trkpt lat="49.32921" lon="-0.4313">
        <ele>5.399976</ele>
        <time>2022-08-04T14:53:29.000Z</time>
      </trkpt>
      <trkpt lat="49.32921" lon="-0.43122">
        <ele>5.343988</ele>
        <time>2022-08-04T14:53:30.000Z</time>
      </trkpt>
      <trkpt lat="49.3292" lon="-0.43114">
        <ele>5.287075</ele>
        <time>2022-08-04T14:53:31.000Z</time>
      </trkpt>
      <trkpt lat="49.32919" lon="-0.43106">
        <ele>5.230811</ele>
        <time>2022-08-04T14:53:32.000Z</time>
      </trkpt>
      <trkpt lat="49.32919" lon="-0.43098">
        <ele>5.174752</ele>
        <time>2022-08-04T14:53:33.000Z</time>
      </trkpt>
      <trkpt lat="49.32918" lon="-0.4309">
        <ele>5.11803</ele>
        <time>2022-08-04T14:53:34.000Z</time>
      </trkpt>
      <trkpt lat="49.32918" lon="-0.43082">
        <ele>5.064833</ele>
        <time>2022-08-04T14:53:35.000Z</time>
      </trkpt>
      <trkpt lat="49.32917" lon="-0.43075">
        <ele>5.012256</ele>
        <time>2022-08-04T14:53:36.000Z</time>
      </trkpt>
      <trkpt lat="49.32917" lon="-0.43068">
        <ele>4.966841</ele>
        <time>2022-08-04T14:53:37.000Z</time>
      </trkpt>
      <trkpt lat="49.32919" lon="-0.43063">
        <ele>4.925396</ele>
        <time>2022-08-04T14:53:38.000Z</time>
      </trkpt>
      <trkpt lat="49.32921" lon="-0.43059">
        <ele>4.889614</ele>
        <time>2022-08-04T14:53:39.000Z</time>
      </trkpt>
      <trkpt lat="49.32923" lon="-0.43056">
        <ele>4.861851</ele>
        <time>2022-08-04T14:53:40.000Z</time>
      </trkpt>
      <trkpt lat="49.32925" lon="-0.43054">
        <ele>4.838272</ele>
        <time>2022-08-04T14:53:41.000Z</time>
      </trkpt>
      <trkpt lat="49.32927" lon="-0.43053">
        <ele>4.812171</ele>
        <time>2022-08-04T14:53:42.000Z</time>
      </trkpt>
      <trkpt lat="49.32929" lon="-0.43051">
        <ele>4.783114</ele>
        <time>2022-08-04T14:53:43.000Z</time>
      </trkpt>
      <trkpt lat="49.32932" lon="-0.43048">
        <ele>4.747453</ele>
        <time>2022-08-04T14:53:44.000Z</time>
      </trkpt>
      <trkpt lat="49.32935" lon="-0.43046">
        <ele>4.708956</ele>
        <time>2022-08-04T14:53:45.000Z</time>
      </trkpt>
      <trkpt lat="49.32939" lon="-0.43043">
        <ele>4.664061</ele>
        <time>2022-08-04T14:53:46.000Z</time>
      </trkpt>
      <trkpt lat="49.32943" lon="-0.4304">
        <ele>4.615508</ele>
        <time>2022-08-04T14:53:47.000Z</time>
      </trkpt>
      <trkpt lat="49.32947" lon="-0.43037">
        <ele>4.569037</ele>
        <time>2022-08-04T14:53:48.000Z</time>
      </trkpt>
      <trkpt lat="49.32951" lon="-0.43033">
        <ele>4.519634</ele>
        <time>2022-08-04T14:53:49.000Z</time>
      </trkpt>
      <trkpt lat="49.32954" lon="-0.43029">
        <ele>4.4792</ele>
        <time>2022-08-04T14:53:50.000Z</time>
      </trkpt>
      <trkpt lat="49.32958" lon="-0.43026">
        <ele>4.431453</ele>
        <time>2022-08-04T14:53:51.000Z</time>
      </trkpt>
      <trkpt lat="49.32962" lon="-0.43023">
        <ele>4.385638</ele>
        <time>2022-08-04T14:53:52.000Z</time>
      </trkpt>
      <trkpt lat="49.32965" lon="-0.4302">
        <ele>4.339167</ele>
        <time>2022-08-04T14:53:53.000Z</time>
      </trkpt>
      <trkpt lat="49.3297" lon="-0.43016">
        <ele>4.287928</ele>
        <time>2022-08-04T14:53:54.000Z</time>
      </trkpt>
      <trkpt lat="49.32973" lon="-0.43013">
        <ele>4.24005</ele>
        <time>2022-08-04T14:53:55.000Z</time>
      </trkpt>
      <trkpt lat="49.32978" lon="-0.4301">
        <ele>4.189778</ele>
        <time>2022-08-04T14:53:56.000Z</time>
      </trkpt>
      <trkpt lat="49.32982" lon="-0.43007">
        <ele>4.134213</ele>
        <time>2022-08-04T14:53:57.000Z</time>
      </trkpt>
      <trkpt lat="49.32987" lon="-0.43003">
        <ele>4.11031</ele>
        <time>2022-08-04T14:53:58.000Z</time>
      </trkpt>
      <trkpt lat="49.32991" lon="-0.42999">
        <ele>4.110099</ele>
        <time>2022-08-04T14:53:59.000Z</time>
      </trkpt>
      <trkpt lat="49.32995" lon="-0.42994">
        <ele>4.109873</ele>
        <time>2022-08-04T14:54:00.000Z</time>
      </trkpt>
      <trkpt lat="49.32999" lon="-0.4299">
        <ele>4.109639</ele>
        <time>2022-08-04T14:54:01.000Z</time>
      </trkpt>
      <trkpt lat="49.33005" lon="-0.42986">
        <ele>4.109388</ele>
        <time>2022-08-04T14:54:02.000Z</time>
      </trkpt>
      <trkpt lat="49.33009" lon="-0.42981">
        <ele>4.109156</ele>
        <time>2022-08-04T14:54:03.000Z</time>
      </trkpt>
      <trkpt lat="49.33013" lon="-0.42977">
        <ele>4.108919</ele>
        <time>2022-08-04T14:54:04.000Z</time>
      </trkpt>
      <trkpt lat="49.33018" lon="-0.42972">
        <ele>4.108659</ele>
        <time>2022-08-04T14:54:05.000Z</time>
      </trkpt>
      <trkpt lat="49.33023" lon="-0.42967">
        <ele>4.108404</ele>
        <time>2022-08-04T14:54:06.000Z</time>
      </trkpt>
      <trkpt lat="49.33028" lon="-0.42963">
        <ele>4.108138</ele>
        <time>2022-08-04T14:54:07.000Z</time>
      </trkpt>
      <trkpt lat="49.33033" lon="-0.42958">
        <ele>4.107886</ele>
        <time>2022-08-04T14:54:08.000Z</time>
      </trkpt>
      <trkpt lat="49.33038" lon="-0.42953">
        <ele>4.107612</ele>
        <time>2022-08-04T14:54:09.000Z</time>
      </trkpt>
      <trkpt lat="49.33044" lon="-0.42949">
        <ele>4.107352</ele>
        <time>2022-08-04T14:54:10.000Z</time>
      </trkpt>
      <trkpt lat="49.33049" lon="-0.42944">
        <ele>4.107092</ele>
        <time>2022-08-04T14:54:11.000Z</time>
      </trkpt>
      <trkpt lat="49.33054" lon="-0.4294">
        <ele>4.106816</ele>
        <time>2022-08-04T14:54:12.000Z</time>
      </trkpt>
      <trkpt lat="49.33059" lon="-0.42936">
        <ele>4.10657</ele>
        <time>2022-08-04T14:54:13.000Z</time>
      </trkpt>
      <trkpt lat="49.33064" lon="-0.42931">
        <ele>4.106307</ele>
        <time>2022-08-04T14:54:14.000Z</time>
      </trkpt>
      <trkpt lat="49.33069" lon="-0.42926">
        <ele>4.106039</ele>
        <time>2022-08-04T14:54:15.000Z</time>
      </trkpt>
      <trkpt lat="49.33074" lon="-0.4292">
        <ele>4.105764</ele>
        <time>2022-08-04T14:54:16.000Z</time>
      </trkpt>
      <trkpt lat="49.3308" lon="-0.42915">
        <ele>4.105468</ele>
        <time>2022-08-04T14:54:17.000Z</time>
      </trkpt>
      <trkpt lat="49.33086" lon="-0.4291">
        <ele>4.105171</ele>
        <time>2022-08-04T14:54:18.000Z</time>
      </trkpt>
      <trkpt lat="49.33091" lon="-0.42905">
        <ele>4.104889</ele>
        <time>2022-08-04T14:54:19.000Z</time>
      </trkpt>
      <trkpt lat="49.33097" lon="-0.429">
        <ele>4.104606</ele>
        <time>2022-08-04T14:54:20.000Z</time>
      </trkpt>
      <trkpt lat="49.33102" lon="-0.42894">
        <ele>4.104307</ele>
        <time>2022-08-04T14:54:21.000Z</time>
      </trkpt>
      <trkpt lat="49.33108" lon="-0.42889">
        <ele>4.104025</ele>
        <time>2022-08-04T14:54:22.000Z</time>
      </trkpt>
      <trkpt lat="49.33113" lon="-0.42884">
        <ele>4.103746</ele>
        <time>2022-08-04T14:54:23.000Z</time>
      </trkpt>
      <trkpt lat="49.33118" lon="-0.42878">
        <ele>4.103478</ele>
        <time>2022-08-04T14:54:24.000Z</time>
      </trkpt>
      <trkpt lat="49.33123" lon="-0.42873">
        <ele>4.103208</ele>
        <time>2022-08-04T14:54:25.000Z</time>
      </trkpt>
      <trkpt lat="49.33128" lon="-0.42868">
        <ele>4.10293</ele>
        <time>2022-08-04T14:54:26.000Z</time>
      </trkpt>
      <trkpt lat="49.33133" lon="-0.42863">
        <ele>4.102666</ele>
        <time>2022-08-04T14:54:27.000Z</time>
      </trkpt>
      <trkpt lat="49.33138" lon="-0.42858">
        <ele>4.087312</ele>
        <time>2022-08-04T14:54:28.000Z</time>
      </trkpt>
      <trkpt lat="49.33143" lon="-0.42853">
        <ele>4.028457</ele>
        <time>2022-08-04T14:54:29.000Z</time>
      </trkpt>
      <trkpt lat="49.33149" lon="-0.42849">
        <ele>3.971706</ele>
        <time>2022-08-04T14:54:30.000Z</time>
      </trkpt>
      <trkpt lat="49.33154" lon="-0.42844">
        <ele>3.913689</ele>
        <time>2022-08-04T14:54:31.000Z</time>
      </trkpt>
      <trkpt lat="49.33158" lon="-0.4284">
        <ele>3.858833</ele>
        <time>2022-08-04T14:54:32.000Z</time>
      </trkpt>
      <trkpt lat="49.33164" lon="-0.42836">
        <ele>3.802083</ele>
        <time>2022-08-04T14:54:33.000Z</time>
      </trkpt>
      <trkpt lat="49.33168" lon="-0.42832">
        <ele>3.753876</ele>
        <time>2022-08-04T14:54:34.000Z</time>
      </trkpt>
      <trkpt lat="49.33172" lon="-0.42828">
        <ele>3.703784</ele>
        <time>2022-08-04T14:54:35.000Z</time>
      </trkpt>
      <trkpt lat="49.33177" lon="-0.42824">
        <ele>3.647338</ele>
        <time>2022-08-04T14:54:36.000Z</time>
      </trkpt>
      <trkpt lat="49.33182" lon="-0.4282">
        <ele>3.594069</ele>
        <time>2022-08-04T14:54:37.000Z</time>
      </trkpt>
      <trkpt lat="49.33187" lon="-0.42816">
        <ele>3.539585</ele>
        <time>2022-08-04T14:54:38.000Z</time>
      </trkpt>
      <trkpt lat="49.33192" lon="-0.42812">
        <ele>3.486911</ele>
        <time>2022-08-04T14:54:39.000Z</time>
      </trkpt>
      <trkpt lat="49.33197" lon="-0.42809">
        <ele>3.436603</ele>
        <time>2022-08-04T14:54:40.000Z</time>
      </trkpt>
      <trkpt lat="49.33202" lon="-0.42807">
        <ele>3.386961</ele>
        <time>2022-08-04T14:54:41.000Z</time>
      </trkpt>
      <trkpt lat="49.33207" lon="-0.42804">
        <ele>3.331954</ele>
        <time>2022-08-04T14:54:42.000Z</time>
      </trkpt>
      <trkpt lat="49.33212" lon="-0.42802">
        <ele>3.28252</ele>
        <time>2022-08-04T14:54:43.000Z</time>
      </trkpt>
      <trkpt lat="49.33217" lon="-0.42799">
        <ele>3.226579</ele>
        <time>2022-08-04T14:54:44.000Z</time>
      </trkpt>
      <trkpt lat="49.33222" lon="-0.42796">
        <ele>3.176034</ele>
        <time>2022-08-04T14:54:45.000Z</time>
      </trkpt>
      <trkpt lat="49.33227" lon="-0.42794">
        <ele>3.12342</ele>
        <time>2022-08-04T14:54:46.000Z</time>
      </trkpt>
      <trkpt lat="49.33232" lon="-0.42791">
        <ele>3.074566</ele>
        <time>2022-08-04T14:54:47.000Z</time>
      </trkpt>
      <trkpt lat="49.33237" lon="-0.42789">
        <ele>3.025132</ele>
        <time>2022-08-04T14:54:48.000Z</time>
      </trkpt>
      <trkpt lat="49.33241" lon="-0.42787">
        <ele>2.985954</ele>
        <time>2022-08-04T14:54:49.000Z</time>
      </trkpt>
      <trkpt lat="49.33245" lon="-0.42785">
        <ele>2.946237</ele>
        <time>2022-08-04T14:54:50.000Z</time>
      </trkpt>
      <trkpt lat="49.33248" lon="-0.42784">
        <ele>2.910798</ele>
        <time>2022-08-04T14:54:51.000Z</time>
      </trkpt>
      <trkpt lat="49.33251" lon="-0.42782">
        <ele>2.878672</ele>
        <time>2022-08-04T14:54:52.000Z</time>
      </trkpt>
      <trkpt lat="49.33255" lon="-0.42781">
        <ele>2.843553</ele>
        <time>2022-08-04T14:54:53.000Z</time>
      </trkpt>
      <trkpt lat="49.33257" lon="-0.42779">
        <ele>2.81519</ele>
        <time>2022-08-04T14:54:54.000Z</time>
      </trkpt>
      <trkpt lat="49.3326" lon="-0.42777">
        <ele>2.790876</ele>
        <time>2022-08-04T14:54:55.000Z</time>
      </trkpt>
      <trkpt lat="49.33262" lon="-0.42776">
        <ele>2.766745</ele>
        <time>2022-08-04T14:54:56.000Z</time>
      </trkpt>
      <trkpt lat="49.33265" lon="-0.42776">
        <ele>2.739255</ele>
        <time>2022-08-04T14:54:57.000Z</time>
      </trkpt>
      <trkpt lat="49.33267" lon="-0.42779">
        <ele>2.712823</ele>
        <time>2022-08-04T14:54:58.000Z</time>
      </trkpt>
      <trkpt lat="49.33269" lon="-0.42782">
        <ele>2.684838</ele>
        <time>2022-08-04T14:54:59.000Z</time>
      </trkpt>
      <trkpt lat="49.33271" lon="-0.42785">
        <ele>2.652334</ele>
        <time>2022-08-04T14:55:00.000Z</time>
      </trkpt>
      <trkpt lat="49.33274" lon="-0.42788">
        <ele>2.620585</ele>
        <time>2022-08-04T14:55:01.000Z</time>
      </trkpt>
      <trkpt lat="49.33277" lon="-0.42791">
        <ele>2.588749</ele>
        <time>2022-08-04T14:55:02.000Z</time>
      </trkpt>
      <trkpt lat="49.3328" lon="-0.42791">
        <ele>2.56012</ele>
        <time>2022-08-04T14:55:03.000Z</time>
      </trkpt>
      <trkpt lat="49.33282" lon="-0.42791">
        <ele>2.535337</ele>
        <time>2022-08-04T14:55:04.000Z</time>
      </trkpt>
      <trkpt lat="49.33285" lon="-0.42789">
        <ele>2.511645</ele>
        <time>2022-08-04T14:55:05.000Z</time>
      </trkpt>
      <trkpt lat="49.33287" lon="-0.42788">
        <ele>2.487331</ele>
        <time>2022-08-04T14:55:06.000Z</time>
      </trkpt>
      <trkpt lat="49.33289" lon="-0.42785">
        <ele>2.458376</ele>
        <time>2022-08-04T14:55:07.000Z</time>
      </trkpt>
      <trkpt lat="49.33293" lon="-0.42783">
        <ele>2.423064</ele>
        <time>2022-08-04T14:55:08.000Z</time>
      </trkpt>
      <trkpt lat="49.33296" lon="-0.4278">
        <ele>2.386494</ele>
        <time>2022-08-04T14:55:09.000Z</time>
      </trkpt>
      <trkpt lat="49.333" lon="-0.42777">
        <ele>2.346343</ele>
        <time>2022-08-04T14:55:10.000Z</time>
      </trkpt>
      <trkpt lat="49.33303" lon="-0.42773">
        <ele>2.324722</ele>
        <time>2022-08-04T14:55:11.000Z</time>
      </trkpt>
      <trkpt lat="49.33307" lon="-0.42769">
        <ele>2.304204</ele>
        <time>2022-08-04T14:55:12.000Z</time>
      </trkpt>
      <trkpt lat="49.33311" lon="-0.42765">
        <ele>2.282151</ele>
        <time>2022-08-04T14:55:13.000Z</time>
      </trkpt>
      <trkpt lat="49.33315" lon="-0.42761">
        <ele>2.258496</ele>
        <time>2022-08-04T14:55:14.000Z</time>
      </trkpt>
      <trkpt lat="49.33319" lon="-0.42757">
        <ele>2.233608</ele>
        <time>2022-08-04T14:55:15.000Z</time>
      </trkpt>
      <trkpt lat="49.33324" lon="-0.42753">
        <ele>2.210017</ele>
        <time>2022-08-04T14:55:16.000Z</time>
      </trkpt>
      <trkpt lat="49.33327" lon="-0.4275">
        <ele>2.188853</ele>
        <time>2022-08-04T14:55:17.000Z</time>
      </trkpt>
      <trkpt lat="49.33333" lon="-0.42745">
        <ele>2.159296</ele>
        <time>2022-08-04T14:55:18.000Z</time>
      </trkpt>
      <trkpt lat="49.33337" lon="-0.42741">
        <ele>2.13564</ele>
        <time>2022-08-04T14:55:19.000Z</time>
      </trkpt>
      <trkpt lat="49.33341" lon="-0.42737">
        <ele>2.113762</ele>
        <time>2022-08-04T14:55:20.000Z</time>
      </trkpt>
      <trkpt lat="49.33345" lon="-0.42734">
        <ele>2.092552</ele>
        <time>2022-08-04T14:55:21.000Z</time>
      </trkpt>
      <trkpt lat="49.33349" lon="-0.4273">
        <ele>2.06953</ele>
        <time>2022-08-04T14:55:22.000Z</time>
      </trkpt>
      <trkpt lat="49.33352" lon="-0.42727">
        <ele>2.04919</ele>
        <time>2022-08-04T14:55:23.000Z</time>
      </trkpt>
      <trkpt lat="49.33356" lon="-0.42723">
        <ele>2.027248</ele>
        <time>2022-08-04T14:55:24.000Z</time>
      </trkpt>
      <trkpt lat="49.3336" lon="-0.42719">
        <ele>2.00673</ele>
        <time>2022-08-04T14:55:25.000Z</time>
      </trkpt>
      <trkpt lat="49.33363" lon="-0.42715">
        <ele>1.986212</ele>
        <time>2022-08-04T14:55:26.000Z</time>
      </trkpt>
      <trkpt lat="49.33367" lon="-0.42712">
        <ele>1.964675</ele>
        <time>2022-08-04T14:55:27.000Z</time>
      </trkpt>
      <trkpt lat="49.33371" lon="-0.42708">
        <ele>1.941803</ele>
        <time>2022-08-04T14:55:28.000Z</time>
      </trkpt>
      <trkpt lat="49.33376" lon="-0.42704">
        <ele>1.916097</ele>
        <time>2022-08-04T14:55:29.000Z</time>
      </trkpt>
      <trkpt lat="49.33381" lon="-0.42701">
        <ele>1.891811</ele>
        <time>2022-08-04T14:55:30.000Z</time>
      </trkpt>
      <trkpt lat="49.33386" lon="-0.42697">
        <ele>1.864401</ele>
        <time>2022-08-04T14:55:31.000Z</time>
      </trkpt>
      <trkpt lat="49.3339" lon="-0.42693">
        <ele>1.839668</ele>
        <time>2022-08-04T14:55:32.000Z</time>
      </trkpt>
      <trkpt lat="49.33395" lon="-0.42689">
        <ele>1.81307</ele>
        <time>2022-08-04T14:55:33.000Z</time>
      </trkpt>
      <trkpt lat="49.334" lon="-0.42685">
        <ele>1.78693</ele>
        <time>2022-08-04T14:55:34.000Z</time>
      </trkpt>
      <trkpt lat="49.33404" lon="-0.42681">
        <ele>1.76235</ele>
        <time>2022-08-04T14:55:35.000Z</time>
      </trkpt>
      <trkpt lat="49.33409" lon="-0.42677">
        <ele>1.737876</ele>
        <time>2022-08-04T14:55:36.000Z</time>
      </trkpt>
      <trkpt lat="49.33413" lon="-0.42673">
        <ele>1.713885</ele>
        <time>2022-08-04T14:55:37.000Z</time>
      </trkpt>
      <trkpt lat="49.33418" lon="-0.42669">
        <ele>1.687746</ele>
        <time>2022-08-04T14:55:38.000Z</time>
      </trkpt>
      <trkpt lat="49.33422" lon="-0.42664">
        <ele>1.663755</ele>
        <time>2022-08-04T14:55:39.000Z</time>
      </trkpt>
      <trkpt lat="49.33426" lon="-0.4266">
        <ele>1.638791</ele>
        <time>2022-08-04T14:55:40.000Z</time>
      </trkpt>
      <trkpt lat="49.3343" lon="-0.42656">
        <ele>1.614629</ele>
        <time>2022-08-04T14:55:41.000Z</time>
      </trkpt>
      <trkpt lat="49.33435" lon="-0.42651">
        <ele>1.590115</ele>
        <time>2022-08-04T14:55:42.000Z</time>
      </trkpt>
      <trkpt lat="49.33439" lon="-0.42647">
        <ele>1.563358</ele>
        <time>2022-08-04T14:55:43.000Z</time>
      </trkpt>
      <trkpt lat="49.33444" lon="-0.42642">
        <ele>1.537879</ele>
        <time>2022-08-04T14:55:44.000Z</time>
      </trkpt>
      <trkpt lat="49.33448" lon="-0.42638">
        <ele>1.513003</ele>
        <time>2022-08-04T14:55:45.000Z</time>
      </trkpt>
      <trkpt lat="49.33452" lon="-0.42633">
        <ele>1.487672</ele>
        <time>2022-08-04T14:55:46.000Z</time>
      </trkpt>
      <trkpt lat="49.33456" lon="-0.42627">
        <ele>1.505938</ele>
        <time>2022-08-04T14:55:47.000Z</time>
      </trkpt>
      <trkpt lat="49.3346" lon="-0.42622">
        <ele>1.524838</ele>
        <time>2022-08-04T14:55:48.000Z</time>
      </trkpt>
      <trkpt lat="49.33463" lon="-0.42616">
        <ele>1.543905</ele>
        <time>2022-08-04T14:55:49.000Z</time>
      </trkpt>
      <trkpt lat="49.33466" lon="-0.42609">
        <ele>1.562121</ele>
        <time>2022-08-04T14:55:50.000Z</time>
      </trkpt>
      <trkpt lat="49.33469" lon="-0.42603">
        <ele>1.581165</ele>
        <time>2022-08-04T14:55:51.000Z</time>
      </trkpt>
      <trkpt lat="49.33472" lon="-0.42596">
        <ele>1.599396</ele>
        <time>2022-08-04T14:55:52.000Z</time>
      </trkpt>
      <trkpt lat="49.33475" lon="-0.4259">
        <ele>1.617811</ele>
        <time>2022-08-04T14:55:53.000Z</time>
      </trkpt>
      <trkpt lat="49.33477" lon="-0.42583">
        <ele>1.635861</ele>
        <time>2022-08-04T14:55:54.000Z</time>
      </trkpt>
      <trkpt lat="49.3348" lon="-0.42576">
        <ele>1.654188</ele>
        <time>2022-08-04T14:55:55.000Z</time>
      </trkpt>
      <trkpt lat="49.33482" lon="-0.42569">
        <ele>1.672131</ele>
        <time>2022-08-04T14:55:56.000Z</time>
      </trkpt>
      <trkpt lat="49.33484" lon="-0.42561">
        <ele>1.690725</ele>
        <time>2022-08-04T14:55:57.000Z</time>
      </trkpt>
      <trkpt lat="49.33485" lon="-0.42554">
        <ele>1.708868</ele>
        <time>2022-08-04T14:55:58.000Z</time>
      </trkpt>
      <trkpt lat="49.33486" lon="-0.42547">
        <ele>1.726109</ele>
        <time>2022-08-04T14:55:59.000Z</time>
      </trkpt>
      <trkpt lat="49.33487" lon="-0.4254">
        <ele>1.743575</ele>
        <time>2022-08-04T14:56:00.000Z</time>
      </trkpt>
      <trkpt lat="49.33489" lon="-0.42533">
        <ele>1.760917</ele>
        <time>2022-08-04T14:56:01.000Z</time>
      </trkpt>
      <trkpt lat="49.3349" lon="-0.42526">
        <ele>1.777422</ele>
        <time>2022-08-04T14:56:02.000Z</time>
      </trkpt>
      <trkpt lat="49.33491" lon="-0.42519">
        <ele>1.794323</ele>
        <time>2022-08-04T14:56:03.000Z</time>
      </trkpt>
      <trkpt lat="49.33492" lon="-0.42512">
        <ele>1.810392</ele>
        <time>2022-08-04T14:56:04.000Z</time>
      </trkpt>
      <trkpt lat="49.33493" lon="-0.42505">
        <ele>1.826897</ele>
        <time>2022-08-04T14:56:05.000Z</time>
      </trkpt>
      <trkpt lat="49.33493" lon="-0.42498">
        <ele>1.843262</ele>
        <time>2022-08-04T14:56:06.000Z</time>
      </trkpt>
      <trkpt lat="49.33492" lon="-0.42493">
        <ele>1.856298</ele>
        <time>2022-08-04T14:56:07.000Z</time>
      </trkpt>
      <trkpt lat="49.33492" lon="-0.42484">
        <ele>1.875522</ele>
        <time>2022-08-04T14:56:08.000Z</time>
      </trkpt>
      <trkpt lat="49.33492" lon="-0.42478">
        <ele>1.890755</ele>
        <time>2022-08-04T14:56:09.000Z</time>
      </trkpt>
      <trkpt lat="49.33491" lon="-0.42472">
        <ele>1.904823</ele>
        <time>2022-08-04T14:56:10.000Z</time>
      </trkpt>
      <trkpt lat="49.33491" lon="-0.42466">
        <ele>1.91959</ele>
        <time>2022-08-04T14:56:11.000Z</time>
      </trkpt>
      <trkpt lat="49.3349" lon="-0.4246">
        <ele>1.933616</ele>
        <time>2022-08-04T14:56:12.000Z</time>
      </trkpt>
      <trkpt lat="49.33489" lon="-0.42454">
        <ele>1.946652</ele>
        <time>2022-08-04T14:56:13.000Z</time>
      </trkpt>
      <trkpt lat="49.33489" lon="-0.42449">
        <ele>1.958158</ele>
        <time>2022-08-04T14:56:14.000Z</time>
      </trkpt>
      <trkpt lat="49.33488" lon="-0.42445">
        <ele>1.969201</ele>
        <time>2022-08-04T14:56:15.000Z</time>
      </trkpt>
      <trkpt lat="49.33488" lon="-0.42441">
        <ele>1.977661</ele>
        <time>2022-08-04T14:56:16.000Z</time>
      </trkpt>
      <trkpt lat="49.33487" lon="-0.42438">
        <ele>1.985111</ele>
        <time>2022-08-04T14:56:17.000Z</time>
      </trkpt>
      <trkpt lat="49.33486" lon="-0.42435">
        <ele>1.992832</ele>
        <time>2022-08-04T14:56:18.000Z</time>
      </trkpt>
      <trkpt lat="49.33486" lon="-0.42432">
        <ele>2.00039</ele>
        <time>2022-08-04T14:56:19.000Z</time>
      </trkpt>
      <trkpt lat="49.33486" lon="-0.42429">
        <ele>2.007403</ele>
        <time>2022-08-04T14:56:20.000Z</time>
      </trkpt>
      <trkpt lat="49.33486" lon="-0.42426">
        <ele>2.014416</ele>
        <time>2022-08-04T14:56:21.000Z</time>
      </trkpt>
      <trkpt lat="49.33486" lon="-0.42422">
        <ele>2.023133</ele>
        <time>2022-08-04T14:56:22.000Z</time>
      </trkpt>
      <trkpt lat="49.33486" lon="-0.42419">
        <ele>2.032081</ele>
        <time>2022-08-04T14:56:23.000Z</time>
      </trkpt>
      <trkpt lat="49.33486" lon="-0.42414">
        <ele>2.0419</ele>
        <time>2022-08-04T14:56:24.000Z</time>
      </trkpt>
      <trkpt lat="49.33485" lon="-0.4241">
        <ele>2.052517</ele>
        <time>2022-08-04T14:56:25.000Z</time>
      </trkpt>
      <trkpt lat="49.33485" lon="-0.42405">
        <ele>2.064488</ele>
        <time>2022-08-04T14:56:26.000Z</time>
      </trkpt>
      <trkpt lat="49.33485" lon="-0.42399">
        <ele>2.077391</ele>
        <time>2022-08-04T14:56:27.000Z</time>
      </trkpt>
      <trkpt lat="49.33484" lon="-0.42394">
        <ele>2.09074</ele>
        <time>2022-08-04T14:56:28.000Z</time>
      </trkpt>
      <trkpt lat="49.33484" lon="-0.42388">
        <ele>2.104808</ele>
        <time>2022-08-04T14:56:29.000Z</time>
      </trkpt>
      <trkpt lat="49.33484" lon="-0.42381">
        <ele>2.120471</ele>
        <time>2022-08-04T14:56:30.000Z</time>
      </trkpt>
      <trkpt lat="49.33483" lon="-0.42374">
        <ele>2.124255</ele>
        <time>2022-08-04T14:56:31.000Z</time>
      </trkpt>
      <trkpt lat="49.33483" lon="-0.42367">
        <ele>2.087605</ele>
        <time>2022-08-04T14:56:32.000Z</time>
      </trkpt>
      <trkpt lat="49.33482" lon="-0.4236">
        <ele>2.050121</ele>
        <time>2022-08-04T14:56:33.000Z</time>
      </trkpt>
      <trkpt lat="49.33482" lon="-0.42352">
        <ele>2.012964</ele>
        <time>2022-08-04T14:56:34.000Z</time>
      </trkpt>
      <trkpt lat="49.33482" lon="-0.42345">
        <ele>1.974792</ele>
        <time>2022-08-04T14:56:35.000Z</time>
      </trkpt>
      <trkpt lat="49.33481" lon="-0.42337">
        <ele>1.936406</ele>
        <time>2022-08-04T14:56:36.000Z</time>
      </trkpt>
      <trkpt lat="49.3348" lon="-0.4233">
        <ele>1.896911</ele>
        <time>2022-08-04T14:56:37.000Z</time>
      </trkpt>
      <trkpt lat="49.3348" lon="-0.42322">
        <ele>1.85874</ele>
        <time>2022-08-04T14:56:38.000Z</time>
      </trkpt>
      <trkpt lat="49.33479" lon="-0.42315">
        <ele>1.821866</ele>
        <time>2022-08-04T14:56:39.000Z</time>
      </trkpt>
      <trkpt lat="49.33479" lon="-0.42308">
        <ele>1.784651</ele>
        <time>2022-08-04T14:56:40.000Z</time>
      </trkpt>
      <trkpt lat="49.33478" lon="-0.42301">
        <ele>1.749792</ele>
        <time>2022-08-04T14:56:41.000Z</time>
      </trkpt>
      <trkpt lat="49.33478" lon="-0.42295">
        <ele>1.719222</ele>
        <time>2022-08-04T14:56:42.000Z</time>
      </trkpt>
      <trkpt lat="49.33477" lon="-0.42289">
        <ele>1.690754</ele>
        <time>2022-08-04T14:56:43.000Z</time>
      </trkpt>
      <trkpt lat="49.33477" lon="-0.42284">
        <ele>1.664403</ele>
        <time>2022-08-04T14:56:44.000Z</time>
      </trkpt>
      <trkpt lat="49.33476" lon="-0.42279">
        <ele>1.63892</ele>
        <time>2022-08-04T14:56:45.000Z</time>
      </trkpt>
      <trkpt lat="49.33475" lon="-0.42275">
        <ele>1.614521</ele>
        <time>2022-08-04T14:56:46.000Z</time>
      </trkpt>
      <trkpt lat="49.33474" lon="-0.4227">
        <ele>1.589405</ele>
        <time>2022-08-04T14:56:47.000Z</time>
      </trkpt>
      <trkpt lat="49.33474" lon="-0.42265">
        <ele>1.565021</ele>
        <time>2022-08-04T14:56:48.000Z</time>
      </trkpt>
      <trkpt lat="49.33474" lon="-0.4226">
        <ele>1.539513</ele>
        <time>2022-08-04T14:56:49.000Z</time>
      </trkpt>
      <trkpt lat="49.33474" lon="-0.42255">
        <ele>1.512081</ele>
        <time>2022-08-04T14:56:50.000Z</time>
      </trkpt>
      <trkpt lat="49.33475" lon="-0.42249">
        <ele>1.483074</ele>
        <time>2022-08-04T14:56:51.000Z</time>
      </trkpt>
      <trkpt lat="49.33476" lon="-0.42244">
        <ele>1.453518</ele>
        <time>2022-08-04T14:56:52.000Z</time>
      </trkpt>
      <trkpt lat="49.33476" lon="-0.42237">
        <ele>1.419482</ele>
        <time>2022-08-04T14:56:53.000Z</time>
      </trkpt>
      <trkpt lat="49.33476" lon="-0.4223">
        <ele>1.383413</ele>
        <time>2022-08-04T14:56:54.000Z</time>
      </trkpt>
      <trkpt lat="49.33475" lon="-0.42222">
        <ele>1.341496</ele>
        <time>2022-08-04T14:56:55.000Z</time>
      </trkpt>
      <trkpt lat="49.33474" lon="-0.42214">
        <ele>1.301498</ele>
        <time>2022-08-04T14:56:56.000Z</time>
      </trkpt>
      <trkpt lat="49.33474" lon="-0.42206">
        <ele>1.260858</ele>
        <time>2022-08-04T14:56:57.000Z</time>
      </trkpt>
      <trkpt lat="49.33474" lon="-0.42198">
        <ele>1.22015</ele>
        <time>2022-08-04T14:56:58.000Z</time>
      </trkpt>
      <trkpt lat="49.33473" lon="-0.4219">
        <ele>1.179747</ele>
        <time>2022-08-04T14:56:59.000Z</time>
      </trkpt>
      <trkpt lat="49.33473" lon="-0.42182">
        <ele>1.139039</ele>
        <time>2022-08-04T14:57:00.000Z</time>
      </trkpt>
      <trkpt lat="49.33473" lon="-0.42174">
        <ele>1.097891</ele>
        <time>2022-08-04T14:57:01.000Z</time>
      </trkpt>
      <trkpt lat="49.33473" lon="-0.42166">
        <ele>1.056235</ele>
        <time>2022-08-04T14:57:02.000Z</time>
      </trkpt>
      <trkpt lat="49.33473" lon="-0.42157">
        <ele>1.014579</ele>
        <time>2022-08-04T14:57:03.000Z</time>
      </trkpt>
      <trkpt lat="49.33472" lon="-0.42149">
        <ele>0.973575</ele>
        <time>2022-08-04T14:57:04.000Z</time>
      </trkpt>
      <trkpt lat="49.33472" lon="-0.42141">
        <ele>0.931346</ele>
        <time>2022-08-04T14:57:05.000Z</time>
      </trkpt>
      <trkpt lat="49.33472" lon="-0.42133">
        <ele>0.889182</ele>
        <time>2022-08-04T14:57:06.000Z</time>
      </trkpt>
      <trkpt lat="49.33472" lon="-0.42124">
        <ele>0.845938</ele>
        <time>2022-08-04T14:57:07.000Z</time>
      </trkpt>
      <trkpt lat="49.33472" lon="-0.42116">
        <ele>0.803266</ele>
        <time>2022-08-04T14:57:08.000Z</time>
      </trkpt>
      <trkpt lat="49.33471" lon="-0.42108">
        <ele>0.762559</ele>
        <time>2022-08-04T14:57:09.000Z</time>
      </trkpt>
      <trkpt lat="49.33471" lon="-0.421">
        <ele>0.737435</ele>
        <time>2022-08-04T14:57:10.000Z</time>
      </trkpt>
      <trkpt lat="49.33471" lon="-0.42092">
        <ele>0.767485</ele>
        <time>2022-08-04T14:57:11.000Z</time>
      </trkpt>
      <trkpt lat="49.33471" lon="-0.42083">
        <ele>0.797535</ele>
        <time>2022-08-04T14:57:12.000Z</time>
      </trkpt>
      <trkpt lat="49.33471" lon="-0.42075">
        <ele>0.827303</ele>
        <time>2022-08-04T14:57:13.000Z</time>
      </trkpt>
      <trkpt lat="49.3347" lon="-0.42067">
        <ele>0.85645</ele>
        <time>2022-08-04T14:57:14.000Z</time>
      </trkpt>
      <trkpt lat="49.3347" lon="-0.4206">
        <ele>0.883255</ele>
        <time>2022-08-04T14:57:15.000Z</time>
      </trkpt>
      <trkpt lat="49.3347" lon="-0.42053">
        <ele>0.90964</ele>
        <time>2022-08-04T14:57:16.000Z</time>
      </trkpt>
      <trkpt lat="49.3347" lon="-0.42046">
        <ele>0.935292</ele>
        <time>2022-08-04T14:57:17.000Z</time>
      </trkpt>
      <trkpt lat="49.3347" lon="-0.4204">
        <ele>0.958441</ele>
        <time>2022-08-04T14:57:18.000Z</time>
      </trkpt>
      <trkpt lat="49.33469" lon="-0.42034">
        <ele>0.979815</ele>
        <time>2022-08-04T14:57:19.000Z</time>
      </trkpt>
      <trkpt lat="49.33469" lon="-0.42028">
        <ele>0.99997</ele>
        <time>2022-08-04T14:57:20.000Z</time>
      </trkpt>
      <trkpt lat="49.33469" lon="-0.42023">
        <ele>1.019831</ele>
        <time>2022-08-04T14:57:21.000Z</time>
      </trkpt>
      <trkpt lat="49.33469" lon="-0.42018">
        <ele>1.038462</ele>
        <time>2022-08-04T14:57:22.000Z</time>
      </trkpt>
      <trkpt lat="49.33469" lon="-0.42014">
        <ele>1.05312</ele>
        <time>2022-08-04T14:57:23.000Z</time>
      </trkpt>
      <trkpt lat="49.33469" lon="-0.4201">
        <ele>1.065947</ele>
        <time>2022-08-04T14:57:24.000Z</time>
      </trkpt>
      <trkpt lat="49.33469" lon="-0.42008">
        <ele>1.077388</ele>
        <time>2022-08-04T14:57:25.000Z</time>
      </trkpt>
      <trkpt lat="49.33471" lon="-0.42003">
        <ele>1.09682</ele>
        <time>2022-08-04T14:57:27.000Z</time>
      </trkpt>
      <trkpt lat="49.33474" lon="-0.42">
        <ele>1.117909</ele>
        <time>2022-08-04T14:57:29.000Z</time>
      </trkpt>
      <trkpt lat="49.33476" lon="-0.41999">
        <ele>1.129369</ele>
        <time>2022-08-04T14:57:30.000Z</time>
      </trkpt>
      <trkpt lat="49.33478" lon="-0.41999">
        <ele>1.142004</ele>
        <time>2022-08-04T14:57:31.000Z</time>
      </trkpt>
      <trkpt lat="49.33481" lon="-0.41998">
        <ele>1.158513</ele>
        <time>2022-08-04T14:57:32.000Z</time>
      </trkpt>
      <trkpt lat="49.33483" lon="-0.41997">
        <ele>1.169354</ele>
        <time>2022-08-04T14:57:33.000Z</time>
      </trkpt>
      <trkpt lat="49.33485" lon="-0.41997">
        <ele>1.180434</ele>
        <time>2022-08-04T14:57:34.000Z</time>
      </trkpt>
      <trkpt lat="49.33488" lon="-0.41996">
        <ele>1.197005</ele>
        <time>2022-08-04T14:57:36.000Z</time>
      </trkpt>
      <trkpt lat="49.3349" lon="-0.41996">
        <ele>1.20769</ele>
        <time>2022-08-04T14:57:39.000Z</time>
      </trkpt>
      <trkpt lat="49.33493" lon="-0.41997">
        <ele>1.224405</ele>
        <time>2022-08-04T14:57:42.000Z</time>
      </trkpt>
      <trkpt lat="49.33495" lon="-0.41999">
        <ele>1.23848</ele>
        <time>2022-08-04T14:57:44.000Z</time>
      </trkpt>
      <trkpt lat="49.33498" lon="-0.42003">
        <ele>1.258783</ele>
        <time>2022-08-04T14:57:46.000Z</time>
      </trkpt>
      <trkpt lat="49.335" lon="-0.42004">
        <ele>1.274052</ele>
        <time>2022-08-04T14:57:47.000Z</time>
      </trkpt>
      <trkpt lat="49.33503" lon="-0.42004">
        <ele>1.289951</ele>
        <time>2022-08-04T14:57:48.000Z</time>
      </trkpt>
      <trkpt lat="49.33506" lon="-0.42005">
        <ele>1.306325</ele>
        <time>2022-08-04T14:57:49.000Z</time>
      </trkpt>
      <trkpt lat="49.33509" lon="-0.42005">
        <ele>1.322737</ele>
        <time>2022-08-04T14:57:50.000Z</time>
      </trkpt>
      <trkpt lat="49.33511" lon="-0.42006">
        <ele>1.337399</ele>
        <time>2022-08-04T14:57:51.000Z</time>
      </trkpt>
      <trkpt lat="49.33515" lon="-0.42006">
        <ele>1.357082</ele>
        <time>2022-08-04T14:57:52.000Z</time>
      </trkpt>
      <trkpt lat="49.33518" lon="-0.42005">
        <ele>1.37526</ele>
        <time>2022-08-04T14:57:53.000Z</time>
      </trkpt>
      <trkpt lat="49.33521" lon="-0.42004">
        <ele>1.393625</ele>
        <time>2022-08-04T14:57:54.000Z</time>
      </trkpt>
      <trkpt lat="49.33525" lon="-0.42003">
        <ele>1.412067</ele>
        <time>2022-08-04T14:57:55.000Z</time>
      </trkpt>
      <trkpt lat="49.33528" lon="-0.42002">
        <ele>1.432235</ele>
        <time>2022-08-04T14:57:56.000Z</time>
      </trkpt>
      <trkpt lat="49.33531" lon="-0.42">
        <ele>1.450761</ele>
        <time>2022-08-04T14:57:57.000Z</time>
      </trkpt>
      <trkpt lat="49.33535" lon="-0.41999">
        <ele>1.471012</ele>
        <time>2022-08-04T14:57:58.000Z</time>
      </trkpt>
      <trkpt lat="49.33538" lon="-0.41998">
        <ele>1.487521</ele>
        <time>2022-08-04T14:57:59.000Z</time>
      </trkpt>
      <trkpt lat="49.33541" lon="-0.41998">
        <ele>1.507289</ele>
        <time>2022-08-04T14:58:00.000Z</time>
      </trkpt>
      <trkpt lat="49.33544" lon="-0.41998">
        <ele>1.523598</ele>
        <time>2022-08-04T14:58:01.000Z</time>
      </trkpt>
      <trkpt lat="49.33548" lon="-0.41998">
        <ele>1.543312</ele>
        <time>2022-08-04T14:58:02.000Z</time>
      </trkpt>
      <trkpt lat="49.33551" lon="-0.41997">
        <ele>1.561545</ele>
        <time>2022-08-04T14:58:03.000Z</time>
      </trkpt>
      <trkpt lat="49.33554" lon="-0.41995">
        <ele>1.580257</ele>
        <time>2022-08-04T14:58:04.000Z</time>
      </trkpt>
      <trkpt lat="49.33557" lon="-0.41993">
        <ele>1.602125</ele>
        <time>2022-08-04T14:58:05.000Z</time>
      </trkpt>
      <trkpt lat="49.3356" lon="-0.41989">
        <ele>1.62381</ele>
        <time>2022-08-04T14:58:06.000Z</time>
      </trkpt>
      <trkpt lat="49.33563" lon="-0.41984">
        <ele>1.645849</ele>
        <time>2022-08-04T14:58:07.000Z</time>
      </trkpt>
      <trkpt lat="49.33565" lon="-0.41979">
        <ele>1.668263</ele>
        <time>2022-08-04T14:58:08.000Z</time>
      </trkpt>
      <trkpt lat="49.33567" lon="-0.41974">
        <ele>1.692211</ele>
        <time>2022-08-04T14:58:09.000Z</time>
      </trkpt>
      <trkpt lat="49.33569" lon="-0.41968">
        <ele>1.715673</ele>
        <time>2022-08-04T14:58:10.000Z</time>
      </trkpt>
      <trkpt lat="49.33571" lon="-0.41962">
        <ele>1.739135</ele>
        <time>2022-08-04T14:58:11.000Z</time>
      </trkpt>
      <trkpt lat="49.33573" lon="-0.41957">
        <ele>1.751447</ele>
        <time>2022-08-04T14:58:12.000Z</time>
      </trkpt>
      <trkpt lat="49.33575" lon="-0.41951">
        <ele>1.761769</ele>
        <time>2022-08-04T14:58:13.000Z</time>
      </trkpt>
      <trkpt lat="49.33576" lon="-0.41946">
        <ele>1.771469</ele>
        <time>2022-08-04T14:58:14.000Z</time>
      </trkpt>
      <trkpt lat="49.33578" lon="-0.41941">
        <ele>1.781388</ele>
        <time>2022-08-04T14:58:15.000Z</time>
      </trkpt>
      <trkpt lat="49.33579" lon="-0.41936">
        <ele>1.790187</ele>
        <time>2022-08-04T14:58:16.000Z</time>
      </trkpt>
      <trkpt lat="49.33581" lon="-0.41932">
        <ele>1.799095</ele>
        <time>2022-08-04T14:58:17.000Z</time>
      </trkpt>
      <trkpt lat="49.33581" lon="-0.41926">
        <ele>1.808145</ele>
        <time>2022-08-04T14:58:18.000Z</time>
      </trkpt>
      <trkpt lat="49.33581" lon="-0.41921">
        <ele>1.816921</ele>
        <time>2022-08-04T14:58:19.000Z</time>
      </trkpt>
      <trkpt lat="49.33582" lon="-0.41916">
        <ele>1.826212</ele>
        <time>2022-08-04T14:58:20.000Z</time>
      </trkpt>
      <trkpt lat="49.33582" lon="-0.41911">
        <ele>1.835295</ele>
        <time>2022-08-04T14:58:21.000Z</time>
      </trkpt>
      <trkpt lat="49.33582" lon="-0.41905">
        <ele>1.84472</ele>
        <time>2022-08-04T14:58:22.000Z</time>
      </trkpt>
      <trkpt lat="49.33582" lon="-0.419">
        <ele>1.854145</ele>
        <time>2022-08-04T14:58:23.000Z</time>
      </trkpt>
      <trkpt lat="49.33582" lon="-0.41894">
        <ele>1.863399</ele>
        <time>2022-08-04T14:58:24.000Z</time>
      </trkpt>
      <trkpt lat="49.33582" lon="-0.41889">
        <ele>1.872996</ele>
        <time>2022-08-04T14:58:25.000Z</time>
      </trkpt>
      <trkpt lat="49.33582" lon="-0.41883">
        <ele>1.882764</ele>
        <time>2022-08-04T14:58:26.000Z</time>
      </trkpt>
      <trkpt lat="49.33582" lon="-0.41877">
        <ele>1.892735</ele>
        <time>2022-08-04T14:58:27.000Z</time>
      </trkpt>
      <trkpt lat="49.33581" lon="-0.41871">
        <ele>1.903012</ele>
        <time>2022-08-04T14:58:28.000Z</time>
      </trkpt>
      <trkpt lat="49.33581" lon="-0.41865">
        <ele>1.913325</ele>
        <time>2022-08-04T14:58:29.000Z</time>
      </trkpt>
      <trkpt lat="49.33581" lon="-0.41859">
        <ele>1.923637</ele>
        <time>2022-08-04T14:58:30.000Z</time>
      </trkpt>
      <trkpt lat="49.33581" lon="-0.41853">
        <ele>1.933919</ele>
        <time>2022-08-04T14:58:31.000Z</time>
      </trkpt>
      <trkpt lat="49.33581" lon="-0.41848">
        <ele>1.943378</ele>
        <time>2022-08-04T14:58:32.000Z</time>
      </trkpt>
      <trkpt lat="49.33581" lon="-0.41842">
        <ele>1.952974</ele>
        <time>2022-08-04T14:58:33.000Z</time>
      </trkpt>
      <trkpt lat="49.3358" lon="-0.41837">
        <ele>1.961921</ele>
        <time>2022-08-04T14:58:34.000Z</time>
      </trkpt>
      <trkpt lat="49.3358" lon="-0.41832">
        <ele>1.97102</ele>
        <time>2022-08-04T14:58:35.000Z</time>
      </trkpt>
      <trkpt lat="49.33579" lon="-0.41827">
        <ele>1.978942</ele>
        <time>2022-08-04T14:58:36.000Z</time>
      </trkpt>
      <trkpt lat="49.33579" lon="-0.41822">
        <ele>1.987655</ele>
        <time>2022-08-04T14:58:37.000Z</time>
      </trkpt>
      <trkpt lat="49.33578" lon="-0.41817">
        <ele>1.996628</ele>
        <time>2022-08-04T14:58:38.000Z</time>
      </trkpt>
      <trkpt lat="49.33578" lon="-0.41812">
        <ele>2.005197</ele>
        <time>2022-08-04T14:58:39.000Z</time>
      </trkpt>
      <trkpt lat="49.33578" lon="-0.41807">
        <ele>2.013765</ele>
        <time>2022-08-04T14:58:40.000Z</time>
      </trkpt>
      <trkpt lat="49.33578" lon="-0.41802">
        <ele>2.021991</ele>
        <time>2022-08-04T14:58:41.000Z</time>
      </trkpt>
      <trkpt lat="49.33578" lon="-0.41798">
        <ele>2.030199</ele>
        <time>2022-08-04T14:58:42.000Z</time>
      </trkpt>
      <trkpt lat="49.33577" lon="-0.41793">
        <ele>2.038292</ele>
        <time>2022-08-04T14:58:43.000Z</time>
      </trkpt>
      <trkpt lat="49.33577" lon="-0.41788">
        <ele>2.046214</ele>
        <time>2022-08-04T14:58:44.000Z</time>
      </trkpt>
      <trkpt lat="49.33576" lon="-0.41783">
        <ele>2.055281</ele>
        <time>2022-08-04T14:58:45.000Z</time>
      </trkpt>
      <trkpt lat="49.33575" lon="-0.41778">
        <ele>2.063885</ele>
        <time>2022-08-04T14:58:46.000Z</time>
      </trkpt>
      <trkpt lat="49.33575" lon="-0.41773">
        <ele>2.072649</ele>
        <time>2022-08-04T14:58:47.000Z</time>
      </trkpt>
      <trkpt lat="49.33574" lon="-0.41769">
        <ele>2.080913</ele>
        <time>2022-08-04T14:58:48.000Z</time>
      </trkpt>
      <trkpt lat="49.33574" lon="-0.41763">
        <ele>2.089824</ele>
        <time>2022-08-04T14:58:49.000Z</time>
      </trkpt>
      <trkpt lat="49.33574" lon="-0.41759">
        <ele>2.097864</ele>
        <time>2022-08-04T14:58:50.000Z</time>
      </trkpt>
      <trkpt lat="49.33573" lon="-0.41755">
        <ele>2.104466</ele>
        <time>2022-08-04T14:58:51.000Z</time>
      </trkpt>
      <trkpt lat="49.33573" lon="-0.41752">
        <ele>2.110173</ele>
        <time>2022-08-04T14:58:52.000Z</time>
      </trkpt>
      <trkpt lat="49.33572" lon="-0.41747">
        <ele>2.1193</ele>
        <time>2022-08-04T14:58:54.000Z</time>
      </trkpt>
      <trkpt lat="49.3357" lon="-0.41742">
        <ele>2.128525</ele>
        <time>2022-08-04T14:58:56.000Z</time>
      </trkpt>
      <trkpt lat="49.33568" lon="-0.41738">
        <ele>2.13687</ele>
        <time>2022-08-04T14:58:58.000Z</time>
      </trkpt>
      <trkpt lat="49.33567" lon="-0.41736">
        <ele>2.141711</ele>
        <time>2022-08-04T14:58:59.000Z</time>
      </trkpt>
      <trkpt lat="49.33566" lon="-0.41734">
        <ele>2.14676</ele>
        <time>2022-08-04T14:59:00.000Z</time>
      </trkpt>
      <trkpt lat="49.33565" lon="-0.41728">
        <ele>2.15586</ele>
        <time>2022-08-04T14:59:02.000Z</time>
      </trkpt>
      <trkpt lat="49.33565" lon="-0.41724">
        <ele>2.16276</ele>
        <time>2022-08-04T14:59:04.000Z</time>
      </trkpt>
      <trkpt lat="49.33567" lon="-0.41722">
        <ele>2.169544</ele>
        <time>2022-08-04T14:59:06.000Z</time>
      </trkpt>
      <trkpt lat="49.33569" lon="-0.4172">
        <ele>2.175163</ele>
        <time>2022-08-04T14:59:07.000Z</time>
      </trkpt>
      <trkpt lat="49.33571" lon="-0.41718">
        <ele>2.182091</ele>
        <time>2022-08-04T14:59:08.000Z</time>
      </trkpt>
      <trkpt lat="49.33572" lon="-0.41714">
        <ele>2.189114</ele>
        <time>2022-08-04T14:59:09.000Z</time>
      </trkpt>
      <trkpt lat="49.33573" lon="-0.41709">
        <ele>2.196985</ele>
        <time>2022-08-04T14:59:10.000Z</time>
      </trkpt>
      <trkpt lat="49.33573" lon="-0.41704">
        <ele>2.205382</ele>
        <time>2022-08-04T14:59:11.000Z</time>
      </trkpt>
      <trkpt lat="49.33573" lon="-0.41699">
        <ele>2.214122</ele>
        <time>2022-08-04T14:59:12.000Z</time>
      </trkpt>
      <trkpt lat="49.33573" lon="-0.41694">
        <ele>2.206179</ele>
        <time>2022-08-04T14:59:13.000Z</time>
      </trkpt>
      <trkpt lat="49.33573" lon="-0.41688">
        <ele>2.195627</ele>
        <time>2022-08-04T14:59:14.000Z</time>
      </trkpt>
      <trkpt lat="49.33572" lon="-0.41684">
        <ele>2.186789</ele>
        <time>2022-08-04T14:59:15.000Z</time>
      </trkpt>
      <trkpt lat="49.33572" lon="-0.41678">
        <ele>2.174935</ele>
        <time>2022-08-04T14:59:16.000Z</time>
      </trkpt>
      <trkpt lat="49.33572" lon="-0.41671">
        <ele>2.162126</ele>
        <time>2022-08-04T14:59:17.000Z</time>
      </trkpt>
      <trkpt lat="49.33572" lon="-0.41663">
        <ele>2.146694</ele>
        <time>2022-08-04T14:59:18.000Z</time>
      </trkpt>
      <trkpt lat="49.33571" lon="-0.41656">
        <ele>2.133091</ele>
        <time>2022-08-04T14:59:19.000Z</time>
      </trkpt>
      <trkpt lat="49.33571" lon="-0.41649">
        <ele>2.119325</ele>
        <time>2022-08-04T14:59:20.000Z</time>
      </trkpt>
      <trkpt lat="49.33571" lon="-0.41641">
        <ele>2.104604</ele>
        <time>2022-08-04T14:59:21.000Z</time>
      </trkpt>
      <trkpt lat="49.33571" lon="-0.41633">
        <ele>2.089118</ele>
        <time>2022-08-04T14:59:22.000Z</time>
      </trkpt>
      <trkpt lat="49.33571" lon="-0.41624">
        <ele>2.073059</ele>
        <time>2022-08-04T14:59:23.000Z</time>
      </trkpt>
      <trkpt lat="49.33571" lon="-0.41616">
        <ele>2.056808</ele>
        <time>2022-08-04T14:59:24.000Z</time>
      </trkpt>
      <trkpt lat="49.33571" lon="-0.41607">
        <ele>2.040366</ele>
        <time>2022-08-04T14:59:25.000Z</time>
      </trkpt>
      <trkpt lat="49.33571" lon="-0.41598">
        <ele>2.022777</ele>
        <time>2022-08-04T14:59:26.000Z</time>
      </trkpt>
      <trkpt lat="49.33571" lon="-0.41589">
        <ele>2.005166</ele>
        <time>2022-08-04T14:59:27.000Z</time>
      </trkpt>
      <trkpt lat="49.33571" lon="-0.4158">
        <ele>1.987745</ele>
        <time>2022-08-04T14:59:28.000Z</time>
      </trkpt>
      <trkpt lat="49.3357" lon="-0.4157">
        <ele>1.969545</ele>
        <time>2022-08-04T14:59:29.000Z</time>
      </trkpt>
      <trkpt lat="49.33569" lon="-0.41561">
        <ele>1.952137</ele>
        <time>2022-08-04T14:59:30.000Z</time>
      </trkpt>
      <trkpt lat="49.33569" lon="-0.41552">
        <ele>1.934428</ele>
        <time>2022-08-04T14:59:31.000Z</time>
      </trkpt>
      <trkpt lat="49.33568" lon="-0.41543">
        <ele>1.916453</ele>
        <time>2022-08-04T14:59:32.000Z</time>
      </trkpt>
      <trkpt lat="49.33567" lon="-0.41534">
        <ele>1.899224</ele>
        <time>2022-08-04T14:59:33.000Z</time>
      </trkpt>
      <trkpt lat="49.33567" lon="-0.41527">
        <ele>1.885306</ele>
        <time>2022-08-04T14:59:34.000Z</time>
      </trkpt>
      <trkpt lat="49.33567" lon="-0.41516">
        <ele>1.864658</ele>
        <time>2022-08-04T14:59:35.000Z</time>
      </trkpt>
      <trkpt lat="49.33566" lon="-0.41507">
        <ele>1.84725</ele>
        <time>2022-08-04T14:59:36.000Z</time>
      </trkpt>
      <trkpt lat="49.33565" lon="-0.41498">
        <ele>1.829621</ele>
        <time>2022-08-04T14:59:37.000Z</time>
      </trkpt>
      <trkpt lat="49.33565" lon="-0.4149">
        <ele>1.815856</ele>
        <time>2022-08-04T14:59:38.000Z</time>
      </trkpt>
      <trkpt lat="49.33565" lon="-0.41481">
        <ele>1.798559</ele>
        <time>2022-08-04T14:59:39.000Z</time>
      </trkpt>
      <trkpt lat="49.33565" lon="-0.41473">
        <ele>1.781712</ele>
        <time>2022-08-04T14:59:40.000Z</time>
      </trkpt>
      <trkpt lat="49.33564" lon="-0.41464">
        <ele>1.764763</ele>
        <time>2022-08-04T14:59:41.000Z</time>
      </trkpt>
      <trkpt lat="49.33563" lon="-0.41455">
        <ele>1.747656</ele>
        <time>2022-08-04T14:59:42.000Z</time>
      </trkpt>
      <trkpt lat="49.33563" lon="-0.41446">
        <ele>1.731191</ele>
        <time>2022-08-04T14:59:43.000Z</time>
      </trkpt>
      <trkpt lat="49.33563" lon="-0.41437">
        <ele>1.71358</ele>
        <time>2022-08-04T14:59:44.000Z</time>
      </trkpt>
      <trkpt lat="49.33562" lon="-0.41428">
        <ele>1.695952</ele>
        <time>2022-08-04T14:59:45.000Z</time>
      </trkpt>
      <trkpt lat="49.33562" lon="-0.41419">
        <ele>1.695911</ele>
        <time>2022-08-04T14:59:46.000Z</time>
      </trkpt>
      <trkpt lat="49.33562" lon="-0.4141">
        <ele>1.713268</ele>
        <time>2022-08-04T14:59:47.000Z</time>
      </trkpt>
      <trkpt lat="49.33561" lon="-0.41401">
        <ele>1.73027</ele>
        <time>2022-08-04T14:59:48.000Z</time>
      </trkpt>
      <trkpt lat="49.33561" lon="-0.41392">
        <ele>1.746622</ele>
        <time>2022-08-04T14:59:49.000Z</time>
      </trkpt>
      <trkpt lat="49.3356" lon="-0.41382">
        <ele>1.766262</ele>
        <time>2022-08-04T14:59:50.000Z</time>
      </trkpt>
      <trkpt lat="49.3356" lon="-0.41373">
        <ele>1.78258</ele>
        <time>2022-08-04T14:59:51.000Z</time>
      </trkpt>
      <trkpt lat="49.33559" lon="-0.41365">
        <ele>1.799248</ele>
        <time>2022-08-04T14:59:52.000Z</time>
      </trkpt>
      <trkpt lat="49.33558" lon="-0.41358">
        <ele>1.812709</ele>
        <time>2022-08-04T14:59:53.000Z</time>
      </trkpt>
      <trkpt lat="49.33557" lon="-0.41349">
        <ele>1.829809</ele>
        <time>2022-08-04T14:59:54.000Z</time>
      </trkpt>
      <trkpt lat="49.33557" lon="-0.41339">
        <ele>1.847188</ele>
        <time>2022-08-04T14:59:55.000Z</time>
      </trkpt>
      <trkpt lat="49.33557" lon="-0.4133">
        <ele>1.864756</ele>
        <time>2022-08-04T14:59:56.000Z</time>
      </trkpt>
      <trkpt lat="49.33556" lon="-0.41321">
        <ele>1.882231</ele>
        <time>2022-08-04T14:59:57.000Z</time>
      </trkpt>
      <trkpt lat="49.33556" lon="-0.41312">
        <ele>1.899399</ele>
        <time>2022-08-04T14:59:58.000Z</time>
      </trkpt>
      <trkpt lat="49.33556" lon="-0.41303">
        <ele>1.916213</ele>
        <time>2022-08-04T14:59:59.000Z</time>
      </trkpt>
      <trkpt lat="49.33555" lon="-0.41294">
        <ele>1.932531</ele>
        <time>2022-08-04T15:00:00.000Z</time>
      </trkpt>
      <trkpt lat="49.33554" lon="-0.41286">
        <ele>1.949198</ele>
        <time>2022-08-04T15:00:01.000Z</time>
      </trkpt>
      <trkpt lat="49.33553" lon="-0.41277">
        <ele>1.964954</ele>
        <time>2022-08-04T15:00:02.000Z</time>
      </trkpt>
      <trkpt lat="49.33552" lon="-0.41269">
        <ele>1.98125</ele>
        <time>2022-08-04T15:00:03.000Z</time>
      </trkpt>
      <trkpt lat="49.33551" lon="-0.41261">
        <ele>1.996566</ele>
        <time>2022-08-04T15:00:04.000Z</time>
      </trkpt>
      <trkpt lat="49.33551" lon="-0.41253">
        <ele>2.011234</ele>
        <time>2022-08-04T15:00:05.000Z</time>
      </trkpt>
      <trkpt lat="49.33549" lon="-0.41244">
        <ele>2.029548</ele>
        <time>2022-08-04T15:00:06.000Z</time>
      </trkpt>
      <trkpt lat="49.33549" lon="-0.41236">
        <ele>2.044102</ele>
        <time>2022-08-04T15:00:07.000Z</time>
      </trkpt>
      <trkpt lat="49.33549" lon="-0.41228">
        <ele>2.058278</ele>
        <time>2022-08-04T15:00:08.000Z</time>
      </trkpt>
      <trkpt lat="49.33549" lon="-0.41221">
        <ele>2.072078</ele>
        <time>2022-08-04T15:00:09.000Z</time>
      </trkpt>
      <trkpt lat="49.33548" lon="-0.41214">
        <ele>2.085599</ele>
        <time>2022-08-04T15:00:10.000Z</time>
      </trkpt>
      <trkpt lat="49.33547" lon="-0.41207">
        <ele>2.098358</ele>
        <time>2022-08-04T15:00:11.000Z</time>
      </trkpt>
      <trkpt lat="49.33547" lon="-0.41201">
        <ele>2.111217</ele>
        <time>2022-08-04T15:00:12.000Z</time>
      </trkpt>
      <trkpt lat="49.33546" lon="-0.41194">
        <ele>2.124185</ele>
        <time>2022-08-04T15:00:13.000Z</time>
      </trkpt>
      <trkpt lat="49.33545" lon="-0.41187">
        <ele>2.136969</ele>
        <time>2022-08-04T15:00:14.000Z</time>
      </trkpt>
      <trkpt lat="49.33543" lon="-0.41181">
        <ele>2.150409</ele>
        <time>2022-08-04T15:00:15.000Z</time>
      </trkpt>
      <trkpt lat="49.33541" lon="-0.41174">
        <ele>2.164762</ele>
        <time>2022-08-04T15:00:16.000Z</time>
      </trkpt>
      <trkpt lat="49.3354" lon="-0.41166">
        <ele>2.178857</ele>
        <time>2022-08-04T15:00:17.000Z</time>
      </trkpt>
      <trkpt lat="49.33539" lon="-0.41159">
        <ele>2.193802</ele>
        <time>2022-08-04T15:00:18.000Z</time>
      </trkpt>
      <trkpt lat="49.33538" lon="-0.41151">
        <ele>2.208554</ele>
        <time>2022-08-04T15:00:19.000Z</time>
      </trkpt>
      <trkpt lat="49.33537" lon="-0.41143">
        <ele>2.21391</ele>
        <time>2022-08-04T15:00:20.000Z</time>
      </trkpt>
      <trkpt lat="49.33536" lon="-0.41136">
        <ele>2.219336</ele>
        <time>2022-08-04T15:00:21.000Z</time>
      </trkpt>
      <trkpt lat="49.33536" lon="-0.41128">
        <ele>2.224581</ele>
        <time>2022-08-04T15:00:22.000Z</time>
      </trkpt>
      <trkpt lat="49.33537" lon="-0.41123">
        <ele>2.228534</ele>
        <time>2022-08-04T15:00:23.000Z</time>
      </trkpt>
      <trkpt lat="49.33537" lon="-0.41114">
        <ele>2.234676</ele>
        <time>2022-08-04T15:00:24.000Z</time>
      </trkpt>
      <trkpt lat="49.33537" lon="-0.41107">
        <ele>2.239921</ele>
        <time>2022-08-04T15:00:25.000Z</time>
      </trkpt>
      <trkpt lat="49.33537" lon="-0.411">
        <ele>2.244954</ele>
        <time>2022-08-04T15:00:26.000Z</time>
      </trkpt>
      <trkpt lat="49.33537" lon="-0.41093">
        <ele>2.249915</ele>
        <time>2022-08-04T15:00:27.000Z</time>
      </trkpt>
      <trkpt lat="49.33537" lon="-0.41086">
        <ele>2.254935</ele>
        <time>2022-08-04T15:00:28.000Z</time>
      </trkpt>
      <trkpt lat="49.33536" lon="-0.41079">
        <ele>2.259784</ele>
        <time>2022-08-04T15:00:29.000Z</time>
      </trkpt>
      <trkpt lat="49.33535" lon="-0.41073">
        <ele>2.264244</ele>
        <time>2022-08-04T15:00:30.000Z</time>
      </trkpt>
      <trkpt lat="49.33534" lon="-0.41067">
        <ele>2.268557</ele>
        <time>2022-08-04T15:00:31.000Z</time>
      </trkpt>
      <trkpt lat="49.33533" lon="-0.41062">
        <ele>2.272704</ele>
        <time>2022-08-04T15:00:32.000Z</time>
      </trkpt>
      <trkpt lat="49.33531" lon="-0.41057">
        <ele>2.276519</ele>
        <time>2022-08-04T15:00:33.000Z</time>
      </trkpt>
      <trkpt lat="49.33529" lon="-0.41052">
        <ele>2.280889</ele>
        <time>2022-08-04T15:00:34.000Z</time>
      </trkpt>
      <trkpt lat="49.33526" lon="-0.41048">
        <ele>2.284955</ele>
        <time>2022-08-04T15:00:35.000Z</time>
      </trkpt>
      <trkpt lat="49.33524" lon="-0.41044">
        <ele>2.288362</ele>
        <time>2022-08-04T15:00:36.000Z</time>
      </trkpt>
      <trkpt lat="49.33522" lon="-0.4104">
        <ele>2.292044</ele>
        <time>2022-08-04T15:00:37.000Z</time>
      </trkpt>
      <trkpt lat="49.33521" lon="-0.41034">
        <ele>2.296137</ele>
        <time>2022-08-04T15:00:38.000Z</time>
      </trkpt>
      <trkpt lat="49.33522" lon="-0.41029">
        <ele>2.299696</ele>
        <time>2022-08-04T15:00:39.000Z</time>
      </trkpt>
      <trkpt lat="49.33523" lon="-0.41025">
        <ele>2.303205</ele>
        <time>2022-08-04T15:00:40.000Z</time>
      </trkpt>
      <trkpt lat="49.33524" lon="-0.41021">
        <ele>2.305908</ele>
        <time>2022-08-04T15:00:41.000Z</time>
      </trkpt>
      <trkpt lat="49.33525" lon="-0.41018">
        <ele>2.30895</ele>
        <time>2022-08-04T15:00:42.000Z</time>
      </trkpt>
      <trkpt lat="49.33525" lon="-0.41013">
        <ele>2.311927</ele>
        <time>2022-08-04T15:00:43.000Z</time>
      </trkpt>
      <trkpt lat="49.33525" lon="-0.41009">
        <ele>2.314851</ele>
        <time>2022-08-04T15:00:44.000Z</time>
      </trkpt>
      <trkpt lat="49.33525" lon="-0.41005">
        <ele>2.317635</ele>
        <time>2022-08-04T15:00:45.000Z</time>
      </trkpt>
      <trkpt lat="49.33523" lon="-0.41002">
        <ele>2.320677</ele>
        <time>2022-08-04T15:00:46.000Z</time>
      </trkpt>
      <trkpt lat="49.33523" lon="-0.40997">
        <ele>2.324094</ele>
        <time>2022-08-04T15:00:47.000Z</time>
      </trkpt>
      <trkpt lat="49.33523" lon="-0.4099">
        <ele>2.328642</ele>
        <time>2022-08-04T15:00:48.000Z</time>
      </trkpt>
      <trkpt lat="49.33523" lon="-0.40983">
        <ele>2.333857</ele>
        <time>2022-08-04T15:00:49.000Z</time>
      </trkpt>
      <trkpt lat="49.33521" lon="-0.40975">
        <ele>2.339908</ele>
        <time>2022-08-04T15:00:50.000Z</time>
      </trkpt>
      <trkpt lat="49.33519" lon="-0.40967">
        <ele>2.345943</ele>
        <time>2022-08-04T15:00:51.000Z</time>
      </trkpt>
      <trkpt lat="49.33517" lon="-0.40959">
        <ele>2.352016</ele>
        <time>2022-08-04T15:00:52.000Z</time>
      </trkpt>
      <trkpt lat="49.33515" lon="-0.4095">
        <ele>2.358631</ele>
        <time>2022-08-04T15:00:53.000Z</time>
      </trkpt>
      <trkpt lat="49.33515" lon="-0.40941">
        <ele>2.365255</ele>
        <time>2022-08-04T15:00:54.000Z</time>
      </trkpt>
      <trkpt lat="49.33514" lon="-0.40931">
        <ele>2.372076</ele>
        <time>2022-08-04T15:00:55.000Z</time>
      </trkpt>
      <trkpt lat="49.33512" lon="-0.40922">
        <ele>2.378825</ele>
        <time>2022-08-04T15:00:56.000Z</time>
      </trkpt>
      <trkpt lat="49.3351" lon="-0.40913">
        <ele>2.385665</ele>
        <time>2022-08-04T15:00:57.000Z</time>
      </trkpt>
      <trkpt lat="49.33508" lon="-0.40904">
        <ele>2.392573</ele>
        <time>2022-08-04T15:00:58.000Z</time>
      </trkpt>
      <trkpt lat="49.33506" lon="-0.40895">
        <ele>2.399294</ele>
        <time>2022-08-04T15:00:59.000Z</time>
      </trkpt>
      <trkpt lat="49.33504" lon="-0.40886">
        <ele>2.404827</ele>
        <time>2022-08-04T15:01:00.000Z</time>
      </trkpt>
      <trkpt lat="49.33502" lon="-0.40877">
        <ele>2.408151</ele>
        <time>2022-08-04T15:01:01.000Z</time>
      </trkpt>
      <trkpt lat="49.33501" lon="-0.40868">
        <ele>2.411341</ele>
        <time>2022-08-04T15:01:02.000Z</time>
      </trkpt>
      <trkpt lat="49.33501" lon="-0.40858">
        <ele>2.414617</ele>
        <time>2022-08-04T15:01:03.000Z</time>
      </trkpt>
      <trkpt lat="49.33499" lon="-0.40849">
        <ele>2.417929</ele>
        <time>2022-08-04T15:01:04.000Z</time>
      </trkpt>
      <trkpt lat="49.33497" lon="-0.4084">
        <ele>2.421187</ele>
        <time>2022-08-04T15:01:05.000Z</time>
      </trkpt>
      <trkpt lat="49.33496" lon="-0.40831">
        <ele>2.4244</ele>
        <time>2022-08-04T15:01:06.000Z</time>
      </trkpt>
      <trkpt lat="49.33494" lon="-0.40822">
        <ele>2.42768</ele>
        <time>2022-08-04T15:01:07.000Z</time>
      </trkpt>
      <trkpt lat="49.33492" lon="-0.40813">
        <ele>2.430872</ele>
        <time>2022-08-04T15:01:08.000Z</time>
      </trkpt>
      <trkpt lat="49.33491" lon="-0.40804">
        <ele>2.43398</ele>
        <time>2022-08-04T15:01:09.000Z</time>
      </trkpt>
      <trkpt lat="49.3349" lon="-0.40795">
        <ele>2.437289</ele>
        <time>2022-08-04T15:01:10.000Z</time>
      </trkpt>
      <trkpt lat="49.33488" lon="-0.40786">
        <ele>2.440602</ele>
        <time>2022-08-04T15:01:11.000Z</time>
      </trkpt>
      <trkpt lat="49.33486" lon="-0.40777">
        <ele>2.443815</ele>
        <time>2022-08-04T15:01:12.000Z</time>
      </trkpt>
      <trkpt lat="49.33485" lon="-0.40767">
        <ele>2.447027</ele>
        <time>2022-08-04T15:01:13.000Z</time>
      </trkpt>
      <trkpt lat="49.33484" lon="-0.40758">
        <ele>2.450318</ele>
        <time>2022-08-04T15:01:14.000Z</time>
      </trkpt>
      <trkpt lat="49.33482" lon="-0.40749">
        <ele>2.453597</ele>
        <time>2022-08-04T15:01:15.000Z</time>
      </trkpt>
      <trkpt lat="49.3348" lon="-0.4074">
        <ele>2.456856</ele>
        <time>2022-08-04T15:01:16.000Z</time>
      </trkpt>
      <trkpt lat="49.33479" lon="-0.40731">
        <ele>2.46</ele>
        <time>2022-08-04T15:01:17.000Z</time>
      </trkpt>
      <trkpt lat="49.33478" lon="-0.40722">
        <ele>2.463204</ele>
        <time>2022-08-04T15:01:18.000Z</time>
      </trkpt>
      <trkpt lat="49.33477" lon="-0.40713">
        <ele>2.46645</ele>
        <time>2022-08-04T15:01:19.000Z</time>
      </trkpt>
      <trkpt lat="49.33475" lon="-0.40704">
        <ele>2.469708</ele>
        <time>2022-08-04T15:01:20.000Z</time>
      </trkpt>
      <trkpt lat="49.33472" lon="-0.40695">
        <ele>2.473013</ele>
        <time>2022-08-04T15:01:21.000Z</time>
      </trkpt>
      <trkpt lat="49.3347" lon="-0.40687">
        <ele>2.476098</ele>
        <time>2022-08-04T15:01:22.000Z</time>
      </trkpt>
      <trkpt lat="49.33469" lon="-0.40678">
        <ele>2.479141</ele>
        <time>2022-08-04T15:01:23.000Z</time>
      </trkpt>
      <trkpt lat="49.33468" lon="-0.40669">
        <ele>2.482379</ele>
        <time>2022-08-04T15:01:24.000Z</time>
      </trkpt>
      <trkpt lat="49.33467" lon="-0.4066">
        <ele>2.485386</ele>
        <time>2022-08-04T15:01:25.000Z</time>
      </trkpt>
      <trkpt lat="49.33465" lon="-0.40651">
        <ele>2.488566</ele>
        <time>2022-08-04T15:01:26.000Z</time>
      </trkpt>
      <trkpt lat="49.33464" lon="-0.40642">
        <ele>2.491774</ele>
        <time>2022-08-04T15:01:27.000Z</time>
      </trkpt>
      <trkpt lat="49.33463" lon="-0.40633">
        <ele>2.494958</ele>
        <time>2022-08-04T15:01:28.000Z</time>
      </trkpt>
      <trkpt lat="49.33462" lon="-0.40624">
        <ele>2.498171</ele>
        <time>2022-08-04T15:01:29.000Z</time>
      </trkpt>
      <trkpt lat="49.3346" lon="-0.40615">
        <ele>2.511363</ele>
        <time>2022-08-04T15:01:30.000Z</time>
      </trkpt>
      <trkpt lat="49.33458" lon="-0.40607">
        <ele>2.527602</ele>
        <time>2022-08-04T15:01:31.000Z</time>
      </trkpt>
      <trkpt lat="49.33456" lon="-0.40598">
        <ele>2.544356</ele>
        <time>2022-08-04T15:01:32.000Z</time>
      </trkpt>
      <trkpt lat="49.33454" lon="-0.40589">
        <ele>2.560867</ele>
        <time>2022-08-04T15:01:33.000Z</time>
      </trkpt>
      <trkpt lat="49.33453" lon="-0.4058">
        <ele>2.57735</ele>
        <time>2022-08-04T15:01:34.000Z</time>
      </trkpt>
      <trkpt lat="49.33452" lon="-0.40571">
        <ele>2.594009</ele>
        <time>2022-08-04T15:01:35.000Z</time>
      </trkpt>
      <trkpt lat="49.33451" lon="-0.40562">
        <ele>2.610788</ele>
        <time>2022-08-04T15:01:36.000Z</time>
      </trkpt>
      <trkpt lat="49.3345" lon="-0.40553">
        <ele>2.627527</ele>
        <time>2022-08-04T15:01:37.000Z</time>
      </trkpt>
      <trkpt lat="49.33449" lon="-0.40544">
        <ele>2.64454</ele>
        <time>2022-08-04T15:01:38.000Z</time>
      </trkpt>
      <trkpt lat="49.33448" lon="-0.40535">
        <ele>2.660995</ele>
        <time>2022-08-04T15:01:39.000Z</time>
      </trkpt>
      <trkpt lat="49.33446" lon="-0.40526">
        <ele>2.678029</ele>
        <time>2022-08-04T15:01:40.000Z</time>
      </trkpt>
      <trkpt lat="49.33445" lon="-0.40517">
        <ele>2.694714</ele>
        <time>2022-08-04T15:01:41.000Z</time>
      </trkpt>
      <trkpt lat="49.33444" lon="-0.40508">
        <ele>2.710501</ele>
        <time>2022-08-04T15:01:42.000Z</time>
      </trkpt>
      <trkpt lat="49.33442" lon="-0.40499">
        <ele>2.727161</ele>
        <time>2022-08-04T15:01:43.000Z</time>
      </trkpt>
      <trkpt lat="49.33441" lon="-0.4049">
        <ele>2.743846</ele>
        <time>2022-08-04T15:01:44.000Z</time>
      </trkpt>
      <trkpt lat="49.33439" lon="-0.40482">
        <ele>2.760085</ele>
        <time>2022-08-04T15:01:45.000Z</time>
      </trkpt>
      <trkpt lat="49.33436" lon="-0.40473">
        <ele>2.777104</ele>
        <time>2022-08-04T15:01:46.000Z</time>
      </trkpt>
      <trkpt lat="49.33435" lon="-0.40465">
        <ele>2.793441</ele>
        <time>2022-08-04T15:01:47.000Z</time>
      </trkpt>
      <trkpt lat="49.33433" lon="-0.40456">
        <ele>2.809748</ele>
        <time>2022-08-04T15:01:48.000Z</time>
      </trkpt>
      <trkpt lat="49.33433" lon="-0.40447">
        <ele>2.826487</ele>
        <time>2022-08-04T15:01:49.000Z</time>
      </trkpt>
      <trkpt lat="49.33432" lon="-0.40438">
        <ele>2.842477</ele>
        <time>2022-08-04T15:01:50.000Z</time>
      </trkpt>
      <trkpt lat="49.33431" lon="-0.40429">
        <ele>2.85896</ele>
        <time>2022-08-04T15:01:51.000Z</time>
      </trkpt>
      <trkpt lat="49.3343" lon="-0.4042">
        <ele>2.874701</ele>
        <time>2022-08-04T15:01:52.000Z</time>
      </trkpt>
      <trkpt lat="49.33428" lon="-0.40412">
        <ele>2.890691</ele>
        <time>2022-08-04T15:01:53.000Z</time>
      </trkpt>
      <trkpt lat="49.33427" lon="-0.40404">
        <ele>2.90616</ele>
        <time>2022-08-04T15:01:54.000Z</time>
      </trkpt>
      <trkpt lat="49.33426" lon="-0.40396">
        <ele>2.920881</ele>
        <time>2022-08-04T15:01:55.000Z</time>
      </trkpt>
      <trkpt lat="49.33424" lon="-0.40387">
        <ele>2.93635</ele>
        <time>2022-08-04T15:01:56.000Z</time>
      </trkpt>
      <trkpt lat="49.33422" lon="-0.40379">
        <ele>2.951473</ele>
        <time>2022-08-04T15:01:57.000Z</time>
      </trkpt>
      <trkpt lat="49.33421" lon="-0.40372">
        <ele>2.96584</ele>
        <time>2022-08-04T15:01:58.000Z</time>
      </trkpt>
      <trkpt lat="49.3342" lon="-0.40364">
        <ele>2.980324</ele>
        <time>2022-08-04T15:01:59.000Z</time>
      </trkpt>
      <trkpt lat="49.3342" lon="-0.40356">
        <ele>2.993743</ele>
        <time>2022-08-04T15:02:00.000Z</time>
      </trkpt>
      <trkpt lat="49.33419" lon="-0.4035">
        <ele>3.049314</ele>
        <time>2022-08-04T15:02:01.000Z</time>
      </trkpt>
      <trkpt lat="49.33418" lon="-0.40343">
        <ele>3.124929</ele>
        <time>2022-08-04T15:02:02.000Z</time>
      </trkpt>
      <trkpt lat="49.33418" lon="-0.40336">
        <ele>3.199211</ele>
        <time>2022-08-04T15:02:03.000Z</time>
      </trkpt>
      <trkpt lat="49.33416" lon="-0.4033">
        <ele>3.273478</ele>
        <time>2022-08-04T15:02:04.000Z</time>
      </trkpt>
      <trkpt lat="49.33415" lon="-0.40324">
        <ele>3.345015</ele>
        <time>2022-08-04T15:02:05.000Z</time>
      </trkpt>
      <trkpt lat="49.33414" lon="-0.40317">
        <ele>3.414783</ele>
        <time>2022-08-04T15:02:06.000Z</time>
      </trkpt>
      <trkpt lat="49.33412" lon="-0.40312">
        <ele>3.483962</ele>
        <time>2022-08-04T15:02:07.000Z</time>
      </trkpt>
      <trkpt lat="49.33411" lon="-0.40306">
        <ele>3.547123</ele>
        <time>2022-08-04T15:02:08.000Z</time>
      </trkpt>
      <trkpt lat="49.33408" lon="-0.40302">
        <ele>3.609961</ele>
        <time>2022-08-04T15:02:09.000Z</time>
      </trkpt>
      <trkpt lat="49.33406" lon="-0.40298">
        <ele>3.666617</ele>
        <time>2022-08-04T15:02:10.000Z</time>
      </trkpt>
      <trkpt lat="49.33403" lon="-0.40294">
        <ele>3.73308</ele>
        <time>2022-08-04T15:02:11.000Z</time>
      </trkpt>
      <trkpt lat="49.334" lon="-0.4029">
        <ele>3.794362</ele>
        <time>2022-08-04T15:02:12.000Z</time>
      </trkpt>
      <trkpt lat="49.33398" lon="-0.40287">
        <ele>3.849944</ele>
        <time>2022-08-04T15:02:13.000Z</time>
      </trkpt>
      <trkpt lat="49.33396" lon="-0.40284">
        <ele>3.898645</ele>
        <time>2022-08-04T15:02:14.000Z</time>
      </trkpt>
      <trkpt lat="49.33394" lon="-0.40281">
        <ele>3.939549</ele>
        <time>2022-08-04T15:02:15.000Z</time>
      </trkpt>
      <trkpt lat="49.33392" lon="-0.40277">
        <ele>3.998444</ele>
        <time>2022-08-04T15:02:17.000Z</time>
      </trkpt>
      <trkpt lat="49.3339" lon="-0.40274">
        <ele>4.038563</ele>
        <time>2022-08-04T15:02:19.000Z</time>
      </trkpt>
      <trkpt lat="49.33389" lon="-0.40273">
        <ele>4.072419</ele>
        <time>2022-08-04T15:02:21.000Z</time>
      </trkpt>
      <trkpt lat="49.33387" lon="-0.40274">
        <ele>4.105354</ele>
        <time>2022-08-04T15:02:25.000Z</time>
      </trkpt>
      <trkpt lat="49.33381" lon="-0.40275">
        <ele>4.198473</ele>
        <time>2022-08-04T15:02:29.000Z</time>
      </trkpt>
      <trkpt lat="49.33378" lon="-0.40272">
        <ele>4.259326</ele>
        <time>2022-08-04T15:02:31.000Z</time>
      </trkpt>
      <trkpt lat="49.33377" lon="-0.40269">
        <ele>4.295537</ele>
        <time>2022-08-04T15:02:32.000Z</time>
      </trkpt>
      <trkpt lat="49.33376" lon="-0.40267">
        <ele>4.329829</ele>
        <time>2022-08-04T15:02:33.000Z</time>
      </trkpt>
      <trkpt lat="49.33374" lon="-0.40263">
        <ele>4.374078</ele>
        <time>2022-08-04T15:02:34.000Z</time>
      </trkpt>
      <trkpt lat="49.33373" lon="-0.4026">
        <ele>4.419257</ele>
        <time>2022-08-04T15:02:35.000Z</time>
      </trkpt>
      <trkpt lat="49.33371" lon="-0.40257">
        <ele>4.463559</ele>
        <time>2022-08-04T15:02:36.000Z</time>
      </trkpt>
      <trkpt lat="49.3337" lon="-0.40253">
        <ele>4.505914</ele>
        <time>2022-08-04T15:02:37.000Z</time>
      </trkpt>
      <trkpt lat="49.33369" lon="-0.40249">
        <ele>4.55501</ele>
        <time>2022-08-04T15:02:38.000Z</time>
      </trkpt>
      <trkpt lat="49.33367" lon="-0.40245">
        <ele>4.608446</ele>
        <time>2022-08-04T15:02:39.000Z</time>
      </trkpt>
      <trkpt lat="49.33366" lon="-0.40241">
        <ele>4.653841</ele>
        <time>2022-08-04T15:02:40.000Z</time>
      </trkpt>
      <trkpt lat="49.33365" lon="-0.40238">
        <ele>4.699048</ele>
        <time>2022-08-04T15:02:41.000Z</time>
      </trkpt>
      <trkpt lat="49.33363" lon="-0.40234">
        <ele>4.745219</ele>
        <time>2022-08-04T15:02:42.000Z</time>
      </trkpt>
      <trkpt lat="49.33362" lon="-0.4023">
        <ele>4.792276</ele>
        <time>2022-08-04T15:02:43.000Z</time>
      </trkpt>
      <trkpt lat="49.33361" lon="-0.40226">
        <ele>4.840839</ele>
        <time>2022-08-04T15:02:44.000Z</time>
      </trkpt>
      <trkpt lat="49.3336" lon="-0.40222">
        <ele>4.890986</ele>
        <time>2022-08-04T15:02:45.000Z</time>
      </trkpt>
      <trkpt lat="49.33359" lon="-0.40218">
        <ele>4.940082</ele>
        <time>2022-08-04T15:02:46.000Z</time>
      </trkpt>
      <trkpt lat="49.33358" lon="-0.40214">
        <ele>4.985167</ele>
        <time>2022-08-04T15:02:47.000Z</time>
      </trkpt>
      <trkpt lat="49.33357" lon="-0.40209">
        <ele>5.037232</ele>
        <time>2022-08-04T15:02:48.000Z</time>
      </trkpt>
      <trkpt lat="49.33357" lon="-0.40205">
        <ele>5.08446</ele>
        <time>2022-08-04T15:02:49.000Z</time>
      </trkpt>
      <trkpt lat="49.33356" lon="-0.40201">
        <ele>5.133141</ele>
        <time>2022-08-04T15:02:50.000Z</time>
      </trkpt>
      <trkpt lat="49.33355" lon="-0.40196">
        <ele>5.183593</ele>
        <time>2022-08-04T15:02:51.000Z</time>
      </trkpt>
      <trkpt lat="49.33355" lon="-0.40192">
        <ele>5.230001</ele>
        <time>2022-08-04T15:02:52.000Z</time>
      </trkpt>
      <trkpt lat="49.33355" lon="-0.40188">
        <ele>5.277501</ele>
        <time>2022-08-04T15:02:53.000Z</time>
      </trkpt>
      <trkpt lat="49.33354" lon="-0.40183">
        <ele>5.329563</ele>
        <time>2022-08-04T15:02:54.000Z</time>
      </trkpt>
      <trkpt lat="49.33354" lon="-0.40178">
        <ele>5.381187</ele>
        <time>2022-08-04T15:02:55.000Z</time>
      </trkpt>
      <trkpt lat="49.33354" lon="-0.40174">
        <ele>5.428688</ele>
        <time>2022-08-04T15:02:56.000Z</time>
      </trkpt>
      <trkpt lat="49.33353" lon="-0.4017">
        <ele>5.476989</ele>
        <time>2022-08-04T15:02:57.000Z</time>
      </trkpt>
      <trkpt lat="49.33353" lon="-0.40166">
        <ele>5.520123</ele>
        <time>2022-08-04T15:02:58.000Z</time>
      </trkpt>
      <trkpt lat="49.33353" lon="-0.4016">
        <ele>5.582001</ele>
        <time>2022-08-04T15:02:59.000Z</time>
      </trkpt>
      <trkpt lat="49.33353" lon="-0.40155">
        <ele>5.635821</ele>
        <time>2022-08-04T15:03:00.000Z</time>
      </trkpt>
      <trkpt lat="49.33351" lon="-0.4015">
        <ele>5.695378</ele>
        <time>2022-08-04T15:03:01.000Z</time>
      </trkpt>
      <trkpt lat="49.33351" lon="-0.40145">
        <ele>5.755853</ele>
        <time>2022-08-04T15:03:02.000Z</time>
      </trkpt>
      <trkpt lat="49.3335" lon="-0.4014">
        <ele>5.812829</ele>
        <time>2022-08-04T15:03:03.000Z</time>
      </trkpt>
      <trkpt lat="49.33349" lon="-0.40135">
        <ele>5.871958</ele>
        <time>2022-08-04T15:03:04.000Z</time>
      </trkpt>
      <trkpt lat="49.33347" lon="-0.40129">
        <ele>5.93622</ele>
        <time>2022-08-04T15:03:05.000Z</time>
      </trkpt>
      <trkpt lat="49.33345" lon="-0.40124">
        <ele>6.004594</ele>
        <time>2022-08-04T15:03:06.000Z</time>
      </trkpt>
      <trkpt lat="49.33343" lon="-0.40119">
        <ele>6.045447</ele>
        <time>2022-08-04T15:03:07.000Z</time>
      </trkpt>
      <trkpt lat="49.33341" lon="-0.40114">
        <ele>6.070264</ele>
        <time>2022-08-04T15:03:08.000Z</time>
      </trkpt>
      <trkpt lat="49.33339" lon="-0.4011">
        <ele>6.093062</ele>
        <time>2022-08-04T15:03:09.000Z</time>
      </trkpt>
      <trkpt lat="49.33336" lon="-0.40107">
        <ele>6.114139</ele>
        <time>2022-08-04T15:03:10.000Z</time>
      </trkpt>
      <trkpt lat="49.33333" lon="-0.40105">
        <ele>6.134739</ele>
        <time>2022-08-04T15:03:11.000Z</time>
      </trkpt>
      <trkpt lat="49.33331" lon="-0.40104">
        <ele>6.150013</ele>
        <time>2022-08-04T15:03:12.000Z</time>
      </trkpt>
      <trkpt lat="49.33329" lon="-0.40103">
        <ele>6.162503</ele>
        <time>2022-08-04T15:03:13.000Z</time>
      </trkpt>
      <trkpt lat="49.33327" lon="-0.40103">
        <ele>6.175489</ele>
        <time>2022-08-04T15:03:14.000Z</time>
      </trkpt>
      <trkpt lat="49.33324" lon="-0.40104">
        <ele>6.194325</ele>
        <time>2022-08-04T15:03:16.000Z</time>
      </trkpt>
      <trkpt lat="49.33321" lon="-0.40106">
        <ele>6.214292</ele>
        <time>2022-08-04T15:03:18.000Z</time>
      </trkpt>
      <trkpt lat="49.33319" lon="-0.40104">
        <ele>6.232289</ele>
        <time>2022-08-04T15:03:20.000Z</time>
      </trkpt>
      <trkpt lat="49.33318" lon="-0.40101">
        <ele>6.245539</ele>
        <time>2022-08-04T15:03:23.000Z</time>
      </trkpt>
      <trkpt lat="49.33316" lon="-0.401">
        <ele>6.258696</ele>
        <time>2022-08-04T15:03:26.000Z</time>
      </trkpt>
      <trkpt lat="49.33315" lon="-0.40102">
        <ele>6.271069</ele>
        <time>2022-08-04T15:03:28.000Z</time>
      </trkpt>
      <trkpt lat="49.33313" lon="-0.40105">
        <ele>6.287713</ele>
        <time>2022-08-04T15:03:30.000Z</time>
      </trkpt>
      <trkpt lat="49.33312" lon="-0.40108">
        <ele>6.303278</ele>
        <time>2022-08-04T15:03:32.000Z</time>
      </trkpt>
      <trkpt lat="49.3331" lon="-0.4011">
        <ele>6.315212</ele>
        <time>2022-08-04T15:03:33.000Z</time>
      </trkpt>
      <trkpt lat="49.33308" lon="-0.4011">
        <ele>6.33402</ele>
        <time>2022-08-04T15:03:35.000Z</time>
      </trkpt>
      <trkpt lat="49.33307" lon="-0.40105">
        <ele>6.354704</ele>
        <time>2022-08-04T15:03:37.000Z</time>
      </trkpt>
      <trkpt lat="49.33307" lon="-0.40101">
        <ele>6.369481</ele>
        <time>2022-08-04T15:03:38.000Z</time>
      </trkpt>
      <trkpt lat="49.33306" lon="-0.40098">
        <ele>6.384484</ele>
        <time>2022-08-04T15:03:39.000Z</time>
      </trkpt>
      <trkpt lat="49.33306" lon="-0.40095">
        <ele>6.398138</ele>
        <time>2022-08-04T15:03:40.000Z</time>
      </trkpt>
      <trkpt lat="49.33305" lon="-0.4009">
        <ele>6.419339</ele>
        <time>2022-08-04T15:03:42.000Z</time>
      </trkpt>
      <trkpt lat="49.33305" lon="-0.40085">
        <ele>6.438339</ele>
        <time>2022-08-04T15:03:44.000Z</time>
      </trkpt>
      <trkpt lat="49.33306" lon="-0.40081">
        <ele>6.45492</ele>
        <time>2022-08-04T15:03:46.000Z</time>
      </trkpt>
      <trkpt lat="49.33305" lon="-0.40077">
        <ele>6.472662</ele>
        <time>2022-08-04T15:03:48.000Z</time>
      </trkpt>
      <trkpt lat="49.33304" lon="-0.40075">
        <ele>6.485839</ele>
        <time>2022-08-04T15:03:49.000Z</time>
      </trkpt>
      <trkpt lat="49.33303" lon="-0.40072">
        <ele>6.498224</ele>
        <time>2022-08-04T15:03:50.000Z</time>
      </trkpt>
      <trkpt lat="49.33301" lon="-0.4007">
        <ele>6.510453</ele>
        <time>2022-08-04T15:03:51.000Z</time>
      </trkpt>
      <trkpt lat="49.33301" lon="-0.40067">
        <ele>6.523703</ele>
        <time>2022-08-04T15:03:54.000Z</time>
      </trkpt>
      <trkpt lat="49.33299" lon="-0.40055">
        <ele>6.577897</ele>
        <time>2022-08-04T15:04:40.000Z</time>
      </trkpt>
      <trkpt lat="49.33299" lon="-0.4005">
        <ele>6.598677</ele>
        <time>2022-08-04T15:04:41.000Z</time>
      </trkpt>
      <trkpt lat="49.33297" lon="-0.40043">
        <ele>6.63063</ele>
        <time>2022-08-04T15:04:42.000Z</time>
      </trkpt>
      <trkpt lat="49.33297" lon="-0.40036">
        <ele>6.659406</ele>
        <time>2022-08-04T15:04:43.000Z</time>
      </trkpt>
      <trkpt lat="49.33297" lon="-0.40029">
        <ele>6.689075</ele>
        <time>2022-08-04T15:04:44.000Z</time>
      </trkpt>
      <trkpt lat="49.33297" lon="-0.40023">
        <ele>6.715253</ele>
        <time>2022-08-04T15:04:45.000Z</time>
      </trkpt>
      <trkpt lat="49.33296" lon="-0.40014">
        <ele>6.752863</ele>
        <time>2022-08-04T15:04:46.000Z</time>
      </trkpt>
      <trkpt lat="49.33295" lon="-0.40006">
        <ele>6.785689</ele>
        <time>2022-08-04T15:04:47.000Z</time>
      </trkpt>
      <trkpt lat="49.33295" lon="-0.39999">
        <ele>6.816151</ele>
        <time>2022-08-04T15:04:48.000Z</time>
      </trkpt>
      <trkpt lat="49.33295" lon="-0.39992">
        <ele>6.846973</ele>
        <time>2022-08-04T15:04:49.000Z</time>
      </trkpt>
      <trkpt lat="49.33294" lon="-0.39984">
        <ele>6.880003</ele>
        <time>2022-08-04T15:04:50.000Z</time>
      </trkpt>
      <trkpt lat="49.33293" lon="-0.39976">
        <ele>6.913247</ele>
        <time>2022-08-04T15:04:51.000Z</time>
      </trkpt>
      <trkpt lat="49.33293" lon="-0.39968">
        <ele>6.947081</ele>
        <time>2022-08-04T15:04:52.000Z</time>
      </trkpt>
      <trkpt lat="49.33293" lon="-0.39959">
        <ele>6.983865</ele>
        <time>2022-08-04T15:04:53.000Z</time>
      </trkpt>
      <trkpt lat="49.33291" lon="-0.3995">
        <ele>7.022788</ele>
        <time>2022-08-04T15:04:54.000Z</time>
      </trkpt>
      <trkpt lat="49.3329" lon="-0.39941">
        <ele>7.061752</ele>
        <time>2022-08-04T15:04:55.000Z</time>
      </trkpt>
      <trkpt lat="49.33289" lon="-0.39932">
        <ele>7.102195</ele>
        <time>2022-08-04T15:04:56.000Z</time>
      </trkpt>
      <trkpt lat="49.33288" lon="-0.39922">
        <ele>7.143595</ele>
        <time>2022-08-04T15:04:57.000Z</time>
      </trkpt>
      <trkpt lat="49.33287" lon="-0.39912">
        <ele>7.185894</ele>
        <time>2022-08-04T15:04:58.000Z</time>
      </trkpt>
      <trkpt lat="49.33286" lon="-0.39903">
        <ele>7.178596</ele>
        <time>2022-08-04T15:04:59.000Z</time>
      </trkpt>
      <trkpt lat="49.33285" lon="-0.39893">
        <ele>7.158016</ele>
        <time>2022-08-04T15:05:00.000Z</time>
      </trkpt>
      <trkpt lat="49.33284" lon="-0.39884">
        <ele>7.138365</ele>
        <time>2022-08-04T15:05:01.000Z</time>
      </trkpt>
      <trkpt lat="49.33283" lon="-0.39874">
        <ele>7.118946</ele>
        <time>2022-08-04T15:05:02.000Z</time>
      </trkpt>
      <trkpt lat="49.33282" lon="-0.39865">
        <ele>7.099702</ele>
        <time>2022-08-04T15:05:03.000Z</time>
      </trkpt>
      <trkpt lat="49.33281" lon="-0.39856">
        <ele>7.08061</ele>
        <time>2022-08-04T15:05:04.000Z</time>
      </trkpt>
      <trkpt lat="49.3328" lon="-0.39848">
        <ele>7.061978</ele>
        <time>2022-08-04T15:05:05.000Z</time>
      </trkpt>
      <trkpt lat="49.33279" lon="-0.39839">
        <ele>7.043331</ele>
        <time>2022-08-04T15:05:06.000Z</time>
      </trkpt>
      <trkpt lat="49.33278" lon="-0.3983">
        <ele>7.025355</ele>
        <time>2022-08-04T15:05:07.000Z</time>
      </trkpt>
      <trkpt lat="49.33277" lon="-0.39822">
        <ele>7.007773</ele>
        <time>2022-08-04T15:05:08.000Z</time>
      </trkpt>
      <trkpt lat="49.33277" lon="-0.39814">
        <ele>6.991046</ele>
        <time>2022-08-04T15:05:09.000Z</time>
      </trkpt>
      <trkpt lat="49.33277" lon="-0.39806">
        <ele>6.974651</ele>
        <time>2022-08-04T15:05:10.000Z</time>
      </trkpt>
      <trkpt lat="49.33276" lon="-0.39798">
        <ele>6.958215</ele>
        <time>2022-08-04T15:05:11.000Z</time>
      </trkpt>
      <trkpt lat="49.33276" lon="-0.39791">
        <ele>6.942113</ele>
        <time>2022-08-04T15:05:12.000Z</time>
      </trkpt>
      <trkpt lat="49.33275" lon="-0.39783">
        <ele>6.926339</ele>
        <time>2022-08-04T15:05:13.000Z</time>
      </trkpt>
      <trkpt lat="49.33275" lon="-0.39776">
        <ele>6.911101</ele>
        <time>2022-08-04T15:05:14.000Z</time>
      </trkpt>
      <trkpt lat="49.33275" lon="-0.39769">
        <ele>6.896666</ele>
        <time>2022-08-04T15:05:15.000Z</time>
      </trkpt>
      <trkpt lat="49.33274" lon="-0.39762">
        <ele>6.882913</ele>
        <time>2022-08-04T15:05:16.000Z</time>
      </trkpt>
      <trkpt lat="49.33273" lon="-0.39757">
        <ele>6.872085</ele>
        <time>2022-08-04T15:05:17.000Z</time>
      </trkpt>
      <trkpt lat="49.33271" lon="-0.39754">
        <ele>6.861561</ele>
        <time>2022-08-04T15:05:18.000Z</time>
      </trkpt>
      <trkpt lat="49.33268" lon="-0.39752">
        <ele>6.851377</ele>
        <time>2022-08-04T15:05:19.000Z</time>
      </trkpt>
      <trkpt lat="49.33265" lon="-0.3975">
        <ele>6.841943</ele>
        <time>2022-08-04T15:05:20.000Z</time>
      </trkpt>
      <trkpt lat="49.33261" lon="-0.39749">
        <ele>6.830224</ele>
        <time>2022-08-04T15:05:21.000Z</time>
      </trkpt>
      <trkpt lat="49.33258" lon="-0.39749">
        <ele>6.818036</ele>
        <time>2022-08-04T15:05:22.000Z</time>
      </trkpt>
      <trkpt lat="49.33253" lon="-0.39749">
        <ele>6.804567</ele>
        <time>2022-08-04T15:05:23.000Z</time>
      </trkpt>
      <trkpt lat="49.33249" lon="-0.39751">
        <ele>6.791197</ele>
        <time>2022-08-04T15:05:24.000Z</time>
      </trkpt>
      <trkpt lat="49.33245" lon="-0.39752">
        <ele>6.776632</ele>
        <time>2022-08-04T15:05:25.000Z</time>
      </trkpt>
      <trkpt lat="49.33241" lon="-0.39752">
        <ele>6.763099</ele>
        <time>2022-08-04T15:05:26.000Z</time>
      </trkpt>
      <trkpt lat="49.33236" lon="-0.39753">
        <ele>6.747711</ele>
        <time>2022-08-04T15:05:27.000Z</time>
      </trkpt>
      <trkpt lat="49.33231" lon="-0.39753">
        <ele>6.732335</ele>
        <time>2022-08-04T15:05:28.000Z</time>
      </trkpt>
      <trkpt lat="49.33226" lon="-0.39753">
        <ele>6.715987</ele>
        <time>2022-08-04T15:05:29.000Z</time>
      </trkpt>
      <trkpt lat="49.3322" lon="-0.39753">
        <ele>6.697698</ele>
        <time>2022-08-04T15:05:30.000Z</time>
      </trkpt>
      <trkpt lat="49.33215" lon="-0.39754">
        <ele>6.682253</ele>
        <time>2022-08-04T15:05:31.000Z</time>
      </trkpt>
      <trkpt lat="49.3321" lon="-0.39755">
        <ele>6.664575</ele>
        <time>2022-08-04T15:05:32.000Z</time>
      </trkpt>
      <trkpt lat="49.33205" lon="-0.39755">
        <ele>6.64819</ele>
        <time>2022-08-04T15:05:33.000Z</time>
      </trkpt>
      <trkpt lat="49.33199" lon="-0.39756">
        <ele>6.630887</ele>
        <time>2022-08-04T15:05:34.000Z</time>
      </trkpt>
      <trkpt lat="49.33194" lon="-0.39756">
        <ele>6.608572</ele>
        <time>2022-08-04T15:05:35.000Z</time>
      </trkpt>
      <trkpt lat="49.33189" lon="-0.39757">
        <ele>6.571545</ele>
        <time>2022-08-04T15:05:36.000Z</time>
      </trkpt>
      <trkpt lat="49.33184" lon="-0.39757">
        <ele>6.532472</ele>
        <time>2022-08-04T15:05:37.000Z</time>
      </trkpt>
      <trkpt lat="49.33179" lon="-0.39758">
        <ele>6.495562</ele>
        <time>2022-08-04T15:05:38.000Z</time>
      </trkpt>
      <trkpt lat="49.33174" lon="-0.39759">
        <ele>6.462894</ele>
        <time>2022-08-04T15:05:39.000Z</time>
      </trkpt>
      <trkpt lat="49.33169" lon="-0.3976">
        <ele>6.427907</ele>
        <time>2022-08-04T15:05:40.000Z</time>
      </trkpt>
      <trkpt lat="49.33165" lon="-0.39761">
        <ele>6.392782</ele>
        <time>2022-08-04T15:05:41.000Z</time>
      </trkpt>
      <trkpt lat="49.3316" lon="-0.39761">
        <ele>6.360277</ele>
        <time>2022-08-04T15:05:42.000Z</time>
      </trkpt>
      <trkpt lat="49.33155" lon="-0.39761">
        <ele>6.321229</ele>
        <time>2022-08-04T15:05:43.000Z</time>
      </trkpt>
      <trkpt lat="49.3315" lon="-0.39761">
        <ele>6.288724</ele>
        <time>2022-08-04T15:05:44.000Z</time>
      </trkpt>
      <trkpt lat="49.33145" lon="-0.39762">
        <ele>6.2539</ele>
        <time>2022-08-04T15:05:45.000Z</time>
      </trkpt>
      <trkpt lat="49.33141" lon="-0.39763">
        <ele>6.219075</ele>
        <time>2022-08-04T15:05:46.000Z</time>
      </trkpt>
      <trkpt lat="49.33136" lon="-0.39764">
        <ele>6.186356</ele>
        <time>2022-08-04T15:05:47.000Z</time>
      </trkpt>
      <trkpt lat="49.33132" lon="-0.39764">
        <ele>6.15593</ele>
        <time>2022-08-04T15:05:48.000Z</time>
      </trkpt>
      <trkpt lat="49.33128" lon="-0.39764">
        <ele>6.126284</ele>
        <time>2022-08-04T15:05:49.000Z</time>
      </trkpt>
      <trkpt lat="49.33124" lon="-0.39765">
        <ele>6.098018</ele>
        <time>2022-08-04T15:05:50.000Z</time>
      </trkpt>
      <trkpt lat="49.33121" lon="-0.39765">
        <ele>6.074786</ele>
        <time>2022-08-04T15:05:51.000Z</time>
      </trkpt>
      <trkpt lat="49.33118" lon="-0.39766">
        <ele>6.054022</ele>
        <time>2022-08-04T15:05:52.000Z</time>
      </trkpt>
      <trkpt lat="49.33116" lon="-0.39767">
        <ele>6.037304</ele>
        <time>2022-08-04T15:05:53.000Z</time>
      </trkpt>
      <trkpt lat="49.33114" lon="-0.39766">
        <ele>6.022796</ele>
        <time>2022-08-04T15:05:54.000Z</time>
      </trkpt>
      <trkpt lat="49.33112" lon="-0.39763">
        <ele>6.004911</ele>
        <time>2022-08-04T15:05:55.000Z</time>
      </trkpt>
      <trkpt lat="49.33111" lon="-0.39759">
        <ele>5.98345</ele>
        <time>2022-08-04T15:05:56.000Z</time>
      </trkpt>
      <trkpt lat="49.3311" lon="-0.39753">
        <ele>5.955344</ele>
        <time>2022-08-04T15:05:57.000Z</time>
      </trkpt>
      <trkpt lat="49.33109" lon="-0.39746">
        <ele>5.923341</ele>
        <time>2022-08-04T15:05:58.000Z</time>
      </trkpt>
      <trkpt lat="49.33108" lon="-0.3974">
        <ele>5.891447</ele>
        <time>2022-08-04T15:05:59.000Z</time>
      </trkpt>
      <trkpt lat="49.33107" lon="-0.39733">
        <ele>5.858742</ele>
        <time>2022-08-04T15:06:00.000Z</time>
      </trkpt>
      <trkpt lat="49.33106" lon="-0.39726">
        <ele>5.824477</ele>
        <time>2022-08-04T15:06:01.000Z</time>
      </trkpt>
      <trkpt lat="49.33105" lon="-0.39718">
        <ele>5.787948</ele>
        <time>2022-08-04T15:06:02.000Z</time>
      </trkpt>
      <trkpt lat="49.33104" lon="-0.3971">
        <ele>5.749737</ele>
        <time>2022-08-04T15:06:03.000Z</time>
      </trkpt>
      <trkpt lat="49.33102" lon="-0.39702">
        <ele>5.709557</ele>
        <time>2022-08-04T15:06:04.000Z</time>
      </trkpt>
      <trkpt lat="49.33101" lon="-0.39694">
        <ele>5.669378</ele>
        <time>2022-08-04T15:06:05.000Z</time>
      </trkpt>
      <trkpt lat="49.331" lon="-0.39685">
        <ele>5.628282</ele>
        <time>2022-08-04T15:06:06.000Z</time>
      </trkpt>
      <trkpt lat="49.33098" lon="-0.39677">
        <ele>5.585733</ele>
        <time>2022-08-04T15:06:07.000Z</time>
      </trkpt>
      <trkpt lat="49.33097" lon="-0.39668">
        <ele>5.542731</ele>
        <time>2022-08-04T15:06:08.000Z</time>
      </trkpt>
      <trkpt lat="49.33095" lon="-0.39659">
        <ele>5.499275</ele>
        <time>2022-08-04T15:06:09.000Z</time>
      </trkpt>
      <trkpt lat="49.33094" lon="-0.3965">
        <ele>5.457878</ele>
        <time>2022-08-04T15:06:10.000Z</time>
      </trkpt>
      <trkpt lat="49.33091" lon="-0.39641">
        <ele>5.411971</ele>
        <time>2022-08-04T15:06:11.000Z</time>
      </trkpt>
      <trkpt lat="49.3309" lon="-0.39633">
        <ele>5.368968</ele>
        <time>2022-08-04T15:06:12.000Z</time>
      </trkpt>
      <trkpt lat="49.33088" lon="-0.39624">
        <ele>5.324439</ele>
        <time>2022-08-04T15:06:13.000Z</time>
      </trkpt>
      <trkpt lat="49.33086" lon="-0.39615">
        <ele>5.276068</ele>
        <time>2022-08-04T15:06:14.000Z</time>
      </trkpt>
      <trkpt lat="49.33084" lon="-0.39607">
        <ele>5.229714</ele>
        <time>2022-08-04T15:06:15.000Z</time>
      </trkpt>
      <trkpt lat="49.33082" lon="-0.396">
        <ele>5.186373</ele>
        <time>2022-08-04T15:06:16.000Z</time>
      </trkpt>
      <trkpt lat="49.33081" lon="-0.39594">
        <ele>5.14744</ele>
        <time>2022-08-04T15:06:17.000Z</time>
      </trkpt>
      <trkpt lat="49.33079" lon="-0.39588">
        <ele>5.113691</ele>
        <time>2022-08-04T15:06:18.000Z</time>
      </trkpt>
      <trkpt lat="49.33078" lon="-0.39584">
        <ele>5.085407</ele>
        <time>2022-08-04T15:06:19.000Z</time>
      </trkpt>
      <trkpt lat="49.33077" lon="-0.3958">
        <ele>5.061854</ele>
        <time>2022-08-04T15:06:20.000Z</time>
      </trkpt>
      <trkpt lat="49.33076" lon="-0.39577">
        <ele>5.04505</ele>
        <time>2022-08-04T15:06:21.000Z</time>
      </trkpt>
      <trkpt lat="49.33075" lon="-0.39573">
        <ele>5.021892</ele>
        <time>2022-08-04T15:06:23.000Z</time>
      </trkpt>
      <trkpt lat="49.3307" lon="-0.39557">
        <ele>4.922113</ele>
        <time>2022-08-04T15:06:32.000Z</time>
      </trkpt>
      <trkpt lat="49.33069" lon="-0.39551">
        <ele>4.887233</ele>
        <time>2022-08-04T15:06:33.000Z</time>
      </trkpt>
      <trkpt lat="49.33067" lon="-0.39546">
        <ele>4.851359</ele>
        <time>2022-08-04T15:06:34.000Z</time>
      </trkpt>
      <trkpt lat="49.33065" lon="-0.3954">
        <ele>4.81459</ele>
        <time>2022-08-04T15:06:35.000Z</time>
      </trkpt>
      <trkpt lat="49.33062" lon="-0.39534">
        <ele>4.776015</ele>
        <time>2022-08-04T15:06:36.000Z</time>
      </trkpt>
      <trkpt lat="49.33061" lon="-0.39528">
        <ele>4.737625</ele>
        <time>2022-08-04T15:06:37.000Z</time>
      </trkpt>
      <trkpt lat="49.33058" lon="-0.39521">
        <ele>4.695193</ele>
        <time>2022-08-04T15:06:38.000Z</time>
      </trkpt>
      <trkpt lat="49.33056" lon="-0.39514">
        <ele>4.653736</ele>
        <time>2022-08-04T15:06:39.000Z</time>
      </trkpt>
      <trkpt lat="49.33054" lon="-0.39507">
        <ele>4.61021</ele>
        <time>2022-08-04T15:06:40.000Z</time>
      </trkpt>
      <trkpt lat="49.33053" lon="-0.395">
        <ele>4.566164</ele>
        <time>2022-08-04T15:06:41.000Z</time>
      </trkpt>
      <trkpt lat="49.3305" lon="-0.39492">
        <ele>4.521234</ele>
        <time>2022-08-04T15:06:42.000Z</time>
      </trkpt>
      <trkpt lat="49.33048" lon="-0.39485">
        <ele>4.476146</ele>
        <time>2022-08-04T15:06:43.000Z</time>
      </trkpt>
      <trkpt lat="49.33046" lon="-0.39477">
        <ele>4.429487</ele>
        <time>2022-08-04T15:06:44.000Z</time>
      </trkpt>
      <trkpt lat="49.33044" lon="-0.39469">
        <ele>4.382377</ele>
        <time>2022-08-04T15:06:45.000Z</time>
      </trkpt>
      <trkpt lat="49.33041" lon="-0.39462">
        <ele>4.333029</ele>
        <time>2022-08-04T15:06:46.000Z</time>
      </trkpt>
      <trkpt lat="49.33039" lon="-0.39454">
        <ele>4.284546</ele>
        <time>2022-08-04T15:06:47.000Z</time>
      </trkpt>
      <trkpt lat="49.33036" lon="-0.39446">
        <ele>4.234648</ele>
        <time>2022-08-04T15:06:48.000Z</time>
      </trkpt>
      <trkpt lat="49.33033" lon="-0.39439">
        <ele>4.184417</ele>
        <time>2022-08-04T15:06:49.000Z</time>
      </trkpt>
      <trkpt lat="49.3303" lon="-0.39431">
        <ele>4.135552</ele>
        <time>2022-08-04T15:06:50.000Z</time>
      </trkpt>
      <trkpt lat="49.33028" lon="-0.39424">
        <ele>4.088937</ele>
        <time>2022-08-04T15:06:51.000Z</time>
      </trkpt>
      <trkpt lat="49.33025" lon="-0.39416">
        <ele>4.042232</ele>
        <time>2022-08-04T15:06:52.000Z</time>
      </trkpt>
      <trkpt lat="49.33022" lon="-0.39409">
        <ele>3.994631</ele>
        <time>2022-08-04T15:06:53.000Z</time>
      </trkpt>
      <trkpt lat="49.3302" lon="-0.39401">
        <ele>3.948545</ele>
        <time>2022-08-04T15:06:54.000Z</time>
      </trkpt>
      <trkpt lat="49.33018" lon="-0.39394">
        <ele>3.899454</ele>
        <time>2022-08-04T15:06:55.000Z</time>
      </trkpt>
      <trkpt lat="49.33015" lon="-0.39386">
        <ele>3.85183</ele>
        <time>2022-08-04T15:06:56.000Z</time>
      </trkpt>
      <trkpt lat="49.33013" lon="-0.39378">
        <ele>3.804368</ele>
        <time>2022-08-04T15:06:57.000Z</time>
      </trkpt>
      <trkpt lat="49.33011" lon="-0.39371">
        <ele>3.798988</ele>
        <time>2022-08-04T15:06:58.000Z</time>
      </trkpt>
      <trkpt lat="49.33008" lon="-0.39364">
        <ele>3.876075</ele>
        <time>2022-08-04T15:06:59.000Z</time>
      </trkpt>
      <trkpt lat="49.33005" lon="-0.39357">
        <ele>3.953097</ele>
        <time>2022-08-04T15:07:00.000Z</time>
      </trkpt>
      <trkpt lat="49.33003" lon="-0.39351">
        <ele>4.023846</ele>
        <time>2022-08-04T15:07:01.000Z</time>
      </trkpt>
      <trkpt lat="49.33001" lon="-0.39344">
        <ele>4.099253</ele>
        <time>2022-08-04T15:07:02.000Z</time>
      </trkpt>
      <trkpt lat="49.32998" lon="-0.39337">
        <ele>4.18292</ele>
        <time>2022-08-04T15:07:03.000Z</time>
      </trkpt>
      <trkpt lat="49.32995" lon="-0.3933">
        <ele>4.261701</ele>
        <time>2022-08-04T15:07:04.000Z</time>
      </trkpt>
      <trkpt lat="49.32993" lon="-0.39323">
        <ele>4.341332</ele>
        <time>2022-08-04T15:07:05.000Z</time>
      </trkpt>
      <trkpt lat="49.3299" lon="-0.39316">
        <ele>4.423313</ele>
        <time>2022-08-04T15:07:06.000Z</time>
      </trkpt>
      <trkpt lat="49.32988" lon="-0.39308">
        <ele>4.506134</ele>
        <time>2022-08-04T15:07:07.000Z</time>
      </trkpt>
      <trkpt lat="49.32985" lon="-0.39301">
        <ele>4.584774</ele>
        <time>2022-08-04T15:07:08.000Z</time>
      </trkpt>
      <trkpt lat="49.32983" lon="-0.39294">
        <ele>4.663555</ele>
        <time>2022-08-04T15:07:09.000Z</time>
      </trkpt>
      <trkpt lat="49.3298" lon="-0.39287">
        <ele>4.742198</ele>
        <time>2022-08-04T15:07:10.000Z</time>
      </trkpt>
      <trkpt lat="49.32978" lon="-0.3928">
        <ele>4.81643</ele>
        <time>2022-08-04T15:07:11.000Z</time>
      </trkpt>
      <trkpt lat="49.32975" lon="-0.39273">
        <ele>4.893517</ele>
        <time>2022-08-04T15:07:12.000Z</time>
      </trkpt>
      <trkpt lat="49.32972" lon="-0.39266">
        <ele>4.97873</ele>
        <time>2022-08-04T15:07:13.000Z</time>
      </trkpt>
      <trkpt lat="49.32969" lon="-0.3926">
        <ele>5.052529</ele>
        <time>2022-08-04T15:07:14.000Z</time>
      </trkpt>
      <trkpt lat="49.32967" lon="-0.39253">
        <ele>5.124618</ele>
        <time>2022-08-04T15:07:15.000Z</time>
      </trkpt>
      <trkpt lat="49.32964" lon="-0.39247">
        <ele>5.200035</ele>
        <time>2022-08-04T15:07:16.000Z</time>
      </trkpt>
      <trkpt lat="49.32962" lon="-0.39241">
        <ele>5.269061</ele>
        <time>2022-08-04T15:07:17.000Z</time>
      </trkpt>
      <trkpt lat="49.32959" lon="-0.39235">
        <ele>5.332161</ele>
        <time>2022-08-04T15:07:18.000Z</time>
      </trkpt>
      <trkpt lat="49.32957" lon="-0.39231">
        <ele>5.382236</ele>
        <time>2022-08-04T15:07:19.000Z</time>
      </trkpt>
      <trkpt lat="49.32955" lon="-0.39225">
        <ele>5.457726</ele>
        <time>2022-08-04T15:07:20.000Z</time>
      </trkpt>
      <trkpt lat="49.32953" lon="-0.39219">
        <ele>5.519175</ele>
        <time>2022-08-04T15:07:21.000Z</time>
      </trkpt>
      <trkpt lat="49.32951" lon="-0.39216">
        <ele>5.561782</ele>
        <time>2022-08-04T15:07:22.000Z</time>
      </trkpt>
      <trkpt lat="49.32949" lon="-0.3921">
        <ele>5.628246</ele>
        <time>2022-08-04T15:07:23.000Z</time>
      </trkpt>
      <trkpt lat="49.32947" lon="-0.39206">
        <ele>5.679044</ele>
        <time>2022-08-04T15:07:24.000Z</time>
      </trkpt>
      <trkpt lat="49.32945" lon="-0.39201">
        <ele>5.729167</ele>
        <time>2022-08-04T15:07:25.000Z</time>
      </trkpt>
      <trkpt lat="49.32944" lon="-0.39197">
        <ele>5.776735</ele>
        <time>2022-08-04T15:07:26.000Z</time>
      </trkpt>
      <trkpt lat="49.32943" lon="-0.39193">
        <ele>5.81954</ele>
        <time>2022-08-04T15:07:27.000Z</time>
      </trkpt>
      <trkpt lat="49.32942" lon="-0.39188">
        <ele>5.865566</ele>
        <time>2022-08-04T15:07:28.000Z</time>
      </trkpt>
      <trkpt lat="49.32941" lon="-0.39184">
        <ele>5.909288</ele>
        <time>2022-08-04T15:07:29.000Z</time>
      </trkpt>
      <trkpt lat="49.32938" lon="-0.3918">
        <ele>5.964528</ele>
        <time>2022-08-04T15:07:30.000Z</time>
      </trkpt>
      <trkpt lat="49.32937" lon="-0.39176">
        <ele>6.004938</ele>
        <time>2022-08-04T15:07:31.000Z</time>
      </trkpt>
      <trkpt lat="49.32935" lon="-0.39173">
        <ele>6.04759</ele>
        <time>2022-08-04T15:07:32.000Z</time>
      </trkpt>
      <trkpt lat="49.32933" lon="-0.3917">
        <ele>6.089393</ele>
        <time>2022-08-04T15:07:33.000Z</time>
      </trkpt>
      <trkpt lat="49.32932" lon="-0.39166">
        <ele>6.133186</ele>
        <time>2022-08-04T15:07:34.000Z</time>
      </trkpt>
      <trkpt lat="49.3293" lon="-0.39163">
        <ele>6.171852</ele>
        <time>2022-08-04T15:07:35.000Z</time>
      </trkpt>
      <trkpt lat="49.32928" lon="-0.3916">
        <ele>6.209005</ele>
        <time>2022-08-04T15:07:36.000Z</time>
      </trkpt>
      <trkpt lat="49.32927" lon="-0.39158">
        <ele>6.237325</ele>
        <time>2022-08-04T15:07:37.000Z</time>
      </trkpt>
      <trkpt lat="49.32925" lon="-0.39156">
        <ele>6.269559</ele>
        <time>2022-08-04T15:07:38.000Z</time>
      </trkpt>
      <trkpt lat="49.32924" lon="-0.39153">
        <ele>6.305971</ele>
        <time>2022-08-04T15:07:39.000Z</time>
      </trkpt>
      <trkpt lat="49.32923" lon="-0.3915">
        <ele>6.340049</ele>
        <time>2022-08-04T15:07:40.000Z</time>
      </trkpt>
      <trkpt lat="49.32921" lon="-0.39146">
        <ele>6.383467</ele>
        <time>2022-08-04T15:07:41.000Z</time>
      </trkpt>
      <trkpt lat="49.3292" lon="-0.39143">
        <ele>6.426074</ele>
        <time>2022-08-04T15:07:42.000Z</time>
      </trkpt>
      <trkpt lat="49.32918" lon="-0.39138">
        <ele>6.473695</ele>
        <time>2022-08-04T15:07:43.000Z</time>
      </trkpt>
      <trkpt lat="49.32916" lon="-0.39133">
        <ele>6.482485</ele>
        <time>2022-08-04T15:07:44.000Z</time>
      </trkpt>
      <trkpt lat="49.32914" lon="-0.39129">
        <ele>6.48999</ele>
        <time>2022-08-04T15:07:45.000Z</time>
      </trkpt>
      <trkpt lat="49.32912" lon="-0.39124">
        <ele>6.498655</ele>
        <time>2022-08-04T15:07:46.000Z</time>
      </trkpt>
      <trkpt lat="49.3291" lon="-0.39117">
        <ele>6.51023</ele>
        <time>2022-08-04T15:07:47.000Z</time>
      </trkpt>
      <trkpt lat="49.32908" lon="-0.39112">
        <ele>6.519834</ele>
        <time>2022-08-04T15:07:48.000Z</time>
      </trkpt>
      <trkpt lat="49.32906" lon="-0.39106">
        <ele>6.529283</ele>
        <time>2022-08-04T15:07:49.000Z</time>
      </trkpt>
      <trkpt lat="49.32904" lon="-0.39101">
        <ele>6.53916</ele>
        <time>2022-08-04T15:07:50.000Z</time>
      </trkpt>
      <trkpt lat="49.32903" lon="-0.39096">
        <ele>6.546755</ele>
        <time>2022-08-04T15:07:51.000Z</time>
      </trkpt>
      <trkpt lat="49.32901" lon="-0.39089">
        <ele>6.55817</ele>
        <time>2022-08-04T15:07:52.000Z</time>
      </trkpt>
      <trkpt lat="49.329" lon="-0.39085">
        <ele>6.566351</ele>
        <time>2022-08-04T15:07:53.000Z</time>
      </trkpt>
      <trkpt lat="49.32898" lon="-0.39078">
        <ele>6.576399</ele>
        <time>2022-08-04T15:07:54.000Z</time>
      </trkpt>
      <trkpt lat="49.32897" lon="-0.39073">
        <ele>6.585788</ele>
        <time>2022-08-04T15:07:55.000Z</time>
      </trkpt>
      <trkpt lat="49.32894" lon="-0.39066">
        <ele>6.598218</ele>
        <time>2022-08-04T15:07:56.000Z</time>
      </trkpt>
      <trkpt lat="49.32893" lon="-0.39061">
        <ele>6.606752</ele>
        <time>2022-08-04T15:07:57.000Z</time>
      </trkpt>
      <trkpt lat="49.3289" lon="-0.39055">
        <ele>6.617868</ele>
        <time>2022-08-04T15:07:58.000Z</time>
      </trkpt>
      <trkpt lat="49.32888" lon="-0.39049">
        <ele>6.62849</ele>
        <time>2022-08-04T15:07:59.000Z</time>
      </trkpt>
      <trkpt lat="49.32885" lon="-0.39043">
        <ele>6.640813</ele>
        <time>2022-08-04T15:08:00.000Z</time>
      </trkpt>
      <trkpt lat="49.32882" lon="-0.39037">
        <ele>6.651553</ele>
        <time>2022-08-04T15:08:01.000Z</time>
      </trkpt>
      <trkpt lat="49.3288" lon="-0.3903">
        <ele>6.662801</ele>
        <time>2022-08-04T15:08:02.000Z</time>
      </trkpt>
      <trkpt lat="49.32877" lon="-0.39024">
        <ele>6.673942</ele>
        <time>2022-08-04T15:08:03.000Z</time>
      </trkpt>
      <trkpt lat="49.32874" lon="-0.39017">
        <ele>6.686883</ele>
        <time>2022-08-04T15:08:04.000Z</time>
      </trkpt>
      <trkpt lat="49.32872" lon="-0.39013">
        <ele>6.695196</ele>
        <time>2022-08-04T15:08:05.000Z</time>
      </trkpt>
      <trkpt lat="49.32869" lon="-0.39008">
        <ele>6.706572</ele>
        <time>2022-08-04T15:08:06.000Z</time>
      </trkpt>
      <trkpt lat="49.32866" lon="-0.39002">
        <ele>6.718533</ele>
        <time>2022-08-04T15:08:07.000Z</time>
      </trkpt>
      <trkpt lat="49.32862" lon="-0.38996">
        <ele>6.730141</ele>
        <time>2022-08-04T15:08:08.000Z</time>
      </trkpt>
      <trkpt lat="49.3286" lon="-0.3899">
        <ele>6.741386</ele>
        <time>2022-08-04T15:08:09.000Z</time>
      </trkpt>
      <trkpt lat="49.32858" lon="-0.38984">
        <ele>6.751607</ele>
        <time>2022-08-04T15:08:10.000Z</time>
      </trkpt>
      <trkpt lat="49.32855" lon="-0.38978">
        <ele>6.762764</ele>
        <time>2022-08-04T15:08:11.000Z</time>
      </trkpt>
      <trkpt lat="49.32852" lon="-0.38973">
        <ele>6.773679</ele>
        <time>2022-08-04T15:08:12.000Z</time>
      </trkpt>
      <trkpt lat="49.32849" lon="-0.38967">
        <ele>6.785169</ele>
        <time>2022-08-04T15:08:13.000Z</time>
      </trkpt>
      <trkpt lat="49.32846" lon="-0.38962">
        <ele>6.795515</ele>
        <time>2022-08-04T15:08:14.000Z</time>
      </trkpt>
      <trkpt lat="49.32844" lon="-0.38956">
        <ele>6.805998</ele>
        <time>2022-08-04T15:08:15.000Z</time>
      </trkpt>
      <trkpt lat="49.32841" lon="-0.38952">
        <ele>6.814438</ele>
        <time>2022-08-04T15:08:16.000Z</time>
      </trkpt>
      <trkpt lat="49.32839" lon="-0.38948">
        <ele>6.821679</ele>
        <time>2022-08-04T15:08:17.000Z</time>
      </trkpt>
      <trkpt lat="49.32838" lon="-0.38944">
        <ele>6.829319</ele>
        <time>2022-08-04T15:08:18.000Z</time>
      </trkpt>
      <trkpt lat="49.32836" lon="-0.3894">
        <ele>6.83656</ele>
        <time>2022-08-04T15:08:19.000Z</time>
      </trkpt>
      <trkpt lat="49.32834" lon="-0.38935">
        <ele>6.846642</ele>
        <time>2022-08-04T15:08:20.000Z</time>
      </trkpt>
      <trkpt lat="49.32832" lon="-0.38928">
        <ele>6.857213</ele>
        <time>2022-08-04T15:08:21.000Z</time>
      </trkpt>
      <trkpt lat="49.3283" lon="-0.38922">
        <ele>6.867505</ele>
        <time>2022-08-04T15:08:22.000Z</time>
      </trkpt>
      <trkpt lat="49.32828" lon="-0.38916">
        <ele>6.879052</ele>
        <time>2022-08-04T15:08:23.000Z</time>
      </trkpt>
      <trkpt lat="49.32826" lon="-0.38907">
        <ele>6.89277</ele>
        <time>2022-08-04T15:08:24.000Z</time>
      </trkpt>
      <trkpt lat="49.32825" lon="-0.38902">
        <ele>6.892734</ele>
        <time>2022-08-04T15:08:25.000Z</time>
      </trkpt>
      <trkpt lat="49.32823" lon="-0.38895">
        <ele>6.879564</ele>
        <time>2022-08-04T15:08:26.000Z</time>
      </trkpt>
      <trkpt lat="49.32822" lon="-0.38888">
        <ele>6.868012</ele>
        <time>2022-08-04T15:08:27.000Z</time>
      </trkpt>
      <trkpt lat="49.32821" lon="-0.38881">
        <ele>6.855894</ele>
        <time>2022-08-04T15:08:28.000Z</time>
      </trkpt>
      <trkpt lat="49.3282" lon="-0.38876">
        <ele>6.846814</ele>
        <time>2022-08-04T15:08:29.000Z</time>
      </trkpt>
      <trkpt lat="49.32818" lon="-0.38868">
        <ele>6.832831</ele>
        <time>2022-08-04T15:08:30.000Z</time>
      </trkpt>
      <trkpt lat="49.32818" lon="-0.38863">
        <ele>6.824138</ele>
        <time>2022-08-04T15:08:31.000Z</time>
      </trkpt>
      <trkpt lat="49.32816" lon="-0.38857">
        <ele>6.813326</ele>
        <time>2022-08-04T15:08:32.000Z</time>
      </trkpt>
      <trkpt lat="49.32815" lon="-0.3885">
        <ele>6.800641</ele>
        <time>2022-08-04T15:08:33.000Z</time>
      </trkpt>
      <trkpt lat="49.32814" lon="-0.38846">
        <ele>6.792592</ele>
        <time>2022-08-04T15:08:34.000Z</time>
      </trkpt>
      <trkpt lat="49.32812" lon="-0.38839">
        <ele>6.78039</ele>
        <time>2022-08-04T15:08:35.000Z</time>
      </trkpt>
      <trkpt lat="49.32811" lon="-0.38834">
        <ele>6.770706</ele>
        <time>2022-08-04T15:08:36.000Z</time>
      </trkpt>
      <trkpt lat="49.3281" lon="-0.3883">
        <ele>6.763293</ele>
        <time>2022-08-04T15:08:37.000Z</time>
      </trkpt>
      <trkpt lat="49.3281" lon="-0.38823">
        <ele>6.752406</ele>
        <time>2022-08-04T15:08:38.000Z</time>
      </trkpt>
      <trkpt lat="49.32809" lon="-0.38818">
        <ele>6.742806</ele>
        <time>2022-08-04T15:08:39.000Z</time>
      </trkpt>
      <trkpt lat="49.32808" lon="-0.38814">
        <ele>6.73612</ele>
        <time>2022-08-04T15:08:40.000Z</time>
      </trkpt>
      <trkpt lat="49.32807" lon="-0.38809">
        <ele>6.72739</ele>
        <time>2022-08-04T15:08:41.000Z</time>
      </trkpt>
      <trkpt lat="49.32805" lon="-0.38806">
        <ele>6.7192</ele>
        <time>2022-08-04T15:08:42.000Z</time>
      </trkpt>
      <trkpt lat="49.32804" lon="-0.388">
        <ele>6.709436</ele>
        <time>2022-08-04T15:08:43.000Z</time>
      </trkpt>
      <trkpt lat="49.32803" lon="-0.38795">
        <ele>6.701246</ele>
        <time>2022-08-04T15:08:44.000Z</time>
      </trkpt>
      <trkpt lat="49.32802" lon="-0.38791">
        <ele>6.692829</ele>
        <time>2022-08-04T15:08:45.000Z</time>
      </trkpt>
      <trkpt lat="49.32801" lon="-0.38786">
        <ele>6.68394</ele>
        <time>2022-08-04T15:08:46.000Z</time>
      </trkpt>
      <trkpt lat="49.328" lon="-0.38782">
        <ele>6.67742</ele>
        <time>2022-08-04T15:08:47.000Z</time>
      </trkpt>
      <trkpt lat="49.32799" lon="-0.38777">
        <ele>6.668313</ele>
        <time>2022-08-04T15:08:48.000Z</time>
      </trkpt>
      <trkpt lat="49.32798" lon="-0.38772">
        <ele>6.659443</ele>
        <time>2022-08-04T15:08:49.000Z</time>
      </trkpt>
      <trkpt lat="49.32797" lon="-0.38767">
        <ele>6.6505</ele>
        <time>2022-08-04T15:08:50.000Z</time>
      </trkpt>
      <trkpt lat="49.32796" lon="-0.38762">
        <ele>6.640976</ele>
        <time>2022-08-04T15:08:51.000Z</time>
      </trkpt>
      <trkpt lat="49.32795" lon="-0.38757">
        <ele>6.631865</ele>
        <time>2022-08-04T15:08:52.000Z</time>
      </trkpt>
      <trkpt lat="49.32793" lon="-0.38751">
        <ele>6.621252</ele>
        <time>2022-08-04T15:08:53.000Z</time>
      </trkpt>
      <trkpt lat="49.32791" lon="-0.38746">
        <ele>6.610482</ele>
        <time>2022-08-04T15:08:54.000Z</time>
      </trkpt>
      <trkpt lat="49.3279" lon="-0.38739">
        <ele>6.599182</ele>
        <time>2022-08-04T15:08:55.000Z</time>
      </trkpt>
      <trkpt lat="49.32789" lon="-0.38734">
        <ele>6.589977</ele>
        <time>2022-08-04T15:08:56.000Z</time>
      </trkpt>
      <trkpt lat="49.32787" lon="-0.38727">
        <ele>6.575913</ele>
        <time>2022-08-04T15:08:57.000Z</time>
      </trkpt>
      <trkpt lat="49.32785" lon="-0.38721">
        <ele>6.566069</ele>
        <time>2022-08-04T15:08:58.000Z</time>
      </trkpt>
      <trkpt lat="49.32783" lon="-0.38715">
        <ele>6.553731</ele>
        <time>2022-08-04T15:08:59.000Z</time>
      </trkpt>
      <trkpt lat="49.32782" lon="-0.38708">
        <ele>6.541777</ele>
        <time>2022-08-04T15:09:00.000Z</time>
      </trkpt>
      <trkpt lat="49.32781" lon="-0.387">
        <ele>6.527957</ele>
        <time>2022-08-04T15:09:01.000Z</time>
      </trkpt>
      <trkpt lat="49.32779" lon="-0.38694">
        <ele>6.516871</ele>
        <time>2022-08-04T15:09:02.000Z</time>
      </trkpt>
      <trkpt lat="49.32778" lon="-0.3869">
        <ele>6.509385</ele>
        <time>2022-08-04T15:09:03.000Z</time>
      </trkpt>
      <trkpt lat="49.32777" lon="-0.38685">
        <ele>6.500515</ele>
        <time>2022-08-04T15:09:04.000Z</time>
      </trkpt>
      <trkpt lat="49.32777" lon="-0.38682">
        <ele>6.495043</ele>
        <time>2022-08-04T15:09:05.000Z</time>
      </trkpt>
      <trkpt lat="49.32778" lon="-0.38677">
        <ele>6.486502</ele>
        <time>2022-08-04T15:09:07.000Z</time>
      </trkpt>
      <trkpt lat="49.32777" lon="-0.38674">
        <ele>6.481299</ele>
        <time>2022-08-04T15:09:08.000Z</time>
      </trkpt>
      <trkpt lat="49.32777" lon="-0.38671">
        <ele>6.475365</ele>
        <time>2022-08-04T15:09:09.000Z</time>
      </trkpt>
      <trkpt lat="49.32775" lon="-0.38667">
        <ele>6.467629</ele>
        <time>2022-08-04T15:09:10.000Z</time>
      </trkpt>
      <trkpt lat="49.32774" lon="-0.38663">
        <ele>6.460069</ele>
        <time>2022-08-04T15:09:11.000Z</time>
      </trkpt>
      <trkpt lat="49.32773" lon="-0.38659">
        <ele>6.451303</ele>
        <time>2022-08-04T15:09:12.000Z</time>
      </trkpt>
      <trkpt lat="49.32771" lon="-0.38654">
        <ele>6.443197</ele>
        <time>2022-08-04T15:09:13.000Z</time>
      </trkpt>
      <trkpt lat="49.3277" lon="-0.3865">
        <ele>6.434743</ele>
        <time>2022-08-04T15:09:14.000Z</time>
      </trkpt>
      <trkpt lat="49.32769" lon="-0.38645">
        <ele>6.425675</ele>
        <time>2022-08-04T15:09:15.000Z</time>
      </trkpt>
      <trkpt lat="49.32767" lon="-0.38641">
        <ele>6.412305</ele>
        <time>2022-08-04T15:09:16.000Z</time>
      </trkpt>
      <trkpt lat="49.32766" lon="-0.38637">
        <ele>6.401264</ele>
        <time>2022-08-04T15:09:17.000Z</time>
      </trkpt>
      <trkpt lat="49.32765" lon="-0.38633">
        <ele>6.38872</ele>
        <time>2022-08-04T15:09:18.000Z</time>
      </trkpt>
      <trkpt lat="49.32763" lon="-0.38629">
        <ele>6.37528</ele>
        <time>2022-08-04T15:09:19.000Z</time>
      </trkpt>
      <trkpt lat="49.32762" lon="-0.38625">
        <ele>6.360395</ele>
        <time>2022-08-04T15:09:20.000Z</time>
      </trkpt>
      <trkpt lat="49.3276" lon="-0.38619">
        <ele>6.342623</ele>
        <time>2022-08-04T15:09:21.000Z</time>
      </trkpt>
      <trkpt lat="49.32759" lon="-0.38613">
        <ele>6.324517</ele>
        <time>2022-08-04T15:09:22.000Z</time>
      </trkpt>
      <trkpt lat="49.32758" lon="-0.38607">
        <ele>6.306886</ele>
        <time>2022-08-04T15:09:23.000Z</time>
      </trkpt>
      <trkpt lat="49.32756" lon="-0.38601">
        <ele>6.286728</ele>
        <time>2022-08-04T15:09:24.000Z</time>
      </trkpt>
      <trkpt lat="49.32754" lon="-0.38595">
        <ele>6.268394</ele>
        <time>2022-08-04T15:09:25.000Z</time>
      </trkpt>
      <trkpt lat="49.32752" lon="-0.3859">
        <ele>6.251147</ele>
        <time>2022-08-04T15:09:26.000Z</time>
      </trkpt>
      <trkpt lat="49.3275" lon="-0.38585">
        <ele>6.233825</ele>
        <time>2022-08-04T15:09:27.000Z</time>
      </trkpt>
      <trkpt lat="49.32748" lon="-0.38579">
        <ele>6.216754</ele>
        <time>2022-08-04T15:09:28.000Z</time>
      </trkpt>
      <trkpt lat="49.32746" lon="-0.38574">
        <ele>6.198437</ele>
        <time>2022-08-04T15:09:29.000Z</time>
      </trkpt>
      <trkpt lat="49.32745" lon="-0.3857">
        <ele>6.184551</ele>
        <time>2022-08-04T15:09:30.000Z</time>
      </trkpt>
      <trkpt lat="49.32743" lon="-0.38564">
        <ele>6.166779</ele>
        <time>2022-08-04T15:09:31.000Z</time>
      </trkpt>
      <trkpt lat="49.32741" lon="-0.38558">
        <ele>6.147683</ele>
        <time>2022-08-04T15:09:32.000Z</time>
      </trkpt>
      <trkpt lat="49.3274" lon="-0.38551">
        <ele>6.126497</ele>
        <time>2022-08-04T15:09:33.000Z</time>
      </trkpt>
      <trkpt lat="49.32738" lon="-0.38544">
        <ele>6.104253</ele>
        <time>2022-08-04T15:09:34.000Z</time>
      </trkpt>
      <trkpt lat="49.32735" lon="-0.38536">
        <ele>6.079673</ele>
        <time>2022-08-04T15:09:35.000Z</time>
      </trkpt>
      <trkpt lat="49.32732" lon="-0.38528">
        <ele>6.05367</ele>
        <time>2022-08-04T15:09:36.000Z</time>
      </trkpt>
      <trkpt lat="49.3273" lon="-0.38521">
        <ele>6.029344</ele>
        <time>2022-08-04T15:09:37.000Z</time>
      </trkpt>
      <trkpt lat="49.32727" lon="-0.38514">
        <ele>6.007089</ele>
        <time>2022-08-04T15:09:38.000Z</time>
      </trkpt>
      <trkpt lat="49.32725" lon="-0.38507">
        <ele>5.985464</ele>
        <time>2022-08-04T15:09:39.000Z</time>
      </trkpt>
      <trkpt lat="49.32724" lon="-0.385">
        <ele>5.964803</ele>
        <time>2022-08-04T15:09:40.000Z</time>
      </trkpt>
      <trkpt lat="49.32722" lon="-0.38494">
        <ele>5.944403</ele>
        <time>2022-08-04T15:09:41.000Z</time>
      </trkpt>
      <trkpt lat="49.3272" lon="-0.38488">
        <ele>5.926069</ele>
        <time>2022-08-04T15:09:42.000Z</time>
      </trkpt>
      <trkpt lat="49.32718" lon="-0.38483">
        <ele>5.909495</ele>
        <time>2022-08-04T15:09:43.000Z</time>
      </trkpt>
      <trkpt lat="49.32717" lon="-0.38478">
        <ele>5.895065</ele>
        <time>2022-08-04T15:09:44.000Z</time>
      </trkpt>
      <trkpt lat="49.32716" lon="-0.38474">
        <ele>5.880444</ele>
        <time>2022-08-04T15:09:45.000Z</time>
      </trkpt>
      <trkpt lat="49.32715" lon="-0.38468">
        <ele>5.865037</ele>
        <time>2022-08-04T15:09:46.000Z</time>
      </trkpt>
      <trkpt lat="49.32713" lon="-0.38463">
        <ele>5.848283</ele>
        <time>2022-08-04T15:09:47.000Z</time>
      </trkpt>
      <trkpt lat="49.32713" lon="-0.38457">
        <ele>5.829982</ele>
        <time>2022-08-04T15:09:48.000Z</time>
      </trkpt>
      <trkpt lat="49.32711" lon="-0.3845">
        <ele>5.809255</ele>
        <time>2022-08-04T15:09:49.000Z</time>
      </trkpt>
      <trkpt lat="49.3271" lon="-0.38443">
        <ele>5.789358</ele>
        <time>2022-08-04T15:09:50.000Z</time>
      </trkpt>
      <trkpt lat="49.32709" lon="-0.38437">
        <ele>5.769888</ele>
        <time>2022-08-04T15:09:51.000Z</time>
      </trkpt>
      <trkpt lat="49.32707" lon="-0.3843">
        <ele>5.749594</ele>
        <time>2022-08-04T15:09:52.000Z</time>
      </trkpt>
      <trkpt lat="49.32706" lon="-0.38423">
        <ele>5.730398</ele>
        <time>2022-08-04T15:09:53.000Z</time>
      </trkpt>
      <trkpt lat="49.32705" lon="-0.38417">
        <ele>5.713015</ele>
        <time>2022-08-04T15:09:54.000Z</time>
      </trkpt>
      <trkpt lat="49.32704" lon="-0.38411">
        <ele>5.694447</ele>
        <time>2022-08-04T15:09:55.000Z</time>
      </trkpt>
      <trkpt lat="49.32703" lon="-0.38405">
        <ele>5.675796</ele>
        <time>2022-08-04T15:09:56.000Z</time>
      </trkpt>
      <trkpt lat="49.32702" lon="-0.38399">
        <ele>5.65813</ele>
        <time>2022-08-04T15:09:57.000Z</time>
      </trkpt>
      <trkpt lat="49.32701" lon="-0.38393">
        <ele>5.63984</ele>
        <time>2022-08-04T15:09:58.000Z</time>
      </trkpt>
      <trkpt lat="49.32701" lon="-0.38386">
        <ele>5.66514</ele>
        <time>2022-08-04T15:09:59.000Z</time>
      </trkpt>
      <trkpt lat="49.32699" lon="-0.3838">
        <ele>5.706343</ele>
        <time>2022-08-04T15:10:00.000Z</time>
      </trkpt>
      <trkpt lat="49.32698" lon="-0.38374">
        <ele>5.7479</ele>
        <time>2022-08-04T15:10:01.000Z</time>
      </trkpt>
      <trkpt lat="49.32697" lon="-0.38367">
        <ele>5.790146</ele>
        <time>2022-08-04T15:10:02.000Z</time>
      </trkpt>
      <trkpt lat="49.32695" lon="-0.3836">
        <ele>5.833446</ele>
        <time>2022-08-04T15:10:03.000Z</time>
      </trkpt>
      <trkpt lat="49.32695" lon="-0.38353">
        <ele>5.875152</ele>
        <time>2022-08-04T15:10:04.000Z</time>
      </trkpt>
      <trkpt lat="49.32693" lon="-0.38347">
        <ele>5.917529</ele>
        <time>2022-08-04T15:10:05.000Z</time>
      </trkpt>
      <trkpt lat="49.32693" lon="-0.3834">
        <ele>5.959097</ele>
        <time>2022-08-04T15:10:06.000Z</time>
      </trkpt>
      <trkpt lat="49.32692" lon="-0.38333">
        <ele>6.001942</ele>
        <time>2022-08-04T15:10:07.000Z</time>
      </trkpt>
      <trkpt lat="49.32691" lon="-0.38327">
        <ele>6.043988</ele>
        <time>2022-08-04T15:10:08.000Z</time>
      </trkpt>
      <trkpt lat="49.3269" lon="-0.3832">
        <ele>6.086954</ele>
        <time>2022-08-04T15:10:09.000Z</time>
      </trkpt>
      <trkpt lat="49.32689" lon="-0.38314">
        <ele>6.126807</ele>
        <time>2022-08-04T15:10:10.000Z</time>
      </trkpt>
      <trkpt lat="49.32688" lon="-0.38308">
        <ele>6.162902</ele>
        <time>2022-08-04T15:10:11.000Z</time>
      </trkpt>
      <trkpt lat="49.32687" lon="-0.38302">
        <ele>6.196571</ele>
        <time>2022-08-04T15:10:12.000Z</time>
      </trkpt>
      <trkpt lat="49.32687" lon="-0.38298">
        <ele>6.226313</ele>
        <time>2022-08-04T15:10:13.000Z</time>
      </trkpt>
      <trkpt lat="49.32687" lon="-0.38294">
        <ele>6.251061</ele>
        <time>2022-08-04T15:10:14.000Z</time>
      </trkpt>
      <trkpt lat="49.32686" lon="-0.3829">
        <ele>6.272118</ele>
        <time>2022-08-04T15:10:15.000Z</time>
      </trkpt>
      <trkpt lat="49.32686" lon="-0.38287">
        <ele>6.290773</ele>
        <time>2022-08-04T15:10:16.000Z</time>
      </trkpt>
      <trkpt lat="49.32685" lon="-0.38282">
        <ele>6.321735</ele>
        <time>2022-08-04T15:10:18.000Z</time>
      </trkpt>
      <trkpt lat="49.32685" lon="-0.38279">
        <ele>6.339782</ele>
        <time>2022-08-04T15:10:19.000Z</time>
      </trkpt>
      <trkpt lat="49.32684" lon="-0.38276">
        <ele>6.366059</ele>
        <time>2022-08-04T15:10:20.000Z</time>
      </trkpt>
      <trkpt lat="49.32682" lon="-0.38272">
        <ele>6.393865</ele>
        <time>2022-08-04T15:10:21.000Z</time>
      </trkpt>
      <trkpt lat="49.32681" lon="-0.38268">
        <ele>6.422796</ele>
        <time>2022-08-04T15:10:22.000Z</time>
      </trkpt>
      <trkpt lat="49.3268" lon="-0.38263">
        <ele>6.454942</ele>
        <time>2022-08-04T15:10:23.000Z</time>
      </trkpt>
      <trkpt lat="49.3268" lon="-0.38257">
        <ele>6.49009</ele>
        <time>2022-08-04T15:10:24.000Z</time>
      </trkpt>
      <trkpt lat="49.3268" lon="-0.3825">
        <ele>6.530041</ele>
        <time>2022-08-04T15:10:25.000Z</time>
      </trkpt>
      <trkpt lat="49.3268" lon="-0.38244">
        <ele>6.571931</ele>
        <time>2022-08-04T15:10:26.000Z</time>
      </trkpt>
      <trkpt lat="49.32681" lon="-0.38236">
        <ele>6.618374</ele>
        <time>2022-08-04T15:10:27.000Z</time>
      </trkpt>
      <trkpt lat="49.32681" lon="-0.38228">
        <ele>6.666159</ele>
        <time>2022-08-04T15:10:28.000Z</time>
      </trkpt>
      <trkpt lat="49.32682" lon="-0.3822">
        <ele>6.715411</ele>
        <time>2022-08-04T15:10:29.000Z</time>
      </trkpt>
      <trkpt lat="49.32683" lon="-0.38213">
        <ele>6.763065</ele>
        <time>2022-08-04T15:10:30.000Z</time>
      </trkpt>
      <trkpt lat="49.32683" lon="-0.38205">
        <ele>6.813781</ele>
        <time>2022-08-04T15:10:31.000Z</time>
      </trkpt>
      <trkpt lat="49.32684" lon="-0.38197">
        <ele>6.862055</ele>
        <time>2022-08-04T15:10:32.000Z</time>
      </trkpt>
      <trkpt lat="49.32685" lon="-0.38189">
        <ele>6.909755</ele>
        <time>2022-08-04T15:10:33.000Z</time>
      </trkpt>
      <trkpt lat="49.32686" lon="-0.38182">
        <ele>6.956322</ele>
        <time>2022-08-04T15:10:34.000Z</time>
      </trkpt>
      <trkpt lat="49.32687" lon="-0.38174">
        <ele>7.004983</ele>
        <time>2022-08-04T15:10:35.000Z</time>
      </trkpt>
      <trkpt lat="49.32688" lon="-0.38167">
        <ele>7.052035</ele>
        <time>2022-08-04T15:10:36.000Z</time>
      </trkpt>
      <trkpt lat="49.32689" lon="-0.38159">
        <ele>7.099735</ele>
        <time>2022-08-04T15:10:37.000Z</time>
      </trkpt>
      <trkpt lat="49.32691" lon="-0.38151">
        <ele>7.149408</ele>
        <time>2022-08-04T15:10:38.000Z</time>
      </trkpt>
      <trkpt lat="49.32692" lon="-0.38144">
        <ele>7.197682</ele>
        <time>2022-08-04T15:10:39.000Z</time>
      </trkpt>
      <trkpt lat="49.32693" lon="-0.38136">
        <ele>7.249115</ele>
        <time>2022-08-04T15:10:40.000Z</time>
      </trkpt>
      <trkpt lat="49.32695" lon="-0.38128">
        <ele>7.299375</ele>
        <time>2022-08-04T15:10:41.000Z</time>
      </trkpt>
      <trkpt lat="49.32696" lon="-0.3812">
        <ele>7.334133</ele>
        <time>2022-08-04T15:10:42.000Z</time>
      </trkpt>
      <trkpt lat="49.32697" lon="-0.38112">
        <ele>7.341187</ele>
        <time>2022-08-04T15:10:43.000Z</time>
      </trkpt>
      <trkpt lat="49.32697" lon="-0.38104">
        <ele>7.348131</ele>
        <time>2022-08-04T15:10:44.000Z</time>
      </trkpt>
      <trkpt lat="49.32696" lon="-0.38097">
        <ele>7.354766</ele>
        <time>2022-08-04T15:10:45.000Z</time>
      </trkpt>
      <trkpt lat="49.32696" lon="-0.3809">
        <ele>7.361271</ele>
        <time>2022-08-04T15:10:46.000Z</time>
      </trkpt>
      <trkpt lat="49.32695" lon="-0.38083">
        <ele>7.367479</ele>
        <time>2022-08-04T15:10:47.000Z</time>
      </trkpt>
      <trkpt lat="49.32695" lon="-0.38077">
        <ele>7.37334</ele>
        <time>2022-08-04T15:10:48.000Z</time>
      </trkpt>
      <trkpt lat="49.32695" lon="-0.3807">
        <ele>7.379036</ele>
        <time>2022-08-04T15:10:49.000Z</time>
      </trkpt>
      <trkpt lat="49.32694" lon="-0.38064">
        <ele>7.384764</ele>
        <time>2022-08-04T15:10:50.000Z</time>
      </trkpt>
      <trkpt lat="49.32693" lon="-0.38058">
        <ele>7.390472</ele>
        <time>2022-08-04T15:10:51.000Z</time>
      </trkpt>
      <trkpt lat="49.32693" lon="-0.38051">
        <ele>7.396243</ele>
        <time>2022-08-04T15:10:52.000Z</time>
      </trkpt>
      <trkpt lat="49.32693" lon="-0.38045">
        <ele>7.402375</ele>
        <time>2022-08-04T15:10:53.000Z</time>
      </trkpt>
      <trkpt lat="49.32693" lon="-0.38037">
        <ele>7.408985</ele>
        <time>2022-08-04T15:10:54.000Z</time>
      </trkpt>
      <trkpt lat="49.32691" lon="-0.3803">
        <ele>7.415983</ele>
        <time>2022-08-04T15:10:55.000Z</time>
      </trkpt>
      <trkpt lat="49.3269" lon="-0.38022">
        <ele>7.423185</ele>
        <time>2022-08-04T15:10:56.000Z</time>
      </trkpt>
      <trkpt lat="49.32688" lon="-0.38015">
        <ele>7.430473</ele>
        <time>2022-08-04T15:10:57.000Z</time>
      </trkpt>
      <trkpt lat="49.32687" lon="-0.38007">
        <ele>7.437907</ele>
        <time>2022-08-04T15:10:58.000Z</time>
      </trkpt>
      <trkpt lat="49.32685" lon="-0.37999">
        <ele>7.445167</ele>
        <time>2022-08-04T15:10:59.000Z</time>
      </trkpt>
      <trkpt lat="49.32685" lon="-0.37991">
        <ele>7.452221</ele>
        <time>2022-08-04T15:11:00.000Z</time>
      </trkpt>
      <trkpt lat="49.32683" lon="-0.37983">
        <ele>7.459767</ele>
        <time>2022-08-04T15:11:01.000Z</time>
      </trkpt>
      <trkpt lat="49.32681" lon="-0.37975">
        <ele>7.467486</ele>
        <time>2022-08-04T15:11:02.000Z</time>
      </trkpt>
      <trkpt lat="49.3268" lon="-0.37967">
        <ele>7.475118</ele>
        <time>2022-08-04T15:11:03.000Z</time>
      </trkpt>
      <trkpt lat="49.32678" lon="-0.37958">
        <ele>7.483009</ele>
        <time>2022-08-04T15:11:04.000Z</time>
      </trkpt>
      <trkpt lat="49.32677" lon="-0.3795">
        <ele>7.490531</ele>
        <time>2022-08-04T15:11:05.000Z</time>
      </trkpt>
      <trkpt lat="49.32675" lon="-0.37942">
        <ele>7.49825</ele>
        <time>2022-08-04T15:11:06.000Z</time>
      </trkpt>
      <trkpt lat="49.32673" lon="-0.37934">
        <ele>7.505928</ele>
        <time>2022-08-04T15:11:07.000Z</time>
      </trkpt>
      <trkpt lat="49.32671" lon="-0.37926">
        <ele>7.513606</ele>
        <time>2022-08-04T15:11:08.000Z</time>
      </trkpt>
      <trkpt lat="49.3267" lon="-0.37918">
        <ele>7.52141</ele>
        <time>2022-08-04T15:11:09.000Z</time>
      </trkpt>
      <trkpt lat="49.32668" lon="-0.37909">
        <ele>7.529302</ele>
        <time>2022-08-04T15:11:10.000Z</time>
      </trkpt>
      <trkpt lat="49.32667" lon="-0.37901">
        <ele>7.537175</ele>
        <time>2022-08-04T15:11:11.000Z</time>
      </trkpt>
      <trkpt lat="49.32665" lon="-0.37893">
        <ele>7.544853</ele>
        <time>2022-08-04T15:11:12.000Z</time>
      </trkpt>
      <trkpt lat="49.32664" lon="-0.37885">
        <ele>7.552287</ele>
        <time>2022-08-04T15:11:13.000Z</time>
      </trkpt>
      <trkpt lat="49.32662" lon="-0.37877">
        <ele>7.560092</ele>
        <time>2022-08-04T15:11:14.000Z</time>
      </trkpt>
      <trkpt lat="49.32661" lon="-0.37868">
        <ele>7.567881</ele>
        <time>2022-08-04T15:11:15.000Z</time>
      </trkpt>
      <trkpt lat="49.3266" lon="-0.3786">
        <ele>7.575468</ele>
        <time>2022-08-04T15:11:16.000Z</time>
      </trkpt>
      <trkpt lat="49.32658" lon="-0.37851">
        <ele>7.574921</ele>
        <time>2022-08-04T15:11:17.000Z</time>
      </trkpt>
      <trkpt lat="49.32656" lon="-0.37843">
        <ele>7.561136</ele>
        <time>2022-08-04T15:11:18.000Z</time>
      </trkpt>
      <trkpt lat="49.32655" lon="-0.37834">
        <ele>7.547579</ele>
        <time>2022-08-04T15:11:19.000Z</time>
      </trkpt>
      <trkpt lat="49.32653" lon="-0.37825">
        <ele>7.533273</ele>
        <time>2022-08-04T15:11:20.000Z</time>
      </trkpt>
      <trkpt lat="49.32652" lon="-0.37816">
        <ele>7.519345</ele>
        <time>2022-08-04T15:11:21.000Z</time>
      </trkpt>
      <trkpt lat="49.3265" lon="-0.37807">
        <ele>7.505474</ele>
        <time>2022-08-04T15:11:22.000Z</time>
      </trkpt>
      <trkpt lat="49.32648" lon="-0.37798">
        <ele>7.491118</ele>
        <time>2022-08-04T15:11:23.000Z</time>
      </trkpt>
      <trkpt lat="49.32647" lon="-0.37788">
        <ele>7.476681</ele>
        <time>2022-08-04T15:11:24.000Z</time>
      </trkpt>
      <trkpt lat="49.32645" lon="-0.37779">
        <ele>7.461939</ele>
        <time>2022-08-04T15:11:25.000Z</time>
      </trkpt>
      <trkpt lat="49.32644" lon="-0.3777">
        <ele>7.447488</ele>
        <time>2022-08-04T15:11:26.000Z</time>
      </trkpt>
      <trkpt lat="49.32642" lon="-0.3776">
        <ele>7.433037</ele>
        <time>2022-08-04T15:11:27.000Z</time>
      </trkpt>
      <trkpt lat="49.3264" lon="-0.37751">
        <ele>7.418251</ele>
        <time>2022-08-04T15:11:28.000Z</time>
      </trkpt>
      <trkpt lat="49.32638" lon="-0.37742">
        <ele>7.403894</ele>
        <time>2022-08-04T15:11:29.000Z</time>
      </trkpt>
      <trkpt lat="49.32636" lon="-0.37733">
        <ele>7.38909</ele>
        <time>2022-08-04T15:11:30.000Z</time>
      </trkpt>
      <trkpt lat="49.32634" lon="-0.37724">
        <ele>7.375074</ele>
        <time>2022-08-04T15:11:31.000Z</time>
      </trkpt>
      <trkpt lat="49.32632" lon="-0.37715">
        <ele>7.361146</ele>
        <time>2022-08-04T15:11:32.000Z</time>
      </trkpt>
      <trkpt lat="49.3263" lon="-0.37706">
        <ele>7.346933</ele>
        <time>2022-08-04T15:11:33.000Z</time>
      </trkpt>
      <trkpt lat="49.32629" lon="-0.37697">
        <ele>7.333523</ele>
        <time>2022-08-04T15:11:34.000Z</time>
      </trkpt>
      <trkpt lat="49.32628" lon="-0.37688">
        <ele>7.319966</ele>
        <time>2022-08-04T15:11:35.000Z</time>
      </trkpt>
      <trkpt lat="49.32626" lon="-0.3768">
        <ele>7.306385</ele>
        <time>2022-08-04T15:11:36.000Z</time>
      </trkpt>
      <trkpt lat="49.32624" lon="-0.37671">
        <ele>7.293168</ele>
        <time>2022-08-04T15:11:37.000Z</time>
      </trkpt>
      <trkpt lat="49.32623" lon="-0.37663">
        <ele>7.28005</ele>
        <time>2022-08-04T15:11:38.000Z</time>
      </trkpt>
      <trkpt lat="49.32621" lon="-0.37654">
        <ele>7.266902</ele>
        <time>2022-08-04T15:11:39.000Z</time>
      </trkpt>
      <trkpt lat="49.3262" lon="-0.37646">
        <ele>7.254129</ele>
        <time>2022-08-04T15:11:40.000Z</time>
      </trkpt>
      <trkpt lat="49.32619" lon="-0.37638">
        <ele>7.24189</ele>
        <time>2022-08-04T15:11:41.000Z</time>
      </trkpt>
      <trkpt lat="49.32618" lon="-0.37631">
        <ele>7.230319</ele>
        <time>2022-08-04T15:11:42.000Z</time>
      </trkpt>
      <trkpt lat="49.32616" lon="-0.37624">
        <ele>7.219598</ele>
        <time>2022-08-04T15:11:43.000Z</time>
      </trkpt>
      <trkpt lat="49.32614" lon="-0.37618">
        <ele>7.20958</ele>
        <time>2022-08-04T15:11:44.000Z</time>
      </trkpt>
      <trkpt lat="49.32613" lon="-0.37612">
        <ele>7.199838</ele>
        <time>2022-08-04T15:11:45.000Z</time>
      </trkpt>
      <trkpt lat="49.32613" lon="-0.37605">
        <ele>7.189748</ele>
        <time>2022-08-04T15:11:46.000Z</time>
      </trkpt>
      <trkpt lat="49.32613" lon="-0.37598">
        <ele>7.179807</ele>
        <time>2022-08-04T15:11:47.000Z</time>
      </trkpt>
      <trkpt lat="49.32613" lon="-0.37591">
        <ele>7.169268</ele>
        <time>2022-08-04T15:11:48.000Z</time>
      </trkpt>
      <trkpt lat="49.32613" lon="-0.37584">
        <ele>7.133647</ele>
        <time>2022-08-04T15:11:49.000Z</time>
      </trkpt>
      <trkpt lat="49.32612" lon="-0.37577">
        <ele>7.083016</ele>
        <time>2022-08-04T15:11:50.000Z</time>
      </trkpt>
      <trkpt lat="49.32612" lon="-0.3757">
        <ele>7.032423</ele>
        <time>2022-08-04T15:11:51.000Z</time>
      </trkpt>
      <trkpt lat="49.32612" lon="-0.37563">
        <ele>6.982698</ele>
        <time>2022-08-04T15:11:52.000Z</time>
      </trkpt>
      <trkpt lat="49.32612" lon="-0.37556">
        <ele>6.934355</ele>
        <time>2022-08-04T15:11:53.000Z</time>
      </trkpt>
      <trkpt lat="49.32612" lon="-0.37549">
        <ele>6.890846</ele>
        <time>2022-08-04T15:11:54.000Z</time>
      </trkpt>
      <trkpt lat="49.32611" lon="-0.37543">
        <ele>6.846191</ele>
        <time>2022-08-04T15:11:55.000Z</time>
      </trkpt>
      <trkpt lat="49.32611" lon="-0.37536">
        <ele>6.799229</ele>
        <time>2022-08-04T15:11:56.000Z</time>
      </trkpt>
      <trkpt lat="49.32611" lon="-0.37529">
        <ele>6.752523</ele>
        <time>2022-08-04T15:11:57.000Z</time>
      </trkpt>
      <trkpt lat="49.3261" lon="-0.37522">
        <ele>6.703306</ele>
        <time>2022-08-04T15:11:58.000Z</time>
      </trkpt>
      <trkpt lat="49.3261" lon="-0.37515">
        <ele>6.650129</ele>
        <time>2022-08-04T15:11:59.000Z</time>
      </trkpt>
      <trkpt lat="49.3261" lon="-0.37507">
        <ele>6.596167</ele>
        <time>2022-08-04T15:12:00.000Z</time>
      </trkpt>
      <trkpt lat="49.3261" lon="-0.37499">
        <ele>6.541515</ele>
        <time>2022-08-04T15:12:01.000Z</time>
      </trkpt>
      <trkpt lat="49.32609" lon="-0.37491">
        <ele>6.48458</ele>
        <time>2022-08-04T15:12:02.000Z</time>
      </trkpt>
      <trkpt lat="49.32608" lon="-0.37483">
        <ele>6.428966</ele>
        <time>2022-08-04T15:12:03.000Z</time>
      </trkpt>
      <trkpt lat="49.32607" lon="-0.37475">
        <ele>6.373388</ele>
        <time>2022-08-04T15:12:04.000Z</time>
      </trkpt>
      <trkpt lat="49.32606" lon="-0.37467">
        <ele>6.31664</ele>
        <time>2022-08-04T15:12:05.000Z</time>
      </trkpt>
      <trkpt lat="49.32605" lon="-0.37459">
        <ele>6.262948</ele>
        <time>2022-08-04T15:12:06.000Z</time>
      </trkpt>
      <trkpt lat="49.32604" lon="-0.37452">
        <ele>6.210954</ele>
        <time>2022-08-04T15:12:07.000Z</time>
      </trkpt>
      <trkpt lat="49.32604" lon="-0.37445">
        <ele>6.164488</ele>
        <time>2022-08-04T15:12:08.000Z</time>
      </trkpt>
      <trkpt lat="49.32603" lon="-0.37439">
        <ele>6.120517</ele>
        <time>2022-08-04T15:12:09.000Z</time>
      </trkpt>
      <trkpt lat="49.32603" lon="-0.37433">
        <ele>6.078595</ele>
        <time>2022-08-04T15:12:10.000Z</time>
      </trkpt>
      <trkpt lat="49.32602" lon="-0.37427">
        <ele>6.036499</ele>
        <time>2022-08-04T15:12:11.000Z</time>
      </trkpt>
      <trkpt lat="49.32601" lon="-0.3742">
        <ele>5.990203</ele>
        <time>2022-08-04T15:12:12.000Z</time>
      </trkpt>
      <trkpt lat="49.326" lon="-0.37415">
        <ele>5.949027</ele>
        <time>2022-08-04T15:12:13.000Z</time>
      </trkpt>
      <trkpt lat="49.32598" lon="-0.37409">
        <ele>5.907431</ele>
        <time>2022-08-04T15:12:14.000Z</time>
      </trkpt>
      <trkpt lat="49.32597" lon="-0.37404">
        <ele>5.872629</ele>
        <time>2022-08-04T15:12:15.000Z</time>
      </trkpt>
      <trkpt lat="49.32596" lon="-0.374">
        <ele>5.844056</ele>
        <time>2022-08-04T15:12:16.000Z</time>
      </trkpt>
      <trkpt lat="49.32597" lon="-0.37396">
        <ele>5.811548</ele>
        <time>2022-08-04T15:12:18.000Z</time>
      </trkpt>
      <trkpt lat="49.32598" lon="-0.37392">
        <ele>5.785603</ele>
        <time>2022-08-04T15:12:20.000Z</time>
      </trkpt>
      <trkpt lat="49.32598" lon="-0.37389">
        <ele>5.765324</ele>
        <time>2022-08-04T15:12:21.000Z</time>
      </trkpt>
      <trkpt lat="49.32598" lon="-0.37386">
        <ele>5.744605</ele>
        <time>2022-08-04T15:12:22.000Z</time>
      </trkpt>
      <trkpt lat="49.32598" lon="-0.37383">
        <ele>5.721594</ele>
        <time>2022-08-04T15:12:23.000Z</time>
      </trkpt>
      <trkpt lat="49.32596" lon="-0.3738">
        <ele>5.69374</ele>
        <time>2022-08-04T15:12:24.000Z</time>
      </trkpt>
      <trkpt lat="49.32595" lon="-0.37377">
        <ele>5.666969</ele>
        <time>2022-08-04T15:12:25.000Z</time>
      </trkpt>
      <trkpt lat="49.32593" lon="-0.37374">
        <ele>5.641511</ele>
        <time>2022-08-04T15:12:26.000Z</time>
      </trkpt>
      <trkpt lat="49.32592" lon="-0.3737">
        <ele>5.611258</ele>
        <time>2022-08-04T15:12:27.000Z</time>
      </trkpt>
      <trkpt lat="49.3259" lon="-0.37365">
        <ele>5.57279</ele>
        <time>2022-08-04T15:12:28.000Z</time>
      </trkpt>
      <trkpt lat="49.3259" lon="-0.3736">
        <ele>5.535639</ele>
        <time>2022-08-04T15:12:29.000Z</time>
      </trkpt>
      <trkpt lat="49.32589" lon="-0.37354">
        <ele>5.495359</ele>
        <time>2022-08-04T15:12:30.000Z</time>
      </trkpt>
      <trkpt lat="49.3259" lon="-0.37348">
        <ele>5.454392</ele>
        <time>2022-08-04T15:12:31.000Z</time>
      </trkpt>
      <trkpt lat="49.32592" lon="-0.37343">
        <ele>5.412618</ele>
        <time>2022-08-04T15:12:32.000Z</time>
      </trkpt>
      <trkpt lat="49.32595" lon="-0.37338">
        <ele>5.36792</ele>
        <time>2022-08-04T15:12:33.000Z</time>
      </trkpt>
      <trkpt lat="49.32598" lon="-0.37334">
        <ele>5.319089</ele>
        <time>2022-08-04T15:12:34.000Z</time>
      </trkpt>
      <trkpt lat="49.32603" lon="-0.37331">
        <ele>5.269088</ele>
        <time>2022-08-04T15:12:35.000Z</time>
      </trkpt>
      <trkpt lat="49.32607" lon="-0.37327">
        <ele>5.222879</ele>
        <time>2022-08-04T15:12:36.000Z</time>
      </trkpt>
      <trkpt lat="49.32612" lon="-0.37324">
        <ele>5.178659</ele>
        <time>2022-08-04T15:12:37.000Z</time>
      </trkpt>
      <trkpt lat="49.32617" lon="-0.3732">
        <ele>5.132172</ele>
        <time>2022-08-04T15:12:38.000Z</time>
      </trkpt>
      <trkpt lat="49.32622" lon="-0.37317">
        <ele>5.088625</ele>
        <time>2022-08-04T15:12:39.000Z</time>
      </trkpt>
      <trkpt lat="49.32627" lon="-0.37314">
        <ele>5.04257</ele>
        <time>2022-08-04T15:12:40.000Z</time>
      </trkpt>
      <trkpt lat="49.32631" lon="-0.3731">
        <ele>5.002273</ele>
        <time>2022-08-04T15:12:41.000Z</time>
      </trkpt>
      <trkpt lat="49.32636" lon="-0.37307">
        <ele>4.96424</ele>
        <time>2022-08-04T15:12:42.000Z</time>
      </trkpt>
      <trkpt lat="49.3264" lon="-0.37304">
        <ele>4.924418</ele>
        <time>2022-08-04T15:12:43.000Z</time>
      </trkpt>
      <trkpt lat="49.32645" lon="-0.37302">
        <ele>4.879528</ele>
        <time>2022-08-04T15:12:44.000Z</time>
      </trkpt>
      <trkpt lat="49.3265" lon="-0.37299">
        <ele>4.839123</ele>
        <time>2022-08-04T15:12:45.000Z</time>
      </trkpt>
      <trkpt lat="49.32653" lon="-0.37296">
        <ele>4.803055</ele>
        <time>2022-08-04T15:12:46.000Z</time>
      </trkpt>
      <trkpt lat="49.32657" lon="-0.37291">
        <ele>4.763408</ele>
        <time>2022-08-04T15:12:47.000Z</time>
      </trkpt>
      <trkpt lat="49.3266" lon="-0.37287">
        <ele>4.727914</ele>
        <time>2022-08-04T15:12:48.000Z</time>
      </trkpt>
      <trkpt lat="49.32661" lon="-0.37281">
        <ele>4.697673</ele>
        <time>2022-08-04T15:12:49.000Z</time>
      </trkpt>
      <trkpt lat="49.32661" lon="-0.37275">
        <ele>4.66405</ele>
        <time>2022-08-04T15:12:50.000Z</time>
      </trkpt>
      <trkpt lat="49.32659" lon="-0.37267">
        <ele>4.621254</ele>
        <time>2022-08-04T15:12:51.000Z</time>
      </trkpt>
      <trkpt lat="49.32658" lon="-0.37261">
        <ele>4.582824</ele>
        <time>2022-08-04T15:12:52.000Z</time>
      </trkpt>
      <trkpt lat="49.32656" lon="-0.37254">
        <ele>4.541654</ele>
        <time>2022-08-04T15:12:53.000Z</time>
      </trkpt>
      <trkpt lat="49.32653" lon="-0.37247">
        <ele>4.499142</ele>
        <time>2022-08-04T15:12:54.000Z</time>
      </trkpt>
      <trkpt lat="49.32652" lon="-0.37239">
        <ele>4.454492</ele>
        <time>2022-08-04T15:12:55.000Z</time>
      </trkpt>
      <trkpt lat="49.32649" lon="-0.37232">
        <ele>4.411369</ele>
        <time>2022-08-04T15:12:56.000Z</time>
      </trkpt>
      <trkpt lat="49.32647" lon="-0.37225">
        <ele>4.367398</ele>
        <time>2022-08-04T15:12:57.000Z</time>
      </trkpt>
      <trkpt lat="49.32645" lon="-0.37217">
        <ele>4.32477</ele>
        <time>2022-08-04T15:12:58.000Z</time>
      </trkpt>
      <trkpt lat="49.32643" lon="-0.3721">
        <ele>4.281132</ele>
        <time>2022-08-04T15:12:59.000Z</time>
      </trkpt>
      <trkpt lat="49.32641" lon="-0.37202">
        <ele>4.237024</ele>
        <time>2022-08-04T15:13:00.000Z</time>
      </trkpt>
      <trkpt lat="49.32638" lon="-0.37195">
        <ele>4.193331</ele>
        <time>2022-08-04T15:13:01.000Z</time>
      </trkpt>
      <trkpt lat="49.32636" lon="-0.37188">
        <ele>4.148729</ele>
        <time>2022-08-04T15:13:02.000Z</time>
      </trkpt>
      <trkpt lat="49.32634" lon="-0.37181">
        <ele>4.106783</ele>
        <time>2022-08-04T15:13:03.000Z</time>
      </trkpt>
      <trkpt lat="49.32632" lon="-0.37173">
        <ele>4.0611</ele>
        <time>2022-08-04T15:13:04.000Z</time>
      </trkpt>
      <trkpt lat="49.32629" lon="-0.37166">
        <ele>4.01664</ele>
        <time>2022-08-04T15:13:05.000Z</time>
      </trkpt>
      <trkpt lat="49.32628" lon="-0.3716">
        <ele>3.983977</ele>
        <time>2022-08-04T15:13:06.000Z</time>
      </trkpt>
      <trkpt lat="49.32626" lon="-0.37153">
        <ele>3.942855</ele>
        <time>2022-08-04T15:13:07.000Z</time>
      </trkpt>
      <trkpt lat="49.32624" lon="-0.37147">
        <ele>3.901685</ele>
        <time>2022-08-04T15:13:08.000Z</time>
      </trkpt>
      <trkpt lat="49.32622" lon="-0.3714">
        <ele>3.862988</ele>
        <time>2022-08-04T15:13:09.000Z</time>
      </trkpt>
      <trkpt lat="49.32621" lon="-0.37133">
        <ele>3.821221</ele>
        <time>2022-08-04T15:13:10.000Z</time>
      </trkpt>
      <trkpt lat="49.3262" lon="-0.37127">
        <ele>3.790256</ele>
        <time>2022-08-04T15:13:11.000Z</time>
      </trkpt>
      <trkpt lat="49.32618" lon="-0.37122">
        <ele>3.768732</ele>
        <time>2022-08-04T15:13:12.000Z</time>
      </trkpt>
      <trkpt lat="49.32616" lon="-0.37118">
        <ele>3.795634</ele>
        <time>2022-08-04T15:13:13.000Z</time>
      </trkpt>
      <trkpt lat="49.32614" lon="-0.37112">
        <ele>3.835376</ele>
        <time>2022-08-04T15:13:14.000Z</time>
      </trkpt>
      <trkpt lat="49.32612" lon="-0.37106">
        <ele>3.869284</ele>
        <time>2022-08-04T15:13:15.000Z</time>
      </trkpt>
      <trkpt lat="49.32611" lon="-0.37101">
        <ele>3.902166</ele>
        <time>2022-08-04T15:13:16.000Z</time>
      </trkpt>
      <trkpt lat="49.3261" lon="-0.37096">
        <ele>3.928399</ele>
        <time>2022-08-04T15:13:17.000Z</time>
      </trkpt>
      <trkpt lat="49.32608" lon="-0.3709">
        <ele>3.968042</ele>
        <time>2022-08-04T15:13:18.000Z</time>
      </trkpt>
      <trkpt lat="49.32607" lon="-0.37084">
        <ele>3.999646</ele>
        <time>2022-08-04T15:13:19.000Z</time>
      </trkpt>
      <trkpt lat="49.32605" lon="-0.3708">
        <ele>4.027521</ele>
        <time>2022-08-04T15:13:20.000Z</time>
      </trkpt>
      <trkpt lat="49.32604" lon="-0.37078">
        <ele>4.047246</ele>
        <time>2022-08-04T15:13:21.000Z</time>
      </trkpt>
      <trkpt lat="49.32602" lon="-0.37074">
        <ele>4.072889</ele>
        <time>2022-08-04T15:13:22.000Z</time>
      </trkpt>
      <trkpt lat="49.32601" lon="-0.37072">
        <ele>4.090894</ele>
        <time>2022-08-04T15:13:23.000Z</time>
      </trkpt>
      <trkpt lat="49.326" lon="-0.37069">
        <ele>4.106869</ele>
        <time>2022-08-04T15:13:24.000Z</time>
      </trkpt>
      <trkpt lat="49.326" lon="-0.37061">
        <ele>4.148529</ele>
        <time>2022-08-04T15:13:26.000Z</time>
      </trkpt>
      <trkpt lat="49.326" lon="-0.37057">
        <ele>4.175675</ele>
        <time>2022-08-04T15:13:27.000Z</time>
      </trkpt>
      <trkpt lat="49.32598" lon="-0.37053">
        <ele>4.202096</ele>
        <time>2022-08-04T15:13:28.000Z</time>
      </trkpt>
      <trkpt lat="49.32597" lon="-0.37049">
        <ele>4.228615</ele>
        <time>2022-08-04T15:13:29.000Z</time>
      </trkpt>
      <trkpt lat="49.32594" lon="-0.37046">
        <ele>4.257057</ele>
        <time>2022-08-04T15:13:30.000Z</time>
      </trkpt>
      <trkpt lat="49.32592" lon="-0.37043">
        <ele>4.283242</ele>
        <time>2022-08-04T15:13:31.000Z</time>
      </trkpt>
      <trkpt lat="49.3259" lon="-0.37039">
        <ele>4.308405</ele>
        <time>2022-08-04T15:13:32.000Z</time>
      </trkpt>
      <trkpt lat="49.32589" lon="-0.37035">
        <ele>4.331476</ele>
        <time>2022-08-04T15:13:33.000Z</time>
      </trkpt>
      <trkpt lat="49.32588" lon="-0.37031">
        <ele>4.355085</ele>
        <time>2022-08-04T15:13:34.000Z</time>
      </trkpt>
      <trkpt lat="49.32587" lon="-0.37028">
        <ele>4.374372</ele>
        <time>2022-08-04T15:13:35.000Z</time>
      </trkpt>
      <trkpt lat="49.32586" lon="-0.37025">
        <ele>4.39608</ele>
        <time>2022-08-04T15:13:36.000Z</time>
      </trkpt>
      <trkpt lat="49.32585" lon="-0.37021">
        <ele>4.416454</ele>
        <time>2022-08-04T15:13:37.000Z</time>
      </trkpt>
      <trkpt lat="49.32584" lon="-0.37017">
        <ele>4.441115</ele>
        <time>2022-08-04T15:13:38.000Z</time>
      </trkpt>
      <trkpt lat="49.32584" lon="-0.37014">
        <ele>4.462664</ele>
        <time>2022-08-04T15:13:39.000Z</time>
      </trkpt>
      <trkpt lat="49.32583" lon="-0.37009">
        <ele>4.48645</ele>
        <time>2022-08-04T15:13:40.000Z</time>
      </trkpt>
      <trkpt lat="49.32582" lon="-0.37005">
        <ele>4.510569</ele>
        <time>2022-08-04T15:13:41.000Z</time>
      </trkpt>
      <trkpt lat="49.32582" lon="-0.37002">
        <ele>4.528774</ele>
        <time>2022-08-04T15:13:42.000Z</time>
      </trkpt>
      <trkpt lat="49.32581" lon="-0.37">
        <ele>4.546779</ele>
        <time>2022-08-04T15:13:43.000Z</time>
      </trkpt>
      <trkpt lat="49.3258" lon="-0.36995">
        <ele>4.571685</ele>
        <time>2022-08-04T15:13:45.000Z</time>
      </trkpt>
      <trkpt lat="49.32579" lon="-0.36991">
        <ele>4.602036</ele>
        <time>2022-08-04T15:13:47.000Z</time>
      </trkpt>
      <trkpt lat="49.32578" lon="-0.36988">
        <ele>4.618395</ele>
        <time>2022-08-04T15:13:48.000Z</time>
      </trkpt>
      <trkpt lat="49.32577" lon="-0.36984">
        <ele>4.641074</ele>
        <time>2022-08-04T15:13:49.000Z</time>
      </trkpt>
      <trkpt lat="49.32575" lon="-0.36981">
        <ele>4.663338</ele>
        <time>2022-08-04T15:13:50.000Z</time>
      </trkpt>
      <trkpt lat="49.32574" lon="-0.36978">
        <ele>4.683826</ele>
        <time>2022-08-04T15:13:51.000Z</time>
      </trkpt>
      <trkpt lat="49.32573" lon="-0.36974">
        <ele>4.709295</ele>
        <time>2022-08-04T15:13:52.000Z</time>
      </trkpt>
      <trkpt lat="49.32572" lon="-0.3697">
        <ele>4.732959</ele>
        <time>2022-08-04T15:13:53.000Z</time>
      </trkpt>
      <trkpt lat="49.3257" lon="-0.36966">
        <ele>4.75938</ele>
        <time>2022-08-04T15:13:54.000Z</time>
      </trkpt>
      <trkpt lat="49.32569" lon="-0.36962">
        <ele>4.784543</ele>
        <time>2022-08-04T15:13:55.000Z</time>
      </trkpt>
      <trkpt lat="49.32567" lon="-0.36958">
        <ele>4.81379</ele>
        <time>2022-08-04T15:13:56.000Z</time>
      </trkpt>
      <trkpt lat="49.32566" lon="-0.36953">
        <ele>4.84029</ele>
        <time>2022-08-04T15:13:57.000Z</time>
      </trkpt>
      <trkpt lat="49.32565" lon="-0.36948">
        <ele>4.870595</ele>
        <time>2022-08-04T15:13:58.000Z</time>
      </trkpt>
      <trkpt lat="49.32564" lon="-0.36943">
        <ele>4.901591</ele>
        <time>2022-08-04T15:13:59.000Z</time>
      </trkpt>
      <trkpt lat="49.32563" lon="-0.36938">
        <ele>4.931588</ele>
        <time>2022-08-04T15:14:00.000Z</time>
      </trkpt>
      <trkpt lat="49.32561" lon="-0.36933">
        <ele>4.963452</ele>
        <time>2022-08-04T15:14:01.000Z</time>
      </trkpt>
      <trkpt lat="49.3256" lon="-0.36928">
        <ele>4.992359</ele>
        <time>2022-08-04T15:14:02.000Z</time>
      </trkpt>
      <trkpt lat="49.32559" lon="-0.36923">
        <ele>5.023188</ele>
        <time>2022-08-04T15:14:03.000Z</time>
      </trkpt>
      <trkpt lat="49.32557" lon="-0.36918">
        <ele>5.054542</ele>
        <time>2022-08-04T15:14:04.000Z</time>
      </trkpt>
      <trkpt lat="49.32556" lon="-0.36913">
        <ele>5.085901</ele>
        <time>2022-08-04T15:14:05.000Z</time>
      </trkpt>
      <trkpt lat="49.32554" lon="-0.36908">
        <ele>5.118484</ele>
        <time>2022-08-04T15:14:06.000Z</time>
      </trkpt>
      <trkpt lat="49.32553" lon="-0.36902">
        <ele>5.150365</ele>
        <time>2022-08-04T15:14:07.000Z</time>
      </trkpt>
      <trkpt lat="49.32552" lon="-0.36897">
        <ele>5.181204</ele>
        <time>2022-08-04T15:14:08.000Z</time>
      </trkpt>
      <trkpt lat="49.3255" lon="-0.36891">
        <ele>5.215112</ele>
        <time>2022-08-04T15:14:09.000Z</time>
      </trkpt>
      <trkpt lat="49.32549" lon="-0.36886">
        <ele>5.247995</ele>
        <time>2022-08-04T15:14:10.000Z</time>
      </trkpt>
      <trkpt lat="49.32548" lon="-0.36881">
        <ele>5.277258</ele>
        <time>2022-08-04T15:14:11.000Z</time>
      </trkpt>
      <trkpt lat="49.32547" lon="-0.36877">
        <ele>5.302148</ele>
        <time>2022-08-04T15:14:12.000Z</time>
      </trkpt>
      <trkpt lat="49.32546" lon="-0.36874">
        <ele>5.324146</ele>
        <time>2022-08-04T15:14:13.000Z</time>
      </trkpt>
      <trkpt lat="49.32545" lon="-0.36869">
        <ele>5.375549</ele>
        <time>2022-08-04T15:14:15.000Z</time>
      </trkpt>
      <trkpt lat="49.32543" lon="-0.36864">
        <ele>5.431323</ele>
        <time>2022-08-04T15:14:17.000Z</time>
      </trkpt>
      <trkpt lat="49.32542" lon="-0.36861">
        <ele>5.461288</ele>
        <time>2022-08-04T15:14:18.000Z</time>
      </trkpt>
      <trkpt lat="49.32542" lon="-0.36857">
        <ele>5.493104</ele>
        <time>2022-08-04T15:14:19.000Z</time>
      </trkpt>
      <trkpt lat="49.32541" lon="-0.36854">
        <ele>5.526991</ele>
        <time>2022-08-04T15:14:20.000Z</time>
      </trkpt>
      <trkpt lat="49.32541" lon="-0.36851">
        <ele>5.558787</ele>
        <time>2022-08-04T15:14:21.000Z</time>
      </trkpt>
      <trkpt lat="49.32539" lon="-0.36848">
        <ele>5.596546</ele>
        <time>2022-08-04T15:14:22.000Z</time>
      </trkpt>
      <trkpt lat="49.32538" lon="-0.36844">
        <ele>5.633037</ele>
        <time>2022-08-04T15:14:23.000Z</time>
      </trkpt>
      <trkpt lat="49.32536" lon="-0.36841">
        <ele>5.675437</ele>
        <time>2022-08-04T15:14:24.000Z</time>
      </trkpt>
      <trkpt lat="49.32535" lon="-0.36837">
        <ele>5.715575</ele>
        <time>2022-08-04T15:14:25.000Z</time>
      </trkpt>
      <trkpt lat="49.32534" lon="-0.36833">
        <ele>5.752393</ele>
        <time>2022-08-04T15:14:26.000Z</time>
      </trkpt>
      <trkpt lat="49.32533" lon="-0.36829">
        <ele>5.796791</ele>
        <time>2022-08-04T15:14:27.000Z</time>
      </trkpt>
      <trkpt lat="49.32533" lon="-0.36826">
        <ele>5.828607</ele>
        <time>2022-08-04T15:14:28.000Z</time>
      </trkpt>
      <trkpt lat="49.32532" lon="-0.36823">
        <ele>5.856354</ele>
        <time>2022-08-04T15:14:29.000Z</time>
      </trkpt>
      <trkpt lat="49.3253" lon="-0.36819">
        <ele>5.901333</ele>
        <time>2022-08-04T15:14:31.000Z</time>
      </trkpt>
      <trkpt lat="49.32529" lon="-0.36816">
        <ele>5.936533</ele>
        <time>2022-08-04T15:14:34.000Z</time>
      </trkpt>
      <trkpt lat="49.32529" lon="-0.36813">
        <ele>5.967089</ele>
        <time>2022-08-04T15:14:38.000Z</time>
      </trkpt>
      <trkpt lat="49.32527" lon="-0.3681">
        <ele>6.005601</ele>
        <time>2022-08-04T15:14:40.000Z</time>
      </trkpt>
      <trkpt lat="49.32526" lon="-0.36807">
        <ele>6.038007</ele>
        <time>2022-08-04T15:14:41.000Z</time>
      </trkpt>
      <trkpt lat="49.32525" lon="-0.36804">
        <ele>6.070789</ele>
        <time>2022-08-04T15:14:42.000Z</time>
      </trkpt>
      <trkpt lat="49.32521" lon="-0.36802">
        <ele>6.12178</ele>
        <time>2022-08-04T15:14:43.000Z</time>
      </trkpt>
      <trkpt lat="49.32518" lon="-0.36802">
        <ele>6.173492</ele>
        <time>2022-08-04T15:14:44.000Z</time>
      </trkpt>
      <trkpt lat="49.32514" lon="-0.36802">
        <ele>6.230829</ele>
        <time>2022-08-04T15:14:45.000Z</time>
      </trkpt>
      <trkpt lat="49.3251" lon="-0.36804">
        <ele>6.28407</ele>
        <time>2022-08-04T15:14:46.000Z</time>
      </trkpt>
      <trkpt lat="49.32507" lon="-0.36805">
        <ele>6.342336</ele>
        <time>2022-08-04T15:14:47.000Z</time>
      </trkpt>
      <trkpt lat="49.32503" lon="-0.36808">
        <ele>6.399109</ele>
        <time>2022-08-04T15:14:48.000Z</time>
      </trkpt>
      <trkpt lat="49.32499" lon="-0.3681">
        <ele>6.458614</ele>
        <time>2022-08-04T15:14:49.000Z</time>
      </trkpt>
      <trkpt lat="49.32497" lon="-0.36812">
        <ele>6.502584</ele>
        <time>2022-08-04T15:14:50.000Z</time>
      </trkpt>
      <trkpt lat="49.32494" lon="-0.36814">
        <ele>6.541587</ele>
        <time>2022-08-04T15:14:51.000Z</time>
      </trkpt>
      <trkpt lat="49.32492" lon="-0.36816">
        <ele>6.583779</ele>
        <time>2022-08-04T15:14:52.000Z</time>
      </trkpt>
      <trkpt lat="49.3249" lon="-0.36818">
        <ele>6.614258</ele>
        <time>2022-08-04T15:14:53.000Z</time>
      </trkpt>
      <trkpt lat="49.32487" lon="-0.36818">
        <ele>6.657268</ele>
        <time>2022-08-04T15:14:54.000Z</time>
      </trkpt>
      <trkpt lat="49.32485" lon="-0.36819">
        <ele>6.694683</ele>
        <time>2022-08-04T15:14:55.000Z</time>
      </trkpt>
      <trkpt lat="49.32481" lon="-0.3682">
        <ele>6.746843</ele>
        <time>2022-08-04T15:14:56.000Z</time>
      </trkpt>
      <trkpt lat="49.32477" lon="-0.36821">
        <ele>6.801027</ele>
        <time>2022-08-04T15:14:57.000Z</time>
      </trkpt>
      <trkpt lat="49.32474" lon="-0.36823">
        <ele>6.859884</ele>
        <time>2022-08-04T15:14:58.000Z</time>
      </trkpt>
      <trkpt lat="49.32469" lon="-0.36826">
        <ele>6.924905</ele>
        <time>2022-08-04T15:14:59.000Z</time>
      </trkpt>
      <trkpt lat="49.32465" lon="-0.36827">
        <ele>6.987128</ele>
        <time>2022-08-04T15:15:00.000Z</time>
      </trkpt>
      <trkpt lat="49.32461" lon="-0.36829">
        <ele>7.055768</ele>
        <time>2022-08-04T15:15:01.000Z</time>
      </trkpt>
      <trkpt lat="49.32456" lon="-0.36831">
        <ele>7.132889</ele>
        <time>2022-08-04T15:15:02.000Z</time>
      </trkpt>
      <trkpt lat="49.32451" lon="-0.36834">
        <ele>7.206563</ele>
        <time>2022-08-04T15:15:03.000Z</time>
      </trkpt>
      <trkpt lat="49.32446" lon="-0.36836">
        <ele>7.284443</ele>
        <time>2022-08-04T15:15:04.000Z</time>
      </trkpt>
      <trkpt lat="49.32441" lon="-0.36838">
        <ele>7.354241</ele>
        <time>2022-08-04T15:15:05.000Z</time>
      </trkpt>
      <trkpt lat="49.32437" lon="-0.3684">
        <ele>7.426635</ele>
        <time>2022-08-04T15:15:06.000Z</time>
      </trkpt>
      <trkpt lat="49.32432" lon="-0.36842">
        <ele>7.499506</ele>
        <time>2022-08-04T15:15:07.000Z</time>
      </trkpt>
      <trkpt lat="49.32427" lon="-0.36845">
        <ele>7.570297</ele>
        <time>2022-08-04T15:15:08.000Z</time>
      </trkpt>
      <trkpt lat="49.32422" lon="-0.36848">
        <ele>7.645532</ele>
        <time>2022-08-04T15:15:09.000Z</time>
      </trkpt>
      <trkpt lat="49.32417" lon="-0.36851">
        <ele>7.725555</ele>
        <time>2022-08-04T15:15:10.000Z</time>
      </trkpt>
      <trkpt lat="49.32413" lon="-0.36854">
        <ele>7.798221</ele>
        <time>2022-08-04T15:15:11.000Z</time>
      </trkpt>
      <trkpt lat="49.32408" lon="-0.36857">
        <ele>7.875282</ele>
        <time>2022-08-04T15:15:12.000Z</time>
      </trkpt>
      <trkpt lat="49.32404" lon="-0.3686">
        <ele>7.944415</ele>
        <time>2022-08-04T15:15:13.000Z</time>
      </trkpt>
      <trkpt lat="49.32399" lon="-0.36864">
        <ele>7.970404</ele>
        <time>2022-08-04T15:15:14.000Z</time>
      </trkpt>
      <trkpt lat="49.32395" lon="-0.36867">
        <ele>7.98928</ele>
        <time>2022-08-04T15:15:15.000Z</time>
      </trkpt>
      <trkpt lat="49.32391" lon="-0.36869">
        <ele>8.007954</ele>
        <time>2022-08-04T15:15:16.000Z</time>
      </trkpt>
      <trkpt lat="49.32387" lon="-0.36871">
        <ele>8.02605</ele>
        <time>2022-08-04T15:15:17.000Z</time>
      </trkpt>
      <trkpt lat="49.32383" lon="-0.36874">
        <ele>8.044446</ele>
        <time>2022-08-04T15:15:18.000Z</time>
      </trkpt>
      <trkpt lat="49.32379" lon="-0.36875">
        <ele>8.059748</ele>
        <time>2022-08-04T15:15:19.000Z</time>
      </trkpt>
      <trkpt lat="49.32375" lon="-0.36878">
        <ele>8.080086</ele>
        <time>2022-08-04T15:15:20.000Z</time>
      </trkpt>
      <trkpt lat="49.32371" lon="-0.36881">
        <ele>8.096089</ele>
        <time>2022-08-04T15:15:21.000Z</time>
      </trkpt>
      <trkpt lat="49.32368" lon="-0.36883">
        <ele>8.111571</ele>
        <time>2022-08-04T15:15:22.000Z</time>
      </trkpt>
      <trkpt lat="49.32365" lon="-0.36885">
        <ele>8.123509</ele>
        <time>2022-08-04T15:15:23.000Z</time>
      </trkpt>
      <trkpt lat="49.32362" lon="-0.36886">
        <ele>8.136283</ele>
        <time>2022-08-04T15:15:24.000Z</time>
      </trkpt>
      <trkpt lat="49.3236" lon="-0.36886">
        <ele>8.145502</ele>
        <time>2022-08-04T15:15:25.000Z</time>
      </trkpt>
      <trkpt lat="49.32357" lon="-0.36883">
        <ele>8.158367</ele>
        <time>2022-08-04T15:15:26.000Z</time>
      </trkpt>
      <trkpt lat="49.32356" lon="-0.36879">
        <ele>8.172853</ele>
        <time>2022-08-04T15:15:27.000Z</time>
      </trkpt>
      <trkpt lat="49.32354" lon="-0.36874">
        <ele>8.188389</ele>
        <time>2022-08-04T15:15:28.000Z</time>
      </trkpt>
      <trkpt lat="49.32353" lon="-0.36867">
        <ele>8.206871</ele>
        <time>2022-08-04T15:15:29.000Z</time>
      </trkpt>
      <trkpt lat="49.32352" lon="-0.3686">
        <ele>8.227317</ele>
        <time>2022-08-04T15:15:30.000Z</time>
      </trkpt>
      <trkpt lat="49.3235" lon="-0.36852">
        <ele>8.249152</ele>
        <time>2022-08-04T15:15:31.000Z</time>
      </trkpt>
      <trkpt lat="49.32349" lon="-0.36844">
        <ele>8.272537</ele>
        <time>2022-08-04T15:15:32.000Z</time>
      </trkpt>
      <trkpt lat="49.32347" lon="-0.36835">
        <ele>8.296916</ele>
        <time>2022-08-04T15:15:33.000Z</time>
      </trkpt>
      <trkpt lat="49.32346" lon="-0.36826">
        <ele>8.32212</ele>
        <time>2022-08-04T15:15:34.000Z</time>
      </trkpt>
      <trkpt lat="49.32344" lon="-0.36817">
        <ele>8.348194</ele>
        <time>2022-08-04T15:15:35.000Z</time>
      </trkpt>
      <trkpt lat="49.32342" lon="-0.36807">
        <ele>8.374181</ele>
        <time>2022-08-04T15:15:36.000Z</time>
      </trkpt>
      <trkpt lat="49.32341" lon="-0.36798">
        <ele>8.400691</ele>
        <time>2022-08-04T15:15:37.000Z</time>
      </trkpt>
      <trkpt lat="49.32339" lon="-0.36788">
        <ele>8.427539</ele>
        <time>2022-08-04T15:15:38.000Z</time>
      </trkpt>
      <trkpt lat="49.32337" lon="-0.36779">
        <ele>8.452973</ele>
        <time>2022-08-04T15:15:39.000Z</time>
      </trkpt>
      <trkpt lat="49.32336" lon="-0.3677">
        <ele>8.479199</ele>
        <time>2022-08-04T15:15:40.000Z</time>
      </trkpt>
      <trkpt lat="49.32334" lon="-0.36761">
        <ele>8.504404</ele>
        <time>2022-08-04T15:15:41.000Z</time>
      </trkpt>
      <trkpt lat="49.32333" lon="-0.36752">
        <ele>8.52931</ele>
        <time>2022-08-04T15:15:42.000Z</time>
      </trkpt>
      <trkpt lat="49.32332" lon="-0.36743">
        <ele>8.553688</ele>
        <time>2022-08-04T15:15:43.000Z</time>
      </trkpt>
      <trkpt lat="49.3233" lon="-0.36734">
        <ele>8.578991</ele>
        <time>2022-08-04T15:15:44.000Z</time>
      </trkpt>
      <trkpt lat="49.32328" lon="-0.36725">
        <ele>8.602895</ele>
        <time>2022-08-04T15:15:45.000Z</time>
      </trkpt>
      <trkpt lat="49.32326" lon="-0.36717">
        <ele>8.627429</ele>
        <time>2022-08-04T15:15:46.000Z</time>
      </trkpt>
      <trkpt lat="49.32325" lon="-0.36708">
        <ele>8.652071</ele>
        <time>2022-08-04T15:15:47.000Z</time>
      </trkpt>
      <trkpt lat="49.32323" lon="-0.36698">
        <ele>8.681766</ele>
        <time>2022-08-04T15:15:48.000Z</time>
      </trkpt>
      <trkpt lat="49.32322" lon="-0.36691">
        <ele>8.697927</ele>
        <time>2022-08-04T15:15:49.000Z</time>
      </trkpt>
      <trkpt lat="49.3232" lon="-0.36682">
        <ele>8.701283</ele>
        <time>2022-08-04T15:15:50.000Z</time>
      </trkpt>
      <trkpt lat="49.32319" lon="-0.36674">
        <ele>8.704603</ele>
        <time>2022-08-04T15:15:51.000Z</time>
      </trkpt>
      <trkpt lat="49.32317" lon="-0.36664">
        <ele>8.708358</ele>
        <time>2022-08-04T15:15:52.000Z</time>
      </trkpt>
      <trkpt lat="49.32316" lon="-0.36656">
        <ele>8.711561</ele>
        <time>2022-08-04T15:15:53.000Z</time>
      </trkpt>
      <trkpt lat="49.32315" lon="-0.36649">
        <ele>8.714241</ele>
        <time>2022-08-04T15:15:54.000Z</time>
      </trkpt>
      <trkpt lat="49.32313" lon="-0.36641">
        <ele>8.717444</ele>
        <time>2022-08-04T15:15:55.000Z</time>
      </trkpt>
      <trkpt lat="49.32312" lon="-0.36633">
        <ele>8.720538</ele>
        <time>2022-08-04T15:15:56.000Z</time>
      </trkpt>
      <trkpt lat="49.32311" lon="-0.36625">
        <ele>8.723632</ele>
        <time>2022-08-04T15:15:57.000Z</time>
      </trkpt>
      <trkpt lat="49.32309" lon="-0.36616">
        <ele>8.726799</ele>
        <time>2022-08-04T15:15:58.000Z</time>
      </trkpt>
      <trkpt lat="49.32308" lon="-0.36609">
        <ele>8.729618</ele>
        <time>2022-08-04T15:15:59.000Z</time>
      </trkpt>
      <trkpt lat="49.32306" lon="-0.36603">
        <ele>8.732296</ele>
        <time>2022-08-04T15:16:00.000Z</time>
      </trkpt>
      <trkpt lat="49.32305" lon="-0.36597">
        <ele>8.734625</ele>
        <time>2022-08-04T15:16:01.000Z</time>
      </trkpt>
      <trkpt lat="49.32303" lon="-0.36591">
        <ele>8.736908</ele>
        <time>2022-08-04T15:16:02.000Z</time>
      </trkpt>
      <trkpt lat="49.32302" lon="-0.36585">
        <ele>8.73921</ele>
        <time>2022-08-04T15:16:03.000Z</time>
      </trkpt>
      <trkpt lat="49.32301" lon="-0.36579">
        <ele>8.741582</ele>
        <time>2022-08-04T15:16:04.000Z</time>
      </trkpt>
      <trkpt lat="49.323" lon="-0.36573">
        <ele>8.743979</ele>
        <time>2022-08-04T15:16:05.000Z</time>
      </trkpt>
      <trkpt lat="49.32299" lon="-0.36567">
        <ele>8.746514</ele>
        <time>2022-08-04T15:16:06.000Z</time>
      </trkpt>
      <trkpt lat="49.32297" lon="-0.3656">
        <ele>8.749138</ele>
        <time>2022-08-04T15:16:07.000Z</time>
      </trkpt>
      <trkpt lat="49.32296" lon="-0.36553">
        <ele>8.751745</ele>
        <time>2022-08-04T15:16:08.000Z</time>
      </trkpt>
      <trkpt lat="49.32294" lon="-0.36546">
        <ele>8.754635</ele>
        <time>2022-08-04T15:16:09.000Z</time>
      </trkpt>
      <trkpt lat="49.32293" lon="-0.36539">
        <ele>8.757294</ele>
        <time>2022-08-04T15:16:10.000Z</time>
      </trkpt>
      <trkpt lat="49.32292" lon="-0.36532">
        <ele>8.75999</ele>
        <time>2022-08-04T15:16:11.000Z</time>
      </trkpt>
      <trkpt lat="49.32291" lon="-0.36526">
        <ele>8.762337</ele>
        <time>2022-08-04T15:16:12.000Z</time>
      </trkpt>
      <trkpt lat="49.3229" lon="-0.36521">
        <ele>8.764479</ele>
        <time>2022-08-04T15:16:13.000Z</time>
      </trkpt>
      <trkpt lat="49.32288" lon="-0.36515">
        <ele>8.766852</ele>
        <time>2022-08-04T15:16:14.000Z</time>
      </trkpt>
      <trkpt lat="49.32287" lon="-0.36509">
        <ele>8.769162</ele>
        <time>2022-08-04T15:16:15.000Z</time>
      </trkpt>
      <trkpt lat="49.32285" lon="-0.36503">
        <ele>8.771658</ele>
        <time>2022-08-04T15:16:16.000Z</time>
      </trkpt>
      <trkpt lat="49.32285" lon="-0.36497">
        <ele>8.773973</ele>
        <time>2022-08-04T15:16:17.000Z</time>
      </trkpt>
      <trkpt lat="49.32284" lon="-0.3649">
        <ele>8.776625</ele>
        <time>2022-08-04T15:16:18.000Z</time>
      </trkpt>
      <trkpt lat="49.32283" lon="-0.36483">
        <ele>8.779269</ele>
        <time>2022-08-04T15:16:19.000Z</time>
      </trkpt>
      <trkpt lat="49.32282" lon="-0.36476">
        <ele>8.781848</ele>
        <time>2022-08-04T15:16:20.000Z</time>
      </trkpt>
      <trkpt lat="49.3228" lon="-0.3647">
        <ele>8.784561</ele>
        <time>2022-08-04T15:16:21.000Z</time>
      </trkpt>
      <trkpt lat="49.32279" lon="-0.36463">
        <ele>8.787221</ele>
        <time>2022-08-04T15:16:22.000Z</time>
      </trkpt>
      <trkpt lat="49.32278" lon="-0.36456">
        <ele>8.789788</ele>
        <time>2022-08-04T15:16:23.000Z</time>
      </trkpt>
      <trkpt lat="49.32276" lon="-0.36449">
        <ele>8.792465</ele>
        <time>2022-08-04T15:16:24.000Z</time>
      </trkpt>
      <trkpt lat="49.32275" lon="-0.36443">
        <ele>8.795125</ele>
        <time>2022-08-04T15:16:25.000Z</time>
      </trkpt>
      <trkpt lat="49.32274" lon="-0.36436">
        <ele>8.797814</ele>
        <time>2022-08-04T15:16:26.000Z</time>
      </trkpt>
      <trkpt lat="49.32273" lon="-0.36429">
        <ele>8.800545</ele>
        <time>2022-08-04T15:16:27.000Z</time>
      </trkpt>
      <trkpt lat="49.32271" lon="-0.36421">
        <ele>8.762694</ele>
        <time>2022-08-04T15:16:28.000Z</time>
      </trkpt>
      <trkpt lat="49.3227" lon="-0.36414">
        <ele>8.714853</ele>
        <time>2022-08-04T15:16:29.000Z</time>
      </trkpt>
      <trkpt lat="49.32269" lon="-0.36407">
        <ele>8.665536</ele>
        <time>2022-08-04T15:16:30.000Z</time>
      </trkpt>
      <trkpt lat="49.32268" lon="-0.36399">
        <ele>8.61502</ele>
        <time>2022-08-04T15:16:31.000Z</time>
      </trkpt>
      <trkpt lat="49.32266" lon="-0.36391">
        <ele>8.563243</ele>
        <time>2022-08-04T15:16:32.000Z</time>
      </trkpt>
      <trkpt lat="49.32265" lon="-0.36383">
        <ele>8.510457</ele>
        <time>2022-08-04T15:16:33.000Z</time>
      </trkpt>
      <trkpt lat="49.32264" lon="-0.36375">
        <ele>8.45868</ele>
        <time>2022-08-04T15:16:34.000Z</time>
      </trkpt>
      <trkpt lat="49.32262" lon="-0.36367">
        <ele>8.40567</ele>
        <time>2022-08-04T15:16:35.000Z</time>
      </trkpt>
      <trkpt lat="49.32261" lon="-0.36359">
        <ele>8.352159</ele>
        <time>2022-08-04T15:16:36.000Z</time>
      </trkpt>
      <trkpt lat="49.32258" lon="-0.36352">
        <ele>8.302061</ele>
        <time>2022-08-04T15:16:37.000Z</time>
      </trkpt>
      <trkpt lat="49.32254" lon="-0.36347">
        <ele>8.250198</ele>
        <time>2022-08-04T15:16:38.000Z</time>
      </trkpt>
      <trkpt lat="49.3225" lon="-0.36343">
        <ele>8.202661</ele>
        <time>2022-08-04T15:16:39.000Z</time>
      </trkpt>
      <trkpt lat="49.32246" lon="-0.36341">
        <ele>8.165021</ele>
        <time>2022-08-04T15:16:40.000Z</time>
      </trkpt>
      <trkpt lat="49.32244" lon="-0.36339">
        <ele>8.144988</ele>
        <time>2022-08-04T15:16:41.000Z</time>
      </trkpt>
      <trkpt lat="49.32242" lon="-0.36339">
        <ele>8.122484</ele>
        <time>2022-08-04T15:16:42.000Z</time>
      </trkpt>
      <trkpt lat="49.3224" lon="-0.36339">
        <ele>8.10095</ele>
        <time>2022-08-04T15:16:43.000Z</time>
      </trkpt>
      <trkpt lat="49.32238" lon="-0.36341">
        <ele>8.079507</ele>
        <time>2022-08-04T15:16:44.000Z</time>
      </trkpt>
      <trkpt lat="49.32235" lon="-0.36343">
        <ele>8.051952</ele>
        <time>2022-08-04T15:16:45.000Z</time>
      </trkpt>
      <trkpt lat="49.32233" lon="-0.36343">
        <ele>8.03333</ele>
        <time>2022-08-04T15:16:46.000Z</time>
      </trkpt>
      <trkpt lat="49.32232" lon="-0.36341">
        <ele>8.011954</ele>
        <time>2022-08-04T15:16:48.000Z</time>
      </trkpt>
      <trkpt lat="49.32233" lon="-0.36339">
        <ele>7.992979</ele>
        <time>2022-08-04T15:16:50.000Z</time>
      </trkpt>
      <trkpt lat="49.32235" lon="-0.3634">
        <ele>7.972696</ele>
        <time>2022-08-04T15:16:51.000Z</time>
      </trkpt>
      <trkpt lat="49.32237" lon="-0.36342">
        <ele>7.954416</ele>
        <time>2022-08-04T15:16:52.000Z</time>
      </trkpt>
      <trkpt lat="49.32239" lon="-0.36344">
        <ele>7.931951</ele>
        <time>2022-08-04T15:16:53.000Z</time>
      </trkpt>
      <trkpt lat="49.32241" lon="-0.36346">
        <ele>7.909839</ele>
        <time>2022-08-04T15:16:54.000Z</time>
      </trkpt>
      <trkpt lat="49.32243" lon="-0.36347">
        <ele>7.889689</ele>
        <time>2022-08-04T15:16:55.000Z</time>
      </trkpt>
      <trkpt lat="49.32245" lon="-0.36347">
        <ele>7.871121</ele>
        <time>2022-08-04T15:16:56.000Z</time>
      </trkpt>
      <trkpt lat="49.32246" lon="-0.36343">
        <ele>7.841837</ele>
        <time>2022-08-04T15:16:58.000Z</time>
      </trkpt>
      <trkpt lat="49.32246" lon="-0.36339">
        <ele>7.819404</ele>
        <time>2022-08-04T15:16:59.000Z</time>
      </trkpt>
      <trkpt lat="49.32247" lon="-0.36336">
        <ele>7.799489</ele>
        <time>2022-08-04T15:17:00.000Z</time>
      </trkpt>
      <trkpt lat="49.32247" lon="-0.36333">
        <ele>7.780425</ele>
        <time>2022-08-04T15:17:01.000Z</time>
      </trkpt>
      <trkpt lat="49.32246" lon="-0.36328">
        <ele>7.748117</ele>
        <time>2022-08-04T15:17:03.000Z</time>
      </trkpt>
      <trkpt lat="49.32245" lon="-0.36325">
        <ele>7.725224</ele>
        <time>2022-08-04T15:17:07.000Z</time>
      </trkpt>
      <trkpt lat="49.32239" lon="-0.36314">
        <ele>7.633447</ele>
        <time>2022-08-04T15:17:18.000Z</time>
      </trkpt>
      <trkpt lat="49.32238" lon="-0.36311">
        <ele>7.609218</ele>
        <time>2022-08-04T15:17:19.000Z</time>
      </trkpt>
      <trkpt lat="49.32237" lon="-0.36307">
        <ele>7.581993</ele>
        <time>2022-08-04T15:17:20.000Z</time>
      </trkpt>
      <trkpt lat="49.32236" lon="-0.36303">
        <ele>7.556301</ele>
        <time>2022-08-04T15:17:21.000Z</time>
      </trkpt>
      <trkpt lat="49.32235" lon="-0.36299">
        <ele>7.530701</ele>
        <time>2022-08-04T15:17:22.000Z</time>
      </trkpt>
      <trkpt lat="49.32234" lon="-0.36296">
        <ele>7.510452</ele>
        <time>2022-08-04T15:17:23.000Z</time>
      </trkpt>
      <trkpt lat="49.32233" lon="-0.36293">
        <ele>7.490041</ele>
        <time>2022-08-04T15:17:24.000Z</time>
      </trkpt>
      <trkpt lat="49.32233" lon="-0.3629">
        <ele>7.469793</ele>
        <time>2022-08-04T15:17:25.000Z</time>
      </trkpt>
      <trkpt lat="49.32232" lon="-0.36286">
        <ele>7.44309</ele>
        <time>2022-08-04T15:17:26.000Z</time>
      </trkpt>
      <trkpt lat="49.3223" lon="-0.36281">
        <ele>7.405395</ele>
        <time>2022-08-04T15:17:27.000Z</time>
      </trkpt>
      <trkpt lat="49.32228" lon="-0.36275">
        <ele>7.364387</ele>
        <time>2022-08-04T15:17:28.000Z</time>
      </trkpt>
      <trkpt lat="49.32226" lon="-0.3627">
        <ele>7.324365</ele>
        <time>2022-08-04T15:17:29.000Z</time>
      </trkpt>
      <trkpt lat="49.32224" lon="-0.36264">
        <ele>7.281975</ele>
        <time>2022-08-04T15:17:30.000Z</time>
      </trkpt>
      <trkpt lat="49.32223" lon="-0.36258">
        <ele>7.24019</ele>
        <time>2022-08-04T15:17:31.000Z</time>
      </trkpt>
      <trkpt lat="49.32222" lon="-0.36252">
        <ele>7.201065</ele>
        <time>2022-08-04T15:17:32.000Z</time>
      </trkpt>
      <trkpt lat="49.3222" lon="-0.36245">
        <ele>7.155721</ele>
        <time>2022-08-04T15:17:33.000Z</time>
      </trkpt>
      <trkpt lat="49.32218" lon="-0.36238">
        <ele>7.108892</ele>
        <time>2022-08-04T15:17:34.000Z</time>
      </trkpt>
      <trkpt lat="49.32217" lon="-0.36231">
        <ele>7.061753</ele>
        <time>2022-08-04T15:17:35.000Z</time>
      </trkpt>
      <trkpt lat="49.32215" lon="-0.36224">
        <ele>7.01569</ele>
        <time>2022-08-04T15:17:36.000Z</time>
      </trkpt>
      <trkpt lat="49.32213" lon="-0.36218">
        <ele>6.967699</ele>
        <time>2022-08-04T15:17:37.000Z</time>
      </trkpt>
      <trkpt lat="49.32209" lon="-0.36211">
        <ele>6.916142</ele>
        <time>2022-08-04T15:17:38.000Z</time>
      </trkpt>
      <trkpt lat="49.32207" lon="-0.36203">
        <ele>6.864466</ele>
        <time>2022-08-04T15:17:39.000Z</time>
      </trkpt>
      <trkpt lat="49.32205" lon="-0.36196">
        <ele>6.814429</ele>
        <time>2022-08-04T15:17:40.000Z</time>
      </trkpt>
      <trkpt lat="49.32203" lon="-0.36188">
        <ele>6.76162</ele>
        <time>2022-08-04T15:17:41.000Z</time>
      </trkpt>
      <trkpt lat="49.322" lon="-0.3618">
        <ele>6.708994</ele>
        <time>2022-08-04T15:17:42.000Z</time>
      </trkpt>
      <trkpt lat="49.32197" lon="-0.36172">
        <ele>6.653795</ele>
        <time>2022-08-04T15:17:43.000Z</time>
      </trkpt>
      <trkpt lat="49.32195" lon="-0.36165">
        <ele>6.599594</ele>
        <time>2022-08-04T15:17:44.000Z</time>
      </trkpt>
      <trkpt lat="49.32192" lon="-0.36157">
        <ele>6.546287</ele>
        <time>2022-08-04T15:17:45.000Z</time>
      </trkpt>
      <trkpt lat="49.32189" lon="-0.36149">
        <ele>6.490016</ele>
        <time>2022-08-04T15:17:46.000Z</time>
      </trkpt>
      <trkpt lat="49.32186" lon="-0.36141">
        <ele>6.433745</ele>
        <time>2022-08-04T15:17:47.000Z</time>
      </trkpt>
      <trkpt lat="49.32183" lon="-0.36133">
        <ele>6.38008</ele>
        <time>2022-08-04T15:17:48.000Z</time>
      </trkpt>
      <trkpt lat="49.32181" lon="-0.36126">
        <ele>6.326475</ele>
        <time>2022-08-04T15:17:49.000Z</time>
      </trkpt>
      <trkpt lat="49.32177" lon="-0.36118">
        <ele>6.270339</ele>
        <time>2022-08-04T15:17:50.000Z</time>
      </trkpt>
      <trkpt lat="49.32174" lon="-0.3611">
        <ele>6.215139</ele>
        <time>2022-08-04T15:17:51.000Z</time>
      </trkpt>
      <trkpt lat="49.32171" lon="-0.36103">
        <ele>6.15577</ele>
        <time>2022-08-04T15:17:52.000Z</time>
      </trkpt>
      <trkpt lat="49.32167" lon="-0.36095">
        <ele>6.097019</ele>
        <time>2022-08-04T15:17:53.000Z</time>
      </trkpt>
      <trkpt lat="49.32163" lon="-0.36087">
        <ele>6.038624</ele>
        <time>2022-08-04T15:17:54.000Z</time>
      </trkpt>
      <trkpt lat="49.3216" lon="-0.3608">
        <ele>5.986596</ele>
        <time>2022-08-04T15:17:55.000Z</time>
      </trkpt>
      <trkpt lat="49.32156" lon="-0.36073">
        <ele>5.926159</ele>
        <time>2022-08-04T15:17:56.000Z</time>
      </trkpt>
      <trkpt lat="49.32152" lon="-0.36066">
        <ele>5.870946</ele>
        <time>2022-08-04T15:17:57.000Z</time>
      </trkpt>
      <trkpt lat="49.32149" lon="-0.36059">
        <ele>5.815239</ele>
        <time>2022-08-04T15:17:58.000Z</time>
      </trkpt>
      <trkpt lat="49.32145" lon="-0.36051">
        <ele>5.758537</ele>
        <time>2022-08-04T15:17:59.000Z</time>
      </trkpt>
      <trkpt lat="49.32141" lon="-0.36044">
        <ele>5.702858</ele>
        <time>2022-08-04T15:18:00.000Z</time>
      </trkpt>
      <trkpt lat="49.32139" lon="-0.36038">
        <ele>5.659083</ele>
        <time>2022-08-04T15:18:01.000Z</time>
      </trkpt>
      <trkpt lat="49.32136" lon="-0.36033">
        <ele>5.616072</ele>
        <time>2022-08-04T15:18:02.000Z</time>
      </trkpt>
      <trkpt lat="49.32134" lon="-0.36028">
        <ele>5.578477</ele>
        <time>2022-08-04T15:18:03.000Z</time>
      </trkpt>
      <trkpt lat="49.32132" lon="-0.36023">
        <ele>5.540858</ele>
        <time>2022-08-04T15:18:04.000Z</time>
      </trkpt>
      <trkpt lat="49.32128" lon="-0.36017">
        <ele>5.493607</ele>
        <time>2022-08-04T15:18:05.000Z</time>
      </trkpt>
      <trkpt lat="49.32125" lon="-0.36011">
        <ele>5.446425</ele>
        <time>2022-08-04T15:18:06.000Z</time>
      </trkpt>
      <trkpt lat="49.32122" lon="-0.36005">
        <ele>5.398768</ele>
        <time>2022-08-04T15:18:07.000Z</time>
      </trkpt>
      <trkpt lat="49.32118" lon="-0.35999">
        <ele>5.352687</ele>
        <time>2022-08-04T15:18:08.000Z</time>
      </trkpt>
      <trkpt lat="49.32115" lon="-0.35993">
        <ele>5.364809</ele>
        <time>2022-08-04T15:18:09.000Z</time>
      </trkpt>
      <trkpt lat="49.32111" lon="-0.35988">
        <ele>5.377204</ele>
        <time>2022-08-04T15:18:10.000Z</time>
      </trkpt>
      <trkpt lat="49.32109" lon="-0.35984">
        <ele>5.386226</ele>
        <time>2022-08-04T15:18:11.000Z</time>
      </trkpt>
      <trkpt lat="49.32107" lon="-0.35981">
        <ele>5.393163</ele>
        <time>2022-08-04T15:18:12.000Z</time>
      </trkpt>
      <trkpt lat="49.32106" lon="-0.35978">
        <ele>5.399988</ele>
        <time>2022-08-04T15:18:14.000Z</time>
      </trkpt>
      <trkpt lat="49.32105" lon="-0.35975">
        <ele>5.405575</ele>
        <time>2022-08-04T15:18:17.000Z</time>
      </trkpt>
      <trkpt lat="49.32103" lon="-0.35972">
        <ele>5.411626</ele>
        <time>2022-08-04T15:18:19.000Z</time>
      </trkpt>
      <trkpt lat="49.32101" lon="-0.35971">
        <ele>5.416397</ele>
        <time>2022-08-04T15:18:20.000Z</time>
      </trkpt>
      <trkpt lat="49.321" lon="-0.35969">
        <ele>5.420905</ele>
        <time>2022-08-04T15:18:21.000Z</time>
      </trkpt>
      <trkpt lat="49.32098" lon="-0.35966">
        <ele>5.427165</ele>
        <time>2022-08-04T15:18:22.000Z</time>
      </trkpt>
      <trkpt lat="49.32097" lon="-0.35964">
        <ele>5.431797</ele>
        <time>2022-08-04T15:18:23.000Z</time>
      </trkpt>
      <trkpt lat="49.32095" lon="-0.35962">
        <ele>5.43836</ele>
        <time>2022-08-04T15:18:24.000Z</time>
      </trkpt>
      <trkpt lat="49.32093" lon="-0.35959">
        <ele>5.444411</ele>
        <time>2022-08-04T15:18:25.000Z</time>
      </trkpt>
      <trkpt lat="49.32092" lon="-0.35956">
        <ele>5.450839</ele>
        <time>2022-08-04T15:18:26.000Z</time>
      </trkpt>
      <trkpt lat="49.3209" lon="-0.35953">
        <ele>5.457775</ele>
        <time>2022-08-04T15:18:27.000Z</time>
      </trkpt>
      <trkpt lat="49.32089" lon="-0.3595">
        <ele>5.462952</ele>
        <time>2022-08-04T15:18:28.000Z</time>
      </trkpt>
      <trkpt lat="49.32087" lon="-0.35948">
        <ele>5.468762</ele>
        <time>2022-08-04T15:18:29.000Z</time>
      </trkpt>
      <trkpt lat="49.32086" lon="-0.35946">
        <ele>5.473446</ele>
        <time>2022-08-04T15:18:30.000Z</time>
      </trkpt>
      <trkpt lat="49.32083" lon="-0.35935">
        <ele>5.492663</ele>
        <time>2022-08-04T15:19:26.000Z</time>
      </trkpt>
      <trkpt lat="49.32082" lon="-0.35933">
        <ele>5.498473</ele>
        <time>2022-08-04T15:19:27.000Z</time>
      </trkpt>
      <trkpt lat="49.3208" lon="-0.35931">
        <ele>5.503723</ele>
        <time>2022-08-04T15:19:28.000Z</time>
      </trkpt>
      <trkpt lat="49.32078" lon="-0.35929">
        <ele>5.508974</ele>
        <time>2022-08-04T15:19:29.000Z</time>
      </trkpt>
      <trkpt lat="49.32077" lon="-0.35927">
        <ele>5.514022</ele>
        <time>2022-08-04T15:19:30.000Z</time>
      </trkpt>
      <trkpt lat="49.32074" lon="-0.35925">
        <ele>5.522111</ele>
        <time>2022-08-04T15:19:31.000Z</time>
      </trkpt>
      <trkpt lat="49.32072" lon="-0.35923">
        <ele>5.528792</ele>
        <time>2022-08-04T15:19:32.000Z</time>
      </trkpt>
      <trkpt lat="49.3207" lon="-0.35921">
        <ele>5.534654</ele>
        <time>2022-08-04T15:19:33.000Z</time>
      </trkpt>
      <trkpt lat="49.32068" lon="-0.35918">
        <ele>5.54012</ele>
        <time>2022-08-04T15:19:34.000Z</time>
      </trkpt>
      <trkpt lat="49.32066" lon="-0.35916">
        <ele>5.546194</ele>
        <time>2022-08-04T15:19:35.000Z</time>
      </trkpt>
      <trkpt lat="49.32064" lon="-0.35914">
        <ele>5.552151</ele>
        <time>2022-08-04T15:19:36.000Z</time>
      </trkpt>
      <trkpt lat="49.32062" lon="-0.35912">
        <ele>5.55874</ele>
        <time>2022-08-04T15:19:37.000Z</time>
      </trkpt>
      <trkpt lat="49.32061" lon="-0.35909">
        <ele>5.565443</ele>
        <time>2022-08-04T15:19:38.000Z</time>
      </trkpt>
      <trkpt lat="49.32058" lon="-0.35906">
        <ele>5.57281</ele>
        <time>2022-08-04T15:19:39.000Z</time>
      </trkpt>
      <trkpt lat="49.32056" lon="-0.35903">
        <ele>5.579399</ele>
        <time>2022-08-04T15:19:40.000Z</time>
      </trkpt>
      <trkpt lat="49.32054" lon="-0.35901">
        <ele>5.585767</ele>
        <time>2022-08-04T15:19:41.000Z</time>
      </trkpt>
      <trkpt lat="49.32053" lon="-0.35898">
        <ele>5.592245</ele>
        <time>2022-08-04T15:19:42.000Z</time>
      </trkpt>
      <trkpt lat="49.3205" lon="-0.35896">
        <ele>5.599321</ele>
        <time>2022-08-04T15:19:43.000Z</time>
      </trkpt>
      <trkpt lat="49.32048" lon="-0.35893">
        <ele>5.606913</ele>
        <time>2022-08-04T15:19:44.000Z</time>
      </trkpt>
      <trkpt lat="49.32045" lon="-0.35891">
        <ele>5.613722</ele>
        <time>2022-08-04T15:19:45.000Z</time>
      </trkpt>
      <trkpt lat="49.32043" lon="-0.35889">
        <ele>5.621964</ele>
        <time>2022-08-04T15:19:46.000Z</time>
      </trkpt>
      <trkpt lat="49.3204" lon="-0.35886">
        <ele>5.629136</ele>
        <time>2022-08-04T15:19:47.000Z</time>
      </trkpt>
      <trkpt lat="49.32038" lon="-0.35883">
        <ele>5.636515</ele>
        <time>2022-08-04T15:19:48.000Z</time>
      </trkpt>
      <trkpt lat="49.32036" lon="-0.35881">
        <ele>5.643985</ele>
        <time>2022-08-04T15:19:49.000Z</time>
      </trkpt>
      <trkpt lat="49.32033" lon="-0.35878">
        <ele>5.65186</ele>
        <time>2022-08-04T15:19:50.000Z</time>
      </trkpt>
      <trkpt lat="49.3203" lon="-0.35875">
        <ele>5.66049</ele>
        <time>2022-08-04T15:19:51.000Z</time>
      </trkpt>
      <trkpt lat="49.32028" lon="-0.35872">
        <ele>5.667657</ele>
        <time>2022-08-04T15:19:52.000Z</time>
      </trkpt>
      <trkpt lat="49.32026" lon="-0.35869">
        <ele>5.675338</ele>
        <time>2022-08-04T15:19:53.000Z</time>
      </trkpt>
      <trkpt lat="49.32024" lon="-0.35867">
        <ele>5.68261</ele>
        <time>2022-08-04T15:19:54.000Z</time>
      </trkpt>
      <trkpt lat="49.32021" lon="-0.35863">
        <ele>5.691796</ele>
        <time>2022-08-04T15:19:55.000Z</time>
      </trkpt>
      <trkpt lat="49.32018" lon="-0.3586">
        <ele>5.699974</ele>
        <time>2022-08-04T15:19:56.000Z</time>
      </trkpt>
      <trkpt lat="49.32016" lon="-0.35858">
        <ele>5.707658</ele>
        <time>2022-08-04T15:19:57.000Z</time>
      </trkpt>
      <trkpt lat="49.32013" lon="-0.35855">
        <ele>5.716794</ele>
        <time>2022-08-04T15:19:58.000Z</time>
      </trkpt>
      <trkpt lat="49.3201" lon="-0.35853">
        <ele>5.724162</ele>
        <time>2022-08-04T15:19:59.000Z</time>
      </trkpt>
      <trkpt lat="49.32008" lon="-0.3585">
        <ele>5.73194</ele>
        <time>2022-08-04T15:20:00.000Z</time>
      </trkpt>
      <trkpt lat="49.32005" lon="-0.35847">
        <ele>5.741481</ele>
        <time>2022-08-04T15:20:01.000Z</time>
      </trkpt>
      <trkpt lat="49.32002" lon="-0.35844">
        <ele>5.750473</ele>
        <time>2022-08-04T15:20:02.000Z</time>
      </trkpt>
      <trkpt lat="49.31998" lon="-0.35841">
        <ele>5.760593</ele>
        <time>2022-08-04T15:20:03.000Z</time>
      </trkpt>
      <trkpt lat="49.31995" lon="-0.35838">
        <ele>5.770874</ele>
        <time>2022-08-04T15:20:04.000Z</time>
      </trkpt>
      <trkpt lat="49.31991" lon="-0.35834">
        <ele>5.78163</ele>
        <time>2022-08-04T15:20:05.000Z</time>
      </trkpt>
      <trkpt lat="49.31988" lon="-0.35831">
        <ele>5.791258</ele>
        <time>2022-08-04T15:20:06.000Z</time>
      </trkpt>
      <trkpt lat="49.31984" lon="-0.35828">
        <ele>5.802534</ele>
        <time>2022-08-04T15:20:07.000Z</time>
      </trkpt>
      <trkpt lat="49.3198" lon="-0.35824">
        <ele>5.832876</ele>
        <time>2022-08-04T15:20:08.000Z</time>
      </trkpt>
      <trkpt lat="49.31975" lon="-0.3582">
        <ele>5.885534</ele>
        <time>2022-08-04T15:20:09.000Z</time>
      </trkpt>
      <trkpt lat="49.31971" lon="-0.35817">
        <ele>5.930541</ele>
        <time>2022-08-04T15:20:10.000Z</time>
      </trkpt>
      <trkpt lat="49.31966" lon="-0.35815">
        <ele>5.981423</ele>
        <time>2022-08-04T15:20:11.000Z</time>
      </trkpt>
      <trkpt lat="49.31962" lon="-0.35812">
        <ele>6.030038</ele>
        <time>2022-08-04T15:20:12.000Z</time>
      </trkpt>
      <trkpt lat="49.31957" lon="-0.35808">
        <ele>6.082696</ele>
        <time>2022-08-04T15:20:13.000Z</time>
      </trkpt>
      <trkpt lat="49.31952" lon="-0.35805">
        <ele>6.13184</ele>
        <time>2022-08-04T15:20:14.000Z</time>
      </trkpt>
      <trkpt lat="49.31947" lon="-0.35802">
        <ele>6.18551</ele>
        <time>2022-08-04T15:20:15.000Z</time>
      </trkpt>
      <trkpt lat="49.31943" lon="-0.35799">
        <ele>6.233385</ele>
        <time>2022-08-04T15:20:16.000Z</time>
      </trkpt>
      <trkpt lat="49.31937" lon="-0.35796">
        <ele>6.290513</ele>
        <time>2022-08-04T15:20:17.000Z</time>
      </trkpt>
      <trkpt lat="49.31934" lon="-0.35794">
        <ele>6.324749</ele>
        <time>2022-08-04T15:20:18.000Z</time>
      </trkpt>
      <trkpt lat="49.3193" lon="-0.35792">
        <ele>6.369387</ele>
        <time>2022-08-04T15:20:19.000Z</time>
      </trkpt>
      <trkpt lat="49.31925" lon="-0.35789">
        <ele>6.419612</ele>
        <time>2022-08-04T15:20:20.000Z</time>
      </trkpt>
      <trkpt lat="49.3192" lon="-0.35786">
        <ele>6.471468</ele>
        <time>2022-08-04T15:20:21.000Z</time>
      </trkpt>
      <trkpt lat="49.31917" lon="-0.35784">
        <ele>6.508474</ele>
        <time>2022-08-04T15:20:22.000Z</time>
      </trkpt>
      <trkpt lat="49.31913" lon="-0.35782">
        <ele>6.553111</ele>
        <time>2022-08-04T15:20:23.000Z</time>
      </trkpt>
      <trkpt lat="49.31909" lon="-0.35779">
        <ele>6.596366</ele>
        <time>2022-08-04T15:20:24.000Z</time>
      </trkpt>
      <trkpt lat="49.31904" lon="-0.35777">
        <ele>6.640773</ele>
        <time>2022-08-04T15:20:25.000Z</time>
      </trkpt>
      <trkpt lat="49.31901" lon="-0.35775">
        <ele>6.680178</ele>
        <time>2022-08-04T15:20:26.000Z</time>
      </trkpt>
      <trkpt lat="49.31896" lon="-0.35773">
        <ele>6.723217</ele>
        <time>2022-08-04T15:20:27.000Z</time>
      </trkpt>
      <trkpt lat="49.31893" lon="-0.35772">
        <ele>6.762094</ele>
        <time>2022-08-04T15:20:28.000Z</time>
      </trkpt>
      <trkpt lat="49.31888" lon="-0.35771">
        <ele>6.804311</ele>
        <time>2022-08-04T15:20:29.000Z</time>
      </trkpt>
      <trkpt lat="49.31884" lon="-0.3577">
        <ele>6.852224</ele>
        <time>2022-08-04T15:20:30.000Z</time>
      </trkpt>
      <trkpt lat="49.31879" lon="-0.3577">
        <ele>6.899823</ele>
        <time>2022-08-04T15:20:31.000Z</time>
      </trkpt>
      <trkpt lat="49.31874" lon="-0.35769">
        <ele>6.944526</ele>
        <time>2022-08-04T15:20:32.000Z</time>
      </trkpt>
      <trkpt lat="49.31869" lon="-0.35768">
        <ele>6.9923</ele>
        <time>2022-08-04T15:20:33.000Z</time>
      </trkpt>
      <trkpt lat="49.31865" lon="-0.35767">
        <ele>7.040296</ele>
        <time>2022-08-04T15:20:34.000Z</time>
      </trkpt>
      <trkpt lat="49.31859" lon="-0.35766">
        <ele>7.09467</ele>
        <time>2022-08-04T15:20:35.000Z</time>
      </trkpt>
      <trkpt lat="49.31854" lon="-0.35764">
        <ele>7.149044</ele>
        <time>2022-08-04T15:20:36.000Z</time>
      </trkpt>
      <trkpt lat="49.31849" lon="-0.35763">
        <ele>7.201055</ele>
        <time>2022-08-04T15:20:37.000Z</time>
      </trkpt>
      <trkpt lat="49.31843" lon="-0.35763">
        <ele>7.254749</ele>
        <time>2022-08-04T15:20:38.000Z</time>
      </trkpt>
      <trkpt lat="49.31837" lon="-0.35762">
        <ele>7.312395</ele>
        <time>2022-08-04T15:20:39.000Z</time>
      </trkpt>
      <trkpt lat="49.31832" lon="-0.35761">
        <ele>7.369107</ele>
        <time>2022-08-04T15:20:40.000Z</time>
      </trkpt>
      <trkpt lat="49.31827" lon="-0.3576">
        <ele>7.419902</ele>
        <time>2022-08-04T15:20:41.000Z</time>
      </trkpt>
      <trkpt lat="49.31821" lon="-0.3576">
        <ele>7.474493</ele>
        <time>2022-08-04T15:20:42.000Z</time>
      </trkpt>
      <trkpt lat="49.31816" lon="-0.3576">
        <ele>7.525025</ele>
        <time>2022-08-04T15:20:43.000Z</time>
      </trkpt>
      <trkpt lat="49.31811" lon="-0.3576">
        <ele>7.572584</ele>
        <time>2022-08-04T15:20:44.000Z</time>
      </trkpt>
      <trkpt lat="49.31806" lon="-0.3576">
        <ele>7.586991</ele>
        <time>2022-08-04T15:20:45.000Z</time>
      </trkpt>
      <trkpt lat="49.31802" lon="-0.3576">
        <ele>7.581805</ele>
        <time>2022-08-04T15:20:46.000Z</time>
      </trkpt>
      <trkpt lat="49.31798" lon="-0.35761">
        <ele>7.577117</ele>
        <time>2022-08-04T15:20:47.000Z</time>
      </trkpt>
      <trkpt lat="49.31794" lon="-0.35761">
        <ele>7.572295</ele>
        <time>2022-08-04T15:20:48.000Z</time>
      </trkpt>
      <trkpt lat="49.31791" lon="-0.3576">
        <ele>7.568785</ele>
        <time>2022-08-04T15:20:49.000Z</time>
      </trkpt>
      <trkpt lat="49.31789" lon="-0.35758">
        <ele>7.565358</ele>
        <time>2022-08-04T15:20:50.000Z</time>
      </trkpt>
      <trkpt lat="49.31787" lon="-0.35754">
        <ele>7.561699</ele>
        <time>2022-08-04T15:20:51.000Z</time>
      </trkpt>
      <trkpt lat="49.31786" lon="-0.3575">
        <ele>7.558109</ele>
        <time>2022-08-04T15:20:52.000Z</time>
      </trkpt>
      <trkpt lat="49.31784" lon="-0.35746">
        <ele>7.554132</ele>
        <time>2022-08-04T15:20:53.000Z</time>
      </trkpt>
      <trkpt lat="49.31783" lon="-0.35742">
        <ele>7.550885</ele>
        <time>2022-08-04T15:20:54.000Z</time>
      </trkpt>
      <trkpt lat="49.31782" lon="-0.35738">
        <ele>7.547151</ele>
        <time>2022-08-04T15:20:55.000Z</time>
      </trkpt>
      <trkpt lat="49.31781" lon="-0.35734">
        <ele>7.543979</ele>
        <time>2022-08-04T15:20:56.000Z</time>
      </trkpt>
      <trkpt lat="49.31781" lon="-0.35731">
        <ele>7.541541</ele>
        <time>2022-08-04T15:20:57.000Z</time>
      </trkpt>
      <trkpt lat="49.31781" lon="-0.35727">
        <ele>7.537766</ele>
        <time>2022-08-04T15:20:59.000Z</time>
      </trkpt>
      <trkpt lat="49.31783" lon="-0.35724">
        <ele>7.534197</ele>
        <time>2022-08-04T15:21:01.000Z</time>
      </trkpt>
      <trkpt lat="49.31786" lon="-0.35722">
        <ele>7.530357</ele>
        <time>2022-08-04T15:21:03.000Z</time>
      </trkpt>
      <trkpt lat="49.31789" lon="-0.35721">
        <ele>7.527495</ele>
        <time>2022-08-04T15:21:04.000Z</time>
      </trkpt>
      <trkpt lat="49.31791" lon="-0.35721">
        <ele>7.523921</ele>
        <time>2022-08-04T15:21:05.000Z</time>
      </trkpt>
      <trkpt lat="49.31794" lon="-0.35721">
        <ele>7.520837</ele>
        <time>2022-08-04T15:21:06.000Z</time>
      </trkpt>
      <trkpt lat="49.31797" lon="-0.35721">
        <ele>7.51689</ele>
        <time>2022-08-04T15:21:07.000Z</time>
      </trkpt>
      <trkpt lat="49.31801" lon="-0.35721">
        <ele>7.512084</ele>
        <time>2022-08-04T15:21:08.000Z</time>
      </trkpt>
      <trkpt lat="49.31805" lon="-0.35721">
        <ele>7.507385</ele>
        <time>2022-08-04T15:21:09.000Z</time>
      </trkpt>
      <trkpt lat="49.31809" lon="-0.35722">
        <ele>7.502187</ele>
        <time>2022-08-04T15:21:10.000Z</time>
      </trkpt>
      <trkpt lat="49.31813" lon="-0.35723">
        <ele>7.49665</ele>
        <time>2022-08-04T15:21:11.000Z</time>
      </trkpt>
      <trkpt lat="49.31818" lon="-0.35724">
        <ele>7.491085</ele>
        <time>2022-08-04T15:21:12.000Z</time>
      </trkpt>
      <trkpt lat="49.31823" lon="-0.35724">
        <ele>7.484296</ele>
        <time>2022-08-04T15:21:13.000Z</time>
      </trkpt>
      <trkpt lat="49.31828" lon="-0.35725">
        <ele>7.478327</ele>
        <time>2022-08-04T15:21:14.000Z</time>
      </trkpt>
      <trkpt lat="49.31833" lon="-0.35727">
        <ele>7.472307</ele>
        <time>2022-08-04T15:21:15.000Z</time>
      </trkpt>
      <trkpt lat="49.31838" lon="-0.35727">
        <ele>7.466373</ele>
        <time>2022-08-04T15:21:16.000Z</time>
      </trkpt>
      <trkpt lat="49.31843" lon="-0.35728">
        <ele>7.460076</ele>
        <time>2022-08-04T15:21:17.000Z</time>
      </trkpt>
      <trkpt lat="49.31847" lon="-0.35729">
        <ele>7.454972</ele>
        <time>2022-08-04T15:21:18.000Z</time>
      </trkpt>
      <trkpt lat="49.31852" lon="-0.35729">
        <ele>7.449044</ele>
        <time>2022-08-04T15:21:19.000Z</time>
      </trkpt>
      <trkpt lat="49.31856" lon="-0.3573">
        <ele>7.443847</ele>
        <time>2022-08-04T15:21:20.000Z</time>
      </trkpt>
      <trkpt lat="49.31861" lon="-0.3573">
        <ele>7.438292</ele>
        <time>2022-08-04T15:21:21.000Z</time>
      </trkpt>
      <trkpt lat="49.31865" lon="-0.35731">
        <ele>7.432727</ele>
        <time>2022-08-04T15:21:22.000Z</time>
      </trkpt>
      <trkpt lat="49.31869" lon="-0.35732">
        <ele>7.427584</ele>
        <time>2022-08-04T15:21:23.000Z</time>
      </trkpt>
      <trkpt lat="49.31873" lon="-0.35734">
        <ele>7.422588</ele>
        <time>2022-08-04T15:21:24.000Z</time>
      </trkpt>
      <trkpt lat="49.31877" lon="-0.35735">
        <ele>7.417791</ele>
        <time>2022-08-04T15:21:25.000Z</time>
      </trkpt>
      <trkpt lat="49.3188" lon="-0.35736">
        <ele>7.413404</ele>
        <time>2022-08-04T15:21:26.000Z</time>
      </trkpt>
      <trkpt lat="49.31884" lon="-0.35737">
        <ele>7.40938</ele>
        <time>2022-08-04T15:21:27.000Z</time>
      </trkpt>
      <trkpt lat="49.31886" lon="-0.35737">
        <ele>7.405799</ele>
        <time>2022-08-04T15:21:28.000Z</time>
      </trkpt>
      <trkpt lat="49.31889" lon="-0.35737">
        <ele>7.402168</ele>
        <time>2022-08-04T15:21:29.000Z</time>
      </trkpt>
      <trkpt lat="49.31892" lon="-0.35734">
        <ele>7.398145</ele>
        <time>2022-08-04T15:21:30.000Z</time>
      </trkpt>
      <trkpt lat="49.31893" lon="-0.35731">
        <ele>7.39504</ele>
        <time>2022-08-04T15:21:31.000Z</time>
      </trkpt>
      <trkpt lat="49.31893" lon="-0.35726">
        <ele>7.391407</ele>
        <time>2022-08-04T15:21:32.000Z</time>
      </trkpt>
      <trkpt lat="49.31893" lon="-0.3572">
        <ele>7.386452</ele>
        <time>2022-08-04T15:21:33.000Z</time>
      </trkpt>
      <trkpt lat="49.3189" lon="-0.35714">
        <ele>7.38093</ele>
        <time>2022-08-04T15:21:34.000Z</time>
      </trkpt>
      <trkpt lat="49.31887" lon="-0.35709">
        <ele>7.374827</ele>
        <time>2022-08-04T15:21:35.000Z</time>
      </trkpt>
      <trkpt lat="49.31884" lon="-0.35703">
        <ele>7.369645</ele>
        <time>2022-08-04T15:21:36.000Z</time>
      </trkpt>
      <trkpt lat="49.31881" lon="-0.35698">
        <ele>7.381401</ele>
        <time>2022-08-04T15:21:37.000Z</time>
      </trkpt>
      <trkpt lat="49.31879" lon="-0.35693">
        <ele>7.390948</ele>
        <time>2022-08-04T15:21:38.000Z</time>
      </trkpt>
      <trkpt lat="49.31877" lon="-0.35687">
        <ele>7.400601</ele>
        <time>2022-08-04T15:21:39.000Z</time>
      </trkpt>
      <trkpt lat="49.31876" lon="-0.35682">
        <ele>7.41016</ele>
        <time>2022-08-04T15:21:40.000Z</time>
      </trkpt>
      <trkpt lat="49.31873" lon="-0.35677">
        <ele>7.420523</ele>
        <time>2022-08-04T15:21:41.000Z</time>
      </trkpt>
      <trkpt lat="49.31871" lon="-0.35672">
        <ele>7.429385</ele>
        <time>2022-08-04T15:21:42.000Z</time>
      </trkpt>
      <trkpt lat="49.31869" lon="-0.35667">
        <ele>7.438931</ele>
        <time>2022-08-04T15:21:43.000Z</time>
      </trkpt>
      <trkpt lat="49.31869" lon="-0.35662">
        <ele>7.448475</ele>
        <time>2022-08-04T15:21:44.000Z</time>
      </trkpt>
      <trkpt lat="49.31867" lon="-0.35656">
        <ele>7.458724</ele>
        <time>2022-08-04T15:21:45.000Z</time>
      </trkpt>
      <trkpt lat="49.31865" lon="-0.3565">
        <ele>7.469433</ele>
        <time>2022-08-04T15:21:46.000Z</time>
      </trkpt>
      <trkpt lat="49.31863" lon="-0.35644">
        <ele>7.481184</ele>
        <time>2022-08-04T15:21:47.000Z</time>
      </trkpt>
      <trkpt lat="49.3186" lon="-0.35638">
        <ele>7.493079</ele>
        <time>2022-08-04T15:21:48.000Z</time>
      </trkpt>
      <trkpt lat="49.31858" lon="-0.35632">
        <ele>7.504228</ele>
        <time>2022-08-04T15:21:49.000Z</time>
      </trkpt>
      <trkpt lat="49.31856" lon="-0.35626">
        <ele>7.515431</ele>
        <time>2022-08-04T15:21:50.000Z</time>
      </trkpt>
      <trkpt lat="49.31853" lon="-0.35619">
        <ele>7.527982</ele>
        <time>2022-08-04T15:21:51.000Z</time>
      </trkpt>
      <trkpt lat="49.31851" lon="-0.35613">
        <ele>7.539185</ele>
        <time>2022-08-04T15:21:52.000Z</time>
      </trkpt>
      <trkpt lat="49.31848" lon="-0.35607">
        <ele>7.55134</ele>
        <time>2022-08-04T15:21:53.000Z</time>
      </trkpt>
      <trkpt lat="49.31845" lon="-0.35601">
        <ele>7.56375</ele>
        <time>2022-08-04T15:21:54.000Z</time>
      </trkpt>
      <trkpt lat="49.31843" lon="-0.35594">
        <ele>7.575669</ele>
        <time>2022-08-04T15:21:55.000Z</time>
      </trkpt>
      <trkpt lat="49.31841" lon="-0.35587">
        <ele>7.588426</ele>
        <time>2022-08-04T15:21:56.000Z</time>
      </trkpt>
      <trkpt lat="49.31838" lon="-0.35581">
        <ele>7.601104</ele>
        <time>2022-08-04T15:21:57.000Z</time>
      </trkpt>
      <trkpt lat="49.31835" lon="-0.35573">
        <ele>7.615156</ele>
        <time>2022-08-04T15:21:58.000Z</time>
      </trkpt>
      <trkpt lat="49.31833" lon="-0.35569">
        <ele>7.62459</ele>
        <time>2022-08-04T15:21:59.000Z</time>
      </trkpt>
      <trkpt lat="49.31831" lon="-0.35564">
        <ele>7.634291</ele>
        <time>2022-08-04T15:22:00.000Z</time>
      </trkpt>
      <trkpt lat="49.31828" lon="-0.35558">
        <ele>7.644806</ele>
        <time>2022-08-04T15:22:01.000Z</time>
      </trkpt>
      <trkpt lat="49.31827" lon="-0.35555">
        <ele>7.651896</ele>
        <time>2022-08-04T15:22:02.000Z</time>
      </trkpt>
      <trkpt lat="49.31826" lon="-0.35552">
        <ele>7.65738</ele>
        <time>2022-08-04T15:22:03.000Z</time>
      </trkpt>
      <trkpt lat="49.31824" lon="-0.35548">
        <ele>7.665045</ele>
        <time>2022-08-04T15:22:04.000Z</time>
      </trkpt>
      <trkpt lat="49.31823" lon="-0.35543">
        <ele>7.673845</ele>
        <time>2022-08-04T15:22:06.000Z</time>
      </trkpt>
      <trkpt lat="49.31824" lon="-0.3554">
        <ele>7.678899</ele>
        <time>2022-08-04T15:22:07.000Z</time>
      </trkpt>
      <trkpt lat="49.31827" lon="-0.35537">
        <ele>7.686737</ele>
        <time>2022-08-04T15:22:08.000Z</time>
      </trkpt>
      <trkpt lat="49.31829" lon="-0.35535">
        <ele>7.694448</ele>
        <time>2022-08-04T15:22:09.000Z</time>
      </trkpt>
      <trkpt lat="49.31833" lon="-0.35533">
        <ele>7.703137</ele>
        <time>2022-08-04T15:22:10.000Z</time>
      </trkpt>
      <trkpt lat="49.31835" lon="-0.3553">
        <ele>7.711258</ele>
        <time>2022-08-04T15:22:11.000Z</time>
      </trkpt>
      <trkpt lat="49.31838" lon="-0.35527">
        <ele>7.719788</ele>
        <time>2022-08-04T15:22:12.000Z</time>
      </trkpt>
      <trkpt lat="49.31841" lon="-0.35523">
        <ele>7.729599</ele>
        <time>2022-08-04T15:22:13.000Z</time>
      </trkpt>
      <trkpt lat="49.31845" lon="-0.35521">
        <ele>7.739307</ele>
        <time>2022-08-04T15:22:14.000Z</time>
      </trkpt>
      <trkpt lat="49.31847" lon="-0.35517">
        <ele>7.747648</ele>
        <time>2022-08-04T15:22:15.000Z</time>
      </trkpt>
      <trkpt lat="49.31849" lon="-0.35514">
        <ele>7.755735</ele>
        <time>2022-08-04T15:22:16.000Z</time>
      </trkpt>
      <trkpt lat="49.31853" lon="-0.35511">
        <ele>7.764775</ele>
        <time>2022-08-04T15:22:17.000Z</time>
      </trkpt>
      <trkpt lat="49.31855" lon="-0.35509">
        <ele>7.77308</ele>
        <time>2022-08-04T15:22:18.000Z</time>
      </trkpt>
      <trkpt lat="49.31858" lon="-0.35506">
        <ele>7.780713</ele>
        <time>2022-08-04T15:22:19.000Z</time>
      </trkpt>
      <trkpt lat="49.31861" lon="-0.35504">
        <ele>7.790351</ele>
        <time>2022-08-04T15:22:20.000Z</time>
      </trkpt>
      <trkpt lat="49.31865" lon="-0.35501">
        <ele>7.799548</ele>
        <time>2022-08-04T15:22:21.000Z</time>
      </trkpt>
      <trkpt lat="49.31868" lon="-0.35498">
        <ele>7.808466</ele>
        <time>2022-08-04T15:22:22.000Z</time>
      </trkpt>
      <trkpt lat="49.3187" lon="-0.35494">
        <ele>7.81748</ele>
        <time>2022-08-04T15:22:23.000Z</time>
      </trkpt>
      <trkpt lat="49.31873" lon="-0.35491">
        <ele>7.7803</ele>
        <time>2022-08-04T15:22:24.000Z</time>
      </trkpt>
      <trkpt lat="49.31876" lon="-0.35487">
        <ele>7.74203</ele>
        <time>2022-08-04T15:22:25.000Z</time>
      </trkpt>
      <trkpt lat="49.31879" lon="-0.35484">
        <ele>7.701964</ele>
        <time>2022-08-04T15:22:26.000Z</time>
      </trkpt>
      <trkpt lat="49.31882" lon="-0.35482">
        <ele>7.663488</ele>
        <time>2022-08-04T15:22:27.000Z</time>
      </trkpt>
      <trkpt lat="49.31884" lon="-0.35479">
        <ele>7.62873</ele>
        <time>2022-08-04T15:22:28.000Z</time>
      </trkpt>
      <trkpt lat="49.31887" lon="-0.35477">
        <ele>7.596433</ele>
        <time>2022-08-04T15:22:29.000Z</time>
      </trkpt>
      <trkpt lat="49.31889" lon="-0.35476">
        <ele>7.571605</ele>
        <time>2022-08-04T15:22:30.000Z</time>
      </trkpt>
      <trkpt lat="49.31891" lon="-0.35474">
        <ele>7.545414</ele>
        <time>2022-08-04T15:22:31.000Z</time>
      </trkpt>
      <trkpt lat="49.31892" lon="-0.35472">
        <ele>7.52312</ele>
        <time>2022-08-04T15:22:32.000Z</time>
      </trkpt>
      <trkpt lat="49.31895" lon="-0.35469">
        <ele>7.477665</ele>
        <time>2022-08-04T15:22:34.000Z</time>
      </trkpt>
      <trkpt lat="49.31898" lon="-0.35466">
        <ele>7.442937</ele>
        <time>2022-08-04T15:22:36.000Z</time>
      </trkpt>
      <trkpt lat="49.319" lon="-0.35464">
        <ele>7.417358</ele>
        <time>2022-08-04T15:22:37.000Z</time>
      </trkpt>
      <trkpt lat="49.31902" lon="-0.35461">
        <ele>7.381393</ele>
        <time>2022-08-04T15:22:39.000Z</time>
      </trkpt>
      <trkpt lat="49.31906" lon="-0.35459">
        <ele>7.339109</ele>
        <time>2022-08-04T15:22:41.000Z</time>
      </trkpt>
      <trkpt lat="49.31908" lon="-0.35457">
        <ele>7.30396</ele>
        <time>2022-08-04T15:22:43.000Z</time>
      </trkpt>
      <trkpt lat="49.3191" lon="-0.35454">
        <ele>7.271687</ele>
        <time>2022-08-04T15:22:45.000Z</time>
      </trkpt>
      <trkpt lat="49.31913" lon="-0.35451">
        <ele>7.235723</ele>
        <time>2022-08-04T15:22:47.000Z</time>
      </trkpt>
      <trkpt lat="49.31915" lon="-0.3545">
        <ele>7.213845</ele>
        <time>2022-08-04T15:22:48.000Z</time>
      </trkpt>
      <trkpt lat="49.31917" lon="-0.35448">
        <ele>7.186268</ele>
        <time>2022-08-04T15:22:49.000Z</time>
      </trkpt>
      <trkpt lat="49.31918" lon="-0.35445">
        <ele>7.154956</ele>
        <time>2022-08-04T15:22:50.000Z</time>
      </trkpt>
      <trkpt lat="49.31922" lon="-0.35441">
        <ele>7.103593</ele>
        <time>2022-08-04T15:22:52.000Z</time>
      </trkpt>
      <trkpt lat="49.31924" lon="-0.35439">
        <ele>7.080865</ele>
        <time>2022-08-04T15:22:53.000Z</time>
      </trkpt>
      <trkpt lat="49.31926" lon="-0.35437">
        <ele>7.044444</ele>
        <time>2022-08-04T15:22:54.000Z</time>
      </trkpt>
      <trkpt lat="49.31929" lon="-0.35434">
        <ele>7.013521</ele>
        <time>2022-08-04T15:22:55.000Z</time>
      </trkpt>
      <trkpt lat="49.31931" lon="-0.35433">
        <ele>6.98696</ele>
        <time>2022-08-04T15:22:56.000Z</time>
      </trkpt>
      <trkpt lat="49.31932" lon="-0.35431">
        <ele>6.964232</ele>
        <time>2022-08-04T15:22:57.000Z</time>
      </trkpt>
      <trkpt lat="49.31934" lon="-0.35429">
        <ele>6.936965</ele>
        <time>2022-08-04T15:22:58.000Z</time>
      </trkpt>
      <trkpt lat="49.31936" lon="-0.35426">
        <ele>6.907298</ele>
        <time>2022-08-04T15:22:59.000Z</time>
      </trkpt>
      <trkpt lat="49.31937" lon="-0.35424">
        <ele>6.886209</ele>
        <time>2022-08-04T15:23:00.000Z</time>
      </trkpt>
      <trkpt lat="49.3194" lon="-0.35421">
        <ele>6.851612</ele>
        <time>2022-08-04T15:23:01.000Z</time>
      </trkpt>
      <trkpt lat="49.31944" lon="-0.35417">
        <ele>6.791275</ele>
        <time>2022-08-04T15:23:03.000Z</time>
      </trkpt>
      <trkpt lat="49.31947" lon="-0.35415">
        <ele>6.760227</ele>
        <time>2022-08-04T15:23:04.000Z</time>
      </trkpt>
      <trkpt lat="49.31949" lon="-0.35413">
        <ele>6.730547</ele>
        <time>2022-08-04T15:23:05.000Z</time>
      </trkpt>
      <trkpt lat="49.31951" lon="-0.35411">
        <ele>6.706402</ele>
        <time>2022-08-04T15:23:06.000Z</time>
      </trkpt>
      <trkpt lat="49.31953" lon="-0.3541">
        <ele>6.674313</ele>
        <time>2022-08-04T15:23:07.000Z</time>
      </trkpt>
      <trkpt lat="49.31956" lon="-0.35408">
        <ele>6.638191</ele>
        <time>2022-08-04T15:23:08.000Z</time>
      </trkpt>
      <trkpt lat="49.31958" lon="-0.35406">
        <ele>6.609631</ele>
        <time>2022-08-04T15:23:09.000Z</time>
      </trkpt>
      <trkpt lat="49.3196" lon="-0.35405">
        <ele>6.588891</ele>
        <time>2022-08-04T15:23:10.000Z</time>
      </trkpt>
      <trkpt lat="49.31962" lon="-0.35403">
        <ele>6.565714</ele>
        <time>2022-08-04T15:23:11.000Z</time>
      </trkpt>
      <trkpt lat="49.31965" lon="-0.354">
        <ele>6.526464</ele>
        <time>2022-08-04T15:23:13.000Z</time>
      </trkpt>
      <trkpt lat="49.31967" lon="-0.35399">
        <ele>6.497211</ele>
        <time>2022-08-04T15:23:15.000Z</time>
      </trkpt>
      <trkpt lat="49.3197" lon="-0.35397">
        <ele>6.460152</ele>
        <time>2022-08-04T15:23:17.000Z</time>
      </trkpt>
      <trkpt lat="49.31971" lon="-0.35391">
        <ele>6.416109</ele>
        <time>2022-08-04T15:23:19.000Z</time>
      </trkpt>
      <trkpt lat="49.31969" lon="-0.35387">
        <ele>6.381067</ele>
        <time>2022-08-04T15:23:20.000Z</time>
      </trkpt>
      <trkpt lat="49.31967" lon="-0.35383">
        <ele>6.339158</ele>
        <time>2022-08-04T15:23:21.000Z</time>
      </trkpt>
      <trkpt lat="49.31965" lon="-0.35378">
        <ele>6.297227</ele>
        <time>2022-08-04T15:23:22.000Z</time>
      </trkpt>
      <trkpt lat="49.31963" lon="-0.35373">
        <ele>6.252184</ele>
        <time>2022-08-04T15:23:23.000Z</time>
      </trkpt>
      <trkpt lat="49.31961" lon="-0.35367">
        <ele>6.203393</ele>
        <time>2022-08-04T15:23:24.000Z</time>
      </trkpt>
      <trkpt lat="49.31958" lon="-0.35361">
        <ele>6.148707</ele>
        <time>2022-08-04T15:23:25.000Z</time>
      </trkpt>
      <trkpt lat="49.31957" lon="-0.35353">
        <ele>6.089321</ele>
        <time>2022-08-04T15:23:26.000Z</time>
      </trkpt>
      <trkpt lat="49.31955" lon="-0.35346">
        <ele>6.028544</ele>
        <time>2022-08-04T15:23:27.000Z</time>
      </trkpt>
      <trkpt lat="49.31953" lon="-0.3534">
        <ele>5.980209</ele>
        <time>2022-08-04T15:23:28.000Z</time>
      </trkpt>
      <trkpt lat="49.31951" lon="-0.35333">
        <ele>5.92221</ele>
        <time>2022-08-04T15:23:29.000Z</time>
      </trkpt>
      <trkpt lat="49.31948" lon="-0.35325">
        <ele>5.855293</ele>
        <time>2022-08-04T15:23:30.000Z</time>
      </trkpt>
      <trkpt lat="49.31946" lon="-0.35318">
        <ele>5.800724</ele>
        <time>2022-08-04T15:23:31.000Z</time>
      </trkpt>
      <trkpt lat="49.31943" lon="-0.35313">
        <ele>5.754218</ele>
        <time>2022-08-04T15:23:32.000Z</time>
      </trkpt>
      <trkpt lat="49.31942" lon="-0.35307">
        <ele>5.73607</ele>
        <time>2022-08-04T15:23:33.000Z</time>
      </trkpt>
      <trkpt lat="49.31939" lon="-0.35302">
        <ele>5.714455</ele>
        <time>2022-08-04T15:23:34.000Z</time>
      </trkpt>
      <trkpt lat="49.31937" lon="-0.35296">
        <ele>5.694932</ele>
        <time>2022-08-04T15:23:35.000Z</time>
      </trkpt>
      <trkpt lat="49.31935" lon="-0.35291">
        <ele>5.674102</ele>
        <time>2022-08-04T15:23:36.000Z</time>
      </trkpt>
      <trkpt lat="49.31933" lon="-0.35285">
        <ele>5.65558</ele>
        <time>2022-08-04T15:23:37.000Z</time>
      </trkpt>
      <trkpt lat="49.31931" lon="-0.35281">
        <ele>5.63908</ele>
        <time>2022-08-04T15:23:38.000Z</time>
      </trkpt>
      <trkpt lat="49.31928" lon="-0.35275">
        <ele>5.615649</ele>
        <time>2022-08-04T15:23:39.000Z</time>
      </trkpt>
      <trkpt lat="49.31926" lon="-0.3527">
        <ele>5.597398</ele>
        <time>2022-08-04T15:23:40.000Z</time>
      </trkpt>
      <trkpt lat="49.31924" lon="-0.35264">
        <ele>5.576539</ele>
        <time>2022-08-04T15:23:41.000Z</time>
      </trkpt>
      <trkpt lat="49.31921" lon="-0.35259">
        <ele>5.556712</ele>
        <time>2022-08-04T15:23:42.000Z</time>
      </trkpt>
      <trkpt lat="49.31918" lon="-0.35254">
        <ele>5.535602</ele>
        <time>2022-08-04T15:23:43.000Z</time>
      </trkpt>
      <trkpt lat="49.31917" lon="-0.35249">
        <ele>5.519675</ele>
        <time>2022-08-04T15:23:44.000Z</time>
      </trkpt>
      <trkpt lat="49.31915" lon="-0.35243">
        <ele>5.496919</ele>
        <time>2022-08-04T15:23:45.000Z</time>
      </trkpt>
      <trkpt lat="49.31913" lon="-0.35237">
        <ele>5.4762</ele>
        <time>2022-08-04T15:23:46.000Z</time>
      </trkpt>
      <trkpt lat="49.31912" lon="-0.35231">
        <ele>5.456958</ele>
        <time>2022-08-04T15:23:47.000Z</time>
      </trkpt>
      <trkpt lat="49.3191" lon="-0.35225">
        <ele>5.437675</ele>
        <time>2022-08-04T15:23:48.000Z</time>
      </trkpt>
      <trkpt lat="49.31909" lon="-0.35219">
        <ele>5.418107</ele>
        <time>2022-08-04T15:23:49.000Z</time>
      </trkpt>
      <trkpt lat="49.31907" lon="-0.35213">
        <ele>5.398215</ele>
        <time>2022-08-04T15:23:50.000Z</time>
      </trkpt>
      <trkpt lat="49.31906" lon="-0.35207">
        <ele>5.378569</ele>
        <time>2022-08-04T15:23:51.000Z</time>
      </trkpt>
      <trkpt lat="49.31904" lon="-0.35201">
        <ele>5.357001</ele>
        <time>2022-08-04T15:23:52.000Z</time>
      </trkpt>
      <trkpt lat="49.31901" lon="-0.35195">
        <ele>5.334021</ele>
        <time>2022-08-04T15:23:53.000Z</time>
      </trkpt>
      <trkpt lat="49.319" lon="-0.35189">
        <ele>5.31541</ele>
        <time>2022-08-04T15:23:54.000Z</time>
      </trkpt>
      <trkpt lat="49.31898" lon="-0.35183">
        <ele>5.29557</ele>
        <time>2022-08-04T15:23:55.000Z</time>
      </trkpt>
      <trkpt lat="49.31897" lon="-0.35176">
        <ele>5.272521</ele>
        <time>2022-08-04T15:23:56.000Z</time>
      </trkpt>
      <trkpt lat="49.31895" lon="-0.3517">
        <ele>5.252666</ele>
        <time>2022-08-04T15:23:57.000Z</time>
      </trkpt>
      <trkpt lat="49.31893" lon="-0.35163">
        <ele>5.228819</ele>
        <time>2022-08-04T15:23:58.000Z</time>
      </trkpt>
      <trkpt lat="49.31891" lon="-0.35158">
        <ele>5.20924</ele>
        <time>2022-08-04T15:23:59.000Z</time>
      </trkpt>
      <trkpt lat="49.31889" lon="-0.35154">
        <ele>5.19423</ele>
        <time>2022-08-04T15:24:00.000Z</time>
      </trkpt>
      <trkpt lat="49.31888" lon="-0.3515">
        <ele>5.180947</ele>
        <time>2022-08-04T15:24:01.000Z</time>
      </trkpt>
      <trkpt lat="49.31887" lon="-0.35145">
        <ele>5.163206</ele>
        <time>2022-08-04T15:24:02.000Z</time>
      </trkpt>
      <trkpt lat="49.31885" lon="-0.3514">
        <ele>5.14648</ele>
        <time>2022-08-04T15:24:03.000Z</time>
      </trkpt>
      <trkpt lat="49.31884" lon="-0.35134">
        <ele>5.128459</ele>
        <time>2022-08-04T15:24:04.000Z</time>
      </trkpt>
      <trkpt lat="49.31883" lon="-0.3513">
        <ele>5.112532</ele>
        <time>2022-08-04T15:24:05.000Z</time>
      </trkpt>
      <trkpt lat="49.31881" lon="-0.35123">
        <ele>5.0885</ele>
        <time>2022-08-04T15:24:06.000Z</time>
      </trkpt>
      <trkpt lat="49.31879" lon="-0.35117">
        <ele>5.067774</ele>
        <time>2022-08-04T15:24:07.000Z</time>
      </trkpt>
      <trkpt lat="49.31877" lon="-0.35111">
        <ele>5.047055</ele>
        <time>2022-08-04T15:24:08.000Z</time>
      </trkpt>
      <trkpt lat="49.31875" lon="-0.35105">
        <ele>5.026329</ele>
        <time>2022-08-04T15:24:09.000Z</time>
      </trkpt>
      <trkpt lat="49.31873" lon="-0.35099">
        <ele>5.005603</ele>
        <time>2022-08-04T15:24:10.000Z</time>
      </trkpt>
      <trkpt lat="49.31872" lon="-0.35094">
        <ele>4.990241</ele>
        <time>2022-08-04T15:24:11.000Z</time>
      </trkpt>
      <trkpt lat="49.3187" lon="-0.35086">
        <ele>4.965239</ele>
        <time>2022-08-04T15:24:12.000Z</time>
      </trkpt>
      <trkpt lat="49.31869" lon="-0.3508">
        <ele>4.944231</ele>
        <time>2022-08-04T15:24:13.000Z</time>
      </trkpt>
      <trkpt lat="49.31867" lon="-0.35074">
        <ele>4.923505</ele>
        <time>2022-08-04T15:24:14.000Z</time>
      </trkpt>
      <trkpt lat="49.31865" lon="-0.35068">
        <ele>4.902779</ele>
        <time>2022-08-04T15:24:15.000Z</time>
      </trkpt>
      <trkpt lat="49.31863" lon="-0.35063">
        <ele>4.908775</ele>
        <time>2022-08-04T15:24:16.000Z</time>
      </trkpt>
      <trkpt lat="49.31861" lon="-0.35057">
        <ele>4.919764</ele>
        <time>2022-08-04T15:24:17.000Z</time>
      </trkpt>
      <trkpt lat="49.31859" lon="-0.3505">
        <ele>4.932461</ele>
        <time>2022-08-04T15:24:18.000Z</time>
      </trkpt>
      <trkpt lat="49.31857" lon="-0.35045">
        <ele>4.941353</ele>
        <time>2022-08-04T15:24:19.000Z</time>
      </trkpt>
      <trkpt lat="49.31856" lon="-0.35039">
        <ele>4.95185</ele>
        <time>2022-08-04T15:24:20.000Z</time>
      </trkpt>
      <trkpt lat="49.31853" lon="-0.35031">
        <ele>4.965271</ele>
        <time>2022-08-04T15:24:21.000Z</time>
      </trkpt>
      <trkpt lat="49.31851" lon="-0.35025">
        <ele>4.9764</ele>
        <time>2022-08-04T15:24:22.000Z</time>
      </trkpt>
      <trkpt lat="49.31849" lon="-0.35019">
        <ele>4.988489</ele>
        <time>2022-08-04T15:24:23.000Z</time>
      </trkpt>
      <trkpt lat="49.31846" lon="-0.35013">
        <ele>4.998804</ele>
        <time>2022-08-04T15:24:24.000Z</time>
      </trkpt>
      <trkpt lat="49.31843" lon="-0.35006">
        <ele>5.012863</ele>
        <time>2022-08-04T15:24:25.000Z</time>
      </trkpt>
      <trkpt lat="49.31841" lon="-0.34999">
        <ele>5.025037</ele>
        <time>2022-08-04T15:24:26.000Z</time>
      </trkpt>
      <trkpt lat="49.31838" lon="-0.34994">
        <ele>5.035611</ele>
        <time>2022-08-04T15:24:27.000Z</time>
      </trkpt>
      <trkpt lat="49.31836" lon="-0.34987">
        <ele>5.047841</ele>
        <time>2022-08-04T15:24:28.000Z</time>
      </trkpt>
      <trkpt lat="49.31834" lon="-0.3498">
        <ele>5.059818</ele>
        <time>2022-08-04T15:24:29.000Z</time>
      </trkpt>
      <trkpt lat="49.31831" lon="-0.34974">
        <ele>5.072403</ele>
        <time>2022-08-04T15:24:30.000Z</time>
      </trkpt>
      <trkpt lat="49.31828" lon="-0.34966">
        <ele>5.087387</ele>
        <time>2022-08-04T15:24:31.000Z</time>
      </trkpt>
      <trkpt lat="49.31825" lon="-0.3496">
        <ele>5.097831</ele>
        <time>2022-08-04T15:24:32.000Z</time>
      </trkpt>
      <trkpt lat="49.31823" lon="-0.34954">
        <ele>5.110006</ele>
        <time>2022-08-04T15:24:33.000Z</time>
      </trkpt>
      <trkpt lat="49.3182" lon="-0.34945">
        <ele>5.125538</ele>
        <time>2022-08-04T15:24:34.000Z</time>
      </trkpt>
      <trkpt lat="49.31817" lon="-0.34939">
        <ele>5.137657</ele>
        <time>2022-08-04T15:24:35.000Z</time>
      </trkpt>
      <trkpt lat="49.31815" lon="-0.34932">
        <ele>5.149746</ele>
        <time>2022-08-04T15:24:36.000Z</time>
      </trkpt>
      <trkpt lat="49.31812" lon="-0.34925">
        <ele>5.162318</ele>
        <time>2022-08-04T15:24:37.000Z</time>
      </trkpt>
      <trkpt lat="49.3181" lon="-0.34919">
        <ele>5.174357</ele>
        <time>2022-08-04T15:24:38.000Z</time>
      </trkpt>
      <trkpt lat="49.31807" lon="-0.34913">
        <ele>5.186281</ele>
        <time>2022-08-04T15:24:39.000Z</time>
      </trkpt>
      <trkpt lat="49.31804" lon="-0.34908">
        <ele>5.19572</ele>
        <time>2022-08-04T15:24:40.000Z</time>
      </trkpt>
      <trkpt lat="49.318" lon="-0.34903">
        <ele>5.208694</ele>
        <time>2022-08-04T15:24:41.000Z</time>
      </trkpt>
      <trkpt lat="49.31797" lon="-0.34899">
        <ele>5.218905</ele>
        <time>2022-08-04T15:24:42.000Z</time>
      </trkpt>
      <trkpt lat="49.31793" lon="-0.34895">
        <ele>5.22976</ele>
        <time>2022-08-04T15:24:43.000Z</time>
      </trkpt>
      <trkpt lat="49.3179" lon="-0.34892">
        <ele>5.239115</ele>
        <time>2022-08-04T15:24:44.000Z</time>
      </trkpt>
      <trkpt lat="49.31786" lon="-0.34889">
        <ele>5.250181</ele>
        <time>2022-08-04T15:24:45.000Z</time>
      </trkpt>
      <trkpt lat="49.31782" lon="-0.34885">
        <ele>5.260797</ele>
        <time>2022-08-04T15:24:46.000Z</time>
      </trkpt>
      <trkpt lat="49.3178" lon="-0.34883">
        <ele>5.269189</ele>
        <time>2022-08-04T15:24:47.000Z</time>
      </trkpt>
      <trkpt lat="49.31776" lon="-0.3488">
        <ele>5.278133</ele>
        <time>2022-08-04T15:24:48.000Z</time>
      </trkpt>
      <trkpt lat="49.31774" lon="-0.34878">
        <ele>5.284896</ele>
        <time>2022-08-04T15:24:49.000Z</time>
      </trkpt>
      <trkpt lat="49.31772" lon="-0.34877">
        <ele>5.290349</ele>
        <time>2022-08-04T15:24:50.000Z</time>
      </trkpt>
      <trkpt lat="49.3177" lon="-0.34875">
        <ele>5.296067</ele>
        <time>2022-08-04T15:24:51.000Z</time>
      </trkpt>
      <trkpt lat="49.31767" lon="-0.34874">
        <ele>5.302672</ele>
        <time>2022-08-04T15:24:52.000Z</time>
      </trkpt>
      <trkpt lat="49.31763" lon="-0.34874">
        <ele>5.311979</ele>
        <time>2022-08-04T15:24:54.000Z</time>
      </trkpt>
      <trkpt lat="49.31761" lon="-0.34875">
        <ele>5.316804</ele>
        <time>2022-08-04T15:24:55.000Z</time>
      </trkpt>
      <trkpt lat="49.31758" lon="-0.34876">
        <ele>5.324203</ele>
        <time>2022-08-04T15:24:56.000Z</time>
      </trkpt>
      <trkpt lat="49.31756" lon="-0.34878">
        <ele>5.330386</ele>
        <time>2022-08-04T15:24:57.000Z</time>
      </trkpt>
      <trkpt lat="49.31754" lon="-0.34881">
        <ele>5.337901</ele>
        <time>2022-08-04T15:24:58.000Z</time>
      </trkpt>
      <trkpt lat="49.3175" lon="-0.34883">
        <ele>5.36909</ele>
        <time>2022-08-04T15:24:59.000Z</time>
      </trkpt>
      <trkpt lat="49.31748" lon="-0.34886">
        <ele>5.410871</ele>
        <time>2022-08-04T15:25:00.000Z</time>
      </trkpt>
      <trkpt lat="49.31744" lon="-0.34889">
        <ele>5.456244</ele>
        <time>2022-08-04T15:25:01.000Z</time>
      </trkpt>
      <trkpt lat="49.31741" lon="-0.34892">
        <ele>5.507824</ele>
        <time>2022-08-04T15:25:02.000Z</time>
      </trkpt>
      <trkpt lat="49.31737" lon="-0.34895">
        <ele>5.562681</ele>
        <time>2022-08-04T15:25:03.000Z</time>
      </trkpt>
      <trkpt lat="49.31732" lon="-0.34899">
        <ele>5.624481</ele>
        <time>2022-08-04T15:25:04.000Z</time>
      </trkpt>
      <trkpt lat="49.31728" lon="-0.34902">
        <ele>5.684538</ele>
        <time>2022-08-04T15:25:05.000Z</time>
      </trkpt>
      <trkpt lat="49.31724" lon="-0.34906">
        <ele>5.739972</ele>
        <time>2022-08-04T15:25:06.000Z</time>
      </trkpt>
      <trkpt lat="49.3172" lon="-0.3491">
        <ele>5.795622</ele>
        <time>2022-08-04T15:25:07.000Z</time>
      </trkpt>
      <trkpt lat="49.31716" lon="-0.34913">
        <ele>5.852649</ele>
        <time>2022-08-04T15:25:08.000Z</time>
      </trkpt>
      <trkpt lat="49.31713" lon="-0.34916">
        <ele>5.904718</ele>
        <time>2022-08-04T15:25:09.000Z</time>
      </trkpt>
      <trkpt lat="49.3171" lon="-0.34919">
        <ele>5.945884</ele>
        <time>2022-08-04T15:25:10.000Z</time>
      </trkpt>
      <trkpt lat="49.31707" lon="-0.34922">
        <ele>5.991258</ele>
        <time>2022-08-04T15:25:11.000Z</time>
      </trkpt>
      <trkpt lat="49.31704" lon="-0.34924">
        <ele>6.027081</ele>
        <time>2022-08-04T15:25:12.000Z</time>
      </trkpt>
      <trkpt lat="49.31701" lon="-0.34923">
        <ele>6.063024</ele>
        <time>2022-08-04T15:25:13.000Z</time>
      </trkpt>
      <trkpt lat="49.31699" lon="-0.34922">
        <ele>6.093011</ele>
        <time>2022-08-04T15:25:14.000Z</time>
      </trkpt>
      <trkpt lat="49.31697" lon="-0.34919">
        <ele>6.130195</ele>
        <time>2022-08-04T15:25:15.000Z</time>
      </trkpt>
      <trkpt lat="49.31694" lon="-0.34915">
        <ele>6.169232</ele>
        <time>2022-08-04T15:25:16.000Z</time>
      </trkpt>
      <trkpt lat="49.31692" lon="-0.34912">
        <ele>6.211836</ele>
        <time>2022-08-04T15:25:17.000Z</time>
      </trkpt>
      <trkpt lat="49.31688" lon="-0.34909">
        <ele>6.260087</ele>
        <time>2022-08-04T15:25:18.000Z</time>
      </trkpt>
      <trkpt lat="49.31685" lon="-0.34907">
        <ele>6.306984</ele>
        <time>2022-08-04T15:25:19.000Z</time>
      </trkpt>
      <trkpt lat="49.31681" lon="-0.34904">
        <ele>6.360375</ele>
        <time>2022-08-04T15:25:20.000Z</time>
      </trkpt>
      <trkpt lat="49.31678" lon="-0.34899">
        <ele>6.410051</ele>
        <time>2022-08-04T15:25:21.000Z</time>
      </trkpt>
      <trkpt lat="49.31675" lon="-0.34894">
        <ele>6.470062</ele>
        <time>2022-08-04T15:25:22.000Z</time>
      </trkpt>
      <trkpt lat="49.31672" lon="-0.34888">
        <ele>6.52875</ele>
        <time>2022-08-04T15:25:23.000Z</time>
      </trkpt>
      <trkpt lat="49.31669" lon="-0.34882">
        <ele>6.585929</ele>
        <time>2022-08-04T15:25:24.000Z</time>
      </trkpt>
      <trkpt lat="49.31667" lon="-0.34876">
        <ele>6.6412</ele>
        <time>2022-08-04T15:25:25.000Z</time>
      </trkpt>
      <trkpt lat="49.31664" lon="-0.3487">
        <ele>6.699046</ele>
        <time>2022-08-04T15:25:26.000Z</time>
      </trkpt>
      <trkpt lat="49.31661" lon="-0.34865">
        <ele>6.758836</ele>
        <time>2022-08-04T15:25:27.000Z</time>
      </trkpt>
      <trkpt lat="49.31659" lon="-0.34859">
        <ele>6.815335</ele>
        <time>2022-08-04T15:25:28.000Z</time>
      </trkpt>
      <trkpt lat="49.31656" lon="-0.34853">
        <ele>6.869882</ele>
        <time>2022-08-04T15:25:29.000Z</time>
      </trkpt>
      <trkpt lat="49.31653" lon="-0.34848">
        <ele>6.926398</ele>
        <time>2022-08-04T15:25:30.000Z</time>
      </trkpt>
      <trkpt lat="49.31651" lon="-0.34842">
        <ele>6.979583</ele>
        <time>2022-08-04T15:25:31.000Z</time>
      </trkpt>
      <trkpt lat="49.31649" lon="-0.34836">
        <ele>7.034131</ele>
        <time>2022-08-04T15:25:32.000Z</time>
      </trkpt>
      <trkpt lat="49.31646" lon="-0.34831">
        <ele>7.086656</ele>
        <time>2022-08-04T15:25:33.000Z</time>
      </trkpt>
      <trkpt lat="49.31643" lon="-0.34825">
        <ele>7.15078</ele>
        <time>2022-08-04T15:25:34.000Z</time>
      </trkpt>
      <trkpt lat="49.31641" lon="-0.34821">
        <ele>7.194821</ele>
        <time>2022-08-04T15:25:35.000Z</time>
      </trkpt>
      <trkpt lat="49.31638" lon="-0.34815">
        <ele>7.24998</ele>
        <time>2022-08-04T15:25:36.000Z</time>
      </trkpt>
      <trkpt lat="49.31636" lon="-0.34809">
        <ele>7.307826</ele>
        <time>2022-08-04T15:25:37.000Z</time>
      </trkpt>
      <trkpt lat="49.31632" lon="-0.34802">
        <ele>7.376471</ele>
        <time>2022-08-04T15:25:38.000Z</time>
      </trkpt>
      <trkpt lat="49.3163" lon="-0.34798">
        <ele>7.41849</ele>
        <time>2022-08-04T15:25:39.000Z</time>
      </trkpt>
      <trkpt lat="49.31627" lon="-0.34794">
        <ele>7.469842</ele>
        <time>2022-08-04T15:25:40.000Z</time>
      </trkpt>
      <trkpt lat="49.31624" lon="-0.3479">
        <ele>7.512447</ele>
        <time>2022-08-04T15:25:41.000Z</time>
      </trkpt>
      <trkpt lat="49.31621" lon="-0.34786">
        <ele>7.557651</ele>
        <time>2022-08-04T15:25:42.000Z</time>
      </trkpt>
      <trkpt lat="49.3162" lon="-0.34782">
        <ele>7.57131</ele>
        <time>2022-08-04T15:25:43.000Z</time>
      </trkpt>
      <trkpt lat="49.31618" lon="-0.34777">
        <ele>7.586075</ele>
        <time>2022-08-04T15:25:44.000Z</time>
      </trkpt>
      <trkpt lat="49.31616" lon="-0.34772">
        <ele>7.600719</ele>
        <time>2022-08-04T15:25:45.000Z</time>
      </trkpt>
      <trkpt lat="49.31615" lon="-0.34766">
        <ele>7.616846</ele>
        <time>2022-08-04T15:25:46.000Z</time>
      </trkpt>
      <trkpt lat="49.31613" lon="-0.34761">
        <ele>7.633164</ele>
        <time>2022-08-04T15:25:47.000Z</time>
      </trkpt>
      <trkpt lat="49.31611" lon="-0.34754">
        <ele>7.65415</ele>
        <time>2022-08-04T15:25:48.000Z</time>
      </trkpt>
      <trkpt lat="49.31609" lon="-0.34749">
        <ele>7.668326</ele>
        <time>2022-08-04T15:25:49.000Z</time>
      </trkpt>
      <trkpt lat="49.31607" lon="-0.34743">
        <ele>7.68771</ele>
        <time>2022-08-04T15:25:50.000Z</time>
      </trkpt>
      <trkpt lat="49.31604" lon="-0.34736">
        <ele>7.706878</ele>
        <time>2022-08-04T15:25:51.000Z</time>
      </trkpt>
      <trkpt lat="49.31601" lon="-0.3473">
        <ele>7.728296</ele>
        <time>2022-08-04T15:25:52.000Z</time>
      </trkpt>
      <trkpt lat="49.31598" lon="-0.34723">
        <ele>7.749713</ele>
        <time>2022-08-04T15:25:53.000Z</time>
      </trkpt>
      <trkpt lat="49.31595" lon="-0.34717">
        <ele>7.770423</ele>
        <time>2022-08-04T15:25:54.000Z</time>
      </trkpt>
      <trkpt lat="49.31592" lon="-0.34711">
        <ele>7.791423</ele>
        <time>2022-08-04T15:25:55.000Z</time>
      </trkpt>
      <trkpt lat="49.31589" lon="-0.34704">
        <ele>7.811702</ele>
        <time>2022-08-04T15:25:56.000Z</time>
      </trkpt>
      <trkpt lat="49.31586" lon="-0.34697">
        <ele>7.833967</ele>
        <time>2022-08-04T15:25:57.000Z</time>
      </trkpt>
      <trkpt lat="49.31583" lon="-0.34691">
        <ele>7.854896</ele>
        <time>2022-08-04T15:25:58.000Z</time>
      </trkpt>
      <trkpt lat="49.3158" lon="-0.34684">
        <ele>7.877161</ele>
        <time>2022-08-04T15:25:59.000Z</time>
      </trkpt>
      <trkpt lat="49.31576" lon="-0.34676">
        <ele>7.901414</ele>
        <time>2022-08-04T15:26:00.000Z</time>
      </trkpt>
      <trkpt lat="49.31573" lon="-0.34669">
        <ele>7.924983</ele>
        <time>2022-08-04T15:26:01.000Z</time>
      </trkpt>
      <trkpt lat="49.3157" lon="-0.34661">
        <ele>7.948551</ele>
        <time>2022-08-04T15:26:02.000Z</time>
      </trkpt>
      <trkpt lat="49.31566" lon="-0.34654">
        <ele>7.972804</ele>
        <time>2022-08-04T15:26:03.000Z</time>
      </trkpt>
      <trkpt lat="49.31562" lon="-0.34645">
        <ele>8.001907</ele>
        <time>2022-08-04T15:26:04.000Z</time>
      </trkpt>
      <trkpt lat="49.31558" lon="-0.34638">
        <ele>8.026471</ele>
        <time>2022-08-04T15:26:05.000Z</time>
      </trkpt>
      <trkpt lat="49.31555" lon="-0.34631">
        <ele>8.046535</ele>
        <time>2022-08-04T15:26:06.000Z</time>
      </trkpt>
      <trkpt lat="49.31552" lon="-0.34624">
        <ele>8.071434</ele>
        <time>2022-08-04T15:26:07.000Z</time>
      </trkpt>
      <trkpt lat="49.31548" lon="-0.34616">
        <ele>8.096116</ele>
        <time>2022-08-04T15:26:08.000Z</time>
      </trkpt>
      <trkpt lat="49.31545" lon="-0.34608">
        <ele>8.119905</ele>
        <time>2022-08-04T15:26:09.000Z</time>
      </trkpt>
      <trkpt lat="49.31541" lon="-0.346">
        <ele>8.145962</ele>
        <time>2022-08-04T15:26:10.000Z</time>
      </trkpt>
      <trkpt lat="49.31538" lon="-0.34593">
        <ele>8.170429</ele>
        <time>2022-08-04T15:26:11.000Z</time>
      </trkpt>
      <trkpt lat="49.31535" lon="-0.34585">
        <ele>8.193812</ele>
        <time>2022-08-04T15:26:12.000Z</time>
      </trkpt>
      <trkpt lat="49.31531" lon="-0.34578">
        <ele>8.218064</ele>
        <time>2022-08-04T15:26:13.000Z</time>
      </trkpt>
      <trkpt lat="49.31528" lon="-0.3457">
        <ele>8.240977</ele>
        <time>2022-08-04T15:26:14.000Z</time>
      </trkpt>
      <trkpt lat="49.31524" lon="-0.34562">
        <ele>8.268295</ele>
        <time>2022-08-04T15:26:15.000Z</time>
      </trkpt>
      <trkpt lat="49.31522" lon="-0.34556">
        <ele>8.276961</ele>
        <time>2022-08-04T15:26:16.000Z</time>
      </trkpt>
      <trkpt lat="49.31518" lon="-0.34548">
        <ele>8.245204</ele>
        <time>2022-08-04T15:26:17.000Z</time>
      </trkpt>
      <trkpt lat="49.31515" lon="-0.34542">
        <ele>8.224486</ele>
        <time>2022-08-04T15:26:18.000Z</time>
      </trkpt>
      <trkpt lat="49.31511" lon="-0.34536">
        <ele>8.198535</ele>
        <time>2022-08-04T15:26:19.000Z</time>
      </trkpt>
      <trkpt lat="49.31508" lon="-0.3453">
        <ele>8.173125</ele>
        <time>2022-08-04T15:26:20.000Z</time>
      </trkpt>
      <trkpt lat="49.31504" lon="-0.34522">
        <ele>8.143674</ele>
        <time>2022-08-04T15:26:21.000Z</time>
      </trkpt>
      <trkpt lat="49.31501" lon="-0.34515">
        <ele>8.119496</ele>
        <time>2022-08-04T15:26:22.000Z</time>
      </trkpt>
      <trkpt lat="49.315" lon="-0.34509">
        <ele>8.098604</ele>
        <time>2022-08-04T15:26:23.000Z</time>
      </trkpt>
      <trkpt lat="49.31497" lon="-0.34502">
        <ele>8.072916</ele>
        <time>2022-08-04T15:26:24.000Z</time>
      </trkpt>
      <trkpt lat="49.31494" lon="-0.34494">
        <ele>8.046846</ele>
        <time>2022-08-04T15:26:25.000Z</time>
      </trkpt>
      <trkpt lat="49.31491" lon="-0.34487">
        <ele>8.018966</ele>
        <time>2022-08-04T15:26:26.000Z</time>
      </trkpt>
      <trkpt lat="49.31487" lon="-0.3448">
        <ele>7.992139</ele>
        <time>2022-08-04T15:26:27.000Z</time>
      </trkpt>
      <trkpt lat="49.31484" lon="-0.34472">
        <ele>7.964804</ele>
        <time>2022-08-04T15:26:28.000Z</time>
      </trkpt>
      <trkpt lat="49.31481" lon="-0.34465">
        <ele>7.93689</ele>
        <time>2022-08-04T15:26:29.000Z</time>
      </trkpt>
      <trkpt lat="49.31476" lon="-0.34456">
        <ele>7.902827</ele>
        <time>2022-08-04T15:26:30.000Z</time>
      </trkpt>
      <trkpt lat="49.31473" lon="-0.34449">
        <ele>7.875397</ele>
        <time>2022-08-04T15:26:31.000Z</time>
      </trkpt>
      <trkpt lat="49.3147" lon="-0.34443">
        <ele>7.854669</ele>
        <time>2022-08-04T15:26:32.000Z</time>
      </trkpt>
      <trkpt lat="49.31467" lon="-0.34434">
        <ele>7.82248</ele>
        <time>2022-08-04T15:26:33.000Z</time>
      </trkpt>
      <trkpt lat="49.31463" lon="-0.34427">
        <ele>7.795145</ele>
        <time>2022-08-04T15:26:34.000Z</time>
      </trkpt>
      <trkpt lat="49.3146" lon="-0.34419">
        <ele>7.767231</ele>
        <time>2022-08-04T15:26:35.000Z</time>
      </trkpt>
      <trkpt lat="49.31456" lon="-0.34412">
        <ele>7.73935</ele>
        <time>2022-08-04T15:26:36.000Z</time>
      </trkpt>
      <trkpt lat="49.31454" lon="-0.34406">
        <ele>7.717635</ele>
        <time>2022-08-04T15:26:37.000Z</time>
      </trkpt>
      <trkpt lat="49.3145" lon="-0.34398">
        <ele>7.688378</ele>
        <time>2022-08-04T15:26:38.000Z</time>
      </trkpt>
      <trkpt lat="49.31446" lon="-0.34389">
        <ele>7.655678</ele>
        <time>2022-08-04T15:26:39.000Z</time>
      </trkpt>
      <trkpt lat="49.31443" lon="-0.34382">
        <ele>7.62755</ele>
        <time>2022-08-04T15:26:40.000Z</time>
      </trkpt>
      <trkpt lat="49.3144" lon="-0.34376">
        <ele>7.606323</ele>
        <time>2022-08-04T15:26:41.000Z</time>
      </trkpt>
      <trkpt lat="49.31437" lon="-0.34368">
        <ele>7.578195</ele>
        <time>2022-08-04T15:26:42.000Z</time>
      </trkpt>
      <trkpt lat="49.31434" lon="-0.34361">
        <ele>7.551603</ele>
        <time>2022-08-04T15:26:43.000Z</time>
      </trkpt>
      <trkpt lat="49.3143" lon="-0.34352">
        <ele>7.51992</ele>
        <time>2022-08-04T15:26:44.000Z</time>
      </trkpt>
      <trkpt lat="49.31428" lon="-0.34345">
        <ele>7.494284</ele>
        <time>2022-08-04T15:26:45.000Z</time>
      </trkpt>
      <trkpt lat="49.31425" lon="-0.34339">
        <ele>7.471993</ele>
        <time>2022-08-04T15:26:46.000Z</time>
      </trkpt>
      <trkpt lat="49.31421" lon="-0.34331">
        <ele>7.442103</ele>
        <time>2022-08-04T15:26:47.000Z</time>
      </trkpt>
      <trkpt lat="49.31418" lon="-0.34324">
        <ele>7.39284</ele>
        <time>2022-08-04T15:26:48.000Z</time>
      </trkpt>
      <trkpt lat="49.31416" lon="-0.34319">
        <ele>7.355012</ele>
        <time>2022-08-04T15:26:49.000Z</time>
      </trkpt>
      <trkpt lat="49.31413" lon="-0.34313">
        <ele>7.305555</ele>
        <time>2022-08-04T15:26:50.000Z</time>
      </trkpt>
      <trkpt lat="49.31411" lon="-0.34307">
        <ele>7.265198</ele>
        <time>2022-08-04T15:26:51.000Z</time>
      </trkpt>
      <trkpt lat="49.31409" lon="-0.34302">
        <ele>7.227941</ele>
        <time>2022-08-04T15:26:52.000Z</time>
      </trkpt>
      <trkpt lat="49.31407" lon="-0.34299">
        <ele>7.198484</ele>
        <time>2022-08-04T15:26:53.000Z</time>
      </trkpt>
      <trkpt lat="49.31405" lon="-0.34296">
        <ele>7.17329</ele>
        <time>2022-08-04T15:26:54.000Z</time>
      </trkpt>
      <trkpt lat="49.31402" lon="-0.34294">
        <ele>7.147926</ele>
        <time>2022-08-04T15:26:55.000Z</time>
      </trkpt>
      <trkpt lat="49.31401" lon="-0.3429">
        <ele>7.119818</ele>
        <time>2022-08-04T15:26:57.000Z</time>
      </trkpt>
      <trkpt lat="49.31402" lon="-0.34288">
        <ele>7.101957</ele>
        <time>2022-08-04T15:27:00.000Z</time>
      </trkpt>
      <trkpt lat="49.31407" lon="-0.34275">
        <ele>7.009731</ele>
        <time>2022-08-04T15:27:13.000Z</time>
      </trkpt>
      <trkpt lat="49.31407" lon="-0.34271">
        <ele>6.98455</ele>
        <time>2022-08-04T15:27:14.000Z</time>
      </trkpt>
      <trkpt lat="49.31405" lon="-0.34268">
        <ele>6.956781</ele>
        <time>2022-08-04T15:27:15.000Z</time>
      </trkpt>
      <trkpt lat="49.31404" lon="-0.34264">
        <ele>6.932082</ele>
        <time>2022-08-04T15:27:16.000Z</time>
      </trkpt>
      <trkpt lat="49.31403" lon="-0.3426">
        <ele>6.907609</ele>
        <time>2022-08-04T15:27:17.000Z</time>
      </trkpt>
      <trkpt lat="49.31402" lon="-0.34257">
        <ele>6.881321</ele>
        <time>2022-08-04T15:27:18.000Z</time>
      </trkpt>
      <trkpt lat="49.31401" lon="-0.34253">
        <ele>6.855034</ele>
        <time>2022-08-04T15:27:19.000Z</time>
      </trkpt>
      <trkpt lat="49.31399" lon="-0.34249">
        <ele>6.827785</ele>
        <time>2022-08-04T15:27:20.000Z</time>
      </trkpt>
      <trkpt lat="49.31397" lon="-0.34245">
        <ele>6.797335</ele>
        <time>2022-08-04T15:27:21.000Z</time>
      </trkpt>
      <trkpt lat="49.31395" lon="-0.34241">
        <ele>6.764847</ele>
        <time>2022-08-04T15:27:22.000Z</time>
      </trkpt>
      <trkpt lat="49.31393" lon="-0.34236">
        <ele>6.727018</ele>
        <time>2022-08-04T15:27:23.000Z</time>
      </trkpt>
      <trkpt lat="49.31391" lon="-0.34231">
        <ele>6.687718</ele>
        <time>2022-08-04T15:27:24.000Z</time>
      </trkpt>
      <trkpt lat="49.31389" lon="-0.34225">
        <ele>6.64575</ele>
        <time>2022-08-04T15:27:25.000Z</time>
      </trkpt>
      <trkpt lat="49.31386" lon="-0.34219">
        <ele>6.598026</ele>
        <time>2022-08-04T15:27:26.000Z</time>
      </trkpt>
      <trkpt lat="49.31382" lon="-0.34212">
        <ele>6.5453</ele>
        <time>2022-08-04T15:27:27.000Z</time>
      </trkpt>
      <trkpt lat="49.31379" lon="-0.34204">
        <ele>6.488189</ele>
        <time>2022-08-04T15:27:28.000Z</time>
      </trkpt>
      <trkpt lat="49.31376" lon="-0.34197">
        <ele>6.431606</ele>
        <time>2022-08-04T15:27:29.000Z</time>
      </trkpt>
      <trkpt lat="49.31373" lon="-0.34189">
        <ele>6.372898</ele>
        <time>2022-08-04T15:27:30.000Z</time>
      </trkpt>
      <trkpt lat="49.31369" lon="-0.34181">
        <ele>6.311599</ele>
        <time>2022-08-04T15:27:31.000Z</time>
      </trkpt>
      <trkpt lat="49.31365" lon="-0.34173">
        <ele>6.24925</ele>
        <time>2022-08-04T15:27:32.000Z</time>
      </trkpt>
      <trkpt lat="49.31362" lon="-0.34164">
        <ele>6.188941</ele>
        <time>2022-08-04T15:27:33.000Z</time>
      </trkpt>
      <trkpt lat="49.31359" lon="-0.34156">
        <ele>6.126592</ele>
        <time>2022-08-04T15:27:34.000Z</time>
      </trkpt>
      <trkpt lat="49.31356" lon="-0.34148">
        <ele>6.066284</ele>
        <time>2022-08-04T15:27:35.000Z</time>
      </trkpt>
      <trkpt lat="49.31352" lon="-0.34139">
        <ele>6.005975</ele>
        <time>2022-08-04T15:27:36.000Z</time>
      </trkpt>
      <trkpt lat="49.31349" lon="-0.34131">
        <ele>5.947274</ele>
        <time>2022-08-04T15:27:37.000Z</time>
      </trkpt>
      <trkpt lat="49.31346" lon="-0.34123">
        <ele>5.885975</ele>
        <time>2022-08-04T15:27:38.000Z</time>
      </trkpt>
      <trkpt lat="49.31342" lon="-0.34115">
        <ele>5.827274</ele>
        <time>2022-08-04T15:27:39.000Z</time>
      </trkpt>
      <trkpt lat="49.31338" lon="-0.34105">
        <ele>5.754446</ele>
        <time>2022-08-04T15:27:40.000Z</time>
      </trkpt>
      <trkpt lat="49.31335" lon="-0.34097">
        <ele>5.732927</ele>
        <time>2022-08-04T15:27:41.000Z</time>
      </trkpt>
      <trkpt lat="49.31332" lon="-0.34089">
        <ele>5.780848</ele>
        <time>2022-08-04T15:27:42.000Z</time>
      </trkpt>
      <trkpt lat="49.31329" lon="-0.34081">
        <ele>5.826338</ele>
        <time>2022-08-04T15:27:43.000Z</time>
      </trkpt>
      <trkpt lat="49.31326" lon="-0.34074">
        <ele>5.865055</ele>
        <time>2022-08-04T15:27:44.000Z</time>
      </trkpt>
      <trkpt lat="49.31322" lon="-0.34065">
        <ele>5.919663</ele>
        <time>2022-08-04T15:27:45.000Z</time>
      </trkpt>
      <trkpt lat="49.31319" lon="-0.34057">
        <ele>5.967542</ele>
        <time>2022-08-04T15:27:46.000Z</time>
      </trkpt>
      <trkpt lat="49.31316" lon="-0.34049">
        <ele>6.013763</ele>
        <time>2022-08-04T15:27:47.000Z</time>
      </trkpt>
      <trkpt lat="49.31312" lon="-0.34041">
        <ele>6.059563</ele>
        <time>2022-08-04T15:27:48.000Z</time>
      </trkpt>
      <trkpt lat="49.31309" lon="-0.34035">
        <ele>6.096682</ele>
        <time>2022-08-04T15:27:49.000Z</time>
      </trkpt>
      <trkpt lat="49.31306" lon="-0.34026">
        <ele>6.147911</ele>
        <time>2022-08-04T15:27:50.000Z</time>
      </trkpt>
      <trkpt lat="49.31303" lon="-0.34019">
        <ele>6.19329</ele>
        <time>2022-08-04T15:27:51.000Z</time>
      </trkpt>
      <trkpt lat="49.313" lon="-0.34011">
        <ele>6.23909</ele>
        <time>2022-08-04T15:27:52.000Z</time>
      </trkpt>
      <trkpt lat="49.31296" lon="-0.34003">
        <ele>6.285739</ele>
        <time>2022-08-04T15:27:53.000Z</time>
      </trkpt>
      <trkpt lat="49.31293" lon="-0.33995">
        <ele>6.331539</ele>
        <time>2022-08-04T15:27:54.000Z</time>
      </trkpt>
      <trkpt lat="49.31289" lon="-0.33987">
        <ele>6.380248</ele>
        <time>2022-08-04T15:27:55.000Z</time>
      </trkpt>
      <trkpt lat="49.31287" lon="-0.33981">
        <ele>6.417002</ele>
        <time>2022-08-04T15:27:56.000Z</time>
      </trkpt>
      <trkpt lat="49.31285" lon="-0.33972">
        <ele>6.462439</ele>
        <time>2022-08-04T15:27:57.000Z</time>
      </trkpt>
      <trkpt lat="49.31281" lon="-0.33962">
        <ele>6.52035</ele>
        <time>2022-08-04T15:27:58.000Z</time>
      </trkpt>
      <trkpt lat="49.31277" lon="-0.33954">
        <ele>6.566994</ele>
        <time>2022-08-04T15:27:59.000Z</time>
      </trkpt>
      <trkpt lat="49.31274" lon="-0.33946">
        <ele>6.614874</ele>
        <time>2022-08-04T15:28:00.000Z</time>
      </trkpt>
      <trkpt lat="49.31271" lon="-0.3394">
        <ele>6.650262</ele>
        <time>2022-08-04T15:28:01.000Z</time>
      </trkpt>
      <trkpt lat="49.31268" lon="-0.33932">
        <ele>6.698162</ele>
        <time>2022-08-04T15:28:02.000Z</time>
      </trkpt>
      <trkpt lat="49.31265" lon="-0.33923">
        <ele>6.749546</ele>
        <time>2022-08-04T15:28:03.000Z</time>
      </trkpt>
      <trkpt lat="49.31261" lon="-0.33916">
        <ele>6.796195</ele>
        <time>2022-08-04T15:28:04.000Z</time>
      </trkpt>
      <trkpt lat="49.31258" lon="-0.33908">
        <ele>6.841228</ele>
        <time>2022-08-04T15:28:05.000Z</time>
      </trkpt>
      <trkpt lat="49.31255" lon="-0.33901">
        <ele>6.884563</ele>
        <time>2022-08-04T15:28:06.000Z</time>
      </trkpt>
      <trkpt lat="49.31252" lon="-0.33895">
        <ele>6.920793</ele>
        <time>2022-08-04T15:28:07.000Z</time>
      </trkpt>
      <trkpt lat="49.31248" lon="-0.33886">
        <ele>6.974499</ele>
        <time>2022-08-04T15:28:08.000Z</time>
      </trkpt>
      <trkpt lat="49.31245" lon="-0.33878">
        <ele>7.016983</ele>
        <time>2022-08-04T15:28:09.000Z</time>
      </trkpt>
      <trkpt lat="49.31242" lon="-0.33871">
        <ele>7.062417</ele>
        <time>2022-08-04T15:28:10.000Z</time>
      </trkpt>
      <trkpt lat="49.31239" lon="-0.33863">
        <ele>7.102226</ele>
        <time>2022-08-04T15:28:11.000Z</time>
      </trkpt>
      <trkpt lat="49.31236" lon="-0.33856">
        <ele>7.137377</ele>
        <time>2022-08-04T15:28:12.000Z</time>
      </trkpt>
      <trkpt lat="49.31234" lon="-0.33849">
        <ele>7.165817</ele>
        <time>2022-08-04T15:28:13.000Z</time>
      </trkpt>
      <trkpt lat="49.3123" lon="-0.3384">
        <ele>7.208629</ele>
        <time>2022-08-04T15:28:14.000Z</time>
      </trkpt>
      <trkpt lat="49.31228" lon="-0.33832">
        <ele>7.244427</ele>
        <time>2022-08-04T15:28:15.000Z</time>
      </trkpt>
      <trkpt lat="49.31224" lon="-0.33825">
        <ele>7.282297</ele>
        <time>2022-08-04T15:28:16.000Z</time>
      </trkpt>
      <trkpt lat="49.31221" lon="-0.33817">
        <ele>7.319377</ele>
        <time>2022-08-04T15:28:17.000Z</time>
      </trkpt>
      <trkpt lat="49.31217" lon="-0.33809">
        <ele>7.356119</ele>
        <time>2022-08-04T15:28:18.000Z</time>
      </trkpt>
      <trkpt lat="49.31214" lon="-0.33801">
        <ele>7.392861</ele>
        <time>2022-08-04T15:28:19.000Z</time>
      </trkpt>
      <trkpt lat="49.31212" lon="-0.33795">
        <ele>7.421301</ele>
        <time>2022-08-04T15:28:20.000Z</time>
      </trkpt>
      <trkpt lat="49.31208" lon="-0.33786">
        <ele>7.466061</ele>
        <time>2022-08-04T15:28:21.000Z</time>
      </trkpt>
      <trkpt lat="49.31205" lon="-0.33778">
        <ele>7.503141</ele>
        <time>2022-08-04T15:28:22.000Z</time>
      </trkpt>
      <trkpt lat="49.31202" lon="-0.3377">
        <ele>7.53894</ele>
        <time>2022-08-04T15:28:23.000Z</time>
      </trkpt>
      <trkpt lat="49.31198" lon="-0.33762">
        <ele>7.576691</ele>
        <time>2022-08-04T15:28:24.000Z</time>
      </trkpt>
      <trkpt lat="49.31195" lon="-0.33754">
        <ele>7.613884</ele>
        <time>2022-08-04T15:28:25.000Z</time>
      </trkpt>
      <trkpt lat="49.31192" lon="-0.33746">
        <ele>7.652295</ele>
        <time>2022-08-04T15:28:26.000Z</time>
      </trkpt>
      <trkpt lat="49.31189" lon="-0.33738">
        <ele>7.689037</ele>
        <time>2022-08-04T15:28:27.000Z</time>
      </trkpt>
      <trkpt lat="49.31185" lon="-0.33731">
        <ele>7.725443</ele>
        <time>2022-08-04T15:28:28.000Z</time>
      </trkpt>
      <trkpt lat="49.31182" lon="-0.33723">
        <ele>7.762866</ele>
        <time>2022-08-04T15:28:29.000Z</time>
      </trkpt>
      <trkpt lat="49.31179" lon="-0.33715">
        <ele>7.798936</ele>
        <time>2022-08-04T15:28:30.000Z</time>
      </trkpt>
      <trkpt lat="49.31175" lon="-0.33708">
        <ele>7.835342</ele>
        <time>2022-08-04T15:28:31.000Z</time>
      </trkpt>
      <trkpt lat="49.31172" lon="-0.337">
        <ele>7.872762</ele>
        <time>2022-08-04T15:28:32.000Z</time>
      </trkpt>
      <trkpt lat="49.31169" lon="-0.33692">
        <ele>7.910863</ele>
        <time>2022-08-04T15:28:33.000Z</time>
      </trkpt>
      <trkpt lat="49.31166" lon="-0.33684">
        <ele>7.946713</ele>
        <time>2022-08-04T15:28:34.000Z</time>
      </trkpt>
      <trkpt lat="49.31163" lon="-0.33676">
        <ele>7.982783</ele>
        <time>2022-08-04T15:28:35.000Z</time>
      </trkpt>
      <trkpt lat="49.31159" lon="-0.33669">
        <ele>8.018186</ele>
        <time>2022-08-04T15:28:36.000Z</time>
      </trkpt>
      <trkpt lat="49.31156" lon="-0.33661">
        <ele>8.05564</ele>
        <time>2022-08-04T15:28:37.000Z</time>
      </trkpt>
      <trkpt lat="49.31153" lon="-0.33654">
        <ele>8.092045</ele>
        <time>2022-08-04T15:28:38.000Z</time>
      </trkpt>
      <trkpt lat="49.31149" lon="-0.33646">
        <ele>8.129465</ele>
        <time>2022-08-04T15:28:39.000Z</time>
      </trkpt>
      <trkpt lat="49.31146" lon="-0.33638">
        <ele>8.166208</ele>
        <time>2022-08-04T15:28:40.000Z</time>
      </trkpt>
      <trkpt lat="49.31143" lon="-0.3363">
        <ele>8.186689</ele>
        <time>2022-08-04T15:28:41.000Z</time>
      </trkpt>
      <trkpt lat="49.3114" lon="-0.33622">
        <ele>8.187896</ele>
        <time>2022-08-04T15:28:42.000Z</time>
      </trkpt>
      <trkpt lat="49.31136" lon="-0.33614">
        <ele>8.189125</ele>
        <time>2022-08-04T15:28:43.000Z</time>
      </trkpt>
      <trkpt lat="49.31133" lon="-0.33606">
        <ele>8.190376</ele>
        <time>2022-08-04T15:28:44.000Z</time>
      </trkpt>
      <trkpt lat="49.3113" lon="-0.33598">
        <ele>8.191541</ele>
        <time>2022-08-04T15:28:45.000Z</time>
      </trkpt>
      <trkpt lat="49.31126" lon="-0.3359">
        <ele>8.192781</ele>
        <time>2022-08-04T15:28:46.000Z</time>
      </trkpt>
      <trkpt lat="49.31123" lon="-0.33582">
        <ele>8.193999</ele>
        <time>2022-08-04T15:28:47.000Z</time>
      </trkpt>
      <trkpt lat="49.3112" lon="-0.33574">
        <ele>8.195187</ele>
        <time>2022-08-04T15:28:48.000Z</time>
      </trkpt>
      <trkpt lat="49.31117" lon="-0.33567">
        <ele>8.196383</ele>
        <time>2022-08-04T15:28:49.000Z</time>
      </trkpt>
      <trkpt lat="49.31114" lon="-0.33559">
        <ele>8.19758</ele>
        <time>2022-08-04T15:28:50.000Z</time>
      </trkpt>
      <trkpt lat="49.31111" lon="-0.33551">
        <ele>8.198787</ele>
        <time>2022-08-04T15:28:51.000Z</time>
      </trkpt>
      <trkpt lat="49.31107" lon="-0.33543">
        <ele>8.199995</ele>
        <time>2022-08-04T15:28:52.000Z</time>
      </trkpt>
      <trkpt lat="49.31104" lon="-0.33535">
        <ele>8.201171</ele>
        <time>2022-08-04T15:28:53.000Z</time>
      </trkpt>
      <trkpt lat="49.31101" lon="-0.33528">
        <ele>8.2024</ele>
        <time>2022-08-04T15:28:54.000Z</time>
      </trkpt>
      <trkpt lat="49.31098" lon="-0.3352">
        <ele>8.203589</ele>
        <time>2022-08-04T15:28:55.000Z</time>
      </trkpt>
      <trkpt lat="49.31094" lon="-0.33512">
        <ele>8.204839</ele>
        <time>2022-08-04T15:28:56.000Z</time>
      </trkpt>
      <trkpt lat="49.31091" lon="-0.33504">
        <ele>8.206057</ele>
        <time>2022-08-04T15:28:57.000Z</time>
      </trkpt>
      <trkpt lat="49.31088" lon="-0.33496">
        <ele>8.207245</ele>
        <time>2022-08-04T15:28:58.000Z</time>
      </trkpt>
      <trkpt lat="49.31085" lon="-0.33488">
        <ele>8.208474</ele>
        <time>2022-08-04T15:28:59.000Z</time>
      </trkpt>
      <trkpt lat="49.31081" lon="-0.3348">
        <ele>8.209693</ele>
        <time>2022-08-04T15:29:00.000Z</time>
      </trkpt>
      <trkpt lat="49.31078" lon="-0.33472">
        <ele>8.210889</ele>
        <time>2022-08-04T15:29:01.000Z</time>
      </trkpt>
      <trkpt lat="49.31075" lon="-0.33464">
        <ele>8.212183</ele>
        <time>2022-08-04T15:29:02.000Z</time>
      </trkpt>
      <trkpt lat="49.31071" lon="-0.33456">
        <ele>8.213412</ele>
        <time>2022-08-04T15:29:03.000Z</time>
      </trkpt>
      <trkpt lat="49.31069" lon="-0.33449">
        <ele>8.214395</ele>
        <time>2022-08-04T15:29:04.000Z</time>
      </trkpt>
      <trkpt lat="49.31065" lon="-0.3344">
        <ele>8.215874</ele>
        <time>2022-08-04T15:29:05.000Z</time>
      </trkpt>
      <trkpt lat="49.31062" lon="-0.33433">
        <ele>8.216831</ele>
        <time>2022-08-04T15:29:06.000Z</time>
      </trkpt>
      <trkpt lat="49.31059" lon="-0.33424">
        <ele>8.218256</ele>
        <time>2022-08-04T15:29:07.000Z</time>
      </trkpt>
      <trkpt lat="49.31055" lon="-0.33416">
        <ele>8.219441</ele>
        <time>2022-08-04T15:29:08.000Z</time>
      </trkpt>
      <trkpt lat="49.31053" lon="-0.33409">
        <ele>8.220606</ele>
        <time>2022-08-04T15:29:09.000Z</time>
      </trkpt>
      <trkpt lat="49.31049" lon="-0.33401">
        <ele>8.221802</ele>
        <time>2022-08-04T15:29:10.000Z</time>
      </trkpt>
      <trkpt lat="49.31046" lon="-0.33393">
        <ele>8.231979</ele>
        <time>2022-08-04T15:29:11.000Z</time>
      </trkpt>
      <trkpt lat="49.31043" lon="-0.33385">
        <ele>8.242574</ele>
        <time>2022-08-04T15:29:12.000Z</time>
      </trkpt>
      <trkpt lat="49.31039" lon="-0.33378">
        <ele>8.253072</ele>
        <time>2022-08-04T15:29:13.000Z</time>
      </trkpt>
      <trkpt lat="49.31036" lon="-0.3337">
        <ele>8.264169</ele>
        <time>2022-08-04T15:29:14.000Z</time>
      </trkpt>
      <trkpt lat="49.31033" lon="-0.33362">
        <ele>8.274495</ele>
        <time>2022-08-04T15:29:15.000Z</time>
      </trkpt>
      <trkpt lat="49.31029" lon="-0.33355">
        <ele>8.285688</ele>
        <time>2022-08-04T15:29:16.000Z</time>
      </trkpt>
      <trkpt lat="49.31027" lon="-0.33348">
        <ele>8.294265</ele>
        <time>2022-08-04T15:29:17.000Z</time>
      </trkpt>
      <trkpt lat="49.31024" lon="-0.33338">
        <ele>8.30725</ele>
        <time>2022-08-04T15:29:18.000Z</time>
      </trkpt>
      <trkpt lat="49.31021" lon="-0.33331">
        <ele>8.318043</ele>
        <time>2022-08-04T15:29:19.000Z</time>
      </trkpt>
      <trkpt lat="49.31017" lon="-0.33323">
        <ele>8.329463</ele>
        <time>2022-08-04T15:29:20.000Z</time>
      </trkpt>
      <trkpt lat="49.31014" lon="-0.33317">
        <ele>8.3382</ele>
        <time>2022-08-04T15:29:21.000Z</time>
      </trkpt>
      <trkpt lat="49.31011" lon="-0.33309">
        <ele>8.348818</ele>
        <time>2022-08-04T15:29:22.000Z</time>
      </trkpt>
      <trkpt lat="49.31007" lon="-0.33299">
        <ele>8.362262</ele>
        <time>2022-08-04T15:29:23.000Z</time>
      </trkpt>
      <trkpt lat="49.31004" lon="-0.33291">
        <ele>8.373354</ele>
        <time>2022-08-04T15:29:24.000Z</time>
      </trkpt>
      <trkpt lat="49.31001" lon="-0.33285">
        <ele>8.381931</ele>
        <time>2022-08-04T15:29:25.000Z</time>
      </trkpt>
      <trkpt lat="49.30998" lon="-0.33277">
        <ele>8.393215</ele>
        <time>2022-08-04T15:29:26.000Z</time>
      </trkpt>
      <trkpt lat="49.30995" lon="-0.33269">
        <ele>8.403833</ele>
        <time>2022-08-04T15:29:27.000Z</time>
      </trkpt>
      <trkpt lat="49.30991" lon="-0.3326">
        <ele>8.416784</ele>
        <time>2022-08-04T15:29:28.000Z</time>
      </trkpt>
      <trkpt lat="49.30987" lon="-0.33252">
        <ele>8.428094</ele>
        <time>2022-08-04T15:29:29.000Z</time>
      </trkpt>
      <trkpt lat="49.30984" lon="-0.33244">
        <ele>8.439087</ele>
        <time>2022-08-04T15:29:30.000Z</time>
      </trkpt>
      <trkpt lat="49.30981" lon="-0.33236">
        <ele>8.44991</ele>
        <time>2022-08-04T15:29:31.000Z</time>
      </trkpt>
      <trkpt lat="49.30978" lon="-0.33228">
        <ele>8.461096</ele>
        <time>2022-08-04T15:29:32.000Z</time>
      </trkpt>
      <trkpt lat="49.30974" lon="-0.3322">
        <ele>8.471899</ele>
        <time>2022-08-04T15:29:33.000Z</time>
      </trkpt>
      <trkpt lat="49.30971" lon="-0.33213">
        <ele>8.482212</ele>
        <time>2022-08-04T15:29:34.000Z</time>
      </trkpt>
      <trkpt lat="49.30968" lon="-0.33205">
        <ele>8.493105</ele>
        <time>2022-08-04T15:29:35.000Z</time>
      </trkpt>
      <trkpt lat="49.30965" lon="-0.33197">
        <ele>8.503419</ele>
        <time>2022-08-04T15:29:36.000Z</time>
      </trkpt>
      <trkpt lat="49.30962" lon="-0.33191">
        <ele>8.512355</ele>
        <time>2022-08-04T15:29:37.000Z</time>
      </trkpt>
      <trkpt lat="49.30958" lon="-0.33182">
        <ele>8.525111</ele>
        <time>2022-08-04T15:29:38.000Z</time>
      </trkpt>
      <trkpt lat="49.30956" lon="-0.33174">
        <ele>8.535424</ele>
        <time>2022-08-04T15:29:39.000Z</time>
      </trkpt>
      <trkpt lat="49.30952" lon="-0.33167">
        <ele>8.542654</ele>
        <time>2022-08-04T15:29:40.000Z</time>
      </trkpt>
      <trkpt lat="49.30949" lon="-0.33159">
        <ele>8.524694</ele>
        <time>2022-08-04T15:29:41.000Z</time>
      </trkpt>
      <trkpt lat="49.30946" lon="-0.33151">
        <ele>8.505738</ele>
        <time>2022-08-04T15:29:42.000Z</time>
      </trkpt>
      <trkpt lat="49.30943" lon="-0.33144">
        <ele>8.488472</ele>
        <time>2022-08-04T15:29:43.000Z</time>
      </trkpt>
      <trkpt lat="49.3094" lon="-0.33136">
        <ele>8.470706</ele>
        <time>2022-08-04T15:29:44.000Z</time>
      </trkpt>
      <trkpt lat="49.30937" lon="-0.33129">
        <ele>8.45325</ele>
        <time>2022-08-04T15:29:45.000Z</time>
      </trkpt>
      <trkpt lat="49.30933" lon="-0.33121">
        <ele>8.43444</ele>
        <time>2022-08-04T15:29:46.000Z</time>
      </trkpt>
      <trkpt lat="49.3093" lon="-0.33114">
        <ele>8.416337</ele>
        <time>2022-08-04T15:29:47.000Z</time>
      </trkpt>
      <trkpt lat="49.30928" lon="-0.33106">
        <ele>8.399324</ele>
        <time>2022-08-04T15:29:48.000Z</time>
      </trkpt>
      <trkpt lat="49.30925" lon="-0.33099">
        <ele>8.382057</ele>
        <time>2022-08-04T15:29:49.000Z</time>
      </trkpt>
      <trkpt lat="49.30922" lon="-0.33092">
        <ele>8.365433</ele>
        <time>2022-08-04T15:29:50.000Z</time>
      </trkpt>
      <trkpt lat="49.30919" lon="-0.33085">
        <ele>8.349022</ele>
        <time>2022-08-04T15:29:51.000Z</time>
      </trkpt>
      <trkpt lat="49.30916" lon="-0.33079">
        <ele>8.333455</ele>
        <time>2022-08-04T15:29:52.000Z</time>
      </trkpt>
      <trkpt lat="49.30914" lon="-0.33073">
        <ele>8.319223</ele>
        <time>2022-08-04T15:29:53.000Z</time>
      </trkpt>
      <trkpt lat="49.30912" lon="-0.33067">
        <ele>8.304966</ele>
        <time>2022-08-04T15:29:54.000Z</time>
      </trkpt>
      <trkpt lat="49.30909" lon="-0.33061">
        <ele>8.291255</ele>
        <time>2022-08-04T15:29:55.000Z</time>
      </trkpt>
      <trkpt lat="49.30908" lon="-0.33056">
        <ele>8.279216</ele>
        <time>2022-08-04T15:29:56.000Z</time>
      </trkpt>
      <trkpt lat="49.30906" lon="-0.33052">
        <ele>8.270079</ele>
        <time>2022-08-04T15:29:57.000Z</time>
      </trkpt>
      <trkpt lat="49.30904" lon="-0.33047">
        <ele>8.25804</ele>
        <time>2022-08-04T15:29:58.000Z</time>
      </trkpt>
      <trkpt lat="49.30901" lon="-0.33041">
        <ele>8.243489</ele>
        <time>2022-08-04T15:29:59.000Z</time>
      </trkpt>
      <trkpt lat="49.30899" lon="-0.33036">
        <ele>8.232608</ele>
        <time>2022-08-04T15:30:00.000Z</time>
      </trkpt>
      <trkpt lat="49.30896" lon="-0.33031">
        <ele>8.217845</ele>
        <time>2022-08-04T15:30:01.000Z</time>
      </trkpt>
      <trkpt lat="49.30894" lon="-0.33024">
        <ele>8.202949</ele>
        <time>2022-08-04T15:30:02.000Z</time>
      </trkpt>
      <trkpt lat="49.30891" lon="-0.33017">
        <ele>8.185847</ele>
        <time>2022-08-04T15:30:03.000Z</time>
      </trkpt>
      <trkpt lat="49.30887" lon="-0.3301">
        <ele>8.167096</ele>
        <time>2022-08-04T15:30:04.000Z</time>
      </trkpt>
      <trkpt lat="49.30884" lon="-0.33003">
        <ele>8.148993</ele>
        <time>2022-08-04T15:30:05.000Z</time>
      </trkpt>
      <trkpt lat="49.3088" lon="-0.32995">
        <ele>8.129701</ele>
        <time>2022-08-04T15:30:06.000Z</time>
      </trkpt>
      <trkpt lat="49.30876" lon="-0.32987">
        <ele>8.10971</ele>
        <time>2022-08-04T15:30:07.000Z</time>
      </trkpt>
      <trkpt lat="49.30871" lon="-0.32977">
        <ele>8.085435</ele>
        <time>2022-08-04T15:30:08.000Z</time>
      </trkpt>
      <trkpt lat="49.30868" lon="-0.3297">
        <ele>8.065901</ele>
        <time>2022-08-04T15:30:09.000Z</time>
      </trkpt>
      <trkpt lat="49.30863" lon="-0.32962">
        <ele>8.045463</ele>
        <time>2022-08-04T15:30:10.000Z</time>
      </trkpt>
      <trkpt lat="49.3086" lon="-0.32955">
        <ele>8.026338</ele>
        <time>2022-08-04T15:30:11.000Z</time>
      </trkpt>
      <trkpt lat="49.30856" lon="-0.32948">
        <ele>8.010367</ele>
        <time>2022-08-04T15:30:12.000Z</time>
      </trkpt>
      <trkpt lat="49.30852" lon="-0.32939">
        <ele>7.987172</ele>
        <time>2022-08-04T15:30:13.000Z</time>
      </trkpt>
      <trkpt lat="49.30848" lon="-0.32932">
        <ele>7.953402</ele>
        <time>2022-08-04T15:30:14.000Z</time>
      </trkpt>
      <trkpt lat="49.30845" lon="-0.32926">
        <ele>7.925277</ele>
        <time>2022-08-04T15:30:15.000Z</time>
      </trkpt>
      <trkpt lat="49.30841" lon="-0.32918">
        <ele>7.892757</ele>
        <time>2022-08-04T15:30:16.000Z</time>
      </trkpt>
      <trkpt lat="49.30837" lon="-0.32909">
        <ele>7.852766</ele>
        <time>2022-08-04T15:30:17.000Z</time>
      </trkpt>
      <trkpt lat="49.30833" lon="-0.32902">
        <ele>7.818941</ele>
        <time>2022-08-04T15:30:18.000Z</time>
      </trkpt>
      <trkpt lat="49.30829" lon="-0.32894">
        <ele>7.785451</ele>
        <time>2022-08-04T15:30:19.000Z</time>
      </trkpt>
      <trkpt lat="49.30825" lon="-0.32887">
        <ele>7.752514</ele>
        <time>2022-08-04T15:30:20.000Z</time>
      </trkpt>
      <trkpt lat="49.30821" lon="-0.32879">
        <ele>7.718135</ele>
        <time>2022-08-04T15:30:21.000Z</time>
      </trkpt>
      <trkpt lat="49.30817" lon="-0.32872">
        <ele>7.685198</ele>
        <time>2022-08-04T15:30:22.000Z</time>
      </trkpt>
      <trkpt lat="49.30814" lon="-0.32864">
        <ele>7.653002</ele>
        <time>2022-08-04T15:30:23.000Z</time>
      </trkpt>
      <trkpt lat="49.3081" lon="-0.32857">
        <ele>7.617874</ele>
        <time>2022-08-04T15:30:24.000Z</time>
      </trkpt>
      <trkpt lat="49.30806" lon="-0.32849">
        <ele>7.584384</ele>
        <time>2022-08-04T15:30:25.000Z</time>
      </trkpt>
      <trkpt lat="49.30802" lon="-0.32842">
        <ele>7.550558</ele>
        <time>2022-08-04T15:30:26.000Z</time>
      </trkpt>
      <trkpt lat="49.30798" lon="-0.32834">
        <ele>7.516508</ele>
        <time>2022-08-04T15:30:27.000Z</time>
      </trkpt>
      <trkpt lat="49.30795" lon="-0.32826">
        <ele>7.482458</ele>
        <time>2022-08-04T15:30:28.000Z</time>
      </trkpt>
      <trkpt lat="49.3079" lon="-0.32819">
        <ele>7.448655</ele>
        <time>2022-08-04T15:30:29.000Z</time>
      </trkpt>
      <trkpt lat="49.30787" lon="-0.32812">
        <ele>7.416135</ele>
        <time>2022-08-04T15:30:30.000Z</time>
      </trkpt>
      <trkpt lat="49.30783" lon="-0.32805">
        <ele>7.383669</ele>
        <time>2022-08-04T15:30:31.000Z</time>
      </trkpt>
      <trkpt lat="49.30779" lon="-0.32798">
        <ele>7.351007</ele>
        <time>2022-08-04T15:30:32.000Z</time>
      </trkpt>
      <trkpt lat="49.30777" lon="-0.32792">
        <ele>7.326479</ele>
        <time>2022-08-04T15:30:33.000Z</time>
      </trkpt>
      <trkpt lat="49.30773" lon="-0.32783">
        <ele>7.289198</ele>
        <time>2022-08-04T15:30:34.000Z</time>
      </trkpt>
      <trkpt lat="49.30769" lon="-0.32776">
        <ele>7.258095</ele>
        <time>2022-08-04T15:30:35.000Z</time>
      </trkpt>
      <trkpt lat="49.30765" lon="-0.32769">
        <ele>7.226659</ele>
        <time>2022-08-04T15:30:36.000Z</time>
      </trkpt>
      <trkpt lat="49.30763" lon="-0.32762">
        <ele>7.197401</ele>
        <time>2022-08-04T15:30:37.000Z</time>
      </trkpt>
      <trkpt lat="49.3076" lon="-0.32757">
        <ele>7.17246</ele>
        <time>2022-08-04T15:30:38.000Z</time>
      </trkpt>
      <trkpt lat="49.30756" lon="-0.32748">
        <ele>7.135136</ele>
        <time>2022-08-04T15:30:39.000Z</time>
      </trkpt>
      <trkpt lat="49.30752" lon="-0.32741">
        <ele>7.101645</ele>
        <time>2022-08-04T15:30:40.000Z</time>
      </trkpt>
      <trkpt lat="49.30749" lon="-0.32735">
        <ele>7.075948</ele>
        <time>2022-08-04T15:30:41.000Z</time>
      </trkpt>
      <trkpt lat="49.30745" lon="-0.32727">
        <ele>7.041333</ele>
        <time>2022-08-04T15:30:42.000Z</time>
      </trkpt>
      <trkpt lat="49.30741" lon="-0.32718">
        <ele>6.999909</ele>
        <time>2022-08-04T15:30:43.000Z</time>
      </trkpt>
      <trkpt lat="49.30737" lon="-0.3271">
        <ele>6.95819</ele>
        <time>2022-08-04T15:30:44.000Z</time>
      </trkpt>
      <trkpt lat="49.30733" lon="-0.32702">
        <ele>6.916382</ele>
        <time>2022-08-04T15:30:45.000Z</time>
      </trkpt>
      <trkpt lat="49.30729" lon="-0.32694">
        <ele>6.874846</ele>
        <time>2022-08-04T15:30:46.000Z</time>
      </trkpt>
      <trkpt lat="49.30725" lon="-0.32686">
        <ele>6.832069</ele>
        <time>2022-08-04T15:30:47.000Z</time>
      </trkpt>
      <trkpt lat="49.30722" lon="-0.3268">
        <ele>6.796693</ele>
        <time>2022-08-04T15:30:48.000Z</time>
      </trkpt>
      <trkpt lat="49.30717" lon="-0.3267">
        <ele>6.747416</ele>
        <time>2022-08-04T15:30:49.000Z</time>
      </trkpt>
      <trkpt lat="49.30713" lon="-0.32663">
        <ele>6.70537</ele>
        <time>2022-08-04T15:30:50.000Z</time>
      </trkpt>
      <trkpt lat="49.30709" lon="-0.32655">
        <ele>6.664453</ele>
        <time>2022-08-04T15:30:51.000Z</time>
      </trkpt>
      <trkpt lat="49.30705" lon="-0.32647">
        <ele>6.624262</ele>
        <time>2022-08-04T15:30:52.000Z</time>
      </trkpt>
      <trkpt lat="49.30702" lon="-0.3264">
        <ele>6.584871</ele>
        <time>2022-08-04T15:30:53.000Z</time>
      </trkpt>
      <trkpt lat="49.30698" lon="-0.32632">
        <ele>6.543622</ele>
        <time>2022-08-04T15:30:54.000Z</time>
      </trkpt>
      <trkpt lat="49.30694" lon="-0.32624">
        <ele>6.503096</ele>
        <time>2022-08-04T15:30:55.000Z</time>
      </trkpt>
      <trkpt lat="49.3069" lon="-0.32617">
        <ele>6.461607</ele>
        <time>2022-08-04T15:30:56.000Z</time>
      </trkpt>
      <trkpt lat="49.30686" lon="-0.32609">
        <ele>6.421081</ele>
        <time>2022-08-04T15:30:57.000Z</time>
      </trkpt>
      <trkpt lat="49.30684" lon="-0.32603">
        <ele>6.390848</ele>
        <time>2022-08-04T15:30:58.000Z</time>
      </trkpt>
      <trkpt lat="49.30679" lon="-0.32594">
        <ele>6.342919</ele>
        <time>2022-08-04T15:30:59.000Z</time>
      </trkpt>
      <trkpt lat="49.30675" lon="-0.32586">
        <ele>6.302393</ele>
        <time>2022-08-04T15:31:00.000Z</time>
      </trkpt>
      <trkpt lat="49.30671" lon="-0.32578">
        <ele>6.261868</ele>
        <time>2022-08-04T15:31:01.000Z</time>
      </trkpt>
      <trkpt lat="49.30668" lon="-0.32571">
        <ele>6.22161</ele>
        <time>2022-08-04T15:31:02.000Z</time>
      </trkpt>
      <trkpt lat="49.30664" lon="-0.32563">
        <ele>6.181874</ele>
        <time>2022-08-04T15:31:03.000Z</time>
      </trkpt>
      <trkpt lat="49.3066" lon="-0.32555">
        <ele>6.141349</ele>
        <time>2022-08-04T15:31:04.000Z</time>
      </trkpt>
      <trkpt lat="49.30657" lon="-0.32548">
        <ele>6.103735</ele>
        <time>2022-08-04T15:31:05.000Z</time>
      </trkpt>
      <trkpt lat="49.30653" lon="-0.3254">
        <ele>6.063477</ele>
        <time>2022-08-04T15:31:06.000Z</time>
      </trkpt>
      <trkpt lat="49.3065" lon="-0.32534">
        <ele>6.030621</ele>
        <time>2022-08-04T15:31:07.000Z</time>
      </trkpt>
      <trkpt lat="49.30645" lon="-0.32525">
        <ele>5.981173</ele>
        <time>2022-08-04T15:31:08.000Z</time>
      </trkpt>
      <trkpt lat="49.30642" lon="-0.32519">
        <ele>5.947989</ele>
        <time>2022-08-04T15:31:09.000Z</time>
      </trkpt>
      <trkpt lat="49.30638" lon="-0.32511">
        <ele>5.906917</ele>
        <time>2022-08-04T15:31:10.000Z</time>
      </trkpt>
      <trkpt lat="49.30632" lon="-0.32503">
        <ele>5.85656</ele>
        <time>2022-08-04T15:31:11.000Z</time>
      </trkpt>
      <trkpt lat="49.30628" lon="-0.32496">
        <ele>5.822006</ele>
        <time>2022-08-04T15:31:12.000Z</time>
      </trkpt>
      <trkpt lat="49.30624" lon="-0.3249">
        <ele>5.795379</ele>
        <time>2022-08-04T15:31:13.000Z</time>
      </trkpt>
      <trkpt lat="49.30618" lon="-0.32484">
        <ele>5.755911</ele>
        <time>2022-08-04T15:31:14.000Z</time>
      </trkpt>
      <trkpt lat="49.30613" lon="-0.32479">
        <ele>5.723739</ele>
        <time>2022-08-04T15:31:15.000Z</time>
      </trkpt>
      <trkpt lat="49.30609" lon="-0.32476">
        <ele>5.698341</ele>
        <time>2022-08-04T15:31:16.000Z</time>
      </trkpt>
      <trkpt lat="49.30604" lon="-0.32471">
        <ele>5.668612</ele>
        <time>2022-08-04T15:31:17.000Z</time>
      </trkpt>
      <trkpt lat="49.306" lon="-0.32464">
        <ele>5.637637</ele>
        <time>2022-08-04T15:31:18.000Z</time>
      </trkpt>
      <trkpt lat="49.30597" lon="-0.32457">
        <ele>5.607075</ele>
        <time>2022-08-04T15:31:19.000Z</time>
      </trkpt>
      <trkpt lat="49.30593" lon="-0.3245">
        <ele>5.576514</ele>
        <time>2022-08-04T15:31:20.000Z</time>
      </trkpt>
      <trkpt lat="49.3059" lon="-0.32443">
        <ele>5.546611</ele>
        <time>2022-08-04T15:31:21.000Z</time>
      </trkpt>
      <trkpt lat="49.30587" lon="-0.32436">
        <ele>5.517877</ele>
        <time>2022-08-04T15:31:22.000Z</time>
      </trkpt>
      <trkpt lat="49.30585" lon="-0.32429">
        <ele>5.490323</ele>
        <time>2022-08-04T15:31:23.000Z</time>
      </trkpt>
      <trkpt lat="49.30584" lon="-0.32421">
        <ele>5.463731</ele>
        <time>2022-08-04T15:31:24.000Z</time>
      </trkpt>
      <trkpt lat="49.30585" lon="-0.32414">
        <ele>5.43851</ele>
        <time>2022-08-04T15:31:25.000Z</time>
      </trkpt>
      <trkpt lat="49.30586" lon="-0.32407">
        <ele>5.414104</ele>
        <time>2022-08-04T15:31:26.000Z</time>
      </trkpt>
      <trkpt lat="49.30587" lon="-0.324">
        <ele>5.389911</ele>
        <time>2022-08-04T15:31:27.000Z</time>
      </trkpt>
      <trkpt lat="49.30587" lon="-0.32394">
        <ele>5.368026</ele>
        <time>2022-08-04T15:31:28.000Z</time>
      </trkpt>
      <trkpt lat="49.30586" lon="-0.32388">
        <ele>5.34759</ele>
        <time>2022-08-04T15:31:29.000Z</time>
      </trkpt>
      <trkpt lat="49.30586" lon="-0.32383">
        <ele>5.328813</ele>
        <time>2022-08-04T15:31:30.000Z</time>
      </trkpt>
      <trkpt lat="49.30585" lon="-0.32377">
        <ele>5.309493</ele>
        <time>2022-08-04T15:31:31.000Z</time>
      </trkpt>
      <trkpt lat="49.30586" lon="-0.32372">
        <ele>5.290856</ele>
        <time>2022-08-04T15:31:32.000Z</time>
      </trkpt>
      <trkpt lat="49.30587" lon="-0.32367">
        <ele>5.271562</ele>
        <time>2022-08-04T15:31:33.000Z</time>
      </trkpt>
      <trkpt lat="49.30589" lon="-0.32363">
        <ele>5.253566</ele>
        <time>2022-08-04T15:31:34.000Z</time>
      </trkpt>
      <trkpt lat="49.3059" lon="-0.32359">
        <ele>5.237307</ele>
        <time>2022-08-04T15:31:35.000Z</time>
      </trkpt>
      <trkpt lat="49.30591" lon="-0.32355">
        <ele>5.224046</ele>
        <time>2022-08-04T15:31:36.000Z</time>
      </trkpt>
      <trkpt lat="49.30592" lon="-0.32351">
        <ele>5.208664</ele>
        <time>2022-08-04T15:31:37.000Z</time>
      </trkpt>
      <trkpt lat="49.30594" lon="-0.32348">
        <ele>5.195236</ele>
        <time>2022-08-04T15:31:38.000Z</time>
      </trkpt>
      <trkpt lat="49.30597" lon="-0.32345">
        <ele>5.177948</ele>
        <time>2022-08-04T15:31:39.000Z</time>
      </trkpt>
      <trkpt lat="49.306" lon="-0.32342">
        <ele>5.158541</ele>
        <time>2022-08-04T15:31:40.000Z</time>
      </trkpt>
      <trkpt lat="49.30604" lon="-0.32341">
        <ele>5.137602</ele>
        <time>2022-08-04T15:31:41.000Z</time>
      </trkpt>
      <trkpt lat="49.30607" lon="-0.32339">
        <ele>5.116238</ele>
        <time>2022-08-04T15:31:42.000Z</time>
      </trkpt>
      <trkpt lat="49.30611" lon="-0.32338">
        <ele>5.09673</ele>
        <time>2022-08-04T15:31:43.000Z</time>
      </trkpt>
      <trkpt lat="49.30615" lon="-0.32336">
        <ele>5.072019</ele>
        <time>2022-08-04T15:31:44.000Z</time>
      </trkpt>
      <trkpt lat="49.30619" lon="-0.32334">
        <ele>5.050671</ele>
        <time>2022-08-04T15:31:45.000Z</time>
      </trkpt>
      <trkpt lat="49.30623" lon="-0.32332">
        <ele>5.027303</ele>
        <time>2022-08-04T15:31:46.000Z</time>
      </trkpt>
      <trkpt lat="49.30628" lon="-0.32329">
        <ele>5.003985</ele>
        <time>2022-08-04T15:31:47.000Z</time>
      </trkpt>
      <trkpt lat="49.30632" lon="-0.32326">
        <ele>4.979366</ele>
        <time>2022-08-04T15:31:48.000Z</time>
      </trkpt>
      <trkpt lat="49.30636" lon="-0.32323">
        <ele>4.954433</ele>
        <time>2022-08-04T15:31:49.000Z</time>
      </trkpt>
      <trkpt lat="49.3064" lon="-0.32318">
        <ele>4.928291</ele>
        <time>2022-08-04T15:31:50.000Z</time>
      </trkpt>
      <trkpt lat="49.30642" lon="-0.32313">
        <ele>4.904491</ele>
        <time>2022-08-04T15:31:51.000Z</time>
      </trkpt>
      <trkpt lat="49.30644" lon="-0.32306">
        <ele>4.909837</ele>
        <time>2022-08-04T15:31:52.000Z</time>
      </trkpt>
      <trkpt lat="49.30643" lon="-0.32299">
        <ele>4.918061</ele>
        <time>2022-08-04T15:31:53.000Z</time>
      </trkpt>
      <trkpt lat="49.30641" lon="-0.32293">
        <ele>4.926871</ele>
        <time>2022-08-04T15:31:54.000Z</time>
      </trkpt>
      <trkpt lat="49.3064" lon="-0.32287">
        <ele>4.934992</ele>
        <time>2022-08-04T15:31:55.000Z</time>
      </trkpt>
      <trkpt lat="49.30638" lon="-0.32281">
        <ele>4.942651</ele>
        <time>2022-08-04T15:31:56.000Z</time>
      </trkpt>
      <trkpt lat="49.30637" lon="-0.32276">
        <ele>4.949854</ele>
        <time>2022-08-04T15:31:57.000Z</time>
      </trkpt>
      <trkpt lat="49.30635" lon="-0.32271">
        <ele>4.956365</ele>
        <time>2022-08-04T15:31:58.000Z</time>
      </trkpt>
      <trkpt lat="49.30634" lon="-0.32266">
        <ele>4.962993</ele>
        <time>2022-08-04T15:31:59.000Z</time>
      </trkpt>
      <trkpt lat="49.30633" lon="-0.32261">
        <ele>4.969853</ele>
        <time>2022-08-04T15:32:00.000Z</time>
      </trkpt>
      <trkpt lat="49.30631" lon="-0.32256">
        <ele>4.976527</ele>
        <time>2022-08-04T15:32:01.000Z</time>
      </trkpt>
      <trkpt lat="49.3063" lon="-0.32251">
        <ele>4.983958</ele>
        <time>2022-08-04T15:32:02.000Z</time>
      </trkpt>
      <trkpt lat="49.30629" lon="-0.32246">
        <ele>4.990732</ele>
        <time>2022-08-04T15:32:03.000Z</time>
      </trkpt>
      <trkpt lat="49.30628" lon="-0.3224">
        <ele>4.998061</ele>
        <time>2022-08-04T15:32:04.000Z</time>
      </trkpt>
      <trkpt lat="49.30626" lon="-0.32234">
        <ele>5.005835</ele>
        <time>2022-08-04T15:32:05.000Z</time>
      </trkpt>
      <trkpt lat="49.30624" lon="-0.32229">
        <ele>5.013633</ele>
        <time>2022-08-04T15:32:06.000Z</time>
      </trkpt>
      <trkpt lat="49.30622" lon="-0.32224">
        <ele>5.02121</ele>
        <time>2022-08-04T15:32:07.000Z</time>
      </trkpt>
      <trkpt lat="49.30621" lon="-0.32218">
        <ele>5.02923</ele>
        <time>2022-08-04T15:32:08.000Z</time>
      </trkpt>
      <trkpt lat="49.30618" lon="-0.32213">
        <ele>5.037205</ele>
        <time>2022-08-04T15:32:09.000Z</time>
      </trkpt>
      <trkpt lat="49.30616" lon="-0.32207">
        <ele>5.045076</ele>
        <time>2022-08-04T15:32:10.000Z</time>
      </trkpt>
      <trkpt lat="49.30614" lon="-0.32202">
        <ele>5.052326</ele>
        <time>2022-08-04T15:32:11.000Z</time>
      </trkpt>
      <trkpt lat="49.30612" lon="-0.32197">
        <ele>5.05989</ele>
        <time>2022-08-04T15:32:12.000Z</time>
      </trkpt>
      <trkpt lat="49.3061" lon="-0.32192">
        <ele>5.067761</ele>
        <time>2022-08-04T15:32:13.000Z</time>
      </trkpt>
      <trkpt lat="49.30608" lon="-0.32187">
        <ele>5.075228</ele>
        <time>2022-08-04T15:32:14.000Z</time>
      </trkpt>
      <trkpt lat="49.30606" lon="-0.32182">
        <ele>5.082805</ele>
        <time>2022-08-04T15:32:15.000Z</time>
      </trkpt>
      <trkpt lat="49.30604" lon="-0.32177">
        <ele>5.089559</ele>
        <time>2022-08-04T15:32:16.000Z</time>
      </trkpt>
      <trkpt lat="49.30603" lon="-0.32172">
        <ele>5.096536</ele>
        <time>2022-08-04T15:32:17.000Z</time>
      </trkpt>
      <trkpt lat="49.30601" lon="-0.32167">
        <ele>5.102957</ele>
        <time>2022-08-04T15:32:18.000Z</time>
      </trkpt>
      <trkpt lat="49.30599" lon="-0.32163">
        <ele>5.109378</ele>
        <time>2022-08-04T15:32:19.000Z</time>
      </trkpt>
      <trkpt lat="49.30597" lon="-0.32159">
        <ele>5.116454</ele>
        <time>2022-08-04T15:32:20.000Z</time>
      </trkpt>
      <trkpt lat="49.30595" lon="-0.32154">
        <ele>5.123702</ele>
        <time>2022-08-04T15:32:21.000Z</time>
      </trkpt>
      <trkpt lat="49.30592" lon="-0.32149">
        <ele>5.131064</ele>
        <time>2022-08-04T15:32:22.000Z</time>
      </trkpt>
      <trkpt lat="49.3059" lon="-0.32145">
        <ele>5.138414</ele>
        <time>2022-08-04T15:32:23.000Z</time>
      </trkpt>
      <trkpt lat="49.30588" lon="-0.32139">
        <ele>5.146624</ele>
        <time>2022-08-04T15:32:24.000Z</time>
      </trkpt>
      <trkpt lat="49.30585" lon="-0.32134">
        <ele>5.154517</ele>
        <time>2022-08-04T15:32:25.000Z</time>
      </trkpt>
      <trkpt lat="49.30582" lon="-0.32129">
        <ele>5.1629</ele>
        <time>2022-08-04T15:32:26.000Z</time>
      </trkpt>
      <trkpt lat="49.3058" lon="-0.32124">
        <ele>5.171011</ele>
        <time>2022-08-04T15:32:27.000Z</time>
      </trkpt>
      <trkpt lat="49.30577" lon="-0.32119">
        <ele>5.179872</ele>
        <time>2022-08-04T15:32:28.000Z</time>
      </trkpt>
      <trkpt lat="49.30574" lon="-0.32113">
        <ele>5.188169</ele>
        <time>2022-08-04T15:32:29.000Z</time>
      </trkpt>
      <trkpt lat="49.30572" lon="-0.32108">
        <ele>5.196679</ele>
        <time>2022-08-04T15:32:30.000Z</time>
      </trkpt>
      <trkpt lat="49.30569" lon="-0.32102">
        <ele>5.205389</ele>
        <time>2022-08-04T15:32:31.000Z</time>
      </trkpt>
      <trkpt lat="49.30566" lon="-0.32096">
        <ele>5.214207</ele>
        <time>2022-08-04T15:32:32.000Z</time>
      </trkpt>
      <trkpt lat="49.30564" lon="-0.32091">
        <ele>5.222291</ele>
        <time>2022-08-04T15:32:33.000Z</time>
      </trkpt>
      <trkpt lat="49.30562" lon="-0.32085">
        <ele>5.2307</ele>
        <time>2022-08-04T15:32:34.000Z</time>
      </trkpt>
      <trkpt lat="49.30559" lon="-0.3208">
        <ele>5.239368</ele>
        <time>2022-08-04T15:32:35.000Z</time>
      </trkpt>
      <trkpt lat="49.30557" lon="-0.32074">
        <ele>5.248372</ele>
        <time>2022-08-04T15:32:36.000Z</time>
      </trkpt>
      <trkpt lat="49.30554" lon="-0.32068">
        <ele>5.269089</ele>
        <time>2022-08-04T15:32:37.000Z</time>
      </trkpt>
      <trkpt lat="49.30552" lon="-0.32063">
        <ele>5.289312</ele>
        <time>2022-08-04T15:32:38.000Z</time>
      </trkpt>
      <trkpt lat="49.3055" lon="-0.32057">
        <ele>5.309414</ele>
        <time>2022-08-04T15:32:39.000Z</time>
      </trkpt>
      <trkpt lat="49.30547" lon="-0.32051">
        <ele>5.331441</ele>
        <time>2022-08-04T15:32:40.000Z</time>
      </trkpt>
      <trkpt lat="49.30545" lon="-0.32045">
        <ele>5.351925</ele>
        <time>2022-08-04T15:32:41.000Z</time>
      </trkpt>
      <trkpt lat="49.30542" lon="-0.32039">
        <ele>5.372643</ele>
        <time>2022-08-04T15:32:42.000Z</time>
      </trkpt>
      <trkpt lat="49.3054" lon="-0.32032">
        <ele>5.396062</ele>
        <time>2022-08-04T15:32:43.000Z</time>
      </trkpt>
      <trkpt lat="49.30538" lon="-0.32028">
        <ele>5.412977</ele>
        <time>2022-08-04T15:32:44.000Z</time>
      </trkpt>
      <trkpt lat="49.30536" lon="-0.32022">
        <ele>5.433199</ele>
        <time>2022-08-04T15:32:45.000Z</time>
      </trkpt>
      <trkpt lat="49.30534" lon="-0.32016">
        <ele>5.451958</ele>
        <time>2022-08-04T15:32:46.000Z</time>
      </trkpt>
      <trkpt lat="49.30532" lon="-0.32011">
        <ele>5.47216</ele>
        <time>2022-08-04T15:32:47.000Z</time>
      </trkpt>
      <trkpt lat="49.30529" lon="-0.32005">
        <ele>5.492863</ele>
        <time>2022-08-04T15:32:48.000Z</time>
      </trkpt>
      <trkpt lat="49.30527" lon="-0.31999">
        <ele>5.511888</ele>
        <time>2022-08-04T15:32:49.000Z</time>
      </trkpt>
      <trkpt lat="49.30525" lon="-0.31994">
        <ele>5.532853</ele>
        <time>2022-08-04T15:32:50.000Z</time>
      </trkpt>
      <trkpt lat="49.30523" lon="-0.31988">
        <ele>5.551081</ele>
        <time>2022-08-04T15:32:51.000Z</time>
      </trkpt>
      <trkpt lat="49.30521" lon="-0.31983">
        <ele>5.569045</ele>
        <time>2022-08-04T15:32:52.000Z</time>
      </trkpt>
      <trkpt lat="49.30519" lon="-0.31978">
        <ele>5.586374</ele>
        <time>2022-08-04T15:32:53.000Z</time>
      </trkpt>
      <trkpt lat="49.30517" lon="-0.31973">
        <ele>5.603542</ele>
        <time>2022-08-04T15:32:54.000Z</time>
      </trkpt>
      <trkpt lat="49.30516" lon="-0.31968">
        <ele>5.619599</ele>
        <time>2022-08-04T15:32:55.000Z</time>
      </trkpt>
      <trkpt lat="49.30514" lon="-0.31963">
        <ele>5.636767</ele>
        <time>2022-08-04T15:32:56.000Z</time>
      </trkpt>
      <trkpt lat="49.30512" lon="-0.31958">
        <ele>5.654208</ele>
        <time>2022-08-04T15:32:57.000Z</time>
      </trkpt>
      <trkpt lat="49.3051" lon="-0.31954">
        <ele>5.670874</ele>
        <time>2022-08-04T15:32:58.000Z</time>
      </trkpt>
      <trkpt lat="49.30509" lon="-0.31949">
        <ele>5.688315</ele>
        <time>2022-08-04T15:32:59.000Z</time>
      </trkpt>
      <trkpt lat="49.30507" lon="-0.31944">
        <ele>5.704982</ele>
        <time>2022-08-04T15:33:00.000Z</time>
      </trkpt>
      <trkpt lat="49.30505" lon="-0.31939">
        <ele>5.720694</ele>
        <time>2022-08-04T15:33:01.000Z</time>
      </trkpt>
      <trkpt lat="49.30503" lon="-0.31935">
        <ele>5.737107</ele>
        <time>2022-08-04T15:33:02.000Z</time>
      </trkpt>
      <trkpt lat="49.30501" lon="-0.3193">
        <ele>5.754436</ele>
        <time>2022-08-04T15:33:03.000Z</time>
      </trkpt>
      <trkpt lat="49.305" lon="-0.31924">
        <ele>5.772401</ele>
        <time>2022-08-04T15:33:04.000Z</time>
      </trkpt>
      <trkpt lat="49.30497" lon="-0.31919">
        <ele>5.79058</ele>
        <time>2022-08-04T15:33:05.000Z</time>
      </trkpt>
      <trkpt lat="49.30495" lon="-0.31915">
        <ele>5.808532</ele>
        <time>2022-08-04T15:33:06.000Z</time>
      </trkpt>
      <trkpt lat="49.30493" lon="-0.3191">
        <ele>5.827047</ele>
        <time>2022-08-04T15:33:07.000Z</time>
      </trkpt>
      <trkpt lat="49.3049" lon="-0.31905">
        <ele>5.847669</ele>
        <time>2022-08-04T15:33:08.000Z</time>
      </trkpt>
      <trkpt lat="49.30487" lon="-0.319">
        <ele>5.866476</ele>
        <time>2022-08-04T15:33:09.000Z</time>
      </trkpt>
      <trkpt lat="49.30484" lon="-0.31895">
        <ele>5.887978</ele>
        <time>2022-08-04T15:33:10.000Z</time>
      </trkpt>
      <trkpt lat="49.3048" lon="-0.31891">
        <ele>5.908045</ele>
        <time>2022-08-04T15:33:11.000Z</time>
      </trkpt>
      <trkpt lat="49.30477" lon="-0.31886">
        <ele>5.928774</ele>
        <time>2022-08-04T15:33:12.000Z</time>
      </trkpt>
      <trkpt lat="49.30475" lon="-0.31882">
        <ele>5.94501</ele>
        <time>2022-08-04T15:33:13.000Z</time>
      </trkpt>
      <trkpt lat="49.30472" lon="-0.31878">
        <ele>5.963655</ele>
        <time>2022-08-04T15:33:14.000Z</time>
      </trkpt>
      <trkpt lat="49.30469" lon="-0.31873">
        <ele>5.981551</ele>
        <time>2022-08-04T15:33:15.000Z</time>
      </trkpt>
      <trkpt lat="49.30466" lon="-0.31869">
        <ele>6.000824</ele>
        <time>2022-08-04T15:33:16.000Z</time>
      </trkpt>
      <trkpt lat="49.30463" lon="-0.31865">
        <ele>6.020689</ele>
        <time>2022-08-04T15:33:17.000Z</time>
      </trkpt>
      <trkpt lat="49.30459" lon="-0.31861">
        <ele>6.041045</ele>
        <time>2022-08-04T15:33:18.000Z</time>
      </trkpt>
      <trkpt lat="49.30456" lon="-0.31856">
        <ele>6.060114</ele>
        <time>2022-08-04T15:33:19.000Z</time>
      </trkpt>
      <trkpt lat="49.30453" lon="-0.31852">
        <ele>6.077825</ele>
        <time>2022-08-04T15:33:20.000Z</time>
      </trkpt>
      <trkpt lat="49.30451" lon="-0.31847">
        <ele>6.044855</ele>
        <time>2022-08-04T15:33:21.000Z</time>
      </trkpt>
      <trkpt lat="49.30448" lon="-0.31843">
        <ele>6.007722</ele>
        <time>2022-08-04T15:33:22.000Z</time>
      </trkpt>
      <trkpt lat="49.30445" lon="-0.31838">
        <ele>5.973349</ele>
        <time>2022-08-04T15:33:23.000Z</time>
      </trkpt>
      <trkpt lat="49.30442" lon="-0.31833">
        <ele>5.932438</ele>
        <time>2022-08-04T15:33:24.000Z</time>
      </trkpt>
      <trkpt lat="49.30439" lon="-0.31828">
        <ele>5.894279</ele>
        <time>2022-08-04T15:33:25.000Z</time>
      </trkpt>
      <trkpt lat="49.30435" lon="-0.31823">
        <ele>5.852986</ele>
        <time>2022-08-04T15:33:26.000Z</time>
      </trkpt>
      <trkpt lat="49.30431" lon="-0.31818">
        <ele>5.810163</ele>
        <time>2022-08-04T15:33:27.000Z</time>
      </trkpt>
      <trkpt lat="49.30428" lon="-0.31814">
        <ele>5.773707</ele>
        <time>2022-08-04T15:33:28.000Z</time>
      </trkpt>
      <trkpt lat="49.30425" lon="-0.31811">
        <ele>5.742095</ele>
        <time>2022-08-04T15:33:29.000Z</time>
      </trkpt>
      <trkpt lat="49.30422" lon="-0.31806">
        <ele>5.706072</ele>
        <time>2022-08-04T15:33:30.000Z</time>
      </trkpt>
      <trkpt lat="49.30419" lon="-0.31802">
        <ele>5.674176</ele>
        <time>2022-08-04T15:33:31.000Z</time>
      </trkpt>
      <trkpt lat="49.30417" lon="-0.31798">
        <ele>5.641061</ele>
        <time>2022-08-04T15:33:32.000Z</time>
      </trkpt>
      <trkpt lat="49.30414" lon="-0.31794">
        <ele>5.608333</ele>
        <time>2022-08-04T15:33:33.000Z</time>
      </trkpt>
      <trkpt lat="49.30412" lon="-0.31791">
        <ele>5.584012</ele>
        <time>2022-08-04T15:33:34.000Z</time>
      </trkpt>
      <trkpt lat="49.30409" lon="-0.31787">
        <ele>5.553512</ele>
        <time>2022-08-04T15:33:35.000Z</time>
      </trkpt>
      <trkpt lat="49.30406" lon="-0.31783">
        <ele>5.518203</ele>
        <time>2022-08-04T15:33:36.000Z</time>
      </trkpt>
      <trkpt lat="49.30404" lon="-0.31779">
        <ele>5.488461</ele>
        <time>2022-08-04T15:33:37.000Z</time>
      </trkpt>
      <trkpt lat="49.30401" lon="-0.31775">
        <ele>5.457156</ele>
        <time>2022-08-04T15:33:38.000Z</time>
      </trkpt>
      <trkpt lat="49.30399" lon="-0.31771">
        <ele>5.427414</ele>
        <time>2022-08-04T15:33:39.000Z</time>
      </trkpt>
      <trkpt lat="49.30397" lon="-0.31766">
        <ele>5.397983</ele>
        <time>2022-08-04T15:33:40.000Z</time>
      </trkpt>
      <trkpt lat="49.30396" lon="-0.31762">
        <ele>5.368907</ele>
        <time>2022-08-04T15:33:41.000Z</time>
      </trkpt>
      <trkpt lat="49.30394" lon="-0.31757">
        <ele>5.339476</ele>
        <time>2022-08-04T15:33:42.000Z</time>
      </trkpt>
      <trkpt lat="49.30391" lon="-0.31754">
        <ele>5.311308</ele>
        <time>2022-08-04T15:33:43.000Z</time>
      </trkpt>
      <trkpt lat="49.30388" lon="-0.31751">
        <ele>5.276457</ele>
        <time>2022-08-04T15:33:44.000Z</time>
      </trkpt>
      <trkpt lat="49.30386" lon="-0.31749">
        <ele>5.256095</ele>
        <time>2022-08-04T15:33:45.000Z</time>
      </trkpt>
      <trkpt lat="49.30383" lon="-0.31745">
        <ele>5.226507</ele>
        <time>2022-08-04T15:33:46.000Z</time>
      </trkpt>
      <trkpt lat="49.3038" lon="-0.3174">
        <ele>5.18626</ele>
        <time>2022-08-04T15:33:47.000Z</time>
      </trkpt>
      <trkpt lat="49.30378" lon="-0.31733">
        <ele>5.14515</ele>
        <time>2022-08-04T15:33:48.000Z</time>
      </trkpt>
      <trkpt lat="49.30375" lon="-0.31728">
        <ele>5.110111</ele>
        <time>2022-08-04T15:33:49.000Z</time>
      </trkpt>
      <trkpt lat="49.30373" lon="-0.31721">
        <ele>5.067884</ele>
        <time>2022-08-04T15:33:50.000Z</time>
      </trkpt>
      <trkpt lat="49.3037" lon="-0.31715">
        <ele>5.02257</ele>
        <time>2022-08-04T15:33:51.000Z</time>
      </trkpt>
      <trkpt lat="49.30367" lon="-0.31706">
        <ele>4.969275</ele>
        <time>2022-08-04T15:33:52.000Z</time>
      </trkpt>
      <trkpt lat="49.30365" lon="-0.31701">
        <ele>4.933692</ele>
        <time>2022-08-04T15:33:53.000Z</time>
      </trkpt>
      <trkpt lat="49.30362" lon="-0.31695">
        <ele>4.889768</ele>
        <time>2022-08-04T15:33:54.000Z</time>
      </trkpt>
      <trkpt lat="49.30359" lon="-0.31687">
        <ele>4.84141</ele>
        <time>2022-08-04T15:33:55.000Z</time>
      </trkpt>
      <trkpt lat="49.30356" lon="-0.31681">
        <ele>4.798181</ele>
        <time>2022-08-04T15:33:56.000Z</time>
      </trkpt>
      <trkpt lat="49.30354" lon="-0.31675">
        <ele>4.758815</ele>
        <time>2022-08-04T15:33:57.000Z</time>
      </trkpt>
      <trkpt lat="49.30351" lon="-0.31668">
        <ele>4.717477</ele>
        <time>2022-08-04T15:33:58.000Z</time>
      </trkpt>
      <trkpt lat="49.30349" lon="-0.31662">
        <ele>4.6789</ele>
        <time>2022-08-04T15:33:59.000Z</time>
      </trkpt>
      <trkpt lat="49.30347" lon="-0.31656">
        <ele>4.639044</ele>
        <time>2022-08-04T15:34:00.000Z</time>
      </trkpt>
      <trkpt lat="49.30345" lon="-0.3165">
        <ele>4.600839</ele>
        <time>2022-08-04T15:34:01.000Z</time>
      </trkpt>
      <trkpt lat="49.30342" lon="-0.31644">
        <ele>4.560077</ele>
        <time>2022-08-04T15:34:02.000Z</time>
      </trkpt>
      <trkpt lat="49.3034" lon="-0.31638">
        <ele>4.522482</ele>
        <time>2022-08-04T15:34:03.000Z</time>
      </trkpt>
      <trkpt lat="49.30337" lon="-0.31632">
        <ele>4.488194</ele>
        <time>2022-08-04T15:34:04.000Z</time>
      </trkpt>
      <trkpt lat="49.30334" lon="-0.31627">
        <ele>4.452996</ele>
        <time>2022-08-04T15:34:05.000Z</time>
      </trkpt>
      <trkpt lat="49.30331" lon="-0.31622">
        <ele>4.418857</ele>
        <time>2022-08-04T15:34:06.000Z</time>
      </trkpt>
      <trkpt lat="49.30328" lon="-0.31617">
        <ele>4.387693</ele>
        <time>2022-08-04T15:34:07.000Z</time>
      </trkpt>
      <trkpt lat="49.30326" lon="-0.31613">
        <ele>4.364359</ele>
        <time>2022-08-04T15:34:08.000Z</time>
      </trkpt>
      <trkpt lat="49.30324" lon="-0.31608">
        <ele>4.33734</ele>
        <time>2022-08-04T15:34:09.000Z</time>
      </trkpt>
      <trkpt lat="49.30322" lon="-0.31604">
        <ele>4.308314</ele>
        <time>2022-08-04T15:34:10.000Z</time>
      </trkpt>
      <trkpt lat="49.30321" lon="-0.31597">
        <ele>4.277771</ele>
        <time>2022-08-04T15:34:11.000Z</time>
      </trkpt>
      <trkpt lat="49.30322" lon="-0.31593">
        <ele>4.256698</ele>
        <time>2022-08-04T15:34:12.000Z</time>
      </trkpt>
      <trkpt lat="49.30323" lon="-0.31587">
        <ele>4.223568</ele>
        <time>2022-08-04T15:34:13.000Z</time>
      </trkpt>
      <trkpt lat="49.30325" lon="-0.31581">
        <ele>4.192879</ele>
        <time>2022-08-04T15:34:14.000Z</time>
      </trkpt>
      <trkpt lat="49.30325" lon="-0.31575">
        <ele>4.163353</ele>
        <time>2022-08-04T15:34:15.000Z</time>
      </trkpt>
      <trkpt lat="49.30324" lon="-0.31569">
        <ele>4.135092</ele>
        <time>2022-08-04T15:34:16.000Z</time>
      </trkpt>
      <trkpt lat="49.30324" lon="-0.31564">
        <ele>4.109695</ele>
        <time>2022-08-04T15:34:17.000Z</time>
      </trkpt>
      <trkpt lat="49.30322" lon="-0.31559">
        <ele>4.082555</ele>
        <time>2022-08-04T15:34:18.000Z</time>
      </trkpt>
      <trkpt lat="49.3032" lon="-0.31555">
        <ele>4.060102</ele>
        <time>2022-08-04T15:34:19.000Z</time>
      </trkpt>
      <trkpt lat="49.30318" lon="-0.31551">
        <ele>4.032303</ele>
        <time>2022-08-04T15:34:20.000Z</time>
      </trkpt>
      <trkpt lat="49.30316" lon="-0.31546">
        <ele>4.001685</ele>
        <time>2022-08-04T15:34:21.000Z</time>
      </trkpt>
      <trkpt lat="49.30315" lon="-0.31542">
        <ele>3.983272</ele>
        <time>2022-08-04T15:34:22.000Z</time>
      </trkpt>
      <trkpt lat="49.30313" lon="-0.31538">
        <ele>3.95793</ele>
        <time>2022-08-04T15:34:23.000Z</time>
      </trkpt>
      <trkpt lat="49.3031" lon="-0.31534">
        <ele>3.931677</ele>
        <time>2022-08-04T15:34:24.000Z</time>
      </trkpt>
      <trkpt lat="49.30308" lon="-0.3153">
        <ele>3.906915</ele>
        <time>2022-08-04T15:34:25.000Z</time>
      </trkpt>
      <trkpt lat="49.30306" lon="-0.31526">
        <ele>3.878694</ele>
        <time>2022-08-04T15:34:26.000Z</time>
      </trkpt>
      <trkpt lat="49.30304" lon="-0.31521">
        <ele>3.85216</ele>
        <time>2022-08-04T15:34:27.000Z</time>
      </trkpt>
      <trkpt lat="49.30301" lon="-0.31516">
        <ele>3.81807</ele>
        <time>2022-08-04T15:34:28.000Z</time>
      </trkpt>
      <trkpt lat="49.30299" lon="-0.31511">
        <ele>3.788272</ele>
        <time>2022-08-04T15:34:29.000Z</time>
      </trkpt>
      <trkpt lat="49.30296" lon="-0.31506">
        <ele>3.759637</ele>
        <time>2022-08-04T15:34:30.000Z</time>
      </trkpt>
      <trkpt lat="49.30294" lon="-0.31502">
        <ele>3.733003</ele>
        <time>2022-08-04T15:34:31.000Z</time>
      </trkpt>
      <trkpt lat="49.30292" lon="-0.31497">
        <ele>3.70688</ele>
        <time>2022-08-04T15:34:32.000Z</time>
      </trkpt>
      <trkpt lat="49.3029" lon="-0.31493">
        <ele>3.680342</ele>
        <time>2022-08-04T15:34:33.000Z</time>
      </trkpt>
      <trkpt lat="49.30288" lon="-0.31488">
        <ele>3.654218</ele>
        <time>2022-08-04T15:34:34.000Z</time>
      </trkpt>
      <trkpt lat="49.30287" lon="-0.31484">
        <ele>3.631351</ele>
        <time>2022-08-04T15:34:35.000Z</time>
      </trkpt>
      <trkpt lat="49.30285" lon="-0.3148">
        <ele>3.605099</ele>
        <time>2022-08-04T15:34:36.000Z</time>
      </trkpt>
      <trkpt lat="49.30283" lon="-0.31476">
        <ele>3.580189</ele>
        <time>2022-08-04T15:34:37.000Z</time>
      </trkpt>
      <trkpt lat="49.3028" lon="-0.31472">
        <ele>3.554924</ele>
        <time>2022-08-04T15:34:38.000Z</time>
      </trkpt>
      <trkpt lat="49.30279" lon="-0.31468">
        <ele>3.532057</ele>
        <time>2022-08-04T15:34:39.000Z</time>
      </trkpt>
      <trkpt lat="49.30277" lon="-0.31464">
        <ele>3.507657</ele>
        <time>2022-08-04T15:34:40.000Z</time>
      </trkpt>
      <trkpt lat="49.30274" lon="-0.3146">
        <ele>3.481669</ele>
        <time>2022-08-04T15:34:41.000Z</time>
      </trkpt>
      <trkpt lat="49.30272" lon="-0.31456">
        <ele>3.457158</ele>
        <time>2022-08-04T15:34:42.000Z</time>
      </trkpt>
      <trkpt lat="49.3027" lon="-0.31452">
        <ele>3.431034</ele>
        <time>2022-08-04T15:34:43.000Z</time>
      </trkpt>
      <trkpt lat="49.30268" lon="-0.31447">
        <ele>3.401641</ele>
        <time>2022-08-04T15:34:44.000Z</time>
      </trkpt>
      <trkpt lat="49.30267" lon="-0.31443">
        <ele>3.380007</ele>
        <time>2022-08-04T15:34:45.000Z</time>
      </trkpt>
      <trkpt lat="49.30266" lon="-0.3144">
        <ele>3.365848</ele>
        <time>2022-08-04T15:34:46.000Z</time>
      </trkpt>
      <trkpt lat="49.30264" lon="-0.31438">
        <ele>3.347706</ele>
        <time>2022-08-04T15:34:47.000Z</time>
      </trkpt>
      <trkpt lat="49.30263" lon="-0.31435">
        <ele>3.330153</ele>
        <time>2022-08-04T15:34:48.000Z</time>
      </trkpt>
      <trkpt lat="49.30262" lon="-0.31431">
        <ele>3.313171</ele>
        <time>2022-08-04T15:34:49.000Z</time>
      </trkpt>
      <trkpt lat="49.30261" lon="-0.31429">
        <ele>3.297589</ele>
        <time>2022-08-04T15:34:50.000Z</time>
      </trkpt>
      <trkpt lat="49.3026" lon="-0.31427">
        <ele>3.284118</ele>
        <time>2022-08-04T15:34:51.000Z</time>
      </trkpt>
      <trkpt lat="49.30259" lon="-0.31422">
        <ele>3.262112</ele>
        <time>2022-08-04T15:34:53.000Z</time>
      </trkpt>
      <trkpt lat="49.30257" lon="-0.3142">
        <ele>3.246052</ele>
        <time>2022-08-04T15:34:54.000Z</time>
      </trkpt>
      <trkpt lat="49.30254" lon="-0.31418">
        <ele>3.221654</ele>
        <time>2022-08-04T15:34:56.000Z</time>
      </trkpt>
      <trkpt lat="49.30253" lon="-0.31416">
        <ele>3.207107</ele>
        <time>2022-08-04T15:34:57.000Z</time>
      </trkpt>
      <trkpt lat="49.30251" lon="-0.31414">
        <ele>3.197631</ele>
        <time>2022-08-04T15:34:59.000Z</time>
      </trkpt>
      <trkpt lat="49.30249" lon="-0.31411">
        <ele>3.199809</ele>
        <time>2022-08-04T15:35:01.000Z</time>
      </trkpt>
      <trkpt lat="49.30248" lon="-0.31404">
        <ele>3.205643</ele>
        <time>2022-08-04T15:36:09.000Z</time>
      </trkpt>
      <trkpt lat="49.30249" lon="-0.314">
        <ele>3.208598</ele>
        <time>2022-08-04T15:36:11.000Z</time>
      </trkpt>
      <trkpt lat="49.30242" lon="-0.31382">
        <ele>3.223617</ele>
        <time>2022-08-04T15:36:26.000Z</time>
      </trkpt>
      <trkpt lat="49.30241" lon="-0.31378">
        <ele>3.226446</ele>
        <time>2022-08-04T15:36:28.000Z</time>
      </trkpt>
      <trkpt lat="49.3024" lon="-0.31375">
        <ele>3.229133</ele>
        <time>2022-08-04T15:36:30.000Z</time>
      </trkpt>
      <trkpt lat="49.30239" lon="-0.31371">
        <ele>3.232347</ele>
        <time>2022-08-04T15:36:32.000Z</time>
      </trkpt>
      <trkpt lat="49.30237" lon="-0.31367">
        <ele>3.235484</ele>
        <time>2022-08-04T15:36:34.000Z</time>
      </trkpt>
      <trkpt lat="49.30235" lon="-0.31364">
        <ele>3.238797</ele>
        <time>2022-08-04T15:36:36.000Z</time>
      </trkpt>
      <trkpt lat="49.30234" lon="-0.31361">
        <ele>3.241269</ele>
        <time>2022-08-04T15:36:38.000Z</time>
      </trkpt>
      <trkpt lat="49.30233" lon="-0.31358">
        <ele>3.244467</ele>
        <time>2022-08-04T15:36:40.000Z</time>
      </trkpt>
      <trkpt lat="49.30231" lon="-0.31354">
        <ele>3.247698</ele>
        <time>2022-08-04T15:36:42.000Z</time>
      </trkpt>
      <trkpt lat="49.3023" lon="-0.31351">
        <ele>3.250105</ele>
        <time>2022-08-04T15:36:44.000Z</time>
      </trkpt>
      <trkpt lat="49.30229" lon="-0.31348">
        <ele>3.252452</ele>
        <time>2022-08-04T15:36:46.000Z</time>
      </trkpt>
      <trkpt lat="49.30228" lon="-0.31345">
        <ele>3.255353</ele>
        <time>2022-08-04T15:36:49.000Z</time>
      </trkpt>
      <trkpt lat="49.30227" lon="-0.31343">
        <ele>3.257578</ele>
        <time>2022-08-04T15:36:52.000Z</time>
      </trkpt>
      <trkpt lat="49.30217" lon="-0.31324">
        <ele>3.274547</ele>
        <time>2022-08-04T15:37:15.000Z</time>
      </trkpt>
      <trkpt lat="49.30216" lon="-0.31322">
        <ele>3.276762</ele>
        <time>2022-08-04T15:37:17.000Z</time>
      </trkpt>
      <trkpt lat="49.30207" lon="-0.31296">
        <ele>3.298688</ele>
        <time>2022-08-04T15:37:39.000Z</time>
      </trkpt>
      <trkpt lat="49.30205" lon="-0.31293">
        <ele>3.301476</ele>
        <time>2022-08-04T15:37:41.000Z</time>
      </trkpt>
      <trkpt lat="49.30204" lon="-0.3129">
        <ele>3.303636</ele>
        <time>2022-08-04T15:37:43.000Z</time>
      </trkpt>
      <trkpt lat="49.30203" lon="-0.31288">
        <ele>3.306099</ele>
        <time>2022-08-04T15:37:45.000Z</time>
      </trkpt>
      <trkpt lat="49.30202" lon="-0.31285">
        <ele>3.308562</ele>
        <time>2022-08-04T15:37:47.000Z</time>
      </trkpt>
      <trkpt lat="49.302" lon="-0.31282">
        <ele>3.311267</ele>
        <time>2022-08-04T15:37:49.000Z</time>
      </trkpt>
      <trkpt lat="49.30198" lon="-0.31278">
        <ele>3.315333</ele>
        <time>2022-08-04T15:37:51.000Z</time>
      </trkpt>
      <trkpt lat="49.30197" lon="-0.31274">
        <ele>3.31807</ele>
        <time>2022-08-04T15:37:52.000Z</time>
      </trkpt>
      <trkpt lat="49.30196" lon="-0.31271">
        <ele>3.3209</ele>
        <time>2022-08-04T15:37:53.000Z</time>
      </trkpt>
      <trkpt lat="49.30195" lon="-0.31268">
        <ele>3.323457</ele>
        <time>2022-08-04T15:37:54.000Z</time>
      </trkpt>
      <trkpt lat="49.30193" lon="-0.31265">
        <ele>3.326028</ele>
        <time>2022-08-04T15:37:55.000Z</time>
      </trkpt>
      <trkpt lat="49.30191" lon="-0.31263">
        <ele>3.328398</ele>
        <time>2022-08-04T15:37:56.000Z</time>
      </trkpt>
      <trkpt lat="49.3019" lon="-0.31259">
        <ele>3.332095</ele>
        <time>2022-08-04T15:37:58.000Z</time>
      </trkpt>
      <trkpt lat="49.30189" lon="-0.31254">
        <ele>3.335793</ele>
        <time>2022-08-04T15:38:00.000Z</time>
      </trkpt>
      <trkpt lat="49.30188" lon="-0.31252">
        <ele>3.337945</ele>
        <time>2022-08-04T15:38:01.000Z</time>
      </trkpt>
      <trkpt lat="49.30186" lon="-0.31248">
        <ele>3.34162</ele>
        <time>2022-08-04T15:38:03.000Z</time>
      </trkpt>
      <trkpt lat="49.30184" lon="-0.31246">
        <ele>3.344133</ele>
        <time>2022-08-04T15:38:05.000Z</time>
      </trkpt>
      <trkpt lat="49.30181" lon="-0.31245">
        <ele>3.346824</ele>
        <time>2022-08-04T15:38:07.000Z</time>
      </trkpt>
      <trkpt lat="49.30181" lon="-0.31235">
        <ele>3.354086</ele>
        <time>2022-08-04T15:38:18.000Z</time>
      </trkpt>
      <trkpt lat="49.3018" lon="-0.31231">
        <ele>3.357368</ele>
        <time>2022-08-04T15:38:20.000Z</time>
      </trkpt>
      <trkpt lat="49.30177" lon="-0.31227">
        <ele>3.361097</ele>
        <time>2022-08-04T15:38:22.000Z</time>
      </trkpt>
      <trkpt lat="49.30176" lon="-0.31225">
        <ele>3.363515</ele>
        <time>2022-08-04T15:38:23.000Z</time>
      </trkpt>
      <trkpt lat="49.30173" lon="-0.31221">
        <ele>3.367597</ele>
        <time>2022-08-04T15:38:25.000Z</time>
      </trkpt>
      <trkpt lat="49.30173" lon="-0.31218">
        <ele>3.369953</ele>
        <time>2022-08-04T15:38:26.000Z</time>
      </trkpt>
      <trkpt lat="49.30171" lon="-0.31213">
        <ele>3.373904</ele>
        <time>2022-08-04T15:38:28.000Z</time>
      </trkpt>
      <trkpt lat="49.3017" lon="-0.31209">
        <ele>3.37686</ele>
        <time>2022-08-04T15:38:30.000Z</time>
      </trkpt>
      <trkpt lat="49.30168" lon="-0.31206">
        <ele>3.380323</ele>
        <time>2022-08-04T15:38:32.000Z</time>
      </trkpt>
      <trkpt lat="49.30167" lon="-0.31201">
        <ele>3.38422</ele>
        <time>2022-08-04T15:38:34.000Z</time>
      </trkpt>
      <trkpt lat="49.30165" lon="-0.31198">
        <ele>3.387237</ele>
        <time>2022-08-04T15:38:36.000Z</time>
      </trkpt>
      <trkpt lat="49.30164" lon="-0.31194">
        <ele>3.390557</ele>
        <time>2022-08-04T15:38:38.000Z</time>
      </trkpt>
      <trkpt lat="49.30163" lon="-0.31189">
        <ele>3.394467</ele>
        <time>2022-08-04T15:38:40.000Z</time>
      </trkpt>
      <trkpt lat="49.30162" lon="-0.31186">
        <ele>3.396736</ele>
        <time>2022-08-04T15:38:41.000Z</time>
      </trkpt>
      <trkpt lat="49.30162" lon="-0.31182">
        <ele>3.399304</ele>
        <time>2022-08-04T15:38:42.000Z</time>
      </trkpt>
      <trkpt lat="49.30162" lon="-0.31179">
        <ele>3.402109</ele>
        <time>2022-08-04T15:38:43.000Z</time>
      </trkpt>
      <trkpt lat="49.30161" lon="-0.31174">
        <ele>3.405385</ele>
        <time>2022-08-04T15:38:44.000Z</time>
      </trkpt>
      <trkpt lat="49.30159" lon="-0.3117">
        <ele>3.408679</ele>
        <time>2022-08-04T15:38:45.000Z</time>
      </trkpt>
      <trkpt lat="49.30157" lon="-0.31166">
        <ele>3.41249</ele>
        <time>2022-08-04T15:38:46.000Z</time>
      </trkpt>
      <trkpt lat="49.30156" lon="-0.31162">
        <ele>3.416</ele>
        <time>2022-08-04T15:38:47.000Z</time>
      </trkpt>
      <trkpt lat="49.30154" lon="-0.31158">
        <ele>3.419928</ele>
        <time>2022-08-04T15:38:48.000Z</time>
      </trkpt>
      <trkpt lat="49.30152" lon="-0.31154">
        <ele>3.423367</ele>
        <time>2022-08-04T15:38:49.000Z</time>
      </trkpt>
      <trkpt lat="49.30151" lon="-0.3115">
        <ele>3.426643</ele>
        <time>2022-08-04T15:38:50.000Z</time>
      </trkpt>
      <trkpt lat="49.30149" lon="-0.31146">
        <ele>3.429918</ele>
        <time>2022-08-04T15:38:51.000Z</time>
      </trkpt>
      <trkpt lat="49.30149" lon="-0.31141">
        <ele>3.433212</ele>
        <time>2022-08-04T15:38:52.000Z</time>
      </trkpt>
      <trkpt lat="49.30148" lon="-0.31137">
        <ele>3.43642</ele>
        <time>2022-08-04T15:38:53.000Z</time>
      </trkpt>
      <trkpt lat="49.30147" lon="-0.31133">
        <ele>3.439452</ele>
        <time>2022-08-04T15:38:54.000Z</time>
      </trkpt>
      <trkpt lat="49.30145" lon="-0.3113">
        <ele>3.442466</ele>
        <time>2022-08-04T15:38:55.000Z</time>
      </trkpt>
      <trkpt lat="49.30144" lon="-0.31127">
        <ele>3.445598</ele>
        <time>2022-08-04T15:38:56.000Z</time>
      </trkpt>
      <trkpt lat="49.30142" lon="-0.31123">
        <ele>3.449037</ele>
        <time>2022-08-04T15:38:57.000Z</time>
      </trkpt>
      <trkpt lat="49.30141" lon="-0.31118">
        <ele>3.452444</ele>
        <time>2022-08-04T15:38:58.000Z</time>
      </trkpt>
      <trkpt lat="49.30139" lon="-0.31114">
        <ele>3.455946</ele>
        <time>2022-08-04T15:38:59.000Z</time>
      </trkpt>
      <trkpt lat="49.30138" lon="-0.3111">
        <ele>3.459511</ele>
        <time>2022-08-04T15:39:00.000Z</time>
      </trkpt>
      <trkpt lat="49.30136" lon="-0.31106">
        <ele>3.463075</ele>
        <time>2022-08-04T15:39:01.000Z</time>
      </trkpt>
      <trkpt lat="49.30135" lon="-0.31102">
        <ele>3.466549</ele>
        <time>2022-08-04T15:39:02.000Z</time>
      </trkpt>
      <trkpt lat="49.30133" lon="-0.31097">
        <ele>3.470434</ele>
        <time>2022-08-04T15:39:03.000Z</time>
      </trkpt>
      <trkpt lat="49.30132" lon="-0.31092">
        <ele>3.474191</ele>
        <time>2022-08-04T15:39:04.000Z</time>
      </trkpt>
      <trkpt lat="49.3013" lon="-0.31088">
        <ele>3.478011</ele>
        <time>2022-08-04T15:39:05.000Z</time>
      </trkpt>
      <trkpt lat="49.30128" lon="-0.31083">
        <ele>3.482064</ele>
        <time>2022-08-04T15:39:06.000Z</time>
      </trkpt>
      <trkpt lat="49.30127" lon="-0.31078">
        <ele>3.485873</ele>
        <time>2022-08-04T15:39:07.000Z</time>
      </trkpt>
      <trkpt lat="49.30125" lon="-0.31073">
        <ele>3.490051</ele>
        <time>2022-08-04T15:39:08.000Z</time>
      </trkpt>
      <trkpt lat="49.30123" lon="-0.31069">
        <ele>3.494002</ele>
        <time>2022-08-04T15:39:09.000Z</time>
      </trkpt>
      <trkpt lat="49.30121" lon="-0.31063">
        <ele>3.498563</ele>
        <time>2022-08-04T15:39:10.000Z</time>
      </trkpt>
      <trkpt lat="49.3012" lon="-0.31058">
        <ele>3.502843</ele>
        <time>2022-08-04T15:39:11.000Z</time>
      </trkpt>
      <trkpt lat="49.30118" lon="-0.31052">
        <ele>3.507257</ele>
        <time>2022-08-04T15:39:12.000Z</time>
      </trkpt>
      <trkpt lat="49.30117" lon="-0.31047">
        <ele>3.511338</ele>
        <time>2022-08-04T15:39:13.000Z</time>
      </trkpt>
      <trkpt lat="49.30115" lon="-0.31042">
        <ele>3.515453</ele>
        <time>2022-08-04T15:39:14.000Z</time>
      </trkpt>
      <trkpt lat="49.30113" lon="-0.31038">
        <ele>3.519145</ele>
        <time>2022-08-04T15:39:15.000Z</time>
      </trkpt>
      <trkpt lat="49.30112" lon="-0.31034">
        <ele>3.522584</ele>
        <time>2022-08-04T15:39:16.000Z</time>
      </trkpt>
      <trkpt lat="49.3011" lon="-0.3103">
        <ele>3.526094</ele>
        <time>2022-08-04T15:39:17.000Z</time>
      </trkpt>
      <trkpt lat="49.30108" lon="-0.31026">
        <ele>3.529893</ele>
        <time>2022-08-04T15:39:18.000Z</time>
      </trkpt>
      <trkpt lat="49.30106" lon="-0.31022">
        <ele>3.533822</ele>
        <time>2022-08-04T15:39:19.000Z</time>
      </trkpt>
      <trkpt lat="49.30103" lon="-0.31017">
        <ele>3.538242</ele>
        <time>2022-08-04T15:39:20.000Z</time>
      </trkpt>
      <trkpt lat="49.30101" lon="-0.31012">
        <ele>3.542847</ele>
        <time>2022-08-04T15:39:21.000Z</time>
      </trkpt>
      <trkpt lat="49.30098" lon="-0.31006">
        <ele>3.548204</ele>
        <time>2022-08-04T15:39:22.000Z</time>
      </trkpt>
      <trkpt lat="49.30096" lon="-0.30999">
        <ele>3.553671</ele>
        <time>2022-08-04T15:39:23.000Z</time>
      </trkpt>
      <trkpt lat="49.30092" lon="-0.30993">
        <ele>3.559905</ele>
        <time>2022-08-04T15:39:24.000Z</time>
      </trkpt>
      <trkpt lat="49.30089" lon="-0.30986">
        <ele>3.565983</ele>
        <time>2022-08-04T15:39:25.000Z</time>
      </trkpt>
      <trkpt lat="49.30085" lon="-0.30979">
        <ele>3.573063</ele>
        <time>2022-08-04T15:39:26.000Z</time>
      </trkpt>
      <trkpt lat="49.30082" lon="-0.30971">
        <ele>3.579822</ele>
        <time>2022-08-04T15:39:27.000Z</time>
      </trkpt>
      <trkpt lat="49.30077" lon="-0.30964">
        <ele>3.586902</ele>
        <time>2022-08-04T15:39:28.000Z</time>
      </trkpt>
      <trkpt lat="49.30074" lon="-0.30956">
        <ele>3.59347</ele>
        <time>2022-08-04T15:39:29.000Z</time>
      </trkpt>
      <trkpt lat="49.30071" lon="-0.30948">
        <ele>3.600595</ele>
        <time>2022-08-04T15:39:30.000Z</time>
      </trkpt>
      <trkpt lat="49.30069" lon="-0.30942">
        <ele>3.595123</ele>
        <time>2022-08-04T15:39:31.000Z</time>
      </trkpt>
      <trkpt lat="49.30066" lon="-0.30936">
        <ele>3.588653</ele>
        <time>2022-08-04T15:39:32.000Z</time>
      </trkpt>
      <trkpt lat="49.30062" lon="-0.30929">
        <ele>3.581052</ele>
        <time>2022-08-04T15:39:33.000Z</time>
      </trkpt>
      <trkpt lat="49.3006" lon="-0.30922">
        <ele>3.574801</ele>
        <time>2022-08-04T15:39:34.000Z</time>
      </trkpt>
      <trkpt lat="49.30059" lon="-0.30917">
        <ele>3.570283</ele>
        <time>2022-08-04T15:39:35.000Z</time>
      </trkpt>
      <trkpt lat="49.30056" lon="-0.30912">
        <ele>3.564218</ele>
        <time>2022-08-04T15:39:36.000Z</time>
      </trkpt>
      <trkpt lat="49.30053" lon="-0.30906">
        <ele>3.558286</ele>
        <time>2022-08-04T15:39:37.000Z</time>
      </trkpt>
      <trkpt lat="49.30051" lon="-0.30901">
        <ele>3.552596</ele>
        <time>2022-08-04T15:39:38.000Z</time>
      </trkpt>
      <trkpt lat="49.30048" lon="-0.30895">
        <ele>3.546487</ele>
        <time>2022-08-04T15:39:39.000Z</time>
      </trkpt>
      <trkpt lat="49.30046" lon="-0.3089">
        <ele>3.541915</ele>
        <time>2022-08-04T15:39:40.000Z</time>
      </trkpt>
      <trkpt lat="49.30045" lon="-0.30885">
        <ele>3.537226</ele>
        <time>2022-08-04T15:39:41.000Z</time>
      </trkpt>
      <trkpt lat="49.30042" lon="-0.3088">
        <ele>3.531827</ele>
        <time>2022-08-04T15:39:42.000Z</time>
      </trkpt>
      <trkpt lat="49.3004" lon="-0.30875">
        <ele>3.52692</ele>
        <time>2022-08-04T15:39:43.000Z</time>
      </trkpt>
      <trkpt lat="49.30038" lon="-0.3087">
        <ele>3.522014</ele>
        <time>2022-08-04T15:39:44.000Z</time>
      </trkpt>
      <trkpt lat="49.30036" lon="-0.30866">
        <ele>3.517184</ele>
        <time>2022-08-04T15:39:45.000Z</time>
      </trkpt>
      <trkpt lat="49.30034" lon="-0.30861">
        <ele>3.512422</ele>
        <time>2022-08-04T15:39:46.000Z</time>
      </trkpt>
      <trkpt lat="49.30032" lon="-0.30856">
        <ele>3.507587</ele>
        <time>2022-08-04T15:39:47.000Z</time>
      </trkpt>
      <trkpt lat="49.3003" lon="-0.30851">
        <ele>3.502612</ele>
        <time>2022-08-04T15:39:48.000Z</time>
      </trkpt>
      <trkpt lat="49.30028" lon="-0.30846">
        <ele>3.497637</ele>
        <time>2022-08-04T15:39:49.000Z</time>
      </trkpt>
      <trkpt lat="49.30026" lon="-0.30841">
        <ele>3.492583</ele>
        <time>2022-08-04T15:39:50.000Z</time>
      </trkpt>
      <trkpt lat="49.30024" lon="-0.30836">
        <ele>3.487454</ele>
        <time>2022-08-04T15:39:51.000Z</time>
      </trkpt>
      <trkpt lat="49.30022" lon="-0.3083">
        <ele>3.482126</ele>
        <time>2022-08-04T15:39:52.000Z</time>
      </trkpt>
      <trkpt lat="49.3002" lon="-0.30825">
        <ele>3.476585</ele>
        <time>2022-08-04T15:39:53.000Z</time>
      </trkpt>
      <trkpt lat="49.30017" lon="-0.30819">
        <ele>3.470969</ele>
        <time>2022-08-04T15:39:54.000Z</time>
      </trkpt>
      <trkpt lat="49.30015" lon="-0.30813">
        <ele>3.465066</ele>
        <time>2022-08-04T15:39:55.000Z</time>
      </trkpt>
      <trkpt lat="49.30013" lon="-0.30808">
        <ele>3.459595</ele>
        <time>2022-08-04T15:39:56.000Z</time>
      </trkpt>
      <trkpt lat="49.3001" lon="-0.30803">
        <ele>3.454105</ele>
        <time>2022-08-04T15:39:57.000Z</time>
      </trkpt>
      <trkpt lat="49.30008" lon="-0.30798">
        <ele>3.44906</ele>
        <time>2022-08-04T15:39:58.000Z</time>
      </trkpt>
      <trkpt lat="49.30006" lon="-0.30793">
        <ele>3.443931</ele>
        <time>2022-08-04T15:39:59.000Z</time>
      </trkpt>
      <trkpt lat="49.30004" lon="-0.30787">
        <ele>3.438811</ele>
        <time>2022-08-04T15:40:00.000Z</time>
      </trkpt>
      <trkpt lat="49.30002" lon="-0.30782">
        <ele>3.433858</ele>
        <time>2022-08-04T15:40:01.000Z</time>
      </trkpt>
      <trkpt lat="49.30001" lon="-0.30776">
        <ele>3.428596</ele>
        <time>2022-08-04T15:40:02.000Z</time>
      </trkpt>
      <trkpt lat="49.29999" lon="-0.30771">
        <ele>3.423488</ele>
        <time>2022-08-04T15:40:03.000Z</time>
      </trkpt>
      <trkpt lat="49.29998" lon="-0.30765">
        <ele>3.41849</ele>
        <time>2022-08-04T15:40:04.000Z</time>
      </trkpt>
      <trkpt lat="49.29996" lon="-0.3076">
        <ele>3.413227</ele>
        <time>2022-08-04T15:40:05.000Z</time>
      </trkpt>
      <trkpt lat="49.29994" lon="-0.30754">
        <ele>3.407663</ele>
        <time>2022-08-04T15:40:06.000Z</time>
      </trkpt>
      <trkpt lat="49.29992" lon="-0.30748">
        <ele>3.402234</ele>
        <time>2022-08-04T15:40:07.000Z</time>
      </trkpt>
      <trkpt lat="49.2999" lon="-0.30743">
        <ele>3.396762</ele>
        <time>2022-08-04T15:40:08.000Z</time>
      </trkpt>
      <trkpt lat="49.29988" lon="-0.30737">
        <ele>3.391006</ele>
        <time>2022-08-04T15:40:09.000Z</time>
      </trkpt>
      <trkpt lat="49.29985" lon="-0.30731">
        <ele>3.385039</ele>
        <time>2022-08-04T15:40:10.000Z</time>
      </trkpt>
      <trkpt lat="49.29983" lon="-0.30725">
        <ele>3.379063</ele>
        <time>2022-08-04T15:40:11.000Z</time>
      </trkpt>
      <trkpt lat="49.29981" lon="-0.30719">
        <ele>3.3733</ele>
        <time>2022-08-04T15:40:12.000Z</time>
      </trkpt>
      <trkpt lat="49.29979" lon="-0.30713">
        <ele>3.367609</ele>
        <time>2022-08-04T15:40:13.000Z</time>
      </trkpt>
      <trkpt lat="49.29976" lon="-0.30707">
        <ele>3.368276</ele>
        <time>2022-08-04T15:40:14.000Z</time>
      </trkpt>
      <trkpt lat="49.29974" lon="-0.30701">
        <ele>3.369941</ele>
        <time>2022-08-04T15:40:15.000Z</time>
      </trkpt>
      <trkpt lat="49.29972" lon="-0.30695">
        <ele>3.371556</ele>
        <time>2022-08-04T15:40:16.000Z</time>
      </trkpt>
      <trkpt lat="49.29971" lon="-0.30689">
        <ele>3.373125</ele>
        <time>2022-08-04T15:40:17.000Z</time>
      </trkpt>
      <trkpt lat="49.29969" lon="-0.30683">
        <ele>3.374693</ele>
        <time>2022-08-04T15:40:18.000Z</time>
      </trkpt>
      <trkpt lat="49.29967" lon="-0.30677">
        <ele>3.376324</ele>
        <time>2022-08-04T15:40:19.000Z</time>
      </trkpt>
      <trkpt lat="49.29965" lon="-0.30672">
        <ele>3.377873</ele>
        <time>2022-08-04T15:40:20.000Z</time>
      </trkpt>
      <trkpt lat="49.29963" lon="-0.30666">
        <ele>3.37938</ele>
        <time>2022-08-04T15:40:21.000Z</time>
      </trkpt>
      <trkpt lat="49.29962" lon="-0.30661">
        <ele>3.380728</ele>
        <time>2022-08-04T15:40:22.000Z</time>
      </trkpt>
      <trkpt lat="49.2996" lon="-0.30656">
        <ele>3.382032</ele>
        <time>2022-08-04T15:40:23.000Z</time>
      </trkpt>
      <trkpt lat="49.29959" lon="-0.30652">
        <ele>3.383179</ele>
        <time>2022-08-04T15:40:24.000Z</time>
      </trkpt>
      <trkpt lat="49.29958" lon="-0.30647">
        <ele>3.384318</ele>
        <time>2022-08-04T15:40:25.000Z</time>
      </trkpt>
      <trkpt lat="49.29956" lon="-0.30643">
        <ele>3.385657</ele>
        <time>2022-08-04T15:40:26.000Z</time>
      </trkpt>
      <trkpt lat="49.29954" lon="-0.30637">
        <ele>3.387118</ele>
        <time>2022-08-04T15:40:27.000Z</time>
      </trkpt>
      <trkpt lat="49.29953" lon="-0.30632">
        <ele>3.388522</ele>
        <time>2022-08-04T15:40:28.000Z</time>
      </trkpt>
      <trkpt lat="49.29951" lon="-0.30627">
        <ele>3.389869</ele>
        <time>2022-08-04T15:40:29.000Z</time>
      </trkpt>
      <trkpt lat="49.29949" lon="-0.30622">
        <ele>3.391207</ele>
        <time>2022-08-04T15:40:30.000Z</time>
      </trkpt>
      <trkpt lat="49.29948" lon="-0.30618">
        <ele>3.392429</ele>
        <time>2022-08-04T15:40:31.000Z</time>
      </trkpt>
      <trkpt lat="49.29947" lon="-0.30613">
        <ele>3.393669</ele>
        <time>2022-08-04T15:40:32.000Z</time>
      </trkpt>
      <trkpt lat="49.29945" lon="-0.30609">
        <ele>3.394987</ele>
        <time>2022-08-04T15:40:33.000Z</time>
      </trkpt>
      <trkpt lat="49.29943" lon="-0.30604">
        <ele>3.396228</ele>
        <time>2022-08-04T15:40:34.000Z</time>
      </trkpt>
      <trkpt lat="49.29942" lon="-0.30599">
        <ele>3.397413</ele>
        <time>2022-08-04T15:40:35.000Z</time>
      </trkpt>
      <trkpt lat="49.29941" lon="-0.30595">
        <ele>3.398605</ele>
        <time>2022-08-04T15:40:36.000Z</time>
      </trkpt>
      <trkpt lat="49.29939" lon="-0.30591">
        <ele>3.399761</ele>
        <time>2022-08-04T15:40:37.000Z</time>
      </trkpt>
      <trkpt lat="49.29938" lon="-0.30587">
        <ele>3.400775</ele>
        <time>2022-08-04T15:40:38.000Z</time>
      </trkpt>
      <trkpt lat="49.29937" lon="-0.30584">
        <ele>3.401732</ele>
        <time>2022-08-04T15:40:39.000Z</time>
      </trkpt>
      <trkpt lat="49.29935" lon="-0.30581">
        <ele>3.402708</ele>
        <time>2022-08-04T15:40:40.000Z</time>
      </trkpt>
      <trkpt lat="49.29934" lon="-0.30578">
        <ele>3.403463</ele>
        <time>2022-08-04T15:40:41.000Z</time>
      </trkpt>
      <trkpt lat="49.29933" lon="-0.30575">
        <ele>3.404219</ele>
        <time>2022-08-04T15:40:42.000Z</time>
      </trkpt>
      <trkpt lat="49.29932" lon="-0.30573">
        <ele>3.404992</ele>
        <time>2022-08-04T15:40:43.000Z</time>
      </trkpt>
      <trkpt lat="49.2993" lon="-0.3057">
        <ele>3.405864</ele>
        <time>2022-08-04T15:40:44.000Z</time>
      </trkpt>
      <trkpt lat="49.29929" lon="-0.30566">
        <ele>3.406886</ele>
        <time>2022-08-04T15:40:45.000Z</time>
      </trkpt>
      <trkpt lat="49.29928" lon="-0.30562">
        <ele>3.408011</ele>
        <time>2022-08-04T15:40:46.000Z</time>
      </trkpt>
      <trkpt lat="49.29927" lon="-0.30557">
        <ele>3.409162</ele>
        <time>2022-08-04T15:40:47.000Z</time>
      </trkpt>
      <trkpt lat="49.29925" lon="-0.30553">
        <ele>3.410466</ele>
        <time>2022-08-04T15:40:48.000Z</time>
      </trkpt>
      <trkpt lat="49.29924" lon="-0.30547">
        <ele>3.411768</ele>
        <time>2022-08-04T15:40:49.000Z</time>
      </trkpt>
      <trkpt lat="49.29923" lon="-0.30542">
        <ele>3.413182</ele>
        <time>2022-08-04T15:40:50.000Z</time>
      </trkpt>
      <trkpt lat="49.29921" lon="-0.30537">
        <ele>3.414639</ele>
        <time>2022-08-04T15:40:51.000Z</time>
      </trkpt>
      <trkpt lat="49.29919" lon="-0.30531">
        <ele>3.416206</ele>
        <time>2022-08-04T15:40:52.000Z</time>
      </trkpt>
      <trkpt lat="49.29917" lon="-0.30525">
        <ele>3.417712</ele>
        <time>2022-08-04T15:40:53.000Z</time>
      </trkpt>
      <trkpt lat="49.29915" lon="-0.3052">
        <ele>3.419283</ele>
        <time>2022-08-04T15:40:54.000Z</time>
      </trkpt>
      <trkpt lat="49.29913" lon="-0.30514">
        <ele>3.420833</ele>
        <time>2022-08-04T15:40:55.000Z</time>
      </trkpt>
      <trkpt lat="49.29911" lon="-0.30508">
        <ele>3.422403</ele>
        <time>2022-08-04T15:40:56.000Z</time>
      </trkpt>
      <trkpt lat="49.29909" lon="-0.30502">
        <ele>3.423991</ele>
        <time>2022-08-04T15:40:57.000Z</time>
      </trkpt>
      <trkpt lat="49.29908" lon="-0.30496">
        <ele>3.425649</ele>
        <time>2022-08-04T15:40:58.000Z</time>
      </trkpt>
      <trkpt lat="49.29906" lon="-0.3049">
        <ele>3.427263</ele>
        <time>2022-08-04T15:40:59.000Z</time>
      </trkpt>
      <trkpt lat="49.29904" lon="-0.30484">
        <ele>3.428863</ele>
        <time>2022-08-04T15:41:00.000Z</time>
      </trkpt>
      <trkpt lat="49.29902" lon="-0.30477">
        <ele>3.430565</ele>
        <time>2022-08-04T15:41:01.000Z</time>
      </trkpt>
      <trkpt lat="49.29901" lon="-0.30471">
        <ele>3.432245</ele>
        <time>2022-08-04T15:41:02.000Z</time>
      </trkpt>
      <trkpt lat="49.29899" lon="-0.30465">
        <ele>3.433141</ele>
        <time>2022-08-04T15:41:03.000Z</time>
      </trkpt>
      <trkpt lat="49.29897" lon="-0.30458">
        <ele>3.430887</ele>
        <time>2022-08-04T15:41:04.000Z</time>
      </trkpt>
      <trkpt lat="49.29895" lon="-0.30451">
        <ele>3.428679</ele>
        <time>2022-08-04T15:41:05.000Z</time>
      </trkpt>
      <trkpt lat="49.29893" lon="-0.30445">
        <ele>3.426438</ele>
        <time>2022-08-04T15:41:06.000Z</time>
      </trkpt>
      <trkpt lat="49.2989" lon="-0.30438">
        <ele>3.424053</ele>
        <time>2022-08-04T15:41:07.000Z</time>
      </trkpt>
      <trkpt lat="49.29888" lon="-0.30431">
        <ele>3.421817</ele>
        <time>2022-08-04T15:41:08.000Z</time>
      </trkpt>
      <trkpt lat="49.29886" lon="-0.30425">
        <ele>3.419631</ele>
        <time>2022-08-04T15:41:09.000Z</time>
      </trkpt>
      <trkpt lat="49.29884" lon="-0.30418">
        <ele>3.417376</ele>
        <time>2022-08-04T15:41:10.000Z</time>
      </trkpt>
      <trkpt lat="49.29882" lon="-0.30412">
        <ele>3.415252</ele>
        <time>2022-08-04T15:41:11.000Z</time>
      </trkpt>
      <trkpt lat="49.2988" lon="-0.30406">
        <ele>3.413129</ele>
        <time>2022-08-04T15:41:12.000Z</time>
      </trkpt>
      <trkpt lat="49.29878" lon="-0.30399">
        <ele>3.410949</ele>
        <time>2022-08-04T15:41:13.000Z</time>
      </trkpt>
      <trkpt lat="49.29877" lon="-0.30393">
        <ele>3.408823</ele>
        <time>2022-08-04T15:41:14.000Z</time>
      </trkpt>
      <trkpt lat="49.29874" lon="-0.30386">
        <ele>3.406516</ele>
        <time>2022-08-04T15:41:15.000Z</time>
      </trkpt>
      <trkpt lat="49.29872" lon="-0.3038">
        <ele>3.404392</ele>
        <time>2022-08-04T15:41:16.000Z</time>
      </trkpt>
      <trkpt lat="49.2987" lon="-0.30374">
        <ele>3.402233</ele>
        <time>2022-08-04T15:41:17.000Z</time>
      </trkpt>
      <trkpt lat="49.29868" lon="-0.30367">
        <ele>3.400006</ele>
        <time>2022-08-04T15:41:18.000Z</time>
      </trkpt>
      <trkpt lat="49.29866" lon="-0.3036">
        <ele>3.397656</ele>
        <time>2022-08-04T15:41:19.000Z</time>
      </trkpt>
      <trkpt lat="49.29864" lon="-0.30353">
        <ele>3.395336</ele>
        <time>2022-08-04T15:41:20.000Z</time>
      </trkpt>
      <trkpt lat="49.29862" lon="-0.30346">
        <ele>3.392987</ele>
        <time>2022-08-04T15:41:21.000Z</time>
      </trkpt>
      <trkpt lat="49.2986" lon="-0.30339">
        <ele>3.390534</ele>
        <time>2022-08-04T15:41:22.000Z</time>
      </trkpt>
      <trkpt lat="49.29858" lon="-0.30332">
        <ele>3.388271</ele>
        <time>2022-08-04T15:41:23.000Z</time>
      </trkpt>
      <trkpt lat="49.29855" lon="-0.30325">
        <ele>3.385921</ele>
        <time>2022-08-04T15:41:24.000Z</time>
      </trkpt>
      <trkpt lat="49.29853" lon="-0.30319">
        <ele>3.383577</ele>
        <time>2022-08-04T15:41:25.000Z</time>
      </trkpt>
      <trkpt lat="49.29851" lon="-0.30311">
        <ele>3.3812</ele>
        <time>2022-08-04T15:41:26.000Z</time>
      </trkpt>
      <trkpt lat="49.29849" lon="-0.30305">
        <ele>3.378937</ele>
        <time>2022-08-04T15:41:27.000Z</time>
      </trkpt>
      <trkpt lat="49.29847" lon="-0.30298">
        <ele>3.376617</ele>
        <time>2022-08-04T15:41:28.000Z</time>
      </trkpt>
      <trkpt lat="49.29845" lon="-0.30291">
        <ele>3.374278</ele>
        <time>2022-08-04T15:41:29.000Z</time>
      </trkpt>
      <trkpt lat="49.29844" lon="-0.30284">
        <ele>3.372099</ele>
        <time>2022-08-04T15:41:30.000Z</time>
      </trkpt>
      <trkpt lat="49.29842" lon="-0.30278">
        <ele>3.370058</ele>
        <time>2022-08-04T15:41:31.000Z</time>
      </trkpt>
      <trkpt lat="49.2984" lon="-0.30272">
        <ele>3.367962</ele>
        <time>2022-08-04T15:41:32.000Z</time>
      </trkpt>
      <trkpt lat="49.29838" lon="-0.30266">
        <ele>3.365893</ele>
        <time>2022-08-04T15:41:33.000Z</time>
      </trkpt>
      <trkpt lat="49.29836" lon="-0.3026">
        <ele>3.363907</ele>
        <time>2022-08-04T15:41:34.000Z</time>
      </trkpt>
      <trkpt lat="49.29835" lon="-0.30254">
        <ele>3.362001</ele>
        <time>2022-08-04T15:41:35.000Z</time>
      </trkpt>
      <trkpt lat="49.29833" lon="-0.30249">
        <ele>3.360204</ele>
        <time>2022-08-04T15:41:36.000Z</time>
      </trkpt>
      <trkpt lat="49.29831" lon="-0.30244">
        <ele>3.3585</ele>
        <time>2022-08-04T15:41:37.000Z</time>
      </trkpt>
      <trkpt lat="49.29829" lon="-0.30238">
        <ele>3.3566</ele>
        <time>2022-08-04T15:41:38.000Z</time>
      </trkpt>
      <trkpt lat="49.29828" lon="-0.30233">
        <ele>3.354813</ele>
        <time>2022-08-04T15:41:39.000Z</time>
      </trkpt>
      <trkpt lat="49.29826" lon="-0.30227">
        <ele>3.352914</ele>
        <time>2022-08-04T15:41:40.000Z</time>
      </trkpt>
      <trkpt lat="49.29825" lon="-0.30221">
        <ele>3.350994</ele>
        <time>2022-08-04T15:41:41.000Z</time>
      </trkpt>
      <trkpt lat="49.29823" lon="-0.30215">
        <ele>3.349854</ele>
        <time>2022-08-04T15:41:42.000Z</time>
      </trkpt>
      <trkpt lat="49.29821" lon="-0.30208">
        <ele>3.354003</ele>
        <time>2022-08-04T15:41:43.000Z</time>
      </trkpt>
      <trkpt lat="49.2982" lon="-0.30202">
        <ele>3.358168</ele>
        <time>2022-08-04T15:41:44.000Z</time>
      </trkpt>
      <trkpt lat="49.29817" lon="-0.30195">
        <ele>3.362395</ele>
        <time>2022-08-04T15:41:45.000Z</time>
      </trkpt>
      <trkpt lat="49.29815" lon="-0.30189">
        <ele>3.366765</ele>
        <time>2022-08-04T15:41:46.000Z</time>
      </trkpt>
      <trkpt lat="49.29813" lon="-0.30182">
        <ele>3.371036</ele>
        <time>2022-08-04T15:41:47.000Z</time>
      </trkpt>
      <trkpt lat="49.29811" lon="-0.30175">
        <ele>3.375412</ele>
        <time>2022-08-04T15:41:48.000Z</time>
      </trkpt>
      <trkpt lat="49.29809" lon="-0.30168">
        <ele>3.379789</ele>
        <time>2022-08-04T15:41:49.000Z</time>
      </trkpt>
      <trkpt lat="49.29807" lon="-0.30161">
        <ele>3.384417</ele>
        <time>2022-08-04T15:41:50.000Z</time>
      </trkpt>
      <trkpt lat="49.29805" lon="-0.30153">
        <ele>3.3889</ele>
        <time>2022-08-04T15:41:51.000Z</time>
      </trkpt>
      <trkpt lat="49.29803" lon="-0.30146">
        <ele>3.39333</ele>
        <time>2022-08-04T15:41:52.000Z</time>
      </trkpt>
      <trkpt lat="49.29802" lon="-0.30139">
        <ele>3.39783</ele>
        <time>2022-08-04T15:41:53.000Z</time>
      </trkpt>
      <trkpt lat="49.298" lon="-0.30131">
        <ele>3.40244</ele>
        <time>2022-08-04T15:41:54.000Z</time>
      </trkpt>
      <trkpt lat="49.29798" lon="-0.30124">
        <ele>3.406995</ele>
        <time>2022-08-04T15:41:55.000Z</time>
      </trkpt>
      <trkpt lat="49.29796" lon="-0.30116">
        <ele>3.411689</ele>
        <time>2022-08-04T15:41:56.000Z</time>
      </trkpt>
      <trkpt lat="49.29793" lon="-0.30108">
        <ele>3.417125</ele>
        <time>2022-08-04T15:41:57.000Z</time>
      </trkpt>
      <trkpt lat="49.29791" lon="-0.30101">
        <ele>3.421775</ele>
        <time>2022-08-04T15:41:58.000Z</time>
      </trkpt>
      <trkpt lat="49.29789" lon="-0.30095">
        <ele>3.425315</ele>
        <time>2022-08-04T15:41:59.000Z</time>
      </trkpt>
      <trkpt lat="49.29788" lon="-0.30088">
        <ele>3.429906</ele>
        <time>2022-08-04T15:42:00.000Z</time>
      </trkpt>
      <trkpt lat="49.29785" lon="-0.30079">
        <ele>3.435238</ele>
        <time>2022-08-04T15:42:01.000Z</time>
      </trkpt>
      <trkpt lat="49.29783" lon="-0.30072">
        <ele>3.439721</ele>
        <time>2022-08-04T15:42:02.000Z</time>
      </trkpt>
      <trkpt lat="49.29781" lon="-0.30065">
        <ele>3.444133</ele>
        <time>2022-08-04T15:42:03.000Z</time>
      </trkpt>
      <trkpt lat="49.2978" lon="-0.30059">
        <ele>3.447715</ele>
        <time>2022-08-04T15:42:04.000Z</time>
      </trkpt>
      <trkpt lat="49.29778" lon="-0.30051">
        <ele>3.453047</ele>
        <time>2022-08-04T15:42:05.000Z</time>
      </trkpt>
      <trkpt lat="49.29776" lon="-0.30044">
        <ele>3.457531</ele>
        <time>2022-08-04T15:42:06.000Z</time>
      </trkpt>
      <trkpt lat="49.29774" lon="-0.30036">
        <ele>3.462068</ele>
        <time>2022-08-04T15:42:07.000Z</time>
      </trkpt>
      <trkpt lat="49.29772" lon="-0.3003">
        <ele>3.465756</ele>
        <time>2022-08-04T15:42:08.000Z</time>
      </trkpt>
      <trkpt lat="49.2977" lon="-0.30022">
        <ele>3.471176</ele>
        <time>2022-08-04T15:42:09.000Z</time>
      </trkpt>
      <trkpt lat="49.29768" lon="-0.30015">
        <ele>3.475606</ele>
        <time>2022-08-04T15:42:10.000Z</time>
      </trkpt>
      <trkpt lat="49.29766" lon="-0.30007">
        <ele>3.480196</ele>
        <time>2022-08-04T15:42:11.000Z</time>
      </trkpt>
      <trkpt lat="49.29764" lon="-0.30002">
        <ele>3.483673</ele>
        <time>2022-08-04T15:42:12.000Z</time>
      </trkpt>
      <trkpt lat="49.29762" lon="-0.29994">
        <ele>3.488878</ele>
        <time>2022-08-04T15:42:13.000Z</time>
      </trkpt>
      <trkpt lat="49.2976" lon="-0.29987">
        <ele>3.493095</ele>
        <time>2022-08-04T15:42:14.000Z</time>
      </trkpt>
      <trkpt lat="49.29758" lon="-0.2998">
        <ele>3.497366</ele>
        <time>2022-08-04T15:42:15.000Z</time>
      </trkpt>
      <trkpt lat="49.29757" lon="-0.29975">
        <ele>3.500737</ele>
        <time>2022-08-04T15:42:16.000Z</time>
      </trkpt>
      <trkpt lat="49.29755" lon="-0.29968">
        <ele>3.504856</ele>
        <time>2022-08-04T15:42:17.000Z</time>
      </trkpt>
      <trkpt lat="49.29754" lon="-0.2996">
        <ele>3.510257</ele>
        <time>2022-08-04T15:42:18.000Z</time>
      </trkpt>
      <trkpt lat="49.29752" lon="-0.29955">
        <ele>3.515702</ele>
        <time>2022-08-04T15:42:19.000Z</time>
      </trkpt>
      <trkpt lat="49.29751" lon="-0.29949">
        <ele>3.52204</ele>
        <time>2022-08-04T15:42:20.000Z</time>
      </trkpt>
      <trkpt lat="49.2975" lon="-0.29943">
        <ele>3.527774</ele>
        <time>2022-08-04T15:42:21.000Z</time>
      </trkpt>
      <trkpt lat="49.29748" lon="-0.29939">
        <ele>3.53318</ele>
        <time>2022-08-04T15:42:22.000Z</time>
      </trkpt>
      <trkpt lat="49.29746" lon="-0.29935">
        <ele>3.538447</ele>
        <time>2022-08-04T15:42:23.000Z</time>
      </trkpt>
      <trkpt lat="49.29744" lon="-0.29931">
        <ele>3.542817</ele>
        <time>2022-08-04T15:42:24.000Z</time>
      </trkpt>
      <trkpt lat="49.29744" lon="-0.29926">
        <ele>3.5475</ele>
        <time>2022-08-04T15:42:25.000Z</time>
      </trkpt>
      <trkpt lat="49.29743" lon="-0.2992">
        <ele>3.553177</ele>
        <time>2022-08-04T15:42:26.000Z</time>
      </trkpt>
      <trkpt lat="49.29742" lon="-0.29916">
        <ele>3.557967</ele>
        <time>2022-08-04T15:42:27.000Z</time>
      </trkpt>
      <trkpt lat="49.2974" lon="-0.29911">
        <ele>3.563151</ele>
        <time>2022-08-04T15:42:28.000Z</time>
      </trkpt>
      <trkpt lat="49.29739" lon="-0.29906">
        <ele>3.568505</ele>
        <time>2022-08-04T15:42:29.000Z</time>
      </trkpt>
      <trkpt lat="49.29738" lon="-0.29901">
        <ele>3.573061</ele>
        <time>2022-08-04T15:42:30.000Z</time>
      </trkpt>
      <trkpt lat="49.29736" lon="-0.29896">
        <ele>3.579039</ele>
        <time>2022-08-04T15:42:31.000Z</time>
      </trkpt>
      <trkpt lat="49.29735" lon="-0.2989">
        <ele>3.585107</ele>
        <time>2022-08-04T15:42:32.000Z</time>
      </trkpt>
      <trkpt lat="49.29733" lon="-0.29883">
        <ele>3.592441</ele>
        <time>2022-08-04T15:42:33.000Z</time>
      </trkpt>
      <trkpt lat="49.29732" lon="-0.29879">
        <ele>3.59709</ele>
        <time>2022-08-04T15:42:34.000Z</time>
      </trkpt>
      <trkpt lat="49.2973" lon="-0.29873">
        <ele>3.603551</ele>
        <time>2022-08-04T15:42:35.000Z</time>
      </trkpt>
      <trkpt lat="49.29729" lon="-0.29867">
        <ele>3.609889</ele>
        <time>2022-08-04T15:42:36.000Z</time>
      </trkpt>
      <trkpt lat="49.29727" lon="-0.2986">
        <ele>3.616409</ele>
        <time>2022-08-04T15:42:37.000Z</time>
      </trkpt>
      <trkpt lat="49.29725" lon="-0.29854">
        <ele>3.623018</ele>
        <time>2022-08-04T15:42:38.000Z</time>
      </trkpt>
      <trkpt lat="49.29723" lon="-0.29848">
        <ele>3.629717</ele>
        <time>2022-08-04T15:42:39.000Z</time>
      </trkpt>
      <trkpt lat="49.29721" lon="-0.2984">
        <ele>3.637936</ele>
        <time>2022-08-04T15:42:40.000Z</time>
      </trkpt>
      <trkpt lat="49.2972" lon="-0.29834">
        <ele>3.644678</ele>
        <time>2022-08-04T15:42:41.000Z</time>
      </trkpt>
      <trkpt lat="49.29718" lon="-0.29829">
        <ele>3.650124</ele>
        <time>2022-08-04T15:42:42.000Z</time>
      </trkpt>
      <trkpt lat="49.29717" lon="-0.29823">
        <ele>3.656643</ele>
        <time>2022-08-04T15:42:43.000Z</time>
      </trkpt>
      <trkpt lat="49.29714" lon="-0.29815">
        <ele>3.664924</ele>
        <time>2022-08-04T15:42:44.000Z</time>
      </trkpt>
      <trkpt lat="49.29713" lon="-0.29809">
        <ele>3.671353</ele>
        <time>2022-08-04T15:42:45.000Z</time>
      </trkpt>
      <trkpt lat="49.29711" lon="-0.29802">
        <ele>3.678229</ele>
        <time>2022-08-04T15:42:46.000Z</time>
      </trkpt>
      <trkpt lat="49.2971" lon="-0.29797">
        <ele>3.683301</ele>
        <time>2022-08-04T15:42:47.000Z</time>
      </trkpt>
      <trkpt lat="49.29708" lon="-0.29791">
        <ele>3.689976</ele>
        <time>2022-08-04T15:42:48.000Z</time>
      </trkpt>
      <trkpt lat="49.29706" lon="-0.29784">
        <ele>3.69739</ele>
        <time>2022-08-04T15:42:49.000Z</time>
      </trkpt>
      <trkpt lat="49.29705" lon="-0.29779">
        <ele>3.702563</ele>
        <time>2022-08-04T15:42:50.000Z</time>
      </trkpt>
      <trkpt lat="49.29704" lon="-0.29776">
        <ele>3.70588</ele>
        <time>2022-08-04T15:42:51.000Z</time>
      </trkpt>
      <trkpt lat="49.29703" lon="-0.29772">
        <ele>3.709978</ele>
        <time>2022-08-04T15:42:52.000Z</time>
      </trkpt>
      <trkpt lat="49.29702" lon="-0.29769">
        <ele>3.713931</ele>
        <time>2022-08-04T15:42:53.000Z</time>
      </trkpt>
      <trkpt lat="49.29699" lon="-0.29765">
        <ele>3.719316</ele>
        <time>2022-08-04T15:42:55.000Z</time>
      </trkpt>
      <trkpt lat="49.29697" lon="-0.29762">
        <ele>3.723365</ele>
        <time>2022-08-04T15:42:57.000Z</time>
      </trkpt>
      <trkpt lat="49.29695" lon="-0.29759">
        <ele>3.727559</ele>
        <time>2022-08-04T15:42:59.000Z</time>
      </trkpt>
      <trkpt lat="49.29696" lon="-0.29748">
        <ele>3.738419</ele>
        <time>2022-08-04T15:43:15.000Z</time>
      </trkpt>
      <trkpt lat="49.29695" lon="-0.29745">
        <ele>3.742052</ele>
        <time>2022-08-04T15:43:16.000Z</time>
      </trkpt>
      <trkpt lat="49.29695" lon="-0.29741">
        <ele>3.745819</ele>
        <time>2022-08-04T15:43:17.000Z</time>
      </trkpt>
      <trkpt lat="49.29694" lon="-0.29737">
        <ele>3.750119</ele>
        <time>2022-08-04T15:43:18.000Z</time>
      </trkpt>
      <trkpt lat="49.29693" lon="-0.29732">
        <ele>3.754842</ele>
        <time>2022-08-04T15:43:19.000Z</time>
      </trkpt>
      <trkpt lat="49.29692" lon="-0.29728">
        <ele>3.759769</ele>
        <time>2022-08-04T15:43:20.000Z</time>
      </trkpt>
      <trkpt lat="49.29691" lon="-0.29721">
        <ele>3.766187</ele>
        <time>2022-08-04T15:43:21.000Z</time>
      </trkpt>
      <trkpt lat="49.29689" lon="-0.29717">
        <ele>3.77091</ele>
        <time>2022-08-04T15:43:22.000Z</time>
      </trkpt>
      <trkpt lat="49.29688" lon="-0.2971">
        <ele>3.777558</ele>
        <time>2022-08-04T15:43:23.000Z</time>
      </trkpt>
      <trkpt lat="49.29687" lon="-0.29706">
        <ele>3.778608</ele>
        <time>2022-08-04T15:43:24.000Z</time>
      </trkpt>
      <trkpt lat="49.29685" lon="-0.29699">
        <ele>3.779496</ele>
        <time>2022-08-04T15:43:25.000Z</time>
      </trkpt>
      <trkpt lat="49.29684" lon="-0.29695">
        <ele>3.780031</ele>
        <time>2022-08-04T15:43:26.000Z</time>
      </trkpt>
      <trkpt lat="49.29681" lon="-0.29688">
        <ele>3.780945</ele>
        <time>2022-08-04T15:43:27.000Z</time>
      </trkpt>
      <trkpt lat="49.29679" lon="-0.29682">
        <ele>3.781694</ele>
        <time>2022-08-04T15:43:28.000Z</time>
      </trkpt>
      <trkpt lat="49.29678" lon="-0.29676">
        <ele>3.782402</ele>
        <time>2022-08-04T15:43:29.000Z</time>
      </trkpt>
      <trkpt lat="49.29676" lon="-0.29671">
        <ele>3.78313</ele>
        <time>2022-08-04T15:43:30.000Z</time>
      </trkpt>
      <trkpt lat="49.29675" lon="-0.29666">
        <ele>3.783707</ele>
        <time>2022-08-04T15:43:31.000Z</time>
      </trkpt>
      <trkpt lat="49.29673" lon="-0.29661">
        <ele>3.784444</ele>
        <time>2022-08-04T15:43:32.000Z</time>
      </trkpt>
      <trkpt lat="49.29671" lon="-0.29653">
        <ele>3.785354</ele>
        <time>2022-08-04T15:43:33.000Z</time>
      </trkpt>
      <trkpt lat="49.2967" lon="-0.29648">
        <ele>3.786072</ele>
        <time>2022-08-04T15:43:34.000Z</time>
      </trkpt>
      <trkpt lat="49.29669" lon="-0.29643">
        <ele>3.786672</ele>
        <time>2022-08-04T15:43:35.000Z</time>
      </trkpt>
      <trkpt lat="49.29667" lon="-0.29637">
        <ele>3.787506</ele>
        <time>2022-08-04T15:43:36.000Z</time>
      </trkpt>
      <trkpt lat="49.29665" lon="-0.29631">
        <ele>3.788212</ele>
        <time>2022-08-04T15:43:37.000Z</time>
      </trkpt>
      <trkpt lat="49.29664" lon="-0.29626">
        <ele>3.788858</ele>
        <time>2022-08-04T15:43:38.000Z</time>
      </trkpt>
      <trkpt lat="49.29662" lon="-0.29621">
        <ele>3.789485</ele>
        <time>2022-08-04T15:43:39.000Z</time>
      </trkpt>
      <trkpt lat="49.29661" lon="-0.29617">
        <ele>3.790025</ele>
        <time>2022-08-04T15:43:40.000Z</time>
      </trkpt>
      <trkpt lat="49.29659" lon="-0.29612">
        <ele>3.790785</ele>
        <time>2022-08-04T15:43:41.000Z</time>
      </trkpt>
      <trkpt lat="49.29657" lon="-0.29606">
        <ele>3.791469</ele>
        <time>2022-08-04T15:43:42.000Z</time>
      </trkpt>
      <trkpt lat="49.29656" lon="-0.296">
        <ele>3.792198</ele>
        <time>2022-08-04T15:43:43.000Z</time>
      </trkpt>
      <trkpt lat="49.29655" lon="-0.29596">
        <ele>3.79274</ele>
        <time>2022-08-04T15:43:44.000Z</time>
      </trkpt>
      <trkpt lat="49.29653" lon="-0.29589">
        <ele>3.793587</ele>
        <time>2022-08-04T15:43:45.000Z</time>
      </trkpt>
      <trkpt lat="49.29652" lon="-0.29583">
        <ele>3.794299</ele>
        <time>2022-08-04T15:43:46.000Z</time>
      </trkpt>
      <trkpt lat="49.29651" lon="-0.29579">
        <ele>3.79492</ele>
        <time>2022-08-04T15:43:47.000Z</time>
      </trkpt>
      <trkpt lat="49.29649" lon="-0.29573">
        <ele>3.795657</ele>
        <time>2022-08-04T15:43:48.000Z</time>
      </trkpt>
      <trkpt lat="49.29646" lon="-0.29566">
        <ele>3.796567</ele>
        <time>2022-08-04T15:43:49.000Z</time>
      </trkpt>
      <trkpt lat="49.29645" lon="-0.2956">
        <ele>3.797327</ele>
        <time>2022-08-04T15:43:50.000Z</time>
      </trkpt>
      <trkpt lat="49.29643" lon="-0.29554">
        <ele>3.798087</ele>
        <time>2022-08-04T15:43:51.000Z</time>
      </trkpt>
      <trkpt lat="49.29641" lon="-0.29548">
        <ele>3.798835</ele>
        <time>2022-08-04T15:43:52.000Z</time>
      </trkpt>
      <trkpt lat="49.2964" lon="-0.29544">
        <ele>3.799445</ele>
        <time>2022-08-04T15:43:53.000Z</time>
      </trkpt>
      <trkpt lat="49.29638" lon="-0.29538">
        <ele>3.800186</ele>
        <time>2022-08-04T15:43:54.000Z</time>
      </trkpt>
      <trkpt lat="49.29636" lon="-0.29531">
        <ele>3.801117</ele>
        <time>2022-08-04T15:43:55.000Z</time>
      </trkpt>
      <trkpt lat="49.29635" lon="-0.29525">
        <ele>3.801876</ele>
        <time>2022-08-04T15:43:56.000Z</time>
      </trkpt>
      <trkpt lat="49.29633" lon="-0.29519">
        <ele>3.802528</ele>
        <time>2022-08-04T15:43:57.000Z</time>
      </trkpt>
      <trkpt lat="49.29631" lon="-0.29512">
        <ele>3.803449</ele>
        <time>2022-08-04T15:43:58.000Z</time>
      </trkpt>
      <trkpt lat="49.2963" lon="-0.29506">
        <ele>3.804229</ele>
        <time>2022-08-04T15:43:59.000Z</time>
      </trkpt>
      <trkpt lat="49.29629" lon="-0.295">
        <ele>3.80497</ele>
        <time>2022-08-04T15:44:00.000Z</time>
      </trkpt>
      <trkpt lat="49.29627" lon="-0.29494">
        <ele>3.805762</ele>
        <time>2022-08-04T15:44:01.000Z</time>
      </trkpt>
      <trkpt lat="49.29625" lon="-0.29488">
        <ele>3.806435</ele>
        <time>2022-08-04T15:44:02.000Z</time>
      </trkpt>
      <trkpt lat="49.29623" lon="-0.29481">
        <ele>3.807377</ele>
        <time>2022-08-04T15:44:03.000Z</time>
      </trkpt>
      <trkpt lat="49.29621" lon="-0.29474">
        <ele>3.808229</ele>
        <time>2022-08-04T15:44:04.000Z</time>
      </trkpt>
      <trkpt lat="49.2962" lon="-0.29468">
        <ele>3.809064</ele>
        <time>2022-08-04T15:44:05.000Z</time>
      </trkpt>
      <trkpt lat="49.29618" lon="-0.29463">
        <ele>3.809762</ele>
        <time>2022-08-04T15:44:06.000Z</time>
      </trkpt>
      <trkpt lat="49.29616" lon="-0.29455">
        <ele>3.809759</ele>
        <time>2022-08-04T15:44:07.000Z</time>
      </trkpt>
      <trkpt lat="49.29613" lon="-0.29448">
        <ele>3.808213</ele>
        <time>2022-08-04T15:44:08.000Z</time>
      </trkpt>
      <trkpt lat="49.29612" lon="-0.29443">
        <ele>3.807058</ele>
        <time>2022-08-04T15:44:09.000Z</time>
      </trkpt>
      <trkpt lat="49.2961" lon="-0.29436">
        <ele>3.805604</ele>
        <time>2022-08-04T15:44:10.000Z</time>
      </trkpt>
      <trkpt lat="49.29608" lon="-0.29429">
        <ele>3.804075</ele>
        <time>2022-08-04T15:44:11.000Z</time>
      </trkpt>
      <trkpt lat="49.29606" lon="-0.29421">
        <ele>3.802303</ele>
        <time>2022-08-04T15:44:12.000Z</time>
      </trkpt>
      <trkpt lat="49.29605" lon="-0.29415">
        <ele>3.800895</ele>
        <time>2022-08-04T15:44:13.000Z</time>
      </trkpt>
      <trkpt lat="49.29603" lon="-0.29408">
        <ele>3.799404</ele>
        <time>2022-08-04T15:44:14.000Z</time>
      </trkpt>
      <trkpt lat="49.29601" lon="-0.29403">
        <ele>3.79821</ele>
        <time>2022-08-04T15:44:15.000Z</time>
      </trkpt>
      <trkpt lat="49.29599" lon="-0.29395">
        <ele>3.796472</ele>
        <time>2022-08-04T15:44:16.000Z</time>
      </trkpt>
      <trkpt lat="49.29598" lon="-0.29388">
        <ele>3.794996</ele>
        <time>2022-08-04T15:44:17.000Z</time>
      </trkpt>
      <trkpt lat="49.29596" lon="-0.29381">
        <ele>3.793492</ele>
        <time>2022-08-04T15:44:18.000Z</time>
      </trkpt>
      <trkpt lat="49.29594" lon="-0.29375">
        <ele>3.792038</ele>
        <time>2022-08-04T15:44:19.000Z</time>
      </trkpt>
      <trkpt lat="49.29592" lon="-0.29368">
        <ele>3.790621</ele>
        <time>2022-08-04T15:44:20.000Z</time>
      </trkpt>
      <trkpt lat="49.29591" lon="-0.29362">
        <ele>3.789233</ele>
        <time>2022-08-04T15:44:21.000Z</time>
      </trkpt>
      <trkpt lat="49.29589" lon="-0.29355">
        <ele>3.787797</ele>
        <time>2022-08-04T15:44:22.000Z</time>
      </trkpt>
      <trkpt lat="49.29587" lon="-0.29349">
        <ele>3.786436</ele>
        <time>2022-08-04T15:44:23.000Z</time>
      </trkpt>
      <trkpt lat="49.29585" lon="-0.29345">
        <ele>3.78539</ele>
        <time>2022-08-04T15:44:24.000Z</time>
      </trkpt>
      <trkpt lat="49.29583" lon="-0.29338">
        <ele>3.783771</ele>
        <time>2022-08-04T15:44:25.000Z</time>
      </trkpt>
      <trkpt lat="49.29581" lon="-0.29332">
        <ele>3.782366</ele>
        <time>2022-08-04T15:44:26.000Z</time>
      </trkpt>
      <trkpt lat="49.29579" lon="-0.29326">
        <ele>3.781099</ele>
        <time>2022-08-04T15:44:27.000Z</time>
      </trkpt>
      <trkpt lat="49.29578" lon="-0.29321">
        <ele>3.780017</ele>
        <time>2022-08-04T15:44:28.000Z</time>
      </trkpt>
      <trkpt lat="49.29576" lon="-0.29316">
        <ele>3.778732</ele>
        <time>2022-08-04T15:44:29.000Z</time>
      </trkpt>
      <trkpt lat="49.29575" lon="-0.2931">
        <ele>3.777441</ele>
        <time>2022-08-04T15:44:30.000Z</time>
      </trkpt>
      <trkpt lat="49.29573" lon="-0.29302">
        <ele>3.775836</ele>
        <time>2022-08-04T15:44:31.000Z</time>
      </trkpt>
      <trkpt lat="49.29572" lon="-0.29297">
        <ele>3.774756</ele>
        <time>2022-08-04T15:44:32.000Z</time>
      </trkpt>
      <trkpt lat="49.2957" lon="-0.29291">
        <ele>3.773408</ele>
        <time>2022-08-04T15:44:33.000Z</time>
      </trkpt>
      <trkpt lat="49.29569" lon="-0.29283">
        <ele>3.771772</ele>
        <time>2022-08-04T15:44:34.000Z</time>
      </trkpt>
      <trkpt lat="49.29567" lon="-0.29277">
        <ele>3.770353</ele>
        <time>2022-08-04T15:44:35.000Z</time>
      </trkpt>
      <trkpt lat="49.29566" lon="-0.2927">
        <ele>3.768935</ele>
        <time>2022-08-04T15:44:36.000Z</time>
      </trkpt>
      <trkpt lat="49.29565" lon="-0.29265">
        <ele>3.767789</ele>
        <time>2022-08-04T15:44:37.000Z</time>
      </trkpt>
      <trkpt lat="49.29563" lon="-0.29257">
        <ele>3.766032</ele>
        <time>2022-08-04T15:44:38.000Z</time>
      </trkpt>
      <trkpt lat="49.29561" lon="-0.2925">
        <ele>3.764503</ele>
        <time>2022-08-04T15:44:39.000Z</time>
      </trkpt>
      <trkpt lat="49.29559" lon="-0.29243">
        <ele>3.763036</ele>
        <time>2022-08-04T15:44:40.000Z</time>
      </trkpt>
      <trkpt lat="49.29557" lon="-0.29237">
        <ele>3.761577</ele>
        <time>2022-08-04T15:44:41.000Z</time>
      </trkpt>
      <trkpt lat="49.29555" lon="-0.29231">
        <ele>3.76016</ele>
        <time>2022-08-04T15:44:42.000Z</time>
      </trkpt>
      <trkpt lat="49.29552" lon="-0.29224">
        <ele>3.758621</ele>
        <time>2022-08-04T15:44:43.000Z</time>
      </trkpt>
      <trkpt lat="49.2955" lon="-0.29218">
        <ele>3.757198</ele>
        <time>2022-08-04T15:44:44.000Z</time>
      </trkpt>
      <trkpt lat="49.29548" lon="-0.29212">
        <ele>3.755777</ele>
        <time>2022-08-04T15:44:45.000Z</time>
      </trkpt>
      <trkpt lat="49.29546" lon="-0.29208">
        <ele>3.754648</ele>
        <time>2022-08-04T15:44:46.000Z</time>
      </trkpt>
      <trkpt lat="49.29543" lon="-0.29201">
        <ele>3.754172</ele>
        <time>2022-08-04T15:44:47.000Z</time>
      </trkpt>
      <trkpt lat="49.29541" lon="-0.29195">
        <ele>3.754267</ele>
        <time>2022-08-04T15:44:48.000Z</time>
      </trkpt>
      <trkpt lat="49.29538" lon="-0.29189">
        <ele>3.754364</ele>
        <time>2022-08-04T15:44:49.000Z</time>
      </trkpt>
      <trkpt lat="49.29536" lon="-0.29184">
        <ele>3.754448</ele>
        <time>2022-08-04T15:44:50.000Z</time>
      </trkpt>
      <trkpt lat="49.29533" lon="-0.29177">
        <ele>3.754567</ele>
        <time>2022-08-04T15:44:51.000Z</time>
      </trkpt>
      <trkpt lat="49.29532" lon="-0.29172">
        <ele>3.754648</ele>
        <time>2022-08-04T15:44:52.000Z</time>
      </trkpt>
      <trkpt lat="49.29529" lon="-0.29164">
        <ele>3.754772</ele>
        <time>2022-08-04T15:44:53.000Z</time>
      </trkpt>
      <trkpt lat="49.29526" lon="-0.29158">
        <ele>3.75488</ele>
        <time>2022-08-04T15:44:54.000Z</time>
      </trkpt>
      <trkpt lat="49.29525" lon="-0.29153">
        <ele>3.754956</ele>
        <time>2022-08-04T15:44:55.000Z</time>
      </trkpt>
      <trkpt lat="49.29523" lon="-0.29145">
        <ele>3.755082</ele>
        <time>2022-08-04T15:44:56.000Z</time>
      </trkpt>
      <trkpt lat="49.29521" lon="-0.29138">
        <ele>3.755186</ele>
        <time>2022-08-04T15:44:57.000Z</time>
      </trkpt>
      <trkpt lat="49.29518" lon="-0.29131">
        <ele>3.755294</ele>
        <time>2022-08-04T15:44:58.000Z</time>
      </trkpt>
      <trkpt lat="49.29517" lon="-0.29125">
        <ele>3.755381</ele>
        <time>2022-08-04T15:44:59.000Z</time>
      </trkpt>
      <trkpt lat="49.29516" lon="-0.29118">
        <ele>3.755486</ele>
        <time>2022-08-04T15:45:00.000Z</time>
      </trkpt>
      <trkpt lat="49.29514" lon="-0.2911">
        <ele>3.75561</ele>
        <time>2022-08-04T15:45:01.000Z</time>
      </trkpt>
      <trkpt lat="49.29512" lon="-0.29103">
        <ele>3.755716</ele>
        <time>2022-08-04T15:45:02.000Z</time>
      </trkpt>
      <trkpt lat="49.2951" lon="-0.29097">
        <ele>3.755819</ele>
        <time>2022-08-04T15:45:03.000Z</time>
      </trkpt>
      <trkpt lat="49.29509" lon="-0.29091">
        <ele>3.755904</ele>
        <time>2022-08-04T15:45:04.000Z</time>
      </trkpt>
      <trkpt lat="49.29506" lon="-0.29083">
        <ele>3.756026</ele>
        <time>2022-08-04T15:45:05.000Z</time>
      </trkpt>
      <trkpt lat="49.29504" lon="-0.29077">
        <ele>3.756127</ele>
        <time>2022-08-04T15:45:06.000Z</time>
      </trkpt>
      <trkpt lat="49.29502" lon="-0.2907">
        <ele>3.75623</ele>
        <time>2022-08-04T15:45:07.000Z</time>
      </trkpt>
      <trkpt lat="49.29501" lon="-0.29064">
        <ele>3.756314</ele>
        <time>2022-08-04T15:45:08.000Z</time>
      </trkpt>
      <trkpt lat="49.29499" lon="-0.29056">
        <ele>3.756437</ele>
        <time>2022-08-04T15:45:09.000Z</time>
      </trkpt>
      <trkpt lat="49.29497" lon="-0.2905">
        <ele>3.75654</ele>
        <time>2022-08-04T15:45:10.000Z</time>
      </trkpt>
      <trkpt lat="49.29495" lon="-0.29044">
        <ele>3.756637</ele>
        <time>2022-08-04T15:45:11.000Z</time>
      </trkpt>
      <trkpt lat="49.29494" lon="-0.29039">
        <ele>3.756711</ele>
        <time>2022-08-04T15:45:12.000Z</time>
      </trkpt>
      <trkpt lat="49.29493" lon="-0.29032">
        <ele>3.756803</ele>
        <time>2022-08-04T15:45:13.000Z</time>
      </trkpt>
      <trkpt lat="49.29492" lon="-0.29026">
        <ele>3.756904</ele>
        <time>2022-08-04T15:45:14.000Z</time>
      </trkpt>
      <trkpt lat="49.29491" lon="-0.2902">
        <ele>3.756983</ele>
        <time>2022-08-04T15:45:15.000Z</time>
      </trkpt>
      <trkpt lat="49.2949" lon="-0.29015">
        <ele>3.757061</ele>
        <time>2022-08-04T15:45:16.000Z</time>
      </trkpt>
      <trkpt lat="49.2949" lon="-0.29011">
        <ele>3.757122</ele>
        <time>2022-08-04T15:45:17.000Z</time>
      </trkpt>
      <trkpt lat="49.29489" lon="-0.29006">
        <ele>3.757194</ele>
        <time>2022-08-04T15:45:18.000Z</time>
      </trkpt>
      <trkpt lat="49.29488" lon="-0.29">
        <ele>3.757273</ele>
        <time>2022-08-04T15:45:19.000Z</time>
      </trkpt>
      <trkpt lat="49.29487" lon="-0.28996">
        <ele>3.757337</ele>
        <time>2022-08-04T15:45:20.000Z</time>
      </trkpt>
      <trkpt lat="49.29486" lon="-0.28993">
        <ele>3.757385</ele>
        <time>2022-08-04T15:45:21.000Z</time>
      </trkpt>
      <trkpt lat="49.29485" lon="-0.28989">
        <ele>3.75744</ele>
        <time>2022-08-04T15:45:22.000Z</time>
      </trkpt>
      <trkpt lat="49.29484" lon="-0.28985">
        <ele>3.757505</ele>
        <time>2022-08-04T15:45:23.000Z</time>
      </trkpt>
      <trkpt lat="49.29483" lon="-0.28981">
        <ele>3.757568</ele>
        <time>2022-08-04T15:45:24.000Z</time>
      </trkpt>
      <trkpt lat="49.29482" lon="-0.28978">
        <ele>3.757617</ele>
        <time>2022-08-04T15:45:25.000Z</time>
      </trkpt>
      <trkpt lat="49.2948" lon="-0.28974">
        <ele>3.757679</ele>
        <time>2022-08-04T15:45:26.000Z</time>
      </trkpt>
      <trkpt lat="49.29479" lon="-0.2897">
        <ele>3.757743</ele>
        <time>2022-08-04T15:45:27.000Z</time>
      </trkpt>
      <trkpt lat="49.29478" lon="-0.28966">
        <ele>3.7578</ele>
        <time>2022-08-04T15:45:28.000Z</time>
      </trkpt>
      <trkpt lat="49.29478" lon="-0.28963">
        <ele>3.757849</ele>
        <time>2022-08-04T15:45:29.000Z</time>
      </trkpt>
      <trkpt lat="49.29477" lon="-0.28961">
        <ele>3.75789</ele>
        <time>2022-08-04T15:45:30.000Z</time>
      </trkpt>
      <trkpt lat="49.29476" lon="-0.28957">
        <ele>3.757944</ele>
        <time>2022-08-04T15:45:31.000Z</time>
      </trkpt>
      <trkpt lat="49.29475" lon="-0.28952">
        <ele>3.758807</ele>
        <time>2022-08-04T15:45:32.000Z</time>
      </trkpt>
      <trkpt lat="49.29474" lon="-0.28947">
        <ele>3.761954</ele>
        <time>2022-08-04T15:45:33.000Z</time>
      </trkpt>
      <trkpt lat="49.29473" lon="-0.28943">
        <ele>3.764558</ele>
        <time>2022-08-04T15:45:34.000Z</time>
      </trkpt>
      <trkpt lat="49.29473" lon="-0.28938">
        <ele>3.76772</ele>
        <time>2022-08-04T15:45:35.000Z</time>
      </trkpt>
      <trkpt lat="49.29472" lon="-0.28932">
        <ele>3.771578</ele>
        <time>2022-08-04T15:45:36.000Z</time>
      </trkpt>
      <trkpt lat="49.29472" lon="-0.28926">
        <ele>3.77479</ele>
        <time>2022-08-04T15:45:37.000Z</time>
      </trkpt>
      <trkpt lat="49.29472" lon="-0.28922">
        <ele>3.777745</ele>
        <time>2022-08-04T15:45:38.000Z</time>
      </trkpt>
      <trkpt lat="49.29471" lon="-0.28918">
        <ele>3.780223</ele>
        <time>2022-08-04T15:45:39.000Z</time>
      </trkpt>
      <trkpt lat="49.29471" lon="-0.28913">
        <ele>3.7833</ele>
        <time>2022-08-04T15:45:40.000Z</time>
      </trkpt>
      <trkpt lat="49.29471" lon="-0.28907">
        <ele>3.786993</ele>
        <time>2022-08-04T15:45:41.000Z</time>
      </trkpt>
      <trkpt lat="49.29471" lon="-0.28902">
        <ele>3.789947</ele>
        <time>2022-08-04T15:45:42.000Z</time>
      </trkpt>
      <trkpt lat="49.29472" lon="-0.28898">
        <ele>3.792364</ele>
        <time>2022-08-04T15:45:43.000Z</time>
      </trkpt>
      <trkpt lat="49.29472" lon="-0.28893">
        <ele>3.795195</ele>
        <time>2022-08-04T15:45:44.000Z</time>
      </trkpt>
      <trkpt lat="49.29472" lon="-0.28888">
        <ele>3.798395</ele>
        <time>2022-08-04T15:45:45.000Z</time>
      </trkpt>
      <trkpt lat="49.29471" lon="-0.28884">
        <ele>3.801057</ele>
        <time>2022-08-04T15:45:46.000Z</time>
      </trkpt>
      <trkpt lat="49.29471" lon="-0.2888">
        <ele>3.803606</ele>
        <time>2022-08-04T15:45:47.000Z</time>
      </trkpt>
      <trkpt lat="49.2947" lon="-0.28877">
        <ele>3.805595</ele>
        <time>2022-08-04T15:45:48.000Z</time>
      </trkpt>
      <trkpt lat="49.2947" lon="-0.28872">
        <ele>3.808379</ele>
        <time>2022-08-04T15:45:49.000Z</time>
      </trkpt>
      <trkpt lat="49.2947" lon="-0.28868">
        <ele>3.810964</ele>
        <time>2022-08-04T15:45:50.000Z</time>
      </trkpt>
      <trkpt lat="49.2947" lon="-0.28864">
        <ele>3.813442</ele>
        <time>2022-08-04T15:45:51.000Z</time>
      </trkpt>
      <trkpt lat="49.29469" lon="-0.2886">
        <ele>3.815629</ele>
        <time>2022-08-04T15:45:52.000Z</time>
      </trkpt>
      <trkpt lat="49.29468" lon="-0.28856">
        <ele>3.818517</ele>
        <time>2022-08-04T15:45:53.000Z</time>
      </trkpt>
      <trkpt lat="49.29466" lon="-0.28855">
        <ele>3.82039</ele>
        <time>2022-08-04T15:45:54.000Z</time>
      </trkpt>
      <trkpt lat="49.29464" lon="-0.28853">
        <ele>3.822498</ele>
        <time>2022-08-04T15:45:55.000Z</time>
      </trkpt>
      <trkpt lat="49.29462" lon="-0.28852">
        <ele>3.824618</ele>
        <time>2022-08-04T15:45:56.000Z</time>
      </trkpt>
      <trkpt lat="49.2946" lon="-0.28852">
        <ele>3.827079</ele>
        <time>2022-08-04T15:45:57.000Z</time>
      </trkpt>
      <trkpt lat="49.29456" lon="-0.28853">
        <ele>3.83016</ele>
        <time>2022-08-04T15:45:58.000Z</time>
      </trkpt>
      <trkpt lat="49.29454" lon="-0.28855">
        <ele>3.832694</ele>
        <time>2022-08-04T15:45:59.000Z</time>
      </trkpt>
      <trkpt lat="49.29451" lon="-0.28856">
        <ele>3.835582</ele>
        <time>2022-08-04T15:46:00.000Z</time>
      </trkpt>
      <trkpt lat="49.29448" lon="-0.28858">
        <ele>3.8383</ele>
        <time>2022-08-04T15:46:01.000Z</time>
      </trkpt>
      <trkpt lat="49.29445" lon="-0.28861">
        <ele>3.841635</ele>
        <time>2022-08-04T15:46:02.000Z</time>
      </trkpt>
      <trkpt lat="49.29442" lon="-0.28863">
        <ele>3.845082</ele>
        <time>2022-08-04T15:46:03.000Z</time>
      </trkpt>
      <trkpt lat="49.29438" lon="-0.28866">
        <ele>3.848726</ele>
        <time>2022-08-04T15:46:04.000Z</time>
      </trkpt>
      <trkpt lat="49.29436" lon="-0.28868">
        <ele>3.851079</ele>
        <time>2022-08-04T15:46:05.000Z</time>
      </trkpt>
      <trkpt lat="49.29432" lon="-0.2887">
        <ele>3.855023</ele>
        <time>2022-08-04T15:46:06.000Z</time>
      </trkpt>
      <trkpt lat="49.29429" lon="-0.28872">
        <ele>3.858332</ele>
        <time>2022-08-04T15:46:07.000Z</time>
      </trkpt>
      <trkpt lat="49.29426" lon="-0.28874">
        <ele>3.861667</ele>
        <time>2022-08-04T15:46:08.000Z</time>
      </trkpt>
      <trkpt lat="49.29422" lon="-0.28876">
        <ele>3.865192</ele>
        <time>2022-08-04T15:46:09.000Z</time>
      </trkpt>
      <trkpt lat="49.29419" lon="-0.28878">
        <ele>3.868388</ele>
        <time>2022-08-04T15:46:10.000Z</time>
      </trkpt>
      <trkpt lat="49.29415" lon="-0.2888">
        <ele>3.872597</ele>
        <time>2022-08-04T15:46:11.000Z</time>
      </trkpt>
      <trkpt lat="49.2941" lon="-0.28883">
        <ele>3.877466</ele>
        <time>2022-08-04T15:46:12.000Z</time>
      </trkpt>
      <trkpt lat="49.29406" lon="-0.28885">
        <ele>3.881257</ele>
        <time>2022-08-04T15:46:13.000Z</time>
      </trkpt>
      <trkpt lat="49.29402" lon="-0.28888">
        <ele>3.885509</ele>
        <time>2022-08-04T15:46:14.000Z</time>
      </trkpt>
      <trkpt lat="49.29397" lon="-0.28891">
        <ele>3.89095</ele>
        <time>2022-08-04T15:46:15.000Z</time>
      </trkpt>
      <trkpt lat="49.29392" lon="-0.28893">
        <ele>3.895467</ele>
        <time>2022-08-04T15:46:16.000Z</time>
      </trkpt>
      <trkpt lat="49.29388" lon="-0.28896">
        <ele>3.900292</ele>
        <time>2022-08-04T15:46:17.000Z</time>
      </trkpt>
      <trkpt lat="49.29384" lon="-0.28898">
        <ele>3.903602</ele>
        <time>2022-08-04T15:46:18.000Z</time>
      </trkpt>
      <trkpt lat="49.2938" lon="-0.28901">
        <ele>3.907837</ele>
        <time>2022-08-04T15:46:19.000Z</time>
      </trkpt>
      <trkpt lat="49.29375" lon="-0.28904">
        <ele>3.913411</ele>
        <time>2022-08-04T15:46:20.000Z</time>
      </trkpt>
      <trkpt lat="49.2937" lon="-0.28907">
        <ele>3.917928</ele>
        <time>2022-08-04T15:46:21.000Z</time>
      </trkpt>
      <trkpt lat="49.29365" lon="-0.2891">
        <ele>3.922753</ele>
        <time>2022-08-04T15:46:22.000Z</time>
      </trkpt>
      <trkpt lat="49.29362" lon="-0.28912">
        <ele>3.926014</ele>
        <time>2022-08-04T15:46:23.000Z</time>
      </trkpt>
      <trkpt lat="49.29357" lon="-0.28915">
        <ele>3.904292</ele>
        <time>2022-08-04T15:46:24.000Z</time>
      </trkpt>
      <trkpt lat="49.29352" lon="-0.28918">
        <ele>3.875375</ele>
        <time>2022-08-04T15:46:25.000Z</time>
      </trkpt>
      <trkpt lat="49.29348" lon="-0.28921">
        <ele>3.845246</ele>
        <time>2022-08-04T15:46:26.000Z</time>
      </trkpt>
      <trkpt lat="49.29343" lon="-0.28923">
        <ele>3.817041</ele>
        <time>2022-08-04T15:46:27.000Z</time>
      </trkpt>
      <trkpt lat="49.29341" lon="-0.28925">
        <ele>3.800925</ele>
        <time>2022-08-04T15:46:28.000Z</time>
      </trkpt>
      <trkpt lat="49.29337" lon="-0.28927">
        <ele>3.778171</ele>
        <time>2022-08-04T15:46:29.000Z</time>
      </trkpt>
      <trkpt lat="49.29335" lon="-0.28929">
        <ele>3.764878</ele>
        <time>2022-08-04T15:46:30.000Z</time>
      </trkpt>
      <trkpt lat="49.29333" lon="-0.28931">
        <ele>3.752713</ele>
        <time>2022-08-04T15:46:32.000Z</time>
      </trkpt>
      <trkpt lat="49.29325" lon="-0.28929">
        <ele>3.701564</ele>
        <time>2022-08-04T15:46:43.000Z</time>
      </trkpt>
      <trkpt lat="49.29323" lon="-0.28925">
        <ele>3.682545</ele>
        <time>2022-08-04T15:46:44.000Z</time>
      </trkpt>
      <trkpt lat="49.29321" lon="-0.2892">
        <ele>3.659301</ele>
        <time>2022-08-04T15:46:45.000Z</time>
      </trkpt>
      <trkpt lat="49.29319" lon="-0.28914">
        <ele>3.636156</ele>
        <time>2022-08-04T15:46:46.000Z</time>
      </trkpt>
      <trkpt lat="49.29317" lon="-0.28906">
        <ele>3.599288</ele>
        <time>2022-08-04T15:46:47.000Z</time>
      </trkpt>
      <trkpt lat="49.29314" lon="-0.28897">
        <ele>3.563553</ele>
        <time>2022-08-04T15:46:48.000Z</time>
      </trkpt>
      <trkpt lat="49.29312" lon="-0.28889">
        <ele>3.527332</ele>
        <time>2022-08-04T15:46:49.000Z</time>
      </trkpt>
      <trkpt lat="49.29309" lon="-0.2888">
        <ele>3.490552</ele>
        <time>2022-08-04T15:46:50.000Z</time>
      </trkpt>
      <trkpt lat="49.29307" lon="-0.28871">
        <ele>3.453612</ele>
        <time>2022-08-04T15:46:51.000Z</time>
      </trkpt>
      <trkpt lat="49.29304" lon="-0.28862">
        <ele>3.415719</ele>
        <time>2022-08-04T15:46:52.000Z</time>
      </trkpt>
      <trkpt lat="49.29301" lon="-0.28853">
        <ele>3.378589</ele>
        <time>2022-08-04T15:46:53.000Z</time>
      </trkpt>
      <trkpt lat="49.29299" lon="-0.28845">
        <ele>3.341302</ele>
        <time>2022-08-04T15:46:54.000Z</time>
      </trkpt>
      <trkpt lat="49.29296" lon="-0.28835">
        <ele>3.302767</ele>
        <time>2022-08-04T15:46:55.000Z</time>
      </trkpt>
      <trkpt lat="49.29293" lon="-0.28826">
        <ele>3.264584</ele>
        <time>2022-08-04T15:46:56.000Z</time>
      </trkpt>
      <trkpt lat="49.29291" lon="-0.28817">
        <ele>3.226279</ele>
        <time>2022-08-04T15:46:57.000Z</time>
      </trkpt>
      <trkpt lat="49.29288" lon="-0.28808">
        <ele>3.187556</ele>
        <time>2022-08-04T15:46:58.000Z</time>
      </trkpt>
      <trkpt lat="49.29285" lon="-0.28799">
        <ele>3.14902</ele>
        <time>2022-08-04T15:46:59.000Z</time>
      </trkpt>
      <trkpt lat="49.29282" lon="-0.2879">
        <ele>3.109624</ele>
        <time>2022-08-04T15:47:00.000Z</time>
      </trkpt>
      <trkpt lat="49.29279" lon="-0.28781">
        <ele>3.072027</ele>
        <time>2022-08-04T15:47:01.000Z</time>
      </trkpt>
      <trkpt lat="49.29277" lon="-0.28772">
        <ele>3.035247</ele>
        <time>2022-08-04T15:47:02.000Z</time>
      </trkpt>
      <trkpt lat="49.29274" lon="-0.28764">
        <ele>2.997353</ele>
        <time>2022-08-04T15:47:03.000Z</time>
      </trkpt>
      <trkpt lat="49.29271" lon="-0.28755">
        <ele>2.959757</ele>
        <time>2022-08-04T15:47:04.000Z</time>
      </trkpt>
      <trkpt lat="49.29269" lon="-0.28746">
        <ele>2.922627</ele>
        <time>2022-08-04T15:47:05.000Z</time>
      </trkpt>
      <trkpt lat="49.29266" lon="-0.28737">
        <ele>2.885758</ele>
        <time>2022-08-04T15:47:06.000Z</time>
      </trkpt>
      <trkpt lat="49.29263" lon="-0.28729">
        <ele>2.868172</ele>
        <time>2022-08-04T15:47:07.000Z</time>
      </trkpt>
      <trkpt lat="49.29261" lon="-0.2872">
        <ele>2.868897</ele>
        <time>2022-08-04T15:47:08.000Z</time>
      </trkpt>
      <trkpt lat="49.29258" lon="-0.28711">
        <ele>2.869601</ele>
        <time>2022-08-04T15:47:09.000Z</time>
      </trkpt>
      <trkpt lat="49.29255" lon="-0.28702">
        <ele>2.870326</ele>
        <time>2022-08-04T15:47:10.000Z</time>
      </trkpt>
      <trkpt lat="49.29252" lon="-0.28693">
        <ele>2.871053</ele>
        <time>2022-08-04T15:47:11.000Z</time>
      </trkpt>
      <trkpt lat="49.2925" lon="-0.28685">
        <ele>2.871751</ele>
        <time>2022-08-04T15:47:12.000Z</time>
      </trkpt>
      <trkpt lat="49.29247" lon="-0.28676">
        <ele>2.872468</ele>
        <time>2022-08-04T15:47:13.000Z</time>
      </trkpt>
      <trkpt lat="49.29244" lon="-0.28667">
        <ele>2.873175</ele>
        <time>2022-08-04T15:47:14.000Z</time>
      </trkpt>
      <trkpt lat="49.29241" lon="-0.28659">
        <ele>2.873894</ele>
        <time>2022-08-04T15:47:15.000Z</time>
      </trkpt>
      <trkpt lat="49.29239" lon="-0.2865">
        <ele>2.874584</ele>
        <time>2022-08-04T15:47:16.000Z</time>
      </trkpt>
      <trkpt lat="49.29237" lon="-0.28643">
        <ele>2.875115</ele>
        <time>2022-08-04T15:47:17.000Z</time>
      </trkpt>
      <trkpt lat="49.29234" lon="-0.28633">
        <ele>2.875948</ele>
        <time>2022-08-04T15:47:18.000Z</time>
      </trkpt>
      <trkpt lat="49.29231" lon="-0.28625">
        <ele>2.87664</ele>
        <time>2022-08-04T15:47:19.000Z</time>
      </trkpt>
      <trkpt lat="49.29228" lon="-0.28616">
        <ele>2.877354</ele>
        <time>2022-08-04T15:47:20.000Z</time>
      </trkpt>
      <trkpt lat="49.29226" lon="-0.28607">
        <ele>2.878065</ele>
        <time>2022-08-04T15:47:21.000Z</time>
      </trkpt>
      <trkpt lat="49.29223" lon="-0.28599">
        <ele>2.878784</ele>
        <time>2022-08-04T15:47:22.000Z</time>
      </trkpt>
      <trkpt lat="49.2922" lon="-0.2859">
        <ele>2.879502</ele>
        <time>2022-08-04T15:47:23.000Z</time>
      </trkpt>
      <trkpt lat="49.29218" lon="-0.28581">
        <ele>2.880196</ele>
        <time>2022-08-04T15:47:24.000Z</time>
      </trkpt>
      <trkpt lat="49.29215" lon="-0.28573">
        <ele>2.880901</ele>
        <time>2022-08-04T15:47:25.000Z</time>
      </trkpt>
      <trkpt lat="49.29212" lon="-0.28564">
        <ele>2.881574</ele>
        <time>2022-08-04T15:47:26.000Z</time>
      </trkpt>
      <trkpt lat="49.29209" lon="-0.28556">
        <ele>2.88228</ele>
        <time>2022-08-04T15:47:27.000Z</time>
      </trkpt>
      <trkpt lat="49.29207" lon="-0.28547">
        <ele>2.882997</ele>
        <time>2022-08-04T15:47:28.000Z</time>
      </trkpt>
      <trkpt lat="49.29204" lon="-0.28538">
        <ele>2.883703</ele>
        <time>2022-08-04T15:47:29.000Z</time>
      </trkpt>
      <trkpt lat="49.29202" lon="-0.28531">
        <ele>2.884252</ele>
        <time>2022-08-04T15:47:30.000Z</time>
      </trkpt>
      <trkpt lat="49.29199" lon="-0.28521">
        <ele>2.885052</ele>
        <time>2022-08-04T15:47:31.000Z</time>
      </trkpt>
      <trkpt lat="49.29197" lon="-0.28513">
        <ele>2.885758</ele>
        <time>2022-08-04T15:47:32.000Z</time>
      </trkpt>
      <trkpt lat="49.29194" lon="-0.28504">
        <ele>2.886435</ele>
        <time>2022-08-04T15:47:33.000Z</time>
      </trkpt>
      <trkpt lat="49.29192" lon="-0.28495">
        <ele>2.887148</ele>
        <time>2022-08-04T15:47:34.000Z</time>
      </trkpt>
      <trkpt lat="49.29189" lon="-0.28487">
        <ele>2.88786</ele>
        <time>2022-08-04T15:47:35.000Z</time>
      </trkpt>
      <trkpt lat="49.29186" lon="-0.28478">
        <ele>2.900007</ele>
        <time>2022-08-04T15:47:36.000Z</time>
      </trkpt>
      <trkpt lat="49.29184" lon="-0.2847">
        <ele>2.918255</ele>
        <time>2022-08-04T15:47:37.000Z</time>
      </trkpt>
      <trkpt lat="49.29181" lon="-0.28461">
        <ele>2.937029</ele>
        <time>2022-08-04T15:47:38.000Z</time>
      </trkpt>
      <trkpt lat="49.29178" lon="-0.28453">
        <ele>2.955226</ele>
        <time>2022-08-04T15:47:39.000Z</time>
      </trkpt>
      <trkpt lat="49.29176" lon="-0.28445">
        <ele>2.973119</ele>
        <time>2022-08-04T15:47:40.000Z</time>
      </trkpt>
      <trkpt lat="49.29173" lon="-0.28437">
        <ele>2.991031</ele>
        <time>2022-08-04T15:47:41.000Z</time>
      </trkpt>
      <trkpt lat="49.2917" lon="-0.28429">
        <ele>3.008</ele>
        <time>2022-08-04T15:47:42.000Z</time>
      </trkpt>
      <trkpt lat="49.29168" lon="-0.28422">
        <ele>3.023739</ele>
        <time>2022-08-04T15:47:43.000Z</time>
      </trkpt>
      <trkpt lat="49.29166" lon="-0.28416">
        <ele>3.035919</ele>
        <time>2022-08-04T15:47:44.000Z</time>
      </trkpt>
      <trkpt lat="49.29163" lon="-0.28408">
        <ele>3.053788</ele>
        <time>2022-08-04T15:47:45.000Z</time>
      </trkpt>
      <trkpt lat="49.29161" lon="-0.28403">
        <ele>3.066491</ele>
        <time>2022-08-04T15:47:46.000Z</time>
      </trkpt>
      <trkpt lat="49.29159" lon="-0.28396">
        <ele>3.08045</ele>
        <time>2022-08-04T15:47:47.000Z</time>
      </trkpt>
      <trkpt lat="49.29157" lon="-0.28391">
        <ele>3.09135</ele>
        <time>2022-08-04T15:47:48.000Z</time>
      </trkpt>
      <trkpt lat="49.29155" lon="-0.28384">
        <ele>3.107982</ele>
        <time>2022-08-04T15:47:49.000Z</time>
      </trkpt>
      <trkpt lat="49.29153" lon="-0.28377">
        <ele>3.12228</ele>
        <time>2022-08-04T15:47:50.000Z</time>
      </trkpt>
      <trkpt lat="49.29151" lon="-0.28371">
        <ele>3.135642</ele>
        <time>2022-08-04T15:47:51.000Z</time>
      </trkpt>
      <trkpt lat="49.29149" lon="-0.28364">
        <ele>3.149801</ele>
        <time>2022-08-04T15:47:52.000Z</time>
      </trkpt>
      <trkpt lat="49.29147" lon="-0.2836">
        <ele>3.160003</ele>
        <time>2022-08-04T15:47:53.000Z</time>
      </trkpt>
      <trkpt lat="49.29145" lon="-0.28354">
        <ele>3.172881</ele>
        <time>2022-08-04T15:47:54.000Z</time>
      </trkpt>
      <trkpt lat="49.29144" lon="-0.28347">
        <ele>3.187398</ele>
        <time>2022-08-04T15:47:55.000Z</time>
      </trkpt>
      <trkpt lat="49.29142" lon="-0.28341">
        <ele>3.2001</ele>
        <time>2022-08-04T15:47:56.000Z</time>
      </trkpt>
      <trkpt lat="49.2914" lon="-0.28336">
        <ele>3.212424</ele>
        <time>2022-08-04T15:47:57.000Z</time>
      </trkpt>
      <trkpt lat="49.29138" lon="-0.2833">
        <ele>3.224952</ele>
        <time>2022-08-04T15:47:58.000Z</time>
      </trkpt>
      <trkpt lat="49.29136" lon="-0.28324">
        <ele>3.236739</ele>
        <time>2022-08-04T15:47:59.000Z</time>
      </trkpt>
      <trkpt lat="49.29135" lon="-0.28319">
        <ele>3.247814</ele>
        <time>2022-08-04T15:48:00.000Z</time>
      </trkpt>
      <trkpt lat="49.29133" lon="-0.28314">
        <ele>3.258971</ele>
        <time>2022-08-04T15:48:01.000Z</time>
      </trkpt>
      <trkpt lat="49.29132" lon="-0.28311">
        <ele>3.266449</ele>
        <time>2022-08-04T15:48:02.000Z</time>
      </trkpt>
      <trkpt lat="49.2913" lon="-0.28306">
        <ele>3.278286</ele>
        <time>2022-08-04T15:48:03.000Z</time>
      </trkpt>
      <trkpt lat="49.29128" lon="-0.28301">
        <ele>3.289108</ele>
        <time>2022-08-04T15:48:04.000Z</time>
      </trkpt>
      <trkpt lat="49.29127" lon="-0.28298">
        <ele>3.296653</ele>
        <time>2022-08-04T15:48:05.000Z</time>
      </trkpt>
      <trkpt lat="49.29125" lon="-0.28294">
        <ele>3.305051</ele>
        <time>2022-08-04T15:48:06.000Z</time>
      </trkpt>
      <trkpt lat="49.29124" lon="-0.2829">
        <ele>3.31457</ele>
        <time>2022-08-04T15:48:07.000Z</time>
      </trkpt>
      <trkpt lat="49.29123" lon="-0.28287">
        <ele>3.321458</ele>
        <time>2022-08-04T15:48:08.000Z</time>
      </trkpt>
      <trkpt lat="49.29122" lon="-0.28284">
        <ele>3.327693</ele>
        <time>2022-08-04T15:48:09.000Z</time>
      </trkpt>
      <trkpt lat="49.29121" lon="-0.28281">
        <ele>3.333461</ele>
        <time>2022-08-04T15:48:10.000Z</time>
      </trkpt>
      <trkpt lat="49.29121" lon="-0.28278">
        <ele>3.339401</ele>
        <time>2022-08-04T15:48:11.000Z</time>
      </trkpt>
      <trkpt lat="49.2912" lon="-0.28275">
        <ele>3.345478</ele>
        <time>2022-08-04T15:48:12.000Z</time>
      </trkpt>
      <trkpt lat="49.29119" lon="-0.28273">
        <ele>3.351004</ele>
        <time>2022-08-04T15:48:13.000Z</time>
      </trkpt>
      <trkpt lat="49.29117" lon="-0.28271">
        <ele>3.358886</ele>
        <time>2022-08-04T15:48:15.000Z</time>
      </trkpt>
      <trkpt lat="49.29111" lon="-0.28269">
        <ele>3.376643</ele>
        <time>2022-08-04T15:49:03.000Z</time>
      </trkpt>
      <trkpt lat="49.29107" lon="-0.28268">
        <ele>3.387449</ele>
        <time>2022-08-04T15:49:05.000Z</time>
      </trkpt>
      <trkpt lat="49.29104" lon="-0.28266">
        <ele>3.397973</ele>
        <time>2022-08-04T15:49:07.000Z</time>
      </trkpt>
      <trkpt lat="49.29101" lon="-0.28262">
        <ele>3.408101</ele>
        <time>2022-08-04T15:49:09.000Z</time>
      </trkpt>
      <trkpt lat="49.29102" lon="-0.28255">
        <ele>3.422508</ele>
        <time>2022-08-04T15:49:11.000Z</time>
      </trkpt>
      <trkpt lat="49.29104" lon="-0.28252">
        <ele>3.428277</ele>
        <time>2022-08-04T15:49:12.000Z</time>
      </trkpt>
      <trkpt lat="49.29105" lon="-0.28249">
        <ele>3.42913</ele>
        <time>2022-08-04T15:49:13.000Z</time>
      </trkpt>
      <trkpt lat="49.29106" lon="-0.28247">
        <ele>3.430033</ele>
        <time>2022-08-04T15:49:14.000Z</time>
      </trkpt>
      <trkpt lat="49.29107" lon="-0.28244">
        <ele>3.430867</ele>
        <time>2022-08-04T15:49:16.000Z</time>
      </trkpt>
      <trkpt lat="49.29106" lon="-0.28227">
        <ele>3.435687</ele>
        <time>2022-08-04T15:49:24.000Z</time>
      </trkpt>
      <trkpt lat="49.29104" lon="-0.28223">
        <ele>3.437229</ele>
        <time>2022-08-04T15:49:25.000Z</time>
      </trkpt>
      <trkpt lat="49.29102" lon="-0.28218">
        <ele>3.438715</ele>
        <time>2022-08-04T15:49:26.000Z</time>
      </trkpt>
      <trkpt lat="49.29101" lon="-0.28214">
        <ele>3.440155</ele>
        <time>2022-08-04T15:49:27.000Z</time>
      </trkpt>
      <trkpt lat="49.29099" lon="-0.28207">
        <ele>3.44228</ele>
        <time>2022-08-04T15:49:28.000Z</time>
      </trkpt>
      <trkpt lat="49.29097" lon="-0.28202">
        <ele>3.444188</ele>
        <time>2022-08-04T15:49:29.000Z</time>
      </trkpt>
      <trkpt lat="49.29095" lon="-0.28196">
        <ele>3.44602</ele>
        <time>2022-08-04T15:49:30.000Z</time>
      </trkpt>
      <trkpt lat="49.29093" lon="-0.28191">
        <ele>3.447614</ele>
        <time>2022-08-04T15:49:31.000Z</time>
      </trkpt>
      <trkpt lat="49.29091" lon="-0.28184">
        <ele>3.449953</ele>
        <time>2022-08-04T15:49:32.000Z</time>
      </trkpt>
      <trkpt lat="49.2909" lon="-0.28178">
        <ele>3.451838</ele>
        <time>2022-08-04T15:49:33.000Z</time>
      </trkpt>
      <trkpt lat="49.29088" lon="-0.28172">
        <ele>3.453595</ele>
        <time>2022-08-04T15:49:34.000Z</time>
      </trkpt>
      <trkpt lat="49.29086" lon="-0.28167">
        <ele>3.455303</ele>
        <time>2022-08-04T15:49:35.000Z</time>
      </trkpt>
      <trkpt lat="49.29085" lon="-0.28163">
        <ele>3.456603</ele>
        <time>2022-08-04T15:49:36.000Z</time>
      </trkpt>
      <trkpt lat="49.29083" lon="-0.28156">
        <ele>3.458675</ele>
        <time>2022-08-04T15:49:37.000Z</time>
      </trkpt>
      <trkpt lat="49.29082" lon="-0.28151">
        <ele>3.46048</ele>
        <time>2022-08-04T15:49:38.000Z</time>
      </trkpt>
      <trkpt lat="49.2908" lon="-0.28145">
        <ele>3.462367</ele>
        <time>2022-08-04T15:49:39.000Z</time>
      </trkpt>
      <trkpt lat="49.29078" lon="-0.2814">
        <ele>3.463933</ele>
        <time>2022-08-04T15:49:40.000Z</time>
      </trkpt>
      <trkpt lat="49.29076" lon="-0.28132">
        <ele>3.466298</ele>
        <time>2022-08-04T15:49:41.000Z</time>
      </trkpt>
      <trkpt lat="49.29075" lon="-0.28126">
        <ele>3.468211</ele>
        <time>2022-08-04T15:49:42.000Z</time>
      </trkpt>
      <trkpt lat="49.29073" lon="-0.2812">
        <ele>3.470223</ele>
        <time>2022-08-04T15:49:43.000Z</time>
      </trkpt>
      <trkpt lat="49.29071" lon="-0.28114">
        <ele>3.472241</ele>
        <time>2022-08-04T15:49:44.000Z</time>
      </trkpt>
      <trkpt lat="49.29069" lon="-0.28109">
        <ele>3.473835</ele>
        <time>2022-08-04T15:49:45.000Z</time>
      </trkpt>
      <trkpt lat="49.29067" lon="-0.28102">
        <ele>3.476174</ele>
        <time>2022-08-04T15:49:46.000Z</time>
      </trkpt>
      <trkpt lat="49.29065" lon="-0.28095">
        <ele>3.478167</ele>
        <time>2022-08-04T15:49:47.000Z</time>
      </trkpt>
      <trkpt lat="49.29063" lon="-0.28089">
        <ele>3.480216</ele>
        <time>2022-08-04T15:49:48.000Z</time>
      </trkpt>
      <trkpt lat="49.29061" lon="-0.28083">
        <ele>3.482156</ele>
        <time>2022-08-04T15:49:49.000Z</time>
      </trkpt>
      <trkpt lat="49.2906" lon="-0.28077">
        <ele>3.484095</ele>
        <time>2022-08-04T15:49:50.000Z</time>
      </trkpt>
      <trkpt lat="49.29057" lon="-0.28071">
        <ele>3.486046</ele>
        <time>2022-08-04T15:49:51.000Z</time>
      </trkpt>
      <trkpt lat="49.29055" lon="-0.28065">
        <ele>3.487934</ele>
        <time>2022-08-04T15:49:52.000Z</time>
      </trkpt>
      <trkpt lat="49.29053" lon="-0.28059">
        <ele>3.489868</ele>
        <time>2022-08-04T15:49:53.000Z</time>
      </trkpt>
      <trkpt lat="49.29052" lon="-0.28054">
        <ele>3.491756</ele>
        <time>2022-08-04T15:49:54.000Z</time>
      </trkpt>
      <trkpt lat="49.2905" lon="-0.28048">
        <ele>3.493696</ele>
        <time>2022-08-04T15:49:55.000Z</time>
      </trkpt>
      <trkpt lat="49.29048" lon="-0.28042">
        <ele>3.495448</ele>
        <time>2022-08-04T15:49:56.000Z</time>
      </trkpt>
      <trkpt lat="49.29047" lon="-0.28036">
        <ele>3.497204</ele>
        <time>2022-08-04T15:49:57.000Z</time>
      </trkpt>
      <trkpt lat="49.29045" lon="-0.28032">
        <ele>3.498636</ele>
        <time>2022-08-04T15:49:58.000Z</time>
      </trkpt>
      <trkpt lat="49.29044" lon="-0.28026">
        <ele>3.500523</ele>
        <time>2022-08-04T15:49:59.000Z</time>
      </trkpt>
      <trkpt lat="49.29042" lon="-0.28021">
        <ele>3.502066</ele>
        <time>2022-08-04T15:50:00.000Z</time>
      </trkpt>
      <trkpt lat="49.29041" lon="-0.28017">
        <ele>3.503577</ele>
        <time>2022-08-04T15:50:01.000Z</time>
      </trkpt>
      <trkpt lat="49.29039" lon="-0.28011">
        <ele>3.50525</ele>
        <time>2022-08-04T15:50:02.000Z</time>
      </trkpt>
      <trkpt lat="49.29037" lon="-0.28006">
        <ele>3.50706</ele>
        <time>2022-08-04T15:50:03.000Z</time>
      </trkpt>
      <trkpt lat="49.29035" lon="-0.28">
        <ele>3.512192</ele>
        <time>2022-08-04T15:50:04.000Z</time>
      </trkpt>
      <trkpt lat="49.29034" lon="-0.27994">
        <ele>3.521025</ele>
        <time>2022-08-04T15:50:05.000Z</time>
      </trkpt>
      <trkpt lat="49.29032" lon="-0.27988">
        <ele>3.529862</ele>
        <time>2022-08-04T15:50:06.000Z</time>
      </trkpt>
      <trkpt lat="49.2903" lon="-0.27982">
        <ele>3.53845</ele>
        <time>2022-08-04T15:50:07.000Z</time>
      </trkpt>
      <trkpt lat="49.29029" lon="-0.27976">
        <ele>3.546793</ele>
        <time>2022-08-04T15:50:08.000Z</time>
      </trkpt>
      <trkpt lat="49.29027" lon="-0.2797">
        <ele>3.55563</ele>
        <time>2022-08-04T15:50:09.000Z</time>
      </trkpt>
      <trkpt lat="49.29024" lon="-0.27964">
        <ele>3.564954</ele>
        <time>2022-08-04T15:50:10.000Z</time>
      </trkpt>
      <trkpt lat="49.29022" lon="-0.27958">
        <ele>3.573672</ele>
        <time>2022-08-04T15:50:11.000Z</time>
      </trkpt>
      <trkpt lat="49.29021" lon="-0.27953">
        <ele>3.580803</ele>
        <time>2022-08-04T15:50:12.000Z</time>
      </trkpt>
      <trkpt lat="49.29018" lon="-0.27946">
        <ele>3.592698</ele>
        <time>2022-08-04T15:50:13.000Z</time>
      </trkpt>
      <trkpt lat="49.29016" lon="-0.27939">
        <ele>3.602378</ele>
        <time>2022-08-04T15:50:14.000Z</time>
      </trkpt>
      <trkpt lat="49.29014" lon="-0.27932">
        <ele>3.612673</ele>
        <time>2022-08-04T15:50:15.000Z</time>
      </trkpt>
      <trkpt lat="49.29013" lon="-0.27926">
        <ele>3.620237</ele>
        <time>2022-08-04T15:50:16.000Z</time>
      </trkpt>
      <trkpt lat="49.2901" lon="-0.27918">
        <ele>3.632198</ele>
        <time>2022-08-04T15:50:17.000Z</time>
      </trkpt>
      <trkpt lat="49.29009" lon="-0.27911">
        <ele>3.6419</ele>
        <time>2022-08-04T15:50:18.000Z</time>
      </trkpt>
      <trkpt lat="49.29006" lon="-0.27904">
        <ele>3.652474</ele>
        <time>2022-08-04T15:50:19.000Z</time>
      </trkpt>
      <trkpt lat="49.29004" lon="-0.27897">
        <ele>3.662519</ele>
        <time>2022-08-04T15:50:20.000Z</time>
      </trkpt>
      <trkpt lat="49.29003" lon="-0.27892">
        <ele>3.67027</ele>
        <time>2022-08-04T15:50:21.000Z</time>
      </trkpt>
      <trkpt lat="49.29" lon="-0.27884">
        <ele>3.682112</ele>
        <time>2022-08-04T15:50:22.000Z</time>
      </trkpt>
      <trkpt lat="49.28999" lon="-0.27877">
        <ele>3.691316</ele>
        <time>2022-08-04T15:50:23.000Z</time>
      </trkpt>
      <trkpt lat="49.28997" lon="-0.27871">
        <ele>3.700153</ele>
        <time>2022-08-04T15:50:24.000Z</time>
      </trkpt>
      <trkpt lat="49.28995" lon="-0.27867">
        <ele>3.70706</ele>
        <time>2022-08-04T15:50:25.000Z</time>
      </trkpt>
      <trkpt lat="49.28993" lon="-0.27861">
        <ele>3.715306</ele>
        <time>2022-08-04T15:50:26.000Z</time>
      </trkpt>
      <trkpt lat="49.28991" lon="-0.27855">
        <ele>3.724756</ele>
        <time>2022-08-04T15:50:27.000Z</time>
      </trkpt>
      <trkpt lat="49.2899" lon="-0.27852">
        <ele>3.729995</ele>
        <time>2022-08-04T15:50:28.000Z</time>
      </trkpt>
      <trkpt lat="49.28988" lon="-0.2785">
        <ele>3.734188</ele>
        <time>2022-08-04T15:50:29.000Z</time>
      </trkpt>
      <trkpt lat="49.28984" lon="-0.27853">
        <ele>3.744438</ele>
        <time>2022-08-04T15:51:27.000Z</time>
      </trkpt>
      <trkpt lat="49.28982" lon="-0.27852">
        <ele>3.748407</ele>
        <time>2022-08-04T15:51:29.000Z</time>
      </trkpt>
      <trkpt lat="49.28981" lon="-0.27849">
        <ele>3.753115</ele>
        <time>2022-08-04T15:51:32.000Z</time>
      </trkpt>
      <trkpt lat="49.28983" lon="-0.27847">
        <ele>3.757965</ele>
        <time>2022-08-04T15:51:34.000Z</time>
      </trkpt>
      <trkpt lat="49.28987" lon="-0.27849">
        <ele>3.765754</ele>
        <time>2022-08-04T15:51:36.000Z</time>
      </trkpt>
      <trkpt lat="49.28988" lon="-0.27852">
        <ele>3.770128</ele>
        <time>2022-08-04T15:51:37.000Z</time>
      </trkpt>
      <trkpt lat="49.28989" lon="-0.27856">
        <ele>3.776345</ele>
        <time>2022-08-04T15:51:38.000Z</time>
      </trkpt>
      <trkpt lat="49.2899" lon="-0.27861">
        <ele>3.782394</ele>
        <time>2022-08-04T15:51:39.000Z</time>
      </trkpt>
      <trkpt lat="49.28992" lon="-0.27865">
        <ele>3.789535</ele>
        <time>2022-08-04T15:51:40.000Z</time>
      </trkpt>
      <trkpt lat="49.28994" lon="-0.2787">
        <ele>3.797088</ele>
        <time>2022-08-04T15:51:41.000Z</time>
      </trkpt>
      <trkpt lat="49.28996" lon="-0.27876">
        <ele>3.805522</ele>
        <time>2022-08-04T15:51:42.000Z</time>
      </trkpt>
      <trkpt lat="49.28998" lon="-0.27881">
        <ele>3.814003</ele>
        <time>2022-08-04T15:51:43.000Z</time>
      </trkpt>
      <trkpt lat="49.29" lon="-0.27887">
        <ele>3.822249</ele>
        <time>2022-08-04T15:51:44.000Z</time>
      </trkpt>
      <trkpt lat="49.29002" lon="-0.27892">
        <ele>3.830262</ele>
        <time>2022-08-04T15:51:45.000Z</time>
      </trkpt>
      <trkpt lat="49.29004" lon="-0.27897">
        <ele>3.837403</ele>
        <time>2022-08-04T15:51:46.000Z</time>
      </trkpt>
      <trkpt lat="49.29005" lon="-0.27902">
        <ele>3.84507</ele>
        <time>2022-08-04T15:51:47.000Z</time>
      </trkpt>
      <trkpt lat="49.29007" lon="-0.27907">
        <ele>3.852688</ele>
        <time>2022-08-04T15:51:48.000Z</time>
      </trkpt>
      <trkpt lat="49.29009" lon="-0.27912">
        <ele>3.860425</ele>
        <time>2022-08-04T15:51:49.000Z</time>
      </trkpt>
      <trkpt lat="49.2901" lon="-0.27918">
        <ele>3.86799</ele>
        <time>2022-08-04T15:51:50.000Z</time>
      </trkpt>
      <trkpt lat="49.29012" lon="-0.27924">
        <ele>3.873396</ele>
        <time>2022-08-04T15:51:51.000Z</time>
      </trkpt>
      <trkpt lat="49.29013" lon="-0.2793">
        <ele>3.873396</ele>
        <time>2022-08-04T15:51:52.000Z</time>
      </trkpt>
      <trkpt lat="49.29015" lon="-0.27936">
        <ele>3.873396</ele>
        <time>2022-08-04T15:51:53.000Z</time>
      </trkpt>
      <trkpt lat="49.29017" lon="-0.27942">
        <ele>3.873396</ele>
        <time>2022-08-04T15:51:54.000Z</time>
      </trkpt>
      <trkpt lat="49.29019" lon="-0.27948">
        <ele>3.873396</ele>
        <time>2022-08-04T15:51:55.000Z</time>
      </trkpt>
      <trkpt lat="49.2902" lon="-0.27954">
        <ele>3.873396</ele>
        <time>2022-08-04T15:51:56.000Z</time>
      </trkpt>
      <trkpt lat="49.29021" lon="-0.2796">
        <ele>3.873396</ele>
        <time>2022-08-04T15:51:57.000Z</time>
      </trkpt>
      <trkpt lat="49.29023" lon="-0.27966">
        <ele>3.873396</ele>
        <time>2022-08-04T15:51:58.000Z</time>
      </trkpt>
      <trkpt lat="49.29025" lon="-0.27972">
        <ele>3.873396</ele>
        <time>2022-08-04T15:51:59.000Z</time>
      </trkpt>
      <trkpt lat="49.29027" lon="-0.27977">
        <ele>3.873396</ele>
        <time>2022-08-04T15:52:00.000Z</time>
      </trkpt>
      <trkpt lat="49.29029" lon="-0.27983">
        <ele>3.873396</ele>
        <time>2022-08-04T15:52:01.000Z</time>
      </trkpt>
      <trkpt lat="49.29031" lon="-0.27988">
        <ele>3.873396</ele>
        <time>2022-08-04T15:52:02.000Z</time>
      </trkpt>
      <trkpt lat="49.29033" lon="-0.27994">
        <ele>3.873396</ele>
        <time>2022-08-04T15:52:03.000Z</time>
      </trkpt>
      <trkpt lat="49.29035" lon="-0.28">
        <ele>3.873396</ele>
        <time>2022-08-04T15:52:04.000Z</time>
      </trkpt>
      <trkpt lat="49.29036" lon="-0.28005">
        <ele>3.873396</ele>
        <time>2022-08-04T15:52:05.000Z</time>
      </trkpt>
      <trkpt lat="49.29038" lon="-0.28011">
        <ele>3.873396</ele>
        <time>2022-08-04T15:52:06.000Z</time>
      </trkpt>
      <trkpt lat="49.29039" lon="-0.28016">
        <ele>3.873396</ele>
        <time>2022-08-04T15:52:07.000Z</time>
      </trkpt>
      <trkpt lat="49.29041" lon="-0.28022">
        <ele>3.873396</ele>
        <time>2022-08-04T15:52:08.000Z</time>
      </trkpt>
      <trkpt lat="49.29043" lon="-0.28027">
        <ele>3.873396</ele>
        <time>2022-08-04T15:52:09.000Z</time>
      </trkpt>
      <trkpt lat="49.29045" lon="-0.28033">
        <ele>3.873396</ele>
        <time>2022-08-04T15:52:10.000Z</time>
      </trkpt>
      <trkpt lat="49.29045" lon="-0.28038">
        <ele>3.873396</ele>
        <time>2022-08-04T15:52:11.000Z</time>
      </trkpt>
      <trkpt lat="49.29047" lon="-0.28044">
        <ele>3.873396</ele>
        <time>2022-08-04T15:52:12.000Z</time>
      </trkpt>
      <trkpt lat="49.29048" lon="-0.2805">
        <ele>3.873396</ele>
        <time>2022-08-04T15:52:13.000Z</time>
      </trkpt>
      <trkpt lat="49.2905" lon="-0.28056">
        <ele>3.873396</ele>
        <time>2022-08-04T15:52:14.000Z</time>
      </trkpt>
      <trkpt lat="49.29052" lon="-0.28062">
        <ele>3.873396</ele>
        <time>2022-08-04T15:52:15.000Z</time>
      </trkpt>
      <trkpt lat="49.29054" lon="-0.28068">
        <ele>3.873396</ele>
        <time>2022-08-04T15:52:16.000Z</time>
      </trkpt>
      <trkpt lat="49.29056" lon="-0.28074">
        <ele>3.873396</ele>
        <time>2022-08-04T15:52:17.000Z</time>
      </trkpt>
      <trkpt lat="49.29059" lon="-0.2808">
        <ele>3.873396</ele>
        <time>2022-08-04T15:52:18.000Z</time>
      </trkpt>
      <trkpt lat="49.29061" lon="-0.28086">
        <ele>3.873396</ele>
        <time>2022-08-04T15:52:19.000Z</time>
      </trkpt>
      <trkpt lat="49.29062" lon="-0.28092">
        <ele>3.873396</ele>
        <time>2022-08-04T15:52:20.000Z</time>
      </trkpt>
      <trkpt lat="49.29064" lon="-0.28098">
        <ele>3.873396</ele>
        <time>2022-08-04T15:52:21.000Z</time>
      </trkpt>
      <trkpt lat="49.29065" lon="-0.28103">
        <ele>3.873396</ele>
        <time>2022-08-04T15:52:22.000Z</time>
      </trkpt>
      <trkpt lat="49.29068" lon="-0.28109">
        <ele>3.873396</ele>
        <time>2022-08-04T15:52:23.000Z</time>
      </trkpt>
      <trkpt lat="49.29069" lon="-0.28115">
        <ele>3.873396</ele>
        <time>2022-08-04T15:52:24.000Z</time>
      </trkpt>
      <trkpt lat="49.29071" lon="-0.28121">
        <ele>3.873396</ele>
        <time>2022-08-04T15:52:25.000Z</time>
      </trkpt>
      <trkpt lat="49.29073" lon="-0.28126">
        <ele>3.873396</ele>
        <time>2022-08-04T15:52:26.000Z</time>
      </trkpt>
      <trkpt lat="49.29075" lon="-0.28131">
        <ele>3.873396</ele>
        <time>2022-08-04T15:52:27.000Z</time>
      </trkpt>
      <trkpt lat="49.29077" lon="-0.28137">
        <ele>3.873396</ele>
        <time>2022-08-04T15:52:28.000Z</time>
      </trkpt>
      <trkpt lat="49.29078" lon="-0.28142">
        <ele>3.873396</ele>
        <time>2022-08-04T15:52:29.000Z</time>
      </trkpt>
      <trkpt lat="49.2908" lon="-0.28147">
        <ele>3.873396</ele>
        <time>2022-08-04T15:52:30.000Z</time>
      </trkpt>
      <trkpt lat="49.29081" lon="-0.28152">
        <ele>3.873396</ele>
        <time>2022-08-04T15:52:31.000Z</time>
      </trkpt>
      <trkpt lat="49.29082" lon="-0.28157">
        <ele>3.873396</ele>
        <time>2022-08-04T15:52:32.000Z</time>
      </trkpt>
      <trkpt lat="49.29081" lon="-0.28161">
        <ele>3.873396</ele>
        <time>2022-08-04T15:52:33.000Z</time>
      </trkpt>
      <trkpt lat="49.2908" lon="-0.28165">
        <ele>3.873396</ele>
        <time>2022-08-04T15:52:34.000Z</time>
      </trkpt>
      <trkpt lat="49.29078" lon="-0.28169">
        <ele>3.873396</ele>
        <time>2022-08-04T15:52:35.000Z</time>
      </trkpt>
      <trkpt lat="49.29076" lon="-0.28173">
        <ele>3.873396</ele>
        <time>2022-08-04T15:52:36.000Z</time>
      </trkpt>
      <trkpt lat="49.29073" lon="-0.28177">
        <ele>3.873396</ele>
        <time>2022-08-04T15:52:37.000Z</time>
      </trkpt>
      <trkpt lat="49.29071" lon="-0.28181">
        <ele>3.873396</ele>
        <time>2022-08-04T15:52:38.000Z</time>
      </trkpt>
      <trkpt lat="49.29069" lon="-0.28185">
        <ele>3.873396</ele>
        <time>2022-08-04T15:52:39.000Z</time>
      </trkpt>
      <trkpt lat="49.29066" lon="-0.28189">
        <ele>3.873396</ele>
        <time>2022-08-04T15:52:40.000Z</time>
      </trkpt>
      <trkpt lat="49.29063" lon="-0.28193">
        <ele>3.873396</ele>
        <time>2022-08-04T15:52:41.000Z</time>
      </trkpt>
      <trkpt lat="49.29061" lon="-0.28196">
        <ele>3.873396</ele>
        <time>2022-08-04T15:52:42.000Z</time>
      </trkpt>
      <trkpt lat="49.29059" lon="-0.28199">
        <ele>3.873396</ele>
        <time>2022-08-04T15:52:43.000Z</time>
      </trkpt>
      <trkpt lat="49.29057" lon="-0.28202">
        <ele>3.873396</ele>
        <time>2022-08-04T15:52:44.000Z</time>
      </trkpt>
      <trkpt lat="49.29053" lon="-0.28203">
        <ele>3.873396</ele>
        <time>2022-08-04T15:52:46.000Z</time>
      </trkpt>
      <trkpt lat="49.29051" lon="-0.282">
        <ele>3.873396</ele>
        <time>2022-08-04T15:52:48.000Z</time>
      </trkpt>
      <trkpt lat="49.2905" lon="-0.28197">
        <ele>3.873396</ele>
        <time>2022-08-04T15:52:49.000Z</time>
      </trkpt>
      <trkpt lat="49.29047" lon="-0.28194">
        <ele>3.873396</ele>
        <time>2022-08-04T15:52:51.000Z</time>
      </trkpt>
      <trkpt lat="49.29045" lon="-0.28191">
        <ele>3.873396</ele>
        <time>2022-08-04T15:52:53.000Z</time>
      </trkpt>
      <trkpt lat="49.29042" lon="-0.2819">
        <ele>3.873396</ele>
        <time>2022-08-04T15:52:55.000Z</time>
      </trkpt>
      <trkpt lat="49.29039" lon="-0.28188">
        <ele>3.873396</ele>
        <time>2022-08-04T15:52:57.000Z</time>
      </trkpt>
      <trkpt lat="49.29037" lon="-0.28187">
        <ele>3.873396</ele>
        <time>2022-08-04T15:53:00.000Z</time>
      </trkpt>
      <trkpt lat="49.29168" lon="-0.28049">
        <ele>5.329052</ele>
        <time>2022-08-05T10:33:09.000Z</time>
      </trkpt>
      <trkpt lat="49.29166" lon="-0.28051">
        <ele>5.329052</ele>
        <time>2022-08-05T10:33:27.000Z</time>
      </trkpt>
      <trkpt lat="49.29166" lon="-0.28048">
        <ele>5.329052</ele>
        <time>2022-08-05T10:33:29.000Z</time>
      </trkpt>
      <trkpt lat="49.29165" lon="-0.28036">
        <ele>5.329052</ele>
        <time>2022-08-05T10:34:16.000Z</time>
      </trkpt>
      <trkpt lat="49.29167" lon="-0.28034">
        <ele>5.329052</ele>
        <time>2022-08-05T10:34:17.000Z</time>
      </trkpt>
      <trkpt lat="49.29168" lon="-0.28032">
        <ele>5.329052</ele>
        <time>2022-08-05T10:34:18.000Z</time>
      </trkpt>
      <trkpt lat="49.2917" lon="-0.28029">
        <ele>5.329052</ele>
        <time>2022-08-05T10:34:19.000Z</time>
      </trkpt>
      <trkpt lat="49.29172" lon="-0.28027">
        <ele>5.329052</ele>
        <time>2022-08-05T10:34:20.000Z</time>
      </trkpt>
      <trkpt lat="49.29174" lon="-0.28025">
        <ele>5.329052</ele>
        <time>2022-08-05T10:34:21.000Z</time>
      </trkpt>
      <trkpt lat="49.29176" lon="-0.28023">
        <ele>5.329052</ele>
        <time>2022-08-05T10:34:22.000Z</time>
      </trkpt>
      <trkpt lat="49.29178" lon="-0.28021">
        <ele>5.329052</ele>
        <time>2022-08-05T10:34:23.000Z</time>
      </trkpt>
      <trkpt lat="49.2918" lon="-0.2802">
        <ele>5.329052</ele>
        <time>2022-08-05T10:34:24.000Z</time>
      </trkpt>
      <trkpt lat="49.29182" lon="-0.28017">
        <ele>5.329052</ele>
        <time>2022-08-05T10:34:26.000Z</time>
      </trkpt>
      <trkpt lat="49.29184" lon="-0.28014">
        <ele>5.329052</ele>
        <time>2022-08-05T10:34:27.000Z</time>
      </trkpt>
      <trkpt lat="49.29186" lon="-0.28012">
        <ele>5.329052</ele>
        <time>2022-08-05T10:34:28.000Z</time>
      </trkpt>
      <trkpt lat="49.29187" lon="-0.2801">
        <ele>5.329052</ele>
        <time>2022-08-05T10:34:29.000Z</time>
      </trkpt>
      <trkpt lat="49.29189" lon="-0.28007">
        <ele>5.329052</ele>
        <time>2022-08-05T10:34:30.000Z</time>
      </trkpt>
      <trkpt lat="49.2919" lon="-0.28005">
        <ele>5.329052</ele>
        <time>2022-08-05T10:34:31.000Z</time>
      </trkpt>
      <trkpt lat="49.29192" lon="-0.28002">
        <ele>5.329052</ele>
        <time>2022-08-05T10:34:32.000Z</time>
      </trkpt>
      <trkpt lat="49.29194" lon="-0.27999">
        <ele>5.329052</ele>
        <time>2022-08-05T10:34:33.000Z</time>
      </trkpt>
      <trkpt lat="49.29196" lon="-0.27997">
        <ele>5.329052</ele>
        <time>2022-08-05T10:34:34.000Z</time>
      </trkpt>
      <trkpt lat="49.29199" lon="-0.27995">
        <ele>5.329052</ele>
        <time>2022-08-05T10:34:35.000Z</time>
      </trkpt>
      <trkpt lat="49.29201" lon="-0.27992">
        <ele>5.329052</ele>
        <time>2022-08-05T10:34:36.000Z</time>
      </trkpt>
      <trkpt lat="49.29203" lon="-0.27989">
        <ele>5.329052</ele>
        <time>2022-08-05T10:34:37.000Z</time>
      </trkpt>
      <trkpt lat="49.29205" lon="-0.27986">
        <ele>5.329052</ele>
        <time>2022-08-05T10:34:38.000Z</time>
      </trkpt>
      <trkpt lat="49.29207" lon="-0.27984">
        <ele>5.329052</ele>
        <time>2022-08-05T10:34:39.000Z</time>
      </trkpt>
      <trkpt lat="49.29209" lon="-0.27981">
        <ele>5.329052</ele>
        <time>2022-08-05T10:34:40.000Z</time>
      </trkpt>
      <trkpt lat="49.29212" lon="-0.27979">
        <ele>5.329052</ele>
        <time>2022-08-05T10:34:41.000Z</time>
      </trkpt>
      <trkpt lat="49.29213" lon="-0.27976">
        <ele>5.329052</ele>
        <time>2022-08-05T10:34:42.000Z</time>
      </trkpt>
      <trkpt lat="49.29215" lon="-0.27973">
        <ele>5.329052</ele>
        <time>2022-08-05T10:34:43.000Z</time>
      </trkpt>
      <trkpt lat="49.29217" lon="-0.27971">
        <ele>5.329052</ele>
        <time>2022-08-05T10:34:44.000Z</time>
      </trkpt>
      <trkpt lat="49.29219" lon="-0.27968">
        <ele>5.329052</ele>
        <time>2022-08-05T10:34:45.000Z</time>
      </trkpt>
      <trkpt lat="49.29221" lon="-0.27966">
        <ele>5.329052</ele>
        <time>2022-08-05T10:34:46.000Z</time>
      </trkpt>
      <trkpt lat="49.29222" lon="-0.27964">
        <ele>5.329052</ele>
        <time>2022-08-05T10:34:47.000Z</time>
      </trkpt>
      <trkpt lat="49.29224" lon="-0.27961">
        <ele>5.329052</ele>
        <time>2022-08-05T10:34:48.000Z</time>
      </trkpt>
      <trkpt lat="49.29225" lon="-0.27959">
        <ele>5.33198</ele>
        <time>2022-08-05T10:34:49.000Z</time>
      </trkpt>
      <trkpt lat="49.29227" lon="-0.27957">
        <ele>5.345947</ele>
        <time>2022-08-05T10:34:50.000Z</time>
      </trkpt>
      <trkpt lat="49.29229" lon="-0.27955">
        <ele>5.359914</ele>
        <time>2022-08-05T10:34:51.000Z</time>
      </trkpt>
      <trkpt lat="49.2923" lon="-0.27953">
        <ele>5.371648</ele>
        <time>2022-08-05T10:34:52.000Z</time>
      </trkpt>
      <trkpt lat="49.29232" lon="-0.27951">
        <ele>5.386319</ele>
        <time>2022-08-05T10:34:53.000Z</time>
      </trkpt>
      <trkpt lat="49.29234" lon="-0.27948">
        <ele>5.401238</ele>
        <time>2022-08-05T10:34:54.000Z</time>
      </trkpt>
      <trkpt lat="49.29236" lon="-0.27946">
        <ele>5.417129</ele>
        <time>2022-08-05T10:34:55.000Z</time>
      </trkpt>
      <trkpt lat="49.29238" lon="-0.27943">
        <ele>5.432143</ele>
        <time>2022-08-05T10:34:56.000Z</time>
      </trkpt>
      <trkpt lat="49.2924" lon="-0.2794">
        <ele>5.447316</ele>
        <time>2022-08-05T10:34:57.000Z</time>
      </trkpt>
      <trkpt lat="49.29242" lon="-0.27938">
        <ele>5.463453</ele>
        <time>2022-08-05T10:34:58.000Z</time>
      </trkpt>
      <trkpt lat="49.29244" lon="-0.27936">
        <ele>5.479882</ele>
        <time>2022-08-05T10:34:59.000Z</time>
      </trkpt>
      <trkpt lat="49.29246" lon="-0.27934">
        <ele>5.495587</ele>
        <time>2022-08-05T10:35:00.000Z</time>
      </trkpt>
      <trkpt lat="49.29248" lon="-0.27931">
        <ele>5.510761</ele>
        <time>2022-08-05T10:35:01.000Z</time>
      </trkpt>
      <trkpt lat="49.2925" lon="-0.27929">
        <ele>5.525934</ele>
        <time>2022-08-05T10:35:02.000Z</time>
      </trkpt>
      <trkpt lat="49.29252" lon="-0.27926">
        <ele>5.541572</ele>
        <time>2022-08-05T10:35:03.000Z</time>
      </trkpt>
      <trkpt lat="49.29254" lon="-0.27924">
        <ele>5.556746</ele>
        <time>2022-08-05T10:35:04.000Z</time>
      </trkpt>
      <trkpt lat="49.29256" lon="-0.27921">
        <ele>5.573824</ele>
        <time>2022-08-05T10:35:05.000Z</time>
      </trkpt>
      <trkpt lat="49.29258" lon="-0.27918">
        <ele>5.589523</ele>
        <time>2022-08-05T10:35:06.000Z</time>
      </trkpt>
      <trkpt lat="49.2926" lon="-0.27916">
        <ele>5.604214</ele>
        <time>2022-08-05T10:35:07.000Z</time>
      </trkpt>
      <trkpt lat="49.29262" lon="-0.27915">
        <ele>5.617546</ele>
        <time>2022-08-05T10:35:08.000Z</time>
      </trkpt>
      <trkpt lat="49.29264" lon="-0.27914">
        <ele>5.62972</ele>
        <time>2022-08-05T10:35:09.000Z</time>
      </trkpt>
      <trkpt lat="49.29266" lon="-0.27913">
        <ele>5.643626</ele>
        <time>2022-08-05T10:35:10.000Z</time>
      </trkpt>
      <trkpt lat="49.29269" lon="-0.27911">
        <ele>5.6602</ele>
        <time>2022-08-05T10:35:11.000Z</time>
      </trkpt>
      <trkpt lat="49.2927" lon="-0.27909">
        <ele>5.671934</ele>
        <time>2022-08-05T10:35:12.000Z</time>
      </trkpt>
      <trkpt lat="49.29271" lon="-0.27906">
        <ele>5.685519</ele>
        <time>2022-08-05T10:35:13.000Z</time>
      </trkpt>
      <trkpt lat="49.29272" lon="-0.27903">
        <ele>5.698679</ele>
        <time>2022-08-05T10:35:14.000Z</time>
      </trkpt>
      <trkpt lat="49.29272" lon="-0.279">
        <ele>5.711723</ele>
        <time>2022-08-05T10:35:15.000Z</time>
      </trkpt>
      <trkpt lat="49.29271" lon="-0.27896">
        <ele>5.725645</ele>
        <time>2022-08-05T10:35:16.000Z</time>
      </trkpt>
      <trkpt lat="49.29272" lon="-0.27894">
        <ele>5.73686</ele>
        <time>2022-08-05T10:35:17.000Z</time>
      </trkpt>
      <trkpt lat="49.29272" lon="-0.2789">
        <ele>5.75003</ele>
        <time>2022-08-05T10:35:18.000Z</time>
      </trkpt>
      <trkpt lat="49.29272" lon="-0.27887">
        <ele>5.762026</ele>
        <time>2022-08-05T10:35:19.000Z</time>
      </trkpt>
      <trkpt lat="49.29271" lon="-0.27884">
        <ele>5.774248</ele>
        <time>2022-08-05T10:35:20.000Z</time>
      </trkpt>
      <trkpt lat="49.2927" lon="-0.27881">
        <ele>5.788497</ele>
        <time>2022-08-05T10:35:21.000Z</time>
      </trkpt>
      <trkpt lat="49.29269" lon="-0.27878">
        <ele>5.801837</ele>
        <time>2022-08-05T10:35:22.000Z</time>
      </trkpt>
      <trkpt lat="49.29269" lon="-0.27875">
        <ele>5.815007</ele>
        <time>2022-08-05T10:35:23.000Z</time>
      </trkpt>
      <trkpt lat="49.29269" lon="-0.27872">
        <ele>5.827655</ele>
        <time>2022-08-05T10:35:24.000Z</time>
      </trkpt>
      <trkpt lat="49.29269" lon="-0.27868">
        <ele>5.840433</ele>
        <time>2022-08-05T10:35:25.000Z</time>
      </trkpt>
      <trkpt lat="49.2927" lon="-0.27865">
        <ele>5.8534</ele>
        <time>2022-08-05T10:35:26.000Z</time>
      </trkpt>
      <trkpt lat="49.29271" lon="-0.27862">
        <ele>5.86731</ele>
        <time>2022-08-05T10:35:27.000Z</time>
      </trkpt>
      <trkpt lat="49.29272" lon="-0.2786">
        <ele>5.879583</ele>
        <time>2022-08-05T10:35:28.000Z</time>
      </trkpt>
      <trkpt lat="49.29273" lon="-0.27857">
        <ele>5.89222</ele>
        <time>2022-08-05T10:35:29.000Z</time>
      </trkpt>
      <trkpt lat="49.29274" lon="-0.27855">
        <ele>5.903507</ele>
        <time>2022-08-05T10:35:30.000Z</time>
      </trkpt>
      <trkpt lat="49.29276" lon="-0.27852">
        <ele>5.915537</ele>
        <time>2022-08-05T10:35:31.000Z</time>
      </trkpt>
      <trkpt lat="49.29277" lon="-0.27847">
        <ele>5.938069</ele>
        <time>2022-08-05T10:35:33.000Z</time>
      </trkpt>
      <trkpt lat="49.29277" lon="-0.27842">
        <ele>5.957832</ele>
        <time>2022-08-05T10:35:35.000Z</time>
      </trkpt>
      <trkpt lat="49.29277" lon="-0.27839">
        <ele>5.969828</ele>
        <time>2022-08-05T10:35:37.000Z</time>
      </trkpt>
      <trkpt lat="49.29275" lon="-0.27825">
        <ele>6.028673</ele>
        <time>2022-08-05T10:35:44.000Z</time>
      </trkpt>
      <trkpt lat="49.29274" lon="-0.2782">
        <ele>6.048966</ele>
        <time>2022-08-05T10:35:45.000Z</time>
      </trkpt>
      <trkpt lat="49.29274" lon="-0.27815">
        <ele>6.069061</ele>
        <time>2022-08-05T10:35:46.000Z</time>
      </trkpt>
      <trkpt lat="49.29273" lon="-0.27809">
        <ele>6.091102</ele>
        <time>2022-08-05T10:35:47.000Z</time>
      </trkpt>
      <trkpt lat="49.29272" lon="-0.27803">
        <ele>6.115579</ele>
        <time>2022-08-05T10:35:48.000Z</time>
      </trkpt>
      <trkpt lat="49.29271" lon="-0.27797">
        <ele>6.14044</ele>
        <time>2022-08-05T10:35:49.000Z</time>
      </trkpt>
      <trkpt lat="49.2927" lon="-0.2779">
        <ele>6.168252</ele>
        <time>2022-08-05T10:35:50.000Z</time>
      </trkpt>
      <trkpt lat="49.29269" lon="-0.27784">
        <ele>6.195804</ele>
        <time>2022-08-05T10:35:51.000Z</time>
      </trkpt>
      <trkpt lat="49.29268" lon="-0.27777">
        <ele>6.224005</ele>
        <time>2022-08-05T10:35:52.000Z</time>
      </trkpt>
      <trkpt lat="49.29267" lon="-0.27769">
        <ele>6.253101</ele>
        <time>2022-08-05T10:35:53.000Z</time>
      </trkpt>
      <trkpt lat="49.29266" lon="-0.27763">
        <ele>6.28111</ele>
        <time>2022-08-05T10:35:54.000Z</time>
      </trkpt>
      <trkpt lat="49.29265" lon="-0.27756">
        <ele>6.30931</ele>
        <time>2022-08-05T10:35:55.000Z</time>
      </trkpt>
      <trkpt lat="49.29264" lon="-0.27749">
        <ele>6.336477</ele>
        <time>2022-08-05T10:35:56.000Z</time>
      </trkpt>
      <trkpt lat="49.29263" lon="-0.27742">
        <ele>6.363599</ele>
        <time>2022-08-05T10:35:57.000Z</time>
      </trkpt>
      <trkpt lat="49.29262" lon="-0.27735">
        <ele>6.391923</ele>
        <time>2022-08-05T10:35:58.000Z</time>
      </trkpt>
      <trkpt lat="49.29261" lon="-0.27728">
        <ele>6.419844</ele>
        <time>2022-08-05T10:35:59.000Z</time>
      </trkpt>
      <trkpt lat="49.2926" lon="-0.2772">
        <ele>6.429908</ele>
        <time>2022-08-05T10:36:00.000Z</time>
      </trkpt>
      <trkpt lat="49.29259" lon="-0.27712">
        <ele>6.440051</ele>
        <time>2022-08-05T10:36:01.000Z</time>
      </trkpt>
      <trkpt lat="49.29258" lon="-0.27704">
        <ele>6.450566</ele>
        <time>2022-08-05T10:36:02.000Z</time>
      </trkpt>
      <trkpt lat="49.29257" lon="-0.27696">
        <ele>6.461046</ele>
        <time>2022-08-05T10:36:03.000Z</time>
      </trkpt>
      <trkpt lat="49.29256" lon="-0.27688">
        <ele>6.471561</ele>
        <time>2022-08-05T10:36:04.000Z</time>
      </trkpt>
      <trkpt lat="49.29254" lon="-0.27679">
        <ele>6.483951</ele>
        <time>2022-08-05T10:36:05.000Z</time>
      </trkpt>
      <trkpt lat="49.29253" lon="-0.27673">
        <ele>6.491725</ele>
        <time>2022-08-05T10:36:06.000Z</time>
      </trkpt>
      <trkpt lat="49.29252" lon="-0.27665">
        <ele>6.502763</ele>
        <time>2022-08-05T10:36:07.000Z</time>
      </trkpt>
      <trkpt lat="49.29252" lon="-0.27658">
        <ele>6.511074</ele>
        <time>2022-08-05T10:36:08.000Z</time>
      </trkpt>
      <trkpt lat="49.29251" lon="-0.27653">
        <ele>6.517689</ele>
        <time>2022-08-05T10:36:09.000Z</time>
      </trkpt>
      <trkpt lat="49.2925" lon="-0.27647">
        <ele>6.525714</ele>
        <time>2022-08-05T10:36:10.000Z</time>
      </trkpt>
      <trkpt lat="49.29249" lon="-0.27641">
        <ele>6.533691</ele>
        <time>2022-08-05T10:36:11.000Z</time>
      </trkpt>
      <trkpt lat="49.29248" lon="-0.27634">
        <ele>6.542345</ele>
        <time>2022-08-05T10:36:12.000Z</time>
      </trkpt>
      <trkpt lat="49.29248" lon="-0.27627">
        <ele>6.55097</ele>
        <time>2022-08-05T10:36:13.000Z</time>
      </trkpt>
      <trkpt lat="49.29246" lon="-0.2762">
        <ele>6.560253</ele>
        <time>2022-08-05T10:36:14.000Z</time>
      </trkpt>
      <trkpt lat="49.29245" lon="-0.27614">
        <ele>6.568894</ele>
        <time>2022-08-05T10:36:15.000Z</time>
      </trkpt>
      <trkpt lat="49.29244" lon="-0.27607">
        <ele>6.577756</ele>
        <time>2022-08-05T10:36:16.000Z</time>
      </trkpt>
      <trkpt lat="49.29244" lon="-0.276">
        <ele>6.58641</ele>
        <time>2022-08-05T10:36:17.000Z</time>
      </trkpt>
      <trkpt lat="49.29242" lon="-0.27594">
        <ele>6.595081</ele>
        <time>2022-08-05T10:36:18.000Z</time>
      </trkpt>
      <trkpt lat="49.29241" lon="-0.27587">
        <ele>6.60368</ele>
        <time>2022-08-05T10:36:19.000Z</time>
      </trkpt>
      <trkpt lat="49.29241" lon="-0.2758">
        <ele>6.612586</ele>
        <time>2022-08-05T10:36:20.000Z</time>
      </trkpt>
      <trkpt lat="49.2924" lon="-0.27574">
        <ele>6.621338</ele>
        <time>2022-08-05T10:36:21.000Z</time>
      </trkpt>
      <trkpt lat="49.29239" lon="-0.27567">
        <ele>6.63009</ele>
        <time>2022-08-05T10:36:22.000Z</time>
      </trkpt>
      <trkpt lat="49.29238" lon="-0.2756">
        <ele>6.639105</ele>
        <time>2022-08-05T10:36:23.000Z</time>
      </trkpt>
      <trkpt lat="49.29237" lon="-0.27553">
        <ele>6.648142</ele>
        <time>2022-08-05T10:36:24.000Z</time>
      </trkpt>
      <trkpt lat="49.29236" lon="-0.27546">
        <ele>6.657242</ele>
        <time>2022-08-05T10:36:25.000Z</time>
      </trkpt>
      <trkpt lat="49.29235" lon="-0.27539">
        <ele>6.666132</ele>
        <time>2022-08-05T10:36:26.000Z</time>
      </trkpt>
      <trkpt lat="49.29234" lon="-0.27532">
        <ele>6.675147</ele>
        <time>2022-08-05T10:36:27.000Z</time>
      </trkpt>
      <trkpt lat="49.29233" lon="-0.27525">
        <ele>6.684247</ele>
        <time>2022-08-05T10:36:28.000Z</time>
      </trkpt>
      <trkpt lat="49.29232" lon="-0.27518">
        <ele>6.693652</ele>
        <time>2022-08-05T10:36:29.000Z</time>
      </trkpt>
      <trkpt lat="49.29231" lon="-0.27511">
        <ele>6.702909</ele>
        <time>2022-08-05T10:36:30.000Z</time>
      </trkpt>
      <trkpt lat="49.2923" lon="-0.27504">
        <ele>6.712438</ele>
        <time>2022-08-05T10:36:31.000Z</time>
      </trkpt>
      <trkpt lat="49.29229" lon="-0.27497">
        <ele>6.721951</ele>
        <time>2022-08-05T10:36:32.000Z</time>
      </trkpt>
      <trkpt lat="49.29228" lon="-0.2749">
        <ele>6.730676</ele>
        <time>2022-08-05T10:36:33.000Z</time>
      </trkpt>
      <trkpt lat="49.29228" lon="-0.27484">
        <ele>6.738826</ele>
        <time>2022-08-05T10:36:34.000Z</time>
      </trkpt>
      <trkpt lat="49.29227" lon="-0.27477">
        <ele>6.747052</ele>
        <time>2022-08-05T10:36:35.000Z</time>
      </trkpt>
      <trkpt lat="49.29226" lon="-0.27471">
        <ele>6.755328</ele>
        <time>2022-08-05T10:36:36.000Z</time>
      </trkpt>
      <trkpt lat="49.29225" lon="-0.27465">
        <ele>6.762818</ele>
        <time>2022-08-05T10:36:37.000Z</time>
      </trkpt>
      <trkpt lat="49.29224" lon="-0.27459">
        <ele>6.770469</ele>
        <time>2022-08-05T10:36:38.000Z</time>
      </trkpt>
      <trkpt lat="49.29224" lon="-0.27454">
        <ele>6.750201</ele>
        <time>2022-08-05T10:36:39.000Z</time>
      </trkpt>
      <trkpt lat="49.29223" lon="-0.27448">
        <ele>6.727961</ele>
        <time>2022-08-05T10:36:40.000Z</time>
      </trkpt>
      <trkpt lat="49.29222" lon="-0.27443">
        <ele>6.705686</ele>
        <time>2022-08-05T10:36:41.000Z</time>
      </trkpt>
      <trkpt lat="49.29221" lon="-0.27437">
        <ele>6.682695</ele>
        <time>2022-08-05T10:36:42.000Z</time>
      </trkpt>
      <trkpt lat="49.2922" lon="-0.27431">
        <ele>6.660104</ele>
        <time>2022-08-05T10:36:43.000Z</time>
      </trkpt>
      <trkpt lat="49.2922" lon="-0.27426">
        <ele>6.637894</ele>
        <time>2022-08-05T10:36:44.000Z</time>
      </trkpt>
      <trkpt lat="49.29218" lon="-0.27419">
        <ele>6.610666</ele>
        <time>2022-08-05T10:36:45.000Z</time>
      </trkpt>
      <trkpt lat="49.29218" lon="-0.27415">
        <ele>6.592776</ele>
        <time>2022-08-05T10:36:46.000Z</time>
      </trkpt>
      <trkpt lat="49.29217" lon="-0.27409">
        <ele>6.569408</ele>
        <time>2022-08-05T10:36:47.000Z</time>
      </trkpt>
      <trkpt lat="49.29216" lon="-0.27403">
        <ele>6.548071</ele>
        <time>2022-08-05T10:36:48.000Z</time>
      </trkpt>
      <trkpt lat="49.29216" lon="-0.27398">
        <ele>6.526573</ele>
        <time>2022-08-05T10:36:49.000Z</time>
      </trkpt>
      <trkpt lat="49.29215" lon="-0.27393">
        <ele>6.505829</ele>
        <time>2022-08-05T10:36:50.000Z</time>
      </trkpt>
      <trkpt lat="49.29214" lon="-0.27388">
        <ele>6.486026</ele>
        <time>2022-08-05T10:36:51.000Z</time>
      </trkpt>
      <trkpt lat="49.29213" lon="-0.27383">
        <ele>6.465344</ele>
        <time>2022-08-05T10:36:52.000Z</time>
      </trkpt>
      <trkpt lat="49.29213" lon="-0.27377">
        <ele>6.443623</ele>
        <time>2022-08-05T10:36:53.000Z</time>
      </trkpt>
      <trkpt lat="49.29212" lon="-0.27372">
        <ele>6.42267</ele>
        <time>2022-08-05T10:36:54.000Z</time>
      </trkpt>
      <trkpt lat="49.29212" lon="-0.27366">
        <ele>6.401225</ele>
        <time>2022-08-05T10:36:55.000Z</time>
      </trkpt>
      <trkpt lat="49.29211" lon="-0.27361">
        <ele>6.379892</ele>
        <time>2022-08-05T10:36:56.000Z</time>
      </trkpt>
      <trkpt lat="49.2921" lon="-0.27355">
        <ele>6.356917</ele>
        <time>2022-08-05T10:36:57.000Z</time>
      </trkpt>
      <trkpt lat="49.2921" lon="-0.27349">
        <ele>6.333866</ele>
        <time>2022-08-05T10:36:58.000Z</time>
      </trkpt>
      <trkpt lat="49.29209" lon="-0.27344">
        <ele>6.310497</ele>
        <time>2022-08-05T10:36:59.000Z</time>
      </trkpt>
      <trkpt lat="49.29208" lon="-0.27338">
        <ele>6.286853</ele>
        <time>2022-08-05T10:37:00.000Z</time>
      </trkpt>
      <trkpt lat="49.29207" lon="-0.27332">
        <ele>6.262964</ele>
        <time>2022-08-05T10:37:01.000Z</time>
      </trkpt>
      <trkpt lat="49.29205" lon="-0.27326">
        <ele>6.240543</ele>
        <time>2022-08-05T10:37:02.000Z</time>
      </trkpt>
      <trkpt lat="49.29203" lon="-0.27322">
        <ele>6.218105</ele>
        <time>2022-08-05T10:37:03.000Z</time>
      </trkpt>
      <trkpt lat="49.292" lon="-0.27319">
        <ele>6.197442</ele>
        <time>2022-08-05T10:37:04.000Z</time>
      </trkpt>
      <trkpt lat="49.29197" lon="-0.27316">
        <ele>6.176974</ele>
        <time>2022-08-05T10:37:05.000Z</time>
      </trkpt>
      <trkpt lat="49.29194" lon="-0.27313">
        <ele>6.153026</ele>
        <time>2022-08-05T10:37:06.000Z</time>
      </trkpt>
      <trkpt lat="49.29191" lon="-0.27309">
        <ele>6.12909</ele>
        <time>2022-08-05T10:37:07.000Z</time>
      </trkpt>
      <trkpt lat="49.29189" lon="-0.27304">
        <ele>6.105873</ele>
        <time>2022-08-05T10:37:08.000Z</time>
      </trkpt>
      <trkpt lat="49.29188" lon="-0.27299">
        <ele>6.084382</ele>
        <time>2022-08-05T10:37:09.000Z</time>
      </trkpt>
      <trkpt lat="49.29187" lon="-0.27293">
        <ele>6.062294</ele>
        <time>2022-08-05T10:37:10.000Z</time>
      </trkpt>
      <trkpt lat="49.29187" lon="-0.27289">
        <ele>6.046714</ele>
        <time>2022-08-05T10:37:11.000Z</time>
      </trkpt>
      <trkpt lat="49.29187" lon="-0.27286">
        <ele>6.034892</ele>
        <time>2022-08-05T10:37:12.000Z</time>
      </trkpt>
      <trkpt lat="49.29186" lon="-0.2728">
        <ele>6.012299</ele>
        <time>2022-08-05T10:37:14.000Z</time>
      </trkpt>
      <trkpt lat="49.29186" lon="-0.27277">
        <ele>6.000613</ele>
        <time>2022-08-05T10:37:15.000Z</time>
      </trkpt>
      <trkpt lat="49.29186" lon="-0.27275">
        <ele>5.989707</ele>
        <time>2022-08-05T10:37:16.000Z</time>
      </trkpt>
      <trkpt lat="49.29186" lon="-0.27272">
        <ele>5.978654</ele>
        <time>2022-08-05T10:37:17.000Z</time>
      </trkpt>
      <trkpt lat="49.29185" lon="-0.27269">
        <ele>5.96656</ele>
        <time>2022-08-05T10:37:18.000Z</time>
      </trkpt>
      <trkpt lat="49.29183" lon="-0.27264">
        <ele>5.943002</ele>
        <time>2022-08-05T10:37:20.000Z</time>
      </trkpt>
      <trkpt lat="49.29182" lon="-0.2726">
        <ele>5.929638</ele>
        <time>2022-08-05T10:37:21.000Z</time>
      </trkpt>
      <trkpt lat="49.29182" lon="-0.27256">
        <ele>5.911747</ele>
        <time>2022-08-05T10:37:22.000Z</time>
      </trkpt>
      <trkpt lat="49.29181" lon="-0.27252">
        <ele>5.896753</ele>
        <time>2022-08-05T10:37:23.000Z</time>
      </trkpt>
      <trkpt lat="49.29181" lon="-0.27248">
        <ele>5.881524</ele>
        <time>2022-08-05T10:37:24.000Z</time>
      </trkpt>
      <trkpt lat="49.2918" lon="-0.27244">
        <ele>5.865916</ele>
        <time>2022-08-05T10:37:25.000Z</time>
      </trkpt>
      <trkpt lat="49.2918" lon="-0.27241">
        <ele>5.853841</ele>
        <time>2022-08-05T10:37:26.000Z</time>
      </trkpt>
      <trkpt lat="49.2918" lon="-0.27237">
        <ele>5.837709</ele>
        <time>2022-08-05T10:37:27.000Z</time>
      </trkpt>
      <trkpt lat="49.29179" lon="-0.27233">
        <ele>5.819818</ele>
        <time>2022-08-05T10:37:28.000Z</time>
      </trkpt>
      <trkpt lat="49.29178" lon="-0.27228">
        <ele>5.801798</ele>
        <time>2022-08-05T10:37:29.000Z</time>
      </trkpt>
      <trkpt lat="49.29178" lon="-0.27224">
        <ele>5.783143</ele>
        <time>2022-08-05T10:37:30.000Z</time>
      </trkpt>
      <trkpt lat="49.29177" lon="-0.27219">
        <ele>5.764625</ele>
        <time>2022-08-05T10:37:31.000Z</time>
      </trkpt>
      <trkpt lat="49.29176" lon="-0.27215">
        <ele>5.748168</ele>
        <time>2022-08-05T10:37:32.000Z</time>
      </trkpt>
      <trkpt lat="49.29176" lon="-0.27211">
        <ele>5.73218</ele>
        <time>2022-08-05T10:37:33.000Z</time>
      </trkpt>
      <trkpt lat="49.29175" lon="-0.27207">
        <ele>5.716799</ele>
        <time>2022-08-05T10:37:34.000Z</time>
      </trkpt>
      <trkpt lat="49.29175" lon="-0.27203">
        <ele>5.702387</ele>
        <time>2022-08-05T10:37:35.000Z</time>
      </trkpt>
      <trkpt lat="49.29175" lon="-0.272">
        <ele>5.696755</ele>
        <time>2022-08-05T10:37:36.000Z</time>
      </trkpt>
      <trkpt lat="49.29176" lon="-0.27196">
        <ele>5.696969</ele>
        <time>2022-08-05T10:37:37.000Z</time>
      </trkpt>
      <trkpt lat="49.29176" lon="-0.27193">
        <ele>5.697181</ele>
        <time>2022-08-05T10:37:38.000Z</time>
      </trkpt>
      <trkpt lat="49.29177" lon="-0.27189">
        <ele>5.697395</ele>
        <time>2022-08-05T10:37:39.000Z</time>
      </trkpt>
      <trkpt lat="49.29178" lon="-0.27185">
        <ele>5.697641</ele>
        <time>2022-08-05T10:37:40.000Z</time>
      </trkpt>
      <trkpt lat="49.29179" lon="-0.27181">
        <ele>5.697884</ele>
        <time>2022-08-05T10:37:41.000Z</time>
      </trkpt>
      <trkpt lat="49.29179" lon="-0.27177">
        <ele>5.698147</ele>
        <time>2022-08-05T10:37:42.000Z</time>
      </trkpt>
      <trkpt lat="49.29179" lon="-0.27172">
        <ele>5.698411</ele>
        <time>2022-08-05T10:37:43.000Z</time>
      </trkpt>
      <trkpt lat="49.29178" lon="-0.27168">
        <ele>5.698676</ele>
        <time>2022-08-05T10:37:44.000Z</time>
      </trkpt>
      <trkpt lat="49.29178" lon="-0.27163">
        <ele>5.698952</ele>
        <time>2022-08-05T10:37:45.000Z</time>
      </trkpt>
      <trkpt lat="49.29177" lon="-0.27158">
        <ele>5.699239</ele>
        <time>2022-08-05T10:37:46.000Z</time>
      </trkpt>
      <trkpt lat="49.29176" lon="-0.27153">
        <ele>5.699538</ele>
        <time>2022-08-05T10:37:47.000Z</time>
      </trkpt>
      <trkpt lat="49.29176" lon="-0.27148">
        <ele>5.699835</ele>
        <time>2022-08-05T10:37:48.000Z</time>
      </trkpt>
      <trkpt lat="49.29175" lon="-0.27143">
        <ele>5.700139</ele>
        <time>2022-08-05T10:37:49.000Z</time>
      </trkpt>
      <trkpt lat="49.29174" lon="-0.27138">
        <ele>5.700465</ele>
        <time>2022-08-05T10:37:50.000Z</time>
      </trkpt>
      <trkpt lat="49.29174" lon="-0.27132">
        <ele>5.700814</ele>
        <time>2022-08-05T10:37:51.000Z</time>
      </trkpt>
      <trkpt lat="49.29173" lon="-0.27126">
        <ele>5.701173</ele>
        <time>2022-08-05T10:37:52.000Z</time>
      </trkpt>
      <trkpt lat="49.29172" lon="-0.2712">
        <ele>5.701529</ele>
        <time>2022-08-05T10:37:53.000Z</time>
      </trkpt>
      <trkpt lat="49.29171" lon="-0.27114">
        <ele>5.7019</ele>
        <time>2022-08-05T10:37:54.000Z</time>
      </trkpt>
      <trkpt lat="49.2917" lon="-0.27108">
        <ele>5.702262</ele>
        <time>2022-08-05T10:37:55.000Z</time>
      </trkpt>
      <trkpt lat="49.2917" lon="-0.27102">
        <ele>5.702629</ele>
        <time>2022-08-05T10:37:56.000Z</time>
      </trkpt>
      <trkpt lat="49.29168" lon="-0.27095">
        <ele>5.703009</ele>
        <time>2022-08-05T10:37:57.000Z</time>
      </trkpt>
      <trkpt lat="49.29168" lon="-0.27089">
        <ele>5.703378</ele>
        <time>2022-08-05T10:37:58.000Z</time>
      </trkpt>
      <trkpt lat="49.29168" lon="-0.27083">
        <ele>5.703759</ele>
        <time>2022-08-05T10:37:59.000Z</time>
      </trkpt>
      <trkpt lat="49.29167" lon="-0.27076">
        <ele>5.704156</ele>
        <time>2022-08-05T10:38:00.000Z</time>
      </trkpt>
      <trkpt lat="49.29167" lon="-0.27069">
        <ele>5.704543</ele>
        <time>2022-08-05T10:38:01.000Z</time>
      </trkpt>
      <trkpt lat="49.29166" lon="-0.27062">
        <ele>5.704949</ele>
        <time>2022-08-05T10:38:02.000Z</time>
      </trkpt>
      <trkpt lat="49.29166" lon="-0.27055">
        <ele>5.705365</ele>
        <time>2022-08-05T10:38:03.000Z</time>
      </trkpt>
      <trkpt lat="49.29166" lon="-0.27048">
        <ele>5.705804</ele>
        <time>2022-08-05T10:38:04.000Z</time>
      </trkpt>
      <trkpt lat="49.29165" lon="-0.2704">
        <ele>5.70627</ele>
        <time>2022-08-05T10:38:05.000Z</time>
      </trkpt>
      <trkpt lat="49.29165" lon="-0.27032">
        <ele>5.706746</ele>
        <time>2022-08-05T10:38:06.000Z</time>
      </trkpt>
      <trkpt lat="49.29164" lon="-0.27023">
        <ele>5.707238</ele>
        <time>2022-08-05T10:38:07.000Z</time>
      </trkpt>
      <trkpt lat="49.29163" lon="-0.27015">
        <ele>5.707737</ele>
        <time>2022-08-05T10:38:08.000Z</time>
      </trkpt>
      <trkpt lat="49.29163" lon="-0.27007">
        <ele>5.708222</ele>
        <time>2022-08-05T10:38:09.000Z</time>
      </trkpt>
      <trkpt lat="49.29162" lon="-0.26998">
        <ele>5.708717</ele>
        <time>2022-08-05T10:38:10.000Z</time>
      </trkpt>
      <trkpt lat="49.29162" lon="-0.2699">
        <ele>5.709192</ele>
        <time>2022-08-05T10:38:11.000Z</time>
      </trkpt>
      <trkpt lat="49.29161" lon="-0.26982">
        <ele>5.709662</ele>
        <time>2022-08-05T10:38:12.000Z</time>
      </trkpt>
      <trkpt lat="49.2916" lon="-0.26975">
        <ele>5.710117</ele>
        <time>2022-08-05T10:38:13.000Z</time>
      </trkpt>
      <trkpt lat="49.2916" lon="-0.26967">
        <ele>5.710573</ele>
        <time>2022-08-05T10:38:14.000Z</time>
      </trkpt>
      <trkpt lat="49.29159" lon="-0.26959">
        <ele>5.711032</ele>
        <time>2022-08-05T10:38:15.000Z</time>
      </trkpt>
      <trkpt lat="49.29158" lon="-0.26952">
        <ele>5.711474</ele>
        <time>2022-08-05T10:38:16.000Z</time>
      </trkpt>
      <trkpt lat="49.29158" lon="-0.26944">
        <ele>5.711927</ele>
        <time>2022-08-05T10:38:17.000Z</time>
      </trkpt>
      <trkpt lat="49.29157" lon="-0.26936">
        <ele>5.71238</ele>
        <time>2022-08-05T10:38:18.000Z</time>
      </trkpt>
      <trkpt lat="49.29157" lon="-0.26928">
        <ele>5.708781</ele>
        <time>2022-08-05T10:38:19.000Z</time>
      </trkpt>
      <trkpt lat="49.29156" lon="-0.2692">
        <ele>5.690942</ele>
        <time>2022-08-05T10:38:20.000Z</time>
      </trkpt>
      <trkpt lat="49.29155" lon="-0.26912">
        <ele>5.672583</ele>
        <time>2022-08-05T10:38:21.000Z</time>
      </trkpt>
      <trkpt lat="49.29154" lon="-0.26902">
        <ele>5.650354</ele>
        <time>2022-08-05T10:38:22.000Z</time>
      </trkpt>
      <trkpt lat="49.29153" lon="-0.26895">
        <ele>5.634802</ele>
        <time>2022-08-05T10:38:23.000Z</time>
      </trkpt>
      <trkpt lat="49.29152" lon="-0.26887">
        <ele>5.616305</ele>
        <time>2022-08-05T10:38:24.000Z</time>
      </trkpt>
      <trkpt lat="49.29152" lon="-0.26879">
        <ele>5.598946</ele>
        <time>2022-08-05T10:38:25.000Z</time>
      </trkpt>
      <trkpt lat="49.29151" lon="-0.26872">
        <ele>5.582419</ele>
        <time>2022-08-05T10:38:26.000Z</time>
      </trkpt>
      <trkpt lat="49.2915" lon="-0.26865">
        <ele>5.566815</ele>
        <time>2022-08-05T10:38:27.000Z</time>
      </trkpt>
      <trkpt lat="49.2915" lon="-0.26858">
        <ele>5.551751</ele>
        <time>2022-08-05T10:38:28.000Z</time>
      </trkpt>
      <trkpt lat="49.29149" lon="-0.26851">
        <ele>5.536345</ele>
        <time>2022-08-05T10:38:29.000Z</time>
      </trkpt>
      <trkpt lat="49.29149" lon="-0.26844">
        <ele>5.520302</ele>
        <time>2022-08-05T10:38:30.000Z</time>
      </trkpt>
      <trkpt lat="49.29148" lon="-0.26836">
        <ele>5.5029</ele>
        <time>2022-08-05T10:38:31.000Z</time>
      </trkpt>
      <trkpt lat="49.29147" lon="-0.26828">
        <ele>5.484522</ele>
        <time>2022-08-05T10:38:32.000Z</time>
      </trkpt>
      <trkpt lat="49.29146" lon="-0.2682">
        <ele>5.466025</ele>
        <time>2022-08-05T10:38:33.000Z</time>
      </trkpt>
      <trkpt lat="49.29146" lon="-0.26811">
        <ele>5.446769</ele>
        <time>2022-08-05T10:38:34.000Z</time>
      </trkpt>
      <trkpt lat="49.29145" lon="-0.26802">
        <ele>5.4273</ele>
        <time>2022-08-05T10:38:35.000Z</time>
      </trkpt>
      <trkpt lat="49.29144" lon="-0.26794">
        <ele>5.407993</ele>
        <time>2022-08-05T10:38:36.000Z</time>
      </trkpt>
      <trkpt lat="49.29143" lon="-0.26785">
        <ele>5.387815</ele>
        <time>2022-08-05T10:38:37.000Z</time>
      </trkpt>
      <trkpt lat="49.29142" lon="-0.26776">
        <ele>5.368918</ele>
        <time>2022-08-05T10:38:38.000Z</time>
      </trkpt>
      <trkpt lat="49.29142" lon="-0.26768">
        <ele>5.35112</ele>
        <time>2022-08-05T10:38:39.000Z</time>
      </trkpt>
      <trkpt lat="49.29141" lon="-0.26761">
        <ele>5.333768</ele>
        <time>2022-08-05T10:38:40.000Z</time>
      </trkpt>
      <trkpt lat="49.2914" lon="-0.26753">
        <ele>5.316628</ele>
        <time>2022-08-05T10:38:41.000Z</time>
      </trkpt>
      <trkpt lat="49.29139" lon="-0.26745">
        <ele>5.299476</ele>
        <time>2022-08-05T10:38:42.000Z</time>
      </trkpt>
      <trkpt lat="49.29138" lon="-0.26738">
        <ele>5.283169</ele>
        <time>2022-08-05T10:38:43.000Z</time>
      </trkpt>
      <trkpt lat="49.29137" lon="-0.26731">
        <ele>5.266966</ele>
        <time>2022-08-05T10:38:44.000Z</time>
      </trkpt>
      <trkpt lat="49.29137" lon="-0.26724">
        <ele>5.25175</ele>
        <time>2022-08-05T10:38:45.000Z</time>
      </trkpt>
      <trkpt lat="49.29136" lon="-0.26717">
        <ele>5.236803</ele>
        <time>2022-08-05T10:38:46.000Z</time>
      </trkpt>
      <trkpt lat="49.29135" lon="-0.26711">
        <ele>5.222294</ele>
        <time>2022-08-05T10:38:47.000Z</time>
      </trkpt>
      <trkpt lat="49.29135" lon="-0.26705">
        <ele>5.208604</ele>
        <time>2022-08-05T10:38:48.000Z</time>
      </trkpt>
      <trkpt lat="49.29134" lon="-0.26699">
        <ele>5.195188</ele>
        <time>2022-08-05T10:38:49.000Z</time>
      </trkpt>
      <trkpt lat="49.29133" lon="-0.26693">
        <ele>5.181715</ele>
        <time>2022-08-05T10:38:50.000Z</time>
      </trkpt>
      <trkpt lat="49.29133" lon="-0.26687">
        <ele>5.168415</ele>
        <time>2022-08-05T10:38:51.000Z</time>
      </trkpt>
      <trkpt lat="49.29132" lon="-0.26681">
        <ele>5.155436</ele>
        <time>2022-08-05T10:38:52.000Z</time>
      </trkpt>
      <trkpt lat="49.29131" lon="-0.26675">
        <ele>5.142176</ele>
        <time>2022-08-05T10:38:53.000Z</time>
      </trkpt>
      <trkpt lat="49.29131" lon="-0.26669">
        <ele>5.128323</ele>
        <time>2022-08-05T10:38:54.000Z</time>
      </trkpt>
      <trkpt lat="49.2913" lon="-0.26663">
        <ele>5.115286</ele>
        <time>2022-08-05T10:38:55.000Z</time>
      </trkpt>
      <trkpt lat="49.29129" lon="-0.26657">
        <ele>5.099406</ele>
        <time>2022-08-05T10:38:56.000Z</time>
      </trkpt>
      <trkpt lat="49.29128" lon="-0.26652">
        <ele>5.063184</ele>
        <time>2022-08-05T10:38:57.000Z</time>
      </trkpt>
      <trkpt lat="49.29127" lon="-0.26646">
        <ele>5.024693</ele>
        <time>2022-08-05T10:38:58.000Z</time>
      </trkpt>
      <trkpt lat="49.29126" lon="-0.26641">
        <ele>4.988722</ele>
        <time>2022-08-05T10:38:59.000Z</time>
      </trkpt>
      <trkpt lat="49.29124" lon="-0.26635">
        <ele>4.945602</ele>
        <time>2022-08-05T10:39:00.000Z</time>
      </trkpt>
      <trkpt lat="49.29121" lon="-0.26631">
        <ele>4.908757</ele>
        <time>2022-08-05T10:39:01.000Z</time>
      </trkpt>
      <trkpt lat="49.29118" lon="-0.26628">
        <ele>4.878523</ele>
        <time>2022-08-05T10:39:02.000Z</time>
      </trkpt>
      <trkpt lat="49.29115" lon="-0.26625">
        <ele>4.837116</ele>
        <time>2022-08-05T10:39:03.000Z</time>
      </trkpt>
      <trkpt lat="49.29112" lon="-0.26622">
        <ele>4.80407</ele>
        <time>2022-08-05T10:39:04.000Z</time>
      </trkpt>
      <trkpt lat="49.29109" lon="-0.2662">
        <ele>4.770167</ele>
        <time>2022-08-05T10:39:05.000Z</time>
      </trkpt>
      <trkpt lat="49.29107" lon="-0.26618">
        <ele>4.744585</ele>
        <time>2022-08-05T10:39:06.000Z</time>
      </trkpt>
      <trkpt lat="49.29104" lon="-0.26614">
        <ele>4.710885</ele>
        <time>2022-08-05T10:39:07.000Z</time>
      </trkpt>
      <trkpt lat="49.29101" lon="-0.26611">
        <ele>4.677506</ele>
        <time>2022-08-05T10:39:08.000Z</time>
      </trkpt>
      <trkpt lat="49.29098" lon="-0.26609">
        <ele>4.645408</ele>
        <time>2022-08-05T10:39:09.000Z</time>
      </trkpt>
      <trkpt lat="49.29095" lon="-0.26606">
        <ele>4.613849</ele>
        <time>2022-08-05T10:39:10.000Z</time>
      </trkpt>
      <trkpt lat="49.29093" lon="-0.26604">
        <ele>4.590239</ele>
        <time>2022-08-05T10:39:11.000Z</time>
      </trkpt>
      <trkpt lat="49.29091" lon="-0.266">
        <ele>4.554117</ele>
        <time>2022-08-05T10:39:12.000Z</time>
      </trkpt>
      <trkpt lat="49.2909" lon="-0.26596">
        <ele>4.525727</ele>
        <time>2022-08-05T10:39:13.000Z</time>
      </trkpt>
      <trkpt lat="49.29089" lon="-0.26592">
        <ele>4.497792</ele>
        <time>2022-08-05T10:39:14.000Z</time>
      </trkpt>
      <trkpt lat="49.29088" lon="-0.26587">
        <ele>4.464188</ele>
        <time>2022-08-05T10:39:15.000Z</time>
      </trkpt>
      <trkpt lat="49.29087" lon="-0.26582">
        <ele>4.433386</ele>
        <time>2022-08-05T10:39:16.000Z</time>
      </trkpt>
      <trkpt lat="49.29086" lon="-0.26578">
        <ele>4.402962</ele>
        <time>2022-08-05T10:39:17.000Z</time>
      </trkpt>
      <trkpt lat="49.29085" lon="-0.26573">
        <ele>4.370531</ele>
        <time>2022-08-05T10:39:18.000Z</time>
      </trkpt>
      <trkpt lat="49.29084" lon="-0.26568">
        <ele>4.338684</ele>
        <time>2022-08-05T10:39:19.000Z</time>
      </trkpt>
      <trkpt lat="49.29083" lon="-0.26565">
        <ele>4.315695</ele>
        <time>2022-08-05T10:39:20.000Z</time>
      </trkpt>
      <trkpt lat="49.29082" lon="-0.26559">
        <ele>4.278532</ele>
        <time>2022-08-05T10:39:21.000Z</time>
      </trkpt>
      <trkpt lat="49.29081" lon="-0.26555">
        <ele>4.249354</ele>
        <time>2022-08-05T10:39:22.000Z</time>
      </trkpt>
      <trkpt lat="49.2908" lon="-0.2655">
        <ele>4.220583</ele>
        <time>2022-08-05T10:39:23.000Z</time>
      </trkpt>
      <trkpt lat="49.2908" lon="-0.26547">
        <ele>4.197594</ele>
        <time>2022-08-05T10:39:24.000Z</time>
      </trkpt>
      <trkpt lat="49.29079" lon="-0.26542">
        <ele>4.164371</ele>
        <time>2022-08-05T10:39:25.000Z</time>
      </trkpt>
      <trkpt lat="49.29077" lon="-0.26538">
        <ele>4.134263</ele>
        <time>2022-08-05T10:39:26.000Z</time>
      </trkpt>
      <trkpt lat="49.29077" lon="-0.26533">
        <ele>4.105575</ele>
        <time>2022-08-05T10:39:27.000Z</time>
      </trkpt>
      <trkpt lat="49.29076" lon="-0.26529">
        <ele>4.075975</ele>
        <time>2022-08-05T10:39:28.000Z</time>
      </trkpt>
      <trkpt lat="49.29075" lon="-0.26525">
        <ele>4.047287</ele>
        <time>2022-08-05T10:39:29.000Z</time>
      </trkpt>
      <trkpt lat="49.29074" lon="-0.2652">
        <ele>4.017086</ele>
        <time>2022-08-05T10:39:30.000Z</time>
      </trkpt>
      <trkpt lat="49.29073" lon="-0.26516">
        <ele>3.988086</ele>
        <time>2022-08-05T10:39:31.000Z</time>
      </trkpt>
      <trkpt lat="49.29072" lon="-0.26511">
        <ele>3.958792</ele>
        <time>2022-08-05T10:39:32.000Z</time>
      </trkpt>
      <trkpt lat="49.29071" lon="-0.26508">
        <ele>3.935676</ele>
        <time>2022-08-05T10:39:33.000Z</time>
      </trkpt>
      <trkpt lat="49.2907" lon="-0.26503">
        <ele>3.901881</ele>
        <time>2022-08-05T10:39:34.000Z</time>
      </trkpt>
      <trkpt lat="49.29069" lon="-0.26498">
        <ele>3.870616</ele>
        <time>2022-08-05T10:39:35.000Z</time>
      </trkpt>
      <trkpt lat="49.29069" lon="-0.26494">
        <ele>3.841438</ele>
        <time>2022-08-05T10:39:36.000Z</time>
      </trkpt>
      <trkpt lat="49.29068" lon="-0.2649">
        <ele>3.813034</ele>
        <time>2022-08-05T10:39:37.000Z</time>
      </trkpt>
      <trkpt lat="49.29067" lon="-0.26486">
        <ele>3.790045</ele>
        <time>2022-08-05T10:39:38.000Z</time>
      </trkpt>
      <trkpt lat="49.29066" lon="-0.26481">
        <ele>3.756315</ele>
        <time>2022-08-05T10:39:39.000Z</time>
      </trkpt>
      <trkpt lat="49.29065" lon="-0.26477">
        <ele>3.729435</ele>
        <time>2022-08-05T10:39:40.000Z</time>
      </trkpt>
      <trkpt lat="49.29064" lon="-0.26473">
        <ele>3.700435</ele>
        <time>2022-08-05T10:39:41.000Z</time>
      </trkpt>
      <trkpt lat="49.29064" lon="-0.26468">
        <ele>3.6725</ele>
        <time>2022-08-05T10:39:42.000Z</time>
      </trkpt>
      <trkpt lat="49.29063" lon="-0.26464">
        <ele>3.644962</ele>
        <time>2022-08-05T10:39:43.000Z</time>
      </trkpt>
      <trkpt lat="49.29062" lon="-0.2646">
        <ele>3.618888</ele>
        <time>2022-08-05T10:39:44.000Z</time>
      </trkpt>
      <trkpt lat="49.29061" lon="-0.26456">
        <ele>3.591629</ele>
        <time>2022-08-05T10:39:45.000Z</time>
      </trkpt>
      <trkpt lat="49.29061" lon="-0.26452">
        <ele>3.565555</ele>
        <time>2022-08-05T10:39:46.000Z</time>
      </trkpt>
      <trkpt lat="49.2906" lon="-0.26448">
        <ele>3.538017</ele>
        <time>2022-08-05T10:39:47.000Z</time>
      </trkpt>
      <trkpt lat="49.29059" lon="-0.26444">
        <ele>3.511137</ele>
        <time>2022-08-05T10:39:48.000Z</time>
      </trkpt>
      <trkpt lat="49.29059" lon="-0.2644">
        <ele>3.484297</ele>
        <time>2022-08-05T10:39:49.000Z</time>
      </trkpt>
      <trkpt lat="49.29058" lon="-0.26436">
        <ele>3.458266</ele>
        <time>2022-08-05T10:39:50.000Z</time>
      </trkpt>
      <trkpt lat="49.29057" lon="-0.26432">
        <ele>3.432192</ele>
        <time>2022-08-05T10:39:51.000Z</time>
      </trkpt>
      <trkpt lat="49.29056" lon="-0.26428">
        <ele>3.407108</ele>
        <time>2022-08-05T10:39:52.000Z</time>
      </trkpt>
      <trkpt lat="49.29055" lon="-0.26425">
        <ele>3.380409</ele>
        <time>2022-08-05T10:39:53.000Z</time>
      </trkpt>
      <trkpt lat="49.29054" lon="-0.26421">
        <ele>3.355572</ele>
        <time>2022-08-05T10:39:54.000Z</time>
      </trkpt>
      <trkpt lat="49.29053" lon="-0.26417">
        <ele>3.344631</ele>
        <time>2022-08-05T10:39:55.000Z</time>
      </trkpt>
      <trkpt lat="49.29053" lon="-0.26414">
        <ele>3.337434</ele>
        <time>2022-08-05T10:39:56.000Z</time>
      </trkpt>
      <trkpt lat="49.29051" lon="-0.2641">
        <ele>3.329504</ele>
        <time>2022-08-05T10:39:57.000Z</time>
      </trkpt>
      <trkpt lat="49.2905" lon="-0.26407">
        <ele>3.322088</ele>
        <time>2022-08-05T10:39:58.000Z</time>
      </trkpt>
      <trkpt lat="49.29049" lon="-0.26404">
        <ele>3.315001</ele>
        <time>2022-08-05T10:39:59.000Z</time>
      </trkpt>
      <trkpt lat="49.29047" lon="-0.26397">
        <ele>3.300121</ele>
        <time>2022-08-05T10:40:01.000Z</time>
      </trkpt>
      <trkpt lat="49.29046" lon="-0.26394">
        <ele>3.293228</ele>
        <time>2022-08-05T10:40:02.000Z</time>
      </trkpt>
      <trkpt lat="49.29045" lon="-0.26391">
        <ele>3.285539</ele>
        <time>2022-08-05T10:40:03.000Z</time>
      </trkpt>
      <trkpt lat="49.29045" lon="-0.26387">
        <ele>3.277969</ele>
        <time>2022-08-05T10:40:04.000Z</time>
      </trkpt>
      <trkpt lat="49.29044" lon="-0.26384">
        <ele>3.27119</ele>
        <time>2022-08-05T10:40:05.000Z</time>
      </trkpt>
      <trkpt lat="49.29043" lon="-0.2638">
        <ele>3.261949</ele>
        <time>2022-08-05T10:40:06.000Z</time>
      </trkpt>
      <trkpt lat="49.29042" lon="-0.26376">
        <ele>3.253492</ele>
        <time>2022-08-05T10:40:07.000Z</time>
      </trkpt>
      <trkpt lat="49.29041" lon="-0.26372">
        <ele>3.244873</ele>
        <time>2022-08-05T10:40:08.000Z</time>
      </trkpt>
      <trkpt lat="49.2904" lon="-0.26369">
        <ele>3.237979</ele>
        <time>2022-08-05T10:40:09.000Z</time>
      </trkpt>
      <trkpt lat="49.29039" lon="-0.26363">
        <ele>3.227071</ele>
        <time>2022-08-05T10:40:10.000Z</time>
      </trkpt>
      <trkpt lat="49.29038" lon="-0.26359">
        <ele>3.21766</ele>
        <time>2022-08-05T10:40:11.000Z</time>
      </trkpt>
      <trkpt lat="49.29037" lon="-0.26355">
        <ele>3.208938</ele>
        <time>2022-08-05T10:40:12.000Z</time>
      </trkpt>
      <trkpt lat="49.29037" lon="-0.26351">
        <ele>3.200483</ele>
        <time>2022-08-05T10:40:13.000Z</time>
      </trkpt>
      <trkpt lat="49.29035" lon="-0.26347">
        <ele>3.191128</ele>
        <time>2022-08-05T10:40:14.000Z</time>
      </trkpt>
      <trkpt lat="49.29035" lon="-0.26343">
        <ele>3.183262</ele>
        <time>2022-08-05T10:40:15.000Z</time>
      </trkpt>
      <trkpt lat="49.29034" lon="-0.26339">
        <ele>3.174265</ele>
        <time>2022-08-05T10:40:16.000Z</time>
      </trkpt>
      <trkpt lat="49.29033" lon="-0.26335">
        <ele>3.166563</ele>
        <time>2022-08-05T10:40:17.000Z</time>
      </trkpt>
      <trkpt lat="49.29033" lon="-0.26331">
        <ele>3.157841</ele>
        <time>2022-08-05T10:40:18.000Z</time>
      </trkpt>
      <trkpt lat="49.29032" lon="-0.26326">
        <ele>3.148754</ele>
        <time>2022-08-05T10:40:19.000Z</time>
      </trkpt>
      <trkpt lat="49.29031" lon="-0.26322">
        <ele>3.140031</ele>
        <time>2022-08-05T10:40:20.000Z</time>
      </trkpt>
      <trkpt lat="49.2903" lon="-0.26318">
        <ele>3.131517</ele>
        <time>2022-08-05T10:40:21.000Z</time>
      </trkpt>
      <trkpt lat="49.29029" lon="-0.26314">
        <ele>3.1226</ele>
        <time>2022-08-05T10:40:22.000Z</time>
      </trkpt>
      <trkpt lat="49.29029" lon="-0.26309">
        <ele>3.113358</ele>
        <time>2022-08-05T10:40:23.000Z</time>
      </trkpt>
      <trkpt lat="49.29028" lon="-0.26305">
        <ele>3.103792</ele>
        <time>2022-08-05T10:40:24.000Z</time>
      </trkpt>
      <trkpt lat="49.29027" lon="-0.263">
        <ele>3.094321</ele>
        <time>2022-08-05T10:40:25.000Z</time>
      </trkpt>
      <trkpt lat="49.29026" lon="-0.26296">
        <ele>3.084967</ele>
        <time>2022-08-05T10:40:26.000Z</time>
      </trkpt>
      <trkpt lat="49.29025" lon="-0.26292">
        <ele>3.076119</ele>
        <time>2022-08-05T10:40:27.000Z</time>
      </trkpt>
      <trkpt lat="49.29024" lon="-0.26287">
        <ele>3.066216</ele>
        <time>2022-08-05T10:40:28.000Z</time>
      </trkpt>
      <trkpt lat="49.29023" lon="-0.26283">
        <ele>3.05665</ele>
        <time>2022-08-05T10:40:29.000Z</time>
      </trkpt>
      <trkpt lat="49.29022" lon="-0.26279">
        <ele>3.04908</ele>
        <time>2022-08-05T10:40:30.000Z</time>
      </trkpt>
      <trkpt lat="49.29021" lon="-0.26275">
        <ele>3.03938</ele>
        <time>2022-08-05T10:40:31.000Z</time>
      </trkpt>
      <trkpt lat="49.2902" lon="-0.2627">
        <ele>3.029909</ele>
        <time>2022-08-05T10:40:32.000Z</time>
      </trkpt>
      <trkpt lat="49.2902" lon="-0.26265">
        <ele>3.020209</ele>
        <time>2022-08-05T10:40:33.000Z</time>
      </trkpt>
      <trkpt lat="49.29019" lon="-0.2626">
        <ele>3.008604</ele>
        <time>2022-08-05T10:40:34.000Z</time>
      </trkpt>
      <trkpt lat="49.29018" lon="-0.26256">
        <ele>3.000172</ele>
        <time>2022-08-05T10:40:35.000Z</time>
      </trkpt>
      <trkpt lat="49.29017" lon="-0.26252">
        <ele>2.990986</ele>
        <time>2022-08-05T10:40:36.000Z</time>
      </trkpt>
      <trkpt lat="49.29016" lon="-0.26247">
        <ele>2.981515</ele>
        <time>2022-08-05T10:40:37.000Z</time>
      </trkpt>
      <trkpt lat="49.29015" lon="-0.26242">
        <ele>2.971225</ele>
        <time>2022-08-05T10:40:38.000Z</time>
      </trkpt>
      <trkpt lat="49.29014" lon="-0.26238">
        <ele>2.961814</ele>
        <time>2022-08-05T10:40:39.000Z</time>
      </trkpt>
      <trkpt lat="49.29013" lon="-0.26233">
        <ele>2.952506</ele>
        <time>2022-08-05T10:40:40.000Z</time>
      </trkpt>
      <trkpt lat="49.29012" lon="-0.26229">
        <ele>2.943227</ele>
        <time>2022-08-05T10:40:41.000Z</time>
      </trkpt>
      <trkpt lat="49.29012" lon="-0.26224">
        <ele>2.933723</ele>
        <time>2022-08-05T10:40:42.000Z</time>
      </trkpt>
      <trkpt lat="49.29012" lon="-0.2622">
        <ele>2.924266</ele>
        <time>2022-08-05T10:40:43.000Z</time>
      </trkpt>
      <trkpt lat="49.29012" lon="-0.26215">
        <ele>2.914808</ele>
        <time>2022-08-05T10:40:44.000Z</time>
      </trkpt>
      <trkpt lat="49.29012" lon="-0.26211">
        <ele>2.906559</ele>
        <time>2022-08-05T10:40:45.000Z</time>
      </trkpt>
      <trkpt lat="49.29012" lon="-0.26206">
        <ele>2.897457</ele>
        <time>2022-08-05T10:40:46.000Z</time>
      </trkpt>
      <trkpt lat="49.29013" lon="-0.26202">
        <ele>2.887891</ele>
        <time>2022-08-05T10:40:47.000Z</time>
      </trkpt>
      <trkpt lat="49.29013" lon="-0.26197">
        <ele>2.878846</ele>
        <time>2022-08-05T10:40:48.000Z</time>
      </trkpt>
      <trkpt lat="49.29014" lon="-0.26193">
        <ele>2.869929</ele>
        <time>2022-08-05T10:40:49.000Z</time>
      </trkpt>
      <trkpt lat="49.29015" lon="-0.26189">
        <ele>2.860936</ele>
        <time>2022-08-05T10:40:50.000Z</time>
      </trkpt>
      <trkpt lat="49.29016" lon="-0.26185">
        <ele>2.852677</ele>
        <time>2022-08-05T10:40:51.000Z</time>
      </trkpt>
      <trkpt lat="49.29017" lon="-0.26181">
        <ele>2.843492</ele>
        <time>2022-08-05T10:40:52.000Z</time>
      </trkpt>
      <trkpt lat="49.29017" lon="-0.26176">
        <ele>2.834437</ele>
        <time>2022-08-05T10:40:53.000Z</time>
      </trkpt>
      <trkpt lat="49.29017" lon="-0.26172">
        <ele>2.825584</ele>
        <time>2022-08-05T10:40:54.000Z</time>
      </trkpt>
      <trkpt lat="49.29017" lon="-0.26168">
        <ele>2.817334</ele>
        <time>2022-08-05T10:40:55.000Z</time>
      </trkpt>
      <trkpt lat="49.29017" lon="-0.26163">
        <ele>2.808395</ele>
        <time>2022-08-05T10:40:56.000Z</time>
      </trkpt>
      <trkpt lat="49.29016" lon="-0.26159">
        <ele>2.79994</ele>
        <time>2022-08-05T10:40:57.000Z</time>
      </trkpt>
      <trkpt lat="49.29016" lon="-0.26155">
        <ele>2.800757</ele>
        <time>2022-08-05T10:40:58.000Z</time>
      </trkpt>
      <trkpt lat="49.29015" lon="-0.26151">
        <ele>2.807803</ele>
        <time>2022-08-05T10:40:59.000Z</time>
      </trkpt>
      <trkpt lat="49.29014" lon="-0.26147">
        <ele>2.814803</ele>
        <time>2022-08-05T10:41:00.000Z</time>
      </trkpt>
      <trkpt lat="49.29013" lon="-0.26142">
        <ele>2.821848</ele>
        <time>2022-08-05T10:41:01.000Z</time>
      </trkpt>
      <trkpt lat="49.29012" lon="-0.26138">
        <ele>2.828877</ele>
        <time>2022-08-05T10:41:02.000Z</time>
      </trkpt>
      <trkpt lat="49.29011" lon="-0.26134">
        <ele>2.835391</ele>
        <time>2022-08-05T10:41:03.000Z</time>
      </trkpt>
      <trkpt lat="49.2901" lon="-0.2613">
        <ele>2.842354</ele>
        <time>2022-08-05T10:41:04.000Z</time>
      </trkpt>
      <trkpt lat="49.29009" lon="-0.26126">
        <ele>2.848879</ele>
        <time>2022-08-05T10:41:05.000Z</time>
      </trkpt>
      <trkpt lat="49.29008" lon="-0.26122">
        <ele>2.856126</ele>
        <time>2022-08-05T10:41:06.000Z</time>
      </trkpt>
      <trkpt lat="49.29007" lon="-0.26118">
        <ele>2.862788</ele>
        <time>2022-08-05T10:41:07.000Z</time>
      </trkpt>
      <trkpt lat="49.29005" lon="-0.26115">
        <ele>2.869979</ele>
        <time>2022-08-05T10:41:08.000Z</time>
      </trkpt>
      <trkpt lat="49.29004" lon="-0.26111">
        <ele>2.877591</ele>
        <time>2022-08-05T10:41:09.000Z</time>
      </trkpt>
      <trkpt lat="49.29002" lon="-0.26107">
        <ele>2.884554</ele>
        <time>2022-08-05T10:41:10.000Z</time>
      </trkpt>
      <trkpt lat="49.29001" lon="-0.26103">
        <ele>2.891266</ele>
        <time>2022-08-05T10:41:11.000Z</time>
      </trkpt>
      <trkpt lat="49.28999" lon="-0.26099">
        <ele>2.898456</ele>
        <time>2022-08-05T10:41:12.000Z</time>
      </trkpt>
      <trkpt lat="49.28999" lon="-0.26095">
        <ele>2.90489</ele>
        <time>2022-08-05T10:41:13.000Z</time>
      </trkpt>
      <trkpt lat="49.28998" lon="-0.26091">
        <ele>2.911918</ele>
        <time>2022-08-05T10:41:14.000Z</time>
      </trkpt>
      <trkpt lat="49.28998" lon="-0.26087">
        <ele>2.918754</ele>
        <time>2022-08-05T10:41:15.000Z</time>
      </trkpt>
      <trkpt lat="49.28998" lon="-0.26083">
        <ele>2.924954</ele>
        <time>2022-08-05T10:41:16.000Z</time>
      </trkpt>
      <trkpt lat="49.28999" lon="-0.26079">
        <ele>2.931381</ele>
        <time>2022-08-05T10:41:17.000Z</time>
      </trkpt>
      <trkpt lat="49.29" lon="-0.26075">
        <ele>2.938427</ele>
        <time>2022-08-05T10:41:18.000Z</time>
      </trkpt>
      <trkpt lat="49.29001" lon="-0.26071">
        <ele>2.94539</ele>
        <time>2022-08-05T10:41:19.000Z</time>
      </trkpt>
      <trkpt lat="49.29002" lon="-0.26068">
        <ele>2.950836</ele>
        <time>2022-08-05T10:41:20.000Z</time>
      </trkpt>
      <trkpt lat="49.29003" lon="-0.26064">
        <ele>2.957894</ele>
        <time>2022-08-05T10:41:21.000Z</time>
      </trkpt>
      <trkpt lat="49.29005" lon="-0.2606">
        <ele>2.964819</ele>
        <time>2022-08-05T10:41:22.000Z</time>
      </trkpt>
      <trkpt lat="49.29005" lon="-0.26056">
        <ele>2.971655</ele>
        <time>2022-08-05T10:41:23.000Z</time>
      </trkpt>
      <trkpt lat="49.29006" lon="-0.26052">
        <ele>2.978239</ele>
        <time>2022-08-05T10:41:24.000Z</time>
      </trkpt>
      <trkpt lat="49.29006" lon="-0.26048">
        <ele>2.984121</ele>
        <time>2022-08-05T10:41:25.000Z</time>
      </trkpt>
      <trkpt lat="49.29005" lon="-0.26045">
        <ele>2.989186</ele>
        <time>2022-08-05T10:41:26.000Z</time>
      </trkpt>
      <trkpt lat="49.29004" lon="-0.26043">
        <ele>2.99425</ele>
        <time>2022-08-05T10:41:27.000Z</time>
      </trkpt>
      <trkpt lat="49.29002" lon="-0.26039">
        <ele>3.002149</ele>
        <time>2022-08-05T10:41:29.000Z</time>
      </trkpt>
      <trkpt lat="49.29" lon="-0.26036">
        <ele>3.010108</ele>
        <time>2022-08-05T10:41:31.000Z</time>
      </trkpt>
      <trkpt lat="49.28999" lon="-0.26033">
        <ele>3.014503</ele>
        <time>2022-08-05T10:41:32.000Z</time>
      </trkpt>
      <trkpt lat="49.28997" lon="-0.26031">
        <ele>3.019462</ele>
        <time>2022-08-05T10:41:33.000Z</time>
      </trkpt>
      <trkpt lat="49.28996" lon="-0.26028">
        <ele>3.024526</ele>
        <time>2022-08-05T10:41:34.000Z</time>
      </trkpt>
      <trkpt lat="49.28995" lon="-0.26026">
        <ele>3.029462</ele>
        <time>2022-08-05T10:41:35.000Z</time>
      </trkpt>
      <trkpt lat="49.28994" lon="-0.26023">
        <ele>3.034818</ele>
        <time>2022-08-05T10:41:36.000Z</time>
      </trkpt>
      <trkpt lat="49.28994" lon="-0.26019">
        <ele>3.040111</ele>
        <time>2022-08-05T10:41:37.000Z</time>
      </trkpt>
      <trkpt lat="49.28993" lon="-0.26016">
        <ele>3.045558</ele>
        <time>2022-08-05T10:41:38.000Z</time>
      </trkpt>
      <trkpt lat="49.28992" lon="-0.26013">
        <ele>3.051343</ele>
        <time>2022-08-05T10:41:39.000Z</time>
      </trkpt>
      <trkpt lat="49.28991" lon="-0.2601">
        <ele>3.056331</ele>
        <time>2022-08-05T10:41:40.000Z</time>
      </trkpt>
      <trkpt lat="49.2899" lon="-0.26007">
        <ele>3.062324</ele>
        <time>2022-08-05T10:41:41.000Z</time>
      </trkpt>
      <trkpt lat="49.28989" lon="-0.26003">
        <ele>3.06769</ele>
        <time>2022-08-05T10:41:42.000Z</time>
      </trkpt>
      <trkpt lat="49.28989" lon="-0.26">
        <ele>3.072831</ele>
        <time>2022-08-05T10:41:43.000Z</time>
      </trkpt>
      <trkpt lat="49.28988" lon="-0.25997">
        <ele>3.078824</ele>
        <time>2022-08-05T10:41:44.000Z</time>
      </trkpt>
      <trkpt lat="49.28987" lon="-0.25994">
        <ele>3.084271</ele>
        <time>2022-08-05T10:41:45.000Z</time>
      </trkpt>
      <trkpt lat="49.28986" lon="-0.25991">
        <ele>3.088933</ele>
        <time>2022-08-05T10:41:46.000Z</time>
      </trkpt>
      <trkpt lat="49.28985" lon="-0.25987">
        <ele>3.095961</ele>
        <time>2022-08-05T10:41:47.000Z</time>
      </trkpt>
      <trkpt lat="49.28984" lon="-0.25983">
        <ele>3.102328</ele>
        <time>2022-08-05T10:41:48.000Z</time>
      </trkpt>
      <trkpt lat="49.28983" lon="-0.2598">
        <ele>3.107469</ele>
        <time>2022-08-05T10:41:49.000Z</time>
      </trkpt>
      <trkpt lat="49.28982" lon="-0.25976">
        <ele>3.114131</ele>
        <time>2022-08-05T10:41:50.000Z</time>
      </trkpt>
      <trkpt lat="49.28981" lon="-0.25971">
        <ele>3.122445</ele>
        <time>2022-08-05T10:41:51.000Z</time>
      </trkpt>
      <trkpt lat="49.28981" lon="-0.25967">
        <ele>3.129004</ele>
        <time>2022-08-05T10:41:52.000Z</time>
      </trkpt>
      <trkpt lat="49.28981" lon="-0.25963">
        <ele>3.136306</ele>
        <time>2022-08-05T10:41:53.000Z</time>
      </trkpt>
      <trkpt lat="49.2898" lon="-0.25958">
        <ele>3.144131</ele>
        <time>2022-08-05T10:41:54.000Z</time>
      </trkpt>
      <trkpt lat="49.2898" lon="-0.25953">
        <ele>3.151508</ele>
        <time>2022-08-05T10:41:55.000Z</time>
      </trkpt>
      <trkpt lat="49.2898" lon="-0.25948">
        <ele>3.159332</ele>
        <time>2022-08-05T10:41:56.000Z</time>
      </trkpt>
      <trkpt lat="49.28979" lon="-0.25944">
        <ele>3.167102</ele>
        <time>2022-08-05T10:41:57.000Z</time>
      </trkpt>
      <trkpt lat="49.28978" lon="-0.25939">
        <ele>3.175232</ele>
        <time>2022-08-05T10:41:58.000Z</time>
      </trkpt>
      <trkpt lat="49.28978" lon="-0.25934">
        <ele>3.18274</ele>
        <time>2022-08-05T10:41:59.000Z</time>
      </trkpt>
      <trkpt lat="49.28977" lon="-0.25929">
        <ele>3.190822</ele>
        <time>2022-08-05T10:42:00.000Z</time>
      </trkpt>
      <trkpt lat="49.28976" lon="-0.25924">
        <ele>3.199379</ele>
        <time>2022-08-05T10:42:01.000Z</time>
      </trkpt>
      <trkpt lat="49.28975" lon="-0.25919">
        <ele>3.207149</ele>
        <time>2022-08-05T10:42:02.000Z</time>
      </trkpt>
      <trkpt lat="49.28974" lon="-0.25914">
        <ele>3.215412</ele>
        <time>2022-08-05T10:42:03.000Z</time>
      </trkpt>
      <trkpt lat="49.28973" lon="-0.2591">
        <ele>3.22297</ele>
        <time>2022-08-05T10:42:04.000Z</time>
      </trkpt>
      <trkpt lat="49.28972" lon="-0.25905">
        <ele>3.230794</ele>
        <time>2022-08-05T10:42:05.000Z</time>
      </trkpt>
      <trkpt lat="49.28971" lon="-0.25901">
        <ele>3.239627</ele>
        <time>2022-08-05T10:42:06.000Z</time>
      </trkpt>
      <trkpt lat="49.2897" lon="-0.25897">
        <ele>3.248873</ele>
        <time>2022-08-05T10:42:07.000Z</time>
      </trkpt>
      <trkpt lat="49.28968" lon="-0.25893">
        <ele>3.258275</ele>
        <time>2022-08-05T10:42:08.000Z</time>
      </trkpt>
      <trkpt lat="49.28966" lon="-0.2589">
        <ele>3.267324</ele>
        <time>2022-08-05T10:42:09.000Z</time>
      </trkpt>
      <trkpt lat="49.28965" lon="-0.25887">
        <ele>3.275644</ele>
        <time>2022-08-05T10:42:10.000Z</time>
      </trkpt>
      <trkpt lat="49.28963" lon="-0.25883">
        <ele>3.285145</ele>
        <time>2022-08-05T10:42:11.000Z</time>
      </trkpt>
      <trkpt lat="49.28962" lon="-0.2588">
        <ele>3.294193</ele>
        <time>2022-08-05T10:42:12.000Z</time>
      </trkpt>
      <trkpt lat="49.2896" lon="-0.25877">
        <ele>3.303693</ele>
        <time>2022-08-05T10:42:13.000Z</time>
      </trkpt>
      <trkpt lat="49.28957" lon="-0.25873">
        <ele>3.313971</ele>
        <time>2022-08-05T10:42:14.000Z</time>
      </trkpt>
      <trkpt lat="49.28956" lon="-0.2587">
        <ele>3.322335</ele>
        <time>2022-08-05T10:42:15.000Z</time>
      </trkpt>
      <trkpt lat="49.28954" lon="-0.25867">
        <ele>3.332329</ele>
        <time>2022-08-05T10:42:16.000Z</time>
      </trkpt>
      <trkpt lat="49.28952" lon="-0.25863">
        <ele>3.341554</ele>
        <time>2022-08-05T10:42:17.000Z</time>
      </trkpt>
      <trkpt lat="49.28951" lon="-0.25859">
        <ele>3.351007</ele>
        <time>2022-08-05T10:42:18.000Z</time>
      </trkpt>
      <trkpt lat="49.28949" lon="-0.25856">
        <ele>3.361341</ele>
        <time>2022-08-05T10:42:19.000Z</time>
      </trkpt>
      <trkpt lat="49.28947" lon="-0.25852">
        <ele>3.371504</ele>
        <time>2022-08-05T10:42:20.000Z</time>
      </trkpt>
      <trkpt lat="49.28945" lon="-0.25848">
        <ele>3.381499</ele>
        <time>2022-08-05T10:42:21.000Z</time>
      </trkpt>
      <trkpt lat="49.28944" lon="-0.25844">
        <ele>3.391443</ele>
        <time>2022-08-05T10:42:22.000Z</time>
      </trkpt>
      <trkpt lat="49.28941" lon="-0.25841">
        <ele>3.402319</ele>
        <time>2022-08-05T10:42:23.000Z</time>
      </trkpt>
      <trkpt lat="49.2894" lon="-0.25837">
        <ele>3.412447</ele>
        <time>2022-08-05T10:42:24.000Z</time>
      </trkpt>
      <trkpt lat="49.28938" lon="-0.25833">
        <ele>3.423478</ele>
        <time>2022-08-05T10:42:25.000Z</time>
      </trkpt>
      <trkpt lat="49.28936" lon="-0.25828">
        <ele>3.434163</ele>
        <time>2022-08-05T10:42:26.000Z</time>
      </trkpt>
      <trkpt lat="49.28935" lon="-0.25824">
        <ele>3.445035</ele>
        <time>2022-08-05T10:42:27.000Z</time>
      </trkpt>
      <trkpt lat="49.28933" lon="-0.2582">
        <ele>3.454297</ele>
        <time>2022-08-05T10:42:28.000Z</time>
      </trkpt>
      <trkpt lat="49.28932" lon="-0.25817">
        <ele>3.462831</ele>
        <time>2022-08-05T10:42:29.000Z</time>
      </trkpt>
      <trkpt lat="49.28931" lon="-0.25812">
        <ele>3.474118</ele>
        <time>2022-08-05T10:42:30.000Z</time>
      </trkpt>
      <trkpt lat="49.2893" lon="-0.25807">
        <ele>3.483971</ele>
        <time>2022-08-05T10:42:31.000Z</time>
      </trkpt>
      <trkpt lat="49.2893" lon="-0.25803">
        <ele>3.49325</ele>
        <time>2022-08-05T10:42:32.000Z</time>
      </trkpt>
      <trkpt lat="49.28929" lon="-0.25799">
        <ele>3.50194</ele>
        <time>2022-08-05T10:42:33.000Z</time>
      </trkpt>
      <trkpt lat="49.28928" lon="-0.25795">
        <ele>3.510784</ele>
        <time>2022-08-05T10:42:34.000Z</time>
      </trkpt>
      <trkpt lat="49.28928" lon="-0.25792">
        <ele>3.519013</ele>
        <time>2022-08-05T10:42:35.000Z</time>
      </trkpt>
      <trkpt lat="49.28927" lon="-0.25788">
        <ele>3.52726</ele>
        <time>2022-08-05T10:42:36.000Z</time>
      </trkpt>
      <trkpt lat="49.28926" lon="-0.25785">
        <ele>3.53507</ele>
        <time>2022-08-05T10:42:37.000Z</time>
      </trkpt>
      <trkpt lat="49.28926" lon="-0.25781">
        <ele>3.542689</ele>
        <time>2022-08-05T10:42:38.000Z</time>
      </trkpt>
      <trkpt lat="49.28925" lon="-0.25777">
        <ele>3.550784</ele>
        <time>2022-08-05T10:42:39.000Z</time>
      </trkpt>
      <trkpt lat="49.28925" lon="-0.25774">
        <ele>3.558904</ele>
        <time>2022-08-05T10:42:40.000Z</time>
      </trkpt>
      <trkpt lat="49.28924" lon="-0.25771">
        <ele>3.566095</ele>
        <time>2022-08-05T10:42:41.000Z</time>
      </trkpt>
      <trkpt lat="49.28924" lon="-0.25768">
        <ele>3.572972</ele>
        <time>2022-08-05T10:42:42.000Z</time>
      </trkpt>
      <trkpt lat="49.28923" lon="-0.25765">
        <ele>3.579333</ele>
        <time>2022-08-05T10:42:43.000Z</time>
      </trkpt>
      <trkpt lat="49.28922" lon="-0.25762">
        <ele>3.585603</ele>
        <time>2022-08-05T10:42:44.000Z</time>
      </trkpt>
      <trkpt lat="49.2892" lon="-0.25758">
        <ele>3.596896</ele>
        <time>2022-08-05T10:42:46.000Z</time>
      </trkpt>
      <trkpt lat="49.28917" lon="-0.25756">
        <ele>3.609256</ele>
        <time>2022-08-05T10:42:48.000Z</time>
      </trkpt>
      <trkpt lat="49.28915" lon="-0.25756">
        <ele>3.615635</ele>
        <time>2022-08-05T10:42:49.000Z</time>
      </trkpt>
      <trkpt lat="49.28911" lon="-0.25756">
        <ele>3.626233</ele>
        <time>2022-08-05T10:42:51.000Z</time>
      </trkpt>
      <trkpt lat="49.28909" lon="-0.25757">
        <ele>3.633194</ele>
        <time>2022-08-05T10:42:52.000Z</time>
      </trkpt>
      <trkpt lat="49.28907" lon="-0.25758">
        <ele>3.6418</ele>
        <time>2022-08-05T10:42:53.000Z</time>
      </trkpt>
      <trkpt lat="49.28905" lon="-0.25759">
        <ele>3.649989</ele>
        <time>2022-08-05T10:42:54.000Z</time>
      </trkpt>
      <trkpt lat="49.28902" lon="-0.25761">
        <ele>3.657791</ele>
        <time>2022-08-05T10:42:55.000Z</time>
      </trkpt>
      <trkpt lat="49.289" lon="-0.25762">
        <ele>3.665593</ele>
        <time>2022-08-05T10:42:56.000Z</time>
      </trkpt>
      <trkpt lat="49.28897" lon="-0.25763">
        <ele>3.677699</ele>
        <time>2022-08-05T10:42:58.000Z</time>
      </trkpt>
      <trkpt lat="49.28894" lon="-0.25765">
        <ele>3.687664</ele>
        <time>2022-08-05T10:43:00.000Z</time>
      </trkpt>
      <trkpt lat="49.2889" lon="-0.25766">
        <ele>3.700129</ele>
        <time>2022-08-05T10:43:02.000Z</time>
      </trkpt>
      <trkpt lat="49.28888" lon="-0.25767">
        <ele>3.706508</ele>
        <time>2022-08-05T10:43:03.000Z</time>
      </trkpt>
      <trkpt lat="49.28885" lon="-0.25768">
        <ele>3.71736</ele>
        <time>2022-08-05T10:43:05.000Z</time>
      </trkpt>
      <trkpt lat="49.28883" lon="-0.25769">
        <ele>3.725909</ele>
        <time>2022-08-05T10:43:07.000Z</time>
      </trkpt>
      <trkpt lat="49.2888" lon="-0.2577">
        <ele>3.735028</ele>
        <time>2022-08-05T10:43:09.000Z</time>
      </trkpt>
      <trkpt lat="49.28877" lon="-0.25772">
        <ele>3.745026</ele>
        <time>2022-08-05T10:43:11.000Z</time>
      </trkpt>
      <trkpt lat="49.28874" lon="-0.25773">
        <ele>3.755024</ele>
        <time>2022-08-05T10:43:13.000Z</time>
      </trkpt>
      <trkpt lat="49.28871" lon="-0.25775">
        <ele>3.766379</ele>
        <time>2022-08-05T10:43:15.000Z</time>
      </trkpt>
      <trkpt lat="49.28868" lon="-0.25777">
        <ele>3.7766</ele>
        <time>2022-08-05T10:43:17.000Z</time>
      </trkpt>
      <trkpt lat="49.28866" lon="-0.25778">
        <ele>3.78344</ele>
        <time>2022-08-05T10:43:18.000Z</time>
      </trkpt>
      <trkpt lat="49.28865" lon="-0.25779">
        <ele>3.789646</ele>
        <time>2022-08-05T10:43:19.000Z</time>
      </trkpt>
      <trkpt lat="49.28862" lon="-0.25783">
        <ele>3.801144</ele>
        <time>2022-08-05T10:43:21.000Z</time>
      </trkpt>
      <trkpt lat="49.28859" lon="-0.25785">
        <ele>3.812579</ele>
        <time>2022-08-05T10:43:23.000Z</time>
      </trkpt>
      <trkpt lat="49.28857" lon="-0.25786">
        <ele>3.82069</ele>
        <time>2022-08-05T10:43:25.000Z</time>
      </trkpt>
      <trkpt lat="49.28851" lon="-0.25789">
        <ele>3.835801</ele>
        <time>2022-08-05T10:45:11.000Z</time>
      </trkpt>
      <trkpt lat="49.28849" lon="-0.2579">
        <ele>3.839182</ele>
        <time>2022-08-05T10:45:12.000Z</time>
      </trkpt>
      <trkpt lat="49.28846" lon="-0.25792">
        <ele>3.843006</ele>
        <time>2022-08-05T10:45:13.000Z</time>
      </trkpt>
      <trkpt lat="49.28845" lon="-0.25793">
        <ele>3.845942</ele>
        <time>2022-08-05T10:45:14.000Z</time>
      </trkpt>
      <trkpt lat="49.28843" lon="-0.25795">
        <ele>3.849938</ele>
        <time>2022-08-05T10:45:15.000Z</time>
      </trkpt>
      <trkpt lat="49.2884" lon="-0.25796">
        <ele>3.854079</ele>
        <time>2022-08-05T10:45:17.000Z</time>
      </trkpt>
      <trkpt lat="49.28836" lon="-0.25792">
        <ele>3.863316</ele>
        <time>2022-08-05T10:45:28.000Z</time>
      </trkpt>
      <trkpt lat="49.28835" lon="-0.25789">
        <ele>3.866153</ele>
        <time>2022-08-05T10:45:29.000Z</time>
      </trkpt>
      <trkpt lat="49.28833" lon="-0.25787">
        <ele>3.869501</ele>
        <time>2022-08-05T10:45:30.000Z</time>
      </trkpt>
      <trkpt lat="49.28829" lon="-0.25786">
        <ele>3.875416</ele>
        <time>2022-08-05T10:45:32.000Z</time>
      </trkpt>
      <trkpt lat="49.28827" lon="-0.25788">
        <ele>3.879733</ele>
        <time>2022-08-05T10:45:34.000Z</time>
      </trkpt>
      <trkpt lat="49.28825" lon="-0.25791">
        <ele>3.884842</ele>
        <time>2022-08-05T10:45:36.000Z</time>
      </trkpt>
      <trkpt lat="49.28823" lon="-0.25793">
        <ele>3.888327</ele>
        <time>2022-08-05T10:45:37.000Z</time>
      </trkpt>
      <trkpt lat="49.28821" lon="-0.25796">
        <ele>3.892032</ele>
        <time>2022-08-05T10:45:38.000Z</time>
      </trkpt>
      <trkpt lat="49.2882" lon="-0.25798">
        <ele>3.896093</ele>
        <time>2022-08-05T10:45:39.000Z</time>
      </trkpt>
      <trkpt lat="49.28818" lon="-0.258">
        <ele>3.899156</ele>
        <time>2022-08-05T10:45:40.000Z</time>
      </trkpt>
      <trkpt lat="49.28816" lon="-0.25802">
        <ele>3.903151</ele>
        <time>2022-08-05T10:45:41.000Z</time>
      </trkpt>
      <trkpt lat="49.28814" lon="-0.25804">
        <ele>3.906617</ele>
        <time>2022-08-05T10:45:42.000Z</time>
      </trkpt>
      <trkpt lat="49.28812" lon="-0.25804">
        <ele>3.910898</ele>
        <time>2022-08-05T10:45:43.000Z</time>
      </trkpt>
      <trkpt lat="49.28809" lon="-0.25805">
        <ele>3.91462</ele>
        <time>2022-08-05T10:45:44.000Z</time>
      </trkpt>
      <trkpt lat="49.28807" lon="-0.25806">
        <ele>3.917815</ele>
        <time>2022-08-05T10:45:45.000Z</time>
      </trkpt>
      <trkpt lat="49.28805" lon="-0.25807">
        <ele>3.921618</ele>
        <time>2022-08-05T10:45:46.000Z</time>
      </trkpt>
      <trkpt lat="49.28802" lon="-0.25808">
        <ele>3.926582</ele>
        <time>2022-08-05T10:45:48.000Z</time>
      </trkpt>
      <trkpt lat="49.28799" lon="-0.2581">
        <ele>3.932505</ele>
        <time>2022-08-05T10:45:50.000Z</time>
      </trkpt>
      <trkpt lat="49.28796" lon="-0.25812">
        <ele>3.93694</ele>
        <time>2022-08-05T10:45:52.000Z</time>
      </trkpt>
      <trkpt lat="49.28793" lon="-0.25814">
        <ele>3.942628</ele>
        <time>2022-08-05T10:45:54.000Z</time>
      </trkpt>
      <trkpt lat="49.2879" lon="-0.25815">
        <ele>3.947133</ele>
        <time>2022-08-05T10:45:56.000Z</time>
      </trkpt>
      <trkpt lat="49.28788" lon="-0.25817">
        <ele>3.952034</ele>
        <time>2022-08-05T10:45:58.000Z</time>
      </trkpt>
      <trkpt lat="49.28785" lon="-0.25817">
        <ele>3.955641</ele>
        <time>2022-08-05T10:46:00.000Z</time>
      </trkpt>
      <trkpt lat="49.28784" lon="-0.25818">
        <ele>3.958577</ele>
        <time>2022-08-05T10:46:02.000Z</time>
      </trkpt>
      <trkpt lat="49.28784" lon="-0.25823">
        <ele>3.96302</ele>
        <time>2022-08-05T10:46:05.000Z</time>
      </trkpt>
      <trkpt lat="49.28783" lon="-0.25826">
        <ele>3.967069</ele>
        <time>2022-08-05T10:46:07.000Z</time>
      </trkpt>
      <trkpt lat="49.28781" lon="-0.2583">
        <ele>3.971992</ele>
        <time>2022-08-05T10:46:09.000Z</time>
      </trkpt>
      <trkpt lat="49.28779" lon="-0.25831">
        <ele>3.975684</ele>
        <time>2022-08-05T10:46:10.000Z</time>
      </trkpt>
      <trkpt lat="49.28775" lon="-0.25833">
        <ele>3.982235</ele>
        <time>2022-08-05T10:46:12.000Z</time>
      </trkpt>
      <trkpt lat="49.28773" lon="-0.25833">
        <ele>3.986003</ele>
        <time>2022-08-05T10:46:13.000Z</time>
      </trkpt>
      <trkpt lat="49.28771" lon="-0.25834">
        <ele>3.989696</ele>
        <time>2022-08-05T10:46:14.000Z</time>
      </trkpt>
      <trkpt lat="49.28769" lon="-0.25835">
        <ele>3.993573</ele>
        <time>2022-08-05T10:46:15.000Z</time>
      </trkpt>
      <trkpt lat="49.28766" lon="-0.25837">
        <ele>3.997397</ele>
        <time>2022-08-05T10:46:16.000Z</time>
      </trkpt>
      <trkpt lat="49.28765" lon="-0.25838">
        <ele>4.000771</ele>
        <time>2022-08-05T10:46:17.000Z</time>
      </trkpt>
      <trkpt lat="49.28763" lon="-0.2584">
        <ele>4.003928</ele>
        <time>2022-08-05T10:46:18.000Z</time>
      </trkpt>
      <trkpt lat="49.2876" lon="-0.25841">
        <ele>4.008892</ele>
        <time>2022-08-05T10:46:19.000Z</time>
      </trkpt>
      <trkpt lat="49.28757" lon="-0.25842">
        <ele>4.014134</ele>
        <time>2022-08-05T10:46:21.000Z</time>
      </trkpt>
      <trkpt lat="49.28754" lon="-0.25843">
        <ele>4.019593</ele>
        <time>2022-08-05T10:46:23.000Z</time>
      </trkpt>
      <trkpt lat="49.28751" lon="-0.25844">
        <ele>4.023237</ele>
        <time>2022-08-05T10:46:24.000Z</time>
      </trkpt>
      <trkpt lat="49.28747" lon="-0.25845">
        <ele>4.030186</ele>
        <time>2022-08-05T10:46:26.000Z</time>
      </trkpt>
      <trkpt lat="49.28745" lon="-0.25846">
        <ele>4.033907</ele>
        <time>2022-08-05T10:46:27.000Z</time>
      </trkpt>
      <trkpt lat="49.28742" lon="-0.25848">
        <ele>4.039334</ele>
        <time>2022-08-05T10:46:29.000Z</time>
      </trkpt>
      <trkpt lat="49.2874" lon="-0.25849">
        <ele>4.042817</ele>
        <time>2022-08-05T10:46:30.000Z</time>
      </trkpt>
      <trkpt lat="49.28738" lon="-0.2585">
        <ele>4.046192</ele>
        <time>2022-08-05T10:46:31.000Z</time>
      </trkpt>
      <trkpt lat="49.28735" lon="-0.25852">
        <ele>4.051306</ele>
        <time>2022-08-05T10:46:33.000Z</time>
      </trkpt>
      <trkpt lat="49.28733" lon="-0.25853">
        <ele>4.0546</ele>
        <time>2022-08-05T10:46:34.000Z</time>
      </trkpt>
      <trkpt lat="49.2873" lon="-0.25854">
        <ele>4.059421</ele>
        <time>2022-08-05T10:46:35.000Z</time>
      </trkpt>
      <trkpt lat="49.28727" lon="-0.25856">
        <ele>4.064818</ele>
        <time>2022-08-05T10:46:37.000Z</time>
      </trkpt>
      <trkpt lat="49.28724" lon="-0.25857">
        <ele>4.070187</ele>
        <time>2022-08-05T10:46:39.000Z</time>
      </trkpt>
      <trkpt lat="49.28722" lon="-0.25857">
        <ele>4.073284</ele>
        <time>2022-08-05T10:46:41.000Z</time>
      </trkpt>
      <trkpt lat="49.28719" lon="-0.25857">
        <ele>4.077388</ele>
        <time>2022-08-05T10:46:43.000Z</time>
      </trkpt>
      <trkpt lat="49.28717" lon="-0.25858">
        <ele>4.080769</ele>
        <time>2022-08-05T10:46:44.000Z</time>
      </trkpt>
      <trkpt lat="49.28714" lon="-0.2586">
        <ele>4.086297</ele>
        <time>2022-08-05T10:46:46.000Z</time>
      </trkpt>
      <trkpt lat="49.28711" lon="-0.25862">
        <ele>4.091306</ele>
        <time>2022-08-05T10:46:48.000Z</time>
      </trkpt>
      <trkpt lat="49.28708" lon="-0.25864">
        <ele>4.096911</ele>
        <time>2022-08-05T10:46:50.000Z</time>
      </trkpt>
      <trkpt lat="49.28706" lon="-0.25866">
        <ele>4.100964</ele>
        <time>2022-08-05T10:46:52.000Z</time>
      </trkpt>
      <trkpt lat="49.28704" lon="-0.25867">
        <ele>4.103901</ele>
        <time>2022-08-05T10:46:53.000Z</time>
      </trkpt>
      <trkpt lat="49.28702" lon="-0.25869">
        <ele>4.108336</ele>
        <time>2022-08-05T10:46:55.000Z</time>
      </trkpt>
      <trkpt lat="49.28699" lon="-0.2587">
        <ele>4.113372</ele>
        <time>2022-08-05T10:46:57.000Z</time>
      </trkpt>
      <trkpt lat="49.28697" lon="-0.25871">
        <ele>4.116567</ele>
        <time>2022-08-05T10:46:58.000Z</time>
      </trkpt>
      <trkpt lat="49.28694" lon="-0.25872">
        <ele>4.121467</ele>
        <time>2022-08-05T10:47:00.000Z</time>
      </trkpt>
      <trkpt lat="49.28691" lon="-0.25873">
        <ele>4.110244</ele>
        <time>2022-08-05T10:47:02.000Z</time>
      </trkpt>
      <trkpt lat="49.28688" lon="-0.25875">
        <ele>4.097208</ele>
        <time>2022-08-05T10:47:04.000Z</time>
      </trkpt>
      <trkpt lat="49.28686" lon="-0.25875">
        <ele>4.088934</ele>
        <time>2022-08-05T10:47:05.000Z</time>
      </trkpt>
      <trkpt lat="49.28671" lon="-0.25882">
        <ele>4.023556</ele>
        <time>2022-08-05T10:47:22.000Z</time>
      </trkpt>
      <trkpt lat="49.28669" lon="-0.25884">
        <ele>4.010419</ele>
        <time>2022-08-05T10:47:24.000Z</time>
      </trkpt>
      <trkpt lat="49.28666" lon="-0.25885">
        <ele>3.998755</ele>
        <time>2022-08-05T10:47:26.000Z</time>
      </trkpt>
      <trkpt lat="49.28664" lon="-0.25886">
        <ele>3.99055</ele>
        <time>2022-08-05T10:47:28.000Z</time>
      </trkpt>
      <trkpt lat="49.28662" lon="-0.25887">
        <ele>3.982276</ele>
        <time>2022-08-05T10:47:30.000Z</time>
      </trkpt>
      <trkpt lat="49.2866" lon="-0.25888">
        <ele>3.973841</ele>
        <time>2022-08-05T10:47:32.000Z</time>
      </trkpt>
      <trkpt lat="49.28658" lon="-0.25889">
        <ele>3.965008</ele>
        <time>2022-08-05T10:47:34.000Z</time>
      </trkpt>
      <trkpt lat="49.28656" lon="-0.2589">
        <ele>3.955373</ele>
        <time>2022-08-05T10:47:36.000Z</time>
      </trkpt>
      <trkpt lat="49.28653" lon="-0.25891">
        <ele>3.94389</ele>
        <time>2022-08-05T10:47:38.000Z</time>
      </trkpt>
      <trkpt lat="49.28651" lon="-0.25892">
        <ele>3.933888</ele>
        <time>2022-08-05T10:47:40.000Z</time>
      </trkpt>
      <trkpt lat="49.2865" lon="-0.25894">
        <ele>3.925867</ele>
        <time>2022-08-05T10:47:42.000Z</time>
      </trkpt>
      <trkpt lat="49.28576" lon="-0.25937">
        <ele>3.594752</ele>
        <time>2022-08-05T10:56:52.000Z</time>
      </trkpt>
      <trkpt lat="49.28574" lon="-0.25938">
        <ele>3.586317</ele>
        <time>2022-08-05T10:56:55.000Z</time>
      </trkpt>
      <trkpt lat="49.28572" lon="-0.25939">
        <ele>3.578222</ele>
        <time>2022-08-05T10:56:57.000Z</time>
      </trkpt>
      <trkpt lat="49.2857" lon="-0.2594">
        <ele>3.569543</ele>
        <time>2022-08-05T10:56:59.000Z</time>
      </trkpt>
      <trkpt lat="49.28563" lon="-0.25942">
        <ele>3.536786</ele>
        <time>2022-08-05T10:57:08.000Z</time>
      </trkpt>
      <trkpt lat="49.28561" lon="-0.25943">
        <ele>3.527952</ele>
        <time>2022-08-05T10:57:10.000Z</time>
      </trkpt>
      <trkpt lat="49.28558" lon="-0.25944">
        <ele>3.518317</ele>
        <time>2022-08-05T10:57:12.000Z</time>
      </trkpt>
      <trkpt lat="49.28556" lon="-0.25944">
        <ele>3.506137</ele>
        <time>2022-08-05T10:57:14.000Z</time>
      </trkpt>
      <trkpt lat="49.28552" lon="-0.25945">
        <ele>3.492631</ele>
        <time>2022-08-05T10:57:17.000Z</time>
      </trkpt>
      <trkpt lat="49.28549" lon="-0.25945">
        <ele>3.479194</ele>
        <time>2022-08-05T10:57:19.000Z</time>
      </trkpt>
      <trkpt lat="49.28547" lon="-0.25945">
        <ele>3.46992</ele>
        <time>2022-08-05T10:57:21.000Z</time>
      </trkpt>
      <trkpt lat="49.28545" lon="-0.25946">
        <ele>3.462317</ele>
        <time>2022-08-05T10:57:23.000Z</time>
      </trkpt>
      <trkpt lat="49.28543" lon="-0.25947">
        <ele>3.451822</ele>
        <time>2022-08-05T10:57:26.000Z</time>
      </trkpt>
      <trkpt lat="49.28541" lon="-0.25949">
        <ele>3.44297</ele>
        <time>2022-08-05T10:57:28.000Z</time>
      </trkpt>
      <trkpt lat="49.28533" lon="-0.26001">
        <ele>3.547818</ele>
        <time>2022-08-05T11:00:20.000Z</time>
      </trkpt>
      <trkpt lat="49.28533" lon="-0.26006">
        <ele>3.582995</ele>
        <time>2022-08-05T11:00:22.000Z</time>
      </trkpt>
      <trkpt lat="49.28533" lon="-0.26009">
        <ele>3.603061</ele>
        <time>2022-08-05T11:00:23.000Z</time>
      </trkpt>
      <trkpt lat="49.28533" lon="-0.26012">
        <ele>3.622435</ele>
        <time>2022-08-05T11:00:24.000Z</time>
      </trkpt>
      <trkpt lat="49.28534" lon="-0.26015">
        <ele>3.643183</ele>
        <time>2022-08-05T11:00:25.000Z</time>
      </trkpt>
      <trkpt lat="49.28534" lon="-0.26018">
        <ele>3.6635</ele>
        <time>2022-08-05T11:00:26.000Z</time>
      </trkpt>
      <trkpt lat="49.28535" lon="-0.26023">
        <ele>3.698365</ele>
        <time>2022-08-05T11:00:28.000Z</time>
      </trkpt>
      <trkpt lat="49.28536" lon="-0.26028">
        <ele>3.73559</ele>
        <time>2022-08-05T11:00:30.000Z</time>
      </trkpt>
      <trkpt lat="49.28537" lon="-0.26033">
        <ele>3.772439</ele>
        <time>2022-08-05T11:00:32.000Z</time>
      </trkpt>
      <trkpt lat="49.28538" lon="-0.26035">
        <ele>3.791593</ele>
        <time>2022-08-05T11:00:33.000Z</time>
      </trkpt>
      <trkpt lat="49.28539" lon="-0.2604">
        <ele>3.827779</ele>
        <time>2022-08-05T11:00:35.000Z</time>
      </trkpt>
      <trkpt lat="49.28541" lon="-0.26044">
        <ele>3.858702</ele>
        <time>2022-08-05T11:00:37.000Z</time>
      </trkpt>
      <trkpt lat="49.28541" lon="-0.26047">
        <ele>3.877784</ele>
        <time>2022-08-05T11:00:40.000Z</time>
      </trkpt>
      <trkpt lat="49.28555" lon="-0.26048">
        <ele>4.024249</ele>
        <time>2022-08-05T11:11:19.000Z</time>
      </trkpt>
      <trkpt lat="49.28557" lon="-0.26046">
        <ele>4.047942</ele>
        <time>2022-08-05T11:11:20.000Z</time>
      </trkpt>
      <trkpt lat="49.28559" lon="-0.26044">
        <ele>4.072005</ele>
        <time>2022-08-05T11:11:21.000Z</time>
      </trkpt>
      <trkpt lat="49.28561" lon="-0.26042">
        <ele>4.094675</ele>
        <time>2022-08-05T11:11:22.000Z</time>
      </trkpt>
      <trkpt lat="49.28563" lon="-0.26041">
        <ele>4.11699</ele>
        <time>2022-08-05T11:11:23.000Z</time>
      </trkpt>
      <trkpt lat="49.28566" lon="-0.26039">
        <ele>4.156859</ele>
        <time>2022-08-05T11:11:24.000Z</time>
      </trkpt>
      <trkpt lat="49.28569" lon="-0.26038">
        <ele>4.189324</ele>
        <time>2022-08-05T11:11:25.000Z</time>
      </trkpt>
      <trkpt lat="49.28572" lon="-0.26036">
        <ele>4.22482</ele>
        <time>2022-08-05T11:11:26.000Z</time>
      </trkpt>
      <trkpt lat="49.28574" lon="-0.26035">
        <ele>4.247181</ele>
        <time>2022-08-05T11:11:27.000Z</time>
      </trkpt>
      <trkpt lat="49.28576" lon="-0.26034">
        <ele>4.271728</ele>
        <time>2022-08-05T11:11:28.000Z</time>
      </trkpt>
      <trkpt lat="49.28579" lon="-0.26033">
        <ele>4.2975</ele>
        <time>2022-08-05T11:11:29.000Z</time>
      </trkpt>
      <trkpt lat="49.28581" lon="-0.26032">
        <ele>4.321334</ele>
        <time>2022-08-05T11:11:30.000Z</time>
      </trkpt>
      <trkpt lat="49.28584" lon="-0.26032">
        <ele>4.352166</ele>
        <time>2022-08-05T11:11:31.000Z</time>
      </trkpt>
      <trkpt lat="49.28586" lon="-0.26031">
        <ele>4.375595</ele>
        <time>2022-08-05T11:11:32.000Z</time>
      </trkpt>
      <trkpt lat="49.28588" lon="-0.2603">
        <ele>4.397956</ele>
        <time>2022-08-05T11:11:33.000Z</time>
      </trkpt>
      <trkpt lat="49.28589" lon="-0.26028">
        <ele>4.419014</ele>
        <time>2022-08-05T11:11:34.000Z</time>
      </trkpt>
      <trkpt lat="49.28592" lon="-0.26025">
        <ele>4.453336</ele>
        <time>2022-08-05T11:11:35.000Z</time>
      </trkpt>
      <trkpt lat="49.28595" lon="-0.26024">
        <ele>4.483055</ele>
        <time>2022-08-05T11:11:36.000Z</time>
      </trkpt>
      <trkpt lat="49.28598" lon="-0.26022">
        <ele>4.52244</ele>
        <time>2022-08-05T11:11:37.000Z</time>
      </trkpt>
      <trkpt lat="49.28601" lon="-0.2602">
        <ele>4.552353</ele>
        <time>2022-08-05T11:11:38.000Z</time>
      </trkpt>
      <trkpt lat="49.28604" lon="-0.26018">
        <ele>4.588057</ele>
        <time>2022-08-05T11:11:39.000Z</time>
      </trkpt>
      <trkpt lat="49.28606" lon="-0.26017">
        <ele>4.610839</ele>
        <time>2022-08-05T11:11:40.000Z</time>
      </trkpt>
      <trkpt lat="49.28608" lon="-0.26016">
        <ele>4.635609</ele>
        <time>2022-08-05T11:11:41.000Z</time>
      </trkpt>
      <trkpt lat="49.28611" lon="-0.26014">
        <ele>4.66934</ele>
        <time>2022-08-05T11:11:42.000Z</time>
      </trkpt>
      <trkpt lat="49.28613" lon="-0.26013">
        <ele>4.690884</ele>
        <time>2022-08-05T11:11:43.000Z</time>
      </trkpt>
      <trkpt lat="49.28616" lon="-0.26012">
        <ele>4.722747</ele>
        <time>2022-08-05T11:11:44.000Z</time>
      </trkpt>
      <trkpt lat="49.28618" lon="-0.2601">
        <ele>4.747757</ele>
        <time>2022-08-05T11:11:45.000Z</time>
      </trkpt>
      <trkpt lat="49.28621" lon="-0.26009">
        <ele>4.776192</ele>
        <time>2022-08-05T11:11:46.000Z</time>
      </trkpt>
      <trkpt lat="49.28623" lon="-0.26008">
        <ele>4.804425</ele>
        <time>2022-08-05T11:11:47.000Z</time>
      </trkpt>
      <trkpt lat="49.28626" lon="-0.26006">
        <ele>4.83992</ele>
        <time>2022-08-05T11:11:48.000Z</time>
      </trkpt>
      <trkpt lat="49.28629" lon="-0.26005">
        <ele>4.86528</ele>
        <time>2022-08-05T11:11:49.000Z</time>
      </trkpt>
      <trkpt lat="49.28631" lon="-0.26004">
        <ele>4.897746</ele>
        <time>2022-08-05T11:11:50.000Z</time>
      </trkpt>
      <trkpt lat="49.28635" lon="-0.26002">
        <ele>4.938139</ele>
        <time>2022-08-05T11:11:52.000Z</time>
      </trkpt>
      <trkpt lat="49.28637" lon="-0.26">
        <ele>4.968052</ele>
        <time>2022-08-05T11:11:53.000Z</time>
      </trkpt>
      <trkpt lat="49.28639" lon="-0.25998">
        <ele>4.992309</ele>
        <time>2022-08-05T11:11:54.000Z</time>
      </trkpt>
      <trkpt lat="49.28641" lon="-0.25997">
        <ele>5.01438</ele>
        <time>2022-08-05T11:11:55.000Z</time>
      </trkpt>
      <trkpt lat="49.28645" lon="-0.25994">
        <ele>5.060691</ele>
        <time>2022-08-05T11:11:57.000Z</time>
      </trkpt>
      <trkpt lat="49.28647" lon="-0.25994">
        <ele>5.082187</ele>
        <time>2022-08-05T11:11:58.000Z</time>
      </trkpt>
      <trkpt lat="49.28649" lon="-0.25993">
        <ele>5.103985</ele>
        <time>2022-08-05T11:11:59.000Z</time>
      </trkpt>
      <trkpt lat="49.28651" lon="-0.2599">
        <ele>5.129241</ele>
        <time>2022-08-05T11:12:01.000Z</time>
      </trkpt>
      <trkpt lat="49.28652" lon="-0.25975">
        <ele>5.236535</ele>
        <time>2022-08-05T11:12:15.000Z</time>
      </trkpt>
      <trkpt lat="49.28651" lon="-0.25972">
        <ele>5.258219</ele>
        <time>2022-08-05T11:12:16.000Z</time>
      </trkpt>
      <trkpt lat="49.28651" lon="-0.25968">
        <ele>5.285116</ele>
        <time>2022-08-05T11:12:17.000Z</time>
      </trkpt>
      <trkpt lat="49.28651" lon="-0.25965">
        <ele>5.301495</ele>
        <time>2022-08-05T11:12:18.000Z</time>
      </trkpt>
      <trkpt lat="49.2865" lon="-0.2596">
        <ele>5.326753</ele>
        <time>2022-08-05T11:12:19.000Z</time>
      </trkpt>
      <trkpt lat="49.28649" lon="-0.25956">
        <ele>5.348099</ele>
        <time>2022-08-05T11:12:20.000Z</time>
      </trkpt>
      <trkpt lat="49.28648" lon="-0.25953">
        <ele>5.369966</ele>
        <time>2022-08-05T11:12:21.000Z</time>
      </trkpt>
      <trkpt lat="49.28648" lon="-0.25949">
        <ele>5.389724</ele>
        <time>2022-08-05T11:12:22.000Z</time>
      </trkpt>
      <trkpt lat="49.28647" lon="-0.25946">
        <ele>5.40959</ele>
        <time>2022-08-05T11:12:23.000Z</time>
      </trkpt>
      <trkpt lat="49.28646" lon="-0.25942">
        <ele>5.428864</ele>
        <time>2022-08-05T11:12:24.000Z</time>
      </trkpt>
      <trkpt lat="49.28646" lon="-0.25939">
        <ele>5.447427</ele>
        <time>2022-08-05T11:12:25.000Z</time>
      </trkpt>
      <trkpt lat="49.28648" lon="-0.25933">
        <ele>5.47988</ele>
        <time>2022-08-05T11:12:27.000Z</time>
      </trkpt>
      <trkpt lat="49.28647" lon="-0.25928">
        <ele>5.508433</ele>
        <time>2022-08-05T11:12:29.000Z</time>
      </trkpt>
      <trkpt lat="49.28645" lon="-0.25923">
        <ele>5.53986</ele>
        <time>2022-08-05T11:12:31.000Z</time>
      </trkpt>
      <trkpt lat="49.28644" lon="-0.25919">
        <ele>5.564395</ele>
        <time>2022-08-05T11:12:32.000Z</time>
      </trkpt>
      <trkpt lat="49.28643" lon="-0.25915">
        <ele>5.586385</ele>
        <time>2022-08-05T11:12:33.000Z</time>
      </trkpt>
      <trkpt lat="49.28643" lon="-0.25912">
        <ele>5.605117</ele>
        <time>2022-08-05T11:12:34.000Z</time>
      </trkpt>
      <trkpt lat="49.28642" lon="-0.25909">
        <ele>5.620767</ele>
        <time>2022-08-05T11:12:35.000Z</time>
      </trkpt>
      <trkpt lat="49.28641" lon="-0.25906">
        <ele>5.641308</ele>
        <time>2022-08-05T11:12:37.000Z</time>
      </trkpt>
      <trkpt lat="49.2864" lon="-0.25903">
        <ele>5.658736</ele>
        <time>2022-08-05T11:12:39.000Z</time>
      </trkpt>
      <trkpt lat="49.2864" lon="-0.259">
        <ele>5.67457</ele>
        <time>2022-08-05T11:12:41.000Z</time>
      </trkpt>
      <trkpt lat="49.28642" lon="-0.25898">
        <ele>5.690377</ele>
        <time>2022-08-05T11:12:43.000Z</time>
      </trkpt>
      <trkpt lat="49.28644" lon="-0.25897">
        <ele>5.707022</ele>
        <time>2022-08-05T11:12:45.000Z</time>
      </trkpt>
      <trkpt lat="49.28646" lon="-0.25895">
        <ele>5.730275</ele>
        <time>2022-08-05T11:12:47.000Z</time>
      </trkpt>
      <trkpt lat="49.28648" lon="-0.25894">
        <ele>5.75001</ele>
        <time>2022-08-05T11:12:50.000Z</time>
      </trkpt>
      <trkpt lat="49.2865" lon="-0.25894">
        <ele>5.765951</ele>
        <time>2022-08-05T11:12:51.000Z</time>
      </trkpt>
      <trkpt lat="49.28653" lon="-0.25892">
        <ele>5.790299</ele>
        <time>2022-08-05T11:12:53.000Z</time>
      </trkpt>
      <trkpt lat="49.28655" lon="-0.25891">
        <ele>5.807945</ele>
        <time>2022-08-05T11:12:55.000Z</time>
      </trkpt>
      <trkpt lat="49.28657" lon="-0.2589">
        <ele>5.824081</ele>
        <time>2022-08-05T11:12:56.000Z</time>
      </trkpt>
      <trkpt lat="49.2866" lon="-0.25889">
        <ele>5.849699</ele>
        <time>2022-08-05T11:12:58.000Z</time>
      </trkpt>
      <trkpt lat="49.28661" lon="-0.25888">
        <ele>5.866191</ele>
        <time>2022-08-05T11:12:59.000Z</time>
      </trkpt>
      <trkpt lat="49.28664" lon="-0.25886">
        <ele>5.888324</ele>
        <time>2022-08-05T11:13:01.000Z</time>
      </trkpt>
      <trkpt lat="49.28666" lon="-0.25885">
        <ele>5.905524</ele>
        <time>2022-08-05T11:13:02.000Z</time>
      </trkpt>
      <trkpt lat="49.28668" lon="-0.25883">
        <ele>5.926397</ele>
        <time>2022-08-05T11:13:04.000Z</time>
      </trkpt>
      <trkpt lat="49.2867" lon="-0.25882">
        <ele>5.949125</ele>
        <time>2022-08-05T11:13:06.000Z</time>
      </trkpt>
      <trkpt lat="49.28672" lon="-0.25881">
        <ele>5.96654</ele>
        <time>2022-08-05T11:13:09.000Z</time>
      </trkpt>
      <trkpt lat="49.28677" lon="-0.25878">
        <ele>6.003691</ele>
        <time>2022-08-05T11:13:11.000Z</time>
      </trkpt>
      <trkpt lat="49.28679" lon="-0.25878">
        <ele>6.025068</ele>
        <time>2022-08-05T11:13:12.000Z</time>
      </trkpt>
      <trkpt lat="49.28681" lon="-0.25876">
        <ele>6.045586</ele>
        <time>2022-08-05T11:13:13.000Z</time>
      </trkpt>
      <trkpt lat="49.28684" lon="-0.25875">
        <ele>6.064793</ele>
        <time>2022-08-05T11:13:14.000Z</time>
      </trkpt>
      <trkpt lat="49.28685" lon="-0.25874">
        <ele>6.081607</ele>
        <time>2022-08-05T11:13:15.000Z</time>
      </trkpt>
      <trkpt lat="49.28688" lon="-0.25873">
        <ele>6.105267</ele>
        <time>2022-08-05T11:13:16.000Z</time>
      </trkpt>
      <trkpt lat="49.2869" lon="-0.25871">
        <ele>6.125888</ele>
        <time>2022-08-05T11:13:17.000Z</time>
      </trkpt>
      <trkpt lat="49.28693" lon="-0.2587">
        <ele>6.150552</ele>
        <time>2022-08-05T11:13:18.000Z</time>
      </trkpt>
      <trkpt lat="49.28697" lon="-0.25867">
        <ele>6.189809</ele>
        <time>2022-08-05T11:13:20.000Z</time>
      </trkpt>
      <trkpt lat="49.28699" lon="-0.25866">
        <ele>6.206809</ele>
        <time>2022-08-05T11:13:21.000Z</time>
      </trkpt>
      <trkpt lat="49.28701" lon="-0.25865">
        <ele>6.226016</ele>
        <time>2022-08-05T11:13:22.000Z</time>
      </trkpt>
      <trkpt lat="49.28704" lon="-0.25864">
        <ele>6.245885</ele>
        <time>2022-08-05T11:13:23.000Z</time>
      </trkpt>
      <trkpt lat="49.28706" lon="-0.25863">
        <ele>6.262122</ele>
        <time>2022-08-05T11:13:24.000Z</time>
      </trkpt>
      <trkpt lat="49.28708" lon="-0.25862">
        <ele>6.28206</ele>
        <time>2022-08-05T11:13:25.000Z</time>
      </trkpt>
      <trkpt lat="49.28711" lon="-0.25861">
        <ele>6.30951</ele>
        <time>2022-08-05T11:13:26.000Z</time>
      </trkpt>
      <trkpt lat="49.28714" lon="-0.2586">
        <ele>6.331947</ele>
        <time>2022-08-05T11:13:27.000Z</time>
      </trkpt>
      <trkpt lat="49.28716" lon="-0.25859">
        <ele>6.349147</ele>
        <time>2022-08-05T11:13:28.000Z</time>
      </trkpt>
      <trkpt lat="49.28719" lon="-0.25857">
        <ele>6.379167</ele>
        <time>2022-08-05T11:13:29.000Z</time>
      </trkpt>
      <trkpt lat="49.28721" lon="-0.25856">
        <ele>6.399178</ele>
        <time>2022-08-05T11:13:30.000Z</time>
      </trkpt>
      <trkpt lat="49.28724" lon="-0.25855">
        <ele>6.419331</ele>
        <time>2022-08-05T11:13:31.000Z</time>
      </trkpt>
      <trkpt lat="49.28727" lon="-0.25853">
        <ele>6.447505</ele>
        <time>2022-08-05T11:13:32.000Z</time>
      </trkpt>
      <trkpt lat="49.28729" lon="-0.25852">
        <ele>6.46432</ele>
        <time>2022-08-05T11:13:33.000Z</time>
      </trkpt>
      <trkpt lat="49.28731" lon="-0.2585">
        <ele>6.486188</ele>
        <time>2022-08-05T11:13:34.000Z</time>
      </trkpt>
      <trkpt lat="49.28733" lon="-0.25849">
        <ele>6.509307</ele>
        <time>2022-08-05T11:13:35.000Z</time>
      </trkpt>
      <trkpt lat="49.28735" lon="-0.25848">
        <ele>6.526608</ele>
        <time>2022-08-05T11:13:36.000Z</time>
      </trkpt>
      <trkpt lat="49.28738" lon="-0.25847">
        <ele>6.546153</ele>
        <time>2022-08-05T11:13:37.000Z</time>
      </trkpt>
      <trkpt lat="49.2874" lon="-0.25845">
        <ele>6.570032</ele>
        <time>2022-08-05T11:13:38.000Z</time>
      </trkpt>
      <trkpt lat="49.28742" lon="-0.25844">
        <ele>6.586168</ele>
        <time>2022-08-05T11:13:39.000Z</time>
      </trkpt>
      <trkpt lat="49.28745" lon="-0.25843">
        <ele>6.611617</ele>
        <time>2022-08-05T11:13:40.000Z</time>
      </trkpt>
      <trkpt lat="49.28747" lon="-0.25842">
        <ele>6.628109</ele>
        <time>2022-08-05T11:13:41.000Z</time>
      </trkpt>
      <trkpt lat="49.28749" lon="-0.25841">
        <ele>6.647035</ele>
        <time>2022-08-05T11:13:42.000Z</time>
      </trkpt>
      <trkpt lat="49.28752" lon="-0.2584">
        <ele>6.669472</ele>
        <time>2022-08-05T11:13:43.000Z</time>
      </trkpt>
      <trkpt lat="49.28754" lon="-0.25839">
        <ele>6.689017</ele>
        <time>2022-08-05T11:13:44.000Z</time>
      </trkpt>
      <trkpt lat="49.28757" lon="-0.25838">
        <ele>6.717026</ele>
        <time>2022-08-05T11:13:45.000Z</time>
      </trkpt>
      <trkpt lat="49.28759" lon="-0.25837">
        <ele>6.733841</ele>
        <time>2022-08-05T11:13:46.000Z</time>
      </trkpt>
      <trkpt lat="49.28763" lon="-0.25835">
        <ele>6.765067</ele>
        <time>2022-08-05T11:13:47.000Z</time>
      </trkpt>
      <trkpt lat="49.28765" lon="-0.25834">
        <ele>6.777174</ele>
        <time>2022-08-05T11:13:48.000Z</time>
      </trkpt>
      <trkpt lat="49.28768" lon="-0.25833">
        <ele>6.728247</ele>
        <time>2022-08-05T11:13:49.000Z</time>
      </trkpt>
      <trkpt lat="49.28771" lon="-0.25831">
        <ele>6.683498</ele>
        <time>2022-08-05T11:13:50.000Z</time>
      </trkpt>
      <trkpt lat="49.28773" lon="-0.2583">
        <ele>6.644245</ele>
        <time>2022-08-05T11:13:51.000Z</time>
      </trkpt>
      <trkpt lat="49.28777" lon="-0.25828">
        <ele>6.590563</ele>
        <time>2022-08-05T11:13:52.000Z</time>
      </trkpt>
      <trkpt lat="49.28779" lon="-0.25826">
        <ele>6.548852</ele>
        <time>2022-08-05T11:13:53.000Z</time>
      </trkpt>
      <trkpt lat="49.28783" lon="-0.25824">
        <ele>6.494238</ele>
        <time>2022-08-05T11:13:54.000Z</time>
      </trkpt>
      <trkpt lat="49.28785" lon="-0.25823">
        <ele>6.456905</ele>
        <time>2022-08-05T11:13:55.000Z</time>
      </trkpt>
      <trkpt lat="49.28788" lon="-0.25821">
        <ele>6.412872</ele>
        <time>2022-08-05T11:13:56.000Z</time>
      </trkpt>
      <trkpt lat="49.28791" lon="-0.25819">
        <ele>6.367127</ele>
        <time>2022-08-05T11:13:57.000Z</time>
      </trkpt>
      <trkpt lat="49.28794" lon="-0.25817">
        <ele>6.319388</ele>
        <time>2022-08-05T11:13:58.000Z</time>
      </trkpt>
      <trkpt lat="49.28797" lon="-0.25815">
        <ele>6.269214</ele>
        <time>2022-08-05T11:13:59.000Z</time>
      </trkpt>
      <trkpt lat="49.28799" lon="-0.25814">
        <ele>6.239519</ele>
        <time>2022-08-05T11:14:00.000Z</time>
      </trkpt>
      <trkpt lat="49.28802" lon="-0.25812">
        <ele>6.194769</ele>
        <time>2022-08-05T11:14:01.000Z</time>
      </trkpt>
      <trkpt lat="49.28805" lon="-0.25811">
        <ele>6.141881</ele>
        <time>2022-08-05T11:14:02.000Z</time>
      </trkpt>
      <trkpt lat="49.28808" lon="-0.2581">
        <ele>6.094475</ele>
        <time>2022-08-05T11:14:03.000Z</time>
      </trkpt>
      <trkpt lat="49.28811" lon="-0.25809">
        <ele>6.06019</ele>
        <time>2022-08-05T11:14:04.000Z</time>
      </trkpt>
      <trkpt lat="49.28813" lon="-0.25808">
        <ele>6.021591</ele>
        <time>2022-08-05T11:14:05.000Z</time>
      </trkpt>
      <trkpt lat="49.28816" lon="-0.25807">
        <ele>5.977672</ele>
        <time>2022-08-05T11:14:06.000Z</time>
      </trkpt>
      <trkpt lat="49.2882" lon="-0.25805">
        <ele>5.912463</ele>
        <time>2022-08-05T11:14:08.000Z</time>
      </trkpt>
      <trkpt lat="49.28823" lon="-0.25802">
        <ele>5.86646</ele>
        <time>2022-08-05T11:14:10.000Z</time>
      </trkpt>
      <trkpt lat="49.28826" lon="-0.258">
        <ele>5.823492</ele>
        <time>2022-08-05T11:14:12.000Z</time>
      </trkpt>
      <trkpt lat="49.28828" lon="-0.25799">
        <ele>5.79267</ele>
        <time>2022-08-05T11:14:14.000Z</time>
      </trkpt>
      <trkpt lat="49.28829" lon="-0.25796">
        <ele>5.75858</ele>
        <time>2022-08-05T11:14:16.000Z</time>
      </trkpt>
      <trkpt lat="49.28831" lon="-0.25794">
        <ele>5.717901</ele>
        <time>2022-08-05T11:14:18.000Z</time>
      </trkpt>
      <trkpt lat="49.28834" lon="-0.25793">
        <ele>5.675865</ele>
        <time>2022-08-05T11:14:21.000Z</time>
      </trkpt>
      <trkpt lat="49.28837" lon="-0.25793">
        <ele>5.637743</ele>
        <time>2022-08-05T11:14:23.000Z</time>
      </trkpt>
      <trkpt lat="49.2884" lon="-0.25792">
        <ele>5.590481</ele>
        <time>2022-08-05T11:14:25.000Z</time>
      </trkpt>
      <trkpt lat="49.28842" lon="-0.25791">
        <ele>5.562117</ele>
        <time>2022-08-05T11:14:26.000Z</time>
      </trkpt>
      <trkpt lat="49.28844" lon="-0.25791">
        <ele>5.53393</ele>
        <time>2022-08-05T11:14:27.000Z</time>
      </trkpt>
      <trkpt lat="49.28847" lon="-0.2579">
        <ele>5.481078</ele>
        <time>2022-08-05T11:14:29.000Z</time>
      </trkpt>
      <trkpt lat="49.2885" lon="-0.2579">
        <ele>5.44392</ele>
        <time>2022-08-05T11:14:30.000Z</time>
      </trkpt>
      <trkpt lat="49.28852" lon="-0.25789">
        <ele>5.409955</ele>
        <time>2022-08-05T11:14:31.000Z</time>
      </trkpt>
      <trkpt lat="49.28854" lon="-0.25789">
        <ele>5.382109</ele>
        <time>2022-08-05T11:14:32.000Z</time>
      </trkpt>
      <trkpt lat="49.28857" lon="-0.25789">
        <ele>5.345556</ele>
        <time>2022-08-05T11:14:33.000Z</time>
      </trkpt>
      <trkpt lat="49.28859" lon="-0.25789">
        <ele>5.307242</ele>
        <time>2022-08-05T11:14:34.000Z</time>
      </trkpt>
      <trkpt lat="49.28862" lon="-0.25787">
        <ele>5.266625</ele>
        <time>2022-08-05T11:14:35.000Z</time>
      </trkpt>
      <trkpt lat="49.28864" lon="-0.25785">
        <ele>5.223497</ele>
        <time>2022-08-05T11:14:36.000Z</time>
      </trkpt>
      <trkpt lat="49.28867" lon="-0.25782">
        <ele>5.175918</ele>
        <time>2022-08-05T11:14:37.000Z</time>
      </trkpt>
      <trkpt lat="49.2887" lon="-0.25779">
        <ele>5.124228</ele>
        <time>2022-08-05T11:14:38.000Z</time>
      </trkpt>
      <trkpt lat="49.28872" lon="-0.25776">
        <ele>5.084189</ele>
        <time>2022-08-05T11:14:39.000Z</time>
      </trkpt>
      <trkpt lat="49.28875" lon="-0.25774">
        <ele>5.041657</ele>
        <time>2022-08-05T11:14:40.000Z</time>
      </trkpt>
      <trkpt lat="49.28878" lon="-0.25772">
        <ele>4.991482</ele>
        <time>2022-08-05T11:14:41.000Z</time>
      </trkpt>
      <trkpt lat="49.2888" lon="-0.25771">
        <ele>4.951099</ele>
        <time>2022-08-05T11:14:42.000Z</time>
      </trkpt>
      <trkpt lat="49.28883" lon="-0.25769">
        <ele>4.908567</ele>
        <time>2022-08-05T11:14:43.000Z</time>
      </trkpt>
      <trkpt lat="49.28886" lon="-0.25766">
        <ele>4.861259</ele>
        <time>2022-08-05T11:14:44.000Z</time>
      </trkpt>
      <trkpt lat="49.28888" lon="-0.25764">
        <ele>4.820028</ele>
        <time>2022-08-05T11:14:45.000Z</time>
      </trkpt>
      <trkpt lat="49.28891" lon="-0.25763">
        <ele>4.7831</ele>
        <time>2022-08-05T11:14:46.000Z</time>
      </trkpt>
      <trkpt lat="49.28893" lon="-0.25761">
        <ele>4.738329</ele>
        <time>2022-08-05T11:14:47.000Z</time>
      </trkpt>
      <trkpt lat="49.28896" lon="-0.25759">
        <ele>4.697712</ele>
        <time>2022-08-05T11:14:48.000Z</time>
      </trkpt>
      <trkpt lat="49.28899" lon="-0.25758">
        <ele>4.651967</ele>
        <time>2022-08-05T11:14:49.000Z</time>
      </trkpt>
      <trkpt lat="49.28902" lon="-0.25756">
        <ele>4.606572</ele>
        <time>2022-08-05T11:14:50.000Z</time>
      </trkpt>
      <trkpt lat="49.28904" lon="-0.25754">
        <ele>4.571367</ele>
        <time>2022-08-05T11:14:51.000Z</time>
      </trkpt>
      <trkpt lat="49.28907" lon="-0.25753">
        <ele>4.530404</ele>
        <time>2022-08-05T11:14:52.000Z</time>
      </trkpt>
      <trkpt lat="49.28909" lon="-0.25751">
        <ele>4.495576</ele>
        <time>2022-08-05T11:14:53.000Z</time>
      </trkpt>
      <trkpt lat="49.28911" lon="-0.2575">
        <ele>4.456383</ele>
        <time>2022-08-05T11:14:54.000Z</time>
      </trkpt>
      <trkpt lat="49.28914" lon="-0.2575">
        <ele>4.423324</ele>
        <time>2022-08-05T11:14:55.000Z</time>
      </trkpt>
      <trkpt lat="49.28916" lon="-0.25748">
        <ele>4.389182</ele>
        <time>2022-08-05T11:14:56.000Z</time>
      </trkpt>
      <trkpt lat="49.28919" lon="-0.25746">
        <ele>4.341443</ele>
        <time>2022-08-05T11:14:58.000Z</time>
      </trkpt>
      <trkpt lat="49.28922" lon="-0.25745">
        <ele>4.296693</ele>
        <time>2022-08-05T11:15:00.000Z</time>
      </trkpt>
      <trkpt lat="49.28924" lon="-0.25742">
        <ele>4.261297</ele>
        <time>2022-08-05T11:15:02.000Z</time>
      </trkpt>
      <trkpt lat="49.28923" lon="-0.25739">
        <ele>4.229544</ele>
        <time>2022-08-05T11:15:04.000Z</time>
      </trkpt>
      <trkpt lat="49.28922" lon="-0.2574">
        <ele>4.214191</ele>
        <time>2022-08-05T11:29:29.000Z</time>
      </trkpt>
      <trkpt lat="49.28924" lon="-0.2574">
        <ele>4.184196</ele>
        <time>2022-08-05T11:29:30.000Z</time>
      </trkpt>
      <trkpt lat="49.28927" lon="-0.25739">
        <ele>4.149957</ele>
        <time>2022-08-05T11:29:33.000Z</time>
      </trkpt>
      <trkpt lat="49.2893" lon="-0.2574">
        <ele>4.147863</ele>
        <time>2022-08-05T11:30:49.000Z</time>
      </trkpt>
      <trkpt lat="49.28932" lon="-0.2574">
        <ele>4.146677</ele>
        <time>2022-08-05T11:30:52.000Z</time>
      </trkpt>
      <trkpt lat="49.28932" lon="-0.25734">
        <ele>4.144324</ele>
        <time>2022-08-05T11:33:59.000Z</time>
      </trkpt>
      <trkpt lat="49.2893" lon="-0.25733">
        <ele>4.143055</ele>
        <time>2022-08-05T11:34:00.000Z</time>
      </trkpt>
      <trkpt lat="49.28928" lon="-0.25733">
        <ele>4.141863</ele>
        <time>2022-08-05T11:34:01.000Z</time>
      </trkpt>
      <trkpt lat="49.28916" lon="-0.25748">
        <ele>4.131801</ele>
        <time>2022-08-05T12:05:43.000Z</time>
      </trkpt>
      <trkpt lat="49.28916" lon="-0.25745">
        <ele>4.130439</ele>
        <time>2022-08-05T12:05:45.000Z</time>
      </trkpt>
      <trkpt lat="49.28917" lon="-0.25741">
        <ele>4.128772</ele>
        <time>2022-08-05T12:05:47.000Z</time>
      </trkpt>
      <trkpt lat="49.28917" lon="-0.25738">
        <ele>4.127562</ele>
        <time>2022-08-05T12:05:49.000Z</time>
      </trkpt>
      <trkpt lat="49.28918" lon="-0.25735">
        <ele>4.126208</ele>
        <time>2022-08-05T12:05:51.000Z</time>
      </trkpt>
      <trkpt lat="49.28915" lon="-0.25729">
        <ele>4.123032</ele>
        <time>2022-08-05T12:09:15.000Z</time>
      </trkpt>
      <trkpt lat="49.28914" lon="-0.25725">
        <ele>4.121478</ele>
        <time>2022-08-05T12:09:16.000Z</time>
      </trkpt>
      <trkpt lat="49.28913" lon="-0.25721">
        <ele>4.119665</ele>
        <time>2022-08-05T12:09:17.000Z</time>
      </trkpt>
      <trkpt lat="49.28912" lon="-0.25717">
        <ele>4.117861</ele>
        <time>2022-08-05T12:09:18.000Z</time>
      </trkpt>
      <trkpt lat="49.28911" lon="-0.25712">
        <ele>4.116009</ele>
        <time>2022-08-05T12:09:19.000Z</time>
      </trkpt>
      <trkpt lat="49.2891" lon="-0.25708">
        <ele>4.114012</ele>
        <time>2022-08-05T12:09:20.000Z</time>
      </trkpt>
      <trkpt lat="49.28909" lon="-0.25703">
        <ele>4.112063</ele>
        <time>2022-08-05T12:09:21.000Z</time>
      </trkpt>
      <trkpt lat="49.28907" lon="-0.25698">
        <ele>4.109523</ele>
        <time>2022-08-05T12:09:22.000Z</time>
      </trkpt>
      <trkpt lat="49.28906" lon="-0.25693">
        <ele>4.107464</ele>
        <time>2022-08-05T12:09:23.000Z</time>
      </trkpt>
      <trkpt lat="49.28904" lon="-0.25688">
        <ele>4.105289</ele>
        <time>2022-08-05T12:09:24.000Z</time>
      </trkpt>
      <trkpt lat="49.28903" lon="-0.25683">
        <ele>4.103005</ele>
        <time>2022-08-05T12:09:25.000Z</time>
      </trkpt>
      <trkpt lat="49.28902" lon="-0.25677">
        <ele>4.100718</ele>
        <time>2022-08-05T12:09:26.000Z</time>
      </trkpt>
      <trkpt lat="49.28901" lon="-0.25672">
        <ele>4.098282</ele>
        <time>2022-08-05T12:09:27.000Z</time>
      </trkpt>
      <trkpt lat="49.28899" lon="-0.25665">
        <ele>4.095593</ele>
        <time>2022-08-05T12:09:28.000Z</time>
      </trkpt>
      <trkpt lat="49.28898" lon="-0.25659">
        <ele>4.093055</ele>
        <time>2022-08-05T12:09:29.000Z</time>
      </trkpt>
      <trkpt lat="49.28896" lon="-0.25653">
        <ele>4.090177</ele>
        <time>2022-08-05T12:09:30.000Z</time>
      </trkpt>
      <trkpt lat="49.28895" lon="-0.25646">
        <ele>4.087185</ele>
        <time>2022-08-05T12:09:31.000Z</time>
      </trkpt>
      <trkpt lat="49.28894" lon="-0.2564">
        <ele>4.084976</ele>
        <time>2022-08-05T12:09:32.000Z</time>
      </trkpt>
      <trkpt lat="49.28892" lon="-0.25632">
        <ele>4.08152</ele>
        <time>2022-08-05T12:09:33.000Z</time>
      </trkpt>
      <trkpt lat="49.2889" lon="-0.25626">
        <ele>4.078647</ele>
        <time>2022-08-05T12:09:34.000Z</time>
      </trkpt>
      <trkpt lat="49.28889" lon="-0.2562">
        <ele>4.076287</ele>
        <time>2022-08-05T12:09:35.000Z</time>
      </trkpt>
      <trkpt lat="49.28887" lon="-0.25614">
        <ele>4.073409</ele>
        <time>2022-08-05T12:09:36.000Z</time>
      </trkpt>
      <trkpt lat="49.28886" lon="-0.25607">
        <ele>4.070684</ele>
        <time>2022-08-05T12:09:37.000Z</time>
      </trkpt>
      <trkpt lat="49.28884" lon="-0.25601">
        <ele>4.067957</ele>
        <time>2022-08-05T12:09:38.000Z</time>
      </trkpt>
      <trkpt lat="49.28883" lon="-0.25594">
        <ele>4.065192</ele>
        <time>2022-08-05T12:09:39.000Z</time>
      </trkpt>
      <trkpt lat="49.28882" lon="-0.25588">
        <ele>4.062498</ele>
        <time>2022-08-05T12:09:40.000Z</time>
      </trkpt>
      <trkpt lat="49.2888" lon="-0.25581">
        <ele>4.059756</ele>
        <time>2022-08-05T12:09:41.000Z</time>
      </trkpt>
      <trkpt lat="49.2888" lon="-0.25575">
        <ele>4.057188</ele>
        <time>2022-08-05T12:09:42.000Z</time>
      </trkpt>
      <trkpt lat="49.28879" lon="-0.25569">
        <ele>4.054572</ele>
        <time>2022-08-05T12:09:43.000Z</time>
      </trkpt>
      <trkpt lat="49.28878" lon="-0.25563">
        <ele>4.052164</ele>
        <time>2022-08-05T12:09:44.000Z</time>
      </trkpt>
      <trkpt lat="49.28877" lon="-0.25557">
        <ele>4.049623</ele>
        <time>2022-08-05T12:09:45.000Z</time>
      </trkpt>
      <trkpt lat="49.28875" lon="-0.25552">
        <ele>4.047339</ele>
        <time>2022-08-05T12:09:46.000Z</time>
      </trkpt>
      <trkpt lat="49.28874" lon="-0.25547">
        <ele>4.045152</ele>
        <time>2022-08-05T12:09:47.000Z</time>
      </trkpt>
      <trkpt lat="49.28874" lon="-0.25542">
        <ele>4.043102</ele>
        <time>2022-08-05T12:09:48.000Z</time>
      </trkpt>
      <trkpt lat="49.28872" lon="-0.25536">
        <ele>4.040855</ele>
        <time>2022-08-05T12:09:49.000Z</time>
      </trkpt>
      <trkpt lat="49.28871" lon="-0.25531">
        <ele>4.042757</ele>
        <time>2022-08-05T12:09:50.000Z</time>
      </trkpt>
      <trkpt lat="49.28872" lon="-0.25526">
        <ele>4.063727</ele>
        <time>2022-08-05T12:09:51.000Z</time>
      </trkpt>
      <trkpt lat="49.28873" lon="-0.25521">
        <ele>4.083027</ele>
        <time>2022-08-05T12:09:52.000Z</time>
      </trkpt>
      <trkpt lat="49.28874" lon="-0.25517">
        <ele>4.104042</ele>
        <time>2022-08-05T12:09:53.000Z</time>
      </trkpt>
      <trkpt lat="49.28875" lon="-0.25512">
        <ele>4.124704</ele>
        <time>2022-08-05T12:09:54.000Z</time>
      </trkpt>
      <trkpt lat="49.28876" lon="-0.25506">
        <ele>4.150406</ele>
        <time>2022-08-05T12:09:55.000Z</time>
      </trkpt>
      <trkpt lat="49.28877" lon="-0.255">
        <ele>4.173383</ele>
        <time>2022-08-05T12:09:56.000Z</time>
      </trkpt>
      <trkpt lat="49.28877" lon="-0.25495">
        <ele>4.195936</ele>
        <time>2022-08-05T12:09:57.000Z</time>
      </trkpt>
      <trkpt lat="49.28877" lon="-0.25489">
        <ele>4.220016</ele>
        <time>2022-08-05T12:09:58.000Z</time>
      </trkpt>
      <trkpt lat="49.28878" lon="-0.25483">
        <ele>4.245164</ele>
        <time>2022-08-05T12:09:59.000Z</time>
      </trkpt>
      <trkpt lat="49.2888" lon="-0.25477">
        <ele>4.271364</ele>
        <time>2022-08-05T12:10:00.000Z</time>
      </trkpt>
      <trkpt lat="49.28882" lon="-0.25471">
        <ele>4.298714</ele>
        <time>2022-08-05T12:10:01.000Z</time>
      </trkpt>
      <trkpt lat="49.28884" lon="-0.25466">
        <ele>4.326547</ele>
        <time>2022-08-05T12:10:02.000Z</time>
      </trkpt>
      <trkpt lat="49.28886" lon="-0.25459">
        <ele>4.353887</ele>
        <time>2022-08-05T12:10:03.000Z</time>
      </trkpt>
      <trkpt lat="49.28886" lon="-0.25453">
        <ele>4.381212</ele>
        <time>2022-08-05T12:10:04.000Z</time>
      </trkpt>
      <trkpt lat="49.28886" lon="-0.25446">
        <ele>4.409756</ele>
        <time>2022-08-05T12:10:05.000Z</time>
      </trkpt>
      <trkpt lat="49.28885" lon="-0.25439">
        <ele>4.4396</ele>
        <time>2022-08-05T12:10:06.000Z</time>
      </trkpt>
      <trkpt lat="49.28883" lon="-0.25434">
        <ele>4.462805</ele>
        <time>2022-08-05T12:10:07.000Z</time>
      </trkpt>
      <trkpt lat="49.28882" lon="-0.25426">
        <ele>4.496214</ele>
        <time>2022-08-05T12:10:08.000Z</time>
      </trkpt>
      <trkpt lat="49.2888" lon="-0.2542">
        <ele>4.522794</ele>
        <time>2022-08-05T12:10:09.000Z</time>
      </trkpt>
      <trkpt lat="49.28879" lon="-0.25414">
        <ele>4.547942</ele>
        <time>2022-08-05T12:10:10.000Z</time>
      </trkpt>
      <trkpt lat="49.28878" lon="-0.25408">
        <ele>4.571989</ele>
        <time>2022-08-05T12:10:11.000Z</time>
      </trkpt>
      <trkpt lat="49.28877" lon="-0.25403">
        <ele>4.595977</ele>
        <time>2022-08-05T12:10:12.000Z</time>
      </trkpt>
      <trkpt lat="49.28876" lon="-0.25398">
        <ele>4.618151</ele>
        <time>2022-08-05T12:10:13.000Z</time>
      </trkpt>
      <trkpt lat="49.28875" lon="-0.25392">
        <ele>4.639804</ele>
        <time>2022-08-05T12:10:14.000Z</time>
      </trkpt>
      <trkpt lat="49.28875" lon="-0.25387">
        <ele>4.660393</ele>
        <time>2022-08-05T12:10:15.000Z</time>
      </trkpt>
      <trkpt lat="49.28875" lon="-0.25382">
        <ele>4.681306</ele>
        <time>2022-08-05T12:10:16.000Z</time>
      </trkpt>
      <trkpt lat="49.28875" lon="-0.25377">
        <ele>4.701486</ele>
        <time>2022-08-05T12:10:17.000Z</time>
      </trkpt>
      <trkpt lat="49.28875" lon="-0.25372">
        <ele>4.721989</ele>
        <time>2022-08-05T12:10:18.000Z</time>
      </trkpt>
      <trkpt lat="49.28875" lon="-0.25368">
        <ele>4.740851</ele>
        <time>2022-08-05T12:10:19.000Z</time>
      </trkpt>
      <trkpt lat="49.28876" lon="-0.25363">
        <ele>4.763081</ele>
        <time>2022-08-05T12:10:20.000Z</time>
      </trkpt>
      <trkpt lat="49.28877" lon="-0.25357">
        <ele>4.784487</ele>
        <time>2022-08-05T12:10:21.000Z</time>
      </trkpt>
      <trkpt lat="49.28876" lon="-0.25352">
        <ele>4.805076</ele>
        <time>2022-08-05T12:10:22.000Z</time>
      </trkpt>
      <trkpt lat="49.28875" lon="-0.25348">
        <ele>4.823025</ele>
        <time>2022-08-05T12:10:23.000Z</time>
      </trkpt>
      <trkpt lat="49.28875" lon="-0.25343">
        <ele>4.843527</ele>
        <time>2022-08-05T12:10:24.000Z</time>
      </trkpt>
      <trkpt lat="49.28875" lon="-0.25338">
        <ele>4.864029</ele>
        <time>2022-08-05T12:10:25.000Z</time>
      </trkpt>
      <trkpt lat="49.28875" lon="-0.25333">
        <ele>4.886252</ele>
        <time>2022-08-05T12:10:26.000Z</time>
      </trkpt>
      <trkpt lat="49.28875" lon="-0.25327">
        <ele>4.908883</ele>
        <time>2022-08-05T12:10:27.000Z</time>
      </trkpt>
      <trkpt lat="49.28874" lon="-0.25322">
        <ele>4.930761</ele>
        <time>2022-08-05T12:10:28.000Z</time>
      </trkpt>
      <trkpt lat="49.28874" lon="-0.25317">
        <ele>4.952167</ele>
        <time>2022-08-05T12:10:29.000Z</time>
      </trkpt>
      <trkpt lat="49.28873" lon="-0.25311">
        <ele>4.975418</ele>
        <time>2022-08-05T12:10:30.000Z</time>
      </trkpt>
      <trkpt lat="49.28872" lon="-0.25306">
        <ele>4.998396</ele>
        <time>2022-08-05T12:10:31.000Z</time>
      </trkpt>
      <trkpt lat="49.28872" lon="-0.25301">
        <ele>5.02021</ele>
        <time>2022-08-05T12:10:32.000Z</time>
      </trkpt>
      <trkpt lat="49.28871" lon="-0.25296">
        <ele>5.041522</ele>
        <time>2022-08-05T12:10:33.000Z</time>
      </trkpt>
      <trkpt lat="49.2887" lon="-0.25291">
        <ele>5.06116</ele>
        <time>2022-08-05T12:10:34.000Z</time>
      </trkpt>
      <trkpt lat="49.2887" lon="-0.25287">
        <ele>5.079708</ele>
        <time>2022-08-05T12:10:35.000Z</time>
      </trkpt>
      <trkpt lat="49.28869" lon="-0.25282">
        <ele>5.097881</ele>
        <time>2022-08-05T12:10:36.000Z</time>
      </trkpt>
      <trkpt lat="49.28869" lon="-0.25278">
        <ele>5.116715</ele>
        <time>2022-08-05T12:10:37.000Z</time>
      </trkpt>
      <trkpt lat="49.28868" lon="-0.25273">
        <ele>5.135685</ele>
        <time>2022-08-05T12:10:38.000Z</time>
      </trkpt>
      <trkpt lat="49.28867" lon="-0.25269">
        <ele>5.156381</ele>
        <time>2022-08-05T12:10:39.000Z</time>
      </trkpt>
      <trkpt lat="49.28866" lon="-0.25264">
        <ele>5.168952</ele>
        <time>2022-08-05T12:10:40.000Z</time>
      </trkpt>
      <trkpt lat="49.28864" lon="-0.25258">
        <ele>5.166277</ele>
        <time>2022-08-05T12:10:41.000Z</time>
      </trkpt>
      <trkpt lat="49.28863" lon="-0.25253">
        <ele>5.164043</ele>
        <time>2022-08-05T12:10:42.000Z</time>
      </trkpt>
      <trkpt lat="49.28862" lon="-0.25247">
        <ele>5.161691</ele>
        <time>2022-08-05T12:10:43.000Z</time>
      </trkpt>
      <trkpt lat="49.28861" lon="-0.25242">
        <ele>5.159478</ele>
        <time>2022-08-05T12:10:44.000Z</time>
      </trkpt>
      <trkpt lat="49.28859" lon="-0.25236">
        <ele>5.157062</ele>
        <time>2022-08-05T12:10:45.000Z</time>
      </trkpt>
      <trkpt lat="49.28858" lon="-0.25231">
        <ele>5.154716</ele>
        <time>2022-08-05T12:10:46.000Z</time>
      </trkpt>
      <trkpt lat="49.28856" lon="-0.25225">
        <ele>5.1523</ele>
        <time>2022-08-05T12:10:47.000Z</time>
      </trkpt>
      <trkpt lat="49.28855" lon="-0.25219">
        <ele>5.149878</ele>
        <time>2022-08-05T12:10:48.000Z</time>
      </trkpt>
      <trkpt lat="49.28854" lon="-0.25214">
        <ele>5.147514</ele>
        <time>2022-08-05T12:10:49.000Z</time>
      </trkpt>
      <trkpt lat="49.28853" lon="-0.25208">
        <ele>5.145016</ele>
        <time>2022-08-05T12:10:50.000Z</time>
      </trkpt>
      <trkpt lat="49.28851" lon="-0.25202">
        <ele>5.142556</ele>
        <time>2022-08-05T12:10:51.000Z</time>
      </trkpt>
      <trkpt lat="49.2885" lon="-0.25196">
        <ele>5.14015</ele>
        <time>2022-08-05T12:10:52.000Z</time>
      </trkpt>
      <trkpt lat="49.28848" lon="-0.25191">
        <ele>5.137582</ele>
        <time>2022-08-05T12:10:53.000Z</time>
      </trkpt>
      <trkpt lat="49.28847" lon="-0.25185">
        <ele>5.13524</ele>
        <time>2022-08-05T12:10:54.000Z</time>
      </trkpt>
      <trkpt lat="49.28845" lon="-0.2518">
        <ele>5.132672</ele>
        <time>2022-08-05T12:10:55.000Z</time>
      </trkpt>
      <trkpt lat="49.28843" lon="-0.25175">
        <ele>5.130589</ele>
        <time>2022-08-05T12:10:56.000Z</time>
      </trkpt>
      <trkpt lat="49.28841" lon="-0.25168">
        <ele>5.127548</ele>
        <time>2022-08-05T12:10:57.000Z</time>
      </trkpt>
      <trkpt lat="49.28839" lon="-0.25162">
        <ele>5.124756</ele>
        <time>2022-08-05T12:10:58.000Z</time>
      </trkpt>
      <trkpt lat="49.28837" lon="-0.25156">
        <ele>5.122008</ele>
        <time>2022-08-05T12:10:59.000Z</time>
      </trkpt>
      <trkpt lat="49.28835" lon="-0.2515">
        <ele>5.119317</ele>
        <time>2022-08-05T12:11:00.000Z</time>
      </trkpt>
      <trkpt lat="49.28833" lon="-0.25144">
        <ele>5.116543</ele>
        <time>2022-08-05T12:11:01.000Z</time>
      </trkpt>
      <trkpt lat="49.28831" lon="-0.25139">
        <ele>5.114046</ele>
        <time>2022-08-05T12:11:02.000Z</time>
      </trkpt>
      <trkpt lat="49.28829" lon="-0.25132">
        <ele>5.111116</ele>
        <time>2022-08-05T12:11:03.000Z</time>
      </trkpt>
      <trkpt lat="49.28826" lon="-0.25126">
        <ele>5.108226</ele>
        <time>2022-08-05T12:11:04.000Z</time>
      </trkpt>
      <trkpt lat="49.28824" lon="-0.2512">
        <ele>5.105515</ele>
        <time>2022-08-05T12:11:05.000Z</time>
      </trkpt>
      <trkpt lat="49.28822" lon="-0.25114">
        <ele>5.10284</ele>
        <time>2022-08-05T12:11:06.000Z</time>
      </trkpt>
      <trkpt lat="49.28821" lon="-0.25108">
        <ele>5.1002</ele>
        <time>2022-08-05T12:11:07.000Z</time>
      </trkpt>
      <trkpt lat="49.28819" lon="-0.25102">
        <ele>5.097525</ele>
        <time>2022-08-05T12:11:08.000Z</time>
      </trkpt>
      <trkpt lat="49.28817" lon="-0.25096">
        <ele>5.094964</ele>
        <time>2022-08-05T12:11:09.000Z</time>
      </trkpt>
      <trkpt lat="49.28815" lon="-0.25091">
        <ele>5.092643</ele>
        <time>2022-08-05T12:11:10.000Z</time>
      </trkpt>
      <trkpt lat="49.28813" lon="-0.25086">
        <ele>5.090357</ele>
        <time>2022-08-05T12:11:11.000Z</time>
      </trkpt>
      <trkpt lat="49.28811" lon="-0.25082">
        <ele>5.088194</ele>
        <time>2022-08-05T12:11:12.000Z</time>
      </trkpt>
      <trkpt lat="49.2881" lon="-0.25077">
        <ele>5.086139</ele>
        <time>2022-08-05T12:11:13.000Z</time>
      </trkpt>
      <trkpt lat="49.28808" lon="-0.25073">
        <ele>5.084165</ele>
        <time>2022-08-05T12:11:14.000Z</time>
      </trkpt>
      <trkpt lat="49.28807" lon="-0.25068">
        <ele>5.082214</ele>
        <time>2022-08-05T12:11:15.000Z</time>
      </trkpt>
      <trkpt lat="49.28805" lon="-0.25064">
        <ele>5.080229</ele>
        <time>2022-08-05T12:11:16.000Z</time>
      </trkpt>
      <trkpt lat="49.28803" lon="-0.2506">
        <ele>5.078347</ele>
        <time>2022-08-05T12:11:17.000Z</time>
      </trkpt>
      <trkpt lat="49.28802" lon="-0.25056">
        <ele>5.076628</ele>
        <time>2022-08-05T12:11:18.000Z</time>
      </trkpt>
      <trkpt lat="49.28801" lon="-0.25053">
        <ele>5.074881</ele>
        <time>2022-08-05T12:11:19.000Z</time>
      </trkpt>
      <trkpt lat="49.28799" lon="-0.2505">
        <ele>5.073264</ele>
        <time>2022-08-05T12:11:20.000Z</time>
      </trkpt>
      <trkpt lat="49.28798" lon="-0.25047">
        <ele>5.072082</ele>
        <time>2022-08-05T12:11:21.000Z</time>
      </trkpt>
      <trkpt lat="49.28796" lon="-0.25044">
        <ele>5.070559</ele>
        <time>2022-08-05T12:11:22.000Z</time>
      </trkpt>
      <trkpt lat="49.28795" lon="-0.25042">
        <ele>5.069125</ele>
        <time>2022-08-05T12:11:23.000Z</time>
      </trkpt>
      <trkpt lat="49.28793" lon="-0.2504">
        <ele>5.067803</ele>
        <time>2022-08-05T12:11:24.000Z</time>
      </trkpt>
      <trkpt lat="49.28791" lon="-0.25037">
        <ele>5.06629</ele>
        <time>2022-08-05T12:11:25.000Z</time>
      </trkpt>
      <trkpt lat="49.28789" lon="-0.25035">
        <ele>5.064941</ele>
        <time>2022-08-05T12:11:26.000Z</time>
      </trkpt>
      <trkpt lat="49.28788" lon="-0.25033">
        <ele>5.063619</ele>
        <time>2022-08-05T12:11:27.000Z</time>
      </trkpt>
      <trkpt lat="49.28786" lon="-0.25031">
        <ele>5.062025</ele>
        <time>2022-08-05T12:11:28.000Z</time>
      </trkpt>
      <trkpt lat="49.28783" lon="-0.25029">
        <ele>5.060287</ele>
        <time>2022-08-05T12:11:29.000Z</time>
      </trkpt>
      <trkpt lat="49.2878" lon="-0.25028">
        <ele>5.061052</ele>
        <time>2022-08-05T12:11:30.000Z</time>
      </trkpt>
      <trkpt lat="49.28777" lon="-0.25028">
        <ele>5.066608</ele>
        <time>2022-08-05T12:11:31.000Z</time>
      </trkpt>
      <trkpt lat="49.28773" lon="-0.25029">
        <ele>5.072703</ele>
        <time>2022-08-05T12:11:32.000Z</time>
      </trkpt>
      <trkpt lat="49.2877" lon="-0.2503">
        <ele>5.078847</ele>
        <time>2022-08-05T12:11:33.000Z</time>
      </trkpt>
      <trkpt lat="49.28767" lon="-0.25031">
        <ele>5.083671</ele>
        <time>2022-08-05T12:11:34.000Z</time>
      </trkpt>
      <trkpt lat="49.28765" lon="-0.25033">
        <ele>5.088568</ele>
        <time>2022-08-05T12:11:35.000Z</time>
      </trkpt>
      <trkpt lat="49.28762" lon="-0.25034">
        <ele>5.093784</ele>
        <time>2022-08-05T12:11:36.000Z</time>
      </trkpt>
      <trkpt lat="49.2876" lon="-0.25033">
        <ele>5.097272</ele>
        <time>2022-08-05T12:11:37.000Z</time>
      </trkpt>
      <trkpt lat="49.28758" lon="-0.25031">
        <ele>5.101407</ele>
        <time>2022-08-05T12:11:38.000Z</time>
      </trkpt>
      <trkpt lat="49.28757" lon="-0.25029">
        <ele>5.105028</ele>
        <time>2022-08-05T12:11:39.000Z</time>
      </trkpt>
      <trkpt lat="49.28754" lon="-0.25025">
        <ele>5.111265</ele>
        <time>2022-08-05T12:11:40.000Z</time>
      </trkpt>
      <trkpt lat="49.28752" lon="-0.25022">
        <ele>5.116167</ele>
        <time>2022-08-05T12:11:41.000Z</time>
      </trkpt>
      <trkpt lat="49.2875" lon="-0.25018">
        <ele>5.121068</ele>
        <time>2022-08-05T12:11:42.000Z</time>
      </trkpt>
      <trkpt lat="49.28748" lon="-0.25015">
        <ele>5.126385</ele>
        <time>2022-08-05T12:11:43.000Z</time>
      </trkpt>
      <trkpt lat="49.28746" lon="-0.25012">
        <ele>5.131719</ele>
        <time>2022-08-05T12:11:44.000Z</time>
      </trkpt>
      <trkpt lat="49.28745" lon="-0.25008">
        <ele>5.136579</ele>
        <time>2022-08-05T12:11:45.000Z</time>
      </trkpt>
      <trkpt lat="49.28742" lon="-0.25004">
        <ele>5.143019</ele>
        <time>2022-08-05T12:11:46.000Z</time>
      </trkpt>
      <trkpt lat="49.2874" lon="-0.25">
        <ele>5.148624</ele>
        <time>2022-08-05T12:11:47.000Z</time>
      </trkpt>
      <trkpt lat="49.28738" lon="-0.24995">
        <ele>5.154922</ele>
        <time>2022-08-05T12:11:48.000Z</time>
      </trkpt>
      <trkpt lat="49.28736" lon="-0.24991">
        <ele>5.160899</ele>
        <time>2022-08-05T12:11:49.000Z</time>
      </trkpt>
      <trkpt lat="49.28734" lon="-0.24986">
        <ele>5.167268</ele>
        <time>2022-08-05T12:11:50.000Z</time>
      </trkpt>
      <trkpt lat="49.28732" lon="-0.24982">
        <ele>5.173393</ele>
        <time>2022-08-05T12:11:51.000Z</time>
      </trkpt>
      <trkpt lat="49.28729" lon="-0.24978">
        <ele>5.179495</ele>
        <time>2022-08-05T12:11:52.000Z</time>
      </trkpt>
      <trkpt lat="49.28727" lon="-0.24974">
        <ele>5.185534</ele>
        <time>2022-08-05T12:11:53.000Z</time>
      </trkpt>
      <trkpt lat="49.28725" lon="-0.2497">
        <ele>5.19146</ele>
        <time>2022-08-05T12:11:54.000Z</time>
      </trkpt>
      <trkpt lat="49.28722" lon="-0.24966">
        <ele>5.198019</ele>
        <time>2022-08-05T12:11:55.000Z</time>
      </trkpt>
      <trkpt lat="49.2872" lon="-0.24961">
        <ele>5.204714</ele>
        <time>2022-08-05T12:11:56.000Z</time>
      </trkpt>
      <trkpt lat="49.28717" lon="-0.24957">
        <ele>5.211189</ele>
        <time>2022-08-05T12:11:57.000Z</time>
      </trkpt>
      <trkpt lat="49.28715" lon="-0.24953">
        <ele>5.216944</ele>
        <time>2022-08-05T12:11:58.000Z</time>
      </trkpt>
      <trkpt lat="49.28712" lon="-0.2495">
        <ele>5.223148</ele>
        <time>2022-08-05T12:11:59.000Z</time>
      </trkpt>
      <trkpt lat="49.2871" lon="-0.24948">
        <ele>5.228211</ele>
        <time>2022-08-05T12:12:00.000Z</time>
      </trkpt>
      <trkpt lat="49.28708" lon="-0.24946">
        <ele>5.232645</ele>
        <time>2022-08-05T12:12:01.000Z</time>
      </trkpt>
      <trkpt lat="49.28704" lon="-0.24944">
        <ele>5.238782</ele>
        <time>2022-08-05T12:12:02.000Z</time>
      </trkpt>
      <trkpt lat="49.28702" lon="-0.24942">
        <ele>5.243112</ele>
        <time>2022-08-05T12:12:03.000Z</time>
      </trkpt>
      <trkpt lat="49.287" lon="-0.24939">
        <ele>5.248441</ele>
        <time>2022-08-05T12:12:04.000Z</time>
      </trkpt>
      <trkpt lat="49.28697" lon="-0.24937">
        <ele>5.253196</ele>
        <time>2022-08-05T12:12:05.000Z</time>
      </trkpt>
      <trkpt lat="49.28694" lon="-0.24935">
        <ele>5.258815</ele>
        <time>2022-08-05T12:12:06.000Z</time>
      </trkpt>
      <trkpt lat="49.28692" lon="-0.24933">
        <ele>5.263093</ele>
        <time>2022-08-05T12:12:07.000Z</time>
      </trkpt>
      <trkpt lat="49.28689" lon="-0.24932">
        <ele>5.268209</ele>
        <time>2022-08-05T12:12:08.000Z</time>
      </trkpt>
      <trkpt lat="49.28686" lon="-0.24932">
        <ele>5.273771</ele>
        <time>2022-08-05T12:12:09.000Z</time>
      </trkpt>
      <trkpt lat="49.28683" lon="-0.24932">
        <ele>5.278808</ele>
        <time>2022-08-05T12:12:10.000Z</time>
      </trkpt>
      <trkpt lat="49.2868" lon="-0.24933">
        <ele>5.284457</ele>
        <time>2022-08-05T12:12:11.000Z</time>
      </trkpt>
      <trkpt lat="49.28677" lon="-0.24935">
        <ele>5.289206</ele>
        <time>2022-08-05T12:12:12.000Z</time>
      </trkpt>
      <trkpt lat="49.28674" lon="-0.24936">
        <ele>5.294926</ele>
        <time>2022-08-05T12:12:13.000Z</time>
      </trkpt>
      <trkpt lat="49.28672" lon="-0.24937">
        <ele>5.299413</ele>
        <time>2022-08-05T12:12:14.000Z</time>
      </trkpt>
      <trkpt lat="49.28669" lon="-0.24938">
        <ele>5.304096</ele>
        <time>2022-08-05T12:12:15.000Z</time>
      </trkpt>
      <trkpt lat="49.28666" lon="-0.24939">
        <ele>5.309376</ele>
        <time>2022-08-05T12:12:16.000Z</time>
      </trkpt>
      <trkpt lat="49.28664" lon="-0.24941">
        <ele>5.31408</ele>
        <time>2022-08-05T12:12:17.000Z</time>
      </trkpt>
      <trkpt lat="49.28661" lon="-0.24943">
        <ele>5.319961</ele>
        <time>2022-08-05T12:12:18.000Z</time>
      </trkpt>
      <trkpt lat="49.28658" lon="-0.24944">
        <ele>5.325177</ele>
        <time>2022-08-05T12:12:19.000Z</time>
      </trkpt>
      <trkpt lat="49.28654" lon="-0.24945">
        <ele>5.330871</ele>
        <time>2022-08-05T12:12:20.000Z</time>
      </trkpt>
      <trkpt lat="49.28651" lon="-0.24946">
        <ele>5.33665</ele>
        <time>2022-08-05T12:12:21.000Z</time>
      </trkpt>
      <trkpt lat="49.28648" lon="-0.24947">
        <ele>5.341811</ele>
        <time>2022-08-05T12:12:22.000Z</time>
      </trkpt>
      <trkpt lat="49.28645" lon="-0.24949">
        <ele>5.348153</ele>
        <time>2022-08-05T12:12:23.000Z</time>
      </trkpt>
      <trkpt lat="49.28641" lon="-0.24952">
        <ele>5.355116</ele>
        <time>2022-08-05T12:12:24.000Z</time>
      </trkpt>
      <trkpt lat="49.28638" lon="-0.24954">
        <ele>5.361821</ele>
        <time>2022-08-05T12:12:25.000Z</time>
      </trkpt>
      <trkpt lat="49.28635" lon="-0.24956">
        <ele>5.3676</ele>
        <time>2022-08-05T12:12:26.000Z</time>
      </trkpt>
      <trkpt lat="49.28631" lon="-0.24956">
        <ele>5.371091</ele>
        <time>2022-08-05T12:12:27.000Z</time>
      </trkpt>
      <trkpt lat="49.28627" lon="-0.24957">
        <ele>5.370538</ele>
        <time>2022-08-05T12:12:28.000Z</time>
      </trkpt>
      <trkpt lat="49.28624" lon="-0.24958">
        <ele>5.370071</ele>
        <time>2022-08-05T12:12:29.000Z</time>
      </trkpt>
      <trkpt lat="49.2862" lon="-0.24959">
        <ele>5.369549</ele>
        <time>2022-08-05T12:12:30.000Z</time>
      </trkpt>
      <trkpt lat="49.28616" lon="-0.24961">
        <ele>5.368967</ele>
        <time>2022-08-05T12:12:31.000Z</time>
      </trkpt>
      <trkpt lat="49.28613" lon="-0.24962">
        <ele>5.368445</ele>
        <time>2022-08-05T12:12:32.000Z</time>
      </trkpt>
      <trkpt lat="49.28609" lon="-0.24964">
        <ele>5.367871</ele>
        <time>2022-08-05T12:12:33.000Z</time>
      </trkpt>
      <trkpt lat="49.28605" lon="-0.24966">
        <ele>5.367284</ele>
        <time>2022-08-05T12:12:34.000Z</time>
      </trkpt>
      <trkpt lat="49.28602" lon="-0.24968">
        <ele>5.366789</ele>
        <time>2022-08-05T12:12:35.000Z</time>
      </trkpt>
      <trkpt lat="49.28599" lon="-0.24969">
        <ele>5.366303</ele>
        <time>2022-08-05T12:12:36.000Z</time>
      </trkpt>
      <trkpt lat="49.28596" lon="-0.24971">
        <ele>5.365916</ele>
        <time>2022-08-05T12:12:37.000Z</time>
      </trkpt>
      <trkpt lat="49.28593" lon="-0.24972">
        <ele>5.365433</ele>
        <time>2022-08-05T12:12:38.000Z</time>
      </trkpt>
      <trkpt lat="49.2859" lon="-0.24975">
        <ele>5.364927</ele>
        <time>2022-08-05T12:12:39.000Z</time>
      </trkpt>
      <trkpt lat="49.28586" lon="-0.24976">
        <ele>5.36434</ele>
        <time>2022-08-05T12:12:40.000Z</time>
      </trkpt>
      <trkpt lat="49.28582" lon="-0.24978">
        <ele>5.363734</ele>
        <time>2022-08-05T12:12:41.000Z</time>
      </trkpt>
      <trkpt lat="49.28577" lon="-0.2498">
        <ele>5.363058</ele>
        <time>2022-08-05T12:12:42.000Z</time>
      </trkpt>
      <trkpt lat="49.28573" lon="-0.24982">
        <ele>5.362424</ele>
        <time>2022-08-05T12:12:43.000Z</time>
      </trkpt>
      <trkpt lat="49.28569" lon="-0.24984">
        <ele>5.361794</ele>
        <time>2022-08-05T12:12:44.000Z</time>
      </trkpt>
      <trkpt lat="49.28565" lon="-0.24986">
        <ele>5.361242</ele>
        <time>2022-08-05T12:12:45.000Z</time>
      </trkpt>
      <trkpt lat="49.28561" lon="-0.24989">
        <ele>5.360558</ele>
        <time>2022-08-05T12:12:46.000Z</time>
      </trkpt>
      <trkpt lat="49.28557" lon="-0.24991">
        <ele>5.359882</ele>
        <time>2022-08-05T12:12:47.000Z</time>
      </trkpt>
      <trkpt lat="49.28552" lon="-0.24993">
        <ele>5.359253</ele>
        <time>2022-08-05T12:12:48.000Z</time>
      </trkpt>
      <trkpt lat="49.28548" lon="-0.24994">
        <ele>5.35854</ele>
        <time>2022-08-05T12:12:49.000Z</time>
      </trkpt>
      <trkpt lat="49.28543" lon="-0.24996">
        <ele>5.357867</ele>
        <time>2022-08-05T12:12:50.000Z</time>
      </trkpt>
      <trkpt lat="49.28539" lon="-0.24998">
        <ele>5.357259</ele>
        <time>2022-08-05T12:12:51.000Z</time>
      </trkpt>
      <trkpt lat="49.28534" lon="-0.24999">
        <ele>5.356602</ele>
        <time>2022-08-05T12:12:52.000Z</time>
      </trkpt>
      <trkpt lat="49.2853" lon="-0.25">
        <ele>5.35598</ele>
        <time>2022-08-05T12:12:53.000Z</time>
      </trkpt>
      <trkpt lat="49.28526" lon="-0.25002">
        <ele>5.355374</ele>
        <time>2022-08-05T12:12:54.000Z</time>
      </trkpt>
      <trkpt lat="49.28521" lon="-0.25003">
        <ele>5.354675</ele>
        <time>2022-08-05T12:12:55.000Z</time>
      </trkpt>
      <trkpt lat="49.28517" lon="-0.25004">
        <ele>5.354062</ele>
        <time>2022-08-05T12:12:56.000Z</time>
      </trkpt>
      <trkpt lat="49.28513" lon="-0.25005">
        <ele>5.353458</ele>
        <time>2022-08-05T12:12:57.000Z</time>
      </trkpt>
      <trkpt lat="49.28509" lon="-0.25006">
        <ele>5.352845</ele>
        <time>2022-08-05T12:12:58.000Z</time>
      </trkpt>
      <trkpt lat="49.28506" lon="-0.25007">
        <ele>5.352379</ele>
        <time>2022-08-05T12:12:59.000Z</time>
      </trkpt>
      <trkpt lat="49.28501" lon="-0.25008">
        <ele>5.351723</ele>
        <time>2022-08-05T12:13:00.000Z</time>
      </trkpt>
      <trkpt lat="49.28497" lon="-0.25008">
        <ele>5.351172</ele>
        <time>2022-08-05T12:13:01.000Z</time>
      </trkpt>
      <trkpt lat="49.28494" lon="-0.25009">
        <ele>5.350662</ele>
        <time>2022-08-05T12:13:02.000Z</time>
      </trkpt>
      <trkpt lat="49.28491" lon="-0.2501">
        <ele>5.350237</ele>
        <time>2022-08-05T12:13:03.000Z</time>
      </trkpt>
      <trkpt lat="49.28487" lon="-0.2501">
        <ele>5.34973</ele>
        <time>2022-08-05T12:13:04.000Z</time>
      </trkpt>
      <trkpt lat="49.28485" lon="-0.25011">
        <ele>5.349353</ele>
        <time>2022-08-05T12:13:05.000Z</time>
      </trkpt>
      <trkpt lat="49.28481" lon="-0.25012">
        <ele>5.348797</ele>
        <time>2022-08-05T12:13:06.000Z</time>
      </trkpt>
      <trkpt lat="49.28477" lon="-0.25013">
        <ele>5.34827</ele>
        <time>2022-08-05T12:13:07.000Z</time>
      </trkpt>
      <trkpt lat="49.28474" lon="-0.25013">
        <ele>5.347762</ele>
        <time>2022-08-05T12:13:08.000Z</time>
      </trkpt>
      <trkpt lat="49.28471" lon="-0.25014">
        <ele>5.347399</ele>
        <time>2022-08-05T12:13:09.000Z</time>
      </trkpt>
      <trkpt lat="49.28467" lon="-0.25015">
        <ele>5.346786</ele>
        <time>2022-08-05T12:13:10.000Z</time>
      </trkpt>
      <trkpt lat="49.28463" lon="-0.25015">
        <ele>5.346236</ele>
        <time>2022-08-05T12:13:11.000Z</time>
      </trkpt>
      <trkpt lat="49.2846" lon="-0.25016">
        <ele>5.345714</ele>
        <time>2022-08-05T12:13:12.000Z</time>
      </trkpt>
      <trkpt lat="49.28457" lon="-0.25017">
        <ele>5.349745</ele>
        <time>2022-08-05T12:13:13.000Z</time>
      </trkpt>
      <trkpt lat="49.28453" lon="-0.25018">
        <ele>5.363126</ele>
        <time>2022-08-05T12:13:14.000Z</time>
      </trkpt>
      <trkpt lat="49.2845" lon="-0.25019">
        <ele>5.377363</ele>
        <time>2022-08-05T12:13:15.000Z</time>
      </trkpt>
      <trkpt lat="49.28447" lon="-0.2502">
        <ele>5.389033</ele>
        <time>2022-08-05T12:13:16.000Z</time>
      </trkpt>
      <trkpt lat="49.28445" lon="-0.2502">
        <ele>5.397865</ele>
        <time>2022-08-05T12:13:17.000Z</time>
      </trkpt>
      <trkpt lat="49.28441" lon="-0.25021">
        <ele>5.412102</ele>
        <time>2022-08-05T12:13:18.000Z</time>
      </trkpt>
      <trkpt lat="49.28439" lon="-0.25022">
        <ele>5.422707</ele>
        <time>2022-08-05T12:13:19.000Z</time>
      </trkpt>
      <trkpt lat="49.28436" lon="-0.25023">
        <ele>5.435633</ele>
        <time>2022-08-05T12:13:20.000Z</time>
      </trkpt>
      <trkpt lat="49.28433" lon="-0.25023">
        <ele>5.445795</ele>
        <time>2022-08-05T12:13:21.000Z</time>
      </trkpt>
      <trkpt lat="49.2843" lon="-0.25024">
        <ele>5.457497</ele>
        <time>2022-08-05T12:13:22.000Z</time>
      </trkpt>
      <trkpt lat="49.28428" lon="-0.25025">
        <ele>5.468053</ele>
        <time>2022-08-05T12:13:23.000Z</time>
      </trkpt>
      <trkpt lat="49.28425" lon="-0.25025">
        <ele>5.478216</ele>
        <time>2022-08-05T12:13:24.000Z</time>
      </trkpt>
      <trkpt lat="49.28422" lon="-0.25027">
        <ele>5.490298</ele>
        <time>2022-08-05T12:13:25.000Z</time>
      </trkpt>
      <trkpt lat="49.2842" lon="-0.25028">
        <ele>5.501156</ele>
        <time>2022-08-05T12:13:26.000Z</time>
      </trkpt>
      <trkpt lat="49.28417" lon="-0.25029">
        <ele>5.510198</ele>
        <time>2022-08-05T12:13:27.000Z</time>
      </trkpt>
      <trkpt lat="49.28414" lon="-0.2503">
        <ele>5.523372</ele>
        <time>2022-08-05T12:13:28.000Z</time>
      </trkpt>
      <trkpt lat="49.28411" lon="-0.25031">
        <ele>5.535155</ele>
        <time>2022-08-05T12:13:29.000Z</time>
      </trkpt>
      <trkpt lat="49.28408" lon="-0.25031">
        <ele>5.546825</ele>
        <time>2022-08-05T12:13:30.000Z</time>
      </trkpt>
      <trkpt lat="49.28406" lon="-0.25032">
        <ele>5.55581</ele>
        <time>2022-08-05T12:13:31.000Z</time>
      </trkpt>
      <trkpt lat="49.28402" lon="-0.25033">
        <ele>5.571622</ele>
        <time>2022-08-05T12:13:32.000Z</time>
      </trkpt>
      <trkpt lat="49.28399" lon="-0.25034">
        <ele>5.584682</ele>
        <time>2022-08-05T12:13:33.000Z</time>
      </trkpt>
      <trkpt lat="49.28395" lon="-0.25035">
        <ele>5.60002</ele>
        <time>2022-08-05T12:13:34.000Z</time>
      </trkpt>
      <trkpt lat="49.28391" lon="-0.25036">
        <ele>5.615438</ele>
        <time>2022-08-05T12:13:35.000Z</time>
      </trkpt>
      <trkpt lat="49.28388" lon="-0.25036">
        <ele>5.629984</ele>
        <time>2022-08-05T12:13:36.000Z</time>
      </trkpt>
      <trkpt lat="49.28384" lon="-0.25037">
        <ele>5.64536</ele>
        <time>2022-08-05T12:13:37.000Z</time>
      </trkpt>
      <trkpt lat="49.28381" lon="-0.25037">
        <ele>5.65696</ele>
        <time>2022-08-05T12:13:38.000Z</time>
      </trkpt>
      <trkpt lat="49.28378" lon="-0.25038">
        <ele>5.668569</ele>
        <time>2022-08-05T12:13:39.000Z</time>
      </trkpt>
      <trkpt lat="49.28374" lon="-0.25038">
        <ele>5.683907</ele>
        <time>2022-08-05T12:13:40.000Z</time>
      </trkpt>
      <trkpt lat="49.28371" lon="-0.2504">
        <ele>5.697214</ele>
        <time>2022-08-05T12:13:41.000Z</time>
      </trkpt>
      <trkpt lat="49.28368" lon="-0.25041">
        <ele>5.710274</ele>
        <time>2022-08-05T12:13:42.000Z</time>
      </trkpt>
      <trkpt lat="49.28365" lon="-0.25042">
        <ele>5.724561</ele>
        <time>2022-08-05T12:13:43.000Z</time>
      </trkpt>
      <trkpt lat="49.28362" lon="-0.25044">
        <ele>5.736977</ele>
        <time>2022-08-05T12:13:44.000Z</time>
      </trkpt>
      <trkpt lat="49.28358" lon="-0.25045">
        <ele>5.750215</ele>
        <time>2022-08-05T12:13:45.000Z</time>
      </trkpt>
      <trkpt lat="49.28355" lon="-0.25046">
        <ele>5.765591</ele>
        <time>2022-08-05T12:13:46.000Z</time>
      </trkpt>
      <trkpt lat="49.28352" lon="-0.25046">
        <ele>5.777214</ele>
        <time>2022-08-05T12:13:47.000Z</time>
      </trkpt>
      <trkpt lat="49.28349" lon="-0.25046">
        <ele>5.790021</ele>
        <time>2022-08-05T12:13:48.000Z</time>
      </trkpt>
      <trkpt lat="49.28345" lon="-0.25046">
        <ele>5.805619</ele>
        <time>2022-08-05T12:13:49.000Z</time>
      </trkpt>
      <trkpt lat="49.28342" lon="-0.25047">
        <ele>5.817059</ele>
        <time>2022-08-05T12:13:50.000Z</time>
      </trkpt>
      <trkpt lat="49.28338" lon="-0.25048">
        <ele>5.832733</ele>
        <time>2022-08-05T12:13:51.000Z</time>
      </trkpt>
      <trkpt lat="49.28335" lon="-0.25049">
        <ele>5.845793</ele>
        <time>2022-08-05T12:13:52.000Z</time>
      </trkpt>
      <trkpt lat="49.28332" lon="-0.25051">
        <ele>5.859336</ele>
        <time>2022-08-05T12:13:53.000Z</time>
      </trkpt>
      <trkpt lat="49.28328" lon="-0.25052">
        <ele>5.874018</ele>
        <time>2022-08-05T12:13:54.000Z</time>
      </trkpt>
      <trkpt lat="49.28325" lon="-0.25053">
        <ele>5.888075</ele>
        <time>2022-08-05T12:13:55.000Z</time>
      </trkpt>
      <trkpt lat="49.28321" lon="-0.25053">
        <ele>5.903725</ele>
        <time>2022-08-05T12:13:56.000Z</time>
      </trkpt>
      <trkpt lat="49.28318" lon="-0.25054">
        <ele>5.915114</ele>
        <time>2022-08-05T12:13:57.000Z</time>
      </trkpt>
      <trkpt lat="49.28314" lon="-0.25054">
        <ele>5.930719</ele>
        <time>2022-08-05T12:13:58.000Z</time>
      </trkpt>
      <trkpt lat="49.2831" lon="-0.25055">
        <ele>5.944775</ele>
        <time>2022-08-05T12:13:59.000Z</time>
      </trkpt>
      <trkpt lat="49.28307" lon="-0.25055">
        <ele>5.958832</ele>
        <time>2022-08-05T12:14:00.000Z</time>
      </trkpt>
      <trkpt lat="49.28304" lon="-0.25056">
        <ele>5.971724</ele>
        <time>2022-08-05T12:14:01.000Z</time>
      </trkpt>
      <trkpt lat="49.28301" lon="-0.25056">
        <ele>5.984563</ele>
        <time>2022-08-05T12:14:02.000Z</time>
      </trkpt>
      <trkpt lat="49.28297" lon="-0.25056">
        <ele>5.997362</ele>
        <time>2022-08-05T12:14:03.000Z</time>
      </trkpt>
      <trkpt lat="49.28294" lon="-0.25057">
        <ele>6.010201</ele>
        <time>2022-08-05T12:14:04.000Z</time>
      </trkpt>
      <trkpt lat="49.28291" lon="-0.25056">
        <ele>6.023064</ele>
        <time>2022-08-05T12:14:05.000Z</time>
      </trkpt>
      <trkpt lat="49.28288" lon="-0.25056">
        <ele>6.03466</ele>
        <time>2022-08-05T12:14:06.000Z</time>
      </trkpt>
      <trkpt lat="49.28285" lon="-0.25055">
        <ele>6.046492</ele>
        <time>2022-08-05T12:14:07.000Z</time>
      </trkpt>
      <trkpt lat="49.28282" lon="-0.25055">
        <ele>6.058275</ele>
        <time>2022-08-05T12:14:08.000Z</time>
      </trkpt>
      <trkpt lat="49.2828" lon="-0.25053">
        <ele>6.060572</ele>
        <time>2022-08-05T12:14:09.000Z</time>
      </trkpt>
      <trkpt lat="49.28279" lon="-0.25052">
        <ele>6.044776</ele>
        <time>2022-08-05T12:14:10.000Z</time>
      </trkpt>
      <trkpt lat="49.28277" lon="-0.25049">
        <ele>6.020338</ele>
        <time>2022-08-05T12:14:11.000Z</time>
      </trkpt>
      <trkpt lat="49.28275" lon="-0.25047">
        <ele>6.004248</ele>
        <time>2022-08-05T12:14:12.000Z</time>
      </trkpt>
      <trkpt lat="49.28273" lon="-0.25046">
        <ele>5.986248</ele>
        <time>2022-08-05T12:14:13.000Z</time>
      </trkpt>
      <trkpt lat="49.28271" lon="-0.25044">
        <ele>5.970452</ele>
        <time>2022-08-05T12:14:14.000Z</time>
      </trkpt>
      <trkpt lat="49.28269" lon="-0.25041">
        <ele>5.944292</ele>
        <time>2022-08-05T12:14:16.000Z</time>
      </trkpt>
      <trkpt lat="49.28269" lon="-0.25037">
        <ele>5.919568</ele>
        <time>2022-08-05T12:14:18.000Z</time>
      </trkpt>
      <trkpt lat="49.2827" lon="-0.25034">
        <ele>5.904382</ele>
        <time>2022-08-05T12:14:19.000Z</time>
      </trkpt>
      <trkpt lat="49.28271" lon="-0.2503">
        <ele>5.87884</ele>
        <time>2022-08-05T12:14:21.000Z</time>
      </trkpt>
      <trkpt lat="49.28273" lon="-0.25028">
        <ele>5.862659</ele>
        <time>2022-08-05T12:14:22.000Z</time>
      </trkpt>
      <trkpt lat="49.28273" lon="-0.25022">
        <ele>5.829712</ele>
        <time>2022-08-05T12:14:24.000Z</time>
      </trkpt>
      <trkpt lat="49.28273" lon="-0.25019">
        <ele>5.813036</ele>
        <time>2022-08-05T12:14:25.000Z</time>
      </trkpt>
      <trkpt lat="49.28272" lon="-0.25016">
        <ele>5.794036</ele>
        <time>2022-08-05T12:14:26.000Z</time>
      </trkpt>
      <trkpt lat="49.28271" lon="-0.25013">
        <ele>5.773324</ele>
        <time>2022-08-05T12:14:27.000Z</time>
      </trkpt>
      <trkpt lat="49.28269" lon="-0.25009">
        <ele>5.750234</ele>
        <time>2022-08-05T12:14:28.000Z</time>
      </trkpt>
      <trkpt lat="49.28268" lon="-0.25005">
        <ele>5.723048</ele>
        <time>2022-08-05T12:14:29.000Z</time>
      </trkpt>
      <trkpt lat="49.28266" lon="-0.25001">
        <ele>5.698199</ele>
        <time>2022-08-05T12:14:30.000Z</time>
      </trkpt>
      <trkpt lat="49.28264" lon="-0.24997">
        <ele>5.671477</ele>
        <time>2022-08-05T12:14:31.000Z</time>
      </trkpt>
      <trkpt lat="49.28263" lon="-0.24992">
        <ele>5.641861</ele>
        <time>2022-08-05T12:14:32.000Z</time>
      </trkpt>
      <trkpt lat="49.28261" lon="-0.24987">
        <ele>5.611263</ele>
        <time>2022-08-05T12:14:33.000Z</time>
      </trkpt>
      <trkpt lat="49.2826" lon="-0.24982">
        <ele>5.579177</ele>
        <time>2022-08-05T12:14:34.000Z</time>
      </trkpt>
      <trkpt lat="49.28258" lon="-0.24976">
        <ele>5.547552</ele>
        <time>2022-08-05T12:14:35.000Z</time>
      </trkpt>
      <trkpt lat="49.28256" lon="-0.24971">
        <ele>5.513358</ele>
        <time>2022-08-05T12:14:36.000Z</time>
      </trkpt>
      <trkpt lat="49.28254" lon="-0.24966">
        <ele>5.480132</ele>
        <time>2022-08-05T12:14:37.000Z</time>
      </trkpt>
      <trkpt lat="49.28252" lon="-0.2496">
        <ele>5.446079</ele>
        <time>2022-08-05T12:14:38.000Z</time>
      </trkpt>
      <trkpt lat="49.2825" lon="-0.24955">
        <ele>5.410517</ele>
        <time>2022-08-05T12:14:39.000Z</time>
      </trkpt>
      <trkpt lat="49.28247" lon="-0.24951">
        <ele>5.379879</ele>
        <time>2022-08-05T12:14:40.000Z</time>
      </trkpt>
      <trkpt lat="49.28245" lon="-0.24949">
        <ele>5.355322</ele>
        <time>2022-08-05T12:14:41.000Z</time>
      </trkpt>
      <trkpt lat="49.28243" lon="-0.24948">
        <ele>5.338727</ele>
        <time>2022-08-05T12:14:42.000Z</time>
      </trkpt>
      <trkpt lat="49.2824" lon="-0.24948">
        <ele>5.318977</ele>
        <time>2022-08-05T12:14:43.000Z</time>
      </trkpt>
      <trkpt lat="49.28237" lon="-0.24946">
        <ele>5.291095</ele>
        <time>2022-08-05T12:14:45.000Z</time>
      </trkpt>
      <trkpt lat="49.28235" lon="-0.24943">
        <ele>5.266657</ele>
        <time>2022-08-05T12:14:47.000Z</time>
      </trkpt>
      <trkpt lat="49.28233" lon="-0.24938">
        <ele>5.236059</ele>
        <time>2022-08-05T12:14:49.000Z</time>
      </trkpt>
      <trkpt lat="49.28233" lon="-0.24936">
        <ele>5.219584</ele>
        <time>2022-08-05T12:14:50.000Z</time>
      </trkpt>
      <trkpt lat="49.28232" lon="-0.24933">
        <ele>5.202925</ele>
        <time>2022-08-05T12:14:51.000Z</time>
      </trkpt>
      <trkpt lat="49.28231" lon="-0.2493">
        <ele>5.186342</ele>
        <time>2022-08-05T12:14:52.000Z</time>
      </trkpt>
      <trkpt lat="49.28229" lon="-0.24929">
        <ele>5.170546</ele>
        <time>2022-08-05T12:14:53.000Z</time>
      </trkpt>
      <trkpt lat="49.28227" lon="-0.24929">
        <ele>5.151984</ele>
        <time>2022-08-05T12:14:54.000Z</time>
      </trkpt>
      <trkpt lat="49.28224" lon="-0.24929">
        <ele>5.12975</ele>
        <time>2022-08-05T12:14:55.000Z</time>
      </trkpt>
      <trkpt lat="49.28222" lon="-0.24931">
        <ele>5.107139</ele>
        <time>2022-08-05T12:14:56.000Z</time>
      </trkpt>
      <trkpt lat="49.28219" lon="-0.24932">
        <ele>5.08118</ele>
        <time>2022-08-05T12:14:57.000Z</time>
      </trkpt>
      <trkpt lat="49.28215" lon="-0.24934">
        <ele>5.050257</ele>
        <time>2022-08-05T12:14:58.000Z</time>
      </trkpt>
      <trkpt lat="49.28213" lon="-0.24935">
        <ele>5.024809</ele>
        <time>2022-08-05T12:14:59.000Z</time>
      </trkpt>
      <trkpt lat="49.2821" lon="-0.24937">
        <ele>4.99951</ele>
        <time>2022-08-05T12:15:00.000Z</time>
      </trkpt>
      <trkpt lat="49.28206" lon="-0.24938">
        <ele>4.971628</ele>
        <time>2022-08-05T12:15:01.000Z</time>
      </trkpt>
      <trkpt lat="49.28203" lon="-0.24939">
        <ele>4.9436</ele>
        <time>2022-08-05T12:15:02.000Z</time>
      </trkpt>
      <trkpt lat="49.282" lon="-0.24941">
        <ele>4.915718</ele>
        <time>2022-08-05T12:15:03.000Z</time>
      </trkpt>
      <trkpt lat="49.28197" lon="-0.24942">
        <ele>4.891911</ele>
        <time>2022-08-05T12:15:04.000Z</time>
      </trkpt>
      <trkpt lat="49.28195" lon="-0.24943">
        <ele>4.872421</ele>
        <time>2022-08-05T12:15:05.000Z</time>
      </trkpt>
      <trkpt lat="49.28193" lon="-0.24945">
        <ele>4.849211</ele>
        <time>2022-08-05T12:15:06.000Z</time>
      </trkpt>
      <trkpt lat="49.2819" lon="-0.24946">
        <ele>4.82457</ele>
        <time>2022-08-05T12:15:07.000Z</time>
      </trkpt>
      <trkpt lat="49.28187" lon="-0.24948">
        <ele>4.801172</ele>
        <time>2022-08-05T12:15:08.000Z</time>
      </trkpt>
      <trkpt lat="49.28185" lon="-0.24949">
        <ele>4.778138</ele>
        <time>2022-08-05T12:15:09.000Z</time>
      </trkpt>
      <trkpt lat="49.28182" lon="-0.2495">
        <ele>4.753651</ele>
        <time>2022-08-05T12:15:10.000Z</time>
      </trkpt>
      <trkpt lat="49.28179" lon="-0.24951">
        <ele>4.730782</ele>
        <time>2022-08-05T12:15:11.000Z</time>
      </trkpt>
      <trkpt lat="49.28177" lon="-0.24952">
        <ele>4.711455</ele>
        <time>2022-08-05T12:15:12.000Z</time>
      </trkpt>
      <trkpt lat="49.28174" lon="-0.24953">
        <ele>4.686294</ele>
        <time>2022-08-05T12:15:13.000Z</time>
      </trkpt>
      <trkpt lat="49.28172" lon="-0.24954">
        <ele>4.666301</ele>
        <time>2022-08-05T12:15:14.000Z</time>
      </trkpt>
      <trkpt lat="49.28169" lon="-0.24955">
        <ele>4.644988</ele>
        <time>2022-08-05T12:15:15.000Z</time>
      </trkpt>
      <trkpt lat="49.28167" lon="-0.24956">
        <ele>4.624995</ele>
        <time>2022-08-05T12:15:16.000Z</time>
      </trkpt>
      <trkpt lat="49.28164" lon="-0.24956">
        <ele>4.601253</ele>
        <time>2022-08-05T12:15:17.000Z</time>
      </trkpt>
      <trkpt lat="49.28161" lon="-0.24957">
        <ele>4.576091</ele>
        <time>2022-08-05T12:15:18.000Z</time>
      </trkpt>
      <trkpt lat="49.28158" lon="-0.24959">
        <ele>4.549407</ele>
        <time>2022-08-05T12:15:19.000Z</time>
      </trkpt>
      <trkpt lat="49.28156" lon="-0.2496">
        <ele>4.54466</ele>
        <time>2022-08-05T12:15:20.000Z</time>
      </trkpt>
      <trkpt lat="49.28152" lon="-0.24961">
        <ele>4.538914</ele>
        <time>2022-08-05T12:15:21.000Z</time>
      </trkpt>
      <trkpt lat="49.2815" lon="-0.24962">
        <ele>4.53423</ele>
        <time>2022-08-05T12:15:22.000Z</time>
      </trkpt>
      <trkpt lat="49.28147" lon="-0.24963">
        <ele>4.528973</ele>
        <time>2022-08-05T12:15:23.000Z</time>
      </trkpt>
      <trkpt lat="49.28144" lon="-0.24965">
        <ele>4.523623</ele>
        <time>2022-08-05T12:15:24.000Z</time>
      </trkpt>
      <trkpt lat="49.28141" lon="-0.24966">
        <ele>4.518811</ele>
        <time>2022-08-05T12:15:25.000Z</time>
      </trkpt>
      <trkpt lat="49.28139" lon="-0.24967">
        <ele>4.514201</ele>
        <time>2022-08-05T12:15:26.000Z</time>
      </trkpt>
      <trkpt lat="49.28136" lon="-0.24968">
        <ele>4.509016</ele>
        <time>2022-08-05T12:15:27.000Z</time>
      </trkpt>
      <trkpt lat="49.28134" lon="-0.24968">
        <ele>4.505138</ele>
        <time>2022-08-05T12:15:28.000Z</time>
      </trkpt>
      <trkpt lat="49.28131" lon="-0.24969">
        <ele>4.500003</ele>
        <time>2022-08-05T12:15:29.000Z</time>
      </trkpt>
      <trkpt lat="49.28128" lon="-0.24969">
        <ele>4.49433</ele>
        <time>2022-08-05T12:15:30.000Z</time>
      </trkpt>
      <trkpt lat="49.28124" lon="-0.24971">
        <ele>4.488019</ele>
        <time>2022-08-05T12:15:31.000Z</time>
      </trkpt>
      <trkpt lat="49.28121" lon="-0.24972">
        <ele>4.482702</ele>
        <time>2022-08-05T12:15:32.000Z</time>
      </trkpt>
      <trkpt lat="49.28118" lon="-0.24973">
        <ele>4.476438</ele>
        <time>2022-08-05T12:15:33.000Z</time>
      </trkpt>
      <trkpt lat="49.28114" lon="-0.24973">
        <ele>4.470099</ele>
        <time>2022-08-05T12:15:34.000Z</time>
      </trkpt>
      <trkpt lat="49.2811" lon="-0.24972">
        <ele>4.463314</ele>
        <time>2022-08-05T12:15:35.000Z</time>
      </trkpt>
      <trkpt lat="49.28108" lon="-0.24971">
        <ele>4.458597</ele>
        <time>2022-08-05T12:15:36.000Z</time>
      </trkpt>
      <trkpt lat="49.28104" lon="-0.2497">
        <ele>4.452332</ele>
        <time>2022-08-05T12:15:37.000Z</time>
      </trkpt>
      <trkpt lat="49.28101" lon="-0.24968">
        <ele>4.446869</ele>
        <time>2022-08-05T12:15:38.000Z</time>
      </trkpt>
      <trkpt lat="49.28098" lon="-0.24967">
        <ele>4.440442</ele>
        <time>2022-08-05T12:15:39.000Z</time>
      </trkpt>
      <trkpt lat="49.28094" lon="-0.24965">
        <ele>4.433982</ele>
        <time>2022-08-05T12:15:40.000Z</time>
      </trkpt>
      <trkpt lat="49.28091" lon="-0.24963">
        <ele>4.427016</ele>
        <time>2022-08-05T12:15:41.000Z</time>
      </trkpt>
      <trkpt lat="49.28087" lon="-0.24962">
        <ele>4.420058</ele>
        <time>2022-08-05T12:15:42.000Z</time>
      </trkpt>
      <trkpt lat="49.28083" lon="-0.24962">
        <ele>4.41337</ele>
        <time>2022-08-05T12:15:43.000Z</time>
      </trkpt>
      <trkpt lat="49.28079" lon="-0.24963">
        <ele>4.407202</ele>
        <time>2022-08-05T12:15:44.000Z</time>
      </trkpt>
      <trkpt lat="49.28076" lon="-0.24963">
        <ele>4.400801</ele>
        <time>2022-08-05T12:15:45.000Z</time>
      </trkpt>
      <trkpt lat="49.28072" lon="-0.24964">
        <ele>4.394556</ele>
        <time>2022-08-05T12:15:46.000Z</time>
      </trkpt>
      <trkpt lat="49.28069" lon="-0.24965">
        <ele>4.387807</ele>
        <time>2022-08-05T12:15:47.000Z</time>
      </trkpt>
      <trkpt lat="49.28064" lon="-0.24966">
        <ele>4.380372</ele>
        <time>2022-08-05T12:15:48.000Z</time>
      </trkpt>
      <trkpt lat="49.2806" lon="-0.24966">
        <ele>4.373135</ele>
        <time>2022-08-05T12:15:49.000Z</time>
      </trkpt>
      <trkpt lat="49.28056" lon="-0.24967">
        <ele>4.366248</ele>
        <time>2022-08-05T12:15:50.000Z</time>
      </trkpt>
      <trkpt lat="49.28053" lon="-0.24967">
        <ele>4.359561</ele>
        <time>2022-08-05T12:15:51.000Z</time>
      </trkpt>
      <trkpt lat="49.28049" lon="-0.24967">
        <ele>4.352698</ele>
        <time>2022-08-05T12:15:52.000Z</time>
      </trkpt>
      <trkpt lat="49.28045" lon="-0.24967">
        <ele>4.34601</ele>
        <time>2022-08-05T12:15:53.000Z</time>
      </trkpt>
      <trkpt lat="49.28042" lon="-0.24967">
        <ele>4.340379</ele>
        <time>2022-08-05T12:15:54.000Z</time>
      </trkpt>
      <trkpt lat="49.28038" lon="-0.24967">
        <ele>4.334216</ele>
        <time>2022-08-05T12:15:55.000Z</time>
      </trkpt>
      <trkpt lat="49.28034" lon="-0.24966">
        <ele>4.327345</ele>
        <time>2022-08-05T12:15:56.000Z</time>
      </trkpt>
      <trkpt lat="49.28031" lon="-0.24966">
        <ele>4.321134</ele>
        <time>2022-08-05T12:15:57.000Z</time>
      </trkpt>
      <trkpt lat="49.28027" lon="-0.24964">
        <ele>4.314307</ele>
        <time>2022-08-05T12:15:58.000Z</time>
      </trkpt>
      <trkpt lat="49.28023" lon="-0.24964">
        <ele>4.30741</ele>
        <time>2022-08-05T12:15:59.000Z</time>
      </trkpt>
      <trkpt lat="49.28019" lon="-0.24964">
        <ele>4.300723</ele>
        <time>2022-08-05T12:16:00.000Z</time>
      </trkpt>
      <trkpt lat="49.28016" lon="-0.24964">
        <ele>4.295082</ele>
        <time>2022-08-05T12:16:01.000Z</time>
      </trkpt>
      <trkpt lat="49.28013" lon="-0.24965">
        <ele>4.288871</ele>
        <time>2022-08-05T12:16:02.000Z</time>
      </trkpt>
      <trkpt lat="49.28009" lon="-0.24966">
        <ele>4.282644</ele>
        <time>2022-08-05T12:16:03.000Z</time>
      </trkpt>
      <trkpt lat="49.28006" lon="-0.24967">
        <ele>4.277413</ele>
        <time>2022-08-05T12:16:04.000Z</time>
      </trkpt>
      <trkpt lat="49.28002" lon="-0.24968">
        <ele>4.27039</ele>
        <time>2022-08-05T12:16:05.000Z</time>
      </trkpt>
      <trkpt lat="49.27999" lon="-0.24969">
        <ele>4.264125</ele>
        <time>2022-08-05T12:16:06.000Z</time>
      </trkpt>
      <trkpt lat="49.27996" lon="-0.2497">
        <ele>4.25884</ele>
        <time>2022-08-05T12:16:07.000Z</time>
      </trkpt>
      <trkpt lat="49.27992" lon="-0.24971">
        <ele>4.252575</ele>
        <time>2022-08-05T12:16:08.000Z</time>
      </trkpt>
      <trkpt lat="49.27989" lon="-0.24972">
        <ele>4.24631</ele>
        <time>2022-08-05T12:16:09.000Z</time>
      </trkpt>
      <trkpt lat="49.27985" lon="-0.24973">
        <ele>4.240045</ele>
        <time>2022-08-05T12:16:10.000Z</time>
      </trkpt>
      <trkpt lat="49.27982" lon="-0.24974">
        <ele>4.234357</ele>
        <time>2022-08-05T12:16:11.000Z</time>
      </trkpt>
      <trkpt lat="49.27979" lon="-0.24974">
        <ele>4.236203</ele>
        <time>2022-08-05T12:16:12.000Z</time>
      </trkpt>
      <trkpt lat="49.27975" lon="-0.24975">
        <ele>4.240203</ele>
        <time>2022-08-05T12:16:13.000Z</time>
      </trkpt>
      <trkpt lat="49.27971" lon="-0.24976">
        <ele>4.243792</ele>
        <time>2022-08-05T12:16:14.000Z</time>
      </trkpt>
      <trkpt lat="49.27968" lon="-0.24977">
        <ele>4.247429</ele>
        <time>2022-08-05T12:16:15.000Z</time>
      </trkpt>
      <trkpt lat="49.27965" lon="-0.24978">
        <ele>4.250756</ele>
        <time>2022-08-05T12:16:16.000Z</time>
      </trkpt>
      <trkpt lat="49.27961" lon="-0.2498">
        <ele>4.25479</ele>
        <time>2022-08-05T12:16:17.000Z</time>
      </trkpt>
      <trkpt lat="49.27957" lon="-0.2498">
        <ele>4.258379</ele>
        <time>2022-08-05T12:16:18.000Z</time>
      </trkpt>
      <trkpt lat="49.27953" lon="-0.24982">
        <ele>4.262613</ele>
        <time>2022-08-05T12:16:19.000Z</time>
      </trkpt>
      <trkpt lat="49.27949" lon="-0.24983">
        <ele>4.266661</ele>
        <time>2022-08-05T12:16:20.000Z</time>
      </trkpt>
      <trkpt lat="49.27945" lon="-0.24984">
        <ele>4.270921</ele>
        <time>2022-08-05T12:16:21.000Z</time>
      </trkpt>
      <trkpt lat="49.27941" lon="-0.24985">
        <ele>4.275543</ele>
        <time>2022-08-05T12:16:22.000Z</time>
      </trkpt>
      <trkpt lat="49.27936" lon="-0.24987">
        <ele>4.28054</ele>
        <time>2022-08-05T12:16:23.000Z</time>
      </trkpt>
      <trkpt lat="49.27931" lon="-0.24989">
        <ele>4.285585</ele>
        <time>2022-08-05T12:16:24.000Z</time>
      </trkpt>
      <trkpt lat="49.27925" lon="-0.24991">
        <ele>4.291367</ele>
        <time>2022-08-05T12:16:25.000Z</time>
      </trkpt>
      <trkpt lat="49.2792" lon="-0.24993">
        <ele>4.297298</ele>
        <time>2022-08-05T12:16:26.000Z</time>
      </trkpt>
      <trkpt lat="49.27914" lon="-0.24995">
        <ele>4.303253</ele>
        <time>2022-08-05T12:16:27.000Z</time>
      </trkpt>
      <trkpt lat="49.27908" lon="-0.24996">
        <ele>4.309462</ele>
        <time>2022-08-05T12:16:28.000Z</time>
      </trkpt>
      <trkpt lat="49.27902" lon="-0.24997">
        <ele>4.315584</ele>
        <time>2022-08-05T12:16:29.000Z</time>
      </trkpt>
      <trkpt lat="49.27896" lon="-0.24998">
        <ele>4.32185</ele>
        <time>2022-08-05T12:16:30.000Z</time>
      </trkpt>
      <trkpt lat="49.2789" lon="-0.24999">
        <ele>4.327795</ele>
        <time>2022-08-05T12:16:31.000Z</time>
      </trkpt>
      <trkpt lat="49.27884" lon="-0.25001">
        <ele>4.334361</ele>
        <time>2022-08-05T12:16:32.000Z</time>
      </trkpt>
      <trkpt lat="49.27878" lon="-0.25003">
        <ele>4.340278</ele>
        <time>2022-08-05T12:16:33.000Z</time>
      </trkpt>
      <trkpt lat="49.27872" lon="-0.25004">
        <ele>4.346544</ele>
        <time>2022-08-05T12:16:34.000Z</time>
      </trkpt>
      <trkpt lat="49.27866" lon="-0.25006">
        <ele>4.35251</ele>
        <time>2022-08-05T12:16:35.000Z</time>
      </trkpt>
      <trkpt lat="49.27861" lon="-0.25007">
        <ele>4.357789</ele>
        <time>2022-08-05T12:16:36.000Z</time>
      </trkpt>
      <trkpt lat="49.27855" lon="-0.25009">
        <ele>4.363745</ele>
        <time>2022-08-05T12:16:37.000Z</time>
      </trkpt>
      <trkpt lat="49.2785" lon="-0.2501">
        <ele>4.369012</ele>
        <time>2022-08-05T12:16:38.000Z</time>
      </trkpt>
      <trkpt lat="49.27846" lon="-0.25012">
        <ele>4.373258</ele>
        <time>2022-08-05T12:16:39.000Z</time>
      </trkpt>
      <trkpt lat="49.27843" lon="-0.25012">
        <ele>4.37652</ele>
        <time>2022-08-05T12:16:40.000Z</time>
      </trkpt>
      <trkpt lat="49.2784" lon="-0.25013">
        <ele>4.378877</ele>
        <time>2022-08-05T12:16:41.000Z</time>
      </trkpt>
      <trkpt lat="49.27838" lon="-0.25012">
        <ele>4.38142</ele>
        <time>2022-08-05T12:16:43.000Z</time>
      </trkpt>
      <trkpt lat="49.27836" lon="-0.25011">
        <ele>4.38365</ele>
        <time>2022-08-05T12:16:45.000Z</time>
      </trkpt>
      <trkpt lat="49.27833" lon="-0.25011">
        <ele>4.386896</ele>
        <time>2022-08-05T12:16:47.000Z</time>
      </trkpt>
      <trkpt lat="49.2783" lon="-0.25011">
        <ele>4.389463</ele>
        <time>2022-08-05T12:16:49.000Z</time>
      </trkpt>
      <trkpt lat="49.27829" lon="-0.25016">
        <ele>4.393148</ele>
        <time>2022-08-05T12:16:51.000Z</time>
      </trkpt>
      <trkpt lat="49.2783" lon="-0.2502">
        <ele>4.395642</ele>
        <time>2022-08-05T12:16:52.000Z</time>
      </trkpt>
      <trkpt lat="49.27831" lon="-0.25022">
        <ele>4.397859</ele>
        <time>2022-08-05T12:16:53.000Z</time>
      </trkpt>
      <trkpt lat="49.27832" lon="-0.25025">
        <ele>4.400029</ele>
        <time>2022-08-05T12:16:54.000Z</time>
      </trkpt>
      <trkpt lat="49.27833" lon="-0.25028">
        <ele>4.402468</ele>
        <time>2022-08-05T12:16:56.000Z</time>
      </trkpt>
      <trkpt lat="49.27832" lon="-0.25037">
        <ele>4.408183</ele>
        <time>2022-08-05T12:17:09.000Z</time>
      </trkpt>
      <trkpt lat="49.27829" lon="-0.25039">
        <ele>4.411464</ele>
        <time>2022-08-05T12:17:11.000Z</time>
      </trkpt>
      <trkpt lat="49.27827" lon="-0.2504">
        <ele>4.41372</ele>
        <time>2022-08-05T12:17:12.000Z</time>
      </trkpt>
      <trkpt lat="49.27825" lon="-0.25041">
        <ele>4.414961</ele>
        <time>2022-08-05T12:17:13.000Z</time>
      </trkpt>
      <trkpt lat="49.27822" lon="-0.25042">
        <ele>4.41227</ele>
        <time>2022-08-05T12:17:14.000Z</time>
      </trkpt>
      <trkpt lat="49.27819" lon="-0.25044">
        <ele>4.409258</ele>
        <time>2022-08-05T12:17:15.000Z</time>
      </trkpt>
      <trkpt lat="49.27816" lon="-0.25045">
        <ele>4.405742</ele>
        <time>2022-08-05T12:17:16.000Z</time>
      </trkpt>
      <trkpt lat="49.27812" lon="-0.25046">
        <ele>4.402212</ele>
        <time>2022-08-05T12:17:17.000Z</time>
      </trkpt>
      <trkpt lat="49.27809" lon="-0.25047">
        <ele>4.399287</ele>
        <time>2022-08-05T12:17:18.000Z</time>
      </trkpt>
      <trkpt lat="49.27806" lon="-0.25048">
        <ele>4.395784</ele>
        <time>2022-08-05T12:17:19.000Z</time>
      </trkpt>
      <trkpt lat="49.27803" lon="-0.25048">
        <ele>4.392629</ele>
        <time>2022-08-05T12:17:20.000Z</time>
      </trkpt>
      <trkpt lat="49.278" lon="-0.25049">
        <ele>4.390343</ele>
        <time>2022-08-05T12:17:21.000Z</time>
      </trkpt>
      <trkpt lat="49.27797" lon="-0.2505">
        <ele>4.386813</ele>
        <time>2022-08-05T12:17:22.000Z</time>
      </trkpt>
      <trkpt lat="49.27794" lon="-0.25051">
        <ele>4.383924</ele>
        <time>2022-08-05T12:17:23.000Z</time>
      </trkpt>
      <trkpt lat="49.27791" lon="-0.25052">
        <ele>4.381411</ele>
        <time>2022-08-05T12:17:24.000Z</time>
      </trkpt>
      <trkpt lat="49.27789" lon="-0.25052">
        <ele>4.378522</ele>
        <time>2022-08-05T12:17:25.000Z</time>
      </trkpt>
      <trkpt lat="49.27786" lon="-0.25053">
        <ele>4.375596</ele>
        <time>2022-08-05T12:17:26.000Z</time>
      </trkpt>
      <trkpt lat="49.27783" lon="-0.25054">
        <ele>4.372736</ele>
        <time>2022-08-05T12:17:27.000Z</time>
      </trkpt>
      <trkpt lat="49.2778" lon="-0.25054">
        <ele>4.370268</ele>
        <time>2022-08-05T12:17:28.000Z</time>
      </trkpt>
      <trkpt lat="49.27777" lon="-0.25054">
        <ele>4.366711</ele>
        <time>2022-08-05T12:17:29.000Z</time>
      </trkpt>
      <trkpt lat="49.27774" lon="-0.25055">
        <ele>4.363919</ele>
        <time>2022-08-05T12:17:30.000Z</time>
      </trkpt>
      <trkpt lat="49.2777" lon="-0.25056">
        <ele>4.360348</ele>
        <time>2022-08-05T12:17:31.000Z</time>
      </trkpt>
      <trkpt lat="49.27767" lon="-0.25056">
        <ele>4.356882</ele>
        <time>2022-08-05T12:17:32.000Z</time>
      </trkpt>
      <trkpt lat="49.27764" lon="-0.25057">
        <ele>4.353681</ele>
        <time>2022-08-05T12:17:33.000Z</time>
      </trkpt>
      <trkpt lat="49.2776" lon="-0.25058">
        <ele>4.35049</ele>
        <time>2022-08-05T12:17:34.000Z</time>
      </trkpt>
      <trkpt lat="49.27757" lon="-0.25059">
        <ele>4.346715</ele>
        <time>2022-08-05T12:17:35.000Z</time>
      </trkpt>
      <trkpt lat="49.27753" lon="-0.2506">
        <ele>4.343212</ele>
        <time>2022-08-05T12:17:36.000Z</time>
      </trkpt>
      <trkpt lat="49.2775" lon="-0.25061">
        <ele>4.340256</ele>
        <time>2022-08-05T12:17:37.000Z</time>
      </trkpt>
      <trkpt lat="49.27747" lon="-0.25063">
        <ele>4.336679</ele>
        <time>2022-08-05T12:17:38.000Z</time>
      </trkpt>
      <trkpt lat="49.27743" lon="-0.25063">
        <ele>4.332807</ele>
        <time>2022-08-05T12:17:39.000Z</time>
      </trkpt>
      <trkpt lat="49.27739" lon="-0.25065">
        <ele>4.329277</ele>
        <time>2022-08-05T12:17:40.000Z</time>
      </trkpt>
      <trkpt lat="49.27735" lon="-0.25066">
        <ele>4.325446</ele>
        <time>2022-08-05T12:17:41.000Z</time>
      </trkpt>
      <trkpt lat="49.27732" lon="-0.25067">
        <ele>4.32182</ele>
        <time>2022-08-05T12:17:42.000Z</time>
      </trkpt>
      <trkpt lat="49.27728" lon="-0.25068">
        <ele>4.318054</ele>
        <time>2022-08-05T12:17:43.000Z</time>
      </trkpt>
      <trkpt lat="49.27725" lon="-0.25068">
        <ele>4.314588</ele>
        <time>2022-08-05T12:17:44.000Z</time>
      </trkpt>
      <trkpt lat="49.27721" lon="-0.25069">
        <ele>4.311129</ele>
        <time>2022-08-05T12:17:45.000Z</time>
      </trkpt>
      <trkpt lat="49.27717" lon="-0.2507">
        <ele>4.307558</ele>
        <time>2022-08-05T12:17:46.000Z</time>
      </trkpt>
      <trkpt lat="49.27714" lon="-0.25071">
        <ele>4.304316</ele>
        <time>2022-08-05T12:17:47.000Z</time>
      </trkpt>
      <trkpt lat="49.27711" lon="-0.25072">
        <ele>4.301125</ele>
        <time>2022-08-05T12:17:48.000Z</time>
      </trkpt>
      <trkpt lat="49.27708" lon="-0.25073">
        <ele>4.297581</ele>
        <time>2022-08-05T12:17:49.000Z</time>
      </trkpt>
      <trkpt lat="49.27704" lon="-0.25074">
        <ele>4.294306</ele>
        <time>2022-08-05T12:17:50.000Z</time>
      </trkpt>
      <trkpt lat="49.27701" lon="-0.25076">
        <ele>4.290762</ele>
        <time>2022-08-05T12:17:51.000Z</time>
      </trkpt>
      <trkpt lat="49.27697" lon="-0.25076">
        <ele>4.286996</ele>
        <time>2022-08-05T12:17:52.000Z</time>
      </trkpt>
      <trkpt lat="49.27693" lon="-0.25077">
        <ele>4.283144</ele>
        <time>2022-08-05T12:17:53.000Z</time>
      </trkpt>
      <trkpt lat="49.2769" lon="-0.25078">
        <ele>4.279662</ele>
        <time>2022-08-05T12:17:54.000Z</time>
      </trkpt>
      <trkpt lat="49.27687" lon="-0.25079">
        <ele>4.276706</ele>
        <time>2022-08-05T12:17:55.000Z</time>
      </trkpt>
      <trkpt lat="49.27683" lon="-0.2508">
        <ele>4.272542</ele>
        <time>2022-08-05T12:17:56.000Z</time>
      </trkpt>
      <trkpt lat="49.27678" lon="-0.25082">
        <ele>4.268312</ele>
        <time>2022-08-05T12:17:57.000Z</time>
      </trkpt>
      <trkpt lat="49.27674" lon="-0.25083">
        <ele>4.264096</ele>
        <time>2022-08-05T12:17:58.000Z</time>
      </trkpt>
      <trkpt lat="49.2767" lon="-0.25084">
        <ele>4.260321</ele>
        <time>2022-08-05T12:17:59.000Z</time>
      </trkpt>
      <trkpt lat="49.27667" lon="-0.25085">
        <ele>4.256537</ele>
        <time>2022-08-05T12:18:00.000Z</time>
      </trkpt>
      <trkpt lat="49.27662" lon="-0.25086">
        <ele>4.252344</ele>
        <time>2022-08-05T12:18:01.000Z</time>
      </trkpt>
      <trkpt lat="49.27658" lon="-0.25087">
        <ele>4.248114</ele>
        <time>2022-08-05T12:18:02.000Z</time>
      </trkpt>
      <trkpt lat="49.27654" lon="-0.25088">
        <ele>4.243737</ele>
        <time>2022-08-05T12:18:03.000Z</time>
      </trkpt>
      <trkpt lat="49.27651" lon="-0.25089">
        <ele>4.240865</ele>
        <time>2022-08-05T12:18:04.000Z</time>
      </trkpt>
      <trkpt lat="49.27646" lon="-0.2509">
        <ele>4.238602</ele>
        <time>2022-08-05T12:18:05.000Z</time>
      </trkpt>
      <trkpt lat="49.27642" lon="-0.25091">
        <ele>4.23849</ele>
        <time>2022-08-05T12:18:06.000Z</time>
      </trkpt>
      <trkpt lat="49.27638" lon="-0.25092">
        <ele>4.23839</ele>
        <time>2022-08-05T12:18:07.000Z</time>
      </trkpt>
      <trkpt lat="49.27634" lon="-0.25093">
        <ele>4.238262</ele>
        <time>2022-08-05T12:18:08.000Z</time>
      </trkpt>
      <trkpt lat="49.2763" lon="-0.25093">
        <ele>4.238146</ele>
        <time>2022-08-05T12:18:09.000Z</time>
      </trkpt>
      <trkpt lat="49.27626" lon="-0.25094">
        <ele>4.238035</ele>
        <time>2022-08-05T12:18:10.000Z</time>
      </trkpt>
      <trkpt lat="49.27622" lon="-0.25095">
        <ele>4.237918</ele>
        <time>2022-08-05T12:18:11.000Z</time>
      </trkpt>
      <trkpt lat="49.27618" lon="-0.25096">
        <ele>4.237798</ele>
        <time>2022-08-05T12:18:12.000Z</time>
      </trkpt>
      <trkpt lat="49.27614" lon="-0.25097">
        <ele>4.23769</ele>
        <time>2022-08-05T12:18:13.000Z</time>
      </trkpt>
      <trkpt lat="49.2761" lon="-0.25098">
        <ele>4.237578</ele>
        <time>2022-08-05T12:18:14.000Z</time>
      </trkpt>
      <trkpt lat="49.27606" lon="-0.25099">
        <ele>4.23746</ele>
        <time>2022-08-05T12:18:15.000Z</time>
      </trkpt>
      <trkpt lat="49.27602" lon="-0.251">
        <ele>4.237349</ele>
        <time>2022-08-05T12:18:16.000Z</time>
      </trkpt>
      <trkpt lat="49.27598" lon="-0.25101">
        <ele>4.237231</ele>
        <time>2022-08-05T12:18:17.000Z</time>
      </trkpt>
      <trkpt lat="49.27594" lon="-0.25102">
        <ele>4.237118</ele>
        <time>2022-08-05T12:18:18.000Z</time>
      </trkpt>
      <trkpt lat="49.2759" lon="-0.25104">
        <ele>4.237007</ele>
        <time>2022-08-05T12:18:19.000Z</time>
      </trkpt>
      <trkpt lat="49.27586" lon="-0.25105">
        <ele>4.236887</ele>
        <time>2022-08-05T12:18:20.000Z</time>
      </trkpt>
      <trkpt lat="49.27582" lon="-0.25106">
        <ele>4.236778</ele>
        <time>2022-08-05T12:18:21.000Z</time>
      </trkpt>
      <trkpt lat="49.27578" lon="-0.25107">
        <ele>4.23665</ele>
        <time>2022-08-05T12:18:22.000Z</time>
      </trkpt>
      <trkpt lat="49.27574" lon="-0.25108">
        <ele>4.236541</ele>
        <time>2022-08-05T12:18:23.000Z</time>
      </trkpt>
      <trkpt lat="49.2757" lon="-0.25109">
        <ele>4.23643</ele>
        <time>2022-08-05T12:18:24.000Z</time>
      </trkpt>
      <trkpt lat="49.27566" lon="-0.2511">
        <ele>4.23632</ele>
        <time>2022-08-05T12:18:25.000Z</time>
      </trkpt>
      <trkpt lat="49.27562" lon="-0.25111">
        <ele>4.236207</ele>
        <time>2022-08-05T12:18:26.000Z</time>
      </trkpt>
      <trkpt lat="49.27558" lon="-0.25112">
        <ele>4.236099</ele>
        <time>2022-08-05T12:18:27.000Z</time>
      </trkpt>
      <trkpt lat="49.27555" lon="-0.25113">
        <ele>4.23599</ele>
        <time>2022-08-05T12:18:28.000Z</time>
      </trkpt>
      <trkpt lat="49.27551" lon="-0.25114">
        <ele>4.235887</ele>
        <time>2022-08-05T12:18:29.000Z</time>
      </trkpt>
      <trkpt lat="49.27547" lon="-0.25115">
        <ele>4.235776</ele>
        <time>2022-08-05T12:18:30.000Z</time>
      </trkpt>
      <trkpt lat="49.27544" lon="-0.25117">
        <ele>4.235683</ele>
        <time>2022-08-05T12:18:31.000Z</time>
      </trkpt>
      <trkpt lat="49.2754" lon="-0.25118">
        <ele>4.235573</ele>
        <time>2022-08-05T12:18:32.000Z</time>
      </trkpt>
      <trkpt lat="49.27536" lon="-0.25119">
        <ele>4.235461</ele>
        <time>2022-08-05T12:18:33.000Z</time>
      </trkpt>
      <trkpt lat="49.27532" lon="-0.2512">
        <ele>4.235323</ele>
        <time>2022-08-05T12:18:34.000Z</time>
      </trkpt>
      <trkpt lat="49.27528" lon="-0.25121">
        <ele>4.235232</ele>
        <time>2022-08-05T12:18:35.000Z</time>
      </trkpt>
      <trkpt lat="49.27524" lon="-0.25123">
        <ele>4.235093</ele>
        <time>2022-08-05T12:18:36.000Z</time>
      </trkpt>
      <trkpt lat="49.2752" lon="-0.25124">
        <ele>4.234993</ele>
        <time>2022-08-05T12:18:37.000Z</time>
      </trkpt>
      <trkpt lat="49.27516" lon="-0.25125">
        <ele>4.234884</ele>
        <time>2022-08-05T12:18:38.000Z</time>
      </trkpt>
      <trkpt lat="49.27512" lon="-0.25126">
        <ele>4.234772</ele>
        <time>2022-08-05T12:18:39.000Z</time>
      </trkpt>
      <trkpt lat="49.27509" lon="-0.25126">
        <ele>4.234664</ele>
        <time>2022-08-05T12:18:40.000Z</time>
      </trkpt>
      <trkpt lat="49.27505" lon="-0.25127">
        <ele>4.234563</ele>
        <time>2022-08-05T12:18:41.000Z</time>
      </trkpt>
      <trkpt lat="49.27502" lon="-0.25129">
        <ele>4.23447</ele>
        <time>2022-08-05T12:18:42.000Z</time>
      </trkpt>
      <trkpt lat="49.27498" lon="-0.2513">
        <ele>4.234358</ele>
        <time>2022-08-05T12:18:43.000Z</time>
      </trkpt>
      <trkpt lat="49.27494" lon="-0.25131">
        <ele>4.234241</ele>
        <time>2022-08-05T12:18:44.000Z</time>
      </trkpt>
      <trkpt lat="49.27491" lon="-0.25131">
        <ele>4.234158</ele>
        <time>2022-08-05T12:18:45.000Z</time>
      </trkpt>
      <trkpt lat="49.27487" lon="-0.25132">
        <ele>4.234046</ele>
        <time>2022-08-05T12:18:46.000Z</time>
      </trkpt>
      <trkpt lat="49.27484" lon="-0.25133">
        <ele>4.233947</ele>
        <time>2022-08-05T12:18:47.000Z</time>
      </trkpt>
      <trkpt lat="49.2748" lon="-0.25133">
        <ele>4.233848</ele>
        <time>2022-08-05T12:18:48.000Z</time>
      </trkpt>
      <trkpt lat="49.27477" lon="-0.25134">
        <ele>4.233755</ele>
        <time>2022-08-05T12:18:49.000Z</time>
      </trkpt>
      <trkpt lat="49.27474" lon="-0.25136">
        <ele>4.233661</ele>
        <time>2022-08-05T12:18:50.000Z</time>
      </trkpt>
      <trkpt lat="49.27472" lon="-0.25137">
        <ele>4.233605</ele>
        <time>2022-08-05T12:18:51.000Z</time>
      </trkpt>
      <trkpt lat="49.2747" lon="-0.25137">
        <ele>4.236609</ele>
        <time>2022-08-05T12:18:52.000Z</time>
      </trkpt>
      <trkpt lat="49.27467" lon="-0.25137">
        <ele>4.240617</ele>
        <time>2022-08-05T12:18:53.000Z</time>
      </trkpt>
      <trkpt lat="49.27464" lon="-0.25138">
        <ele>4.245089</ele>
        <time>2022-08-05T12:18:55.000Z</time>
      </trkpt>
      <trkpt lat="49.27462" lon="-0.25138">
        <ele>4.249005</ele>
        <time>2022-08-05T12:18:57.000Z</time>
      </trkpt>
      <trkpt lat="49.2746" lon="-0.25139">
        <ele>4.252278</ele>
        <time>2022-08-05T12:18:59.000Z</time>
      </trkpt>
      <trkpt lat="49.27452" lon="-0.25139">
        <ele>4.264605</ele>
        <time>2022-08-05T12:19:08.000Z</time>
      </trkpt>
      <trkpt lat="49.27449" lon="-0.2514">
        <ele>4.268503</ele>
        <time>2022-08-05T12:19:09.000Z</time>
      </trkpt>
      <trkpt lat="49.27447" lon="-0.25141">
        <ele>4.272187</ele>
        <time>2022-08-05T12:19:10.000Z</time>
      </trkpt>
      <trkpt lat="49.27445" lon="-0.25142">
        <ele>4.275857</ele>
        <time>2022-08-05T12:19:11.000Z</time>
      </trkpt>
      <trkpt lat="49.27442" lon="-0.25144">
        <ele>4.280137</ele>
        <time>2022-08-05T12:19:12.000Z</time>
      </trkpt>
      <trkpt lat="49.27439" lon="-0.25144">
        <ele>4.284493</ele>
        <time>2022-08-05T12:19:13.000Z</time>
      </trkpt>
      <trkpt lat="49.27437" lon="-0.25145">
        <ele>4.288979</ele>
        <time>2022-08-05T12:19:14.000Z</time>
      </trkpt>
      <trkpt lat="49.27433" lon="-0.25146">
        <ele>4.294484</ele>
        <time>2022-08-05T12:19:15.000Z</time>
      </trkpt>
      <trkpt lat="49.27429" lon="-0.25147">
        <ele>4.301032</ele>
        <time>2022-08-05T12:19:16.000Z</time>
      </trkpt>
      <trkpt lat="49.27426" lon="-0.25148">
        <ele>4.305162</ele>
        <time>2022-08-05T12:19:17.000Z</time>
      </trkpt>
      <trkpt lat="49.27422" lon="-0.2515">
        <ele>4.311261</ele>
        <time>2022-08-05T12:19:18.000Z</time>
      </trkpt>
      <trkpt lat="49.27419" lon="-0.25151">
        <ele>4.317307</ele>
        <time>2022-08-05T12:19:19.000Z</time>
      </trkpt>
      <trkpt lat="49.27414" lon="-0.25152">
        <ele>4.324345</ele>
        <time>2022-08-05T12:19:20.000Z</time>
      </trkpt>
      <trkpt lat="49.27411" lon="-0.25154">
        <ele>4.329445</ele>
        <time>2022-08-05T12:19:21.000Z</time>
      </trkpt>
      <trkpt lat="49.27407" lon="-0.25155">
        <ele>4.336138</ele>
        <time>2022-08-05T12:19:22.000Z</time>
      </trkpt>
      <trkpt lat="49.27403" lon="-0.25157">
        <ele>4.34221</ele>
        <time>2022-08-05T12:19:23.000Z</time>
      </trkpt>
      <trkpt lat="49.27399" lon="-0.25158">
        <ele>4.348832</ele>
        <time>2022-08-05T12:19:24.000Z</time>
      </trkpt>
      <trkpt lat="49.27394" lon="-0.25159">
        <ele>4.355853</ele>
        <time>2022-08-05T12:19:25.000Z</time>
      </trkpt>
      <trkpt lat="49.27391" lon="-0.25161">
        <ele>4.361378</ele>
        <time>2022-08-05T12:19:26.000Z</time>
      </trkpt>
      <trkpt lat="49.27387" lon="-0.25162">
        <ele>4.367424</ele>
        <time>2022-08-05T12:19:27.000Z</time>
      </trkpt>
      <trkpt lat="49.27383" lon="-0.25163">
        <ele>4.373573</ele>
        <time>2022-08-05T12:19:28.000Z</time>
      </trkpt>
      <trkpt lat="49.27379" lon="-0.25164">
        <ele>4.37947</ele>
        <time>2022-08-05T12:19:29.000Z</time>
      </trkpt>
      <trkpt lat="49.27375" lon="-0.25165">
        <ele>4.385346</ele>
        <time>2022-08-05T12:19:30.000Z</time>
      </trkpt>
      <trkpt lat="49.27372" lon="-0.25165">
        <ele>4.391396</ele>
        <time>2022-08-05T12:19:31.000Z</time>
      </trkpt>
      <trkpt lat="49.27367" lon="-0.25166">
        <ele>4.397793</ele>
        <time>2022-08-05T12:19:32.000Z</time>
      </trkpt>
      <trkpt lat="49.27364" lon="-0.25167">
        <ele>4.403855</ele>
        <time>2022-08-05T12:19:33.000Z</time>
      </trkpt>
      <trkpt lat="49.27359" lon="-0.25168">
        <ele>4.410251</ele>
        <time>2022-08-05T12:19:34.000Z</time>
      </trkpt>
      <trkpt lat="49.27355" lon="-0.25169">
        <ele>4.416834</ele>
        <time>2022-08-05T12:19:35.000Z</time>
      </trkpt>
      <trkpt lat="49.27351" lon="-0.2517">
        <ele>4.423399</ele>
        <time>2022-08-05T12:19:36.000Z</time>
      </trkpt>
      <trkpt lat="49.27347" lon="-0.25171">
        <ele>4.429795</ele>
        <time>2022-08-05T12:19:37.000Z</time>
      </trkpt>
      <trkpt lat="49.27343" lon="-0.25172">
        <ele>4.436329</ele>
        <time>2022-08-05T12:19:38.000Z</time>
      </trkpt>
      <trkpt lat="49.27338" lon="-0.25173">
        <ele>4.443807</ele>
        <time>2022-08-05T12:19:39.000Z</time>
      </trkpt>
      <trkpt lat="49.27334" lon="-0.25175">
        <ele>4.450406</ele>
        <time>2022-08-05T12:19:40.000Z</time>
      </trkpt>
      <trkpt lat="49.27329" lon="-0.25177">
        <ele>4.457461</ele>
        <time>2022-08-05T12:19:41.000Z</time>
      </trkpt>
      <trkpt lat="49.27325" lon="-0.25178">
        <ele>4.46401</ele>
        <time>2022-08-05T12:19:42.000Z</time>
      </trkpt>
      <trkpt lat="49.27321" lon="-0.25179">
        <ele>4.470441</ele>
        <time>2022-08-05T12:19:43.000Z</time>
      </trkpt>
      <trkpt lat="49.27317" lon="-0.25179">
        <ele>4.47694</ele>
        <time>2022-08-05T12:19:44.000Z</time>
      </trkpt>
      <trkpt lat="49.27313" lon="-0.2518">
        <ele>4.482816</ele>
        <time>2022-08-05T12:19:45.000Z</time>
      </trkpt>
      <trkpt lat="49.27309" lon="-0.2518">
        <ele>4.48929</ele>
        <time>2022-08-05T12:19:46.000Z</time>
      </trkpt>
      <trkpt lat="49.27304" lon="-0.25181">
        <ele>4.496328</ele>
        <time>2022-08-05T12:19:47.000Z</time>
      </trkpt>
      <trkpt lat="49.27301" lon="-0.25183">
        <ele>4.502016</ele>
        <time>2022-08-05T12:19:48.000Z</time>
      </trkpt>
      <trkpt lat="49.27296" lon="-0.25184">
        <ele>4.509509</ele>
        <time>2022-08-05T12:19:49.000Z</time>
      </trkpt>
      <trkpt lat="49.27292" lon="-0.25185">
        <ele>4.509558</ele>
        <time>2022-08-05T12:19:50.000Z</time>
      </trkpt>
      <trkpt lat="49.27288" lon="-0.25186">
        <ele>4.508144</ele>
        <time>2022-08-05T12:19:51.000Z</time>
      </trkpt>
      <trkpt lat="49.27284" lon="-0.25187">
        <ele>4.506704</ele>
        <time>2022-08-05T12:19:52.000Z</time>
      </trkpt>
      <trkpt lat="49.27279" lon="-0.25188">
        <ele>4.505304</ele>
        <time>2022-08-05T12:19:53.000Z</time>
      </trkpt>
      <trkpt lat="49.27275" lon="-0.25189">
        <ele>4.503877</ele>
        <time>2022-08-05T12:19:54.000Z</time>
      </trkpt>
      <trkpt lat="49.2727" lon="-0.2519">
        <ele>4.50223</ele>
        <time>2022-08-05T12:19:55.000Z</time>
      </trkpt>
      <trkpt lat="49.27267" lon="-0.25192">
        <ele>4.500846</ele>
        <time>2022-08-05T12:19:56.000Z</time>
      </trkpt>
      <trkpt lat="49.27264" lon="-0.25195">
        <ele>4.499719</ele>
        <time>2022-08-05T12:19:57.000Z</time>
      </trkpt>
      <trkpt lat="49.27262" lon="-0.25197">
        <ele>4.498938</ele>
        <time>2022-08-05T12:19:58.000Z</time>
      </trkpt>
      <trkpt lat="49.2726" lon="-0.25199">
        <ele>4.498091</ele>
        <time>2022-08-05T12:20:00.000Z</time>
      </trkpt>
      <trkpt lat="49.27254" lon="-0.25197">
        <ele>4.49602</ele>
        <time>2022-08-05T12:20:18.000Z</time>
      </trkpt>
      <trkpt lat="49.27251" lon="-0.25198">
        <ele>4.494931</ele>
        <time>2022-08-05T12:20:19.000Z</time>
      </trkpt>
      <trkpt lat="49.27247" lon="-0.25199">
        <ele>4.493797</ele>
        <time>2022-08-05T12:20:20.000Z</time>
      </trkpt>
      <trkpt lat="49.27244" lon="-0.25201">
        <ele>4.492626</ele>
        <time>2022-08-05T12:20:21.000Z</time>
      </trkpt>
      <trkpt lat="49.27241" lon="-0.25203">
        <ele>4.491314</ele>
        <time>2022-08-05T12:20:22.000Z</time>
      </trkpt>
      <trkpt lat="49.27237" lon="-0.25205">
        <ele>4.489953</ele>
        <time>2022-08-05T12:20:23.000Z</time>
      </trkpt>
      <trkpt lat="49.27233" lon="-0.25207">
        <ele>4.488715</ele>
        <time>2022-08-05T12:20:24.000Z</time>
      </trkpt>
      <trkpt lat="49.27229" lon="-0.25208">
        <ele>4.487353</ele>
        <time>2022-08-05T12:20:25.000Z</time>
      </trkpt>
      <trkpt lat="49.27226" lon="-0.2521">
        <ele>4.48603</ele>
        <time>2022-08-05T12:20:26.000Z</time>
      </trkpt>
      <trkpt lat="49.27222" lon="-0.25211">
        <ele>4.48473</ele>
        <time>2022-08-05T12:20:27.000Z</time>
      </trkpt>
      <trkpt lat="49.27218" lon="-0.25211">
        <ele>4.4834</ele>
        <time>2022-08-05T12:20:28.000Z</time>
      </trkpt>
      <trkpt lat="49.27214" lon="-0.25212">
        <ele>4.482094</ele>
        <time>2022-08-05T12:20:29.000Z</time>
      </trkpt>
      <trkpt lat="49.2721" lon="-0.25213">
        <ele>4.480654</ele>
        <time>2022-08-05T12:20:30.000Z</time>
      </trkpt>
      <trkpt lat="49.27206" lon="-0.25214">
        <ele>4.479248</ele>
        <time>2022-08-05T12:20:31.000Z</time>
      </trkpt>
      <trkpt lat="49.27202" lon="-0.25215">
        <ele>4.477909</ele>
        <time>2022-08-05T12:20:32.000Z</time>
      </trkpt>
      <trkpt lat="49.27198" lon="-0.25216">
        <ele>4.476502</ele>
        <time>2022-08-05T12:20:33.000Z</time>
      </trkpt>
      <trkpt lat="49.27194" lon="-0.25218">
        <ele>4.475051</ele>
        <time>2022-08-05T12:20:34.000Z</time>
      </trkpt>
      <trkpt lat="49.27189" lon="-0.25219">
        <ele>4.4734</ele>
        <time>2022-08-05T12:20:35.000Z</time>
      </trkpt>
      <trkpt lat="49.27185" lon="-0.2522">
        <ele>4.47196</ele>
        <time>2022-08-05T12:20:36.000Z</time>
      </trkpt>
      <trkpt lat="49.2718" lon="-0.25221">
        <ele>4.470461</ele>
        <time>2022-08-05T12:20:37.000Z</time>
      </trkpt>
      <trkpt lat="49.27176" lon="-0.25221">
        <ele>4.468936</ele>
        <time>2022-08-05T12:20:38.000Z</time>
      </trkpt>
      <trkpt lat="49.27171" lon="-0.2522">
        <ele>4.467307</ele>
        <time>2022-08-05T12:20:39.000Z</time>
      </trkpt>
      <trkpt lat="49.27166" lon="-0.25219">
        <ele>4.465767</ele>
        <time>2022-08-05T12:20:40.000Z</time>
      </trkpt>
      <trkpt lat="49.27162" lon="-0.25218">
        <ele>4.464229</ele>
        <time>2022-08-05T12:20:41.000Z</time>
      </trkpt>
      <trkpt lat="49.27157" lon="-0.25218">
        <ele>4.4625</ele>
        <time>2022-08-05T12:20:42.000Z</time>
      </trkpt>
      <trkpt lat="49.27152" lon="-0.25219">
        <ele>4.460871</ele>
        <time>2022-08-05T12:20:43.000Z</time>
      </trkpt>
      <trkpt lat="49.27147" lon="-0.2522">
        <ele>4.459123</ele>
        <time>2022-08-05T12:20:44.000Z</time>
      </trkpt>
      <trkpt lat="49.27142" lon="-0.25221">
        <ele>4.457579</ele>
        <time>2022-08-05T12:20:45.000Z</time>
      </trkpt>
      <trkpt lat="49.27137" lon="-0.25222">
        <ele>4.455731</ele>
        <time>2022-08-05T12:20:46.000Z</time>
      </trkpt>
      <trkpt lat="49.27132" lon="-0.25224">
        <ele>4.454072</ele>
        <time>2022-08-05T12:20:47.000Z</time>
      </trkpt>
      <trkpt lat="49.27127" lon="-0.25225">
        <ele>4.452271</ele>
        <time>2022-08-05T12:20:48.000Z</time>
      </trkpt>
      <trkpt lat="49.27123" lon="-0.25227">
        <ele>4.450744</ele>
        <time>2022-08-05T12:20:49.000Z</time>
      </trkpt>
      <trkpt lat="49.27117" lon="-0.25228">
        <ele>4.44196</ele>
        <time>2022-08-05T12:20:50.000Z</time>
      </trkpt>
      <trkpt lat="49.27113" lon="-0.25229">
        <ele>4.427764</ele>
        <time>2022-08-05T12:20:51.000Z</time>
      </trkpt>
      <trkpt lat="49.27108" lon="-0.2523">
        <ele>4.412171</ele>
        <time>2022-08-05T12:20:52.000Z</time>
      </trkpt>
      <trkpt lat="49.27103" lon="-0.25231">
        <ele>4.396712</ele>
        <time>2022-08-05T12:20:53.000Z</time>
      </trkpt>
      <trkpt lat="49.27099" lon="-0.25232">
        <ele>4.382297</ele>
        <time>2022-08-05T12:20:54.000Z</time>
      </trkpt>
      <trkpt lat="49.27095" lon="-0.25233">
        <ele>4.368814</ele>
        <time>2022-08-05T12:20:55.000Z</time>
      </trkpt>
      <trkpt lat="49.27091" lon="-0.25233">
        <ele>4.35573</ele>
        <time>2022-08-05T12:20:56.000Z</time>
      </trkpt>
      <trkpt lat="49.27087" lon="-0.25232">
        <ele>4.344194</ele>
        <time>2022-08-05T12:20:57.000Z</time>
      </trkpt>
      <trkpt lat="49.27084" lon="-0.25231">
        <ele>4.3329</ele>
        <time>2022-08-05T12:20:58.000Z</time>
      </trkpt>
      <trkpt lat="49.27081" lon="-0.2523">
        <ele>4.323458</ele>
        <time>2022-08-05T12:20:59.000Z</time>
      </trkpt>
      <trkpt lat="49.27077" lon="-0.25231">
        <ele>4.313212</ele>
        <time>2022-08-05T12:21:00.000Z</time>
      </trkpt>
      <trkpt lat="49.27075" lon="-0.25232">
        <ele>4.303675</ele>
        <time>2022-08-05T12:21:01.000Z</time>
      </trkpt>
      <trkpt lat="49.27072" lon="-0.25234">
        <ele>4.294089</ele>
        <time>2022-08-05T12:21:02.000Z</time>
      </trkpt>
      <trkpt lat="49.27069" lon="-0.25234">
        <ele>4.286749</ele>
        <time>2022-08-05T12:21:03.000Z</time>
      </trkpt>
      <trkpt lat="49.27068" lon="-0.25232">
        <ele>4.279728</ele>
        <time>2022-08-05T12:21:04.000Z</time>
      </trkpt>
      <trkpt lat="49.27066" lon="-0.25229">
        <ele>4.272436</ele>
        <time>2022-08-05T12:21:05.000Z</time>
      </trkpt>
      <trkpt lat="49.27065" lon="-0.25227">
        <ele>4.265936</ele>
        <time>2022-08-05T12:21:06.000Z</time>
      </trkpt>
      <trkpt lat="49.27064" lon="-0.25224">
        <ele>4.259289</ele>
        <time>2022-08-05T12:21:07.000Z</time>
      </trkpt>
      <trkpt lat="49.27063" lon="-0.25221">
        <ele>4.253183</ele>
        <time>2022-08-05T12:21:08.000Z</time>
      </trkpt>
      <trkpt lat="49.27061" lon="-0.25219">
        <ele>4.246724</ele>
        <time>2022-08-05T12:21:09.000Z</time>
      </trkpt>
      <trkpt lat="49.27059" lon="-0.25218">
        <ele>4.238423</ele>
        <time>2022-08-05T12:21:11.000Z</time>
      </trkpt>
      <trkpt lat="49.27057" lon="-0.25218">
        <ele>4.23236</ele>
        <time>2022-08-05T12:21:13.000Z</time>
      </trkpt>
      <trkpt lat="49.27054" lon="-0.25219">
        <ele>4.222874</ele>
        <time>2022-08-05T12:21:15.000Z</time>
      </trkpt>
      <trkpt lat="49.27052" lon="-0.25221">
        <ele>4.21433</ele>
        <time>2022-08-05T12:21:17.000Z</time>
      </trkpt>
      <trkpt lat="49.27048" lon="-0.25222">
        <ele>4.202115</ele>
        <time>2022-08-05T12:21:19.000Z</time>
      </trkpt>
      <trkpt lat="49.27046" lon="-0.25223">
        <ele>4.195018</ele>
        <time>2022-08-05T12:21:20.000Z</time>
      </trkpt>
      <trkpt lat="49.27043" lon="-0.25223">
        <ele>4.185649</ele>
        <time>2022-08-05T12:21:21.000Z</time>
      </trkpt>
      <trkpt lat="49.2704" lon="-0.25224">
        <ele>4.175302</ele>
        <time>2022-08-05T12:21:22.000Z</time>
      </trkpt>
      <trkpt lat="49.27037" lon="-0.25225">
        <ele>4.165988</ele>
        <time>2022-08-05T12:21:23.000Z</time>
      </trkpt>
      <trkpt lat="49.27033" lon="-0.25226">
        <ele>4.154495</ele>
        <time>2022-08-05T12:21:24.000Z</time>
      </trkpt>
      <trkpt lat="49.2703" lon="-0.25227">
        <ele>4.14305</ele>
        <time>2022-08-05T12:21:25.000Z</time>
      </trkpt>
      <trkpt lat="49.27026" lon="-0.25228">
        <ele>4.130312</ele>
        <time>2022-08-05T12:21:26.000Z</time>
      </trkpt>
      <trkpt lat="49.27022" lon="-0.2523">
        <ele>4.11784</ele>
        <time>2022-08-05T12:21:27.000Z</time>
      </trkpt>
      <trkpt lat="49.27018" lon="-0.25231">
        <ele>4.105103</ele>
        <time>2022-08-05T12:21:28.000Z</time>
      </trkpt>
      <trkpt lat="49.27014" lon="-0.25232">
        <ele>4.092721</ele>
        <time>2022-08-05T12:21:29.000Z</time>
      </trkpt>
      <trkpt lat="49.27011" lon="-0.25233">
        <ele>4.081319</ele>
        <time>2022-08-05T12:21:30.000Z</time>
      </trkpt>
      <trkpt lat="49.27007" lon="-0.25235">
        <ele>4.068624</ele>
        <time>2022-08-05T12:21:31.000Z</time>
      </trkpt>
      <trkpt lat="49.27004" lon="-0.25236">
        <ele>4.057179</ele>
        <time>2022-08-05T12:21:32.000Z</time>
      </trkpt>
      <trkpt lat="49.27" lon="-0.25237">
        <ele>4.044874</ele>
        <time>2022-08-05T12:21:33.000Z</time>
      </trkpt>
      <trkpt lat="49.26996" lon="-0.25237">
        <ele>4.032385</ele>
        <time>2022-08-05T12:21:34.000Z</time>
      </trkpt>
      <trkpt lat="49.26992" lon="-0.25238">
        <ele>4.019241</ele>
        <time>2022-08-05T12:21:35.000Z</time>
      </trkpt>
      <trkpt lat="49.26988" lon="-0.25239">
        <ele>4.007976</ele>
        <time>2022-08-05T12:21:36.000Z</time>
      </trkpt>
      <trkpt lat="49.26985" lon="-0.2524">
        <ele>3.9963</ele>
        <time>2022-08-05T12:21:37.000Z</time>
      </trkpt>
      <trkpt lat="49.26981" lon="-0.25241">
        <ele>3.985878</ele>
        <time>2022-08-05T12:21:38.000Z</time>
      </trkpt>
      <trkpt lat="49.26978" lon="-0.25242">
        <ele>3.974432</ele>
        <time>2022-08-05T12:21:39.000Z</time>
      </trkpt>
      <trkpt lat="49.26974" lon="-0.25243">
        <ele>3.96303</ele>
        <time>2022-08-05T12:21:40.000Z</time>
      </trkpt>
      <trkpt lat="49.26972" lon="-0.25244">
        <ele>3.954524</ele>
        <time>2022-08-05T12:21:41.000Z</time>
      </trkpt>
      <trkpt lat="49.26969" lon="-0.25244">
        <ele>3.946448</ele>
        <time>2022-08-05T12:21:42.000Z</time>
      </trkpt>
      <trkpt lat="49.26967" lon="-0.25245">
        <ele>3.940212</ele>
        <time>2022-08-05T12:21:43.000Z</time>
      </trkpt>
      <trkpt lat="49.26965" lon="-0.25246">
        <ele>3.930626</ele>
        <time>2022-08-05T12:21:45.000Z</time>
      </trkpt>
      <trkpt lat="49.26963" lon="-0.25246">
        <ele>3.924559</ele>
        <time>2022-08-05T12:21:47.000Z</time>
      </trkpt>
      <trkpt lat="49.26959" lon="-0.25248">
        <ele>3.911775</ele>
        <time>2022-08-05T12:23:08.000Z</time>
      </trkpt>
      <trkpt lat="49.26957" lon="-0.25248">
        <ele>3.904755</ele>
        <time>2022-08-05T12:23:09.000Z</time>
      </trkpt>
      <trkpt lat="49.26954" lon="-0.25248">
        <ele>3.897412</ele>
        <time>2022-08-05T12:23:10.000Z</time>
      </trkpt>
      <trkpt lat="49.26952" lon="-0.25248">
        <ele>3.890314</ele>
        <time>2022-08-05T12:23:11.000Z</time>
      </trkpt>
      <trkpt lat="49.26949" lon="-0.2525">
        <ele>3.879505</ele>
        <time>2022-08-05T12:23:13.000Z</time>
      </trkpt>
      <trkpt lat="49.26947" lon="-0.25251">
        <ele>3.873941</ele>
        <time>2022-08-05T12:23:14.000Z</time>
      </trkpt>
      <trkpt lat="49.26944" lon="-0.25251">
        <ele>3.866901</ele>
        <time>2022-08-05T12:23:16.000Z</time>
      </trkpt>
      <trkpt lat="49.26942" lon="-0.25252">
        <ele>3.861725</ele>
        <time>2022-08-05T12:23:18.000Z</time>
      </trkpt>
      <trkpt lat="49.26936" lon="-0.25255">
        <ele>3.846899</ele>
        <time>2022-08-05T12:23:55.000Z</time>
      </trkpt>
      <trkpt lat="49.26934" lon="-0.25257">
        <ele>3.840452</ele>
        <time>2022-08-05T12:23:56.000Z</time>
      </trkpt>
      <trkpt lat="49.26931" lon="-0.25258">
        <ele>3.832509</ele>
        <time>2022-08-05T12:23:57.000Z</time>
      </trkpt>
      <trkpt lat="49.26928" lon="-0.25259">
        <ele>3.825343</ele>
        <time>2022-08-05T12:23:58.000Z</time>
      </trkpt>
      <trkpt lat="49.26924" lon="-0.25259">
        <ele>3.816829</ele>
        <time>2022-08-05T12:23:59.000Z</time>
      </trkpt>
      <trkpt lat="49.2692" lon="-0.2526">
        <ele>3.807351</ele>
        <time>2022-08-05T12:24:00.000Z</time>
      </trkpt>
      <trkpt lat="49.26917" lon="-0.2526">
        <ele>3.798861</ele>
        <time>2022-08-05T12:24:01.000Z</time>
      </trkpt>
      <trkpt lat="49.26914" lon="-0.25261">
        <ele>3.791008</ele>
        <time>2022-08-05T12:24:02.000Z</time>
      </trkpt>
      <trkpt lat="49.2691" lon="-0.25262">
        <ele>3.782385</ele>
        <time>2022-08-05T12:24:03.000Z</time>
      </trkpt>
      <trkpt lat="49.26907" lon="-0.25263">
        <ele>3.774406</ele>
        <time>2022-08-05T12:24:04.000Z</time>
      </trkpt>
      <trkpt lat="49.26904" lon="-0.25264">
        <ele>3.767269</ele>
        <time>2022-08-05T12:24:05.000Z</time>
      </trkpt>
      <trkpt lat="49.26901" lon="-0.25265">
        <ele>3.75872</ele>
        <time>2022-08-05T12:24:06.000Z</time>
      </trkpt>
      <trkpt lat="49.26897" lon="-0.25265">
        <ele>3.750891</ele>
        <time>2022-08-05T12:24:07.000Z</time>
      </trkpt>
      <trkpt lat="49.26894" lon="-0.25266">
        <ele>3.742981</ele>
        <time>2022-08-05T12:24:08.000Z</time>
      </trkpt>
      <trkpt lat="49.26891" lon="-0.25267">
        <ele>3.734328</ele>
        <time>2022-08-05T12:24:09.000Z</time>
      </trkpt>
      <trkpt lat="49.26887" lon="-0.25268">
        <ele>3.726448</ele>
        <time>2022-08-05T12:24:10.000Z</time>
      </trkpt>
      <trkpt lat="49.26884" lon="-0.25269">
        <ele>3.718596</ele>
        <time>2022-08-05T12:24:11.000Z</time>
      </trkpt>
      <trkpt lat="49.26881" lon="-0.2527">
        <ele>3.709806</ele>
        <time>2022-08-05T12:24:12.000Z</time>
      </trkpt>
      <trkpt lat="49.26877" lon="-0.25271">
        <ele>3.699725</ele>
        <time>2022-08-05T12:24:13.000Z</time>
      </trkpt>
      <trkpt lat="49.26873" lon="-0.25272">
        <ele>3.690173</ele>
        <time>2022-08-05T12:24:14.000Z</time>
      </trkpt>
      <trkpt lat="49.26869" lon="-0.25273">
        <ele>3.682263</ele>
        <time>2022-08-05T12:24:15.000Z</time>
      </trkpt>
      <trkpt lat="49.26866" lon="-0.25274">
        <ele>3.67432</ele>
        <time>2022-08-05T12:24:16.000Z</time>
      </trkpt>
      <trkpt lat="49.26862" lon="-0.25275">
        <ele>3.664855</ele>
        <time>2022-08-05T12:24:17.000Z</time>
      </trkpt>
      <trkpt lat="49.26859" lon="-0.25276">
        <ele>3.655516</ele>
        <time>2022-08-05T12:24:18.000Z</time>
      </trkpt>
      <trkpt lat="49.26854" lon="-0.25277">
        <ele>3.645313</ele>
        <time>2022-08-05T12:24:19.000Z</time>
      </trkpt>
      <trkpt lat="49.26851" lon="-0.25278">
        <ele>3.636023</ele>
        <time>2022-08-05T12:24:20.000Z</time>
      </trkpt>
      <trkpt lat="49.26846" lon="-0.25278">
        <ele>3.625773</ele>
        <time>2022-08-05T12:24:21.000Z</time>
      </trkpt>
      <trkpt lat="49.26842" lon="-0.2528">
        <ele>3.615425</ele>
        <time>2022-08-05T12:24:22.000Z</time>
      </trkpt>
      <trkpt lat="49.26838" lon="-0.25281">
        <ele>3.605995</ele>
        <time>2022-08-05T12:24:23.000Z</time>
      </trkpt>
      <trkpt lat="49.26834" lon="-0.25283">
        <ele>3.595474</ele>
        <time>2022-08-05T12:24:24.000Z</time>
      </trkpt>
      <trkpt lat="49.2683" lon="-0.25284">
        <ele>3.58597</ele>
        <time>2022-08-05T12:24:25.000Z</time>
      </trkpt>
      <trkpt lat="49.26826" lon="-0.25285">
        <ele>3.575676</ele>
        <time>2022-08-05T12:24:26.000Z</time>
      </trkpt>
      <trkpt lat="49.26822" lon="-0.25286">
        <ele>3.564944</ele>
        <time>2022-08-05T12:24:27.000Z</time>
      </trkpt>
      <trkpt lat="49.26818" lon="-0.25287">
        <ele>3.554673</ele>
        <time>2022-08-05T12:24:28.000Z</time>
      </trkpt>
      <trkpt lat="49.26813" lon="-0.25288">
        <ele>3.544353</ele>
        <time>2022-08-05T12:24:29.000Z</time>
      </trkpt>
      <trkpt lat="49.26809" lon="-0.25289">
        <ele>3.534179</ele>
        <time>2022-08-05T12:24:30.000Z</time>
      </trkpt>
      <trkpt lat="49.26805" lon="-0.25291">
        <ele>3.523734</ele>
        <time>2022-08-05T12:24:31.000Z</time>
      </trkpt>
      <trkpt lat="49.26801" lon="-0.25292">
        <ele>3.513653</ele>
        <time>2022-08-05T12:24:32.000Z</time>
      </trkpt>
      <trkpt lat="49.26797" lon="-0.25293">
        <ele>3.503421</ele>
        <time>2022-08-05T12:24:33.000Z</time>
      </trkpt>
      <trkpt lat="49.26792" lon="-0.25294">
        <ele>3.490899</ele>
        <time>2022-08-05T12:24:34.000Z</time>
      </trkpt>
      <trkpt lat="49.26787" lon="-0.25295">
        <ele>3.479886</ele>
        <time>2022-08-05T12:24:35.000Z</time>
      </trkpt>
      <trkpt lat="49.26783" lon="-0.25296">
        <ele>3.469476</ele>
        <time>2022-08-05T12:24:36.000Z</time>
      </trkpt>
      <trkpt lat="49.26779" lon="-0.25298">
        <ele>3.459931</ele>
        <time>2022-08-05T12:24:37.000Z</time>
      </trkpt>
      <trkpt lat="49.26775" lon="-0.25299">
        <ele>3.448778</ele>
        <time>2022-08-05T12:24:38.000Z</time>
      </trkpt>
      <trkpt lat="49.26771" lon="-0.25301">
        <ele>3.44031</ele>
        <time>2022-08-05T12:24:39.000Z</time>
      </trkpt>
      <trkpt lat="49.26767" lon="-0.25302">
        <ele>3.442103</ele>
        <time>2022-08-05T12:24:40.000Z</time>
      </trkpt>
      <trkpt lat="49.26762" lon="-0.25303">
        <ele>3.444124</ele>
        <time>2022-08-05T12:24:41.000Z</time>
      </trkpt>
      <trkpt lat="49.26758" lon="-0.25304">
        <ele>3.445871</ele>
        <time>2022-08-05T12:24:42.000Z</time>
      </trkpt>
      <trkpt lat="49.26754" lon="-0.25305">
        <ele>3.447517</ele>
        <time>2022-08-05T12:24:43.000Z</time>
      </trkpt>
      <trkpt lat="49.2675" lon="-0.25306">
        <ele>3.449251</ele>
        <time>2022-08-05T12:24:44.000Z</time>
      </trkpt>
      <trkpt lat="49.26745" lon="-0.25306">
        <ele>3.451139</ele>
        <time>2022-08-05T12:24:45.000Z</time>
      </trkpt>
      <trkpt lat="49.26741" lon="-0.25307">
        <ele>3.452904</ele>
        <time>2022-08-05T12:24:46.000Z</time>
      </trkpt>
      <trkpt lat="49.26737" lon="-0.25308">
        <ele>3.45463</ele>
        <time>2022-08-05T12:24:47.000Z</time>
      </trkpt>
      <trkpt lat="49.26733" lon="-0.25309">
        <ele>3.456533</ele>
        <time>2022-08-05T12:24:48.000Z</time>
      </trkpt>
      <trkpt lat="49.26729" lon="-0.25309">
        <ele>3.457886</ele>
        <time>2022-08-05T12:24:49.000Z</time>
      </trkpt>
      <trkpt lat="49.26724" lon="-0.2531">
        <ele>3.460207</ele>
        <time>2022-08-05T12:24:50.000Z</time>
      </trkpt>
      <trkpt lat="49.2672" lon="-0.25311">
        <ele>3.461945</ele>
        <time>2022-08-05T12:24:51.000Z</time>
      </trkpt>
      <trkpt lat="49.26716" lon="-0.25312">
        <ele>3.463723</ele>
        <time>2022-08-05T12:24:52.000Z</time>
      </trkpt>
      <trkpt lat="49.26711" lon="-0.25314">
        <ele>3.465645</ele>
        <time>2022-08-05T12:24:53.000Z</time>
      </trkpt>
      <trkpt lat="49.26707" lon="-0.25315">
        <ele>3.467531</ele>
        <time>2022-08-05T12:24:54.000Z</time>
      </trkpt>
      <trkpt lat="49.26702" lon="-0.25316">
        <ele>3.469314</ele>
        <time>2022-08-05T12:24:55.000Z</time>
      </trkpt>
      <trkpt lat="49.26698" lon="-0.25318">
        <ele>3.471113</ele>
        <time>2022-08-05T12:24:56.000Z</time>
      </trkpt>
      <trkpt lat="49.26695" lon="-0.25319">
        <ele>3.472594</ele>
        <time>2022-08-05T12:24:57.000Z</time>
      </trkpt>
      <trkpt lat="49.26691" lon="-0.2532">
        <ele>3.474346</ele>
        <time>2022-08-05T12:24:58.000Z</time>
      </trkpt>
      <trkpt lat="49.26686" lon="-0.25321">
        <ele>3.476273</ele>
        <time>2022-08-05T12:24:59.000Z</time>
      </trkpt>
      <trkpt lat="49.26682" lon="-0.25323">
        <ele>3.478072</ele>
        <time>2022-08-05T12:25:00.000Z</time>
      </trkpt>
      <trkpt lat="49.26678" lon="-0.25324">
        <ele>3.47981</ele>
        <time>2022-08-05T12:25:01.000Z</time>
      </trkpt>
      <trkpt lat="49.26673" lon="-0.25325">
        <ele>3.481737</ele>
        <time>2022-08-05T12:25:02.000Z</time>
      </trkpt>
      <trkpt lat="49.26669" lon="-0.25326">
        <ele>3.483768</ele>
        <time>2022-08-05T12:25:03.000Z</time>
      </trkpt>
      <trkpt lat="49.26664" lon="-0.25328">
        <ele>3.485556</ele>
        <time>2022-08-05T12:25:04.000Z</time>
      </trkpt>
      <trkpt lat="49.2666" lon="-0.25329">
        <ele>3.487459</ele>
        <time>2022-08-05T12:25:05.000Z</time>
      </trkpt>
      <trkpt lat="49.26655" lon="-0.25329">
        <ele>3.489476</ele>
        <time>2022-08-05T12:25:06.000Z</time>
      </trkpt>
      <trkpt lat="49.26651" lon="-0.2533">
        <ele>3.491214</ele>
        <time>2022-08-05T12:25:07.000Z</time>
      </trkpt>
      <trkpt lat="49.26646" lon="-0.25331">
        <ele>3.493121</ele>
        <time>2022-08-05T12:25:08.000Z</time>
      </trkpt>
      <trkpt lat="49.26642" lon="-0.25333">
        <ele>3.495032</ele>
        <time>2022-08-05T12:25:09.000Z</time>
      </trkpt>
      <trkpt lat="49.26638" lon="-0.25334">
        <ele>3.49681</ele>
        <time>2022-08-05T12:25:10.000Z</time>
      </trkpt>
      <trkpt lat="49.26634" lon="-0.25336">
        <ele>3.498603</ele>
        <time>2022-08-05T12:25:11.000Z</time>
      </trkpt>
      <trkpt lat="49.26629" lon="-0.25337">
        <ele>3.500519</ele>
        <time>2022-08-05T12:25:12.000Z</time>
      </trkpt>
      <trkpt lat="49.26625" lon="-0.25338">
        <ele>3.502446</ele>
        <time>2022-08-05T12:25:13.000Z</time>
      </trkpt>
      <trkpt lat="49.26621" lon="-0.2534">
        <ele>3.504193</ele>
        <time>2022-08-05T12:25:14.000Z</time>
      </trkpt>
      <trkpt lat="49.26616" lon="-0.25341">
        <ele>3.505972</ele>
        <time>2022-08-05T12:25:15.000Z</time>
      </trkpt>
      <trkpt lat="49.26611" lon="-0.25342">
        <ele>3.508285</ele>
        <time>2022-08-05T12:25:16.000Z</time>
      </trkpt>
      <trkpt lat="49.26607" lon="-0.25344">
        <ele>3.510083</ele>
        <time>2022-08-05T12:25:17.000Z</time>
      </trkpt>
      <trkpt lat="49.26603" lon="-0.25345">
        <ele>3.511825</ele>
        <time>2022-08-05T12:25:18.000Z</time>
      </trkpt>
      <trkpt lat="49.26599" lon="-0.25346">
        <ele>3.513344</ele>
        <time>2022-08-05T12:25:19.000Z</time>
      </trkpt>
      <trkpt lat="49.26594" lon="-0.25347">
        <ele>3.515384</ele>
        <time>2022-08-05T12:25:20.000Z</time>
      </trkpt>
      <trkpt lat="49.26589" lon="-0.25348">
        <ele>3.522891</ele>
        <time>2022-08-05T12:25:21.000Z</time>
      </trkpt>
      <trkpt lat="49.26585" lon="-0.25349">
        <ele>3.529454</ele>
        <time>2022-08-05T12:25:22.000Z</time>
      </trkpt>
      <trkpt lat="49.26581" lon="-0.2535">
        <ele>3.536191</ele>
        <time>2022-08-05T12:25:23.000Z</time>
      </trkpt>
      <trkpt lat="49.26577" lon="-0.25351">
        <ele>3.54279</ele>
        <time>2022-08-05T12:25:24.000Z</time>
      </trkpt>
      <trkpt lat="49.26573" lon="-0.25353">
        <ele>3.549148</ele>
        <time>2022-08-05T12:25:25.000Z</time>
      </trkpt>
      <trkpt lat="49.26569" lon="-0.25354">
        <ele>3.555711</ele>
        <time>2022-08-05T12:25:26.000Z</time>
      </trkpt>
      <trkpt lat="49.26565" lon="-0.25355">
        <ele>3.562431</ele>
        <time>2022-08-05T12:25:27.000Z</time>
      </trkpt>
      <trkpt lat="49.26561" lon="-0.25356">
        <ele>3.569186</ele>
        <time>2022-08-05T12:25:28.000Z</time>
      </trkpt>
      <trkpt lat="49.26557" lon="-0.25357">
        <ele>3.575875</ele>
        <time>2022-08-05T12:25:29.000Z</time>
      </trkpt>
      <trkpt lat="49.26552" lon="-0.25359">
        <ele>3.582799</ele>
        <time>2022-08-05T12:25:30.000Z</time>
      </trkpt>
      <trkpt lat="49.26548" lon="-0.25361">
        <ele>3.589463</ele>
        <time>2022-08-05T12:25:31.000Z</time>
      </trkpt>
      <trkpt lat="49.26545" lon="-0.25362">
        <ele>3.595247</ele>
        <time>2022-08-05T12:25:32.000Z</time>
      </trkpt>
      <trkpt lat="49.2654" lon="-0.25363">
        <ele>3.60339</ele>
        <time>2022-08-05T12:25:33.000Z</time>
      </trkpt>
      <trkpt lat="49.26535" lon="-0.25364">
        <ele>3.609912</ele>
        <time>2022-08-05T12:25:34.000Z</time>
      </trkpt>
      <trkpt lat="49.26531" lon="-0.25365">
        <ele>3.616667</ele>
        <time>2022-08-05T12:25:35.000Z</time>
      </trkpt>
      <trkpt lat="49.26528" lon="-0.25366">
        <ele>3.622296</ele>
        <time>2022-08-05T12:25:36.000Z</time>
      </trkpt>
      <trkpt lat="49.26523" lon="-0.25368">
        <ele>3.630109</ele>
        <time>2022-08-05T12:25:37.000Z</time>
      </trkpt>
      <trkpt lat="49.26519" lon="-0.25369">
        <ele>3.636864</ele>
        <time>2022-08-05T12:25:38.000Z</time>
      </trkpt>
      <trkpt lat="49.26515" lon="-0.2537">
        <ele>3.643398</ele>
        <time>2022-08-05T12:25:39.000Z</time>
      </trkpt>
      <trkpt lat="49.2651" lon="-0.25371">
        <ele>3.650587</ele>
        <time>2022-08-05T12:25:40.000Z</time>
      </trkpt>
      <trkpt lat="49.26507" lon="-0.25371">
        <ele>3.655229</ele>
        <time>2022-08-05T12:25:41.000Z</time>
      </trkpt>
      <trkpt lat="49.26502" lon="-0.25373">
        <ele>3.663905</ele>
        <time>2022-08-05T12:25:42.000Z</time>
      </trkpt>
      <trkpt lat="49.26498" lon="-0.25374">
        <ele>3.670642</ele>
        <time>2022-08-05T12:25:43.000Z</time>
      </trkpt>
      <trkpt lat="49.26494" lon="-0.25375">
        <ele>3.676738</ele>
        <time>2022-08-05T12:25:44.000Z</time>
      </trkpt>
      <trkpt lat="49.2649" lon="-0.25376">
        <ele>3.682973</ele>
        <time>2022-08-05T12:25:45.000Z</time>
      </trkpt>
      <trkpt lat="49.26485" lon="-0.25377">
        <ele>3.690277</ele>
        <time>2022-08-05T12:25:46.000Z</time>
      </trkpt>
      <trkpt lat="49.26481" lon="-0.25379">
        <ele>3.696941</ele>
        <time>2022-08-05T12:25:47.000Z</time>
      </trkpt>
      <trkpt lat="49.26477" lon="-0.25381">
        <ele>3.703352</ele>
        <time>2022-08-05T12:25:48.000Z</time>
      </trkpt>
      <trkpt lat="49.26474" lon="-0.25382">
        <ele>3.709098</ele>
        <time>2022-08-05T12:25:49.000Z</time>
      </trkpt>
      <trkpt lat="49.26469" lon="-0.25384">
        <ele>3.716425</ele>
        <time>2022-08-05T12:25:50.000Z</time>
      </trkpt>
      <trkpt lat="49.26465" lon="-0.25385">
        <ele>3.723006</ele>
        <time>2022-08-05T12:25:51.000Z</time>
      </trkpt>
      <trkpt lat="49.26462" lon="-0.25386">
        <ele>3.72815</ele>
        <time>2022-08-05T12:25:52.000Z</time>
      </trkpt>
      <trkpt lat="49.26457" lon="-0.25387">
        <ele>3.736324</ele>
        <time>2022-08-05T12:25:53.000Z</time>
      </trkpt>
      <trkpt lat="49.26454" lon="-0.25388">
        <ele>3.741487</ele>
        <time>2022-08-05T12:25:54.000Z</time>
      </trkpt>
      <trkpt lat="49.26449" lon="-0.2539">
        <ele>3.749276</ele>
        <time>2022-08-05T12:25:55.000Z</time>
      </trkpt>
      <trkpt lat="49.26445" lon="-0.25391">
        <ele>3.755633</ele>
        <time>2022-08-05T12:25:56.000Z</time>
      </trkpt>
      <trkpt lat="49.26441" lon="-0.25392">
        <ele>3.761729</ele>
        <time>2022-08-05T12:25:57.000Z</time>
      </trkpt>
      <trkpt lat="49.26438" lon="-0.25393">
        <ele>3.766388</ele>
        <time>2022-08-05T12:25:58.000Z</time>
      </trkpt>
      <trkpt lat="49.26434" lon="-0.25394">
        <ele>3.773577</ele>
        <time>2022-08-05T12:25:59.000Z</time>
      </trkpt>
      <trkpt lat="49.2643" lon="-0.25395">
        <ele>3.779206</ele>
        <time>2022-08-05T12:26:00.000Z</time>
      </trkpt>
      <trkpt lat="49.26428" lon="-0.25396">
        <ele>3.783399</ele>
        <time>2022-08-05T12:26:01.000Z</time>
      </trkpt>
      <trkpt lat="49.26425" lon="-0.25397">
        <ele>3.787417</ele>
        <time>2022-08-05T12:26:02.000Z</time>
      </trkpt>
      <trkpt lat="49.26423" lon="-0.25397">
        <ele>3.791145</ele>
        <time>2022-08-05T12:26:03.000Z</time>
      </trkpt>
      <trkpt lat="49.2642" lon="-0.25399">
        <ele>3.796864</ele>
        <time>2022-08-05T12:26:04.000Z</time>
      </trkpt>
      <trkpt lat="49.26417" lon="-0.254">
        <ele>3.80179</ele>
        <time>2022-08-05T12:26:05.000Z</time>
      </trkpt>
      <trkpt lat="49.26414" lon="-0.25402">
        <ele>3.806859</ele>
        <time>2022-08-05T12:26:06.000Z</time>
      </trkpt>
      <trkpt lat="49.26412" lon="-0.25403">
        <ele>3.811011</ele>
        <time>2022-08-05T12:26:07.000Z</time>
      </trkpt>
      <trkpt lat="49.26408" lon="-0.25404">
        <ele>3.817252</ele>
        <time>2022-08-05T12:26:08.000Z</time>
      </trkpt>
      <trkpt lat="49.26405" lon="-0.25406">
        <ele>3.821892</ele>
        <time>2022-08-05T12:26:09.000Z</time>
      </trkpt>
      <trkpt lat="49.26402" lon="-0.25407">
        <ele>3.827522</ele>
        <time>2022-08-05T12:26:10.000Z</time>
      </trkpt>
      <trkpt lat="49.264" lon="-0.25408">
        <ele>3.831443</ele>
        <time>2022-08-05T12:26:11.000Z</time>
      </trkpt>
      <trkpt lat="49.26397" lon="-0.25409">
        <ele>3.837195</ele>
        <time>2022-08-05T12:26:12.000Z</time>
      </trkpt>
      <trkpt lat="49.26394" lon="-0.25411">
        <ele>3.841904</ele>
        <time>2022-08-05T12:26:13.000Z</time>
      </trkpt>
      <trkpt lat="49.26392" lon="-0.25412">
        <ele>3.846416</ele>
        <time>2022-08-05T12:26:14.000Z</time>
      </trkpt>
      <trkpt lat="49.26389" lon="-0.25413">
        <ele>3.851549</ele>
        <time>2022-08-05T12:26:15.000Z</time>
      </trkpt>
      <trkpt lat="49.26387" lon="-0.25414">
        <ele>3.854916</ele>
        <time>2022-08-05T12:26:16.000Z</time>
      </trkpt>
      <trkpt lat="49.26384" lon="-0.25415">
        <ele>3.860049</ele>
        <time>2022-08-05T12:26:17.000Z</time>
      </trkpt>
      <trkpt lat="49.26381" lon="-0.25417">
        <ele>3.866259</ele>
        <time>2022-08-05T12:26:18.000Z</time>
      </trkpt>
      <trkpt lat="49.26378" lon="-0.25418">
        <ele>3.871423</ele>
        <time>2022-08-05T12:26:19.000Z</time>
      </trkpt>
      <trkpt lat="49.26375" lon="-0.25419">
        <ele>3.876502</ele>
        <time>2022-08-05T12:26:20.000Z</time>
      </trkpt>
      <trkpt lat="49.26371" lon="-0.25421">
        <ele>3.883299</ele>
        <time>2022-08-05T12:26:21.000Z</time>
      </trkpt>
      <trkpt lat="49.26368" lon="-0.25422">
        <ele>3.888494</ele>
        <time>2022-08-05T12:26:22.000Z</time>
      </trkpt>
      <trkpt lat="49.26365" lon="-0.25424">
        <ele>3.894736</ele>
        <time>2022-08-05T12:26:23.000Z</time>
      </trkpt>
      <trkpt lat="49.26362" lon="-0.25426">
        <ele>3.900042</ele>
        <time>2022-08-05T12:26:24.000Z</time>
      </trkpt>
      <trkpt lat="49.26359" lon="-0.25427">
        <ele>3.905272</ele>
        <time>2022-08-05T12:26:25.000Z</time>
      </trkpt>
      <trkpt lat="49.26355" lon="-0.25429">
        <ele>3.912138</ele>
        <time>2022-08-05T12:26:26.000Z</time>
      </trkpt>
      <trkpt lat="49.26352" lon="-0.25431">
        <ele>3.916968</ele>
        <time>2022-08-05T12:26:27.000Z</time>
      </trkpt>
      <trkpt lat="49.2635" lon="-0.25432">
        <ele>3.921556</ele>
        <time>2022-08-05T12:26:28.000Z</time>
      </trkpt>
      <trkpt lat="49.26348" lon="-0.25433">
        <ele>3.925187</ele>
        <time>2022-08-05T12:26:29.000Z</time>
      </trkpt>
      <trkpt lat="49.26345" lon="-0.25435">
        <ele>3.930906</ele>
        <time>2022-08-05T12:26:30.000Z</time>
      </trkpt>
      <trkpt lat="49.26342" lon="-0.25436">
        <ele>3.935454</ele>
        <time>2022-08-05T12:26:31.000Z</time>
      </trkpt>
      <trkpt lat="49.26339" lon="-0.25437">
        <ele>3.941058</ele>
        <time>2022-08-05T12:26:32.000Z</time>
      </trkpt>
      <trkpt lat="49.26337" lon="-0.25439">
        <ele>3.945287</ele>
        <time>2022-08-05T12:26:33.000Z</time>
      </trkpt>
      <trkpt lat="49.26334" lon="-0.2544">
        <ele>3.949732</ele>
        <time>2022-08-05T12:26:34.000Z</time>
      </trkpt>
      <trkpt lat="49.26332" lon="-0.25441">
        <ele>3.953244</ele>
        <time>2022-08-05T12:26:35.000Z</time>
      </trkpt>
      <trkpt lat="49.26329" lon="-0.25443">
        <ele>3.958962</ele>
        <time>2022-08-05T12:26:36.000Z</time>
      </trkpt>
      <trkpt lat="49.26326" lon="-0.25444">
        <ele>3.963635</ele>
        <time>2022-08-05T12:26:37.000Z</time>
      </trkpt>
      <trkpt lat="49.26325" lon="-0.25445">
        <ele>3.967238</ele>
        <time>2022-08-05T12:26:38.000Z</time>
      </trkpt>
      <trkpt lat="49.26321" lon="-0.25447">
        <ele>3.974302</ele>
        <time>2022-08-05T12:26:39.000Z</time>
      </trkpt>
      <trkpt lat="49.26318" lon="-0.25449">
        <ele>3.978976</ele>
        <time>2022-08-05T12:26:40.000Z</time>
      </trkpt>
      <trkpt lat="49.26315" lon="-0.25451">
        <ele>3.98525</ele>
        <time>2022-08-05T12:26:41.000Z</time>
      </trkpt>
      <trkpt lat="49.26311" lon="-0.25453">
        <ele>3.991075</ele>
        <time>2022-08-05T12:26:42.000Z</time>
      </trkpt>
      <trkpt lat="49.26308" lon="-0.25454">
        <ele>3.996862</ele>
        <time>2022-08-05T12:26:43.000Z</time>
      </trkpt>
      <trkpt lat="49.26305" lon="-0.25456">
        <ele>4.003406</ele>
        <time>2022-08-05T12:26:44.000Z</time>
      </trkpt>
      <trkpt lat="49.26301" lon="-0.25458">
        <ele>4.009715</ele>
        <time>2022-08-05T12:26:45.000Z</time>
      </trkpt>
      <trkpt lat="49.26297" lon="-0.2546">
        <ele>4.016581</ele>
        <time>2022-08-05T12:26:46.000Z</time>
      </trkpt>
      <trkpt lat="49.26295" lon="-0.25462">
        <ele>4.021411</ele>
        <time>2022-08-05T12:26:47.000Z</time>
      </trkpt>
      <trkpt lat="49.26291" lon="-0.25464">
        <ele>4.028872</ele>
        <time>2022-08-05T12:26:48.000Z</time>
      </trkpt>
      <trkpt lat="49.26287" lon="-0.25466">
        <ele>4.0359</ele>
        <time>2022-08-05T12:26:49.000Z</time>
      </trkpt>
      <trkpt lat="49.26283" lon="-0.25468">
        <ele>4.042841</ele>
        <time>2022-08-05T12:26:50.000Z</time>
      </trkpt>
      <trkpt lat="49.2628" lon="-0.2547">
        <ele>4.047629</ele>
        <time>2022-08-05T12:26:51.000Z</time>
      </trkpt>
      <trkpt lat="49.26276" lon="-0.25472">
        <ele>4.05517</ele>
        <time>2022-08-05T12:26:52.000Z</time>
      </trkpt>
      <trkpt lat="49.26272" lon="-0.25474">
        <ele>4.062197</ele>
        <time>2022-08-05T12:26:53.000Z</time>
      </trkpt>
      <trkpt lat="49.26269" lon="-0.25476">
        <ele>4.068581</ele>
        <time>2022-08-05T12:26:54.000Z</time>
      </trkpt>
      <trkpt lat="49.26266" lon="-0.25478">
        <ele>4.074445</ele>
        <time>2022-08-05T12:26:55.000Z</time>
      </trkpt>
      <trkpt lat="49.26261" lon="-0.25481">
        <ele>4.082272</ele>
        <time>2022-08-05T12:26:56.000Z</time>
      </trkpt>
      <trkpt lat="49.26259" lon="-0.25483">
        <ele>4.086946</ele>
        <time>2022-08-05T12:26:57.000Z</time>
      </trkpt>
      <trkpt lat="49.26255" lon="-0.25485">
        <ele>4.094686</ele>
        <time>2022-08-05T12:26:58.000Z</time>
      </trkpt>
      <trkpt lat="49.26251" lon="-0.25487">
        <ele>4.10107</ele>
        <time>2022-08-05T12:26:59.000Z</time>
      </trkpt>
      <trkpt lat="49.26249" lon="-0.25489">
        <ele>4.105992</ele>
        <time>2022-08-05T12:27:00.000Z</time>
      </trkpt>
      <trkpt lat="49.26245" lon="-0.25492">
        <ele>4.105138</ele>
        <time>2022-08-05T12:27:01.000Z</time>
      </trkpt>
      <trkpt lat="49.26241" lon="-0.25494">
        <ele>4.103125</ele>
        <time>2022-08-05T12:27:02.000Z</time>
      </trkpt>
      <trkpt lat="49.26237" lon="-0.25496">
        <ele>4.101038</ele>
        <time>2022-08-05T12:27:03.000Z</time>
      </trkpt>
      <trkpt lat="49.26235" lon="-0.25498">
        <ele>4.099564</ele>
        <time>2022-08-05T12:27:04.000Z</time>
      </trkpt>
      <trkpt lat="49.26231" lon="-0.255">
        <ele>4.097313</ele>
        <time>2022-08-05T12:27:05.000Z</time>
      </trkpt>
      <trkpt lat="49.26228" lon="-0.25502">
        <ele>4.095324</ele>
        <time>2022-08-05T12:27:06.000Z</time>
      </trkpt>
      <trkpt lat="49.26225" lon="-0.25504">
        <ele>4.093611</ele>
        <time>2022-08-05T12:27:07.000Z</time>
      </trkpt>
      <trkpt lat="49.26221" lon="-0.25506">
        <ele>4.091598</ele>
        <time>2022-08-05T12:27:08.000Z</time>
      </trkpt>
      <trkpt lat="49.26219" lon="-0.25507">
        <ele>4.090301</ele>
        <time>2022-08-05T12:27:09.000Z</time>
      </trkpt>
      <trkpt lat="49.26215" lon="-0.2551">
        <ele>4.087886</ele>
        <time>2022-08-05T12:27:10.000Z</time>
      </trkpt>
      <trkpt lat="49.26212" lon="-0.25512">
        <ele>4.08605</ele>
        <time>2022-08-05T12:27:11.000Z</time>
      </trkpt>
      <trkpt lat="49.26209" lon="-0.25513">
        <ele>4.084753</ele>
        <time>2022-08-05T12:27:12.000Z</time>
      </trkpt>
      <trkpt lat="49.26206" lon="-0.25515">
        <ele>4.082928</ele>
        <time>2022-08-05T12:27:13.000Z</time>
      </trkpt>
      <trkpt lat="49.26202" lon="-0.25517">
        <ele>4.080701</ele>
        <time>2022-08-05T12:27:14.000Z</time>
      </trkpt>
      <trkpt lat="49.262" lon="-0.25519">
        <ele>4.079198</ele>
        <time>2022-08-05T12:27:15.000Z</time>
      </trkpt>
      <trkpt lat="49.26197" lon="-0.25521">
        <ele>4.077512</ele>
        <time>2022-08-05T12:27:16.000Z</time>
      </trkpt>
      <trkpt lat="49.26194" lon="-0.25523">
        <ele>4.075651</ele>
        <time>2022-08-05T12:27:17.000Z</time>
      </trkpt>
      <trkpt lat="49.26191" lon="-0.25525">
        <ele>4.074273</ele>
        <time>2022-08-05T12:27:18.000Z</time>
      </trkpt>
      <trkpt lat="49.26188" lon="-0.25527">
        <ele>4.072113</ele>
        <time>2022-08-05T12:27:19.000Z</time>
      </trkpt>
      <trkpt lat="49.26185" lon="-0.2553">
        <ele>4.070402</ele>
        <time>2022-08-05T12:27:20.000Z</time>
      </trkpt>
      <trkpt lat="49.26182" lon="-0.25532">
        <ele>4.068659</ele>
        <time>2022-08-05T12:27:21.000Z</time>
      </trkpt>
      <trkpt lat="49.2618" lon="-0.25534">
        <ele>4.067122</ele>
        <time>2022-08-05T12:27:22.000Z</time>
      </trkpt>
      <trkpt lat="49.26177" lon="-0.25536">
        <ele>4.065602</ele>
        <time>2022-08-05T12:27:23.000Z</time>
      </trkpt>
      <trkpt lat="49.26174" lon="-0.25538">
        <ele>4.063713</ele>
        <time>2022-08-05T12:27:24.000Z</time>
      </trkpt>
      <trkpt lat="49.26171" lon="-0.2554">
        <ele>4.062</ele>
        <time>2022-08-05T12:27:25.000Z</time>
      </trkpt>
      <trkpt lat="49.26167" lon="-0.25542">
        <ele>4.059722</ele>
        <time>2022-08-05T12:27:26.000Z</time>
      </trkpt>
      <trkpt lat="49.26165" lon="-0.25544">
        <ele>4.058263</ele>
        <time>2022-08-05T12:27:27.000Z</time>
      </trkpt>
      <trkpt lat="49.26161" lon="-0.25547">
        <ele>4.056102</ele>
        <time>2022-08-05T12:27:28.000Z</time>
      </trkpt>
      <trkpt lat="49.26158" lon="-0.25549">
        <ele>4.054183</ele>
        <time>2022-08-05T12:27:29.000Z</time>
      </trkpt>
      <trkpt lat="49.26154" lon="-0.25552">
        <ele>4.052039</ele>
        <time>2022-08-05T12:27:30.000Z</time>
      </trkpt>
      <trkpt lat="49.26152" lon="-0.25554">
        <ele>4.05052</ele>
        <time>2022-08-05T12:27:31.000Z</time>
      </trkpt>
      <trkpt lat="49.26148" lon="-0.25557">
        <ele>4.048376</ele>
        <time>2022-08-05T12:27:32.000Z</time>
      </trkpt>
      <trkpt lat="49.26145" lon="-0.25559">
        <ele>4.046584</ele>
        <time>2022-08-05T12:27:33.000Z</time>
      </trkpt>
      <trkpt lat="49.26142" lon="-0.25562">
        <ele>4.04468</ele>
        <time>2022-08-05T12:27:34.000Z</time>
      </trkpt>
      <trkpt lat="49.26139" lon="-0.25564">
        <ele>4.042628</ele>
        <time>2022-08-05T12:27:35.000Z</time>
      </trkpt>
      <trkpt lat="49.26136" lon="-0.25566">
        <ele>4.04122</ele>
        <time>2022-08-05T12:27:36.000Z</time>
      </trkpt>
      <trkpt lat="49.26133" lon="-0.25568">
        <ele>4.038978</ele>
        <time>2022-08-05T12:27:37.000Z</time>
      </trkpt>
      <trkpt lat="49.26129" lon="-0.25571">
        <ele>4.037089</ele>
        <time>2022-08-05T12:27:38.000Z</time>
      </trkpt>
      <trkpt lat="49.26126" lon="-0.25573">
        <ele>4.035227</ele>
        <time>2022-08-05T12:27:39.000Z</time>
      </trkpt>
      <trkpt lat="49.26124" lon="-0.25574">
        <ele>4.033836</ele>
        <time>2022-08-05T12:27:40.000Z</time>
      </trkpt>
      <trkpt lat="49.2612" lon="-0.25577">
        <ele>4.031579</ele>
        <time>2022-08-05T12:27:41.000Z</time>
      </trkpt>
      <trkpt lat="49.26117" lon="-0.25579">
        <ele>4.02969</ele>
        <time>2022-08-05T12:27:42.000Z</time>
      </trkpt>
      <trkpt lat="49.26114" lon="-0.25582">
        <ele>4.027931</ele>
        <time>2022-08-05T12:27:43.000Z</time>
      </trkpt>
      <trkpt lat="49.26111" lon="-0.25584">
        <ele>4.026378</ele>
        <time>2022-08-05T12:27:44.000Z</time>
      </trkpt>
      <trkpt lat="49.26109" lon="-0.25585">
        <ele>4.025162</ele>
        <time>2022-08-05T12:27:45.000Z</time>
      </trkpt>
      <trkpt lat="49.26107" lon="-0.25588">
        <ele>4.023434</ele>
        <time>2022-08-05T12:27:46.000Z</time>
      </trkpt>
      <trkpt lat="49.26104" lon="-0.25589">
        <ele>4.022073</ele>
        <time>2022-08-05T12:27:47.000Z</time>
      </trkpt>
      <trkpt lat="49.26102" lon="-0.25591">
        <ele>4.020922</ele>
        <time>2022-08-05T12:27:48.000Z</time>
      </trkpt>
      <trkpt lat="49.26099" lon="-0.25594">
        <ele>4.018619</ele>
        <time>2022-08-05T12:27:50.000Z</time>
      </trkpt>
      <trkpt lat="49.26097" lon="-0.25596">
        <ele>4.017387</ele>
        <time>2022-08-05T12:27:51.000Z</time>
      </trkpt>
      <trkpt lat="49.26094" lon="-0.25598">
        <ele>4.016009</ele>
        <time>2022-08-05T12:27:52.000Z</time>
      </trkpt>
      <trkpt lat="49.26092" lon="-0.25599">
        <ele>4.014712</ele>
        <time>2022-08-05T12:27:53.000Z</time>
      </trkpt>
      <trkpt lat="49.26089" lon="-0.25602">
        <ele>4.012744</ele>
        <time>2022-08-05T12:27:54.000Z</time>
      </trkpt>
      <trkpt lat="49.26086" lon="-0.25604">
        <ele>4.010839</ele>
        <time>2022-08-05T12:27:55.000Z</time>
      </trkpt>
      <trkpt lat="49.26083" lon="-0.25607">
        <ele>4.000485</ele>
        <time>2022-08-05T12:27:56.000Z</time>
      </trkpt>
      <trkpt lat="49.2608" lon="-0.25609">
        <ele>3.987833</ele>
        <time>2022-08-05T12:27:57.000Z</time>
      </trkpt>
      <trkpt lat="49.26077" lon="-0.25611">
        <ele>3.973917</ele>
        <time>2022-08-05T12:27:58.000Z</time>
      </trkpt>
      <trkpt lat="49.26074" lon="-0.25614">
        <ele>3.961147</ele>
        <time>2022-08-05T12:27:59.000Z</time>
      </trkpt>
      <trkpt lat="49.2607" lon="-0.25616">
        <ele>3.947453</ele>
        <time>2022-08-05T12:28:00.000Z</time>
      </trkpt>
      <trkpt lat="49.26068" lon="-0.25618">
        <ele>3.9364</ele>
        <time>2022-08-05T12:28:01.000Z</time>
      </trkpt>
      <trkpt lat="49.26064" lon="-0.2562">
        <ele>3.921438</ele>
        <time>2022-08-05T12:28:02.000Z</time>
      </trkpt>
      <trkpt lat="49.26061" lon="-0.25624">
        <ele>3.90439</ele>
        <time>2022-08-05T12:28:03.000Z</time>
      </trkpt>
      <trkpt lat="49.26057" lon="-0.25627">
        <ele>3.887368</ele>
        <time>2022-08-05T12:28:04.000Z</time>
      </trkpt>
      <trkpt lat="49.26053" lon="-0.2563">
        <ele>3.870568</ele>
        <time>2022-08-05T12:28:05.000Z</time>
      </trkpt>
      <trkpt lat="49.26049" lon="-0.25633">
        <ele>3.853769</ele>
        <time>2022-08-05T12:28:06.000Z</time>
      </trkpt>
      <trkpt lat="49.26046" lon="-0.25636">
        <ele>3.840877</ele>
        <time>2022-08-05T12:28:07.000Z</time>
      </trkpt>
      <trkpt lat="49.26042" lon="-0.2564">
        <ele>3.82198</ele>
        <time>2022-08-05T12:28:08.000Z</time>
      </trkpt>
      <trkpt lat="49.26038" lon="-0.25643">
        <ele>3.806058</ele>
        <time>2022-08-05T12:28:09.000Z</time>
      </trkpt>
      <trkpt lat="49.26035" lon="-0.25646">
        <ele>3.790826</ele>
        <time>2022-08-05T12:28:10.000Z</time>
      </trkpt>
      <trkpt lat="49.26033" lon="-0.25649">
        <ele>3.778366</ele>
        <time>2022-08-05T12:28:11.000Z</time>
      </trkpt>
      <trkpt lat="49.26029" lon="-0.25653">
        <ele>3.760786</ele>
        <time>2022-08-05T12:28:12.000Z</time>
      </trkpt>
      <trkpt lat="49.26026" lon="-0.25656">
        <ele>3.747894</ele>
        <time>2022-08-05T12:28:13.000Z</time>
      </trkpt>
      <trkpt lat="49.26022" lon="-0.25659">
        <ele>3.732356</ele>
        <time>2022-08-05T12:28:14.000Z</time>
      </trkpt>
      <trkpt lat="49.2602" lon="-0.25661">
        <ele>3.719705</ele>
        <time>2022-08-05T12:28:15.000Z</time>
      </trkpt>
      <trkpt lat="49.26016" lon="-0.25664">
        <ele>3.704618</ele>
        <time>2022-08-05T12:28:16.000Z</time>
      </trkpt>
      <trkpt lat="49.26013" lon="-0.25667">
        <ele>3.68995</ele>
        <time>2022-08-05T12:28:17.000Z</time>
      </trkpt>
      <trkpt lat="49.2601" lon="-0.2567">
        <ele>3.676533</ele>
        <time>2022-08-05T12:28:18.000Z</time>
      </trkpt>
      <trkpt lat="49.26007" lon="-0.25673">
        <ele>3.662256</ele>
        <time>2022-08-05T12:28:19.000Z</time>
      </trkpt>
      <trkpt lat="49.26005" lon="-0.25675">
        <ele>3.650959</ele>
        <time>2022-08-05T12:28:20.000Z</time>
      </trkpt>
      <trkpt lat="49.26001" lon="-0.25679">
        <ele>3.633574</ele>
        <time>2022-08-05T12:28:21.000Z</time>
      </trkpt>
      <trkpt lat="49.25997" lon="-0.25682">
        <ele>3.618277</ele>
        <time>2022-08-05T12:28:22.000Z</time>
      </trkpt>
      <trkpt lat="49.25995" lon="-0.25684">
        <ele>3.607107</ele>
        <time>2022-08-05T12:28:23.000Z</time>
      </trkpt>
      <trkpt lat="49.25991" lon="-0.25687">
        <ele>3.59244</ele>
        <time>2022-08-05T12:28:24.000Z</time>
      </trkpt>
      <trkpt lat="49.25987" lon="-0.25691">
        <ele>3.57367</ele>
        <time>2022-08-05T12:28:25.000Z</time>
      </trkpt>
      <trkpt lat="49.25984" lon="-0.25694">
        <ele>3.560113</ele>
        <time>2022-08-05T12:28:26.000Z</time>
      </trkpt>
      <trkpt lat="49.25981" lon="-0.25697">
        <ele>3.543314</ele>
        <time>2022-08-05T12:28:27.000Z</time>
      </trkpt>
      <trkpt lat="49.25977" lon="-0.257">
        <ele>3.528646</ele>
        <time>2022-08-05T12:28:28.000Z</time>
      </trkpt>
      <trkpt lat="49.25975" lon="-0.25702">
        <ele>3.516753</ele>
        <time>2022-08-05T12:28:29.000Z</time>
      </trkpt>
      <trkpt lat="49.25971" lon="-0.25706">
        <ele>3.499033</ele>
        <time>2022-08-05T12:28:30.000Z</time>
      </trkpt>
      <trkpt lat="49.25969" lon="-0.25708">
        <ele>3.48866</ele>
        <time>2022-08-05T12:28:31.000Z</time>
      </trkpt>
      <trkpt lat="49.25965" lon="-0.25712">
        <ele>3.47094</ele>
        <time>2022-08-05T12:28:32.000Z</time>
      </trkpt>
      <trkpt lat="49.25963" lon="-0.25715">
        <ele>3.460622</ele>
        <time>2022-08-05T12:28:33.000Z</time>
      </trkpt>
      <trkpt lat="49.25959" lon="-0.25718">
        <ele>3.444745</ele>
        <time>2022-08-05T12:28:34.000Z</time>
      </trkpt>
      <trkpt lat="49.25956" lon="-0.25721">
        <ele>3.42994</ele>
        <time>2022-08-05T12:28:35.000Z</time>
      </trkpt>
      <trkpt lat="49.25952" lon="-0.25724">
        <ele>3.412631</ele>
        <time>2022-08-05T12:28:36.000Z</time>
      </trkpt>
      <trkpt lat="49.2595" lon="-0.25727">
        <ele>3.402167</ele>
        <time>2022-08-05T12:28:37.000Z</time>
      </trkpt>
      <trkpt lat="49.25947" lon="-0.2573">
        <ele>3.388468</ele>
        <time>2022-08-05T12:28:38.000Z</time>
      </trkpt>
      <trkpt lat="49.25943" lon="-0.25733">
        <ele>3.373052</ele>
        <time>2022-08-05T12:28:39.000Z</time>
      </trkpt>
      <trkpt lat="49.2594" lon="-0.25736">
        <ele>3.356397</ele>
        <time>2022-08-05T12:28:40.000Z</time>
      </trkpt>
      <trkpt lat="49.25937" lon="-0.25739">
        <ele>3.344831</ele>
        <time>2022-08-05T12:28:41.000Z</time>
      </trkpt>
      <trkpt lat="49.25934" lon="-0.25742">
        <ele>3.330026</ele>
        <time>2022-08-05T12:28:42.000Z</time>
      </trkpt>
      <trkpt lat="49.25931" lon="-0.25745">
        <ele>3.316746</ele>
        <time>2022-08-05T12:28:43.000Z</time>
      </trkpt>
      <trkpt lat="49.25928" lon="-0.25748">
        <ele>3.315485</ele>
        <time>2022-08-05T12:28:44.000Z</time>
      </trkpt>
      <trkpt lat="49.25925" lon="-0.25751">
        <ele>3.318375</ele>
        <time>2022-08-05T12:28:45.000Z</time>
      </trkpt>
      <trkpt lat="49.25922" lon="-0.25754">
        <ele>3.320774</ele>
        <time>2022-08-05T12:28:46.000Z</time>
      </trkpt>
      <trkpt lat="49.25919" lon="-0.25757">
        <ele>3.323115</ele>
        <time>2022-08-05T12:28:47.000Z</time>
      </trkpt>
      <trkpt lat="49.25916" lon="-0.25761">
        <ele>3.326531</ele>
        <time>2022-08-05T12:28:48.000Z</time>
      </trkpt>
      <trkpt lat="49.25912" lon="-0.25764">
        <ele>3.329573</ele>
        <time>2022-08-05T12:28:49.000Z</time>
      </trkpt>
      <trkpt lat="49.25909" lon="-0.25767">
        <ele>3.331859</ele>
        <time>2022-08-05T12:28:50.000Z</time>
      </trkpt>
      <trkpt lat="49.25906" lon="-0.25771">
        <ele>3.335136</ele>
        <time>2022-08-05T12:28:51.000Z</time>
      </trkpt>
      <trkpt lat="49.25901" lon="-0.25775">
        <ele>3.338813</ele>
        <time>2022-08-05T12:28:52.000Z</time>
      </trkpt>
      <trkpt lat="49.25898" lon="-0.25779">
        <ele>3.342169</ele>
        <time>2022-08-05T12:28:53.000Z</time>
      </trkpt>
      <trkpt lat="49.25894" lon="-0.25783">
        <ele>3.345291</ele>
        <time>2022-08-05T12:28:54.000Z</time>
      </trkpt>
      <trkpt lat="49.25892" lon="-0.25786">
        <ele>3.34766</ele>
        <time>2022-08-05T12:28:55.000Z</time>
      </trkpt>
      <trkpt lat="49.25888" lon="-0.2579">
        <ele>3.350755</ele>
        <time>2022-08-05T12:28:56.000Z</time>
      </trkpt>
      <trkpt lat="49.25884" lon="-0.25794">
        <ele>3.354432</ele>
        <time>2022-08-05T12:28:57.000Z</time>
      </trkpt>
      <trkpt lat="49.25881" lon="-0.25798">
        <ele>3.357123</ele>
        <time>2022-08-05T12:28:58.000Z</time>
      </trkpt>
      <trkpt lat="49.25878" lon="-0.25801">
        <ele>3.35967</ele>
        <time>2022-08-05T12:28:59.000Z</time>
      </trkpt>
      <trkpt lat="49.25874" lon="-0.25805">
        <ele>3.36314</ele>
        <time>2022-08-05T12:29:00.000Z</time>
      </trkpt>
      <trkpt lat="49.25871" lon="-0.25808">
        <ele>3.3658</ele>
        <time>2022-08-05T12:29:01.000Z</time>
      </trkpt>
      <trkpt lat="49.25868" lon="-0.25812">
        <ele>3.368903</ele>
        <time>2022-08-05T12:29:02.000Z</time>
      </trkpt>
      <trkpt lat="49.25865" lon="-0.25816">
        <ele>3.37188</ele>
        <time>2022-08-05T12:29:03.000Z</time>
      </trkpt>
      <trkpt lat="49.25862" lon="-0.25819">
        <ele>3.373961</ele>
        <time>2022-08-05T12:29:04.000Z</time>
      </trkpt>
      <trkpt lat="49.2586" lon="-0.25822">
        <ele>3.376708</ele>
        <time>2022-08-05T12:29:05.000Z</time>
      </trkpt>
      <trkpt lat="49.25857" lon="-0.25826">
        <ele>3.379395</ele>
        <time>2022-08-05T12:29:06.000Z</time>
      </trkpt>
      <trkpt lat="49.25854" lon="-0.25829">
        <ele>3.382025</ele>
        <time>2022-08-05T12:29:07.000Z</time>
      </trkpt>
      <trkpt lat="49.25851" lon="-0.25833">
        <ele>3.384887</ele>
        <time>2022-08-05T12:29:08.000Z</time>
      </trkpt>
      <trkpt lat="49.25848" lon="-0.25837">
        <ele>3.387664</ele>
        <time>2022-08-05T12:29:09.000Z</time>
      </trkpt>
      <trkpt lat="49.25844" lon="-0.25841">
        <ele>3.39093</ele>
        <time>2022-08-05T12:29:10.000Z</time>
      </trkpt>
      <trkpt lat="49.25841" lon="-0.25845">
        <ele>3.393677</ele>
        <time>2022-08-05T12:29:11.000Z</time>
      </trkpt>
      <trkpt lat="49.25838" lon="-0.25848">
        <ele>3.396306</ele>
        <time>2022-08-05T12:29:12.000Z</time>
      </trkpt>
      <trkpt lat="49.25836" lon="-0.25851">
        <ele>3.39845</ele>
        <time>2022-08-05T12:29:13.000Z</time>
      </trkpt>
      <trkpt lat="49.25833" lon="-0.25855">
        <ele>3.401743</ele>
        <time>2022-08-05T12:29:14.000Z</time>
      </trkpt>
      <trkpt lat="49.25831" lon="-0.25858">
        <ele>3.403662</ele>
        <time>2022-08-05T12:29:15.000Z</time>
      </trkpt>
      <trkpt lat="49.25828" lon="-0.25862">
        <ele>3.406791</ele>
        <time>2022-08-05T12:29:16.000Z</time>
      </trkpt>
      <trkpt lat="49.25826" lon="-0.25865">
        <ele>3.408632</ele>
        <time>2022-08-05T12:29:17.000Z</time>
      </trkpt>
      <trkpt lat="49.25824" lon="-0.25869">
        <ele>3.41094</ele>
        <time>2022-08-05T12:29:18.000Z</time>
      </trkpt>
      <trkpt lat="49.25821" lon="-0.25873">
        <ele>3.414102</ele>
        <time>2022-08-05T12:29:19.000Z</time>
      </trkpt>
      <trkpt lat="49.25818" lon="-0.25877">
        <ele>3.416717</ele>
        <time>2022-08-05T12:29:20.000Z</time>
      </trkpt>
      <trkpt lat="49.25816" lon="-0.25881">
        <ele>3.419202</ele>
        <time>2022-08-05T12:29:21.000Z</time>
      </trkpt>
      <trkpt lat="49.25814" lon="-0.25885">
        <ele>3.421232</ele>
        <time>2022-08-05T12:29:22.000Z</time>
      </trkpt>
      <trkpt lat="49.25812" lon="-0.2589">
        <ele>3.424256</ele>
        <time>2022-08-05T12:29:23.000Z</time>
      </trkpt>
      <trkpt lat="49.2581" lon="-0.25895">
        <ele>3.426901</ele>
        <time>2022-08-05T12:29:24.000Z</time>
      </trkpt>
      <trkpt lat="49.25809" lon="-0.259">
        <ele>3.429419</ele>
        <time>2022-08-05T12:29:25.000Z</time>
      </trkpt>
      <trkpt lat="49.25807" lon="-0.25903">
        <ele>3.431528</ele>
        <time>2022-08-05T12:29:26.000Z</time>
      </trkpt>
      <trkpt lat="49.25805" lon="-0.25908">
        <ele>3.433962</ele>
        <time>2022-08-05T12:29:27.000Z</time>
      </trkpt>
      <trkpt lat="49.25803" lon="-0.25912">
        <ele>3.436698</ele>
        <time>2022-08-05T12:29:28.000Z</time>
      </trkpt>
      <trkpt lat="49.25801" lon="-0.25918">
        <ele>3.439801</ele>
        <time>2022-08-05T12:29:29.000Z</time>
      </trkpt>
      <trkpt lat="49.25799" lon="-0.25921">
        <ele>3.441831</ele>
        <time>2022-08-05T12:29:30.000Z</time>
      </trkpt>
      <trkpt lat="49.25798" lon="-0.25925">
        <ele>3.444052</ele>
        <time>2022-08-05T12:29:31.000Z</time>
      </trkpt>
      <trkpt lat="49.25795" lon="-0.25931">
        <ele>3.444874</ele>
        <time>2022-08-05T12:29:32.000Z</time>
      </trkpt>
      <trkpt lat="49.25794" lon="-0.25935">
        <ele>3.445228</ele>
        <time>2022-08-05T12:29:33.000Z</time>
      </trkpt>
      <trkpt lat="49.25791" lon="-0.2594">
        <ele>3.445788</ele>
        <time>2022-08-05T12:29:34.000Z</time>
      </trkpt>
      <trkpt lat="49.25789" lon="-0.25944">
        <ele>3.446201</ele>
        <time>2022-08-05T12:29:35.000Z</time>
      </trkpt>
      <trkpt lat="49.25787" lon="-0.25948">
        <ele>3.44663</ele>
        <time>2022-08-05T12:29:36.000Z</time>
      </trkpt>
      <trkpt lat="49.25785" lon="-0.25953">
        <ele>3.447101</ele>
        <time>2022-08-05T12:29:37.000Z</time>
      </trkpt>
      <trkpt lat="49.25782" lon="-0.25958">
        <ele>3.447627</ele>
        <time>2022-08-05T12:29:38.000Z</time>
      </trkpt>
      <trkpt lat="49.25781" lon="-0.25962">
        <ele>3.447986</ele>
        <time>2022-08-05T12:29:39.000Z</time>
      </trkpt>
      <trkpt lat="49.25779" lon="-0.25966">
        <ele>3.448408</ele>
        <time>2022-08-05T12:29:40.000Z</time>
      </trkpt>
      <trkpt lat="49.25776" lon="-0.25971">
        <ele>3.448955</ele>
        <time>2022-08-05T12:29:41.000Z</time>
      </trkpt>
      <trkpt lat="49.25775" lon="-0.25976">
        <ele>3.449407</ele>
        <time>2022-08-05T12:29:42.000Z</time>
      </trkpt>
      <trkpt lat="49.25773" lon="-0.2598">
        <ele>3.449759</ele>
        <time>2022-08-05T12:29:43.000Z</time>
      </trkpt>
      <trkpt lat="49.25771" lon="-0.25984">
        <ele>3.450223</ele>
        <time>2022-08-05T12:29:44.000Z</time>
      </trkpt>
      <trkpt lat="49.25769" lon="-0.2599">
        <ele>3.450762</ele>
        <time>2022-08-05T12:29:45.000Z</time>
      </trkpt>
      <trkpt lat="49.25766" lon="-0.25994">
        <ele>3.451233</ele>
        <time>2022-08-05T12:29:46.000Z</time>
      </trkpt>
      <trkpt lat="49.25765" lon="-0.25999">
        <ele>3.451689</ele>
        <time>2022-08-05T12:29:47.000Z</time>
      </trkpt>
      <trkpt lat="49.25763" lon="-0.26003">
        <ele>3.452055</ele>
        <time>2022-08-05T12:29:48.000Z</time>
      </trkpt>
      <trkpt lat="49.25761" lon="-0.26007">
        <ele>3.452527</ele>
        <time>2022-08-05T12:29:49.000Z</time>
      </trkpt>
      <trkpt lat="49.25758" lon="-0.26012">
        <ele>3.453053</ele>
        <time>2022-08-05T12:29:50.000Z</time>
      </trkpt>
      <trkpt lat="49.25756" lon="-0.26017">
        <ele>3.453509</ele>
        <time>2022-08-05T12:29:51.000Z</time>
      </trkpt>
      <trkpt lat="49.25754" lon="-0.26022">
        <ele>3.453972</ele>
        <time>2022-08-05T12:29:52.000Z</time>
      </trkpt>
      <trkpt lat="49.25753" lon="-0.26025">
        <ele>3.454299</ele>
        <time>2022-08-05T12:29:53.000Z</time>
      </trkpt>
      <trkpt lat="49.25751" lon="-0.26031">
        <ele>3.454873</ele>
        <time>2022-08-05T12:29:54.000Z</time>
      </trkpt>
      <trkpt lat="49.25749" lon="-0.26036">
        <ele>3.455318</ele>
        <time>2022-08-05T12:29:55.000Z</time>
      </trkpt>
      <trkpt lat="49.25747" lon="-0.26041">
        <ele>3.455809</ele>
        <time>2022-08-05T12:29:56.000Z</time>
      </trkpt>
      <trkpt lat="49.25746" lon="-0.26046">
        <ele>3.4562</ele>
        <time>2022-08-05T12:29:57.000Z</time>
      </trkpt>
      <trkpt lat="49.25743" lon="-0.26051">
        <ele>3.456733</ele>
        <time>2022-08-05T12:29:58.000Z</time>
      </trkpt>
      <trkpt lat="49.25741" lon="-0.26058">
        <ele>3.457365</ele>
        <time>2022-08-05T12:29:59.000Z</time>
      </trkpt>
      <trkpt lat="49.25739" lon="-0.26063">
        <ele>3.457901</ele>
        <time>2022-08-05T12:30:00.000Z</time>
      </trkpt>
      <trkpt lat="49.25737" lon="-0.26068">
        <ele>3.458343</ele>
        <time>2022-08-05T12:30:01.000Z</time>
      </trkpt>
      <trkpt lat="49.25735" lon="-0.26074">
        <ele>3.458886</ele>
        <time>2022-08-05T12:30:02.000Z</time>
      </trkpt>
      <trkpt lat="49.25733" lon="-0.26081">
        <ele>3.45954</ele>
        <time>2022-08-05T12:30:03.000Z</time>
      </trkpt>
      <trkpt lat="49.25731" lon="-0.26087">
        <ele>3.460083</ele>
        <time>2022-08-05T12:30:04.000Z</time>
      </trkpt>
      <trkpt lat="49.25729" lon="-0.26093">
        <ele>3.460651</ele>
        <time>2022-08-05T12:30:05.000Z</time>
      </trkpt>
      <trkpt lat="49.25727" lon="-0.26097">
        <ele>3.461107</ele>
        <time>2022-08-05T12:30:06.000Z</time>
      </trkpt>
      <trkpt lat="49.25725" lon="-0.26104">
        <ele>3.461726</ele>
        <time>2022-08-05T12:30:07.000Z</time>
      </trkpt>
      <trkpt lat="49.25723" lon="-0.26109">
        <ele>3.462237</ele>
        <time>2022-08-05T12:30:08.000Z</time>
      </trkpt>
      <trkpt lat="49.25721" lon="-0.26115">
        <ele>3.462719</ele>
        <time>2022-08-05T12:30:09.000Z</time>
      </trkpt>
      <trkpt lat="49.25719" lon="-0.26119">
        <ele>3.463127</ele>
        <time>2022-08-05T12:30:10.000Z</time>
      </trkpt>
      <trkpt lat="49.25717" lon="-0.26125">
        <ele>3.463737</ele>
        <time>2022-08-05T12:30:11.000Z</time>
      </trkpt>
      <trkpt lat="49.25715" lon="-0.26131">
        <ele>3.464243</ele>
        <time>2022-08-05T12:30:12.000Z</time>
      </trkpt>
      <trkpt lat="49.25713" lon="-0.26136">
        <ele>3.464742</ele>
        <time>2022-08-05T12:30:13.000Z</time>
      </trkpt>
      <trkpt lat="49.25712" lon="-0.2614">
        <ele>3.465151</ele>
        <time>2022-08-05T12:30:14.000Z</time>
      </trkpt>
      <trkpt lat="49.2571" lon="-0.26146">
        <ele>3.465664</ele>
        <time>2022-08-05T12:30:15.000Z</time>
      </trkpt>
      <trkpt lat="49.25708" lon="-0.26152">
        <ele>3.466214</ele>
        <time>2022-08-05T12:30:16.000Z</time>
      </trkpt>
      <trkpt lat="49.25706" lon="-0.26157">
        <ele>3.466677</ele>
        <time>2022-08-05T12:30:17.000Z</time>
      </trkpt>
      <trkpt lat="49.25705" lon="-0.26161">
        <ele>3.467024</ele>
        <time>2022-08-05T12:30:18.000Z</time>
      </trkpt>
      <trkpt lat="49.25703" lon="-0.26164">
        <ele>3.46513</ele>
        <time>2022-08-05T12:30:19.000Z</time>
      </trkpt>
      <trkpt lat="49.25702" lon="-0.26169">
        <ele>3.4628</ele>
        <time>2022-08-05T12:30:20.000Z</time>
      </trkpt>
      <trkpt lat="49.257" lon="-0.26174">
        <ele>3.45999</ele>
        <time>2022-08-05T12:30:21.000Z</time>
      </trkpt>
      <trkpt lat="49.25699" lon="-0.26178">
        <ele>3.457794</ele>
        <time>2022-08-05T12:30:22.000Z</time>
      </trkpt>
      <trkpt lat="49.25697" lon="-0.26181">
        <ele>3.456028</ele>
        <time>2022-08-05T12:30:23.000Z</time>
      </trkpt>
      <trkpt lat="49.25696" lon="-0.26185">
        <ele>3.453781</ele>
        <time>2022-08-05T12:30:24.000Z</time>
      </trkpt>
      <trkpt lat="49.25694" lon="-0.2619">
        <ele>3.451335</ele>
        <time>2022-08-05T12:30:25.000Z</time>
      </trkpt>
      <trkpt lat="49.25693" lon="-0.26193">
        <ele>3.449208</ele>
        <time>2022-08-05T12:30:26.000Z</time>
      </trkpt>
      <trkpt lat="49.25692" lon="-0.26196">
        <ele>3.447679</ele>
        <time>2022-08-05T12:30:27.000Z</time>
      </trkpt>
      <trkpt lat="49.25691" lon="-0.262">
        <ele>3.4457</ele>
        <time>2022-08-05T12:30:28.000Z</time>
      </trkpt>
      <trkpt lat="49.25689" lon="-0.26203">
        <ele>3.44373</ele>
        <time>2022-08-05T12:30:29.000Z</time>
      </trkpt>
      <trkpt lat="49.25687" lon="-0.26207">
        <ele>3.441358</ele>
        <time>2022-08-05T12:30:30.000Z</time>
      </trkpt>
      <trkpt lat="49.25686" lon="-0.26211">
        <ele>3.439232</ele>
        <time>2022-08-05T12:30:31.000Z</time>
      </trkpt>
      <trkpt lat="49.25685" lon="-0.26214">
        <ele>3.437618</ele>
        <time>2022-08-05T12:30:32.000Z</time>
      </trkpt>
      <trkpt lat="49.25684" lon="-0.26218">
        <ele>3.435689</ele>
        <time>2022-08-05T12:30:33.000Z</time>
      </trkpt>
      <trkpt lat="49.25683" lon="-0.26222">
        <ele>3.433525</ele>
        <time>2022-08-05T12:30:34.000Z</time>
      </trkpt>
      <trkpt lat="49.25681" lon="-0.26226">
        <ele>3.431398</ele>
        <time>2022-08-05T12:30:35.000Z</time>
      </trkpt>
      <trkpt lat="49.25679" lon="-0.26229">
        <ele>3.429272</ele>
        <time>2022-08-05T12:30:36.000Z</time>
      </trkpt>
      <trkpt lat="49.25679" lon="-0.26232">
        <ele>3.427745</ele>
        <time>2022-08-05T12:30:37.000Z</time>
      </trkpt>
      <trkpt lat="49.25677" lon="-0.26237">
        <ele>3.425077</ele>
        <time>2022-08-05T12:30:38.000Z</time>
      </trkpt>
      <trkpt lat="49.25676" lon="-0.26241">
        <ele>3.422893</ele>
        <time>2022-08-05T12:30:39.000Z</time>
      </trkpt>
      <trkpt lat="49.25675" lon="-0.26246">
        <ele>3.420684</ele>
        <time>2022-08-05T12:30:40.000Z</time>
      </trkpt>
      <trkpt lat="49.25674" lon="-0.26249">
        <ele>3.418755</ele>
        <time>2022-08-05T12:30:41.000Z</time>
      </trkpt>
      <trkpt lat="49.25672" lon="-0.26254">
        <ele>3.416187</ele>
        <time>2022-08-05T12:30:42.000Z</time>
      </trkpt>
      <trkpt lat="49.2567" lon="-0.26259">
        <ele>3.413497</ele>
        <time>2022-08-05T12:30:43.000Z</time>
      </trkpt>
      <trkpt lat="49.25668" lon="-0.26265">
        <ele>3.41008</ele>
        <time>2022-08-05T12:30:44.000Z</time>
      </trkpt>
      <trkpt lat="49.25666" lon="-0.26269">
        <ele>3.407792</ele>
        <time>2022-08-05T12:30:45.000Z</time>
      </trkpt>
      <trkpt lat="49.25664" lon="-0.26274">
        <ele>3.404936</ele>
        <time>2022-08-05T12:30:46.000Z</time>
      </trkpt>
      <trkpt lat="49.25662" lon="-0.2628">
        <ele>3.401555</ele>
        <time>2022-08-05T12:30:47.000Z</time>
      </trkpt>
      <trkpt lat="49.25661" lon="-0.26284">
        <ele>3.399371</ele>
        <time>2022-08-05T12:30:48.000Z</time>
      </trkpt>
      <trkpt lat="49.25658" lon="-0.2629">
        <ele>3.396118</ele>
        <time>2022-08-05T12:30:49.000Z</time>
      </trkpt>
      <trkpt lat="49.25656" lon="-0.26295">
        <ele>3.393345</ele>
        <time>2022-08-05T12:30:50.000Z</time>
      </trkpt>
      <trkpt lat="49.25653" lon="-0.26301">
        <ele>3.389895</ele>
        <time>2022-08-05T12:30:51.000Z</time>
      </trkpt>
      <trkpt lat="49.25652" lon="-0.26305">
        <ele>3.387639</ele>
        <time>2022-08-05T12:30:52.000Z</time>
      </trkpt>
      <trkpt lat="49.25649" lon="-0.2631">
        <ele>3.384549</ele>
        <time>2022-08-05T12:30:53.000Z</time>
      </trkpt>
      <trkpt lat="49.25648" lon="-0.26314">
        <ele>3.382301</ele>
        <time>2022-08-05T12:30:54.000Z</time>
      </trkpt>
      <trkpt lat="49.25646" lon="-0.26319">
        <ele>3.379652</ele>
        <time>2022-08-05T12:30:55.000Z</time>
      </trkpt>
      <trkpt lat="49.25643" lon="-0.26324">
        <ele>3.376359</ele>
        <time>2022-08-05T12:30:56.000Z</time>
      </trkpt>
      <trkpt lat="49.25642" lon="-0.26328">
        <ele>3.374152</ele>
        <time>2022-08-05T12:30:57.000Z</time>
      </trkpt>
      <trkpt lat="49.25639" lon="-0.26334">
        <ele>3.370781</ele>
        <time>2022-08-05T12:30:58.000Z</time>
      </trkpt>
      <trkpt lat="49.25637" lon="-0.26338">
        <ele>3.368411</ele>
        <time>2022-08-05T12:30:59.000Z</time>
      </trkpt>
      <trkpt lat="49.25635" lon="-0.26343">
        <ele>3.365721</ele>
        <time>2022-08-05T12:31:00.000Z</time>
      </trkpt>
      <trkpt lat="49.25632" lon="-0.26348">
        <ele>3.362333</ele>
        <time>2022-08-05T12:31:01.000Z</time>
      </trkpt>
      <trkpt lat="49.2563" lon="-0.26353">
        <ele>3.359484</ele>
        <time>2022-08-05T12:31:02.000Z</time>
      </trkpt>
      <trkpt lat="49.25628" lon="-0.26357">
        <ele>3.357303</ele>
        <time>2022-08-05T12:31:03.000Z</time>
      </trkpt>
      <trkpt lat="49.25626" lon="-0.26362">
        <ele>3.354332</ele>
        <time>2022-08-05T12:31:04.000Z</time>
      </trkpt>
      <trkpt lat="49.25624" lon="-0.26365">
        <ele>3.352324</ele>
        <time>2022-08-05T12:31:05.000Z</time>
      </trkpt>
      <trkpt lat="49.25622" lon="-0.26369">
        <ele>3.34989</ele>
        <time>2022-08-05T12:31:06.000Z</time>
      </trkpt>
      <trkpt lat="49.2562" lon="-0.26374">
        <ele>3.347152</ele>
        <time>2022-08-05T12:31:07.000Z</time>
      </trkpt>
      <trkpt lat="49.25618" lon="-0.26376">
        <ele>3.345217</ele>
        <time>2022-08-05T12:31:08.000Z</time>
      </trkpt>
      <trkpt lat="49.25616" lon="-0.2638">
        <ele>3.343036</ele>
        <time>2022-08-05T12:31:09.000Z</time>
      </trkpt>
      <trkpt lat="49.25614" lon="-0.26384">
        <ele>3.340665</ele>
        <time>2022-08-05T12:31:10.000Z</time>
      </trkpt>
      <trkpt lat="49.25613" lon="-0.26386">
        <ele>3.339134</ele>
        <time>2022-08-05T12:31:11.000Z</time>
      </trkpt>
      <trkpt lat="49.25611" lon="-0.26389">
        <ele>3.337277</ele>
        <time>2022-08-05T12:31:12.000Z</time>
      </trkpt>
      <trkpt lat="49.2561" lon="-0.26392">
        <ele>3.335634</ele>
        <time>2022-08-05T12:31:13.000Z</time>
      </trkpt>
      <trkpt lat="49.25608" lon="-0.26394">
        <ele>3.336609</ele>
        <time>2022-08-05T12:31:14.000Z</time>
      </trkpt>
      <trkpt lat="49.25606" lon="-0.26398">
        <ele>3.340161</ele>
        <time>2022-08-05T12:31:16.000Z</time>
      </trkpt>
      <trkpt lat="49.25605" lon="-0.26401">
        <ele>3.342232</ele>
        <time>2022-08-05T12:31:17.000Z</time>
      </trkpt>
      <trkpt lat="49.25604" lon="-0.26403">
        <ele>3.344249</ele>
        <time>2022-08-05T12:31:18.000Z</time>
      </trkpt>
      <trkpt lat="49.25602" lon="-0.26407">
        <ele>3.348015</ele>
        <time>2022-08-05T12:31:20.000Z</time>
      </trkpt>
      <trkpt lat="49.256" lon="-0.26412">
        <ele>3.351742</ele>
        <time>2022-08-05T12:31:22.000Z</time>
      </trkpt>
      <trkpt lat="49.25597" lon="-0.26416">
        <ele>3.355988</ele>
        <time>2022-08-05T12:31:24.000Z</time>
      </trkpt>
      <trkpt lat="49.25595" lon="-0.26421">
        <ele>3.359848</ele>
        <time>2022-08-05T12:31:26.000Z</time>
      </trkpt>
      <trkpt lat="49.25594" lon="-0.26423">
        <ele>3.361997</ele>
        <time>2022-08-05T12:31:27.000Z</time>
      </trkpt>
      <trkpt lat="49.25592" lon="-0.26426">
        <ele>3.365159</ele>
        <time>2022-08-05T12:31:28.000Z</time>
      </trkpt>
      <trkpt lat="49.2559" lon="-0.26429">
        <ele>3.367534</ele>
        <time>2022-08-05T12:31:29.000Z</time>
      </trkpt>
      <trkpt lat="49.25588" lon="-0.26431">
        <ele>3.37063</ele>
        <time>2022-08-05T12:31:30.000Z</time>
      </trkpt>
      <trkpt lat="49.25586" lon="-0.26434">
        <ele>3.373515</ele>
        <time>2022-08-05T12:31:31.000Z</time>
      </trkpt>
      <trkpt lat="49.25584" lon="-0.26437">
        <ele>3.376624</ele>
        <time>2022-08-05T12:31:32.000Z</time>
      </trkpt>
      <trkpt lat="49.25582" lon="-0.26441">
        <ele>3.37968</ele>
        <time>2022-08-05T12:31:33.000Z</time>
      </trkpt>
      <trkpt lat="49.25581" lon="-0.26443">
        <ele>3.381829</ele>
        <time>2022-08-05T12:31:34.000Z</time>
      </trkpt>
      <trkpt lat="49.25579" lon="-0.26446">
        <ele>3.385495</ele>
        <time>2022-08-05T12:31:35.000Z</time>
      </trkpt>
      <trkpt lat="49.25577" lon="-0.26449">
        <ele>3.38798</ele>
        <time>2022-08-05T12:31:36.000Z</time>
      </trkpt>
      <trkpt lat="49.25576" lon="-0.26452">
        <ele>3.390505</ele>
        <time>2022-08-05T12:31:37.000Z</time>
      </trkpt>
      <trkpt lat="49.25573" lon="-0.26456">
        <ele>3.394594</ele>
        <time>2022-08-05T12:31:38.000Z</time>
      </trkpt>
      <trkpt lat="49.25571" lon="-0.26459">
        <ele>3.397448</ele>
        <time>2022-08-05T12:31:39.000Z</time>
      </trkpt>
      <trkpt lat="49.25569" lon="-0.26462">
        <ele>3.401194</ele>
        <time>2022-08-05T12:31:40.000Z</time>
      </trkpt>
      <trkpt lat="49.25566" lon="-0.26466">
        <ele>3.404836</ele>
        <time>2022-08-05T12:31:41.000Z</time>
      </trkpt>
      <trkpt lat="49.25563" lon="-0.26471">
        <ele>3.409585</ele>
        <time>2022-08-05T12:31:42.000Z</time>
      </trkpt>
      <trkpt lat="49.25561" lon="-0.26474">
        <ele>3.413066</ele>
        <time>2022-08-05T12:31:43.000Z</time>
      </trkpt>
      <trkpt lat="49.25557" lon="-0.26479">
        <ele>3.418013</ele>
        <time>2022-08-05T12:31:44.000Z</time>
      </trkpt>
      <trkpt lat="49.25555" lon="-0.26483">
        <ele>3.422157</ele>
        <time>2022-08-05T12:31:45.000Z</time>
      </trkpt>
      <trkpt lat="49.25552" lon="-0.26487">
        <ele>3.426428</ele>
        <time>2022-08-05T12:31:46.000Z</time>
      </trkpt>
      <trkpt lat="49.25549" lon="-0.2649">
        <ele>3.429887</ele>
        <time>2022-08-05T12:31:47.000Z</time>
      </trkpt>
      <trkpt lat="49.25547" lon="-0.26495">
        <ele>3.434178</ele>
        <time>2022-08-05T12:31:48.000Z</time>
      </trkpt>
      <trkpt lat="49.25544" lon="-0.26499">
        <ele>3.438748</ele>
        <time>2022-08-05T12:31:49.000Z</time>
      </trkpt>
      <trkpt lat="49.25541" lon="-0.26503">
        <ele>3.442788</ele>
        <time>2022-08-05T12:31:50.000Z</time>
      </trkpt>
      <trkpt lat="49.25538" lon="-0.26507">
        <ele>3.446628</ele>
        <time>2022-08-05T12:31:51.000Z</time>
      </trkpt>
      <trkpt lat="49.25536" lon="-0.2651">
        <ele>3.450294</ele>
        <time>2022-08-05T12:31:52.000Z</time>
      </trkpt>
      <trkpt lat="49.25533" lon="-0.26514">
        <ele>3.45455</ele>
        <time>2022-08-05T12:31:53.000Z</time>
      </trkpt>
      <trkpt lat="49.2553" lon="-0.26517">
        <ele>3.45839</ele>
        <time>2022-08-05T12:31:54.000Z</time>
      </trkpt>
      <trkpt lat="49.25527" lon="-0.26521">
        <ele>3.462521</ele>
        <time>2022-08-05T12:31:55.000Z</time>
      </trkpt>
      <trkpt lat="49.25525" lon="-0.26524">
        <ele>3.465709</ele>
        <time>2022-08-05T12:31:56.000Z</time>
      </trkpt>
      <trkpt lat="49.25522" lon="-0.26528">
        <ele>3.469598</ele>
        <time>2022-08-05T12:31:57.000Z</time>
      </trkpt>
      <trkpt lat="49.2552" lon="-0.26532">
        <ele>3.47336</ele>
        <time>2022-08-05T12:31:58.000Z</time>
      </trkpt>
      <trkpt lat="49.25516" lon="-0.26536">
        <ele>3.478306</ele>
        <time>2022-08-05T12:31:59.000Z</time>
      </trkpt>
      <trkpt lat="49.25513" lon="-0.2654">
        <ele>3.482561</ele>
        <time>2022-08-05T12:32:00.000Z</time>
      </trkpt>
      <trkpt lat="49.25511" lon="-0.26542">
        <ele>3.485741</ele>
        <time>2022-08-05T12:32:01.000Z</time>
      </trkpt>
      <trkpt lat="49.25507" lon="-0.26547">
        <ele>3.490813</ele>
        <time>2022-08-05T12:32:02.000Z</time>
      </trkpt>
      <trkpt lat="49.25504" lon="-0.2655">
        <ele>3.494988</ele>
        <time>2022-08-05T12:32:03.000Z</time>
      </trkpt>
      <trkpt lat="49.25501" lon="-0.26554">
        <ele>3.499327</ele>
        <time>2022-08-05T12:32:04.000Z</time>
      </trkpt>
      <trkpt lat="49.25497" lon="-0.26557">
        <ele>3.503667</ele>
        <time>2022-08-05T12:32:05.000Z</time>
      </trkpt>
      <trkpt lat="49.25494" lon="-0.26561">
        <ele>3.507577</ele>
        <time>2022-08-05T12:32:06.000Z</time>
      </trkpt>
      <trkpt lat="49.25491" lon="-0.26564">
        <ele>3.511832</ele>
        <time>2022-08-05T12:32:07.000Z</time>
      </trkpt>
      <trkpt lat="49.25488" lon="-0.26568">
        <ele>3.516088</ele>
        <time>2022-08-05T12:32:08.000Z</time>
      </trkpt>
      <trkpt lat="49.25485" lon="-0.26571">
        <ele>3.520427</ele>
        <time>2022-08-05T12:32:09.000Z</time>
      </trkpt>
      <trkpt lat="49.25482" lon="-0.26574">
        <ele>3.52395</ele>
        <time>2022-08-05T12:32:10.000Z</time>
      </trkpt>
      <trkpt lat="49.25479" lon="-0.26577">
        <ele>3.527494</ele>
        <time>2022-08-05T12:32:11.000Z</time>
      </trkpt>
      <trkpt lat="49.25478" lon="-0.26579">
        <ele>3.529488</ele>
        <time>2022-08-05T12:32:12.000Z</time>
      </trkpt>
      <trkpt lat="49.25476" lon="-0.26581">
        <ele>3.529495</ele>
        <time>2022-08-05T12:32:13.000Z</time>
      </trkpt>
      <trkpt lat="49.25475" lon="-0.26584">
        <ele>3.529276</ele>
        <time>2022-08-05T12:32:14.000Z</time>
      </trkpt>
      <trkpt lat="49.25472" lon="-0.26587">
        <ele>3.528975</ele>
        <time>2022-08-05T12:32:15.000Z</time>
      </trkpt>
      <trkpt lat="49.2547" lon="-0.2659">
        <ele>3.528726</ele>
        <time>2022-08-05T12:32:16.000Z</time>
      </trkpt>
      <trkpt lat="49.25469" lon="-0.26592">
        <ele>3.528525</ele>
        <time>2022-08-05T12:32:17.000Z</time>
      </trkpt>
      <trkpt lat="49.25467" lon="-0.26595">
        <ele>3.528255</ele>
        <time>2022-08-05T12:32:18.000Z</time>
      </trkpt>
      <trkpt lat="49.25463" lon="-0.26598">
        <ele>3.527885</ele>
        <time>2022-08-05T12:32:19.000Z</time>
      </trkpt>
      <trkpt lat="49.25461" lon="-0.266">
        <ele>3.527656</ele>
        <time>2022-08-05T12:32:20.000Z</time>
      </trkpt>
      <trkpt lat="49.25459" lon="-0.26603">
        <ele>3.527363</ele>
        <time>2022-08-05T12:32:21.000Z</time>
      </trkpt>
      <trkpt lat="49.25456" lon="-0.26605">
        <ele>3.527045</ele>
        <time>2022-08-05T12:32:22.000Z</time>
      </trkpt>
      <trkpt lat="49.25453" lon="-0.26608">
        <ele>3.52672</ele>
        <time>2022-08-05T12:32:23.000Z</time>
      </trkpt>
      <trkpt lat="49.2545" lon="-0.26611">
        <ele>3.526332</ele>
        <time>2022-08-05T12:32:24.000Z</time>
      </trkpt>
      <trkpt lat="49.25447" lon="-0.26614">
        <ele>3.526007</ele>
        <time>2022-08-05T12:32:25.000Z</time>
      </trkpt>
      <trkpt lat="49.25444" lon="-0.26616">
        <ele>3.525654</ele>
        <time>2022-08-05T12:32:26.000Z</time>
      </trkpt>
      <trkpt lat="49.25442" lon="-0.26619">
        <ele>3.525419</ele>
        <time>2022-08-05T12:32:27.000Z</time>
      </trkpt>
      <trkpt lat="49.25438" lon="-0.26622">
        <ele>3.525038</ele>
        <time>2022-08-05T12:32:28.000Z</time>
      </trkpt>
      <trkpt lat="49.25435" lon="-0.26626">
        <ele>3.524672</ele>
        <time>2022-08-05T12:32:29.000Z</time>
      </trkpt>
      <trkpt lat="49.25433" lon="-0.26628">
        <ele>3.524421</ele>
        <time>2022-08-05T12:32:30.000Z</time>
      </trkpt>
      <trkpt lat="49.25429" lon="-0.26631">
        <ele>3.523988</ele>
        <time>2022-08-05T12:32:31.000Z</time>
      </trkpt>
      <trkpt lat="49.25427" lon="-0.26634">
        <ele>3.523725</ele>
        <time>2022-08-05T12:32:32.000Z</time>
      </trkpt>
      <trkpt lat="49.25423" lon="-0.26637">
        <ele>3.523325</ele>
        <time>2022-08-05T12:32:33.000Z</time>
      </trkpt>
      <trkpt lat="49.25421" lon="-0.2664">
        <ele>3.523028</ele>
        <time>2022-08-05T12:32:34.000Z</time>
      </trkpt>
      <trkpt lat="49.25418" lon="-0.26643">
        <ele>3.522672</ele>
        <time>2022-08-05T12:32:35.000Z</time>
      </trkpt>
      <trkpt lat="49.25415" lon="-0.26645">
        <ele>3.522427</ele>
        <time>2022-08-05T12:32:36.000Z</time>
      </trkpt>
      <trkpt lat="49.25412" lon="-0.26648">
        <ele>3.52204</ele>
        <time>2022-08-05T12:32:37.000Z</time>
      </trkpt>
      <trkpt lat="49.25409" lon="-0.2665">
        <ele>3.521754</ele>
        <time>2022-08-05T12:32:38.000Z</time>
      </trkpt>
      <trkpt lat="49.25407" lon="-0.26652">
        <ele>3.521509</ele>
        <time>2022-08-05T12:32:39.000Z</time>
      </trkpt>
      <trkpt lat="49.25404" lon="-0.26655">
        <ele>3.521131</ele>
        <time>2022-08-05T12:32:40.000Z</time>
      </trkpt>
      <trkpt lat="49.25402" lon="-0.26657">
        <ele>3.520903</ele>
        <time>2022-08-05T12:32:41.000Z</time>
      </trkpt>
      <trkpt lat="49.25399" lon="-0.26659">
        <ele>3.520584</ele>
        <time>2022-08-05T12:32:42.000Z</time>
      </trkpt>
      <trkpt lat="49.25396" lon="-0.26662">
        <ele>3.520266</ele>
        <time>2022-08-05T12:32:43.000Z</time>
      </trkpt>
      <trkpt lat="49.25393" lon="-0.26665">
        <ele>3.519906</ele>
        <time>2022-08-05T12:32:44.000Z</time>
      </trkpt>
      <trkpt lat="49.2539" lon="-0.26666">
        <ele>3.519673</ele>
        <time>2022-08-05T12:32:45.000Z</time>
      </trkpt>
      <trkpt lat="49.25387" lon="-0.26669">
        <ele>3.519303</ele>
        <time>2022-08-05T12:32:46.000Z</time>
      </trkpt>
      <trkpt lat="49.25384" lon="-0.26671">
        <ele>3.518972</ele>
        <time>2022-08-05T12:32:47.000Z</time>
      </trkpt>
      <trkpt lat="49.25382" lon="-0.26672">
        <ele>3.518767</ele>
        <time>2022-08-05T12:32:48.000Z</time>
      </trkpt>
      <trkpt lat="49.25379" lon="-0.26674">
        <ele>3.518491</ele>
        <time>2022-08-05T12:32:49.000Z</time>
      </trkpt>
      <trkpt lat="49.25376" lon="-0.26677">
        <ele>3.518147</ele>
        <time>2022-08-05T12:32:50.000Z</time>
      </trkpt>
      <trkpt lat="49.25373" lon="-0.26679">
        <ele>3.517869</ele>
        <time>2022-08-05T12:32:51.000Z</time>
      </trkpt>
      <trkpt lat="49.25371" lon="-0.2668">
        <ele>3.517643</ele>
        <time>2022-08-05T12:32:52.000Z</time>
      </trkpt>
      <trkpt lat="49.25369" lon="-0.26682">
        <ele>3.517404</ele>
        <time>2022-08-05T12:32:53.000Z</time>
      </trkpt>
      <trkpt lat="49.25366" lon="-0.26684">
        <ele>3.517099</ele>
        <time>2022-08-05T12:32:54.000Z</time>
      </trkpt>
      <trkpt lat="49.25363" lon="-0.26687">
        <ele>3.516774</ele>
        <time>2022-08-05T12:32:55.000Z</time>
      </trkpt>
      <trkpt lat="49.25361" lon="-0.26689">
        <ele>3.516496</ele>
        <time>2022-08-05T12:32:56.000Z</time>
      </trkpt>
      <trkpt lat="49.25359" lon="-0.2669">
        <ele>3.516282</ele>
        <time>2022-08-05T12:32:57.000Z</time>
      </trkpt>
      <trkpt lat="49.25356" lon="-0.26692">
        <ele>3.515977</ele>
        <time>2022-08-05T12:32:58.000Z</time>
      </trkpt>
      <trkpt lat="49.25353" lon="-0.26695">
        <ele>3.51567</ele>
        <time>2022-08-05T12:32:59.000Z</time>
      </trkpt>
      <trkpt lat="49.2535" lon="-0.26697">
        <ele>3.51537</ele>
        <time>2022-08-05T12:33:00.000Z</time>
      </trkpt>
      <trkpt lat="49.25348" lon="-0.26698">
        <ele>3.515159</ele>
        <time>2022-08-05T12:33:01.000Z</time>
      </trkpt>
      <trkpt lat="49.25346" lon="-0.267">
        <ele>3.514881</ele>
        <time>2022-08-05T12:33:02.000Z</time>
      </trkpt>
      <trkpt lat="49.25343" lon="-0.26702">
        <ele>3.514607</ele>
        <time>2022-08-05T12:33:03.000Z</time>
      </trkpt>
      <trkpt lat="49.2534" lon="-0.26704">
        <ele>3.514276</ele>
        <time>2022-08-05T12:33:04.000Z</time>
      </trkpt>
      <trkpt lat="49.25338" lon="-0.26706">
        <ele>3.514066</ele>
        <time>2022-08-05T12:33:05.000Z</time>
      </trkpt>
      <trkpt lat="49.25335" lon="-0.26708">
        <ele>3.513747</ele>
        <time>2022-08-05T12:33:06.000Z</time>
      </trkpt>
      <trkpt lat="49.25333" lon="-0.2671">
        <ele>3.513526</ele>
        <time>2022-08-05T12:33:07.000Z</time>
      </trkpt>
      <trkpt lat="49.2533" lon="-0.26713">
        <ele>3.513188</ele>
        <time>2022-08-05T12:33:08.000Z</time>
      </trkpt>
      <trkpt lat="49.25328" lon="-0.26715">
        <ele>3.512943</ele>
        <time>2022-08-05T12:33:09.000Z</time>
      </trkpt>
      <trkpt lat="49.25326" lon="-0.26716">
        <ele>3.512746</ele>
        <time>2022-08-05T12:33:10.000Z</time>
      </trkpt>
      <trkpt lat="49.25324" lon="-0.26717">
        <ele>3.512506</ele>
        <time>2022-08-05T12:33:11.000Z</time>
      </trkpt>
      <trkpt lat="49.25322" lon="-0.26719">
        <ele>3.509089</ele>
        <time>2022-08-05T12:33:12.000Z</time>
      </trkpt>
      <trkpt lat="49.25319" lon="-0.2672">
        <ele>3.504858</ele>
        <time>2022-08-05T12:33:13.000Z</time>
      </trkpt>
      <trkpt lat="49.25317" lon="-0.26721">
        <ele>3.501195</ele>
        <time>2022-08-05T12:33:14.000Z</time>
      </trkpt>
      <trkpt lat="49.25316" lon="-0.26723">
        <ele>3.49744</ele>
        <time>2022-08-05T12:33:15.000Z</time>
      </trkpt>
      <trkpt lat="49.25312" lon="-0.26725">
        <ele>3.491367</ele>
        <time>2022-08-05T12:33:17.000Z</time>
      </trkpt>
      <trkpt lat="49.2531" lon="-0.26727">
        <ele>3.487251</ele>
        <time>2022-08-05T12:33:19.000Z</time>
      </trkpt>
      <trkpt lat="49.25308" lon="-0.2673">
        <ele>3.481678</ele>
        <time>2022-08-05T12:33:21.000Z</time>
      </trkpt>
      <trkpt lat="49.25307" lon="-0.26733">
        <ele>3.478118</ele>
        <time>2022-08-05T12:33:22.000Z</time>
      </trkpt>
      <trkpt lat="49.25306" lon="-0.26735">
        <ele>3.474263</ele>
        <time>2022-08-05T12:33:23.000Z</time>
      </trkpt>
      <trkpt lat="49.25304" lon="-0.26738">
        <ele>3.469863</ele>
        <time>2022-08-05T12:33:24.000Z</time>
      </trkpt>
      <trkpt lat="49.25301" lon="-0.2674">
        <ele>3.464469</ele>
        <time>2022-08-05T12:33:25.000Z</time>
      </trkpt>
      <trkpt lat="49.25298" lon="-0.26743">
        <ele>3.458678</ele>
        <time>2022-08-05T12:33:26.000Z</time>
      </trkpt>
      <trkpt lat="49.25295" lon="-0.26745">
        <ele>3.453096</ele>
        <time>2022-08-05T12:33:27.000Z</time>
      </trkpt>
      <trkpt lat="49.25292" lon="-0.26747">
        <ele>3.446243</ele>
        <time>2022-08-05T12:33:28.000Z</time>
      </trkpt>
      <trkpt lat="49.25289" lon="-0.2675">
        <ele>3.439983</ele>
        <time>2022-08-05T12:33:29.000Z</time>
      </trkpt>
      <trkpt lat="49.25285" lon="-0.26753">
        <ele>3.432471</ele>
        <time>2022-08-05T12:33:30.000Z</time>
      </trkpt>
      <trkpt lat="49.25282" lon="-0.26755">
        <ele>3.426261</ele>
        <time>2022-08-05T12:33:31.000Z</time>
      </trkpt>
      <trkpt lat="49.25279" lon="-0.26757">
        <ele>3.421766</ele>
        <time>2022-08-05T12:33:32.000Z</time>
      </trkpt>
      <trkpt lat="49.25276" lon="-0.2676">
        <ele>3.415348</ele>
        <time>2022-08-05T12:33:33.000Z</time>
      </trkpt>
      <trkpt lat="49.25274" lon="-0.26762">
        <ele>3.410183</ele>
        <time>2022-08-05T12:33:34.000Z</time>
      </trkpt>
      <trkpt lat="49.2527" lon="-0.26764">
        <ele>3.403398</ele>
        <time>2022-08-05T12:33:35.000Z</time>
      </trkpt>
      <trkpt lat="49.25268" lon="-0.26766">
        <ele>3.398807</ele>
        <time>2022-08-05T12:33:36.000Z</time>
      </trkpt>
      <trkpt lat="49.25265" lon="-0.26768">
        <ele>3.393798</ele>
        <time>2022-08-05T12:33:37.000Z</time>
      </trkpt>
      <trkpt lat="49.25262" lon="-0.26771">
        <ele>3.387635</ele>
        <time>2022-08-05T12:33:38.000Z</time>
      </trkpt>
      <trkpt lat="49.25259" lon="-0.26773">
        <ele>3.381324</ele>
        <time>2022-08-05T12:33:39.000Z</time>
      </trkpt>
      <trkpt lat="49.25256" lon="-0.26775">
        <ele>3.375586</ele>
        <time>2022-08-05T12:33:40.000Z</time>
      </trkpt>
      <trkpt lat="49.25254" lon="-0.26777">
        <ele>3.371091</ele>
        <time>2022-08-05T12:33:41.000Z</time>
      </trkpt>
      <trkpt lat="49.25251" lon="-0.2678">
        <ele>3.3653</ele>
        <time>2022-08-05T12:33:42.000Z</time>
      </trkpt>
      <trkpt lat="49.25248" lon="-0.26782">
        <ele>3.359664</ele>
        <time>2022-08-05T12:33:43.000Z</time>
      </trkpt>
      <trkpt lat="49.25244" lon="-0.26785">
        <ele>3.352304</ele>
        <time>2022-08-05T12:33:44.000Z</time>
      </trkpt>
      <trkpt lat="49.25242" lon="-0.26787">
        <ele>3.34754</ele>
        <time>2022-08-05T12:33:45.000Z</time>
      </trkpt>
      <trkpt lat="49.25238" lon="-0.26789">
        <ele>3.340849</ele>
        <time>2022-08-05T12:33:46.000Z</time>
      </trkpt>
      <trkpt lat="49.25235" lon="-0.26791">
        <ele>3.334157</ele>
        <time>2022-08-05T12:33:47.000Z</time>
      </trkpt>
      <trkpt lat="49.25232" lon="-0.26794">
        <ele>3.327625</ele>
        <time>2022-08-05T12:33:48.000Z</time>
      </trkpt>
      <trkpt lat="49.25229" lon="-0.26796">
        <ele>3.322513</ele>
        <time>2022-08-05T12:33:49.000Z</time>
      </trkpt>
      <trkpt lat="49.25226" lon="-0.26799">
        <ele>3.316303</ele>
        <time>2022-08-05T12:33:50.000Z</time>
      </trkpt>
      <trkpt lat="49.25223" lon="-0.26801">
        <ele>3.310092</ele>
        <time>2022-08-05T12:33:51.000Z</time>
      </trkpt>
      <trkpt lat="49.25219" lon="-0.26804">
        <ele>3.302581</ele>
        <time>2022-08-05T12:33:52.000Z</time>
      </trkpt>
      <trkpt lat="49.25216" lon="-0.26807">
        <ele>3.296162</ele>
        <time>2022-08-05T12:33:53.000Z</time>
      </trkpt>
      <trkpt lat="49.25213" lon="-0.26809">
        <ele>3.290575</ele>
        <time>2022-08-05T12:33:54.000Z</time>
      </trkpt>
      <trkpt lat="49.25209" lon="-0.26811">
        <ele>3.283789</ele>
        <time>2022-08-05T12:33:55.000Z</time>
      </trkpt>
      <trkpt lat="49.25206" lon="-0.26813">
        <ele>3.277579</ele>
        <time>2022-08-05T12:33:56.000Z</time>
      </trkpt>
      <trkpt lat="49.25202" lon="-0.26817">
        <ele>3.269337</ele>
        <time>2022-08-05T12:33:57.000Z</time>
      </trkpt>
      <trkpt lat="49.25198" lon="-0.26819">
        <ele>3.262552</ele>
        <time>2022-08-05T12:33:58.000Z</time>
      </trkpt>
      <trkpt lat="49.25196" lon="-0.26821">
        <ele>3.257333</ele>
        <time>2022-08-05T12:33:59.000Z</time>
      </trkpt>
      <trkpt lat="49.25192" lon="-0.26824">
        <ele>3.250021</ele>
        <time>2022-08-05T12:34:00.000Z</time>
      </trkpt>
      <trkpt lat="49.25189" lon="-0.26827">
        <ele>3.243602</ele>
        <time>2022-08-05T12:34:01.000Z</time>
      </trkpt>
      <trkpt lat="49.25185" lon="-0.26829">
        <ele>3.236717</ele>
        <time>2022-08-05T12:34:02.000Z</time>
      </trkpt>
      <trkpt lat="49.25181" lon="-0.26832">
        <ele>3.229244</ele>
        <time>2022-08-05T12:34:03.000Z</time>
      </trkpt>
      <trkpt lat="49.25178" lon="-0.26835">
        <ele>3.222712</ele>
        <time>2022-08-05T12:34:04.000Z</time>
      </trkpt>
      <trkpt lat="49.25175" lon="-0.26837">
        <ele>3.215877</ele>
        <time>2022-08-05T12:34:05.000Z</time>
      </trkpt>
      <trkpt lat="49.25171" lon="-0.26841">
        <ele>3.207793</ele>
        <time>2022-08-05T12:34:06.000Z</time>
      </trkpt>
      <trkpt lat="49.25167" lon="-0.26843">
        <ele>3.20163</ele>
        <time>2022-08-05T12:34:07.000Z</time>
      </trkpt>
      <trkpt lat="49.25164" lon="-0.26845">
        <ele>3.193801</ele>
        <time>2022-08-05T12:34:08.000Z</time>
      </trkpt>
      <trkpt lat="49.2516" lon="-0.26848">
        <ele>3.186391</ele>
        <time>2022-08-05T12:34:09.000Z</time>
      </trkpt>
      <trkpt lat="49.25156" lon="-0.26851">
        <ele>3.176996</ele>
        <time>2022-08-05T12:34:10.000Z</time>
      </trkpt>
      <trkpt lat="49.25152" lon="-0.26854">
        <ele>3.168203</ele>
        <time>2022-08-05T12:34:11.000Z</time>
      </trkpt>
      <trkpt lat="49.25149" lon="-0.26857">
        <ele>3.161579</ele>
        <time>2022-08-05T12:34:12.000Z</time>
      </trkpt>
      <trkpt lat="49.25146" lon="-0.26859">
        <ele>3.153025</ele>
        <time>2022-08-05T12:34:13.000Z</time>
      </trkpt>
      <trkpt lat="49.25142" lon="-0.26862">
        <ele>3.145483</ele>
        <time>2022-08-05T12:34:14.000Z</time>
      </trkpt>
      <trkpt lat="49.25138" lon="-0.26865">
        <ele>3.134917</ele>
        <time>2022-08-05T12:34:15.000Z</time>
      </trkpt>
      <trkpt lat="49.25135" lon="-0.26868">
        <ele>3.128231</ele>
        <time>2022-08-05T12:34:16.000Z</time>
      </trkpt>
      <trkpt lat="49.25131" lon="-0.26871">
        <ele>3.119678</ele>
        <time>2022-08-05T12:34:17.000Z</time>
      </trkpt>
      <trkpt lat="49.25127" lon="-0.26873">
        <ele>3.110941</ele>
        <time>2022-08-05T12:34:18.000Z</time>
      </trkpt>
      <trkpt lat="49.25124" lon="-0.26876">
        <ele>3.10287</ele>
        <time>2022-08-05T12:34:19.000Z</time>
      </trkpt>
      <trkpt lat="49.25119" lon="-0.2688">
        <ele>3.092632</ele>
        <time>2022-08-05T12:34:20.000Z</time>
      </trkpt>
      <trkpt lat="49.25115" lon="-0.26882">
        <ele>3.084191</ele>
        <time>2022-08-05T12:34:21.000Z</time>
      </trkpt>
      <trkpt lat="49.25112" lon="-0.26885">
        <ele>3.077076</ele>
        <time>2022-08-05T12:34:22.000Z</time>
      </trkpt>
      <trkpt lat="49.25108" lon="-0.26888">
        <ele>3.066839</ele>
        <time>2022-08-05T12:34:23.000Z</time>
      </trkpt>
      <trkpt lat="49.25104" lon="-0.26891">
        <ele>3.058043</ele>
        <time>2022-08-05T12:34:24.000Z</time>
      </trkpt>
      <trkpt lat="49.25101" lon="-0.26894">
        <ele>3.051293</ele>
        <time>2022-08-05T12:34:25.000Z</time>
      </trkpt>
      <trkpt lat="49.25097" lon="-0.26897">
        <ele>3.042739</ele>
        <time>2022-08-05T12:34:26.000Z</time>
      </trkpt>
      <trkpt lat="49.25093" lon="-0.26899">
        <ele>3.034164</ele>
        <time>2022-08-05T12:34:27.000Z</time>
      </trkpt>
      <trkpt lat="49.25088" lon="-0.26903">
        <ele>3.022717</ele>
        <time>2022-08-05T12:34:28.000Z</time>
      </trkpt>
      <trkpt lat="49.25085" lon="-0.26905">
        <ele>3.015902</ele>
        <time>2022-08-05T12:34:29.000Z</time>
      </trkpt>
      <trkpt lat="49.25081" lon="-0.26909">
        <ele>3.007106</ele>
        <time>2022-08-05T12:34:30.000Z</time>
      </trkpt>
      <trkpt lat="49.25077" lon="-0.26912">
        <ele>2.998253</ele>
        <time>2022-08-05T12:34:31.000Z</time>
      </trkpt>
      <trkpt lat="49.25072" lon="-0.26915">
        <ele>2.986807</ele>
        <time>2022-08-05T12:34:32.000Z</time>
      </trkpt>
      <trkpt lat="49.25069" lon="-0.26918">
        <ele>2.978672</ele>
        <time>2022-08-05T12:34:33.000Z</time>
      </trkpt>
      <trkpt lat="49.25065" lon="-0.26921">
        <ele>2.970838</ele>
        <time>2022-08-05T12:34:34.000Z</time>
      </trkpt>
      <trkpt lat="49.25061" lon="-0.26924">
        <ele>2.961926</ele>
        <time>2022-08-05T12:34:35.000Z</time>
      </trkpt>
      <trkpt lat="49.25057" lon="-0.26927">
        <ele>2.952709</ele>
        <time>2022-08-05T12:34:36.000Z</time>
      </trkpt>
      <trkpt lat="49.25053" lon="-0.2693">
        <ele>2.943857</ele>
        <time>2022-08-05T12:34:37.000Z</time>
      </trkpt>
      <trkpt lat="49.25048" lon="-0.26934">
        <ele>2.931857</ele>
        <time>2022-08-05T12:34:38.000Z</time>
      </trkpt>
      <trkpt lat="49.25044" lon="-0.26937">
        <ele>2.922283</ele>
        <time>2022-08-05T12:34:39.000Z</time>
      </trkpt>
      <trkpt lat="49.2504" lon="-0.26939">
        <ele>2.914449</ele>
        <time>2022-08-05T12:34:40.000Z</time>
      </trkpt>
      <trkpt lat="49.25036" lon="-0.26943">
        <ele>2.903365</ele>
        <time>2022-08-05T12:34:41.000Z</time>
      </trkpt>
      <trkpt lat="49.25031" lon="-0.26947">
        <ele>2.894032</ele>
        <time>2022-08-05T12:34:42.000Z</time>
      </trkpt>
      <trkpt lat="49.25028" lon="-0.26949">
        <ele>2.885901</ele>
        <time>2022-08-05T12:34:43.000Z</time>
      </trkpt>
      <trkpt lat="49.25024" lon="-0.26953">
        <ele>2.876506</ele>
        <time>2022-08-05T12:34:44.000Z</time>
      </trkpt>
      <trkpt lat="49.2502" lon="-0.26956">
        <ele>2.867469</ele>
        <time>2022-08-05T12:34:45.000Z</time>
      </trkpt>
      <trkpt lat="49.25014" lon="-0.2696">
        <ele>2.855359</ele>
        <time>2022-08-05T12:34:46.000Z</time>
      </trkpt>
      <trkpt lat="49.25012" lon="-0.26962">
        <ele>2.848609</ele>
        <time>2022-08-05T12:34:47.000Z</time>
      </trkpt>
      <trkpt lat="49.25007" lon="-0.26966">
        <ele>2.839088</ele>
        <time>2022-08-05T12:34:48.000Z</time>
      </trkpt>
      <trkpt lat="49.25003" lon="-0.26969">
        <ele>2.833763</ele>
        <time>2022-08-05T12:34:49.000Z</time>
      </trkpt>
      <trkpt lat="49.24999" lon="-0.26972">
        <ele>2.844829</ele>
        <time>2022-08-05T12:34:50.000Z</time>
      </trkpt>
      <trkpt lat="49.24995" lon="-0.26975">
        <ele>2.854913</ele>
        <time>2022-08-05T12:34:51.000Z</time>
      </trkpt>
      <trkpt lat="49.2499" lon="-0.26979">
        <ele>2.866897</ele>
        <time>2022-08-05T12:34:52.000Z</time>
      </trkpt>
      <trkpt lat="49.24987" lon="-0.26982">
        <ele>2.874693</ele>
        <time>2022-08-05T12:34:53.000Z</time>
      </trkpt>
      <trkpt lat="49.24982" lon="-0.26985">
        <ele>2.886544</ele>
        <time>2022-08-05T12:34:54.000Z</time>
      </trkpt>
      <trkpt lat="49.24978" lon="-0.26989">
        <ele>2.896955</ele>
        <time>2022-08-05T12:34:55.000Z</time>
      </trkpt>
      <trkpt lat="49.24974" lon="-0.26991">
        <ele>2.906076</ele>
        <time>2022-08-05T12:34:56.000Z</time>
      </trkpt>
      <trkpt lat="49.2497" lon="-0.26994">
        <ele>2.916421</ele>
        <time>2022-08-05T12:34:57.000Z</time>
      </trkpt>
      <trkpt lat="49.24966" lon="-0.26997">
        <ele>2.925917</ele>
        <time>2022-08-05T12:34:58.000Z</time>
      </trkpt>
      <trkpt lat="49.2496" lon="-0.27001">
        <ele>2.939345</ele>
        <time>2022-08-05T12:34:59.000Z</time>
      </trkpt>
      <trkpt lat="49.24956" lon="-0.27005">
        <ele>2.949697</ele>
        <time>2022-08-05T12:35:00.000Z</time>
      </trkpt>
      <trkpt lat="49.24953" lon="-0.27007">
        <ele>2.958414</ele>
        <time>2022-08-05T12:35:01.000Z</time>
      </trkpt>
      <trkpt lat="49.24949" lon="-0.2701">
        <ele>2.968435</ele>
        <time>2022-08-05T12:35:02.000Z</time>
      </trkpt>
      <trkpt lat="49.24944" lon="-0.27014">
        <ele>2.980287</ele>
        <time>2022-08-05T12:35:03.000Z</time>
      </trkpt>
      <trkpt lat="49.24939" lon="-0.27017">
        <ele>2.991229</ele>
        <time>2022-08-05T12:35:04.000Z</time>
      </trkpt>
      <trkpt lat="49.24936" lon="-0.2702">
        <ele>2.998431</ele>
        <time>2022-08-05T12:35:05.000Z</time>
      </trkpt>
      <trkpt lat="49.24932" lon="-0.27023">
        <ele>3.008452</ele>
        <time>2022-08-05T12:35:06.000Z</time>
      </trkpt>
      <trkpt lat="49.24928" lon="-0.27026">
        <ele>3.01821</ele>
        <time>2022-08-05T12:35:07.000Z</time>
      </trkpt>
      <trkpt lat="49.24925" lon="-0.27029">
        <ele>3.02751</ele>
        <time>2022-08-05T12:35:08.000Z</time>
      </trkpt>
      <trkpt lat="49.24921" lon="-0.27031">
        <ele>3.03701</ele>
        <time>2022-08-05T12:35:09.000Z</time>
      </trkpt>
      <trkpt lat="49.24917" lon="-0.27035">
        <ele>3.047158</ele>
        <time>2022-08-05T12:35:10.000Z</time>
      </trkpt>
      <trkpt lat="49.24913" lon="-0.27038">
        <ele>3.056916</ele>
        <time>2022-08-05T12:35:11.000Z</time>
      </trkpt>
      <trkpt lat="49.24909" lon="-0.27041">
        <ele>3.066216</ele>
        <time>2022-08-05T12:35:12.000Z</time>
      </trkpt>
      <trkpt lat="49.24904" lon="-0.27044">
        <ele>3.077347</ele>
        <time>2022-08-05T12:35:13.000Z</time>
      </trkpt>
      <trkpt lat="49.24901" lon="-0.27047">
        <ele>3.086193</ele>
        <time>2022-08-05T12:35:14.000Z</time>
      </trkpt>
      <trkpt lat="49.24897" lon="-0.2705">
        <ele>3.096538</ele>
        <time>2022-08-05T12:35:15.000Z</time>
      </trkpt>
      <trkpt lat="49.24893" lon="-0.27053">
        <ele>3.105967</ele>
        <time>2022-08-05T12:35:16.000Z</time>
      </trkpt>
      <trkpt lat="49.24889" lon="-0.27056">
        <ele>3.115088</ele>
        <time>2022-08-05T12:35:17.000Z</time>
      </trkpt>
      <trkpt lat="49.24886" lon="-0.27057">
        <ele>3.121839</ele>
        <time>2022-08-05T12:35:18.000Z</time>
      </trkpt>
      <trkpt lat="49.24881" lon="-0.2706">
        <ele>3.133068</ele>
        <time>2022-08-05T12:35:19.000Z</time>
      </trkpt>
      <trkpt lat="49.24878" lon="-0.27062">
        <ele>3.139916</ele>
        <time>2022-08-05T12:35:20.000Z</time>
      </trkpt>
      <trkpt lat="49.24874" lon="-0.27064">
        <ele>3.149962</ele>
        <time>2022-08-05T12:35:21.000Z</time>
      </trkpt>
      <trkpt lat="49.24871" lon="-0.27066">
        <ele>3.158105</ele>
        <time>2022-08-05T12:35:22.000Z</time>
      </trkpt>
      <trkpt lat="49.24867" lon="-0.27068">
        <ele>3.167064</ele>
        <time>2022-08-05T12:35:23.000Z</time>
      </trkpt>
      <trkpt lat="49.24864" lon="-0.2707">
        <ele>3.174742</ele>
        <time>2022-08-05T12:35:24.000Z</time>
      </trkpt>
      <trkpt lat="49.24859" lon="-0.27074">
        <ele>3.186145</ele>
        <time>2022-08-05T12:35:25.000Z</time>
      </trkpt>
      <trkpt lat="49.24855" lon="-0.27077">
        <ele>3.196428</ele>
        <time>2022-08-05T12:35:26.000Z</time>
      </trkpt>
      <trkpt lat="49.24852" lon="-0.2708">
        <ele>3.204485</ele>
        <time>2022-08-05T12:35:27.000Z</time>
      </trkpt>
      <trkpt lat="49.24847" lon="-0.27084">
        <ele>3.216537</ele>
        <time>2022-08-05T12:35:28.000Z</time>
      </trkpt>
      <trkpt lat="49.24844" lon="-0.27086">
        <ele>3.224937</ele>
        <time>2022-08-05T12:35:29.000Z</time>
      </trkpt>
      <trkpt lat="49.24839" lon="-0.2709">
        <ele>3.223552</ele>
        <time>2022-08-05T12:35:30.000Z</time>
      </trkpt>
      <trkpt lat="49.24835" lon="-0.27093">
        <ele>3.217697</ele>
        <time>2022-08-05T12:35:31.000Z</time>
      </trkpt>
      <trkpt lat="49.2483" lon="-0.27097">
        <ele>3.211769</ele>
        <time>2022-08-05T12:35:32.000Z</time>
      </trkpt>
      <trkpt lat="49.24827" lon="-0.27099">
        <ele>3.206919</ele>
        <time>2022-08-05T12:35:33.000Z</time>
      </trkpt>
      <trkpt lat="49.24823" lon="-0.27102">
        <ele>3.201324</ele>
        <time>2022-08-05T12:35:34.000Z</time>
      </trkpt>
      <trkpt lat="49.24818" lon="-0.27106">
        <ele>3.194165</ele>
        <time>2022-08-05T12:35:35.000Z</time>
      </trkpt>
      <trkpt lat="49.24815" lon="-0.27109">
        <ele>3.189986</ele>
        <time>2022-08-05T12:35:36.000Z</time>
      </trkpt>
      <trkpt lat="49.2481" lon="-0.27113">
        <ele>3.182791</ele>
        <time>2022-08-05T12:35:37.000Z</time>
      </trkpt>
      <trkpt lat="49.24807" lon="-0.27115">
        <ele>3.17869</ele>
        <time>2022-08-05T12:35:38.000Z</time>
      </trkpt>
      <trkpt lat="49.24803" lon="-0.27118">
        <ele>3.172983</ele>
        <time>2022-08-05T12:35:39.000Z</time>
      </trkpt>
      <trkpt lat="49.24798" lon="-0.27122">
        <ele>3.165965</ele>
        <time>2022-08-05T12:35:40.000Z</time>
      </trkpt>
      <trkpt lat="49.24794" lon="-0.27124">
        <ele>3.161001</ele>
        <time>2022-08-05T12:35:41.000Z</time>
      </trkpt>
      <trkpt lat="49.2479" lon="-0.27127">
        <ele>3.154884</ele>
        <time>2022-08-05T12:35:42.000Z</time>
      </trkpt>
      <trkpt lat="49.24785" lon="-0.27131">
        <ele>3.148099</ele>
        <time>2022-08-05T12:35:43.000Z</time>
      </trkpt>
      <trkpt lat="49.24781" lon="-0.27134">
        <ele>3.142207</ele>
        <time>2022-08-05T12:35:44.000Z</time>
      </trkpt>
      <trkpt lat="49.24777" lon="-0.27137">
        <ele>3.137322</ele>
        <time>2022-08-05T12:35:45.000Z</time>
      </trkpt>
      <trkpt lat="49.24772" lon="-0.27141">
        <ele>3.130235</ele>
        <time>2022-08-05T12:35:46.000Z</time>
      </trkpt>
      <trkpt lat="49.24768" lon="-0.27144">
        <ele>3.124344</ele>
        <time>2022-08-05T12:35:47.000Z</time>
      </trkpt>
      <trkpt lat="49.24764" lon="-0.27147">
        <ele>3.118416</ele>
        <time>2022-08-05T12:35:48.000Z</time>
      </trkpt>
      <trkpt lat="49.2476" lon="-0.2715">
        <ele>3.113495</ele>
        <time>2022-08-05T12:35:49.000Z</time>
      </trkpt>
      <trkpt lat="49.24756" lon="-0.27154">
        <ele>3.106709</ele>
        <time>2022-08-05T12:35:50.000Z</time>
      </trkpt>
      <trkpt lat="49.24752" lon="-0.27156">
        <ele>3.101516</ele>
        <time>2022-08-05T12:35:51.000Z</time>
      </trkpt>
      <trkpt lat="49.24747" lon="-0.2716">
        <ele>3.09432</ele>
        <time>2022-08-05T12:35:52.000Z</time>
      </trkpt>
      <trkpt lat="49.24742" lon="-0.27163">
        <ele>3.088392</ele>
        <time>2022-08-05T12:35:53.000Z</time>
      </trkpt>
      <trkpt lat="49.24739" lon="-0.27166">
        <ele>3.083131</ele>
        <time>2022-08-05T12:35:54.000Z</time>
      </trkpt>
      <trkpt lat="49.24734" lon="-0.27169">
        <ele>3.077312</ele>
        <time>2022-08-05T12:35:55.000Z</time>
      </trkpt>
      <trkpt lat="49.24729" lon="-0.27173">
        <ele>3.070293</ele>
        <time>2022-08-05T12:35:56.000Z</time>
      </trkpt>
      <trkpt lat="49.24725" lon="-0.27175">
        <ele>3.064541</ele>
        <time>2022-08-05T12:35:57.000Z</time>
      </trkpt>
      <trkpt lat="49.24722" lon="-0.27178">
        <ele>3.05979</ele>
        <time>2022-08-05T12:35:58.000Z</time>
      </trkpt>
      <trkpt lat="49.24717" lon="-0.2718">
        <ele>3.054037</ele>
        <time>2022-08-05T12:35:59.000Z</time>
      </trkpt>
      <trkpt lat="49.24713" lon="-0.27184">
        <ele>3.047463</ele>
        <time>2022-08-05T12:36:00.000Z</time>
      </trkpt>
      <trkpt lat="49.24708" lon="-0.27187">
        <ele>3.040787</ele>
        <time>2022-08-05T12:36:01.000Z</time>
      </trkpt>
      <trkpt lat="49.24703" lon="-0.2719">
        <ele>3.034738</ele>
        <time>2022-08-05T12:36:02.000Z</time>
      </trkpt>
      <trkpt lat="49.247" lon="-0.27192">
        <ele>3.030333</ele>
        <time>2022-08-05T12:36:03.000Z</time>
      </trkpt>
      <trkpt lat="49.24696" lon="-0.27195">
        <ele>3.024674</ele>
        <time>2022-08-05T12:36:04.000Z</time>
      </trkpt>
      <trkpt lat="49.24691" lon="-0.27198">
        <ele>3.017515</ele>
        <time>2022-08-05T12:36:05.000Z</time>
      </trkpt>
      <trkpt lat="49.24686" lon="-0.272">
        <ele>3.011503</ele>
        <time>2022-08-05T12:36:06.000Z</time>
      </trkpt>
      <trkpt lat="49.24683" lon="-0.27202">
        <ele>3.007098</ele>
        <time>2022-08-05T12:36:07.000Z</time>
      </trkpt>
      <trkpt lat="49.24678" lon="-0.27205">
        <ele>3.006013</ele>
        <time>2022-08-05T12:36:08.000Z</time>
      </trkpt>
      <trkpt lat="49.24674" lon="-0.27208">
        <ele>3.014471</ele>
        <time>2022-08-05T12:36:09.000Z</time>
      </trkpt>
      <trkpt lat="49.24669" lon="-0.27211">
        <ele>3.02559</ele>
        <time>2022-08-05T12:36:10.000Z</time>
      </trkpt>
      <trkpt lat="49.24666" lon="-0.27212">
        <ele>3.032528</ele>
        <time>2022-08-05T12:36:11.000Z</time>
      </trkpt>
      <trkpt lat="49.24661" lon="-0.27215">
        <ele>3.0436</ele>
        <time>2022-08-05T12:36:12.000Z</time>
      </trkpt>
      <trkpt lat="49.24657" lon="-0.27217">
        <ele>3.051203</ele>
        <time>2022-08-05T12:36:13.000Z</time>
      </trkpt>
      <trkpt lat="49.24652" lon="-0.2722">
        <ele>3.061565</ele>
        <time>2022-08-05T12:36:14.000Z</time>
      </trkpt>
      <trkpt lat="49.24648" lon="-0.27222">
        <ele>3.071065</ele>
        <time>2022-08-05T12:36:15.000Z</time>
      </trkpt>
      <trkpt lat="49.24644" lon="-0.27223">
        <ele>3.078267</ele>
        <time>2022-08-05T12:36:16.000Z</time>
      </trkpt>
      <trkpt lat="49.24639" lon="-0.27224">
        <ele>3.088127</ele>
        <time>2022-08-05T12:36:17.000Z</time>
      </trkpt>
      <trkpt lat="49.24634" lon="-0.27225">
        <ele>3.098977</ele>
        <time>2022-08-05T12:36:18.000Z</time>
      </trkpt>
      <trkpt lat="49.24629" lon="-0.27228">
        <ele>3.109959</ele>
        <time>2022-08-05T12:36:19.000Z</time>
      </trkpt>
      <trkpt lat="49.24625" lon="-0.2723">
        <ele>3.118227</ele>
        <time>2022-08-05T12:36:20.000Z</time>
      </trkpt>
      <trkpt lat="49.24621" lon="-0.27233">
        <ele>3.128112</ele>
        <time>2022-08-05T12:36:21.000Z</time>
      </trkpt>
      <trkpt lat="49.24615" lon="-0.27237">
        <ele>3.140152</ele>
        <time>2022-08-05T12:36:22.000Z</time>
      </trkpt>
      <trkpt lat="49.24612" lon="-0.2724">
        <ele>3.149095</ele>
        <time>2022-08-05T12:36:23.000Z</time>
      </trkpt>
      <trkpt lat="49.24608" lon="-0.27243">
        <ele>3.157601</ele>
        <time>2022-08-05T12:36:24.000Z</time>
      </trkpt>
      <trkpt lat="49.24605" lon="-0.27246">
        <ele>3.165169</ele>
        <time>2022-08-05T12:36:25.000Z</time>
      </trkpt>
      <trkpt lat="49.24601" lon="-0.2725">
        <ele>3.174059</ele>
        <time>2022-08-05T12:36:26.000Z</time>
      </trkpt>
      <trkpt lat="49.24597" lon="-0.27254">
        <ele>3.184125</ele>
        <time>2022-08-05T12:36:27.000Z</time>
      </trkpt>
      <trkpt lat="49.24593" lon="-0.27257">
        <ele>3.192631</ele>
        <time>2022-08-05T12:36:28.000Z</time>
      </trkpt>
      <trkpt lat="49.24591" lon="-0.2726">
        <ele>3.198879</ele>
        <time>2022-08-05T12:36:29.000Z</time>
      </trkpt>
      <trkpt lat="49.24588" lon="-0.27262">
        <ele>3.20638</ele>
        <time>2022-08-05T12:36:30.000Z</time>
      </trkpt>
      <trkpt lat="49.24585" lon="-0.27265">
        <ele>3.213152</ele>
        <time>2022-08-05T12:36:31.000Z</time>
      </trkpt>
      <trkpt lat="49.24581" lon="-0.27268">
        <ele>3.221793</ele>
        <time>2022-08-05T12:36:32.000Z</time>
      </trkpt>
      <trkpt lat="49.24577" lon="-0.2727">
        <ele>3.229544</ele>
        <time>2022-08-05T12:36:33.000Z</time>
      </trkpt>
      <trkpt lat="49.24574" lon="-0.27272">
        <ele>3.236131</ele>
        <time>2022-08-05T12:36:34.000Z</time>
      </trkpt>
      <trkpt lat="49.24572" lon="-0.27274">
        <ele>3.242604</ele>
        <time>2022-08-05T12:36:35.000Z</time>
      </trkpt>
      <trkpt lat="49.24568" lon="-0.27277">
        <ele>3.249976</ele>
        <time>2022-08-05T12:36:36.000Z</time>
      </trkpt>
      <trkpt lat="49.24565" lon="-0.27279">
        <ele>3.257227</ele>
        <time>2022-08-05T12:36:37.000Z</time>
      </trkpt>
      <trkpt lat="49.24563" lon="-0.27281">
        <ele>3.262742</ele>
        <time>2022-08-05T12:36:38.000Z</time>
      </trkpt>
      <trkpt lat="49.24559" lon="-0.27284">
        <ele>3.27102</ele>
        <time>2022-08-05T12:36:39.000Z</time>
      </trkpt>
      <trkpt lat="49.24557" lon="-0.27285">
        <ele>3.275433</ele>
        <time>2022-08-05T12:36:40.000Z</time>
      </trkpt>
      <trkpt lat="49.24554" lon="-0.27288">
        <ele>3.283237</ele>
        <time>2022-08-05T12:36:41.000Z</time>
      </trkpt>
      <trkpt lat="49.24551" lon="-0.27289">
        <ele>3.288138</ele>
        <time>2022-08-05T12:36:42.000Z</time>
      </trkpt>
      <trkpt lat="49.24549" lon="-0.27291">
        <ele>3.29406</ele>
        <time>2022-08-05T12:36:43.000Z</time>
      </trkpt>
      <trkpt lat="49.24546" lon="-0.27293">
        <ele>3.301145</ele>
        <time>2022-08-05T12:36:44.000Z</time>
      </trkpt>
      <trkpt lat="49.24542" lon="-0.27296">
        <ele>3.309121</ele>
        <time>2022-08-05T12:36:45.000Z</time>
      </trkpt>
      <trkpt lat="49.24539" lon="-0.27298">
        <ele>3.315489</ele>
        <time>2022-08-05T12:36:46.000Z</time>
      </trkpt>
      <trkpt lat="49.24537" lon="-0.273">
        <ele>3.321535</ele>
        <time>2022-08-05T12:36:47.000Z</time>
      </trkpt>
      <trkpt lat="49.24534" lon="-0.27302">
        <ele>3.327715</ele>
        <time>2022-08-05T12:36:48.000Z</time>
      </trkpt>
      <trkpt lat="49.2453" lon="-0.27305">
        <ele>3.336425</ele>
        <time>2022-08-05T12:36:49.000Z</time>
      </trkpt>
      <trkpt lat="49.24527" lon="-0.27307">
        <ele>3.343072</ele>
        <time>2022-08-05T12:36:50.000Z</time>
      </trkpt>
      <trkpt lat="49.24525" lon="-0.27308">
        <ele>3.347973</ele>
        <time>2022-08-05T12:36:51.000Z</time>
      </trkpt>
      <trkpt lat="49.24522" lon="-0.27311">
        <ele>3.354559</ele>
        <time>2022-08-05T12:36:52.000Z</time>
      </trkpt>
      <trkpt lat="49.24519" lon="-0.27313">
        <ele>3.361146</ele>
        <time>2022-08-05T12:36:53.000Z</time>
      </trkpt>
      <trkpt lat="49.24515" lon="-0.27315">
        <ele>3.372651</ele>
        <time>2022-08-05T12:36:54.000Z</time>
      </trkpt>
      <trkpt lat="49.24513" lon="-0.27317">
        <ele>3.391914</ele>
        <time>2022-08-05T12:36:55.000Z</time>
      </trkpt>
      <trkpt lat="49.2451" lon="-0.27319">
        <ele>3.419251</ele>
        <time>2022-08-05T12:36:56.000Z</time>
      </trkpt>
      <trkpt lat="49.24507" lon="-0.27321">
        <ele>3.442263</ele>
        <time>2022-08-05T12:36:57.000Z</time>
      </trkpt>
      <trkpt lat="49.24503" lon="-0.27323">
        <ele>3.474975</ele>
        <time>2022-08-05T12:36:58.000Z</time>
      </trkpt>
      <trkpt lat="49.24501" lon="-0.27326">
        <ele>3.498469</ele>
        <time>2022-08-05T12:36:59.000Z</time>
      </trkpt>
      <trkpt lat="49.24499" lon="-0.27327">
        <ele>3.515376</ele>
        <time>2022-08-05T12:37:00.000Z</time>
      </trkpt>
      <trkpt lat="49.24496" lon="-0.27329">
        <ele>3.540973</ele>
        <time>2022-08-05T12:37:01.000Z</time>
      </trkpt>
      <trkpt lat="49.24493" lon="-0.27331">
        <ele>3.566129</ele>
        <time>2022-08-05T12:37:02.000Z</time>
      </trkpt>
      <trkpt lat="49.2449" lon="-0.27334">
        <ele>3.596252</ele>
        <time>2022-08-05T12:37:03.000Z</time>
      </trkpt>
      <trkpt lat="49.24488" lon="-0.27335">
        <ele>3.613657</ele>
        <time>2022-08-05T12:37:04.000Z</time>
      </trkpt>
      <trkpt lat="49.24485" lon="-0.27337">
        <ele>3.636669</ele>
        <time>2022-08-05T12:37:05.000Z</time>
      </trkpt>
      <trkpt lat="49.24482" lon="-0.27339">
        <ele>3.661825</ele>
        <time>2022-08-05T12:37:06.000Z</time>
      </trkpt>
      <trkpt lat="49.24479" lon="-0.27341">
        <ele>3.686484</ele>
        <time>2022-08-05T12:37:07.000Z</time>
      </trkpt>
      <trkpt lat="49.24477" lon="-0.27343">
        <ele>3.710695</ele>
        <time>2022-08-05T12:37:08.000Z</time>
      </trkpt>
      <trkpt lat="49.24475" lon="-0.27345">
        <ele>3.728099</ele>
        <time>2022-08-05T12:37:09.000Z</time>
      </trkpt>
      <trkpt lat="49.24472" lon="-0.27346">
        <ele>3.750667</ele>
        <time>2022-08-05T12:37:10.000Z</time>
      </trkpt>
      <trkpt lat="49.2447" lon="-0.27348">
        <ele>3.766922</ele>
        <time>2022-08-05T12:37:11.000Z</time>
      </trkpt>
      <trkpt lat="49.24468" lon="-0.2735">
        <ele>3.790417</ele>
        <time>2022-08-05T12:37:12.000Z</time>
      </trkpt>
      <trkpt lat="49.24466" lon="-0.27351">
        <ele>3.806483</ele>
        <time>2022-08-05T12:37:13.000Z</time>
      </trkpt>
      <trkpt lat="49.24464" lon="-0.27353">
        <ele>3.823887</ele>
        <time>2022-08-05T12:37:14.000Z</time>
      </trkpt>
      <trkpt lat="49.24461" lon="-0.27354">
        <ele>3.846247</ele>
        <time>2022-08-05T12:37:15.000Z</time>
      </trkpt>
      <trkpt lat="49.24459" lon="-0.27356">
        <ele>3.863918</ele>
        <time>2022-08-05T12:37:16.000Z</time>
      </trkpt>
      <trkpt lat="49.24456" lon="-0.27358">
        <ele>3.889073</ele>
        <time>2022-08-05T12:37:17.000Z</time>
      </trkpt>
      <trkpt lat="49.24454" lon="-0.2736">
        <ele>3.906477</ele>
        <time>2022-08-05T12:37:18.000Z</time>
      </trkpt>
      <trkpt lat="49.24451" lon="-0.27363">
        <ele>3.939831</ele>
        <time>2022-08-05T12:37:20.000Z</time>
      </trkpt>
      <trkpt lat="49.24447" lon="-0.27365">
        <ele>3.968244</ele>
        <time>2022-08-05T12:37:22.000Z</time>
      </trkpt>
      <trkpt lat="49.24444" lon="-0.27367">
        <ele>3.995987</ele>
        <time>2022-08-05T12:37:24.000Z</time>
      </trkpt>
      <trkpt lat="49.24441" lon="-0.2737">
        <ele>4.026839</ele>
        <time>2022-08-05T12:37:26.000Z</time>
      </trkpt>
      <trkpt lat="49.24437" lon="-0.27372">
        <ele>4.054798</ele>
        <time>2022-08-05T12:37:28.000Z</time>
      </trkpt>
      <trkpt lat="49.24435" lon="-0.27374">
        <ele>4.079021</ele>
        <time>2022-08-05T12:37:29.000Z</time>
      </trkpt>
      <trkpt lat="49.24433" lon="-0.27375">
        <ele>4.096868</ele>
        <time>2022-08-05T12:37:30.000Z</time>
      </trkpt>
      <trkpt lat="49.24431" lon="-0.27377">
        <ele>4.113124</ele>
        <time>2022-08-05T12:37:31.000Z</time>
      </trkpt>
      <trkpt lat="49.24428" lon="-0.27378">
        <ele>4.134361</ele>
        <time>2022-08-05T12:37:32.000Z</time>
      </trkpt>
      <trkpt lat="49.24426" lon="-0.2738">
        <ele>4.15456</ele>
        <time>2022-08-05T12:37:33.000Z</time>
      </trkpt>
      <trkpt lat="49.24423" lon="-0.27382">
        <ele>4.181897</ele>
        <time>2022-08-05T12:37:34.000Z</time>
      </trkpt>
      <trkpt lat="49.24421" lon="-0.27383">
        <ele>4.199047</ele>
        <time>2022-08-05T12:37:35.000Z</time>
      </trkpt>
      <trkpt lat="49.24418" lon="-0.27385">
        <ele>4.221832</ele>
        <time>2022-08-05T12:37:36.000Z</time>
      </trkpt>
      <trkpt lat="49.24416" lon="-0.27387">
        <ele>4.241095</ele>
        <time>2022-08-05T12:37:37.000Z</time>
      </trkpt>
      <trkpt lat="49.24413" lon="-0.27389">
        <ele>4.270466</ele>
        <time>2022-08-05T12:37:38.000Z</time>
      </trkpt>
      <trkpt lat="49.24411" lon="-0.2739">
        <ele>4.286926</ele>
        <time>2022-08-05T12:37:39.000Z</time>
      </trkpt>
      <trkpt lat="49.24408" lon="-0.27392">
        <ele>4.31042</ele>
        <time>2022-08-05T12:37:40.000Z</time>
      </trkpt>
      <trkpt lat="49.24406" lon="-0.27394">
        <ele>4.326879</ele>
        <time>2022-08-05T12:37:41.000Z</time>
      </trkpt>
      <trkpt lat="49.24403" lon="-0.27396">
        <ele>4.354216</ele>
        <time>2022-08-05T12:37:42.000Z</time>
      </trkpt>
      <trkpt lat="49.24401" lon="-0.27397">
        <ele>4.370676</ele>
        <time>2022-08-05T12:37:43.000Z</time>
      </trkpt>
      <trkpt lat="49.24399" lon="-0.27399">
        <ele>4.391345</ele>
        <time>2022-08-05T12:37:44.000Z</time>
      </trkpt>
      <trkpt lat="49.24396" lon="-0.27401">
        <ele>4.413195</ele>
        <time>2022-08-05T12:37:45.000Z</time>
      </trkpt>
      <trkpt lat="49.24393" lon="-0.27402">
        <ele>4.440158</ele>
        <time>2022-08-05T12:37:46.000Z</time>
      </trkpt>
      <trkpt lat="49.2439" lon="-0.27405">
        <ele>4.46834</ele>
        <time>2022-08-05T12:37:47.000Z</time>
      </trkpt>
      <trkpt lat="49.24387" lon="-0.27407">
        <ele>4.495876</ele>
        <time>2022-08-05T12:37:48.000Z</time>
      </trkpt>
      <trkpt lat="49.24384" lon="-0.27409">
        <ele>4.516795</ele>
        <time>2022-08-05T12:37:49.000Z</time>
      </trkpt>
      <trkpt lat="49.24381" lon="-0.27411">
        <ele>4.547127</ele>
        <time>2022-08-05T12:37:50.000Z</time>
      </trkpt>
      <trkpt lat="49.24378" lon="-0.27414">
        <ele>4.575778</ele>
        <time>2022-08-05T12:37:51.000Z</time>
      </trkpt>
      <trkpt lat="49.24375" lon="-0.27416">
        <ele>4.600338</ele>
        <time>2022-08-05T12:37:52.000Z</time>
      </trkpt>
      <trkpt lat="49.24372" lon="-0.27418">
        <ele>4.625935</ele>
        <time>2022-08-05T12:37:53.000Z</time>
      </trkpt>
      <trkpt lat="49.24369" lon="-0.2742">
        <ele>4.654348</ele>
        <time>2022-08-05T12:37:54.000Z</time>
      </trkpt>
      <trkpt lat="49.24366" lon="-0.27422">
        <ele>4.676901</ele>
        <time>2022-08-05T12:37:55.000Z</time>
      </trkpt>
      <trkpt lat="49.24362" lon="-0.27425">
        <ele>4.710145</ele>
        <time>2022-08-05T12:37:56.000Z</time>
      </trkpt>
      <trkpt lat="49.24359" lon="-0.27426">
        <ele>4.733607</ele>
        <time>2022-08-05T12:37:57.000Z</time>
      </trkpt>
      <trkpt lat="49.24357" lon="-0.27428">
        <ele>4.756856</ele>
        <time>2022-08-05T12:37:58.000Z</time>
      </trkpt>
      <trkpt lat="49.24354" lon="-0.27431">
        <ele>4.781138</ele>
        <time>2022-08-05T12:37:59.000Z</time>
      </trkpt>
      <trkpt lat="49.24351" lon="-0.27433">
        <ele>4.813111</ele>
        <time>2022-08-05T12:38:00.000Z</time>
      </trkpt>
      <trkpt lat="49.24349" lon="-0.27436">
        <ele>4.845337</ele>
        <time>2022-08-05T12:38:01.000Z</time>
      </trkpt>
      <trkpt lat="49.24346" lon="-0.27439">
        <ele>4.882344</ele>
        <time>2022-08-05T12:38:02.000Z</time>
      </trkpt>
      <trkpt lat="49.24343" lon="-0.27441">
        <ele>4.920779</ele>
        <time>2022-08-05T12:38:03.000Z</time>
      </trkpt>
      <trkpt lat="49.2434" lon="-0.27443">
        <ele>4.962323</ele>
        <time>2022-08-05T12:38:04.000Z</time>
      </trkpt>
      <trkpt lat="49.24335" lon="-0.27444">
        <ele>5.009754</ele>
        <time>2022-08-05T12:38:05.000Z</time>
      </trkpt>
      <trkpt lat="49.24333" lon="-0.27445">
        <ele>5.039566</ele>
        <time>2022-08-05T12:38:06.000Z</time>
      </trkpt>
      <trkpt lat="49.24329" lon="-0.27447">
        <ele>5.079984</ele>
        <time>2022-08-05T12:38:07.000Z</time>
      </trkpt>
      <trkpt lat="49.24326" lon="-0.27449">
        <ele>5.116641</ele>
        <time>2022-08-05T12:38:08.000Z</time>
      </trkpt>
      <trkpt lat="49.24325" lon="-0.27452">
        <ele>5.145962</ele>
        <time>2022-08-05T12:38:09.000Z</time>
      </trkpt>
      <trkpt lat="49.24323" lon="-0.27455">
        <ele>5.173945</ele>
        <time>2022-08-05T12:38:10.000Z</time>
      </trkpt>
      <trkpt lat="49.24324" lon="-0.27459">
        <ele>5.199574</ele>
        <time>2022-08-05T12:38:12.000Z</time>
      </trkpt>
      <trkpt lat="49.24325" lon="-0.27455">
        <ele>5.232403</ele>
        <time>2022-08-05T12:46:23.000Z</time>
      </trkpt>
      <trkpt lat="49.24324" lon="-0.27453">
        <ele>5.256805</ele>
        <time>2022-08-05T12:46:24.000Z</time>
      </trkpt>
      <trkpt lat="49.24322" lon="-0.27451">
        <ele>5.278349</ele>
        <time>2022-08-05T12:46:25.000Z</time>
      </trkpt>
      <trkpt lat="49.2432" lon="-0.27448">
        <ele>5.310413</ele>
        <time>2022-08-05T12:46:26.000Z</time>
      </trkpt>
      <trkpt lat="49.24317" lon="-0.27447">
        <ele>5.340829</ele>
        <time>2022-08-05T12:46:27.000Z</time>
      </trkpt>
      <trkpt lat="49.24314" lon="-0.27447">
        <ele>5.379921</ele>
        <time>2022-08-05T12:46:28.000Z</time>
      </trkpt>
      <trkpt lat="49.24311" lon="-0.27447">
        <ele>5.412569</ele>
        <time>2022-08-05T12:46:29.000Z</time>
      </trkpt>
      <trkpt lat="49.24307" lon="-0.27449">
        <ele>5.459132</ele>
        <time>2022-08-05T12:46:30.000Z</time>
      </trkpt>
      <trkpt lat="49.24304" lon="-0.2745">
        <ele>5.492538</ele>
        <time>2022-08-05T12:46:31.000Z</time>
      </trkpt>
      <trkpt lat="49.243" lon="-0.27451">
        <ele>5.533158</ele>
        <time>2022-08-05T12:46:32.000Z</time>
      </trkpt>
      <trkpt lat="49.24298" lon="-0.27452">
        <ele>5.562801</ele>
        <time>2022-08-05T12:46:33.000Z</time>
      </trkpt>
      <trkpt lat="49.24295" lon="-0.27454">
        <ele>5.596405</ele>
        <time>2022-08-05T12:46:34.000Z</time>
      </trkpt>
      <trkpt lat="49.24292" lon="-0.27455">
        <ele>5.630445</ele>
        <time>2022-08-05T12:46:35.000Z</time>
      </trkpt>
      <trkpt lat="49.24289" lon="-0.27457">
        <ele>5.660863</ele>
        <time>2022-08-05T12:46:36.000Z</time>
      </trkpt>
      <trkpt lat="49.24286" lon="-0.27459">
        <ele>5.696232</ele>
        <time>2022-08-05T12:46:37.000Z</time>
      </trkpt>
      <trkpt lat="49.24285" lon="-0.2746">
        <ele>5.719374</ele>
        <time>2022-08-05T12:46:38.000Z</time>
      </trkpt>
      <trkpt lat="49.24283" lon="-0.27461">
        <ele>5.742516</ele>
        <time>2022-08-05T12:46:39.000Z</time>
      </trkpt>
      <trkpt lat="49.24279" lon="-0.27464">
        <ele>5.789257</ele>
        <time>2022-08-05T12:46:41.000Z</time>
      </trkpt>
      <trkpt lat="49.24276" lon="-0.27463">
        <ele>5.821711</ele>
        <time>2022-08-05T12:46:43.000Z</time>
      </trkpt>
      <trkpt lat="49.24273" lon="-0.27464">
        <ele>5.853387</ele>
        <time>2022-08-05T12:46:45.000Z</time>
      </trkpt>
      <trkpt lat="49.2427" lon="-0.27467">
        <ele>5.890479</ele>
        <time>2022-08-05T12:46:47.000Z</time>
      </trkpt>
      <trkpt lat="49.24269" lon="-0.27469">
        <ele>5.911341</ele>
        <time>2022-08-05T12:46:48.000Z</time>
      </trkpt>
      <trkpt lat="49.24265" lon="-0.27471">
        <ele>5.953695</ele>
        <time>2022-08-05T12:46:50.000Z</time>
      </trkpt>
      <trkpt lat="49.24262" lon="-0.27472">
        <ele>5.989642</ele>
        <time>2022-08-05T12:46:52.000Z</time>
      </trkpt>
      <trkpt lat="49.24258" lon="-0.27462">
        <ele>6.074149</ele>
        <time>2022-08-05T12:47:03.000Z</time>
      </trkpt>
      <trkpt lat="49.24257" lon="-0.27458">
        <ele>6.10832</ele>
        <time>2022-08-05T12:47:05.000Z</time>
      </trkpt>
      <trkpt lat="49.24256" lon="-0.27455">
        <ele>6.128383</ele>
        <time>2022-08-05T12:47:06.000Z</time>
      </trkpt>
      <trkpt lat="49.24255" lon="-0.2745">
        <ele>6.170851</ele>
        <time>2022-08-05T12:47:08.000Z</time>
      </trkpt>
      <trkpt lat="49.24253" lon="-0.27445">
        <ele>6.212229</ele>
        <time>2022-08-05T12:47:10.000Z</time>
      </trkpt>
      <trkpt lat="49.24251" lon="-0.2744">
        <ele>6.251358</ele>
        <time>2022-08-05T12:47:12.000Z</time>
      </trkpt>
      <trkpt lat="49.2425" lon="-0.27435">
        <ele>6.290488</ele>
        <time>2022-08-05T12:47:14.000Z</time>
      </trkpt>
      <trkpt lat="49.24248" lon="-0.27431">
        <ele>6.328789</ele>
        <time>2022-08-05T12:47:16.000Z</time>
      </trkpt>
      <trkpt lat="49.24247" lon="-0.27427">
        <ele>6.359887</ele>
        <time>2022-08-05T12:47:18.000Z</time>
      </trkpt>
      <trkpt lat="49.24246" lon="-0.27424">
        <ele>6.381253</ele>
        <time>2022-08-05T12:47:19.000Z</time>
      </trkpt>
      <trkpt lat="49.24244" lon="-0.2742">
        <ele>6.418456</ele>
        <time>2022-08-05T12:47:21.000Z</time>
      </trkpt>
      <trkpt lat="49.24243" lon="-0.27416">
        <ele>6.450249</ele>
        <time>2022-08-05T12:47:23.000Z</time>
      </trkpt>
      <trkpt lat="49.24242" lon="-0.27412">
        <ele>6.48269</ele>
        <time>2022-08-05T12:47:25.000Z</time>
      </trkpt>
      <trkpt lat="49.24242" lon="-0.27408">
        <ele>6.512644</ele>
        <time>2022-08-05T12:47:27.000Z</time>
      </trkpt>
      <trkpt lat="49.24243" lon="-0.27405">
        <ele>6.5371</ele>
        <time>2022-08-05T12:47:29.000Z</time>
      </trkpt>
      <trkpt lat="49.24242" lon="-0.27402">
        <ele>6.558387</ele>
        <time>2022-08-05T12:47:31.000Z</time>
      </trkpt>
      <trkpt lat="49.24241" lon="-0.27399">
        <ele>6.588893</ele>
        <time>2022-08-05T12:47:34.000Z</time>
      </trkpt>
      <trkpt lat="49.2424" lon="-0.27395">
        <ele>6.617561</ele>
        <time>2022-08-05T12:47:36.000Z</time>
      </trkpt>
      <trkpt lat="49.24239" lon="-0.27392">
        <ele>6.642666</ele>
        <time>2022-08-05T12:47:38.000Z</time>
      </trkpt>
      <trkpt lat="49.24238" lon="-0.27388">
        <ele>6.669303</ele>
        <time>2022-08-05T12:47:40.000Z</time>
      </trkpt>
      <trkpt lat="49.24237" lon="-0.27385">
        <ele>6.693118</ele>
        <time>2022-08-05T12:47:42.000Z</time>
      </trkpt>
      <trkpt lat="49.24236" lon="-0.27382">
        <ele>6.717089</ele>
        <time>2022-08-05T12:47:44.000Z</time>
      </trkpt>
      <trkpt lat="49.24235" lon="-0.2738">
        <ele>6.738376</ele>
        <time>2022-08-05T12:47:46.000Z</time>
      </trkpt>
      <trkpt lat="49.24234" lon="-0.27377">
        <ele>6.760914</ele>
        <time>2022-08-05T12:47:48.000Z</time>
      </trkpt>
      <trkpt lat="49.24234" lon="-0.27374">
        <ele>6.78231</ele>
        <time>2022-08-05T12:47:50.000Z</time>
      </trkpt>
      <trkpt lat="49.24233" lon="-0.27371">
        <ele>6.782116</ele>
        <time>2022-08-05T12:47:52.000Z</time>
      </trkpt>
      <trkpt lat="49.24232" lon="-0.27368">
        <ele>6.7694</ele>
        <time>2022-08-05T12:47:54.000Z</time>
      </trkpt>
      <trkpt lat="49.24231" lon="-0.27365">
        <ele>6.75784</ele>
        <time>2022-08-05T12:47:56.000Z</time>
      </trkpt>
      <trkpt lat="49.24231" lon="-0.27362">
        <ele>6.743003</ele>
        <time>2022-08-05T12:47:59.000Z</time>
      </trkpt>
      <trkpt lat="49.24231" lon="-0.27358">
        <ele>6.728696</ele>
        <time>2022-08-05T12:48:01.000Z</time>
      </trkpt>
      <trkpt lat="49.24232" lon="-0.27355">
        <ele>6.713859</ele>
        <time>2022-08-05T12:48:03.000Z</time>
      </trkpt>
      <trkpt lat="49.24231" lon="-0.2735">
        <ele>6.693925</ele>
        <time>2022-08-05T12:48:05.000Z</time>
      </trkpt>
      <trkpt lat="49.2423" lon="-0.27348">
        <ele>6.682916</ele>
        <time>2022-08-05T12:48:06.000Z</time>
      </trkpt>
      <trkpt lat="49.24227" lon="-0.27344">
        <ele>6.660605</ele>
        <time>2022-08-05T12:48:08.000Z</time>
      </trkpt>
      <trkpt lat="49.24226" lon="-0.27342">
        <ele>6.649167</ele>
        <time>2022-08-05T12:48:12.000Z</time>
      </trkpt>
      <trkpt lat="49.24222" lon="-0.27337">
        <ele>6.618067</ele>
        <time>2022-08-05T12:49:09.000Z</time>
      </trkpt>
      <trkpt lat="49.2422" lon="-0.27336">
        <ele>6.600516</ele>
        <time>2022-08-05T12:49:11.000Z</time>
      </trkpt>
      <trkpt lat="49.24218" lon="-0.27334">
        <ele>6.587598</ele>
        <time>2022-08-05T12:49:14.000Z</time>
      </trkpt>
      <trkpt lat="49.2421" lon="-0.27339">
        <ele>6.538462</ele>
        <time>2022-08-05T12:49:24.000Z</time>
      </trkpt>
      <trkpt lat="49.24208" lon="-0.27341">
        <ele>6.520953</ele>
        <time>2022-08-05T12:49:25.000Z</time>
      </trkpt>
      <trkpt lat="49.24206" lon="-0.27342">
        <ele>6.509709</ele>
        <time>2022-08-05T12:49:26.000Z</time>
      </trkpt>
      <trkpt lat="49.24204" lon="-0.27344">
        <ele>6.495396</ele>
        <time>2022-08-05T12:49:27.000Z</time>
      </trkpt>
      <trkpt lat="49.24203" lon="-0.27346">
        <ele>6.483513</ele>
        <time>2022-08-05T12:49:28.000Z</time>
      </trkpt>
      <trkpt lat="49.24202" lon="-0.27349">
        <ele>6.469861</ele>
        <time>2022-08-05T12:49:29.000Z</time>
      </trkpt>
      <trkpt lat="49.24204" lon="-0.27354">
        <ele>6.448047</ele>
        <time>2022-08-05T12:49:31.000Z</time>
      </trkpt>
      <trkpt lat="49.24204" lon="-0.27359">
        <ele>6.430923</ele>
        <time>2022-08-05T12:49:33.000Z</time>
      </trkpt>
      <trkpt lat="49.24203" lon="-0.27361">
        <ele>6.418273</ele>
        <time>2022-08-05T12:49:35.000Z</time>
      </trkpt>
      <trkpt lat="49.242" lon="-0.2736">
        <ele>6.401025</ele>
        <time>2022-08-05T12:49:37.000Z</time>
      </trkpt>
      <trkpt lat="49.242" lon="-0.27357">
        <ele>6.389525</ele>
        <time>2022-08-05T12:49:38.000Z</time>
      </trkpt>
      <trkpt lat="49.242" lon="-0.27353">
        <ele>6.374011</ele>
        <time>2022-08-05T12:49:39.000Z</time>
      </trkpt>
      <trkpt lat="49.24199" lon="-0.27349">
        <ele>6.35608</ele>
        <time>2022-08-05T12:49:40.000Z</time>
      </trkpt>
      <trkpt lat="49.24199" lon="-0.27345">
        <ele>6.338476</ele>
        <time>2022-08-05T12:49:41.000Z</time>
      </trkpt>
      <trkpt lat="49.24198" lon="-0.2734">
        <ele>6.3194</ele>
        <time>2022-08-05T12:49:42.000Z</time>
      </trkpt>
      <trkpt lat="49.24197" lon="-0.27336">
        <ele>6.301438</ele>
        <time>2022-08-05T12:49:43.000Z</time>
      </trkpt>
      <trkpt lat="49.24196" lon="-0.27331">
        <ele>6.282111</ele>
        <time>2022-08-05T12:49:44.000Z</time>
      </trkpt>
      <trkpt lat="49.24195" lon="-0.27327">
        <ele>6.264372</ele>
        <time>2022-08-05T12:49:45.000Z</time>
      </trkpt>
      <trkpt lat="49.24194" lon="-0.27323">
        <ele>6.245358</ele>
        <time>2022-08-05T12:49:46.000Z</time>
      </trkpt>
      <trkpt lat="49.24192" lon="-0.27319">
        <ele>6.225649</ele>
        <time>2022-08-05T12:49:47.000Z</time>
      </trkpt>
      <trkpt lat="49.24191" lon="-0.27315">
        <ele>6.207148</ele>
        <time>2022-08-05T12:49:48.000Z</time>
      </trkpt>
      <trkpt lat="49.2419" lon="-0.27311">
        <ele>6.188567</ele>
        <time>2022-08-05T12:49:49.000Z</time>
      </trkpt>
      <trkpt lat="49.24188" lon="-0.27306">
        <ele>6.167168</ele>
        <time>2022-08-05T12:49:50.000Z</time>
      </trkpt>
      <trkpt lat="49.24186" lon="-0.27301">
        <ele>6.142305</ele>
        <time>2022-08-05T12:49:51.000Z</time>
      </trkpt>
      <trkpt lat="49.24183" lon="-0.27295">
        <ele>6.114136</ele>
        <time>2022-08-05T12:49:52.000Z</time>
      </trkpt>
      <trkpt lat="49.24181" lon="-0.27288">
        <ele>6.081215</ele>
        <time>2022-08-05T12:49:53.000Z</time>
      </trkpt>
      <trkpt lat="49.24178" lon="-0.27281">
        <ele>6.047631</ele>
        <time>2022-08-05T12:49:54.000Z</time>
      </trkpt>
      <trkpt lat="49.24175" lon="-0.27272">
        <ele>6.009042</ele>
        <time>2022-08-05T12:49:55.000Z</time>
      </trkpt>
      <trkpt lat="49.24174" lon="-0.27267">
        <ele>5.983895</ele>
        <time>2022-08-05T12:49:56.000Z</time>
      </trkpt>
      <trkpt lat="49.24172" lon="-0.2726">
        <ele>5.952132</ele>
        <time>2022-08-05T12:49:57.000Z</time>
      </trkpt>
      <trkpt lat="49.24169" lon="-0.27253">
        <ele>5.921373</ele>
        <time>2022-08-05T12:49:58.000Z</time>
      </trkpt>
      <trkpt lat="49.24167" lon="-0.27246">
        <ele>5.891766</ele>
        <time>2022-08-05T12:49:59.000Z</time>
      </trkpt>
      <trkpt lat="49.24165" lon="-0.2724">
        <ele>5.862641</ele>
        <time>2022-08-05T12:50:00.000Z</time>
      </trkpt>
      <trkpt lat="49.24162" lon="-0.27232">
        <ele>5.825646</ele>
        <time>2022-08-05T12:50:01.000Z</time>
      </trkpt>
      <trkpt lat="49.2416" lon="-0.27227">
        <ele>5.802197</ele>
        <time>2022-08-05T12:50:02.000Z</time>
      </trkpt>
      <trkpt lat="49.24158" lon="-0.27221">
        <ele>5.772316</ele>
        <time>2022-08-05T12:50:03.000Z</time>
      </trkpt>
      <trkpt lat="49.24155" lon="-0.27214">
        <ele>5.739964</ele>
        <time>2022-08-05T12:50:04.000Z</time>
      </trkpt>
      <trkpt lat="49.24152" lon="-0.27208">
        <ele>5.709998</ele>
        <time>2022-08-05T12:50:05.000Z</time>
      </trkpt>
      <trkpt lat="49.2415" lon="-0.27201">
        <ele>5.6796</ele>
        <time>2022-08-05T12:50:06.000Z</time>
      </trkpt>
      <trkpt lat="49.24148" lon="-0.27194">
        <ele>5.668998</ele>
        <time>2022-08-05T12:50:07.000Z</time>
      </trkpt>
      <trkpt lat="49.24146" lon="-0.27187">
        <ele>5.66169</ele>
        <time>2022-08-05T12:50:08.000Z</time>
      </trkpt>
      <trkpt lat="49.24144" lon="-0.2718">
        <ele>5.65442</ele>
        <time>2022-08-05T12:50:09.000Z</time>
      </trkpt>
      <trkpt lat="49.24142" lon="-0.27173">
        <ele>5.647522</ele>
        <time>2022-08-05T12:50:10.000Z</time>
      </trkpt>
      <trkpt lat="49.24141" lon="-0.27167">
        <ele>5.64088</ele>
        <time>2022-08-05T12:50:11.000Z</time>
      </trkpt>
      <trkpt lat="49.24139" lon="-0.2716">
        <ele>5.634068</ele>
        <time>2022-08-05T12:50:12.000Z</time>
      </trkpt>
      <trkpt lat="49.24137" lon="-0.27153">
        <ele>5.627151</ele>
        <time>2022-08-05T12:50:13.000Z</time>
      </trkpt>
      <trkpt lat="49.24135" lon="-0.27145">
        <ele>5.619526</ele>
        <time>2022-08-05T12:50:14.000Z</time>
      </trkpt>
      <trkpt lat="49.24134" lon="-0.2714">
        <ele>5.614246</ele>
        <time>2022-08-05T12:50:15.000Z</time>
      </trkpt>
      <trkpt lat="49.24132" lon="-0.27133">
        <ele>5.607433</ele>
        <time>2022-08-05T12:50:16.000Z</time>
      </trkpt>
      <trkpt lat="49.24131" lon="-0.27126">
        <ele>5.600646</ele>
        <time>2022-08-05T12:50:17.000Z</time>
      </trkpt>
      <trkpt lat="49.24129" lon="-0.27118">
        <ele>5.592532</ele>
        <time>2022-08-05T12:50:18.000Z</time>
      </trkpt>
      <trkpt lat="49.24128" lon="-0.27112">
        <ele>5.587076</ele>
        <time>2022-08-05T12:50:19.000Z</time>
      </trkpt>
      <trkpt lat="49.24126" lon="-0.27105">
        <ele>5.58016</ele>
        <time>2022-08-05T12:50:20.000Z</time>
      </trkpt>
      <trkpt lat="49.24125" lon="-0.27098">
        <ele>5.573243</ele>
        <time>2022-08-05T12:50:21.000Z</time>
      </trkpt>
      <trkpt lat="49.24123" lon="-0.2709">
        <ele>5.56504</ele>
        <time>2022-08-05T12:50:22.000Z</time>
      </trkpt>
      <trkpt lat="49.24121" lon="-0.27084">
        <ele>5.558562</ele>
        <time>2022-08-05T12:50:23.000Z</time>
      </trkpt>
      <trkpt lat="49.2412" lon="-0.27078">
        <ele>5.553417</ele>
        <time>2022-08-05T12:50:24.000Z</time>
      </trkpt>
      <trkpt lat="49.24118" lon="-0.27072">
        <ele>5.546775</ele>
        <time>2022-08-05T12:50:25.000Z</time>
      </trkpt>
      <trkpt lat="49.24116" lon="-0.27064">
        <ele>5.538923</ele>
        <time>2022-08-05T12:50:26.000Z</time>
      </trkpt>
      <trkpt lat="49.24115" lon="-0.27058">
        <ele>5.532619</ele>
        <time>2022-08-05T12:50:27.000Z</time>
      </trkpt>
      <trkpt lat="49.24114" lon="-0.27053">
        <ele>5.527742</ele>
        <time>2022-08-05T12:50:28.000Z</time>
      </trkpt>
      <trkpt lat="49.24112" lon="-0.27045">
        <ele>5.520117</ele>
        <time>2022-08-05T12:50:29.000Z</time>
      </trkpt>
      <trkpt lat="49.24111" lon="-0.2704">
        <ele>5.515098</ele>
        <time>2022-08-05T12:50:30.000Z</time>
      </trkpt>
      <trkpt lat="49.24109" lon="-0.27033">
        <ele>5.507856</ele>
        <time>2022-08-05T12:50:31.000Z</time>
      </trkpt>
      <trkpt lat="49.24108" lon="-0.27028">
        <ele>5.503009</ele>
        <time>2022-08-05T12:50:32.000Z</time>
      </trkpt>
      <trkpt lat="49.24106" lon="-0.27022">
        <ele>5.496936</ele>
        <time>2022-08-05T12:50:33.000Z</time>
      </trkpt>
      <trkpt lat="49.24105" lon="-0.27015">
        <ele>5.490632</ele>
        <time>2022-08-05T12:50:34.000Z</time>
      </trkpt>
      <trkpt lat="49.24103" lon="-0.27008">
        <ele>5.483715</ele>
        <time>2022-08-05T12:50:35.000Z</time>
      </trkpt>
      <trkpt lat="49.24102" lon="-0.27002">
        <ele>5.477952</ele>
        <time>2022-08-05T12:50:36.000Z</time>
      </trkpt>
      <trkpt lat="49.24101" lon="-0.26998">
        <ele>5.473106</ele>
        <time>2022-08-05T12:50:37.000Z</time>
      </trkpt>
      <trkpt lat="49.24099" lon="-0.26991">
        <ele>5.466801</ele>
        <time>2022-08-05T12:50:38.000Z</time>
      </trkpt>
      <trkpt lat="49.24098" lon="-0.26985">
        <ele>5.460664</ele>
        <time>2022-08-05T12:50:39.000Z</time>
      </trkpt>
      <trkpt lat="49.24096" lon="-0.26979">
        <ele>5.45462</ele>
        <time>2022-08-05T12:50:40.000Z</time>
      </trkpt>
      <trkpt lat="49.24095" lon="-0.26973">
        <ele>5.448575</ele>
        <time>2022-08-05T12:50:41.000Z</time>
      </trkpt>
      <trkpt lat="49.24093" lon="-0.26968">
        <ele>5.443129</ele>
        <time>2022-08-05T12:50:42.000Z</time>
      </trkpt>
      <trkpt lat="49.24092" lon="-0.26962">
        <ele>5.437674</ele>
        <time>2022-08-05T12:50:43.000Z</time>
      </trkpt>
      <trkpt lat="49.2409" lon="-0.26957">
        <ele>5.432313</ele>
        <time>2022-08-05T12:50:44.000Z</time>
      </trkpt>
      <trkpt lat="49.24089" lon="-0.26952">
        <ele>5.427452</ele>
        <time>2022-08-05T12:50:45.000Z</time>
      </trkpt>
      <trkpt lat="49.24087" lon="-0.26948">
        <ele>5.422917</ele>
        <time>2022-08-05T12:50:46.000Z</time>
      </trkpt>
      <trkpt lat="49.24085" lon="-0.26945">
        <ele>5.418519</ele>
        <time>2022-08-05T12:50:47.000Z</time>
      </trkpt>
      <trkpt lat="49.24082" lon="-0.26942">
        <ele>5.452846</ele>
        <time>2022-08-05T12:50:48.000Z</time>
      </trkpt>
      <trkpt lat="49.24079" lon="-0.26941">
        <ele>5.494103</ele>
        <time>2022-08-05T12:50:49.000Z</time>
      </trkpt>
      <trkpt lat="49.24078" lon="-0.26939">
        <ele>5.519589</ele>
        <time>2022-08-05T12:50:50.000Z</time>
      </trkpt>
      <trkpt lat="49.24076" lon="-0.26937">
        <ele>5.550666</ele>
        <time>2022-08-05T12:50:51.000Z</time>
      </trkpt>
      <trkpt lat="49.24074" lon="-0.26935">
        <ele>5.580478</ele>
        <time>2022-08-05T12:50:52.000Z</time>
      </trkpt>
      <trkpt lat="49.24073" lon="-0.26932">
        <ele>5.608161</ele>
        <time>2022-08-05T12:50:53.000Z</time>
      </trkpt>
      <trkpt lat="49.24073" lon="-0.26929">
        <ele>5.639784</ele>
        <time>2022-08-05T12:50:54.000Z</time>
      </trkpt>
      <trkpt lat="49.24072" lon="-0.26925">
        <ele>5.674463</ele>
        <time>2022-08-05T12:50:55.000Z</time>
      </trkpt>
      <trkpt lat="49.24071" lon="-0.26921">
        <ele>5.712599</ele>
        <time>2022-08-05T12:50:56.000Z</time>
      </trkpt>
      <trkpt lat="49.24071" lon="-0.26917">
        <ele>5.751126</ele>
        <time>2022-08-05T12:50:57.000Z</time>
      </trkpt>
      <trkpt lat="49.24071" lon="-0.26912">
        <ele>5.788776</ele>
        <time>2022-08-05T12:50:58.000Z</time>
      </trkpt>
      <trkpt lat="49.24073" lon="-0.26909">
        <ele>5.826218</ele>
        <time>2022-08-05T12:50:59.000Z</time>
      </trkpt>
      <trkpt lat="49.24074" lon="-0.26904">
        <ele>5.869867</ele>
        <time>2022-08-05T12:51:00.000Z</time>
      </trkpt>
      <trkpt lat="49.24075" lon="-0.269">
        <ele>5.910901</ele>
        <time>2022-08-05T12:51:01.000Z</time>
      </trkpt>
      <trkpt lat="49.24075" lon="-0.26895">
        <ele>5.952591</ele>
        <time>2022-08-05T12:51:02.000Z</time>
      </trkpt>
      <trkpt lat="49.24074" lon="-0.2689">
        <ele>5.993754</ele>
        <time>2022-08-05T12:51:03.000Z</time>
      </trkpt>
      <trkpt lat="49.24073" lon="-0.26885">
        <ele>6.038906</ele>
        <time>2022-08-05T12:51:04.000Z</time>
      </trkpt>
      <trkpt lat="49.24073" lon="-0.26881">
        <ele>6.082532</ele>
        <time>2022-08-05T12:51:05.000Z</time>
      </trkpt>
      <trkpt lat="49.24071" lon="-0.26876">
        <ele>6.128124</ele>
        <time>2022-08-05T12:51:06.000Z</time>
      </trkpt>
      <trkpt lat="49.24071" lon="-0.26871">
        <ele>6.170885</ele>
        <time>2022-08-05T12:51:07.000Z</time>
      </trkpt>
      <trkpt lat="49.24069" lon="-0.26866">
        <ele>6.21698</ele>
        <time>2022-08-05T12:51:08.000Z</time>
      </trkpt>
      <trkpt lat="49.24069" lon="-0.26861">
        <ele>6.262131</ele>
        <time>2022-08-05T12:51:09.000Z</time>
      </trkpt>
      <trkpt lat="49.24067" lon="-0.26857">
        <ele>6.305781</ele>
        <time>2022-08-05T12:51:10.000Z</time>
      </trkpt>
      <trkpt lat="49.24066" lon="-0.26852">
        <ele>6.350473</ele>
        <time>2022-08-05T12:51:11.000Z</time>
      </trkpt>
      <trkpt lat="49.24065" lon="-0.26847">
        <ele>6.396065</ele>
        <time>2022-08-05T12:51:12.000Z</time>
      </trkpt>
      <trkpt lat="49.24064" lon="-0.26843">
        <ele>6.438826</ele>
        <time>2022-08-05T12:51:13.000Z</time>
      </trkpt>
      <trkpt lat="49.24063" lon="-0.26838">
        <ele>6.484103</ele>
        <time>2022-08-05T12:51:14.000Z</time>
      </trkpt>
      <trkpt lat="49.24062" lon="-0.26833">
        <ele>6.528401</ele>
        <time>2022-08-05T12:51:15.000Z</time>
      </trkpt>
      <trkpt lat="49.24061" lon="-0.26828">
        <ele>6.574497</ele>
        <time>2022-08-05T12:51:16.000Z</time>
      </trkpt>
      <trkpt lat="49.2406" lon="-0.26823">
        <ele>6.621412</ele>
        <time>2022-08-05T12:51:17.000Z</time>
      </trkpt>
      <trkpt lat="49.24059" lon="-0.26819">
        <ele>6.664008</ele>
        <time>2022-08-05T12:51:18.000Z</time>
      </trkpt>
      <trkpt lat="49.24057" lon="-0.26814">
        <ele>6.709286</ele>
        <time>2022-08-05T12:51:19.000Z</time>
      </trkpt>
      <trkpt lat="49.24056" lon="-0.2681">
        <ele>6.751451</ele>
        <time>2022-08-05T12:51:20.000Z</time>
      </trkpt>
      <trkpt lat="49.24055" lon="-0.26805">
        <ele>6.796728</ele>
        <time>2022-08-05T12:51:21.000Z</time>
      </trkpt>
      <trkpt lat="49.24054" lon="-0.26801">
        <ele>6.836782</ele>
        <time>2022-08-05T12:51:22.000Z</time>
      </trkpt>
      <trkpt lat="49.24053" lon="-0.26796">
        <ele>6.878815</ele>
        <time>2022-08-05T12:51:23.000Z</time>
      </trkpt>
      <trkpt lat="49.24052" lon="-0.26792">
        <ele>6.920045</ele>
        <time>2022-08-05T12:51:24.000Z</time>
      </trkpt>
      <trkpt lat="49.24051" lon="-0.26788">
        <ele>6.960169</ele>
        <time>2022-08-05T12:51:25.000Z</time>
      </trkpt>
      <trkpt lat="49.24051" lon="-0.26783">
        <ele>6.998305</ele>
        <time>2022-08-05T12:51:26.000Z</time>
      </trkpt>
      <trkpt lat="49.24049" lon="-0.26779">
        <ele>7.038735</ele>
        <time>2022-08-05T12:51:27.000Z</time>
      </trkpt>
      <trkpt lat="49.24048" lon="-0.26775">
        <ele>7.075902</ele>
        <time>2022-08-05T12:51:28.000Z</time>
      </trkpt>
      <trkpt lat="49.24047" lon="-0.26772">
        <ele>7.110096</ele>
        <time>2022-08-05T12:51:29.000Z</time>
      </trkpt>
      <trkpt lat="49.24046" lon="-0.26768">
        <ele>7.149751</ele>
        <time>2022-08-05T12:51:30.000Z</time>
      </trkpt>
      <trkpt lat="49.24045" lon="-0.26762">
        <ele>7.201636</ele>
        <time>2022-08-05T12:51:32.000Z</time>
      </trkpt>
      <trkpt lat="49.24045" lon="-0.26759">
        <ele>7.23119</ele>
        <time>2022-08-05T12:51:33.000Z</time>
      </trkpt>
      <trkpt lat="49.24044" lon="-0.26755">
        <ele>7.263289</ele>
        <time>2022-08-05T12:51:34.000Z</time>
      </trkpt>
      <trkpt lat="49.24044" lon="-0.26752">
        <ele>7.295759</ele>
        <time>2022-08-05T12:51:35.000Z</time>
      </trkpt>
      <trkpt lat="49.24043" lon="-0.26748">
        <ele>7.327</ele>
        <time>2022-08-05T12:51:36.000Z</time>
      </trkpt>
      <trkpt lat="49.24043" lon="-0.26745">
        <ele>7.353921</ele>
        <time>2022-08-05T12:51:38.000Z</time>
      </trkpt>
      <trkpt lat="49.24041" lon="-0.26737">
        <ele>7.429634</ele>
        <time>2022-08-05T12:52:07.000Z</time>
      </trkpt>
      <trkpt lat="49.24041" lon="-0.26733">
        <ele>7.470667</ele>
        <time>2022-08-05T12:52:08.000Z</time>
      </trkpt>
      <trkpt lat="49.2404" lon="-0.26728">
        <ele>7.515762</ele>
        <time>2022-08-05T12:52:09.000Z</time>
      </trkpt>
      <trkpt lat="49.24039" lon="-0.26722">
        <ele>7.565153</ele>
        <time>2022-08-05T12:52:10.000Z</time>
      </trkpt>
      <trkpt lat="49.24037" lon="-0.26717">
        <ele>7.619548</ele>
        <time>2022-08-05T12:52:11.000Z</time>
      </trkpt>
      <trkpt lat="49.24036" lon="-0.2671">
        <ele>7.677761</ele>
        <time>2022-08-05T12:52:12.000Z</time>
      </trkpt>
      <trkpt lat="49.24035" lon="-0.26704">
        <ele>7.737215</ele>
        <time>2022-08-05T12:52:13.000Z</time>
      </trkpt>
      <trkpt lat="49.24033" lon="-0.26697">
        <ele>7.799664</ele>
        <time>2022-08-05T12:52:14.000Z</time>
      </trkpt>
      <trkpt lat="49.24032" lon="-0.26691">
        <ele>7.8588</ele>
        <time>2022-08-05T12:52:15.000Z</time>
      </trkpt>
      <trkpt lat="49.24031" lon="-0.26685">
        <ele>7.797228</ele>
        <time>2022-08-05T12:52:16.000Z</time>
      </trkpt>
      <trkpt lat="49.24029" lon="-0.26679">
        <ele>7.727651</ele>
        <time>2022-08-05T12:52:17.000Z</time>
      </trkpt>
      <trkpt lat="49.24028" lon="-0.26673">
        <ele>7.657091</ele>
        <time>2022-08-05T12:52:18.000Z</time>
      </trkpt>
      <trkpt lat="49.24026" lon="-0.26667">
        <ele>7.586513</ele>
        <time>2022-08-05T12:52:19.000Z</time>
      </trkpt>
      <trkpt lat="49.24024" lon="-0.26661">
        <ele>7.519604</ele>
        <time>2022-08-05T12:52:20.000Z</time>
      </trkpt>
      <trkpt lat="49.24023" lon="-0.26655">
        <ele>7.452963</ele>
        <time>2022-08-05T12:52:21.000Z</time>
      </trkpt>
      <trkpt lat="49.24021" lon="-0.26649">
        <ele>7.387295</ele>
        <time>2022-08-05T12:52:22.000Z</time>
      </trkpt>
      <trkpt lat="49.2402" lon="-0.26644">
        <ele>7.327284</ele>
        <time>2022-08-05T12:52:23.000Z</time>
      </trkpt>
      <trkpt lat="49.24019" lon="-0.26638">
        <ele>7.263555</ele>
        <time>2022-08-05T12:52:24.000Z</time>
      </trkpt>
      <trkpt lat="49.24017" lon="-0.26633">
        <ele>7.204622</ele>
        <time>2022-08-05T12:52:25.000Z</time>
      </trkpt>
      <trkpt lat="49.24016" lon="-0.26628">
        <ele>7.149276</ele>
        <time>2022-08-05T12:52:26.000Z</time>
      </trkpt>
      <trkpt lat="49.24015" lon="-0.26623">
        <ele>7.097194</ele>
        <time>2022-08-05T12:52:27.000Z</time>
      </trkpt>
      <trkpt lat="49.24013" lon="-0.2662">
        <ele>7.049337</ele>
        <time>2022-08-05T12:52:28.000Z</time>
      </trkpt>
      <trkpt lat="49.24012" lon="-0.26617">
        <ele>7.008732</ele>
        <time>2022-08-05T12:52:29.000Z</time>
      </trkpt>
      <trkpt lat="49.2401" lon="-0.26616">
        <ele>6.97408</ele>
        <time>2022-08-05T12:52:30.000Z</time>
      </trkpt>
      <trkpt lat="49.24007" lon="-0.26614">
        <ele>6.92446</ele>
        <time>2022-08-05T12:52:32.000Z</time>
      </trkpt>
      <trkpt lat="49.24007" lon="-0.26611">
        <ele>6.887417</ele>
        <time>2022-08-05T12:52:35.000Z</time>
      </trkpt>
      <trkpt lat="49.24008" lon="-0.26609">
        <ele>6.858056</ele>
        <time>2022-08-05T12:52:37.000Z</time>
      </trkpt>
      <trkpt lat="49.24015" lon="-0.26605">
        <ele>6.735781</ele>
        <time>2022-08-05T12:52:56.000Z</time>
      </trkpt>
      <trkpt lat="49.24019" lon="-0.26604">
        <ele>6.681532</ele>
        <time>2022-08-05T12:52:57.000Z</time>
      </trkpt>
      <trkpt lat="49.24021" lon="-0.26603">
        <ele>6.639366</ele>
        <time>2022-08-05T12:52:58.000Z</time>
      </trkpt>
      <trkpt lat="49.24024" lon="-0.26602">
        <ele>6.595909</ele>
        <time>2022-08-05T12:52:59.000Z</time>
      </trkpt>
      <trkpt lat="49.24027" lon="-0.26601">
        <ele>6.542502</ele>
        <time>2022-08-05T12:53:00.000Z</time>
      </trkpt>
      <trkpt lat="49.2403" lon="-0.26599">
        <ele>6.487596</ele>
        <time>2022-08-05T12:53:01.000Z</time>
      </trkpt>
      <trkpt lat="49.24033" lon="-0.26597">
        <ele>6.435595</ele>
        <time>2022-08-05T12:53:02.000Z</time>
      </trkpt>
      <trkpt lat="49.24036" lon="-0.26594">
        <ele>6.386006</ele>
        <time>2022-08-05T12:53:03.000Z</time>
      </trkpt>
      <trkpt lat="49.24038" lon="-0.26592">
        <ele>6.337333</ele>
        <time>2022-08-05T12:53:04.000Z</time>
      </trkpt>
      <trkpt lat="49.2404" lon="-0.2659">
        <ele>6.29996</ele>
        <time>2022-08-05T12:53:05.000Z</time>
      </trkpt>
      <trkpt lat="49.24043" lon="-0.26588">
        <ele>6.253261</ele>
        <time>2022-08-05T12:53:06.000Z</time>
      </trkpt>
      <trkpt lat="49.24045" lon="-0.26586">
        <ele>6.207539</ele>
        <time>2022-08-05T12:53:07.000Z</time>
      </trkpt>
      <trkpt lat="49.24048" lon="-0.26584">
        <ele>6.156814</ele>
        <time>2022-08-05T12:53:08.000Z</time>
      </trkpt>
      <trkpt lat="49.2405" lon="-0.26581">
        <ele>6.111114</ele>
        <time>2022-08-05T12:53:09.000Z</time>
      </trkpt>
      <trkpt lat="49.24052" lon="-0.26579">
        <ele>6.077287</ele>
        <time>2022-08-05T12:53:10.000Z</time>
      </trkpt>
      <trkpt lat="49.24053" lon="-0.26576">
        <ele>6.043461</ele>
        <time>2022-08-05T12:53:11.000Z</time>
      </trkpt>
      <trkpt lat="49.24054" lon="-0.26574">
        <ele>6.009303</ele>
        <time>2022-08-05T12:53:12.000Z</time>
      </trkpt>
      <trkpt lat="49.24057" lon="-0.26571">
        <ele>5.951771</ele>
        <time>2022-08-05T12:53:14.000Z</time>
      </trkpt>
      <trkpt lat="49.24064" lon="-0.26564">
        <ele>5.812154</ele>
        <time>2022-08-05T12:53:45.000Z</time>
      </trkpt>
      <trkpt lat="49.24067" lon="-0.26562">
        <ele>5.764989</ele>
        <time>2022-08-05T12:53:46.000Z</time>
      </trkpt>
      <trkpt lat="49.2407" lon="-0.26559">
        <ele>5.708128</ele>
        <time>2022-08-05T12:53:47.000Z</time>
      </trkpt>
      <trkpt lat="49.24073" lon="-0.26557">
        <ele>5.659728</ele>
        <time>2022-08-05T12:53:48.000Z</time>
      </trkpt>
      <trkpt lat="49.24076" lon="-0.26554">
        <ele>5.595207</ele>
        <time>2022-08-05T12:53:49.000Z</time>
      </trkpt>
      <trkpt lat="49.24079" lon="-0.26551">
        <ele>5.540413</ele>
        <time>2022-08-05T12:53:50.000Z</time>
      </trkpt>
      <trkpt lat="49.24083" lon="-0.26549">
        <ele>5.474961</ele>
        <time>2022-08-05T12:53:51.000Z</time>
      </trkpt>
      <trkpt lat="49.24086" lon="-0.26546">
        <ele>5.410951</ele>
        <time>2022-08-05T12:53:52.000Z</time>
      </trkpt>
      <trkpt lat="49.24089" lon="-0.26543">
        <ele>5.351726</ele>
        <time>2022-08-05T12:53:53.000Z</time>
      </trkpt>
      <trkpt lat="49.24093" lon="-0.26541">
        <ele>5.293493</ele>
        <time>2022-08-05T12:53:54.000Z</time>
      </trkpt>
      <trkpt lat="49.24096" lon="-0.26538">
        <ele>5.234268</ele>
        <time>2022-08-05T12:53:55.000Z</time>
      </trkpt>
      <trkpt lat="49.24099" lon="-0.26535">
        <ele>5.179795</ele>
        <time>2022-08-05T12:53:56.000Z</time>
      </trkpt>
      <trkpt lat="49.24102" lon="-0.26533">
        <ele>5.116267</ele>
        <time>2022-08-05T12:53:57.000Z</time>
      </trkpt>
      <trkpt lat="49.24106" lon="-0.2653">
        <ele>5.05125</ele>
        <time>2022-08-05T12:53:58.000Z</time>
      </trkpt>
      <trkpt lat="49.24109" lon="-0.26527">
        <ele>4.99831</ele>
        <time>2022-08-05T12:53:59.000Z</time>
      </trkpt>
      <trkpt lat="49.24112" lon="-0.26525">
        <ele>4.945443</ele>
        <time>2022-08-05T12:54:00.000Z</time>
      </trkpt>
      <trkpt lat="49.24115" lon="-0.26523">
        <ele>4.940176</ele>
        <time>2022-08-05T12:54:01.000Z</time>
      </trkpt>
      <trkpt lat="49.24117" lon="-0.26521">
        <ele>4.9359</ele>
        <time>2022-08-05T12:54:02.000Z</time>
      </trkpt>
      <trkpt lat="49.2412" lon="-0.26517">
        <ele>4.929097</ele>
        <time>2022-08-05T12:54:03.000Z</time>
      </trkpt>
      <trkpt lat="49.24123" lon="-0.26515">
        <ele>4.924627</ele>
        <time>2022-08-05T12:54:04.000Z</time>
      </trkpt>
      <trkpt lat="49.24126" lon="-0.26513">
        <ele>4.91878</ele>
        <time>2022-08-05T12:54:05.000Z</time>
      </trkpt>
      <trkpt lat="49.24128" lon="-0.2651">
        <ele>4.914088</ele>
        <time>2022-08-05T12:54:06.000Z</time>
      </trkpt>
      <trkpt lat="49.24132" lon="-0.26508">
        <ele>4.908192</ele>
        <time>2022-08-05T12:54:07.000Z</time>
      </trkpt>
      <trkpt lat="49.24135" lon="-0.26505">
        <ele>4.902346</ele>
        <time>2022-08-05T12:54:08.000Z</time>
      </trkpt>
      <trkpt lat="49.24138" lon="-0.26503">
        <ele>4.89693</ele>
        <time>2022-08-05T12:54:09.000Z</time>
      </trkpt>
      <trkpt lat="49.24141" lon="-0.265">
        <ele>4.891407</ele>
        <time>2022-08-05T12:54:10.000Z</time>
      </trkpt>
      <trkpt lat="49.24143" lon="-0.26498">
        <ele>4.887131</ele>
        <time>2022-08-05T12:54:11.000Z</time>
      </trkpt>
      <trkpt lat="49.24146" lon="-0.26495">
        <ele>4.880603</ele>
        <time>2022-08-05T12:54:12.000Z</time>
      </trkpt>
      <trkpt lat="49.24149" lon="-0.26493">
        <ele>4.876399</ele>
        <time>2022-08-05T12:54:13.000Z</time>
      </trkpt>
      <trkpt lat="49.24152" lon="-0.2649">
        <ele>4.869342</ele>
        <time>2022-08-05T12:54:14.000Z</time>
      </trkpt>
      <trkpt lat="49.24156" lon="-0.26487">
        <ele>4.863344</ele>
        <time>2022-08-05T12:54:15.000Z</time>
      </trkpt>
      <trkpt lat="49.24158" lon="-0.26484">
        <ele>4.857821</ele>
        <time>2022-08-05T12:54:16.000Z</time>
      </trkpt>
      <trkpt lat="49.24162" lon="-0.26482">
        <ele>4.851823</ele>
        <time>2022-08-05T12:54:17.000Z</time>
      </trkpt>
      <trkpt lat="49.24164" lon="-0.2648">
        <ele>4.847659</ele>
        <time>2022-08-05T12:54:18.000Z</time>
      </trkpt>
      <trkpt lat="49.24168" lon="-0.26476">
        <ele>4.840024</ele>
        <time>2022-08-05T12:54:19.000Z</time>
      </trkpt>
      <trkpt lat="49.24171" lon="-0.26474">
        <ele>4.834178</ele>
        <time>2022-08-05T12:54:20.000Z</time>
      </trkpt>
      <trkpt lat="49.24174" lon="-0.26471">
        <ele>4.828283</ele>
        <time>2022-08-05T12:54:21.000Z</time>
      </trkpt>
      <trkpt lat="49.24178" lon="-0.26468">
        <ele>4.821325</ele>
        <time>2022-08-05T12:54:22.000Z</time>
      </trkpt>
      <trkpt lat="49.24181" lon="-0.26465">
        <ele>4.815273</ele>
        <time>2022-08-05T12:54:23.000Z</time>
      </trkpt>
      <trkpt lat="49.24185" lon="-0.26462">
        <ele>4.808022</ele>
        <time>2022-08-05T12:54:24.000Z</time>
      </trkpt>
      <trkpt lat="49.24188" lon="-0.26459">
        <ele>4.802327</ele>
        <time>2022-08-05T12:54:25.000Z</time>
      </trkpt>
      <trkpt lat="49.24192" lon="-0.26456">
        <ele>4.795693</ele>
        <time>2022-08-05T12:54:26.000Z</time>
      </trkpt>
      <trkpt lat="49.24195" lon="-0.26453">
        <ele>4.789266</ele>
        <time>2022-08-05T12:54:27.000Z</time>
      </trkpt>
      <trkpt lat="49.24198" lon="-0.2645">
        <ele>4.783268</ele>
        <time>2022-08-05T12:54:28.000Z</time>
      </trkpt>
      <trkpt lat="49.24202" lon="-0.26447">
        <ele>4.776792</ele>
        <time>2022-08-05T12:54:29.000Z</time>
      </trkpt>
      <trkpt lat="49.24205" lon="-0.26444">
        <ele>4.770264</ele>
        <time>2022-08-05T12:54:30.000Z</time>
      </trkpt>
      <trkpt lat="49.24208" lon="-0.26442">
        <ele>4.764685</ele>
        <time>2022-08-05T12:54:31.000Z</time>
      </trkpt>
      <trkpt lat="49.24212" lon="-0.26439">
        <ele>4.758259</ele>
        <time>2022-08-05T12:54:32.000Z</time>
      </trkpt>
      <trkpt lat="49.24215" lon="-0.26436">
        <ele>4.751639</ele>
        <time>2022-08-05T12:54:33.000Z</time>
      </trkpt>
      <trkpt lat="49.24218" lon="-0.26434">
        <ele>4.746565</ele>
        <time>2022-08-05T12:54:34.000Z</time>
      </trkpt>
      <trkpt lat="49.24223" lon="-0.2643">
        <ele>4.738252</ele>
        <time>2022-08-05T12:54:35.000Z</time>
      </trkpt>
      <trkpt lat="49.24226" lon="-0.26427">
        <ele>4.732146</ele>
        <time>2022-08-05T12:54:36.000Z</time>
      </trkpt>
      <trkpt lat="49.2423" lon="-0.26424">
        <ele>4.725136</ele>
        <time>2022-08-05T12:54:37.000Z</time>
      </trkpt>
      <trkpt lat="49.24234" lon="-0.26421">
        <ele>4.718227</ele>
        <time>2022-08-05T12:54:38.000Z</time>
      </trkpt>
      <trkpt lat="49.24237" lon="-0.26418">
        <ele>4.711269</ele>
        <time>2022-08-05T12:54:39.000Z</time>
      </trkpt>
      <trkpt lat="49.2424" lon="-0.26416">
        <ele>4.706273</ele>
        <time>2022-08-05T12:54:40.000Z</time>
      </trkpt>
      <trkpt lat="49.24244" lon="-0.26412">
        <ele>4.698334</ele>
        <time>2022-08-05T12:54:41.000Z</time>
      </trkpt>
      <trkpt lat="49.24247" lon="-0.2641">
        <ele>4.692487</ele>
        <time>2022-08-05T12:54:42.000Z</time>
      </trkpt>
      <trkpt lat="49.24252" lon="-0.26406">
        <ele>4.684742</ele>
        <time>2022-08-05T12:54:43.000Z</time>
      </trkpt>
      <trkpt lat="49.24255" lon="-0.26403">
        <ele>4.677591</ele>
        <time>2022-08-05T12:54:44.000Z</time>
      </trkpt>
      <trkpt lat="49.24259" lon="-0.264">
        <ele>4.670534</ele>
        <time>2022-08-05T12:54:45.000Z</time>
      </trkpt>
      <trkpt lat="49.24262" lon="-0.26397">
        <ele>4.665118</ele>
        <time>2022-08-05T12:54:46.000Z</time>
      </trkpt>
      <trkpt lat="49.24266" lon="-0.26394">
        <ele>4.65806</ele>
        <time>2022-08-05T12:54:47.000Z</time>
      </trkpt>
      <trkpt lat="49.24269" lon="-0.26391">
        <ele>4.649387</ele>
        <time>2022-08-05T12:54:48.000Z</time>
      </trkpt>
      <trkpt lat="49.24273" lon="-0.26388">
        <ele>4.632897</ele>
        <time>2022-08-05T12:54:49.000Z</time>
      </trkpt>
      <trkpt lat="49.24277" lon="-0.26385">
        <ele>4.617494</ele>
        <time>2022-08-05T12:54:50.000Z</time>
      </trkpt>
      <trkpt lat="49.24281" lon="-0.26381">
        <ele>4.601109</ele>
        <time>2022-08-05T12:54:51.000Z</time>
      </trkpt>
      <trkpt lat="49.24284" lon="-0.26379">
        <ele>4.587183</ele>
        <time>2022-08-05T12:54:52.000Z</time>
      </trkpt>
      <trkpt lat="49.24288" lon="-0.26376">
        <ele>4.570908</ele>
        <time>2022-08-05T12:54:53.000Z</time>
      </trkpt>
      <trkpt lat="49.24291" lon="-0.26372">
        <ele>4.555247</ele>
        <time>2022-08-05T12:54:54.000Z</time>
      </trkpt>
      <trkpt lat="49.24295" lon="-0.26369">
        <ele>4.53997</ele>
        <time>2022-08-05T12:54:55.000Z</time>
      </trkpt>
      <trkpt lat="49.24298" lon="-0.26366">
        <ele>4.524934</ele>
        <time>2022-08-05T12:54:56.000Z</time>
      </trkpt>
      <trkpt lat="49.24301" lon="-0.26364">
        <ele>4.512236</ele>
        <time>2022-08-05T12:54:57.000Z</time>
      </trkpt>
      <trkpt lat="49.24304" lon="-0.26361">
        <ele>4.49806</ele>
        <time>2022-08-05T12:54:58.000Z</time>
      </trkpt>
      <trkpt lat="49.24308" lon="-0.26357">
        <ele>4.481103</ele>
        <time>2022-08-05T12:54:59.000Z</time>
      </trkpt>
      <trkpt lat="49.24311" lon="-0.26354">
        <ele>4.466796</ele>
        <time>2022-08-05T12:55:00.000Z</time>
      </trkpt>
      <trkpt lat="49.24315" lon="-0.26351">
        <ele>4.450642</ele>
        <time>2022-08-05T12:55:01.000Z</time>
      </trkpt>
      <trkpt lat="49.24319" lon="-0.26348">
        <ele>4.435606</ele>
        <time>2022-08-05T12:55:02.000Z</time>
      </trkpt>
      <trkpt lat="49.24322" lon="-0.26345">
        <ele>4.420329</ele>
        <time>2022-08-05T12:55:03.000Z</time>
      </trkpt>
      <trkpt lat="49.24325" lon="-0.26342">
        <ele>4.406152</ele>
        <time>2022-08-05T12:55:04.000Z</time>
      </trkpt>
      <trkpt lat="49.24329" lon="-0.26339">
        <ele>4.390171</ele>
        <time>2022-08-05T12:55:05.000Z</time>
      </trkpt>
      <trkpt lat="49.24333" lon="-0.26336">
        <ele>4.373665</ele>
        <time>2022-08-05T12:55:06.000Z</time>
      </trkpt>
      <trkpt lat="49.24338" lon="-0.26332">
        <ele>4.352235</ele>
        <time>2022-08-05T12:55:07.000Z</time>
      </trkpt>
      <trkpt lat="49.24341" lon="-0.26329">
        <ele>4.339148</ele>
        <time>2022-08-05T12:55:08.000Z</time>
      </trkpt>
      <trkpt lat="49.24345" lon="-0.26326">
        <ele>4.321312</ele>
        <time>2022-08-05T12:55:09.000Z</time>
      </trkpt>
      <trkpt lat="49.24349" lon="-0.26322">
        <ele>4.303924</ele>
        <time>2022-08-05T12:55:10.000Z</time>
      </trkpt>
      <trkpt lat="49.24352" lon="-0.2632">
        <ele>4.291584</ele>
        <time>2022-08-05T12:55:11.000Z</time>
      </trkpt>
      <trkpt lat="49.24355" lon="-0.26317">
        <ele>4.278361</ele>
        <time>2022-08-05T12:55:12.000Z</time>
      </trkpt>
      <trkpt lat="49.24358" lon="-0.26314">
        <ele>4.264436</ele>
        <time>2022-08-05T12:55:13.000Z</time>
      </trkpt>
      <trkpt lat="49.24362" lon="-0.26311">
        <ele>4.247681</ele>
        <time>2022-08-05T12:55:14.000Z</time>
      </trkpt>
      <trkpt lat="49.24366" lon="-0.26307">
        <ele>4.230347</ele>
        <time>2022-08-05T12:55:15.000Z</time>
      </trkpt>
      <trkpt lat="49.24368" lon="-0.26305">
        <ele>4.219452</ele>
        <time>2022-08-05T12:55:16.000Z</time>
      </trkpt>
      <trkpt lat="49.24371" lon="-0.26302">
        <ele>4.206878</ele>
        <time>2022-08-05T12:55:17.000Z</time>
      </trkpt>
      <trkpt lat="49.24375" lon="-0.263">
        <ele>4.192179</ele>
        <time>2022-08-05T12:55:18.000Z</time>
      </trkpt>
      <trkpt lat="49.24379" lon="-0.26296">
        <ele>4.175099</ele>
        <time>2022-08-05T12:55:19.000Z</time>
      </trkpt>
      <trkpt lat="49.24382" lon="-0.26294">
        <ele>4.161846</ele>
        <time>2022-08-05T12:55:20.000Z</time>
      </trkpt>
      <trkpt lat="49.24386" lon="-0.26291">
        <ele>4.145692</ele>
        <time>2022-08-05T12:55:21.000Z</time>
      </trkpt>
      <trkpt lat="49.24389" lon="-0.26288">
        <ele>4.131251</ele>
        <time>2022-08-05T12:55:22.000Z</time>
      </trkpt>
      <trkpt lat="49.24392" lon="-0.26285">
        <ele>4.116096</ele>
        <time>2022-08-05T12:55:23.000Z</time>
      </trkpt>
      <trkpt lat="49.24395" lon="-0.26282">
        <ele>4.103796</ele>
        <time>2022-08-05T12:55:24.000Z</time>
      </trkpt>
      <trkpt lat="49.24398" lon="-0.26279">
        <ele>4.088519</ele>
        <time>2022-08-05T12:55:25.000Z</time>
      </trkpt>
      <trkpt lat="49.24402" lon="-0.26275">
        <ele>4.072859</ele>
        <time>2022-08-05T12:55:26.000Z</time>
      </trkpt>
      <trkpt lat="49.24405" lon="-0.26272">
        <ele>4.057329</ele>
        <time>2022-08-05T12:55:27.000Z</time>
      </trkpt>
      <trkpt lat="49.2441" lon="-0.26268">
        <ele>4.037912</ele>
        <time>2022-08-05T12:55:28.000Z</time>
      </trkpt>
      <trkpt lat="49.24414" lon="-0.26265">
        <ele>4.020401</ele>
        <time>2022-08-05T12:55:29.000Z</time>
      </trkpt>
      <trkpt lat="49.24417" lon="-0.26263">
        <ele>4.007827</ele>
        <time>2022-08-05T12:55:30.000Z</time>
      </trkpt>
      <trkpt lat="49.24421" lon="-0.26259">
        <ele>3.989092</ele>
        <time>2022-08-05T12:55:31.000Z</time>
      </trkpt>
      <trkpt lat="49.24425" lon="-0.26256">
        <ele>3.97521</ele>
        <time>2022-08-05T12:55:32.000Z</time>
      </trkpt>
      <trkpt lat="49.24429" lon="-0.26253">
        <ele>3.9952</ele>
        <time>2022-08-05T12:55:33.000Z</time>
      </trkpt>
      <trkpt lat="49.24433" lon="-0.2625">
        <ele>4.019494</ele>
        <time>2022-08-05T12:55:34.000Z</time>
      </trkpt>
      <trkpt lat="49.24436" lon="-0.26247">
        <ele>4.041131</ele>
        <time>2022-08-05T12:55:35.000Z</time>
      </trkpt>
      <trkpt lat="49.24439" lon="-0.26244">
        <ele>4.059794</ele>
        <time>2022-08-05T12:55:36.000Z</time>
      </trkpt>
      <trkpt lat="49.24444" lon="-0.26241">
        <ele>4.084917</ele>
        <time>2022-08-05T12:55:37.000Z</time>
      </trkpt>
      <trkpt lat="49.24446" lon="-0.26238">
        <ele>4.102487</ele>
        <time>2022-08-05T12:55:38.000Z</time>
      </trkpt>
      <trkpt lat="49.2445" lon="-0.26235">
        <ele>4.123662</ele>
        <time>2022-08-05T12:55:39.000Z</time>
      </trkpt>
      <trkpt lat="49.24454" lon="-0.26231">
        <ele>4.150626</ele>
        <time>2022-08-05T12:55:40.000Z</time>
      </trkpt>
      <trkpt lat="49.24457" lon="-0.26229">
        <ele>4.167868</ele>
        <time>2022-08-05T12:55:41.000Z</time>
      </trkpt>
      <trkpt lat="49.24462" lon="-0.26226">
        <ele>4.194208</ele>
        <time>2022-08-05T12:55:42.000Z</time>
      </trkpt>
      <trkpt lat="49.24466" lon="-0.26223">
        <ele>4.216779</ele>
        <time>2022-08-05T12:55:43.000Z</time>
      </trkpt>
      <trkpt lat="49.24469" lon="-0.2622">
        <ele>4.239349</ele>
        <time>2022-08-05T12:55:44.000Z</time>
      </trkpt>
      <trkpt lat="49.24472" lon="-0.26217">
        <ele>4.256918</ele>
        <time>2022-08-05T12:55:45.000Z</time>
      </trkpt>
      <trkpt lat="49.24477" lon="-0.26214">
        <ele>4.285289</ele>
        <time>2022-08-05T12:55:46.000Z</time>
      </trkpt>
      <trkpt lat="49.2448" lon="-0.2621">
        <ele>4.305655</ele>
        <time>2022-08-05T12:55:47.000Z</time>
      </trkpt>
      <trkpt lat="49.24484" lon="-0.26207">
        <ele>4.326217</ele>
        <time>2022-08-05T12:55:48.000Z</time>
      </trkpt>
      <trkpt lat="49.24487" lon="-0.26204">
        <ele>4.348957</ele>
        <time>2022-08-05T12:55:49.000Z</time>
      </trkpt>
      <trkpt lat="49.2449" lon="-0.26202">
        <ele>4.364179</ele>
        <time>2022-08-05T12:55:50.000Z</time>
      </trkpt>
      <trkpt lat="49.24494" lon="-0.26198">
        <ele>4.390824</ele>
        <time>2022-08-05T12:55:51.000Z</time>
      </trkpt>
      <trkpt lat="49.24498" lon="-0.26195">
        <ele>4.411999</ele>
        <time>2022-08-05T12:55:52.000Z</time>
      </trkpt>
      <trkpt lat="49.24502" lon="-0.26192">
        <ele>4.435197</ele>
        <time>2022-08-05T12:55:53.000Z</time>
      </trkpt>
      <trkpt lat="49.24504" lon="-0.2619">
        <ele>4.45096</ele>
        <time>2022-08-05T12:55:54.000Z</time>
      </trkpt>
      <trkpt lat="49.24509" lon="-0.26186">
        <ele>4.47888</ele>
        <time>2022-08-05T12:55:55.000Z</time>
      </trkpt>
      <trkpt lat="49.24513" lon="-0.26183">
        <ele>4.501921</ele>
        <time>2022-08-05T12:55:56.000Z</time>
      </trkpt>
      <trkpt lat="49.24516" lon="-0.26181">
        <ele>4.517684</ele>
        <time>2022-08-05T12:55:57.000Z</time>
      </trkpt>
      <trkpt lat="49.24519" lon="-0.26178">
        <ele>4.538859</ele>
        <time>2022-08-05T12:55:58.000Z</time>
      </trkpt>
      <trkpt lat="49.24523" lon="-0.26174">
        <ele>4.564269</ele>
        <time>2022-08-05T12:55:59.000Z</time>
      </trkpt>
      <trkpt lat="49.24526" lon="-0.26172">
        <ele>4.580853</ele>
        <time>2022-08-05T12:56:00.000Z</time>
      </trkpt>
      <trkpt lat="49.2453" lon="-0.26168">
        <ele>4.605977</ele>
        <time>2022-08-05T12:56:01.000Z</time>
      </trkpt>
      <trkpt lat="49.24534" lon="-0.26165">
        <ele>4.628717</ele>
        <time>2022-08-05T12:56:02.000Z</time>
      </trkpt>
      <trkpt lat="49.24537" lon="-0.26162">
        <ele>4.649892</ele>
        <time>2022-08-05T12:56:03.000Z</time>
      </trkpt>
      <trkpt lat="49.24541" lon="-0.26159">
        <ele>4.671412</ele>
        <time>2022-08-05T12:56:04.000Z</time>
      </trkpt>
      <trkpt lat="49.24544" lon="-0.26156">
        <ele>4.690536</ele>
        <time>2022-08-05T12:56:05.000Z</time>
      </trkpt>
      <trkpt lat="49.24547" lon="-0.26154">
        <ele>4.707327</ele>
        <time>2022-08-05T12:56:06.000Z</time>
      </trkpt>
      <trkpt lat="49.24551" lon="-0.26151">
        <ele>4.729897</ele>
        <time>2022-08-05T12:56:07.000Z</time>
      </trkpt>
      <trkpt lat="49.24555" lon="-0.26148">
        <ele>4.754978</ele>
        <time>2022-08-05T12:56:08.000Z</time>
      </trkpt>
      <trkpt lat="49.24559" lon="-0.26145">
        <ele>4.777548</ele>
        <time>2022-08-05T12:56:09.000Z</time>
      </trkpt>
      <trkpt lat="49.24562" lon="-0.26142">
        <ele>4.797356</ele>
        <time>2022-08-05T12:56:10.000Z</time>
      </trkpt>
      <trkpt lat="49.24565" lon="-0.26139">
        <ele>4.818701</ele>
        <time>2022-08-05T12:56:11.000Z</time>
      </trkpt>
      <trkpt lat="49.24569" lon="-0.26136">
        <ele>4.837667</ele>
        <time>2022-08-05T12:56:12.000Z</time>
      </trkpt>
      <trkpt lat="49.24573" lon="-0.26133">
        <ele>4.864631</ele>
        <time>2022-08-05T12:56:13.000Z</time>
      </trkpt>
      <trkpt lat="49.24577" lon="-0.26129">
        <ele>4.88633</ele>
        <time>2022-08-05T12:56:14.000Z</time>
      </trkpt>
      <trkpt lat="49.2458" lon="-0.26126">
        <ele>4.908305</ele>
        <time>2022-08-05T12:56:15.000Z</time>
      </trkpt>
      <trkpt lat="49.24584" lon="-0.26123">
        <ele>4.923854</ele>
        <time>2022-08-05T12:56:16.000Z</time>
      </trkpt>
      <trkpt lat="49.24587" lon="-0.2612">
        <ele>4.92634</ele>
        <time>2022-08-05T12:56:17.000Z</time>
      </trkpt>
      <trkpt lat="49.24591" lon="-0.26117">
        <ele>4.928825</ele>
        <time>2022-08-05T12:56:18.000Z</time>
      </trkpt>
      <trkpt lat="49.24594" lon="-0.26114">
        <ele>4.931292</ele>
        <time>2022-08-05T12:56:19.000Z</time>
      </trkpt>
      <trkpt lat="49.24597" lon="-0.26111">
        <ele>4.933416</ele>
        <time>2022-08-05T12:56:20.000Z</time>
      </trkpt>
      <trkpt lat="49.246" lon="-0.26109">
        <ele>4.935257</ele>
        <time>2022-08-05T12:56:21.000Z</time>
      </trkpt>
      <trkpt lat="49.24604" lon="-0.26105">
        <ele>4.938385</ele>
        <time>2022-08-05T12:56:22.000Z</time>
      </trkpt>
      <trkpt lat="49.24607" lon="-0.26103">
        <ele>4.940669</ele>
        <time>2022-08-05T12:56:23.000Z</time>
      </trkpt>
      <trkpt lat="49.24611" lon="-0.261">
        <ele>4.943117</ele>
        <time>2022-08-05T12:56:24.000Z</time>
      </trkpt>
      <trkpt lat="49.24614" lon="-0.26096">
        <ele>4.945685</ele>
        <time>2022-08-05T12:56:25.000Z</time>
      </trkpt>
      <trkpt lat="49.24618" lon="-0.26093">
        <ele>4.948335</ele>
        <time>2022-08-05T12:56:26.000Z</time>
      </trkpt>
      <trkpt lat="49.24622" lon="-0.2609">
        <ele>4.95104</ele>
        <time>2022-08-05T12:56:27.000Z</time>
      </trkpt>
      <trkpt lat="49.24625" lon="-0.26088">
        <ele>4.953123</ele>
        <time>2022-08-05T12:56:28.000Z</time>
      </trkpt>
      <trkpt lat="49.24628" lon="-0.26085">
        <ele>4.955111</ele>
        <time>2022-08-05T12:56:29.000Z</time>
      </trkpt>
      <trkpt lat="49.24631" lon="-0.26083">
        <ele>4.957194</ele>
        <time>2022-08-05T12:56:30.000Z</time>
      </trkpt>
      <trkpt lat="49.24635" lon="-0.26079">
        <ele>4.959975</ele>
        <time>2022-08-05T12:56:31.000Z</time>
      </trkpt>
      <trkpt lat="49.24638" lon="-0.26076">
        <ele>4.962682</ele>
        <time>2022-08-05T12:56:32.000Z</time>
      </trkpt>
      <trkpt lat="49.24641" lon="-0.26074">
        <ele>4.964486</ele>
        <time>2022-08-05T12:56:33.000Z</time>
      </trkpt>
      <trkpt lat="49.24645" lon="-0.26071">
        <ele>4.967082</ele>
        <time>2022-08-05T12:56:34.000Z</time>
      </trkpt>
      <trkpt lat="49.24648" lon="-0.26069">
        <ele>4.969529</ele>
        <time>2022-08-05T12:56:35.000Z</time>
      </trkpt>
      <trkpt lat="49.24652" lon="-0.26066">
        <ele>4.971977</ele>
        <time>2022-08-05T12:56:36.000Z</time>
      </trkpt>
      <trkpt lat="49.24655" lon="-0.26063">
        <ele>4.974203</ele>
        <time>2022-08-05T12:56:37.000Z</time>
      </trkpt>
      <trkpt lat="49.24658" lon="-0.26061">
        <ele>4.976467</ele>
        <time>2022-08-05T12:56:38.000Z</time>
      </trkpt>
      <trkpt lat="49.24662" lon="-0.26058">
        <ele>4.978917</ele>
        <time>2022-08-05T12:56:39.000Z</time>
      </trkpt>
      <trkpt lat="49.24666" lon="-0.26055">
        <ele>4.981605</ele>
        <time>2022-08-05T12:56:40.000Z</time>
      </trkpt>
      <trkpt lat="49.24669" lon="-0.26052">
        <ele>4.983667</ele>
        <time>2022-08-05T12:56:41.000Z</time>
      </trkpt>
      <trkpt lat="49.24672" lon="-0.26049">
        <ele>4.986317</ele>
        <time>2022-08-05T12:56:42.000Z</time>
      </trkpt>
      <trkpt lat="49.24676" lon="-0.26046">
        <ele>4.988803</ele>
        <time>2022-08-05T12:56:43.000Z</time>
      </trkpt>
      <trkpt lat="49.2468" lon="-0.26043">
        <ele>4.991931</ele>
        <time>2022-08-05T12:56:44.000Z</time>
      </trkpt>
      <trkpt lat="49.24684" lon="-0.2604">
        <ele>4.994342</ele>
        <time>2022-08-05T12:56:45.000Z</time>
      </trkpt>
      <trkpt lat="49.24688" lon="-0.26037">
        <ele>4.997214</ele>
        <time>2022-08-05T12:56:46.000Z</time>
      </trkpt>
      <trkpt lat="49.24692" lon="-0.26034">
        <ele>4.9997</ele>
        <time>2022-08-05T12:56:47.000Z</time>
      </trkpt>
      <trkpt lat="49.24694" lon="-0.26032">
        <ele>5.001448</ele>
        <time>2022-08-05T12:56:48.000Z</time>
      </trkpt>
      <trkpt lat="49.24698" lon="-0.26028">
        <ele>5.004397</ele>
        <time>2022-08-05T12:56:49.000Z</time>
      </trkpt>
      <trkpt lat="49.24702" lon="-0.26025">
        <ele>5.007139</ele>
        <time>2022-08-05T12:56:50.000Z</time>
      </trkpt>
      <trkpt lat="49.24705" lon="-0.26022">
        <ele>5.009686</ele>
        <time>2022-08-05T12:56:51.000Z</time>
      </trkpt>
      <trkpt lat="49.24709" lon="-0.26018">
        <ele>5.012055</ele>
        <time>2022-08-05T12:56:52.000Z</time>
      </trkpt>
      <trkpt lat="49.24711" lon="-0.26016">
        <ele>5.014117</ele>
        <time>2022-08-05T12:56:53.000Z</time>
      </trkpt>
      <trkpt lat="49.24715" lon="-0.26013">
        <ele>5.016464</ele>
        <time>2022-08-05T12:56:54.000Z</time>
      </trkpt>
      <trkpt lat="49.24719" lon="-0.26009">
        <ele>5.019413</ele>
        <time>2022-08-05T12:56:55.000Z</time>
      </trkpt>
      <trkpt lat="49.24722" lon="-0.26006">
        <ele>5.021697</ele>
        <time>2022-08-05T12:56:56.000Z</time>
      </trkpt>
      <trkpt lat="49.24725" lon="-0.26003">
        <ele>5.024224</ele>
        <time>2022-08-05T12:56:57.000Z</time>
      </trkpt>
      <trkpt lat="49.2473" lon="-0.25999">
        <ele>5.027289</ele>
        <time>2022-08-05T12:56:58.000Z</time>
      </trkpt>
      <trkpt lat="49.24733" lon="-0.25996">
        <ele>5.029775</ele>
        <time>2022-08-05T12:56:59.000Z</time>
      </trkpt>
      <trkpt lat="49.24736" lon="-0.25994">
        <ele>5.032001</ele>
        <time>2022-08-05T12:57:00.000Z</time>
      </trkpt>
      <trkpt lat="49.2474" lon="-0.25991">
        <ele>5.034487</ele>
        <time>2022-08-05T12:57:01.000Z</time>
      </trkpt>
      <trkpt lat="49.24743" lon="-0.25988">
        <ele>5.033528</ele>
        <time>2022-08-05T12:57:02.000Z</time>
      </trkpt>
      <trkpt lat="49.24748" lon="-0.25985">
        <ele>5.03231</ele>
        <time>2022-08-05T12:57:03.000Z</time>
      </trkpt>
      <trkpt lat="49.2475" lon="-0.25982">
        <ele>5.031453</ele>
        <time>2022-08-05T12:57:04.000Z</time>
      </trkpt>
      <trkpt lat="49.24755" lon="-0.25979">
        <ele>5.030204</ele>
        <time>2022-08-05T12:57:05.000Z</time>
      </trkpt>
      <trkpt lat="49.24757" lon="-0.25976">
        <ele>5.029386</ele>
        <time>2022-08-05T12:57:06.000Z</time>
      </trkpt>
      <trkpt lat="49.24762" lon="-0.25973">
        <ele>5.028137</ele>
        <time>2022-08-05T12:57:07.000Z</time>
      </trkpt>
      <trkpt lat="49.24765" lon="-0.2597">
        <ele>5.027036</ele>
        <time>2022-08-05T12:57:08.000Z</time>
      </trkpt>
      <trkpt lat="49.24769" lon="-0.25967">
        <ele>5.025979</ele>
        <time>2022-08-05T12:57:09.000Z</time>
      </trkpt>
      <trkpt lat="49.24772" lon="-0.25964">
        <ele>5.025144</ele>
        <time>2022-08-05T12:57:10.000Z</time>
      </trkpt>
      <trkpt lat="49.24776" lon="-0.2596">
        <ele>5.023896</ele>
        <time>2022-08-05T12:57:11.000Z</time>
      </trkpt>
      <trkpt lat="49.2478" lon="-0.25958">
        <ele>5.022809</ele>
        <time>2022-08-05T12:57:12.000Z</time>
      </trkpt>
      <trkpt lat="49.24783" lon="-0.25955">
        <ele>5.021769</ele>
        <time>2022-08-05T12:57:13.000Z</time>
      </trkpt>
      <trkpt lat="49.24787" lon="-0.25952">
        <ele>5.020689</ele>
        <time>2022-08-05T12:57:14.000Z</time>
      </trkpt>
      <trkpt lat="49.24791" lon="-0.25949">
        <ele>5.019588</ele>
        <time>2022-08-05T12:57:15.000Z</time>
      </trkpt>
      <trkpt lat="49.24794" lon="-0.25946">
        <ele>5.018621</ele>
        <time>2022-08-05T12:57:16.000Z</time>
      </trkpt>
      <trkpt lat="49.24798" lon="-0.25943">
        <ele>5.017565</ele>
        <time>2022-08-05T12:57:17.000Z</time>
      </trkpt>
      <trkpt lat="49.24801" lon="-0.2594">
        <ele>5.016531</ele>
        <time>2022-08-05T12:57:18.000Z</time>
      </trkpt>
      <trkpt lat="49.24805" lon="-0.25937">
        <ele>5.015481</ele>
        <time>2022-08-05T12:57:19.000Z</time>
      </trkpt>
      <trkpt lat="49.24809" lon="-0.25934">
        <ele>5.014394</ele>
        <time>2022-08-05T12:57:20.000Z</time>
      </trkpt>
      <trkpt lat="49.24812" lon="-0.25931">
        <ele>5.01341</ele>
        <time>2022-08-05T12:57:21.000Z</time>
      </trkpt>
      <trkpt lat="49.24815" lon="-0.25928">
        <ele>5.012345</ele>
        <time>2022-08-05T12:57:22.000Z</time>
      </trkpt>
      <trkpt lat="49.24819" lon="-0.25925">
        <ele>5.011295</ele>
        <time>2022-08-05T12:57:23.000Z</time>
      </trkpt>
      <trkpt lat="49.24822" lon="-0.25922">
        <ele>5.010345</ele>
        <time>2022-08-05T12:57:24.000Z</time>
      </trkpt>
      <trkpt lat="49.24826" lon="-0.25919">
        <ele>5.009244</ele>
        <time>2022-08-05T12:57:25.000Z</time>
      </trkpt>
      <trkpt lat="49.24829" lon="-0.25916">
        <ele>5.008218</ele>
        <time>2022-08-05T12:57:26.000Z</time>
      </trkpt>
      <trkpt lat="49.24833" lon="-0.25913">
        <ele>5.007122</ele>
        <time>2022-08-05T12:57:27.000Z</time>
      </trkpt>
      <trkpt lat="49.24837" lon="-0.2591">
        <ele>5.006097</ele>
        <time>2022-08-05T12:57:28.000Z</time>
      </trkpt>
      <trkpt lat="49.24839" lon="-0.25908">
        <ele>5.005323</ele>
        <time>2022-08-05T12:57:29.000Z</time>
      </trkpt>
      <trkpt lat="49.24844" lon="-0.25905">
        <ele>5.004114</ele>
        <time>2022-08-05T12:57:30.000Z</time>
      </trkpt>
      <trkpt lat="49.24847" lon="-0.25902">
        <ele>5.003147</ele>
        <time>2022-08-05T12:57:31.000Z</time>
      </trkpt>
      <trkpt lat="49.24851" lon="-0.25898">
        <ele>5.002007</ele>
        <time>2022-08-05T12:57:32.000Z</time>
      </trkpt>
      <trkpt lat="49.24853" lon="-0.25896">
        <ele>5.001188</ele>
        <time>2022-08-05T12:57:33.000Z</time>
      </trkpt>
      <trkpt lat="49.24857" lon="-0.25893">
        <ele>5.000023</ele>
        <time>2022-08-05T12:57:34.000Z</time>
      </trkpt>
      <trkpt lat="49.2486" lon="-0.2589">
        <ele>4.999182</ele>
        <time>2022-08-05T12:57:35.000Z</time>
      </trkpt>
      <trkpt lat="49.24863" lon="-0.25888">
        <ele>4.99824</ele>
        <time>2022-08-05T12:57:36.000Z</time>
      </trkpt>
      <trkpt lat="49.24867" lon="-0.25885">
        <ele>4.997291</ele>
        <time>2022-08-05T12:57:37.000Z</time>
      </trkpt>
      <trkpt lat="49.2487" lon="-0.25882">
        <ele>4.996306</ele>
        <time>2022-08-05T12:57:38.000Z</time>
      </trkpt>
      <trkpt lat="49.24873" lon="-0.25879">
        <ele>4.995356</ele>
        <time>2022-08-05T12:57:39.000Z</time>
      </trkpt>
      <trkpt lat="49.24877" lon="-0.25876">
        <ele>4.994331</ele>
        <time>2022-08-05T12:57:40.000Z</time>
      </trkpt>
      <trkpt lat="49.2488" lon="-0.25873">
        <ele>4.993364</ele>
        <time>2022-08-05T12:57:41.000Z</time>
      </trkpt>
      <trkpt lat="49.24884" lon="-0.2587">
        <ele>4.992277</ele>
        <time>2022-08-05T12:57:42.000Z</time>
      </trkpt>
      <trkpt lat="49.24887" lon="-0.25867">
        <ele>4.991311</ele>
        <time>2022-08-05T12:57:43.000Z</time>
      </trkpt>
      <trkpt lat="49.2489" lon="-0.25864">
        <ele>4.990277</ele>
        <time>2022-08-05T12:57:44.000Z</time>
      </trkpt>
      <trkpt lat="49.24894" lon="-0.25861">
        <ele>4.989061</ele>
        <time>2022-08-05T12:57:45.000Z</time>
      </trkpt>
      <trkpt lat="49.24897" lon="-0.25858">
        <ele>4.988279</ele>
        <time>2022-08-05T12:57:46.000Z</time>
      </trkpt>
      <trkpt lat="49.24901" lon="-0.25855">
        <ele>4.988689</ele>
        <time>2022-08-05T12:57:47.000Z</time>
      </trkpt>
      <trkpt lat="49.24904" lon="-0.25852">
        <ele>4.989217</ele>
        <time>2022-08-05T12:57:48.000Z</time>
      </trkpt>
      <trkpt lat="49.24908" lon="-0.25849">
        <ele>4.989796</ele>
        <time>2022-08-05T12:57:49.000Z</time>
      </trkpt>
      <trkpt lat="49.24911" lon="-0.25846">
        <ele>4.990352</ele>
        <time>2022-08-05T12:57:50.000Z</time>
      </trkpt>
      <trkpt lat="49.24915" lon="-0.25843">
        <ele>4.990879</ele>
        <time>2022-08-05T12:57:51.000Z</time>
      </trkpt>
      <trkpt lat="49.24919" lon="-0.2584">
        <ele>4.991559</ele>
        <time>2022-08-05T12:57:52.000Z</time>
      </trkpt>
      <trkpt lat="49.24923" lon="-0.25837">
        <ele>4.992102</ele>
        <time>2022-08-05T12:57:53.000Z</time>
      </trkpt>
      <trkpt lat="49.24927" lon="-0.25834">
        <ele>4.992685</ele>
        <time>2022-08-05T12:57:54.000Z</time>
      </trkpt>
      <trkpt lat="49.2493" lon="-0.25831">
        <ele>4.993194</ele>
        <time>2022-08-05T12:57:55.000Z</time>
      </trkpt>
      <trkpt lat="49.24934" lon="-0.25827">
        <ele>4.993806</ele>
        <time>2022-08-05T12:57:56.000Z</time>
      </trkpt>
      <trkpt lat="49.24937" lon="-0.25824">
        <ele>4.99431</ele>
        <time>2022-08-05T12:57:57.000Z</time>
      </trkpt>
      <trkpt lat="49.24941" lon="-0.25821">
        <ele>4.994854</ele>
        <time>2022-08-05T12:57:58.000Z</time>
      </trkpt>
      <trkpt lat="49.24943" lon="-0.25819">
        <ele>4.995249</ele>
        <time>2022-08-05T12:57:59.000Z</time>
      </trkpt>
      <trkpt lat="49.24947" lon="-0.25816">
        <ele>4.99584</ele>
        <time>2022-08-05T12:58:00.000Z</time>
      </trkpt>
      <trkpt lat="49.24951" lon="-0.25813">
        <ele>4.996441</ele>
        <time>2022-08-05T12:58:01.000Z</time>
      </trkpt>
      <trkpt lat="49.24954" lon="-0.25811">
        <ele>4.996872</ele>
        <time>2022-08-05T12:58:02.000Z</time>
      </trkpt>
      <trkpt lat="49.24957" lon="-0.25808">
        <ele>4.997371</ele>
        <time>2022-08-05T12:58:03.000Z</time>
      </trkpt>
      <trkpt lat="49.2496" lon="-0.25805">
        <ele>4.99791</ele>
        <time>2022-08-05T12:58:04.000Z</time>
      </trkpt>
      <trkpt lat="49.24964" lon="-0.25802">
        <ele>4.998401</ele>
        <time>2022-08-05T12:58:05.000Z</time>
      </trkpt>
      <trkpt lat="49.24967" lon="-0.25799">
        <ele>4.99891</ele>
        <time>2022-08-05T12:58:06.000Z</time>
      </trkpt>
      <trkpt lat="49.24971" lon="-0.25796">
        <ele>4.999501</ele>
        <time>2022-08-05T12:58:07.000Z</time>
      </trkpt>
      <trkpt lat="49.24974" lon="-0.25793">
        <ele>5.000044</ele>
        <time>2022-08-05T12:58:08.000Z</time>
      </trkpt>
      <trkpt lat="49.24978" lon="-0.2579">
        <ele>5.000597</ele>
        <time>2022-08-05T12:58:09.000Z</time>
      </trkpt>
      <trkpt lat="49.24981" lon="-0.25787">
        <ele>5.001184</ele>
        <time>2022-08-05T12:58:10.000Z</time>
      </trkpt>
      <trkpt lat="49.24985" lon="-0.25784">
        <ele>5.001693</ele>
        <time>2022-08-05T12:58:11.000Z</time>
      </trkpt>
      <trkpt lat="49.24989" lon="-0.25781">
        <ele>5.002269</ele>
        <time>2022-08-05T12:58:12.000Z</time>
      </trkpt>
      <trkpt lat="49.24992" lon="-0.25779">
        <ele>5.002792</ele>
        <time>2022-08-05T12:58:13.000Z</time>
      </trkpt>
      <trkpt lat="49.24996" lon="-0.25776">
        <ele>5.003372</ele>
        <time>2022-08-05T12:58:14.000Z</time>
      </trkpt>
      <trkpt lat="49.24999" lon="-0.25773">
        <ele>5.003927</ele>
        <time>2022-08-05T12:58:15.000Z</time>
      </trkpt>
      <trkpt lat="49.25003" lon="-0.2577">
        <ele>5.004515</ele>
        <time>2022-08-05T12:58:16.000Z</time>
      </trkpt>
      <trkpt lat="49.25006" lon="-0.25766">
        <ele>5.005032</ele>
        <time>2022-08-05T12:58:17.000Z</time>
      </trkpt>
      <trkpt lat="49.2501" lon="-0.25763">
        <ele>5.005616</ele>
        <time>2022-08-05T12:58:18.000Z</time>
      </trkpt>
      <trkpt lat="49.25014" lon="-0.2576">
        <ele>5.00618</ele>
        <time>2022-08-05T12:58:19.000Z</time>
      </trkpt>
      <trkpt lat="49.25018" lon="-0.25757">
        <ele>5.006747</ele>
        <time>2022-08-05T12:58:20.000Z</time>
      </trkpt>
      <trkpt lat="49.25021" lon="-0.25755">
        <ele>5.007282</ele>
        <time>2022-08-05T12:58:21.000Z</time>
      </trkpt>
      <trkpt lat="49.25025" lon="-0.25751">
        <ele>5.007835</ele>
        <time>2022-08-05T12:58:22.000Z</time>
      </trkpt>
      <trkpt lat="49.25028" lon="-0.25748">
        <ele>5.008403</ele>
        <time>2022-08-05T12:58:23.000Z</time>
      </trkpt>
      <trkpt lat="49.25032" lon="-0.25745">
        <ele>5.008983</ele>
        <time>2022-08-05T12:58:24.000Z</time>
      </trkpt>
      <trkpt lat="49.25036" lon="-0.25742">
        <ele>5.00957</ele>
        <time>2022-08-05T12:58:25.000Z</time>
      </trkpt>
      <trkpt lat="49.25039" lon="-0.25739">
        <ele>5.01013</ele>
        <time>2022-08-05T12:58:26.000Z</time>
      </trkpt>
      <trkpt lat="49.25043" lon="-0.25736">
        <ele>5.010673</ele>
        <time>2022-08-05T12:58:27.000Z</time>
      </trkpt>
      <trkpt lat="49.25046" lon="-0.25732">
        <ele>5.011206</ele>
        <time>2022-08-05T12:58:28.000Z</time>
      </trkpt>
      <trkpt lat="49.2505" lon="-0.25729">
        <ele>5.011838</ele>
        <time>2022-08-05T12:58:29.000Z</time>
      </trkpt>
      <trkpt lat="49.25054" lon="-0.25726">
        <ele>5.012397</ele>
        <time>2022-08-05T12:58:30.000Z</time>
      </trkpt>
      <trkpt lat="49.25058" lon="-0.25723">
        <ele>5.009204</ele>
        <time>2022-08-05T12:58:31.000Z</time>
      </trkpt>
      <trkpt lat="49.25062" lon="-0.25719">
        <ele>5.004305</ele>
        <time>2022-08-05T12:58:32.000Z</time>
      </trkpt>
      <trkpt lat="49.25066" lon="-0.25716">
        <ele>5.000041</ele>
        <time>2022-08-05T12:58:33.000Z</time>
      </trkpt>
      <trkpt lat="49.25069" lon="-0.25713">
        <ele>4.996048</ele>
        <time>2022-08-05T12:58:34.000Z</time>
      </trkpt>
      <trkpt lat="49.25072" lon="-0.2571">
        <ele>4.992254</ele>
        <time>2022-08-05T12:58:35.000Z</time>
      </trkpt>
      <trkpt lat="49.25076" lon="-0.25708">
        <ele>4.988621</ele>
        <time>2022-08-05T12:58:36.000Z</time>
      </trkpt>
      <trkpt lat="49.2508" lon="-0.25704">
        <ele>4.983393</ele>
        <time>2022-08-05T12:58:37.000Z</time>
      </trkpt>
      <trkpt lat="49.25084" lon="-0.25701">
        <ele>4.979237</ele>
        <time>2022-08-05T12:58:38.000Z</time>
      </trkpt>
      <trkpt lat="49.25087" lon="-0.25697">
        <ele>4.97501</ele>
        <time>2022-08-05T12:58:39.000Z</time>
      </trkpt>
      <trkpt lat="49.2509" lon="-0.25695">
        <ele>4.971906</ele>
        <time>2022-08-05T12:58:40.000Z</time>
      </trkpt>
      <trkpt lat="49.25094" lon="-0.25691">
        <ele>4.966904</ele>
        <time>2022-08-05T12:58:41.000Z</time>
      </trkpt>
      <trkpt lat="49.25097" lon="-0.25688">
        <ele>4.962999</ele>
        <time>2022-08-05T12:58:42.000Z</time>
      </trkpt>
      <trkpt lat="49.25101" lon="-0.25685">
        <ele>4.958877</ele>
        <time>2022-08-05T12:58:43.000Z</time>
      </trkpt>
      <trkpt lat="49.25103" lon="-0.25683">
        <ele>4.955841</ele>
        <time>2022-08-05T12:58:44.000Z</time>
      </trkpt>
      <trkpt lat="49.25108" lon="-0.25679">
        <ele>4.951158</ele>
        <time>2022-08-05T12:58:45.000Z</time>
      </trkpt>
      <trkpt lat="49.25111" lon="-0.25676">
        <ele>4.947036</ele>
        <time>2022-08-05T12:58:46.000Z</time>
      </trkpt>
      <trkpt lat="49.25115" lon="-0.25673">
        <ele>4.94253</ele>
        <time>2022-08-05T12:58:47.000Z</time>
      </trkpt>
      <trkpt lat="49.25118" lon="-0.2567">
        <ele>4.938408</ele>
        <time>2022-08-05T12:58:48.000Z</time>
      </trkpt>
      <trkpt lat="49.25122" lon="-0.25667">
        <ele>4.934615</ele>
        <time>2022-08-05T12:58:49.000Z</time>
      </trkpt>
      <trkpt lat="49.25125" lon="-0.25664">
        <ele>4.930888</ele>
        <time>2022-08-05T12:58:50.000Z</time>
      </trkpt>
      <trkpt lat="49.25127" lon="-0.25662">
        <ele>4.927946</ele>
        <time>2022-08-05T12:58:51.000Z</time>
      </trkpt>
      <trkpt lat="49.25132" lon="-0.25658">
        <ele>4.923199</ele>
        <time>2022-08-05T12:58:52.000Z</time>
      </trkpt>
      <trkpt lat="49.25135" lon="-0.25655">
        <ele>4.919405</ele>
        <time>2022-08-05T12:58:53.000Z</time>
      </trkpt>
      <trkpt lat="49.25138" lon="-0.25652">
        <ele>4.915381</ele>
        <time>2022-08-05T12:58:54.000Z</time>
      </trkpt>
      <trkpt lat="49.25141" lon="-0.2565">
        <ele>4.912345</ele>
        <time>2022-08-05T12:58:55.000Z</time>
      </trkpt>
      <trkpt lat="49.25144" lon="-0.25648">
        <ele>4.90898</ele>
        <time>2022-08-05T12:58:56.000Z</time>
      </trkpt>
      <trkpt lat="49.25147" lon="-0.25645">
        <ele>4.905348</ele>
        <time>2022-08-05T12:58:57.000Z</time>
      </trkpt>
      <trkpt lat="49.2515" lon="-0.25642">
        <ele>4.901355</ele>
        <time>2022-08-05T12:58:58.000Z</time>
      </trkpt>
      <trkpt lat="49.25153" lon="-0.2564">
        <ele>4.897923</ele>
        <time>2022-08-05T12:58:59.000Z</time>
      </trkpt>
      <trkpt lat="49.25157" lon="-0.25637">
        <ele>4.894229</ele>
        <time>2022-08-05T12:59:00.000Z</time>
      </trkpt>
      <trkpt lat="49.2516" lon="-0.25634">
        <ele>4.890566</ele>
        <time>2022-08-05T12:59:01.000Z</time>
      </trkpt>
      <trkpt lat="49.25164" lon="-0.25631">
        <ele>4.886272</ele>
        <time>2022-08-05T12:59:02.000Z</time>
      </trkpt>
      <trkpt lat="49.25167" lon="-0.25628">
        <ele>4.882184</ele>
        <time>2022-08-05T12:59:03.000Z</time>
      </trkpt>
      <trkpt lat="49.25171" lon="-0.25625">
        <ele>4.877646</ele>
        <time>2022-08-05T12:59:04.000Z</time>
      </trkpt>
      <trkpt lat="49.25174" lon="-0.25622">
        <ele>4.873713</ele>
        <time>2022-08-05T12:59:05.000Z</time>
      </trkpt>
      <trkpt lat="49.25177" lon="-0.2562">
        <ele>4.87044</ele>
        <time>2022-08-05T12:59:06.000Z</time>
      </trkpt>
      <trkpt lat="49.2518" lon="-0.25618">
        <ele>4.867747</ele>
        <time>2022-08-05T12:59:07.000Z</time>
      </trkpt>
      <trkpt lat="49.25182" lon="-0.25615">
        <ele>4.864677</ele>
        <time>2022-08-05T12:59:08.000Z</time>
      </trkpt>
      <trkpt lat="49.25184" lon="-0.25614">
        <ele>4.862214</ele>
        <time>2022-08-05T12:59:09.000Z</time>
      </trkpt>
      <trkpt lat="49.25187" lon="-0.25611">
        <ele>4.859144</ele>
        <time>2022-08-05T12:59:10.000Z</time>
      </trkpt>
      <trkpt lat="49.2519" lon="-0.25608">
        <ele>4.855351</ele>
        <time>2022-08-05T12:59:11.000Z</time>
      </trkpt>
      <trkpt lat="49.25193" lon="-0.25606">
        <ele>4.852331</ele>
        <time>2022-08-05T12:59:12.000Z</time>
      </trkpt>
      <trkpt lat="49.25195" lon="-0.25604">
        <ele>4.849295</ele>
        <time>2022-08-05T12:59:13.000Z</time>
      </trkpt>
      <trkpt lat="49.25199" lon="-0.256">
        <ele>4.84491</ele>
        <time>2022-08-05T12:59:14.000Z</time>
      </trkpt>
      <trkpt lat="49.25202" lon="-0.25598">
        <ele>4.84139</ele>
        <time>2022-08-05T12:59:15.000Z</time>
      </trkpt>
      <trkpt lat="49.25206" lon="-0.25596">
        <ele>4.837393</ele>
        <time>2022-08-05T12:59:16.000Z</time>
      </trkpt>
      <trkpt lat="49.25209" lon="-0.25593">
        <ele>4.833599</ele>
        <time>2022-08-05T12:59:17.000Z</time>
      </trkpt>
      <trkpt lat="49.25213" lon="-0.2559">
        <ele>4.829809</ele>
        <time>2022-08-05T12:59:18.000Z</time>
      </trkpt>
      <trkpt lat="49.25217" lon="-0.25586">
        <ele>4.827226</ele>
        <time>2022-08-05T12:59:19.000Z</time>
      </trkpt>
      <trkpt lat="49.25221" lon="-0.25584">
        <ele>4.824741</ele>
        <time>2022-08-05T12:59:20.000Z</time>
      </trkpt>
      <trkpt lat="49.25224" lon="-0.25581">
        <ele>4.82228</ele>
        <time>2022-08-05T12:59:21.000Z</time>
      </trkpt>
      <trkpt lat="49.25228" lon="-0.25578">
        <ele>4.819909</ele>
        <time>2022-08-05T12:59:22.000Z</time>
      </trkpt>
      <trkpt lat="49.25231" lon="-0.25575">
        <ele>4.81769</ele>
        <time>2022-08-05T12:59:23.000Z</time>
      </trkpt>
      <trkpt lat="49.25235" lon="-0.25572">
        <ele>4.815267</ele>
        <time>2022-08-05T12:59:24.000Z</time>
      </trkpt>
      <trkpt lat="49.25238" lon="-0.2557">
        <ele>4.813193</ele>
        <time>2022-08-05T12:59:25.000Z</time>
      </trkpt>
      <trkpt lat="49.25241" lon="-0.25567">
        <ele>4.810933</ele>
        <time>2022-08-05T12:59:26.000Z</time>
      </trkpt>
      <trkpt lat="49.25245" lon="-0.25564">
        <ele>4.80835</ele>
        <time>2022-08-05T12:59:27.000Z</time>
      </trkpt>
      <trkpt lat="49.25249" lon="-0.2556">
        <ele>4.805688</ele>
        <time>2022-08-05T12:59:28.000Z</time>
      </trkpt>
      <trkpt lat="49.25253" lon="-0.25557">
        <ele>4.80309</ele>
        <time>2022-08-05T12:59:29.000Z</time>
      </trkpt>
      <trkpt lat="49.25256" lon="-0.25553">
        <ele>4.800468</ele>
        <time>2022-08-05T12:59:30.000Z</time>
      </trkpt>
      <trkpt lat="49.2526" lon="-0.2555">
        <ele>4.798018</ele>
        <time>2022-08-05T12:59:31.000Z</time>
      </trkpt>
      <trkpt lat="49.25264" lon="-0.25547">
        <ele>4.795471</ele>
        <time>2022-08-05T12:59:32.000Z</time>
      </trkpt>
      <trkpt lat="49.25267" lon="-0.25544">
        <ele>4.793292</ele>
        <time>2022-08-05T12:59:33.000Z</time>
      </trkpt>
      <trkpt lat="49.2527" lon="-0.25542">
        <ele>4.791008</ele>
        <time>2022-08-05T12:59:34.000Z</time>
      </trkpt>
      <trkpt lat="49.25275" lon="-0.25538">
        <ele>4.788144</ele>
        <time>2022-08-05T12:59:35.000Z</time>
      </trkpt>
      <trkpt lat="49.25279" lon="-0.25535">
        <ele>4.785489</ele>
        <time>2022-08-05T12:59:36.000Z</time>
      </trkpt>
      <trkpt lat="49.25283" lon="-0.25532">
        <ele>4.782926</ele>
        <time>2022-08-05T12:59:37.000Z</time>
      </trkpt>
      <trkpt lat="49.25286" lon="-0.25529">
        <ele>4.780554</ele>
        <time>2022-08-05T12:59:38.000Z</time>
      </trkpt>
      <trkpt lat="49.25289" lon="-0.25527">
        <ele>4.77883</ele>
        <time>2022-08-05T12:59:39.000Z</time>
      </trkpt>
      <trkpt lat="49.25293" lon="-0.25524">
        <ele>4.775846</ele>
        <time>2022-08-05T12:59:40.000Z</time>
      </trkpt>
      <trkpt lat="49.25297" lon="-0.25521">
        <ele>4.773474</ele>
        <time>2022-08-05T12:59:41.000Z</time>
      </trkpt>
      <trkpt lat="49.253" lon="-0.25518">
        <ele>4.771507</ele>
        <time>2022-08-05T12:59:42.000Z</time>
      </trkpt>
      <trkpt lat="49.25303" lon="-0.25515">
        <ele>4.769077</ele>
        <time>2022-08-05T12:59:43.000Z</time>
      </trkpt>
      <trkpt lat="49.25305" lon="-0.25513">
        <ele>4.767856</ele>
        <time>2022-08-05T12:59:44.000Z</time>
      </trkpt>
      <trkpt lat="49.25308" lon="-0.2551">
        <ele>4.765432</ele>
        <time>2022-08-05T12:59:45.000Z</time>
      </trkpt>
      <trkpt lat="49.25312" lon="-0.25507">
        <ele>4.763149</ele>
        <time>2022-08-05T12:59:46.000Z</time>
      </trkpt>
      <trkpt lat="49.25315" lon="-0.25505">
        <ele>4.761142</ele>
        <time>2022-08-05T12:59:47.000Z</time>
      </trkpt>
      <trkpt lat="49.25318" lon="-0.25502">
        <ele>4.758825</ele>
        <time>2022-08-05T12:59:48.000Z</time>
      </trkpt>
      <trkpt lat="49.25321" lon="-0.25499">
        <ele>4.756646</ele>
        <time>2022-08-05T12:59:49.000Z</time>
      </trkpt>
      <trkpt lat="49.25325" lon="-0.25496">
        <ele>4.754169</ele>
        <time>2022-08-05T12:59:50.000Z</time>
      </trkpt>
      <trkpt lat="49.25328" lon="-0.25493">
        <ele>4.75193</ele>
        <time>2022-08-05T12:59:51.000Z</time>
      </trkpt>
      <trkpt lat="49.25332" lon="-0.25491">
        <ele>4.749647</ele>
        <time>2022-08-05T12:59:52.000Z</time>
      </trkpt>
      <trkpt lat="49.25335" lon="-0.25488">
        <ele>4.747224</ele>
        <time>2022-08-05T12:59:53.000Z</time>
      </trkpt>
      <trkpt lat="49.2534" lon="-0.25485">
        <ele>4.744503</ele>
        <time>2022-08-05T12:59:54.000Z</time>
      </trkpt>
      <trkpt lat="49.25343" lon="-0.25481">
        <ele>4.741887</ele>
        <time>2022-08-05T12:59:55.000Z</time>
      </trkpt>
      <trkpt lat="49.25348" lon="-0.25478">
        <ele>4.739111</ele>
        <time>2022-08-05T12:59:56.000Z</time>
      </trkpt>
      <trkpt lat="49.25351" lon="-0.25475">
        <ele>4.736932</ele>
        <time>2022-08-05T12:59:57.000Z</time>
      </trkpt>
      <trkpt lat="49.25354" lon="-0.25471">
        <ele>4.734304</ele>
        <time>2022-08-05T12:59:58.000Z</time>
      </trkpt>
      <trkpt lat="49.25358" lon="-0.25468">
        <ele>4.731862</ele>
        <time>2022-08-05T12:59:59.000Z</time>
      </trkpt>
      <trkpt lat="49.25361" lon="-0.25465">
        <ele>4.729602</ele>
        <time>2022-08-05T13:00:00.000Z</time>
      </trkpt>
      <trkpt lat="49.25365" lon="-0.25462">
        <ele>4.727074</ele>
        <time>2022-08-05T13:00:01.000Z</time>
      </trkpt>
      <trkpt lat="49.25368" lon="-0.25459">
        <ele>4.725107</ele>
        <time>2022-08-05T13:00:02.000Z</time>
      </trkpt>
      <trkpt lat="49.25372" lon="-0.25456">
        <ele>4.715598</ele>
        <time>2022-08-05T13:00:03.000Z</time>
      </trkpt>
      <trkpt lat="49.25375" lon="-0.25453">
        <ele>4.704884</ele>
        <time>2022-08-05T13:00:04.000Z</time>
      </trkpt>
      <trkpt lat="49.25379" lon="-0.2545">
        <ele>4.693209</ele>
        <time>2022-08-05T13:00:05.000Z</time>
      </trkpt>
      <trkpt lat="49.25383" lon="-0.25447">
        <ele>4.680672</ele>
        <time>2022-08-05T13:00:06.000Z</time>
      </trkpt>
      <trkpt lat="49.25387" lon="-0.25443">
        <ele>4.668637</ele>
        <time>2022-08-05T13:00:07.000Z</time>
      </trkpt>
      <trkpt lat="49.25391" lon="-0.2544">
        <ele>4.656021</ele>
        <time>2022-08-05T13:00:08.000Z</time>
      </trkpt>
      <trkpt lat="49.25395" lon="-0.25437">
        <ele>4.646646</ele>
        <time>2022-08-05T13:00:09.000Z</time>
      </trkpt>
      <trkpt lat="49.25398" lon="-0.25434">
        <ele>4.636526</ele>
        <time>2022-08-05T13:00:10.000Z</time>
      </trkpt>
      <trkpt lat="49.25401" lon="-0.25431">
        <ele>4.626499</ele>
        <time>2022-08-05T13:00:11.000Z</time>
      </trkpt>
      <trkpt lat="49.25405" lon="-0.25428">
        <ele>4.615779</ele>
        <time>2022-08-05T13:00:12.000Z</time>
      </trkpt>
      <trkpt lat="49.25409" lon="-0.25424">
        <ele>4.6024</ele>
        <time>2022-08-05T13:00:13.000Z</time>
      </trkpt>
      <trkpt lat="49.25413" lon="-0.25421">
        <ele>4.589065</ele>
        <time>2022-08-05T13:00:14.000Z</time>
      </trkpt>
      <trkpt lat="49.25418" lon="-0.25417">
        <ele>4.57573</ele>
        <time>2022-08-05T13:00:15.000Z</time>
      </trkpt>
      <trkpt lat="49.25422" lon="-0.25413">
        <ele>4.560955</ele>
        <time>2022-08-05T13:00:16.000Z</time>
      </trkpt>
      <trkpt lat="49.25427" lon="-0.25409">
        <ele>4.547737</ele>
        <time>2022-08-05T13:00:17.000Z</time>
      </trkpt>
      <trkpt lat="49.2543" lon="-0.25406">
        <ele>4.537228</ele>
        <time>2022-08-05T13:00:18.000Z</time>
      </trkpt>
      <trkpt lat="49.25433" lon="-0.25403">
        <ele>4.526508</ele>
        <time>2022-08-05T13:00:19.000Z</time>
      </trkpt>
      <trkpt lat="49.25437" lon="-0.25399">
        <ele>4.514918</ele>
        <time>2022-08-05T13:00:20.000Z</time>
      </trkpt>
      <trkpt lat="49.25441" lon="-0.25396">
        <ele>4.503747</ele>
        <time>2022-08-05T13:00:21.000Z</time>
      </trkpt>
      <trkpt lat="49.25445" lon="-0.25393">
        <ele>4.492003</ele>
        <time>2022-08-05T13:00:22.000Z</time>
      </trkpt>
      <trkpt lat="49.25448" lon="-0.2539">
        <ele>4.480656</ele>
        <time>2022-08-05T13:00:23.000Z</time>
      </trkpt>
      <trkpt lat="49.25452" lon="-0.25387">
        <ele>4.470629</ele>
        <time>2022-08-05T13:00:24.000Z</time>
      </trkpt>
      <trkpt lat="49.25455" lon="-0.25384">
        <ele>4.459117</ele>
        <time>2022-08-05T13:00:25.000Z</time>
      </trkpt>
      <trkpt lat="49.25459" lon="-0.25381">
        <ele>4.447442</ele>
        <time>2022-08-05T13:00:26.000Z</time>
      </trkpt>
      <trkpt lat="49.25463" lon="-0.25378">
        <ele>4.436016</ele>
        <time>2022-08-05T13:00:27.000Z</time>
      </trkpt>
      <trkpt lat="49.25467" lon="-0.25375">
        <ele>4.425144</ele>
        <time>2022-08-05T13:00:28.000Z</time>
      </trkpt>
      <trkpt lat="49.25469" lon="-0.25373">
        <ele>4.417606</ele>
        <time>2022-08-05T13:00:29.000Z</time>
      </trkpt>
      <trkpt lat="49.25473" lon="-0.25369">
        <ele>4.404827</ele>
        <time>2022-08-05T13:00:30.000Z</time>
      </trkpt>
      <trkpt lat="49.25477" lon="-0.25366">
        <ele>4.393655</ele>
        <time>2022-08-05T13:00:31.000Z</time>
      </trkpt>
      <trkpt lat="49.2548" lon="-0.25363">
        <ele>4.383974</ele>
        <time>2022-08-05T13:00:32.000Z</time>
      </trkpt>
      <trkpt lat="49.25484" lon="-0.25359">
        <ele>4.370756</ele>
        <time>2022-08-05T13:00:33.000Z</time>
      </trkpt>
      <trkpt lat="49.25487" lon="-0.25356">
        <ele>4.360542</ele>
        <time>2022-08-05T13:00:34.000Z</time>
      </trkpt>
      <trkpt lat="49.25491" lon="-0.25353">
        <ele>4.348952</ele>
        <time>2022-08-05T13:00:35.000Z</time>
      </trkpt>
      <trkpt lat="49.25495" lon="-0.2535">
        <ele>4.337277</ele>
        <time>2022-08-05T13:00:36.000Z</time>
      </trkpt>
      <trkpt lat="49.25498" lon="-0.25347">
        <ele>4.327427</ele>
        <time>2022-08-05T13:00:37.000Z</time>
      </trkpt>
      <trkpt lat="49.25502" lon="-0.25344">
        <ele>4.316933</ele>
        <time>2022-08-05T13:00:38.000Z</time>
      </trkpt>
      <trkpt lat="49.25505" lon="-0.25342">
        <ele>4.308441</ele>
        <time>2022-08-05T13:00:39.000Z</time>
      </trkpt>
      <trkpt lat="49.25508" lon="-0.25339">
        <ele>4.297728</ele>
        <time>2022-08-05T13:00:40.000Z</time>
      </trkpt>
      <trkpt lat="49.25512" lon="-0.25336">
        <ele>4.286922</ele>
        <time>2022-08-05T13:00:41.000Z</time>
      </trkpt>
      <trkpt lat="49.25516" lon="-0.25333">
        <ele>4.275071</ele>
        <time>2022-08-05T13:00:42.000Z</time>
      </trkpt>
      <trkpt lat="49.25519" lon="-0.2533">
        <ele>4.264857</ele>
        <time>2022-08-05T13:00:43.000Z</time>
      </trkpt>
      <trkpt lat="49.25522" lon="-0.25326">
        <ele>4.253963</ele>
        <time>2022-08-05T13:00:44.000Z</time>
      </trkpt>
      <trkpt lat="49.25526" lon="-0.25324">
        <ele>4.243376</ele>
        <time>2022-08-05T13:00:45.000Z</time>
      </trkpt>
      <trkpt lat="49.25529" lon="-0.25321">
        <ele>4.238959</ele>
        <time>2022-08-05T13:00:46.000Z</time>
      </trkpt>
      <trkpt lat="49.25533" lon="-0.25317">
        <ele>4.233854</ele>
        <time>2022-08-05T13:00:47.000Z</time>
      </trkpt>
      <trkpt lat="49.25537" lon="-0.25314">
        <ele>4.228821</ele>
        <time>2022-08-05T13:00:48.000Z</time>
      </trkpt>
      <trkpt lat="49.25541" lon="-0.25311">
        <ele>4.223649</ele>
        <time>2022-08-05T13:00:49.000Z</time>
      </trkpt>
      <trkpt lat="49.25544" lon="-0.25308">
        <ele>4.21885</ele>
        <time>2022-08-05T13:00:50.000Z</time>
      </trkpt>
      <trkpt lat="49.25548" lon="-0.25305">
        <ele>4.214011</ele>
        <time>2022-08-05T13:00:51.000Z</time>
      </trkpt>
      <trkpt lat="49.25551" lon="-0.25301">
        <ele>4.208729</ele>
        <time>2022-08-05T13:00:52.000Z</time>
      </trkpt>
      <trkpt lat="49.25555" lon="-0.25298">
        <ele>4.204271</ele>
        <time>2022-08-05T13:00:53.000Z</time>
      </trkpt>
      <trkpt lat="49.25559" lon="-0.25295">
        <ele>4.198922</ele>
        <time>2022-08-05T13:00:54.000Z</time>
      </trkpt>
      <trkpt lat="49.25562" lon="-0.25291">
        <ele>4.194108</ele>
        <time>2022-08-05T13:00:55.000Z</time>
      </trkpt>
      <trkpt lat="49.25565" lon="-0.25289">
        <ele>4.189459</ele>
        <time>2022-08-05T13:00:56.000Z</time>
      </trkpt>
      <trkpt lat="49.25569" lon="-0.25285">
        <ele>4.184138</ele>
        <time>2022-08-05T13:00:57.000Z</time>
      </trkpt>
      <trkpt lat="49.25572" lon="-0.25281">
        <ele>4.179645</ele>
        <time>2022-08-05T13:00:58.000Z</time>
      </trkpt>
      <trkpt lat="49.25576" lon="-0.25279">
        <ele>4.174713</ele>
        <time>2022-08-05T13:00:59.000Z</time>
      </trkpt>
      <trkpt lat="49.2558" lon="-0.25276">
        <ele>4.169351</ele>
        <time>2022-08-05T13:01:00.000Z</time>
      </trkpt>
      <trkpt lat="49.25585" lon="-0.25272">
        <ele>4.163514</ele>
        <time>2022-08-05T13:01:01.000Z</time>
      </trkpt>
      <trkpt lat="49.25588" lon="-0.2527">
        <ele>4.159353</ele>
        <time>2022-08-05T13:01:02.000Z</time>
      </trkpt>
      <trkpt lat="49.25591" lon="-0.25267">
        <ele>4.154453</ele>
        <time>2022-08-05T13:01:03.000Z</time>
      </trkpt>
      <trkpt lat="49.25595" lon="-0.25264">
        <ele>4.14942</ele>
        <time>2022-08-05T13:01:04.000Z</time>
      </trkpt>
      <trkpt lat="49.25598" lon="-0.25261">
        <ele>4.145081</ele>
        <time>2022-08-05T13:01:05.000Z</time>
      </trkpt>
      <trkpt lat="49.25602" lon="-0.25258">
        <ele>4.140282</ele>
        <time>2022-08-05T13:01:06.000Z</time>
      </trkpt>
      <trkpt lat="49.25605" lon="-0.25255">
        <ele>4.135634</ele>
        <time>2022-08-05T13:01:07.000Z</time>
      </trkpt>
      <trkpt lat="49.25609" lon="-0.25252">
        <ele>4.130881</ele>
        <time>2022-08-05T13:01:08.000Z</time>
      </trkpt>
      <trkpt lat="49.25612" lon="-0.25249">
        <ele>4.126503</ele>
        <time>2022-08-05T13:01:09.000Z</time>
      </trkpt>
      <trkpt lat="49.25616" lon="-0.25247">
        <ele>4.121855</ele>
        <time>2022-08-05T13:01:10.000Z</time>
      </trkpt>
      <trkpt lat="49.25619" lon="-0.25244">
        <ele>4.117206</ele>
        <time>2022-08-05T13:01:11.000Z</time>
      </trkpt>
      <trkpt lat="49.25622" lon="-0.25241">
        <ele>4.112829</ele>
        <time>2022-08-05T13:01:12.000Z</time>
      </trkpt>
      <trkpt lat="49.25626" lon="-0.25238">
        <ele>4.108107</ele>
        <time>2022-08-05T13:01:13.000Z</time>
      </trkpt>
      <trkpt lat="49.25629" lon="-0.25235">
        <ele>4.103385</ele>
        <time>2022-08-05T13:01:14.000Z</time>
      </trkpt>
      <trkpt lat="49.25633" lon="-0.25232">
        <ele>4.098632</ele>
        <time>2022-08-05T13:01:15.000Z</time>
      </trkpt>
      <trkpt lat="49.25637" lon="-0.25229">
        <ele>4.093599</ele>
        <time>2022-08-05T13:01:16.000Z</time>
      </trkpt>
      <trkpt lat="49.25641" lon="-0.25226">
        <ele>4.088566</ele>
        <time>2022-08-05T13:01:17.000Z</time>
      </trkpt>
      <trkpt lat="49.25644" lon="-0.25223">
        <ele>4.084228</ele>
        <time>2022-08-05T13:01:18.000Z</time>
      </trkpt>
      <trkpt lat="49.25647" lon="-0.2522">
        <ele>4.079439</ele>
        <time>2022-08-05T13:01:19.000Z</time>
      </trkpt>
      <trkpt lat="49.25651" lon="-0.25217">
        <ele>4.074406</ele>
        <time>2022-08-05T13:01:20.000Z</time>
      </trkpt>
      <trkpt lat="49.25655" lon="-0.25215">
        <ele>4.069507</ele>
        <time>2022-08-05T13:01:21.000Z</time>
      </trkpt>
      <trkpt lat="49.25659" lon="-0.25212">
        <ele>4.064682</ele>
        <time>2022-08-05T13:01:22.000Z</time>
      </trkpt>
      <trkpt lat="49.25662" lon="-0.25209">
        <ele>4.060305</ele>
        <time>2022-08-05T13:01:23.000Z</time>
      </trkpt>
      <trkpt lat="49.25665" lon="-0.25206">
        <ele>4.055656</ele>
        <time>2022-08-05T13:01:24.000Z</time>
      </trkpt>
      <trkpt lat="49.25669" lon="-0.25203">
        <ele>4.050551</ele>
        <time>2022-08-05T13:01:25.000Z</time>
      </trkpt>
      <trkpt lat="49.25673" lon="-0.252">
        <ele>4.045413</ele>
        <time>2022-08-05T13:01:26.000Z</time>
      </trkpt>
      <trkpt lat="49.25677" lon="-0.25197">
        <ele>4.040834</ele>
        <time>2022-08-05T13:01:27.000Z</time>
      </trkpt>
      <trkpt lat="49.25679" lon="-0.25195">
        <ele>4.03736</ele>
        <time>2022-08-05T13:01:28.000Z</time>
      </trkpt>
      <trkpt lat="49.25683" lon="-0.25191">
        <ele>4.031695</ele>
        <time>2022-08-05T13:01:29.000Z</time>
      </trkpt>
      <trkpt lat="49.25687" lon="-0.25188">
        <ele>4.022985</ele>
        <time>2022-08-05T13:01:30.000Z</time>
      </trkpt>
      <trkpt lat="49.2569" lon="-0.25185">
        <ele>4.015446</ele>
        <time>2022-08-05T13:01:31.000Z</time>
      </trkpt>
      <trkpt lat="49.25693" lon="-0.25182">
        <ele>4.006806</ele>
        <time>2022-08-05T13:01:32.000Z</time>
      </trkpt>
      <trkpt lat="49.25697" lon="-0.25179">
        <ele>3.998233</ele>
        <time>2022-08-05T13:01:33.000Z</time>
      </trkpt>
      <trkpt lat="49.25701" lon="-0.25177">
        <ele>3.988954</ele>
        <time>2022-08-05T13:01:34.000Z</time>
      </trkpt>
      <trkpt lat="49.25704" lon="-0.25174">
        <ele>3.981015</ele>
        <time>2022-08-05T13:01:35.000Z</time>
      </trkpt>
      <trkpt lat="49.25707" lon="-0.25171">
        <ele>3.972374</ele>
        <time>2022-08-05T13:01:36.000Z</time>
      </trkpt>
      <trkpt lat="49.25711" lon="-0.25168">
        <ele>3.963593</ele>
        <time>2022-08-05T13:01:37.000Z</time>
      </trkpt>
      <trkpt lat="49.25714" lon="-0.25165">
        <ele>3.954953</ele>
        <time>2022-08-05T13:01:38.000Z</time>
      </trkpt>
      <trkpt lat="49.25717" lon="-0.25162">
        <ele>3.947981</ele>
        <time>2022-08-05T13:01:39.000Z</time>
      </trkpt>
      <trkpt lat="49.2572" lon="-0.25159">
        <ele>3.939898</ele>
        <time>2022-08-05T13:01:40.000Z</time>
      </trkpt>
      <trkpt lat="49.25725" lon="-0.25155">
        <ele>3.929244</ele>
        <time>2022-08-05T13:01:41.000Z</time>
      </trkpt>
      <trkpt lat="49.25728" lon="-0.25152">
        <ele>3.920239</ele>
        <time>2022-08-05T13:01:42.000Z</time>
      </trkpt>
      <trkpt lat="49.25731" lon="-0.25149">
        <ele>3.9125</ele>
        <time>2022-08-05T13:01:43.000Z</time>
      </trkpt>
      <trkpt lat="49.25735" lon="-0.25146">
        <ele>3.90379</ele>
        <time>2022-08-05T13:01:44.000Z</time>
      </trkpt>
      <trkpt lat="49.25739" lon="-0.25143">
        <ele>3.894123</ele>
        <time>2022-08-05T13:01:45.000Z</time>
      </trkpt>
      <trkpt lat="49.25743" lon="-0.25139">
        <ele>3.883799</ele>
        <time>2022-08-05T13:01:46.000Z</time>
      </trkpt>
      <trkpt lat="49.25747" lon="-0.25136">
        <ele>3.874268</ele>
        <time>2022-08-05T13:01:47.000Z</time>
      </trkpt>
      <trkpt lat="49.2575" lon="-0.25133">
        <ele>3.865058</ele>
        <time>2022-08-05T13:01:48.000Z</time>
      </trkpt>
      <trkpt lat="49.25754" lon="-0.2513">
        <ele>3.856418</ele>
        <time>2022-08-05T13:01:49.000Z</time>
      </trkpt>
      <trkpt lat="49.25757" lon="-0.25127">
        <ele>3.848261</ele>
        <time>2022-08-05T13:01:50.000Z</time>
      </trkpt>
      <trkpt lat="49.2576" lon="-0.25124">
        <ele>3.840028</ele>
        <time>2022-08-05T13:01:51.000Z</time>
      </trkpt>
      <trkpt lat="49.25764" lon="-0.25121">
        <ele>3.831388</ele>
        <time>2022-08-05T13:01:52.000Z</time>
      </trkpt>
      <trkpt lat="49.25767" lon="-0.25118">
        <ele>3.822559</ele>
        <time>2022-08-05T13:01:53.000Z</time>
      </trkpt>
      <trkpt lat="49.25771" lon="-0.25115">
        <ele>3.814476</ele>
        <time>2022-08-05T13:01:54.000Z</time>
      </trkpt>
      <trkpt lat="49.25774" lon="-0.25112">
        <ele>3.805969</ele>
        <time>2022-08-05T13:01:55.000Z</time>
      </trkpt>
      <trkpt lat="49.25778" lon="-0.25109">
        <ele>3.796945</ele>
        <time>2022-08-05T13:01:56.000Z</time>
      </trkpt>
      <trkpt lat="49.25781" lon="-0.25106">
        <ele>3.789634</ele>
        <time>2022-08-05T13:01:57.000Z</time>
      </trkpt>
      <trkpt lat="49.25785" lon="-0.25104">
        <ele>3.780549</ele>
        <time>2022-08-05T13:01:58.000Z</time>
      </trkpt>
      <trkpt lat="49.25789" lon="-0.25101">
        <ele>3.77127</ele>
        <time>2022-08-05T13:01:59.000Z</time>
      </trkpt>
      <trkpt lat="49.25792" lon="-0.25098">
        <ele>3.76263</ele>
        <time>2022-08-05T13:02:00.000Z</time>
      </trkpt>
      <trkpt lat="49.25796" lon="-0.25095">
        <ele>3.753989</ele>
        <time>2022-08-05T13:02:01.000Z</time>
      </trkpt>
      <trkpt lat="49.25799" lon="-0.25092">
        <ele>3.745349</ele>
        <time>2022-08-05T13:02:02.000Z</time>
      </trkpt>
      <trkpt lat="49.25803" lon="-0.25089">
        <ele>3.735947</ele>
        <time>2022-08-05T13:02:03.000Z</time>
      </trkpt>
      <trkpt lat="49.25806" lon="-0.25086">
        <ele>3.728778</ele>
        <time>2022-08-05T13:02:04.000Z</time>
      </trkpt>
      <trkpt lat="49.2581" lon="-0.25083">
        <ele>3.718734</ele>
        <time>2022-08-05T13:02:05.000Z</time>
      </trkpt>
      <trkpt lat="49.25813" lon="-0.25081">
        <ele>3.712266</ele>
        <time>2022-08-05T13:02:06.000Z</time>
      </trkpt>
      <trkpt lat="49.25816" lon="-0.25078">
        <ele>3.703056</ele>
        <time>2022-08-05T13:02:07.000Z</time>
      </trkpt>
      <trkpt lat="49.25821" lon="-0.25074">
        <ele>3.692618</ele>
        <time>2022-08-05T13:02:08.000Z</time>
      </trkpt>
      <trkpt lat="49.25824" lon="-0.25071">
        <ele>3.684111</ele>
        <time>2022-08-05T13:02:09.000Z</time>
      </trkpt>
      <trkpt lat="49.25828" lon="-0.25068">
        <ele>3.674902</ele>
        <time>2022-08-05T13:02:10.000Z</time>
      </trkpt>
      <trkpt lat="49.25831" lon="-0.25065">
        <ele>3.667517</ele>
        <time>2022-08-05T13:02:11.000Z</time>
      </trkpt>
      <trkpt lat="49.25835" lon="-0.25062">
        <ele>3.658115</ele>
        <time>2022-08-05T13:02:12.000Z</time>
      </trkpt>
      <trkpt lat="49.25837" lon="-0.25059">
        <ele>3.650833</ele>
        <time>2022-08-05T13:02:13.000Z</time>
      </trkpt>
      <trkpt lat="49.25841" lon="-0.25057">
        <ele>3.643919</ele>
        <time>2022-08-05T13:02:14.000Z</time>
      </trkpt>
      <trkpt lat="49.25844" lon="-0.25054">
        <ele>3.643133</ele>
        <time>2022-08-05T13:02:15.000Z</time>
      </trkpt>
      <trkpt lat="49.25847" lon="-0.25052">
        <ele>3.642199</ele>
        <time>2022-08-05T13:02:16.000Z</time>
      </trkpt>
      <trkpt lat="49.25851" lon="-0.25049">
        <ele>3.64101</ele>
        <time>2022-08-05T13:02:17.000Z</time>
      </trkpt>
      <trkpt lat="49.25854" lon="-0.25046">
        <ele>3.639917</ele>
        <time>2022-08-05T13:02:18.000Z</time>
      </trkpt>
      <trkpt lat="49.25857" lon="-0.25043">
        <ele>3.638921</ele>
        <time>2022-08-05T13:02:19.000Z</time>
      </trkpt>
      <trkpt lat="49.2586" lon="-0.2504">
        <ele>3.637987</ele>
        <time>2022-08-05T13:02:20.000Z</time>
      </trkpt>
      <trkpt lat="49.25864" lon="-0.25037">
        <ele>3.636894</ele>
        <time>2022-08-05T13:02:21.000Z</time>
      </trkpt>
      <trkpt lat="49.25867" lon="-0.25034">
        <ele>3.63594</ele>
        <time>2022-08-05T13:02:22.000Z</time>
      </trkpt>
      <trkpt lat="49.2587" lon="-0.25032">
        <ele>3.634888</ele>
        <time>2022-08-05T13:02:23.000Z</time>
      </trkpt>
      <trkpt lat="49.25873" lon="-0.25029">
        <ele>3.633892</ele>
        <time>2022-08-05T13:02:24.000Z</time>
      </trkpt>
      <trkpt lat="49.25877" lon="-0.25026">
        <ele>3.632758</ele>
        <time>2022-08-05T13:02:25.000Z</time>
      </trkpt>
      <trkpt lat="49.2588" lon="-0.25024">
        <ele>3.631833</ele>
        <time>2022-08-05T13:02:26.000Z</time>
      </trkpt>
      <trkpt lat="49.25884" lon="-0.25021">
        <ele>3.63074</ele>
        <time>2022-08-05T13:02:27.000Z</time>
      </trkpt>
      <trkpt lat="49.25887" lon="-0.25018">
        <ele>3.629664</ele>
        <time>2022-08-05T13:02:28.000Z</time>
      </trkpt>
      <trkpt lat="49.25891" lon="-0.25015">
        <ele>3.628483</ele>
        <time>2022-08-05T13:02:29.000Z</time>
      </trkpt>
      <trkpt lat="49.25894" lon="-0.25012">
        <ele>3.627479</ele>
        <time>2022-08-05T13:02:30.000Z</time>
      </trkpt>
      <trkpt lat="49.25898" lon="-0.25009">
        <ele>3.626403</ele>
        <time>2022-08-05T13:02:31.000Z</time>
      </trkpt>
      <trkpt lat="49.25901" lon="-0.25006">
        <ele>3.625389</ele>
        <time>2022-08-05T13:02:32.000Z</time>
      </trkpt>
      <trkpt lat="49.25904" lon="-0.25004">
        <ele>3.624385</ele>
        <time>2022-08-05T13:02:33.000Z</time>
      </trkpt>
      <trkpt lat="49.25908" lon="-0.25001">
        <ele>3.623309</ele>
        <time>2022-08-05T13:02:34.000Z</time>
      </trkpt>
      <trkpt lat="49.25911" lon="-0.24998">
        <ele>3.62233</ele>
        <time>2022-08-05T13:02:35.000Z</time>
      </trkpt>
      <trkpt lat="49.25914" lon="-0.24995">
        <ele>3.621317</ele>
        <time>2022-08-05T13:02:36.000Z</time>
      </trkpt>
      <trkpt lat="49.25917" lon="-0.24993">
        <ele>3.62033</ele>
        <time>2022-08-05T13:02:37.000Z</time>
      </trkpt>
      <trkpt lat="49.2592" lon="-0.2499">
        <ele>3.619405</ele>
        <time>2022-08-05T13:02:38.000Z</time>
      </trkpt>
      <trkpt lat="49.25924" lon="-0.24987">
        <ele>3.618329</ele>
        <time>2022-08-05T13:02:39.000Z</time>
      </trkpt>
      <trkpt lat="49.25927" lon="-0.24985">
        <ele>3.61735</ele>
        <time>2022-08-05T13:02:40.000Z</time>
      </trkpt>
      <trkpt lat="49.2593" lon="-0.24982">
        <ele>3.616406</ele>
        <time>2022-08-05T13:02:41.000Z</time>
      </trkpt>
      <trkpt lat="49.25933" lon="-0.24979">
        <ele>3.615419</ele>
        <time>2022-08-05T13:02:42.000Z</time>
      </trkpt>
      <trkpt lat="49.25936" lon="-0.24977">
        <ele>3.61444</ele>
        <time>2022-08-05T13:02:43.000Z</time>
      </trkpt>
      <trkpt lat="49.25939" lon="-0.24974">
        <ele>3.613418</ele>
        <time>2022-08-05T13:02:44.000Z</time>
      </trkpt>
      <trkpt lat="49.25942" lon="-0.24971">
        <ele>3.612493</ele>
        <time>2022-08-05T13:02:45.000Z</time>
      </trkpt>
      <trkpt lat="49.25945" lon="-0.24968">
        <ele>3.611497</ele>
        <time>2022-08-05T13:02:46.000Z</time>
      </trkpt>
      <trkpt lat="49.25949" lon="-0.24966">
        <ele>3.610518</ele>
        <time>2022-08-05T13:02:47.000Z</time>
      </trkpt>
      <trkpt lat="49.25951" lon="-0.24963">
        <ele>3.609602</ele>
        <time>2022-08-05T13:02:48.000Z</time>
      </trkpt>
      <trkpt lat="49.25955" lon="-0.24961">
        <ele>3.608535</ele>
        <time>2022-08-05T13:02:49.000Z</time>
      </trkpt>
      <trkpt lat="49.25958" lon="-0.24958">
        <ele>3.607581</ele>
        <time>2022-08-05T13:02:50.000Z</time>
      </trkpt>
      <trkpt lat="49.25961" lon="-0.24955">
        <ele>3.606505</ele>
        <time>2022-08-05T13:02:51.000Z</time>
      </trkpt>
      <trkpt lat="49.25965" lon="-0.24952">
        <ele>3.605509</ele>
        <time>2022-08-05T13:02:52.000Z</time>
      </trkpt>
      <trkpt lat="49.25968" lon="-0.24949">
        <ele>3.604487</ele>
        <time>2022-08-05T13:02:53.000Z</time>
      </trkpt>
      <trkpt lat="49.25971" lon="-0.24946">
        <ele>3.603483</ele>
        <time>2022-08-05T13:02:54.000Z</time>
      </trkpt>
      <trkpt lat="49.25974" lon="-0.24943">
        <ele>3.602539</ele>
        <time>2022-08-05T13:02:55.000Z</time>
      </trkpt>
      <trkpt lat="49.25977" lon="-0.24941">
        <ele>3.60156</ele>
        <time>2022-08-05T13:02:56.000Z</time>
      </trkpt>
      <trkpt lat="49.2598" lon="-0.24938">
        <ele>3.600677</ele>
        <time>2022-08-05T13:02:57.000Z</time>
      </trkpt>
      <trkpt lat="49.25983" lon="-0.24936">
        <ele>3.599592</ele>
        <time>2022-08-05T13:02:58.000Z</time>
      </trkpt>
      <trkpt lat="49.25987" lon="-0.24933">
        <ele>3.598596</ele>
        <time>2022-08-05T13:02:59.000Z</time>
      </trkpt>
      <trkpt lat="49.2599" lon="-0.2493">
        <ele>3.597431</ele>
        <time>2022-08-05T13:03:00.000Z</time>
      </trkpt>
      <trkpt lat="49.25994" lon="-0.24927">
        <ele>3.596427</ele>
        <time>2022-08-05T13:03:01.000Z</time>
      </trkpt>
      <trkpt lat="49.25997" lon="-0.24925">
        <ele>3.595359</ele>
        <time>2022-08-05T13:03:02.000Z</time>
      </trkpt>
      <trkpt lat="49.26001" lon="-0.24922">
        <ele>3.604236</ele>
        <time>2022-08-05T13:03:03.000Z</time>
      </trkpt>
      <trkpt lat="49.26004" lon="-0.24919">
        <ele>3.61471</ele>
        <time>2022-08-05T13:03:04.000Z</time>
      </trkpt>
      <trkpt lat="49.26007" lon="-0.24916">
        <ele>3.624212</ele>
        <time>2022-08-05T13:03:05.000Z</time>
      </trkpt>
      <trkpt lat="49.26011" lon="-0.24913">
        <ele>3.634462</ele>
        <time>2022-08-05T13:03:06.000Z</time>
      </trkpt>
      <trkpt lat="49.26014" lon="-0.2491">
        <ele>3.644051</ele>
        <time>2022-08-05T13:03:07.000Z</time>
      </trkpt>
      <trkpt lat="49.26017" lon="-0.24907">
        <ele>3.652812</ele>
        <time>2022-08-05T13:03:08.000Z</time>
      </trkpt>
      <trkpt lat="49.26021" lon="-0.24904">
        <ele>3.662904</ele>
        <time>2022-08-05T13:03:09.000Z</time>
      </trkpt>
      <trkpt lat="49.26023" lon="-0.24902">
        <ele>3.671577</ele>
        <time>2022-08-05T13:03:10.000Z</time>
      </trkpt>
      <trkpt lat="49.26027" lon="-0.24899">
        <ele>3.681165</ele>
        <time>2022-08-05T13:03:11.000Z</time>
      </trkpt>
      <trkpt lat="49.26029" lon="-0.24896">
        <ele>3.689898</ele>
        <time>2022-08-05T13:03:12.000Z</time>
      </trkpt>
      <trkpt lat="49.26033" lon="-0.24893">
        <ele>3.700372</ele>
        <time>2022-08-05T13:03:13.000Z</time>
      </trkpt>
      <trkpt lat="49.26036" lon="-0.2489">
        <ele>3.709961</ele>
        <time>2022-08-05T13:03:14.000Z</time>
      </trkpt>
      <trkpt lat="49.26039" lon="-0.24887">
        <ele>3.719379</ele>
        <time>2022-08-05T13:03:15.000Z</time>
      </trkpt>
      <trkpt lat="49.26043" lon="-0.24884">
        <ele>3.72963</ele>
        <time>2022-08-05T13:03:16.000Z</time>
      </trkpt>
      <trkpt lat="49.26046" lon="-0.24881">
        <ele>3.739132</ele>
        <time>2022-08-05T13:03:17.000Z</time>
      </trkpt>
      <trkpt lat="49.2605" lon="-0.24878">
        <ele>3.750296</ele>
        <time>2022-08-05T13:03:18.000Z</time>
      </trkpt>
      <trkpt lat="49.26053" lon="-0.24874">
        <ele>3.760063</ele>
        <time>2022-08-05T13:03:19.000Z</time>
      </trkpt>
      <trkpt lat="49.26057" lon="-0.24871">
        <ele>3.770396</ele>
        <time>2022-08-05T13:03:20.000Z</time>
      </trkpt>
      <trkpt lat="49.26061" lon="-0.24869">
        <ele>3.781334</ele>
        <time>2022-08-05T13:03:21.000Z</time>
      </trkpt>
      <trkpt lat="49.26064" lon="-0.24865">
        <ele>3.792417</ele>
        <time>2022-08-05T13:03:22.000Z</time>
      </trkpt>
      <trkpt lat="49.26068" lon="-0.24862">
        <ele>3.802667</ele>
        <time>2022-08-05T13:03:23.000Z</time>
      </trkpt>
      <trkpt lat="49.26072" lon="-0.24859">
        <ele>3.814054</ele>
        <time>2022-08-05T13:03:24.000Z</time>
      </trkpt>
      <trkpt lat="49.26075" lon="-0.24856">
        <ele>3.823821</ele>
        <time>2022-08-05T13:03:25.000Z</time>
      </trkpt>
      <trkpt lat="49.26079" lon="-0.24853">
        <ele>3.834824</ele>
        <time>2022-08-05T13:03:26.000Z</time>
      </trkpt>
      <trkpt lat="49.26083" lon="-0.2485">
        <ele>3.845978</ele>
        <time>2022-08-05T13:03:27.000Z</time>
      </trkpt>
      <trkpt lat="49.26086" lon="-0.24847">
        <ele>3.856228</ele>
        <time>2022-08-05T13:03:28.000Z</time>
      </trkpt>
      <trkpt lat="49.2609" lon="-0.24844">
        <ele>3.866478</ele>
        <time>2022-08-05T13:03:29.000Z</time>
      </trkpt>
      <trkpt lat="49.26093" lon="-0.24841">
        <ele>3.876245</ele>
        <time>2022-08-05T13:03:30.000Z</time>
      </trkpt>
      <trkpt lat="49.26096" lon="-0.24838">
        <ele>3.886495</ele>
        <time>2022-08-05T13:03:31.000Z</time>
      </trkpt>
      <trkpt lat="49.261" lon="-0.24834">
        <ele>3.897803</ele>
        <time>2022-08-05T13:03:32.000Z</time>
      </trkpt>
      <trkpt lat="49.26104" lon="-0.24831">
        <ele>3.908053</ele>
        <time>2022-08-05T13:03:33.000Z</time>
      </trkpt>
      <trkpt lat="49.26107" lon="-0.24829">
        <ele>3.917472</ele>
        <time>2022-08-05T13:03:34.000Z</time>
      </trkpt>
      <trkpt lat="49.2611" lon="-0.24826">
        <ele>3.927563</ele>
        <time>2022-08-05T13:03:35.000Z</time>
      </trkpt>
      <trkpt lat="49.26114" lon="-0.24823">
        <ele>3.938489</ele>
        <time>2022-08-05T13:03:36.000Z</time>
      </trkpt>
      <trkpt lat="49.26118" lon="-0.2482">
        <ele>3.948885</ele>
        <time>2022-08-05T13:03:37.000Z</time>
      </trkpt>
      <trkpt lat="49.26121" lon="-0.24817">
        <ele>3.959135</ele>
        <time>2022-08-05T13:03:38.000Z</time>
      </trkpt>
      <trkpt lat="49.26125" lon="-0.24814">
        <ele>3.969226</ele>
        <time>2022-08-05T13:03:39.000Z</time>
      </trkpt>
      <trkpt lat="49.26128" lon="-0.24811">
        <ele>3.979477</ele>
        <time>2022-08-05T13:03:40.000Z</time>
      </trkpt>
      <trkpt lat="49.26132" lon="-0.24808">
        <ele>3.989727</ele>
        <time>2022-08-05T13:03:41.000Z</time>
      </trkpt>
      <trkpt lat="49.26135" lon="-0.24805">
        <ele>4.000365</ele>
        <time>2022-08-05T13:03:42.000Z</time>
      </trkpt>
      <trkpt lat="49.26139" lon="-0.24802">
        <ele>4.009783</ele>
        <time>2022-08-05T13:03:43.000Z</time>
      </trkpt>
      <trkpt lat="49.26142" lon="-0.24799">
        <ele>4.020866</ele>
        <time>2022-08-05T13:03:44.000Z</time>
      </trkpt>
      <trkpt lat="49.26146" lon="-0.24796">
        <ele>4.031503</ele>
        <time>2022-08-05T13:03:45.000Z</time>
      </trkpt>
      <trkpt lat="49.2615" lon="-0.24793">
        <ele>4.041977</ele>
        <time>2022-08-05T13:03:46.000Z</time>
      </trkpt>
      <trkpt lat="49.26153" lon="-0.2479">
        <ele>4.052227</ele>
        <time>2022-08-05T13:03:47.000Z</time>
      </trkpt>
      <trkpt lat="49.26157" lon="-0.24787">
        <ele>4.059502</ele>
        <time>2022-08-05T13:03:48.000Z</time>
      </trkpt>
      <trkpt lat="49.26161" lon="-0.24784">
        <ele>4.065567</ele>
        <time>2022-08-05T13:03:49.000Z</time>
      </trkpt>
      <trkpt lat="49.26164" lon="-0.24781">
        <ele>4.070877</ele>
        <time>2022-08-05T13:03:50.000Z</time>
      </trkpt>
      <trkpt lat="49.26168" lon="-0.24778">
        <ele>4.076818</ele>
        <time>2022-08-05T13:03:51.000Z</time>
      </trkpt>
      <trkpt lat="49.26172" lon="-0.24775">
        <ele>4.082391</ele>
        <time>2022-08-05T13:03:52.000Z</time>
      </trkpt>
      <trkpt lat="49.26175" lon="-0.24772">
        <ele>4.088009</ele>
        <time>2022-08-05T13:03:53.000Z</time>
      </trkpt>
      <trkpt lat="49.26178" lon="-0.24769">
        <ele>4.092532</ele>
        <time>2022-08-05T13:03:54.000Z</time>
      </trkpt>
      <trkpt lat="49.26181" lon="-0.24766">
        <ele>4.097699</ele>
        <time>2022-08-05T13:03:55.000Z</time>
      </trkpt>
      <trkpt lat="49.26184" lon="-0.24763">
        <ele>4.102561</ele>
        <time>2022-08-05T13:03:56.000Z</time>
      </trkpt>
      <trkpt lat="49.26187" lon="-0.2476">
        <ele>4.108048</ele>
        <time>2022-08-05T13:03:57.000Z</time>
      </trkpt>
      <trkpt lat="49.26191" lon="-0.24757">
        <ele>4.113535</ele>
        <time>2022-08-05T13:03:58.000Z</time>
      </trkpt>
      <trkpt lat="49.26194" lon="-0.24755">
        <ele>4.118527</ele>
        <time>2022-08-05T13:03:59.000Z</time>
      </trkpt>
      <trkpt lat="49.26197" lon="-0.24752">
        <ele>4.123604</ele>
        <time>2022-08-05T13:04:00.000Z</time>
      </trkpt>
      <trkpt lat="49.26201" lon="-0.24749">
        <ele>4.12905</ele>
        <time>2022-08-05T13:04:01.000Z</time>
      </trkpt>
      <trkpt lat="49.26204" lon="-0.24747">
        <ele>4.133674</ele>
        <time>2022-08-05T13:04:02.000Z</time>
      </trkpt>
      <trkpt lat="49.26207" lon="-0.24744">
        <ele>4.13904</ele>
        <time>2022-08-05T13:04:03.000Z</time>
      </trkpt>
      <trkpt lat="49.26211" lon="-0.24742">
        <ele>4.144571</ele>
        <time>2022-08-05T13:04:04.000Z</time>
      </trkpt>
      <trkpt lat="49.26214" lon="-0.24739">
        <ele>4.149738</ele>
        <time>2022-08-05T13:04:05.000Z</time>
      </trkpt>
      <trkpt lat="49.26217" lon="-0.24736">
        <ele>4.154951</ele>
        <time>2022-08-05T13:04:06.000Z</time>
      </trkpt>
      <trkpt lat="49.26221" lon="-0.24734">
        <ele>4.160244</ele>
        <time>2022-08-05T13:04:07.000Z</time>
      </trkpt>
      <trkpt lat="49.26223" lon="-0.24731">
        <ele>4.164959</ele>
        <time>2022-08-05T13:04:08.000Z</time>
      </trkpt>
      <trkpt lat="49.26227" lon="-0.24728">
        <ele>4.170533</ele>
        <time>2022-08-05T13:04:09.000Z</time>
      </trkpt>
      <trkpt lat="49.2623" lon="-0.24725">
        <ele>4.175296</ele>
        <time>2022-08-05T13:04:10.000Z</time>
      </trkpt>
      <trkpt lat="49.26233" lon="-0.24722">
        <ele>4.18051</ele>
        <time>2022-08-05T13:04:11.000Z</time>
      </trkpt>
      <trkpt lat="49.26237" lon="-0.24719">
        <ele>4.186174</ele>
        <time>2022-08-05T13:04:12.000Z</time>
      </trkpt>
      <trkpt lat="49.26239" lon="-0.24716">
        <ele>4.190937</ele>
        <time>2022-08-05T13:04:13.000Z</time>
      </trkpt>
      <trkpt lat="49.26243" lon="-0.24713">
        <ele>4.19651</ele>
        <time>2022-08-05T13:04:14.000Z</time>
      </trkpt>
      <trkpt lat="49.26246" lon="-0.2471">
        <ele>4.201956</ele>
        <time>2022-08-05T13:04:15.000Z</time>
      </trkpt>
      <trkpt lat="49.26249" lon="-0.24708">
        <ele>4.206625</ele>
        <time>2022-08-05T13:04:16.000Z</time>
      </trkpt>
      <trkpt lat="49.26253" lon="-0.24705">
        <ele>4.211617</ele>
        <time>2022-08-05T13:04:17.000Z</time>
      </trkpt>
      <trkpt lat="49.26255" lon="-0.24703">
        <ele>4.216333</ele>
        <time>2022-08-05T13:04:18.000Z</time>
      </trkpt>
      <trkpt lat="49.26259" lon="-0.247">
        <ele>4.22182</ele>
        <time>2022-08-05T13:04:19.000Z</time>
      </trkpt>
      <trkpt lat="49.26262" lon="-0.24697">
        <ele>4.226683</ele>
        <time>2022-08-05T13:04:20.000Z</time>
      </trkpt>
      <trkpt lat="49.26266" lon="-0.24694">
        <ele>4.232582</ele>
        <time>2022-08-05T13:04:21.000Z</time>
      </trkpt>
      <trkpt lat="49.26269" lon="-0.24691">
        <ele>4.238565</ele>
        <time>2022-08-05T13:04:22.000Z</time>
      </trkpt>
      <trkpt lat="49.26273" lon="-0.24688">
        <ele>4.244713</ele>
        <time>2022-08-05T13:04:23.000Z</time>
      </trkpt>
      <trkpt lat="49.26277" lon="-0.24684">
        <ele>4.250783</ele>
        <time>2022-08-05T13:04:24.000Z</time>
      </trkpt>
      <trkpt lat="49.26282" lon="-0.24681">
        <ele>4.257796</ele>
        <time>2022-08-05T13:04:25.000Z</time>
      </trkpt>
      <trkpt lat="49.26286" lon="-0.24677">
        <ele>4.264809</ele>
        <time>2022-08-05T13:04:26.000Z</time>
      </trkpt>
      <trkpt lat="49.2629" lon="-0.24674">
        <ele>4.271332</ele>
        <time>2022-08-05T13:04:27.000Z</time>
      </trkpt>
      <trkpt lat="49.26294" lon="-0.2467">
        <ele>4.278064</ele>
        <time>2022-08-05T13:04:28.000Z</time>
      </trkpt>
      <trkpt lat="49.26299" lon="-0.24666">
        <ele>4.285205</ele>
        <time>2022-08-05T13:04:29.000Z</time>
      </trkpt>
      <trkpt lat="49.26303" lon="-0.24663">
        <ele>4.292302</ele>
        <time>2022-08-05T13:04:30.000Z</time>
      </trkpt>
      <trkpt lat="49.26308" lon="-0.24659">
        <ele>4.299769</ele>
        <time>2022-08-05T13:04:31.000Z</time>
      </trkpt>
      <trkpt lat="49.26313" lon="-0.24655">
        <ele>4.317199</ele>
        <time>2022-08-05T13:04:32.000Z</time>
      </trkpt>
      <trkpt lat="49.26317" lon="-0.24651">
        <ele>4.35384</ele>
        <time>2022-08-05T13:04:33.000Z</time>
      </trkpt>
      <trkpt lat="49.26322" lon="-0.24647">
        <ele>4.393254</ele>
        <time>2022-08-05T13:04:34.000Z</time>
      </trkpt>
      <trkpt lat="49.26327" lon="-0.24644">
        <ele>4.430528</ele>
        <time>2022-08-05T13:04:35.000Z</time>
      </trkpt>
      <trkpt lat="49.26331" lon="-0.2464">
        <ele>4.465912</ele>
        <time>2022-08-05T13:04:36.000Z</time>
      </trkpt>
      <trkpt lat="49.26335" lon="-0.24636">
        <ele>4.50043</ele>
        <time>2022-08-05T13:04:37.000Z</time>
      </trkpt>
      <trkpt lat="49.26339" lon="-0.24632">
        <ele>4.535576</ele>
        <time>2022-08-05T13:04:38.000Z</time>
      </trkpt>
      <trkpt lat="49.26344" lon="-0.24629">
        <ele>4.574345</ele>
        <time>2022-08-05T13:04:39.000Z</time>
      </trkpt>
      <trkpt lat="49.26348" lon="-0.24625">
        <ele>4.60949</ele>
        <time>2022-08-05T13:04:40.000Z</time>
      </trkpt>
      <trkpt lat="49.26352" lon="-0.24622">
        <ele>4.643538</ele>
        <time>2022-08-05T13:04:41.000Z</time>
      </trkpt>
      <trkpt lat="49.26357" lon="-0.24618">
        <ele>4.678922</ele>
        <time>2022-08-05T13:04:42.000Z</time>
      </trkpt>
      <trkpt lat="49.2636" lon="-0.24614">
        <ele>4.712101</ele>
        <time>2022-08-05T13:04:43.000Z</time>
      </trkpt>
      <trkpt lat="49.26365" lon="-0.2461">
        <ele>4.747012</ele>
        <time>2022-08-05T13:04:44.000Z</time>
      </trkpt>
      <trkpt lat="49.26369" lon="-0.24607">
        <ele>4.78106</ele>
        <time>2022-08-05T13:04:45.000Z</time>
      </trkpt>
      <trkpt lat="49.26373" lon="-0.24603">
        <ele>4.816205</ele>
        <time>2022-08-05T13:04:46.000Z</time>
      </trkpt>
      <trkpt lat="49.26377" lon="-0.246">
        <ele>4.850446</ele>
        <time>2022-08-05T13:04:47.000Z</time>
      </trkpt>
      <trkpt lat="49.26382" lon="-0.24596">
        <ele>4.88901</ele>
        <time>2022-08-05T13:04:48.000Z</time>
      </trkpt>
      <trkpt lat="49.26386" lon="-0.24593">
        <ele>4.923057</ele>
        <time>2022-08-05T13:04:49.000Z</time>
      </trkpt>
      <trkpt lat="49.2639" lon="-0.24589">
        <ele>4.958203</ele>
        <time>2022-08-05T13:04:50.000Z</time>
      </trkpt>
      <trkpt lat="49.26394" lon="-0.24586">
        <ele>4.99225</ele>
        <time>2022-08-05T13:04:51.000Z</time>
      </trkpt>
      <trkpt lat="49.26398" lon="-0.24582">
        <ele>5.024343</ele>
        <time>2022-08-05T13:04:52.000Z</time>
      </trkpt>
      <trkpt lat="49.26402" lon="-0.24579">
        <ele>5.057511</ele>
        <time>2022-08-05T13:04:53.000Z</time>
      </trkpt>
      <trkpt lat="49.26406" lon="-0.24576">
        <ele>5.09197</ele>
        <time>2022-08-05T13:04:54.000Z</time>
      </trkpt>
      <trkpt lat="49.2641" lon="-0.24572">
        <ele>5.12438</ele>
        <time>2022-08-05T13:04:55.000Z</time>
      </trkpt>
      <trkpt lat="49.26414" lon="-0.24569">
        <ele>5.159526</ele>
        <time>2022-08-05T13:04:56.000Z</time>
      </trkpt>
      <trkpt lat="49.26419" lon="-0.24565">
        <ele>5.194209</ele>
        <time>2022-08-05T13:04:57.000Z</time>
      </trkpt>
      <trkpt lat="49.26423" lon="-0.24561">
        <ele>5.230619</ele>
        <time>2022-08-05T13:04:58.000Z</time>
      </trkpt>
      <trkpt lat="49.26427" lon="-0.24558">
        <ele>5.261548</ele>
        <time>2022-08-05T13:04:59.000Z</time>
      </trkpt>
      <trkpt lat="49.2643" lon="-0.24555">
        <ele>5.292779</ele>
        <time>2022-08-05T13:05:00.000Z</time>
      </trkpt>
      <trkpt lat="49.26434" lon="-0.24552">
        <ele>5.321872</ele>
        <time>2022-08-05T13:05:01.000Z</time>
      </trkpt>
      <trkpt lat="49.26437" lon="-0.24549">
        <ele>5.350965</ele>
        <time>2022-08-05T13:05:02.000Z</time>
      </trkpt>
      <trkpt lat="49.26441" lon="-0.24546">
        <ele>5.380041</ele>
        <time>2022-08-05T13:05:03.000Z</time>
      </trkpt>
      <trkpt lat="49.26445" lon="-0.24543">
        <ele>5.412605</ele>
        <time>2022-08-05T13:05:04.000Z</time>
      </trkpt>
      <trkpt lat="49.26448" lon="-0.2454">
        <ele>5.440326</ele>
        <time>2022-08-05T13:05:05.000Z</time>
      </trkpt>
      <trkpt lat="49.26452" lon="-0.24537">
        <ele>5.469892</ele>
        <time>2022-08-05T13:05:06.000Z</time>
      </trkpt>
      <trkpt lat="49.26455" lon="-0.24534">
        <ele>5.49918</ele>
        <time>2022-08-05T13:05:07.000Z</time>
      </trkpt>
      <trkpt lat="49.26458" lon="-0.24531">
        <ele>5.523435</ele>
        <time>2022-08-05T13:05:08.000Z</time>
      </trkpt>
      <trkpt lat="49.26462" lon="-0.24529">
        <ele>5.552512</ele>
        <time>2022-08-05T13:05:09.000Z</time>
      </trkpt>
      <trkpt lat="49.26465" lon="-0.24526">
        <ele>5.581155</ele>
        <time>2022-08-05T13:05:10.000Z</time>
      </trkpt>
      <trkpt lat="49.26469" lon="-0.24523">
        <ele>5.60974</ele>
        <time>2022-08-05T13:05:11.000Z</time>
      </trkpt>
      <trkpt lat="49.26472" lon="-0.2452">
        <ele>5.607162</ele>
        <time>2022-08-05T13:05:12.000Z</time>
      </trkpt>
      <trkpt lat="49.26476" lon="-0.24517">
        <ele>5.604406</ele>
        <time>2022-08-05T13:05:13.000Z</time>
      </trkpt>
      <trkpt lat="49.26479" lon="-0.24514">
        <ele>5.601446</ele>
        <time>2022-08-05T13:05:14.000Z</time>
      </trkpt>
      <trkpt lat="49.26482" lon="-0.24511">
        <ele>5.599149</ele>
        <time>2022-08-05T13:05:15.000Z</time>
      </trkpt>
      <trkpt lat="49.26486" lon="-0.24509">
        <ele>5.596208</ele>
        <time>2022-08-05T13:05:16.000Z</time>
      </trkpt>
      <trkpt lat="49.2649" lon="-0.24506">
        <ele>5.593494</ele>
        <time>2022-08-05T13:05:17.000Z</time>
      </trkpt>
      <trkpt lat="49.26493" lon="-0.24503">
        <ele>5.59076</ele>
        <time>2022-08-05T13:05:18.000Z</time>
      </trkpt>
      <trkpt lat="49.26497" lon="-0.245">
        <ele>5.588004</ele>
        <time>2022-08-05T13:05:19.000Z</time>
      </trkpt>
      <trkpt lat="49.265" lon="-0.24497">
        <ele>5.585426</ele>
        <time>2022-08-05T13:05:20.000Z</time>
      </trkpt>
      <trkpt lat="49.26503" lon="-0.24494">
        <ele>5.58261</ele>
        <time>2022-08-05T13:05:21.000Z</time>
      </trkpt>
      <trkpt lat="49.26507" lon="-0.24491">
        <ele>5.579897</ele>
        <time>2022-08-05T13:05:22.000Z</time>
      </trkpt>
      <trkpt lat="49.2651" lon="-0.24488">
        <ele>5.577565</ele>
        <time>2022-08-05T13:05:23.000Z</time>
      </trkpt>
      <trkpt lat="49.26513" lon="-0.24485">
        <ele>5.574987</ele>
        <time>2022-08-05T13:05:24.000Z</time>
      </trkpt>
      <trkpt lat="49.26517" lon="-0.24483">
        <ele>5.572274</ele>
        <time>2022-08-05T13:05:25.000Z</time>
      </trkpt>
      <trkpt lat="49.2652" lon="-0.2448">
        <ele>5.569742</ele>
        <time>2022-08-05T13:05:26.000Z</time>
      </trkpt>
      <trkpt lat="49.26523" lon="-0.24477">
        <ele>5.566986</ele>
        <time>2022-08-05T13:05:27.000Z</time>
      </trkpt>
      <trkpt lat="49.26527" lon="-0.24474">
        <ele>5.56423</ele>
        <time>2022-08-05T13:05:28.000Z</time>
      </trkpt>
      <trkpt lat="49.26531" lon="-0.2447">
        <ele>5.561146</ele>
        <time>2022-08-05T13:05:29.000Z</time>
      </trkpt>
      <trkpt lat="49.26534" lon="-0.24467">
        <ele>5.558496</ele>
        <time>2022-08-05T13:05:30.000Z</time>
      </trkpt>
      <trkpt lat="49.26537" lon="-0.24464">
        <ele>5.555783</ele>
        <time>2022-08-05T13:05:31.000Z</time>
      </trkpt>
      <trkpt lat="49.26541" lon="-0.24461">
        <ele>5.552865</ele>
        <time>2022-08-05T13:05:32.000Z</time>
      </trkpt>
      <trkpt lat="49.26545" lon="-0.24458">
        <ele>5.550087</ele>
        <time>2022-08-05T13:05:33.000Z</time>
      </trkpt>
      <trkpt lat="49.26548" lon="-0.24455">
        <ele>5.547271</ele>
        <time>2022-08-05T13:05:34.000Z</time>
      </trkpt>
      <trkpt lat="49.26552" lon="-0.24452">
        <ele>5.544515</ele>
        <time>2022-08-05T13:05:35.000Z</time>
      </trkpt>
      <trkpt lat="49.26555" lon="-0.24449">
        <ele>5.541759</ele>
        <time>2022-08-05T13:05:36.000Z</time>
      </trkpt>
      <trkpt lat="49.26559" lon="-0.24446">
        <ele>5.53878</ele>
        <time>2022-08-05T13:05:37.000Z</time>
      </trkpt>
      <trkpt lat="49.26563" lon="-0.24443">
        <ele>5.53574</ele>
        <time>2022-08-05T13:05:38.000Z</time>
      </trkpt>
      <trkpt lat="49.26567" lon="-0.2444">
        <ele>5.532781</ele>
        <time>2022-08-05T13:05:39.000Z</time>
      </trkpt>
      <trkpt lat="49.26571" lon="-0.24437">
        <ele>5.529741</ele>
        <time>2022-08-05T13:05:40.000Z</time>
      </trkpt>
      <trkpt lat="49.26574" lon="-0.24434">
        <ele>5.526985</ele>
        <time>2022-08-05T13:05:41.000Z</time>
      </trkpt>
      <trkpt lat="49.26577" lon="-0.24431">
        <ele>5.524581</ele>
        <time>2022-08-05T13:05:42.000Z</time>
      </trkpt>
      <trkpt lat="49.26581" lon="-0.24428">
        <ele>5.521683</ele>
        <time>2022-08-05T13:05:43.000Z</time>
      </trkpt>
      <trkpt lat="49.26584" lon="-0.24425">
        <ele>5.518927</ele>
        <time>2022-08-05T13:05:44.000Z</time>
      </trkpt>
      <trkpt lat="49.26588" lon="-0.24421">
        <ele>5.516226</ele>
        <time>2022-08-05T13:05:45.000Z</time>
      </trkpt>
      <trkpt lat="49.2659" lon="-0.24418">
        <ele>5.513689</ele>
        <time>2022-08-05T13:05:46.000Z</time>
      </trkpt>
      <trkpt lat="49.26593" lon="-0.24414">
        <ele>5.510947</ele>
        <time>2022-08-05T13:05:47.000Z</time>
      </trkpt>
      <trkpt lat="49.26595" lon="-0.24409">
        <ele>5.508543</ele>
        <time>2022-08-05T13:05:48.000Z</time>
      </trkpt>
      <trkpt lat="49.26597" lon="-0.24404">
        <ele>5.505925</ele>
        <time>2022-08-05T13:05:49.000Z</time>
      </trkpt>
      <trkpt lat="49.26597" lon="-0.24399">
        <ele>5.503593</ele>
        <time>2022-08-05T13:05:50.000Z</time>
      </trkpt>
      <trkpt lat="49.26596" lon="-0.24393">
        <ele>5.501181</ele>
        <time>2022-08-05T13:05:51.000Z</time>
      </trkpt>
      <trkpt lat="49.26595" lon="-0.24388">
        <ele>5.498557</ele>
        <time>2022-08-05T13:05:52.000Z</time>
      </trkpt>
      <trkpt lat="49.26593" lon="-0.24382">
        <ele>5.495767</ele>
        <time>2022-08-05T13:05:53.000Z</time>
      </trkpt>
      <trkpt lat="49.26591" lon="-0.24377">
        <ele>5.492982</ele>
        <time>2022-08-05T13:05:54.000Z</time>
      </trkpt>
      <trkpt lat="49.26589" lon="-0.24371">
        <ele>5.490192</ele>
        <time>2022-08-05T13:05:55.000Z</time>
      </trkpt>
      <trkpt lat="49.26587" lon="-0.24366">
        <ele>5.487299</ele>
        <time>2022-08-05T13:05:56.000Z</time>
      </trkpt>
      <trkpt lat="49.26585" lon="-0.2436">
        <ele>5.474189</ele>
        <time>2022-08-05T13:05:57.000Z</time>
      </trkpt>
      <trkpt lat="49.26583" lon="-0.24354">
        <ele>5.453886</ele>
        <time>2022-08-05T13:05:58.000Z</time>
      </trkpt>
      <trkpt lat="49.26581" lon="-0.24349">
        <ele>5.434764</ele>
        <time>2022-08-05T13:05:59.000Z</time>
      </trkpt>
      <trkpt lat="49.26578" lon="-0.24343">
        <ele>5.413695</ele>
        <time>2022-08-05T13:06:00.000Z</time>
      </trkpt>
      <trkpt lat="49.26576" lon="-0.24338">
        <ele>5.394151</ele>
        <time>2022-08-05T13:06:01.000Z</time>
      </trkpt>
      <trkpt lat="49.26573" lon="-0.24332">
        <ele>5.372729</ele>
        <time>2022-08-05T13:06:02.000Z</time>
      </trkpt>
      <trkpt lat="49.26571" lon="-0.24327">
        <ele>5.353875</ele>
        <time>2022-08-05T13:06:03.000Z</time>
      </trkpt>
      <trkpt lat="49.26569" lon="-0.24321">
        <ele>5.333812</ele>
        <time>2022-08-05T13:06:04.000Z</time>
      </trkpt>
      <trkpt lat="49.26567" lon="-0.24315">
        <ele>5.314472</ele>
        <time>2022-08-05T13:06:05.000Z</time>
      </trkpt>
      <trkpt lat="49.26565" lon="-0.2431">
        <ele>5.294928</ele>
        <time>2022-08-05T13:06:06.000Z</time>
      </trkpt>
      <trkpt lat="49.26563" lon="-0.24305">
        <ele>5.276153</ele>
        <time>2022-08-05T13:06:07.000Z</time>
      </trkpt>
      <trkpt lat="49.2656" lon="-0.24299">
        <ele>5.254731</ele>
        <time>2022-08-05T13:06:08.000Z</time>
      </trkpt>
      <trkpt lat="49.26558" lon="-0.24293">
        <ele>5.235932</ele>
        <time>2022-08-05T13:06:09.000Z</time>
      </trkpt>
      <trkpt lat="49.26556" lon="-0.24288">
        <ele>5.217079</ele>
        <time>2022-08-05T13:06:10.000Z</time>
      </trkpt>
      <trkpt lat="49.26553" lon="-0.24282">
        <ele>5.195656</ele>
        <time>2022-08-05T13:06:11.000Z</time>
      </trkpt>
      <trkpt lat="49.26551" lon="-0.24277">
        <ele>5.176803</ele>
        <time>2022-08-05T13:06:12.000Z</time>
      </trkpt>
      <trkpt lat="49.26549" lon="-0.24271">
        <ele>5.157012</ele>
        <time>2022-08-05T13:06:13.000Z</time>
      </trkpt>
      <trkpt lat="49.26547" lon="-0.24266">
        <ele>5.137209</ele>
        <time>2022-08-05T13:06:14.000Z</time>
      </trkpt>
      <trkpt lat="49.26545" lon="-0.2426">
        <ele>5.117419</ele>
        <time>2022-08-05T13:06:15.000Z</time>
      </trkpt>
      <trkpt lat="49.26543" lon="-0.24255">
        <ele>5.098027</ele>
        <time>2022-08-05T13:06:16.000Z</time>
      </trkpt>
      <trkpt lat="49.26541" lon="-0.24249">
        <ele>5.078636</ele>
        <time>2022-08-05T13:06:17.000Z</time>
      </trkpt>
      <trkpt lat="49.26539" lon="-0.24243">
        <ele>5.058431</ele>
        <time>2022-08-05T13:06:18.000Z</time>
      </trkpt>
      <trkpt lat="49.26537" lon="-0.24237">
        <ele>5.037951</ele>
        <time>2022-08-05T13:06:19.000Z</time>
      </trkpt>
      <trkpt lat="49.26536" lon="-0.2423">
        <ele>5.018602</ele>
        <time>2022-08-05T13:06:20.000Z</time>
      </trkpt>
      <trkpt lat="49.26536" lon="-0.24224">
        <ele>4.998713</ele>
        <time>2022-08-05T13:06:21.000Z</time>
      </trkpt>
      <trkpt lat="49.26536" lon="-0.24217">
        <ele>4.978718</ele>
        <time>2022-08-05T13:06:22.000Z</time>
      </trkpt>
      <trkpt lat="49.26535" lon="-0.2421">
        <ele>4.957465</ele>
        <time>2022-08-05T13:06:23.000Z</time>
      </trkpt>
      <trkpt lat="49.26535" lon="-0.24203">
        <ele>4.936479</ele>
        <time>2022-08-05T13:06:24.000Z</time>
      </trkpt>
      <trkpt lat="49.26535" lon="-0.24197">
        <ele>4.91583</ele>
        <time>2022-08-05T13:06:25.000Z</time>
      </trkpt>
      <trkpt lat="49.26533" lon="-0.2419">
        <ele>4.894654</ele>
        <time>2022-08-05T13:06:26.000Z</time>
      </trkpt>
      <trkpt lat="49.26533" lon="-0.24183">
        <ele>4.874227</ele>
        <time>2022-08-05T13:06:27.000Z</time>
      </trkpt>
      <trkpt lat="49.26532" lon="-0.24176">
        <ele>4.852517</ele>
        <time>2022-08-05T13:06:28.000Z</time>
      </trkpt>
      <trkpt lat="49.26531" lon="-0.24169">
        <ele>4.831428</ele>
        <time>2022-08-05T13:06:29.000Z</time>
      </trkpt>
      <trkpt lat="49.26531" lon="-0.24163">
        <ele>4.81078</ele>
        <time>2022-08-05T13:06:30.000Z</time>
      </trkpt>
      <trkpt lat="49.2653" lon="-0.24156">
        <ele>4.789662</ele>
        <time>2022-08-05T13:06:31.000Z</time>
      </trkpt>
      <trkpt lat="49.26529" lon="-0.24149">
        <ele>4.769316</ele>
        <time>2022-08-05T13:06:32.000Z</time>
      </trkpt>
      <trkpt lat="49.26529" lon="-0.24142">
        <ele>4.748759</ele>
        <time>2022-08-05T13:06:33.000Z</time>
      </trkpt>
      <trkpt lat="49.26528" lon="-0.24136">
        <ele>4.729622</ele>
        <time>2022-08-05T13:06:34.000Z</time>
      </trkpt>
      <trkpt lat="49.26528" lon="-0.2413">
        <ele>4.710333</ele>
        <time>2022-08-05T13:06:35.000Z</time>
      </trkpt>
      <trkpt lat="49.26527" lon="-0.24122">
        <ele>4.68768</ele>
        <time>2022-08-05T13:06:36.000Z</time>
      </trkpt>
      <trkpt lat="49.26527" lon="-0.24115">
        <ele>4.666427</ele>
        <time>2022-08-05T13:06:37.000Z</time>
      </trkpt>
      <trkpt lat="49.26526" lon="-0.24109">
        <ele>4.652579</ele>
        <time>2022-08-05T13:06:38.000Z</time>
      </trkpt>
      <trkpt lat="49.26526" lon="-0.24103">
        <ele>4.660202</ele>
        <time>2022-08-05T13:06:39.000Z</time>
      </trkpt>
      <trkpt lat="49.26525" lon="-0.24096">
        <ele>4.668363</ele>
        <time>2022-08-05T13:06:40.000Z</time>
      </trkpt>
      <trkpt lat="49.26525" lon="-0.24089">
        <ele>4.676562</ele>
        <time>2022-08-05T13:06:41.000Z</time>
      </trkpt>
      <trkpt lat="49.26525" lon="-0.24081">
        <ele>4.68552</ele>
        <time>2022-08-05T13:06:42.000Z</time>
      </trkpt>
      <trkpt lat="49.26524" lon="-0.24073">
        <ele>4.694409</ele>
        <time>2022-08-05T13:06:43.000Z</time>
      </trkpt>
      <trkpt lat="49.26523" lon="-0.24066">
        <ele>4.7033</ele>
        <time>2022-08-05T13:06:44.000Z</time>
      </trkpt>
      <trkpt lat="49.26522" lon="-0.24058">
        <ele>4.712759</ele>
        <time>2022-08-05T13:06:45.000Z</time>
      </trkpt>
      <trkpt lat="49.26522" lon="-0.2405">
        <ele>4.722297</ele>
        <time>2022-08-05T13:06:46.000Z</time>
      </trkpt>
      <trkpt lat="49.26521" lon="-0.24042">
        <ele>4.731756</ele>
        <time>2022-08-05T13:06:47.000Z</time>
      </trkpt>
      <trkpt lat="49.2652" lon="-0.24033">
        <ele>4.741412</ele>
        <time>2022-08-05T13:06:48.000Z</time>
      </trkpt>
      <trkpt lat="49.26519" lon="-0.24026">
        <ele>4.750556</ele>
        <time>2022-08-05T13:06:49.000Z</time>
      </trkpt>
      <trkpt lat="49.26518" lon="-0.24018">
        <ele>4.759331</ele>
        <time>2022-08-05T13:06:50.000Z</time>
      </trkpt>
      <trkpt lat="49.26517" lon="-0.24011">
        <ele>4.768221</ele>
        <time>2022-08-05T13:06:51.000Z</time>
      </trkpt>
      <trkpt lat="49.26517" lon="-0.24003">
        <ele>4.776765</ele>
        <time>2022-08-05T13:06:52.000Z</time>
      </trkpt>
      <trkpt lat="49.26516" lon="-0.23996">
        <ele>4.785541</ele>
        <time>2022-08-05T13:06:53.000Z</time>
      </trkpt>
      <trkpt lat="49.26515" lon="-0.23989">
        <ele>4.794086</ele>
        <time>2022-08-05T13:06:54.000Z</time>
      </trkpt>
      <trkpt lat="49.26515" lon="-0.23981">
        <ele>4.802861</ele>
        <time>2022-08-05T13:06:55.000Z</time>
      </trkpt>
      <trkpt lat="49.26514" lon="-0.23974">
        <ele>4.81175</ele>
        <time>2022-08-05T13:06:56.000Z</time>
      </trkpt>
      <trkpt lat="49.26513" lon="-0.23966">
        <ele>4.820526</ele>
        <time>2022-08-05T13:06:57.000Z</time>
      </trkpt>
      <trkpt lat="49.26512" lon="-0.23958">
        <ele>4.829643</ele>
        <time>2022-08-05T13:06:58.000Z</time>
      </trkpt>
      <trkpt lat="49.26511" lon="-0.23951">
        <ele>4.838533</ele>
        <time>2022-08-05T13:06:59.000Z</time>
      </trkpt>
      <trkpt lat="49.26511" lon="-0.23943">
        <ele>4.847504</ele>
        <time>2022-08-05T13:07:00.000Z</time>
      </trkpt>
      <trkpt lat="49.2651" lon="-0.23935">
        <ele>4.856588</ele>
        <time>2022-08-05T13:07:01.000Z</time>
      </trkpt>
      <trkpt lat="49.26509" lon="-0.23928">
        <ele>4.865157</ele>
        <time>2022-08-05T13:07:02.000Z</time>
      </trkpt>
      <trkpt lat="49.26509" lon="-0.23919">
        <ele>4.87573</ele>
        <time>2022-08-05T13:07:03.000Z</time>
      </trkpt>
      <trkpt lat="49.26508" lon="-0.23913">
        <ele>4.882809</ele>
        <time>2022-08-05T13:07:04.000Z</time>
      </trkpt>
      <trkpt lat="49.26507" lon="-0.23905">
        <ele>4.891814</ele>
        <time>2022-08-05T13:07:05.000Z</time>
      </trkpt>
      <trkpt lat="49.26507" lon="-0.23898">
        <ele>4.900589</ele>
        <time>2022-08-05T13:07:06.000Z</time>
      </trkpt>
      <trkpt lat="49.26506" lon="-0.2389">
        <ele>4.909593</ele>
        <time>2022-08-05T13:07:07.000Z</time>
      </trkpt>
      <trkpt lat="49.26505" lon="-0.23883">
        <ele>4.918368</ele>
        <time>2022-08-05T13:07:08.000Z</time>
      </trkpt>
      <trkpt lat="49.26504" lon="-0.23875">
        <ele>4.927258</ele>
        <time>2022-08-05T13:07:09.000Z</time>
      </trkpt>
      <trkpt lat="49.26503" lon="-0.23868">
        <ele>4.936034</ele>
        <time>2022-08-05T13:07:10.000Z</time>
      </trkpt>
      <trkpt lat="49.26502" lon="-0.2386">
        <ele>4.945004</ele>
        <time>2022-08-05T13:07:11.000Z</time>
      </trkpt>
      <trkpt lat="49.26501" lon="-0.23852">
        <ele>4.954262</ele>
        <time>2022-08-05T13:07:12.000Z</time>
      </trkpt>
      <trkpt lat="49.26501" lon="-0.23843">
        <ele>4.964951</ele>
        <time>2022-08-05T13:07:13.000Z</time>
      </trkpt>
      <trkpt lat="49.265" lon="-0.23837">
        <ele>4.968881</ele>
        <time>2022-08-05T13:07:14.000Z</time>
      </trkpt>
      <trkpt lat="49.26499" lon="-0.23829">
        <ele>4.95351</ele>
        <time>2022-08-05T13:07:15.000Z</time>
      </trkpt>
      <trkpt lat="49.26498" lon="-0.23821">
        <ele>4.938085</ele>
        <time>2022-08-05T13:07:16.000Z</time>
      </trkpt>
      <trkpt lat="49.26497" lon="-0.23812">
        <ele>4.919604</ele>
        <time>2022-08-05T13:07:17.000Z</time>
      </trkpt>
      <trkpt lat="49.26496" lon="-0.23806">
        <ele>4.907089</ele>
        <time>2022-08-05T13:07:18.000Z</time>
      </trkpt>
      <trkpt lat="49.26495" lon="-0.23798">
        <ele>4.892388</ele>
        <time>2022-08-05T13:07:19.000Z</time>
      </trkpt>
      <trkpt lat="49.26494" lon="-0.2379">
        <ele>4.877026</ele>
        <time>2022-08-05T13:07:20.000Z</time>
      </trkpt>
      <trkpt lat="49.26493" lon="-0.23783">
        <ele>4.861982</ele>
        <time>2022-08-05T13:07:21.000Z</time>
      </trkpt>
      <trkpt lat="49.26492" lon="-0.23775">
        <ele>4.847317</ele>
        <time>2022-08-05T13:07:22.000Z</time>
      </trkpt>
      <trkpt lat="49.26491" lon="-0.23768">
        <ele>4.833425</ele>
        <time>2022-08-05T13:07:23.000Z</time>
      </trkpt>
      <trkpt lat="49.26491" lon="-0.23761">
        <ele>4.81934</ele>
        <time>2022-08-05T13:07:24.000Z</time>
      </trkpt>
      <trkpt lat="49.2649" lon="-0.23754">
        <ele>4.806003</ele>
        <time>2022-08-05T13:07:25.000Z</time>
      </trkpt>
      <trkpt lat="49.26489" lon="-0.23748">
        <ele>4.793045</ele>
        <time>2022-08-05T13:07:26.000Z</time>
      </trkpt>
      <trkpt lat="49.26488" lon="-0.23742">
        <ele>4.780909</ele>
        <time>2022-08-05T13:07:27.000Z</time>
      </trkpt>
      <trkpt lat="49.26487" lon="-0.23736">
        <ele>4.769812</ele>
        <time>2022-08-05T13:07:28.000Z</time>
      </trkpt>
      <trkpt lat="49.26487" lon="-0.2373">
        <ele>4.758557</ele>
        <time>2022-08-05T13:07:29.000Z</time>
      </trkpt>
      <trkpt lat="49.26486" lon="-0.23725">
        <ele>4.747554</ele>
        <time>2022-08-05T13:07:30.000Z</time>
      </trkpt>
      <trkpt lat="49.26485" lon="-0.23719">
        <ele>4.736475</ele>
        <time>2022-08-05T13:07:31.000Z</time>
      </trkpt>
      <trkpt lat="49.26484" lon="-0.23714">
        <ele>4.725209</ele>
        <time>2022-08-05T13:07:32.000Z</time>
      </trkpt>
      <trkpt lat="49.26483" lon="-0.23708">
        <ele>4.71343</ele>
        <time>2022-08-05T13:07:33.000Z</time>
      </trkpt>
      <trkpt lat="49.26482" lon="-0.23702">
        <ele>4.701037</ele>
        <time>2022-08-05T13:07:34.000Z</time>
      </trkpt>
      <trkpt lat="49.26482" lon="-0.23695">
        <ele>4.688683</ele>
        <time>2022-08-05T13:07:35.000Z</time>
      </trkpt>
      <trkpt lat="49.26481" lon="-0.23689">
        <ele>4.675724</ele>
        <time>2022-08-05T13:07:36.000Z</time>
      </trkpt>
      <trkpt lat="49.2648" lon="-0.23682">
        <ele>4.662601</ele>
        <time>2022-08-05T13:07:37.000Z</time>
      </trkpt>
      <trkpt lat="49.26479" lon="-0.23675">
        <ele>4.649286</ele>
        <time>2022-08-05T13:07:38.000Z</time>
      </trkpt>
      <trkpt lat="49.26479" lon="-0.23669">
        <ele>4.636119</ele>
        <time>2022-08-05T13:07:39.000Z</time>
      </trkpt>
      <trkpt lat="49.26478" lon="-0.23662">
        <ele>4.622845</ele>
        <time>2022-08-05T13:07:40.000Z</time>
      </trkpt>
      <trkpt lat="49.26477" lon="-0.23655">
        <ele>4.60987</ele>
        <time>2022-08-05T13:07:41.000Z</time>
      </trkpt>
      <trkpt lat="49.26477" lon="-0.23649">
        <ele>4.596838</ele>
        <time>2022-08-05T13:07:42.000Z</time>
      </trkpt>
      <trkpt lat="49.26476" lon="-0.23642">
        <ele>4.582933</ele>
        <time>2022-08-05T13:07:43.000Z</time>
      </trkpt>
      <trkpt lat="49.26476" lon="-0.23635">
        <ele>4.569708</ele>
        <time>2022-08-05T13:07:44.000Z</time>
      </trkpt>
      <trkpt lat="49.26475" lon="-0.23628">
        <ele>4.556289</ele>
        <time>2022-08-05T13:07:45.000Z</time>
      </trkpt>
      <trkpt lat="49.26475" lon="-0.23621">
        <ele>4.543094</ele>
        <time>2022-08-05T13:07:46.000Z</time>
      </trkpt>
      <trkpt lat="49.26475" lon="-0.23613">
        <ele>4.526988</ele>
        <time>2022-08-05T13:07:47.000Z</time>
      </trkpt>
      <trkpt lat="49.26475" lon="-0.23606">
        <ele>4.513404</ele>
        <time>2022-08-05T13:07:48.000Z</time>
      </trkpt>
      <trkpt lat="49.26475" lon="-0.23599">
        <ele>4.500403</ele>
        <time>2022-08-05T13:07:49.000Z</time>
      </trkpt>
      <trkpt lat="49.26475" lon="-0.23594">
        <ele>4.490273</ele>
        <time>2022-08-05T13:07:50.000Z</time>
      </trkpt>
      <trkpt lat="49.26475" lon="-0.23588">
        <ele>4.478436</ele>
        <time>2022-08-05T13:07:51.000Z</time>
      </trkpt>
      <trkpt lat="49.26474" lon="-0.23582">
        <ele>4.46642</ele>
        <time>2022-08-05T13:07:52.000Z</time>
      </trkpt>
      <trkpt lat="49.26474" lon="-0.23576">
        <ele>4.454971</ele>
        <time>2022-08-05T13:07:53.000Z</time>
      </trkpt>
      <trkpt lat="49.26474" lon="-0.2357">
        <ele>4.443294</ele>
        <time>2022-08-05T13:07:54.000Z</time>
      </trkpt>
      <trkpt lat="49.26473" lon="-0.23564">
        <ele>4.435687</ele>
        <time>2022-08-05T13:07:55.000Z</time>
      </trkpt>
      <trkpt lat="49.26472" lon="-0.23558">
        <ele>4.434043</ele>
        <time>2022-08-05T13:07:56.000Z</time>
      </trkpt>
      <trkpt lat="49.26472" lon="-0.23551">
        <ele>4.432026</ele>
        <time>2022-08-05T13:07:57.000Z</time>
      </trkpt>
      <trkpt lat="49.26471" lon="-0.23545">
        <ele>4.430377</ele>
        <time>2022-08-05T13:07:58.000Z</time>
      </trkpt>
      <trkpt lat="49.26471" lon="-0.2354">
        <ele>4.429024</ele>
        <time>2022-08-05T13:07:59.000Z</time>
      </trkpt>
      <trkpt lat="49.2647" lon="-0.23533">
        <ele>4.426988</ele>
        <time>2022-08-05T13:08:00.000Z</time>
      </trkpt>
      <trkpt lat="49.26469" lon="-0.23526">
        <ele>4.425128</ele>
        <time>2022-08-05T13:08:01.000Z</time>
      </trkpt>
      <trkpt lat="49.26469" lon="-0.23521">
        <ele>4.423654</ele>
        <time>2022-08-05T13:08:02.000Z</time>
      </trkpt>
      <trkpt lat="49.26468" lon="-0.23514">
        <ele>4.421774</ele>
        <time>2022-08-05T13:08:03.000Z</time>
      </trkpt>
      <trkpt lat="49.26468" lon="-0.23507">
        <ele>4.419968</ele>
        <time>2022-08-05T13:08:04.000Z</time>
      </trkpt>
      <trkpt lat="49.26467" lon="-0.23501">
        <ele>4.418169</ele>
        <time>2022-08-05T13:08:05.000Z</time>
      </trkpt>
      <trkpt lat="49.26466" lon="-0.23494">
        <ele>4.416339</ele>
        <time>2022-08-05T13:08:06.000Z</time>
      </trkpt>
      <trkpt lat="49.26466" lon="-0.23488">
        <ele>4.414498</ele>
        <time>2022-08-05T13:08:07.000Z</time>
      </trkpt>
      <trkpt lat="49.26465" lon="-0.23481">
        <ele>4.412754</ele>
        <time>2022-08-05T13:08:08.000Z</time>
      </trkpt>
      <trkpt lat="49.26464" lon="-0.23475">
        <ele>4.410923</ele>
        <time>2022-08-05T13:08:09.000Z</time>
      </trkpt>
      <trkpt lat="49.26463" lon="-0.23468">
        <ele>4.409124</ele>
        <time>2022-08-05T13:08:10.000Z</time>
      </trkpt>
      <trkpt lat="49.26462" lon="-0.23462">
        <ele>4.407294</ele>
        <time>2022-08-05T13:08:11.000Z</time>
      </trkpt>
      <trkpt lat="49.26462" lon="-0.23455">
        <ele>4.405522</ele>
        <time>2022-08-05T13:08:12.000Z</time>
      </trkpt>
      <trkpt lat="49.26461" lon="-0.23449">
        <ele>4.403825</ele>
        <time>2022-08-05T13:08:13.000Z</time>
      </trkpt>
      <trkpt lat="49.2646" lon="-0.23443">
        <ele>4.402138</ele>
        <time>2022-08-05T13:08:14.000Z</time>
      </trkpt>
      <trkpt lat="49.2646" lon="-0.23437">
        <ele>4.400494</ele>
        <time>2022-08-05T13:08:15.000Z</time>
      </trkpt>
      <trkpt lat="49.26459" lon="-0.23432">
        <ele>4.398954</ele>
        <time>2022-08-05T13:08:16.000Z</time>
      </trkpt>
      <trkpt lat="49.26458" lon="-0.23426">
        <ele>4.397284</ele>
        <time>2022-08-05T13:08:17.000Z</time>
      </trkpt>
      <trkpt lat="49.26458" lon="-0.2342">
        <ele>4.395689</ele>
        <time>2022-08-05T13:08:18.000Z</time>
      </trkpt>
      <trkpt lat="49.26457" lon="-0.23414">
        <ele>4.394082</ele>
        <time>2022-08-05T13:08:19.000Z</time>
      </trkpt>
      <trkpt lat="49.26456" lon="-0.23408">
        <ele>4.392385</ele>
        <time>2022-08-05T13:08:20.000Z</time>
      </trkpt>
      <trkpt lat="49.26455" lon="-0.23402">
        <ele>4.390721</ele>
        <time>2022-08-05T13:08:21.000Z</time>
      </trkpt>
      <trkpt lat="49.26454" lon="-0.23396">
        <ele>4.389024</ele>
        <time>2022-08-05T13:08:22.000Z</time>
      </trkpt>
      <trkpt lat="49.26454" lon="-0.2339">
        <ele>4.387279</ele>
        <time>2022-08-05T13:08:23.000Z</time>
      </trkpt>
      <trkpt lat="49.26453" lon="-0.23384">
        <ele>4.385555</ele>
        <time>2022-08-05T13:08:24.000Z</time>
      </trkpt>
      <trkpt lat="49.26452" lon="-0.23378">
        <ele>4.383868</ele>
        <time>2022-08-05T13:08:25.000Z</time>
      </trkpt>
      <trkpt lat="49.26452" lon="-0.23371">
        <ele>4.382062</ele>
        <time>2022-08-05T13:08:26.000Z</time>
      </trkpt>
      <trkpt lat="49.2645" lon="-0.23364">
        <ele>4.379856</ele>
        <time>2022-08-05T13:08:27.000Z</time>
      </trkpt>
      <trkpt lat="49.2645" lon="-0.23358">
        <ele>4.378431</ele>
        <time>2022-08-05T13:08:28.000Z</time>
      </trkpt>
      <trkpt lat="49.2645" lon="-0.23352">
        <ele>4.376632</ele>
        <time>2022-08-05T13:08:29.000Z</time>
      </trkpt>
      <trkpt lat="49.26449" lon="-0.23345">
        <ele>4.374846</ele>
        <time>2022-08-05T13:08:30.000Z</time>
      </trkpt>
      <trkpt lat="49.26449" lon="-0.23339">
        <ele>4.37306</ele>
        <time>2022-08-05T13:08:31.000Z</time>
      </trkpt>
      <trkpt lat="49.26449" lon="-0.23333">
        <ele>4.371334</ele>
        <time>2022-08-05T13:08:32.000Z</time>
      </trkpt>
      <trkpt lat="49.26448" lon="-0.23327">
        <ele>4.369663</ele>
        <time>2022-08-05T13:08:33.000Z</time>
      </trkpt>
      <trkpt lat="49.26448" lon="-0.23321">
        <ele>4.368019</ele>
        <time>2022-08-05T13:08:34.000Z</time>
      </trkpt>
      <trkpt lat="49.26448" lon="-0.23314">
        <ele>4.366156</ele>
        <time>2022-08-05T13:08:35.000Z</time>
      </trkpt>
      <trkpt lat="49.26448" lon="-0.23308">
        <ele>4.364648</ele>
        <time>2022-08-05T13:08:36.000Z</time>
      </trkpt>
      <trkpt lat="49.26448" lon="-0.23304">
        <ele>4.363497</ele>
        <time>2022-08-05T13:08:37.000Z</time>
      </trkpt>
      <trkpt lat="49.26449" lon="-0.23299">
        <ele>4.362096</ele>
        <time>2022-08-05T13:08:38.000Z</time>
      </trkpt>
      <trkpt lat="49.26449" lon="-0.23295">
        <ele>4.360863</ele>
        <time>2022-08-05T13:08:39.000Z</time>
      </trkpt>
      <trkpt lat="49.26449" lon="-0.2329">
        <ele>4.371486</ele>
        <time>2022-08-05T13:08:40.000Z</time>
      </trkpt>
      <trkpt lat="49.26449" lon="-0.23286">
        <ele>4.382537</ele>
        <time>2022-08-05T13:08:41.000Z</time>
      </trkpt>
      <trkpt lat="49.26449" lon="-0.23281">
        <ele>4.393157</ele>
        <time>2022-08-05T13:08:42.000Z</time>
      </trkpt>
      <trkpt lat="49.2645" lon="-0.23277">
        <ele>4.405185</ele>
        <time>2022-08-05T13:08:43.000Z</time>
      </trkpt>
      <trkpt lat="49.26452" lon="-0.23272">
        <ele>4.418403</ele>
        <time>2022-08-05T13:08:44.000Z</time>
      </trkpt>
      <trkpt lat="49.26453" lon="-0.23266">
        <ele>4.43432</ele>
        <time>2022-08-05T13:08:45.000Z</time>
      </trkpt>
      <trkpt lat="49.26453" lon="-0.23261">
        <ele>4.444696</ele>
        <time>2022-08-05T13:08:46.000Z</time>
      </trkpt>
      <trkpt lat="49.26454" lon="-0.23256">
        <ele>4.457975</ele>
        <time>2022-08-05T13:08:47.000Z</time>
      </trkpt>
      <trkpt lat="49.26454" lon="-0.23251">
        <ele>4.470306</ele>
        <time>2022-08-05T13:08:48.000Z</time>
      </trkpt>
      <trkpt lat="49.26455" lon="-0.23246">
        <ele>4.483274</ele>
        <time>2022-08-05T13:08:49.000Z</time>
      </trkpt>
      <trkpt lat="49.26456" lon="-0.23241">
        <ele>4.495352</ele>
        <time>2022-08-05T13:08:50.000Z</time>
      </trkpt>
      <trkpt lat="49.26456" lon="-0.23235">
        <ele>4.509395</ele>
        <time>2022-08-05T13:08:51.000Z</time>
      </trkpt>
      <trkpt lat="49.26457" lon="-0.23231">
        <ele>4.519914</ele>
        <time>2022-08-05T13:08:52.000Z</time>
      </trkpt>
      <trkpt lat="49.26457" lon="-0.23226">
        <ele>4.532193</ele>
        <time>2022-08-05T13:08:53.000Z</time>
      </trkpt>
      <trkpt lat="49.26457" lon="-0.23222">
        <ele>4.544034</ele>
        <time>2022-08-05T13:08:54.000Z</time>
      </trkpt>
      <trkpt lat="49.26457" lon="-0.23217">
        <ele>4.555822</ele>
        <time>2022-08-05T13:08:55.000Z</time>
      </trkpt>
      <trkpt lat="49.26458" lon="-0.23212">
        <ele>4.568152</ele>
        <time>2022-08-05T13:08:56.000Z</time>
      </trkpt>
      <trkpt lat="49.26458" lon="-0.23206">
        <ele>4.58342</ele>
        <time>2022-08-05T13:08:57.000Z</time>
      </trkpt>
      <trkpt lat="49.26458" lon="-0.23201">
        <ele>4.59575</ele>
        <time>2022-08-05T13:08:58.000Z</time>
      </trkpt>
      <trkpt lat="49.26458" lon="-0.23197">
        <ele>4.605082</ele>
        <time>2022-08-05T13:08:59.000Z</time>
      </trkpt>
      <trkpt lat="49.26459" lon="-0.23192">
        <ele>4.6174</ele>
        <time>2022-08-05T13:09:00.000Z</time>
      </trkpt>
      <trkpt lat="49.26459" lon="-0.23187">
        <ele>4.628697</ele>
        <time>2022-08-05T13:09:01.000Z</time>
      </trkpt>
      <trkpt lat="49.26459" lon="-0.23182">
        <ele>4.642006</ele>
        <time>2022-08-05T13:09:02.000Z</time>
      </trkpt>
      <trkpt lat="49.2646" lon="-0.23178">
        <ele>4.652137</ele>
        <time>2022-08-05T13:09:03.000Z</time>
      </trkpt>
      <trkpt lat="49.2646" lon="-0.23174">
        <ele>4.660487</ele>
        <time>2022-08-05T13:09:04.000Z</time>
      </trkpt>
      <trkpt lat="49.2646" lon="-0.2317">
        <ele>4.672086</ele>
        <time>2022-08-05T13:09:05.000Z</time>
      </trkpt>
      <trkpt lat="49.2646" lon="-0.23165">
        <ele>4.684119</ele>
        <time>2022-08-05T13:09:06.000Z</time>
      </trkpt>
      <trkpt lat="49.2646" lon="-0.2316">
        <ele>4.696918</ele>
        <time>2022-08-05T13:09:07.000Z</time>
      </trkpt>
      <trkpt lat="49.2646" lon="-0.23155">
        <ele>4.709197</ele>
        <time>2022-08-05T13:09:08.000Z</time>
      </trkpt>
      <trkpt lat="49.2646" lon="-0.2315">
        <ele>4.72123</ele>
        <time>2022-08-05T13:09:09.000Z</time>
      </trkpt>
      <trkpt lat="49.2646" lon="-0.23144">
        <ele>4.734982</ele>
        <time>2022-08-05T13:09:10.000Z</time>
      </trkpt>
      <trkpt lat="49.2646" lon="-0.23141">
        <ele>4.744138</ele>
        <time>2022-08-05T13:09:11.000Z</time>
      </trkpt>
      <trkpt lat="49.2646" lon="-0.23136">
        <ele>4.755778</ele>
        <time>2022-08-05T13:09:12.000Z</time>
      </trkpt>
      <trkpt lat="49.26461" lon="-0.23131">
        <ele>4.767943</ele>
        <time>2022-08-05T13:09:13.000Z</time>
      </trkpt>
      <trkpt lat="49.26463" lon="-0.23127">
        <ele>4.779886</ele>
        <time>2022-08-05T13:09:14.000Z</time>
      </trkpt>
      <trkpt lat="49.26465" lon="-0.23124">
        <ele>4.792084</ele>
        <time>2022-08-05T13:09:15.000Z</time>
      </trkpt>
      <trkpt lat="49.26469" lon="-0.2312">
        <ele>4.808085</ele>
        <time>2022-08-05T13:09:16.000Z</time>
      </trkpt>
      <trkpt lat="49.26471" lon="-0.23118">
        <ele>4.819383</ele>
        <time>2022-08-05T13:09:17.000Z</time>
      </trkpt>
      <trkpt lat="49.26474" lon="-0.23114">
        <ele>4.8318</ele>
        <time>2022-08-05T13:09:18.000Z</time>
      </trkpt>
      <trkpt lat="49.26477" lon="-0.2311">
        <ele>4.847158</ele>
        <time>2022-08-05T13:09:19.000Z</time>
      </trkpt>
      <trkpt lat="49.26478" lon="-0.23107">
        <ele>4.85543</ele>
        <time>2022-08-05T13:09:20.000Z</time>
      </trkpt>
      <trkpt lat="49.26479" lon="-0.23103">
        <ele>4.866053</ele>
        <time>2022-08-05T13:09:21.000Z</time>
      </trkpt>
      <trkpt lat="49.26479" lon="-0.23098">
        <ele>4.877175</ele>
        <time>2022-08-05T13:09:22.000Z</time>
      </trkpt>
      <trkpt lat="49.2648" lon="-0.23094">
        <ele>4.887973</ele>
        <time>2022-08-05T13:09:23.000Z</time>
      </trkpt>
      <trkpt lat="49.26481" lon="-0.23089">
        <ele>4.899734</ele>
        <time>2022-08-05T13:09:24.000Z</time>
      </trkpt>
      <trkpt lat="49.26481" lon="-0.23085">
        <ele>4.911522</ele>
        <time>2022-08-05T13:09:25.000Z</time>
      </trkpt>
      <trkpt lat="49.26481" lon="-0.2308">
        <ele>4.9238</ele>
        <time>2022-08-05T13:09:26.000Z</time>
      </trkpt>
      <trkpt lat="49.2648" lon="-0.23075">
        <ele>4.936537</ele>
        <time>2022-08-05T13:09:27.000Z</time>
      </trkpt>
      <trkpt lat="49.26479" lon="-0.23069">
        <ele>4.94985</ele>
        <time>2022-08-05T13:09:28.000Z</time>
      </trkpt>
      <trkpt lat="49.26477" lon="-0.23065">
        <ele>4.963012</ele>
        <time>2022-08-05T13:09:29.000Z</time>
      </trkpt>
      <trkpt lat="49.26475" lon="-0.23061">
        <ele>4.974534</ele>
        <time>2022-08-05T13:09:30.000Z</time>
      </trkpt>
      <trkpt lat="49.26473" lon="-0.23057">
        <ele>4.986683</ele>
        <time>2022-08-05T13:09:31.000Z</time>
      </trkpt>
      <trkpt lat="49.26472" lon="-0.23053">
        <ele>4.998839</ele>
        <time>2022-08-05T13:09:32.000Z</time>
      </trkpt>
      <trkpt lat="49.26471" lon="-0.23048">
        <ele>5.010979</ele>
        <time>2022-08-05T13:09:33.000Z</time>
      </trkpt>
      <trkpt lat="49.2647" lon="-0.23043">
        <ele>5.023705</ele>
        <time>2022-08-05T13:09:34.000Z</time>
      </trkpt>
      <trkpt lat="49.2647" lon="-0.23037">
        <ele>5.036966</ele>
        <time>2022-08-05T13:09:35.000Z</time>
      </trkpt>
      <trkpt lat="49.2647" lon="-0.23032">
        <ele>5.021967</ele>
        <time>2022-08-05T13:09:36.000Z</time>
      </trkpt>
      <trkpt lat="49.26471" lon="-0.23027">
        <ele>5.004461</ele>
        <time>2022-08-05T13:09:37.000Z</time>
      </trkpt>
      <trkpt lat="49.26471" lon="-0.23021">
        <ele>4.987822</ele>
        <time>2022-08-05T13:09:38.000Z</time>
      </trkpt>
      <trkpt lat="49.26471" lon="-0.23015">
        <ele>4.967417</ele>
        <time>2022-08-05T13:09:39.000Z</time>
      </trkpt>
      <trkpt lat="49.2647" lon="-0.2301">
        <ele>4.953305</ele>
        <time>2022-08-05T13:09:40.000Z</time>
      </trkpt>
      <trkpt lat="49.26469" lon="-0.23004">
        <ele>4.93417</ele>
        <time>2022-08-05T13:09:41.000Z</time>
      </trkpt>
      <trkpt lat="49.26469" lon="-0.23">
        <ele>4.918827</ele>
        <time>2022-08-05T13:09:42.000Z</time>
      </trkpt>
      <trkpt lat="49.26468" lon="-0.22996">
        <ele>4.904799</ele>
        <time>2022-08-05T13:09:43.000Z</time>
      </trkpt>
      <trkpt lat="49.26467" lon="-0.22991">
        <ele>4.889456</ele>
        <time>2022-08-05T13:09:44.000Z</time>
      </trkpt>
      <trkpt lat="49.26467" lon="-0.22986">
        <ele>4.873131</ele>
        <time>2022-08-05T13:09:45.000Z</time>
      </trkpt>
      <trkpt lat="49.26467" lon="-0.2298">
        <ele>4.856492</ele>
        <time>2022-08-05T13:09:46.000Z</time>
      </trkpt>
      <trkpt lat="49.26467" lon="-0.22975">
        <ele>4.838598</ele>
        <time>2022-08-05T13:09:47.000Z</time>
      </trkpt>
      <trkpt lat="49.26467" lon="-0.22968">
        <ele>4.81908</ele>
        <time>2022-08-05T13:09:48.000Z</time>
      </trkpt>
      <trkpt lat="49.26468" lon="-0.22962">
        <ele>4.798624</ele>
        <time>2022-08-05T13:09:49.000Z</time>
      </trkpt>
      <trkpt lat="49.26468" lon="-0.22955">
        <ele>4.777276</ele>
        <time>2022-08-05T13:09:50.000Z</time>
      </trkpt>
      <trkpt lat="49.26468" lon="-0.22948">
        <ele>4.754626</ele>
        <time>2022-08-05T13:09:51.000Z</time>
      </trkpt>
      <trkpt lat="49.26469" lon="-0.22941">
        <ele>4.731824</ele>
        <time>2022-08-05T13:09:52.000Z</time>
      </trkpt>
      <trkpt lat="49.26469" lon="-0.22933">
        <ele>4.708592</ele>
        <time>2022-08-05T13:09:53.000Z</time>
      </trkpt>
      <trkpt lat="49.26469" lon="-0.22926">
        <ele>4.68563</ele>
        <time>2022-08-05T13:09:54.000Z</time>
      </trkpt>
      <trkpt lat="49.26469" lon="-0.22919">
        <ele>4.66204</ele>
        <time>2022-08-05T13:09:55.000Z</time>
      </trkpt>
      <trkpt lat="49.2647" lon="-0.22911">
        <ele>4.639042</ele>
        <time>2022-08-05T13:09:56.000Z</time>
      </trkpt>
      <trkpt lat="49.2647" lon="-0.22904">
        <ele>4.615453</ele>
        <time>2022-08-05T13:09:57.000Z</time>
      </trkpt>
      <trkpt lat="49.26471" lon="-0.22897">
        <ele>4.593288</ele>
        <time>2022-08-05T13:09:58.000Z</time>
      </trkpt>
      <trkpt lat="49.26471" lon="-0.2289">
        <ele>4.571627</ele>
        <time>2022-08-05T13:09:59.000Z</time>
      </trkpt>
      <trkpt lat="49.26471" lon="-0.22883">
        <ele>4.550015</ele>
        <time>2022-08-05T13:10:00.000Z</time>
      </trkpt>
      <trkpt lat="49.26472" lon="-0.22875">
        <ele>4.524232</ele>
        <time>2022-08-05T13:10:01.000Z</time>
      </trkpt>
      <trkpt lat="49.26472" lon="-0.22869">
        <ele>4.506905</ele>
        <time>2022-08-05T13:10:02.000Z</time>
      </trkpt>
      <trkpt lat="49.26472" lon="-0.22862">
        <ele>4.484882</ele>
        <time>2022-08-05T13:10:03.000Z</time>
      </trkpt>
      <trkpt lat="49.26473" lon="-0.22855">
        <ele>4.46234</ele>
        <time>2022-08-05T13:10:04.000Z</time>
      </trkpt>
      <trkpt lat="49.26474" lon="-0.22848">
        <ele>4.439553</ele>
        <time>2022-08-05T13:10:05.000Z</time>
      </trkpt>
      <trkpt lat="49.26474" lon="-0.22841">
        <ele>4.416766</ele>
        <time>2022-08-05T13:10:06.000Z</time>
      </trkpt>
      <trkpt lat="49.26475" lon="-0.22834">
        <ele>4.39427</ele>
        <time>2022-08-05T13:10:07.000Z</time>
      </trkpt>
      <trkpt lat="49.26476" lon="-0.22827">
        <ele>4.372106</ele>
        <time>2022-08-05T13:10:08.000Z</time>
      </trkpt>
      <trkpt lat="49.26477" lon="-0.2282">
        <ele>4.350835</ele>
        <time>2022-08-05T13:10:09.000Z</time>
      </trkpt>
      <trkpt lat="49.26477" lon="-0.22814">
        <ele>4.330226</ele>
        <time>2022-08-05T13:10:10.000Z</time>
      </trkpt>
      <trkpt lat="49.26478" lon="-0.22807">
        <ele>4.309544</ele>
        <time>2022-08-05T13:10:11.000Z</time>
      </trkpt>
      <trkpt lat="49.26479" lon="-0.22801">
        <ele>4.288501</ele>
        <time>2022-08-05T13:10:12.000Z</time>
      </trkpt>
      <trkpt lat="49.26481" lon="-0.22794">
        <ele>4.267295</ele>
        <time>2022-08-05T13:10:13.000Z</time>
      </trkpt>
      <trkpt lat="49.26481" lon="-0.22788">
        <ele>4.247232</ele>
        <time>2022-08-05T13:10:14.000Z</time>
      </trkpt>
      <trkpt lat="49.26482" lon="-0.22781">
        <ele>4.225757</ele>
        <time>2022-08-05T13:10:15.000Z</time>
      </trkpt>
      <trkpt lat="49.26483" lon="-0.22775">
        <ele>4.204792</ele>
        <time>2022-08-05T13:10:16.000Z</time>
      </trkpt>
      <trkpt lat="49.26484" lon="-0.22768">
        <ele>4.183521</ele>
        <time>2022-08-05T13:10:17.000Z</time>
      </trkpt>
      <trkpt lat="49.26485" lon="-0.22762">
        <ele>4.186166</ele>
        <time>2022-08-05T13:10:18.000Z</time>
      </trkpt>
      <trkpt lat="49.26487" lon="-0.22755">
        <ele>4.213676</ele>
        <time>2022-08-05T13:10:19.000Z</time>
      </trkpt>
      <trkpt lat="49.26488" lon="-0.22748">
        <ele>4.241488</ele>
        <time>2022-08-05T13:10:20.000Z</time>
      </trkpt>
      <trkpt lat="49.26489" lon="-0.22742">
        <ele>4.269386</ele>
        <time>2022-08-05T13:10:21.000Z</time>
      </trkpt>
      <trkpt lat="49.2649" lon="-0.22735">
        <ele>4.296274</ele>
        <time>2022-08-05T13:10:22.000Z</time>
      </trkpt>
      <trkpt lat="49.26491" lon="-0.22729">
        <ele>4.322904</ele>
        <time>2022-08-05T13:10:23.000Z</time>
      </trkpt>
      <trkpt lat="49.26492" lon="-0.22722">
        <ele>4.349793</ele>
        <time>2022-08-05T13:10:24.000Z</time>
      </trkpt>
      <trkpt lat="49.26493" lon="-0.22716">
        <ele>4.378283</ele>
        <time>2022-08-05T13:10:25.000Z</time>
      </trkpt>
      <trkpt lat="49.26495" lon="-0.22708">
        <ele>4.412142</ele>
        <time>2022-08-05T13:10:26.000Z</time>
      </trkpt>
      <trkpt lat="49.26496" lon="-0.22702">
        <ele>4.434818</ele>
        <time>2022-08-05T13:10:27.000Z</time>
      </trkpt>
      <trkpt lat="49.26497" lon="-0.22696">
        <ele>4.463103</ele>
        <time>2022-08-05T13:10:28.000Z</time>
      </trkpt>
      <trkpt lat="49.26498" lon="-0.22688">
        <ele>4.495156</ele>
        <time>2022-08-05T13:10:29.000Z</time>
      </trkpt>
      <trkpt lat="49.26499" lon="-0.22682">
        <ele>4.520355</ele>
        <time>2022-08-05T13:10:30.000Z</time>
      </trkpt>
      <trkpt lat="49.265" lon="-0.22678">
        <ele>4.538148</ele>
        <time>2022-08-05T13:10:31.000Z</time>
      </trkpt>
      <trkpt lat="49.26501" lon="-0.22672">
        <ele>4.560474</ele>
        <time>2022-08-05T13:10:32.000Z</time>
      </trkpt>
      <trkpt lat="49.26502" lon="-0.22667">
        <ele>4.581249</ele>
        <time>2022-08-05T13:10:33.000Z</time>
      </trkpt>
      <trkpt lat="49.26502" lon="-0.22662">
        <ele>4.601567</ele>
        <time>2022-08-05T13:10:34.000Z</time>
      </trkpt>
      <trkpt lat="49.26503" lon="-0.22657">
        <ele>4.622556</ele>
        <time>2022-08-05T13:10:35.000Z</time>
      </trkpt>
      <trkpt lat="49.26504" lon="-0.22652">
        <ele>4.643645</ele>
        <time>2022-08-05T13:10:36.000Z</time>
      </trkpt>
      <trkpt lat="49.26505" lon="-0.22647">
        <ele>4.664243</ele>
        <time>2022-08-05T13:10:37.000Z</time>
      </trkpt>
      <trkpt lat="49.26505" lon="-0.22642">
        <ele>4.686125</ele>
        <time>2022-08-05T13:10:38.000Z</time>
      </trkpt>
      <trkpt lat="49.26506" lon="-0.22637">
        <ele>4.707652</ele>
        <time>2022-08-05T13:10:39.000Z</time>
      </trkpt>
      <trkpt lat="49.26506" lon="-0.22631">
        <ele>4.729986</ele>
        <time>2022-08-05T13:10:40.000Z</time>
      </trkpt>
      <trkpt lat="49.26507" lon="-0.22626">
        <ele>4.753657</ele>
        <time>2022-08-05T13:10:41.000Z</time>
      </trkpt>
      <trkpt lat="49.26508" lon="-0.2262">
        <ele>4.777021</ele>
        <time>2022-08-05T13:10:42.000Z</time>
      </trkpt>
      <trkpt lat="49.26509" lon="-0.22614">
        <ele>4.800491</ele>
        <time>2022-08-05T13:10:43.000Z</time>
      </trkpt>
      <trkpt lat="49.26509" lon="-0.22609">
        <ele>4.824254</ele>
        <time>2022-08-05T13:10:44.000Z</time>
      </trkpt>
      <trkpt lat="49.2651" lon="-0.22603">
        <ele>4.847724</ele>
        <time>2022-08-05T13:10:45.000Z</time>
      </trkpt>
      <trkpt lat="49.2651" lon="-0.22597">
        <ele>4.870058</ele>
        <time>2022-08-05T13:10:46.000Z</time>
      </trkpt>
      <trkpt lat="49.26511" lon="-0.22592">
        <ele>4.893003</ele>
        <time>2022-08-05T13:10:47.000Z</time>
      </trkpt>
      <trkpt lat="49.26511" lon="-0.22586">
        <ele>4.915799</ele>
        <time>2022-08-05T13:10:48.000Z</time>
      </trkpt>
      <trkpt lat="49.26512" lon="-0.22581">
        <ele>4.93894</ele>
        <time>2022-08-05T13:10:49.000Z</time>
      </trkpt>
      <trkpt lat="49.26512" lon="-0.22575">
        <ele>4.96208</ele>
        <time>2022-08-05T13:10:50.000Z</time>
      </trkpt>
      <trkpt lat="49.26513" lon="-0.22569">
        <ele>4.985574</ele>
        <time>2022-08-05T13:10:51.000Z</time>
      </trkpt>
      <trkpt lat="49.26513" lon="-0.22564">
        <ele>5.008714</ele>
        <time>2022-08-05T13:10:52.000Z</time>
      </trkpt>
      <trkpt lat="49.26514" lon="-0.22558">
        <ele>5.031279</ele>
        <time>2022-08-05T13:10:53.000Z</time>
      </trkpt>
      <trkpt lat="49.26515" lon="-0.22552">
        <ele>5.055163</ele>
        <time>2022-08-05T13:10:54.000Z</time>
      </trkpt>
      <trkpt lat="49.26515" lon="-0.22547">
        <ele>5.0779</ele>
        <time>2022-08-05T13:10:55.000Z</time>
      </trkpt>
      <trkpt lat="49.26516" lon="-0.22541">
        <ele>5.101847</ele>
        <time>2022-08-05T13:10:56.000Z</time>
      </trkpt>
      <trkpt lat="49.26516" lon="-0.22535">
        <ele>5.125391</ele>
        <time>2022-08-05T13:10:57.000Z</time>
      </trkpt>
      <trkpt lat="49.26517" lon="-0.22529">
        <ele>5.149666</ele>
        <time>2022-08-05T13:10:58.000Z</time>
      </trkpt>
      <trkpt lat="49.26517" lon="-0.22523">
        <ele>5.173829</ele>
        <time>2022-08-05T13:10:59.000Z</time>
      </trkpt>
      <trkpt lat="49.26518" lon="-0.22518">
        <ele>5.196154</ele>
        <time>2022-08-05T13:11:00.000Z</time>
      </trkpt>
      <trkpt lat="49.26519" lon="-0.22513">
        <ele>5.216473</ele>
        <time>2022-08-05T13:11:01.000Z</time>
      </trkpt>
      <trkpt lat="49.26519" lon="-0.22508">
        <ele>5.23598</ele>
        <time>2022-08-05T13:11:02.000Z</time>
      </trkpt>
      <trkpt lat="49.2652" lon="-0.22504">
        <ele>5.252983</ele>
        <time>2022-08-05T13:11:03.000Z</time>
      </trkpt>
      <trkpt lat="49.26521" lon="-0.225">
        <ele>5.27222</ele>
        <time>2022-08-05T13:11:04.000Z</time>
      </trkpt>
      <trkpt lat="49.26522" lon="-0.22496">
        <ele>5.28828</ele>
        <time>2022-08-05T13:11:05.000Z</time>
      </trkpt>
      <trkpt lat="49.26522" lon="-0.22491">
        <ele>5.293185</ele>
        <time>2022-08-05T13:11:06.000Z</time>
      </trkpt>
      <trkpt lat="49.26522" lon="-0.22488">
        <ele>5.297364</ele>
        <time>2022-08-05T13:11:07.000Z</time>
      </trkpt>
      <trkpt lat="49.26522" lon="-0.22484">
        <ele>5.301891</ele>
        <time>2022-08-05T13:11:08.000Z</time>
      </trkpt>
      <trkpt lat="49.26523" lon="-0.2248">
        <ele>5.306811</ele>
        <time>2022-08-05T13:11:09.000Z</time>
      </trkpt>
      <trkpt lat="49.26523" lon="-0.22475">
        <ele>5.312028</ele>
        <time>2022-08-05T13:11:10.000Z</time>
      </trkpt>
      <trkpt lat="49.26524" lon="-0.2247">
        <ele>5.31793</ele>
        <time>2022-08-05T13:11:11.000Z</time>
      </trkpt>
      <trkpt lat="49.26525" lon="-0.22465">
        <ele>5.324111</ele>
        <time>2022-08-05T13:11:12.000Z</time>
      </trkpt>
      <trkpt lat="49.26525" lon="-0.2246">
        <ele>5.330241</ele>
        <time>2022-08-05T13:11:13.000Z</time>
      </trkpt>
      <trkpt lat="49.26526" lon="-0.22455">
        <ele>5.336646</ele>
        <time>2022-08-05T13:11:14.000Z</time>
      </trkpt>
      <trkpt lat="49.26527" lon="-0.2245">
        <ele>5.342938</ele>
        <time>2022-08-05T13:11:15.000Z</time>
      </trkpt>
      <trkpt lat="49.26529" lon="-0.22444">
        <ele>5.349612</ele>
        <time>2022-08-05T13:11:16.000Z</time>
      </trkpt>
      <trkpt lat="49.2653" lon="-0.22439">
        <ele>5.355969</ele>
        <time>2022-08-05T13:11:17.000Z</time>
      </trkpt>
      <trkpt lat="49.26531" lon="-0.22434">
        <ele>5.36276</ele>
        <time>2022-08-05T13:11:18.000Z</time>
      </trkpt>
      <trkpt lat="49.26533" lon="-0.22428">
        <ele>5.36955</ele>
        <time>2022-08-05T13:11:19.000Z</time>
      </trkpt>
      <trkpt lat="49.26533" lon="-0.22422">
        <ele>5.376357</ele>
        <time>2022-08-05T13:11:20.000Z</time>
      </trkpt>
      <trkpt lat="49.26535" lon="-0.22417">
        <ele>5.383348</ele>
        <time>2022-08-05T13:11:21.000Z</time>
      </trkpt>
      <trkpt lat="49.26537" lon="-0.22412">
        <ele>5.390126</ele>
        <time>2022-08-05T13:11:22.000Z</time>
      </trkpt>
      <trkpt lat="49.26538" lon="-0.22406">
        <ele>5.396905</ele>
        <time>2022-08-05T13:11:23.000Z</time>
      </trkpt>
      <trkpt lat="49.2654" lon="-0.22401">
        <ele>5.403695</ele>
        <time>2022-08-05T13:11:24.000Z</time>
      </trkpt>
      <trkpt lat="49.26541" lon="-0.22395">
        <ele>5.411112</ele>
        <time>2022-08-05T13:11:25.000Z</time>
      </trkpt>
      <trkpt lat="49.26543" lon="-0.22389">
        <ele>5.418743</ele>
        <time>2022-08-05T13:11:26.000Z</time>
      </trkpt>
      <trkpt lat="49.26544" lon="-0.22385">
        <ele>5.423716</ele>
        <time>2022-08-05T13:11:27.000Z</time>
      </trkpt>
      <trkpt lat="49.26545" lon="-0.2238">
        <ele>5.430389</ele>
        <time>2022-08-05T13:11:28.000Z</time>
      </trkpt>
      <trkpt lat="49.26547" lon="-0.22374">
        <ele>5.437168</ele>
        <time>2022-08-05T13:11:29.000Z</time>
      </trkpt>
      <trkpt lat="49.26549" lon="-0.22369">
        <ele>5.444392</ele>
        <time>2022-08-05T13:11:30.000Z</time>
      </trkpt>
      <trkpt lat="49.26551" lon="-0.22362">
        <ele>5.453085</ele>
        <time>2022-08-05T13:11:31.000Z</time>
      </trkpt>
      <trkpt lat="49.26553" lon="-0.22357">
        <ele>5.459602</ele>
        <time>2022-08-05T13:11:32.000Z</time>
      </trkpt>
      <trkpt lat="49.26555" lon="-0.22351">
        <ele>5.467944</ele>
        <time>2022-08-05T13:11:33.000Z</time>
      </trkpt>
      <trkpt lat="49.26556" lon="-0.22344">
        <ele>5.476008</ele>
        <time>2022-08-05T13:11:34.000Z</time>
      </trkpt>
      <trkpt lat="49.26558" lon="-0.22338">
        <ele>5.484276</ele>
        <time>2022-08-05T13:11:35.000Z</time>
      </trkpt>
      <trkpt lat="49.2656" lon="-0.22331">
        <ele>5.492886</ele>
        <time>2022-08-05T13:11:36.000Z</time>
      </trkpt>
      <trkpt lat="49.26561" lon="-0.22324">
        <ele>5.501495</ele>
        <time>2022-08-05T13:11:37.000Z</time>
      </trkpt>
      <trkpt lat="49.26564" lon="-0.22316">
        <ele>5.510724</ele>
        <time>2022-08-05T13:11:38.000Z</time>
      </trkpt>
      <trkpt lat="49.26566" lon="-0.22308">
        <ele>5.521653</ele>
        <time>2022-08-05T13:11:39.000Z</time>
      </trkpt>
      <trkpt lat="49.26569" lon="-0.22301">
        <ele>5.530881</ele>
        <time>2022-08-05T13:11:40.000Z</time>
      </trkpt>
      <trkpt lat="49.26571" lon="-0.22294">
        <ele>5.540231</ele>
        <time>2022-08-05T13:11:41.000Z</time>
      </trkpt>
      <trkpt lat="49.26574" lon="-0.22287">
        <ele>5.549467</ele>
        <time>2022-08-05T13:11:42.000Z</time>
      </trkpt>
      <trkpt lat="49.26576" lon="-0.22282">
        <ele>5.557154</ele>
        <time>2022-08-05T13:11:43.000Z</time>
      </trkpt>
      <trkpt lat="49.2658" lon="-0.22273">
        <ele>5.568245</ele>
        <time>2022-08-05T13:11:44.000Z</time>
      </trkpt>
      <trkpt lat="49.26583" lon="-0.22266">
        <ele>5.578261</ele>
        <time>2022-08-05T13:11:45.000Z</time>
      </trkpt>
      <trkpt lat="49.26585" lon="-0.2226">
        <ele>5.58731</ele>
        <time>2022-08-05T13:11:46.000Z</time>
      </trkpt>
      <trkpt lat="49.26589" lon="-0.22253">
        <ele>5.596948</ele>
        <time>2022-08-05T13:11:47.000Z</time>
      </trkpt>
      <trkpt lat="49.26591" lon="-0.22246">
        <ele>5.606088</ele>
        <time>2022-08-05T13:11:48.000Z</time>
      </trkpt>
      <trkpt lat="49.26595" lon="-0.2224">
        <ele>5.617955</ele>
        <time>2022-08-05T13:11:49.000Z</time>
      </trkpt>
      <trkpt lat="49.26597" lon="-0.22235">
        <ele>5.627044</ele>
        <time>2022-08-05T13:11:50.000Z</time>
      </trkpt>
      <trkpt lat="49.26601" lon="-0.22229">
        <ele>5.639722</ele>
        <time>2022-08-05T13:11:51.000Z</time>
      </trkpt>
      <trkpt lat="49.26605" lon="-0.22222">
        <ele>5.654498</ele>
        <time>2022-08-05T13:11:52.000Z</time>
      </trkpt>
      <trkpt lat="49.26607" lon="-0.22217">
        <ele>5.663969</ele>
        <time>2022-08-05T13:11:53.000Z</time>
      </trkpt>
      <trkpt lat="49.26611" lon="-0.22211">
        <ele>5.676188</ele>
        <time>2022-08-05T13:11:54.000Z</time>
      </trkpt>
      <trkpt lat="49.26614" lon="-0.22205">
        <ele>5.688634</ele>
        <time>2022-08-05T13:11:55.000Z</time>
      </trkpt>
      <trkpt lat="49.26618" lon="-0.22199">
        <ele>5.700517</ele>
        <time>2022-08-05T13:11:56.000Z</time>
      </trkpt>
      <trkpt lat="49.26623" lon="-0.22192">
        <ele>5.71542</ele>
        <time>2022-08-05T13:11:57.000Z</time>
      </trkpt>
      <trkpt lat="49.26627" lon="-0.22187">
        <ele>5.727349</ele>
        <time>2022-08-05T13:11:58.000Z</time>
      </trkpt>
      <trkpt lat="49.26631" lon="-0.22182">
        <ele>5.73954</ele>
        <time>2022-08-05T13:11:59.000Z</time>
      </trkpt>
      <trkpt lat="49.26634" lon="-0.22178">
        <ele>5.749148</ele>
        <time>2022-08-05T13:12:00.000Z</time>
      </trkpt>
      <trkpt lat="49.26638" lon="-0.22173">
        <ele>5.762731</ele>
        <time>2022-08-05T13:12:01.000Z</time>
      </trkpt>
      <trkpt lat="49.26643" lon="-0.22168">
        <ele>5.774483</ele>
        <time>2022-08-05T13:12:02.000Z</time>
      </trkpt>
      <trkpt lat="49.26647" lon="-0.22164">
        <ele>5.785958</ele>
        <time>2022-08-05T13:12:03.000Z</time>
      </trkpt>
      <trkpt lat="49.26651" lon="-0.2216">
        <ele>5.79771</ele>
        <time>2022-08-05T13:12:04.000Z</time>
      </trkpt>
      <trkpt lat="49.26654" lon="-0.22156">
        <ele>5.806769</ele>
        <time>2022-08-05T13:12:05.000Z</time>
      </trkpt>
      <trkpt lat="49.2666" lon="-0.22152">
        <ele>5.821294</ele>
        <time>2022-08-05T13:12:06.000Z</time>
      </trkpt>
      <trkpt lat="49.26663" lon="-0.22149">
        <ele>5.829867</ele>
        <time>2022-08-05T13:12:07.000Z</time>
      </trkpt>
      <trkpt lat="49.26667" lon="-0.22145">
        <ele>5.841139</ele>
        <time>2022-08-05T13:12:08.000Z</time>
      </trkpt>
      <trkpt lat="49.26671" lon="-0.22141">
        <ele>5.853477</ele>
        <time>2022-08-05T13:12:09.000Z</time>
      </trkpt>
      <trkpt lat="49.26676" lon="-0.22136">
        <ele>5.86649</ele>
        <time>2022-08-05T13:12:10.000Z</time>
      </trkpt>
      <trkpt lat="49.2668" lon="-0.22133">
        <ele>5.876436</ele>
        <time>2022-08-05T13:12:11.000Z</time>
      </trkpt>
      <trkpt lat="49.26684" lon="-0.2213">
        <ele>5.887417</ele>
        <time>2022-08-05T13:12:12.000Z</time>
      </trkpt>
      <trkpt lat="49.26688" lon="-0.22126">
        <ele>5.898488</ele>
        <time>2022-08-05T13:12:13.000Z</time>
      </trkpt>
      <trkpt lat="49.26693" lon="-0.22123">
        <ele>5.909469</ele>
        <time>2022-08-05T13:12:14.000Z</time>
      </trkpt>
      <trkpt lat="49.26697" lon="-0.2212">
        <ele>5.92004</ele>
        <time>2022-08-05T13:12:15.000Z</time>
      </trkpt>
      <trkpt lat="49.26701" lon="-0.22117">
        <ele>5.932219</ele>
        <time>2022-08-05T13:12:16.000Z</time>
      </trkpt>
      <trkpt lat="49.26706" lon="-0.22114">
        <ele>5.942875</ele>
        <time>2022-08-05T13:12:17.000Z</time>
      </trkpt>
      <trkpt lat="49.2671" lon="-0.22111">
        <ele>5.953532</ele>
        <time>2022-08-05T13:12:18.000Z</time>
      </trkpt>
      <trkpt lat="49.26714" lon="-0.22108">
        <ele>5.964736</ele>
        <time>2022-08-05T13:12:19.000Z</time>
      </trkpt>
      <trkpt lat="49.2672" lon="-0.22105">
        <ele>5.978535</ele>
        <time>2022-08-05T13:12:20.000Z</time>
      </trkpt>
      <trkpt lat="49.26723" lon="-0.22103">
        <ele>5.98728</ele>
        <time>2022-08-05T13:12:21.000Z</time>
      </trkpt>
      <trkpt lat="49.26728" lon="-0.221">
        <ele>5.998524</ele>
        <time>2022-08-05T13:12:22.000Z</time>
      </trkpt>
      <trkpt lat="49.26732" lon="-0.22098">
        <ele>6.00879</ele>
        <time>2022-08-05T13:12:23.000Z</time>
      </trkpt>
      <trkpt lat="49.26736" lon="-0.22095">
        <ele>6.019927</ele>
        <time>2022-08-05T13:12:24.000Z</time>
      </trkpt>
      <trkpt lat="49.26741" lon="-0.22092">
        <ele>6.023369</ele>
        <time>2022-08-05T13:12:25.000Z</time>
      </trkpt>
      <trkpt lat="49.26746" lon="-0.2209">
        <ele>6.018161</ele>
        <time>2022-08-05T13:12:26.000Z</time>
      </trkpt>
      <trkpt lat="49.26751" lon="-0.22087">
        <ele>6.012973</ele>
        <time>2022-08-05T13:12:27.000Z</time>
      </trkpt>
      <trkpt lat="49.26755" lon="-0.22085">
        <ele>6.008455</ele>
        <time>2022-08-05T13:12:28.000Z</time>
      </trkpt>
      <trkpt lat="49.26759" lon="-0.22084">
        <ele>6.004008</ele>
        <time>2022-08-05T13:12:29.000Z</time>
      </trkpt>
      <trkpt lat="49.26764" lon="-0.22082">
        <ele>5.999692</ele>
        <time>2022-08-05T13:12:30.000Z</time>
      </trkpt>
      <trkpt lat="49.26768" lon="-0.22081">
        <ele>5.99529</ele>
        <time>2022-08-05T13:12:31.000Z</time>
      </trkpt>
      <trkpt lat="49.26772" lon="-0.2208">
        <ele>5.991002</ele>
        <time>2022-08-05T13:12:32.000Z</time>
      </trkpt>
      <trkpt lat="49.26776" lon="-0.22079">
        <ele>5.986599</ele>
        <time>2022-08-05T13:12:33.000Z</time>
      </trkpt>
      <trkpt lat="49.2678" lon="-0.22077">
        <ele>5.98221</ele>
        <time>2022-08-05T13:12:34.000Z</time>
      </trkpt>
      <trkpt lat="49.26785" lon="-0.22076">
        <ele>5.97763</ele>
        <time>2022-08-05T13:12:35.000Z</time>
      </trkpt>
      <trkpt lat="49.26789" lon="-0.22075">
        <ele>5.972653</ele>
        <time>2022-08-05T13:12:36.000Z</time>
      </trkpt>
      <trkpt lat="49.26796" lon="-0.22074">
        <ele>5.966305</ele>
        <time>2022-08-05T13:12:37.000Z</time>
      </trkpt>
      <trkpt lat="49.268" lon="-0.22073">
        <ele>5.961916</ele>
        <time>2022-08-05T13:12:38.000Z</time>
      </trkpt>
      <trkpt lat="49.26806" lon="-0.22071">
        <ele>5.955507</ele>
        <time>2022-08-05T13:12:39.000Z</time>
      </trkpt>
      <trkpt lat="49.2681" lon="-0.22069">
        <ele>5.951475</ele>
        <time>2022-08-05T13:12:40.000Z</time>
      </trkpt>
      <trkpt lat="49.26816" lon="-0.22067">
        <ele>5.945093</ele>
        <time>2022-08-05T13:12:41.000Z</time>
      </trkpt>
      <trkpt lat="49.2682" lon="-0.22066">
        <ele>5.941107</ele>
        <time>2022-08-05T13:12:42.000Z</time>
      </trkpt>
      <trkpt lat="49.26824" lon="-0.22065">
        <ele>5.936074</ele>
        <time>2022-08-05T13:12:43.000Z</time>
      </trkpt>
      <trkpt lat="49.26829" lon="-0.22063">
        <ele>5.931041</ele>
        <time>2022-08-05T13:12:44.000Z</time>
      </trkpt>
      <trkpt lat="49.26835" lon="-0.22062">
        <ele>5.925323</ele>
        <time>2022-08-05T13:12:45.000Z</time>
      </trkpt>
      <trkpt lat="49.26838" lon="-0.22061">
        <ele>5.921638</ele>
        <time>2022-08-05T13:12:46.000Z</time>
      </trkpt>
      <trkpt lat="49.26843" lon="-0.22059">
        <ele>5.916907</ele>
        <time>2022-08-05T13:12:47.000Z</time>
      </trkpt>
      <trkpt lat="49.26847" lon="-0.22058">
        <ele>5.911899</ele>
        <time>2022-08-05T13:12:48.000Z</time>
      </trkpt>
      <trkpt lat="49.26852" lon="-0.22057">
        <ele>5.90761</ele>
        <time>2022-08-05T13:12:49.000Z</time>
      </trkpt>
      <trkpt lat="49.26857" lon="-0.22055">
        <ele>5.902298</ele>
        <time>2022-08-05T13:12:50.000Z</time>
      </trkpt>
      <trkpt lat="49.26861" lon="-0.22054">
        <ele>5.897567</ele>
        <time>2022-08-05T13:12:51.000Z</time>
      </trkpt>
      <trkpt lat="49.26866" lon="-0.22052">
        <ele>5.892534</ele>
        <time>2022-08-05T13:12:52.000Z</time>
      </trkpt>
      <trkpt lat="49.2687" lon="-0.22051">
        <ele>5.887803</ele>
        <time>2022-08-05T13:12:53.000Z</time>
      </trkpt>
      <trkpt lat="49.26876" lon="-0.22049">
        <ele>5.882139</ele>
        <time>2022-08-05T13:12:54.000Z</time>
      </trkpt>
      <trkpt lat="49.26879" lon="-0.22048">
        <ele>5.878354</ele>
        <time>2022-08-05T13:12:55.000Z</time>
      </trkpt>
      <trkpt lat="49.26884" lon="-0.22047">
        <ele>5.873346</ele>
        <time>2022-08-05T13:12:56.000Z</time>
      </trkpt>
      <trkpt lat="49.26889" lon="-0.22045">
        <ele>5.868313</ele>
        <time>2022-08-05T13:12:57.000Z</time>
      </trkpt>
      <trkpt lat="49.26893" lon="-0.22044">
        <ele>5.864655</ele>
        <time>2022-08-05T13:12:58.000Z</time>
      </trkpt>
      <trkpt lat="49.26897" lon="-0.22043">
        <ele>5.85995</ele>
        <time>2022-08-05T13:12:59.000Z</time>
      </trkpt>
      <trkpt lat="49.26901" lon="-0.22042">
        <ele>5.856265</ele>
        <time>2022-08-05T13:13:00.000Z</time>
      </trkpt>
      <trkpt lat="49.26904" lon="-0.2204">
        <ele>5.852233</ele>
        <time>2022-08-05T13:13:01.000Z</time>
      </trkpt>
      <trkpt lat="49.26908" lon="-0.22039">
        <ele>5.848607</ele>
        <time>2022-08-05T13:13:02.000Z</time>
      </trkpt>
      <trkpt lat="49.26912" lon="-0.22039">
        <ele>5.844564</ele>
        <time>2022-08-05T13:13:03.000Z</time>
      </trkpt>
      <trkpt lat="49.26916" lon="-0.22038">
        <ele>5.839932</ele>
        <time>2022-08-05T13:13:04.000Z</time>
      </trkpt>
      <trkpt lat="49.26919" lon="-0.22037">
        <ele>5.835435</ele>
        <time>2022-08-05T13:13:05.000Z</time>
      </trkpt>
      <trkpt lat="49.26923" lon="-0.22037">
        <ele>5.829954</ele>
        <time>2022-08-05T13:13:06.000Z</time>
      </trkpt>
      <trkpt lat="49.26926" lon="-0.22036">
        <ele>5.825855</ele>
        <time>2022-08-05T13:13:07.000Z</time>
      </trkpt>
      <trkpt lat="49.26929" lon="-0.22035">
        <ele>5.821299</ele>
        <time>2022-08-05T13:13:08.000Z</time>
      </trkpt>
      <trkpt lat="49.26932" lon="-0.22034">
        <ele>5.81725</ele>
        <time>2022-08-05T13:13:09.000Z</time>
      </trkpt>
      <trkpt lat="49.26935" lon="-0.22033">
        <ele>5.813106</ele>
        <time>2022-08-05T13:13:10.000Z</time>
      </trkpt>
      <trkpt lat="49.26939" lon="-0.22032">
        <ele>5.807568</ele>
        <time>2022-08-05T13:13:11.000Z</time>
      </trkpt>
      <trkpt lat="49.26942" lon="-0.22031">
        <ele>5.802168</ele>
        <time>2022-08-05T13:13:12.000Z</time>
      </trkpt>
      <trkpt lat="49.26947" lon="-0.2203">
        <ele>5.79606</ele>
        <time>2022-08-05T13:13:13.000Z</time>
      </trkpt>
      <trkpt lat="49.26951" lon="-0.22028">
        <ele>5.790087</ele>
        <time>2022-08-05T13:13:14.000Z</time>
      </trkpt>
      <trkpt lat="49.26955" lon="-0.22026">
        <ele>5.784327</ele>
        <time>2022-08-05T13:13:15.000Z</time>
      </trkpt>
      <trkpt lat="49.26959" lon="-0.22024">
        <ele>5.777466</ele>
        <time>2022-08-05T13:13:16.000Z</time>
      </trkpt>
      <trkpt lat="49.26962" lon="-0.22023">
        <ele>5.773439</ele>
        <time>2022-08-05T13:13:17.000Z</time>
      </trkpt>
      <trkpt lat="49.26966" lon="-0.22022">
        <ele>5.767419</ele>
        <time>2022-08-05T13:13:18.000Z</time>
      </trkpt>
      <trkpt lat="49.2697" lon="-0.22021">
        <ele>5.762003</ele>
        <time>2022-08-05T13:13:19.000Z</time>
      </trkpt>
      <trkpt lat="49.26974" lon="-0.22019">
        <ele>5.756243</ele>
        <time>2022-08-05T13:13:20.000Z</time>
      </trkpt>
      <trkpt lat="49.26978" lon="-0.22017">
        <ele>5.751101</ele>
        <time>2022-08-05T13:13:21.000Z</time>
      </trkpt>
      <trkpt lat="49.26981" lon="-0.22015">
        <ele>5.745557</ele>
        <time>2022-08-05T13:13:22.000Z</time>
      </trkpt>
      <trkpt lat="49.26985" lon="-0.22014">
        <ele>5.74087</ele>
        <time>2022-08-05T13:13:23.000Z</time>
      </trkpt>
      <trkpt lat="49.26988" lon="-0.22012">
        <ele>5.73562</ele>
        <time>2022-08-05T13:13:24.000Z</time>
      </trkpt>
      <trkpt lat="49.26991" lon="-0.22011">
        <ele>5.730877</ele>
        <time>2022-08-05T13:13:25.000Z</time>
      </trkpt>
      <trkpt lat="49.26995" lon="-0.22009">
        <ele>5.726036</ele>
        <time>2022-08-05T13:13:26.000Z</time>
      </trkpt>
      <trkpt lat="49.26998" lon="-0.22007">
        <ele>5.720805</ele>
        <time>2022-08-05T13:13:27.000Z</time>
      </trkpt>
      <trkpt lat="49.27002" lon="-0.22005">
        <ele>5.715573</ele>
        <time>2022-08-05T13:13:28.000Z</time>
      </trkpt>
      <trkpt lat="49.27005" lon="-0.22003">
        <ele>5.709946</ele>
        <time>2022-08-05T13:13:29.000Z</time>
      </trkpt>
      <trkpt lat="49.27009" lon="-0.22001">
        <ele>5.704583</ele>
        <time>2022-08-05T13:13:30.000Z</time>
      </trkpt>
      <trkpt lat="49.27013" lon="-0.21999">
        <ele>5.699351</ele>
        <time>2022-08-05T13:13:31.000Z</time>
      </trkpt>
      <trkpt lat="49.27017" lon="-0.21996">
        <ele>5.692583</ele>
        <time>2022-08-05T13:13:32.000Z</time>
      </trkpt>
      <trkpt lat="49.2702" lon="-0.21994">
        <ele>5.688217</ele>
        <time>2022-08-05T13:13:33.000Z</time>
      </trkpt>
      <trkpt lat="49.27024" lon="-0.21991">
        <ele>5.682146</ele>
        <time>2022-08-05T13:13:34.000Z</time>
      </trkpt>
      <trkpt lat="49.27028" lon="-0.21988">
        <ele>5.676317</ele>
        <time>2022-08-05T13:13:35.000Z</time>
      </trkpt>
      <trkpt lat="49.27031" lon="-0.21986">
        <ele>5.670324</ele>
        <time>2022-08-05T13:13:36.000Z</time>
      </trkpt>
      <trkpt lat="49.27035" lon="-0.21983">
        <ele>5.664707</ele>
        <time>2022-08-05T13:13:37.000Z</time>
      </trkpt>
      <trkpt lat="49.27038" lon="-0.2198">
        <ele>5.659453</ele>
        <time>2022-08-05T13:13:38.000Z</time>
      </trkpt>
      <trkpt lat="49.27042" lon="-0.21976">
        <ele>5.653745</ele>
        <time>2022-08-05T13:13:39.000Z</time>
      </trkpt>
      <trkpt lat="49.27045" lon="-0.21973">
        <ele>5.647892</ele>
        <time>2022-08-05T13:13:40.000Z</time>
      </trkpt>
      <trkpt lat="49.27049" lon="-0.21969">
        <ele>5.642039</ele>
        <time>2022-08-05T13:13:41.000Z</time>
      </trkpt>
      <trkpt lat="49.27052" lon="-0.21966">
        <ele>5.636018</ele>
        <time>2022-08-05T13:13:42.000Z</time>
      </trkpt>
      <trkpt lat="49.27057" lon="-0.21961">
        <ele>5.628401</ele>
        <time>2022-08-05T13:13:43.000Z</time>
      </trkpt>
      <trkpt lat="49.2706" lon="-0.21957">
        <ele>5.622559</ele>
        <time>2022-08-05T13:13:44.000Z</time>
      </trkpt>
      <trkpt lat="49.27063" lon="-0.21953">
        <ele>5.617106</ele>
        <time>2022-08-05T13:13:45.000Z</time>
      </trkpt>
      <trkpt lat="49.27066" lon="-0.21949">
        <ele>5.61158</ele>
        <time>2022-08-05T13:13:46.000Z</time>
      </trkpt>
      <trkpt lat="49.2707" lon="-0.21944">
        <ele>5.604018</ele>
        <time>2022-08-05T13:13:47.000Z</time>
      </trkpt>
      <trkpt lat="49.27074" lon="-0.2194">
        <ele>5.597735</ele>
        <time>2022-08-05T13:13:48.000Z</time>
      </trkpt>
      <trkpt lat="49.27077" lon="-0.21935">
        <ele>5.591653</ele>
        <time>2022-08-05T13:13:49.000Z</time>
      </trkpt>
      <trkpt lat="49.2708" lon="-0.21931">
        <ele>5.59823</ele>
        <time>2022-08-05T13:13:50.000Z</time>
      </trkpt>
      <trkpt lat="49.27083" lon="-0.21926">
        <ele>5.611743</ele>
        <time>2022-08-05T13:13:51.000Z</time>
      </trkpt>
      <trkpt lat="49.27085" lon="-0.21922">
        <ele>5.621555</ele>
        <time>2022-08-05T13:13:52.000Z</time>
      </trkpt>
      <trkpt lat="49.27089" lon="-0.21918">
        <ele>5.635973</ele>
        <time>2022-08-05T13:13:53.000Z</time>
      </trkpt>
      <trkpt lat="49.27093" lon="-0.21912">
        <ele>5.651637</ele>
        <time>2022-08-05T13:13:54.000Z</time>
      </trkpt>
      <trkpt lat="49.27095" lon="-0.21909">
        <ele>5.662188</ele>
        <time>2022-08-05T13:13:55.000Z</time>
      </trkpt>
      <trkpt lat="49.27099" lon="-0.21904">
        <ele>5.675295</ele>
        <time>2022-08-05T13:13:56.000Z</time>
      </trkpt>
      <trkpt lat="49.27101" lon="-0.219">
        <ele>5.687101</ele>
        <time>2022-08-05T13:13:57.000Z</time>
      </trkpt>
      <trkpt lat="49.27104" lon="-0.21896">
        <ele>5.699266</ele>
        <time>2022-08-05T13:13:58.000Z</time>
      </trkpt>
      <trkpt lat="49.27107" lon="-0.21892">
        <ele>5.71143</ele>
        <time>2022-08-05T13:13:59.000Z</time>
      </trkpt>
      <trkpt lat="49.2711" lon="-0.21888">
        <ele>5.723092</ele>
        <time>2022-08-05T13:14:00.000Z</time>
      </trkpt>
      <trkpt lat="49.27113" lon="-0.21882">
        <ele>5.737954</ele>
        <time>2022-08-05T13:14:01.000Z</time>
      </trkpt>
      <trkpt lat="49.27116" lon="-0.21879">
        <ele>5.747339</ele>
        <time>2022-08-05T13:14:02.000Z</time>
      </trkpt>
      <trkpt lat="49.27119" lon="-0.21875">
        <ele>5.760314</ele>
        <time>2022-08-05T13:14:03.000Z</time>
      </trkpt>
      <trkpt lat="49.27121" lon="-0.21871">
        <ele>5.771831</ele>
        <time>2022-08-05T13:14:04.000Z</time>
      </trkpt>
      <trkpt lat="49.27125" lon="-0.21866">
        <ele>5.78615</ele>
        <time>2022-08-05T13:14:05.000Z</time>
      </trkpt>
      <trkpt lat="49.27128" lon="-0.21862">
        <ele>5.798314</ele>
        <time>2022-08-05T13:14:06.000Z</time>
      </trkpt>
      <trkpt lat="49.2713" lon="-0.21858">
        <ele>5.808638</ele>
        <time>2022-08-05T13:14:07.000Z</time>
      </trkpt>
      <trkpt lat="49.27133" lon="-0.21854">
        <ele>5.82094</ele>
        <time>2022-08-05T13:14:08.000Z</time>
      </trkpt>
      <trkpt lat="49.27136" lon="-0.21849">
        <ele>5.833381</ele>
        <time>2022-08-05T13:14:09.000Z</time>
      </trkpt>
      <trkpt lat="49.2714" lon="-0.21845">
        <ele>5.847438</ele>
        <time>2022-08-05T13:14:10.000Z</time>
      </trkpt>
      <trkpt lat="49.27142" lon="-0.21841">
        <ele>5.857858</ele>
        <time>2022-08-05T13:14:11.000Z</time>
      </trkpt>
      <trkpt lat="49.27145" lon="-0.21836">
        <ele>5.872222</ele>
        <time>2022-08-05T13:14:12.000Z</time>
      </trkpt>
      <trkpt lat="49.27148" lon="-0.21833">
        <ele>5.883234</ele>
        <time>2022-08-05T13:14:13.000Z</time>
      </trkpt>
      <trkpt lat="49.27151" lon="-0.21828">
        <ele>5.89546</ele>
        <time>2022-08-05T13:14:14.000Z</time>
      </trkpt>
      <trkpt lat="49.27154" lon="-0.21824">
        <ele>5.908435</ele>
        <time>2022-08-05T13:14:15.000Z</time>
      </trkpt>
      <trkpt lat="49.27157" lon="-0.2182">
        <ele>5.920737</ele>
        <time>2022-08-05T13:14:16.000Z</time>
      </trkpt>
      <trkpt lat="49.2716" lon="-0.21816">
        <ele>5.933582</ele>
        <time>2022-08-05T13:14:17.000Z</time>
      </trkpt>
      <trkpt lat="49.27163" lon="-0.21811">
        <ele>5.945746</ele>
        <time>2022-08-05T13:14:18.000Z</time>
      </trkpt>
      <trkpt lat="49.27167" lon="-0.21806">
        <ele>5.962333</ele>
        <time>2022-08-05T13:14:19.000Z</time>
      </trkpt>
      <trkpt lat="49.2717" lon="-0.21803">
        <ele>5.972656</ele>
        <time>2022-08-05T13:14:20.000Z</time>
      </trkpt>
      <trkpt lat="49.27173" lon="-0.21798">
        <ele>5.985238</ele>
        <time>2022-08-05T13:14:21.000Z</time>
      </trkpt>
      <trkpt lat="49.27176" lon="-0.21794">
        <ele>5.998213</ele>
        <time>2022-08-05T13:14:22.000Z</time>
      </trkpt>
      <trkpt lat="49.27179" lon="-0.21789">
        <ele>6.010654</ele>
        <time>2022-08-05T13:14:23.000Z</time>
      </trkpt>
      <trkpt lat="49.27183" lon="-0.21784">
        <ele>6.026054</ele>
        <time>2022-08-05T13:14:24.000Z</time>
      </trkpt>
      <trkpt lat="49.27186" lon="-0.2178">
        <ele>6.039294</ele>
        <time>2022-08-05T13:14:25.000Z</time>
      </trkpt>
      <trkpt lat="49.27189" lon="-0.21776">
        <ele>6.049714</ele>
        <time>2022-08-05T13:14:26.000Z</time>
      </trkpt>
      <trkpt lat="49.27192" lon="-0.21772">
        <ele>6.062689</ele>
        <time>2022-08-05T13:14:27.000Z</time>
      </trkpt>
      <trkpt lat="49.27195" lon="-0.21767">
        <ele>6.076908</ele>
        <time>2022-08-05T13:14:28.000Z</time>
      </trkpt>
      <trkpt lat="49.27198" lon="-0.21763">
        <ele>6.088162</ele>
        <time>2022-08-05T13:14:29.000Z</time>
      </trkpt>
      <trkpt lat="49.272" lon="-0.21759">
        <ele>6.099618</ele>
        <time>2022-08-05T13:14:30.000Z</time>
      </trkpt>
      <trkpt lat="49.27204" lon="-0.21755">
        <ele>6.112463</ele>
        <time>2022-08-05T13:14:31.000Z</time>
      </trkpt>
      <trkpt lat="49.27207" lon="-0.2175">
        <ele>6.12705</ele>
        <time>2022-08-05T13:14:32.000Z</time>
      </trkpt>
      <trkpt lat="49.2721" lon="-0.21746">
        <ele>6.137661</ele>
        <time>2022-08-05T13:14:33.000Z</time>
      </trkpt>
      <trkpt lat="49.27213" lon="-0.21741">
        <ele>6.136483</ele>
        <time>2022-08-05T13:14:34.000Z</time>
      </trkpt>
      <trkpt lat="49.27216" lon="-0.21738">
        <ele>6.135619</ele>
        <time>2022-08-05T13:14:35.000Z</time>
      </trkpt>
      <trkpt lat="49.2722" lon="-0.21733">
        <ele>6.134246</ele>
        <time>2022-08-05T13:14:36.000Z</time>
      </trkpt>
      <trkpt lat="49.27222" lon="-0.2173">
        <ele>6.133332</ele>
        <time>2022-08-05T13:14:37.000Z</time>
      </trkpt>
      <trkpt lat="49.27225" lon="-0.21726">
        <ele>6.132226</ele>
        <time>2022-08-05T13:14:38.000Z</time>
      </trkpt>
      <trkpt lat="49.27228" lon="-0.21721">
        <ele>6.131071</ele>
        <time>2022-08-05T13:14:39.000Z</time>
      </trkpt>
      <trkpt lat="49.27231" lon="-0.21717">
        <ele>6.130014</ele>
        <time>2022-08-05T13:14:40.000Z</time>
      </trkpt>
      <trkpt lat="49.27234" lon="-0.21713">
        <ele>6.128933</ele>
        <time>2022-08-05T13:14:41.000Z</time>
      </trkpt>
      <trkpt lat="49.27236" lon="-0.21709">
        <ele>6.127897</ele>
        <time>2022-08-05T13:14:42.000Z</time>
      </trkpt>
      <trkpt lat="49.27239" lon="-0.21705">
        <ele>6.126932</ele>
        <time>2022-08-05T13:14:43.000Z</time>
      </trkpt>
      <trkpt lat="49.27242" lon="-0.217">
        <ele>6.125814</ele>
        <time>2022-08-05T13:14:44.000Z</time>
      </trkpt>
      <trkpt lat="49.27244" lon="-0.21696">
        <ele>6.124791</ele>
        <time>2022-08-05T13:14:45.000Z</time>
      </trkpt>
      <trkpt lat="49.27248" lon="-0.21691">
        <ele>6.123492</ele>
        <time>2022-08-05T13:14:46.000Z</time>
      </trkpt>
      <trkpt lat="49.2725" lon="-0.21688">
        <ele>6.122648</ele>
        <time>2022-08-05T13:14:47.000Z</time>
      </trkpt>
      <trkpt lat="49.27253" lon="-0.21684">
        <ele>6.121457</ele>
        <time>2022-08-05T13:14:48.000Z</time>
      </trkpt>
      <trkpt lat="49.27256" lon="-0.21679">
        <ele>6.120351</ele>
        <time>2022-08-05T13:14:49.000Z</time>
      </trkpt>
      <trkpt lat="49.27259" lon="-0.21675">
        <ele>6.119161</ele>
        <time>2022-08-05T13:14:50.000Z</time>
      </trkpt>
      <trkpt lat="49.27262" lon="-0.2167">
        <ele>6.117946</ele>
        <time>2022-08-05T13:14:51.000Z</time>
      </trkpt>
      <trkpt lat="49.27266" lon="-0.21664">
        <ele>6.116476</ele>
        <time>2022-08-05T13:14:52.000Z</time>
      </trkpt>
      <trkpt lat="49.27269" lon="-0.2166">
        <ele>6.115406</ele>
        <time>2022-08-05T13:14:53.000Z</time>
      </trkpt>
      <trkpt lat="49.27273" lon="-0.21655">
        <ele>6.113904</ele>
        <time>2022-08-05T13:14:54.000Z</time>
      </trkpt>
      <trkpt lat="49.27276" lon="-0.2165">
        <ele>6.112772</ele>
        <time>2022-08-05T13:14:55.000Z</time>
      </trkpt>
      <trkpt lat="49.27279" lon="-0.21646">
        <ele>6.111606</ele>
        <time>2022-08-05T13:14:56.000Z</time>
      </trkpt>
      <trkpt lat="49.27282" lon="-0.21642">
        <ele>6.11071</ele>
        <time>2022-08-05T13:14:57.000Z</time>
      </trkpt>
      <trkpt lat="49.27285" lon="-0.21638">
        <ele>6.109604</ele>
        <time>2022-08-05T13:14:58.000Z</time>
      </trkpt>
      <trkpt lat="49.27288" lon="-0.21634">
        <ele>6.108449</ele>
        <time>2022-08-05T13:14:59.000Z</time>
      </trkpt>
      <trkpt lat="49.2729" lon="-0.2163">
        <ele>6.107484</ele>
        <time>2022-08-05T13:15:00.000Z</time>
      </trkpt>
      <trkpt lat="49.27293" lon="-0.21626">
        <ele>6.106438</ele>
        <time>2022-08-05T13:15:01.000Z</time>
      </trkpt>
      <trkpt lat="49.27296" lon="-0.21623">
        <ele>6.105466</ele>
        <time>2022-08-05T13:15:02.000Z</time>
      </trkpt>
      <trkpt lat="49.273" lon="-0.21618">
        <ele>6.104127</ele>
        <time>2022-08-05T13:15:03.000Z</time>
      </trkpt>
      <trkpt lat="49.27302" lon="-0.21615">
        <ele>6.103202</ele>
        <time>2022-08-05T13:15:04.000Z</time>
      </trkpt>
      <trkpt lat="49.27306" lon="-0.21609">
        <ele>6.101769</ele>
        <time>2022-08-05T13:15:05.000Z</time>
      </trkpt>
      <trkpt lat="49.27309" lon="-0.21605">
        <ele>6.100676</ele>
        <time>2022-08-05T13:15:06.000Z</time>
      </trkpt>
      <trkpt lat="49.27313" lon="-0.21599">
        <ele>6.099126</ele>
        <time>2022-08-05T13:15:07.000Z</time>
      </trkpt>
      <trkpt lat="49.27317" lon="-0.21594">
        <ele>6.097776</ele>
        <time>2022-08-05T13:15:08.000Z</time>
      </trkpt>
      <trkpt lat="49.27319" lon="-0.2159">
        <ele>6.096779</ele>
        <time>2022-08-05T13:15:09.000Z</time>
      </trkpt>
      <trkpt lat="49.27323" lon="-0.21585">
        <ele>6.095394</ele>
        <time>2022-08-05T13:15:10.000Z</time>
      </trkpt>
      <trkpt lat="49.27327" lon="-0.2158">
        <ele>6.09402</ele>
        <time>2022-08-05T13:15:11.000Z</time>
      </trkpt>
      <trkpt lat="49.27331" lon="-0.21573">
        <ele>6.092325</ele>
        <time>2022-08-05T13:15:12.000Z</time>
      </trkpt>
      <trkpt lat="49.27334" lon="-0.21569">
        <ele>6.091263</ele>
        <time>2022-08-05T13:15:13.000Z</time>
      </trkpt>
      <trkpt lat="49.27337" lon="-0.21563">
        <ele>6.089889</ele>
        <time>2022-08-05T13:15:14.000Z</time>
      </trkpt>
      <trkpt lat="49.2734" lon="-0.21558">
        <ele>6.088652</ele>
        <time>2022-08-05T13:15:15.000Z</time>
      </trkpt>
      <trkpt lat="49.27343" lon="-0.21553">
        <ele>6.095644</ele>
        <time>2022-08-05T13:15:16.000Z</time>
      </trkpt>
      <trkpt lat="49.27347" lon="-0.21547">
        <ele>6.104154</ele>
        <time>2022-08-05T13:15:17.000Z</time>
      </trkpt>
      <trkpt lat="49.2735" lon="-0.21541">
        <ele>6.11233</ele>
        <time>2022-08-05T13:15:18.000Z</time>
      </trkpt>
      <trkpt lat="49.27353" lon="-0.21536">
        <ele>6.120023</ele>
        <time>2022-08-05T13:15:19.000Z</time>
      </trkpt>
      <trkpt lat="49.27357" lon="-0.2153">
        <ele>6.129272</ele>
        <time>2022-08-05T13:15:20.000Z</time>
      </trkpt>
      <trkpt lat="49.2736" lon="-0.21525">
        <ele>6.136385</ele>
        <time>2022-08-05T13:15:21.000Z</time>
      </trkpt>
      <trkpt lat="49.27363" lon="-0.21522">
        <ele>6.142152</ele>
        <time>2022-08-05T13:15:22.000Z</time>
      </trkpt>
      <trkpt lat="49.27365" lon="-0.21518">
        <ele>6.148333</ele>
        <time>2022-08-05T13:15:23.000Z</time>
      </trkpt>
      <trkpt lat="49.27368" lon="-0.21513">
        <ele>6.15557</ele>
        <time>2022-08-05T13:15:24.000Z</time>
      </trkpt>
      <trkpt lat="49.27371" lon="-0.21508">
        <ele>6.163008</ele>
        <time>2022-08-05T13:15:25.000Z</time>
      </trkpt>
      <trkpt lat="49.27373" lon="-0.21503">
        <ele>6.169122</ele>
        <time>2022-08-05T13:15:26.000Z</time>
      </trkpt>
      <trkpt lat="49.27375" lon="-0.215">
        <ele>6.173335</ele>
        <time>2022-08-05T13:15:27.000Z</time>
      </trkpt>
      <trkpt lat="49.27377" lon="-0.21497">
        <ele>6.178971</ele>
        <time>2022-08-05T13:15:28.000Z</time>
      </trkpt>
      <trkpt lat="49.27379" lon="-0.21494">
        <ele>6.182778</ele>
        <time>2022-08-05T13:15:29.000Z</time>
      </trkpt>
      <trkpt lat="49.27381" lon="-0.21492">
        <ele>6.187582</ele>
        <time>2022-08-05T13:15:30.000Z</time>
      </trkpt>
      <trkpt lat="49.27385" lon="-0.21489">
        <ele>6.194759</ele>
        <time>2022-08-05T13:15:32.000Z</time>
      </trkpt>
      <trkpt lat="49.27388" lon="-0.21487">
        <ele>6.199323</ele>
        <time>2022-08-05T13:15:33.000Z</time>
      </trkpt>
      <trkpt lat="49.2739" lon="-0.21483">
        <ele>6.2045</ele>
        <time>2022-08-05T13:15:34.000Z</time>
      </trkpt>
      <trkpt lat="49.27392" lon="-0.2148">
        <ele>6.209045</ele>
        <time>2022-08-05T13:15:35.000Z</time>
      </trkpt>
      <trkpt lat="49.27394" lon="-0.21478">
        <ele>6.21402</ele>
        <time>2022-08-05T13:15:36.000Z</time>
      </trkpt>
      <trkpt lat="49.27396" lon="-0.21476">
        <ele>6.217779</ele>
        <time>2022-08-05T13:15:37.000Z</time>
      </trkpt>
      <trkpt lat="49.27399" lon="-0.21475">
        <ele>6.222145</ele>
        <time>2022-08-05T13:15:38.000Z</time>
      </trkpt>
      <trkpt lat="49.27401" lon="-0.21475">
        <ele>6.225978</ele>
        <time>2022-08-05T13:15:39.000Z</time>
      </trkpt>
      <trkpt lat="49.27403" lon="-0.21476">
        <ele>6.229402</ele>
        <time>2022-08-05T13:15:40.000Z</time>
      </trkpt>
      <trkpt lat="49.27405" lon="-0.21478">
        <ele>6.233558</ele>
        <time>2022-08-05T13:15:41.000Z</time>
      </trkpt>
      <trkpt lat="49.27407" lon="-0.2148">
        <ele>6.237593</ele>
        <time>2022-08-05T13:15:42.000Z</time>
      </trkpt>
      <trkpt lat="49.27409" lon="-0.21483">
        <ele>6.242556</ele>
        <time>2022-08-05T13:15:43.000Z</time>
      </trkpt>
      <trkpt lat="49.27412" lon="-0.21487">
        <ele>6.248775</ele>
        <time>2022-08-05T13:15:44.000Z</time>
      </trkpt>
      <trkpt lat="49.27414" lon="-0.2149">
        <ele>6.253244</ele>
        <time>2022-08-05T13:15:45.000Z</time>
      </trkpt>
      <trkpt lat="49.27417" lon="-0.21493">
        <ele>6.258886</ele>
        <time>2022-08-05T13:15:46.000Z</time>
      </trkpt>
      <trkpt lat="49.2742" lon="-0.21497">
        <ele>6.265037</ele>
        <time>2022-08-05T13:15:47.000Z</time>
      </trkpt>
      <trkpt lat="49.27422" lon="-0.215">
        <ele>6.271256</ele>
        <time>2022-08-05T13:15:48.000Z</time>
      </trkpt>
      <trkpt lat="49.27425" lon="-0.21505">
        <ele>6.277283</ele>
        <time>2022-08-05T13:15:49.000Z</time>
      </trkpt>
      <trkpt lat="49.27427" lon="-0.21508">
        <ele>6.282762</ele>
        <time>2022-08-05T13:15:50.000Z</time>
      </trkpt>
      <trkpt lat="49.27429" lon="-0.21512">
        <ele>6.288054</ele>
        <time>2022-08-05T13:15:51.000Z</time>
      </trkpt>
      <trkpt lat="49.27431" lon="-0.21517">
        <ele>6.294589</ele>
        <time>2022-08-05T13:15:52.000Z</time>
      </trkpt>
      <trkpt lat="49.27433" lon="-0.21521">
        <ele>6.300236</ele>
        <time>2022-08-05T13:15:53.000Z</time>
      </trkpt>
      <trkpt lat="49.27435" lon="-0.21525">
        <ele>6.305792</ele>
        <time>2022-08-05T13:15:54.000Z</time>
      </trkpt>
      <trkpt lat="49.27437" lon="-0.21529">
        <ele>6.310439</ele>
        <time>2022-08-05T13:15:55.000Z</time>
      </trkpt>
      <trkpt lat="49.27438" lon="-0.21533">
        <ele>6.316107</ele>
        <time>2022-08-05T13:15:56.000Z</time>
      </trkpt>
      <trkpt lat="49.27439" lon="-0.21537">
        <ele>6.320663</ele>
        <time>2022-08-05T13:15:57.000Z</time>
      </trkpt>
      <trkpt lat="49.27441" lon="-0.2154">
        <ele>6.324582</ele>
        <time>2022-08-05T13:15:58.000Z</time>
      </trkpt>
      <trkpt lat="49.27442" lon="-0.21543">
        <ele>6.327973</ele>
        <time>2022-08-05T13:15:59.000Z</time>
      </trkpt>
      <trkpt lat="49.27442" lon="-0.21546">
        <ele>6.331058</ele>
        <time>2022-08-05T13:16:00.000Z</time>
      </trkpt>
      <trkpt lat="49.27442" lon="-0.21548">
        <ele>6.334103</ele>
        <time>2022-08-05T13:16:01.000Z</time>
      </trkpt>
      <trkpt lat="49.27441" lon="-0.21552">
        <ele>6.338193</ele>
        <time>2022-08-05T13:16:02.000Z</time>
      </trkpt>
      <trkpt lat="49.2744" lon="-0.21555">
        <ele>6.342248</ele>
        <time>2022-08-05T13:16:03.000Z</time>
      </trkpt>
      <trkpt lat="49.27439" lon="-0.21558">
        <ele>6.345724</ele>
        <time>2022-08-05T13:16:04.000Z</time>
      </trkpt>
      <trkpt lat="49.27437" lon="-0.2156">
        <ele>6.349758</ele>
        <time>2022-08-05T13:16:05.000Z</time>
      </trkpt>
      <trkpt lat="49.27435" lon="-0.21563">
        <ele>6.354322</ele>
        <time>2022-08-05T13:16:06.000Z</time>
      </trkpt>
      <trkpt lat="49.27432" lon="-0.21565">
        <ele>6.359764</ele>
        <time>2022-08-05T13:16:08.000Z</time>
      </trkpt>
      <trkpt lat="49.27431" lon="-0.21567">
        <ele>6.362991</ele>
        <time>2022-08-05T13:21:12.000Z</time>
      </trkpt>
      <trkpt lat="49.28253" lon="-0.21952">
        <ele>8.680825</ele>
        <time>2022-08-05T13:40:39.000Z</time>
      </trkpt>
      <trkpt lat="49.28257" lon="-0.21952">
        <ele>8.721696</ele>
        <time>2022-08-05T13:40:41.000Z</time>
      </trkpt>
      <trkpt lat="49.28259" lon="-0.21952">
        <ele>8.743224</ele>
        <time>2022-08-05T13:40:42.000Z</time>
      </trkpt>
      <trkpt lat="49.28261" lon="-0.21951">
        <ele>8.764214</ele>
        <time>2022-08-05T13:40:43.000Z</time>
      </trkpt>
      <trkpt lat="49.28262" lon="-0.2195">
        <ele>8.784921</ele>
        <time>2022-08-05T13:40:44.000Z</time>
      </trkpt>
      <trkpt lat="49.28264" lon="-0.21951">
        <ele>8.805378</ele>
        <time>2022-08-05T13:40:45.000Z</time>
      </trkpt>
      <trkpt lat="49.28266" lon="-0.21951">
        <ele>8.826085</ele>
        <time>2022-08-05T13:40:46.000Z</time>
      </trkpt>
      <trkpt lat="49.28269" lon="-0.21953">
        <ele>8.852933</ele>
        <time>2022-08-05T13:40:47.000Z</time>
      </trkpt>
      <trkpt lat="49.2827" lon="-0.21954">
        <ele>8.876564</ele>
        <time>2022-08-05T13:40:48.000Z</time>
      </trkpt>
      <trkpt lat="49.28273" lon="-0.21956">
        <ele>8.90335</ele>
        <time>2022-08-05T13:40:49.000Z</time>
      </trkpt>
      <trkpt lat="49.28274" lon="-0.21958">
        <ele>8.925526</ele>
        <time>2022-08-05T13:40:50.000Z</time>
      </trkpt>
      <trkpt lat="49.28277" lon="-0.2196">
        <ele>8.955023</ele>
        <time>2022-08-05T13:40:51.000Z</time>
      </trkpt>
      <trkpt lat="49.28278" lon="-0.21963">
        <ele>8.980599</ele>
        <time>2022-08-05T13:40:52.000Z</time>
      </trkpt>
      <trkpt lat="49.28281" lon="-0.21964">
        <ele>9.007385</ele>
        <time>2022-08-05T13:40:53.000Z</time>
      </trkpt>
      <trkpt lat="49.28283" lon="-0.21966">
        <ele>9.034233</ele>
        <time>2022-08-05T13:40:54.000Z</time>
      </trkpt>
      <trkpt lat="49.28285" lon="-0.21967">
        <ele>9.056877</ele>
        <time>2022-08-05T13:40:55.000Z</time>
      </trkpt>
      <trkpt lat="49.28287" lon="-0.21968">
        <ele>9.08567</ele>
        <time>2022-08-05T13:40:56.000Z</time>
      </trkpt>
      <trkpt lat="49.2829" lon="-0.21969">
        <ele>9.112751</ele>
        <time>2022-08-05T13:40:57.000Z</time>
      </trkpt>
      <trkpt lat="49.28292" lon="-0.21969">
        <ele>9.137456</ele>
        <time>2022-08-05T13:40:58.000Z</time>
      </trkpt>
      <trkpt lat="49.28295" lon="-0.21968">
        <ele>9.164754</ele>
        <time>2022-08-05T13:40:59.000Z</time>
      </trkpt>
      <trkpt lat="49.28297" lon="-0.21966">
        <ele>9.192181</ele>
        <time>2022-08-05T13:41:00.000Z</time>
      </trkpt>
      <trkpt lat="49.28299" lon="-0.21964">
        <ele>9.220784</ele>
        <time>2022-08-05T13:41:01.000Z</time>
      </trkpt>
      <trkpt lat="49.28301" lon="-0.21961">
        <ele>9.246344</ele>
        <time>2022-08-05T13:41:02.000Z</time>
      </trkpt>
      <trkpt lat="49.28303" lon="-0.21959">
        <ele>9.268614</ele>
        <time>2022-08-05T13:41:03.000Z</time>
      </trkpt>
      <trkpt lat="49.28305" lon="-0.21955">
        <ele>9.25711</ele>
        <time>2022-08-05T13:41:04.000Z</time>
      </trkpt>
      <trkpt lat="49.28306" lon="-0.21952">
        <ele>9.246401</ele>
        <time>2022-08-05T13:41:05.000Z</time>
      </trkpt>
      <trkpt lat="49.28307" lon="-0.21948">
        <ele>9.236242</ele>
        <time>2022-08-05T13:41:06.000Z</time>
      </trkpt>
      <trkpt lat="49.28308" lon="-0.21945">
        <ele>9.225302</ele>
        <time>2022-08-05T13:41:07.000Z</time>
      </trkpt>
      <trkpt lat="49.28309" lon="-0.21942">
        <ele>9.216037</ele>
        <time>2022-08-05T13:41:08.000Z</time>
      </trkpt>
      <trkpt lat="49.2831" lon="-0.21939">
        <ele>9.206462</ele>
        <time>2022-08-05T13:41:09.000Z</time>
      </trkpt>
      <trkpt lat="49.28312" lon="-0.21936">
        <ele>9.196763</ele>
        <time>2022-08-05T13:41:10.000Z</time>
      </trkpt>
      <trkpt lat="49.28314" lon="-0.21933">
        <ele>9.186022</ele>
        <time>2022-08-05T13:41:11.000Z</time>
      </trkpt>
      <trkpt lat="49.28316" lon="-0.2193">
        <ele>9.17528</ele>
        <time>2022-08-05T13:41:12.000Z</time>
      </trkpt>
      <trkpt lat="49.28318" lon="-0.21928">
        <ele>9.164762</ele>
        <time>2022-08-05T13:41:13.000Z</time>
      </trkpt>
      <trkpt lat="49.2832" lon="-0.21925">
        <ele>9.153757</ele>
        <time>2022-08-05T13:41:14.000Z</time>
      </trkpt>
      <trkpt lat="49.28322" lon="-0.21923">
        <ele>9.14421</ele>
        <time>2022-08-05T13:41:15.000Z</time>
      </trkpt>
      <trkpt lat="49.28325" lon="-0.21921">
        <ele>9.132354</ele>
        <time>2022-08-05T13:41:16.000Z</time>
      </trkpt>
      <trkpt lat="49.28327" lon="-0.21919">
        <ele>9.122062</ele>
        <time>2022-08-05T13:41:17.000Z</time>
      </trkpt>
      <trkpt lat="49.2833" lon="-0.21917">
        <ele>9.107977</ele>
        <time>2022-08-05T13:41:18.000Z</time>
      </trkpt>
      <trkpt lat="49.28333" lon="-0.21915">
        <ele>9.094669</ele>
        <time>2022-08-05T13:41:19.000Z</time>
      </trkpt>
      <trkpt lat="49.28336" lon="-0.21913">
        <ele>9.078932</ele>
        <time>2022-08-05T13:41:20.000Z</time>
      </trkpt>
      <trkpt lat="49.2834" lon="-0.2191">
        <ele>9.061379</ele>
        <time>2022-08-05T13:41:21.000Z</time>
      </trkpt>
      <trkpt lat="49.28344" lon="-0.21907">
        <ele>9.042628</ele>
        <time>2022-08-05T13:41:22.000Z</time>
      </trkpt>
      <trkpt lat="49.28349" lon="-0.21903">
        <ele>9.02275</ele>
        <time>2022-08-05T13:41:23.000Z</time>
      </trkpt>
      <trkpt lat="49.28353" lon="-0.21898">
        <ele>9.001884</ele>
        <time>2022-08-05T13:41:24.000Z</time>
      </trkpt>
      <trkpt lat="49.28357" lon="-0.21893">
        <ele>8.980211</ele>
        <time>2022-08-05T13:41:25.000Z</time>
      </trkpt>
      <trkpt lat="49.2836" lon="-0.21888">
        <ele>8.960159</ele>
        <time>2022-08-05T13:41:26.000Z</time>
      </trkpt>
      <trkpt lat="49.28364" lon="-0.21882">
        <ele>8.938198</ele>
        <time>2022-08-05T13:41:27.000Z</time>
      </trkpt>
      <trkpt lat="49.28368" lon="-0.21876">
        <ele>8.915579</ele>
        <time>2022-08-05T13:41:28.000Z</time>
      </trkpt>
      <trkpt lat="49.28371" lon="-0.2187">
        <ele>8.894351</ele>
        <time>2022-08-05T13:41:29.000Z</time>
      </trkpt>
      <trkpt lat="49.28374" lon="-0.21863">
        <ele>8.873395</ele>
        <time>2022-08-05T13:41:30.000Z</time>
      </trkpt>
      <trkpt lat="49.28375" lon="-0.21856">
        <ele>8.853904</ele>
        <time>2022-08-05T13:41:31.000Z</time>
      </trkpt>
      <trkpt lat="49.28376" lon="-0.21848">
        <ele>8.833552</ele>
        <time>2022-08-05T13:41:32.000Z</time>
      </trkpt>
      <trkpt lat="49.28376" lon="-0.21841">
        <ele>8.814143</ele>
        <time>2022-08-05T13:41:33.000Z</time>
      </trkpt>
      <trkpt lat="49.28375" lon="-0.21834">
        <ele>8.795351</ele>
        <time>2022-08-05T13:41:34.000Z</time>
      </trkpt>
      <trkpt lat="49.28375" lon="-0.21827">
        <ele>8.777272</ele>
        <time>2022-08-05T13:41:35.000Z</time>
      </trkpt>
      <trkpt lat="49.28374" lon="-0.21821">
        <ele>8.760478</ele>
        <time>2022-08-05T13:41:36.000Z</time>
      </trkpt>
      <trkpt lat="49.28375" lon="-0.21814">
        <ele>8.743154</ele>
        <time>2022-08-05T13:41:37.000Z</time>
      </trkpt>
      <trkpt lat="49.28376" lon="-0.21808">
        <ele>8.725657</ele>
        <time>2022-08-05T13:41:38.000Z</time>
      </trkpt>
      <trkpt lat="49.28377" lon="-0.21802">
        <ele>8.709646</ele>
        <time>2022-08-05T13:41:39.000Z</time>
      </trkpt>
      <trkpt lat="49.28379" lon="-0.21797">
        <ele>8.694592</ele>
        <time>2022-08-05T13:41:40.000Z</time>
      </trkpt>
      <trkpt lat="49.28381" lon="-0.21792">
        <ele>8.679664</ele>
        <time>2022-08-05T13:41:41.000Z</time>
      </trkpt>
      <trkpt lat="49.28383" lon="-0.21788">
        <ele>8.664284</ele>
        <time>2022-08-05T13:41:42.000Z</time>
      </trkpt>
      <trkpt lat="49.28386" lon="-0.21783">
        <ele>8.647084</ele>
        <time>2022-08-05T13:41:43.000Z</time>
      </trkpt>
      <trkpt lat="49.28388" lon="-0.21778">
        <ele>8.631102</ele>
        <time>2022-08-05T13:41:44.000Z</time>
      </trkpt>
      <trkpt lat="49.2839" lon="-0.21774">
        <ele>8.615937</ele>
        <time>2022-08-05T13:41:45.000Z</time>
      </trkpt>
      <trkpt lat="49.28392" lon="-0.21769">
        <ele>8.600782</ele>
        <time>2022-08-05T13:41:46.000Z</time>
      </trkpt>
      <trkpt lat="49.28394" lon="-0.21764">
        <ele>8.585397</ele>
        <time>2022-08-05T13:41:47.000Z</time>
      </trkpt>
      <trkpt lat="49.28396" lon="-0.2176">
        <ele>8.572797</ele>
        <time>2022-08-05T13:41:48.000Z</time>
      </trkpt>
      <trkpt lat="49.28396" lon="-0.21754">
        <ele>8.556592</ele>
        <time>2022-08-05T13:41:49.000Z</time>
      </trkpt>
      <trkpt lat="49.28396" lon="-0.21748">
        <ele>8.542767</ele>
        <time>2022-08-05T13:41:50.000Z</time>
      </trkpt>
      <trkpt lat="49.28396" lon="-0.21743">
        <ele>8.527281</ele>
        <time>2022-08-05T13:41:51.000Z</time>
      </trkpt>
      <trkpt lat="49.28396" lon="-0.21738">
        <ele>8.510024</ele>
        <time>2022-08-05T13:41:52.000Z</time>
      </trkpt>
      <trkpt lat="49.28395" lon="-0.21733">
        <ele>8.49243</ele>
        <time>2022-08-05T13:41:53.000Z</time>
      </trkpt>
      <trkpt lat="49.28395" lon="-0.21728">
        <ele>8.473637</ele>
        <time>2022-08-05T13:41:54.000Z</time>
      </trkpt>
      <trkpt lat="49.28395" lon="-0.21722">
        <ele>8.453846</ele>
        <time>2022-08-05T13:41:55.000Z</time>
      </trkpt>
      <trkpt lat="49.28396" lon="-0.21715">
        <ele>8.431053</ele>
        <time>2022-08-05T13:41:56.000Z</time>
      </trkpt>
      <trkpt lat="49.28397" lon="-0.21708">
        <ele>8.407187</ele>
        <time>2022-08-05T13:41:57.000Z</time>
      </trkpt>
      <trkpt lat="49.28397" lon="-0.217">
        <ele>8.381052</ele>
        <time>2022-08-05T13:41:58.000Z</time>
      </trkpt>
      <trkpt lat="49.28397" lon="-0.21693">
        <ele>8.355438</ele>
        <time>2022-08-05T13:41:59.000Z</time>
      </trkpt>
      <trkpt lat="49.28397" lon="-0.21685">
        <ele>8.328634</ele>
        <time>2022-08-05T13:42:00.000Z</time>
      </trkpt>
      <trkpt lat="49.28396" lon="-0.21677">
        <ele>8.3031</ele>
        <time>2022-08-05T13:42:01.000Z</time>
      </trkpt>
      <trkpt lat="49.28395" lon="-0.2167">
        <ele>8.278303</ele>
        <time>2022-08-05T13:42:02.000Z</time>
      </trkpt>
      <trkpt lat="49.28394" lon="-0.21663">
        <ele>8.253774</ele>
        <time>2022-08-05T13:42:03.000Z</time>
      </trkpt>
      <trkpt lat="49.28393" lon="-0.21656">
        <ele>8.22998</ele>
        <time>2022-08-05T13:42:04.000Z</time>
      </trkpt>
      <trkpt lat="49.28393" lon="-0.21649">
        <ele>8.2074</ele>
        <time>2022-08-05T13:42:05.000Z</time>
      </trkpt>
      <trkpt lat="49.28393" lon="-0.21644">
        <ele>8.189538</ele>
        <time>2022-08-05T13:42:06.000Z</time>
      </trkpt>
      <trkpt lat="49.28394" lon="-0.21636">
        <ele>8.162178</ele>
        <time>2022-08-05T13:42:07.000Z</time>
      </trkpt>
      <trkpt lat="49.28396" lon="-0.21629">
        <ele>8.13862</ele>
        <time>2022-08-05T13:42:08.000Z</time>
      </trkpt>
      <trkpt lat="49.28397" lon="-0.21623">
        <ele>8.115835</ele>
        <time>2022-08-05T13:42:09.000Z</time>
      </trkpt>
      <trkpt lat="49.28398" lon="-0.21616">
        <ele>8.092277</ele>
        <time>2022-08-05T13:42:10.000Z</time>
      </trkpt>
      <trkpt lat="49.284" lon="-0.2161">
        <ele>8.067964</ele>
        <time>2022-08-05T13:42:11.000Z</time>
      </trkpt>
      <trkpt lat="49.28403" lon="-0.21603">
        <ele>8.041549</ele>
        <time>2022-08-05T13:42:12.000Z</time>
      </trkpt>
      <trkpt lat="49.28405" lon="-0.21596">
        <ele>8.015374</ele>
        <time>2022-08-05T13:42:13.000Z</time>
      </trkpt>
      <trkpt lat="49.28406" lon="-0.21589">
        <ele>7.989821</ele>
        <time>2022-08-05T13:42:14.000Z</time>
      </trkpt>
      <trkpt lat="49.28408" lon="-0.21582">
        <ele>7.964269</ele>
        <time>2022-08-05T13:42:15.000Z</time>
      </trkpt>
      <trkpt lat="49.2841" lon="-0.21574">
        <ele>7.938116</ele>
        <time>2022-08-05T13:42:16.000Z</time>
      </trkpt>
      <trkpt lat="49.2841" lon="-0.21566">
        <ele>7.911981</ele>
        <time>2022-08-05T13:42:17.000Z</time>
      </trkpt>
      <trkpt lat="49.28411" lon="-0.21559">
        <ele>7.885446</ele>
        <time>2022-08-05T13:42:18.000Z</time>
      </trkpt>
      <trkpt lat="49.28411" lon="-0.21551">
        <ele>7.85844</ele>
        <time>2022-08-05T13:42:19.000Z</time>
      </trkpt>
      <trkpt lat="49.28412" lon="-0.21543">
        <ele>7.831301</ele>
        <time>2022-08-05T13:42:20.000Z</time>
      </trkpt>
      <trkpt lat="49.28413" lon="-0.21535">
        <ele>7.803515</ele>
        <time>2022-08-05T13:42:21.000Z</time>
      </trkpt>
      <trkpt lat="49.28414" lon="-0.21527">
        <ele>7.776725</ele>
        <time>2022-08-05T13:42:22.000Z</time>
      </trkpt>
      <trkpt lat="49.28415" lon="-0.21519">
        <ele>7.74894</ele>
        <time>2022-08-05T13:42:23.000Z</time>
      </trkpt>
      <trkpt lat="49.28416" lon="-0.21511">
        <ele>7.721801</ele>
        <time>2022-08-05T13:42:24.000Z</time>
      </trkpt>
      <trkpt lat="49.28417" lon="-0.21503">
        <ele>7.695341</ele>
        <time>2022-08-05T13:42:25.000Z</time>
      </trkpt>
      <trkpt lat="49.28418" lon="-0.21496">
        <ele>7.669875</ele>
        <time>2022-08-05T13:42:26.000Z</time>
      </trkpt>
      <trkpt lat="49.28419" lon="-0.21489">
        <ele>7.645994</ele>
        <time>2022-08-05T13:42:27.000Z</time>
      </trkpt>
      <trkpt lat="49.2842" lon="-0.21483">
        <ele>7.627211</ele>
        <time>2022-08-05T13:42:28.000Z</time>
      </trkpt>
      <trkpt lat="49.28422" lon="-0.21477">
        <ele>7.606495</ele>
        <time>2022-08-05T13:42:29.000Z</time>
      </trkpt>
      <trkpt lat="49.28423" lon="-0.21468">
        <ele>7.599404</ele>
        <time>2022-08-05T13:42:30.000Z</time>
      </trkpt>
      <trkpt lat="49.28425" lon="-0.21461">
        <ele>7.593192</ele>
        <time>2022-08-05T13:42:31.000Z</time>
      </trkpt>
      <trkpt lat="49.28427" lon="-0.21454">
        <ele>7.586981</ele>
        <time>2022-08-05T13:42:32.000Z</time>
      </trkpt>
      <trkpt lat="49.28429" lon="-0.21447">
        <ele>7.580516</ele>
        <time>2022-08-05T13:42:33.000Z</time>
      </trkpt>
      <trkpt lat="49.2843" lon="-0.21439">
        <ele>7.574129</ele>
        <time>2022-08-05T13:42:34.000Z</time>
      </trkpt>
      <trkpt lat="49.28432" lon="-0.21432">
        <ele>7.567975</ele>
        <time>2022-08-05T13:42:35.000Z</time>
      </trkpt>
      <trkpt lat="49.28434" lon="-0.21425">
        <ele>7.561743</ele>
        <time>2022-08-05T13:42:36.000Z</time>
      </trkpt>
      <trkpt lat="49.28435" lon="-0.21418">
        <ele>7.55578</ele>
        <time>2022-08-05T13:42:37.000Z</time>
      </trkpt>
      <trkpt lat="49.28436" lon="-0.21412">
        <ele>7.55021</ele>
        <time>2022-08-05T13:42:38.000Z</time>
      </trkpt>
      <trkpt lat="49.28437" lon="-0.21405">
        <ele>7.544676</ele>
        <time>2022-08-05T13:42:39.000Z</time>
      </trkpt>
      <trkpt lat="49.28438" lon="-0.21399">
        <ele>7.53944</ele>
        <time>2022-08-05T13:42:40.000Z</time>
      </trkpt>
      <trkpt lat="49.28439" lon="-0.21393">
        <ele>7.534105</ele>
        <time>2022-08-05T13:42:41.000Z</time>
      </trkpt>
      <trkpt lat="49.2844" lon="-0.21387">
        <ele>7.529175</ele>
        <time>2022-08-05T13:42:42.000Z</time>
      </trkpt>
      <trkpt lat="49.28441" lon="-0.21381">
        <ele>7.524382</ele>
        <time>2022-08-05T13:42:43.000Z</time>
      </trkpt>
      <trkpt lat="49.28442" lon="-0.21376">
        <ele>7.519895</ele>
        <time>2022-08-05T13:42:44.000Z</time>
      </trkpt>
      <trkpt lat="49.28442" lon="-0.21371">
        <ele>7.515619</ele>
        <time>2022-08-05T13:42:45.000Z</time>
      </trkpt>
      <trkpt lat="49.28443" lon="-0.21366">
        <ele>7.511589</ele>
        <time>2022-08-05T13:42:46.000Z</time>
      </trkpt>
      <trkpt lat="49.28443" lon="-0.21361">
        <ele>7.507575</ele>
        <time>2022-08-05T13:42:47.000Z</time>
      </trkpt>
      <trkpt lat="49.28443" lon="-0.21356">
        <ele>7.503478</ele>
        <time>2022-08-05T13:42:48.000Z</time>
      </trkpt>
      <trkpt lat="49.28442" lon="-0.21351">
        <ele>7.499449</ele>
        <time>2022-08-05T13:42:49.000Z</time>
      </trkpt>
      <trkpt lat="49.28442" lon="-0.21346">
        <ele>7.495498</ele>
        <time>2022-08-05T13:42:50.000Z</time>
      </trkpt>
      <trkpt lat="49.28442" lon="-0.21341">
        <ele>7.491484</ele>
        <time>2022-08-05T13:42:51.000Z</time>
      </trkpt>
      <trkpt lat="49.28442" lon="-0.21336">
        <ele>7.48737</ele>
        <time>2022-08-05T13:42:52.000Z</time>
      </trkpt>
      <trkpt lat="49.28444" lon="-0.21332">
        <ele>7.483263</ele>
        <time>2022-08-05T13:42:53.000Z</time>
      </trkpt>
      <trkpt lat="49.28445" lon="-0.21327">
        <ele>7.479136</ele>
        <time>2022-08-05T13:42:54.000Z</time>
      </trkpt>
      <trkpt lat="49.28447" lon="-0.21323">
        <ele>7.474744</ele>
        <time>2022-08-05T13:42:55.000Z</time>
      </trkpt>
      <trkpt lat="49.28449" lon="-0.21318">
        <ele>7.470546</ele>
        <time>2022-08-05T13:42:56.000Z</time>
      </trkpt>
      <trkpt lat="49.2845" lon="-0.21314">
        <ele>7.466438</ele>
        <time>2022-08-05T13:42:57.000Z</time>
      </trkpt>
      <trkpt lat="49.28452" lon="-0.21309">
        <ele>7.462095</ele>
        <time>2022-08-05T13:42:58.000Z</time>
      </trkpt>
      <trkpt lat="49.28453" lon="-0.21304">
        <ele>7.457565</ele>
        <time>2022-08-05T13:42:59.000Z</time>
      </trkpt>
      <trkpt lat="49.28455" lon="-0.213">
        <ele>7.453294</ele>
        <time>2022-08-05T13:43:00.000Z</time>
      </trkpt>
      <trkpt lat="49.28457" lon="-0.21295">
        <ele>7.448951</ele>
        <time>2022-08-05T13:43:01.000Z</time>
      </trkpt>
      <trkpt lat="49.28458" lon="-0.2129">
        <ele>7.444822</ele>
        <time>2022-08-05T13:43:02.000Z</time>
      </trkpt>
      <trkpt lat="49.28459" lon="-0.21285">
        <ele>7.44026</ele>
        <time>2022-08-05T13:43:03.000Z</time>
      </trkpt>
      <trkpt lat="49.28459" lon="-0.2128">
        <ele>7.435902</ele>
        <time>2022-08-05T13:43:04.000Z</time>
      </trkpt>
      <trkpt lat="49.2846" lon="-0.21275">
        <ele>7.431625</ele>
        <time>2022-08-05T13:43:05.000Z</time>
      </trkpt>
      <trkpt lat="49.28459" lon="-0.2127">
        <ele>7.427511</ele>
        <time>2022-08-05T13:43:06.000Z</time>
      </trkpt>
      <trkpt lat="49.28459" lon="-0.21265">
        <ele>7.423398</ele>
        <time>2022-08-05T13:43:07.000Z</time>
      </trkpt>
      <trkpt lat="49.28458" lon="-0.2126">
        <ele>7.419113</ele>
        <time>2022-08-05T13:43:08.000Z</time>
      </trkpt>
      <trkpt lat="49.28458" lon="-0.21255">
        <ele>7.415</ele>
        <time>2022-08-05T13:43:09.000Z</time>
      </trkpt>
      <trkpt lat="49.28457" lon="-0.21249">
        <ele>7.410641</ele>
        <time>2022-08-05T13:43:10.000Z</time>
      </trkpt>
      <trkpt lat="49.28457" lon="-0.21244">
        <ele>7.406217</ele>
        <time>2022-08-05T13:43:11.000Z</time>
      </trkpt>
      <trkpt lat="49.28458" lon="-0.21238">
        <ele>7.401695</ele>
        <time>2022-08-05T13:43:12.000Z</time>
      </trkpt>
      <trkpt lat="49.28458" lon="-0.21234">
        <ele>7.397989</ele>
        <time>2022-08-05T13:43:13.000Z</time>
      </trkpt>
      <trkpt lat="49.28459" lon="-0.21227">
        <ele>7.392341</ele>
        <time>2022-08-05T13:43:14.000Z</time>
      </trkpt>
      <trkpt lat="49.2846" lon="-0.21222">
        <ele>7.387611</ele>
        <time>2022-08-05T13:43:15.000Z</time>
      </trkpt>
      <trkpt lat="49.28461" lon="-0.21216">
        <ele>7.382431</ele>
        <time>2022-08-05T13:43:16.000Z</time>
      </trkpt>
      <trkpt lat="49.28462" lon="-0.2121">
        <ele>7.380954</ele>
        <time>2022-08-05T13:43:17.000Z</time>
      </trkpt>
      <trkpt lat="49.28463" lon="-0.21204">
        <ele>7.379786</ele>
        <time>2022-08-05T13:43:18.000Z</time>
      </trkpt>
      <trkpt lat="49.28465" lon="-0.21198">
        <ele>7.378572</ele>
        <time>2022-08-05T13:43:19.000Z</time>
      </trkpt>
      <trkpt lat="49.28465" lon="-0.21193">
        <ele>7.377465</ele>
        <time>2022-08-05T13:43:20.000Z</time>
      </trkpt>
      <trkpt lat="49.28465" lon="-0.21187">
        <ele>7.376346</ele>
        <time>2022-08-05T13:43:21.000Z</time>
      </trkpt>
      <trkpt lat="49.28465" lon="-0.21182">
        <ele>7.375301</ele>
        <time>2022-08-05T13:43:22.000Z</time>
      </trkpt>
      <trkpt lat="49.28466" lon="-0.21176">
        <ele>7.374216</ele>
        <time>2022-08-05T13:43:23.000Z</time>
      </trkpt>
      <trkpt lat="49.28466" lon="-0.21171">
        <ele>7.37323</ele>
        <time>2022-08-05T13:43:24.000Z</time>
      </trkpt>
      <trkpt lat="49.28467" lon="-0.21166">
        <ele>7.372165</ele>
        <time>2022-08-05T13:43:25.000Z</time>
      </trkpt>
      <trkpt lat="49.28468" lon="-0.21162">
        <ele>7.371359</ele>
        <time>2022-08-05T13:43:26.000Z</time>
      </trkpt>
      <trkpt lat="49.28469" lon="-0.21156">
        <ele>7.37018</ele>
        <time>2022-08-05T13:43:27.000Z</time>
      </trkpt>
      <trkpt lat="49.28469" lon="-0.21151">
        <ele>7.369218</ele>
        <time>2022-08-05T13:43:28.000Z</time>
      </trkpt>
      <trkpt lat="49.28469" lon="-0.21147">
        <ele>7.368329</ele>
        <time>2022-08-05T13:43:29.000Z</time>
      </trkpt>
      <trkpt lat="49.28469" lon="-0.21143">
        <ele>7.367616</ele>
        <time>2022-08-05T13:43:30.000Z</time>
      </trkpt>
      <trkpt lat="49.2847" lon="-0.21141">
        <ele>7.367046</ele>
        <time>2022-08-05T13:43:31.000Z</time>
      </trkpt>
      <trkpt lat="49.28473" lon="-0.21137">
        <ele>7.365982</ele>
        <time>2022-08-05T13:43:33.000Z</time>
      </trkpt>
      <trkpt lat="49.28474" lon="-0.21133">
        <ele>7.365104</ele>
        <time>2022-08-05T13:43:35.000Z</time>
      </trkpt>
      <trkpt lat="49.28475" lon="-0.2113">
        <ele>7.364354</ele>
        <time>2022-08-05T13:43:36.000Z</time>
      </trkpt>
      <trkpt lat="49.28475" lon="-0.21126">
        <ele>7.36368</ele>
        <time>2022-08-05T13:43:37.000Z</time>
      </trkpt>
      <trkpt lat="49.28475" lon="-0.21123">
        <ele>7.362992</ele>
        <time>2022-08-05T13:43:38.000Z</time>
      </trkpt>
      <trkpt lat="49.28475" lon="-0.21119">
        <ele>7.362246</ele>
        <time>2022-08-05T13:43:39.000Z</time>
      </trkpt>
      <trkpt lat="49.28476" lon="-0.21115">
        <ele>7.361439</ele>
        <time>2022-08-05T13:43:40.000Z</time>
      </trkpt>
      <trkpt lat="49.28477" lon="-0.21111">
        <ele>7.360588</ele>
        <time>2022-08-05T13:43:41.000Z</time>
      </trkpt>
      <trkpt lat="49.28477" lon="-0.21107">
        <ele>7.359777</ele>
        <time>2022-08-05T13:43:42.000Z</time>
      </trkpt>
      <trkpt lat="49.28477" lon="-0.21102">
        <ele>7.358894</ele>
        <time>2022-08-05T13:43:43.000Z</time>
      </trkpt>
      <trkpt lat="49.28478" lon="-0.21098">
        <ele>7.358041</ele>
        <time>2022-08-05T13:43:44.000Z</time>
      </trkpt>
      <trkpt lat="49.28478" lon="-0.21093">
        <ele>7.357042</ele>
        <time>2022-08-05T13:43:45.000Z</time>
      </trkpt>
      <trkpt lat="49.28479" lon="-0.21089">
        <ele>7.356154</ele>
        <time>2022-08-05T13:43:46.000Z</time>
      </trkpt>
      <trkpt lat="49.28479" lon="-0.21084">
        <ele>7.355265</ele>
        <time>2022-08-05T13:43:47.000Z</time>
      </trkpt>
      <trkpt lat="49.28479" lon="-0.21079">
        <ele>7.354315</ele>
        <time>2022-08-05T13:43:48.000Z</time>
      </trkpt>
      <trkpt lat="49.2848" lon="-0.21075">
        <ele>7.353485</ele>
        <time>2022-08-05T13:43:49.000Z</time>
      </trkpt>
      <trkpt lat="49.2848" lon="-0.21069">
        <ele>7.352303</ele>
        <time>2022-08-05T13:43:50.000Z</time>
      </trkpt>
      <trkpt lat="49.28481" lon="-0.21064">
        <ele>7.351275</ele>
        <time>2022-08-05T13:43:51.000Z</time>
      </trkpt>
      <trkpt lat="49.28482" lon="-0.21059">
        <ele>7.350277</ele>
        <time>2022-08-05T13:43:52.000Z</time>
      </trkpt>
      <trkpt lat="49.28482" lon="-0.21054">
        <ele>7.349294</ele>
        <time>2022-08-05T13:43:53.000Z</time>
      </trkpt>
      <trkpt lat="49.28482" lon="-0.21049">
        <ele>7.348347</ele>
        <time>2022-08-05T13:43:54.000Z</time>
      </trkpt>
      <trkpt lat="49.28483" lon="-0.21044">
        <ele>7.347339</ele>
        <time>2022-08-05T13:43:55.000Z</time>
      </trkpt>
      <trkpt lat="49.28483" lon="-0.2104">
        <ele>7.346435</ele>
        <time>2022-08-05T13:43:56.000Z</time>
      </trkpt>
      <trkpt lat="49.28483" lon="-0.21035">
        <ele>7.345507</ele>
        <time>2022-08-05T13:43:57.000Z</time>
      </trkpt>
      <trkpt lat="49.28484" lon="-0.21031">
        <ele>7.344644</ele>
        <time>2022-08-05T13:43:58.000Z</time>
      </trkpt>
      <trkpt lat="49.28485" lon="-0.21027">
        <ele>7.343792</ele>
        <time>2022-08-05T13:43:59.000Z</time>
      </trkpt>
      <trkpt lat="49.28485" lon="-0.21022">
        <ele>7.342962</ele>
        <time>2022-08-05T13:44:00.000Z</time>
      </trkpt>
      <trkpt lat="49.28485" lon="-0.21018">
        <ele>7.342156</ele>
        <time>2022-08-05T13:44:01.000Z</time>
      </trkpt>
      <trkpt lat="49.28485" lon="-0.21014">
        <ele>7.341311</ele>
        <time>2022-08-05T13:44:02.000Z</time>
      </trkpt>
      <trkpt lat="49.28486" lon="-0.2101">
        <ele>7.340477</ele>
        <time>2022-08-05T13:44:03.000Z</time>
      </trkpt>
      <trkpt lat="49.28486" lon="-0.21006">
        <ele>7.339652</ele>
        <time>2022-08-05T13:44:04.000Z</time>
      </trkpt>
      <trkpt lat="49.28487" lon="-0.21002">
        <ele>7.33888</ele>
        <time>2022-08-05T13:44:05.000Z</time>
      </trkpt>
      <trkpt lat="49.28487" lon="-0.20999">
        <ele>7.338226</ele>
        <time>2022-08-05T13:44:06.000Z</time>
      </trkpt>
      <trkpt lat="49.28487" lon="-0.20994">
        <ele>7.337342</ele>
        <time>2022-08-05T13:44:07.000Z</time>
      </trkpt>
      <trkpt lat="49.28487" lon="-0.2099">
        <ele>7.336615</ele>
        <time>2022-08-05T13:44:08.000Z</time>
      </trkpt>
      <trkpt lat="49.28488" lon="-0.20987">
        <ele>7.335896</ele>
        <time>2022-08-05T13:44:09.000Z</time>
      </trkpt>
      <trkpt lat="49.28488" lon="-0.20983">
        <ele>7.33515</ele>
        <time>2022-08-05T13:44:10.000Z</time>
      </trkpt>
      <trkpt lat="49.28488" lon="-0.20979">
        <ele>7.334398</ele>
        <time>2022-08-05T13:44:11.000Z</time>
      </trkpt>
      <trkpt lat="49.28489" lon="-0.20976">
        <ele>7.333649</ele>
        <time>2022-08-05T13:44:12.000Z</time>
      </trkpt>
      <trkpt lat="49.28489" lon="-0.20971">
        <ele>7.332757</ele>
        <time>2022-08-05T13:44:13.000Z</time>
      </trkpt>
      <trkpt lat="49.28489" lon="-0.20967">
        <ele>7.331927</ele>
        <time>2022-08-05T13:44:14.000Z</time>
      </trkpt>
      <trkpt lat="49.2849" lon="-0.20963">
        <ele>7.331214</ele>
        <time>2022-08-05T13:44:15.000Z</time>
      </trkpt>
      <trkpt lat="49.2849" lon="-0.20959">
        <ele>7.330448</ele>
        <time>2022-08-05T13:44:16.000Z</time>
      </trkpt>
      <trkpt lat="49.2849" lon="-0.20955">
        <ele>7.329662</ele>
        <time>2022-08-05T13:44:17.000Z</time>
      </trkpt>
      <trkpt lat="49.28491" lon="-0.20952">
        <ele>7.328947</ele>
        <time>2022-08-05T13:44:18.000Z</time>
      </trkpt>
      <trkpt lat="49.28491" lon="-0.20947">
        <ele>7.327961</ele>
        <time>2022-08-05T13:44:19.000Z</time>
      </trkpt>
      <trkpt lat="49.28492" lon="-0.20942">
        <ele>7.333462</ele>
        <time>2022-08-05T13:44:20.000Z</time>
      </trkpt>
      <trkpt lat="49.28493" lon="-0.20938">
        <ele>7.3398</ele>
        <time>2022-08-05T13:44:21.000Z</time>
      </trkpt>
      <trkpt lat="49.28493" lon="-0.20933">
        <ele>7.345924</ele>
        <time>2022-08-05T13:44:22.000Z</time>
      </trkpt>
      <trkpt lat="49.28494" lon="-0.20929">
        <ele>7.352092</ele>
        <time>2022-08-05T13:44:23.000Z</time>
      </trkpt>
      <trkpt lat="49.28495" lon="-0.20925">
        <ele>7.357233</ele>
        <time>2022-08-05T13:44:24.000Z</time>
      </trkpt>
      <trkpt lat="49.28495" lon="-0.2092">
        <ele>7.364704</ele>
        <time>2022-08-05T13:44:25.000Z</time>
      </trkpt>
      <trkpt lat="49.28496" lon="-0.20916">
        <ele>7.370599</ele>
        <time>2022-08-05T13:44:26.000Z</time>
      </trkpt>
      <trkpt lat="49.28497" lon="-0.20911">
        <ele>7.376365</ele>
        <time>2022-08-05T13:44:27.000Z</time>
      </trkpt>
      <trkpt lat="49.28497" lon="-0.20907">
        <ele>7.381965</ele>
        <time>2022-08-05T13:44:28.000Z</time>
      </trkpt>
      <trkpt lat="49.28497" lon="-0.20904">
        <ele>7.386632</ele>
        <time>2022-08-05T13:44:29.000Z</time>
      </trkpt>
      <trkpt lat="49.28497" lon="-0.20897">
        <ele>7.394898</ele>
        <time>2022-08-05T13:44:30.000Z</time>
      </trkpt>
      <trkpt lat="49.28497" lon="-0.20892">
        <ele>7.401717</ele>
        <time>2022-08-05T13:44:31.000Z</time>
      </trkpt>
      <trkpt lat="49.28498" lon="-0.20888">
        <ele>7.408146</ele>
        <time>2022-08-05T13:44:32.000Z</time>
      </trkpt>
      <trkpt lat="49.28499" lon="-0.20883">
        <ele>7.414864</ele>
        <time>2022-08-05T13:44:33.000Z</time>
      </trkpt>
      <trkpt lat="49.28499" lon="-0.20878">
        <ele>7.421161</ele>
        <time>2022-08-05T13:44:34.000Z</time>
      </trkpt>
      <trkpt lat="49.285" lon="-0.20874">
        <ele>7.427024</ele>
        <time>2022-08-05T13:44:35.000Z</time>
      </trkpt>
      <trkpt lat="49.28501" lon="-0.2087">
        <ele>7.432736</ele>
        <time>2022-08-05T13:44:36.000Z</time>
      </trkpt>
      <trkpt lat="49.28502" lon="-0.20866">
        <ele>7.438575</ele>
        <time>2022-08-05T13:44:37.000Z</time>
      </trkpt>
      <trkpt lat="49.28503" lon="-0.20862">
        <ele>7.443716</ele>
        <time>2022-08-05T13:44:38.000Z</time>
      </trkpt>
      <trkpt lat="49.28504" lon="-0.20859">
        <ele>7.44881</ele>
        <time>2022-08-05T13:44:39.000Z</time>
      </trkpt>
      <trkpt lat="49.28504" lon="-0.20855">
        <ele>7.453507</ele>
        <time>2022-08-05T13:44:40.000Z</time>
      </trkpt>
      <trkpt lat="49.28505" lon="-0.20852">
        <ele>7.457999</ele>
        <time>2022-08-05T13:44:41.000Z</time>
      </trkpt>
      <trkpt lat="49.28507" lon="-0.2085">
        <ele>7.461763</ele>
        <time>2022-08-05T13:44:42.000Z</time>
      </trkpt>
      <trkpt lat="49.28509" lon="-0.20848">
        <ele>7.46759</ele>
        <time>2022-08-05T13:44:44.000Z</time>
      </trkpt>
      <trkpt lat="49.28511" lon="-0.2085">
        <ele>7.471958</ele>
        <time>2022-08-05T13:44:46.000Z</time>
      </trkpt>
      <trkpt lat="49.28511" lon="-0.20853">
        <ele>7.476005</ele>
        <time>2022-08-05T13:44:48.000Z</time>
      </trkpt>
      <trkpt lat="49.28508" lon="-0.20853">
        <ele>7.48197</ele>
        <time>2022-08-05T13:44:50.000Z</time>
      </trkpt>
      <trkpt lat="49.28505" lon="-0.2085">
        <ele>7.488627</ele>
        <time>2022-08-05T13:44:52.000Z</time>
      </trkpt>
      <trkpt lat="49.28504" lon="-0.20845">
        <ele>7.495984</ele>
        <time>2022-08-05T13:44:54.000Z</time>
      </trkpt>
      <trkpt lat="49.28504" lon="-0.20842">
        <ele>7.499787</ele>
        <time>2022-08-05T13:44:55.000Z</time>
      </trkpt>
      <trkpt lat="49.28503" lon="-0.20837">
        <ele>7.50688</ele>
        <time>2022-08-05T13:44:57.000Z</time>
      </trkpt>
      <trkpt lat="49.28504" lon="-0.20834">
        <ele>7.510927</ele>
        <time>2022-08-05T13:44:58.000Z</time>
      </trkpt>
      <trkpt lat="49.28504" lon="-0.2083">
        <ele>7.515623</ele>
        <time>2022-08-05T13:44:59.000Z</time>
      </trkpt>
      <trkpt lat="49.28504" lon="-0.20827">
        <ele>7.52029</ele>
        <time>2022-08-05T13:45:00.000Z</time>
      </trkpt>
      <trkpt lat="49.28505" lon="-0.20824">
        <ele>7.524468</ele>
        <time>2022-08-05T13:45:01.000Z</time>
      </trkpt>
      <trkpt lat="49.28505" lon="-0.20819">
        <ele>7.530335</ele>
        <time>2022-08-05T13:45:02.000Z</time>
      </trkpt>
      <trkpt lat="49.28505" lon="-0.20815">
        <ele>7.535862</ele>
        <time>2022-08-05T13:45:03.000Z</time>
      </trkpt>
      <trkpt lat="49.28505" lon="-0.20811">
        <ele>7.541062</ele>
        <time>2022-08-05T13:45:04.000Z</time>
      </trkpt>
      <trkpt lat="49.28505" lon="-0.20808">
        <ele>7.545901</ele>
        <time>2022-08-05T13:45:05.000Z</time>
      </trkpt>
      <trkpt lat="49.28505" lon="-0.20804">
        <ele>7.551101</ele>
        <time>2022-08-05T13:45:06.000Z</time>
      </trkpt>
      <trkpt lat="49.28505" lon="-0.208">
        <ele>7.556435</ele>
        <time>2022-08-05T13:45:07.000Z</time>
      </trkpt>
      <trkpt lat="49.28505" lon="-0.20796">
        <ele>7.561768</ele>
        <time>2022-08-05T13:45:08.000Z</time>
      </trkpt>
      <trkpt lat="49.28506" lon="-0.20793">
        <ele>7.565946</ele>
        <time>2022-08-05T13:45:09.000Z</time>
      </trkpt>
      <trkpt lat="49.28506" lon="-0.20788">
        <ele>7.57207</ele>
        <time>2022-08-05T13:45:10.000Z</time>
      </trkpt>
      <trkpt lat="49.28507" lon="-0.20784">
        <ele>7.577334</ele>
        <time>2022-08-05T13:45:11.000Z</time>
      </trkpt>
      <trkpt lat="49.28507" lon="-0.20781">
        <ele>7.582438</ele>
        <time>2022-08-05T13:45:12.000Z</time>
      </trkpt>
      <trkpt lat="49.28508" lon="-0.20776">
        <ele>7.588332</ele>
        <time>2022-08-05T13:45:13.000Z</time>
      </trkpt>
      <trkpt lat="49.28509" lon="-0.20772">
        <ele>7.593983</ele>
        <time>2022-08-05T13:45:14.000Z</time>
      </trkpt>
      <trkpt lat="49.28509" lon="-0.20768">
        <ele>7.599219</ele>
        <time>2022-08-05T13:45:15.000Z</time>
      </trkpt>
      <trkpt lat="49.28509" lon="-0.20764">
        <ele>7.604686</ele>
        <time>2022-08-05T13:45:16.000Z</time>
      </trkpt>
      <trkpt lat="49.28509" lon="-0.2076">
        <ele>7.610319</ele>
        <time>2022-08-05T13:45:17.000Z</time>
      </trkpt>
      <trkpt lat="49.28509" lon="-0.20756">
        <ele>7.61635</ele>
        <time>2022-08-05T13:45:18.000Z</time>
      </trkpt>
      <trkpt lat="49.2851" lon="-0.20751">
        <ele>7.62201</ele>
        <time>2022-08-05T13:45:19.000Z</time>
      </trkpt>
      <trkpt lat="49.2851" lon="-0.20747">
        <ele>7.627612</ele>
        <time>2022-08-05T13:45:20.000Z</time>
      </trkpt>
      <trkpt lat="49.28511" lon="-0.20743">
        <ele>7.632981</ele>
        <time>2022-08-05T13:45:21.000Z</time>
      </trkpt>
      <trkpt lat="49.28511" lon="-0.2074">
        <ele>7.637914</ele>
        <time>2022-08-05T13:45:22.000Z</time>
      </trkpt>
      <trkpt lat="49.28512" lon="-0.20735">
        <ele>7.644506</ele>
        <time>2022-08-05T13:45:23.000Z</time>
      </trkpt>
      <trkpt lat="49.28513" lon="-0.2073">
        <ele>7.651806</ele>
        <time>2022-08-05T13:45:24.000Z</time>
      </trkpt>
      <trkpt lat="49.28514" lon="-0.20726">
        <ele>7.657539</ele>
        <time>2022-08-05T13:45:25.000Z</time>
      </trkpt>
      <trkpt lat="49.28515" lon="-0.20722">
        <ele>7.662909</ele>
        <time>2022-08-05T13:45:26.000Z</time>
      </trkpt>
      <trkpt lat="49.28516" lon="-0.20719">
        <ele>7.666712</ele>
        <time>2022-08-05T13:45:27.000Z</time>
      </trkpt>
      <trkpt lat="49.28517" lon="-0.20716">
        <ele>7.671626</ele>
        <time>2022-08-05T13:45:28.000Z</time>
      </trkpt>
      <trkpt lat="49.28518" lon="-0.20714">
        <ele>7.675536</ele>
        <time>2022-08-05T13:45:29.000Z</time>
      </trkpt>
      <trkpt lat="49.28519" lon="-0.20711">
        <ele>7.679579</ele>
        <time>2022-08-05T13:45:30.000Z</time>
      </trkpt>
      <trkpt lat="49.2852" lon="-0.20708">
        <ele>7.68431</ele>
        <time>2022-08-05T13:45:31.000Z</time>
      </trkpt>
      <trkpt lat="49.2852" lon="-0.20704">
        <ele>7.689523</ele>
        <time>2022-08-05T13:45:32.000Z</time>
      </trkpt>
      <trkpt lat="49.28521" lon="-0.207">
        <ele>7.694626</ele>
        <time>2022-08-05T13:45:33.000Z</time>
      </trkpt>
      <trkpt lat="49.28521" lon="-0.20696">
        <ele>7.711304</ele>
        <time>2022-08-05T13:45:34.000Z</time>
      </trkpt>
      <trkpt lat="49.28521" lon="-0.20692">
        <ele>7.729346</ele>
        <time>2022-08-05T13:45:35.000Z</time>
      </trkpt>
      <trkpt lat="49.28522" lon="-0.20687">
        <ele>7.748218</ele>
        <time>2022-08-05T13:45:36.000Z</time>
      </trkpt>
      <trkpt lat="49.28522" lon="-0.20683">
        <ele>7.766564</ele>
        <time>2022-08-05T13:45:37.000Z</time>
      </trkpt>
      <trkpt lat="49.28523" lon="-0.20679">
        <ele>7.784272</ele>
        <time>2022-08-05T13:45:38.000Z</time>
      </trkpt>
      <trkpt lat="49.28523" lon="-0.20674">
        <ele>7.803144</ele>
        <time>2022-08-05T13:45:39.000Z</time>
      </trkpt>
      <trkpt lat="49.28523" lon="-0.2067">
        <ele>7.818581</ele>
        <time>2022-08-05T13:45:40.000Z</time>
      </trkpt>
      <trkpt lat="49.28524" lon="-0.20665">
        <ele>7.841846</ele>
        <time>2022-08-05T13:45:41.000Z</time>
      </trkpt>
      <trkpt lat="49.28525" lon="-0.2066">
        <ele>7.862868</ele>
        <time>2022-08-05T13:45:42.000Z</time>
      </trkpt>
      <trkpt lat="49.28525" lon="-0.20655">
        <ele>7.88257</ele>
        <time>2022-08-05T13:45:43.000Z</time>
      </trkpt>
      <trkpt lat="49.28525" lon="-0.20652">
        <ele>7.897712</ele>
        <time>2022-08-05T13:45:44.000Z</time>
      </trkpt>
      <trkpt lat="49.28526" lon="-0.20647">
        <ele>7.918337</ele>
        <time>2022-08-05T13:45:45.000Z</time>
      </trkpt>
      <trkpt lat="49.28526" lon="-0.20642">
        <ele>7.940532</ele>
        <time>2022-08-05T13:45:46.000Z</time>
      </trkpt>
      <trkpt lat="49.28527" lon="-0.20637">
        <ele>7.960235</ele>
        <time>2022-08-05T13:45:47.000Z</time>
      </trkpt>
      <trkpt lat="49.28527" lon="-0.20633">
        <ele>7.979535</ele>
        <time>2022-08-05T13:45:48.000Z</time>
      </trkpt>
      <trkpt lat="49.28528" lon="-0.20628">
        <ele>7.998407</ele>
        <time>2022-08-05T13:45:49.000Z</time>
      </trkpt>
      <trkpt lat="49.28528" lon="-0.20624">
        <ele>8.016753</ele>
        <time>2022-08-05T13:45:50.000Z</time>
      </trkpt>
      <trkpt lat="49.28529" lon="-0.20619">
        <ele>8.03521</ele>
        <time>2022-08-05T13:45:51.000Z</time>
      </trkpt>
      <trkpt lat="49.28529" lon="-0.20615">
        <ele>8.052093</ele>
        <time>2022-08-05T13:45:52.000Z</time>
      </trkpt>
      <trkpt lat="49.28529" lon="-0.20612">
        <ele>8.066821</ele>
        <time>2022-08-05T13:45:53.000Z</time>
      </trkpt>
      <trkpt lat="49.2853" lon="-0.20606">
        <ele>8.091927</ele>
        <time>2022-08-05T13:45:55.000Z</time>
      </trkpt>
      <trkpt lat="49.2853" lon="-0.20603">
        <ele>8.104443</ele>
        <time>2022-08-05T13:45:56.000Z</time>
      </trkpt>
      <trkpt lat="49.2853" lon="-0.206">
        <ele>8.118735</ele>
        <time>2022-08-05T13:45:57.000Z</time>
      </trkpt>
      <trkpt lat="49.28531" lon="-0.20597">
        <ele>8.130694</ele>
        <time>2022-08-05T13:45:58.000Z</time>
      </trkpt>
      <trkpt lat="49.28531" lon="-0.20593">
        <ele>8.148632</ele>
        <time>2022-08-05T13:45:59.000Z</time>
      </trkpt>
      <trkpt lat="49.28532" lon="-0.20589">
        <ele>8.164187</ele>
        <time>2022-08-05T13:46:00.000Z</time>
      </trkpt>
      <trkpt lat="49.28532" lon="-0.20585">
        <ele>8.17986</ele>
        <time>2022-08-05T13:46:01.000Z</time>
      </trkpt>
      <trkpt lat="49.28533" lon="-0.20578">
        <ele>8.210971</ele>
        <time>2022-08-05T13:46:03.000Z</time>
      </trkpt>
      <trkpt lat="49.28533" lon="-0.20574">
        <ele>8.22694</ele>
        <time>2022-08-05T13:46:04.000Z</time>
      </trkpt>
      <trkpt lat="49.28533" lon="-0.2057">
        <ele>8.244567</ele>
        <time>2022-08-05T13:46:05.000Z</time>
      </trkpt>
      <trkpt lat="49.28534" lon="-0.20566">
        <ele>8.263613</ele>
        <time>2022-08-05T13:46:06.000Z</time>
      </trkpt>
      <trkpt lat="49.28534" lon="-0.20562">
        <ele>8.278215</ele>
        <time>2022-08-05T13:46:07.000Z</time>
      </trkpt>
      <trkpt lat="49.28535" lon="-0.20557">
        <ele>8.299995</ele>
        <time>2022-08-05T13:46:08.000Z</time>
      </trkpt>
      <trkpt lat="49.28535" lon="-0.20553">
        <ele>8.318037</ele>
        <time>2022-08-05T13:46:09.000Z</time>
      </trkpt>
      <trkpt lat="49.28535" lon="-0.20548">
        <ele>8.336158</ele>
        <time>2022-08-05T13:46:10.000Z</time>
      </trkpt>
      <trkpt lat="49.28536" lon="-0.20545">
        <ele>8.350853</ele>
        <time>2022-08-05T13:46:11.000Z</time>
      </trkpt>
      <trkpt lat="49.28537" lon="-0.2054">
        <ele>8.372063</ele>
        <time>2022-08-05T13:46:12.000Z</time>
      </trkpt>
      <trkpt lat="49.28537" lon="-0.20536">
        <ele>8.389359</ele>
        <time>2022-08-05T13:46:13.000Z</time>
      </trkpt>
      <trkpt lat="49.28537" lon="-0.20532">
        <ele>8.406986</ele>
        <time>2022-08-05T13:46:14.000Z</time>
      </trkpt>
      <trkpt lat="49.28538" lon="-0.20527">
        <ele>8.42543</ele>
        <time>2022-08-05T13:46:15.000Z</time>
      </trkpt>
      <trkpt lat="49.28539" lon="-0.20524">
        <ele>8.441489</ele>
        <time>2022-08-05T13:46:16.000Z</time>
      </trkpt>
      <trkpt lat="49.28539" lon="-0.20518">
        <ele>8.46352</ele>
        <time>2022-08-05T13:46:17.000Z</time>
      </trkpt>
      <trkpt lat="49.2854" lon="-0.20514">
        <ele>8.480733</ele>
        <time>2022-08-05T13:46:18.000Z</time>
      </trkpt>
      <trkpt lat="49.2854" lon="-0.2051">
        <ele>8.49909</ele>
        <time>2022-08-05T13:46:19.000Z</time>
      </trkpt>
      <trkpt lat="49.2854" lon="-0.20506">
        <ele>8.514763</ele>
        <time>2022-08-05T13:46:20.000Z</time>
      </trkpt>
      <trkpt lat="49.28541" lon="-0.20501">
        <ele>8.536794</ele>
        <time>2022-08-05T13:46:21.000Z</time>
      </trkpt>
      <trkpt lat="49.28541" lon="-0.20496">
        <ele>8.556496</ele>
        <time>2022-08-05T13:46:22.000Z</time>
      </trkpt>
      <trkpt lat="49.28542" lon="-0.20492">
        <ele>8.576725</ele>
        <time>2022-08-05T13:46:23.000Z</time>
      </trkpt>
      <trkpt lat="49.28542" lon="-0.20487">
        <ele>8.597674</ele>
        <time>2022-08-05T13:46:24.000Z</time>
      </trkpt>
      <trkpt lat="49.28543" lon="-0.20482">
        <ele>8.618206</ele>
        <time>2022-08-05T13:46:25.000Z</time>
      </trkpt>
      <trkpt lat="49.28543" lon="-0.20477">
        <ele>8.637493</ele>
        <time>2022-08-05T13:46:26.000Z</time>
      </trkpt>
      <trkpt lat="49.28544" lon="-0.20474">
        <ele>8.654203</ele>
        <time>2022-08-05T13:46:27.000Z</time>
      </trkpt>
      <trkpt lat="49.28544" lon="-0.20468">
        <ele>8.67806</ele>
        <time>2022-08-05T13:46:28.000Z</time>
      </trkpt>
      <trkpt lat="49.28545" lon="-0.20463">
        <ele>8.696932</ele>
        <time>2022-08-05T13:46:29.000Z</time>
      </trkpt>
      <trkpt lat="49.28545" lon="-0.20459">
        <ele>8.716294</ele>
        <time>2022-08-05T13:46:30.000Z</time>
      </trkpt>
      <trkpt lat="49.28546" lon="-0.20454">
        <ele>8.73593</ele>
        <time>2022-08-05T13:46:31.000Z</time>
      </trkpt>
      <trkpt lat="49.28546" lon="-0.2045">
        <ele>8.754802</ele>
        <time>2022-08-05T13:46:32.000Z</time>
      </trkpt>
      <trkpt lat="49.28547" lon="-0.20445">
        <ele>8.77375</ele>
        <time>2022-08-05T13:46:33.000Z</time>
      </trkpt>
      <trkpt lat="49.28547" lon="-0.20441">
        <ele>8.792622</ele>
        <time>2022-08-05T13:46:34.000Z</time>
      </trkpt>
      <trkpt lat="49.28548" lon="-0.20436">
        <ele>8.811784</ele>
        <time>2022-08-05T13:46:35.000Z</time>
      </trkpt>
      <trkpt lat="49.28548" lon="-0.20432">
        <ele>8.830141</ele>
        <time>2022-08-05T13:46:36.000Z</time>
      </trkpt>
      <trkpt lat="49.28548" lon="-0.20428">
        <ele>8.847255</ele>
        <time>2022-08-05T13:46:37.000Z</time>
      </trkpt>
      <trkpt lat="49.28549" lon="-0.20423">
        <ele>8.856594</ele>
        <time>2022-08-05T13:46:38.000Z</time>
      </trkpt>
      <trkpt lat="49.28549" lon="-0.20419">
        <ele>8.865933</ele>
        <time>2022-08-05T13:46:39.000Z</time>
      </trkpt>
      <trkpt lat="49.28549" lon="-0.20414">
        <ele>8.875012</ele>
        <time>2022-08-05T13:46:40.000Z</time>
      </trkpt>
      <trkpt lat="49.2855" lon="-0.2041">
        <ele>8.884363</ele>
        <time>2022-08-05T13:46:41.000Z</time>
      </trkpt>
      <trkpt lat="49.2855" lon="-0.20406">
        <ele>8.893292</ele>
        <time>2022-08-05T13:46:42.000Z</time>
      </trkpt>
      <trkpt lat="49.2855" lon="-0.20401">
        <ele>8.902583</ele>
        <time>2022-08-05T13:46:43.000Z</time>
      </trkpt>
      <trkpt lat="49.2855" lon="-0.20397">
        <ele>8.911873</ele>
        <time>2022-08-05T13:46:44.000Z</time>
      </trkpt>
      <trkpt lat="49.28549" lon="-0.20392">
        <ele>8.921472</ele>
        <time>2022-08-05T13:46:45.000Z</time>
      </trkpt>
      <trkpt lat="49.28549" lon="-0.20388">
        <ele>8.930551</ele>
        <time>2022-08-05T13:46:46.000Z</time>
      </trkpt>
      <trkpt lat="49.28548" lon="-0.20384">
        <ele>8.939976</ele>
        <time>2022-08-05T13:46:47.000Z</time>
      </trkpt>
      <trkpt lat="49.28547" lon="-0.20379">
        <ele>8.949315</ele>
        <time>2022-08-05T13:46:48.000Z</time>
      </trkpt>
      <trkpt lat="49.28548" lon="-0.20375">
        <ele>8.958449</ele>
        <time>2022-08-05T13:46:49.000Z</time>
      </trkpt>
      <trkpt lat="49.28548" lon="-0.20371">
        <ele>8.967199</ele>
        <time>2022-08-05T13:46:50.000Z</time>
      </trkpt>
      <trkpt lat="49.28548" lon="-0.20367">
        <ele>8.975251</ele>
        <time>2022-08-05T13:46:51.000Z</time>
      </trkpt>
      <trkpt lat="49.28548" lon="-0.20363">
        <ele>8.983097</ele>
        <time>2022-08-05T13:46:52.000Z</time>
      </trkpt>
      <trkpt lat="49.28547" lon="-0.2036">
        <ele>8.990053</ele>
        <time>2022-08-05T13:46:53.000Z</time>
      </trkpt>
      <trkpt lat="49.28546" lon="-0.20355">
        <ele>9.00026</ele>
        <time>2022-08-05T13:46:55.000Z</time>
      </trkpt>
      <trkpt lat="49.28545" lon="-0.20352">
        <ele>9.007078</ele>
        <time>2022-08-05T13:46:56.000Z</time>
      </trkpt>
      <trkpt lat="49.28545" lon="-0.20349">
        <ele>9.013891</ele>
        <time>2022-08-05T13:46:57.000Z</time>
      </trkpt>
      <trkpt lat="49.28545" lon="-0.20345">
        <ele>9.02153</ele>
        <time>2022-08-05T13:46:58.000Z</time>
      </trkpt>
      <trkpt lat="49.28546" lon="-0.20342">
        <ele>9.029602</ele>
        <time>2022-08-05T13:46:59.000Z</time>
      </trkpt>
      <trkpt lat="49.28546" lon="-0.20338">
        <ele>9.037505</ele>
        <time>2022-08-05T13:47:00.000Z</time>
      </trkpt>
      <trkpt lat="49.28546" lon="-0.20334">
        <ele>9.045557</ele>
        <time>2022-08-05T13:47:01.000Z</time>
      </trkpt>
      <trkpt lat="49.28547" lon="-0.2033">
        <ele>9.054108</ele>
        <time>2022-08-05T13:47:02.000Z</time>
      </trkpt>
      <trkpt lat="49.28548" lon="-0.20326">
        <ele>9.063187</ele>
        <time>2022-08-05T13:47:03.000Z</time>
      </trkpt>
      <trkpt lat="49.28549" lon="-0.20321">
        <ele>9.073348</ele>
        <time>2022-08-05T13:47:04.000Z</time>
      </trkpt>
      <trkpt lat="49.2855" lon="-0.20316">
        <ele>9.084461</ele>
        <time>2022-08-05T13:47:05.000Z</time>
      </trkpt>
      <trkpt lat="49.28551" lon="-0.20311">
        <ele>9.094552</ele>
        <time>2022-08-05T13:47:06.000Z</time>
      </trkpt>
      <trkpt lat="49.28551" lon="-0.20306">
        <ele>9.105919</ele>
        <time>2022-08-05T13:47:07.000Z</time>
      </trkpt>
      <trkpt lat="49.28553" lon="-0.20301">
        <ele>9.117977</ele>
        <time>2022-08-05T13:47:08.000Z</time>
      </trkpt>
      <trkpt lat="49.28554" lon="-0.20295">
        <ele>9.129951</ele>
        <time>2022-08-05T13:47:09.000Z</time>
      </trkpt>
      <trkpt lat="49.28555" lon="-0.20291">
        <ele>9.139327</ele>
        <time>2022-08-05T13:47:10.000Z</time>
      </trkpt>
      <trkpt lat="49.28555" lon="-0.20284">
        <ele>9.153811</ele>
        <time>2022-08-05T13:47:11.000Z</time>
      </trkpt>
      <trkpt lat="49.28555" lon="-0.20278">
        <ele>9.166199</ele>
        <time>2022-08-05T13:47:12.000Z</time>
      </trkpt>
      <trkpt lat="49.28555" lon="-0.20272">
        <ele>9.178623</ele>
        <time>2022-08-05T13:47:13.000Z</time>
      </trkpt>
      <trkpt lat="49.28554" lon="-0.20266">
        <ele>9.190801</ele>
        <time>2022-08-05T13:47:14.000Z</time>
      </trkpt>
      <trkpt lat="49.28553" lon="-0.2026">
        <ele>9.202315</ele>
        <time>2022-08-05T13:47:15.000Z</time>
      </trkpt>
      <trkpt lat="49.28553" lon="-0.20255">
        <ele>9.212681</ele>
        <time>2022-08-05T13:47:16.000Z</time>
      </trkpt>
      <trkpt lat="49.28553" lon="-0.2025">
        <ele>9.223459</ele>
        <time>2022-08-05T13:47:17.000Z</time>
      </trkpt>
      <trkpt lat="49.28553" lon="-0.20246">
        <ele>9.232131</ele>
        <time>2022-08-05T13:47:18.000Z</time>
      </trkpt>
      <trkpt lat="49.28554" lon="-0.2024">
        <ele>9.244039</ele>
        <time>2022-08-05T13:47:19.000Z</time>
      </trkpt>
      <trkpt lat="49.28555" lon="-0.20236">
        <ele>9.252989</ele>
        <time>2022-08-05T13:47:20.000Z</time>
      </trkpt>
      <trkpt lat="49.28557" lon="-0.20233">
        <ele>9.261478</ele>
        <time>2022-08-05T13:47:21.000Z</time>
      </trkpt>
      <trkpt lat="49.28559" lon="-0.2023">
        <ele>9.271158</ele>
        <time>2022-08-05T13:47:23.000Z</time>
      </trkpt>
      <trkpt lat="49.28561" lon="-0.20232">
        <ele>9.277094</ele>
        <time>2022-08-05T13:47:25.000Z</time>
      </trkpt>
      <trkpt lat="49.28562" lon="-0.20234">
        <ele>9.283377</ele>
        <time>2022-08-05T13:47:27.000Z</time>
      </trkpt>
      <trkpt lat="49.28563" lon="-0.20238">
        <ele>9.292975</ele>
        <time>2022-08-05T13:47:29.000Z</time>
      </trkpt>
      <trkpt lat="49.28563" lon="-0.20241">
        <ele>9.298756</ele>
        <time>2022-08-05T13:47:30.000Z</time>
      </trkpt>
      <trkpt lat="49.28563" lon="-0.20244">
        <ele>9.305983</ele>
        <time>2022-08-05T13:47:31.000Z</time>
      </trkpt>
      <trkpt lat="49.28564" lon="-0.20248">
        <ele>9.314252</ele>
        <time>2022-08-05T13:47:32.000Z</time>
      </trkpt>
      <trkpt lat="49.28566" lon="-0.20251">
        <ele>9.323186</ele>
        <time>2022-08-05T13:47:33.000Z</time>
      </trkpt>
      <trkpt lat="49.28568" lon="-0.20253">
        <ele>9.331389</ele>
        <time>2022-08-05T13:47:34.000Z</time>
      </trkpt>
      <trkpt lat="49.28571" lon="-0.20254">
        <ele>9.338956</ele>
        <time>2022-08-05T13:47:35.000Z</time>
      </trkpt>
      <trkpt lat="49.28573" lon="-0.20255">
        <ele>9.346936</ele>
        <time>2022-08-05T13:47:36.000Z</time>
      </trkpt>
      <trkpt lat="49.28576" lon="-0.20255">
        <ele>9.356117</ele>
        <time>2022-08-05T13:47:37.000Z</time>
      </trkpt>
      <trkpt lat="49.28578" lon="-0.20254">
        <ele>9.363157</ele>
        <time>2022-08-05T13:47:38.000Z</time>
      </trkpt>
      <trkpt lat="49.28581" lon="-0.20254">
        <ele>9.371387</ele>
        <time>2022-08-05T13:47:39.000Z</time>
      </trkpt>
      <trkpt lat="49.28583" lon="-0.20255">
        <ele>9.378426</ele>
        <time>2022-08-05T13:47:40.000Z</time>
      </trkpt>
      <trkpt lat="49.28586" lon="-0.20255">
        <ele>9.387663</ele>
        <time>2022-08-05T13:47:41.000Z</time>
      </trkpt>
      <trkpt lat="49.28588" lon="-0.20256">
        <ele>9.395128</ele>
        <time>2022-08-05T13:47:42.000Z</time>
      </trkpt>
      <trkpt lat="49.2859" lon="-0.20257">
        <ele>9.40224</ele>
        <time>2022-08-05T13:47:43.000Z</time>
      </trkpt>
      <trkpt lat="49.28592" lon="-0.20257">
        <ele>9.408342</ele>
        <time>2022-08-05T13:47:44.000Z</time>
      </trkpt>
      <trkpt lat="49.28595" lon="-0.20258">
        <ele>9.414844</ele>
        <time>2022-08-05T13:47:46.000Z</time>
      </trkpt>
      <trkpt lat="49.28597" lon="-0.20258">
        <ele>9.413204</ele>
        <time>2022-08-05T13:47:49.000Z</time>
      </trkpt>
      <trkpt lat="49.28587" lon="-0.2026">
        <ele>9.404398</ele>
        <time>2022-08-05T13:49:07.000Z</time>
      </trkpt>
      <trkpt lat="49.28584" lon="-0.20258">
        <ele>9.401805</ele>
        <time>2022-08-05T13:49:08.000Z</time>
      </trkpt>
      <trkpt lat="49.28581" lon="-0.20257">
        <ele>9.398949</ele>
        <time>2022-08-05T13:49:09.000Z</time>
      </trkpt>
      <trkpt lat="49.28578" lon="-0.20257">
        <ele>9.396711</ele>
        <time>2022-08-05T13:49:10.000Z</time>
      </trkpt>
      <trkpt lat="49.28574" lon="-0.20256">
        <ele>9.393438</ele>
        <time>2022-08-05T13:49:11.000Z</time>
      </trkpt>
      <trkpt lat="49.28571" lon="-0.20256">
        <ele>9.390933</ele>
        <time>2022-08-05T13:49:12.000Z</time>
      </trkpt>
      <trkpt lat="49.28568" lon="-0.20255">
        <ele>9.38815</ele>
        <time>2022-08-05T13:49:13.000Z</time>
      </trkpt>
      <trkpt lat="49.28565" lon="-0.20253">
        <ele>9.385785</ele>
        <time>2022-08-05T13:49:14.000Z</time>
      </trkpt>
      <trkpt lat="49.28563" lon="-0.20251">
        <ele>9.383434</ele>
        <time>2022-08-05T13:49:15.000Z</time>
      </trkpt>
      <trkpt lat="49.28562" lon="-0.20248">
        <ele>9.381276</ele>
        <time>2022-08-05T13:49:16.000Z</time>
      </trkpt>
      <trkpt lat="49.28561" lon="-0.20244">
        <ele>9.378923</ele>
        <time>2022-08-05T13:49:17.000Z</time>
      </trkpt>
      <trkpt lat="49.28559" lon="-0.20241">
        <ele>9.376905</ele>
        <time>2022-08-05T13:49:18.000Z</time>
      </trkpt>
      <trkpt lat="49.28557" lon="-0.20237">
        <ele>9.373667</ele>
        <time>2022-08-05T13:49:20.000Z</time>
      </trkpt>
      <trkpt lat="49.28555" lon="-0.20235">
        <ele>9.372005</ele>
        <time>2022-08-05T13:49:21.000Z</time>
      </trkpt>
      <trkpt lat="49.28555" lon="-0.20232">
        <ele>9.370355</ele>
        <time>2022-08-05T13:49:22.000Z</time>
      </trkpt>
      <trkpt lat="49.28555" lon="-0.20228">
        <ele>9.368228</ele>
        <time>2022-08-05T13:49:23.000Z</time>
      </trkpt>
      <trkpt lat="49.28555" lon="-0.20224">
        <ele>9.365711</ele>
        <time>2022-08-05T13:49:24.000Z</time>
      </trkpt>
      <trkpt lat="49.28556" lon="-0.20219">
        <ele>9.363011</ele>
        <time>2022-08-05T13:49:25.000Z</time>
      </trkpt>
      <trkpt lat="49.28556" lon="-0.20215">
        <ele>9.360422</ele>
        <time>2022-08-05T13:49:26.000Z</time>
      </trkpt>
      <trkpt lat="49.28557" lon="-0.2021">
        <ele>9.357722</ele>
        <time>2022-08-05T13:49:27.000Z</time>
      </trkpt>
      <trkpt lat="49.28557" lon="-0.20205">
        <ele>9.354967</ele>
        <time>2022-08-05T13:49:28.000Z</time>
      </trkpt>
      <trkpt lat="49.28558" lon="-0.202">
        <ele>9.352057</ele>
        <time>2022-08-05T13:49:29.000Z</time>
      </trkpt>
      <trkpt lat="49.28559" lon="-0.20195">
        <ele>9.349101</ele>
        <time>2022-08-05T13:49:30.000Z</time>
      </trkpt>
      <trkpt lat="49.28559" lon="-0.20189">
        <ele>9.345963</ele>
        <time>2022-08-05T13:49:31.000Z</time>
      </trkpt>
      <trkpt lat="49.2856" lon="-0.20184">
        <ele>9.342789</ele>
        <time>2022-08-05T13:49:32.000Z</time>
      </trkpt>
      <trkpt lat="49.28561" lon="-0.20178">
        <ele>9.339376</ele>
        <time>2022-08-05T13:49:33.000Z</time>
      </trkpt>
      <trkpt lat="49.28561" lon="-0.20172">
        <ele>9.335961</ele>
        <time>2022-08-05T13:49:34.000Z</time>
      </trkpt>
      <trkpt lat="49.28561" lon="-0.20166">
        <ele>9.332602</ele>
        <time>2022-08-05T13:49:35.000Z</time>
      </trkpt>
      <trkpt lat="49.28561" lon="-0.2016">
        <ele>9.329243</ele>
        <time>2022-08-05T13:49:36.000Z</time>
      </trkpt>
      <trkpt lat="49.28561" lon="-0.20154">
        <ele>9.325755</ele>
        <time>2022-08-05T13:49:37.000Z</time>
      </trkpt>
      <trkpt lat="49.2856" lon="-0.20147">
        <ele>9.322191</ele>
        <time>2022-08-05T13:49:38.000Z</time>
      </trkpt>
      <trkpt lat="49.28559" lon="-0.20141">
        <ele>9.318571</ele>
        <time>2022-08-05T13:49:39.000Z</time>
      </trkpt>
      <trkpt lat="49.28559" lon="-0.20135">
        <ele>9.315103</ele>
        <time>2022-08-05T13:49:40.000Z</time>
      </trkpt>
      <trkpt lat="49.28558" lon="-0.20128">
        <ele>9.311511</ele>
        <time>2022-08-05T13:49:41.000Z</time>
      </trkpt>
      <trkpt lat="49.28558" lon="-0.20123">
        <ele>9.308533</ele>
        <time>2022-08-05T13:49:42.000Z</time>
      </trkpt>
      <trkpt lat="49.28558" lon="-0.20118">
        <ele>9.305845</ele>
        <time>2022-08-05T13:49:43.000Z</time>
      </trkpt>
      <trkpt lat="49.28558" lon="-0.20114">
        <ele>9.303382</ele>
        <time>2022-08-05T13:49:44.000Z</time>
      </trkpt>
      <trkpt lat="49.28558" lon="-0.2011">
        <ele>9.301087</ele>
        <time>2022-08-05T13:49:45.000Z</time>
      </trkpt>
      <trkpt lat="49.28558" lon="-0.20106">
        <ele>9.298847</ele>
        <time>2022-08-05T13:49:46.000Z</time>
      </trkpt>
      <trkpt lat="49.28558" lon="-0.20102">
        <ele>9.296649</ele>
        <time>2022-08-05T13:49:47.000Z</time>
      </trkpt>
      <trkpt lat="49.28558" lon="-0.20098">
        <ele>9.294409</ele>
        <time>2022-08-05T13:49:48.000Z</time>
      </trkpt>
      <trkpt lat="49.28559" lon="-0.20094">
        <ele>9.292099</ele>
        <time>2022-08-05T13:49:49.000Z</time>
      </trkpt>
      <trkpt lat="49.28559" lon="-0.2009">
        <ele>9.289916</ele>
        <time>2022-08-05T13:49:50.000Z</time>
      </trkpt>
      <trkpt lat="49.28557" lon="-0.20084">
        <ele>9.286641</ele>
        <time>2022-08-05T13:49:51.000Z</time>
      </trkpt>
      <trkpt lat="49.28555" lon="-0.20081">
        <ele>9.283809</ele>
        <time>2022-08-05T13:49:52.000Z</time>
      </trkpt>
      <trkpt lat="49.28551" lon="-0.2008">
        <ele>9.28069</ele>
        <time>2022-08-05T13:49:53.000Z</time>
      </trkpt>
      <trkpt lat="49.28547" lon="-0.20078">
        <ele>9.276738</ele>
        <time>2022-08-05T13:49:54.000Z</time>
      </trkpt>
      <trkpt lat="49.28542" lon="-0.20077">
        <ele>9.27285</ele>
        <time>2022-08-05T13:49:55.000Z</time>
      </trkpt>
      <trkpt lat="49.28538" lon="-0.20077">
        <ele>9.268711</ele>
        <time>2022-08-05T13:49:56.000Z</time>
      </trkpt>
      <trkpt lat="49.28533" lon="-0.20076">
        <ele>9.264567</ele>
        <time>2022-08-05T13:49:57.000Z</time>
      </trkpt>
      <trkpt lat="49.28527" lon="-0.20074">
        <ele>9.25404</ele>
        <time>2022-08-05T13:49:58.000Z</time>
      </trkpt>
      <trkpt lat="49.28522" lon="-0.20073">
        <ele>9.222385</ele>
        <time>2022-08-05T13:49:59.000Z</time>
      </trkpt>
      <trkpt lat="49.28517" lon="-0.20072">
        <ele>9.18791</ele>
        <time>2022-08-05T13:50:00.000Z</time>
      </trkpt>
      <trkpt lat="49.28511" lon="-0.2007">
        <ele>9.152508</ele>
        <time>2022-08-05T13:50:01.000Z</time>
      </trkpt>
      <trkpt lat="49.28505" lon="-0.20068">
        <ele>9.115548</ele>
        <time>2022-08-05T13:50:02.000Z</time>
      </trkpt>
      <trkpt lat="49.28499" lon="-0.20067">
        <ele>9.081013</ele>
        <time>2022-08-05T13:50:03.000Z</time>
      </trkpt>
      <trkpt lat="49.28493" lon="-0.20065">
        <ele>9.045825</ele>
        <time>2022-08-05T13:50:04.000Z</time>
      </trkpt>
      <trkpt lat="49.28488" lon="-0.20064">
        <ele>9.013236</ele>
        <time>2022-08-05T13:50:05.000Z</time>
      </trkpt>
      <trkpt lat="49.28483" lon="-0.20062">
        <ele>8.983031</ele>
        <time>2022-08-05T13:50:06.000Z</time>
      </trkpt>
      <trkpt lat="49.28479" lon="-0.20057">
        <ele>8.953593</ele>
        <time>2022-08-05T13:50:07.000Z</time>
      </trkpt>
      <trkpt lat="49.28477" lon="-0.20051">
        <ele>8.925797</ele>
        <time>2022-08-05T13:50:08.000Z</time>
      </trkpt>
      <trkpt lat="49.28477" lon="-0.20043">
        <ele>8.89631</ele>
        <time>2022-08-05T13:50:09.000Z</time>
      </trkpt>
      <trkpt lat="49.28477" lon="-0.20036">
        <ele>8.866262</ele>
        <time>2022-08-05T13:50:10.000Z</time>
      </trkpt>
      <trkpt lat="49.28477" lon="-0.20028">
        <ele>8.835613</ele>
        <time>2022-08-05T13:50:11.000Z</time>
      </trkpt>
      <trkpt lat="49.28478" lon="-0.2002">
        <ele>8.803341</ele>
        <time>2022-08-05T13:50:12.000Z</time>
      </trkpt>
      <trkpt lat="49.28479" lon="-0.20012">
        <ele>8.771307</ele>
        <time>2022-08-05T13:50:13.000Z</time>
      </trkpt>
      <trkpt lat="49.28481" lon="-0.20004">
        <ele>8.739399</ele>
        <time>2022-08-05T13:50:14.000Z</time>
      </trkpt>
      <trkpt lat="49.28482" lon="-0.19996">
        <ele>8.707612</ele>
        <time>2022-08-05T13:50:15.000Z</time>
      </trkpt>
      <trkpt lat="49.28483" lon="-0.19988">
        <ele>8.675825</ele>
        <time>2022-08-05T13:50:16.000Z</time>
      </trkpt>
      <trkpt lat="49.28483" lon="-0.19979">
        <ele>8.642849</ele>
        <time>2022-08-05T13:50:17.000Z</time>
      </trkpt>
      <trkpt lat="49.28484" lon="-0.19971">
        <ele>8.611037</ele>
        <time>2022-08-05T13:50:18.000Z</time>
      </trkpt>
      <trkpt lat="49.28485" lon="-0.19963">
        <ele>8.57925</ele>
        <time>2022-08-05T13:50:19.000Z</time>
      </trkpt>
      <trkpt lat="49.28486" lon="-0.19955">
        <ele>8.547463</ele>
        <time>2022-08-05T13:50:20.000Z</time>
      </trkpt>
      <trkpt lat="49.28487" lon="-0.19947">
        <ele>8.51581</ele>
        <time>2022-08-05T13:50:21.000Z</time>
      </trkpt>
      <trkpt lat="49.28488" lon="-0.19939">
        <ele>8.482873</ele>
        <time>2022-08-05T13:50:22.000Z</time>
      </trkpt>
      <trkpt lat="49.28489" lon="-0.19931">
        <ele>8.450319</ele>
        <time>2022-08-05T13:50:23.000Z</time>
      </trkpt>
      <trkpt lat="49.2849" lon="-0.19923">
        <ele>8.418507</ele>
        <time>2022-08-05T13:50:24.000Z</time>
      </trkpt>
      <trkpt lat="49.28491" lon="-0.19915">
        <ele>8.38672</ele>
        <time>2022-08-05T13:50:25.000Z</time>
      </trkpt>
      <trkpt lat="49.28491" lon="-0.19907">
        <ele>8.356458</ele>
        <time>2022-08-05T13:50:26.000Z</time>
      </trkpt>
      <trkpt lat="49.28492" lon="-0.19899">
        <ele>8.326196</ele>
        <time>2022-08-05T13:50:27.000Z</time>
      </trkpt>
      <trkpt lat="49.28493" lon="-0.19892">
        <ele>8.297088</ele>
        <time>2022-08-05T13:50:28.000Z</time>
      </trkpt>
      <trkpt lat="49.28493" lon="-0.19885">
        <ele>8.268934</ele>
        <time>2022-08-05T13:50:29.000Z</time>
      </trkpt>
      <trkpt lat="49.28494" lon="-0.19878">
        <ele>8.241298</ele>
        <time>2022-08-05T13:50:30.000Z</time>
      </trkpt>
      <trkpt lat="49.28494" lon="-0.19871">
        <ele>8.214521</ele>
        <time>2022-08-05T13:50:31.000Z</time>
      </trkpt>
      <trkpt lat="49.28495" lon="-0.19864">
        <ele>8.188313</ele>
        <time>2022-08-05T13:50:32.000Z</time>
      </trkpt>
      <trkpt lat="49.28496" lon="-0.19858">
        <ele>8.183518</ele>
        <time>2022-08-05T13:50:33.000Z</time>
      </trkpt>
      <trkpt lat="49.28497" lon="-0.19853">
        <ele>8.182359</ele>
        <time>2022-08-05T13:50:34.000Z</time>
      </trkpt>
      <trkpt lat="49.28497" lon="-0.19846">
        <ele>8.180833</ele>
        <time>2022-08-05T13:50:35.000Z</time>
      </trkpt>
      <trkpt lat="49.28497" lon="-0.19841">
        <ele>8.17967</ele>
        <time>2022-08-05T13:50:36.000Z</time>
      </trkpt>
      <trkpt lat="49.28496" lon="-0.19836">
        <ele>8.178467</ele>
        <time>2022-08-05T13:50:37.000Z</time>
      </trkpt>
      <trkpt lat="49.28494" lon="-0.19831">
        <ele>8.177269</ele>
        <time>2022-08-05T13:50:38.000Z</time>
      </trkpt>
      <trkpt lat="49.28492" lon="-0.19829">
        <ele>8.17637</ele>
        <time>2022-08-05T13:50:39.000Z</time>
      </trkpt>
      <trkpt lat="49.28488" lon="-0.19825">
        <ele>8.174827</ele>
        <time>2022-08-05T13:50:40.000Z</time>
      </trkpt>
      <trkpt lat="49.28485" lon="-0.19822">
        <ele>8.173518</ele>
        <time>2022-08-05T13:50:41.000Z</time>
      </trkpt>
      <trkpt lat="49.28481" lon="-0.19819">
        <ele>8.172042</ele>
        <time>2022-08-05T13:50:42.000Z</time>
      </trkpt>
      <trkpt lat="49.28477" lon="-0.19816">
        <ele>8.170616</ele>
        <time>2022-08-05T13:50:43.000Z</time>
      </trkpt>
      <trkpt lat="49.28474" lon="-0.19812">
        <ele>8.16912</ele>
        <time>2022-08-05T13:50:44.000Z</time>
      </trkpt>
      <trkpt lat="49.2847" lon="-0.19809">
        <ele>8.167612</ele>
        <time>2022-08-05T13:50:45.000Z</time>
      </trkpt>
      <trkpt lat="49.28467" lon="-0.19805">
        <ele>8.166264</ele>
        <time>2022-08-05T13:50:46.000Z</time>
      </trkpt>
      <trkpt lat="49.28463" lon="-0.19802">
        <ele>8.164759</ele>
        <time>2022-08-05T13:50:47.000Z</time>
      </trkpt>
      <trkpt lat="49.2846" lon="-0.198">
        <ele>8.163507</ele>
        <time>2022-08-05T13:50:48.000Z</time>
      </trkpt>
      <trkpt lat="49.28455" lon="-0.19795">
        <ele>8.161702</ele>
        <time>2022-08-05T13:50:49.000Z</time>
      </trkpt>
      <trkpt lat="49.28451" lon="-0.19792">
        <ele>8.16006</ele>
        <time>2022-08-05T13:50:50.000Z</time>
      </trkpt>
      <trkpt lat="49.28447" lon="-0.19788">
        <ele>8.158365</ele>
        <time>2022-08-05T13:50:51.000Z</time>
      </trkpt>
      <trkpt lat="49.28443" lon="-0.19784">
        <ele>8.156908</ele>
        <time>2022-08-05T13:50:52.000Z</time>
      </trkpt>
      <trkpt lat="49.28438" lon="-0.19779">
        <ele>8.154857</ele>
        <time>2022-08-05T13:50:53.000Z</time>
      </trkpt>
      <trkpt lat="49.28434" lon="-0.19775">
        <ele>8.153096</ele>
        <time>2022-08-05T13:50:54.000Z</time>
      </trkpt>
      <trkpt lat="49.28429" lon="-0.19771">
        <ele>8.151291</ele>
        <time>2022-08-05T13:50:55.000Z</time>
      </trkpt>
      <trkpt lat="49.28425" lon="-0.19767">
        <ele>8.149563</ele>
        <time>2022-08-05T13:50:56.000Z</time>
      </trkpt>
      <trkpt lat="49.2842" lon="-0.19762">
        <ele>8.147611</ele>
        <time>2022-08-05T13:50:57.000Z</time>
      </trkpt>
      <trkpt lat="49.28416" lon="-0.19757">
        <ele>8.145855</ele>
        <time>2022-08-05T13:50:58.000Z</time>
      </trkpt>
      <trkpt lat="49.28412" lon="-0.19753">
        <ele>8.144013</ele>
        <time>2022-08-05T13:50:59.000Z</time>
      </trkpt>
      <trkpt lat="49.28407" lon="-0.19748">
        <ele>8.142272</ele>
        <time>2022-08-05T13:51:00.000Z</time>
      </trkpt>
      <trkpt lat="49.28402" lon="-0.19744">
        <ele>8.140226</ele>
        <time>2022-08-05T13:51:01.000Z</time>
      </trkpt>
      <trkpt lat="49.28398" lon="-0.1974">
        <ele>8.138449</ele>
        <time>2022-08-05T13:51:02.000Z</time>
      </trkpt>
      <trkpt lat="49.28393" lon="-0.19735">
        <ele>8.136644</ele>
        <time>2022-08-05T13:51:03.000Z</time>
      </trkpt>
      <trkpt lat="49.28388" lon="-0.19731">
        <ele>8.13468</ele>
        <time>2022-08-05T13:51:04.000Z</time>
      </trkpt>
      <trkpt lat="49.28384" lon="-0.19727">
        <ele>8.132863</ele>
        <time>2022-08-05T13:51:05.000Z</time>
      </trkpt>
      <trkpt lat="49.28379" lon="-0.19722">
        <ele>8.130824</ele>
        <time>2022-08-05T13:51:06.000Z</time>
      </trkpt>
      <trkpt lat="49.28374" lon="-0.19718">
        <ele>8.128896</ele>
        <time>2022-08-05T13:51:07.000Z</time>
      </trkpt>
      <trkpt lat="49.28369" lon="-0.19713">
        <ele>8.126991</ele>
        <time>2022-08-05T13:51:08.000Z</time>
      </trkpt>
      <trkpt lat="49.28364" lon="-0.19708">
        <ele>8.12494</ele>
        <time>2022-08-05T13:51:09.000Z</time>
      </trkpt>
      <trkpt lat="49.2836" lon="-0.19703">
        <ele>8.122851</ele>
        <time>2022-08-05T13:51:10.000Z</time>
      </trkpt>
      <trkpt lat="49.28355" lon="-0.19698">
        <ele>8.118</ele>
        <time>2022-08-05T13:51:11.000Z</time>
      </trkpt>
      <trkpt lat="49.2835" lon="-0.19694">
        <ele>8.113386</ele>
        <time>2022-08-05T13:51:12.000Z</time>
      </trkpt>
      <trkpt lat="49.28345" lon="-0.19689">
        <ele>8.108743</ele>
        <time>2022-08-05T13:51:13.000Z</time>
      </trkpt>
      <trkpt lat="49.2834" lon="-0.19685">
        <ele>8.104157</ele>
        <time>2022-08-05T13:51:14.000Z</time>
      </trkpt>
      <trkpt lat="49.28335" lon="-0.1968">
        <ele>8.099341</ele>
        <time>2022-08-05T13:51:15.000Z</time>
      </trkpt>
      <trkpt lat="49.28331" lon="-0.19676">
        <ele>8.095058</ele>
        <time>2022-08-05T13:51:16.000Z</time>
      </trkpt>
      <trkpt lat="49.28326" lon="-0.19672">
        <ele>8.090736</ele>
        <time>2022-08-05T13:51:17.000Z</time>
      </trkpt>
      <trkpt lat="49.28322" lon="-0.19667">
        <ele>8.086559</ele>
        <time>2022-08-05T13:51:18.000Z</time>
      </trkpt>
      <trkpt lat="49.28317" lon="-0.19663">
        <ele>8.082027</ele>
        <time>2022-08-05T13:51:19.000Z</time>
      </trkpt>
      <trkpt lat="49.28313" lon="-0.19658">
        <ele>8.077648</ele>
        <time>2022-08-05T13:51:20.000Z</time>
      </trkpt>
      <trkpt lat="49.28308" lon="-0.19654">
        <ele>8.073422</ele>
        <time>2022-08-05T13:51:21.000Z</time>
      </trkpt>
      <trkpt lat="49.28303" lon="-0.1965">
        <ele>8.06868</ele>
        <time>2022-08-05T13:51:22.000Z</time>
      </trkpt>
      <trkpt lat="49.28299" lon="-0.19646">
        <ele>8.064426</ele>
        <time>2022-08-05T13:51:23.000Z</time>
      </trkpt>
      <trkpt lat="49.28294" lon="-0.19641">
        <ele>8.060047</ele>
        <time>2022-08-05T13:51:24.000Z</time>
      </trkpt>
      <trkpt lat="49.2829" lon="-0.19637">
        <ele>8.055808</ele>
        <time>2022-08-05T13:51:25.000Z</time>
      </trkpt>
      <trkpt lat="49.28285" lon="-0.19632">
        <ele>8.05093</ele>
        <time>2022-08-05T13:51:26.000Z</time>
      </trkpt>
      <trkpt lat="49.2828" lon="-0.19627">
        <ele>8.046491</ele>
        <time>2022-08-05T13:51:27.000Z</time>
      </trkpt>
      <trkpt lat="49.28276" lon="-0.19623">
        <ele>8.042111</ele>
        <time>2022-08-05T13:51:28.000Z</time>
      </trkpt>
      <trkpt lat="49.28271" lon="-0.19618">
        <ele>8.0378</ele>
        <time>2022-08-05T13:51:29.000Z</time>
      </trkpt>
      <trkpt lat="49.28267" lon="-0.19614">
        <ele>8.033295</ele>
        <time>2022-08-05T13:51:30.000Z</time>
      </trkpt>
      <trkpt lat="49.28262" lon="-0.1961">
        <ele>8.028972</ele>
        <time>2022-08-05T13:51:31.000Z</time>
      </trkpt>
      <trkpt lat="49.28257" lon="-0.19605">
        <ele>8.024175</ele>
        <time>2022-08-05T13:51:32.000Z</time>
      </trkpt>
      <trkpt lat="49.28253" lon="-0.19601">
        <ele>8.019796</ele>
        <time>2022-08-05T13:51:33.000Z</time>
      </trkpt>
      <trkpt lat="49.28247" lon="-0.19596">
        <ele>8.014945</ele>
        <time>2022-08-05T13:51:34.000Z</time>
      </trkpt>
      <trkpt lat="49.28243" lon="-0.19591">
        <ele>8.010331</ele>
        <time>2022-08-05T13:51:35.000Z</time>
      </trkpt>
      <trkpt lat="49.28239" lon="-0.19586">
        <ele>8.00622</ele>
        <time>2022-08-05T13:51:36.000Z</time>
      </trkpt>
      <trkpt lat="49.28236" lon="-0.1958">
        <ele>8.002434</ele>
        <time>2022-08-05T13:51:37.000Z</time>
      </trkpt>
      <trkpt lat="49.28235" lon="-0.19574">
        <ele>7.998666</ele>
        <time>2022-08-05T13:51:38.000Z</time>
      </trkpt>
      <trkpt lat="49.28236" lon="-0.19567">
        <ele>7.994796</ele>
        <time>2022-08-05T13:51:39.000Z</time>
      </trkpt>
      <trkpt lat="49.28238" lon="-0.1956">
        <ele>7.991201</ele>
        <time>2022-08-05T13:51:40.000Z</time>
      </trkpt>
      <trkpt lat="49.28241" lon="-0.19555">
        <ele>7.987202</ele>
        <time>2022-08-05T13:51:41.000Z</time>
      </trkpt>
      <trkpt lat="49.28244" lon="-0.19549">
        <ele>7.983725</ele>
        <time>2022-08-05T13:51:42.000Z</time>
      </trkpt>
      <trkpt lat="49.28246" lon="-0.19544">
        <ele>7.980087</ele>
        <time>2022-08-05T13:51:43.000Z</time>
      </trkpt>
      <trkpt lat="49.28249" lon="-0.19539">
        <ele>7.976603</ele>
        <time>2022-08-05T13:51:44.000Z</time>
      </trkpt>
      <trkpt lat="49.28251" lon="-0.19534">
        <ele>7.955729</ele>
        <time>2022-08-05T13:51:45.000Z</time>
      </trkpt>
      <trkpt lat="49.28253" lon="-0.19529">
        <ele>7.934291</ele>
        <time>2022-08-05T13:51:46.000Z</time>
      </trkpt>
      <trkpt lat="49.28255" lon="-0.19524">
        <ele>7.913403</ele>
        <time>2022-08-05T13:51:47.000Z</time>
      </trkpt>
      <trkpt lat="49.28258" lon="-0.19519">
        <ele>7.891667</ele>
        <time>2022-08-05T13:51:48.000Z</time>
      </trkpt>
      <trkpt lat="49.2826" lon="-0.19515">
        <ele>7.869458</ele>
        <time>2022-08-05T13:51:49.000Z</time>
      </trkpt>
      <trkpt lat="49.28262" lon="-0.19511">
        <ele>7.852203</ele>
        <time>2022-08-05T13:51:50.000Z</time>
      </trkpt>
      <trkpt lat="49.28265" lon="-0.19505">
        <ele>7.826847</ele>
        <time>2022-08-05T13:51:51.000Z</time>
      </trkpt>
      <trkpt lat="49.28267" lon="-0.195">
        <ele>7.80632</ele>
        <time>2022-08-05T13:51:52.000Z</time>
      </trkpt>
      <trkpt lat="49.28268" lon="-0.19495">
        <ele>7.786894</ele>
        <time>2022-08-05T13:51:53.000Z</time>
      </trkpt>
      <trkpt lat="49.28269" lon="-0.19492">
        <ele>7.772644</ele>
        <time>2022-08-05T13:51:54.000Z</time>
      </trkpt>
      <trkpt lat="49.28272" lon="-0.19487">
        <ele>7.750101</ele>
        <time>2022-08-05T13:51:55.000Z</time>
      </trkpt>
      <trkpt lat="49.28275" lon="-0.19484">
        <ele>7.733181</ele>
        <time>2022-08-05T13:51:56.000Z</time>
      </trkpt>
      <trkpt lat="49.28276" lon="-0.19481">
        <ele>7.718072</ele>
        <time>2022-08-05T13:51:57.000Z</time>
      </trkpt>
      <trkpt lat="49.28277" lon="-0.19477">
        <ele>7.704514</ele>
        <time>2022-08-05T13:51:58.000Z</time>
      </trkpt>
      <trkpt lat="49.28278" lon="-0.19474">
        <ele>7.689684</ele>
        <time>2022-08-05T13:51:59.000Z</time>
      </trkpt>
      <trkpt lat="49.28279" lon="-0.1947">
        <ele>7.676243</ele>
        <time>2022-08-05T13:52:00.000Z</time>
      </trkpt>
      <trkpt lat="49.28281" lon="-0.19467">
        <ele>7.66084</ele>
        <time>2022-08-05T13:52:01.000Z</time>
      </trkpt>
      <trkpt lat="49.28282" lon="-0.19463">
        <ele>7.64627</ele>
        <time>2022-08-05T13:52:02.000Z</time>
      </trkpt>
      <trkpt lat="49.28284" lon="-0.1946">
        <ele>7.632304</ele>
        <time>2022-08-05T13:52:03.000Z</time>
      </trkpt>
      <trkpt lat="49.28285" lon="-0.19456">
        <ele>7.614487</ele>
        <time>2022-08-05T13:52:04.000Z</time>
      </trkpt>
      <trkpt lat="49.28285" lon="-0.19452">
        <ele>7.601445</ele>
        <time>2022-08-05T13:52:05.000Z</time>
      </trkpt>
      <trkpt lat="49.28288" lon="-0.19448">
        <ele>7.581599</ele>
        <time>2022-08-05T13:52:06.000Z</time>
      </trkpt>
      <trkpt lat="49.2829" lon="-0.19444">
        <ele>7.563178</ele>
        <time>2022-08-05T13:52:07.000Z</time>
      </trkpt>
      <trkpt lat="49.28291" lon="-0.19441">
        <ele>7.549408</ele>
        <time>2022-08-05T13:52:08.000Z</time>
      </trkpt>
      <trkpt lat="49.28293" lon="-0.19435">
        <ele>7.527612</ele>
        <time>2022-08-05T13:52:09.000Z</time>
      </trkpt>
      <trkpt lat="49.28295" lon="-0.19431">
        <ele>7.508294</ele>
        <time>2022-08-05T13:52:10.000Z</time>
      </trkpt>
      <trkpt lat="49.28296" lon="-0.19428">
        <ele>7.494328</ele>
        <time>2022-08-05T13:52:11.000Z</time>
      </trkpt>
      <trkpt lat="49.28299" lon="-0.19424">
        <ele>7.473461</ele>
        <time>2022-08-05T13:52:12.000Z</time>
      </trkpt>
      <trkpt lat="49.28301" lon="-0.1942">
        <ele>7.457051</ele>
        <time>2022-08-05T13:52:13.000Z</time>
      </trkpt>
      <trkpt lat="49.28303" lon="-0.19417">
        <ele>7.44064</ele>
        <time>2022-08-05T13:52:14.000Z</time>
      </trkpt>
      <trkpt lat="49.28305" lon="-0.19413">
        <ele>7.422808</ele>
        <time>2022-08-05T13:52:15.000Z</time>
      </trkpt>
      <trkpt lat="49.28307" lon="-0.19408">
        <ele>7.404067</ele>
        <time>2022-08-05T13:52:16.000Z</time>
      </trkpt>
      <trkpt lat="49.28309" lon="-0.19404">
        <ele>7.385942</ele>
        <time>2022-08-05T13:52:17.000Z</time>
      </trkpt>
      <trkpt lat="49.2831" lon="-0.194">
        <ele>7.366836</ele>
        <time>2022-08-05T13:52:18.000Z</time>
      </trkpt>
      <trkpt lat="49.28311" lon="-0.19394">
        <ele>7.347447</ele>
        <time>2022-08-05T13:52:19.000Z</time>
      </trkpt>
      <trkpt lat="49.28313" lon="-0.19389">
        <ele>7.327051</ele>
        <time>2022-08-05T13:52:20.000Z</time>
      </trkpt>
      <trkpt lat="49.28315" lon="-0.19385">
        <ele>7.308888</ele>
        <time>2022-08-05T13:52:21.000Z</time>
      </trkpt>
      <trkpt lat="49.28317" lon="-0.19379">
        <ele>7.283533</ele>
        <time>2022-08-05T13:52:22.000Z</time>
      </trkpt>
      <trkpt lat="49.2832" lon="-0.19375">
        <ele>7.260736</ele>
        <time>2022-08-05T13:52:23.000Z</time>
      </trkpt>
      <trkpt lat="49.28322" lon="-0.19371">
        <ele>7.241041</ele>
        <time>2022-08-05T13:52:24.000Z</time>
      </trkpt>
      <trkpt lat="49.28325" lon="-0.19367">
        <ele>7.219488</ele>
        <time>2022-08-05T13:52:25.000Z</time>
      </trkpt>
      <trkpt lat="49.28328" lon="-0.19363">
        <ele>7.200839</ele>
        <time>2022-08-05T13:52:26.000Z</time>
      </trkpt>
      <trkpt lat="49.28331" lon="-0.19358">
        <ele>7.174788</ele>
        <time>2022-08-05T13:52:27.000Z</time>
      </trkpt>
      <trkpt lat="49.28332" lon="-0.19352">
        <ele>7.153084</ele>
        <time>2022-08-05T13:52:28.000Z</time>
      </trkpt>
      <trkpt lat="49.28332" lon="-0.19346">
        <ele>7.132181</ele>
        <time>2022-08-05T13:52:29.000Z</time>
      </trkpt>
      <trkpt lat="49.2833" lon="-0.19342">
        <ele>7.11434</ele>
        <time>2022-08-05T13:52:30.000Z</time>
      </trkpt>
      <trkpt lat="49.28327" lon="-0.19337">
        <ele>7.089685</ele>
        <time>2022-08-05T13:52:31.000Z</time>
      </trkpt>
      <trkpt lat="49.28324" lon="-0.19333">
        <ele>7.067788</ele>
        <time>2022-08-05T13:52:32.000Z</time>
      </trkpt>
      <trkpt lat="49.2832" lon="-0.19328">
        <ele>7.037705</ele>
        <time>2022-08-05T13:52:33.000Z</time>
      </trkpt>
      <trkpt lat="49.28316" lon="-0.19325">
        <ele>7.013094</ele>
        <time>2022-08-05T13:52:34.000Z</time>
      </trkpt>
      <trkpt lat="49.28311" lon="-0.19322">
        <ele>6.98472</ele>
        <time>2022-08-05T13:52:35.000Z</time>
      </trkpt>
      <trkpt lat="49.28307" lon="-0.19319">
        <ele>6.943275</ele>
        <time>2022-08-05T13:52:36.000Z</time>
      </trkpt>
      <trkpt lat="49.28302" lon="-0.19316">
        <ele>6.896176</ele>
        <time>2022-08-05T13:52:37.000Z</time>
      </trkpt>
      <trkpt lat="49.28298" lon="-0.19313">
        <ele>6.850877</ele>
        <time>2022-08-05T13:52:38.000Z</time>
      </trkpt>
      <trkpt lat="49.28294" lon="-0.1931">
        <ele>6.804656</ele>
        <time>2022-08-05T13:52:39.000Z</time>
      </trkpt>
      <trkpt lat="49.28289" lon="-0.19306">
        <ele>6.756504</ele>
        <time>2022-08-05T13:52:40.000Z</time>
      </trkpt>
      <trkpt lat="49.28285" lon="-0.19303">
        <ele>6.71062</ele>
        <time>2022-08-05T13:52:41.000Z</time>
      </trkpt>
      <trkpt lat="49.28281" lon="-0.193">
        <ele>6.666741</ele>
        <time>2022-08-05T13:52:42.000Z</time>
      </trkpt>
      <trkpt lat="49.28277" lon="-0.19296">
        <ele>6.618308</ele>
        <time>2022-08-05T13:52:43.000Z</time>
      </trkpt>
      <trkpt lat="49.28272" lon="-0.19293">
        <ele>6.570155</ele>
        <time>2022-08-05T13:52:44.000Z</time>
      </trkpt>
      <trkpt lat="49.28267" lon="-0.1929">
        <ele>6.521497</ele>
        <time>2022-08-05T13:52:45.000Z</time>
      </trkpt>
      <trkpt lat="49.28263" lon="-0.19288">
        <ele>6.479285</ele>
        <time>2022-08-05T13:52:46.000Z</time>
      </trkpt>
      <trkpt lat="49.28259" lon="-0.19287">
        <ele>6.441461</ele>
        <time>2022-08-05T13:52:47.000Z</time>
      </trkpt>
      <trkpt lat="49.28257" lon="-0.19285">
        <ele>6.417224</ele>
        <time>2022-08-05T13:52:48.000Z</time>
      </trkpt>
      <trkpt lat="49.28255" lon="-0.19283">
        <ele>6.394305</ele>
        <time>2022-08-05T13:52:49.000Z</time>
      </trkpt>
      <trkpt lat="49.28253" lon="-0.19281">
        <ele>6.375256</ele>
        <time>2022-08-05T13:52:50.000Z</time>
      </trkpt>
      <trkpt lat="49.28253" lon="-0.19269">
        <ele>6.296516</ele>
        <time>2022-08-05T13:53:05.000Z</time>
      </trkpt>
      <trkpt lat="49.28253" lon="-0.19265">
        <ele>6.272645</ele>
        <time>2022-08-05T13:53:06.000Z</time>
      </trkpt>
      <trkpt lat="49.28254" lon="-0.19259">
        <ele>6.234246</ele>
        <time>2022-08-05T13:53:07.000Z</time>
      </trkpt>
      <trkpt lat="49.28255" lon="-0.19254">
        <ele>6.200566</ele>
        <time>2022-08-05T13:53:08.000Z</time>
      </trkpt>
      <trkpt lat="49.28256" lon="-0.19248">
        <ele>6.164817</ele>
        <time>2022-08-05T13:53:09.000Z</time>
      </trkpt>
      <trkpt lat="49.28257" lon="-0.19243">
        <ele>6.12786</ele>
        <time>2022-08-05T13:53:10.000Z</time>
      </trkpt>
      <trkpt lat="49.28259" lon="-0.19237">
        <ele>6.090154</ele>
        <time>2022-08-05T13:53:11.000Z</time>
      </trkpt>
      <trkpt lat="49.28261" lon="-0.19231">
        <ele>6.050076</ele>
        <time>2022-08-05T13:53:12.000Z</time>
      </trkpt>
      <trkpt lat="49.28262" lon="-0.19226">
        <ele>6.010555</ele>
        <time>2022-08-05T13:53:13.000Z</time>
      </trkpt>
      <trkpt lat="49.28264" lon="-0.1922">
        <ele>5.968795</ele>
        <time>2022-08-05T13:53:14.000Z</time>
      </trkpt>
      <trkpt lat="49.28266" lon="-0.19215">
        <ele>5.934487</ele>
        <time>2022-08-05T13:53:15.000Z</time>
      </trkpt>
      <trkpt lat="49.28269" lon="-0.19207">
        <ele>5.881309</ele>
        <time>2022-08-05T13:53:16.000Z</time>
      </trkpt>
      <trkpt lat="49.2827" lon="-0.19201">
        <ele>5.837852</ele>
        <time>2022-08-05T13:53:17.000Z</time>
      </trkpt>
      <trkpt lat="49.28273" lon="-0.19195">
        <ele>5.79311</ele>
        <time>2022-08-05T13:53:18.000Z</time>
      </trkpt>
      <trkpt lat="49.28275" lon="-0.19189">
        <ele>5.748453</ele>
        <time>2022-08-05T13:53:19.000Z</time>
      </trkpt>
      <trkpt lat="49.28277" lon="-0.19182">
        <ele>5.702816</ele>
        <time>2022-08-05T13:53:20.000Z</time>
      </trkpt>
      <trkpt lat="49.2828" lon="-0.19176">
        <ele>5.655557</ele>
        <time>2022-08-05T13:53:21.000Z</time>
      </trkpt>
      <trkpt lat="49.28282" lon="-0.1917">
        <ele>5.609814</ele>
        <time>2022-08-05T13:53:22.000Z</time>
      </trkpt>
      <trkpt lat="49.28285" lon="-0.19163">
        <ele>5.563515</ele>
        <time>2022-08-05T13:53:23.000Z</time>
      </trkpt>
      <trkpt lat="49.28286" lon="-0.19156">
        <ele>5.518254</ele>
        <time>2022-08-05T13:53:24.000Z</time>
      </trkpt>
      <trkpt lat="49.28288" lon="-0.1915">
        <ele>5.47129</ele>
        <time>2022-08-05T13:53:25.000Z</time>
      </trkpt>
      <trkpt lat="49.2829" lon="-0.19143">
        <ele>5.424973</ele>
        <time>2022-08-05T13:53:26.000Z</time>
      </trkpt>
      <trkpt lat="49.28293" lon="-0.19136">
        <ele>5.376458</ele>
        <time>2022-08-05T13:53:27.000Z</time>
      </trkpt>
      <trkpt lat="49.28294" lon="-0.19131">
        <ele>5.339892</ele>
        <time>2022-08-05T13:53:28.000Z</time>
      </trkpt>
      <trkpt lat="49.28297" lon="-0.19123">
        <ele>5.284353</ele>
        <time>2022-08-05T13:53:29.000Z</time>
      </trkpt>
      <trkpt lat="49.28299" lon="-0.19116">
        <ele>5.251715</ele>
        <time>2022-08-05T13:53:30.000Z</time>
      </trkpt>
      <trkpt lat="49.28301" lon="-0.1911">
        <ele>5.240696</ele>
        <time>2022-08-05T13:53:31.000Z</time>
      </trkpt>
      <trkpt lat="49.28303" lon="-0.19105">
        <ele>5.231765</ele>
        <time>2022-08-05T13:53:32.000Z</time>
      </trkpt>
      <trkpt lat="49.28305" lon="-0.19098">
        <ele>5.219256</ele>
        <time>2022-08-05T13:53:33.000Z</time>
      </trkpt>
      <trkpt lat="49.28306" lon="-0.19092">
        <ele>5.208841</ele>
        <time>2022-08-05T13:53:34.000Z</time>
      </trkpt>
      <trkpt lat="49.28308" lon="-0.19087">
        <ele>5.198434</ele>
        <time>2022-08-05T13:53:35.000Z</time>
      </trkpt>
      <trkpt lat="49.2831" lon="-0.19081">
        <ele>5.188618</ele>
        <time>2022-08-05T13:53:36.000Z</time>
      </trkpt>
      <trkpt lat="49.28311" lon="-0.19077">
        <ele>5.180844</ele>
        <time>2022-08-05T13:53:37.000Z</time>
      </trkpt>
      <trkpt lat="49.28313" lon="-0.19071">
        <ele>5.170128</ele>
        <time>2022-08-05T13:53:38.000Z</time>
      </trkpt>
      <trkpt lat="49.28314" lon="-0.19065">
        <ele>5.160745</ele>
        <time>2022-08-05T13:53:39.000Z</time>
      </trkpt>
      <trkpt lat="49.28315" lon="-0.1906">
        <ele>5.151516</ele>
        <time>2022-08-05T13:53:40.000Z</time>
      </trkpt>
      <trkpt lat="49.28317" lon="-0.19055">
        <ele>5.14198</ele>
        <time>2022-08-05T13:53:41.000Z</time>
      </trkpt>
      <trkpt lat="49.28318" lon="-0.19049">
        <ele>5.132461</ele>
        <time>2022-08-05T13:53:42.000Z</time>
      </trkpt>
      <trkpt lat="49.28319" lon="-0.19044">
        <ele>5.123218</ele>
        <time>2022-08-05T13:53:43.000Z</time>
      </trkpt>
      <trkpt lat="49.2832" lon="-0.19038">
        <ele>5.113597</ele>
        <time>2022-08-05T13:53:44.000Z</time>
      </trkpt>
      <trkpt lat="49.28321" lon="-0.19032">
        <ele>5.104025</ele>
        <time>2022-08-05T13:53:45.000Z</time>
      </trkpt>
      <trkpt lat="49.28322" lon="-0.19026">
        <ele>5.094089</ele>
        <time>2022-08-05T13:53:46.000Z</time>
      </trkpt>
      <trkpt lat="49.28322" lon="-0.1902">
        <ele>5.083711</ele>
        <time>2022-08-05T13:53:47.000Z</time>
      </trkpt>
      <trkpt lat="49.28324" lon="-0.19014">
        <ele>5.073096</ele>
        <time>2022-08-05T13:53:48.000Z</time>
      </trkpt>
      <trkpt lat="49.28325" lon="-0.19008">
        <ele>5.062527</ele>
        <time>2022-08-05T13:53:49.000Z</time>
      </trkpt>
      <trkpt lat="49.28326" lon="-0.19001">
        <ele>5.051445</ele>
        <time>2022-08-05T13:53:50.000Z</time>
      </trkpt>
      <trkpt lat="49.28327" lon="-0.18995">
        <ele>5.040933</ele>
        <time>2022-08-05T13:53:51.000Z</time>
      </trkpt>
      <trkpt lat="49.28328" lon="-0.18988">
        <ele>5.029851</ele>
        <time>2022-08-05T13:53:52.000Z</time>
      </trkpt>
      <trkpt lat="49.28329" lon="-0.18982">
        <ele>5.019634</ele>
        <time>2022-08-05T13:53:53.000Z</time>
      </trkpt>
      <trkpt lat="49.2833" lon="-0.18976">
        <ele>5.008553</ele>
        <time>2022-08-05T13:53:54.000Z</time>
      </trkpt>
      <trkpt lat="49.28331" lon="-0.18969">
        <ele>4.997349</ele>
        <time>2022-08-05T13:53:55.000Z</time>
      </trkpt>
      <trkpt lat="49.28332" lon="-0.18962">
        <ele>4.986268</ele>
        <time>2022-08-05T13:53:56.000Z</time>
      </trkpt>
      <trkpt lat="49.28333" lon="-0.18956">
        <ele>4.97557</ele>
        <time>2022-08-05T13:53:57.000Z</time>
      </trkpt>
      <trkpt lat="49.28335" lon="-0.1895">
        <ele>4.964488</ele>
        <time>2022-08-05T13:53:58.000Z</time>
      </trkpt>
      <trkpt lat="49.28336" lon="-0.18943">
        <ele>4.953602</ele>
        <time>2022-08-05T13:53:59.000Z</time>
      </trkpt>
      <trkpt lat="49.28337" lon="-0.18937">
        <ele>4.943249</ele>
        <time>2022-08-05T13:54:00.000Z</time>
      </trkpt>
      <trkpt lat="49.28338" lon="-0.18931">
        <ele>4.932681</ele>
        <time>2022-08-05T13:54:01.000Z</time>
      </trkpt>
      <trkpt lat="49.28339" lon="-0.18924">
        <ele>4.921599</ele>
        <time>2022-08-05T13:54:02.000Z</time>
      </trkpt>
      <trkpt lat="49.2834" lon="-0.18917">
        <ele>4.910449</ele>
        <time>2022-08-05T13:54:03.000Z</time>
      </trkpt>
      <trkpt lat="49.2834" lon="-0.18912">
        <ele>4.901266</ele>
        <time>2022-08-05T13:54:04.000Z</time>
      </trkpt>
      <trkpt lat="49.28341" lon="-0.18904">
        <ele>4.887568</ele>
        <time>2022-08-05T13:54:05.000Z</time>
      </trkpt>
      <trkpt lat="49.28342" lon="-0.18897">
        <ele>4.876365</ele>
        <time>2022-08-05T13:54:06.000Z</time>
      </trkpt>
      <trkpt lat="49.28344" lon="-0.1889">
        <ele>4.865041</ele>
        <time>2022-08-05T13:54:07.000Z</time>
      </trkpt>
      <trkpt lat="49.28345" lon="-0.18885">
        <ele>4.856593</ele>
        <time>2022-08-05T13:54:08.000Z</time>
      </trkpt>
      <trkpt lat="49.28346" lon="-0.18878">
        <ele>4.843421</ele>
        <time>2022-08-05T13:54:09.000Z</time>
      </trkpt>
      <trkpt lat="49.28348" lon="-0.18871">
        <ele>4.832651</ele>
        <time>2022-08-05T13:54:10.000Z</time>
      </trkpt>
      <trkpt lat="49.28349" lon="-0.18865">
        <ele>4.821569</ele>
        <time>2022-08-05T13:54:11.000Z</time>
      </trkpt>
      <trkpt lat="49.2835" lon="-0.18858">
        <ele>4.810643</ele>
        <time>2022-08-05T13:54:12.000Z</time>
      </trkpt>
      <trkpt lat="49.28352" lon="-0.18852">
        <ele>4.807196</ele>
        <time>2022-08-05T13:54:13.000Z</time>
      </trkpt>
      <trkpt lat="49.28354" lon="-0.18846">
        <ele>4.807426</ele>
        <time>2022-08-05T13:54:14.000Z</time>
      </trkpt>
      <trkpt lat="49.28356" lon="-0.18839">
        <ele>4.807667</ele>
        <time>2022-08-05T13:54:15.000Z</time>
      </trkpt>
      <trkpt lat="49.28357" lon="-0.18833">
        <ele>4.807903</ele>
        <time>2022-08-05T13:54:16.000Z</time>
      </trkpt>
      <trkpt lat="49.2836" lon="-0.18826">
        <ele>4.80816</ele>
        <time>2022-08-05T13:54:17.000Z</time>
      </trkpt>
      <trkpt lat="49.28362" lon="-0.1882">
        <ele>4.808401</ele>
        <time>2022-08-05T13:54:18.000Z</time>
      </trkpt>
      <trkpt lat="49.28364" lon="-0.18813">
        <ele>4.808665</ele>
        <time>2022-08-05T13:54:19.000Z</time>
      </trkpt>
      <trkpt lat="49.28365" lon="-0.18805">
        <ele>4.808923</ele>
        <time>2022-08-05T13:54:20.000Z</time>
      </trkpt>
      <trkpt lat="49.28368" lon="-0.18798">
        <ele>4.809198</ele>
        <time>2022-08-05T13:54:21.000Z</time>
      </trkpt>
      <trkpt lat="49.2837" lon="-0.18791">
        <ele>4.809471</ele>
        <time>2022-08-05T13:54:22.000Z</time>
      </trkpt>
      <trkpt lat="49.28372" lon="-0.18783">
        <ele>4.809744</ele>
        <time>2022-08-05T13:54:23.000Z</time>
      </trkpt>
      <trkpt lat="49.28373" lon="-0.18776">
        <ele>4.810011</ele>
        <time>2022-08-05T13:54:24.000Z</time>
      </trkpt>
      <trkpt lat="49.28376" lon="-0.18768">
        <ele>4.810292</ele>
        <time>2022-08-05T13:54:25.000Z</time>
      </trkpt>
      <trkpt lat="49.28378" lon="-0.18761">
        <ele>4.810562</ele>
        <time>2022-08-05T13:54:26.000Z</time>
      </trkpt>
      <trkpt lat="49.2838" lon="-0.18754">
        <ele>4.810835</ele>
        <time>2022-08-05T13:54:27.000Z</time>
      </trkpt>
      <trkpt lat="49.28382" lon="-0.18746">
        <ele>4.811117</ele>
        <time>2022-08-05T13:54:28.000Z</time>
      </trkpt>
      <trkpt lat="49.28385" lon="-0.18739">
        <ele>4.811393</ele>
        <time>2022-08-05T13:54:29.000Z</time>
      </trkpt>
      <trkpt lat="49.28387" lon="-0.18732">
        <ele>4.811675</ele>
        <time>2022-08-05T13:54:30.000Z</time>
      </trkpt>
      <trkpt lat="49.28389" lon="-0.18724">
        <ele>4.811948</ele>
        <time>2022-08-05T13:54:31.000Z</time>
      </trkpt>
      <trkpt lat="49.28391" lon="-0.18717">
        <ele>4.812213</ele>
        <time>2022-08-05T13:54:32.000Z</time>
      </trkpt>
      <trkpt lat="49.28394" lon="-0.1871">
        <ele>4.812483</ele>
        <time>2022-08-05T13:54:33.000Z</time>
      </trkpt>
      <trkpt lat="49.28396" lon="-0.18703">
        <ele>4.812747</ele>
        <time>2022-08-05T13:54:34.000Z</time>
      </trkpt>
      <trkpt lat="49.28398" lon="-0.18696">
        <ele>4.813006</ele>
        <time>2022-08-05T13:54:35.000Z</time>
      </trkpt>
      <trkpt lat="49.284" lon="-0.18689">
        <ele>4.813265</ele>
        <time>2022-08-05T13:54:36.000Z</time>
      </trkpt>
      <trkpt lat="49.28404" lon="-0.18683">
        <ele>4.813541</ele>
        <time>2022-08-05T13:54:37.000Z</time>
      </trkpt>
      <trkpt lat="49.28406" lon="-0.18676">
        <ele>4.813806</ele>
        <time>2022-08-05T13:54:38.000Z</time>
      </trkpt>
      <trkpt lat="49.28409" lon="-0.1867">
        <ele>4.814073</ele>
        <time>2022-08-05T13:54:39.000Z</time>
      </trkpt>
      <trkpt lat="49.28412" lon="-0.18663">
        <ele>4.814335</ele>
        <time>2022-08-05T13:54:40.000Z</time>
      </trkpt>
      <trkpt lat="49.28414" lon="-0.18656">
        <ele>4.814595</ele>
        <time>2022-08-05T13:54:41.000Z</time>
      </trkpt>
      <trkpt lat="49.28416" lon="-0.18649">
        <ele>4.81486</ele>
        <time>2022-08-05T13:54:42.000Z</time>
      </trkpt>
      <trkpt lat="49.28419" lon="-0.18642">
        <ele>4.81513</ele>
        <time>2022-08-05T13:54:43.000Z</time>
      </trkpt>
      <trkpt lat="49.28422" lon="-0.18636">
        <ele>4.815406</ele>
        <time>2022-08-05T13:54:44.000Z</time>
      </trkpt>
      <trkpt lat="49.28424" lon="-0.18629">
        <ele>4.815663</ele>
        <time>2022-08-05T13:54:45.000Z</time>
      </trkpt>
      <trkpt lat="49.28426" lon="-0.18621">
        <ele>4.815939</ele>
        <time>2022-08-05T13:54:46.000Z</time>
      </trkpt>
      <trkpt lat="49.28429" lon="-0.18614">
        <ele>4.81622</ele>
        <time>2022-08-05T13:54:47.000Z</time>
      </trkpt>
      <trkpt lat="49.28431" lon="-0.18608">
        <ele>4.821391</ele>
        <time>2022-08-05T13:54:48.000Z</time>
      </trkpt>
      <trkpt lat="49.28434" lon="-0.18601">
        <ele>4.835326</ele>
        <time>2022-08-05T13:54:49.000Z</time>
      </trkpt>
      <trkpt lat="49.28437" lon="-0.18594">
        <ele>4.849681</ele>
        <time>2022-08-05T13:54:50.000Z</time>
      </trkpt>
      <trkpt lat="49.28439" lon="-0.18588">
        <ele>4.862754</ele>
        <time>2022-08-05T13:54:51.000Z</time>
      </trkpt>
      <trkpt lat="49.28441" lon="-0.18581">
        <ele>4.876428</ele>
        <time>2022-08-05T13:54:52.000Z</time>
      </trkpt>
      <trkpt lat="49.28444" lon="-0.18574">
        <ele>4.890139</ele>
        <time>2022-08-05T13:54:53.000Z</time>
      </trkpt>
      <trkpt lat="49.28446" lon="-0.18567">
        <ele>4.904611</ele>
        <time>2022-08-05T13:54:54.000Z</time>
      </trkpt>
      <trkpt lat="49.28448" lon="-0.18559">
        <ele>4.918643</ele>
        <time>2022-08-05T13:54:55.000Z</time>
      </trkpt>
      <trkpt lat="49.2845" lon="-0.18552">
        <ele>4.932837</ele>
        <time>2022-08-05T13:54:56.000Z</time>
      </trkpt>
      <trkpt lat="49.28452" lon="-0.18545">
        <ele>4.946868</ele>
        <time>2022-08-05T13:54:57.000Z</time>
      </trkpt>
      <trkpt lat="49.28454" lon="-0.18538">
        <ele>4.960838</ele>
        <time>2022-08-05T13:54:58.000Z</time>
      </trkpt>
      <trkpt lat="49.28456" lon="-0.1853">
        <ele>4.974869</ele>
        <time>2022-08-05T13:54:59.000Z</time>
      </trkpt>
      <trkpt lat="49.28457" lon="-0.18523">
        <ele>4.988956</ele>
        <time>2022-08-05T13:55:00.000Z</time>
      </trkpt>
      <trkpt lat="49.28459" lon="-0.18515">
        <ele>5.00332</ele>
        <time>2022-08-05T13:55:01.000Z</time>
      </trkpt>
      <trkpt lat="49.28461" lon="-0.18508">
        <ele>5.017747</ele>
        <time>2022-08-05T13:55:02.000Z</time>
      </trkpt>
      <trkpt lat="49.28462" lon="-0.185">
        <ele>5.0316</ele>
        <time>2022-08-05T13:55:03.000Z</time>
      </trkpt>
      <trkpt lat="49.28464" lon="-0.18492">
        <ele>5.046464</ele>
        <time>2022-08-05T13:55:04.000Z</time>
      </trkpt>
      <trkpt lat="49.28466" lon="-0.18485">
        <ele>5.060551</ele>
        <time>2022-08-05T13:55:05.000Z</time>
      </trkpt>
      <trkpt lat="49.28467" lon="-0.18477">
        <ele>5.075319</ele>
        <time>2022-08-05T13:55:06.000Z</time>
      </trkpt>
      <trkpt lat="49.28469" lon="-0.18469">
        <ele>5.090037</ele>
        <time>2022-08-05T13:55:07.000Z</time>
      </trkpt>
      <trkpt lat="49.28469" lon="-0.18461">
        <ele>5.104529</ele>
        <time>2022-08-05T13:55:08.000Z</time>
      </trkpt>
      <trkpt lat="49.2847" lon="-0.18453">
        <ele>5.118585</ele>
        <time>2022-08-05T13:55:09.000Z</time>
      </trkpt>
      <trkpt lat="49.28471" lon="-0.18445">
        <ele>5.132726</ele>
        <time>2022-08-05T13:55:10.000Z</time>
      </trkpt>
      <trkpt lat="49.28472" lon="-0.18437">
        <ele>5.146959</ele>
        <time>2022-08-05T13:55:11.000Z</time>
      </trkpt>
      <trkpt lat="49.28473" lon="-0.1843">
        <ele>5.160748</ele>
        <time>2022-08-05T13:55:12.000Z</time>
      </trkpt>
      <trkpt lat="49.28473" lon="-0.18422">
        <ele>5.174627</ele>
        <time>2022-08-05T13:55:13.000Z</time>
      </trkpt>
      <trkpt lat="49.28474" lon="-0.18414">
        <ele>5.188576</ele>
        <time>2022-08-05T13:55:14.000Z</time>
      </trkpt>
      <trkpt lat="49.28475" lon="-0.18406">
        <ele>5.203468</ele>
        <time>2022-08-05T13:55:15.000Z</time>
      </trkpt>
      <trkpt lat="49.28475" lon="-0.18398">
        <ele>5.217774</ele>
        <time>2022-08-05T13:55:16.000Z</time>
      </trkpt>
      <trkpt lat="49.28475" lon="-0.1839">
        <ele>5.232079</ele>
        <time>2022-08-05T13:55:17.000Z</time>
      </trkpt>
      <trkpt lat="49.28476" lon="-0.18382">
        <ele>5.246741</ele>
        <time>2022-08-05T13:55:18.000Z</time>
      </trkpt>
      <trkpt lat="49.28476" lon="-0.18374">
        <ele>5.260689</ele>
        <time>2022-08-05T13:55:19.000Z</time>
      </trkpt>
      <trkpt lat="49.28476" lon="-0.18366">
        <ele>5.274614</ele>
        <time>2022-08-05T13:55:20.000Z</time>
      </trkpt>
      <trkpt lat="49.28476" lon="-0.18359">
        <ele>5.28836</ele>
        <time>2022-08-05T13:55:21.000Z</time>
      </trkpt>
      <trkpt lat="49.28476" lon="-0.18351">
        <ele>5.302131</ele>
        <time>2022-08-05T13:55:22.000Z</time>
      </trkpt>
      <trkpt lat="49.28476" lon="-0.18343">
        <ele>5.30588</ele>
        <time>2022-08-05T13:55:23.000Z</time>
      </trkpt>
      <trkpt lat="49.28475" lon="-0.18335">
        <ele>5.300698</ele>
        <time>2022-08-05T13:55:24.000Z</time>
      </trkpt>
      <trkpt lat="49.28475" lon="-0.18327">
        <ele>5.295392</ele>
        <time>2022-08-05T13:55:25.000Z</time>
      </trkpt>
      <trkpt lat="49.28475" lon="-0.18319">
        <ele>5.289919</ele>
        <time>2022-08-05T13:55:26.000Z</time>
      </trkpt>
      <trkpt lat="49.28474" lon="-0.18311">
        <ele>5.284565</ele>
        <time>2022-08-05T13:55:27.000Z</time>
      </trkpt>
      <trkpt lat="49.28474" lon="-0.18303">
        <ele>5.279118</ele>
        <time>2022-08-05T13:55:28.000Z</time>
      </trkpt>
      <trkpt lat="49.28473" lon="-0.18295">
        <ele>5.273803</ele>
        <time>2022-08-05T13:55:29.000Z</time>
      </trkpt>
      <trkpt lat="49.28473" lon="-0.18287">
        <ele>5.268488</ele>
        <time>2022-08-05T13:55:30.000Z</time>
      </trkpt>
      <trkpt lat="49.28472" lon="-0.18279">
        <ele>5.26302</ele>
        <time>2022-08-05T13:55:31.000Z</time>
      </trkpt>
      <trkpt lat="49.28471" lon="-0.18271">
        <ele>5.257487</ele>
        <time>2022-08-05T13:55:32.000Z</time>
      </trkpt>
      <trkpt lat="49.28471" lon="-0.18263">
        <ele>5.252172</ele>
        <time>2022-08-05T13:55:33.000Z</time>
      </trkpt>
      <trkpt lat="49.2847" lon="-0.18254">
        <ele>5.246591</ele>
        <time>2022-08-05T13:55:34.000Z</time>
      </trkpt>
      <trkpt lat="49.28469" lon="-0.18246">
        <ele>5.241137</ele>
        <time>2022-08-05T13:55:35.000Z</time>
      </trkpt>
      <trkpt lat="49.28469" lon="-0.18238">
        <ele>5.235598</ele>
        <time>2022-08-05T13:55:36.000Z</time>
      </trkpt>
      <trkpt lat="49.28469" lon="-0.18229">
        <ele>5.230019</ele>
        <time>2022-08-05T13:55:37.000Z</time>
      </trkpt>
      <trkpt lat="49.28468" lon="-0.18221">
        <ele>5.22442</ele>
        <time>2022-08-05T13:55:38.000Z</time>
      </trkpt>
      <trkpt lat="49.28467" lon="-0.18213">
        <ele>5.218973</ele>
        <time>2022-08-05T13:55:39.000Z</time>
      </trkpt>
      <trkpt lat="49.28467" lon="-0.18205">
        <ele>5.213592</ele>
        <time>2022-08-05T13:55:40.000Z</time>
      </trkpt>
      <trkpt lat="49.28466" lon="-0.18197">
        <ele>5.208059</ele>
        <time>2022-08-05T13:55:41.000Z</time>
      </trkpt>
      <trkpt lat="49.28466" lon="-0.18188">
        <ele>5.202611</ele>
        <time>2022-08-05T13:55:42.000Z</time>
      </trkpt>
      <trkpt lat="49.28465" lon="-0.1818">
        <ele>5.19723</ele>
        <time>2022-08-05T13:55:43.000Z</time>
      </trkpt>
      <trkpt lat="49.28465" lon="-0.18172">
        <ele>5.191783</ele>
        <time>2022-08-05T13:55:44.000Z</time>
      </trkpt>
      <trkpt lat="49.28465" lon="-0.18164">
        <ele>5.186329</ele>
        <time>2022-08-05T13:55:45.000Z</time>
      </trkpt>
      <trkpt lat="49.28465" lon="-0.18156">
        <ele>5.180956</ele>
        <time>2022-08-05T13:55:46.000Z</time>
      </trkpt>
      <trkpt lat="49.28464" lon="-0.18148">
        <ele>5.175441</ele>
        <time>2022-08-05T13:55:47.000Z</time>
      </trkpt>
      <trkpt lat="49.28463" lon="-0.1814">
        <ele>5.170087</ele>
        <time>2022-08-05T13:55:48.000Z</time>
      </trkpt>
      <trkpt lat="49.28463" lon="-0.18132">
        <ele>5.164772</ele>
        <time>2022-08-05T13:55:49.000Z</time>
      </trkpt>
      <trkpt lat="49.28462" lon="-0.18123">
        <ele>5.159299</ele>
        <time>2022-08-05T13:55:50.000Z</time>
      </trkpt>
      <trkpt lat="49.28461" lon="-0.18116">
        <ele>5.154077</ele>
        <time>2022-08-05T13:55:51.000Z</time>
      </trkpt>
      <trkpt lat="49.2846" lon="-0.18108">
        <ele>5.148762</ele>
        <time>2022-08-05T13:55:52.000Z</time>
      </trkpt>
      <trkpt lat="49.2846" lon="-0.181">
        <ele>5.143474</ele>
        <time>2022-08-05T13:55:53.000Z</time>
      </trkpt>
      <trkpt lat="49.28459" lon="-0.18092">
        <ele>5.138093</ele>
        <time>2022-08-05T13:55:54.000Z</time>
      </trkpt>
      <trkpt lat="49.28459" lon="-0.18084">
        <ele>5.132817</ele>
        <time>2022-08-05T13:55:55.000Z</time>
      </trkpt>
      <trkpt lat="49.28458" lon="-0.18076">
        <ele>5.127545</ele>
        <time>2022-08-05T13:55:56.000Z</time>
      </trkpt>
      <trkpt lat="49.28457" lon="-0.18068">
        <ele>5.135615</ele>
        <time>2022-08-05T13:55:57.000Z</time>
      </trkpt>
      <trkpt lat="49.28457" lon="-0.1806">
        <ele>5.150914</ele>
        <time>2022-08-05T13:55:58.000Z</time>
      </trkpt>
      <trkpt lat="49.28456" lon="-0.18053">
        <ele>5.166283</ele>
        <time>2022-08-05T13:55:59.000Z</time>
      </trkpt>
      <trkpt lat="49.28455" lon="-0.18045">
        <ele>5.181467</ele>
        <time>2022-08-05T13:56:00.000Z</time>
      </trkpt>
      <trkpt lat="49.28455" lon="-0.18037">
        <ele>5.196787</ele>
        <time>2022-08-05T13:56:01.000Z</time>
      </trkpt>
      <trkpt lat="49.28455" lon="-0.18029">
        <ele>5.211507</ele>
        <time>2022-08-05T13:56:02.000Z</time>
      </trkpt>
      <trkpt lat="49.28454" lon="-0.18022">
        <ele>5.226631</ele>
        <time>2022-08-05T13:56:03.000Z</time>
      </trkpt>
      <trkpt lat="49.28453" lon="-0.18014">
        <ele>5.241757</ele>
        <time>2022-08-05T13:56:04.000Z</time>
      </trkpt>
      <trkpt lat="49.28453" lon="-0.18006">
        <ele>5.257134</ele>
        <time>2022-08-05T13:56:05.000Z</time>
      </trkpt>
      <trkpt lat="49.28452" lon="-0.17998">
        <ele>5.272319</ele>
        <time>2022-08-05T13:56:06.000Z</time>
      </trkpt>
      <trkpt lat="49.28452" lon="-0.17991">
        <ele>5.286584</ele>
        <time>2022-08-05T13:56:07.000Z</time>
      </trkpt>
      <trkpt lat="49.28451" lon="-0.17983">
        <ele>5.301111</ele>
        <time>2022-08-05T13:56:08.000Z</time>
      </trkpt>
      <trkpt lat="49.28452" lon="-0.17976">
        <ele>5.315445</ele>
        <time>2022-08-05T13:56:09.000Z</time>
      </trkpt>
      <trkpt lat="49.28451" lon="-0.17969">
        <ele>5.328622</ele>
        <time>2022-08-05T13:56:10.000Z</time>
      </trkpt>
      <trkpt lat="49.28451" lon="-0.17962">
        <ele>5.341799</ele>
        <time>2022-08-05T13:56:11.000Z</time>
      </trkpt>
      <trkpt lat="49.28451" lon="-0.17956">
        <ele>5.354172</ele>
        <time>2022-08-05T13:56:12.000Z</time>
      </trkpt>
      <trkpt lat="49.28451" lon="-0.1795">
        <ele>5.365999</ele>
        <time>2022-08-05T13:56:13.000Z</time>
      </trkpt>
      <trkpt lat="49.28451" lon="-0.17944">
        <ele>5.377599</ele>
        <time>2022-08-05T13:56:14.000Z</time>
      </trkpt>
      <trkpt lat="49.28451" lon="-0.17938">
        <ele>5.3892</ele>
        <time>2022-08-05T13:56:15.000Z</time>
      </trkpt>
      <trkpt lat="49.28452" lon="-0.17932">
        <ele>5.400255</ele>
        <time>2022-08-05T13:56:16.000Z</time>
      </trkpt>
      <trkpt lat="49.28452" lon="-0.17927">
        <ele>5.41071</ele>
        <time>2022-08-05T13:56:17.000Z</time>
      </trkpt>
      <trkpt lat="49.28453" lon="-0.17922">
        <ele>5.42092</ele>
        <time>2022-08-05T13:56:18.000Z</time>
      </trkpt>
      <trkpt lat="49.28453" lon="-0.17916">
        <ele>5.43159</ele>
        <time>2022-08-05T13:56:19.000Z</time>
      </trkpt>
      <trkpt lat="49.28453" lon="-0.1791">
        <ele>5.442839</ele>
        <time>2022-08-05T13:56:20.000Z</time>
      </trkpt>
      <trkpt lat="49.28453" lon="-0.17904">
        <ele>5.454439</ele>
        <time>2022-08-05T13:56:21.000Z</time>
      </trkpt>
      <trkpt lat="49.28453" lon="-0.17898">
        <ele>5.466073</ele>
        <time>2022-08-05T13:56:22.000Z</time>
      </trkpt>
      <trkpt lat="49.28454" lon="-0.17892">
        <ele>5.47881</ele>
        <time>2022-08-05T13:56:23.000Z</time>
      </trkpt>
      <trkpt lat="49.28455" lon="-0.17885">
        <ele>5.49187</ele>
        <time>2022-08-05T13:56:24.000Z</time>
      </trkpt>
      <trkpt lat="49.28456" lon="-0.17879">
        <ele>5.505158</ele>
        <time>2022-08-05T13:56:25.000Z</time>
      </trkpt>
      <trkpt lat="49.28457" lon="-0.17873">
        <ele>5.51657</ele>
        <time>2022-08-05T13:56:26.000Z</time>
      </trkpt>
      <trkpt lat="49.28458" lon="-0.17865">
        <ele>5.532331</ele>
        <time>2022-08-05T13:56:27.000Z</time>
      </trkpt>
      <trkpt lat="49.28459" lon="-0.17858">
        <ele>5.545996</ele>
        <time>2022-08-05T13:56:28.000Z</time>
      </trkpt>
      <trkpt lat="49.28459" lon="-0.17853">
        <ele>5.556015</ele>
        <time>2022-08-05T13:56:29.000Z</time>
      </trkpt>
      <trkpt lat="49.2846" lon="-0.17845">
        <ele>5.570815</ele>
        <time>2022-08-05T13:56:30.000Z</time>
      </trkpt>
      <trkpt lat="49.28461" lon="-0.17839">
        <ele>5.582763</ele>
        <time>2022-08-05T13:56:31.000Z</time>
      </trkpt>
      <trkpt lat="49.28463" lon="-0.17833">
        <ele>5.59517</ele>
        <time>2022-08-05T13:56:32.000Z</time>
      </trkpt>
      <trkpt lat="49.28463" lon="-0.17829">
        <ele>5.6043</ele>
        <time>2022-08-05T13:56:33.000Z</time>
      </trkpt>
      <trkpt lat="49.28464" lon="-0.17821">
        <ele>5.618374</ele>
        <time>2022-08-05T13:56:34.000Z</time>
      </trkpt>
      <trkpt lat="49.28463" lon="-0.17816">
        <ele>5.629237</ele>
        <time>2022-08-05T13:56:35.000Z</time>
      </trkpt>
      <trkpt lat="49.28463" lon="-0.1781">
        <ele>5.640451</ele>
        <time>2022-08-05T13:56:36.000Z</time>
      </trkpt>
      <trkpt lat="49.28462" lon="-0.17805">
        <ele>5.650851</ele>
        <time>2022-08-05T13:56:37.000Z</time>
      </trkpt>
      <trkpt lat="49.28463" lon="-0.178">
        <ele>5.660287</ele>
        <time>2022-08-05T13:56:38.000Z</time>
      </trkpt>
      <trkpt lat="49.28463" lon="-0.17796">
        <ele>5.665257</ele>
        <time>2022-08-05T13:56:39.000Z</time>
      </trkpt>
      <trkpt lat="49.28465" lon="-0.17791">
        <ele>5.671931</ele>
        <time>2022-08-05T13:56:40.000Z</time>
      </trkpt>
      <trkpt lat="49.28467" lon="-0.17787">
        <ele>5.678053</ele>
        <time>2022-08-05T13:56:41.000Z</time>
      </trkpt>
      <trkpt lat="49.28469" lon="-0.17782">
        <ele>5.685494</ele>
        <time>2022-08-05T13:56:42.000Z</time>
      </trkpt>
      <trkpt lat="49.28471" lon="-0.17779">
        <ele>5.690372</ele>
        <time>2022-08-05T13:56:43.000Z</time>
      </trkpt>
      <trkpt lat="49.28473" lon="-0.17775">
        <ele>5.696703</ele>
        <time>2022-08-05T13:56:44.000Z</time>
      </trkpt>
      <trkpt lat="49.28474" lon="-0.17769">
        <ele>5.705141</ele>
        <time>2022-08-05T13:56:45.000Z</time>
      </trkpt>
      <trkpt lat="49.28475" lon="-0.17765">
        <ele>5.710879</ele>
        <time>2022-08-05T13:56:46.000Z</time>
      </trkpt>
      <trkpt lat="49.28476" lon="-0.17759">
        <ele>5.717899</ele>
        <time>2022-08-05T13:56:47.000Z</time>
      </trkpt>
      <trkpt lat="49.28477" lon="-0.17753">
        <ele>5.725572</ele>
        <time>2022-08-05T13:56:48.000Z</time>
      </trkpt>
      <trkpt lat="49.28477" lon="-0.17747">
        <ele>5.733213</ele>
        <time>2022-08-05T13:56:49.000Z</time>
      </trkpt>
      <trkpt lat="49.28479" lon="-0.17741">
        <ele>5.741723</ele>
        <time>2022-08-05T13:56:50.000Z</time>
      </trkpt>
      <trkpt lat="49.2848" lon="-0.17735">
        <ele>5.749768</ele>
        <time>2022-08-05T13:56:51.000Z</time>
      </trkpt>
      <trkpt lat="49.28481" lon="-0.17728">
        <ele>5.758326</ele>
        <time>2022-08-05T13:56:52.000Z</time>
      </trkpt>
      <trkpt lat="49.28482" lon="-0.17722">
        <ele>5.76669</ele>
        <time>2022-08-05T13:56:53.000Z</time>
      </trkpt>
      <trkpt lat="49.28483" lon="-0.17715">
        <ele>5.775097</ele>
        <time>2022-08-05T13:56:54.000Z</time>
      </trkpt>
      <trkpt lat="49.28484" lon="-0.17708">
        <ele>5.783954</ele>
        <time>2022-08-05T13:56:55.000Z</time>
      </trkpt>
      <trkpt lat="49.28485" lon="-0.17702">
        <ele>5.792874</ele>
        <time>2022-08-05T13:56:56.000Z</time>
      </trkpt>
      <trkpt lat="49.28486" lon="-0.17695">
        <ele>5.802036</ele>
        <time>2022-08-05T13:56:57.000Z</time>
      </trkpt>
      <trkpt lat="49.28487" lon="-0.17687">
        <ele>5.811173</ele>
        <time>2022-08-05T13:56:58.000Z</time>
      </trkpt>
      <trkpt lat="49.28488" lon="-0.1768">
        <ele>5.820316</ele>
        <time>2022-08-05T13:56:59.000Z</time>
      </trkpt>
      <trkpt lat="49.28489" lon="-0.17673">
        <ele>5.829829</ele>
        <time>2022-08-05T13:57:00.000Z</time>
      </trkpt>
      <trkpt lat="49.2849" lon="-0.17666">
        <ele>5.838841</ele>
        <time>2022-08-05T13:57:01.000Z</time>
      </trkpt>
      <trkpt lat="49.28491" lon="-0.17659">
        <ele>5.848245</ele>
        <time>2022-08-05T13:57:02.000Z</time>
      </trkpt>
      <trkpt lat="49.28491" lon="-0.17652">
        <ele>5.856824</ele>
        <time>2022-08-05T13:57:03.000Z</time>
      </trkpt>
      <trkpt lat="49.28492" lon="-0.17645">
        <ele>5.865711</ele>
        <time>2022-08-05T13:57:04.000Z</time>
      </trkpt>
      <trkpt lat="49.28493" lon="-0.17637">
        <ele>5.875124</ele>
        <time>2022-08-05T13:57:05.000Z</time>
      </trkpt>
      <trkpt lat="49.28493" lon="-0.1763">
        <ele>5.884061</ele>
        <time>2022-08-05T13:57:06.000Z</time>
      </trkpt>
      <trkpt lat="49.28493" lon="-0.17623">
        <ele>5.892873</ele>
        <time>2022-08-05T13:57:07.000Z</time>
      </trkpt>
      <trkpt lat="49.28493" lon="-0.17616">
        <ele>5.901684</ele>
        <time>2022-08-05T13:57:08.000Z</time>
      </trkpt>
      <trkpt lat="49.28493" lon="-0.17608">
        <ele>5.912006</ele>
        <time>2022-08-05T13:57:09.000Z</time>
      </trkpt>
      <trkpt lat="49.28492" lon="-0.17603">
        <ele>5.918813</ele>
        <time>2022-08-05T13:57:10.000Z</time>
      </trkpt>
      <trkpt lat="49.28492" lon="-0.17596">
        <ele>5.927499</ele>
        <time>2022-08-05T13:57:11.000Z</time>
      </trkpt>
      <trkpt lat="49.28491" lon="-0.17589">
        <ele>5.936136</ele>
        <time>2022-08-05T13:57:12.000Z</time>
      </trkpt>
      <trkpt lat="49.28491" lon="-0.17582">
        <ele>5.944967</ele>
        <time>2022-08-05T13:57:13.000Z</time>
      </trkpt>
      <trkpt lat="49.2849" lon="-0.17575">
        <ele>5.954356</ele>
        <time>2022-08-05T13:57:14.000Z</time>
      </trkpt>
      <trkpt lat="49.28489" lon="-0.17566">
        <ele>5.965619</ele>
        <time>2022-08-05T13:57:15.000Z</time>
      </trkpt>
      <trkpt lat="49.28489" lon="-0.17558">
        <ele>5.975281</ele>
        <time>2022-08-05T13:57:16.000Z</time>
      </trkpt>
      <trkpt lat="49.28487" lon="-0.17551">
        <ele>5.985246</ele>
        <time>2022-08-05T13:57:17.000Z</time>
      </trkpt>
      <trkpt lat="49.28487" lon="-0.17543">
        <ele>5.995157</ele>
        <time>2022-08-05T13:57:18.000Z</time>
      </trkpt>
      <trkpt lat="49.28485" lon="-0.17535">
        <ele>6.005413</ele>
        <time>2022-08-05T13:57:19.000Z</time>
      </trkpt>
      <trkpt lat="49.28485" lon="-0.17527">
        <ele>6.000999</ele>
        <time>2022-08-05T13:57:20.000Z</time>
      </trkpt>
      <trkpt lat="49.28484" lon="-0.17519">
        <ele>5.995665</ele>
        <time>2022-08-05T13:57:21.000Z</time>
      </trkpt>
      <trkpt lat="49.28483" lon="-0.17511">
        <ele>5.990454</ele>
        <time>2022-08-05T13:57:22.000Z</time>
      </trkpt>
      <trkpt lat="49.28482" lon="-0.17503">
        <ele>5.98512</ele>
        <time>2022-08-05T13:57:23.000Z</time>
      </trkpt>
      <trkpt lat="49.28481" lon="-0.17495">
        <ele>5.979658</ele>
        <time>2022-08-05T13:57:24.000Z</time>
      </trkpt>
      <trkpt lat="49.28479" lon="-0.17487">
        <ele>5.974473</ele>
        <time>2022-08-05T13:57:25.000Z</time>
      </trkpt>
      <trkpt lat="49.28478" lon="-0.17479">
        <ele>5.969202</ele>
        <time>2022-08-05T13:57:26.000Z</time>
      </trkpt>
      <trkpt lat="49.28477" lon="-0.17471">
        <ele>5.963995</ele>
        <time>2022-08-05T13:57:27.000Z</time>
      </trkpt>
      <trkpt lat="49.28477" lon="-0.17463">
        <ele>5.958743</ele>
        <time>2022-08-05T13:57:28.000Z</time>
      </trkpt>
      <trkpt lat="49.28475" lon="-0.17455">
        <ele>5.953345</ele>
        <time>2022-08-05T13:57:29.000Z</time>
      </trkpt>
      <trkpt lat="49.28475" lon="-0.17447">
        <ele>5.948135</ele>
        <time>2022-08-05T13:57:30.000Z</time>
      </trkpt>
      <trkpt lat="49.28473" lon="-0.17438">
        <ele>5.942549</ele>
        <time>2022-08-05T13:57:31.000Z</time>
      </trkpt>
      <trkpt lat="49.28472" lon="-0.1743">
        <ele>5.936899</ele>
        <time>2022-08-05T13:57:32.000Z</time>
      </trkpt>
      <trkpt lat="49.28471" lon="-0.17422">
        <ele>5.931625</ele>
        <time>2022-08-05T13:57:33.000Z</time>
      </trkpt>
      <trkpt lat="49.2847" lon="-0.17413">
        <ele>5.926039</ele>
        <time>2022-08-05T13:57:34.000Z</time>
      </trkpt>
      <trkpt lat="49.28469" lon="-0.17405">
        <ele>5.920577</ele>
        <time>2022-08-05T13:57:35.000Z</time>
      </trkpt>
      <trkpt lat="49.28469" lon="-0.17397">
        <ele>5.915238</ele>
        <time>2022-08-05T13:57:36.000Z</time>
      </trkpt>
      <trkpt lat="49.28467" lon="-0.17389">
        <ele>5.909715</ele>
        <time>2022-08-05T13:57:37.000Z</time>
      </trkpt>
      <trkpt lat="49.28466" lon="-0.1738">
        <ele>5.90394</ele>
        <time>2022-08-05T13:57:38.000Z</time>
      </trkpt>
      <trkpt lat="49.28465" lon="-0.17372">
        <ele>5.898536</ele>
        <time>2022-08-05T13:57:39.000Z</time>
      </trkpt>
      <trkpt lat="49.28464" lon="-0.17363">
        <ele>5.892887</ele>
        <time>2022-08-05T13:57:40.000Z</time>
      </trkpt>
      <trkpt lat="49.28463" lon="-0.17355">
        <ele>5.887299</ele>
        <time>2022-08-05T13:57:41.000Z</time>
      </trkpt>
      <trkpt lat="49.28462" lon="-0.17346">
        <ele>5.881727</ele>
        <time>2022-08-05T13:57:42.000Z</time>
      </trkpt>
      <trkpt lat="49.28461" lon="-0.17337">
        <ele>5.876011</ele>
        <time>2022-08-05T13:57:43.000Z</time>
      </trkpt>
      <trkpt lat="49.2846" lon="-0.17329">
        <ele>5.870362</ele>
        <time>2022-08-05T13:57:44.000Z</time>
      </trkpt>
      <trkpt lat="49.28459" lon="-0.17321">
        <ele>5.864958</ele>
        <time>2022-08-05T13:57:45.000Z</time>
      </trkpt>
      <trkpt lat="49.28458" lon="-0.17312">
        <ele>5.859435</ele>
        <time>2022-08-05T13:57:46.000Z</time>
      </trkpt>
      <trkpt lat="49.28457" lon="-0.17304">
        <ele>5.853863</ele>
        <time>2022-08-05T13:57:47.000Z</time>
      </trkpt>
      <trkpt lat="49.28456" lon="-0.17295">
        <ele>5.84802</ele>
        <time>2022-08-05T13:57:48.000Z</time>
      </trkpt>
      <trkpt lat="49.28455" lon="-0.17286">
        <ele>5.842487</ele>
        <time>2022-08-05T13:57:49.000Z</time>
      </trkpt>
      <trkpt lat="49.28454" lon="-0.17278">
        <ele>5.836763</ele>
        <time>2022-08-05T13:57:50.000Z</time>
      </trkpt>
      <trkpt lat="49.28453" lon="-0.17269">
        <ele>5.83122</ele>
        <time>2022-08-05T13:57:51.000Z</time>
      </trkpt>
      <trkpt lat="49.28452" lon="-0.17261">
        <ele>5.821676</ele>
        <time>2022-08-05T13:57:52.000Z</time>
      </trkpt>
      <trkpt lat="49.28451" lon="-0.17253">
        <ele>5.802979</ele>
        <time>2022-08-05T13:57:53.000Z</time>
      </trkpt>
      <trkpt lat="49.2845" lon="-0.17244">
        <ele>5.784711</ele>
        <time>2022-08-05T13:57:54.000Z</time>
      </trkpt>
      <trkpt lat="49.28449" lon="-0.17236">
        <ele>5.76607</ele>
        <time>2022-08-05T13:57:55.000Z</time>
      </trkpt>
      <trkpt lat="49.28448" lon="-0.17228">
        <ele>5.748225</ele>
        <time>2022-08-05T13:57:56.000Z</time>
      </trkpt>
      <trkpt lat="49.28447" lon="-0.1722">
        <ele>5.730793</ele>
        <time>2022-08-05T13:57:57.000Z</time>
      </trkpt>
      <trkpt lat="49.28446" lon="-0.17212">
        <ele>5.713155</ele>
        <time>2022-08-05T13:57:58.000Z</time>
      </trkpt>
      <trkpt lat="49.28445" lon="-0.17204">
        <ele>5.695728</ele>
        <time>2022-08-05T13:57:59.000Z</time>
      </trkpt>
      <trkpt lat="49.28444" lon="-0.17196">
        <ele>5.678095</ele>
        <time>2022-08-05T13:58:00.000Z</time>
      </trkpt>
      <trkpt lat="49.28443" lon="-0.17188">
        <ele>5.660233</ele>
        <time>2022-08-05T13:58:01.000Z</time>
      </trkpt>
      <trkpt lat="49.28442" lon="-0.1718">
        <ele>5.642806</ele>
        <time>2022-08-05T13:58:02.000Z</time>
      </trkpt>
      <trkpt lat="49.28441" lon="-0.17172">
        <ele>5.626019</ele>
        <time>2022-08-05T13:58:03.000Z</time>
      </trkpt>
      <trkpt lat="49.2844" lon="-0.17165">
        <ele>5.609235</ele>
        <time>2022-08-05T13:58:04.000Z</time>
      </trkpt>
      <trkpt lat="49.2844" lon="-0.17157">
        <ele>5.592018</ele>
        <time>2022-08-05T13:58:05.000Z</time>
      </trkpt>
      <trkpt lat="49.28439" lon="-0.17149">
        <ele>5.575403</ele>
        <time>2022-08-05T13:58:06.000Z</time>
      </trkpt>
      <trkpt lat="49.28438" lon="-0.17142">
        <ele>5.558469</ele>
        <time>2022-08-05T13:58:07.000Z</time>
      </trkpt>
      <trkpt lat="49.28438" lon="-0.17134">
        <ele>5.541555</ele>
        <time>2022-08-05T13:58:08.000Z</time>
      </trkpt>
      <trkpt lat="49.28437" lon="-0.17126">
        <ele>5.524725</ele>
        <time>2022-08-05T13:58:09.000Z</time>
      </trkpt>
      <trkpt lat="49.28436" lon="-0.17118">
        <ele>5.507791</ele>
        <time>2022-08-05T13:58:10.000Z</time>
      </trkpt>
      <trkpt lat="49.28436" lon="-0.17111">
        <ele>5.491501</ele>
        <time>2022-08-05T13:58:11.000Z</time>
      </trkpt>
      <trkpt lat="49.28435" lon="-0.17104">
        <ele>5.476218</ele>
        <time>2022-08-05T13:58:12.000Z</time>
      </trkpt>
      <trkpt lat="49.28435" lon="-0.17098">
        <ele>5.46427</ele>
        <time>2022-08-05T13:58:13.000Z</time>
      </trkpt>
      <trkpt lat="49.28434" lon="-0.1709">
        <ele>5.446425</ele>
        <time>2022-08-05T13:58:14.000Z</time>
      </trkpt>
      <trkpt lat="49.28433" lon="-0.17083">
        <ele>5.430555</ele>
        <time>2022-08-05T13:58:15.000Z</time>
      </trkpt>
      <trkpt lat="49.28432" lon="-0.17076">
        <ele>5.414619</ele>
        <time>2022-08-05T13:58:16.000Z</time>
      </trkpt>
      <trkpt lat="49.28431" lon="-0.17069">
        <ele>5.398692</ele>
        <time>2022-08-05T13:58:17.000Z</time>
      </trkpt>
      <trkpt lat="49.2843" lon="-0.17061">
        <ele>5.381696</ele>
        <time>2022-08-05T13:58:18.000Z</time>
      </trkpt>
      <trkpt lat="49.2843" lon="-0.17053">
        <ele>5.365124</ele>
        <time>2022-08-05T13:58:19.000Z</time>
      </trkpt>
      <trkpt lat="49.28429" lon="-0.17046">
        <ele>5.348294</ele>
        <time>2022-08-05T13:58:20.000Z</time>
      </trkpt>
      <trkpt lat="49.28428" lon="-0.17038">
        <ele>5.331786</ele>
        <time>2022-08-05T13:58:21.000Z</time>
      </trkpt>
      <trkpt lat="49.28428" lon="-0.17032">
        <ele>5.31873</ele>
        <time>2022-08-05T13:58:22.000Z</time>
      </trkpt>
      <trkpt lat="49.28427" lon="-0.17023">
        <ele>5.299577</ele>
        <time>2022-08-05T13:58:23.000Z</time>
      </trkpt>
      <trkpt lat="49.28427" lon="-0.17016">
        <ele>5.283311</ele>
        <time>2022-08-05T13:58:24.000Z</time>
      </trkpt>
      <trkpt lat="49.28426" lon="-0.17009">
        <ele>5.267552</ele>
        <time>2022-08-05T13:58:25.000Z</time>
      </trkpt>
      <trkpt lat="49.28426" lon="-0.17002">
        <ele>5.252832</ele>
        <time>2022-08-05T13:58:26.000Z</time>
      </trkpt>
      <trkpt lat="49.28426" lon="-0.16995">
        <ele>5.237646</ele>
        <time>2022-08-05T13:58:27.000Z</time>
      </trkpt>
      <trkpt lat="49.28426" lon="-0.16988">
        <ele>5.238283</ele>
        <time>2022-08-05T13:58:28.000Z</time>
      </trkpt>
      <trkpt lat="49.28426" lon="-0.16982">
        <ele>5.252719</ele>
        <time>2022-08-05T13:58:29.000Z</time>
      </trkpt>
      <trkpt lat="49.28427" lon="-0.16975">
        <ele>5.266877</ele>
        <time>2022-08-05T13:58:30.000Z</time>
      </trkpt>
      <trkpt lat="49.28427" lon="-0.16969">
        <ele>5.280169</ele>
        <time>2022-08-05T13:58:31.000Z</time>
      </trkpt>
      <trkpt lat="49.28427" lon="-0.16963">
        <ele>5.2935</ele>
        <time>2022-08-05T13:58:32.000Z</time>
      </trkpt>
      <trkpt lat="49.28428" lon="-0.16958">
        <ele>5.305507</ele>
        <time>2022-08-05T13:58:33.000Z</time>
      </trkpt>
      <trkpt lat="49.28428" lon="-0.16953">
        <ele>5.31663</ele>
        <time>2022-08-05T13:58:34.000Z</time>
      </trkpt>
      <trkpt lat="49.28428" lon="-0.16949">
        <ele>5.325158</ele>
        <time>2022-08-05T13:58:35.000Z</time>
      </trkpt>
      <trkpt lat="49.28428" lon="-0.16945">
        <ele>5.333692</ele>
        <time>2022-08-05T13:58:36.000Z</time>
      </trkpt>
      <trkpt lat="49.28427" lon="-0.16943">
        <ele>5.340222</ele>
        <time>2022-08-05T13:58:37.000Z</time>
      </trkpt>
      <trkpt lat="49.28426" lon="-0.16941">
        <ele>5.346477</ele>
        <time>2022-08-05T13:58:38.000Z</time>
      </trkpt>
      <trkpt lat="49.28424" lon="-0.16937">
        <ele>5.356497</ele>
        <time>2022-08-05T13:58:40.000Z</time>
      </trkpt>
      <trkpt lat="49.28424" lon="-0.16932">
        <ele>5.367352</ele>
        <time>2022-08-05T13:58:42.000Z</time>
      </trkpt>
      <trkpt lat="49.28425" lon="-0.16929">
        <ele>5.374424</ele>
        <time>2022-08-05T13:58:43.000Z</time>
      </trkpt>
      <trkpt lat="49.28427" lon="-0.16924">
        <ele>5.387628</ele>
        <time>2022-08-05T13:58:45.000Z</time>
      </trkpt>
      <trkpt lat="49.28428" lon="-0.16921">
        <ele>5.395242</ele>
        <time>2022-08-05T13:58:46.000Z</time>
      </trkpt>
      <trkpt lat="49.28429" lon="-0.16918">
        <ele>5.404002</ele>
        <time>2022-08-05T13:58:47.000Z</time>
      </trkpt>
      <trkpt lat="49.2843" lon="-0.16914">
        <ele>5.411873</ele>
        <time>2022-08-05T13:58:48.000Z</time>
      </trkpt>
      <trkpt lat="49.2843" lon="-0.16908">
        <ele>5.424763</ele>
        <time>2022-08-05T13:58:49.000Z</time>
      </trkpt>
      <trkpt lat="49.28431" lon="-0.16903">
        <ele>5.436682</ele>
        <time>2022-08-05T13:58:50.000Z</time>
      </trkpt>
      <trkpt lat="49.28432" lon="-0.16898">
        <ele>5.448661</ele>
        <time>2022-08-05T13:58:51.000Z</time>
      </trkpt>
      <trkpt lat="49.28432" lon="-0.16892">
        <ele>5.461452</ele>
        <time>2022-08-05T13:58:52.000Z</time>
      </trkpt>
      <trkpt lat="49.28433" lon="-0.16888">
        <ele>5.471701</ele>
        <time>2022-08-05T13:58:53.000Z</time>
      </trkpt>
      <trkpt lat="49.28434" lon="-0.16881">
        <ele>5.487073</ele>
        <time>2022-08-05T13:58:54.000Z</time>
      </trkpt>
      <trkpt lat="49.28434" lon="-0.16875">
        <ele>5.500183</ele>
        <time>2022-08-05T13:58:55.000Z</time>
      </trkpt>
      <trkpt lat="49.28436" lon="-0.16869">
        <ele>5.5144</ele>
        <time>2022-08-05T13:58:56.000Z</time>
      </trkpt>
      <trkpt lat="49.28437" lon="-0.16864">
        <ele>5.526119</ele>
        <time>2022-08-05T13:58:57.000Z</time>
      </trkpt>
      <trkpt lat="49.28439" lon="-0.16856">
        <ele>5.544539</ele>
        <time>2022-08-05T13:58:58.000Z</time>
      </trkpt>
      <trkpt lat="49.28439" lon="-0.16851">
        <ele>5.556139</ele>
        <time>2022-08-05T13:58:59.000Z</time>
      </trkpt>
      <trkpt lat="49.2844" lon="-0.16844">
        <ele>5.571341</ele>
        <time>2022-08-05T13:59:00.000Z</time>
      </trkpt>
      <trkpt lat="49.28441" lon="-0.16837">
        <ele>5.587</ele>
        <time>2022-08-05T13:59:01.000Z</time>
      </trkpt>
      <trkpt lat="49.28441" lon="-0.16831">
        <ele>5.601656</ele>
        <time>2022-08-05T13:59:02.000Z</time>
      </trkpt>
      <trkpt lat="49.28442" lon="-0.16823">
        <ele>5.619496</ele>
        <time>2022-08-05T13:59:03.000Z</time>
      </trkpt>
      <trkpt lat="49.28443" lon="-0.16817">
        <ele>5.631932</ele>
        <time>2022-08-05T13:59:04.000Z</time>
      </trkpt>
      <trkpt lat="49.28444" lon="-0.16811">
        <ele>5.645787</ele>
        <time>2022-08-05T13:59:05.000Z</time>
      </trkpt>
      <trkpt lat="49.28444" lon="-0.16805">
        <ele>5.660031</ele>
        <time>2022-08-05T13:59:06.000Z</time>
      </trkpt>
      <trkpt lat="49.28445" lon="-0.16799">
        <ele>5.674135</ele>
        <time>2022-08-05T13:59:07.000Z</time>
      </trkpt>
      <trkpt lat="49.28445" lon="-0.16791">
        <ele>5.690782</ele>
        <time>2022-08-05T13:59:08.000Z</time>
      </trkpt>
      <trkpt lat="49.28445" lon="-0.16786">
        <ele>5.702568</ele>
        <time>2022-08-05T13:59:09.000Z</time>
      </trkpt>
      <trkpt lat="49.28446" lon="-0.16778">
        <ele>5.72023</ele>
        <time>2022-08-05T13:59:10.000Z</time>
      </trkpt>
      <trkpt lat="49.28447" lon="-0.16773">
        <ele>5.731934</ele>
        <time>2022-08-05T13:59:11.000Z</time>
      </trkpt>
      <trkpt lat="49.28447" lon="-0.16766">
        <ele>5.747281</ele>
        <time>2022-08-05T13:59:12.000Z</time>
      </trkpt>
      <trkpt lat="49.28448" lon="-0.16759">
        <ele>5.76238</ele>
        <time>2022-08-05T13:59:13.000Z</time>
      </trkpt>
      <trkpt lat="49.28449" lon="-0.16751">
        <ele>5.780801</ele>
        <time>2022-08-05T13:59:14.000Z</time>
      </trkpt>
      <trkpt lat="49.28449" lon="-0.16744">
        <ele>5.796368</ele>
        <time>2022-08-05T13:59:15.000Z</time>
      </trkpt>
      <trkpt lat="49.28449" lon="-0.16739">
        <ele>5.807666</ele>
        <time>2022-08-05T13:59:16.000Z</time>
      </trkpt>
      <trkpt lat="49.28449" lon="-0.16732">
        <ele>5.822986</ele>
        <time>2022-08-05T13:59:17.000Z</time>
      </trkpt>
      <trkpt lat="49.28449" lon="-0.16725">
        <ele>5.837608</ele>
        <time>2022-08-05T13:59:18.000Z</time>
      </trkpt>
      <trkpt lat="49.28449" lon="-0.16717">
        <ele>5.861535</ele>
        <time>2022-08-05T13:59:19.000Z</time>
      </trkpt>
      <trkpt lat="49.28449" lon="-0.16712">
        <ele>5.878298</ele>
        <time>2022-08-05T13:59:20.000Z</time>
      </trkpt>
      <trkpt lat="49.28448" lon="-0.16706">
        <ele>5.898681</ele>
        <time>2022-08-05T13:59:21.000Z</time>
      </trkpt>
      <trkpt lat="49.28448" lon="-0.16698">
        <ele>5.922737</ele>
        <time>2022-08-05T13:59:22.000Z</time>
      </trkpt>
      <trkpt lat="49.28447" lon="-0.16693">
        <ele>5.939108</ele>
        <time>2022-08-05T13:59:23.000Z</time>
      </trkpt>
      <trkpt lat="49.28445" lon="-0.16688">
        <ele>5.95819</ele>
        <time>2022-08-05T13:59:24.000Z</time>
      </trkpt>
      <trkpt lat="49.28441" lon="-0.16683">
        <ele>5.982767</ele>
        <time>2022-08-05T13:59:25.000Z</time>
      </trkpt>
      <trkpt lat="49.28437" lon="-0.16681">
        <ele>6.004656</ele>
        <time>2022-08-05T13:59:26.000Z</time>
      </trkpt>
      <trkpt lat="49.28434" lon="-0.16679">
        <ele>6.022408</ele>
        <time>2022-08-05T13:59:27.000Z</time>
      </trkpt>
      <trkpt lat="49.28429" lon="-0.16679">
        <ele>6.044577</ele>
        <time>2022-08-05T13:59:28.000Z</time>
      </trkpt>
      <trkpt lat="49.28423" lon="-0.16678">
        <ele>6.072581</ele>
        <time>2022-08-05T13:59:29.000Z</time>
      </trkpt>
      <trkpt lat="49.28418" lon="-0.16679">
        <ele>6.09811</ele>
        <time>2022-08-05T13:59:30.000Z</time>
      </trkpt>
      <trkpt lat="49.28413" lon="-0.16678">
        <ele>6.121677</ele>
        <time>2022-08-05T13:59:31.000Z</time>
      </trkpt>
      <trkpt lat="49.28408" lon="-0.16678">
        <ele>6.149717</ele>
        <time>2022-08-05T13:59:32.000Z</time>
      </trkpt>
      <trkpt lat="49.28402" lon="-0.16677">
        <ele>6.176803</ele>
        <time>2022-08-05T13:59:33.000Z</time>
      </trkpt>
      <trkpt lat="49.28397" lon="-0.16677">
        <ele>6.200381</ele>
        <time>2022-08-05T13:59:34.000Z</time>
      </trkpt>
      <trkpt lat="49.2839" lon="-0.16676">
        <ele>6.234809</ele>
        <time>2022-08-05T13:59:35.000Z</time>
      </trkpt>
      <trkpt lat="49.28384" lon="-0.16676">
        <ele>6.264762</ele>
        <time>2022-08-05T13:59:36.000Z</time>
      </trkpt>
      <trkpt lat="49.28379" lon="-0.16676">
        <ele>6.292744</ele>
        <time>2022-08-05T13:59:37.000Z</time>
      </trkpt>
      <trkpt lat="49.28373" lon="-0.16675">
        <ele>6.318283</ele>
        <time>2022-08-05T13:59:38.000Z</time>
      </trkpt>
      <trkpt lat="49.28368" lon="-0.16675">
        <ele>6.344794</ele>
        <time>2022-08-05T13:59:39.000Z</time>
      </trkpt>
      <trkpt lat="49.28364" lon="-0.16675">
        <ele>6.365417</ele>
        <time>2022-08-05T13:59:40.000Z</time>
      </trkpt>
      <trkpt lat="49.2836" lon="-0.16675">
        <ele>6.384066</ele>
        <time>2022-08-05T13:59:41.000Z</time>
      </trkpt>
      <trkpt lat="49.28358" lon="-0.16675">
        <ele>6.394864</ele>
        <time>2022-08-05T13:59:42.000Z</time>
      </trkpt>
      <trkpt lat="49.28354" lon="-0.16675">
        <ele>6.412535</ele>
        <time>2022-08-05T13:59:43.000Z</time>
      </trkpt>
      <trkpt lat="49.28352" lon="-0.16675">
        <ele>6.421909</ele>
        <time>2022-08-05T13:59:44.000Z</time>
      </trkpt>
      <trkpt lat="49.2835" lon="-0.16674">
        <ele>6.431995</ele>
        <time>2022-08-05T13:59:45.000Z</time>
      </trkpt>
      <trkpt lat="49.28349" lon="-0.16672">
        <ele>6.441735</ele>
        <time>2022-08-05T13:59:46.000Z</time>
      </trkpt>
      <trkpt lat="49.28349" lon="-0.16667">
        <ele>6.45781</ele>
        <time>2022-08-05T13:59:48.000Z</time>
      </trkpt>
      <trkpt lat="49.28349" lon="-0.16664">
        <ele>6.467414</ele>
        <time>2022-08-05T13:59:49.000Z</time>
      </trkpt>
      <trkpt lat="49.28348" lon="-0.16661">
        <ele>6.476499</ele>
        <time>2022-08-05T13:59:50.000Z</time>
      </trkpt>
      <trkpt lat="49.28348" lon="-0.16658">
        <ele>6.485988</ele>
        <time>2022-08-05T13:59:51.000Z</time>
      </trkpt>
      <trkpt lat="49.28348" lon="-0.16655">
        <ele>6.496655</ele>
        <time>2022-08-05T13:59:52.000Z</time>
      </trkpt>
      <trkpt lat="49.28347" lon="-0.16652">
        <ele>6.508241</ele>
        <time>2022-08-05T13:59:53.000Z</time>
      </trkpt>
      <trkpt lat="49.28347" lon="-0.16648">
        <ele>6.520406</ele>
        <time>2022-08-05T13:59:54.000Z</time>
      </trkpt>
      <trkpt lat="49.28347" lon="-0.16644">
        <ele>6.533212</ele>
        <time>2022-08-05T13:59:55.000Z</time>
      </trkpt>
      <trkpt lat="49.28348" lon="-0.16639">
        <ele>6.547603</ele>
        <time>2022-08-05T13:59:56.000Z</time>
      </trkpt>
      <trkpt lat="49.28348" lon="-0.16635">
        <ele>6.561792</ele>
        <time>2022-08-05T13:59:57.000Z</time>
      </trkpt>
      <trkpt lat="49.28348" lon="-0.16631">
        <ele>6.576199</ele>
        <time>2022-08-05T13:59:58.000Z</time>
      </trkpt>
      <trkpt lat="49.28349" lon="-0.16626">
        <ele>6.592475</ele>
        <time>2022-08-05T13:59:59.000Z</time>
      </trkpt>
      <trkpt lat="49.28349" lon="-0.16621">
        <ele>6.607807</ele>
        <time>2022-08-05T14:00:00.000Z</time>
      </trkpt>
      <trkpt lat="49.2835" lon="-0.16616">
        <ele>6.622347</ele>
        <time>2022-08-05T14:00:01.000Z</time>
      </trkpt>
      <trkpt lat="49.2835" lon="-0.16612">
        <ele>6.637784</ele>
        <time>2022-08-05T14:00:02.000Z</time>
      </trkpt>
      <trkpt lat="49.2835" lon="-0.16608">
        <ele>6.649721</ele>
        <time>2022-08-05T14:00:03.000Z</time>
      </trkpt>
      <trkpt lat="49.28351" lon="-0.16604">
        <ele>6.663566</ele>
        <time>2022-08-05T14:00:04.000Z</time>
      </trkpt>
      <trkpt lat="49.28351" lon="-0.16598">
        <ele>6.681174</ele>
        <time>2022-08-05T14:00:05.000Z</time>
      </trkpt>
      <trkpt lat="49.2835" lon="-0.16594">
        <ele>6.695019</ele>
        <time>2022-08-05T14:00:06.000Z</time>
      </trkpt>
      <trkpt lat="49.2835" lon="-0.16589">
        <ele>6.710066</ele>
        <time>2022-08-05T14:00:07.000Z</time>
      </trkpt>
      <trkpt lat="49.2835" lon="-0.16585">
        <ele>6.723832</ele>
        <time>2022-08-05T14:00:08.000Z</time>
      </trkpt>
      <trkpt lat="49.2835" lon="-0.16581">
        <ele>6.706533</ele>
        <time>2022-08-05T14:00:09.000Z</time>
      </trkpt>
      <trkpt lat="49.28351" lon="-0.16577">
        <ele>6.689899</ele>
        <time>2022-08-05T14:00:10.000Z</time>
      </trkpt>
      <trkpt lat="49.28351" lon="-0.16573">
        <ele>6.672952</ele>
        <time>2022-08-05T14:00:11.000Z</time>
      </trkpt>
      <trkpt lat="49.28351" lon="-0.16569">
        <ele>6.654266</ele>
        <time>2022-08-05T14:00:12.000Z</time>
      </trkpt>
      <trkpt lat="49.28351" lon="-0.16564">
        <ele>6.63558</ele>
        <time>2022-08-05T14:00:13.000Z</time>
      </trkpt>
      <trkpt lat="49.28351" lon="-0.1656">
        <ele>6.617583</ele>
        <time>2022-08-05T14:00:14.000Z</time>
      </trkpt>
      <trkpt lat="49.28352" lon="-0.16556">
        <ele>6.599223</ele>
        <time>2022-08-05T14:00:15.000Z</time>
      </trkpt>
      <trkpt lat="49.28352" lon="-0.16551">
        <ele>6.578411</ele>
        <time>2022-08-05T14:00:16.000Z</time>
      </trkpt>
      <trkpt lat="49.28352" lon="-0.16548">
        <ele>6.561898</ele>
        <time>2022-08-05T14:00:17.000Z</time>
      </trkpt>
      <trkpt lat="49.28352" lon="-0.16542">
        <ele>6.537998</ele>
        <time>2022-08-05T14:00:18.000Z</time>
      </trkpt>
      <trkpt lat="49.28352" lon="-0.16537">
        <ele>6.517044</ele>
        <time>2022-08-05T14:00:19.000Z</time>
      </trkpt>
      <trkpt lat="49.28352" lon="-0.16532">
        <ele>6.495657</ele>
        <time>2022-08-05T14:00:20.000Z</time>
      </trkpt>
      <trkpt lat="49.28352" lon="-0.16527">
        <ele>6.473929</ele>
        <time>2022-08-05T14:00:21.000Z</time>
      </trkpt>
      <trkpt lat="49.28352" lon="-0.16523">
        <ele>6.456113</ele>
        <time>2022-08-05T14:00:22.000Z</time>
      </trkpt>
      <trkpt lat="49.28353" lon="-0.16517">
        <ele>6.430396</ele>
        <time>2022-08-05T14:00:23.000Z</time>
      </trkpt>
      <trkpt lat="49.28353" lon="-0.16514">
        <ele>6.41367</ele>
        <time>2022-08-05T14:00:24.000Z</time>
      </trkpt>
      <trkpt lat="49.28353" lon="-0.16509">
        <ele>6.393246</ele>
        <time>2022-08-05T14:00:25.000Z</time>
      </trkpt>
      <trkpt lat="49.28354" lon="-0.16504">
        <ele>6.372861</ele>
        <time>2022-08-05T14:00:26.000Z</time>
      </trkpt>
      <trkpt lat="49.28354" lon="-0.165">
        <ele>6.353306</ele>
        <time>2022-08-05T14:00:27.000Z</time>
      </trkpt>
      <trkpt lat="49.28354" lon="-0.16495">
        <ele>6.333751</ele>
        <time>2022-08-05T14:00:28.000Z</time>
      </trkpt>
      <trkpt lat="49.28354" lon="-0.16491">
        <ele>6.314196</ele>
        <time>2022-08-05T14:00:29.000Z</time>
      </trkpt>
      <trkpt lat="49.28354" lon="-0.16486">
        <ele>6.294641</ele>
        <time>2022-08-05T14:00:30.000Z</time>
      </trkpt>
      <trkpt lat="49.28354" lon="-0.16482">
        <ele>6.274984</ele>
        <time>2022-08-05T14:00:31.000Z</time>
      </trkpt>
      <trkpt lat="49.28354" lon="-0.16478">
        <ele>6.256624</ele>
        <time>2022-08-05T14:00:32.000Z</time>
      </trkpt>
      <trkpt lat="49.28354" lon="-0.16473">
        <ele>6.237938</ele>
        <time>2022-08-05T14:00:33.000Z</time>
      </trkpt>
      <trkpt lat="49.28354" lon="-0.16469">
        <ele>6.220873</ele>
        <time>2022-08-05T14:00:34.000Z</time>
      </trkpt>
      <trkpt lat="49.28354" lon="-0.16466">
        <ele>6.20424</ele>
        <time>2022-08-05T14:00:35.000Z</time>
      </trkpt>
      <trkpt lat="49.28354" lon="-0.16462">
        <ele>6.188161</ele>
        <time>2022-08-05T14:00:36.000Z</time>
      </trkpt>
      <trkpt lat="49.28354" lon="-0.16458">
        <ele>6.172517</ele>
        <time>2022-08-05T14:00:37.000Z</time>
      </trkpt>
      <trkpt lat="49.28354" lon="-0.16455">
        <ele>6.156439</ele>
        <time>2022-08-05T14:00:38.000Z</time>
      </trkpt>
      <trkpt lat="49.28355" lon="-0.1645">
        <ele>6.137994</ele>
        <time>2022-08-05T14:00:39.000Z</time>
      </trkpt>
      <trkpt lat="49.28355" lon="-0.16446">
        <ele>6.120065</ele>
        <time>2022-08-05T14:00:40.000Z</time>
      </trkpt>
      <trkpt lat="49.28356" lon="-0.16442">
        <ele>6.100532</ele>
        <time>2022-08-05T14:00:41.000Z</time>
      </trkpt>
      <trkpt lat="49.28356" lon="-0.16437">
        <ele>6.080542</ele>
        <time>2022-08-05T14:00:42.000Z</time>
      </trkpt>
      <trkpt lat="49.28356" lon="-0.16432">
        <ele>6.057857</ele>
        <time>2022-08-05T14:00:43.000Z</time>
      </trkpt>
      <trkpt lat="49.28356" lon="-0.16427">
        <ele>6.036038</ele>
        <time>2022-08-05T14:00:44.000Z</time>
      </trkpt>
      <trkpt lat="49.28356" lon="-0.16422">
        <ele>6.013007</ele>
        <time>2022-08-05T14:00:45.000Z</time>
      </trkpt>
      <trkpt lat="49.28355" lon="-0.16416">
        <ele>5.98577</ele>
        <time>2022-08-05T14:00:46.000Z</time>
      </trkpt>
      <trkpt lat="49.28356" lon="-0.16409">
        <ele>5.958532</ele>
        <time>2022-08-05T14:00:47.000Z</time>
      </trkpt>
      <trkpt lat="49.28356" lon="-0.16403">
        <ele>5.930216</ele>
        <time>2022-08-05T14:00:48.000Z</time>
      </trkpt>
      <trkpt lat="49.28356" lon="-0.16394">
        <ele>5.893183</ele>
        <time>2022-08-05T14:00:49.000Z</time>
      </trkpt>
      <trkpt lat="49.28356" lon="-0.16387">
        <ele>5.860591</ele>
        <time>2022-08-05T14:00:50.000Z</time>
      </trkpt>
      <trkpt lat="49.28357" lon="-0.16379">
        <ele>5.826461</ele>
        <time>2022-08-05T14:00:51.000Z</time>
      </trkpt>
      <trkpt lat="49.28357" lon="-0.16371">
        <ele>5.789309</ele>
        <time>2022-08-05T14:00:52.000Z</time>
      </trkpt>
      <trkpt lat="49.28358" lon="-0.16362">
        <ele>5.752941</ele>
        <time>2022-08-05T14:00:53.000Z</time>
      </trkpt>
      <trkpt lat="49.28358" lon="-0.16354">
        <ele>5.716383</ele>
        <time>2022-08-05T14:00:54.000Z</time>
      </trkpt>
      <trkpt lat="49.28359" lon="-0.16346">
        <ele>5.68026</ele>
        <time>2022-08-05T14:00:55.000Z</time>
      </trkpt>
      <trkpt lat="49.28359" lon="-0.16337">
        <ele>5.644323</ele>
        <time>2022-08-05T14:00:56.000Z</time>
      </trkpt>
      <trkpt lat="49.2836" lon="-0.16329">
        <ele>5.608898</ele>
        <time>2022-08-05T14:00:57.000Z</time>
      </trkpt>
      <trkpt lat="49.28361" lon="-0.16321">
        <ele>5.573041</ele>
        <time>2022-08-05T14:00:58.000Z</time>
      </trkpt>
      <trkpt lat="49.28361" lon="-0.16314">
        <ele>5.543555</ele>
        <time>2022-08-05T14:00:59.000Z</time>
      </trkpt>
      <trkpt lat="49.28362" lon="-0.16305">
        <ele>5.509724</ele>
        <time>2022-08-05T14:01:00.000Z</time>
      </trkpt>
      <trkpt lat="49.28362" lon="-0.16297">
        <ele>5.48659</ele>
        <time>2022-08-05T14:01:01.000Z</time>
      </trkpt>
      <trkpt lat="49.28363" lon="-0.16289">
        <ele>5.464441</ele>
        <time>2022-08-05T14:01:02.000Z</time>
      </trkpt>
      <trkpt lat="49.28363" lon="-0.16282">
        <ele>5.443058</ele>
        <time>2022-08-05T14:01:03.000Z</time>
      </trkpt>
      <trkpt lat="49.28364" lon="-0.16275">
        <ele>5.4222</ele>
        <time>2022-08-05T14:01:04.000Z</time>
      </trkpt>
      <trkpt lat="49.28364" lon="-0.16268">
        <ele>5.402531</ele>
        <time>2022-08-05T14:01:05.000Z</time>
      </trkpt>
      <trkpt lat="49.28365" lon="-0.16263">
        <ele>5.386979</ele>
        <time>2022-08-05T14:01:06.000Z</time>
      </trkpt>
      <trkpt lat="49.28365" lon="-0.16257">
        <ele>5.367976</ele>
        <time>2022-08-05T14:01:07.000Z</time>
      </trkpt>
      <trkpt lat="49.28365" lon="-0.1625">
        <ele>5.348927</ele>
        <time>2022-08-05T14:01:08.000Z</time>
      </trkpt>
      <trkpt lat="49.28365" lon="-0.16243">
        <ele>5.329156</ele>
        <time>2022-08-05T14:01:09.000Z</time>
      </trkpt>
      <trkpt lat="49.28365" lon="-0.16237">
        <ele>5.309861</ele>
        <time>2022-08-05T14:01:10.000Z</time>
      </trkpt>
      <trkpt lat="49.28366" lon="-0.16231">
        <ele>5.291648</ele>
        <time>2022-08-05T14:01:11.000Z</time>
      </trkpt>
      <trkpt lat="49.28366" lon="-0.16224">
        <ele>5.273181</ele>
        <time>2022-08-05T14:01:12.000Z</time>
      </trkpt>
      <trkpt lat="49.28367" lon="-0.16218">
        <ele>5.25399</ele>
        <time>2022-08-05T14:01:13.000Z</time>
      </trkpt>
      <trkpt lat="49.28367" lon="-0.16211">
        <ele>5.234987</ele>
        <time>2022-08-05T14:01:14.000Z</time>
      </trkpt>
      <trkpt lat="49.28367" lon="-0.16205">
        <ele>5.216277</ele>
        <time>2022-08-05T14:01:15.000Z</time>
      </trkpt>
      <trkpt lat="49.28367" lon="-0.16199">
        <ele>5.198444</ele>
        <time>2022-08-05T14:01:16.000Z</time>
      </trkpt>
      <trkpt lat="49.28367" lon="-0.16192">
        <ele>5.179735</ele>
        <time>2022-08-05T14:01:17.000Z</time>
      </trkpt>
      <trkpt lat="49.28367" lon="-0.16186">
        <ele>5.162194</ele>
        <time>2022-08-05T14:01:18.000Z</time>
      </trkpt>
      <trkpt lat="49.28367" lon="-0.16181">
        <ele>5.1467</ele>
        <time>2022-08-05T14:01:19.000Z</time>
      </trkpt>
      <trkpt lat="49.28367" lon="-0.16177">
        <ele>5.134027</ele>
        <time>2022-08-05T14:01:20.000Z</time>
      </trkpt>
      <trkpt lat="49.28367" lon="-0.16173">
        <ele>5.123795</ele>
        <time>2022-08-05T14:01:21.000Z</time>
      </trkpt>
      <trkpt lat="49.28367" lon="-0.1617">
        <ele>5.115025</ele>
        <time>2022-08-05T14:01:22.000Z</time>
      </trkpt>
      <trkpt lat="49.28368" lon="-0.16168">
        <ele>5.106729</ele>
        <time>2022-08-05T14:01:23.000Z</time>
      </trkpt>
      <trkpt lat="49.28369" lon="-0.16165">
        <ele>5.098889</ele>
        <time>2022-08-05T14:01:24.000Z</time>
      </trkpt>
      <trkpt lat="49.28371" lon="-0.16163">
        <ele>5.088344</ele>
        <time>2022-08-05T14:01:25.000Z</time>
      </trkpt>
      <trkpt lat="49.28373" lon="-0.16162">
        <ele>5.075459</ele>
        <time>2022-08-05T14:01:26.000Z</time>
      </trkpt>
      <trkpt lat="49.28376" lon="-0.16162">
        <ele>5.063803</ele>
        <time>2022-08-05T14:01:27.000Z</time>
      </trkpt>
      <trkpt lat="49.28379" lon="-0.16162">
        <ele>5.04945</ele>
        <time>2022-08-05T14:01:28.000Z</time>
      </trkpt>
      <trkpt lat="49.28382" lon="-0.16162">
        <ele>5.035109</ele>
        <time>2022-08-05T14:01:29.000Z</time>
      </trkpt>
      <trkpt lat="49.28386" lon="-0.16162">
        <ele>5.020741</ele>
        <time>2022-08-05T14:01:30.000Z</time>
      </trkpt>
      <trkpt lat="49.28389" lon="-0.16162">
        <ele>5.005045</ele>
        <time>2022-08-05T14:01:31.000Z</time>
      </trkpt>
      <trkpt lat="49.28392" lon="-0.16161">
        <ele>4.991966</ele>
        <time>2022-08-05T14:01:32.000Z</time>
      </trkpt>
      <trkpt lat="49.28395" lon="-0.1616">
        <ele>4.977202</ele>
        <time>2022-08-05T14:01:33.000Z</time>
      </trkpt>
      <trkpt lat="49.28398" lon="-0.16158">
        <ele>4.964031</ele>
        <time>2022-08-05T14:01:34.000Z</time>
      </trkpt>
      <trkpt lat="49.28399" lon="-0.16154">
        <ele>4.952472</ele>
        <time>2022-08-05T14:01:35.000Z</time>
      </trkpt>
      <trkpt lat="49.284" lon="-0.1615">
        <ele>4.940365</ele>
        <time>2022-08-05T14:01:36.000Z</time>
      </trkpt>
      <trkpt lat="49.28401" lon="-0.16146">
        <ele>4.926648</ele>
        <time>2022-08-05T14:01:37.000Z</time>
      </trkpt>
      <trkpt lat="49.28403" lon="-0.16142">
        <ele>4.911706</ele>
        <time>2022-08-05T14:01:38.000Z</time>
      </trkpt>
      <trkpt lat="49.28406" lon="-0.16138">
        <ele>4.893213</ele>
        <time>2022-08-05T14:01:39.000Z</time>
      </trkpt>
      <trkpt lat="49.28409" lon="-0.16134">
        <ele>4.876116</ele>
        <time>2022-08-05T14:01:40.000Z</time>
      </trkpt>
      <trkpt lat="49.28412" lon="-0.1613">
        <ele>4.860543</ele>
        <time>2022-08-05T14:01:41.000Z</time>
      </trkpt>
      <trkpt lat="49.28414" lon="-0.16126">
        <ele>4.844443</ele>
        <time>2022-08-05T14:01:42.000Z</time>
      </trkpt>
      <trkpt lat="49.28417" lon="-0.16122">
        <ele>4.827155</ele>
        <time>2022-08-05T14:01:43.000Z</time>
      </trkpt>
      <trkpt lat="49.2842" lon="-0.16119">
        <ele>4.811377</ele>
        <time>2022-08-05T14:01:44.000Z</time>
      </trkpt>
      <trkpt lat="49.28422" lon="-0.16115">
        <ele>4.795278</ele>
        <time>2022-08-05T14:01:45.000Z</time>
      </trkpt>
      <trkpt lat="49.28424" lon="-0.16111">
        <ele>4.780205</ele>
        <time>2022-08-05T14:01:46.000Z</time>
      </trkpt>
      <trkpt lat="49.28426" lon="-0.16108">
        <ele>4.767981</ele>
        <time>2022-08-05T14:01:47.000Z</time>
      </trkpt>
      <trkpt lat="49.2843" lon="-0.16104">
        <ele>4.748718</ele>
        <time>2022-08-05T14:01:48.000Z</time>
      </trkpt>
      <trkpt lat="49.28432" lon="-0.16101">
        <ele>4.735522</ele>
        <time>2022-08-05T14:01:49.000Z</time>
      </trkpt>
      <trkpt lat="49.28434" lon="-0.16099">
        <ele>4.724301</ele>
        <time>2022-08-05T14:01:50.000Z</time>
      </trkpt>
      <trkpt lat="49.28436" lon="-0.16096">
        <ele>4.72309</ele>
        <time>2022-08-05T14:01:51.000Z</time>
      </trkpt>
      <trkpt lat="49.28439" lon="-0.16092">
        <ele>4.729041</ele>
        <time>2022-08-05T14:01:52.000Z</time>
      </trkpt>
      <trkpt lat="49.28442" lon="-0.16089">
        <ele>4.733538</ele>
        <time>2022-08-05T14:01:53.000Z</time>
      </trkpt>
      <trkpt lat="49.28445" lon="-0.16086">
        <ele>4.738577</ele>
        <time>2022-08-05T14:01:54.000Z</time>
      </trkpt>
      <trkpt lat="49.28447" lon="-0.16083">
        <ele>4.743361</ele>
        <time>2022-08-05T14:01:55.000Z</time>
      </trkpt>
      <trkpt lat="49.2845" lon="-0.1608">
        <ele>4.74797</ele>
        <time>2022-08-05T14:01:56.000Z</time>
      </trkpt>
      <trkpt lat="49.28452" lon="-0.16078">
        <ele>4.752288</ele>
        <time>2022-08-05T14:01:57.000Z</time>
      </trkpt>
      <trkpt lat="49.28455" lon="-0.16075">
        <ele>4.757311</ele>
        <time>2022-08-05T14:01:58.000Z</time>
      </trkpt>
      <trkpt lat="49.28457" lon="-0.16072">
        <ele>4.761751</ele>
        <time>2022-08-05T14:01:59.000Z</time>
      </trkpt>
      <trkpt lat="49.28459" lon="-0.16068">
        <ele>4.766118</ele>
        <time>2022-08-05T14:02:00.000Z</time>
      </trkpt>
      <trkpt lat="49.28461" lon="-0.16064">
        <ele>4.771259</ele>
        <time>2022-08-05T14:02:01.000Z</time>
      </trkpt>
      <trkpt lat="49.28462" lon="-0.16058">
        <ele>4.77655</ele>
        <time>2022-08-05T14:02:02.000Z</time>
      </trkpt>
      <trkpt lat="49.28463" lon="-0.16052">
        <ele>4.782277</ele>
        <time>2022-08-05T14:02:03.000Z</time>
      </trkpt>
      <trkpt lat="49.28463" lon="-0.16046">
        <ele>4.788031</ele>
        <time>2022-08-05T14:02:04.000Z</time>
      </trkpt>
      <trkpt lat="49.28462" lon="-0.16041">
        <ele>4.793749</ele>
        <time>2022-08-05T14:02:05.000Z</time>
      </trkpt>
      <trkpt lat="49.28462" lon="-0.16034">
        <ele>4.799695</ele>
        <time>2022-08-05T14:02:06.000Z</time>
      </trkpt>
      <trkpt lat="49.28462" lon="-0.16028">
        <ele>4.805737</ele>
        <time>2022-08-05T14:02:07.000Z</time>
      </trkpt>
      <trkpt lat="49.28462" lon="-0.16021">
        <ele>4.812163</ele>
        <time>2022-08-05T14:02:08.000Z</time>
      </trkpt>
      <trkpt lat="49.28461" lon="-0.16015">
        <ele>4.818425</ele>
        <time>2022-08-05T14:02:09.000Z</time>
      </trkpt>
      <trkpt lat="49.28461" lon="-0.16008">
        <ele>4.824674</ele>
        <time>2022-08-05T14:02:10.000Z</time>
      </trkpt>
      <trkpt lat="49.28461" lon="-0.16002">
        <ele>4.830923</ele>
        <time>2022-08-05T14:02:11.000Z</time>
      </trkpt>
      <trkpt lat="49.2846" lon="-0.15995">
        <ele>4.837314</ele>
        <time>2022-08-05T14:02:12.000Z</time>
      </trkpt>
      <trkpt lat="49.2846" lon="-0.15989">
        <ele>4.843822</ele>
        <time>2022-08-05T14:02:13.000Z</time>
      </trkpt>
      <trkpt lat="49.28459" lon="-0.15982">
        <ele>4.850358</ele>
        <time>2022-08-05T14:02:14.000Z</time>
      </trkpt>
      <trkpt lat="49.28459" lon="-0.15975">
        <ele>4.857072</ele>
        <time>2022-08-05T14:02:15.000Z</time>
      </trkpt>
      <trkpt lat="49.28459" lon="-0.15968">
        <ele>4.863843</ele>
        <time>2022-08-05T14:02:16.000Z</time>
      </trkpt>
      <trkpt lat="49.28458" lon="-0.15961">
        <ele>4.870824</ele>
        <time>2022-08-05T14:02:17.000Z</time>
      </trkpt>
      <trkpt lat="49.28458" lon="-0.15954">
        <ele>4.877552</ele>
        <time>2022-08-05T14:02:18.000Z</time>
      </trkpt>
      <trkpt lat="49.28457" lon="-0.15946">
        <ele>4.884472</ele>
        <time>2022-08-05T14:02:19.000Z</time>
      </trkpt>
      <trkpt lat="49.28457" lon="-0.15939">
        <ele>4.891487</ele>
        <time>2022-08-05T14:02:20.000Z</time>
      </trkpt>
      <trkpt lat="49.28457" lon="-0.15932">
        <ele>4.898226</ele>
        <time>2022-08-05T14:02:21.000Z</time>
      </trkpt>
      <trkpt lat="49.28456" lon="-0.15925">
        <ele>4.904997</ele>
        <time>2022-08-05T14:02:22.000Z</time>
      </trkpt>
      <trkpt lat="49.28456" lon="-0.15918">
        <ele>4.912012</ele>
        <time>2022-08-05T14:02:23.000Z</time>
      </trkpt>
      <trkpt lat="49.28455" lon="-0.1591">
        <ele>4.919218</ele>
        <time>2022-08-05T14:02:24.000Z</time>
      </trkpt>
      <trkpt lat="49.28455" lon="-0.15903">
        <ele>4.926389</ele>
        <time>2022-08-05T14:02:25.000Z</time>
      </trkpt>
      <trkpt lat="49.28454" lon="-0.15896">
        <ele>4.933326</ele>
        <time>2022-08-05T14:02:26.000Z</time>
      </trkpt>
      <trkpt lat="49.28453" lon="-0.15889">
        <ele>4.940308</ele>
        <time>2022-08-05T14:02:27.000Z</time>
      </trkpt>
      <trkpt lat="49.28452" lon="-0.15882">
        <ele>4.94715</ele>
        <time>2022-08-05T14:02:28.000Z</time>
      </trkpt>
      <trkpt lat="49.28452" lon="-0.15875">
        <ele>4.953889</ele>
        <time>2022-08-05T14:02:29.000Z</time>
      </trkpt>
      <trkpt lat="49.28451" lon="-0.15868">
        <ele>4.960375</ele>
        <time>2022-08-05T14:02:30.000Z</time>
      </trkpt>
      <trkpt lat="49.28451" lon="-0.15861">
        <ele>4.966609</ele>
        <time>2022-08-05T14:02:31.000Z</time>
      </trkpt>
      <trkpt lat="49.28451" lon="-0.15855">
        <ele>4.972651</ele>
        <time>2022-08-05T14:02:32.000Z</time>
      </trkpt>
      <trkpt lat="49.28451" lon="-0.15849">
        <ele>4.978231</ele>
        <time>2022-08-05T14:02:33.000Z</time>
      </trkpt>
      <trkpt lat="49.2845" lon="-0.15844">
        <ele>4.983892</ele>
        <time>2022-08-05T14:02:34.000Z</time>
      </trkpt>
      <trkpt lat="49.2845" lon="-0.15838">
        <ele>4.974243</ele>
        <time>2022-08-05T14:02:35.000Z</time>
      </trkpt>
      <trkpt lat="49.2845" lon="-0.15833">
        <ele>4.96553</ele>
        <time>2022-08-05T14:02:36.000Z</time>
      </trkpt>
      <trkpt lat="49.28449" lon="-0.15828">
        <ele>4.954898</ele>
        <time>2022-08-05T14:02:37.000Z</time>
      </trkpt>
      <trkpt lat="49.28449" lon="-0.15822">
        <ele>4.944104</ele>
        <time>2022-08-05T14:02:38.000Z</time>
      </trkpt>
      <trkpt lat="49.28448" lon="-0.15817">
        <ele>4.933741</ele>
        <time>2022-08-05T14:02:39.000Z</time>
      </trkpt>
      <trkpt lat="49.28447" lon="-0.15812">
        <ele>4.923513</ele>
        <time>2022-08-05T14:02:40.000Z</time>
      </trkpt>
      <trkpt lat="49.28447" lon="-0.15807">
        <ele>4.913841</ele>
        <time>2022-08-05T14:02:41.000Z</time>
      </trkpt>
      <trkpt lat="49.28447" lon="-0.15802">
        <ele>4.90421</ele>
        <time>2022-08-05T14:02:42.000Z</time>
      </trkpt>
      <trkpt lat="49.28447" lon="-0.15797">
        <ele>4.894386</ele>
        <time>2022-08-05T14:02:43.000Z</time>
      </trkpt>
      <trkpt lat="49.28447" lon="-0.15792">
        <ele>4.884947</ele>
        <time>2022-08-05T14:02:44.000Z</time>
      </trkpt>
      <trkpt lat="49.28446" lon="-0.15787">
        <ele>4.875532</ele>
        <time>2022-08-05T14:02:45.000Z</time>
      </trkpt>
      <trkpt lat="49.28446" lon="-0.15782">
        <ele>4.866436</ele>
        <time>2022-08-05T14:02:46.000Z</time>
      </trkpt>
      <trkpt lat="49.28445" lon="-0.15778">
        <ele>4.857687</ele>
        <time>2022-08-05T14:02:47.000Z</time>
      </trkpt>
      <trkpt lat="49.28445" lon="-0.15773">
        <ele>4.848399</ele>
        <time>2022-08-05T14:02:48.000Z</time>
      </trkpt>
      <trkpt lat="49.28445" lon="-0.15768">
        <ele>4.838727</ele>
        <time>2022-08-05T14:02:49.000Z</time>
      </trkpt>
      <trkpt lat="49.28445" lon="-0.15763">
        <ele>4.828517</ele>
        <time>2022-08-05T14:02:50.000Z</time>
      </trkpt>
      <trkpt lat="49.28445" lon="-0.15757">
        <ele>4.818116</ele>
        <time>2022-08-05T14:02:51.000Z</time>
      </trkpt>
      <trkpt lat="49.28444" lon="-0.15752">
        <ele>4.807374</ele>
        <time>2022-08-05T14:02:52.000Z</time>
      </trkpt>
      <trkpt lat="49.28444" lon="-0.15746">
        <ele>4.79658</ele>
        <time>2022-08-05T14:02:53.000Z</time>
      </trkpt>
      <trkpt lat="49.28443" lon="-0.1574">
        <ele>4.784988</ele>
        <time>2022-08-05T14:02:54.000Z</time>
      </trkpt>
      <trkpt lat="49.28443" lon="-0.15735">
        <ele>4.774356</ele>
        <time>2022-08-05T14:02:55.000Z</time>
      </trkpt>
      <trkpt lat="49.28443" lon="-0.1573">
        <ele>4.764109</ele>
        <time>2022-08-05T14:02:56.000Z</time>
      </trkpt>
      <trkpt lat="49.28443" lon="-0.15724">
        <ele>4.7539</ele>
        <time>2022-08-05T14:02:57.000Z</time>
      </trkpt>
      <trkpt lat="49.28443" lon="-0.15718">
        <ele>4.7425</ele>
        <time>2022-08-05T14:02:58.000Z</time>
      </trkpt>
      <trkpt lat="49.28443" lon="-0.15713">
        <ele>4.731328</ele>
        <time>2022-08-05T14:02:59.000Z</time>
      </trkpt>
      <trkpt lat="49.28443" lon="-0.15707">
        <ele>4.71977</ele>
        <time>2022-08-05T14:03:00.000Z</time>
      </trkpt>
      <trkpt lat="49.28443" lon="-0.15701">
        <ele>4.708597</ele>
        <time>2022-08-05T14:03:01.000Z</time>
      </trkpt>
      <trkpt lat="49.28442" lon="-0.15695">
        <ele>4.697046</ele>
        <time>2022-08-05T14:03:02.000Z</time>
      </trkpt>
      <trkpt lat="49.28442" lon="-0.15689">
        <ele>4.686222</ele>
        <time>2022-08-05T14:03:03.000Z</time>
      </trkpt>
      <trkpt lat="49.28442" lon="-0.15683">
        <ele>4.674823</ele>
        <time>2022-08-05T14:03:04.000Z</time>
      </trkpt>
      <trkpt lat="49.28441" lon="-0.15677">
        <ele>4.663231</ele>
        <time>2022-08-05T14:03:05.000Z</time>
      </trkpt>
      <trkpt lat="49.28441" lon="-0.15671">
        <ele>4.651448</ele>
        <time>2022-08-05T14:03:06.000Z</time>
      </trkpt>
      <trkpt lat="49.28441" lon="-0.15665">
        <ele>4.639505</ele>
        <time>2022-08-05T14:03:07.000Z</time>
      </trkpt>
      <trkpt lat="49.28441" lon="-0.15659">
        <ele>4.627369</ele>
        <time>2022-08-05T14:03:08.000Z</time>
      </trkpt>
      <trkpt lat="49.2844" lon="-0.15653">
        <ele>4.615067</ele>
        <time>2022-08-05T14:03:09.000Z</time>
      </trkpt>
      <trkpt lat="49.2844" lon="-0.15647">
        <ele>4.603475</ele>
        <time>2022-08-05T14:03:10.000Z</time>
      </trkpt>
      <trkpt lat="49.2844" lon="-0.15641">
        <ele>4.591917</ele>
        <time>2022-08-05T14:03:11.000Z</time>
      </trkpt>
      <trkpt lat="49.2844" lon="-0.15635">
        <ele>4.58036</ele>
        <time>2022-08-05T14:03:12.000Z</time>
      </trkpt>
      <trkpt lat="49.2844" lon="-0.15629">
        <ele>4.568802</ele>
        <time>2022-08-05T14:03:13.000Z</time>
      </trkpt>
      <trkpt lat="49.2844" lon="-0.15623">
        <ele>4.557244</ele>
        <time>2022-08-05T14:03:14.000Z</time>
      </trkpt>
      <trkpt lat="49.28439" lon="-0.15617">
        <ele>4.545653</ele>
        <time>2022-08-05T14:03:15.000Z</time>
      </trkpt>
      <trkpt lat="49.28439" lon="-0.15611">
        <ele>4.53448</ele>
        <time>2022-08-05T14:03:16.000Z</time>
      </trkpt>
      <trkpt lat="49.28439" lon="-0.15605">
        <ele>4.523886</ele>
        <time>2022-08-05T14:03:17.000Z</time>
      </trkpt>
      <trkpt lat="49.28439" lon="-0.156">
        <ele>4.513225</ele>
        <time>2022-08-05T14:03:18.000Z</time>
      </trkpt>
      <trkpt lat="49.28439" lon="-0.15594">
        <ele>4.502631</ele>
        <time>2022-08-05T14:03:19.000Z</time>
      </trkpt>
      <trkpt lat="49.28439" lon="-0.15589">
        <ele>4.491999</ele>
        <time>2022-08-05T14:03:20.000Z</time>
      </trkpt>
      <trkpt lat="49.28438" lon="-0.15583">
        <ele>4.481258</ele>
        <time>2022-08-05T14:03:21.000Z</time>
      </trkpt>
      <trkpt lat="49.28438" lon="-0.15577">
        <ele>4.469858</ele>
        <time>2022-08-05T14:03:22.000Z</time>
      </trkpt>
      <trkpt lat="49.28437" lon="-0.15567">
        <ele>4.456424</ele>
        <time>2022-08-05T14:03:24.000Z</time>
      </trkpt>
      <trkpt lat="49.28437" lon="-0.15561">
        <ele>4.463982</ele>
        <time>2022-08-05T14:03:25.000Z</time>
      </trkpt>
      <trkpt lat="49.28437" lon="-0.15556">
        <ele>4.471654</ele>
        <time>2022-08-05T14:03:26.000Z</time>
      </trkpt>
      <trkpt lat="49.28436" lon="-0.15551">
        <ele>4.479017</ele>
        <time>2022-08-05T14:03:27.000Z</time>
      </trkpt>
      <trkpt lat="49.28436" lon="-0.15546">
        <ele>4.486173</ele>
        <time>2022-08-05T14:03:28.000Z</time>
      </trkpt>
      <trkpt lat="49.28436" lon="-0.15541">
        <ele>4.4926</ele>
        <time>2022-08-05T14:03:29.000Z</time>
      </trkpt>
      <trkpt lat="49.28435" lon="-0.15537">
        <ele>4.499027</ele>
        <time>2022-08-05T14:03:30.000Z</time>
      </trkpt>
      <trkpt lat="49.28435" lon="-0.15533">
        <ele>4.505029</ele>
        <time>2022-08-05T14:03:31.000Z</time>
      </trkpt>
      <trkpt lat="49.28435" lon="-0.15528">
        <ele>4.510997</ele>
        <time>2022-08-05T14:03:32.000Z</time>
      </trkpt>
      <trkpt lat="49.28435" lon="-0.15525">
        <ele>4.516111</ele>
        <time>2022-08-05T14:03:33.000Z</time>
      </trkpt>
      <trkpt lat="49.28435" lon="-0.15522">
        <ele>4.520658</ele>
        <time>2022-08-05T14:03:34.000Z</time>
      </trkpt>
      <trkpt lat="49.28436" lon="-0.15517">
        <ele>4.526766</ele>
        <time>2022-08-05T14:03:36.000Z</time>
      </trkpt>
      <trkpt lat="49.28438" lon="-0.15516">
        <ele>4.532267</ele>
        <time>2022-08-05T14:03:38.000Z</time>
      </trkpt>
      <trkpt lat="49.28441" lon="-0.15515">
        <ele>4.539955</ele>
        <time>2022-08-05T14:03:40.000Z</time>
      </trkpt>
      <trkpt lat="49.28445" lon="-0.15513">
        <ele>4.54809</ele>
        <time>2022-08-05T14:03:42.000Z</time>
      </trkpt>
      <trkpt lat="49.28448" lon="-0.15509">
        <ele>4.556779</ele>
        <time>2022-08-05T14:03:44.000Z</time>
      </trkpt>
      <trkpt lat="49.2845" lon="-0.15506">
        <ele>4.562233</ele>
        <time>2022-08-05T14:03:45.000Z</time>
      </trkpt>
      <trkpt lat="49.28451" lon="-0.15504">
        <ele>4.566729</ele>
        <time>2022-08-05T14:03:46.000Z</time>
      </trkpt>
      <trkpt lat="49.28453" lon="-0.15503">
        <ele>4.57089</ele>
        <time>2022-08-05T14:03:47.000Z</time>
      </trkpt>
      <trkpt lat="49.28457" lon="-0.15502">
        <ele>4.579265</ele>
        <time>2022-08-05T14:03:49.000Z</time>
      </trkpt>
      <trkpt lat="49.28459" lon="-0.155">
        <ele>4.585367</ele>
        <time>2022-08-05T14:03:51.000Z</time>
      </trkpt>
      <trkpt lat="49.28461" lon="-0.15498">
        <ele>4.591248</ele>
        <time>2022-08-05T14:03:53.000Z</time>
      </trkpt>
      <trkpt lat="49.28465" lon="-0.15495">
        <ele>4.599492</ele>
        <time>2022-08-05T14:03:55.000Z</time>
      </trkpt>
      <trkpt lat="49.28467" lon="-0.15494">
        <ele>4.604534</ele>
        <time>2022-08-05T14:03:56.000Z</time>
      </trkpt>
      <trkpt lat="49.28469" lon="-0.15495">
        <ele>4.609428</ele>
        <time>2022-08-05T14:03:57.000Z</time>
      </trkpt>
      <trkpt lat="49.28471" lon="-0.15496">
        <ele>4.614719</ele>
        <time>2022-08-05T14:03:58.000Z</time>
      </trkpt>
      <trkpt lat="49.28474" lon="-0.15497">
        <ele>4.620347</ele>
        <time>2022-08-05T14:03:59.000Z</time>
      </trkpt>
      <trkpt lat="49.28477" lon="-0.15498">
        <ele>4.626765</ele>
        <time>2022-08-05T14:04:00.000Z</time>
      </trkpt>
      <trkpt lat="49.2848" lon="-0.15499">
        <ele>4.633121</ele>
        <time>2022-08-05T14:04:01.000Z</time>
      </trkpt>
      <trkpt lat="49.28483" lon="-0.15499">
        <ele>4.640096</ele>
        <time>2022-08-05T14:04:02.000Z</time>
      </trkpt>
      <trkpt lat="49.28485" lon="-0.15499">
        <ele>4.645587</ele>
        <time>2022-08-05T14:04:03.000Z</time>
      </trkpt>
      <trkpt lat="49.28488" lon="-0.155">
        <ele>4.651314</ele>
        <time>2022-08-05T14:04:04.000Z</time>
      </trkpt>
      <trkpt lat="49.28491" lon="-0.15501">
        <ele>4.658354</ele>
        <time>2022-08-05T14:04:05.000Z</time>
      </trkpt>
      <trkpt lat="49.28494" lon="-0.15501">
        <ele>4.665394</ele>
        <time>2022-08-05T14:04:06.000Z</time>
      </trkpt>
      <trkpt lat="49.28497" lon="-0.15502">
        <ele>4.671812</ele>
        <time>2022-08-05T14:04:07.000Z</time>
      </trkpt>
      <trkpt lat="49.285" lon="-0.15503">
        <ele>4.67744</ele>
        <time>2022-08-05T14:04:08.000Z</time>
      </trkpt>
      <trkpt lat="49.28503" lon="-0.15504">
        <ele>4.684501</ele>
        <time>2022-08-05T14:04:09.000Z</time>
      </trkpt>
      <trkpt lat="49.28507" lon="-0.15504">
        <ele>4.692374</ele>
        <time>2022-08-05T14:04:10.000Z</time>
      </trkpt>
      <trkpt lat="49.28509" lon="-0.15505">
        <ele>4.698605</ele>
        <time>2022-08-05T14:04:11.000Z</time>
      </trkpt>
      <trkpt lat="49.28512" lon="-0.15506">
        <ele>4.703853</ele>
        <time>2022-08-05T14:04:12.000Z</time>
      </trkpt>
      <trkpt lat="49.28515" lon="-0.15508">
        <ele>4.711141</ele>
        <time>2022-08-05T14:04:13.000Z</time>
      </trkpt>
      <trkpt lat="49.28517" lon="-0.15509">
        <ele>4.716938</ele>
        <time>2022-08-05T14:04:14.000Z</time>
      </trkpt>
      <trkpt lat="49.28521" lon="-0.1551">
        <ele>4.724</ele>
        <time>2022-08-05T14:04:15.000Z</time>
      </trkpt>
      <trkpt lat="49.28524" lon="-0.1551">
        <ele>4.730322</ele>
        <time>2022-08-05T14:04:16.000Z</time>
      </trkpt>
      <trkpt lat="49.28526" lon="-0.15509">
        <ele>4.736797</ele>
        <time>2022-08-05T14:04:17.000Z</time>
      </trkpt>
      <trkpt lat="49.28529" lon="-0.15507">
        <ele>4.742296</ele>
        <time>2022-08-05T14:04:18.000Z</time>
      </trkpt>
      <trkpt lat="49.28531" lon="-0.15505">
        <ele>4.749057</ele>
        <time>2022-08-05T14:04:19.000Z</time>
      </trkpt>
      <trkpt lat="49.28533" lon="-0.15501">
        <ele>4.755014</ele>
        <time>2022-08-05T14:04:20.000Z</time>
      </trkpt>
      <trkpt lat="49.28533" lon="-0.15498">
        <ele>4.759325</ele>
        <time>2022-08-05T14:04:21.000Z</time>
      </trkpt>
      <trkpt lat="49.28533" lon="-0.15494">
        <ele>4.765435</ele>
        <time>2022-08-05T14:04:23.000Z</time>
      </trkpt>
      <trkpt lat="49.28532" lon="-0.15482">
        <ele>4.783019</ele>
        <time>2022-08-05T14:06:28.000Z</time>
      </trkpt>
      <trkpt lat="49.28533" lon="-0.15476">
        <ele>4.791143</ele>
        <time>2022-08-05T14:06:29.000Z</time>
      </trkpt>
      <trkpt lat="49.28533" lon="-0.1547">
        <ele>4.799692</ele>
        <time>2022-08-05T14:06:30.000Z</time>
      </trkpt>
      <trkpt lat="49.28533" lon="-0.15464">
        <ele>4.80895</ele>
        <time>2022-08-05T14:06:31.000Z</time>
      </trkpt>
      <trkpt lat="49.28534" lon="-0.15457">
        <ele>4.818715</ele>
        <time>2022-08-05T14:06:32.000Z</time>
      </trkpt>
      <trkpt lat="49.28534" lon="-0.1545">
        <ele>4.827973</ele>
        <time>2022-08-05T14:06:33.000Z</time>
      </trkpt>
      <trkpt lat="49.28535" lon="-0.15444">
        <ele>4.837721</ele>
        <time>2022-08-05T14:06:34.000Z</time>
      </trkpt>
      <trkpt lat="49.28535" lon="-0.15437">
        <ele>4.872438</ele>
        <time>2022-08-05T14:06:35.000Z</time>
      </trkpt>
      <trkpt lat="49.28535" lon="-0.1543">
        <ele>4.96327</ele>
        <time>2022-08-05T14:06:36.000Z</time>
      </trkpt>
      <trkpt lat="49.28535" lon="-0.15424">
        <ele>5.055543</ele>
        <time>2022-08-05T14:06:37.000Z</time>
      </trkpt>
      <trkpt lat="49.28536" lon="-0.15418">
        <ele>5.144485</ele>
        <time>2022-08-05T14:06:38.000Z</time>
      </trkpt>
      <trkpt lat="49.28538" lon="-0.15412">
        <ele>5.229997</ele>
        <time>2022-08-05T14:06:39.000Z</time>
      </trkpt>
      <trkpt lat="49.28541" lon="-0.15408">
        <ele>5.317192</ele>
        <time>2022-08-05T14:06:40.000Z</time>
      </trkpt>
      <trkpt lat="49.28544" lon="-0.15406">
        <ele>5.402538</ele>
        <time>2022-08-05T14:06:41.000Z</time>
      </trkpt>
      <trkpt lat="49.28548" lon="-0.15404">
        <ele>5.497857</ele>
        <time>2022-08-05T14:06:42.000Z</time>
      </trkpt>
      <trkpt lat="49.28553" lon="-0.15403">
        <ele>5.596173</ele>
        <time>2022-08-05T14:06:43.000Z</time>
      </trkpt>
      <trkpt lat="49.28557" lon="-0.15403">
        <ele>5.689554</ele>
        <time>2022-08-05T14:06:44.000Z</time>
      </trkpt>
      <trkpt lat="49.28561" lon="-0.15402">
        <ele>5.789279</ele>
        <time>2022-08-05T14:06:45.000Z</time>
      </trkpt>
      <trkpt lat="49.28565" lon="-0.15402">
        <ele>5.880005</ele>
        <time>2022-08-05T14:06:46.000Z</time>
      </trkpt>
      <trkpt lat="49.2857" lon="-0.15402">
        <ele>5.979563</ele>
        <time>2022-08-05T14:06:47.000Z</time>
      </trkpt>
      <trkpt lat="49.28574" lon="-0.15402">
        <ele>6.065814</ele>
        <time>2022-08-05T14:06:48.000Z</time>
      </trkpt>
      <trkpt lat="49.28578" lon="-0.15402">
        <ele>6.15654</ele>
        <time>2022-08-05T14:06:49.000Z</time>
      </trkpt>
      <trkpt lat="49.28582" lon="-0.15401">
        <ele>6.24285</ele>
        <time>2022-08-05T14:06:50.000Z</time>
      </trkpt>
      <trkpt lat="49.28586" lon="-0.15401">
        <ele>6.333519</ele>
        <time>2022-08-05T14:06:51.000Z</time>
      </trkpt>
      <trkpt lat="49.2859" lon="-0.154">
        <ele>6.420919</ele>
        <time>2022-08-05T14:06:52.000Z</time>
      </trkpt>
      <trkpt lat="49.28594" lon="-0.15399">
        <ele>6.506139</ele>
        <time>2022-08-05T14:06:53.000Z</time>
      </trkpt>
      <trkpt lat="49.28597" lon="-0.15398">
        <ele>6.584355</ele>
        <time>2022-08-05T14:06:54.000Z</time>
      </trkpt>
      <trkpt lat="49.28601" lon="-0.15398">
        <ele>6.671146</ele>
        <time>2022-08-05T14:06:55.000Z</time>
      </trkpt>
      <trkpt lat="49.28605" lon="-0.15397">
        <ele>6.755927</ele>
        <time>2022-08-05T14:06:56.000Z</time>
      </trkpt>
      <trkpt lat="49.28609" lon="-0.15395">
        <ele>6.84231</ele>
        <time>2022-08-05T14:06:57.000Z</time>
      </trkpt>
      <trkpt lat="49.28612" lon="-0.15393">
        <ele>6.929664</ele>
        <time>2022-08-05T14:06:58.000Z</time>
      </trkpt>
      <trkpt lat="49.28615" lon="-0.1539">
        <ele>7.007727</ele>
        <time>2022-08-05T14:06:59.000Z</time>
      </trkpt>
      <trkpt lat="49.28618" lon="-0.15385">
        <ele>7.092261</ele>
        <time>2022-08-05T14:07:00.000Z</time>
      </trkpt>
      <trkpt lat="49.2862" lon="-0.1538">
        <ele>7.174447</ele>
        <time>2022-08-05T14:07:01.000Z</time>
      </trkpt>
      <trkpt lat="49.28621" lon="-0.15376">
        <ele>7.252946</ele>
        <time>2022-08-05T14:07:02.000Z</time>
      </trkpt>
      <trkpt lat="49.28623" lon="-0.15371">
        <ele>7.322587</ele>
        <time>2022-08-05T14:07:03.000Z</time>
      </trkpt>
      <trkpt lat="49.28625" lon="-0.15367">
        <ele>7.395098</ele>
        <time>2022-08-05T14:07:04.000Z</time>
      </trkpt>
      <trkpt lat="49.28626" lon="-0.15363">
        <ele>7.462747</ele>
        <time>2022-08-05T14:07:05.000Z</time>
      </trkpt>
      <trkpt lat="49.28628" lon="-0.15359">
        <ele>7.529172</ele>
        <time>2022-08-05T14:07:06.000Z</time>
      </trkpt>
      <trkpt lat="49.2863" lon="-0.15356">
        <ele>7.597349</ele>
        <time>2022-08-05T14:07:07.000Z</time>
      </trkpt>
      <trkpt lat="49.28631" lon="-0.15352">
        <ele>7.658969</ele>
        <time>2022-08-05T14:07:08.000Z</time>
      </trkpt>
      <trkpt lat="49.28633" lon="-0.15349">
        <ele>7.718544</ele>
        <time>2022-08-05T14:07:09.000Z</time>
      </trkpt>
      <trkpt lat="49.28634" lon="-0.15345">
        <ele>7.777825</ele>
        <time>2022-08-05T14:07:10.000Z</time>
      </trkpt>
      <trkpt lat="49.28636" lon="-0.15342">
        <ele>7.835956</ele>
        <time>2022-08-05T14:07:11.000Z</time>
      </trkpt>
      <trkpt lat="49.28637" lon="-0.15339">
        <ele>7.891826</ele>
        <time>2022-08-05T14:07:12.000Z</time>
      </trkpt>
      <trkpt lat="49.28639" lon="-0.15336">
        <ele>7.943753</ele>
        <time>2022-08-05T14:07:13.000Z</time>
      </trkpt>
      <trkpt lat="49.28641" lon="-0.15333">
        <ele>8.007214</ele>
        <time>2022-08-05T14:07:14.000Z</time>
      </trkpt>
      <trkpt lat="49.28643" lon="-0.15329">
        <ele>8.0743</ele>
        <time>2022-08-05T14:07:15.000Z</time>
      </trkpt>
      <trkpt lat="49.28644" lon="-0.15326">
        <ele>8.138302</ele>
        <time>2022-08-05T14:07:16.000Z</time>
      </trkpt>
      <trkpt lat="49.28646" lon="-0.15322">
        <ele>8.203511</ele>
        <time>2022-08-05T14:07:17.000Z</time>
      </trkpt>
      <trkpt lat="49.28647" lon="-0.15318">
        <ele>8.263154</ele>
        <time>2022-08-05T14:07:18.000Z</time>
      </trkpt>
      <trkpt lat="49.28648" lon="-0.15314">
        <ele>8.32596</ele>
        <time>2022-08-05T14:07:19.000Z</time>
      </trkpt>
      <trkpt lat="49.2865" lon="-0.15311">
        <ele>8.389962</ele>
        <time>2022-08-05T14:07:20.000Z</time>
      </trkpt>
      <trkpt lat="49.28652" lon="-0.15307">
        <ele>8.453965</ele>
        <time>2022-08-05T14:07:21.000Z</time>
      </trkpt>
      <trkpt lat="49.28653" lon="-0.15303">
        <ele>8.51329</ele>
        <time>2022-08-05T14:07:22.000Z</time>
      </trkpt>
      <trkpt lat="49.28654" lon="-0.153">
        <ele>8.565217</ele>
        <time>2022-08-05T14:07:23.000Z</time>
      </trkpt>
      <trkpt lat="49.28656" lon="-0.15297">
        <ele>8.629219</ele>
        <time>2022-08-05T14:07:24.000Z</time>
      </trkpt>
      <trkpt lat="49.28657" lon="-0.15293">
        <ele>8.687505</ele>
        <time>2022-08-05T14:07:25.000Z</time>
      </trkpt>
      <trkpt lat="49.28658" lon="-0.15288">
        <ele>8.761396</ele>
        <time>2022-08-05T14:07:26.000Z</time>
      </trkpt>
      <trkpt lat="49.2866" lon="-0.15284">
        <ele>8.825405</ele>
        <time>2022-08-05T14:07:27.000Z</time>
      </trkpt>
      <trkpt lat="49.28661" lon="-0.15281">
        <ele>8.868896</ele>
        <time>2022-08-05T14:07:28.000Z</time>
      </trkpt>
      <trkpt lat="49.28662" lon="-0.15277">
        <ele>8.908297</ele>
        <time>2022-08-05T14:07:29.000Z</time>
      </trkpt>
      <trkpt lat="49.28664" lon="-0.15273">
        <ele>8.955876</ele>
        <time>2022-08-05T14:07:30.000Z</time>
      </trkpt>
      <trkpt lat="49.28666" lon="-0.15269">
        <ele>9.005024</ele>
        <time>2022-08-05T14:07:31.000Z</time>
      </trkpt>
      <trkpt lat="49.28668" lon="-0.15264">
        <ele>9.052625</ele>
        <time>2022-08-05T14:07:32.000Z</time>
      </trkpt>
      <trkpt lat="49.2867" lon="-0.1526">
        <ele>9.105356</ele>
        <time>2022-08-05T14:07:33.000Z</time>
      </trkpt>
      <trkpt lat="49.28672" lon="-0.15257">
        <ele>9.146452</ele>
        <time>2022-08-05T14:07:34.000Z</time>
      </trkpt>
      <trkpt lat="49.28674" lon="-0.15252">
        <ele>9.196393</ele>
        <time>2022-08-05T14:07:35.000Z</time>
      </trkpt>
      <trkpt lat="49.28676" lon="-0.15247">
        <ele>9.257878</ele>
        <time>2022-08-05T14:07:36.000Z</time>
      </trkpt>
      <trkpt lat="49.28678" lon="-0.15244">
        <ele>9.298975</ele>
        <time>2022-08-05T14:07:37.000Z</time>
      </trkpt>
      <trkpt lat="49.28679" lon="-0.1524">
        <ele>9.345743</ele>
        <time>2022-08-05T14:07:38.000Z</time>
      </trkpt>
      <trkpt lat="49.28681" lon="-0.15235">
        <ele>9.39489</ele>
        <time>2022-08-05T14:07:39.000Z</time>
      </trkpt>
      <trkpt lat="49.28682" lon="-0.15231">
        <ele>9.438313</ele>
        <time>2022-08-05T14:07:40.000Z</time>
      </trkpt>
      <trkpt lat="49.28684" lon="-0.15227">
        <ele>9.485081</ele>
        <time>2022-08-05T14:07:41.000Z</time>
      </trkpt>
      <trkpt lat="49.28685" lon="-0.15223">
        <ele>9.528916</ele>
        <time>2022-08-05T14:07:42.000Z</time>
      </trkpt>
      <trkpt lat="49.28686" lon="-0.15219">
        <ele>9.569326</ele>
        <time>2022-08-05T14:07:43.000Z</time>
      </trkpt>
      <trkpt lat="49.28688" lon="-0.15216">
        <ele>9.608863</ele>
        <time>2022-08-05T14:07:44.000Z</time>
      </trkpt>
      <trkpt lat="49.2869" lon="-0.15212">
        <ele>9.652648</ele>
        <time>2022-08-05T14:07:45.000Z</time>
      </trkpt>
      <trkpt lat="49.28692" lon="-0.15208">
        <ele>9.703626</ele>
        <time>2022-08-05T14:07:46.000Z</time>
      </trkpt>
      <trkpt lat="49.28693" lon="-0.15203">
        <ele>9.751227</ele>
        <time>2022-08-05T14:07:47.000Z</time>
      </trkpt>
      <trkpt lat="49.28694" lon="-0.15199">
        <ele>9.797582</ele>
        <time>2022-08-05T14:07:48.000Z</time>
      </trkpt>
      <trkpt lat="49.28696" lon="-0.15189">
        <ele>9.894967</ele>
        <time>2022-08-05T14:07:50.000Z</time>
      </trkpt>
      <trkpt lat="49.28696" lon="-0.15183">
        <ele>9.947852</ele>
        <time>2022-08-05T14:07:51.000Z</time>
      </trkpt>
      <trkpt lat="49.28696" lon="-0.15178">
        <ele>10.000737</ele>
        <time>2022-08-05T14:07:52.000Z</time>
      </trkpt>
      <trkpt lat="49.28695" lon="-0.15173">
        <ele>10.051891</ele>
        <time>2022-08-05T14:07:53.000Z</time>
      </trkpt>
      <trkpt lat="49.28695" lon="-0.15167">
        <ele>10.102852</ele>
        <time>2022-08-05T14:07:54.000Z</time>
      </trkpt>
      <trkpt lat="49.28695" lon="-0.15162">
        <ele>10.150336</ele>
        <time>2022-08-05T14:07:55.000Z</time>
      </trkpt>
      <trkpt lat="49.28695" lon="-0.15158">
        <ele>10.19649</ele>
        <time>2022-08-05T14:07:56.000Z</time>
      </trkpt>
      <trkpt lat="49.28694" lon="-0.15153">
        <ele>10.240654</ele>
        <time>2022-08-05T14:07:57.000Z</time>
      </trkpt>
      <trkpt lat="49.28694" lon="-0.15149">
        <ele>10.284819</ele>
        <time>2022-08-05T14:07:58.000Z</time>
      </trkpt>
      <trkpt lat="49.28693" lon="-0.15144">
        <ele>10.331174</ele>
        <time>2022-08-05T14:07:59.000Z</time>
      </trkpt>
      <trkpt lat="49.28692" lon="-0.15139">
        <ele>10.379379</ele>
        <time>2022-08-05T14:08:00.000Z</time>
      </trkpt>
      <trkpt lat="49.28692" lon="-0.15134">
        <ele>10.426702</ele>
        <time>2022-08-05T14:08:01.000Z</time>
      </trkpt>
      <trkpt lat="49.2869" lon="-0.1513">
        <ele>10.476676</ele>
        <time>2022-08-05T14:08:02.000Z</time>
      </trkpt>
      <trkpt lat="49.2869" lon="-0.15125">
        <ele>10.522726</ele>
        <time>2022-08-05T14:08:03.000Z</time>
      </trkpt>
      <trkpt lat="49.28689" lon="-0.1512">
        <ele>10.566891</ele>
        <time>2022-08-05T14:08:04.000Z</time>
      </trkpt>
      <trkpt lat="49.28688" lon="-0.15116">
        <ele>10.611374</ele>
        <time>2022-08-05T14:08:05.000Z</time>
      </trkpt>
      <trkpt lat="49.28689" lon="-0.15111">
        <ele>10.655857</ele>
        <time>2022-08-05T14:08:06.000Z</time>
      </trkpt>
      <trkpt lat="49.2869" lon="-0.15107">
        <ele>10.69626</ele>
        <time>2022-08-05T14:08:07.000Z</time>
      </trkpt>
      <trkpt lat="49.2869" lon="-0.15103">
        <ele>10.735726</ele>
        <time>2022-08-05T14:08:08.000Z</time>
      </trkpt>
      <trkpt lat="49.28692" lon="-0.15099">
        <ele>10.77784</ele>
        <time>2022-08-05T14:08:09.000Z</time>
      </trkpt>
      <trkpt lat="49.28692" lon="-0.15095">
        <ele>10.816555</ele>
        <time>2022-08-05T14:08:10.000Z</time>
      </trkpt>
      <trkpt lat="49.28692" lon="-0.15092">
        <ele>10.853566</ele>
        <time>2022-08-05T14:08:11.000Z</time>
      </trkpt>
      <trkpt lat="49.28692" lon="-0.15088">
        <ele>10.892028</ele>
        <time>2022-08-05T14:08:12.000Z</time>
      </trkpt>
      <trkpt lat="49.28692" lon="-0.15083">
        <ele>10.932413</ele>
        <time>2022-08-05T14:08:13.000Z</time>
      </trkpt>
      <trkpt lat="49.28693" lon="-0.15079">
        <ele>10.980436</ele>
        <time>2022-08-05T14:08:14.000Z</time>
      </trkpt>
      <trkpt lat="49.28694" lon="-0.15073">
        <ele>11.031491</ele>
        <time>2022-08-05T14:08:15.000Z</time>
      </trkpt>
      <trkpt lat="49.28695" lon="-0.15068">
        <ele>11.087256</ele>
        <time>2022-08-05T14:08:16.000Z</time>
      </trkpt>
      <trkpt lat="49.28696" lon="-0.15062">
        <ele>11.146802</ele>
        <time>2022-08-05T14:08:17.000Z</time>
      </trkpt>
      <trkpt lat="49.28697" lon="-0.15055">
        <ele>11.214938</ele>
        <time>2022-08-05T14:08:18.000Z</time>
      </trkpt>
      <trkpt lat="49.28698" lon="-0.15048">
        <ele>11.288264</ele>
        <time>2022-08-05T14:08:19.000Z</time>
      </trkpt>
      <trkpt lat="49.287" lon="-0.1504">
        <ele>11.365674</ele>
        <time>2022-08-05T14:08:20.000Z</time>
      </trkpt>
      <trkpt lat="49.28701" lon="-0.15032">
        <ele>11.441166</ele>
        <time>2022-08-05T14:08:21.000Z</time>
      </trkpt>
      <trkpt lat="49.28702" lon="-0.15024">
        <ele>11.402538</ele>
        <time>2022-08-05T14:08:22.000Z</time>
      </trkpt>
      <trkpt lat="49.28704" lon="-0.15017">
        <ele>11.294096</ele>
        <time>2022-08-05T14:08:23.000Z</time>
      </trkpt>
      <trkpt lat="49.28706" lon="-0.15009">
        <ele>11.185175</ele>
        <time>2022-08-05T14:08:24.000Z</time>
      </trkpt>
      <trkpt lat="49.28707" lon="-0.15001">
        <ele>11.074969</ele>
        <time>2022-08-05T14:08:25.000Z</time>
      </trkpt>
      <trkpt lat="49.28708" lon="-0.14993">
        <ele>10.96915</ele>
        <time>2022-08-05T14:08:26.000Z</time>
      </trkpt>
      <trkpt lat="49.2871" lon="-0.14986">
        <ele>10.858944</ele>
        <time>2022-08-05T14:08:27.000Z</time>
      </trkpt>
      <trkpt lat="49.28711" lon="-0.14978">
        <ele>10.75093</ele>
        <time>2022-08-05T14:08:28.000Z</time>
      </trkpt>
      <trkpt lat="49.28712" lon="-0.1497">
        <ele>10.642466</ele>
        <time>2022-08-05T14:08:29.000Z</time>
      </trkpt>
      <trkpt lat="49.28713" lon="-0.14962">
        <ele>10.531355</ele>
        <time>2022-08-05T14:08:30.000Z</time>
      </trkpt>
      <trkpt lat="49.28714" lon="-0.14953">
        <ele>10.415291</ele>
        <time>2022-08-05T14:08:31.000Z</time>
      </trkpt>
      <trkpt lat="49.28716" lon="-0.14945">
        <ele>10.297346</ele>
        <time>2022-08-05T14:08:32.000Z</time>
      </trkpt>
      <trkpt lat="49.28717" lon="-0.14937">
        <ele>10.182298</ele>
        <time>2022-08-05T14:08:33.000Z</time>
      </trkpt>
      <trkpt lat="49.28718" lon="-0.14928">
        <ele>10.067249</ele>
        <time>2022-08-05T14:08:34.000Z</time>
      </trkpt>
      <trkpt lat="49.28719" lon="-0.1492">
        <ele>9.956128</ele>
        <time>2022-08-05T14:08:35.000Z</time>
      </trkpt>
      <trkpt lat="49.28721" lon="-0.14912">
        <ele>9.844636</ele>
        <time>2022-08-05T14:08:36.000Z</time>
      </trkpt>
      <trkpt lat="49.28722" lon="-0.14905">
        <ele>9.740554</ele>
        <time>2022-08-05T14:08:37.000Z</time>
      </trkpt>
      <trkpt lat="49.28724" lon="-0.14897">
        <ele>9.631346</ele>
        <time>2022-08-05T14:08:38.000Z</time>
      </trkpt>
      <trkpt lat="49.28726" lon="-0.1489">
        <ele>9.52755</ele>
        <time>2022-08-05T14:08:39.000Z</time>
      </trkpt>
      <trkpt lat="49.28727" lon="-0.14883">
        <ele>9.426083</ele>
        <time>2022-08-05T14:08:40.000Z</time>
      </trkpt>
      <trkpt lat="49.28728" lon="-0.14876">
        <ele>9.326865</ele>
        <time>2022-08-05T14:08:41.000Z</time>
      </trkpt>
      <trkpt lat="49.28729" lon="-0.14869">
        <ele>9.230282</ele>
        <time>2022-08-05T14:08:42.000Z</time>
      </trkpt>
      <trkpt lat="49.2873" lon="-0.14862">
        <ele>9.13412</ele>
        <time>2022-08-05T14:08:43.000Z</time>
      </trkpt>
      <trkpt lat="49.28731" lon="-0.14855">
        <ele>9.038614</ele>
        <time>2022-08-05T14:08:44.000Z</time>
      </trkpt>
      <trkpt lat="49.28732" lon="-0.14848">
        <ele>8.943347</ele>
        <time>2022-08-05T14:08:45.000Z</time>
      </trkpt>
      <trkpt lat="49.28733" lon="-0.14841">
        <ele>8.851</ele>
        <time>2022-08-05T14:08:46.000Z</time>
      </trkpt>
      <trkpt lat="49.28735" lon="-0.14834">
        <ele>8.7542</ele>
        <time>2022-08-05T14:08:47.000Z</time>
      </trkpt>
      <trkpt lat="49.28736" lon="-0.14828">
        <ele>8.664188</ele>
        <time>2022-08-05T14:08:48.000Z</time>
      </trkpt>
      <trkpt lat="49.28737" lon="-0.14822">
        <ele>8.577264</ele>
        <time>2022-08-05T14:08:49.000Z</time>
      </trkpt>
      <trkpt lat="49.28738" lon="-0.14815">
        <ele>8.489874</ele>
        <time>2022-08-05T14:08:50.000Z</time>
      </trkpt>
      <trkpt lat="49.28739" lon="-0.14809">
        <ele>8.399862</ele>
        <time>2022-08-05T14:08:51.000Z</time>
      </trkpt>
      <trkpt lat="49.28739" lon="-0.14802">
        <ele>8.306041</ele>
        <time>2022-08-05T14:08:52.000Z</time>
      </trkpt>
      <trkpt lat="49.2874" lon="-0.14795">
        <ele>8.211491</ele>
        <time>2022-08-05T14:08:53.000Z</time>
      </trkpt>
      <trkpt lat="49.2874" lon="-0.14788">
        <ele>8.115596</ele>
        <time>2022-08-05T14:08:54.000Z</time>
      </trkpt>
      <trkpt lat="49.2874" lon="-0.14781">
        <ele>8.018554</ele>
        <time>2022-08-05T14:08:55.000Z</time>
      </trkpt>
      <trkpt lat="49.2874" lon="-0.14773">
        <ele>7.913425</ele>
        <time>2022-08-05T14:08:56.000Z</time>
      </trkpt>
      <trkpt lat="49.28739" lon="-0.14765">
        <ele>7.802211</ele>
        <time>2022-08-05T14:08:57.000Z</time>
      </trkpt>
      <trkpt lat="49.28738" lon="-0.14756">
        <ele>7.715484</ele>
        <time>2022-08-05T14:08:58.000Z</time>
      </trkpt>
      <trkpt lat="49.28737" lon="-0.14748">
        <ele>7.646855</ele>
        <time>2022-08-05T14:08:59.000Z</time>
      </trkpt>
      <trkpt lat="49.28735" lon="-0.14739">
        <ele>7.573406</ele>
        <time>2022-08-05T14:09:00.000Z</time>
      </trkpt>
      <trkpt lat="49.28734" lon="-0.1473">
        <ele>7.498611</ele>
        <time>2022-08-05T14:09:01.000Z</time>
      </trkpt>
      <trkpt lat="49.28733" lon="-0.14721">
        <ele>7.421745</ele>
        <time>2022-08-05T14:09:02.000Z</time>
      </trkpt>
      <trkpt lat="49.28733" lon="-0.14711">
        <ele>7.345365</ele>
        <time>2022-08-05T14:09:03.000Z</time>
      </trkpt>
      <trkpt lat="49.28734" lon="-0.14702">
        <ele>7.27043</ele>
        <time>2022-08-05T14:09:04.000Z</time>
      </trkpt>
      <trkpt lat="49.28735" lon="-0.14692">
        <ele>7.194044</ele>
        <time>2022-08-05T14:09:05.000Z</time>
      </trkpt>
      <trkpt lat="49.28736" lon="-0.14683">
        <ele>7.119146</ele>
        <time>2022-08-05T14:09:06.000Z</time>
      </trkpt>
      <trkpt lat="49.28738" lon="-0.14674">
        <ele>7.041039</ele>
        <time>2022-08-05T14:09:07.000Z</time>
      </trkpt>
      <trkpt lat="49.28739" lon="-0.14665">
        <ele>6.96457</ele>
        <time>2022-08-05T14:09:08.000Z</time>
      </trkpt>
      <trkpt lat="49.2874" lon="-0.14655">
        <ele>6.888979</ele>
        <time>2022-08-05T14:09:09.000Z</time>
      </trkpt>
      <trkpt lat="49.28741" lon="-0.14646">
        <ele>6.811723</ele>
        <time>2022-08-05T14:09:10.000Z</time>
      </trkpt>
      <trkpt lat="49.28743" lon="-0.14637">
        <ele>6.734394</ele>
        <time>2022-08-05T14:09:11.000Z</time>
      </trkpt>
      <trkpt lat="49.28744" lon="-0.14627">
        <ele>6.658613</ele>
        <time>2022-08-05T14:09:12.000Z</time>
      </trkpt>
      <trkpt lat="49.28745" lon="-0.14618">
        <ele>6.582227</ele>
        <time>2022-08-05T14:09:13.000Z</time>
      </trkpt>
      <trkpt lat="49.28746" lon="-0.14608">
        <ele>6.504859</ele>
        <time>2022-08-05T14:09:14.000Z</time>
      </trkpt>
      <trkpt lat="49.28747" lon="-0.14599">
        <ele>6.42839</ele>
        <time>2022-08-05T14:09:15.000Z</time>
      </trkpt>
      <trkpt lat="49.28748" lon="-0.1459">
        <ele>6.355185</ele>
        <time>2022-08-05T14:09:16.000Z</time>
      </trkpt>
      <trkpt lat="49.28749" lon="-0.14581">
        <ele>6.28251</ele>
        <time>2022-08-05T14:09:17.000Z</time>
      </trkpt>
      <trkpt lat="49.28751" lon="-0.14573">
        <ele>6.21137</ele>
        <time>2022-08-05T14:09:18.000Z</time>
      </trkpt>
      <trkpt lat="49.28753" lon="-0.14565">
        <ele>6.140241</ele>
        <time>2022-08-05T14:09:19.000Z</time>
      </trkpt>
      <trkpt lat="49.28754" lon="-0.14556">
        <ele>6.071007</ele>
        <time>2022-08-05T14:09:20.000Z</time>
      </trkpt>
      <trkpt lat="49.28755" lon="-0.14548">
        <ele>6.000814</ele>
        <time>2022-08-05T14:09:21.000Z</time>
      </trkpt>
      <trkpt lat="49.28757" lon="-0.14539">
        <ele>5.929685</ele>
        <time>2022-08-05T14:09:22.000Z</time>
      </trkpt>
      <trkpt lat="49.28758" lon="-0.14531">
        <ele>5.860243</ele>
        <time>2022-08-05T14:09:23.000Z</time>
      </trkpt>
      <trkpt lat="49.28759" lon="-0.14522">
        <ele>5.790321</ele>
        <time>2022-08-05T14:09:24.000Z</time>
      </trkpt>
      <trkpt lat="49.2876" lon="-0.14514">
        <ele>5.723831</ele>
        <time>2022-08-05T14:09:25.000Z</time>
      </trkpt>
      <trkpt lat="49.28761" lon="-0.14506">
        <ele>5.657769</ele>
        <time>2022-08-05T14:09:26.000Z</time>
      </trkpt>
      <trkpt lat="49.28761" lon="-0.14498">
        <ele>5.592873</ele>
        <time>2022-08-05T14:09:27.000Z</time>
      </trkpt>
      <trkpt lat="49.28762" lon="-0.1449">
        <ele>5.535413</ele>
        <time>2022-08-05T14:09:28.000Z</time>
      </trkpt>
      <trkpt lat="49.28763" lon="-0.14481">
        <ele>5.518686</ele>
        <time>2022-08-05T14:09:29.000Z</time>
      </trkpt>
      <trkpt lat="49.28764" lon="-0.14474">
        <ele>5.502803</ele>
        <time>2022-08-05T14:09:30.000Z</time>
      </trkpt>
      <trkpt lat="49.28765" lon="-0.14466">
        <ele>5.486854</ele>
        <time>2022-08-05T14:09:31.000Z</time>
      </trkpt>
      <trkpt lat="49.28766" lon="-0.14459">
        <ele>5.472456</ele>
        <time>2022-08-05T14:09:32.000Z</time>
      </trkpt>
      <trkpt lat="49.28767" lon="-0.14452">
        <ele>5.458525</ele>
        <time>2022-08-05T14:09:33.000Z</time>
      </trkpt>
      <trkpt lat="49.28767" lon="-0.14446">
        <ele>5.446431</ele>
        <time>2022-08-05T14:09:34.000Z</time>
      </trkpt>
      <trkpt lat="49.28767" lon="-0.14441">
        <ele>5.436806</ele>
        <time>2022-08-05T14:09:35.000Z</time>
      </trkpt>
      <trkpt lat="49.28767" lon="-0.14437">
        <ele>5.428696</ele>
        <time>2022-08-05T14:09:36.000Z</time>
      </trkpt>
      <trkpt lat="49.28765" lon="-0.14435">
        <ele>5.421804</ele>
        <time>2022-08-05T14:09:37.000Z</time>
      </trkpt>
      <trkpt lat="49.28763" lon="-0.14431">
        <ele>5.412482</ele>
        <time>2022-08-05T14:09:39.000Z</time>
      </trkpt>
      <trkpt lat="49.2876" lon="-0.14429">
        <ele>5.401781</ele>
        <time>2022-08-05T14:09:41.000Z</time>
      </trkpt>
      <trkpt lat="49.28758" lon="-0.14429">
        <ele>5.394874</ele>
        <time>2022-08-05T14:09:42.000Z</time>
      </trkpt>
      <trkpt lat="49.28756" lon="-0.14428">
        <ele>5.387733</ele>
        <time>2022-08-05T14:09:43.000Z</time>
      </trkpt>
      <trkpt lat="49.28753" lon="-0.14428">
        <ele>5.380896</ele>
        <time>2022-08-05T14:09:44.000Z</time>
      </trkpt>
      <trkpt lat="49.28751" lon="-0.14427">
        <ele>5.373687</ele>
        <time>2022-08-05T14:09:45.000Z</time>
      </trkpt>
      <trkpt lat="49.28749" lon="-0.14426">
        <ele>5.365745</ele>
        <time>2022-08-05T14:09:46.000Z</time>
      </trkpt>
      <trkpt lat="49.28746" lon="-0.14425">
        <ele>5.357662</ele>
        <time>2022-08-05T14:09:47.000Z</time>
      </trkpt>
      <trkpt lat="49.28744" lon="-0.14425">
        <ele>5.350755</ele>
        <time>2022-08-05T14:09:48.000Z</time>
      </trkpt>
      <trkpt lat="49.28741" lon="-0.14424">
        <ele>5.342739</ele>
        <time>2022-08-05T14:09:49.000Z</time>
      </trkpt>
      <trkpt lat="49.28738" lon="-0.14424">
        <ele>5.33287</ele>
        <time>2022-08-05T14:09:50.000Z</time>
      </trkpt>
      <trkpt lat="49.28735" lon="-0.14424">
        <ele>5.325161</ele>
        <time>2022-08-05T14:09:51.000Z</time>
      </trkpt>
      <trkpt lat="49.28732" lon="-0.14423">
        <ele>5.315224</ele>
        <time>2022-08-05T14:09:52.000Z</time>
      </trkpt>
      <trkpt lat="49.28729" lon="-0.14422">
        <ele>5.305257</ele>
        <time>2022-08-05T14:09:53.000Z</time>
      </trkpt>
      <trkpt lat="49.28726" lon="-0.14421">
        <ele>5.29529</ele>
        <time>2022-08-05T14:09:54.000Z</time>
      </trkpt>
      <trkpt lat="49.28722" lon="-0.14421">
        <ele>5.283219</ele>
        <time>2022-08-05T14:09:55.000Z</time>
      </trkpt>
      <trkpt lat="49.28719" lon="-0.1442">
        <ele>5.273252</ele>
        <time>2022-08-05T14:09:56.000Z</time>
      </trkpt>
      <trkpt lat="49.28715" lon="-0.14419">
        <ele>5.262342</ele>
        <time>2022-08-05T14:09:57.000Z</time>
      </trkpt>
      <trkpt lat="49.28711" lon="-0.14418">
        <ele>5.250454</ele>
        <time>2022-08-05T14:09:58.000Z</time>
      </trkpt>
      <trkpt lat="49.28708" lon="-0.14416">
        <ele>5.238093</ele>
        <time>2022-08-05T14:09:59.000Z</time>
      </trkpt>
      <trkpt lat="49.28704" lon="-0.14415">
        <ele>5.227068</ele>
        <time>2022-08-05T14:10:00.000Z</time>
      </trkpt>
      <trkpt lat="49.287" lon="-0.14414">
        <ele>5.215277</ele>
        <time>2022-08-05T14:10:01.000Z</time>
      </trkpt>
      <trkpt lat="49.28696" lon="-0.14413">
        <ele>5.20221</ele>
        <time>2022-08-05T14:10:02.000Z</time>
      </trkpt>
      <trkpt lat="49.28692" lon="-0.14412">
        <ele>5.188095</ele>
        <time>2022-08-05T14:10:03.000Z</time>
      </trkpt>
      <trkpt lat="49.28687" lon="-0.14411">
        <ele>5.174018</ele>
        <time>2022-08-05T14:10:04.000Z</time>
      </trkpt>
      <trkpt lat="49.28682" lon="-0.14409">
        <ele>5.159034</ele>
        <time>2022-08-05T14:10:05.000Z</time>
      </trkpt>
      <trkpt lat="49.28677" lon="-0.14408">
        <ele>5.144083</ele>
        <time>2022-08-05T14:10:06.000Z</time>
      </trkpt>
      <trkpt lat="49.28673" lon="-0.14406">
        <ele>5.128892</ele>
        <time>2022-08-05T14:10:07.000Z</time>
      </trkpt>
      <trkpt lat="49.28668" lon="-0.14404">
        <ele>5.113652</ele>
        <time>2022-08-05T14:10:08.000Z</time>
      </trkpt>
      <trkpt lat="49.28662" lon="-0.14402">
        <ele>5.096574</ele>
        <time>2022-08-05T14:10:09.000Z</time>
      </trkpt>
      <trkpt lat="49.28657" lon="-0.14401">
        <ele>5.080572</ele>
        <time>2022-08-05T14:10:10.000Z</time>
      </trkpt>
      <trkpt lat="49.28652" lon="-0.14399">
        <ele>5.064644</ele>
        <time>2022-08-05T14:10:11.000Z</time>
      </trkpt>
      <trkpt lat="49.28648" lon="-0.14398">
        <ele>5.051472</ele>
        <time>2022-08-05T14:10:12.000Z</time>
      </trkpt>
      <trkpt lat="49.28645" lon="-0.14396">
        <ele>5.039602</ele>
        <time>2022-08-05T14:10:13.000Z</time>
      </trkpt>
      <trkpt lat="49.28642" lon="-0.14392">
        <ele>5.02856</ele>
        <time>2022-08-05T14:10:14.000Z</time>
      </trkpt>
      <trkpt lat="49.2864" lon="-0.14386">
        <ele>5.016667</ele>
        <time>2022-08-05T14:10:15.000Z</time>
      </trkpt>
      <trkpt lat="49.28641" lon="-0.1438">
        <ele>5.0036</ele>
        <time>2022-08-05T14:10:16.000Z</time>
      </trkpt>
      <trkpt lat="49.28642" lon="-0.14373">
        <ele>4.989231</ele>
        <time>2022-08-05T14:10:17.000Z</time>
      </trkpt>
      <trkpt lat="49.28643" lon="-0.14366">
        <ele>4.974962</ele>
        <time>2022-08-05T14:10:18.000Z</time>
      </trkpt>
      <trkpt lat="49.28644" lon="-0.14359">
        <ele>4.960393</ele>
        <time>2022-08-05T14:10:19.000Z</time>
      </trkpt>
      <trkpt lat="49.28645" lon="-0.14352">
        <ele>4.945934</ele>
        <time>2022-08-05T14:10:20.000Z</time>
      </trkpt>
      <trkpt lat="49.28646" lon="-0.14345">
        <ele>4.931477</ele>
        <time>2022-08-05T14:10:21.000Z</time>
      </trkpt>
      <trkpt lat="49.28647" lon="-0.14337">
        <ele>4.916915</ele>
        <time>2022-08-05T14:10:22.000Z</time>
      </trkpt>
      <trkpt lat="49.28648" lon="-0.1433">
        <ele>4.901709</ele>
        <time>2022-08-05T14:10:23.000Z</time>
      </trkpt>
      <trkpt lat="49.28648" lon="-0.14323">
        <ele>4.887094</ele>
        <time>2022-08-05T14:10:24.000Z</time>
      </trkpt>
      <trkpt lat="49.2865" lon="-0.14315">
        <ele>4.872063</ele>
        <time>2022-08-05T14:10:25.000Z</time>
      </trkpt>
      <trkpt lat="49.28651" lon="-0.14308">
        <ele>4.856858</ele>
        <time>2022-08-05T14:10:26.000Z</time>
      </trkpt>
      <trkpt lat="49.28652" lon="-0.14301">
        <ele>4.842097</ele>
        <time>2022-08-05T14:10:27.000Z</time>
      </trkpt>
      <trkpt lat="49.28653" lon="-0.14293">
        <ele>4.826891</ele>
        <time>2022-08-05T14:10:28.000Z</time>
      </trkpt>
      <trkpt lat="49.28654" lon="-0.14286">
        <ele>4.81186</ele>
        <time>2022-08-05T14:10:29.000Z</time>
      </trkpt>
      <trkpt lat="49.28655" lon="-0.14278">
        <ele>4.796638</ele>
        <time>2022-08-05T14:10:30.000Z</time>
      </trkpt>
      <trkpt lat="49.28656" lon="-0.14271">
        <ele>4.782023</ele>
        <time>2022-08-05T14:10:31.000Z</time>
      </trkpt>
      <trkpt lat="49.28657" lon="-0.14264">
        <ele>4.767183</ele>
        <time>2022-08-05T14:10:32.000Z</time>
      </trkpt>
      <trkpt lat="49.28658" lon="-0.14257">
        <ele>4.753012</ele>
        <time>2022-08-05T14:10:33.000Z</time>
      </trkpt>
      <trkpt lat="49.2866" lon="-0.1425">
        <ele>4.738555</ele>
        <time>2022-08-05T14:10:34.000Z</time>
      </trkpt>
      <trkpt lat="49.28661" lon="-0.14243">
        <ele>4.724196</ele>
        <time>2022-08-05T14:10:35.000Z</time>
      </trkpt>
      <trkpt lat="49.28662" lon="-0.14236">
        <ele>4.710522</ele>
        <time>2022-08-05T14:10:36.000Z</time>
      </trkpt>
      <trkpt lat="49.28663" lon="-0.14229">
        <ele>4.696545</ele>
        <time>2022-08-05T14:10:37.000Z</time>
      </trkpt>
      <trkpt lat="49.28664" lon="-0.14222">
        <ele>4.682088</ele>
        <time>2022-08-05T14:10:38.000Z</time>
      </trkpt>
      <trkpt lat="49.28664" lon="-0.14216">
        <ele>4.66855</ele>
        <time>2022-08-05T14:10:39.000Z</time>
      </trkpt>
      <trkpt lat="49.28665" lon="-0.14209">
        <ele>4.654897</ele>
        <time>2022-08-05T14:10:40.000Z</time>
      </trkpt>
      <trkpt lat="49.28666" lon="-0.14202">
        <ele>4.641756</ele>
        <time>2022-08-05T14:10:41.000Z</time>
      </trkpt>
      <trkpt lat="49.28667" lon="-0.14196">
        <ele>4.628491</ele>
        <time>2022-08-05T14:10:42.000Z</time>
      </trkpt>
      <trkpt lat="49.28667" lon="-0.1419">
        <ele>4.616041</ele>
        <time>2022-08-05T14:10:43.000Z</time>
      </trkpt>
      <trkpt lat="49.28668" lon="-0.14184">
        <ele>4.604376</ele>
        <time>2022-08-05T14:10:44.000Z</time>
      </trkpt>
      <trkpt lat="49.28669" lon="-0.14178">
        <ele>4.592464</ele>
        <time>2022-08-05T14:10:45.000Z</time>
      </trkpt>
      <trkpt lat="49.2867" lon="-0.14172">
        <ele>4.579906</ele>
        <time>2022-08-05T14:10:46.000Z</time>
      </trkpt>
      <trkpt lat="49.28671" lon="-0.14166">
        <ele>4.56687</ele>
        <time>2022-08-05T14:10:47.000Z</time>
      </trkpt>
      <trkpt lat="49.28672" lon="-0.14159">
        <ele>4.553391</ele>
        <time>2022-08-05T14:10:48.000Z</time>
      </trkpt>
      <trkpt lat="49.28672" lon="-0.14152">
        <ele>4.539259</ele>
        <time>2022-08-05T14:10:49.000Z</time>
      </trkpt>
      <trkpt lat="49.28673" lon="-0.14144">
        <ele>4.523075</ele>
        <time>2022-08-05T14:10:50.000Z</time>
      </trkpt>
      <trkpt lat="49.28674" lon="-0.14136">
        <ele>4.506754</ele>
        <time>2022-08-05T14:10:51.000Z</time>
      </trkpt>
      <trkpt lat="49.28676" lon="-0.14127">
        <ele>4.488638</ele>
        <time>2022-08-05T14:10:52.000Z</time>
      </trkpt>
      <trkpt lat="49.28676" lon="-0.14118">
        <ele>4.471029</ele>
        <time>2022-08-05T14:10:53.000Z</time>
      </trkpt>
      <trkpt lat="49.28677" lon="-0.14109">
        <ele>4.453172</ele>
        <time>2022-08-05T14:10:54.000Z</time>
      </trkpt>
      <trkpt lat="49.28678" lon="-0.14101">
        <ele>4.438551</ele>
        <time>2022-08-05T14:10:55.000Z</time>
      </trkpt>
      <trkpt lat="49.2868" lon="-0.14092">
        <ele>4.445793</ele>
        <time>2022-08-05T14:10:56.000Z</time>
      </trkpt>
      <trkpt lat="49.28681" lon="-0.14083">
        <ele>4.452788</ele>
        <time>2022-08-05T14:10:57.000Z</time>
      </trkpt>
      <trkpt lat="49.28682" lon="-0.14075">
        <ele>4.459638</ele>
        <time>2022-08-05T14:10:58.000Z</time>
      </trkpt>
      <trkpt lat="49.28682" lon="-0.14066">
        <ele>4.466539</ele>
        <time>2022-08-05T14:10:59.000Z</time>
      </trkpt>
      <trkpt lat="49.28684" lon="-0.14058">
        <ele>4.473627</ele>
        <time>2022-08-05T14:11:00.000Z</time>
      </trkpt>
      <trkpt lat="49.28685" lon="-0.1405">
        <ele>4.480233</ele>
        <time>2022-08-05T14:11:01.000Z</time>
      </trkpt>
      <trkpt lat="49.28686" lon="-0.14042">
        <ele>4.48645</ele>
        <time>2022-08-05T14:11:02.000Z</time>
      </trkpt>
      <trkpt lat="49.28688" lon="-0.14035">
        <ele>4.492436</ele>
        <time>2022-08-05T14:11:03.000Z</time>
      </trkpt>
      <trkpt lat="49.28688" lon="-0.14029">
        <ele>4.497696</ele>
        <time>2022-08-05T14:11:04.000Z</time>
      </trkpt>
      <trkpt lat="49.2869" lon="-0.14022">
        <ele>4.503262</ele>
        <time>2022-08-05T14:11:05.000Z</time>
      </trkpt>
      <trkpt lat="49.28691" lon="-0.14015">
        <ele>4.508778</ele>
        <time>2022-08-05T14:11:06.000Z</time>
      </trkpt>
      <trkpt lat="49.28692" lon="-0.14008">
        <ele>4.514888</ele>
        <time>2022-08-05T14:11:07.000Z</time>
      </trkpt>
      <trkpt lat="49.28692" lon="-0.14">
        <ele>4.520997</ele>
        <time>2022-08-05T14:11:08.000Z</time>
      </trkpt>
      <trkpt lat="49.28693" lon="-0.13993">
        <ele>4.527028</ele>
        <time>2022-08-05T14:11:09.000Z</time>
      </trkpt>
      <trkpt lat="49.28694" lon="-0.13986">
        <ele>4.53294</ele>
        <time>2022-08-05T14:11:10.000Z</time>
      </trkpt>
      <trkpt lat="49.28695" lon="-0.13978">
        <ele>4.538894</ele>
        <time>2022-08-05T14:11:11.000Z</time>
      </trkpt>
      <trkpt lat="49.28696" lon="-0.13971">
        <ele>4.54487</ele>
        <time>2022-08-05T14:11:12.000Z</time>
      </trkpt>
      <trkpt lat="49.28698" lon="-0.13964">
        <ele>4.550662</ele>
        <time>2022-08-05T14:11:13.000Z</time>
      </trkpt>
      <trkpt lat="49.28698" lon="-0.13958">
        <ele>4.555922</ele>
        <time>2022-08-05T14:11:14.000Z</time>
      </trkpt>
      <trkpt lat="49.28698" lon="-0.13952">
        <ele>4.560249</ele>
        <time>2022-08-05T14:11:15.000Z</time>
      </trkpt>
      <trkpt lat="49.28698" lon="-0.13948">
        <ele>4.563929</ele>
        <time>2022-08-05T14:11:16.000Z</time>
      </trkpt>
      <trkpt lat="49.28696" lon="-0.13945">
        <ele>4.567337</ele>
        <time>2022-08-05T14:11:17.000Z</time>
      </trkpt>
      <trkpt lat="49.28693" lon="-0.13943">
        <ele>4.570585</ele>
        <time>2022-08-05T14:11:18.000Z</time>
      </trkpt>
      <trkpt lat="49.2869" lon="-0.13942">
        <ele>4.574596</ele>
        <time>2022-08-05T14:11:19.000Z</time>
      </trkpt>
      <trkpt lat="49.28686" lon="-0.13942">
        <ele>4.579264</ele>
        <time>2022-08-05T14:11:20.000Z</time>
      </trkpt>
      <trkpt lat="49.28682" lon="-0.13942">
        <ele>4.584797</ele>
        <time>2022-08-05T14:11:21.000Z</time>
      </trkpt>
      <trkpt lat="49.28677" lon="-0.13942">
        <ele>4.59033</ele>
        <time>2022-08-05T14:11:22.000Z</time>
      </trkpt>
      <trkpt lat="49.28673" lon="-0.13943">
        <ele>4.596253</ele>
        <time>2022-08-05T14:11:23.000Z</time>
      </trkpt>
      <trkpt lat="49.28668" lon="-0.13944">
        <ele>4.601686</ele>
        <time>2022-08-05T14:11:24.000Z</time>
      </trkpt>
      <trkpt lat="49.28664" lon="-0.13944">
        <ele>4.606851</ele>
        <time>2022-08-05T14:11:25.000Z</time>
      </trkpt>
      <trkpt lat="49.2866" lon="-0.13944">
        <ele>4.612379</ele>
        <time>2022-08-05T14:11:26.000Z</time>
      </trkpt>
      <trkpt lat="49.28655" lon="-0.13944">
        <ele>4.618277</ele>
        <time>2022-08-05T14:11:27.000Z</time>
      </trkpt>
      <trkpt lat="49.28651" lon="-0.13944">
        <ele>4.623314</ele>
        <time>2022-08-05T14:11:28.000Z</time>
      </trkpt>
      <trkpt lat="49.28646" lon="-0.13945">
        <ele>4.628888</ele>
        <time>2022-08-05T14:11:29.000Z</time>
      </trkpt>
      <trkpt lat="49.28642" lon="-0.13946">
        <ele>4.634437</ele>
        <time>2022-08-05T14:11:30.000Z</time>
      </trkpt>
      <trkpt lat="49.28637" lon="-0.13946">
        <ele>4.639598</ele>
        <time>2022-08-05T14:11:31.000Z</time>
      </trkpt>
      <trkpt lat="49.28634" lon="-0.13946">
        <ele>4.6439</ele>
        <time>2022-08-05T14:11:32.000Z</time>
      </trkpt>
      <trkpt lat="49.28631" lon="-0.13946">
        <ele>4.647832</ele>
        <time>2022-08-05T14:11:33.000Z</time>
      </trkpt>
      <trkpt lat="49.28628" lon="-0.13947">
        <ele>4.651776</ele>
        <time>2022-08-05T14:11:34.000Z</time>
      </trkpt>
      <trkpt lat="49.28624" lon="-0.13947">
        <ele>4.655706</ele>
        <time>2022-08-05T14:11:35.000Z</time>
      </trkpt>
      <trkpt lat="49.28622" lon="-0.13946">
        <ele>4.658284</ele>
        <time>2022-08-05T14:11:36.000Z</time>
      </trkpt>
      <trkpt lat="49.28619" lon="-0.13947">
        <ele>4.648598</ele>
        <time>2022-08-05T14:11:37.000Z</time>
      </trkpt>
      <trkpt lat="49.28616" lon="-0.13947">
        <ele>4.63984</ele>
        <time>2022-08-05T14:11:38.000Z</time>
      </trkpt>
      <trkpt lat="49.28612" lon="-0.13947">
        <ele>4.629281</ele>
        <time>2022-08-05T14:11:39.000Z</time>
      </trkpt>
      <trkpt lat="49.28608" lon="-0.13947">
        <ele>4.617508</ele>
        <time>2022-08-05T14:11:40.000Z</time>
      </trkpt>
      <trkpt lat="49.28605" lon="-0.13947">
        <ele>4.606044</ele>
        <time>2022-08-05T14:11:41.000Z</time>
      </trkpt>
      <trkpt lat="49.286" lon="-0.13947">
        <ele>4.592468</ele>
        <time>2022-08-05T14:11:42.000Z</time>
      </trkpt>
      <trkpt lat="49.28595" lon="-0.13947">
        <ele>4.577986</ele>
        <time>2022-08-05T14:11:43.000Z</time>
      </trkpt>
      <trkpt lat="49.28591" lon="-0.13947">
        <ele>4.564387</ele>
        <time>2022-08-05T14:11:44.000Z</time>
      </trkpt>
      <trkpt lat="49.28586" lon="-0.13948">
        <ele>4.549872</ele>
        <time>2022-08-05T14:11:45.000Z</time>
      </trkpt>
      <trkpt lat="49.28581" lon="-0.13948">
        <ele>4.535343</ele>
        <time>2022-08-05T14:11:46.000Z</time>
      </trkpt>
      <trkpt lat="49.28578" lon="-0.13949">
        <ele>4.525591</ele>
        <time>2022-08-05T14:11:47.000Z</time>
      </trkpt>
      <trkpt lat="49.28573" lon="-0.13949">
        <ele>4.509289</ele>
        <time>2022-08-05T14:11:48.000Z</time>
      </trkpt>
      <trkpt lat="49.28568" lon="-0.1395">
        <ele>4.496594</ele>
        <time>2022-08-05T14:11:49.000Z</time>
      </trkpt>
      <trkpt lat="49.28565" lon="-0.1395">
        <ele>4.485128</ele>
        <time>2022-08-05T14:11:50.000Z</time>
      </trkpt>
      <trkpt lat="49.28561" lon="-0.1395">
        <ele>4.474561</ele>
        <time>2022-08-05T14:11:51.000Z</time>
      </trkpt>
      <trkpt lat="49.28558" lon="-0.1395">
        <ele>4.466717</ele>
        <time>2022-08-05T14:11:52.000Z</time>
      </trkpt>
      <trkpt lat="49.28556" lon="-0.1395">
        <ele>4.460069</ele>
        <time>2022-08-05T14:11:53.000Z</time>
      </trkpt>
      <trkpt lat="49.28554" lon="-0.13951">
        <ele>4.45392</ele>
        <time>2022-08-05T14:11:54.000Z</time>
      </trkpt>
      <trkpt lat="49.28552" lon="-0.13952">
        <ele>4.447561</ele>
        <time>2022-08-05T14:11:55.000Z</time>
      </trkpt>
      <trkpt lat="49.28549" lon="-0.13955">
        <ele>4.437523</ele>
        <time>2022-08-05T14:11:57.000Z</time>
      </trkpt>
      <trkpt lat="49.28549" lon="-0.13958">
        <ele>4.430846</ele>
        <time>2022-08-05T14:11:59.000Z</time>
      </trkpt>
      <trkpt lat="49.28548" lon="-0.13963">
        <ele>4.420573</ele>
        <time>2022-08-05T14:12:01.000Z</time>
      </trkpt>
      <trkpt lat="49.28548" lon="-0.13966">
        <ele>4.414669</ele>
        <time>2022-08-05T14:12:03.000Z</time>
      </trkpt>
      <trkpt lat="49.28541" lon="-0.13965">
        <ele>4.394094</ele>
        <time>2022-08-05T14:12:10.000Z</time>
      </trkpt>
      <trkpt lat="49.2854" lon="-0.13962">
        <ele>4.386005</ele>
        <time>2022-08-05T14:12:11.000Z</time>
      </trkpt>
      <trkpt lat="49.28538" lon="-0.13959">
        <ele>4.377634</ele>
        <time>2022-08-05T14:12:12.000Z</time>
      </trkpt>
      <trkpt lat="49.28535" lon="-0.13957">
        <ele>4.369132</ele>
        <time>2022-08-05T14:12:13.000Z</time>
      </trkpt>
      <trkpt lat="49.28533" lon="-0.13954">
        <ele>4.360953</ele>
        <time>2022-08-05T14:12:14.000Z</time>
      </trkpt>
      <trkpt lat="49.28531" lon="-0.13953">
        <ele>4.352854</ele>
        <time>2022-08-05T14:12:15.000Z</time>
      </trkpt>
      <trkpt lat="49.28527" lon="-0.13953">
        <ele>4.343198</ele>
        <time>2022-08-05T14:12:16.000Z</time>
      </trkpt>
      <trkpt lat="49.28525" lon="-0.13953">
        <ele>4.334429</ele>
        <time>2022-08-05T14:12:17.000Z</time>
      </trkpt>
      <trkpt lat="49.28521" lon="-0.13953">
        <ele>4.324767</ele>
        <time>2022-08-05T14:12:18.000Z</time>
      </trkpt>
      <trkpt lat="49.28517" lon="-0.13953">
        <ele>4.312999</ele>
        <time>2022-08-05T14:12:19.000Z</time>
      </trkpt>
      <trkpt lat="49.28514" lon="-0.13953">
        <ele>4.301428</ele>
        <time>2022-08-05T14:12:20.000Z</time>
      </trkpt>
      <trkpt lat="49.2851" lon="-0.13952">
        <ele>4.289948</ele>
        <time>2022-08-05T14:12:21.000Z</time>
      </trkpt>
      <trkpt lat="49.28506" lon="-0.13952">
        <ele>4.277271</ele>
        <time>2022-08-05T14:12:22.000Z</time>
      </trkpt>
      <trkpt lat="49.28501" lon="-0.13952">
        <ele>4.264586</ele>
        <time>2022-08-05T14:12:23.000Z</time>
      </trkpt>
      <trkpt lat="49.28497" lon="-0.13953">
        <ele>4.252211</ele>
        <time>2022-08-05T14:12:24.000Z</time>
      </trkpt>
      <trkpt lat="49.28493" lon="-0.13953">
        <ele>4.238629</ele>
        <time>2022-08-05T14:12:25.000Z</time>
      </trkpt>
      <trkpt lat="49.28488" lon="-0.13953">
        <ele>4.223241</ele>
        <time>2022-08-05T14:12:26.000Z</time>
      </trkpt>
      <trkpt lat="49.28483" lon="-0.13953">
        <ele>4.208755</ele>
        <time>2022-08-05T14:12:27.000Z</time>
      </trkpt>
      <trkpt lat="49.28478" lon="-0.13953">
        <ele>4.193364</ele>
        <time>2022-08-05T14:12:28.000Z</time>
      </trkpt>
      <trkpt lat="49.28473" lon="-0.13953">
        <ele>4.177675</ele>
        <time>2022-08-05T14:12:29.000Z</time>
      </trkpt>
      <trkpt lat="49.28468" lon="-0.13953">
        <ele>4.162288</ele>
        <time>2022-08-05T14:12:30.000Z</time>
      </trkpt>
      <trkpt lat="49.28462" lon="-0.13954">
        <ele>4.145978</ele>
        <time>2022-08-05T14:12:31.000Z</time>
      </trkpt>
      <trkpt lat="49.28457" lon="-0.13954">
        <ele>4.131496</ele>
        <time>2022-08-05T14:12:32.000Z</time>
      </trkpt>
      <trkpt lat="49.28452" lon="-0.13954">
        <ele>4.116104</ele>
        <time>2022-08-05T14:12:33.000Z</time>
      </trkpt>
      <trkpt lat="49.28447" lon="-0.13954">
        <ele>4.116013</ele>
        <time>2022-08-05T14:12:34.000Z</time>
      </trkpt>
      <trkpt lat="49.28442" lon="-0.13954">
        <ele>4.116013</ele>
        <time>2022-08-05T14:12:35.000Z</time>
      </trkpt>
      <trkpt lat="49.28437" lon="-0.13953">
        <ele>4.116013</ele>
        <time>2022-08-05T14:12:36.000Z</time>
      </trkpt>
      <trkpt lat="49.28431" lon="-0.13951">
        <ele>4.116013</ele>
        <time>2022-08-05T14:12:37.000Z</time>
      </trkpt>
      <trkpt lat="49.28426" lon="-0.13949">
        <ele>4.116013</ele>
        <time>2022-08-05T14:12:38.000Z</time>
      </trkpt>
      <trkpt lat="49.28421" lon="-0.13947">
        <ele>4.116013</ele>
        <time>2022-08-05T14:12:39.000Z</time>
      </trkpt>
      <trkpt lat="49.28416" lon="-0.13945">
        <ele>4.116013</ele>
        <time>2022-08-05T14:12:40.000Z</time>
      </trkpt>
      <trkpt lat="49.28411" lon="-0.13942">
        <ele>4.116013</ele>
        <time>2022-08-05T14:12:41.000Z</time>
      </trkpt>
      <trkpt lat="49.28406" lon="-0.13938">
        <ele>4.116013</ele>
        <time>2022-08-05T14:12:42.000Z</time>
      </trkpt>
      <trkpt lat="49.284" lon="-0.13934">
        <ele>4.116013</ele>
        <time>2022-08-05T14:12:43.000Z</time>
      </trkpt>
      <trkpt lat="49.28394" lon="-0.13931">
        <ele>4.116013</ele>
        <time>2022-08-05T14:12:44.000Z</time>
      </trkpt>
      <trkpt lat="49.28389" lon="-0.13927">
        <ele>4.116013</ele>
        <time>2022-08-05T14:12:45.000Z</time>
      </trkpt>
      <trkpt lat="49.28383" lon="-0.13923">
        <ele>4.116013</ele>
        <time>2022-08-05T14:12:46.000Z</time>
      </trkpt>
      <trkpt lat="49.28378" lon="-0.13919">
        <ele>4.116013</ele>
        <time>2022-08-05T14:12:47.000Z</time>
      </trkpt>
      <trkpt lat="49.28372" lon="-0.13915">
        <ele>4.116013</ele>
        <time>2022-08-05T14:12:48.000Z</time>
      </trkpt>
      <trkpt lat="49.28367" lon="-0.13911">
        <ele>4.116013</ele>
        <time>2022-08-05T14:12:49.000Z</time>
      </trkpt>
      <trkpt lat="49.28362" lon="-0.13908">
        <ele>4.116013</ele>
        <time>2022-08-05T14:12:50.000Z</time>
      </trkpt>
      <trkpt lat="49.28356" lon="-0.13904">
        <ele>4.116013</ele>
        <time>2022-08-05T14:12:51.000Z</time>
      </trkpt>
      <trkpt lat="49.28351" lon="-0.13901">
        <ele>4.116013</ele>
        <time>2022-08-05T14:12:52.000Z</time>
      </trkpt>
      <trkpt lat="49.28346" lon="-0.13897">
        <ele>4.116013</ele>
        <time>2022-08-05T14:12:53.000Z</time>
      </trkpt>
      <trkpt lat="49.2834" lon="-0.13893">
        <ele>4.116013</ele>
        <time>2022-08-05T14:12:54.000Z</time>
      </trkpt>
      <trkpt lat="49.28335" lon="-0.13889">
        <ele>4.116013</ele>
        <time>2022-08-05T14:12:55.000Z</time>
      </trkpt>
      <trkpt lat="49.2833" lon="-0.13885">
        <ele>4.116013</ele>
        <time>2022-08-05T14:12:56.000Z</time>
      </trkpt>
      <trkpt lat="49.28326" lon="-0.13882">
        <ele>4.116013</ele>
        <time>2022-08-05T14:12:57.000Z</time>
      </trkpt>
      <trkpt lat="49.2832" lon="-0.13878">
        <ele>4.116013</ele>
        <time>2022-08-05T14:12:58.000Z</time>
      </trkpt>
      <trkpt lat="49.28315" lon="-0.13873">
        <ele>4.116013</ele>
        <time>2022-08-05T14:12:59.000Z</time>
      </trkpt>
      <trkpt lat="49.2831" lon="-0.13869">
        <ele>4.116013</ele>
        <time>2022-08-05T14:13:00.000Z</time>
      </trkpt>
      <trkpt lat="49.28305" lon="-0.13865">
        <ele>4.116013</ele>
        <time>2022-08-05T14:13:01.000Z</time>
      </trkpt>
      <trkpt lat="49.28301" lon="-0.13862">
        <ele>4.116013</ele>
        <time>2022-08-05T14:13:02.000Z</time>
      </trkpt>
      <trkpt lat="49.28295" lon="-0.13857">
        <ele>4.116013</ele>
        <time>2022-08-05T14:13:03.000Z</time>
      </trkpt>
      <trkpt lat="49.28291" lon="-0.13854">
        <ele>4.116013</ele>
        <time>2022-08-05T14:13:04.000Z</time>
      </trkpt>
      <trkpt lat="49.28286" lon="-0.13849">
        <ele>4.116013</ele>
        <time>2022-08-05T14:13:05.000Z</time>
      </trkpt>
      <trkpt lat="49.28283" lon="-0.13846">
        <ele>4.116013</ele>
        <time>2022-08-05T14:13:06.000Z</time>
      </trkpt>
      <trkpt lat="49.28279" lon="-0.13842">
        <ele>4.116013</ele>
        <time>2022-08-05T14:13:07.000Z</time>
      </trkpt>
      <trkpt lat="49.28277" lon="-0.1384">
        <ele>4.116013</ele>
        <time>2022-08-05T14:13:08.000Z</time>
      </trkpt>
      <trkpt lat="49.28275" lon="-0.13838">
        <ele>4.116013</ele>
        <time>2022-08-05T14:13:09.000Z</time>
      </trkpt>
      <trkpt lat="49.28272" lon="-0.13836">
        <ele>4.116013</ele>
        <time>2022-08-05T14:13:11.000Z</time>
      </trkpt>
      <trkpt lat="49.28261" lon="-0.13827">
        <ele>4.116013</ele>
        <time>2022-08-05T14:14:45.000Z</time>
      </trkpt>
      <trkpt lat="49.28259" lon="-0.13822">
        <ele>4.116013</ele>
        <time>2022-08-05T14:14:46.000Z</time>
      </trkpt>
      <trkpt lat="49.28255" lon="-0.13819">
        <ele>4.116013</ele>
        <time>2022-08-05T14:14:47.000Z</time>
      </trkpt>
      <trkpt lat="49.28252" lon="-0.13816">
        <ele>4.116013</ele>
        <time>2022-08-05T14:14:48.000Z</time>
      </trkpt>
      <trkpt lat="49.28248" lon="-0.13814">
        <ele>4.116013</ele>
        <time>2022-08-05T14:14:49.000Z</time>
      </trkpt>
      <trkpt lat="49.28244" lon="-0.13812">
        <ele>4.116013</ele>
        <time>2022-08-05T14:14:50.000Z</time>
      </trkpt>
      <trkpt lat="49.2824" lon="-0.13811">
        <ele>4.116013</ele>
        <time>2022-08-05T14:14:51.000Z</time>
      </trkpt>
      <trkpt lat="49.28236" lon="-0.13809">
        <ele>4.116013</ele>
        <time>2022-08-05T14:14:52.000Z</time>
      </trkpt>
      <trkpt lat="49.28233" lon="-0.13807">
        <ele>4.116013</ele>
        <time>2022-08-05T14:14:53.000Z</time>
      </trkpt>
      <trkpt lat="49.28229" lon="-0.13806">
        <ele>4.116013</ele>
        <time>2022-08-05T14:14:54.000Z</time>
      </trkpt>
      <trkpt lat="49.28225" lon="-0.13805">
        <ele>4.116013</ele>
        <time>2022-08-05T14:14:55.000Z</time>
      </trkpt>
      <trkpt lat="49.28215" lon="-0.13807">
        <ele>5.378652</ele>
        <time>2022-08-06T09:01:25.000Z</time>
      </trkpt>
      <trkpt lat="49.28219" lon="-0.13807">
        <ele>5.378652</ele>
        <time>2022-08-06T09:01:34.000Z</time>
      </trkpt>
      <trkpt lat="49.28221" lon="-0.13808">
        <ele>5.378652</ele>
        <time>2022-08-06T09:01:35.000Z</time>
      </trkpt>
      <trkpt lat="49.28224" lon="-0.13809">
        <ele>5.378652</ele>
        <time>2022-08-06T09:01:36.000Z</time>
      </trkpt>
      <trkpt lat="49.28227" lon="-0.1381">
        <ele>5.378652</ele>
        <time>2022-08-06T09:01:37.000Z</time>
      </trkpt>
      <trkpt lat="49.28229" lon="-0.13811">
        <ele>5.378652</ele>
        <time>2022-08-06T09:01:38.000Z</time>
      </trkpt>
      <trkpt lat="49.28231" lon="-0.13811">
        <ele>5.378652</ele>
        <time>2022-08-06T09:01:39.000Z</time>
      </trkpt>
      <trkpt lat="49.28234" lon="-0.13813">
        <ele>5.378652</ele>
        <time>2022-08-06T09:01:40.000Z</time>
      </trkpt>
      <trkpt lat="49.28237" lon="-0.13813">
        <ele>5.378652</ele>
        <time>2022-08-06T09:01:41.000Z</time>
      </trkpt>
      <trkpt lat="49.28239" lon="-0.13814">
        <ele>5.378652</ele>
        <time>2022-08-06T09:01:42.000Z</time>
      </trkpt>
      <trkpt lat="49.28242" lon="-0.13815">
        <ele>5.378652</ele>
        <time>2022-08-06T09:01:43.000Z</time>
      </trkpt>
      <trkpt lat="49.28244" lon="-0.13816">
        <ele>5.378652</ele>
        <time>2022-08-06T09:01:44.000Z</time>
      </trkpt>
      <trkpt lat="49.28247" lon="-0.13817">
        <ele>5.378652</ele>
        <time>2022-08-06T09:01:45.000Z</time>
      </trkpt>
      <trkpt lat="49.28249" lon="-0.13818">
        <ele>5.378652</ele>
        <time>2022-08-06T09:01:46.000Z</time>
      </trkpt>
      <trkpt lat="49.28252" lon="-0.13819">
        <ele>5.378652</ele>
        <time>2022-08-06T09:01:47.000Z</time>
      </trkpt>
      <trkpt lat="49.28254" lon="-0.1382">
        <ele>5.378652</ele>
        <time>2022-08-06T09:01:48.000Z</time>
      </trkpt>
      <trkpt lat="49.28256" lon="-0.13821">
        <ele>5.378652</ele>
        <time>2022-08-06T09:01:49.000Z</time>
      </trkpt>
      <trkpt lat="49.28258" lon="-0.13821">
        <ele>5.378652</ele>
        <time>2022-08-06T09:01:50.000Z</time>
      </trkpt>
      <trkpt lat="49.28261" lon="-0.13821">
        <ele>5.378652</ele>
        <time>2022-08-06T09:01:52.000Z</time>
      </trkpt>
      <trkpt lat="49.28263" lon="-0.1382">
        <ele>5.378652</ele>
        <time>2022-08-06T09:01:53.000Z</time>
      </trkpt>
      <trkpt lat="49.28265" lon="-0.13818">
        <ele>5.378652</ele>
        <time>2022-08-06T09:01:55.000Z</time>
      </trkpt>
      <trkpt lat="49.28267" lon="-0.13816">
        <ele>5.378652</ele>
        <time>2022-08-06T09:01:56.000Z</time>
      </trkpt>
      <trkpt lat="49.28268" lon="-0.13813">
        <ele>5.378652</ele>
        <time>2022-08-06T09:01:58.000Z</time>
      </trkpt>
      <trkpt lat="49.28269" lon="-0.13808">
        <ele>5.378652</ele>
        <time>2022-08-06T09:02:00.000Z</time>
      </trkpt>
      <trkpt lat="49.28269" lon="-0.13805">
        <ele>5.378652</ele>
        <time>2022-08-06T09:02:02.000Z</time>
      </trkpt>
      <trkpt lat="49.28268" lon="-0.13801">
        <ele>5.378652</ele>
        <time>2022-08-06T09:02:04.000Z</time>
      </trkpt>
      <trkpt lat="49.28269" lon="-0.13797">
        <ele>5.378652</ele>
        <time>2022-08-06T09:02:06.000Z</time>
      </trkpt>
      <trkpt lat="49.28269" lon="-0.13794">
        <ele>5.378652</ele>
        <time>2022-08-06T09:02:07.000Z</time>
      </trkpt>
      <trkpt lat="49.2827" lon="-0.13791">
        <ele>5.378652</ele>
        <time>2022-08-06T09:02:08.000Z</time>
      </trkpt>
      <trkpt lat="49.28271" lon="-0.13788">
        <ele>5.378652</ele>
        <time>2022-08-06T09:02:09.000Z</time>
      </trkpt>
      <trkpt lat="49.28273" lon="-0.13784">
        <ele>5.378652</ele>
        <time>2022-08-06T09:02:10.000Z</time>
      </trkpt>
      <trkpt lat="49.28275" lon="-0.1378">
        <ele>5.378652</ele>
        <time>2022-08-06T09:02:11.000Z</time>
      </trkpt>
      <trkpt lat="49.28276" lon="-0.13776">
        <ele>5.378652</ele>
        <time>2022-08-06T09:02:12.000Z</time>
      </trkpt>
      <trkpt lat="49.28277" lon="-0.13771">
        <ele>5.378652</ele>
        <time>2022-08-06T09:02:13.000Z</time>
      </trkpt>
      <trkpt lat="49.28279" lon="-0.13767">
        <ele>5.378652</ele>
        <time>2022-08-06T09:02:14.000Z</time>
      </trkpt>
      <trkpt lat="49.2828" lon="-0.13763">
        <ele>5.383667</ele>
        <time>2022-08-06T09:02:15.000Z</time>
      </trkpt>
      <trkpt lat="49.28281" lon="-0.13758">
        <ele>5.390047</ele>
        <time>2022-08-06T09:02:16.000Z</time>
      </trkpt>
      <trkpt lat="49.28283" lon="-0.13754">
        <ele>5.397087</ele>
        <time>2022-08-06T09:02:17.000Z</time>
      </trkpt>
      <trkpt lat="49.28284" lon="-0.1375">
        <ele>5.404006</ele>
        <time>2022-08-06T09:02:18.000Z</time>
      </trkpt>
      <trkpt lat="49.28285" lon="-0.13745">
        <ele>5.410542</ele>
        <time>2022-08-06T09:02:19.000Z</time>
      </trkpt>
      <trkpt lat="49.28287" lon="-0.13741">
        <ele>5.418038</ele>
        <time>2022-08-06T09:02:20.000Z</time>
      </trkpt>
      <trkpt lat="49.28289" lon="-0.13736">
        <ele>5.4252</ele>
        <time>2022-08-06T09:02:21.000Z</time>
      </trkpt>
      <trkpt lat="49.2829" lon="-0.13732">
        <ele>5.432385</ele>
        <time>2022-08-06T09:02:22.000Z</time>
      </trkpt>
      <trkpt lat="49.28291" lon="-0.13727">
        <ele>5.438765</ele>
        <time>2022-08-06T09:02:23.000Z</time>
      </trkpt>
      <trkpt lat="49.28293" lon="-0.13723">
        <ele>5.445643</ele>
        <time>2022-08-06T09:02:24.000Z</time>
      </trkpt>
      <trkpt lat="49.28294" lon="-0.13718">
        <ele>5.453052</ele>
        <time>2022-08-06T09:02:25.000Z</time>
      </trkpt>
      <trkpt lat="49.28295" lon="-0.13713">
        <ele>5.459898</ele>
        <time>2022-08-06T09:02:26.000Z</time>
      </trkpt>
      <trkpt lat="49.28296" lon="-0.13709">
        <ele>5.466542</ele>
        <time>2022-08-06T09:02:27.000Z</time>
      </trkpt>
      <trkpt lat="49.28297" lon="-0.13704">
        <ele>5.473585</ele>
        <time>2022-08-06T09:02:28.000Z</time>
      </trkpt>
      <trkpt lat="49.28299" lon="-0.13699">
        <ele>5.480994</ele>
        <time>2022-08-06T09:02:29.000Z</time>
      </trkpt>
      <trkpt lat="49.283" lon="-0.13695">
        <ele>5.48828</ele>
        <time>2022-08-06T09:02:30.000Z</time>
      </trkpt>
      <trkpt lat="49.28301" lon="-0.1369">
        <ele>5.494858</ele>
        <time>2022-08-06T09:02:31.000Z</time>
      </trkpt>
      <trkpt lat="49.28302" lon="-0.13686">
        <ele>5.501502</ele>
        <time>2022-08-06T09:02:32.000Z</time>
      </trkpt>
      <trkpt lat="49.28303" lon="-0.13681">
        <ele>5.508195</ele>
        <time>2022-08-06T09:02:33.000Z</time>
      </trkpt>
      <trkpt lat="49.28303" lon="-0.13677">
        <ele>5.513823</ele>
        <time>2022-08-06T09:02:34.000Z</time>
      </trkpt>
      <trkpt lat="49.28304" lon="-0.13674">
        <ele>5.518782</ele>
        <time>2022-08-06T09:02:35.000Z</time>
      </trkpt>
      <trkpt lat="49.28305" lon="-0.1367">
        <ele>5.52425</ele>
        <time>2022-08-06T09:02:37.000Z</time>
      </trkpt>
      <trkpt lat="49.28305" lon="-0.13667">
        <ele>5.529002</ele>
        <time>2022-08-06T09:02:39.000Z</time>
      </trkpt>
      <trkpt lat="49.28304" lon="-0.13662">
        <ele>5.536713</ele>
        <time>2022-08-06T09:02:41.000Z</time>
      </trkpt>
      <trkpt lat="49.28303" lon="-0.13658">
        <ele>5.542342</ele>
        <time>2022-08-06T09:02:42.000Z</time>
      </trkpt>
      <trkpt lat="49.28301" lon="-0.13654">
        <ele>5.548663</ele>
        <time>2022-08-06T09:02:43.000Z</time>
      </trkpt>
      <trkpt lat="49.283" lon="-0.13651">
        <ele>5.554292</ele>
        <time>2022-08-06T09:02:44.000Z</time>
      </trkpt>
      <trkpt lat="49.28298" lon="-0.13648">
        <ele>5.559927</ele>
        <time>2022-08-06T09:02:45.000Z</time>
      </trkpt>
      <trkpt lat="49.28297" lon="-0.13644">
        <ele>5.565673</ele>
        <time>2022-08-06T09:02:46.000Z</time>
      </trkpt>
      <trkpt lat="49.28296" lon="-0.13641">
        <ele>5.570327</ele>
        <time>2022-08-06T09:02:47.000Z</time>
      </trkpt>
      <trkpt lat="49.28295" lon="-0.13638">
        <ele>5.574712</ele>
        <time>2022-08-06T09:02:48.000Z</time>
      </trkpt>
      <trkpt lat="49.28295" lon="-0.13635">
        <ele>5.578625</ele>
        <time>2022-08-06T09:02:49.000Z</time>
      </trkpt>
      <trkpt lat="49.28297" lon="-0.13633">
        <ele>5.582852</ele>
        <time>2022-08-06T09:02:50.000Z</time>
      </trkpt>
      <trkpt lat="49.28298" lon="-0.13628">
        <ele>5.590504</ele>
        <time>2022-08-06T09:02:52.000Z</time>
      </trkpt>
      <trkpt lat="49.28298" lon="-0.13625">
        <ele>5.595022</ele>
        <time>2022-08-06T09:02:53.000Z</time>
      </trkpt>
      <trkpt lat="49.28299" lon="-0.13621">
        <ele>5.600264</ele>
        <time>2022-08-06T09:02:54.000Z</time>
      </trkpt>
      <trkpt lat="49.28299" lon="-0.13617">
        <ele>5.605336</ele>
        <time>2022-08-06T09:02:55.000Z</time>
      </trkpt>
      <trkpt lat="49.283" lon="-0.13614">
        <ele>5.610464</ele>
        <time>2022-08-06T09:02:56.000Z</time>
      </trkpt>
      <trkpt lat="49.28301" lon="-0.13611">
        <ele>5.614926</ele>
        <time>2022-08-06T09:02:57.000Z</time>
      </trkpt>
      <trkpt lat="49.28303" lon="-0.13609">
        <ele>5.620113</ele>
        <time>2022-08-06T09:02:58.000Z</time>
      </trkpt>
      <trkpt lat="49.28305" lon="-0.13607">
        <ele>5.624826</ele>
        <time>2022-08-06T09:02:59.000Z</time>
      </trkpt>
      <trkpt lat="49.28307" lon="-0.13606">
        <ele>5.630181</ele>
        <time>2022-08-06T09:03:00.000Z</time>
      </trkpt>
      <trkpt lat="49.28309" lon="-0.13604">
        <ele>5.635233</ele>
        <time>2022-08-06T09:03:01.000Z</time>
      </trkpt>
      <trkpt lat="49.28312" lon="-0.13603">
        <ele>5.641572</ele>
        <time>2022-08-06T09:03:02.000Z</time>
      </trkpt>
      <trkpt lat="49.28314" lon="-0.13603">
        <ele>5.645728</ele>
        <time>2022-08-06T09:03:03.000Z</time>
      </trkpt>
      <trkpt lat="49.28317" lon="-0.13602">
        <ele>5.651384</ele>
        <time>2022-08-06T09:03:04.000Z</time>
      </trkpt>
      <trkpt lat="49.28319" lon="-0.136">
        <ele>5.656662</ele>
        <time>2022-08-06T09:03:05.000Z</time>
      </trkpt>
      <trkpt lat="49.2832" lon="-0.13599">
        <ele>5.660755</ele>
        <time>2022-08-06T09:03:06.000Z</time>
      </trkpt>
      <trkpt lat="49.28322" lon="-0.13595">
        <ele>5.666959</ele>
        <time>2022-08-06T09:03:08.000Z</time>
      </trkpt>
      <trkpt lat="49.28323" lon="-0.13591">
        <ele>5.672343</ele>
        <time>2022-08-06T09:03:10.000Z</time>
      </trkpt>
      <trkpt lat="49.28323" lon="-0.13588">
        <ele>5.677375</ele>
        <time>2022-08-06T09:03:12.000Z</time>
      </trkpt>
      <trkpt lat="49.28323" lon="-0.13584">
        <ele>5.682308</ele>
        <time>2022-08-06T09:03:14.000Z</time>
      </trkpt>
      <trkpt lat="49.28325" lon="-0.13583">
        <ele>5.686479</ele>
        <time>2022-08-06T09:03:17.000Z</time>
      </trkpt>
      <trkpt lat="49.28319" lon="-0.13578">
        <ele>5.700283</ele>
        <time>2022-08-06T09:03:28.000Z</time>
      </trkpt>
      <trkpt lat="49.28317" lon="-0.13583">
        <ele>5.708828</ele>
        <time>2022-08-06T09:03:30.000Z</time>
      </trkpt>
      <trkpt lat="49.28316" lon="-0.13587">
        <ele>5.713944</ele>
        <time>2022-08-06T09:03:31.000Z</time>
      </trkpt>
      <trkpt lat="49.28316" lon="-0.13591">
        <ele>5.720233</ele>
        <time>2022-08-06T09:03:32.000Z</time>
      </trkpt>
      <trkpt lat="49.28316" lon="-0.13596">
        <ele>5.726581</ele>
        <time>2022-08-06T09:03:33.000Z</time>
      </trkpt>
      <trkpt lat="49.28317" lon="-0.136">
        <ele>5.73259</ele>
        <time>2022-08-06T09:03:34.000Z</time>
      </trkpt>
      <trkpt lat="49.28318" lon="-0.13603">
        <ele>5.737623</ele>
        <time>2022-08-06T09:03:35.000Z</time>
      </trkpt>
      <trkpt lat="49.28319" lon="-0.13605">
        <ele>5.741372</ele>
        <time>2022-08-06T09:03:36.000Z</time>
      </trkpt>
      <trkpt lat="49.28322" lon="-0.13608">
        <ele>5.7481</ele>
        <time>2022-08-06T09:03:37.000Z</time>
      </trkpt>
      <trkpt lat="49.28325" lon="-0.13611">
        <ele>5.756363</ele>
        <time>2022-08-06T09:03:39.000Z</time>
      </trkpt>
      <trkpt lat="49.28327" lon="-0.13613">
        <ele>5.761773</ele>
        <time>2022-08-06T09:03:40.000Z</time>
      </trkpt>
      <trkpt lat="49.2833" lon="-0.13615">
        <ele>5.76047</ele>
        <time>2022-08-06T09:03:41.000Z</time>
      </trkpt>
      <trkpt lat="49.28332" lon="-0.13617">
        <ele>5.75569</ele>
        <time>2022-08-06T09:03:42.000Z</time>
      </trkpt>
      <trkpt lat="49.28333" lon="-0.1362">
        <ele>5.751205</ele>
        <time>2022-08-06T09:03:43.000Z</time>
      </trkpt>
      <trkpt lat="49.28333" lon="-0.13624">
        <ele>5.745947</ele>
        <time>2022-08-06T09:03:44.000Z</time>
      </trkpt>
      <trkpt lat="49.28334" lon="-0.13628">
        <ele>5.740296</ele>
        <time>2022-08-06T09:03:45.000Z</time>
      </trkpt>
      <trkpt lat="49.28335" lon="-0.13633">
        <ele>5.733647</ele>
        <time>2022-08-06T09:03:46.000Z</time>
      </trkpt>
      <trkpt lat="49.28335" lon="-0.13637">
        <ele>5.727228</ele>
        <time>2022-08-06T09:03:47.000Z</time>
      </trkpt>
      <trkpt lat="49.28335" lon="-0.13642">
        <ele>5.72097</ele>
        <time>2022-08-06T09:03:48.000Z</time>
      </trkpt>
      <trkpt lat="49.28336" lon="-0.13647">
        <ele>5.714552</ele>
        <time>2022-08-06T09:03:49.000Z</time>
      </trkpt>
      <trkpt lat="49.28335" lon="-0.13651">
        <ele>5.708097</ele>
        <time>2022-08-06T09:03:50.000Z</time>
      </trkpt>
      <trkpt lat="49.28334" lon="-0.13656">
        <ele>5.701576</ele>
        <time>2022-08-06T09:03:51.000Z</time>
      </trkpt>
      <trkpt lat="49.28332" lon="-0.1366">
        <ele>5.694866</ele>
        <time>2022-08-06T09:03:52.000Z</time>
      </trkpt>
      <trkpt lat="49.2833" lon="-0.13664">
        <ele>5.688395</ele>
        <time>2022-08-06T09:03:53.000Z</time>
      </trkpt>
      <trkpt lat="49.28327" lon="-0.13667">
        <ele>5.68159</ele>
        <time>2022-08-06T09:03:54.000Z</time>
      </trkpt>
      <trkpt lat="49.28325" lon="-0.13669">
        <ele>5.675424</ele>
        <time>2022-08-06T09:03:55.000Z</time>
      </trkpt>
      <trkpt lat="49.28322" lon="-0.13673">
        <ele>5.668903</ele>
        <time>2022-08-06T09:03:56.000Z</time>
      </trkpt>
      <trkpt lat="49.28321" lon="-0.13676">
        <ele>5.663213</ele>
        <time>2022-08-06T09:03:57.000Z</time>
      </trkpt>
      <trkpt lat="49.28319" lon="-0.1368">
        <ele>5.656853</ele>
        <time>2022-08-06T09:03:58.000Z</time>
      </trkpt>
      <trkpt lat="49.28318" lon="-0.13685">
        <ele>5.650713</ele>
        <time>2022-08-06T09:03:59.000Z</time>
      </trkpt>
      <trkpt lat="49.28317" lon="-0.13689">
        <ele>5.64389</ele>
        <time>2022-08-06T09:04:00.000Z</time>
      </trkpt>
      <trkpt lat="49.28315" lon="-0.13694">
        <ele>5.636714</ele>
        <time>2022-08-06T09:04:01.000Z</time>
      </trkpt>
      <trkpt lat="49.28314" lon="-0.13699">
        <ele>5.630132</ele>
        <time>2022-08-06T09:04:02.000Z</time>
      </trkpt>
      <trkpt lat="49.28312" lon="-0.13703">
        <ele>5.623192</ele>
        <time>2022-08-06T09:04:03.000Z</time>
      </trkpt>
      <trkpt lat="49.28311" lon="-0.13708">
        <ele>5.61664</ele>
        <time>2022-08-06T09:04:04.000Z</time>
      </trkpt>
      <trkpt lat="49.2831" lon="-0.13713">
        <ele>5.609862</ele>
        <time>2022-08-06T09:04:05.000Z</time>
      </trkpt>
      <trkpt lat="49.28309" lon="-0.13717">
        <ele>5.603188</ele>
        <time>2022-08-06T09:04:06.000Z</time>
      </trkpt>
      <trkpt lat="49.28308" lon="-0.13722">
        <ele>5.596226</ele>
        <time>2022-08-06T09:04:07.000Z</time>
      </trkpt>
      <trkpt lat="49.28306" lon="-0.13728">
        <ele>5.588571</ele>
        <time>2022-08-06T09:04:08.000Z</time>
      </trkpt>
      <trkpt lat="49.28305" lon="-0.13733">
        <ele>5.581666</ele>
        <time>2022-08-06T09:04:09.000Z</time>
      </trkpt>
      <trkpt lat="49.28304" lon="-0.13737">
        <ele>5.574869</ele>
        <time>2022-08-06T09:04:10.000Z</time>
      </trkpt>
      <trkpt lat="49.28302" lon="-0.13742">
        <ele>5.567929</ele>
        <time>2022-08-06T09:04:11.000Z</time>
      </trkpt>
      <trkpt lat="49.28301" lon="-0.13747">
        <ele>5.560886</ele>
        <time>2022-08-06T09:04:12.000Z</time>
      </trkpt>
      <trkpt lat="49.283" lon="-0.13751">
        <ele>5.554492</ele>
        <time>2022-08-06T09:04:13.000Z</time>
      </trkpt>
      <trkpt lat="49.28299" lon="-0.13756">
        <ele>5.547786</ele>
        <time>2022-08-06T09:04:14.000Z</time>
      </trkpt>
      <trkpt lat="49.28297" lon="-0.1376">
        <ele>5.541476</ele>
        <time>2022-08-06T09:04:15.000Z</time>
      </trkpt>
      <trkpt lat="49.28296" lon="-0.13764">
        <ele>5.535166</ele>
        <time>2022-08-06T09:04:16.000Z</time>
      </trkpt>
      <trkpt lat="49.28294" lon="-0.13769">
        <ele>5.527871</ele>
        <time>2022-08-06T09:04:17.000Z</time>
      </trkpt>
      <trkpt lat="49.28293" lon="-0.13774">
        <ele>5.521048</ele>
        <time>2022-08-06T09:04:18.000Z</time>
      </trkpt>
      <trkpt lat="49.28291" lon="-0.13779">
        <ele>5.513634</ele>
        <time>2022-08-06T09:04:19.000Z</time>
      </trkpt>
      <trkpt lat="49.28289" lon="-0.13784">
        <ele>5.506159</ele>
        <time>2022-08-06T09:04:20.000Z</time>
      </trkpt>
      <trkpt lat="49.28287" lon="-0.13788">
        <ele>5.498684</ele>
        <time>2022-08-06T09:04:21.000Z</time>
      </trkpt>
      <trkpt lat="49.28286" lon="-0.13793">
        <ele>5.491641</ele>
        <time>2022-08-06T09:04:22.000Z</time>
      </trkpt>
      <trkpt lat="49.28285" lon="-0.13798">
        <ele>5.484701</ele>
        <time>2022-08-06T09:04:23.000Z</time>
      </trkpt>
      <trkpt lat="49.28283" lon="-0.13803">
        <ele>5.477112</ele>
        <time>2022-08-06T09:04:24.000Z</time>
      </trkpt>
      <trkpt lat="49.28281" lon="-0.13808">
        <ele>5.469935</ele>
        <time>2022-08-06T09:04:25.000Z</time>
      </trkpt>
      <trkpt lat="49.28279" lon="-0.13812">
        <ele>5.462352</ele>
        <time>2022-08-06T09:04:26.000Z</time>
      </trkpt>
      <trkpt lat="49.28277" lon="-0.13817">
        <ele>5.454938</ele>
        <time>2022-08-06T09:04:27.000Z</time>
      </trkpt>
      <trkpt lat="49.28277" lon="-0.13822">
        <ele>5.448823</ele>
        <time>2022-08-06T09:04:28.000Z</time>
      </trkpt>
      <trkpt lat="49.28276" lon="-0.13826">
        <ele>5.442708</ele>
        <time>2022-08-06T09:04:29.000Z</time>
      </trkpt>
      <trkpt lat="49.28276" lon="-0.13831">
        <ele>5.436451</ele>
        <time>2022-08-06T09:04:30.000Z</time>
      </trkpt>
      <trkpt lat="49.28277" lon="-0.13836">
        <ele>5.429944</ele>
        <time>2022-08-06T09:04:31.000Z</time>
      </trkpt>
      <trkpt lat="49.28279" lon="-0.1384">
        <ele>5.423463</ele>
        <time>2022-08-06T09:04:32.000Z</time>
      </trkpt>
      <trkpt lat="49.28281" lon="-0.13843">
        <ele>5.4173</ele>
        <time>2022-08-06T09:04:33.000Z</time>
      </trkpt>
      <trkpt lat="49.28285" lon="-0.13845">
        <ele>5.409419</ele>
        <time>2022-08-06T09:04:34.000Z</time>
      </trkpt>
      <trkpt lat="49.28288" lon="-0.13848">
        <ele>5.401362</ele>
        <time>2022-08-06T09:04:35.000Z</time>
      </trkpt>
      <trkpt lat="49.28291" lon="-0.13851">
        <ele>5.396342</ele>
        <time>2022-08-06T09:04:36.000Z</time>
      </trkpt>
      <trkpt lat="49.28295" lon="-0.13854">
        <ele>5.394714</ele>
        <time>2022-08-06T09:04:37.000Z</time>
      </trkpt>
      <trkpt lat="49.28299" lon="-0.13857">
        <ele>5.392982</ele>
        <time>2022-08-06T09:04:38.000Z</time>
      </trkpt>
      <trkpt lat="49.28303" lon="-0.13861">
        <ele>5.391206</ele>
        <time>2022-08-06T09:04:39.000Z</time>
      </trkpt>
      <trkpt lat="49.28307" lon="-0.13864">
        <ele>5.389349</ele>
        <time>2022-08-06T09:04:40.000Z</time>
      </trkpt>
      <trkpt lat="49.28312" lon="-0.13868">
        <ele>5.387311</ele>
        <time>2022-08-06T09:04:41.000Z</time>
      </trkpt>
      <trkpt lat="49.28316" lon="-0.13871">
        <ele>5.385501</ele>
        <time>2022-08-06T09:04:42.000Z</time>
      </trkpt>
      <trkpt lat="49.28321" lon="-0.13875">
        <ele>5.383577</ele>
        <time>2022-08-06T09:04:43.000Z</time>
      </trkpt>
      <trkpt lat="49.28325" lon="-0.13878">
        <ele>5.381789</ele>
        <time>2022-08-06T09:04:44.000Z</time>
      </trkpt>
      <trkpt lat="49.28329" lon="-0.13881">
        <ele>5.380162</ele>
        <time>2022-08-06T09:04:45.000Z</time>
      </trkpt>
      <trkpt lat="49.28333" lon="-0.13884">
        <ele>5.378489</ele>
        <time>2022-08-06T09:04:46.000Z</time>
      </trkpt>
      <trkpt lat="49.28337" lon="-0.13887">
        <ele>5.376689</ele>
        <time>2022-08-06T09:04:47.000Z</time>
      </trkpt>
      <trkpt lat="49.28341" lon="-0.1389">
        <ele>5.374702</ele>
        <time>2022-08-06T09:04:48.000Z</time>
      </trkpt>
      <trkpt lat="49.28346" lon="-0.13893">
        <ele>5.372915</ele>
        <time>2022-08-06T09:04:49.000Z</time>
      </trkpt>
      <trkpt lat="49.2835" lon="-0.13896">
        <ele>5.371187</ele>
        <time>2022-08-06T09:04:50.000Z</time>
      </trkpt>
      <trkpt lat="49.28354" lon="-0.13898">
        <ele>5.369611</ele>
        <time>2022-08-06T09:04:51.000Z</time>
      </trkpt>
      <trkpt lat="49.28358" lon="-0.13901">
        <ele>5.367767</ele>
        <time>2022-08-06T09:04:52.000Z</time>
      </trkpt>
      <trkpt lat="49.28363" lon="-0.13904">
        <ele>5.365844</ele>
        <time>2022-08-06T09:04:53.000Z</time>
      </trkpt>
      <trkpt lat="49.28367" lon="-0.13908">
        <ele>5.364068</ele>
        <time>2022-08-06T09:04:54.000Z</time>
      </trkpt>
      <trkpt lat="49.28372" lon="-0.13911">
        <ele>5.362081</ele>
        <time>2022-08-06T09:04:55.000Z</time>
      </trkpt>
      <trkpt lat="49.28376" lon="-0.13914">
        <ele>5.360179</ele>
        <time>2022-08-06T09:04:56.000Z</time>
      </trkpt>
      <trkpt lat="49.2838" lon="-0.13917">
        <ele>5.358402</ele>
        <time>2022-08-06T09:04:57.000Z</time>
      </trkpt>
      <trkpt lat="49.28385" lon="-0.1392">
        <ele>5.356576</ele>
        <time>2022-08-06T09:04:58.000Z</time>
      </trkpt>
      <trkpt lat="49.28389" lon="-0.13923">
        <ele>5.354558</ele>
        <time>2022-08-06T09:04:59.000Z</time>
      </trkpt>
      <trkpt lat="49.28394" lon="-0.13926">
        <ele>5.352635</ele>
        <time>2022-08-06T09:05:00.000Z</time>
      </trkpt>
      <trkpt lat="49.28398" lon="-0.1393">
        <ele>5.3507</ele>
        <time>2022-08-06T09:05:01.000Z</time>
      </trkpt>
      <trkpt lat="49.28403" lon="-0.13933">
        <ele>5.348662</ele>
        <time>2022-08-06T09:05:02.000Z</time>
      </trkpt>
      <trkpt lat="49.28407" lon="-0.13936">
        <ele>5.346885</ele>
        <time>2022-08-06T09:05:03.000Z</time>
      </trkpt>
      <trkpt lat="49.28412" lon="-0.13939">
        <ele>5.345144</ele>
        <time>2022-08-06T09:05:04.000Z</time>
      </trkpt>
      <trkpt lat="49.28416" lon="-0.13942">
        <ele>5.343416</ele>
        <time>2022-08-06T09:05:05.000Z</time>
      </trkpt>
      <trkpt lat="49.2842" lon="-0.13944">
        <ele>5.341759</ele>
        <time>2022-08-06T09:05:06.000Z</time>
      </trkpt>
      <trkpt lat="49.28424" lon="-0.13946">
        <ele>5.340204</ele>
        <time>2022-08-06T09:05:07.000Z</time>
      </trkpt>
      <trkpt lat="49.28428" lon="-0.13947">
        <ele>5.338699</ele>
        <time>2022-08-06T09:05:08.000Z</time>
      </trkpt>
      <trkpt lat="49.2843" lon="-0.13948">
        <ele>5.337672</ele>
        <time>2022-08-06T09:05:09.000Z</time>
      </trkpt>
      <trkpt lat="49.28433" lon="-0.13949">
        <ele>5.336432</ele>
        <time>2022-08-06T09:05:10.000Z</time>
      </trkpt>
      <trkpt lat="49.28436" lon="-0.13948">
        <ele>5.335583</ele>
        <time>2022-08-06T09:05:11.000Z</time>
      </trkpt>
      <trkpt lat="49.28437" lon="-0.13948">
        <ele>5.334854</ele>
        <time>2022-08-06T09:05:12.000Z</time>
      </trkpt>
      <trkpt lat="49.2844" lon="-0.13949">
        <ele>5.333971</ele>
        <time>2022-08-06T09:05:13.000Z</time>
      </trkpt>
      <trkpt lat="49.28442" lon="-0.13949">
        <ele>5.333012</ele>
        <time>2022-08-06T09:05:14.000Z</time>
      </trkpt>
      <trkpt lat="49.28445" lon="-0.13949">
        <ele>5.331887</ele>
        <time>2022-08-06T09:05:15.000Z</time>
      </trkpt>
      <trkpt lat="49.28448" lon="-0.1395">
        <ele>5.330768</ele>
        <time>2022-08-06T09:05:16.000Z</time>
      </trkpt>
      <trkpt lat="49.28452" lon="-0.1395">
        <ele>5.32942</ele>
        <time>2022-08-06T09:05:17.000Z</time>
      </trkpt>
      <trkpt lat="49.28455" lon="-0.13951">
        <ele>5.328187</ele>
        <time>2022-08-06T09:05:18.000Z</time>
      </trkpt>
      <trkpt lat="49.28458" lon="-0.13951">
        <ele>5.323723</ele>
        <time>2022-08-06T09:05:19.000Z</time>
      </trkpt>
      <trkpt lat="49.28461" lon="-0.13951">
        <ele>5.316724</ele>
        <time>2022-08-06T09:05:20.000Z</time>
      </trkpt>
      <trkpt lat="49.28465" lon="-0.13951">
        <ele>5.310825</ele>
        <time>2022-08-06T09:05:21.000Z</time>
      </trkpt>
      <trkpt lat="49.28468" lon="-0.13951">
        <ele>5.304932</ele>
        <time>2022-08-06T09:05:22.000Z</time>
      </trkpt>
      <trkpt lat="49.28471" lon="-0.13951">
        <ele>5.299038</ele>
        <time>2022-08-06T09:05:23.000Z</time>
      </trkpt>
      <trkpt lat="49.28475" lon="-0.13951">
        <ele>5.292408</ele>
        <time>2022-08-06T09:05:24.000Z</time>
      </trkpt>
      <trkpt lat="49.28478" lon="-0.1395">
        <ele>5.28651</ele>
        <time>2022-08-06T09:05:25.000Z</time>
      </trkpt>
      <trkpt lat="49.28481" lon="-0.1395">
        <ele>5.280063</ele>
        <time>2022-08-06T09:05:26.000Z</time>
      </trkpt>
      <trkpt lat="49.28485" lon="-0.1395">
        <ele>5.274165</ele>
        <time>2022-08-06T09:05:27.000Z</time>
      </trkpt>
      <trkpt lat="49.28488" lon="-0.1395">
        <ele>5.268266</ele>
        <time>2022-08-06T09:05:28.000Z</time>
      </trkpt>
      <trkpt lat="49.28491" lon="-0.1395">
        <ele>5.26181</ele>
        <time>2022-08-06T09:05:29.000Z</time>
      </trkpt>
      <trkpt lat="49.28495" lon="-0.13949">
        <ele>5.25536</ele>
        <time>2022-08-06T09:05:30.000Z</time>
      </trkpt>
      <trkpt lat="49.28498" lon="-0.13949">
        <ele>5.249467</ele>
        <time>2022-08-06T09:05:31.000Z</time>
      </trkpt>
      <trkpt lat="49.28502" lon="-0.13949">
        <ele>5.242284</ele>
        <time>2022-08-06T09:05:32.000Z</time>
      </trkpt>
      <trkpt lat="49.28505" lon="-0.13949">
        <ele>5.235828</ele>
        <time>2022-08-06T09:05:33.000Z</time>
      </trkpt>
      <trkpt lat="49.28509" lon="-0.13949">
        <ele>5.228277</ele>
        <time>2022-08-06T09:05:34.000Z</time>
      </trkpt>
      <trkpt lat="49.28513" lon="-0.13949">
        <ele>5.221643</ele>
        <time>2022-08-06T09:05:35.000Z</time>
      </trkpt>
      <trkpt lat="49.28517" lon="-0.13949">
        <ele>5.214091</ele>
        <time>2022-08-06T09:05:36.000Z</time>
      </trkpt>
      <trkpt lat="49.28521" lon="-0.13949">
        <ele>5.207645</ele>
        <time>2022-08-06T09:05:37.000Z</time>
      </trkpt>
      <trkpt lat="49.28524" lon="-0.13948">
        <ele>5.200997</ele>
        <time>2022-08-06T09:05:38.000Z</time>
      </trkpt>
      <trkpt lat="49.28527" lon="-0.13948">
        <ele>5.195104</ele>
        <time>2022-08-06T09:05:39.000Z</time>
      </trkpt>
      <trkpt lat="49.28531" lon="-0.13948">
        <ele>5.189209</ele>
        <time>2022-08-06T09:05:40.000Z</time>
      </trkpt>
      <trkpt lat="49.28533" lon="-0.13948">
        <ele>5.185129</ele>
        <time>2022-08-06T09:05:41.000Z</time>
      </trkpt>
      <trkpt lat="49.28535" lon="-0.13948">
        <ele>5.181061</ele>
        <time>2022-08-06T09:05:45.000Z</time>
      </trkpt>
      <trkpt lat="49.28549" lon="-0.13946">
        <ele>5.156083</ele>
        <time>2022-08-06T09:06:07.000Z</time>
      </trkpt>
      <trkpt lat="49.2855" lon="-0.13946">
        <ele>5.152575</ele>
        <time>2022-08-06T09:06:08.000Z</time>
      </trkpt>
      <trkpt lat="49.28553" lon="-0.13946">
        <ele>5.147785</ele>
        <time>2022-08-06T09:06:09.000Z</time>
      </trkpt>
      <trkpt lat="49.28555" lon="-0.13947">
        <ele>5.143485</ele>
        <time>2022-08-06T09:06:10.000Z</time>
      </trkpt>
      <trkpt lat="49.28557" lon="-0.13949">
        <ele>5.13905</ele>
        <time>2022-08-06T09:06:11.000Z</time>
      </trkpt>
      <trkpt lat="49.28559" lon="-0.13951">
        <ele>5.134298</ele>
        <time>2022-08-06T09:06:12.000Z</time>
      </trkpt>
      <trkpt lat="49.28561" lon="-0.13953">
        <ele>5.129913</ele>
        <time>2022-08-06T09:06:13.000Z</time>
      </trkpt>
      <trkpt lat="49.28564" lon="-0.13954">
        <ele>5.125122</ele>
        <time>2022-08-06T09:06:14.000Z</time>
      </trkpt>
      <trkpt lat="49.28566" lon="-0.13954">
        <ele>5.120334</ele>
        <time>2022-08-06T09:06:15.000Z</time>
      </trkpt>
      <trkpt lat="49.28569" lon="-0.13954">
        <ele>5.114981</ele>
        <time>2022-08-06T09:06:16.000Z</time>
      </trkpt>
      <trkpt lat="49.28573" lon="-0.13953">
        <ele>5.109028</ele>
        <time>2022-08-06T09:06:17.000Z</time>
      </trkpt>
      <trkpt lat="49.28575" lon="-0.13953">
        <ele>5.103675</ele>
        <time>2022-08-06T09:06:18.000Z</time>
      </trkpt>
      <trkpt lat="49.28579" lon="-0.13953">
        <ele>5.097777</ele>
        <time>2022-08-06T09:06:19.000Z</time>
      </trkpt>
      <trkpt lat="49.28581" lon="-0.13953">
        <ele>5.093171</ele>
        <time>2022-08-06T09:06:20.000Z</time>
      </trkpt>
      <trkpt lat="49.28585" lon="-0.13953">
        <ele>5.086724</ele>
        <time>2022-08-06T09:06:21.000Z</time>
      </trkpt>
      <trkpt lat="49.28589" lon="-0.13953">
        <ele>5.079525</ele>
        <time>2022-08-06T09:06:22.000Z</time>
      </trkpt>
      <trkpt lat="49.28592" lon="-0.13953">
        <ele>5.073061</ele>
        <time>2022-08-06T09:06:23.000Z</time>
      </trkpt>
      <trkpt lat="49.28595" lon="-0.13953">
        <ele>5.067157</ele>
        <time>2022-08-06T09:06:24.000Z</time>
      </trkpt>
      <trkpt lat="49.28598" lon="-0.13952">
        <ele>5.061233</ele>
        <time>2022-08-06T09:06:25.000Z</time>
      </trkpt>
      <trkpt lat="49.28602" lon="-0.13951">
        <ele>5.054716</ele>
        <time>2022-08-06T09:06:26.000Z</time>
      </trkpt>
      <trkpt lat="49.28605" lon="-0.13951">
        <ele>5.048792</ele>
        <time>2022-08-06T09:06:27.000Z</time>
      </trkpt>
      <trkpt lat="49.28609" lon="-0.1395">
        <ele>5.042328</ele>
        <time>2022-08-06T09:06:28.000Z</time>
      </trkpt>
      <trkpt lat="49.28613" lon="-0.1395">
        <ele>5.035144</ele>
        <time>2022-08-06T09:06:29.000Z</time>
      </trkpt>
      <trkpt lat="49.28616" lon="-0.1395">
        <ele>5.02922</ele>
        <time>2022-08-06T09:06:30.000Z</time>
      </trkpt>
      <trkpt lat="49.28619" lon="-0.1395">
        <ele>5.023322</ele>
        <time>2022-08-06T09:06:31.000Z</time>
      </trkpt>
      <trkpt lat="49.28623" lon="-0.13949">
        <ele>5.016314</ele>
        <time>2022-08-06T09:06:32.000Z</time>
      </trkpt>
      <trkpt lat="49.28627" lon="-0.13949">
        <ele>5.009128</ele>
        <time>2022-08-06T09:06:33.000Z</time>
      </trkpt>
      <trkpt lat="49.28631" lon="-0.13949">
        <ele>5.001568</ele>
        <time>2022-08-06T09:06:34.000Z</time>
      </trkpt>
      <trkpt lat="49.28635" lon="-0.1395">
        <ele>5.007662</ele>
        <time>2022-08-06T09:06:35.000Z</time>
      </trkpt>
      <trkpt lat="49.28639" lon="-0.13949">
        <ele>5.039315</ele>
        <time>2022-08-06T09:06:36.000Z</time>
      </trkpt>
      <trkpt lat="49.28644" lon="-0.13949">
        <ele>5.068272</ele>
        <time>2022-08-06T09:06:37.000Z</time>
      </trkpt>
      <trkpt lat="49.28648" lon="-0.13949">
        <ele>5.099941</ele>
        <time>2022-08-06T09:06:38.000Z</time>
      </trkpt>
      <trkpt lat="49.28652" lon="-0.13949">
        <ele>5.129484</ele>
        <time>2022-08-06T09:06:39.000Z</time>
      </trkpt>
      <trkpt lat="49.28656" lon="-0.13949">
        <ele>5.158311</ele>
        <time>2022-08-06T09:06:40.000Z</time>
      </trkpt>
      <trkpt lat="49.2866" lon="-0.13949">
        <ele>5.182987</ele>
        <time>2022-08-06T09:06:41.000Z</time>
      </trkpt>
      <trkpt lat="49.28665" lon="-0.13949">
        <ele>5.221668</ele>
        <time>2022-08-06T09:06:42.000Z</time>
      </trkpt>
      <trkpt lat="49.28669" lon="-0.13948">
        <ele>5.250672</ele>
        <time>2022-08-06T09:06:43.000Z</time>
      </trkpt>
      <trkpt lat="49.28674" lon="-0.13948">
        <ele>5.280291</ele>
        <time>2022-08-06T09:06:44.000Z</time>
      </trkpt>
      <trkpt lat="49.28678" lon="-0.13948">
        <ele>5.309824</ele>
        <time>2022-08-06T09:06:45.000Z</time>
      </trkpt>
      <trkpt lat="49.28682" lon="-0.13947">
        <ele>5.336604</ele>
        <time>2022-08-06T09:06:46.000Z</time>
      </trkpt>
      <trkpt lat="49.28685" lon="-0.13947">
        <ele>5.363419</ele>
        <time>2022-08-06T09:06:47.000Z</time>
      </trkpt>
      <trkpt lat="49.28689" lon="-0.13947">
        <ele>5.390843</ele>
        <time>2022-08-06T09:06:48.000Z</time>
      </trkpt>
      <trkpt lat="49.28693" lon="-0.13947">
        <ele>5.417596</ele>
        <time>2022-08-06T09:06:49.000Z</time>
      </trkpt>
      <trkpt lat="49.28696" lon="-0.13948">
        <ele>5.438114</ele>
        <time>2022-08-06T09:06:50.000Z</time>
      </trkpt>
      <trkpt lat="49.28699" lon="-0.13948">
        <ele>5.458524</ele>
        <time>2022-08-06T09:06:51.000Z</time>
      </trkpt>
      <trkpt lat="49.28702" lon="-0.13948">
        <ele>5.478919</ele>
        <time>2022-08-06T09:06:52.000Z</time>
      </trkpt>
      <trkpt lat="49.28705" lon="-0.13948">
        <ele>5.501422</ele>
        <time>2022-08-06T09:06:53.000Z</time>
      </trkpt>
      <trkpt lat="49.28708" lon="-0.13948">
        <ele>5.519023</ele>
        <time>2022-08-06T09:06:54.000Z</time>
      </trkpt>
      <trkpt lat="49.2871" lon="-0.13947">
        <ele>5.539433</ele>
        <time>2022-08-06T09:06:55.000Z</time>
      </trkpt>
      <trkpt lat="49.28714" lon="-0.13947">
        <ele>5.564045</ele>
        <time>2022-08-06T09:06:56.000Z</time>
      </trkpt>
      <trkpt lat="49.28718" lon="-0.13947">
        <ele>5.591527</ele>
        <time>2022-08-06T09:06:57.000Z</time>
      </trkpt>
      <trkpt lat="49.28722" lon="-0.13947">
        <ele>5.618244</ele>
        <time>2022-08-06T09:06:58.000Z</time>
      </trkpt>
      <trkpt lat="49.28725" lon="-0.13947">
        <ele>5.642891</ele>
        <time>2022-08-06T09:06:59.000Z</time>
      </trkpt>
      <trkpt lat="49.28729" lon="-0.13947">
        <ele>5.670311</ele>
        <time>2022-08-06T09:07:00.000Z</time>
      </trkpt>
      <trkpt lat="49.28733" lon="-0.13946">
        <ele>5.697044</ele>
        <time>2022-08-06T09:07:01.000Z</time>
      </trkpt>
      <trkpt lat="49.28737" lon="-0.13946">
        <ele>5.723765</ele>
        <time>2022-08-06T09:07:02.000Z</time>
      </trkpt>
      <trkpt lat="49.2874" lon="-0.13946">
        <ele>5.749142</ele>
        <time>2022-08-06T09:07:03.000Z</time>
      </trkpt>
      <trkpt lat="49.28745" lon="-0.13946">
        <ele>5.780078</ele>
        <time>2022-08-06T09:07:04.000Z</time>
      </trkpt>
      <trkpt lat="49.28749" lon="-0.13946">
        <ele>5.807502</ele>
        <time>2022-08-06T09:07:05.000Z</time>
      </trkpt>
      <trkpt lat="49.28752" lon="-0.13946">
        <ele>5.830001</ele>
        <time>2022-08-06T09:07:06.000Z</time>
      </trkpt>
      <trkpt lat="49.28756" lon="-0.13946">
        <ele>5.856718</ele>
        <time>2022-08-06T09:07:07.000Z</time>
      </trkpt>
      <trkpt lat="49.2876" lon="-0.13946">
        <ele>5.886251</ele>
        <time>2022-08-06T09:07:08.000Z</time>
      </trkpt>
      <trkpt lat="49.28764" lon="-0.13946">
        <ele>5.913004</ele>
        <time>2022-08-06T09:07:09.000Z</time>
      </trkpt>
      <trkpt lat="49.28767" lon="-0.13945">
        <ele>5.940439</ele>
        <time>2022-08-06T09:07:10.000Z</time>
      </trkpt>
      <trkpt lat="49.28771" lon="-0.13945">
        <ele>5.965047</ele>
        <time>2022-08-06T09:07:11.000Z</time>
      </trkpt>
      <trkpt lat="49.28775" lon="-0.13945">
        <ele>5.991768</ele>
        <time>2022-08-06T09:07:12.000Z</time>
      </trkpt>
      <trkpt lat="49.28779" lon="-0.13945">
        <ele>6.021312</ele>
        <time>2022-08-06T09:07:13.000Z</time>
      </trkpt>
      <trkpt lat="49.28783" lon="-0.13945">
        <ele>6.05023</ele>
        <time>2022-08-06T09:07:14.000Z</time>
      </trkpt>
      <trkpt lat="49.28787" lon="-0.13944">
        <ele>6.077665</ele>
        <time>2022-08-06T09:07:15.000Z</time>
      </trkpt>
      <trkpt lat="49.28791" lon="-0.13944">
        <ele>6.104418</ele>
        <time>2022-08-06T09:07:16.000Z</time>
      </trkpt>
      <trkpt lat="49.28795" lon="-0.13944">
        <ele>6.131854</ele>
        <time>2022-08-06T09:07:17.000Z</time>
      </trkpt>
      <trkpt lat="49.28798" lon="-0.13944">
        <ele>6.158575</ele>
        <time>2022-08-06T09:07:18.000Z</time>
      </trkpt>
      <trkpt lat="49.28803" lon="-0.13944">
        <ele>6.188193</ele>
        <time>2022-08-06T09:07:19.000Z</time>
      </trkpt>
      <trkpt lat="49.28807" lon="-0.13945">
        <ele>6.217052</ele>
        <time>2022-08-06T09:07:20.000Z</time>
      </trkpt>
      <trkpt lat="49.28809" lon="-0.13944">
        <ele>6.235476</ele>
        <time>2022-08-06T09:07:21.000Z</time>
      </trkpt>
      <trkpt lat="49.28813" lon="-0.13944">
        <ele>6.26019</ele>
        <time>2022-08-06T09:07:22.000Z</time>
      </trkpt>
      <trkpt lat="49.28816" lon="-0.13943">
        <ele>6.293261</ele>
        <time>2022-08-06T09:07:23.000Z</time>
      </trkpt>
      <trkpt lat="49.28819" lon="-0.13943">
        <ele>6.326532</ele>
        <time>2022-08-06T09:07:24.000Z</time>
      </trkpt>
      <trkpt lat="49.28822" lon="-0.13943">
        <ele>6.359795</ele>
        <time>2022-08-06T09:07:25.000Z</time>
      </trkpt>
      <trkpt lat="49.28825" lon="-0.13942">
        <ele>6.387034</ele>
        <time>2022-08-06T09:07:26.000Z</time>
      </trkpt>
      <trkpt lat="49.28827" lon="-0.13942">
        <ele>6.409903</ele>
        <time>2022-08-06T09:07:27.000Z</time>
      </trkpt>
      <trkpt lat="49.28829" lon="-0.13943">
        <ele>6.432862</ele>
        <time>2022-08-06T09:07:28.000Z</time>
      </trkpt>
      <trkpt lat="49.28833" lon="-0.13942">
        <ele>6.466188</ele>
        <time>2022-08-06T09:07:29.000Z</time>
      </trkpt>
      <trkpt lat="49.28836" lon="-0.13942">
        <ele>6.496523</ele>
        <time>2022-08-06T09:07:30.000Z</time>
      </trkpt>
      <trkpt lat="49.28838" lon="-0.13941">
        <ele>6.527422</ele>
        <time>2022-08-06T09:07:31.000Z</time>
      </trkpt>
      <trkpt lat="49.28841" lon="-0.1394">
        <ele>6.554862</ele>
        <time>2022-08-06T09:07:32.000Z</time>
      </trkpt>
      <trkpt lat="49.28844" lon="-0.1394">
        <ele>6.583999</ele>
        <time>2022-08-06T09:07:33.000Z</time>
      </trkpt>
      <trkpt lat="49.28846" lon="-0.1394">
        <ele>6.611162</ele>
        <time>2022-08-06T09:07:34.000Z</time>
      </trkpt>
      <trkpt lat="49.28849" lon="-0.1394">
        <ele>6.641307</ele>
        <time>2022-08-06T09:07:35.000Z</time>
      </trkpt>
      <trkpt lat="49.28853" lon="-0.1394">
        <ele>6.674571</ele>
        <time>2022-08-06T09:07:36.000Z</time>
      </trkpt>
      <trkpt lat="49.28855" lon="-0.1394">
        <ele>6.704838</ele>
        <time>2022-08-06T09:07:37.000Z</time>
      </trkpt>
      <trkpt lat="49.28858" lon="-0.1394">
        <ele>6.734015</ele>
        <time>2022-08-06T09:07:38.000Z</time>
      </trkpt>
      <trkpt lat="49.28861" lon="-0.13939">
        <ele>6.761076</ele>
        <time>2022-08-06T09:07:39.000Z</time>
      </trkpt>
      <trkpt lat="49.28864" lon="-0.13939">
        <ele>6.794346</ele>
        <time>2022-08-06T09:07:40.000Z</time>
      </trkpt>
      <trkpt lat="49.28867" lon="-0.13939">
        <ele>6.824491</ele>
        <time>2022-08-06T09:07:41.000Z</time>
      </trkpt>
      <trkpt lat="49.2887" lon="-0.13939">
        <ele>6.854637</ele>
        <time>2022-08-06T09:07:42.000Z</time>
      </trkpt>
      <trkpt lat="49.28873" lon="-0.13939">
        <ele>6.883743</ele>
        <time>2022-08-06T09:07:43.000Z</time>
      </trkpt>
      <trkpt lat="49.28875" lon="-0.13939">
        <ele>6.910981</ele>
        <time>2022-08-06T09:07:44.000Z</time>
      </trkpt>
      <trkpt lat="49.28878" lon="-0.13938">
        <ele>6.941248</ele>
        <time>2022-08-06T09:07:45.000Z</time>
      </trkpt>
      <trkpt lat="49.28881" lon="-0.13938">
        <ele>6.971394</ele>
        <time>2022-08-06T09:07:46.000Z</time>
      </trkpt>
      <trkpt lat="49.28884" lon="-0.13938">
        <ele>7.000499</ele>
        <time>2022-08-06T09:07:47.000Z</time>
      </trkpt>
      <trkpt lat="49.28886" lon="-0.13938">
        <ele>7.027535</ele>
        <time>2022-08-06T09:07:48.000Z</time>
      </trkpt>
      <trkpt lat="49.2889" lon="-0.13938">
        <ele>7.060798</ele>
        <time>2022-08-06T09:07:49.000Z</time>
      </trkpt>
      <trkpt lat="49.28892" lon="-0.13938">
        <ele>7.087825</ele>
        <time>2022-08-06T09:07:50.000Z</time>
      </trkpt>
      <trkpt lat="49.28895" lon="-0.13938">
        <ele>7.113954</ele>
        <time>2022-08-06T09:07:51.000Z</time>
      </trkpt>
      <trkpt lat="49.28898" lon="-0.13938">
        <ele>7.144099</ele>
        <time>2022-08-06T09:07:52.000Z</time>
      </trkpt>
      <trkpt lat="49.289" lon="-0.13938">
        <ele>7.166978</ele>
        <time>2022-08-06T09:07:53.000Z</time>
      </trkpt>
      <trkpt lat="49.28902" lon="-0.13938">
        <ele>7.187768</ele>
        <time>2022-08-06T09:07:54.000Z</time>
      </trkpt>
      <trkpt lat="49.28906" lon="-0.13938">
        <ele>7.227292</ele>
        <time>2022-08-06T09:07:56.000Z</time>
      </trkpt>
      <trkpt lat="49.28909" lon="-0.13938">
        <ele>7.266792</ele>
        <time>2022-08-06T09:07:58.000Z</time>
      </trkpt>
      <trkpt lat="49.28911" lon="-0.13938">
        <ele>7.287582</ele>
        <time>2022-08-06T09:07:59.000Z</time>
      </trkpt>
      <trkpt lat="49.28914" lon="-0.13937">
        <ele>7.310491</ele>
        <time>2022-08-06T09:08:00.000Z</time>
      </trkpt>
      <trkpt lat="49.28916" lon="-0.13937">
        <ele>7.330253</ele>
        <time>2022-08-06T09:08:01.000Z</time>
      </trkpt>
      <trkpt lat="49.28917" lon="-0.13938">
        <ele>7.350108</ele>
        <time>2022-08-06T09:08:02.000Z</time>
      </trkpt>
      <trkpt lat="49.28919" lon="-0.13938">
        <ele>7.370942</ele>
        <time>2022-08-06T09:08:03.000Z</time>
      </trkpt>
      <trkpt lat="49.28922" lon="-0.13938">
        <ele>7.393901</ele>
        <time>2022-08-06T09:08:04.000Z</time>
      </trkpt>
      <trkpt lat="49.28924" lon="-0.13938">
        <ele>7.41681</ele>
        <time>2022-08-06T09:08:05.000Z</time>
      </trkpt>
      <trkpt lat="49.28926" lon="-0.13938">
        <ele>7.440728</ele>
        <time>2022-08-06T09:08:06.000Z</time>
      </trkpt>
      <trkpt lat="49.28928" lon="-0.13938">
        <ele>7.463607</ele>
        <time>2022-08-06T09:08:07.000Z</time>
      </trkpt>
      <trkpt lat="49.28931" lon="-0.13938">
        <ele>7.487669</ele>
        <time>2022-08-06T09:08:08.000Z</time>
      </trkpt>
      <trkpt lat="49.28933" lon="-0.13938">
        <ele>7.510578</ele>
        <time>2022-08-06T09:08:09.000Z</time>
      </trkpt>
      <trkpt lat="49.28935" lon="-0.13938">
        <ele>7.537639</ele>
        <time>2022-08-06T09:08:10.000Z</time>
      </trkpt>
      <trkpt lat="49.28937" lon="-0.13938">
        <ele>7.557435</ele>
        <time>2022-08-06T09:08:11.000Z</time>
      </trkpt>
      <trkpt lat="49.28939" lon="-0.13938">
        <ele>7.577232</ele>
        <time>2022-08-06T09:08:12.000Z</time>
      </trkpt>
      <trkpt lat="49.28941" lon="-0.13938">
        <ele>7.600261</ele>
        <time>2022-08-06T09:08:13.000Z</time>
      </trkpt>
      <trkpt lat="49.28944" lon="-0.13939">
        <ele>7.624513</ele>
        <time>2022-08-06T09:08:14.000Z</time>
      </trkpt>
      <trkpt lat="49.28946" lon="-0.1394">
        <ele>7.645395</ele>
        <time>2022-08-06T09:08:15.000Z</time>
      </trkpt>
      <trkpt lat="49.28949" lon="-0.13942">
        <ele>7.684716</ele>
        <time>2022-08-06T09:08:17.000Z</time>
      </trkpt>
      <trkpt lat="49.28952" lon="-0.13943">
        <ele>7.71594</ele>
        <time>2022-08-06T09:08:19.000Z</time>
      </trkpt>
      <trkpt lat="49.28954" lon="-0.13943">
        <ele>7.739059</ele>
        <time>2022-08-06T09:08:20.000Z</time>
      </trkpt>
      <trkpt lat="49.28956" lon="-0.13942">
        <ele>7.761384</ele>
        <time>2022-08-06T09:08:21.000Z</time>
      </trkpt>
      <trkpt lat="49.28958" lon="-0.1394">
        <ele>7.786993</ele>
        <time>2022-08-06T09:08:22.000Z</time>
      </trkpt>
      <trkpt lat="49.28962" lon="-0.13938">
        <ele>7.821981</ele>
        <time>2022-08-06T09:08:23.000Z</time>
      </trkpt>
      <trkpt lat="49.28964" lon="-0.13937">
        <ele>7.844196</ele>
        <time>2022-08-06T09:08:24.000Z</time>
      </trkpt>
      <trkpt lat="49.28966" lon="-0.13933">
        <ele>7.879718</ele>
        <time>2022-08-06T09:08:25.000Z</time>
      </trkpt>
      <trkpt lat="49.28967" lon="-0.1393">
        <ele>7.904706</ele>
        <time>2022-08-06T09:08:26.000Z</time>
      </trkpt>
      <trkpt lat="49.28968" lon="-0.13926">
        <ele>7.935374</ele>
        <time>2022-08-06T09:08:27.000Z</time>
      </trkpt>
      <trkpt lat="49.28968" lon="-0.13923">
        <ele>7.95707</ele>
        <time>2022-08-06T09:08:28.000Z</time>
      </trkpt>
      <trkpt lat="49.28966" lon="-0.13918">
        <ele>7.991683</ele>
        <time>2022-08-06T09:08:30.000Z</time>
      </trkpt>
      <trkpt lat="49.28965" lon="-0.13915">
        <ele>8.021527</ele>
        <time>2022-08-06T09:08:32.000Z</time>
      </trkpt>
      <trkpt lat="49.28962" lon="-0.13912">
        <ele>8.052055</ele>
        <time>2022-08-06T09:08:34.000Z</time>
      </trkpt>
      <trkpt lat="49.2896" lon="-0.1391">
        <ele>8.075635</ele>
        <time>2022-08-06T09:08:36.000Z</time>
      </trkpt>
      <trkpt lat="49.2896" lon="-0.13907">
        <ele>8.098009</ele>
        <time>2022-08-06T09:08:40.000Z</time>
      </trkpt>
      <trkpt lat="49.28962" lon="-0.13903">
        <ele>8.128675</ele>
        <time>2022-08-06T09:08:43.000Z</time>
      </trkpt>
      <trkpt lat="49.28963" lon="-0.13901">
        <ele>8.110154</ele>
        <time>2022-08-06T09:08:44.000Z</time>
      </trkpt>
      <trkpt lat="49.28964" lon="-0.13897">
        <ele>8.082056</ele>
        <time>2022-08-06T09:08:45.000Z</time>
      </trkpt>
      <trkpt lat="49.28966" lon="-0.13894">
        <ele>8.04624</ele>
        <time>2022-08-06T09:08:46.000Z</time>
      </trkpt>
      <trkpt lat="49.28968" lon="-0.1389">
        <ele>8.007057</ele>
        <time>2022-08-06T09:08:47.000Z</time>
      </trkpt>
      <trkpt lat="49.2897" lon="-0.13885">
        <ele>7.959032</ele>
        <time>2022-08-06T09:08:48.000Z</time>
      </trkpt>
      <trkpt lat="49.28973" lon="-0.1388">
        <ele>7.905455</ele>
        <time>2022-08-06T09:08:49.000Z</time>
      </trkpt>
      <trkpt lat="49.28974" lon="-0.13874">
        <ele>7.856141</ele>
        <time>2022-08-06T09:08:50.000Z</time>
      </trkpt>
      <trkpt lat="49.28976" lon="-0.13868">
        <ele>7.802605</ele>
        <time>2022-08-06T09:08:51.000Z</time>
      </trkpt>
      <trkpt lat="49.28977" lon="-0.13862">
        <ele>7.753567</ele>
        <time>2022-08-06T09:08:52.000Z</time>
      </trkpt>
      <trkpt lat="49.28978" lon="-0.13856">
        <ele>7.708665</ele>
        <time>2022-08-06T09:08:53.000Z</time>
      </trkpt>
      <trkpt lat="49.28979" lon="-0.13851">
        <ele>7.662341</ele>
        <time>2022-08-06T09:08:54.000Z</time>
      </trkpt>
      <trkpt lat="49.2898" lon="-0.13845">
        <ele>7.616622</ele>
        <time>2022-08-06T09:08:55.000Z</time>
      </trkpt>
      <trkpt lat="49.28981" lon="-0.13839">
        <ele>7.569553</ele>
        <time>2022-08-06T09:08:56.000Z</time>
      </trkpt>
      <trkpt lat="49.28982" lon="-0.13834">
        <ele>7.525179</ele>
        <time>2022-08-06T09:08:57.000Z</time>
      </trkpt>
      <trkpt lat="49.28982" lon="-0.13828">
        <ele>7.477895</ele>
        <time>2022-08-06T09:08:58.000Z</time>
      </trkpt>
      <trkpt lat="49.28983" lon="-0.13822">
        <ele>7.431919</ele>
        <time>2022-08-06T09:08:59.000Z</time>
      </trkpt>
      <trkpt lat="49.28984" lon="-0.13816">
        <ele>7.383852</ele>
        <time>2022-08-06T09:09:00.000Z</time>
      </trkpt>
      <trkpt lat="49.28985" lon="-0.13811">
        <ele>7.337112</ele>
        <time>2022-08-06T09:09:01.000Z</time>
      </trkpt>
      <trkpt lat="49.28986" lon="-0.13805">
        <ele>7.290672</ele>
        <time>2022-08-06T09:09:02.000Z</time>
      </trkpt>
      <trkpt lat="49.28987" lon="-0.13799">
        <ele>7.243603</ele>
        <time>2022-08-06T09:09:03.000Z</time>
      </trkpt>
      <trkpt lat="49.28988" lon="-0.13794">
        <ele>7.199153</ele>
        <time>2022-08-06T09:09:04.000Z</time>
      </trkpt>
      <trkpt lat="49.28989" lon="-0.13788">
        <ele>7.153229</ele>
        <time>2022-08-06T09:09:05.000Z</time>
      </trkpt>
      <trkpt lat="49.2899" lon="-0.13783">
        <ele>7.108855</ele>
        <time>2022-08-06T09:09:06.000Z</time>
      </trkpt>
      <trkpt lat="49.28991" lon="-0.13777">
        <ele>7.063953</ele>
        <time>2022-08-06T09:09:07.000Z</time>
      </trkpt>
      <trkpt lat="49.28992" lon="-0.13772">
        <ele>7.018741</ele>
        <time>2022-08-06T09:09:08.000Z</time>
      </trkpt>
      <trkpt lat="49.28993" lon="-0.13766">
        <ele>6.972417</ele>
        <time>2022-08-06T09:09:09.000Z</time>
      </trkpt>
      <trkpt lat="49.28995" lon="-0.1376">
        <ele>6.921088</ele>
        <time>2022-08-06T09:09:10.000Z</time>
      </trkpt>
      <trkpt lat="49.28996" lon="-0.13755">
        <ele>6.87615</ele>
        <time>2022-08-06T09:09:11.000Z</time>
      </trkpt>
      <trkpt lat="49.28997" lon="-0.13749">
        <ele>6.83057</ele>
        <time>2022-08-06T09:09:12.000Z</time>
      </trkpt>
      <trkpt lat="49.28997" lon="-0.13744">
        <ele>6.787974</ele>
        <time>2022-08-06T09:09:13.000Z</time>
      </trkpt>
      <trkpt lat="49.28998" lon="-0.13739">
        <ele>6.74593</ele>
        <time>2022-08-06T09:09:14.000Z</time>
      </trkpt>
      <trkpt lat="49.28999" lon="-0.13734">
        <ele>6.706232</ele>
        <time>2022-08-06T09:09:15.000Z</time>
      </trkpt>
      <trkpt lat="49.29" lon="-0.13729">
        <ele>6.665159</ele>
        <time>2022-08-06T09:09:16.000Z</time>
      </trkpt>
      <trkpt lat="49.29001" lon="-0.13724">
        <ele>6.62223</ele>
        <time>2022-08-06T09:09:17.000Z</time>
      </trkpt>
      <trkpt lat="49.29002" lon="-0.13719">
        <ele>6.580893</ele>
        <time>2022-08-06T09:09:18.000Z</time>
      </trkpt>
      <trkpt lat="49.29003" lon="-0.13714">
        <ele>6.536055</ele>
        <time>2022-08-06T09:09:19.000Z</time>
      </trkpt>
      <trkpt lat="49.29004" lon="-0.13708">
        <ele>6.493454</ele>
        <time>2022-08-06T09:09:20.000Z</time>
      </trkpt>
      <trkpt lat="49.29005" lon="-0.13703">
        <ele>6.449765</ele>
        <time>2022-08-06T09:09:21.000Z</time>
      </trkpt>
      <trkpt lat="49.29006" lon="-0.13698">
        <ele>6.406836</ele>
        <time>2022-08-06T09:09:22.000Z</time>
      </trkpt>
      <trkpt lat="49.29007" lon="-0.13693">
        <ele>6.364999</ele>
        <time>2022-08-06T09:09:23.000Z</time>
      </trkpt>
      <trkpt lat="49.29007" lon="-0.13688">
        <ele>6.326824</ele>
        <time>2022-08-06T09:09:24.000Z</time>
      </trkpt>
      <trkpt lat="49.29009" lon="-0.13683">
        <ele>6.286857</ele>
        <time>2022-08-06T09:09:25.000Z</time>
      </trkpt>
      <trkpt lat="49.2901" lon="-0.13679">
        <ele>6.246956</ele>
        <time>2022-08-06T09:09:26.000Z</time>
      </trkpt>
      <trkpt lat="49.2901" lon="-0.13674">
        <ele>6.208255</ele>
        <time>2022-08-06T09:09:27.000Z</time>
      </trkpt>
      <trkpt lat="49.29012" lon="-0.13669">
        <ele>6.165633</ele>
        <time>2022-08-06T09:09:28.000Z</time>
      </trkpt>
      <trkpt lat="49.29013" lon="-0.13664">
        <ele>6.121535</ele>
        <time>2022-08-06T09:09:29.000Z</time>
      </trkpt>
      <trkpt lat="49.29014" lon="-0.13658">
        <ele>6.076323</ele>
        <time>2022-08-06T09:09:30.000Z</time>
      </trkpt>
      <trkpt lat="49.29015" lon="-0.13652">
        <ele>6.028894</ele>
        <time>2022-08-06T09:09:31.000Z</time>
      </trkpt>
      <trkpt lat="49.29016" lon="-0.13647">
        <ele>5.983744</ele>
        <time>2022-08-06T09:09:32.000Z</time>
      </trkpt>
      <trkpt lat="49.29017" lon="-0.13641">
        <ele>5.946673</ele>
        <time>2022-08-06T09:09:33.000Z</time>
      </trkpt>
      <trkpt lat="49.29017" lon="-0.13636">
        <ele>5.943413</ele>
        <time>2022-08-06T09:09:34.000Z</time>
      </trkpt>
      <trkpt lat="49.29019" lon="-0.1363">
        <ele>5.9399</ele>
        <time>2022-08-06T09:09:35.000Z</time>
      </trkpt>
      <trkpt lat="49.2902" lon="-0.13624">
        <ele>5.936488</ele>
        <time>2022-08-06T09:09:36.000Z</time>
      </trkpt>
      <trkpt lat="49.29021" lon="-0.13619">
        <ele>5.933085</ele>
        <time>2022-08-06T09:09:37.000Z</time>
      </trkpt>
      <trkpt lat="49.29021" lon="-0.13613">
        <ele>5.929784</ele>
        <time>2022-08-06T09:09:38.000Z</time>
      </trkpt>
      <trkpt lat="49.29022" lon="-0.13608">
        <ele>5.926564</ele>
        <time>2022-08-06T09:09:39.000Z</time>
      </trkpt>
      <trkpt lat="49.29023" lon="-0.13602">
        <ele>5.92308</ele>
        <time>2022-08-06T09:09:40.000Z</time>
      </trkpt>
      <trkpt lat="49.29024" lon="-0.13596">
        <ele>5.919646</ele>
        <time>2022-08-06T09:09:41.000Z</time>
      </trkpt>
      <trkpt lat="49.29025" lon="-0.1359">
        <ele>5.915913</ele>
        <time>2022-08-06T09:09:42.000Z</time>
      </trkpt>
      <trkpt lat="49.29027" lon="-0.13584">
        <ele>5.911871</ele>
        <time>2022-08-06T09:09:43.000Z</time>
      </trkpt>
      <trkpt lat="49.29028" lon="-0.13577">
        <ele>5.908005</ele>
        <time>2022-08-06T09:09:44.000Z</time>
      </trkpt>
      <trkpt lat="49.29029" lon="-0.13571">
        <ele>5.903939</ele>
        <time>2022-08-06T09:09:45.000Z</time>
      </trkpt>
      <trkpt lat="49.29031" lon="-0.13564">
        <ele>5.899624</ele>
        <time>2022-08-06T09:09:46.000Z</time>
      </trkpt>
      <trkpt lat="49.29031" lon="-0.13556">
        <ele>5.895332</ele>
        <time>2022-08-06T09:09:47.000Z</time>
      </trkpt>
      <trkpt lat="49.29033" lon="-0.13549">
        <ele>5.890907</ele>
        <time>2022-08-06T09:09:48.000Z</time>
      </trkpt>
      <trkpt lat="49.29034" lon="-0.13542">
        <ele>5.886756</ele>
        <time>2022-08-06T09:09:49.000Z</time>
      </trkpt>
      <trkpt lat="49.29035" lon="-0.13535">
        <ele>5.882522</ele>
        <time>2022-08-06T09:09:50.000Z</time>
      </trkpt>
      <trkpt lat="49.29037" lon="-0.13528">
        <ele>5.878288</ele>
        <time>2022-08-06T09:09:51.000Z</time>
      </trkpt>
      <trkpt lat="49.29037" lon="-0.13521">
        <ele>5.874308</ele>
        <time>2022-08-06T09:09:52.000Z</time>
      </trkpt>
      <trkpt lat="49.29039" lon="-0.13515">
        <ele>5.870103</ele>
        <time>2022-08-06T09:09:53.000Z</time>
      </trkpt>
      <trkpt lat="49.2904" lon="-0.13508">
        <ele>5.866105</ele>
        <time>2022-08-06T09:09:54.000Z</time>
      </trkpt>
      <trkpt lat="49.29042" lon="-0.13501">
        <ele>5.862008</ele>
        <time>2022-08-06T09:09:55.000Z</time>
      </trkpt>
      <trkpt lat="49.29043" lon="-0.13495">
        <ele>5.857942</ele>
        <time>2022-08-06T09:09:56.000Z</time>
      </trkpt>
      <trkpt lat="49.29044" lon="-0.13488">
        <ele>5.853963</ele>
        <time>2022-08-06T09:09:57.000Z</time>
      </trkpt>
      <trkpt lat="49.29045" lon="-0.13481">
        <ele>5.850007</ele>
        <time>2022-08-06T09:09:58.000Z</time>
      </trkpt>
      <trkpt lat="49.29046" lon="-0.13475">
        <ele>5.846118</ele>
        <time>2022-08-06T09:09:59.000Z</time>
      </trkpt>
      <trkpt lat="49.29047" lon="-0.13468">
        <ele>5.842076</ele>
        <time>2022-08-06T09:10:00.000Z</time>
      </trkpt>
      <trkpt lat="49.29048" lon="-0.13461">
        <ele>5.838128</ele>
        <time>2022-08-06T09:10:01.000Z</time>
      </trkpt>
      <trkpt lat="49.29049" lon="-0.13455">
        <ele>5.834206</ele>
        <time>2022-08-06T09:10:02.000Z</time>
      </trkpt>
      <trkpt lat="49.2905" lon="-0.13448">
        <ele>5.830207</ele>
        <time>2022-08-06T09:10:03.000Z</time>
      </trkpt>
      <trkpt lat="49.29051" lon="-0.13442">
        <ele>5.826252</ele>
        <time>2022-08-06T09:10:04.000Z</time>
      </trkpt>
      <trkpt lat="49.29052" lon="-0.13435">
        <ele>5.822387</ele>
        <time>2022-08-06T09:10:05.000Z</time>
      </trkpt>
      <trkpt lat="49.29053" lon="-0.13429">
        <ele>5.818615</ele>
        <time>2022-08-06T09:10:06.000Z</time>
      </trkpt>
      <trkpt lat="49.29054" lon="-0.13422">
        <ele>5.81473</ele>
        <time>2022-08-06T09:10:07.000Z</time>
      </trkpt>
      <trkpt lat="49.29055" lon="-0.13416">
        <ele>5.810921</ele>
        <time>2022-08-06T09:10:08.000Z</time>
      </trkpt>
      <trkpt lat="49.29056" lon="-0.13409">
        <ele>5.807036</ele>
        <time>2022-08-06T09:10:09.000Z</time>
      </trkpt>
      <trkpt lat="49.29057" lon="-0.13403">
        <ele>5.803284</ele>
        <time>2022-08-06T09:10:10.000Z</time>
      </trkpt>
      <trkpt lat="49.29057" lon="-0.13397">
        <ele>5.799566</ele>
        <time>2022-08-06T09:10:11.000Z</time>
      </trkpt>
      <trkpt lat="49.29059" lon="-0.1339">
        <ele>5.795667</ele>
        <time>2022-08-06T09:10:12.000Z</time>
      </trkpt>
      <trkpt lat="49.29059" lon="-0.13384">
        <ele>5.791963</ele>
        <time>2022-08-06T09:10:13.000Z</time>
      </trkpt>
      <trkpt lat="49.29061" lon="-0.13378">
        <ele>5.788119</ele>
        <time>2022-08-06T09:10:14.000Z</time>
      </trkpt>
      <trkpt lat="49.29061" lon="-0.13371">
        <ele>5.79815</ele>
        <time>2022-08-06T09:10:15.000Z</time>
      </trkpt>
      <trkpt lat="49.29063" lon="-0.13365">
        <ele>5.814508</ele>
        <time>2022-08-06T09:10:16.000Z</time>
      </trkpt>
      <trkpt lat="49.29064" lon="-0.13359">
        <ele>5.830063</ele>
        <time>2022-08-06T09:10:17.000Z</time>
      </trkpt>
      <trkpt lat="49.29065" lon="-0.13353">
        <ele>5.84681</ele>
        <time>2022-08-06T09:10:18.000Z</time>
      </trkpt>
      <trkpt lat="49.29067" lon="-0.13347">
        <ele>5.862214</ele>
        <time>2022-08-06T09:10:19.000Z</time>
      </trkpt>
      <trkpt lat="49.29068" lon="-0.13341">
        <ele>5.878413</ele>
        <time>2022-08-06T09:10:20.000Z</time>
      </trkpt>
      <trkpt lat="49.29069" lon="-0.13334">
        <ele>5.895187</ele>
        <time>2022-08-06T09:10:21.000Z</time>
      </trkpt>
      <trkpt lat="49.29069" lon="-0.13328">
        <ele>5.911632</ele>
        <time>2022-08-06T09:10:22.000Z</time>
      </trkpt>
      <trkpt lat="49.2907" lon="-0.13322">
        <ele>5.92743</ele>
        <time>2022-08-06T09:10:23.000Z</time>
      </trkpt>
      <trkpt lat="49.29071" lon="-0.13315">
        <ele>5.94396</ele>
        <time>2022-08-06T09:10:24.000Z</time>
      </trkpt>
      <trkpt lat="49.29072" lon="-0.13309">
        <ele>5.960159</ele>
        <time>2022-08-06T09:10:25.000Z</time>
      </trkpt>
      <trkpt lat="49.29073" lon="-0.13302">
        <ele>5.977422</ele>
        <time>2022-08-06T09:10:26.000Z</time>
      </trkpt>
      <trkpt lat="49.29074" lon="-0.13296">
        <ele>5.993131</ele>
        <time>2022-08-06T09:10:27.000Z</time>
      </trkpt>
      <trkpt lat="49.29075" lon="-0.1329">
        <ele>6.009173</ele>
        <time>2022-08-06T09:10:28.000Z</time>
      </trkpt>
      <trkpt lat="49.29076" lon="-0.13284">
        <ele>6.025215</ele>
        <time>2022-08-06T09:10:29.000Z</time>
      </trkpt>
      <trkpt lat="49.29077" lon="-0.13278">
        <ele>6.041414</ele>
        <time>2022-08-06T09:10:30.000Z</time>
      </trkpt>
      <trkpt lat="49.29078" lon="-0.13271">
        <ele>6.057465</ele>
        <time>2022-08-06T09:10:31.000Z</time>
      </trkpt>
      <trkpt lat="49.29079" lon="-0.13265">
        <ele>6.073709</ele>
        <time>2022-08-06T09:10:32.000Z</time>
      </trkpt>
      <trkpt lat="49.2908" lon="-0.13258">
        <ele>6.090752</ele>
        <time>2022-08-06T09:10:33.000Z</time>
      </trkpt>
      <trkpt lat="49.29081" lon="-0.13252">
        <ele>6.107349</ele>
        <time>2022-08-06T09:10:34.000Z</time>
      </trkpt>
      <trkpt lat="49.29082" lon="-0.13246">
        <ele>6.123341</ele>
        <time>2022-08-06T09:10:35.000Z</time>
      </trkpt>
      <trkpt lat="49.29083" lon="-0.13239">
        <ele>6.139871</ele>
        <time>2022-08-06T09:10:36.000Z</time>
      </trkpt>
      <trkpt lat="49.29084" lon="-0.13233">
        <ele>6.156561</ele>
        <time>2022-08-06T09:10:37.000Z</time>
      </trkpt>
      <trkpt lat="49.29085" lon="-0.13226">
        <ele>6.173637</ele>
        <time>2022-08-06T09:10:38.000Z</time>
      </trkpt>
      <trkpt lat="49.29085" lon="-0.1322">
        <ele>6.190126</ele>
        <time>2022-08-06T09:10:39.000Z</time>
      </trkpt>
      <trkpt lat="49.29087" lon="-0.13214">
        <ele>6.20664</ele>
        <time>2022-08-06T09:10:40.000Z</time>
      </trkpt>
      <trkpt lat="49.29088" lon="-0.13207">
        <ele>6.223477</ele>
        <time>2022-08-06T09:10:41.000Z</time>
      </trkpt>
      <trkpt lat="49.29089" lon="-0.13201">
        <ele>6.239762</ele>
        <time>2022-08-06T09:10:42.000Z</time>
      </trkpt>
      <trkpt lat="49.2909" lon="-0.13195">
        <ele>6.255961</ele>
        <time>2022-08-06T09:10:43.000Z</time>
      </trkpt>
      <trkpt lat="49.29091" lon="-0.13189">
        <ele>6.271766</ele>
        <time>2022-08-06T09:10:44.000Z</time>
      </trkpt>
      <trkpt lat="49.29092" lon="-0.13182">
        <ele>6.288363</ele>
        <time>2022-08-06T09:10:45.000Z</time>
      </trkpt>
      <trkpt lat="49.29093" lon="-0.13176">
        <ele>6.304807</ele>
        <time>2022-08-06T09:10:46.000Z</time>
      </trkpt>
      <trkpt lat="49.29094" lon="-0.1317">
        <ele>6.320605</ele>
        <time>2022-08-06T09:10:47.000Z</time>
      </trkpt>
      <trkpt lat="49.29095" lon="-0.13164">
        <ele>6.335824</ele>
        <time>2022-08-06T09:10:48.000Z</time>
      </trkpt>
      <trkpt lat="49.29097" lon="-0.13158">
        <ele>6.351641</ele>
        <time>2022-08-06T09:10:49.000Z</time>
      </trkpt>
      <trkpt lat="49.29097" lon="-0.13152">
        <ele>6.366457</ele>
        <time>2022-08-06T09:10:50.000Z</time>
      </trkpt>
      <trkpt lat="49.29099" lon="-0.13146">
        <ele>6.382098</ele>
        <time>2022-08-06T09:10:51.000Z</time>
      </trkpt>
      <trkpt lat="49.291" lon="-0.13141">
        <ele>6.397073</ele>
        <time>2022-08-06T09:10:52.000Z</time>
      </trkpt>
      <trkpt lat="49.29101" lon="-0.13135">
        <ele>6.412628</ele>
        <time>2022-08-06T09:10:53.000Z</time>
      </trkpt>
      <trkpt lat="49.29101" lon="-0.13129">
        <ele>6.427378</ele>
        <time>2022-08-06T09:10:54.000Z</time>
      </trkpt>
      <trkpt lat="49.29102" lon="-0.13123">
        <ele>6.443019</ele>
        <time>2022-08-06T09:10:55.000Z</time>
      </trkpt>
      <trkpt lat="49.29103" lon="-0.13117">
        <ele>6.457769</ele>
        <time>2022-08-06T09:10:56.000Z</time>
      </trkpt>
      <trkpt lat="49.29104" lon="-0.13111">
        <ele>6.473174</ele>
        <time>2022-08-06T09:10:57.000Z</time>
      </trkpt>
      <trkpt lat="49.29105" lon="-0.13105">
        <ele>6.4944</ele>
        <time>2022-08-06T09:10:58.000Z</time>
      </trkpt>
      <trkpt lat="49.29106" lon="-0.131">
        <ele>6.520504</ele>
        <time>2022-08-06T09:10:59.000Z</time>
      </trkpt>
      <trkpt lat="49.29107" lon="-0.13094">
        <ele>6.547071</ele>
        <time>2022-08-06T09:11:00.000Z</time>
      </trkpt>
      <trkpt lat="49.29109" lon="-0.13088">
        <ele>6.573382</ele>
        <time>2022-08-06T09:11:01.000Z</time>
      </trkpt>
      <trkpt lat="49.29109" lon="-0.13082">
        <ele>6.598999</ele>
        <time>2022-08-06T09:11:02.000Z</time>
      </trkpt>
      <trkpt lat="49.2911" lon="-0.13076">
        <ele>6.62653</ele>
        <time>2022-08-06T09:11:03.000Z</time>
      </trkpt>
      <trkpt lat="49.29111" lon="-0.1307">
        <ele>6.653097</ele>
        <time>2022-08-06T09:11:04.000Z</time>
      </trkpt>
      <trkpt lat="49.29112" lon="-0.13064">
        <ele>6.680346</ele>
        <time>2022-08-06T09:11:05.000Z</time>
      </trkpt>
      <trkpt lat="49.29113" lon="-0.13058">
        <ele>6.706083</ele>
        <time>2022-08-06T09:11:06.000Z</time>
      </trkpt>
      <trkpt lat="49.29115" lon="-0.13052">
        <ele>6.733206</ele>
        <time>2022-08-06T09:11:07.000Z</time>
      </trkpt>
      <trkpt lat="49.29116" lon="-0.13046">
        <ele>6.760455</ele>
        <time>2022-08-06T09:11:08.000Z</time>
      </trkpt>
      <trkpt lat="49.29117" lon="-0.1304">
        <ele>6.787023</ele>
        <time>2022-08-06T09:11:09.000Z</time>
      </trkpt>
      <trkpt lat="49.29117" lon="-0.13033">
        <ele>6.814272</ele>
        <time>2022-08-06T09:11:10.000Z</time>
      </trkpt>
      <trkpt lat="49.29119" lon="-0.13028">
        <ele>6.840582</ele>
        <time>2022-08-06T09:11:11.000Z</time>
      </trkpt>
      <trkpt lat="49.2912" lon="-0.13022">
        <ele>6.867706</ele>
        <time>2022-08-06T09:11:12.000Z</time>
      </trkpt>
      <trkpt lat="49.29121" lon="-0.13015">
        <ele>6.895019</ele>
        <time>2022-08-06T09:11:13.000Z</time>
      </trkpt>
      <trkpt lat="49.29122" lon="-0.13009">
        <ele>6.923776</ele>
        <time>2022-08-06T09:11:14.000Z</time>
      </trkpt>
      <trkpt lat="49.29123" lon="-0.13003">
        <ele>6.950344</ele>
        <time>2022-08-06T09:11:15.000Z</time>
      </trkpt>
      <trkpt lat="49.29125" lon="-0.12997">
        <ele>6.976572</ele>
        <time>2022-08-06T09:11:16.000Z</time>
      </trkpt>
      <trkpt lat="49.29125" lon="-0.12991">
        <ele>7.002984</ele>
        <time>2022-08-06T09:11:17.000Z</time>
      </trkpt>
      <trkpt lat="49.29127" lon="-0.12985">
        <ele>7.0297</ele>
        <time>2022-08-06T09:11:18.000Z</time>
      </trkpt>
      <trkpt lat="49.29128" lon="-0.1298">
        <ele>7.056011</ele>
        <time>2022-08-06T09:11:19.000Z</time>
      </trkpt>
      <trkpt lat="49.29129" lon="-0.12974">
        <ele>7.081333</ele>
        <time>2022-08-06T09:11:20.000Z</time>
      </trkpt>
      <trkpt lat="49.29131" lon="-0.12968">
        <ele>7.108349</ele>
        <time>2022-08-06T09:11:21.000Z</time>
      </trkpt>
      <trkpt lat="49.29132" lon="-0.12962">
        <ele>7.134453</ele>
        <time>2022-08-06T09:11:22.000Z</time>
      </trkpt>
      <trkpt lat="49.29133" lon="-0.12957">
        <ele>7.158948</ele>
        <time>2022-08-06T09:11:23.000Z</time>
      </trkpt>
      <trkpt lat="49.29134" lon="-0.12951">
        <ele>7.183642</ele>
        <time>2022-08-06T09:11:24.000Z</time>
      </trkpt>
      <trkpt lat="49.29135" lon="-0.12946">
        <ele>7.206308</ele>
        <time>2022-08-06T09:11:25.000Z</time>
      </trkpt>
      <trkpt lat="49.29136" lon="-0.12941">
        <ele>7.231405</ele>
        <time>2022-08-06T09:11:26.000Z</time>
      </trkpt>
      <trkpt lat="49.29137" lon="-0.12935">
        <ele>7.255024</ele>
        <time>2022-08-06T09:11:27.000Z</time>
      </trkpt>
      <trkpt lat="49.29138" lon="-0.1293">
        <ele>7.279092</ele>
        <time>2022-08-06T09:11:28.000Z</time>
      </trkpt>
      <trkpt lat="49.2914" lon="-0.12925">
        <ele>7.303758</ele>
        <time>2022-08-06T09:11:29.000Z</time>
      </trkpt>
      <trkpt lat="49.29141" lon="-0.1292">
        <ele>7.327427</ele>
        <time>2022-08-06T09:11:30.000Z</time>
      </trkpt>
      <trkpt lat="49.29142" lon="-0.12914">
        <ele>7.351719</ele>
        <time>2022-08-06T09:11:31.000Z</time>
      </trkpt>
      <trkpt lat="49.29143" lon="-0.12909">
        <ele>7.375642</ele>
        <time>2022-08-06T09:11:32.000Z</time>
      </trkpt>
      <trkpt lat="49.29144" lon="-0.12903">
        <ele>7.400738</ele>
        <time>2022-08-06T09:11:33.000Z</time>
      </trkpt>
      <trkpt lat="49.29145" lon="-0.12898">
        <ele>7.425432</ele>
        <time>2022-08-06T09:11:34.000Z</time>
      </trkpt>
      <trkpt lat="49.29147" lon="-0.12892">
        <ele>7.450529</ele>
        <time>2022-08-06T09:11:35.000Z</time>
      </trkpt>
      <trkpt lat="49.29148" lon="-0.12887">
        <ele>7.475584</ele>
        <time>2022-08-06T09:11:36.000Z</time>
      </trkpt>
      <trkpt lat="49.29149" lon="-0.12882">
        <ele>7.49991</ele>
        <time>2022-08-06T09:11:37.000Z</time>
      </trkpt>
      <trkpt lat="49.29151" lon="-0.12876">
        <ele>7.525746</ele>
        <time>2022-08-06T09:11:38.000Z</time>
      </trkpt>
      <trkpt lat="49.29152" lon="-0.12871">
        <ele>7.55024</ele>
        <time>2022-08-06T09:11:39.000Z</time>
      </trkpt>
      <trkpt lat="49.29153" lon="-0.12865">
        <ele>7.575817</ele>
        <time>2022-08-06T09:11:40.000Z</time>
      </trkpt>
      <trkpt lat="49.29154" lon="-0.12859">
        <ele>7.602438</ele>
        <time>2022-08-06T09:11:41.000Z</time>
      </trkpt>
      <trkpt lat="49.29156" lon="-0.12854">
        <ele>7.628274</ele>
        <time>2022-08-06T09:11:42.000Z</time>
      </trkpt>
      <trkpt lat="49.29157" lon="-0.12848">
        <ele>7.653596</ele>
        <time>2022-08-06T09:11:43.000Z</time>
      </trkpt>
      <trkpt lat="49.29158" lon="-0.12842">
        <ele>7.691449</ele>
        <time>2022-08-06T09:11:44.000Z</time>
      </trkpt>
      <trkpt lat="49.29159" lon="-0.12837">
        <ele>7.735817</ele>
        <time>2022-08-06T09:11:45.000Z</time>
      </trkpt>
      <trkpt lat="49.2916" lon="-0.12831">
        <ele>7.78082</ele>
        <time>2022-08-06T09:11:46.000Z</time>
      </trkpt>
      <trkpt lat="49.29162" lon="-0.12826">
        <ele>7.825336</ele>
        <time>2022-08-06T09:11:47.000Z</time>
      </trkpt>
      <trkpt lat="49.29164" lon="-0.12821">
        <ele>7.873073</ele>
        <time>2022-08-06T09:11:48.000Z</time>
      </trkpt>
      <trkpt lat="49.29165" lon="-0.12816">
        <ele>7.912413</ele>
        <time>2022-08-06T09:11:49.000Z</time>
      </trkpt>
      <trkpt lat="49.29166" lon="-0.1281">
        <ele>7.956644</ele>
        <time>2022-08-06T09:11:50.000Z</time>
      </trkpt>
      <trkpt lat="49.29166" lon="-0.12806">
        <ele>7.989911</ele>
        <time>2022-08-06T09:11:51.000Z</time>
      </trkpt>
      <trkpt lat="49.29168" lon="-0.128">
        <ele>8.038356</ele>
        <time>2022-08-06T09:11:52.000Z</time>
      </trkpt>
      <trkpt lat="49.2917" lon="-0.12795">
        <ele>8.0812</ele>
        <time>2022-08-06T09:11:53.000Z</time>
      </trkpt>
      <trkpt lat="49.29171" lon="-0.1279">
        <ele>8.122905</ele>
        <time>2022-08-06T09:11:54.000Z</time>
      </trkpt>
      <trkpt lat="49.29172" lon="-0.12785">
        <ele>8.165036</ele>
        <time>2022-08-06T09:11:55.000Z</time>
      </trkpt>
      <trkpt lat="49.29173" lon="-0.12779">
        <ele>8.208219</ele>
        <time>2022-08-06T09:11:56.000Z</time>
      </trkpt>
      <trkpt lat="49.29174" lon="-0.12774">
        <ele>8.252735</ele>
        <time>2022-08-06T09:11:57.000Z</time>
      </trkpt>
      <trkpt lat="49.29176" lon="-0.12769">
        <ele>8.294858</ele>
        <time>2022-08-06T09:11:58.000Z</time>
      </trkpt>
      <trkpt lat="49.29176" lon="-0.12764">
        <ele>8.333967</ele>
        <time>2022-08-06T09:11:59.000Z</time>
      </trkpt>
      <trkpt lat="49.29176" lon="-0.12761">
        <ele>8.360892</ele>
        <time>2022-08-06T09:12:00.000Z</time>
      </trkpt>
      <trkpt lat="49.29175" lon="-0.12755">
        <ele>8.405894</ele>
        <time>2022-08-06T09:12:01.000Z</time>
      </trkpt>
      <trkpt lat="49.29174" lon="-0.12751">
        <ele>8.439903</ele>
        <time>2022-08-06T09:12:02.000Z</time>
      </trkpt>
      <trkpt lat="49.29172" lon="-0.12747">
        <ele>8.48227</ele>
        <time>2022-08-06T09:12:03.000Z</time>
      </trkpt>
      <trkpt lat="49.2917" lon="-0.12744">
        <ele>8.51515</ele>
        <time>2022-08-06T09:12:04.000Z</time>
      </trkpt>
      <trkpt lat="49.29168" lon="-0.12741">
        <ele>8.54844</ele>
        <time>2022-08-06T09:12:05.000Z</time>
      </trkpt>
      <trkpt lat="49.29165" lon="-0.12738">
        <ele>8.58695</ele>
        <time>2022-08-06T09:12:06.000Z</time>
      </trkpt>
      <trkpt lat="49.29163" lon="-0.12737">
        <ele>8.615045</ele>
        <time>2022-08-06T09:12:07.000Z</time>
      </trkpt>
      <trkpt lat="49.2916" lon="-0.12736">
        <ele>8.646662</ele>
        <time>2022-08-06T09:12:08.000Z</time>
      </trkpt>
      <trkpt lat="49.29157" lon="-0.12735">
        <ele>8.692585</ele>
        <time>2022-08-06T09:12:09.000Z</time>
      </trkpt>
      <trkpt lat="49.29154" lon="-0.12734">
        <ele>8.727006</ele>
        <time>2022-08-06T09:12:10.000Z</time>
      </trkpt>
      <trkpt lat="49.2915" lon="-0.12733">
        <ele>8.768999</ele>
        <time>2022-08-06T09:12:11.000Z</time>
      </trkpt>
      <trkpt lat="49.29147" lon="-0.12732">
        <ele>8.810992</ele>
        <time>2022-08-06T09:12:12.000Z</time>
      </trkpt>
      <trkpt lat="49.29143" lon="-0.12731">
        <ele>8.854615</ele>
        <time>2022-08-06T09:12:13.000Z</time>
      </trkpt>
      <trkpt lat="49.29139" lon="-0.12729">
        <ele>8.900897</ele>
        <time>2022-08-06T09:12:14.000Z</time>
      </trkpt>
      <trkpt lat="49.29135" lon="-0.12728">
        <ele>8.946659</ele>
        <time>2022-08-06T09:12:15.000Z</time>
      </trkpt>
      <trkpt lat="49.29132" lon="-0.12727">
        <ele>8.989564</ele>
        <time>2022-08-06T09:12:16.000Z</time>
      </trkpt>
      <trkpt lat="49.29127" lon="-0.12727">
        <ele>9.041604</ele>
        <time>2022-08-06T09:12:17.000Z</time>
      </trkpt>
      <trkpt lat="49.29124" lon="-0.12726">
        <ele>9.084757</ele>
        <time>2022-08-06T09:12:18.000Z</time>
      </trkpt>
      <trkpt lat="49.29119" lon="-0.12725">
        <ele>9.13747</ele>
        <time>2022-08-06T09:12:19.000Z</time>
      </trkpt>
      <trkpt lat="49.29115" lon="-0.12723">
        <ele>9.191343</ele>
        <time>2022-08-06T09:12:20.000Z</time>
      </trkpt>
      <trkpt lat="49.2911" lon="-0.12722">
        <ele>9.24566</ele>
        <time>2022-08-06T09:12:21.000Z</time>
      </trkpt>
      <trkpt lat="49.29105" lon="-0.12721">
        <ele>9.309913</ele>
        <time>2022-08-06T09:12:22.000Z</time>
      </trkpt>
      <trkpt lat="49.291" lon="-0.12719">
        <ele>9.375673</ele>
        <time>2022-08-06T09:12:23.000Z</time>
      </trkpt>
      <trkpt lat="49.29095" lon="-0.12718">
        <ele>9.429684</ele>
        <time>2022-08-06T09:12:24.000Z</time>
      </trkpt>
      <trkpt lat="49.29091" lon="-0.12716">
        <ele>9.480432</ele>
        <time>2022-08-06T09:12:25.000Z</time>
      </trkpt>
      <trkpt lat="49.29088" lon="-0.12713">
        <ele>9.524672</ele>
        <time>2022-08-06T09:12:26.000Z</time>
      </trkpt>
      <trkpt lat="49.29086" lon="-0.12709">
        <ele>9.559467</ele>
        <time>2022-08-06T09:12:27.000Z</time>
      </trkpt>
      <trkpt lat="49.29085" lon="-0.12705">
        <ele>9.596554</ele>
        <time>2022-08-06T09:12:28.000Z</time>
      </trkpt>
      <trkpt lat="49.29087" lon="-0.127">
        <ele>9.635828</ele>
        <time>2022-08-06T09:12:29.000Z</time>
      </trkpt>
      <trkpt lat="49.29088" lon="-0.12696">
        <ele>9.670947</ele>
        <time>2022-08-06T09:12:30.000Z</time>
      </trkpt>
      <trkpt lat="49.29089" lon="-0.12691">
        <ele>9.708365</ele>
        <time>2022-08-06T09:12:31.000Z</time>
      </trkpt>
      <trkpt lat="49.29091" lon="-0.12687">
        <ele>9.743435</ele>
        <time>2022-08-06T09:12:32.000Z</time>
      </trkpt>
      <trkpt lat="49.29093" lon="-0.12682">
        <ele>9.783157</ele>
        <time>2022-08-06T09:12:33.000Z</time>
      </trkpt>
      <trkpt lat="49.29093" lon="-0.12677">
        <ele>9.771421</ele>
        <time>2022-08-06T09:12:34.000Z</time>
      </trkpt>
      <trkpt lat="49.29095" lon="-0.12672">
        <ele>9.759243</ele>
        <time>2022-08-06T09:12:35.000Z</time>
      </trkpt>
      <trkpt lat="49.29097" lon="-0.12667">
        <ele>9.745559</ele>
        <time>2022-08-06T09:12:36.000Z</time>
      </trkpt>
      <trkpt lat="49.29099" lon="-0.12662">
        <ele>9.731901</ele>
        <time>2022-08-06T09:12:37.000Z</time>
      </trkpt>
      <trkpt lat="49.291" lon="-0.12656">
        <ele>9.719071</ele>
        <time>2022-08-06T09:12:38.000Z</time>
      </trkpt>
      <trkpt lat="49.291" lon="-0.1265">
        <ele>9.705496</ele>
        <time>2022-08-06T09:12:39.000Z</time>
      </trkpt>
      <trkpt lat="49.291" lon="-0.12645">
        <ele>9.693052</ele>
        <time>2022-08-06T09:12:40.000Z</time>
      </trkpt>
      <trkpt lat="49.29099" lon="-0.12639">
        <ele>9.679765</ele>
        <time>2022-08-06T09:12:41.000Z</time>
      </trkpt>
      <trkpt lat="49.29098" lon="-0.12633">
        <ele>9.666419</ele>
        <time>2022-08-06T09:12:42.000Z</time>
      </trkpt>
      <trkpt lat="49.29097" lon="-0.12627">
        <ele>9.652489</ele>
        <time>2022-08-06T09:12:43.000Z</time>
      </trkpt>
      <trkpt lat="49.29097" lon="-0.12621">
        <ele>9.638921</ele>
        <time>2022-08-06T09:12:44.000Z</time>
      </trkpt>
      <trkpt lat="49.29095" lon="-0.12615">
        <ele>9.623637</ele>
        <time>2022-08-06T09:12:45.000Z</time>
      </trkpt>
      <trkpt lat="49.29094" lon="-0.12609">
        <ele>9.609406</ele>
        <time>2022-08-06T09:12:46.000Z</time>
      </trkpt>
      <trkpt lat="49.29093" lon="-0.12603">
        <ele>9.595395</ele>
        <time>2022-08-06T09:12:47.000Z</time>
      </trkpt>
      <trkpt lat="49.29093" lon="-0.12597">
        <ele>9.582331</ele>
        <time>2022-08-06T09:12:48.000Z</time>
      </trkpt>
      <trkpt lat="49.29092" lon="-0.12591">
        <ele>9.569268</ele>
        <time>2022-08-06T09:12:49.000Z</time>
      </trkpt>
      <trkpt lat="49.29092" lon="-0.12586">
        <ele>9.556367</ele>
        <time>2022-08-06T09:12:50.000Z</time>
      </trkpt>
      <trkpt lat="49.29092" lon="-0.1258">
        <ele>9.542791</ele>
        <time>2022-08-06T09:12:51.000Z</time>
      </trkpt>
      <trkpt lat="49.29092" lon="-0.12574">
        <ele>9.528764</ele>
        <time>2022-08-06T09:12:52.000Z</time>
      </trkpt>
      <trkpt lat="49.29092" lon="-0.12568">
        <ele>9.515188</ele>
        <time>2022-08-06T09:12:53.000Z</time>
      </trkpt>
      <trkpt lat="49.29092" lon="-0.12562">
        <ele>9.501397</ele>
        <time>2022-08-06T09:12:54.000Z</time>
      </trkpt>
      <trkpt lat="49.29093" lon="-0.12555">
        <ele>9.487105</ele>
        <time>2022-08-06T09:12:55.000Z</time>
      </trkpt>
      <trkpt lat="49.29093" lon="-0.12549">
        <ele>9.472625</ele>
        <time>2022-08-06T09:12:56.000Z</time>
      </trkpt>
      <trkpt lat="49.29093" lon="-0.12543">
        <ele>9.458333</ele>
        <time>2022-08-06T09:12:57.000Z</time>
      </trkpt>
      <trkpt lat="49.29093" lon="-0.12536">
        <ele>9.444267</ele>
        <time>2022-08-06T09:12:58.000Z</time>
      </trkpt>
      <trkpt lat="49.29094" lon="-0.1253">
        <ele>9.429316</ele>
        <time>2022-08-06T09:12:59.000Z</time>
      </trkpt>
      <trkpt lat="49.29095" lon="-0.12524">
        <ele>9.414463</ele>
        <time>2022-08-06T09:13:00.000Z</time>
      </trkpt>
      <trkpt lat="49.29096" lon="-0.12517">
        <ele>9.398647</ele>
        <time>2022-08-06T09:13:01.000Z</time>
      </trkpt>
      <trkpt lat="49.29097" lon="-0.1251">
        <ele>9.383317</ele>
        <time>2022-08-06T09:13:02.000Z</time>
      </trkpt>
      <trkpt lat="49.29099" lon="-0.12504">
        <ele>9.367174</ele>
        <time>2022-08-06T09:13:03.000Z</time>
      </trkpt>
      <trkpt lat="49.29101" lon="-0.12497">
        <ele>9.350019</ele>
        <time>2022-08-06T09:13:04.000Z</time>
      </trkpt>
      <trkpt lat="49.29102" lon="-0.1249">
        <ele>9.333237</ele>
        <time>2022-08-06T09:13:05.000Z</time>
      </trkpt>
      <trkpt lat="49.29104" lon="-0.12482">
        <ele>9.315453</ele>
        <time>2022-08-06T09:13:06.000Z</time>
      </trkpt>
      <trkpt lat="49.29105" lon="-0.12475">
        <ele>9.298133</ele>
        <time>2022-08-06T09:13:07.000Z</time>
      </trkpt>
      <trkpt lat="49.29107" lon="-0.12467">
        <ele>9.28014</ele>
        <time>2022-08-06T09:13:08.000Z</time>
      </trkpt>
      <trkpt lat="49.29109" lon="-0.1246">
        <ele>9.261725</ele>
        <time>2022-08-06T09:13:09.000Z</time>
      </trkpt>
      <trkpt lat="49.2911" lon="-0.12452">
        <ele>9.243071</ele>
        <time>2022-08-06T09:13:10.000Z</time>
      </trkpt>
      <trkpt lat="49.29112" lon="-0.12444">
        <ele>9.223808</ele>
        <time>2022-08-06T09:13:11.000Z</time>
      </trkpt>
      <trkpt lat="49.29114" lon="-0.12437">
        <ele>9.206862</ele>
        <time>2022-08-06T09:13:12.000Z</time>
      </trkpt>
      <trkpt lat="49.29116" lon="-0.12431">
        <ele>9.192342</ele>
        <time>2022-08-06T09:13:13.000Z</time>
      </trkpt>
      <trkpt lat="49.29117" lon="-0.12425">
        <ele>9.179319</ele>
        <time>2022-08-06T09:13:14.000Z</time>
      </trkpt>
      <trkpt lat="49.29118" lon="-0.12421">
        <ele>9.167524</ele>
        <time>2022-08-06T09:13:15.000Z</time>
      </trkpt>
      <trkpt lat="49.29119" lon="-0.12417">
        <ele>9.156327</ele>
        <time>2022-08-06T09:13:16.000Z</time>
      </trkpt>
      <trkpt lat="49.29121" lon="-0.12412">
        <ele>9.140976</ele>
        <time>2022-08-06T09:13:17.000Z</time>
      </trkpt>
      <trkpt lat="49.29122" lon="-0.12408">
        <ele>9.126793</ele>
        <time>2022-08-06T09:13:18.000Z</time>
      </trkpt>
      <trkpt lat="49.29124" lon="-0.12404">
        <ele>9.111983</ele>
        <time>2022-08-06T09:13:19.000Z</time>
      </trkpt>
      <trkpt lat="49.29125" lon="-0.124">
        <ele>9.097278</ele>
        <time>2022-08-06T09:13:20.000Z</time>
      </trkpt>
      <trkpt lat="49.29125" lon="-0.12395">
        <ele>9.082782</ele>
        <time>2022-08-06T09:13:21.000Z</time>
      </trkpt>
      <trkpt lat="49.29126" lon="-0.12391">
        <ele>9.067778</ele>
        <time>2022-08-06T09:13:22.000Z</time>
      </trkpt>
      <trkpt lat="49.29127" lon="-0.12387">
        <ele>9.053963</ele>
        <time>2022-08-06T09:13:23.000Z</time>
      </trkpt>
      <trkpt lat="49.29128" lon="-0.12382">
        <ele>9.039409</ele>
        <time>2022-08-06T09:13:24.000Z</time>
      </trkpt>
      <trkpt lat="49.29129" lon="-0.12378">
        <ele>9.025422</ele>
        <time>2022-08-06T09:13:25.000Z</time>
      </trkpt>
      <trkpt lat="49.2913" lon="-0.12374">
        <ele>9.010078</ele>
        <time>2022-08-06T09:13:26.000Z</time>
      </trkpt>
      <trkpt lat="49.29131" lon="-0.12369">
        <ele>8.995967</ele>
        <time>2022-08-06T09:13:27.000Z</time>
      </trkpt>
      <trkpt lat="49.29132" lon="-0.12365">
        <ele>8.982152</ele>
        <time>2022-08-06T09:13:28.000Z</time>
      </trkpt>
      <trkpt lat="49.29133" lon="-0.12361">
        <ele>8.9682</ele>
        <time>2022-08-06T09:13:29.000Z</time>
      </trkpt>
      <trkpt lat="49.29134" lon="-0.12357">
        <ele>8.953196</ele>
        <time>2022-08-06T09:13:30.000Z</time>
      </trkpt>
      <trkpt lat="49.29135" lon="-0.12352">
        <ele>8.9387</ele>
        <time>2022-08-06T09:13:31.000Z</time>
      </trkpt>
      <trkpt lat="49.29135" lon="-0.12347">
        <ele>8.923177</ele>
        <time>2022-08-06T09:13:32.000Z</time>
      </trkpt>
      <trkpt lat="49.29136" lon="-0.12343">
        <ele>8.907717</ele>
        <time>2022-08-06T09:13:33.000Z</time>
      </trkpt>
      <trkpt lat="49.29137" lon="-0.12338">
        <ele>8.891814</ele>
        <time>2022-08-06T09:13:34.000Z</time>
      </trkpt>
      <trkpt lat="49.29139" lon="-0.12333">
        <ele>8.875119</ele>
        <time>2022-08-06T09:13:35.000Z</time>
      </trkpt>
      <trkpt lat="49.29139" lon="-0.12328">
        <ele>8.859074</ele>
        <time>2022-08-06T09:13:36.000Z</time>
      </trkpt>
      <trkpt lat="49.29141" lon="-0.12323">
        <ele>8.84262</ele>
        <time>2022-08-06T09:13:37.000Z</time>
      </trkpt>
      <trkpt lat="49.29142" lon="-0.12318">
        <ele>8.825925</ele>
        <time>2022-08-06T09:13:38.000Z</time>
      </trkpt>
      <trkpt lat="49.29144" lon="-0.12313">
        <ele>8.808348</ele>
        <time>2022-08-06T09:13:39.000Z</time>
      </trkpt>
      <trkpt lat="49.29145" lon="-0.12308">
        <ele>8.791673</ele>
        <time>2022-08-06T09:13:40.000Z</time>
      </trkpt>
      <trkpt lat="49.29146" lon="-0.12303">
        <ele>8.774978</ele>
        <time>2022-08-06T09:13:41.000Z</time>
      </trkpt>
      <trkpt lat="49.29147" lon="-0.12299">
        <ele>8.759156</ele>
        <time>2022-08-06T09:13:42.000Z</time>
      </trkpt>
      <trkpt lat="49.29149" lon="-0.12294">
        <ele>8.741862</ele>
        <time>2022-08-06T09:13:43.000Z</time>
      </trkpt>
      <trkpt lat="49.2915" lon="-0.12289">
        <ele>8.726039</ele>
        <time>2022-08-06T09:13:44.000Z</time>
      </trkpt>
      <trkpt lat="49.29151" lon="-0.12285">
        <ele>8.710925</ele>
        <time>2022-08-06T09:13:45.000Z</time>
      </trkpt>
      <trkpt lat="49.29152" lon="-0.1228">
        <ele>8.694521</ele>
        <time>2022-08-06T09:13:46.000Z</time>
      </trkpt>
      <trkpt lat="49.29153" lon="-0.12275">
        <ele>8.678787</ele>
        <time>2022-08-06T09:13:47.000Z</time>
      </trkpt>
      <trkpt lat="49.29154" lon="-0.1227">
        <ele>8.662383</ele>
        <time>2022-08-06T09:13:48.000Z</time>
      </trkpt>
      <trkpt lat="49.29155" lon="-0.12265">
        <ele>8.645878</ele>
        <time>2022-08-06T09:13:49.000Z</time>
      </trkpt>
      <trkpt lat="49.29157" lon="-0.1226">
        <ele>8.628865</ele>
        <time>2022-08-06T09:13:50.000Z</time>
      </trkpt>
      <trkpt lat="49.29158" lon="-0.12255">
        <ele>8.610699</ele>
        <time>2022-08-06T09:13:51.000Z</time>
      </trkpt>
      <trkpt lat="49.29159" lon="-0.1225">
        <ele>8.593414</ele>
        <time>2022-08-06T09:13:52.000Z</time>
      </trkpt>
      <trkpt lat="49.2916" lon="-0.12244">
        <ele>8.574982</ele>
        <time>2022-08-06T09:13:53.000Z</time>
      </trkpt>
      <trkpt lat="49.29162" lon="-0.12239">
        <ele>8.556815</ele>
        <time>2022-08-06T09:13:54.000Z</time>
      </trkpt>
      <trkpt lat="49.29163" lon="-0.12233">
        <ele>8.538353</ele>
        <time>2022-08-06T09:13:55.000Z</time>
      </trkpt>
      <trkpt lat="49.29165" lon="-0.12228">
        <ele>8.519921</ele>
        <time>2022-08-06T09:13:56.000Z</time>
      </trkpt>
      <trkpt lat="49.29165" lon="-0.12222">
        <ele>8.501698</ele>
        <time>2022-08-06T09:13:57.000Z</time>
      </trkpt>
      <trkpt lat="49.29167" lon="-0.12217">
        <ele>8.482692</ele>
        <time>2022-08-06T09:13:58.000Z</time>
      </trkpt>
      <trkpt lat="49.29169" lon="-0.12211">
        <ele>8.462208</ele>
        <time>2022-08-06T09:13:59.000Z</time>
      </trkpt>
      <trkpt lat="49.2917" lon="-0.12205">
        <ele>8.44175</ele>
        <time>2022-08-06T09:14:00.000Z</time>
      </trkpt>
      <trkpt lat="49.29172" lon="-0.12199">
        <ele>8.420484</ele>
        <time>2022-08-06T09:14:01.000Z</time>
      </trkpt>
      <trkpt lat="49.29173" lon="-0.12193">
        <ele>8.400438</ele>
        <time>2022-08-06T09:14:02.000Z</time>
      </trkpt>
      <trkpt lat="49.29174" lon="-0.12187">
        <ele>8.380184</ele>
        <time>2022-08-06T09:14:03.000Z</time>
      </trkpt>
      <trkpt lat="49.29176" lon="-0.12181">
        <ele>8.360599</ele>
        <time>2022-08-06T09:14:04.000Z</time>
      </trkpt>
      <trkpt lat="49.29177" lon="-0.12175">
        <ele>8.341666</ele>
        <time>2022-08-06T09:14:05.000Z</time>
      </trkpt>
      <trkpt lat="49.29179" lon="-0.12169">
        <ele>8.3215</ele>
        <time>2022-08-06T09:14:06.000Z</time>
      </trkpt>
      <trkpt lat="49.2918" lon="-0.12163">
        <ele>8.301391</ele>
        <time>2022-08-06T09:14:07.000Z</time>
      </trkpt>
      <trkpt lat="49.29181" lon="-0.12157">
        <ele>8.287836</ele>
        <time>2022-08-06T09:14:08.000Z</time>
      </trkpt>
      <trkpt lat="49.29182" lon="-0.1215">
        <ele>8.283742</ele>
        <time>2022-08-06T09:14:09.000Z</time>
      </trkpt>
      <trkpt lat="49.29184" lon="-0.12144">
        <ele>8.279376</ele>
        <time>2022-08-06T09:14:10.000Z</time>
      </trkpt>
      <trkpt lat="49.29186" lon="-0.12137">
        <ele>8.275208</ele>
        <time>2022-08-06T09:14:11.000Z</time>
      </trkpt>
      <trkpt lat="49.29187" lon="-0.12131">
        <ele>8.271274</ele>
        <time>2022-08-06T09:14:12.000Z</time>
      </trkpt>
      <trkpt lat="49.29188" lon="-0.12125">
        <ele>8.267165</ele>
        <time>2022-08-06T09:14:13.000Z</time>
      </trkpt>
      <trkpt lat="49.2919" lon="-0.12118">
        <ele>8.262907</ele>
        <time>2022-08-06T09:14:14.000Z</time>
      </trkpt>
      <trkpt lat="49.29191" lon="-0.12112">
        <ele>8.258648</ele>
        <time>2022-08-06T09:14:15.000Z</time>
      </trkpt>
      <trkpt lat="49.29193" lon="-0.12106">
        <ele>8.254625</ele>
        <time>2022-08-06T09:14:16.000Z</time>
      </trkpt>
      <trkpt lat="49.29195" lon="-0.12099">
        <ele>8.250108</ele>
        <time>2022-08-06T09:14:17.000Z</time>
      </trkpt>
      <trkpt lat="49.29196" lon="-0.12092">
        <ele>8.245849</ele>
        <time>2022-08-06T09:14:18.000Z</time>
      </trkpt>
      <trkpt lat="49.29198" lon="-0.12086">
        <ele>8.24159</ele>
        <time>2022-08-06T09:14:19.000Z</time>
      </trkpt>
      <trkpt lat="49.29199" lon="-0.12079">
        <ele>8.237517</ele>
        <time>2022-08-06T09:14:20.000Z</time>
      </trkpt>
      <trkpt lat="49.292" lon="-0.12073">
        <ele>8.233201</ele>
        <time>2022-08-06T09:14:21.000Z</time>
      </trkpt>
      <trkpt lat="49.29202" lon="-0.12066">
        <ele>8.228827</ele>
        <time>2022-08-06T09:14:22.000Z</time>
      </trkpt>
      <trkpt lat="49.29204" lon="-0.12059">
        <ele>8.224454</ele>
        <time>2022-08-06T09:14:23.000Z</time>
      </trkpt>
      <trkpt lat="49.29205" lon="-0.12053">
        <ele>8.22011</ele>
        <time>2022-08-06T09:14:24.000Z</time>
      </trkpt>
      <trkpt lat="49.29206" lon="-0.12046">
        <ele>8.215825</ele>
        <time>2022-08-06T09:14:25.000Z</time>
      </trkpt>
      <trkpt lat="49.29207" lon="-0.12039">
        <ele>8.211599</ele>
        <time>2022-08-06T09:14:26.000Z</time>
      </trkpt>
      <trkpt lat="49.29209" lon="-0.12033">
        <ele>8.20734</ele>
        <time>2022-08-06T09:14:27.000Z</time>
      </trkpt>
      <trkpt lat="49.2921" lon="-0.12026">
        <ele>8.203055</ele>
        <time>2022-08-06T09:14:28.000Z</time>
      </trkpt>
      <trkpt lat="49.29212" lon="-0.12019">
        <ele>8.198688</ele>
        <time>2022-08-06T09:14:29.000Z</time>
      </trkpt>
      <trkpt lat="49.29213" lon="-0.12013">
        <ele>8.194544</ele>
        <time>2022-08-06T09:14:30.000Z</time>
      </trkpt>
      <trkpt lat="49.29214" lon="-0.12007">
        <ele>8.19057</ele>
        <time>2022-08-06T09:14:31.000Z</time>
      </trkpt>
      <trkpt lat="49.29216" lon="-0.12">
        <ele>8.186368</ele>
        <time>2022-08-06T09:14:32.000Z</time>
      </trkpt>
      <trkpt lat="49.29217" lon="-0.11994">
        <ele>8.182647</ele>
        <time>2022-08-06T09:14:33.000Z</time>
      </trkpt>
      <trkpt lat="49.29218" lon="-0.11988">
        <ele>8.178674</ele>
        <time>2022-08-06T09:14:34.000Z</time>
      </trkpt>
      <trkpt lat="49.2922" lon="-0.11983">
        <ele>8.174814</ele>
        <time>2022-08-06T09:14:35.000Z</time>
      </trkpt>
      <trkpt lat="49.29221" lon="-0.11977">
        <ele>8.170953</ele>
        <time>2022-08-06T09:14:36.000Z</time>
      </trkpt>
      <trkpt lat="49.29222" lon="-0.11971">
        <ele>8.167217</ele>
        <time>2022-08-06T09:14:37.000Z</time>
      </trkpt>
      <trkpt lat="49.29223" lon="-0.11965">
        <ele>8.163539</ele>
        <time>2022-08-06T09:14:38.000Z</time>
      </trkpt>
      <trkpt lat="49.29224" lon="-0.1196">
        <ele>8.160063</ele>
        <time>2022-08-06T09:14:39.000Z</time>
      </trkpt>
      <trkpt lat="49.29226" lon="-0.11954">
        <ele>8.156649</ele>
        <time>2022-08-06T09:14:40.000Z</time>
      </trkpt>
      <trkpt lat="49.29227" lon="-0.11949">
        <ele>8.153236</ele>
        <time>2022-08-06T09:14:41.000Z</time>
      </trkpt>
      <trkpt lat="49.29228" lon="-0.11944">
        <ele>8.15003</ele>
        <time>2022-08-06T09:14:42.000Z</time>
      </trkpt>
      <trkpt lat="49.29229" lon="-0.11939">
        <ele>8.146764</ele>
        <time>2022-08-06T09:14:43.000Z</time>
      </trkpt>
      <trkpt lat="49.29231" lon="-0.11935">
        <ele>8.143729</ele>
        <time>2022-08-06T09:14:44.000Z</time>
      </trkpt>
      <trkpt lat="49.29232" lon="-0.1193">
        <ele>8.140699</ele>
        <time>2022-08-06T09:14:45.000Z</time>
      </trkpt>
      <trkpt lat="49.29232" lon="-0.11926">
        <ele>8.138048</ele>
        <time>2022-08-06T09:14:46.000Z</time>
      </trkpt>
      <trkpt lat="49.29233" lon="-0.11922">
        <ele>8.135249</ele>
        <time>2022-08-06T09:14:47.000Z</time>
      </trkpt>
      <trkpt lat="49.29234" lon="-0.11917">
        <ele>8.132494</ele>
        <time>2022-08-06T09:14:48.000Z</time>
      </trkpt>
      <trkpt lat="49.29234" lon="-0.11913">
        <ele>8.130026</ele>
        <time>2022-08-06T09:14:49.000Z</time>
      </trkpt>
      <trkpt lat="49.29234" lon="-0.1191">
        <ele>8.127801</ele>
        <time>2022-08-06T09:14:50.000Z</time>
      </trkpt>
      <trkpt lat="49.29233" lon="-0.11907">
        <ele>8.125936</ele>
        <time>2022-08-06T09:14:51.000Z</time>
      </trkpt>
      <trkpt lat="49.29233" lon="-0.11902">
        <ele>8.123041</ele>
        <time>2022-08-06T09:14:53.000Z</time>
      </trkpt>
      <trkpt lat="49.29233" lon="-0.11898">
        <ele>8.121188</ele>
        <time>2022-08-06T09:14:55.000Z</time>
      </trkpt>
      <trkpt lat="49.29236" lon="-0.11895">
        <ele>8.123473</ele>
        <time>2022-08-06T09:14:57.000Z</time>
      </trkpt>
      <trkpt lat="49.29238" lon="-0.11895">
        <ele>8.125839</ele>
        <time>2022-08-06T09:14:59.000Z</time>
      </trkpt>
      <trkpt lat="49.29241" lon="-0.11894">
        <ele>8.127629</ele>
        <time>2022-08-06T09:15:00.000Z</time>
      </trkpt>
      <trkpt lat="49.29243" lon="-0.11892">
        <ele>8.130117</ele>
        <time>2022-08-06T09:15:02.000Z</time>
      </trkpt>
      <trkpt lat="49.29245" lon="-0.11888">
        <ele>8.132734</ele>
        <time>2022-08-06T09:15:04.000Z</time>
      </trkpt>
      <trkpt lat="49.29247" lon="-0.11885">
        <ele>8.134834</ele>
        <time>2022-08-06T09:15:06.000Z</time>
      </trkpt>
      <trkpt lat="49.2925" lon="-0.11884">
        <ele>8.137283</ele>
        <time>2022-08-06T09:15:08.000Z</time>
      </trkpt>
      <trkpt lat="49.29253" lon="-0.11884">
        <ele>8.139407</ele>
        <time>2022-08-06T09:15:10.000Z</time>
      </trkpt>
      <trkpt lat="49.29254" lon="-0.11885">
        <ele>8.141036</ele>
        <time>2022-08-06T09:15:11.000Z</time>
      </trkpt>
      <trkpt lat="49.29256" lon="-0.11886">
        <ele>8.142664</ele>
        <time>2022-08-06T09:15:12.000Z</time>
      </trkpt>
      <trkpt lat="49.29258" lon="-0.11888">
        <ele>8.144185</ele>
        <time>2022-08-06T09:15:14.000Z</time>
      </trkpt>
      <trkpt lat="49.29259" lon="-0.11897">
        <ele>8.149012</ele>
        <time>2022-08-06T09:15:30.000Z</time>
      </trkpt>
      <trkpt lat="49.29257" lon="-0.11898">
        <ele>8.150609</ele>
        <time>2022-08-06T09:15:31.000Z</time>
      </trkpt>
      <trkpt lat="49.29254" lon="-0.11898">
        <ele>8.152733</ele>
        <time>2022-08-06T09:15:32.000Z</time>
      </trkpt>
      <trkpt lat="49.29252" lon="-0.11898">
        <ele>8.15452</ele>
        <time>2022-08-06T09:15:33.000Z</time>
      </trkpt>
      <trkpt lat="49.2925" lon="-0.11899">
        <ele>8.156432</ele>
        <time>2022-08-06T09:15:34.000Z</time>
      </trkpt>
      <trkpt lat="49.29248" lon="-0.11901">
        <ele>8.158454</ele>
        <time>2022-08-06T09:15:35.000Z</time>
      </trkpt>
      <trkpt lat="49.29246" lon="-0.11903">
        <ele>8.160449</ele>
        <time>2022-08-06T09:15:36.000Z</time>
      </trkpt>
      <trkpt lat="49.29244" lon="-0.11906">
        <ele>8.162301</ele>
        <time>2022-08-06T09:15:37.000Z</time>
      </trkpt>
      <trkpt lat="49.29243" lon="-0.11908">
        <ele>8.164079</ele>
        <time>2022-08-06T09:15:38.000Z</time>
      </trkpt>
      <trkpt lat="49.29241" lon="-0.1191">
        <ele>8.165649</ele>
        <time>2022-08-06T09:15:39.000Z</time>
      </trkpt>
      <trkpt lat="49.2924" lon="-0.11913">
        <ele>8.167427</ele>
        <time>2022-08-06T09:15:40.000Z</time>
      </trkpt>
      <trkpt lat="49.29238" lon="-0.11915">
        <ele>8.169036</ele>
        <time>2022-08-06T09:15:41.000Z</time>
      </trkpt>
      <trkpt lat="49.29237" lon="-0.11917">
        <ele>8.170587</ele>
        <time>2022-08-06T09:15:43.000Z</time>
      </trkpt>
      <trkpt lat="49.2923" lon="-0.11913">
        <ele>8.176803</ele>
        <time>2022-08-06T09:15:51.000Z</time>
      </trkpt>
      <trkpt lat="49.29229" lon="-0.1191">
        <ele>8.178373</ele>
        <time>2022-08-06T09:15:52.000Z</time>
      </trkpt>
      <trkpt lat="49.29227" lon="-0.11908">
        <ele>8.180736</ele>
        <time>2022-08-06T09:15:54.000Z</time>
      </trkpt>
      <trkpt lat="49.29216" lon="-0.11905">
        <ele>8.189267</ele>
        <time>2022-08-06T09:16:10.000Z</time>
      </trkpt>
      <trkpt lat="49.29214" lon="-0.11904">
        <ele>8.191327</ele>
        <time>2022-08-06T09:16:12.000Z</time>
      </trkpt>
      <trkpt lat="49.29212" lon="-0.11903">
        <ele>8.193239</ele>
        <time>2022-08-06T09:16:14.000Z</time>
      </trkpt>
      <trkpt lat="49.29208" lon="-0.11904">
        <ele>8.195852</ele>
        <time>2022-08-06T09:16:16.000Z</time>
      </trkpt>
      <trkpt lat="49.29206" lon="-0.11905">
        <ele>8.197561</ele>
        <time>2022-08-06T09:16:18.000Z</time>
      </trkpt>
      <trkpt lat="49.292" lon="-0.11904">
        <ele>8.203067</ele>
        <time>2022-08-06T09:16:44.000Z</time>
      </trkpt>
      <trkpt lat="49.29197" lon="-0.11902">
        <ele>8.205737</ele>
        <time>2022-08-06T09:16:45.000Z</time>
      </trkpt>
      <trkpt lat="49.29194" lon="-0.11901">
        <ele>8.20799</ele>
        <time>2022-08-06T09:16:46.000Z</time>
      </trkpt>
      <trkpt lat="49.2919" lon="-0.11898">
        <ele>8.211567</ele>
        <time>2022-08-06T09:16:47.000Z</time>
      </trkpt>
      <trkpt lat="49.29187" lon="-0.11896">
        <ele>8.214368</ele>
        <time>2022-08-06T09:16:48.000Z</time>
      </trkpt>
      <trkpt lat="49.29183" lon="-0.11895">
        <ele>8.217344</ele>
        <time>2022-08-06T09:16:49.000Z</time>
      </trkpt>
      <trkpt lat="49.2918" lon="-0.11893">
        <ele>8.219971</ele>
        <time>2022-08-06T09:16:51.000Z</time>
      </trkpt>
      <trkpt lat="49.29181" lon="-0.1189">
        <ele>8.221579</ele>
        <time>2022-08-06T09:16:53.000Z</time>
      </trkpt>
      <trkpt lat="49.29184" lon="-0.11892">
        <ele>8.224096</ele>
        <time>2022-08-06T09:16:55.000Z</time>
      </trkpt>
      <trkpt lat="49.29186" lon="-0.11894">
        <ele>8.226575</ele>
        <time>2022-08-06T09:16:56.000Z</time>
      </trkpt>
      <trkpt lat="49.29189" lon="-0.11897">
        <ele>8.228892</ele>
        <time>2022-08-06T09:16:57.000Z</time>
      </trkpt>
      <trkpt lat="49.2919" lon="-0.11899">
        <ele>8.230822</ele>
        <time>2022-08-06T09:16:58.000Z</time>
      </trkpt>
      <trkpt lat="49.29192" lon="-0.11901">
        <ele>8.232554</ele>
        <time>2022-08-06T09:16:59.000Z</time>
      </trkpt>
      <trkpt lat="49.29195" lon="-0.11901">
        <ele>8.234704</ele>
        <time>2022-08-06T09:17:00.000Z</time>
      </trkpt>
      <trkpt lat="49.29198" lon="-0.11902">
        <ele>8.237084</ele>
        <time>2022-08-06T09:17:01.000Z</time>
      </trkpt>
      <trkpt lat="49.29201" lon="-0.11903">
        <ele>8.239456</ele>
        <time>2022-08-06T09:17:02.000Z</time>
      </trkpt>
      <trkpt lat="49.29204" lon="-0.11904">
        <ele>8.242093</ele>
        <time>2022-08-06T09:17:03.000Z</time>
      </trkpt>
      <trkpt lat="49.29206" lon="-0.11905">
        <ele>8.244225</ele>
        <time>2022-08-06T09:17:04.000Z</time>
      </trkpt>
      <trkpt lat="49.29209" lon="-0.11905">
        <ele>8.246009</ele>
        <time>2022-08-06T09:17:05.000Z</time>
      </trkpt>
      <trkpt lat="49.29212" lon="-0.11904">
        <ele>8.248935</ele>
        <time>2022-08-06T09:17:06.000Z</time>
      </trkpt>
      <trkpt lat="49.29215" lon="-0.11904">
        <ele>8.250963</ele>
        <time>2022-08-06T09:17:07.000Z</time>
      </trkpt>
      <trkpt lat="49.29218" lon="-0.11904">
        <ele>8.253565</ele>
        <time>2022-08-06T09:17:08.000Z</time>
      </trkpt>
      <trkpt lat="49.29221" lon="-0.11904">
        <ele>8.256164</ele>
        <time>2022-08-06T09:17:09.000Z</time>
      </trkpt>
      <trkpt lat="49.29224" lon="-0.11904">
        <ele>8.258275</ele>
        <time>2022-08-06T09:17:10.000Z</time>
      </trkpt>
      <trkpt lat="49.29227" lon="-0.11903">
        <ele>8.260641</ele>
        <time>2022-08-06T09:17:11.000Z</time>
      </trkpt>
      <trkpt lat="49.2923" lon="-0.11902">
        <ele>8.263288</ele>
        <time>2022-08-06T09:17:12.000Z</time>
      </trkpt>
      <trkpt lat="49.29233" lon="-0.11901">
        <ele>8.265619</ele>
        <time>2022-08-06T09:17:13.000Z</time>
      </trkpt>
      <trkpt lat="49.29236" lon="-0.119">
        <ele>8.275772</ele>
        <time>2022-08-06T09:17:14.000Z</time>
      </trkpt>
      <trkpt lat="49.29238" lon="-0.11898">
        <ele>8.288252</ele>
        <time>2022-08-06T09:17:15.000Z</time>
      </trkpt>
      <trkpt lat="49.29242" lon="-0.11895">
        <ele>8.303922</ele>
        <time>2022-08-06T09:17:16.000Z</time>
      </trkpt>
      <trkpt lat="49.29244" lon="-0.11892">
        <ele>8.316553</ele>
        <time>2022-08-06T09:17:17.000Z</time>
      </trkpt>
      <trkpt lat="49.29246" lon="-0.11889">
        <ele>8.329691</ele>
        <time>2022-08-06T09:17:18.000Z</time>
      </trkpt>
      <trkpt lat="49.29249" lon="-0.11885">
        <ele>8.347392</ele>
        <time>2022-08-06T09:17:19.000Z</time>
      </trkpt>
      <trkpt lat="49.29251" lon="-0.11881">
        <ele>8.359124</ele>
        <time>2022-08-06T09:17:20.000Z</time>
      </trkpt>
      <trkpt lat="49.29253" lon="-0.11877">
        <ele>8.374359</ele>
        <time>2022-08-06T09:17:21.000Z</time>
      </trkpt>
      <trkpt lat="49.29254" lon="-0.11871">
        <ele>8.393021</ele>
        <time>2022-08-06T09:17:22.000Z</time>
      </trkpt>
      <trkpt lat="49.29256" lon="-0.11867">
        <ele>8.40603</ele>
        <time>2022-08-06T09:17:23.000Z</time>
      </trkpt>
      <trkpt lat="49.29257" lon="-0.11861">
        <ele>8.422398</ele>
        <time>2022-08-06T09:17:24.000Z</time>
      </trkpt>
      <trkpt lat="49.29258" lon="-0.11856">
        <ele>8.438265</ele>
        <time>2022-08-06T09:17:25.000Z</time>
      </trkpt>
      <trkpt lat="49.29259" lon="-0.1185">
        <ele>8.454634</ele>
        <time>2022-08-06T09:17:26.000Z</time>
      </trkpt>
      <trkpt lat="49.29261" lon="-0.11845">
        <ele>8.472049</ele>
        <time>2022-08-06T09:17:27.000Z</time>
      </trkpt>
      <trkpt lat="49.29262" lon="-0.11839">
        <ele>8.487218</ele>
        <time>2022-08-06T09:17:28.000Z</time>
      </trkpt>
      <trkpt lat="49.29263" lon="-0.11834">
        <ele>8.50385</ele>
        <time>2022-08-06T09:17:29.000Z</time>
      </trkpt>
      <trkpt lat="49.29264" lon="-0.11828">
        <ele>8.519177</ele>
        <time>2022-08-06T09:17:30.000Z</time>
      </trkpt>
      <trkpt lat="49.29265" lon="-0.11823">
        <ele>8.534615</ele>
        <time>2022-08-06T09:17:31.000Z</time>
      </trkpt>
      <trkpt lat="49.29266" lon="-0.11818">
        <ele>8.550313</ele>
        <time>2022-08-06T09:17:32.000Z</time>
      </trkpt>
      <trkpt lat="49.29268" lon="-0.11813">
        <ele>8.565374</ele>
        <time>2022-08-06T09:17:33.000Z</time>
      </trkpt>
      <trkpt lat="49.29269" lon="-0.11808">
        <ele>8.580956</ele>
        <time>2022-08-06T09:17:34.000Z</time>
      </trkpt>
      <trkpt lat="49.2927" lon="-0.11803">
        <ele>8.595055</ele>
        <time>2022-08-06T09:17:35.000Z</time>
      </trkpt>
      <trkpt lat="49.29271" lon="-0.11798">
        <ele>8.608659</ele>
        <time>2022-08-06T09:17:36.000Z</time>
      </trkpt>
      <trkpt lat="49.29272" lon="-0.11794">
        <ele>8.621603</ele>
        <time>2022-08-06T09:17:37.000Z</time>
      </trkpt>
      <trkpt lat="49.29272" lon="-0.11789">
        <ele>8.636379</ele>
        <time>2022-08-06T09:17:38.000Z</time>
      </trkpt>
      <trkpt lat="49.29274" lon="-0.11784">
        <ele>8.64964</ele>
        <time>2022-08-06T09:17:39.000Z</time>
      </trkpt>
      <trkpt lat="49.29275" lon="-0.1178">
        <ele>8.663412</ele>
        <time>2022-08-06T09:17:40.000Z</time>
      </trkpt>
      <trkpt lat="49.29276" lon="-0.11776">
        <ele>8.674623</ele>
        <time>2022-08-06T09:17:41.000Z</time>
      </trkpt>
      <trkpt lat="49.29276" lon="-0.11771">
        <ele>8.689754</ele>
        <time>2022-08-06T09:17:42.000Z</time>
      </trkpt>
      <trkpt lat="49.29277" lon="-0.11765">
        <ele>8.705452</ele>
        <time>2022-08-06T09:17:43.000Z</time>
      </trkpt>
      <trkpt lat="49.29279" lon="-0.1176">
        <ele>8.72154</ele>
        <time>2022-08-06T09:17:44.000Z</time>
      </trkpt>
      <trkpt lat="49.2928" lon="-0.11755">
        <ele>8.736978</ele>
        <time>2022-08-06T09:17:45.000Z</time>
      </trkpt>
      <trkpt lat="49.29282" lon="-0.11749">
        <ele>8.753829</ele>
        <time>2022-08-06T09:17:46.000Z</time>
      </trkpt>
      <trkpt lat="49.29283" lon="-0.11743">
        <ele>8.771707</ele>
        <time>2022-08-06T09:17:47.000Z</time>
      </trkpt>
      <trkpt lat="49.29284" lon="-0.11736">
        <ele>8.791758</ele>
        <time>2022-08-06T09:17:48.000Z</time>
      </trkpt>
      <trkpt lat="49.29285" lon="-0.1173">
        <ele>8.808985</ele>
        <time>2022-08-06T09:17:49.000Z</time>
      </trkpt>
      <trkpt lat="49.29287" lon="-0.11725">
        <ele>8.826647</ele>
        <time>2022-08-06T09:17:50.000Z</time>
      </trkpt>
      <trkpt lat="49.29289" lon="-0.11719">
        <ele>8.844011</ele>
        <time>2022-08-06T09:17:51.000Z</time>
      </trkpt>
      <trkpt lat="49.2929" lon="-0.11714">
        <ele>8.859987</ele>
        <time>2022-08-06T09:17:52.000Z</time>
      </trkpt>
      <trkpt lat="49.29291" lon="-0.11708">
        <ele>8.877607</ele>
        <time>2022-08-06T09:17:53.000Z</time>
      </trkpt>
      <trkpt lat="49.29292" lon="-0.11703">
        <ele>8.892777</ele>
        <time>2022-08-06T09:17:54.000Z</time>
      </trkpt>
      <trkpt lat="49.29293" lon="-0.11698">
        <ele>8.905946</ele>
        <time>2022-08-06T09:17:55.000Z</time>
      </trkpt>
      <trkpt lat="49.29294" lon="-0.11694">
        <ele>8.918076</ele>
        <time>2022-08-06T09:17:56.000Z</time>
      </trkpt>
      <trkpt lat="49.29295" lon="-0.1169">
        <ele>8.929388</ele>
        <time>2022-08-06T09:17:57.000Z</time>
      </trkpt>
      <trkpt lat="49.29295" lon="-0.11686">
        <ele>8.940167</ele>
        <time>2022-08-06T09:17:58.000Z</time>
      </trkpt>
      <trkpt lat="49.29296" lon="-0.11682">
        <ele>8.951652</ele>
        <time>2022-08-06T09:17:59.000Z</time>
      </trkpt>
      <trkpt lat="49.29297" lon="-0.11678">
        <ele>8.9639</ele>
        <time>2022-08-06T09:18:00.000Z</time>
      </trkpt>
      <trkpt lat="49.29298" lon="-0.11674">
        <ele>8.97593</ele>
        <time>2022-08-06T09:18:01.000Z</time>
      </trkpt>
      <trkpt lat="49.29298" lon="-0.1167">
        <ele>8.98803</ele>
        <time>2022-08-06T09:18:02.000Z</time>
      </trkpt>
      <trkpt lat="49.29299" lon="-0.11665">
        <ele>9.000703</ele>
        <time>2022-08-06T09:18:03.000Z</time>
      </trkpt>
      <trkpt lat="49.29299" lon="-0.11661">
        <ele>9.013829</ele>
        <time>2022-08-06T09:18:04.000Z</time>
      </trkpt>
      <trkpt lat="49.293" lon="-0.11656">
        <ele>9.027878</ele>
        <time>2022-08-06T09:18:05.000Z</time>
      </trkpt>
      <trkpt lat="49.293" lon="-0.11651">
        <ele>9.036721</ele>
        <time>2022-08-06T09:18:06.000Z</time>
      </trkpt>
      <trkpt lat="49.293" lon="-0.11645">
        <ele>9.031648</ele>
        <time>2022-08-06T09:18:07.000Z</time>
      </trkpt>
      <trkpt lat="49.29301" lon="-0.1164">
        <ele>9.026529</ele>
        <time>2022-08-06T09:18:08.000Z</time>
      </trkpt>
      <trkpt lat="49.29301" lon="-0.11635">
        <ele>9.021472</ele>
        <time>2022-08-06T09:18:09.000Z</time>
      </trkpt>
      <trkpt lat="49.29302" lon="-0.1163">
        <ele>9.016327</ele>
        <time>2022-08-06T09:18:10.000Z</time>
      </trkpt>
      <trkpt lat="49.29303" lon="-0.11625">
        <ele>9.011302</ele>
        <time>2022-08-06T09:18:11.000Z</time>
      </trkpt>
      <trkpt lat="49.29303" lon="-0.1162">
        <ele>9.006167</ele>
        <time>2022-08-06T09:18:12.000Z</time>
      </trkpt>
      <trkpt lat="49.29304" lon="-0.11615">
        <ele>9.001401</ele>
        <time>2022-08-06T09:18:13.000Z</time>
      </trkpt>
      <trkpt lat="49.29305" lon="-0.1161">
        <ele>8.996655</ele>
        <time>2022-08-06T09:18:14.000Z</time>
      </trkpt>
      <trkpt lat="49.29305" lon="-0.11606">
        <ele>8.992255</ele>
        <time>2022-08-06T09:18:15.000Z</time>
      </trkpt>
      <trkpt lat="49.29305" lon="-0.11601">
        <ele>8.98739</ele>
        <time>2022-08-06T09:18:16.000Z</time>
      </trkpt>
      <trkpt lat="49.29306" lon="-0.11596">
        <ele>8.982815</ele>
        <time>2022-08-06T09:18:17.000Z</time>
      </trkpt>
      <trkpt lat="49.29307" lon="-0.11592">
        <ele>8.978665</ele>
        <time>2022-08-06T09:18:18.000Z</time>
      </trkpt>
      <trkpt lat="49.29307" lon="-0.11588">
        <ele>8.975148</ele>
        <time>2022-08-06T09:18:19.000Z</time>
      </trkpt>
      <trkpt lat="49.29307" lon="-0.11585">
        <ele>8.971728</ele>
        <time>2022-08-06T09:18:20.000Z</time>
      </trkpt>
      <trkpt lat="49.29307" lon="-0.11581">
        <ele>8.968308</ele>
        <time>2022-08-06T09:18:21.000Z</time>
      </trkpt>
      <trkpt lat="49.29306" lon="-0.11578">
        <ele>8.964606</ele>
        <time>2022-08-06T09:18:22.000Z</time>
      </trkpt>
      <trkpt lat="49.29305" lon="-0.11574">
        <ele>8.960787</ele>
        <time>2022-08-06T09:18:23.000Z</time>
      </trkpt>
      <trkpt lat="49.29303" lon="-0.11571">
        <ele>8.956957</ele>
        <time>2022-08-06T09:18:24.000Z</time>
      </trkpt>
      <trkpt lat="49.29302" lon="-0.11568">
        <ele>8.953381</ele>
        <time>2022-08-06T09:18:25.000Z</time>
      </trkpt>
      <trkpt lat="49.293" lon="-0.11565">
        <ele>8.949239</ele>
        <time>2022-08-06T09:18:26.000Z</time>
      </trkpt>
      <trkpt lat="49.29299" lon="-0.1156">
        <ele>8.944908</ele>
        <time>2022-08-06T09:18:27.000Z</time>
      </trkpt>
      <trkpt lat="49.29299" lon="-0.11556">
        <ele>8.94091</ele>
        <time>2022-08-06T09:18:28.000Z</time>
      </trkpt>
      <trkpt lat="49.29299" lon="-0.11552">
        <ele>8.936624</ele>
        <time>2022-08-06T09:18:29.000Z</time>
      </trkpt>
      <trkpt lat="49.29299" lon="-0.11548">
        <ele>8.932749</ele>
        <time>2022-08-06T09:18:30.000Z</time>
      </trkpt>
      <trkpt lat="49.29299" lon="-0.11544">
        <ele>8.928847</ele>
        <time>2022-08-06T09:18:31.000Z</time>
      </trkpt>
      <trkpt lat="49.293" lon="-0.1154">
        <ele>8.924871</ele>
        <time>2022-08-06T09:18:32.000Z</time>
      </trkpt>
      <trkpt lat="49.293" lon="-0.11536">
        <ele>8.921045</ele>
        <time>2022-08-06T09:18:33.000Z</time>
      </trkpt>
      <trkpt lat="49.29301" lon="-0.11532">
        <ele>8.917257</ele>
        <time>2022-08-06T09:18:34.000Z</time>
      </trkpt>
      <trkpt lat="49.29301" lon="-0.11528">
        <ele>8.91328</ele>
        <time>2022-08-06T09:18:35.000Z</time>
      </trkpt>
      <trkpt lat="49.29302" lon="-0.11525">
        <ele>8.909838</ele>
        <time>2022-08-06T09:18:36.000Z</time>
      </trkpt>
      <trkpt lat="49.29303" lon="-0.11521">
        <ele>8.906092</ele>
        <time>2022-08-06T09:18:37.000Z</time>
      </trkpt>
      <trkpt lat="49.29304" lon="-0.11518">
        <ele>8.902741</ele>
        <time>2022-08-06T09:18:38.000Z</time>
      </trkpt>
      <trkpt lat="49.29305" lon="-0.11516">
        <ele>8.899733</ele>
        <time>2022-08-06T09:18:39.000Z</time>
      </trkpt>
      <trkpt lat="49.29306" lon="-0.11513">
        <ele>8.897134</ele>
        <time>2022-08-06T09:18:40.000Z</time>
      </trkpt>
      <trkpt lat="49.29308" lon="-0.1151">
        <ele>8.892722</ele>
        <time>2022-08-06T09:18:42.000Z</time>
      </trkpt>
      <trkpt lat="49.2931" lon="-0.11507">
        <ele>8.888236</ele>
        <time>2022-08-06T09:18:44.000Z</time>
      </trkpt>
      <trkpt lat="49.29313" lon="-0.11503">
        <ele>8.883207</ele>
        <time>2022-08-06T09:18:46.000Z</time>
      </trkpt>
      <trkpt lat="49.29315" lon="-0.115">
        <ele>8.878393</ele>
        <time>2022-08-06T09:18:48.000Z</time>
      </trkpt>
      <trkpt lat="49.29317" lon="-0.11496">
        <ele>8.873981</ele>
        <time>2022-08-06T09:18:50.000Z</time>
      </trkpt>
      <trkpt lat="49.29319" lon="-0.11494">
        <ele>8.870262</ele>
        <time>2022-08-06T09:18:51.000Z</time>
      </trkpt>
      <trkpt lat="49.29321" lon="-0.11493">
        <ele>8.867308</ele>
        <time>2022-08-06T09:18:52.000Z</time>
      </trkpt>
      <trkpt lat="49.29323" lon="-0.11493">
        <ele>8.86433</ele>
        <time>2022-08-06T09:18:53.000Z</time>
      </trkpt>
      <trkpt lat="49.29325" lon="-0.11493">
        <ele>8.861493</ele>
        <time>2022-08-06T09:18:54.000Z</time>
      </trkpt>
      <trkpt lat="49.29327" lon="-0.11494">
        <ele>8.857678</ele>
        <time>2022-08-06T09:18:55.000Z</time>
      </trkpt>
      <trkpt lat="49.29329" lon="-0.11495">
        <ele>8.854174</ele>
        <time>2022-08-06T09:18:56.000Z</time>
      </trkpt>
      <trkpt lat="49.29333" lon="-0.11497">
        <ele>8.847913</ele>
        <time>2022-08-06T09:18:58.000Z</time>
      </trkpt>
      <trkpt lat="49.29337" lon="-0.11497">
        <ele>8.84315</ele>
        <time>2022-08-06T09:18:59.000Z</time>
      </trkpt>
      <trkpt lat="49.29339" lon="-0.11497">
        <ele>8.839268</ele>
        <time>2022-08-06T09:19:00.000Z</time>
      </trkpt>
      <trkpt lat="49.29342" lon="-0.11497">
        <ele>8.835404</ele>
        <time>2022-08-06T09:19:01.000Z</time>
      </trkpt>
      <trkpt lat="49.29345" lon="-0.11498">
        <ele>8.830553</ele>
        <time>2022-08-06T09:19:02.000Z</time>
      </trkpt>
      <trkpt lat="49.29348" lon="-0.115">
        <ele>8.826565</ele>
        <time>2022-08-06T09:19:03.000Z</time>
      </trkpt>
      <trkpt lat="49.29351" lon="-0.11501">
        <ele>8.821713</ele>
        <time>2022-08-06T09:19:04.000Z</time>
      </trkpt>
      <trkpt lat="49.29353" lon="-0.11502">
        <ele>8.817754</ele>
        <time>2022-08-06T09:19:05.000Z</time>
      </trkpt>
      <trkpt lat="49.29356" lon="-0.11503">
        <ele>8.813207</ele>
        <time>2022-08-06T09:19:06.000Z</time>
      </trkpt>
      <trkpt lat="49.29359" lon="-0.11505">
        <ele>8.808972</ele>
        <time>2022-08-06T09:19:07.000Z</time>
      </trkpt>
      <trkpt lat="49.29361" lon="-0.11508">
        <ele>8.805124</ele>
        <time>2022-08-06T09:19:08.000Z</time>
      </trkpt>
      <trkpt lat="49.29363" lon="-0.11511">
        <ele>8.801165</ele>
        <time>2022-08-06T09:19:09.000Z</time>
      </trkpt>
      <trkpt lat="49.29365" lon="-0.11513">
        <ele>8.797039</ele>
        <time>2022-08-06T09:19:10.000Z</time>
      </trkpt>
      <trkpt lat="49.29367" lon="-0.11516">
        <ele>8.793382</ele>
        <time>2022-08-06T09:19:11.000Z</time>
      </trkpt>
      <trkpt lat="49.29369" lon="-0.11517">
        <ele>8.78922</ele>
        <time>2022-08-06T09:19:12.000Z</time>
      </trkpt>
      <trkpt lat="49.29372" lon="-0.11519">
        <ele>8.785469</ele>
        <time>2022-08-06T09:19:13.000Z</time>
      </trkpt>
      <trkpt lat="49.29374" lon="-0.11521">
        <ele>8.781307</ele>
        <time>2022-08-06T09:19:14.000Z</time>
      </trkpt>
      <trkpt lat="49.29377" lon="-0.11521">
        <ele>8.776553</ele>
        <time>2022-08-06T09:19:16.000Z</time>
      </trkpt>
      <trkpt lat="49.2938" lon="-0.1152">
        <ele>8.772065</ele>
        <time>2022-08-06T09:19:18.000Z</time>
      </trkpt>
      <trkpt lat="49.29383" lon="-0.11518">
        <ele>8.783439</ele>
        <time>2022-08-06T09:19:20.000Z</time>
      </trkpt>
      <trkpt lat="49.29385" lon="-0.11519">
        <ele>8.794926</ele>
        <time>2022-08-06T09:19:22.000Z</time>
      </trkpt>
      <trkpt lat="49.29384" lon="-0.11516">
        <ele>8.807756</ele>
        <time>2022-08-06T09:20:07.000Z</time>
      </trkpt>
      <trkpt lat="49.29381" lon="-0.11518">
        <ele>8.826265</ele>
        <time>2022-08-06T09:20:46.000Z</time>
      </trkpt>
      <trkpt lat="49.2938" lon="-0.11518">
        <ele>8.837061</ele>
        <time>2022-08-06T09:20:47.000Z</time>
      </trkpt>
      <trkpt lat="49.29377" lon="-0.11519">
        <ele>8.849799</ele>
        <time>2022-08-06T09:20:48.000Z</time>
      </trkpt>
      <trkpt lat="49.29375" lon="-0.11521">
        <ele>8.864438</ele>
        <time>2022-08-06T09:20:49.000Z</time>
      </trkpt>
      <trkpt lat="49.29373" lon="-0.11524">
        <ele>8.881128</ele>
        <time>2022-08-06T09:20:50.000Z</time>
      </trkpt>
      <trkpt lat="49.29371" lon="-0.11527">
        <ele>8.897851</ele>
        <time>2022-08-06T09:20:51.000Z</time>
      </trkpt>
      <trkpt lat="49.29371" lon="-0.11532">
        <ele>8.913747</ele>
        <time>2022-08-06T09:20:52.000Z</time>
      </trkpt>
      <trkpt lat="49.2937" lon="-0.11536">
        <ele>8.930625</ele>
        <time>2022-08-06T09:20:53.000Z</time>
      </trkpt>
      <trkpt lat="49.29369" lon="-0.1154">
        <ele>8.94441</ele>
        <time>2022-08-06T09:20:54.000Z</time>
      </trkpt>
      <trkpt lat="49.29369" lon="-0.11543">
        <ele>8.959009</ele>
        <time>2022-08-06T09:20:55.000Z</time>
      </trkpt>
      <trkpt lat="49.29368" lon="-0.11548">
        <ele>8.977119</ele>
        <time>2022-08-06T09:20:56.000Z</time>
      </trkpt>
      <trkpt lat="49.29367" lon="-0.11552">
        <ele>8.992431</ele>
        <time>2022-08-06T09:20:57.000Z</time>
      </trkpt>
      <trkpt lat="49.29367" lon="-0.11557">
        <ele>9.009891</ele>
        <time>2022-08-06T09:20:58.000Z</time>
      </trkpt>
      <trkpt lat="49.29365" lon="-0.11561">
        <ele>9.026746</ele>
        <time>2022-08-06T09:20:59.000Z</time>
      </trkpt>
      <trkpt lat="49.29364" lon="-0.11565">
        <ele>9.043024</ele>
        <time>2022-08-06T09:21:00.000Z</time>
      </trkpt>
      <trkpt lat="49.29364" lon="-0.1157">
        <ele>9.060401</ele>
        <time>2022-08-06T09:21:01.000Z</time>
      </trkpt>
      <trkpt lat="49.29363" lon="-0.11574">
        <ele>9.076924</ele>
        <time>2022-08-06T09:21:02.000Z</time>
      </trkpt>
      <trkpt lat="49.29362" lon="-0.11578">
        <ele>9.092951</ele>
        <time>2022-08-06T09:21:03.000Z</time>
      </trkpt>
      <trkpt lat="49.29361" lon="-0.11582">
        <ele>9.108595</ele>
        <time>2022-08-06T09:21:04.000Z</time>
      </trkpt>
      <trkpt lat="49.29361" lon="-0.11586">
        <ele>9.122747</ele>
        <time>2022-08-06T09:21:05.000Z</time>
      </trkpt>
      <trkpt lat="49.2936" lon="-0.11589">
        <ele>9.137346</ele>
        <time>2022-08-06T09:21:06.000Z</time>
      </trkpt>
      <trkpt lat="49.29359" lon="-0.11593">
        <ele>9.153539</ele>
        <time>2022-08-06T09:21:07.000Z</time>
      </trkpt>
      <trkpt lat="49.29357" lon="-0.11597">
        <ele>9.169814</ele>
        <time>2022-08-06T09:21:08.000Z</time>
      </trkpt>
      <trkpt lat="49.29355" lon="-0.11599">
        <ele>9.184909</ele>
        <time>2022-08-06T09:21:09.000Z</time>
      </trkpt>
      <trkpt lat="49.29352" lon="-0.116">
        <ele>9.203878</ele>
        <time>2022-08-06T09:21:10.000Z</time>
      </trkpt>
      <trkpt lat="49.29349" lon="-0.11602">
        <ele>9.219626</ele>
        <time>2022-08-06T09:21:11.000Z</time>
      </trkpt>
      <trkpt lat="49.29346" lon="-0.11603">
        <ele>9.240228</ele>
        <time>2022-08-06T09:21:12.000Z</time>
      </trkpt>
      <trkpt lat="49.29343" lon="-0.11605">
        <ele>9.257256</ele>
        <time>2022-08-06T09:21:13.000Z</time>
      </trkpt>
      <trkpt lat="49.29339" lon="-0.11606">
        <ele>9.277588</ele>
        <time>2022-08-06T09:21:14.000Z</time>
      </trkpt>
      <trkpt lat="49.29336" lon="-0.11606">
        <ele>9.294032</ele>
        <time>2022-08-06T09:21:15.000Z</time>
      </trkpt>
      <trkpt lat="49.29333" lon="-0.11606">
        <ele>9.313873</ele>
        <time>2022-08-06T09:21:16.000Z</time>
      </trkpt>
      <trkpt lat="49.29331" lon="-0.11606">
        <ele>9.326366</ele>
        <time>2022-08-06T09:21:17.000Z</time>
      </trkpt>
      <trkpt lat="49.29328" lon="-0.11607">
        <ele>9.34187</ele>
        <time>2022-08-06T09:21:18.000Z</time>
      </trkpt>
      <trkpt lat="49.29326" lon="-0.1161">
        <ele>9.356759</ele>
        <time>2022-08-06T09:21:19.000Z</time>
      </trkpt>
      <trkpt lat="49.29325" lon="-0.11613">
        <ele>9.371651</ele>
        <time>2022-08-06T09:21:20.000Z</time>
      </trkpt>
      <trkpt lat="49.29323" lon="-0.11617">
        <ele>9.387516</ele>
        <time>2022-08-06T09:21:21.000Z</time>
      </trkpt>
      <trkpt lat="49.29323" lon="-0.11621">
        <ele>9.401935</ele>
        <time>2022-08-06T09:21:22.000Z</time>
      </trkpt>
      <trkpt lat="49.29325" lon="-0.11625">
        <ele>9.41879</ele>
        <time>2022-08-06T09:21:23.000Z</time>
      </trkpt>
      <trkpt lat="49.29326" lon="-0.11629">
        <ele>9.436649</ele>
        <time>2022-08-06T09:21:24.000Z</time>
      </trkpt>
      <trkpt lat="49.29327" lon="-0.11633">
        <ele>9.452756</ele>
        <time>2022-08-06T09:21:25.000Z</time>
      </trkpt>
      <trkpt lat="49.29329" lon="-0.11638">
        <ele>9.475441</ele>
        <time>2022-08-06T09:21:26.000Z</time>
      </trkpt>
      <trkpt lat="49.29331" lon="-0.11643">
        <ele>9.495572</ele>
        <time>2022-08-06T09:21:27.000Z</time>
      </trkpt>
      <trkpt lat="49.29333" lon="-0.11648">
        <ele>9.516648</ele>
        <time>2022-08-06T09:21:28.000Z</time>
      </trkpt>
      <trkpt lat="49.29335" lon="-0.11652">
        <ele>9.536468</ele>
        <time>2022-08-06T09:21:29.000Z</time>
      </trkpt>
      <trkpt lat="49.29337" lon="-0.11657">
        <ele>9.555995</ele>
        <time>2022-08-06T09:21:30.000Z</time>
      </trkpt>
      <trkpt lat="49.29339" lon="-0.11661">
        <ele>9.575925</ele>
        <time>2022-08-06T09:21:31.000Z</time>
      </trkpt>
      <trkpt lat="49.29339" lon="-0.11665">
        <ele>9.58971</ele>
        <time>2022-08-06T09:21:32.000Z</time>
      </trkpt>
      <trkpt lat="49.29341" lon="-0.11669">
        <ele>9.606433</ele>
        <time>2022-08-06T09:21:33.000Z</time>
      </trkpt>
      <trkpt lat="49.29343" lon="-0.11674">
        <ele>9.628427</ele>
        <time>2022-08-06T09:21:34.000Z</time>
      </trkpt>
      <trkpt lat="49.29344" lon="-0.11678">
        <ele>9.645775</ele>
        <time>2022-08-06T09:21:35.000Z</time>
      </trkpt>
      <trkpt lat="49.29347" lon="-0.11681">
        <ele>9.665635</ele>
        <time>2022-08-06T09:21:36.000Z</time>
      </trkpt>
      <trkpt lat="49.29349" lon="-0.11684">
        <ele>9.682356</ele>
        <time>2022-08-06T09:21:37.000Z</time>
      </trkpt>
      <trkpt lat="49.29352" lon="-0.11685">
        <ele>9.696252</ele>
        <time>2022-08-06T09:21:38.000Z</time>
      </trkpt>
      <trkpt lat="49.29355" lon="-0.11686">
        <ele>9.712956</ele>
        <time>2022-08-06T09:21:39.000Z</time>
      </trkpt>
      <trkpt lat="49.29357" lon="-0.11687">
        <ele>9.727514</ele>
        <time>2022-08-06T09:21:40.000Z</time>
      </trkpt>
      <trkpt lat="49.2936" lon="-0.11687">
        <ele>9.745669</ele>
        <time>2022-08-06T09:21:41.000Z</time>
      </trkpt>
      <trkpt lat="49.29363" lon="-0.11686">
        <ele>9.758838</ele>
        <time>2022-08-06T09:21:42.000Z</time>
      </trkpt>
      <trkpt lat="49.29365" lon="-0.11685">
        <ele>9.774921</ele>
        <time>2022-08-06T09:21:43.000Z</time>
      </trkpt>
      <trkpt lat="49.29368" lon="-0.11685">
        <ele>9.790134</ele>
        <time>2022-08-06T09:21:44.000Z</time>
      </trkpt>
      <trkpt lat="49.29371" lon="-0.11685">
        <ele>9.779932</ele>
        <time>2022-08-06T09:21:45.000Z</time>
      </trkpt>
      <trkpt lat="49.29373" lon="-0.11685">
        <ele>9.773214</ele>
        <time>2022-08-06T09:21:46.000Z</time>
      </trkpt>
      <trkpt lat="49.29375" lon="-0.11686">
        <ele>9.764806</ele>
        <time>2022-08-06T09:21:47.000Z</time>
      </trkpt>
      <trkpt lat="49.29378" lon="-0.11687">
        <ele>9.756903</ele>
        <time>2022-08-06T09:21:48.000Z</time>
      </trkpt>
      <trkpt lat="49.2938" lon="-0.11688">
        <ele>9.747576</ele>
        <time>2022-08-06T09:21:49.000Z</time>
      </trkpt>
      <trkpt lat="49.29382" lon="-0.11688">
        <ele>9.740858</ele>
        <time>2022-08-06T09:21:50.000Z</time>
      </trkpt>
      <trkpt lat="49.29384" lon="-0.11688">
        <ele>9.734113</ele>
        <time>2022-08-06T09:21:51.000Z</time>
      </trkpt>
      <trkpt lat="49.29387" lon="-0.11689">
        <ele>9.724897</ele>
        <time>2022-08-06T09:21:53.000Z</time>
      </trkpt>
      <trkpt lat="49.29389" lon="-0.11689">
        <ele>9.716077</ele>
        <time>2022-08-06T09:27:31.000Z</time>
      </trkpt>
      <trkpt lat="49.29386" lon="-0.11689">
        <ele>9.703748</ele>
        <time>2022-08-06T09:27:33.000Z</time>
      </trkpt>
      <trkpt lat="49.29383" lon="-0.11689">
        <ele>9.69598</ele>
        <time>2022-08-06T09:27:34.000Z</time>
      </trkpt>
      <trkpt lat="49.29381" lon="-0.11689">
        <ele>9.687891</ele>
        <time>2022-08-06T09:27:36.000Z</time>
      </trkpt>
      <trkpt lat="49.2938" lon="-0.11688">
        <ele>9.681522</ele>
        <time>2022-08-06T09:27:38.000Z</time>
      </trkpt>
      <trkpt lat="49.29378" lon="-0.11684">
        <ele>9.672482</ele>
        <time>2022-08-06T09:27:42.000Z</time>
      </trkpt>
      <trkpt lat="49.29375" lon="-0.11681">
        <ele>9.660061</ele>
        <time>2022-08-06T09:27:44.000Z</time>
      </trkpt>
      <trkpt lat="49.29373" lon="-0.1168">
        <ele>9.652662</ele>
        <time>2022-08-06T09:27:45.000Z</time>
      </trkpt>
      <trkpt lat="49.29371" lon="-0.11681">
        <ele>9.64484</ele>
        <time>2022-08-06T09:27:46.000Z</time>
      </trkpt>
      <trkpt lat="49.29369" lon="-0.11682">
        <ele>9.637323</ele>
        <time>2022-08-06T09:27:47.000Z</time>
      </trkpt>
      <trkpt lat="49.29367" lon="-0.11684">
        <ele>9.628809</ele>
        <time>2022-08-06T09:27:48.000Z</time>
      </trkpt>
      <trkpt lat="49.29365" lon="-0.11686">
        <ele>9.620106</ele>
        <time>2022-08-06T09:27:49.000Z</time>
      </trkpt>
      <trkpt lat="49.29363" lon="-0.11686">
        <ele>9.612365</ele>
        <time>2022-08-06T09:27:50.000Z</time>
      </trkpt>
      <trkpt lat="49.29359" lon="-0.11685">
        <ele>9.599978</ele>
        <time>2022-08-06T09:27:51.000Z</time>
      </trkpt>
      <trkpt lat="49.29356" lon="-0.11685">
        <ele>9.588686</ele>
        <time>2022-08-06T09:27:52.000Z</time>
      </trkpt>
      <trkpt lat="49.29353" lon="-0.11685">
        <ele>9.577394</ele>
        <time>2022-08-06T09:27:53.000Z</time>
      </trkpt>
      <trkpt lat="49.29349" lon="-0.11686">
        <ele>9.56468</ele>
        <time>2022-08-06T09:27:54.000Z</time>
      </trkpt>
      <trkpt lat="49.29348" lon="-0.11686">
        <ele>9.557857</ele>
        <time>2022-08-06T09:27:55.000Z</time>
      </trkpt>
      <trkpt lat="49.29346" lon="-0.11687">
        <ele>9.551077</ele>
        <time>2022-08-06T09:27:57.000Z</time>
      </trkpt>
      <trkpt lat="49.29341" lon="-0.11691">
        <ele>9.531408</ele>
        <time>2022-08-06T09:28:07.000Z</time>
      </trkpt>
      <trkpt lat="49.2934" lon="-0.11697">
        <ele>9.518752</ele>
        <time>2022-08-06T09:28:09.000Z</time>
      </trkpt>
      <trkpt lat="49.2934" lon="-0.117">
        <ele>9.511183</ele>
        <time>2022-08-06T09:28:10.000Z</time>
      </trkpt>
      <trkpt lat="49.2934" lon="-0.11704">
        <ele>9.50263</ele>
        <time>2022-08-06T09:28:11.000Z</time>
      </trkpt>
      <trkpt lat="49.29339" lon="-0.11707">
        <ele>9.494988</ele>
        <time>2022-08-06T09:28:12.000Z</time>
      </trkpt>
      <trkpt lat="49.29339" lon="-0.1171">
        <ele>9.486908</ele>
        <time>2022-08-06T09:28:13.000Z</time>
      </trkpt>
      <trkpt lat="49.29338" lon="-0.11714">
        <ele>9.477509</ele>
        <time>2022-08-06T09:28:14.000Z</time>
      </trkpt>
      <trkpt lat="49.29337" lon="-0.11718">
        <ele>9.468763</ele>
        <time>2022-08-06T09:28:15.000Z</time>
      </trkpt>
      <trkpt lat="49.29336" lon="-0.11721">
        <ele>9.460366</ele>
        <time>2022-08-06T09:28:16.000Z</time>
      </trkpt>
      <trkpt lat="49.29335" lon="-0.11725">
        <ele>9.450927</ele>
        <time>2022-08-06T09:28:17.000Z</time>
      </trkpt>
      <trkpt lat="49.29335" lon="-0.11729">
        <ele>9.442374</ele>
        <time>2022-08-06T09:28:18.000Z</time>
      </trkpt>
      <trkpt lat="49.29333" lon="-0.11733">
        <ele>9.429474</ele>
        <time>2022-08-06T09:28:19.000Z</time>
      </trkpt>
      <trkpt lat="49.29331" lon="-0.11737">
        <ele>9.41756</ele>
        <time>2022-08-06T09:28:20.000Z</time>
      </trkpt>
      <trkpt lat="49.29331" lon="-0.11743">
        <ele>9.4049</ele>
        <time>2022-08-06T09:28:21.000Z</time>
      </trkpt>
      <trkpt lat="49.2933" lon="-0.11748">
        <ele>9.392024</ele>
        <time>2022-08-06T09:28:22.000Z</time>
      </trkpt>
      <trkpt lat="49.29329" lon="-0.11754">
        <ele>9.378348</ele>
        <time>2022-08-06T09:28:23.000Z</time>
      </trkpt>
      <trkpt lat="49.29328" lon="-0.1176">
        <ele>9.36428</ele>
        <time>2022-08-06T09:28:24.000Z</time>
      </trkpt>
      <trkpt lat="49.29327" lon="-0.11766">
        <ele>9.35074</ele>
        <time>2022-08-06T09:28:25.000Z</time>
      </trkpt>
      <trkpt lat="49.29325" lon="-0.11771">
        <ele>9.336889</ele>
        <time>2022-08-06T09:28:26.000Z</time>
      </trkpt>
      <trkpt lat="49.29325" lon="-0.11777">
        <ele>9.32366</ele>
        <time>2022-08-06T09:28:27.000Z</time>
      </trkpt>
      <trkpt lat="49.29323" lon="-0.11783">
        <ele>9.309157</ele>
        <time>2022-08-06T09:28:28.000Z</time>
      </trkpt>
      <trkpt lat="49.29322" lon="-0.11789">
        <ele>9.294288</ele>
        <time>2022-08-06T09:28:29.000Z</time>
      </trkpt>
      <trkpt lat="49.2932" lon="-0.11795">
        <ele>9.278993</ele>
        <time>2022-08-06T09:28:30.000Z</time>
      </trkpt>
      <trkpt lat="49.29319" lon="-0.11801">
        <ele>9.264788</ele>
        <time>2022-08-06T09:28:31.000Z</time>
      </trkpt>
      <trkpt lat="49.29318" lon="-0.11807">
        <ele>9.249733</ele>
        <time>2022-08-06T09:28:32.000Z</time>
      </trkpt>
      <trkpt lat="49.29317" lon="-0.11814">
        <ele>9.234637</ele>
        <time>2022-08-06T09:28:33.000Z</time>
      </trkpt>
      <trkpt lat="49.29316" lon="-0.1182">
        <ele>9.219764</ele>
        <time>2022-08-06T09:28:34.000Z</time>
      </trkpt>
      <trkpt lat="49.29315" lon="-0.11827">
        <ele>9.204073</ele>
        <time>2022-08-06T09:28:35.000Z</time>
      </trkpt>
      <trkpt lat="49.29314" lon="-0.11833">
        <ele>9.188258</ele>
        <time>2022-08-06T09:28:36.000Z</time>
      </trkpt>
      <trkpt lat="49.29313" lon="-0.1184">
        <ele>9.173163</ele>
        <time>2022-08-06T09:28:37.000Z</time>
      </trkpt>
      <trkpt lat="49.29312" lon="-0.11847">
        <ele>9.159428</ele>
        <time>2022-08-06T09:28:38.000Z</time>
      </trkpt>
      <trkpt lat="49.2931" lon="-0.11853">
        <ele>9.187407</ele>
        <time>2022-08-06T09:28:39.000Z</time>
      </trkpt>
      <trkpt lat="49.29309" lon="-0.1186">
        <ele>9.215558</ele>
        <time>2022-08-06T09:28:40.000Z</time>
      </trkpt>
      <trkpt lat="49.29307" lon="-0.11866">
        <ele>9.243914</ele>
        <time>2022-08-06T09:28:41.000Z</time>
      </trkpt>
      <trkpt lat="49.29306" lon="-0.11873">
        <ele>9.272065</ele>
        <time>2022-08-06T09:28:42.000Z</time>
      </trkpt>
      <trkpt lat="49.29305" lon="-0.1188">
        <ele>9.299613</ele>
        <time>2022-08-06T09:28:43.000Z</time>
      </trkpt>
      <trkpt lat="49.29304" lon="-0.11886">
        <ele>9.327378</ele>
        <time>2022-08-06T09:28:44.000Z</time>
      </trkpt>
      <trkpt lat="49.29303" lon="-0.11893">
        <ele>9.355057</ele>
        <time>2022-08-06T09:28:45.000Z</time>
      </trkpt>
      <trkpt lat="49.29301" lon="-0.119">
        <ele>9.383208</ele>
        <time>2022-08-06T09:28:46.000Z</time>
      </trkpt>
      <trkpt lat="49.293" lon="-0.11906">
        <ele>9.411187</ele>
        <time>2022-08-06T09:28:47.000Z</time>
      </trkpt>
      <trkpt lat="49.29298" lon="-0.11913">
        <ele>9.439139</ele>
        <time>2022-08-06T09:28:48.000Z</time>
      </trkpt>
      <trkpt lat="49.29297" lon="-0.11919">
        <ele>9.466688</ele>
        <time>2022-08-06T09:28:49.000Z</time>
      </trkpt>
      <trkpt lat="49.29295" lon="-0.11926">
        <ele>9.4958</ele>
        <time>2022-08-06T09:28:50.000Z</time>
      </trkpt>
      <trkpt lat="49.29294" lon="-0.11933">
        <ele>9.524534</ele>
        <time>2022-08-06T09:28:51.000Z</time>
      </trkpt>
      <trkpt lat="49.29293" lon="-0.11939">
        <ele>9.551429</ele>
        <time>2022-08-06T09:28:52.000Z</time>
      </trkpt>
      <trkpt lat="49.29291" lon="-0.11946">
        <ele>9.579785</ele>
        <time>2022-08-06T09:28:53.000Z</time>
      </trkpt>
      <trkpt lat="49.2929" lon="-0.11953">
        <ele>9.607936</ele>
        <time>2022-08-06T09:28:54.000Z</time>
      </trkpt>
      <trkpt lat="49.29289" lon="-0.11959">
        <ele>9.635484</ele>
        <time>2022-08-06T09:28:55.000Z</time>
      </trkpt>
      <trkpt lat="49.29287" lon="-0.11966">
        <ele>9.663463</ele>
        <time>2022-08-06T09:28:56.000Z</time>
      </trkpt>
      <trkpt lat="49.29286" lon="-0.11972">
        <ele>9.690074</ele>
        <time>2022-08-06T09:28:57.000Z</time>
      </trkpt>
      <trkpt lat="49.29285" lon="-0.11979">
        <ele>9.717454</ele>
        <time>2022-08-06T09:28:58.000Z</time>
      </trkpt>
      <trkpt lat="49.29283" lon="-0.11985">
        <ele>9.745433</ele>
        <time>2022-08-06T09:28:59.000Z</time>
      </trkpt>
      <trkpt lat="49.29282" lon="-0.11992">
        <ele>9.774167</ele>
        <time>2022-08-06T09:29:00.000Z</time>
      </trkpt>
      <trkpt lat="49.2928" lon="-0.11998">
        <ele>9.800645</ele>
        <time>2022-08-06T09:29:01.000Z</time>
      </trkpt>
      <trkpt lat="49.29279" lon="-0.12004">
        <ele>9.825584</ele>
        <time>2022-08-06T09:29:02.000Z</time>
      </trkpt>
      <trkpt lat="49.29277" lon="-0.1201">
        <ele>9.853187</ele>
        <time>2022-08-06T09:29:03.000Z</time>
      </trkpt>
      <trkpt lat="49.29276" lon="-0.12016">
        <ele>9.879292</ele>
        <time>2022-08-06T09:29:04.000Z</time>
      </trkpt>
      <trkpt lat="49.29274" lon="-0.12022">
        <ele>9.906515</ele>
        <time>2022-08-06T09:29:05.000Z</time>
      </trkpt>
      <trkpt lat="49.29273" lon="-0.12028">
        <ele>9.930917</ele>
        <time>2022-08-06T09:29:06.000Z</time>
      </trkpt>
      <trkpt lat="49.29271" lon="-0.12034">
        <ele>9.958412</ele>
        <time>2022-08-06T09:29:07.000Z</time>
      </trkpt>
      <trkpt lat="49.2927" lon="-0.1204">
        <ele>9.983301</ele>
        <time>2022-08-06T09:29:08.000Z</time>
      </trkpt>
      <trkpt lat="49.29269" lon="-0.12047">
        <ele>10.010196</ele>
        <time>2022-08-06T09:29:09.000Z</time>
      </trkpt>
      <trkpt lat="49.29268" lon="-0.12053">
        <ele>10.037576</ele>
        <time>2022-08-06T09:29:10.000Z</time>
      </trkpt>
      <trkpt lat="49.29266" lon="-0.1206">
        <ele>10.064187</ele>
        <time>2022-08-06T09:29:11.000Z</time>
      </trkpt>
      <trkpt lat="49.29265" lon="-0.12066">
        <ele>10.091392</ele>
        <time>2022-08-06T09:29:12.000Z</time>
      </trkpt>
      <trkpt lat="49.29264" lon="-0.12073">
        <ele>10.119543</ele>
        <time>2022-08-06T09:29:13.000Z</time>
      </trkpt>
      <trkpt lat="49.29262" lon="-0.12079">
        <ele>10.147308</ele>
        <time>2022-08-06T09:29:14.000Z</time>
      </trkpt>
      <trkpt lat="49.29261" lon="-0.12086">
        <ele>10.174204</ele>
        <time>2022-08-06T09:29:15.000Z</time>
      </trkpt>
      <trkpt lat="49.2926" lon="-0.12092">
        <ele>10.202889</ele>
        <time>2022-08-06T09:29:16.000Z</time>
      </trkpt>
      <trkpt lat="49.29258" lon="-0.12099">
        <ele>10.232381</ele>
        <time>2022-08-06T09:29:17.000Z</time>
      </trkpt>
      <trkpt lat="49.29258" lon="-0.12106">
        <ele>10.260632</ele>
        <time>2022-08-06T09:29:18.000Z</time>
      </trkpt>
      <trkpt lat="49.29257" lon="-0.12113">
        <ele>10.261309</ele>
        <time>2022-08-06T09:29:19.000Z</time>
      </trkpt>
      <trkpt lat="49.29257" lon="-0.12119">
        <ele>10.251063</ele>
        <time>2022-08-06T09:29:20.000Z</time>
      </trkpt>
      <trkpt lat="49.29256" lon="-0.12125">
        <ele>10.239813</ele>
        <time>2022-08-06T09:29:21.000Z</time>
      </trkpt>
      <trkpt lat="49.29253" lon="-0.12131">
        <ele>10.2284</ele>
        <time>2022-08-06T09:29:22.000Z</time>
      </trkpt>
      <trkpt lat="49.29253" lon="-0.12136">
        <ele>10.218249</ele>
        <time>2022-08-06T09:29:23.000Z</time>
      </trkpt>
      <trkpt lat="49.29252" lon="-0.12143">
        <ele>10.2072</ele>
        <time>2022-08-06T09:29:24.000Z</time>
      </trkpt>
      <trkpt lat="49.2925" lon="-0.12149">
        <ele>10.196478</ele>
        <time>2022-08-06T09:29:25.000Z</time>
      </trkpt>
      <trkpt lat="49.29249" lon="-0.12154">
        <ele>10.186117</ele>
        <time>2022-08-06T09:29:26.000Z</time>
      </trkpt>
      <trkpt lat="49.29247" lon="-0.1216">
        <ele>10.175238</ele>
        <time>2022-08-06T09:29:27.000Z</time>
      </trkpt>
      <trkpt lat="49.29246" lon="-0.12165">
        <ele>10.166361</ele>
        <time>2022-08-06T09:29:28.000Z</time>
      </trkpt>
      <trkpt lat="49.29244" lon="-0.12172">
        <ele>10.152723</ele>
        <time>2022-08-06T09:29:29.000Z</time>
      </trkpt>
      <trkpt lat="49.29243" lon="-0.12177">
        <ele>10.144401</ele>
        <time>2022-08-06T09:29:30.000Z</time>
      </trkpt>
      <trkpt lat="49.29242" lon="-0.12185">
        <ele>10.131367</ele>
        <time>2022-08-06T09:29:31.000Z</time>
      </trkpt>
      <trkpt lat="49.29242" lon="-0.1219">
        <ele>10.122854</ele>
        <time>2022-08-06T09:29:32.000Z</time>
      </trkpt>
      <trkpt lat="49.29241" lon="-0.12195">
        <ele>10.112703</ele>
        <time>2022-08-06T09:29:33.000Z</time>
      </trkpt>
      <trkpt lat="49.2924" lon="-0.12202">
        <ele>10.100073</ele>
        <time>2022-08-06T09:29:34.000Z</time>
      </trkpt>
      <trkpt lat="49.29238" lon="-0.12207">
        <ele>10.091849</ele>
        <time>2022-08-06T09:29:35.000Z</time>
      </trkpt>
      <trkpt lat="49.29237" lon="-0.12213">
        <ele>10.081406</ele>
        <time>2022-08-06T09:29:36.000Z</time>
      </trkpt>
      <trkpt lat="49.29236" lon="-0.12219">
        <ele>10.070924</ele>
        <time>2022-08-06T09:29:37.000Z</time>
      </trkpt>
      <trkpt lat="49.29235" lon="-0.12225">
        <ele>10.06038</ele>
        <time>2022-08-06T09:29:38.000Z</time>
      </trkpt>
      <trkpt lat="49.29234" lon="-0.12231">
        <ele>10.049291</ele>
        <time>2022-08-06T09:29:39.000Z</time>
      </trkpt>
      <trkpt lat="49.29233" lon="-0.12237">
        <ele>10.038526</ele>
        <time>2022-08-06T09:29:40.000Z</time>
      </trkpt>
      <trkpt lat="49.29231" lon="-0.12243">
        <ele>10.02784</ele>
        <time>2022-08-06T09:29:41.000Z</time>
      </trkpt>
      <trkpt lat="49.2923" lon="-0.12249">
        <ele>10.016914</ele>
        <time>2022-08-06T09:29:42.000Z</time>
      </trkpt>
      <trkpt lat="49.29229" lon="-0.12255">
        <ele>10.005084</ele>
        <time>2022-08-06T09:29:43.000Z</time>
      </trkpt>
      <trkpt lat="49.29227" lon="-0.12262">
        <ele>9.992956</ele>
        <time>2022-08-06T09:29:44.000Z</time>
      </trkpt>
      <trkpt lat="49.29226" lon="-0.12268">
        <ele>9.982412</ele>
        <time>2022-08-06T09:29:45.000Z</time>
      </trkpt>
      <trkpt lat="49.29224" lon="-0.12274">
        <ele>9.971809</ele>
        <time>2022-08-06T09:29:46.000Z</time>
      </trkpt>
      <trkpt lat="49.29223" lon="-0.12281">
        <ele>9.958824</ele>
        <time>2022-08-06T09:29:47.000Z</time>
      </trkpt>
      <trkpt lat="49.29222" lon="-0.12287">
        <ele>9.949103</ele>
        <time>2022-08-06T09:29:48.000Z</time>
      </trkpt>
      <trkpt lat="49.29222" lon="-0.12293">
        <ele>9.937838</ele>
        <time>2022-08-06T09:29:49.000Z</time>
      </trkpt>
      <trkpt lat="49.29221" lon="-0.12302">
        <ele>9.923634</ele>
        <time>2022-08-06T09:29:50.000Z</time>
      </trkpt>
      <trkpt lat="49.2922" lon="-0.12307">
        <ele>9.913483</ele>
        <time>2022-08-06T09:29:51.000Z</time>
      </trkpt>
      <trkpt lat="49.29219" lon="-0.12315">
        <ele>9.900115</ele>
        <time>2022-08-06T09:29:52.000Z</time>
      </trkpt>
      <trkpt lat="49.29217" lon="-0.12324">
        <ele>9.884332</ele>
        <time>2022-08-06T09:29:53.000Z</time>
      </trkpt>
      <trkpt lat="49.29216" lon="-0.1233">
        <ele>9.873728</ele>
        <time>2022-08-06T09:29:54.000Z</time>
      </trkpt>
      <trkpt lat="49.29214" lon="-0.12337">
        <ele>9.860616</ele>
        <time>2022-08-06T09:29:55.000Z</time>
      </trkpt>
      <trkpt lat="49.29213" lon="-0.12346">
        <ele>9.845225</ele>
        <time>2022-08-06T09:29:56.000Z</time>
      </trkpt>
      <trkpt lat="49.29211" lon="-0.12353">
        <ele>9.831789</ele>
        <time>2022-08-06T09:29:57.000Z</time>
      </trkpt>
      <trkpt lat="49.2921" lon="-0.12361">
        <ele>9.818676</ele>
        <time>2022-08-06T09:29:58.000Z</time>
      </trkpt>
      <trkpt lat="49.29208" lon="-0.12368">
        <ele>9.805792</ele>
        <time>2022-08-06T09:29:59.000Z</time>
      </trkpt>
      <trkpt lat="49.29207" lon="-0.12375">
        <ele>9.787022</ele>
        <time>2022-08-06T09:30:00.000Z</time>
      </trkpt>
      <trkpt lat="49.29205" lon="-0.12383">
        <ele>9.763389</ele>
        <time>2022-08-06T09:30:01.000Z</time>
      </trkpt>
      <trkpt lat="49.29204" lon="-0.1239">
        <ele>9.739338</ele>
        <time>2022-08-06T09:30:02.000Z</time>
      </trkpt>
      <trkpt lat="49.29203" lon="-0.12397">
        <ele>9.715221</ele>
        <time>2022-08-06T09:30:03.000Z</time>
      </trkpt>
      <trkpt lat="49.29202" lon="-0.12405">
        <ele>9.692231</ele>
        <time>2022-08-06T09:30:04.000Z</time>
      </trkpt>
      <trkpt lat="49.292" lon="-0.12412">
        <ele>9.668899</ele>
        <time>2022-08-06T09:30:05.000Z</time>
      </trkpt>
      <trkpt lat="49.29199" lon="-0.12418">
        <ele>9.649671</ele>
        <time>2022-08-06T09:30:06.000Z</time>
      </trkpt>
      <trkpt lat="49.29198" lon="-0.12423">
        <ele>9.632571</ele>
        <time>2022-08-06T09:30:07.000Z</time>
      </trkpt>
      <trkpt lat="49.29197" lon="-0.12428">
        <ele>9.617515</ele>
        <time>2022-08-06T09:30:08.000Z</time>
      </trkpt>
      <trkpt lat="49.29196" lon="-0.12432">
        <ele>9.603194</ele>
        <time>2022-08-06T09:30:09.000Z</time>
      </trkpt>
      <trkpt lat="49.29196" lon="-0.12435">
        <ele>9.592357</ele>
        <time>2022-08-06T09:30:10.000Z</time>
      </trkpt>
      <trkpt lat="49.29195" lon="-0.12438">
        <ele>9.583439</ele>
        <time>2022-08-06T09:30:11.000Z</time>
      </trkpt>
      <trkpt lat="49.29192" lon="-0.12441">
        <ele>9.566453</ele>
        <time>2022-08-06T09:30:13.000Z</time>
      </trkpt>
      <trkpt lat="49.2919" lon="-0.12442">
        <ele>9.555753</ele>
        <time>2022-08-06T09:30:14.000Z</time>
      </trkpt>
      <trkpt lat="49.29188" lon="-0.12442">
        <ele>9.546171</ele>
        <time>2022-08-06T09:30:15.000Z</time>
      </trkpt>
      <trkpt lat="49.29185" lon="-0.12441">
        <ele>9.532673</ele>
        <time>2022-08-06T09:30:16.000Z</time>
      </trkpt>
      <trkpt lat="49.29183" lon="-0.12441">
        <ele>9.522849</ele>
        <time>2022-08-06T09:30:17.000Z</time>
      </trkpt>
      <trkpt lat="49.2918" lon="-0.12439">
        <ele>9.508928</ele>
        <time>2022-08-06T09:30:18.000Z</time>
      </trkpt>
      <trkpt lat="49.29177" lon="-0.12439">
        <ele>9.493402</ele>
        <time>2022-08-06T09:30:19.000Z</time>
      </trkpt>
      <trkpt lat="49.29174" lon="-0.12437">
        <ele>9.477628</ele>
        <time>2022-08-06T09:30:20.000Z</time>
      </trkpt>
      <trkpt lat="49.2917" lon="-0.12436">
        <ele>9.458296</ele>
        <time>2022-08-06T09:30:21.000Z</time>
      </trkpt>
      <trkpt lat="49.29166" lon="-0.12434">
        <ele>9.437958</ele>
        <time>2022-08-06T09:30:22.000Z</time>
      </trkpt>
      <trkpt lat="49.29162" lon="-0.12433">
        <ele>9.4175</ele>
        <time>2022-08-06T09:30:23.000Z</time>
      </trkpt>
      <trkpt lat="49.29158" lon="-0.12432">
        <ele>9.398857</ele>
        <time>2022-08-06T09:30:24.000Z</time>
      </trkpt>
      <trkpt lat="49.29154" lon="-0.1243">
        <ele>9.37834</ele>
        <time>2022-08-06T09:30:25.000Z</time>
      </trkpt>
      <trkpt lat="49.2915" lon="-0.12429">
        <ele>9.35955</ele>
        <time>2022-08-06T09:30:26.000Z</time>
      </trkpt>
      <trkpt lat="49.29145" lon="-0.12427">
        <ele>9.337499</ele>
        <time>2022-08-06T09:30:27.000Z</time>
      </trkpt>
      <trkpt lat="49.29141" lon="-0.12426">
        <ele>9.315627</ele>
        <time>2022-08-06T09:30:28.000Z</time>
      </trkpt>
      <trkpt lat="49.29137" lon="-0.12424">
        <ele>9.294827</ele>
        <time>2022-08-06T09:30:29.000Z</time>
      </trkpt>
      <trkpt lat="49.29133" lon="-0.12423">
        <ele>9.274779</ele>
        <time>2022-08-06T09:30:30.000Z</time>
      </trkpt>
      <trkpt lat="49.29129" lon="-0.12422">
        <ele>9.255938</ele>
        <time>2022-08-06T09:30:31.000Z</time>
      </trkpt>
      <trkpt lat="49.29125" lon="-0.12422">
        <ele>9.239166</ele>
        <time>2022-08-06T09:30:32.000Z</time>
      </trkpt>
      <trkpt lat="49.29122" lon="-0.12423">
        <ele>9.224783</ele>
        <time>2022-08-06T09:30:33.000Z</time>
      </trkpt>
      <trkpt lat="49.29119" lon="-0.12427">
        <ele>9.206317</ele>
        <time>2022-08-06T09:30:34.000Z</time>
      </trkpt>
      <trkpt lat="49.29117" lon="-0.12431">
        <ele>9.188753</ele>
        <time>2022-08-06T09:30:35.000Z</time>
      </trkpt>
      <trkpt lat="49.29115" lon="-0.12436">
        <ele>9.17068</ele>
        <time>2022-08-06T09:30:36.000Z</time>
      </trkpt>
      <trkpt lat="49.29114" lon="-0.12441">
        <ele>9.153449</ele>
        <time>2022-08-06T09:30:37.000Z</time>
      </trkpt>
      <trkpt lat="49.29113" lon="-0.12447">
        <ele>9.135472</ele>
        <time>2022-08-06T09:30:38.000Z</time>
      </trkpt>
      <trkpt lat="49.29112" lon="-0.12452">
        <ele>9.118672</ele>
        <time>2022-08-06T09:30:39.000Z</time>
      </trkpt>
      <trkpt lat="49.29111" lon="-0.12457">
        <ele>9.10244</ele>
        <time>2022-08-06T09:30:40.000Z</time>
      </trkpt>
      <trkpt lat="49.2911" lon="-0.12462">
        <ele>9.085948</ele>
        <time>2022-08-06T09:30:41.000Z</time>
      </trkpt>
      <trkpt lat="49.29109" lon="-0.12467">
        <ele>9.068556</ele>
        <time>2022-08-06T09:30:42.000Z</time>
      </trkpt>
      <trkpt lat="49.29108" lon="-0.12472">
        <ele>9.051745</ele>
        <time>2022-08-06T09:30:43.000Z</time>
      </trkpt>
      <trkpt lat="49.29107" lon="-0.12477">
        <ele>9.035244</ele>
        <time>2022-08-06T09:30:44.000Z</time>
      </trkpt>
      <trkpt lat="49.29106" lon="-0.12483">
        <ele>9.017713</ele>
        <time>2022-08-06T09:30:45.000Z</time>
      </trkpt>
      <trkpt lat="49.29105" lon="-0.12488">
        <ele>9.001528</ele>
        <time>2022-08-06T09:30:46.000Z</time>
      </trkpt>
      <trkpt lat="49.29104" lon="-0.12493">
        <ele>8.984597</ele>
        <time>2022-08-06T09:30:47.000Z</time>
      </trkpt>
      <trkpt lat="49.29103" lon="-0.12498">
        <ele>8.968264</ele>
        <time>2022-08-06T09:30:48.000Z</time>
      </trkpt>
      <trkpt lat="49.29102" lon="-0.12503">
        <ele>8.951159</ele>
        <time>2022-08-06T09:30:49.000Z</time>
      </trkpt>
      <trkpt lat="49.29101" lon="-0.12509">
        <ele>8.940711</ele>
        <time>2022-08-06T09:30:50.000Z</time>
      </trkpt>
      <trkpt lat="49.291" lon="-0.12514">
        <ele>8.95085</ele>
        <time>2022-08-06T09:30:51.000Z</time>
      </trkpt>
      <trkpt lat="49.29099" lon="-0.12519">
        <ele>8.960905</ele>
        <time>2022-08-06T09:30:52.000Z</time>
      </trkpt>
      <trkpt lat="49.29098" lon="-0.12524">
        <ele>8.971044</ele>
        <time>2022-08-06T09:30:53.000Z</time>
      </trkpt>
      <trkpt lat="49.29096" lon="-0.12529">
        <ele>8.981839</ele>
        <time>2022-08-06T09:30:54.000Z</time>
      </trkpt>
      <trkpt lat="49.29095" lon="-0.12534">
        <ele>8.992817</ele>
        <time>2022-08-06T09:30:55.000Z</time>
      </trkpt>
      <trkpt lat="49.29094" lon="-0.12538">
        <ele>9.000773</ele>
        <time>2022-08-06T09:30:56.000Z</time>
      </trkpt>
      <trkpt lat="49.29093" lon="-0.12543">
        <ele>9.011283</ele>
        <time>2022-08-06T09:30:57.000Z</time>
      </trkpt>
      <trkpt lat="49.29093" lon="-0.12548">
        <ele>9.021329</ele>
        <time>2022-08-06T09:30:58.000Z</time>
      </trkpt>
      <trkpt lat="49.29092" lon="-0.12555">
        <ele>9.034824</ele>
        <time>2022-08-06T09:30:59.000Z</time>
      </trkpt>
      <trkpt lat="49.29092" lon="-0.12561">
        <ele>9.045878</ele>
        <time>2022-08-06T09:31:00.000Z</time>
      </trkpt>
      <trkpt lat="49.29091" lon="-0.12567">
        <ele>9.057247</ele>
        <time>2022-08-06T09:31:01.000Z</time>
      </trkpt>
      <trkpt lat="49.2909" lon="-0.12572">
        <ele>9.068316</ele>
        <time>2022-08-06T09:31:02.000Z</time>
      </trkpt>
      <trkpt lat="49.2909" lon="-0.12578">
        <ele>9.078978</ele>
        <time>2022-08-06T09:31:03.000Z</time>
      </trkpt>
      <trkpt lat="49.29091" lon="-0.12583">
        <ele>9.090421</ele>
        <time>2022-08-06T09:31:04.000Z</time>
      </trkpt>
      <trkpt lat="49.29091" lon="-0.12589">
        <ele>9.10112</ele>
        <time>2022-08-06T09:31:05.000Z</time>
      </trkpt>
      <trkpt lat="49.29092" lon="-0.12594">
        <ele>9.111548</ele>
        <time>2022-08-06T09:31:06.000Z</time>
      </trkpt>
      <trkpt lat="49.29093" lon="-0.126">
        <ele>9.122991</ele>
        <time>2022-08-06T09:31:07.000Z</time>
      </trkpt>
      <trkpt lat="49.29093" lon="-0.12606">
        <ele>9.134549</ele>
        <time>2022-08-06T09:31:08.000Z</time>
      </trkpt>
      <trkpt lat="49.29095" lon="-0.12611">
        <ele>9.146438</ele>
        <time>2022-08-06T09:31:09.000Z</time>
      </trkpt>
      <trkpt lat="49.29096" lon="-0.12617">
        <ele>9.158695</ele>
        <time>2022-08-06T09:31:10.000Z</time>
      </trkpt>
      <trkpt lat="49.29096" lon="-0.12624">
        <ele>9.171134</ele>
        <time>2022-08-06T09:31:11.000Z</time>
      </trkpt>
      <trkpt lat="49.29097" lon="-0.12631">
        <ele>9.185054</ele>
        <time>2022-08-06T09:31:12.000Z</time>
      </trkpt>
      <trkpt lat="49.29098" lon="-0.12638">
        <ele>9.198523</ele>
        <time>2022-08-06T09:31:13.000Z</time>
      </trkpt>
      <trkpt lat="49.29099" lon="-0.12643">
        <ele>9.209592</ele>
        <time>2022-08-06T09:31:14.000Z</time>
      </trkpt>
      <trkpt lat="49.291" lon="-0.1265">
        <ele>9.223863</ele>
        <time>2022-08-06T09:31:15.000Z</time>
      </trkpt>
      <trkpt lat="49.291" lon="-0.12659">
        <ele>9.240923</ele>
        <time>2022-08-06T09:31:16.000Z</time>
      </trkpt>
      <trkpt lat="49.29099" lon="-0.12667">
        <ele>9.255967</ele>
        <time>2022-08-06T09:31:17.000Z</time>
      </trkpt>
      <trkpt lat="49.29097" lon="-0.12674">
        <ele>9.271633</ele>
        <time>2022-08-06T09:31:18.000Z</time>
      </trkpt>
      <trkpt lat="49.29096" lon="-0.12682">
        <ele>9.286865</ele>
        <time>2022-08-06T09:31:19.000Z</time>
      </trkpt>
      <trkpt lat="49.29093" lon="-0.12689">
        <ele>9.302819</ele>
        <time>2022-08-06T09:31:20.000Z</time>
      </trkpt>
      <trkpt lat="49.29092" lon="-0.12696">
        <ele>9.316628</ele>
        <time>2022-08-06T09:31:21.000Z</time>
      </trkpt>
      <trkpt lat="49.2909" lon="-0.12701">
        <ele>9.32921</ele>
        <time>2022-08-06T09:31:22.000Z</time>
      </trkpt>
      <trkpt lat="49.29089" lon="-0.12706">
        <ele>9.337924</ele>
        <time>2022-08-06T09:31:23.000Z</time>
      </trkpt>
      <trkpt lat="49.29089" lon="-0.12711">
        <ele>9.348845</ele>
        <time>2022-08-06T09:31:24.000Z</time>
      </trkpt>
      <trkpt lat="49.29089" lon="-0.12714">
        <ele>9.35484</ele>
        <time>2022-08-06T09:31:25.000Z</time>
      </trkpt>
      <trkpt lat="49.29091" lon="-0.12717">
        <ele>9.362673</ele>
        <time>2022-08-06T09:31:26.000Z</time>
      </trkpt>
      <trkpt lat="49.29094" lon="-0.12719">
        <ele>9.371901</ele>
        <time>2022-08-06T09:31:27.000Z</time>
      </trkpt>
      <trkpt lat="49.29097" lon="-0.1272">
        <ele>9.380781</ele>
        <time>2022-08-06T09:31:28.000Z</time>
      </trkpt>
      <trkpt lat="49.29101" lon="-0.12721">
        <ele>9.391329</ele>
        <time>2022-08-06T09:31:29.000Z</time>
      </trkpt>
      <trkpt lat="49.29105" lon="-0.12722">
        <ele>9.403669</ele>
        <time>2022-08-06T09:31:30.000Z</time>
      </trkpt>
      <trkpt lat="49.29107" lon="-0.12722">
        <ele>9.410603</ele>
        <time>2022-08-06T09:31:31.000Z</time>
      </trkpt>
      <trkpt lat="49.29111" lon="-0.12724">
        <ele>9.42301</ele>
        <time>2022-08-06T09:31:32.000Z</time>
      </trkpt>
      <trkpt lat="49.29114" lon="-0.12724">
        <ele>9.432618</ele>
        <time>2022-08-06T09:31:33.000Z</time>
      </trkpt>
      <trkpt lat="49.29118" lon="-0.12725">
        <ele>9.445282</ele>
        <time>2022-08-06T09:31:34.000Z</time>
      </trkpt>
      <trkpt lat="49.29122" lon="-0.12726">
        <ele>9.455864</ele>
        <time>2022-08-06T09:31:35.000Z</time>
      </trkpt>
      <trkpt lat="49.29125" lon="-0.12727">
        <ele>9.464699</ele>
        <time>2022-08-06T09:31:36.000Z</time>
      </trkpt>
      <trkpt lat="49.29128" lon="-0.12729">
        <ele>9.466546</ele>
        <time>2022-08-06T09:31:37.000Z</time>
      </trkpt>
      <trkpt lat="49.29131" lon="-0.12729">
        <ele>9.440157</ele>
        <time>2022-08-06T09:31:38.000Z</time>
      </trkpt>
      <trkpt lat="49.29134" lon="-0.12729">
        <ele>9.413957</ele>
        <time>2022-08-06T09:31:39.000Z</time>
      </trkpt>
      <trkpt lat="49.29137" lon="-0.12729">
        <ele>9.390212</ele>
        <time>2022-08-06T09:31:40.000Z</time>
      </trkpt>
      <trkpt lat="49.2914" lon="-0.1273">
        <ele>9.369409</ele>
        <time>2022-08-06T09:31:41.000Z</time>
      </trkpt>
      <trkpt lat="49.29142" lon="-0.1273">
        <ele>9.3481</ele>
        <time>2022-08-06T09:31:42.000Z</time>
      </trkpt>
      <trkpt lat="49.29145" lon="-0.12731">
        <ele>9.33002</ele>
        <time>2022-08-06T09:31:43.000Z</time>
      </trkpt>
      <trkpt lat="49.29147" lon="-0.12731">
        <ele>9.313614</ele>
        <time>2022-08-06T09:31:44.000Z</time>
      </trkpt>
      <trkpt lat="49.29149" lon="-0.12731">
        <ele>9.297834</ele>
        <time>2022-08-06T09:31:45.000Z</time>
      </trkpt>
      <trkpt lat="49.29152" lon="-0.12732">
        <ele>9.271504</ele>
        <time>2022-08-06T09:31:47.000Z</time>
      </trkpt>
      <trkpt lat="49.29154" lon="-0.12733">
        <ele>9.250213</ele>
        <time>2022-08-06T09:31:49.000Z</time>
      </trkpt>
      <trkpt lat="49.29157" lon="-0.12734">
        <ele>9.228395</ele>
        <time>2022-08-06T09:31:51.000Z</time>
      </trkpt>
      <trkpt lat="49.29159" lon="-0.12734">
        <ele>9.210189</ele>
        <time>2022-08-06T09:31:53.000Z</time>
      </trkpt>
      <trkpt lat="49.29161" lon="-0.12736">
        <ele>9.191964</ele>
        <time>2022-08-06T09:31:56.000Z</time>
      </trkpt>
      <trkpt lat="49.29163" lon="-0.12738">
        <ele>9.173682</ele>
        <time>2022-08-06T09:31:59.000Z</time>
      </trkpt>
      <trkpt lat="49.29165" lon="-0.12739">
        <ele>9.156189</ele>
        <time>2022-08-06T09:32:03.000Z</time>
      </trkpt>
      <trkpt lat="49.29168" lon="-0.12743">
        <ele>9.119476</ele>
        <time>2022-08-06T09:32:08.000Z</time>
      </trkpt>
      <trkpt lat="49.29171" lon="-0.12748">
        <ele>9.08681</ele>
        <time>2022-08-06T09:32:10.000Z</time>
      </trkpt>
      <trkpt lat="49.29172" lon="-0.12752">
        <ele>9.063109</ele>
        <time>2022-08-06T09:32:11.000Z</time>
      </trkpt>
      <trkpt lat="49.29173" lon="-0.12757">
        <ele>9.036958</ele>
        <time>2022-08-06T09:32:12.000Z</time>
      </trkpt>
      <trkpt lat="49.29174" lon="-0.12763">
        <ele>9.005467</ele>
        <time>2022-08-06T09:32:13.000Z</time>
      </trkpt>
      <trkpt lat="49.29173" lon="-0.12769">
        <ele>8.972405</ele>
        <time>2022-08-06T09:32:14.000Z</time>
      </trkpt>
      <trkpt lat="49.29172" lon="-0.12775">
        <ele>8.939998</ele>
        <time>2022-08-06T09:32:15.000Z</time>
      </trkpt>
      <trkpt lat="49.29171" lon="-0.12781">
        <ele>8.905229</ele>
        <time>2022-08-06T09:32:16.000Z</time>
      </trkpt>
      <trkpt lat="49.2917" lon="-0.12787">
        <ele>8.870968</ele>
        <time>2022-08-06T09:32:17.000Z</time>
      </trkpt>
      <trkpt lat="49.29168" lon="-0.12793">
        <ele>8.837214</ele>
        <time>2022-08-06T09:32:18.000Z</time>
      </trkpt>
      <trkpt lat="49.29167" lon="-0.12799">
        <ele>8.803966</ele>
        <time>2022-08-06T09:32:19.000Z</time>
      </trkpt>
      <trkpt lat="49.29166" lon="-0.12805">
        <ele>8.77148</ele>
        <time>2022-08-06T09:32:20.000Z</time>
      </trkpt>
      <trkpt lat="49.29165" lon="-0.1281">
        <ele>8.739242</ele>
        <time>2022-08-06T09:32:21.000Z</time>
      </trkpt>
      <trkpt lat="49.29163" lon="-0.12816">
        <ele>8.705541</ele>
        <time>2022-08-06T09:32:22.000Z</time>
      </trkpt>
      <trkpt lat="49.29162" lon="-0.12822">
        <ele>8.672479</ele>
        <time>2022-08-06T09:32:23.000Z</time>
      </trkpt>
      <trkpt lat="49.2916" lon="-0.12828">
        <ele>8.636881</ele>
        <time>2022-08-06T09:32:24.000Z</time>
      </trkpt>
      <trkpt lat="49.29158" lon="-0.12834">
        <ele>8.600309</ele>
        <time>2022-08-06T09:32:25.000Z</time>
      </trkpt>
      <trkpt lat="49.29157" lon="-0.12841">
        <ele>8.564214</ele>
        <time>2022-08-06T09:32:26.000Z</time>
      </trkpt>
      <trkpt lat="49.29155" lon="-0.12847">
        <ele>8.529445</ele>
        <time>2022-08-06T09:32:27.000Z</time>
      </trkpt>
      <trkpt lat="49.29154" lon="-0.12853">
        <ele>8.494829</ele>
        <time>2022-08-06T09:32:28.000Z</time>
      </trkpt>
      <trkpt lat="49.29153" lon="-0.12859">
        <ele>8.460302</ele>
        <time>2022-08-06T09:32:29.000Z</time>
      </trkpt>
      <trkpt lat="49.29152" lon="-0.12865">
        <ele>8.428273</ele>
        <time>2022-08-06T09:32:30.000Z</time>
      </trkpt>
      <trkpt lat="49.29151" lon="-0.12871">
        <ele>8.393504</ele>
        <time>2022-08-06T09:32:31.000Z</time>
      </trkpt>
      <trkpt lat="49.2915" lon="-0.12877">
        <ele>8.360844</ele>
        <time>2022-08-06T09:32:32.000Z</time>
      </trkpt>
      <trkpt lat="49.29149" lon="-0.12883">
        <ele>8.326731</ele>
        <time>2022-08-06T09:32:33.000Z</time>
      </trkpt>
      <trkpt lat="49.29147" lon="-0.12889">
        <ele>8.29311</ele>
        <time>2022-08-06T09:32:34.000Z</time>
      </trkpt>
      <trkpt lat="49.29146" lon="-0.12895">
        <ele>8.259356</ele>
        <time>2022-08-06T09:32:35.000Z</time>
      </trkpt>
      <trkpt lat="49.29144" lon="-0.12901">
        <ele>8.224704</ele>
        <time>2022-08-06T09:32:36.000Z</time>
      </trkpt>
      <trkpt lat="49.29143" lon="-0.12907">
        <ele>8.192159</ele>
        <time>2022-08-06T09:32:37.000Z</time>
      </trkpt>
      <trkpt lat="49.29141" lon="-0.12912">
        <ele>8.158931</ele>
        <time>2022-08-06T09:32:38.000Z</time>
      </trkpt>
      <trkpt lat="49.2914" lon="-0.12918">
        <ele>8.127101</ele>
        <time>2022-08-06T09:32:39.000Z</time>
      </trkpt>
      <trkpt lat="49.29139" lon="-0.12924">
        <ele>8.091504</ele>
        <time>2022-08-06T09:32:40.000Z</time>
      </trkpt>
      <trkpt lat="49.29137" lon="-0.12931">
        <ele>8.054096</ele>
        <time>2022-08-06T09:32:41.000Z</time>
      </trkpt>
      <trkpt lat="49.29135" lon="-0.12936">
        <ele>8.020475</ele>
        <time>2022-08-06T09:32:42.000Z</time>
      </trkpt>
      <trkpt lat="49.29133" lon="-0.12942">
        <ele>7.990683</ele>
        <time>2022-08-06T09:32:43.000Z</time>
      </trkpt>
      <trkpt lat="49.29131" lon="-0.12948">
        <ele>7.966361</ele>
        <time>2022-08-06T09:32:44.000Z</time>
      </trkpt>
      <trkpt lat="49.2913" lon="-0.12955">
        <ele>7.942008</ele>
        <time>2022-08-06T09:32:45.000Z</time>
      </trkpt>
      <trkpt lat="49.29129" lon="-0.12961">
        <ele>7.917374</ele>
        <time>2022-08-06T09:32:46.000Z</time>
      </trkpt>
      <trkpt lat="49.29128" lon="-0.12968">
        <ele>7.89231</ele>
        <time>2022-08-06T09:32:47.000Z</time>
      </trkpt>
      <trkpt lat="49.29126" lon="-0.12975">
        <ele>7.865262</ele>
        <time>2022-08-06T09:32:48.000Z</time>
      </trkpt>
      <trkpt lat="49.29125" lon="-0.12982">
        <ele>7.838721</ele>
        <time>2022-08-06T09:32:49.000Z</time>
      </trkpt>
      <trkpt lat="49.29125" lon="-0.12989">
        <ele>7.812975</ele>
        <time>2022-08-06T09:32:50.000Z</time>
      </trkpt>
      <trkpt lat="49.29124" lon="-0.12996">
        <ele>7.786069</ele>
        <time>2022-08-06T09:32:51.000Z</time>
      </trkpt>
      <trkpt lat="49.29122" lon="-0.13003">
        <ele>7.758332</ele>
        <time>2022-08-06T09:32:52.000Z</time>
      </trkpt>
      <trkpt lat="49.29121" lon="-0.13011">
        <ele>7.730879</ele>
        <time>2022-08-06T09:32:53.000Z</time>
      </trkpt>
      <trkpt lat="49.2912" lon="-0.13018">
        <ele>7.703678</ele>
        <time>2022-08-06T09:32:54.000Z</time>
      </trkpt>
      <trkpt lat="49.29119" lon="-0.13025">
        <ele>7.67538</ele>
        <time>2022-08-06T09:32:55.000Z</time>
      </trkpt>
      <trkpt lat="49.29117" lon="-0.13033">
        <ele>7.646951</ele>
        <time>2022-08-06T09:32:56.000Z</time>
      </trkpt>
      <trkpt lat="49.29116" lon="-0.1304">
        <ele>7.618175</ele>
        <time>2022-08-06T09:32:57.000Z</time>
      </trkpt>
      <trkpt lat="49.29115" lon="-0.13048">
        <ele>7.590367</ele>
        <time>2022-08-06T09:32:58.000Z</time>
      </trkpt>
      <trkpt lat="49.29113" lon="-0.13055">
        <ele>7.561592</ele>
        <time>2022-08-06T09:32:59.000Z</time>
      </trkpt>
      <trkpt lat="49.29111" lon="-0.13063">
        <ele>7.532816</ele>
        <time>2022-08-06T09:33:00.000Z</time>
      </trkpt>
      <trkpt lat="49.2911" lon="-0.1307">
        <ele>7.504518</ele>
        <time>2022-08-06T09:33:01.000Z</time>
      </trkpt>
      <trkpt lat="49.29109" lon="-0.13078">
        <ele>7.475866</ele>
        <time>2022-08-06T09:33:02.000Z</time>
      </trkpt>
      <trkpt lat="49.29107" lon="-0.13086">
        <ele>7.446397</ele>
        <time>2022-08-06T09:33:03.000Z</time>
      </trkpt>
      <trkpt lat="49.29106" lon="-0.13093">
        <ele>7.417409</ele>
        <time>2022-08-06T09:33:04.000Z</time>
      </trkpt>
      <trkpt lat="49.29105" lon="-0.13101">
        <ele>7.38854</ele>
        <time>2022-08-06T09:33:05.000Z</time>
      </trkpt>
      <trkpt lat="49.29104" lon="-0.13109">
        <ele>7.360625</ele>
        <time>2022-08-06T09:33:06.000Z</time>
      </trkpt>
      <trkpt lat="49.29102" lon="-0.13116">
        <ele>7.331849</ele>
        <time>2022-08-06T09:33:07.000Z</time>
      </trkpt>
      <trkpt lat="49.29101" lon="-0.13123">
        <ele>7.304606</ele>
        <time>2022-08-06T09:33:08.000Z</time>
      </trkpt>
      <trkpt lat="49.291" lon="-0.13131">
        <ele>7.276798</ele>
        <time>2022-08-06T09:33:09.000Z</time>
      </trkpt>
      <trkpt lat="49.29099" lon="-0.13138">
        <ele>7.249597</ele>
        <time>2022-08-06T09:33:10.000Z</time>
      </trkpt>
      <trkpt lat="49.29099" lon="-0.13145">
        <ele>7.223128</ele>
        <time>2022-08-06T09:33:11.000Z</time>
      </trkpt>
      <trkpt lat="49.29097" lon="-0.13153">
        <ele>7.194829</ele>
        <time>2022-08-06T09:33:12.000Z</time>
      </trkpt>
      <trkpt lat="49.29096" lon="-0.1316">
        <ele>7.167234</ele>
        <time>2022-08-06T09:33:13.000Z</time>
      </trkpt>
      <trkpt lat="49.29094" lon="-0.13167">
        <ele>7.139497</ele>
        <time>2022-08-06T09:33:14.000Z</time>
      </trkpt>
      <trkpt lat="49.29093" lon="-0.13175">
        <ele>7.111198</ele>
        <time>2022-08-06T09:33:15.000Z</time>
      </trkpt>
      <trkpt lat="49.29092" lon="-0.13182">
        <ele>7.083115</ele>
        <time>2022-08-06T09:33:16.000Z</time>
      </trkpt>
      <trkpt lat="49.29091" lon="-0.1319">
        <ele>7.054589</ele>
        <time>2022-08-06T09:33:17.000Z</time>
      </trkpt>
      <trkpt lat="49.2909" lon="-0.13198">
        <ele>7.025601</ele>
        <time>2022-08-06T09:33:18.000Z</time>
      </trkpt>
      <trkpt lat="49.29089" lon="-0.13205">
        <ele>6.996971</ele>
        <time>2022-08-06T09:33:19.000Z</time>
      </trkpt>
      <trkpt lat="49.29087" lon="-0.13213">
        <ele>6.992047</ele>
        <time>2022-08-06T09:33:20.000Z</time>
      </trkpt>
      <trkpt lat="49.29086" lon="-0.1322">
        <ele>6.989314</ele>
        <time>2022-08-06T09:33:21.000Z</time>
      </trkpt>
      <trkpt lat="49.29085" lon="-0.13227">
        <ele>6.986599</ele>
        <time>2022-08-06T09:33:22.000Z</time>
      </trkpt>
      <trkpt lat="49.29084" lon="-0.13234">
        <ele>6.984043</ele>
        <time>2022-08-06T09:33:23.000Z</time>
      </trkpt>
      <trkpt lat="49.29083" lon="-0.13241">
        <ele>6.981428</ele>
        <time>2022-08-06T09:33:24.000Z</time>
      </trkpt>
      <trkpt lat="49.29082" lon="-0.13248">
        <ele>6.97887</ele>
        <time>2022-08-06T09:33:25.000Z</time>
      </trkpt>
      <trkpt lat="49.29081" lon="-0.13255">
        <ele>6.97649</ele>
        <time>2022-08-06T09:33:26.000Z</time>
      </trkpt>
      <trkpt lat="49.2908" lon="-0.13262">
        <ele>6.973995</ele>
        <time>2022-08-06T09:33:27.000Z</time>
      </trkpt>
      <trkpt lat="49.29079" lon="-0.13269">
        <ele>6.971436</ele>
        <time>2022-08-06T09:33:28.000Z</time>
      </trkpt>
      <trkpt lat="49.29077" lon="-0.13275">
        <ele>6.968941</ele>
        <time>2022-08-06T09:33:29.000Z</time>
      </trkpt>
      <trkpt lat="49.29077" lon="-0.13282">
        <ele>6.966533</ele>
        <time>2022-08-06T09:33:30.000Z</time>
      </trkpt>
      <trkpt lat="49.29076" lon="-0.13289">
        <ele>6.964079</ele>
        <time>2022-08-06T09:33:31.000Z</time>
      </trkpt>
      <trkpt lat="49.29075" lon="-0.13295">
        <ele>6.961753</ele>
        <time>2022-08-06T09:33:32.000Z</time>
      </trkpt>
      <trkpt lat="49.29075" lon="-0.13302">
        <ele>6.959409</ele>
        <time>2022-08-06T09:33:33.000Z</time>
      </trkpt>
      <trkpt lat="49.29073" lon="-0.13308">
        <ele>6.95705</ele>
        <time>2022-08-06T09:33:34.000Z</time>
      </trkpt>
      <trkpt lat="49.29072" lon="-0.13314">
        <ele>6.954666</ele>
        <time>2022-08-06T09:33:35.000Z</time>
      </trkpt>
      <trkpt lat="49.29071" lon="-0.13321">
        <ele>6.952272</ele>
        <time>2022-08-06T09:33:36.000Z</time>
      </trkpt>
      <trkpt lat="49.2907" lon="-0.13327">
        <ele>6.9501</ele>
        <time>2022-08-06T09:33:37.000Z</time>
      </trkpt>
      <trkpt lat="49.29069" lon="-0.13333">
        <ele>6.947924</ele>
        <time>2022-08-06T09:33:38.000Z</time>
      </trkpt>
      <trkpt lat="49.29068" lon="-0.13338">
        <ele>6.945936</ele>
        <time>2022-08-06T09:33:39.000Z</time>
      </trkpt>
      <trkpt lat="49.29067" lon="-0.13343">
        <ele>6.943911</ele>
        <time>2022-08-06T09:33:40.000Z</time>
      </trkpt>
      <trkpt lat="49.29066" lon="-0.13348">
        <ele>6.94205</ele>
        <time>2022-08-06T09:33:41.000Z</time>
      </trkpt>
      <trkpt lat="49.29065" lon="-0.13353">
        <ele>6.940198</ele>
        <time>2022-08-06T09:33:42.000Z</time>
      </trkpt>
      <trkpt lat="49.29066" lon="-0.13358">
        <ele>6.938619</ele>
        <time>2022-08-06T09:33:43.000Z</time>
      </trkpt>
      <trkpt lat="49.29067" lon="-0.13361">
        <ele>6.937255</ele>
        <time>2022-08-06T09:33:44.000Z</time>
      </trkpt>
      <trkpt lat="49.29067" lon="-0.13366">
        <ele>6.935426</ele>
        <time>2022-08-06T09:33:46.000Z</time>
      </trkpt>
      <trkpt lat="49.29067" lon="-0.1337">
        <ele>6.934095</ele>
        <time>2022-08-06T09:33:48.000Z</time>
      </trkpt>
      <trkpt lat="49.29063" lon="-0.13372">
        <ele>6.932229</ele>
        <time>2022-08-06T09:37:30.000Z</time>
      </trkpt>
      <trkpt lat="49.29062" lon="-0.13377">
        <ele>6.930337</ele>
        <time>2022-08-06T09:37:31.000Z</time>
      </trkpt>
      <trkpt lat="49.29061" lon="-0.13382">
        <ele>6.928147</ele>
        <time>2022-08-06T09:37:32.000Z</time>
      </trkpt>
      <trkpt lat="49.29059" lon="-0.13388">
        <ele>6.925991</ele>
        <time>2022-08-06T09:37:33.000Z</time>
      </trkpt>
      <trkpt lat="49.29058" lon="-0.13394">
        <ele>6.923666</ele>
        <time>2022-08-06T09:37:34.000Z</time>
      </trkpt>
      <trkpt lat="49.29057" lon="-0.13401">
        <ele>6.921363</ele>
        <time>2022-08-06T09:37:35.000Z</time>
      </trkpt>
      <trkpt lat="49.29055" lon="-0.13407">
        <ele>6.918782</ele>
        <time>2022-08-06T09:37:36.000Z</time>
      </trkpt>
      <trkpt lat="49.29054" lon="-0.13414">
        <ele>6.916224</ele>
        <time>2022-08-06T09:37:37.000Z</time>
      </trkpt>
      <trkpt lat="49.29053" lon="-0.1342">
        <ele>6.914288</ele>
        <time>2022-08-06T09:37:38.000Z</time>
      </trkpt>
      <trkpt lat="49.29053" lon="-0.13426">
        <ele>6.911811</ele>
        <time>2022-08-06T09:37:39.000Z</time>
      </trkpt>
      <trkpt lat="49.29051" lon="-0.13433">
        <ele>6.909197</ele>
        <time>2022-08-06T09:37:40.000Z</time>
      </trkpt>
      <trkpt lat="49.2905" lon="-0.1344">
        <ele>6.906564</ele>
        <time>2022-08-06T09:37:41.000Z</time>
      </trkpt>
      <trkpt lat="49.29049" lon="-0.13447">
        <ele>6.904043</ele>
        <time>2022-08-06T09:37:42.000Z</time>
      </trkpt>
      <trkpt lat="49.29047" lon="-0.13454">
        <ele>6.901395</ele>
        <time>2022-08-06T09:37:43.000Z</time>
      </trkpt>
      <trkpt lat="49.29046" lon="-0.13461">
        <ele>6.898871</ele>
        <time>2022-08-06T09:37:44.000Z</time>
      </trkpt>
      <trkpt lat="49.29045" lon="-0.13469">
        <ele>6.897361</ele>
        <time>2022-08-06T09:37:45.000Z</time>
      </trkpt>
      <trkpt lat="49.29044" lon="-0.13476">
        <ele>6.914952</ele>
        <time>2022-08-06T09:37:46.000Z</time>
      </trkpt>
      <trkpt lat="49.29043" lon="-0.13483">
        <ele>6.93246</ele>
        <time>2022-08-06T09:37:47.000Z</time>
      </trkpt>
      <trkpt lat="49.29041" lon="-0.13489">
        <ele>6.949763</ele>
        <time>2022-08-06T09:37:48.000Z</time>
      </trkpt>
      <trkpt lat="49.2904" lon="-0.13496">
        <ele>6.968024</ele>
        <time>2022-08-06T09:37:49.000Z</time>
      </trkpt>
      <trkpt lat="49.29039" lon="-0.13502">
        <ele>6.984618</ele>
        <time>2022-08-06T09:37:50.000Z</time>
      </trkpt>
      <trkpt lat="49.29037" lon="-0.13508">
        <ele>7.000799</ele>
        <time>2022-08-06T09:37:51.000Z</time>
      </trkpt>
      <trkpt lat="49.29037" lon="-0.13514">
        <ele>7.016058</ele>
        <time>2022-08-06T09:37:52.000Z</time>
      </trkpt>
      <trkpt lat="49.29035" lon="-0.1352">
        <ele>7.031996</ele>
        <time>2022-08-06T09:37:53.000Z</time>
      </trkpt>
      <trkpt lat="49.29035" lon="-0.13524">
        <ele>7.043752</ele>
        <time>2022-08-06T09:37:54.000Z</time>
      </trkpt>
      <trkpt lat="49.29034" lon="-0.1353">
        <ele>7.058612</ele>
        <time>2022-08-06T09:37:55.000Z</time>
      </trkpt>
      <trkpt lat="49.29033" lon="-0.13537">
        <ele>7.076202</ele>
        <time>2022-08-06T09:37:56.000Z</time>
      </trkpt>
      <trkpt lat="49.29031" lon="-0.13542">
        <ele>7.091532</ele>
        <time>2022-08-06T09:37:57.000Z</time>
      </trkpt>
      <trkpt lat="49.29031" lon="-0.13548">
        <ele>7.105874</ele>
        <time>2022-08-06T09:37:58.000Z</time>
      </trkpt>
      <trkpt lat="49.2903" lon="-0.13552">
        <ele>7.11792</ele>
        <time>2022-08-06T09:37:59.000Z</time>
      </trkpt>
      <trkpt lat="49.29029" lon="-0.13558">
        <ele>7.13278</ele>
        <time>2022-08-06T09:38:00.000Z</time>
      </trkpt>
      <trkpt lat="49.29028" lon="-0.13565">
        <ele>7.15067</ele>
        <time>2022-08-06T09:38:01.000Z</time>
      </trkpt>
      <trkpt lat="49.29027" lon="-0.1357">
        <ele>7.165183</ele>
        <time>2022-08-06T09:38:02.000Z</time>
      </trkpt>
      <trkpt lat="49.29025" lon="-0.13575">
        <ele>7.179898</ele>
        <time>2022-08-06T09:38:03.000Z</time>
      </trkpt>
      <trkpt lat="49.29024" lon="-0.1358">
        <ele>7.193528</ele>
        <time>2022-08-06T09:38:04.000Z</time>
      </trkpt>
      <trkpt lat="49.29024" lon="-0.13586">
        <ele>7.206889</ele>
        <time>2022-08-06T09:38:05.000Z</time>
      </trkpt>
      <trkpt lat="49.29023" lon="-0.13591">
        <ele>7.220729</ele>
        <time>2022-08-06T09:38:06.000Z</time>
      </trkpt>
      <trkpt lat="49.29022" lon="-0.13596">
        <ele>7.234004</ele>
        <time>2022-08-06T09:38:07.000Z</time>
      </trkpt>
      <trkpt lat="49.29021" lon="-0.13601">
        <ele>7.247389</ele>
        <time>2022-08-06T09:38:08.000Z</time>
      </trkpt>
      <trkpt lat="49.2902" lon="-0.13606">
        <ele>7.261158</ele>
        <time>2022-08-06T09:38:09.000Z</time>
      </trkpt>
      <trkpt lat="49.29019" lon="-0.13611">
        <ele>7.274543</ele>
        <time>2022-08-06T09:38:10.000Z</time>
      </trkpt>
      <trkpt lat="49.29018" lon="-0.13616">
        <ele>7.287139</ele>
        <time>2022-08-06T09:38:11.000Z</time>
      </trkpt>
      <trkpt lat="49.29018" lon="-0.1362">
        <ele>7.297953</ele>
        <time>2022-08-06T09:38:12.000Z</time>
      </trkpt>
      <trkpt lat="49.29017" lon="-0.13624">
        <ele>7.307959</ele>
        <time>2022-08-06T09:38:13.000Z</time>
      </trkpt>
      <trkpt lat="49.29017" lon="-0.13628">
        <ele>7.318823</ele>
        <time>2022-08-06T09:38:14.000Z</time>
      </trkpt>
      <trkpt lat="49.29016" lon="-0.13632">
        <ele>7.329894</ele>
        <time>2022-08-06T09:38:15.000Z</time>
      </trkpt>
      <trkpt lat="49.29015" lon="-0.13636">
        <ele>7.340989</ele>
        <time>2022-08-06T09:38:16.000Z</time>
      </trkpt>
      <trkpt lat="49.29014" lon="-0.13641">
        <ele>7.354146</ele>
        <time>2022-08-06T09:38:17.000Z</time>
      </trkpt>
      <trkpt lat="49.29013" lon="-0.13646">
        <ele>7.368512</ele>
        <time>2022-08-06T09:38:18.000Z</time>
      </trkpt>
      <trkpt lat="49.29012" lon="-0.13652">
        <ele>7.383126</ele>
        <time>2022-08-06T09:38:19.000Z</time>
      </trkpt>
      <trkpt lat="49.29011" lon="-0.13657">
        <ele>7.396389</ele>
        <time>2022-08-06T09:38:20.000Z</time>
      </trkpt>
      <trkpt lat="49.2901" lon="-0.13662">
        <ele>7.409928</ele>
        <time>2022-08-06T09:38:21.000Z</time>
      </trkpt>
      <trkpt lat="49.29009" lon="-0.13667">
        <ele>7.42271</ele>
        <time>2022-08-06T09:38:22.000Z</time>
      </trkpt>
      <trkpt lat="49.29008" lon="-0.13671">
        <ele>7.435776</ele>
        <time>2022-08-06T09:38:23.000Z</time>
      </trkpt>
      <trkpt lat="49.29007" lon="-0.13676">
        <ele>7.449161</ele>
        <time>2022-08-06T09:38:24.000Z</time>
      </trkpt>
      <trkpt lat="49.29006" lon="-0.13681">
        <ele>7.462436</ele>
        <time>2022-08-06T09:38:25.000Z</time>
      </trkpt>
      <trkpt lat="49.29005" lon="-0.13687">
        <ele>7.476091</ele>
        <time>2022-08-06T09:38:26.000Z</time>
      </trkpt>
      <trkpt lat="49.29005" lon="-0.13692">
        <ele>7.489607</ele>
        <time>2022-08-06T09:38:27.000Z</time>
      </trkpt>
      <trkpt lat="49.29003" lon="-0.13697">
        <ele>7.504091</ele>
        <time>2022-08-06T09:38:28.000Z</time>
      </trkpt>
      <trkpt lat="49.29002" lon="-0.13702">
        <ele>7.517867</ele>
        <time>2022-08-06T09:38:29.000Z</time>
      </trkpt>
      <trkpt lat="49.29001" lon="-0.13707">
        <ele>7.531142</ele>
        <time>2022-08-06T09:38:30.000Z</time>
      </trkpt>
      <trkpt lat="49.28999" lon="-0.13712">
        <ele>7.545396</ele>
        <time>2022-08-06T09:38:31.000Z</time>
      </trkpt>
      <trkpt lat="49.28998" lon="-0.13717">
        <ele>7.560128</ele>
        <time>2022-08-06T09:38:32.000Z</time>
      </trkpt>
      <trkpt lat="49.28997" lon="-0.13723">
        <ele>7.574742</ele>
        <time>2022-08-06T09:38:33.000Z</time>
      </trkpt>
      <trkpt lat="49.28997" lon="-0.13729">
        <ele>7.589633</ele>
        <time>2022-08-06T09:38:34.000Z</time>
      </trkpt>
      <trkpt lat="49.28996" lon="-0.13734">
        <ele>7.608314</ele>
        <time>2022-08-06T09:38:35.000Z</time>
      </trkpt>
      <trkpt lat="49.28995" lon="-0.1374">
        <ele>7.641641</ele>
        <time>2022-08-06T09:38:36.000Z</time>
      </trkpt>
      <trkpt lat="49.28993" lon="-0.13745">
        <ele>7.678726</ele>
        <time>2022-08-06T09:38:37.000Z</time>
      </trkpt>
      <trkpt lat="49.28992" lon="-0.13751">
        <ele>7.716362</ele>
        <time>2022-08-06T09:38:38.000Z</time>
      </trkpt>
      <trkpt lat="49.28991" lon="-0.13757">
        <ele>7.752789</ele>
        <time>2022-08-06T09:38:39.000Z</time>
      </trkpt>
      <trkpt lat="49.2899" lon="-0.13763">
        <ele>7.787449</ele>
        <time>2022-08-06T09:38:40.000Z</time>
      </trkpt>
      <trkpt lat="49.28989" lon="-0.13768">
        <ele>7.822305</ele>
        <time>2022-08-06T09:38:41.000Z</time>
      </trkpt>
      <trkpt lat="49.28988" lon="-0.13774">
        <ele>7.856965</ele>
        <time>2022-08-06T09:38:42.000Z</time>
      </trkpt>
      <trkpt lat="49.28987" lon="-0.13779">
        <ele>7.88651</ele>
        <time>2022-08-06T09:38:43.000Z</time>
      </trkpt>
      <trkpt lat="49.28986" lon="-0.13784">
        <ele>7.919483</ele>
        <time>2022-08-06T09:38:44.000Z</time>
      </trkpt>
      <trkpt lat="49.28985" lon="-0.1379">
        <ele>7.959195</ele>
        <time>2022-08-06T09:38:45.000Z</time>
      </trkpt>
      <trkpt lat="49.28984" lon="-0.13795">
        <ele>7.988063</ele>
        <time>2022-08-06T09:38:46.000Z</time>
      </trkpt>
      <trkpt lat="49.28984" lon="-0.138">
        <ele>8.018666</ele>
        <time>2022-08-06T09:38:47.000Z</time>
      </trkpt>
      <trkpt lat="49.28983" lon="-0.13805">
        <ele>8.051569</ele>
        <time>2022-08-06T09:38:48.000Z</time>
      </trkpt>
      <trkpt lat="49.28982" lon="-0.1381">
        <ele>8.083971</ele>
        <time>2022-08-06T09:38:49.000Z</time>
      </trkpt>
      <trkpt lat="49.28981" lon="-0.13816">
        <ele>8.121756</ele>
        <time>2022-08-06T09:38:50.000Z</time>
      </trkpt>
      <trkpt lat="49.2898" lon="-0.13821">
        <ele>8.150567</ele>
        <time>2022-08-06T09:38:51.000Z</time>
      </trkpt>
      <trkpt lat="49.28979" lon="-0.13826">
        <ele>8.179189</ele>
        <time>2022-08-06T09:38:52.000Z</time>
      </trkpt>
      <trkpt lat="49.28979" lon="-0.1383">
        <ele>8.203846</ele>
        <time>2022-08-06T09:38:53.000Z</time>
      </trkpt>
      <trkpt lat="49.28978" lon="-0.13834">
        <ele>8.230566</ele>
        <time>2022-08-06T09:38:54.000Z</time>
      </trkpt>
      <trkpt lat="49.28977" lon="-0.13838">
        <ele>8.255854</ele>
        <time>2022-08-06T09:38:55.000Z</time>
      </trkpt>
      <trkpt lat="49.28976" lon="-0.13842">
        <ele>8.280343</ele>
        <time>2022-08-06T09:38:56.000Z</time>
      </trkpt>
      <trkpt lat="49.28975" lon="-0.13846">
        <ele>8.303128</ele>
        <time>2022-08-06T09:38:57.000Z</time>
      </trkpt>
      <trkpt lat="49.28974" lon="-0.13849">
        <ele>8.325964</ele>
        <time>2022-08-06T09:38:58.000Z</time>
      </trkpt>
      <trkpt lat="49.28974" lon="-0.13853">
        <ele>8.347061</ele>
        <time>2022-08-06T09:38:59.000Z</time>
      </trkpt>
      <trkpt lat="49.28974" lon="-0.13855">
        <ele>8.364019</ele>
        <time>2022-08-06T09:39:00.000Z</time>
      </trkpt>
      <trkpt lat="49.28973" lon="-0.13859">
        <ele>8.383492</ele>
        <time>2022-08-06T09:39:01.000Z</time>
      </trkpt>
      <trkpt lat="49.28973" lon="-0.13862">
        <ele>8.404589</ele>
        <time>2022-08-06T09:39:02.000Z</time>
      </trkpt>
      <trkpt lat="49.28972" lon="-0.13866">
        <ele>8.431578</ele>
        <time>2022-08-06T09:39:04.000Z</time>
      </trkpt>
      <trkpt lat="49.28972" lon="-0.1387">
        <ele>8.456328</ele>
        <time>2022-08-06T09:39:06.000Z</time>
      </trkpt>
      <trkpt lat="49.2897" lon="-0.13879">
        <ele>8.509201</ele>
        <time>2022-08-06T09:40:20.000Z</time>
      </trkpt>
      <trkpt lat="49.28968" lon="-0.13883">
        <ele>8.535731</ele>
        <time>2022-08-06T09:40:21.000Z</time>
      </trkpt>
      <trkpt lat="49.28966" lon="-0.13886">
        <ele>8.563875</ele>
        <time>2022-08-06T09:40:22.000Z</time>
      </trkpt>
      <trkpt lat="49.28965" lon="-0.1389">
        <ele>8.588467</ele>
        <time>2022-08-06T09:40:23.000Z</time>
      </trkpt>
      <trkpt lat="49.28964" lon="-0.13893">
        <ele>8.612564</ele>
        <time>2022-08-06T09:40:24.000Z</time>
      </trkpt>
      <trkpt lat="49.28962" lon="-0.13896">
        <ele>8.634366</ele>
        <time>2022-08-06T09:40:25.000Z</time>
      </trkpt>
      <trkpt lat="49.28959" lon="-0.139">
        <ele>8.668791</ele>
        <time>2022-08-06T09:40:27.000Z</time>
      </trkpt>
      <trkpt lat="49.28957" lon="-0.13903">
        <ele>8.695279</ele>
        <time>2022-08-06T09:40:29.000Z</time>
      </trkpt>
      <trkpt lat="49.28957" lon="-0.13907">
        <ele>8.720566</ele>
        <time>2022-08-06T09:40:31.000Z</time>
      </trkpt>
      <trkpt lat="49.28956" lon="-0.1391">
        <ele>8.741235</ele>
        <time>2022-08-06T09:40:34.000Z</time>
      </trkpt>
      <trkpt lat="49.28962" lon="-0.13917">
        <ele>8.812942</ele>
        <time>2022-08-06T09:40:47.000Z</time>
      </trkpt>
      <trkpt lat="49.28965" lon="-0.13919">
        <ele>8.842859</ele>
        <time>2022-08-06T09:40:49.000Z</time>
      </trkpt>
      <trkpt lat="49.28966" lon="-0.13922">
        <ele>8.864384</ele>
        <time>2022-08-06T09:40:52.000Z</time>
      </trkpt>
      <trkpt lat="49.28966" lon="-0.1393">
        <ele>8.914885</ele>
        <time>2022-08-06T09:42:58.000Z</time>
      </trkpt>
      <trkpt lat="49.28963" lon="-0.13933">
        <ele>8.94239</ele>
        <time>2022-08-06T09:42:59.000Z</time>
      </trkpt>
      <trkpt lat="49.2896" lon="-0.13933">
        <ele>8.974814</ele>
        <time>2022-08-06T09:43:00.000Z</time>
      </trkpt>
      <trkpt lat="49.28957" lon="-0.13933">
        <ele>9.004135</ele>
        <time>2022-08-06T09:43:01.000Z</time>
      </trkpt>
      <trkpt lat="49.28953" lon="-0.13933">
        <ele>9.033463</ele>
        <time>2022-08-06T09:43:02.000Z</time>
      </trkpt>
      <trkpt lat="49.2895" lon="-0.13933">
        <ele>9.065538</ele>
        <time>2022-08-06T09:43:03.000Z</time>
      </trkpt>
      <trkpt lat="49.28947" lon="-0.13935">
        <ele>9.090418</ele>
        <time>2022-08-06T09:43:04.000Z</time>
      </trkpt>
      <trkpt lat="49.28944" lon="-0.13936">
        <ele>9.118102</ele>
        <time>2022-08-06T09:43:05.000Z</time>
      </trkpt>
      <trkpt lat="49.28942" lon="-0.13937">
        <ele>9.136324</ele>
        <time>2022-08-06T09:43:06.000Z</time>
      </trkpt>
      <trkpt lat="49.2894" lon="-0.13937">
        <ele>9.156702</ele>
        <time>2022-08-06T09:43:07.000Z</time>
      </trkpt>
      <trkpt lat="49.28938" lon="-0.13937">
        <ele>9.180533</ele>
        <time>2022-08-06T09:43:08.000Z</time>
      </trkpt>
      <trkpt lat="49.28934" lon="-0.13937">
        <ele>9.209854</ele>
        <time>2022-08-06T09:43:09.000Z</time>
      </trkpt>
      <trkpt lat="49.28931" lon="-0.13937">
        <ele>9.239182</ele>
        <time>2022-08-06T09:43:10.000Z</time>
      </trkpt>
      <trkpt lat="49.28928" lon="-0.13937">
        <ele>9.213924</ele>
        <time>2022-08-06T09:43:11.000Z</time>
      </trkpt>
      <trkpt lat="49.28925" lon="-0.13937">
        <ele>9.15194</ele>
        <time>2022-08-06T09:43:12.000Z</time>
      </trkpt>
      <trkpt lat="49.28921" lon="-0.13937">
        <ele>9.082872</ele>
        <time>2022-08-06T09:43:13.000Z</time>
      </trkpt>
      <trkpt lat="49.28917" lon="-0.13937">
        <ele>9.015575</ele>
        <time>2022-08-06T09:43:14.000Z</time>
      </trkpt>
      <trkpt lat="49.28912" lon="-0.13938">
        <ele>8.935672</ele>
        <time>2022-08-06T09:43:15.000Z</time>
      </trkpt>
      <trkpt lat="49.28908" lon="-0.13938">
        <ele>8.850657</ele>
        <time>2022-08-06T09:43:16.000Z</time>
      </trkpt>
      <trkpt lat="49.28902" lon="-0.13937">
        <ele>8.75485</ele>
        <time>2022-08-06T09:43:17.000Z</time>
      </trkpt>
      <trkpt lat="49.28898" lon="-0.13937">
        <ele>8.674947</ele>
        <time>2022-08-06T09:43:18.000Z</time>
      </trkpt>
      <trkpt lat="49.28893" lon="-0.13936">
        <ele>8.584509</ele>
        <time>2022-08-06T09:43:19.000Z</time>
      </trkpt>
      <trkpt lat="49.28887" lon="-0.13937">
        <ele>8.486996</ele>
        <time>2022-08-06T09:43:20.000Z</time>
      </trkpt>
      <trkpt lat="49.28882" lon="-0.13937">
        <ele>8.396411</ele>
        <time>2022-08-06T09:43:21.000Z</time>
      </trkpt>
      <trkpt lat="49.28876" lon="-0.13938">
        <ele>8.288227</ele>
        <time>2022-08-06T09:43:22.000Z</time>
      </trkpt>
      <trkpt lat="49.2887" lon="-0.13938">
        <ele>8.187116</ele>
        <time>2022-08-06T09:43:23.000Z</time>
      </trkpt>
      <trkpt lat="49.28864" lon="-0.13939">
        <ele>8.078932</ele>
        <time>2022-08-06T09:43:24.000Z</time>
      </trkpt>
      <trkpt lat="49.28858" lon="-0.13939">
        <ele>7.976053</ele>
        <time>2022-08-06T09:43:25.000Z</time>
      </trkpt>
      <trkpt lat="49.28853" lon="-0.1394">
        <ele>7.874784</ele>
        <time>2022-08-06T09:43:26.000Z</time>
      </trkpt>
      <trkpt lat="49.28847" lon="-0.1394">
        <ele>7.777319</ele>
        <time>2022-08-06T09:43:27.000Z</time>
      </trkpt>
      <trkpt lat="49.28842" lon="-0.13941">
        <ele>7.692116</ele>
        <time>2022-08-06T09:43:28.000Z</time>
      </trkpt>
      <trkpt lat="49.28838" lon="-0.13941">
        <ele>7.619277</ele>
        <time>2022-08-06T09:43:29.000Z</time>
      </trkpt>
      <trkpt lat="49.28834" lon="-0.13942">
        <ele>7.549431</ele>
        <time>2022-08-06T09:43:30.000Z</time>
      </trkpt>
      <trkpt lat="49.28831" lon="-0.13943">
        <ele>7.486379</ele>
        <time>2022-08-06T09:43:31.000Z</time>
      </trkpt>
      <trkpt lat="49.28828" lon="-0.13943">
        <ele>7.429708</ele>
        <time>2022-08-06T09:43:32.000Z</time>
      </trkpt>
      <trkpt lat="49.28824" lon="-0.13943">
        <ele>7.367724</ele>
        <time>2022-08-06T09:43:33.000Z</time>
      </trkpt>
      <trkpt lat="49.28821" lon="-0.13944">
        <ele>7.305643</ele>
        <time>2022-08-06T09:43:34.000Z</time>
      </trkpt>
      <trkpt lat="49.28817" lon="-0.13944">
        <ele>7.236536</ele>
        <time>2022-08-06T09:43:35.000Z</time>
      </trkpt>
      <trkpt lat="49.28813" lon="-0.13944">
        <ele>7.1692</ele>
        <time>2022-08-06T09:43:36.000Z</time>
      </trkpt>
      <trkpt lat="49.28808" lon="-0.13944">
        <ele>7.089506</ele>
        <time>2022-08-06T09:43:37.000Z</time>
      </trkpt>
      <trkpt lat="49.28804" lon="-0.13944">
        <ele>7.004499</ele>
        <time>2022-08-06T09:43:38.000Z</time>
      </trkpt>
      <trkpt lat="49.28799" lon="-0.13944">
        <ele>6.924771</ele>
        <time>2022-08-06T09:43:39.000Z</time>
      </trkpt>
      <trkpt lat="49.28795" lon="-0.13944">
        <ele>6.851932</ele>
        <time>2022-08-06T09:43:40.000Z</time>
      </trkpt>
      <trkpt lat="49.2879" lon="-0.13945">
        <ele>6.772163</ele>
        <time>2022-08-06T09:43:41.000Z</time>
      </trkpt>
      <trkpt lat="49.28786" lon="-0.13945">
        <ele>6.68696</ele>
        <time>2022-08-06T09:43:42.000Z</time>
      </trkpt>
      <trkpt lat="49.28782" lon="-0.13946">
        <ele>6.619179</ele>
        <time>2022-08-06T09:43:43.000Z</time>
      </trkpt>
      <trkpt lat="49.28776" lon="-0.13946">
        <ele>6.521713</ele>
        <time>2022-08-06T09:43:44.000Z</time>
      </trkpt>
      <trkpt lat="49.28771" lon="-0.13946">
        <ele>6.426053</ele>
        <time>2022-08-06T09:43:45.000Z</time>
      </trkpt>
      <trkpt lat="49.28766" lon="-0.13946">
        <ele>6.34635</ele>
        <time>2022-08-06T09:43:46.000Z</time>
      </trkpt>
      <trkpt lat="49.28762" lon="-0.13946">
        <ele>6.261336</ele>
        <time>2022-08-06T09:43:47.000Z</time>
      </trkpt>
      <trkpt lat="49.28757" lon="-0.13946">
        <ele>6.176203</ele>
        <time>2022-08-06T09:43:48.000Z</time>
      </trkpt>
      <trkpt lat="49.28752" lon="-0.13946">
        <ele>6.085876</ele>
        <time>2022-08-06T09:43:49.000Z</time>
      </trkpt>
      <trkpt lat="49.28747" lon="-0.13946">
        <ele>6.055369</ele>
        <time>2022-08-06T09:43:50.000Z</time>
      </trkpt>
      <trkpt lat="49.28742" lon="-0.13946">
        <ele>6.040339</ele>
        <time>2022-08-06T09:43:51.000Z</time>
      </trkpt>
      <trkpt lat="49.28737" lon="-0.13947">
        <ele>6.027803</ele>
        <time>2022-08-06T09:43:52.000Z</time>
      </trkpt>
      <trkpt lat="49.28732" lon="-0.13947">
        <ele>6.013603</ele>
        <time>2022-08-06T09:43:53.000Z</time>
      </trkpt>
      <trkpt lat="49.28728" lon="-0.13947">
        <ele>6.001067</ele>
        <time>2022-08-06T09:43:54.000Z</time>
      </trkpt>
      <trkpt lat="49.28723" lon="-0.13947">
        <ele>5.987696</ele>
        <time>2022-08-06T09:43:55.000Z</time>
      </trkpt>
      <trkpt lat="49.28719" lon="-0.13948">
        <ele>5.977913</ele>
        <time>2022-08-06T09:43:56.000Z</time>
      </trkpt>
      <trkpt lat="49.28714" lon="-0.13948">
        <ele>5.962578</ele>
        <time>2022-08-06T09:43:57.000Z</time>
      </trkpt>
      <trkpt lat="49.2871" lon="-0.13949">
        <ele>5.951143</ele>
        <time>2022-08-06T09:43:58.000Z</time>
      </trkpt>
      <trkpt lat="49.28706" lon="-0.13949">
        <ele>5.941122</ele>
        <time>2022-08-06T09:43:59.000Z</time>
      </trkpt>
      <trkpt lat="49.28702" lon="-0.13949">
        <ele>5.929711</ele>
        <time>2022-08-06T09:44:00.000Z</time>
      </trkpt>
      <trkpt lat="49.28697" lon="-0.13949">
        <ele>5.91634</ele>
        <time>2022-08-06T09:44:01.000Z</time>
      </trkpt>
      <trkpt lat="49.28694" lon="-0.13948">
        <ele>5.906583</ele>
        <time>2022-08-06T09:44:02.000Z</time>
      </trkpt>
      <trkpt lat="49.2869" lon="-0.13948">
        <ele>5.896557</ele>
        <time>2022-08-06T09:44:03.000Z</time>
      </trkpt>
      <trkpt lat="49.28688" lon="-0.13948">
        <ele>5.890423</ele>
        <time>2022-08-06T09:44:04.000Z</time>
      </trkpt>
      <trkpt lat="49.28684" lon="-0.13948">
        <ele>5.879833</ele>
        <time>2022-08-06T09:44:05.000Z</time>
      </trkpt>
      <trkpt lat="49.28681" lon="-0.13947">
        <ele>5.87171</ele>
        <time>2022-08-06T09:44:06.000Z</time>
      </trkpt>
      <trkpt lat="49.28678" lon="-0.13947">
        <ele>5.862804</ele>
        <time>2022-08-06T09:44:07.000Z</time>
      </trkpt>
      <trkpt lat="49.28676" lon="-0.13948">
        <ele>5.855511</ele>
        <time>2022-08-06T09:44:08.000Z</time>
      </trkpt>
      <trkpt lat="49.28672" lon="-0.13948">
        <ele>5.845754</ele>
        <time>2022-08-06T09:44:09.000Z</time>
      </trkpt>
      <trkpt lat="49.28669" lon="-0.13948">
        <ele>5.83765</ele>
        <time>2022-08-06T09:44:10.000Z</time>
      </trkpt>
      <trkpt lat="49.28666" lon="-0.13949">
        <ele>5.828727</ele>
        <time>2022-08-06T09:44:11.000Z</time>
      </trkpt>
      <trkpt lat="49.28661" lon="-0.13949">
        <ele>5.816202</ele>
        <time>2022-08-06T09:44:12.000Z</time>
      </trkpt>
      <trkpt lat="49.28657" lon="-0.13949">
        <ele>5.804791</ele>
        <time>2022-08-06T09:44:13.000Z</time>
      </trkpt>
      <trkpt lat="49.28654" lon="-0.13949">
        <ele>5.795877</ele>
        <time>2022-08-06T09:44:14.000Z</time>
      </trkpt>
      <trkpt lat="49.2865" lon="-0.13949">
        <ele>5.785016</ele>
        <time>2022-08-06T09:44:15.000Z</time>
      </trkpt>
      <trkpt lat="49.28646" lon="-0.13949">
        <ele>5.773592</ele>
        <time>2022-08-06T09:44:16.000Z</time>
      </trkpt>
      <trkpt lat="49.28642" lon="-0.13949">
        <ele>5.761062</ele>
        <time>2022-08-06T09:44:17.000Z</time>
      </trkpt>
      <trkpt lat="49.28638" lon="-0.13949">
        <ele>5.75048</ele>
        <time>2022-08-06T09:44:18.000Z</time>
      </trkpt>
      <trkpt lat="49.28634" lon="-0.13949">
        <ele>5.740453</ele>
        <time>2022-08-06T09:44:19.000Z</time>
      </trkpt>
      <trkpt lat="49.28631" lon="-0.13949">
        <ele>5.73266</ele>
        <time>2022-08-06T09:44:20.000Z</time>
      </trkpt>
      <trkpt lat="49.28627" lon="-0.13949">
        <ele>5.719296</ele>
        <time>2022-08-06T09:44:21.000Z</time>
      </trkpt>
      <trkpt lat="49.28623" lon="-0.1395">
        <ele>5.708403</ele>
        <time>2022-08-06T09:44:22.000Z</time>
      </trkpt>
      <trkpt lat="49.28619" lon="-0.1395">
        <ele>5.696979</ele>
        <time>2022-08-06T09:44:23.000Z</time>
      </trkpt>
      <trkpt lat="49.28615" lon="-0.13951">
        <ele>5.68605</ele>
        <time>2022-08-06T09:44:24.000Z</time>
      </trkpt>
      <trkpt lat="49.28612" lon="-0.13951">
        <ele>5.677127</ele>
        <time>2022-08-06T09:44:25.000Z</time>
      </trkpt>
      <trkpt lat="49.28607" lon="-0.13951">
        <ele>5.66459</ele>
        <time>2022-08-06T09:44:26.000Z</time>
      </trkpt>
      <trkpt lat="49.28602" lon="-0.13951">
        <ele>5.651231</ele>
        <time>2022-08-06T09:44:27.000Z</time>
      </trkpt>
      <trkpt lat="49.28598" lon="-0.13952">
        <ele>5.638979</ele>
        <time>2022-08-06T09:44:28.000Z</time>
      </trkpt>
      <trkpt lat="49.28594" lon="-0.13952">
        <ele>5.627277</ele>
        <time>2022-08-06T09:44:29.000Z</time>
      </trkpt>
      <trkpt lat="49.2859" lon="-0.13952">
        <ele>5.617535</ele>
        <time>2022-08-06T09:44:30.000Z</time>
      </trkpt>
      <trkpt lat="49.28585" lon="-0.13952">
        <ele>5.604175</ele>
        <time>2022-08-06T09:44:31.000Z</time>
      </trkpt>
      <trkpt lat="49.28581" lon="-0.13952">
        <ele>5.592463</ele>
        <time>2022-08-06T09:44:32.000Z</time>
      </trkpt>
      <trkpt lat="49.28577" lon="-0.13952">
        <ele>5.579939</ele>
        <time>2022-08-06T09:44:33.000Z</time>
      </trkpt>
      <trkpt lat="49.28572" lon="-0.13952">
        <ele>5.566579</ele>
        <time>2022-08-06T09:44:34.000Z</time>
      </trkpt>
      <trkpt lat="49.28568" lon="-0.13952">
        <ele>5.561329</ele>
        <time>2022-08-06T09:44:35.000Z</time>
      </trkpt>
      <trkpt lat="49.28565" lon="-0.13952">
        <ele>5.558131</ele>
        <time>2022-08-06T09:44:36.000Z</time>
      </trkpt>
      <trkpt lat="49.28561" lon="-0.13953">
        <ele>5.55493</ele>
        <time>2022-08-06T09:44:37.000Z</time>
      </trkpt>
      <trkpt lat="49.28558" lon="-0.13953">
        <ele>5.552535</ele>
        <time>2022-08-06T09:44:38.000Z</time>
      </trkpt>
      <trkpt lat="49.28555" lon="-0.13954">
        <ele>5.549582</ele>
        <time>2022-08-06T09:44:39.000Z</time>
      </trkpt>
      <trkpt lat="49.28553" lon="-0.13955">
        <ele>5.547467</ele>
        <time>2022-08-06T09:44:40.000Z</time>
      </trkpt>
      <trkpt lat="49.2855" lon="-0.13958">
        <ele>5.54427</ele>
        <time>2022-08-06T09:44:42.000Z</time>
      </trkpt>
      <trkpt lat="49.28549" lon="-0.13961">
        <ele>5.542006</ele>
        <time>2022-08-06T09:44:43.000Z</time>
      </trkpt>
      <trkpt lat="49.28547" lon="-0.13965">
        <ele>5.539018</ele>
        <time>2022-08-06T09:44:45.000Z</time>
      </trkpt>
      <trkpt lat="49.28547" lon="-0.13969">
        <ele>5.536918</ele>
        <time>2022-08-06T09:44:49.000Z</time>
      </trkpt>
      <trkpt lat="49.28544" lon="-0.13969">
        <ele>5.534516</ele>
        <time>2022-08-06T09:44:51.000Z</time>
      </trkpt>
      <trkpt lat="49.28541" lon="-0.13967">
        <ele>5.531475</ele>
        <time>2022-08-06T09:44:53.000Z</time>
      </trkpt>
      <trkpt lat="49.2854" lon="-0.13965">
        <ele>5.52973</ele>
        <time>2022-08-06T09:44:54.000Z</time>
      </trkpt>
      <trkpt lat="49.28537" lon="-0.13962">
        <ele>5.526829</ele>
        <time>2022-08-06T09:44:56.000Z</time>
      </trkpt>
      <trkpt lat="49.28535" lon="-0.1396">
        <ele>5.524942</ele>
        <time>2022-08-06T09:44:57.000Z</time>
      </trkpt>
      <trkpt lat="49.28533" lon="-0.13958">
        <ele>5.522792</ele>
        <time>2022-08-06T09:44:58.000Z</time>
      </trkpt>
      <trkpt lat="49.28531" lon="-0.13956">
        <ele>5.520064</ele>
        <time>2022-08-06T09:45:00.000Z</time>
      </trkpt>
      <trkpt lat="49.28527" lon="-0.13955">
        <ele>5.516483</ele>
        <time>2022-08-06T09:45:02.000Z</time>
      </trkpt>
      <trkpt lat="49.28525" lon="-0.13955">
        <ele>5.514471</ele>
        <time>2022-08-06T09:45:03.000Z</time>
      </trkpt>
      <trkpt lat="49.28522" lon="-0.13956">
        <ele>5.512093</ele>
        <time>2022-08-06T09:45:04.000Z</time>
      </trkpt>
      <trkpt lat="49.28519" lon="-0.13956">
        <ele>5.509163</ele>
        <time>2022-08-06T09:45:05.000Z</time>
      </trkpt>
      <trkpt lat="49.28516" lon="-0.13956">
        <ele>5.506587</ele>
        <time>2022-08-06T09:45:06.000Z</time>
      </trkpt>
      <trkpt lat="49.28513" lon="-0.13956">
        <ele>5.503297</ele>
        <time>2022-08-06T09:45:07.000Z</time>
      </trkpt>
      <trkpt lat="49.28509" lon="-0.13956">
        <ele>5.500099</ele>
        <time>2022-08-06T09:45:08.000Z</time>
      </trkpt>
      <trkpt lat="49.28505" lon="-0.13957">
        <ele>5.496624</ele>
        <time>2022-08-06T09:45:09.000Z</time>
      </trkpt>
      <trkpt lat="49.28501" lon="-0.13957">
        <ele>5.493058</ele>
        <time>2022-08-06T09:45:10.000Z</time>
      </trkpt>
      <trkpt lat="49.28498" lon="-0.13957">
        <ele>5.489586</ele>
        <time>2022-08-06T09:45:11.000Z</time>
      </trkpt>
      <trkpt lat="49.28494" lon="-0.13957">
        <ele>5.486113</ele>
        <time>2022-08-06T09:45:12.000Z</time>
      </trkpt>
      <trkpt lat="49.2849" lon="-0.13957">
        <ele>5.482541</ele>
        <time>2022-08-06T09:45:13.000Z</time>
      </trkpt>
      <trkpt lat="49.28486" lon="-0.13957">
        <ele>5.479343</ele>
        <time>2022-08-06T09:45:14.000Z</time>
      </trkpt>
      <trkpt lat="49.28483" lon="-0.13957">
        <ele>5.47587</ele>
        <time>2022-08-06T09:45:15.000Z</time>
      </trkpt>
      <trkpt lat="49.28479" lon="-0.13957">
        <ele>5.472306</ele>
        <time>2022-08-06T09:45:16.000Z</time>
      </trkpt>
      <trkpt lat="49.28475" lon="-0.13958">
        <ele>5.468829</ele>
        <time>2022-08-06T09:45:17.000Z</time>
      </trkpt>
      <trkpt lat="49.2847" lon="-0.13958">
        <ele>5.464439</ele>
        <time>2022-08-06T09:45:18.000Z</time>
      </trkpt>
      <trkpt lat="49.28467" lon="-0.13958">
        <ele>5.461227</ele>
        <time>2022-08-06T09:45:19.000Z</time>
      </trkpt>
      <trkpt lat="49.28462" lon="-0.13959">
        <ele>5.456839</ele>
        <time>2022-08-06T09:45:20.000Z</time>
      </trkpt>
      <trkpt lat="49.28458" lon="-0.13959">
        <ele>5.45299</ele>
        <time>2022-08-06T09:45:21.000Z</time>
      </trkpt>
      <trkpt lat="49.28453" lon="-0.13959">
        <ele>5.448874</ele>
        <time>2022-08-06T09:45:22.000Z</time>
      </trkpt>
      <trkpt lat="49.28449" lon="-0.1396">
        <ele>5.44476</ele>
        <time>2022-08-06T09:45:23.000Z</time>
      </trkpt>
      <trkpt lat="49.28445" lon="-0.1396">
        <ele>5.441283</ele>
        <time>2022-08-06T09:45:24.000Z</time>
      </trkpt>
      <trkpt lat="49.28441" lon="-0.1396">
        <ele>5.438084</ele>
        <time>2022-08-06T09:45:25.000Z</time>
      </trkpt>
      <trkpt lat="49.28437" lon="-0.13959">
        <ele>5.434471</ele>
        <time>2022-08-06T09:45:26.000Z</time>
      </trkpt>
      <trkpt lat="49.28434" lon="-0.13957">
        <ele>5.4308</ele>
        <time>2022-08-06T09:45:27.000Z</time>
      </trkpt>
      <trkpt lat="49.2843" lon="-0.13954">
        <ele>5.426947</ele>
        <time>2022-08-06T09:45:28.000Z</time>
      </trkpt>
      <trkpt lat="49.28426" lon="-0.13951">
        <ele>5.42296</ele>
        <time>2022-08-06T09:45:29.000Z</time>
      </trkpt>
      <trkpt lat="49.28422" lon="-0.13949">
        <ele>5.419181</ele>
        <time>2022-08-06T09:45:30.000Z</time>
      </trkpt>
      <trkpt lat="49.28418" lon="-0.13947">
        <ele>5.414899</ele>
        <time>2022-08-06T09:45:31.000Z</time>
      </trkpt>
      <trkpt lat="49.28413" lon="-0.13945">
        <ele>5.410664</ele>
        <time>2022-08-06T09:45:32.000Z</time>
      </trkpt>
      <trkpt lat="49.28409" lon="-0.13943">
        <ele>5.406714</ele>
        <time>2022-08-06T09:45:33.000Z</time>
      </trkpt>
      <trkpt lat="49.28404" lon="-0.1394">
        <ele>5.401977</ele>
        <time>2022-08-06T09:45:34.000Z</time>
      </trkpt>
      <trkpt lat="49.284" lon="-0.13936">
        <ele>5.400894</ele>
        <time>2022-08-06T09:45:35.000Z</time>
      </trkpt>
      <trkpt lat="49.28396" lon="-0.13933">
        <ele>5.404413</ele>
        <time>2022-08-06T09:45:36.000Z</time>
      </trkpt>
      <trkpt lat="49.28391" lon="-0.13931">
        <ele>5.40806</ele>
        <time>2022-08-06T09:45:37.000Z</time>
      </trkpt>
      <trkpt lat="49.28386" lon="-0.13928">
        <ele>5.411758</ele>
        <time>2022-08-06T09:45:38.000Z</time>
      </trkpt>
      <trkpt lat="49.28382" lon="-0.13925">
        <ele>5.415193</ele>
        <time>2022-08-06T09:45:39.000Z</time>
      </trkpt>
      <trkpt lat="49.28378" lon="-0.13921">
        <ele>5.418538</ele>
        <time>2022-08-06T09:45:40.000Z</time>
      </trkpt>
      <trkpt lat="49.28373" lon="-0.13918">
        <ele>5.421863</ele>
        <time>2022-08-06T09:45:41.000Z</time>
      </trkpt>
      <trkpt lat="49.28368" lon="-0.13915">
        <ele>5.425794</ele>
        <time>2022-08-06T09:45:42.000Z</time>
      </trkpt>
      <trkpt lat="49.28364" lon="-0.13911">
        <ele>5.429188</ele>
        <time>2022-08-06T09:45:43.000Z</time>
      </trkpt>
      <trkpt lat="49.2836" lon="-0.13908">
        <ele>5.432707</ele>
        <time>2022-08-06T09:45:44.000Z</time>
      </trkpt>
      <trkpt lat="49.28356" lon="-0.13905">
        <ele>5.436053</ele>
        <time>2022-08-06T09:45:45.000Z</time>
      </trkpt>
      <trkpt lat="49.28351" lon="-0.13902">
        <ele>5.439254</ele>
        <time>2022-08-06T09:45:46.000Z</time>
      </trkpt>
      <trkpt lat="49.28348" lon="-0.13899">
        <ele>5.442346</ele>
        <time>2022-08-06T09:45:47.000Z</time>
      </trkpt>
      <trkpt lat="49.28344" lon="-0.13896">
        <ele>5.445417</ele>
        <time>2022-08-06T09:45:48.000Z</time>
      </trkpt>
      <trkpt lat="49.28339" lon="-0.13893">
        <ele>5.449114</ele>
        <time>2022-08-06T09:45:49.000Z</time>
      </trkpt>
      <trkpt lat="49.28335" lon="-0.1389">
        <ele>5.45242</ele>
        <time>2022-08-06T09:45:50.000Z</time>
      </trkpt>
      <trkpt lat="49.28331" lon="-0.13887">
        <ele>5.455469</ele>
        <time>2022-08-06T09:45:51.000Z</time>
      </trkpt>
      <trkpt lat="49.28327" lon="-0.13884">
        <ele>5.458581</ele>
        <time>2022-08-06T09:45:52.000Z</time>
      </trkpt>
      <trkpt lat="49.28324" lon="-0.13881">
        <ele>5.461488</ele>
        <time>2022-08-06T09:45:53.000Z</time>
      </trkpt>
      <trkpt lat="49.2832" lon="-0.13879">
        <ele>5.46405</ele>
        <time>2022-08-06T09:45:54.000Z</time>
      </trkpt>
      <trkpt lat="49.28318" lon="-0.13877">
        <ele>5.465807</ele>
        <time>2022-08-06T09:45:55.000Z</time>
      </trkpt>
      <trkpt lat="49.28316" lon="-0.13876">
        <ele>5.467556</ele>
        <time>2022-08-06T09:45:56.000Z</time>
      </trkpt>
      <trkpt lat="49.28314" lon="-0.13874">
        <ele>5.469335</ele>
        <time>2022-08-06T09:45:58.000Z</time>
      </trkpt>
      <trkpt lat="49.28312" lon="-0.13869">
        <ele>5.471582</ele>
        <time>2022-08-06T09:46:00.000Z</time>
      </trkpt>
      <trkpt lat="49.28311" lon="-0.13865">
        <ele>5.474091</ele>
        <time>2022-08-06T09:46:02.000Z</time>
      </trkpt>
      <trkpt lat="49.28309" lon="-0.13862">
        <ele>5.475939</ele>
        <time>2022-08-06T09:46:04.000Z</time>
      </trkpt>
      <trkpt lat="49.28307" lon="-0.13861">
        <ele>5.477621</ele>
        <time>2022-08-06T09:46:06.000Z</time>
      </trkpt>
      <trkpt lat="49.28305" lon="-0.13859">
        <ele>5.479252</ele>
        <time>2022-08-06T09:46:08.000Z</time>
      </trkpt>
      <trkpt lat="49.28299" lon="-0.13856">
        <ele>5.483481</ele>
        <time>2022-08-06T09:46:50.000Z</time>
      </trkpt>
      <trkpt lat="49.28297" lon="-0.13855">
        <ele>5.485283</ele>
        <time>2022-08-06T09:46:51.000Z</time>
      </trkpt>
      <trkpt lat="49.28294" lon="-0.13853">
        <ele>5.487084</ele>
        <time>2022-08-06T09:46:52.000Z</time>
      </trkpt>
      <trkpt lat="49.28292" lon="-0.13851">
        <ele>5.489119</ele>
        <time>2022-08-06T09:46:53.000Z</time>
      </trkpt>
      <trkpt lat="49.28289" lon="-0.13849">
        <ele>5.491285</ele>
        <time>2022-08-06T09:46:54.000Z</time>
      </trkpt>
      <trkpt lat="49.28286" lon="-0.13847">
        <ele>5.493403</ele>
        <time>2022-08-06T09:46:55.000Z</time>
      </trkpt>
      <trkpt lat="49.28284" lon="-0.13845">
        <ele>5.495303</ele>
        <time>2022-08-06T09:46:56.000Z</time>
      </trkpt>
      <trkpt lat="49.28281" lon="-0.13842">
        <ele>5.497653</ele>
        <time>2022-08-06T09:46:57.000Z</time>
      </trkpt>
      <trkpt lat="49.28279" lon="-0.1384">
        <ele>5.499297</ele>
        <time>2022-08-06T09:46:58.000Z</time>
      </trkpt>
      <trkpt lat="49.28277" lon="-0.13838">
        <ele>5.501081</ele>
        <time>2022-08-06T09:46:59.000Z</time>
      </trkpt>
      <trkpt lat="49.28275" lon="-0.13836">
        <ele>5.502905</ele>
        <time>2022-08-06T09:47:00.000Z</time>
      </trkpt>
      <trkpt lat="49.28274" lon="-0.13833">
        <ele>5.504391</ele>
        <time>2022-08-06T09:47:01.000Z</time>
      </trkpt>
      <trkpt lat="49.28273" lon="-0.13831">
        <ele>5.505719</ele>
        <time>2022-08-06T09:47:02.000Z</time>
      </trkpt>
      <trkpt lat="49.28273" lon="-0.13826">
        <ele>5.507917</ele>
        <time>2022-08-06T09:47:04.000Z</time>
      </trkpt>
      <trkpt lat="49.28273" lon="-0.13823">
        <ele>5.50922</ele>
        <time>2022-08-06T09:47:06.000Z</time>
      </trkpt>
      <trkpt lat="49.28274" lon="-0.13814">
        <ele>5.513494</ele>
        <time>2022-08-06T09:47:25.000Z</time>
      </trkpt>
      <trkpt lat="49.28274" lon="-0.13811">
        <ele>5.515216</ele>
        <time>2022-08-06T09:47:27.000Z</time>
      </trkpt>
      <trkpt lat="49.28273" lon="-0.13807">
        <ele>5.517185</ele>
        <time>2022-08-06T09:47:30.000Z</time>
      </trkpt>
      <trkpt lat="49.28272" lon="-0.13803">
        <ele>5.518979</ele>
        <time>2022-08-06T09:47:32.000Z</time>
      </trkpt>
      <trkpt lat="49.2827" lon="-0.13804">
        <ele>5.520341</ele>
        <time>2022-08-06T09:47:33.000Z</time>
      </trkpt>
      <trkpt lat="49.28268" lon="-0.13805">
        <ele>5.522376</ele>
        <time>2022-08-06T09:47:34.000Z</time>
      </trkpt>
      <trkpt lat="49.28265" lon="-0.13808">
        <ele>5.524612</ele>
        <time>2022-08-06T09:47:35.000Z</time>
      </trkpt>
      <trkpt lat="49.28263" lon="-0.13811">
        <ele>5.526641</ele>
        <time>2022-08-06T09:47:36.000Z</time>
      </trkpt>
      <trkpt lat="49.28261" lon="-0.13815">
        <ele>5.523636</ele>
        <time>2022-08-06T09:47:37.000Z</time>
      </trkpt>
      <trkpt lat="49.28259" lon="-0.13817">
        <ele>5.515119</ele>
        <time>2022-08-06T09:47:38.000Z</time>
      </trkpt>
      <trkpt lat="49.28256" lon="-0.13818">
        <ele>5.507367</ele>
        <time>2022-08-06T09:47:39.000Z</time>
      </trkpt>
      <trkpt lat="49.28253" lon="-0.13818">
        <ele>5.497942</ele>
        <time>2022-08-06T09:47:40.000Z</time>
      </trkpt>
      <trkpt lat="49.28251" lon="-0.13818">
        <ele>5.488853</ele>
        <time>2022-08-06T09:47:41.000Z</time>
      </trkpt>
      <trkpt lat="49.28247" lon="-0.13818">
        <ele>5.477162</ele>
        <time>2022-08-06T09:47:42.000Z</time>
      </trkpt>
      <trkpt lat="49.28244" lon="-0.13817">
        <ele>5.465688</ele>
        <time>2022-08-06T09:47:43.000Z</time>
      </trkpt>
      <trkpt lat="49.2824" lon="-0.13816">
        <ele>5.453186</ele>
        <time>2022-08-06T09:47:44.000Z</time>
      </trkpt>
      <trkpt lat="49.28236" lon="-0.13814">
        <ele>5.441457</ele>
        <time>2022-08-06T09:47:45.000Z</time>
      </trkpt>
      <trkpt lat="49.28232" lon="-0.13813">
        <ele>5.426377</ele>
        <time>2022-08-06T09:47:46.000Z</time>
      </trkpt>
      <trkpt lat="49.28228" lon="-0.13811">
        <ele>5.412236</ele>
        <time>2022-08-06T09:47:47.000Z</time>
      </trkpt>
      <trkpt lat="49.28223" lon="-0.13809">
        <ele>5.397208</ele>
        <time>2022-08-06T09:47:48.000Z</time>
      </trkpt>
      <trkpt lat="49.28219" lon="-0.13808">
        <ele>5.382678</ele>
        <time>2022-08-06T09:47:49.000Z</time>
      </trkpt>
      <trkpt lat="49.28213" lon="-0.13806">
        <ele>5.365559</ele>
        <time>2022-08-06T09:47:50.000Z</time>
      </trkpt>
      <trkpt lat="49.28209" lon="-0.13806">
        <ele>5.351192</ele>
        <time>2022-08-06T09:47:51.000Z</time>
      </trkpt>
      <trkpt lat="49.28205" lon="-0.13805">
        <ele>5.336594</ele>
        <time>2022-08-06T09:47:52.000Z</time>
      </trkpt>
      <trkpt lat="49.28199" lon="-0.13805">
        <ele>5.318749</ele>
        <time>2022-08-06T09:47:53.000Z</time>
      </trkpt>
      <trkpt lat="49.28195" lon="-0.13805">
        <ele>5.304468</ele>
        <time>2022-08-06T09:47:54.000Z</time>
      </trkpt>
      <trkpt lat="49.2819" lon="-0.13805">
        <ele>5.288903</ele>
        <time>2022-08-06T09:47:55.000Z</time>
      </trkpt>
      <trkpt lat="49.28185" lon="-0.13805">
        <ele>5.274312</ele>
        <time>2022-08-06T09:47:56.000Z</time>
      </trkpt>
      <trkpt lat="49.2818" lon="-0.13805">
        <ele>5.257775</ele>
        <time>2022-08-06T09:47:57.000Z</time>
      </trkpt>
      <trkpt lat="49.28176" lon="-0.13805">
        <ele>5.243182</ele>
        <time>2022-08-06T09:47:58.000Z</time>
      </trkpt>
      <trkpt lat="49.28171" lon="-0.13805">
        <ele>5.228589</ele>
        <time>2022-08-06T09:47:59.000Z</time>
      </trkpt>
      <trkpt lat="49.28167" lon="-0.13805">
        <ele>5.213998</ele>
        <time>2022-08-06T09:48:00.000Z</time>
      </trkpt>
      <trkpt lat="49.28162" lon="-0.13805">
        <ele>5.199406</ele>
        <time>2022-08-06T09:48:01.000Z</time>
      </trkpt>
      <trkpt lat="49.28159" lon="-0.13805">
        <ele>5.188039</ele>
        <time>2022-08-06T09:48:02.000Z</time>
      </trkpt>
      <trkpt lat="49.28154" lon="-0.13805">
        <ele>5.173434</ele>
        <time>2022-08-06T09:48:03.000Z</time>
      </trkpt>
      <trkpt lat="49.2815" lon="-0.13805">
        <ele>5.160138</ele>
        <time>2022-08-06T09:48:04.000Z</time>
      </trkpt>
      <trkpt lat="49.28145" lon="-0.13805">
        <ele>5.144503</ele>
        <time>2022-08-06T09:48:05.000Z</time>
      </trkpt>
      <trkpt lat="49.28141" lon="-0.13804">
        <ele>5.12976</ele>
        <time>2022-08-06T09:48:06.000Z</time>
      </trkpt>
      <trkpt lat="49.28136" lon="-0.13803">
        <ele>5.113156</ele>
        <time>2022-08-06T09:48:07.000Z</time>
      </trkpt>
      <trkpt lat="49.28131" lon="-0.13802">
        <ele>5.09851</ele>
        <time>2022-08-06T09:48:08.000Z</time>
      </trkpt>
      <trkpt lat="49.28127" lon="-0.13801">
        <ele>5.084759</ele>
        <time>2022-08-06T09:48:09.000Z</time>
      </trkpt>
      <trkpt lat="49.28123" lon="-0.13802">
        <ele>5.070485</ele>
        <time>2022-08-06T09:48:10.000Z</time>
      </trkpt>
      <trkpt lat="49.28119" lon="-0.13802">
        <ele>5.058718</ele>
        <time>2022-08-06T09:48:11.000Z</time>
      </trkpt>
      <trkpt lat="49.28115" lon="-0.13803">
        <ele>5.044437</ele>
        <time>2022-08-06T09:48:12.000Z</time>
      </trkpt>
      <trkpt lat="49.28111" lon="-0.13803">
        <ele>5.03267</ele>
        <time>2022-08-06T09:48:13.000Z</time>
      </trkpt>
      <trkpt lat="49.28107" lon="-0.13804">
        <ele>5.020332</ele>
        <time>2022-08-06T09:48:14.000Z</time>
      </trkpt>
      <trkpt lat="49.28103" lon="-0.13804">
        <ele>5.007965</ele>
        <time>2022-08-06T09:48:15.000Z</time>
      </trkpt>
      <trkpt lat="49.28099" lon="-0.13805">
        <ele>4.994242</ele>
        <time>2022-08-06T09:48:16.000Z</time>
      </trkpt>
      <trkpt lat="49.28096" lon="-0.13806">
        <ele>4.982698</ele>
        <time>2022-08-06T09:48:17.000Z</time>
      </trkpt>
      <trkpt lat="49.28092" lon="-0.13807">
        <ele>4.968916</ele>
        <time>2022-08-06T09:48:18.000Z</time>
      </trkpt>
      <trkpt lat="49.28087" lon="-0.13808">
        <ele>4.955486</ele>
        <time>2022-08-06T09:48:19.000Z</time>
      </trkpt>
      <trkpt lat="49.28083" lon="-0.13808">
        <ele>4.944332</ele>
        <time>2022-08-06T09:48:20.000Z</time>
      </trkpt>
      <trkpt lat="49.28079" lon="-0.13809">
        <ele>4.943368</ele>
        <time>2022-08-06T09:48:21.000Z</time>
      </trkpt>
      <trkpt lat="49.28076" lon="-0.1381">
        <ele>4.942293</ele>
        <time>2022-08-06T09:48:22.000Z</time>
      </trkpt>
      <trkpt lat="49.28071" lon="-0.13811">
        <ele>4.941161</ele>
        <time>2022-08-06T09:48:23.000Z</time>
      </trkpt>
      <trkpt lat="49.28067" lon="-0.13812">
        <ele>4.93991</ele>
        <time>2022-08-06T09:48:24.000Z</time>
      </trkpt>
      <trkpt lat="49.28063" lon="-0.13813">
        <ele>4.938743</ele>
        <time>2022-08-06T09:48:25.000Z</time>
      </trkpt>
      <trkpt lat="49.28059" lon="-0.13814">
        <ele>4.93769</ele>
        <time>2022-08-06T09:48:26.000Z</time>
      </trkpt>
      <trkpt lat="49.28054" lon="-0.13815">
        <ele>4.936457</ele>
        <time>2022-08-06T09:48:27.000Z</time>
      </trkpt>
      <trkpt lat="49.28051" lon="-0.13815">
        <ele>4.935418</ele>
        <time>2022-08-06T09:48:28.000Z</time>
      </trkpt>
      <trkpt lat="49.28046" lon="-0.13815">
        <ele>4.93427</ele>
        <time>2022-08-06T09:48:29.000Z</time>
      </trkpt>
      <trkpt lat="49.28042" lon="-0.13815">
        <ele>4.933122</ele>
        <time>2022-08-06T09:48:30.000Z</time>
      </trkpt>
      <trkpt lat="49.28038" lon="-0.13815">
        <ele>4.932002</ele>
        <time>2022-08-06T09:48:31.000Z</time>
      </trkpt>
      <trkpt lat="49.28034" lon="-0.13815">
        <ele>4.930855</ele>
        <time>2022-08-06T09:48:32.000Z</time>
      </trkpt>
      <trkpt lat="49.2803" lon="-0.13815">
        <ele>4.929731</ele>
        <time>2022-08-06T09:48:33.000Z</time>
      </trkpt>
      <trkpt lat="49.28025" lon="-0.13814">
        <ele>4.928412</ele>
        <time>2022-08-06T09:48:34.000Z</time>
      </trkpt>
      <trkpt lat="49.28021" lon="-0.13813">
        <ele>4.927161</ele>
        <time>2022-08-06T09:48:35.000Z</time>
      </trkpt>
      <trkpt lat="49.28016" lon="-0.13812">
        <ele>4.925994</ele>
        <time>2022-08-06T09:48:36.000Z</time>
      </trkpt>
      <trkpt lat="49.28012" lon="-0.1381">
        <ele>4.924743</ele>
        <time>2022-08-06T09:48:37.000Z</time>
      </trkpt>
      <trkpt lat="49.28007" lon="-0.13809">
        <ele>4.923522</ele>
        <time>2022-08-06T09:48:38.000Z</time>
      </trkpt>
      <trkpt lat="49.28004" lon="-0.13808">
        <ele>4.922511</ele>
        <time>2022-08-06T09:48:39.000Z</time>
      </trkpt>
      <trkpt lat="49.28" lon="-0.13807">
        <ele>4.921461</ele>
        <time>2022-08-06T09:48:40.000Z</time>
      </trkpt>
      <trkpt lat="49.27996" lon="-0.13807">
        <ele>4.920311</ele>
        <time>2022-08-06T09:48:41.000Z</time>
      </trkpt>
      <trkpt lat="49.27991" lon="-0.13808">
        <ele>4.919096</ele>
        <time>2022-08-06T09:48:42.000Z</time>
      </trkpt>
      <trkpt lat="49.27987" lon="-0.13809">
        <ele>4.91794</ele>
        <time>2022-08-06T09:48:43.000Z</time>
      </trkpt>
      <trkpt lat="49.27983" lon="-0.1381">
        <ele>4.916886</ele>
        <time>2022-08-06T09:48:44.000Z</time>
      </trkpt>
      <trkpt lat="49.27979" lon="-0.13811">
        <ele>4.915716</ele>
        <time>2022-08-06T09:48:45.000Z</time>
      </trkpt>
      <trkpt lat="49.27975" lon="-0.13813">
        <ele>4.914529</ele>
        <time>2022-08-06T09:48:46.000Z</time>
      </trkpt>
      <trkpt lat="49.27971" lon="-0.13815">
        <ele>4.913298</ele>
        <time>2022-08-06T09:48:47.000Z</time>
      </trkpt>
      <trkpt lat="49.27967" lon="-0.13816">
        <ele>4.912199</ele>
        <time>2022-08-06T09:48:48.000Z</time>
      </trkpt>
      <trkpt lat="49.27963" lon="-0.13817">
        <ele>4.911139</ele>
        <time>2022-08-06T09:48:49.000Z</time>
      </trkpt>
      <trkpt lat="49.27959" lon="-0.13818">
        <ele>4.909988</ele>
        <time>2022-08-06T09:48:50.000Z</time>
      </trkpt>
      <trkpt lat="49.27955" lon="-0.13818">
        <ele>4.908868</ele>
        <time>2022-08-06T09:48:51.000Z</time>
      </trkpt>
      <trkpt lat="49.27951" lon="-0.13817">
        <ele>4.907793</ele>
        <time>2022-08-06T09:48:52.000Z</time>
      </trkpt>
      <trkpt lat="49.27947" lon="-0.13815">
        <ele>4.906663</ele>
        <time>2022-08-06T09:48:53.000Z</time>
      </trkpt>
      <trkpt lat="49.27944" lon="-0.1381">
        <ele>4.905631</ele>
        <time>2022-08-06T09:48:54.000Z</time>
      </trkpt>
      <trkpt lat="49.27942" lon="-0.13806">
        <ele>4.904661</ele>
        <time>2022-08-06T09:48:55.000Z</time>
      </trkpt>
      <trkpt lat="49.27941" lon="-0.138">
        <ele>4.903557</ele>
        <time>2022-08-06T09:48:56.000Z</time>
      </trkpt>
      <trkpt lat="49.27941" lon="-0.13794">
        <ele>4.902477</ele>
        <time>2022-08-06T09:48:57.000Z</time>
      </trkpt>
      <trkpt lat="49.2794" lon="-0.13788">
        <ele>4.901374</ele>
        <time>2022-08-06T09:48:58.000Z</time>
      </trkpt>
      <trkpt lat="49.2794" lon="-0.13781">
        <ele>4.90023</ele>
        <time>2022-08-06T09:48:59.000Z</time>
      </trkpt>
      <trkpt lat="49.27939" lon="-0.13775">
        <ele>4.89906</ele>
        <time>2022-08-06T09:49:00.000Z</time>
      </trkpt>
      <trkpt lat="49.27938" lon="-0.13769">
        <ele>4.897967</ele>
        <time>2022-08-06T09:49:01.000Z</time>
      </trkpt>
      <trkpt lat="49.27936" lon="-0.13764">
        <ele>4.897041</ele>
        <time>2022-08-06T09:49:02.000Z</time>
      </trkpt>
      <trkpt lat="49.27934" lon="-0.1376">
        <ele>4.896053</ele>
        <time>2022-08-06T09:49:03.000Z</time>
      </trkpt>
      <trkpt lat="49.27932" lon="-0.13757">
        <ele>4.897909</ele>
        <time>2022-08-06T09:49:04.000Z</time>
      </trkpt>
      <trkpt lat="49.27929" lon="-0.13755">
        <ele>4.905102</ele>
        <time>2022-08-06T09:49:05.000Z</time>
      </trkpt>
      <trkpt lat="49.27925" lon="-0.13754">
        <ele>4.913895</ele>
        <time>2022-08-06T09:49:06.000Z</time>
      </trkpt>
      <trkpt lat="49.27921" lon="-0.13754">
        <ele>4.921912</ele>
        <time>2022-08-06T09:49:07.000Z</time>
      </trkpt>
      <trkpt lat="49.27917" lon="-0.13753">
        <ele>4.930851</ele>
        <time>2022-08-06T09:49:08.000Z</time>
      </trkpt>
      <trkpt lat="49.27914" lon="-0.13752">
        <ele>4.93962</ele>
        <time>2022-08-06T09:49:09.000Z</time>
      </trkpt>
      <trkpt lat="49.2791" lon="-0.13751">
        <ele>4.947908</ele>
        <time>2022-08-06T09:49:10.000Z</time>
      </trkpt>
      <trkpt lat="49.27907" lon="-0.13748">
        <ele>4.956312</ele>
        <time>2022-08-06T09:49:11.000Z</time>
      </trkpt>
      <trkpt lat="49.27904" lon="-0.13744">
        <ele>4.965453</ele>
        <time>2022-08-06T09:49:12.000Z</time>
      </trkpt>
      <trkpt lat="49.279" lon="-0.13741">
        <ele>4.974984</ele>
        <time>2022-08-06T09:49:13.000Z</time>
      </trkpt>
      <trkpt lat="49.27897" lon="-0.13737">
        <ele>4.984036</ele>
        <time>2022-08-06T09:49:14.000Z</time>
      </trkpt>
      <trkpt lat="49.27894" lon="-0.13733">
        <ele>4.993447</ele>
        <time>2022-08-06T09:49:15.000Z</time>
      </trkpt>
      <trkpt lat="49.27892" lon="-0.13728">
        <ele>5.002391</ele>
        <time>2022-08-06T09:49:16.000Z</time>
      </trkpt>
      <trkpt lat="49.27889" lon="-0.13723">
        <ele>5.011364</ele>
        <time>2022-08-06T09:49:17.000Z</time>
      </trkpt>
      <trkpt lat="49.27887" lon="-0.13718">
        <ele>5.021084</ele>
        <time>2022-08-06T09:49:18.000Z</time>
      </trkpt>
      <trkpt lat="49.27885" lon="-0.13712">
        <ele>5.030682</ele>
        <time>2022-08-06T09:49:19.000Z</time>
      </trkpt>
      <trkpt lat="49.27882" lon="-0.13706">
        <ele>5.041275</ele>
        <time>2022-08-06T09:49:20.000Z</time>
      </trkpt>
      <trkpt lat="49.27879" lon="-0.13701">
        <ele>5.051193</ele>
        <time>2022-08-06T09:49:21.000Z</time>
      </trkpt>
      <trkpt lat="49.27877" lon="-0.13696">
        <ele>5.059792</ele>
        <time>2022-08-06T09:49:22.000Z</time>
      </trkpt>
      <trkpt lat="49.27876" lon="-0.13692">
        <ele>5.067768</ele>
        <time>2022-08-06T09:49:23.000Z</time>
      </trkpt>
      <trkpt lat="49.27874" lon="-0.13688">
        <ele>5.074497</ele>
        <time>2022-08-06T09:49:24.000Z</time>
      </trkpt>
      <trkpt lat="49.27872" lon="-0.13685">
        <ele>5.080855</ele>
        <time>2022-08-06T09:49:25.000Z</time>
      </trkpt>
      <trkpt lat="49.2787" lon="-0.13681">
        <ele>5.088379</ele>
        <time>2022-08-06T09:49:26.000Z</time>
      </trkpt>
      <trkpt lat="49.27867" lon="-0.13677">
        <ele>5.097212</ele>
        <time>2022-08-06T09:49:27.000Z</time>
      </trkpt>
      <trkpt lat="49.27864" lon="-0.13671">
        <ele>5.107734</ele>
        <time>2022-08-06T09:49:28.000Z</time>
      </trkpt>
      <trkpt lat="49.27862" lon="-0.13665">
        <ele>5.11806</ele>
        <time>2022-08-06T09:49:29.000Z</time>
      </trkpt>
      <trkpt lat="49.27861" lon="-0.13658">
        <ele>5.12846</ele>
        <time>2022-08-06T09:49:30.000Z</time>
      </trkpt>
      <trkpt lat="49.2786" lon="-0.13652">
        <ele>5.138797</ele>
        <time>2022-08-06T09:49:31.000Z</time>
      </trkpt>
      <trkpt lat="49.27858" lon="-0.13646">
        <ele>5.148441</ele>
        <time>2022-08-06T09:49:32.000Z</time>
      </trkpt>
      <trkpt lat="49.27857" lon="-0.1364">
        <ele>5.157601</ele>
        <time>2022-08-06T09:49:33.000Z</time>
      </trkpt>
      <trkpt lat="49.27856" lon="-0.13634">
        <ele>5.167148</ele>
        <time>2022-08-06T09:49:34.000Z</time>
      </trkpt>
      <trkpt lat="49.27854" lon="-0.13628">
        <ele>5.176672</ele>
        <time>2022-08-06T09:49:35.000Z</time>
      </trkpt>
      <trkpt lat="49.27852" lon="-0.13623">
        <ele>5.185774</ele>
        <time>2022-08-06T09:49:36.000Z</time>
      </trkpt>
      <trkpt lat="49.27849" lon="-0.13618">
        <ele>5.194797</ele>
        <time>2022-08-06T09:49:37.000Z</time>
      </trkpt>
      <trkpt lat="49.27846" lon="-0.13614">
        <ele>5.203794</ele>
        <time>2022-08-06T09:49:38.000Z</time>
      </trkpt>
      <trkpt lat="49.27842" lon="-0.13611">
        <ele>5.214255</ele>
        <time>2022-08-06T09:49:39.000Z</time>
      </trkpt>
      <trkpt lat="49.27839" lon="-0.13607">
        <ele>5.22305</ele>
        <time>2022-08-06T09:49:40.000Z</time>
      </trkpt>
      <trkpt lat="49.27836" lon="-0.13605">
        <ele>5.231381</ele>
        <time>2022-08-06T09:49:41.000Z</time>
      </trkpt>
      <trkpt lat="49.27832" lon="-0.13602">
        <ele>5.240187</ele>
        <time>2022-08-06T09:49:42.000Z</time>
      </trkpt>
      <trkpt lat="49.27829" lon="-0.13599">
        <ele>5.247925</ele>
        <time>2022-08-06T09:49:43.000Z</time>
      </trkpt>
      <trkpt lat="49.27827" lon="-0.13596">
        <ele>5.255803</ele>
        <time>2022-08-06T09:49:44.000Z</time>
      </trkpt>
      <trkpt lat="49.27824" lon="-0.13593">
        <ele>5.26422</ele>
        <time>2022-08-06T09:49:45.000Z</time>
      </trkpt>
      <trkpt lat="49.27821" lon="-0.13589">
        <ele>5.273637</ele>
        <time>2022-08-06T09:49:46.000Z</time>
      </trkpt>
      <trkpt lat="49.27818" lon="-0.13584">
        <ele>5.28247</ele>
        <time>2022-08-06T09:49:47.000Z</time>
      </trkpt>
      <trkpt lat="49.27816" lon="-0.1358">
        <ele>5.289832</ele>
        <time>2022-08-06T09:49:48.000Z</time>
      </trkpt>
      <trkpt lat="49.27814" lon="-0.13577">
        <ele>5.297391</ele>
        <time>2022-08-06T09:49:49.000Z</time>
      </trkpt>
      <trkpt lat="49.27812" lon="-0.13573">
        <ele>5.304782</ele>
        <time>2022-08-06T09:49:50.000Z</time>
      </trkpt>
      <trkpt lat="49.27809" lon="-0.1357">
        <ele>5.310403</ele>
        <time>2022-08-06T09:49:51.000Z</time>
      </trkpt>
      <trkpt lat="49.27805" lon="-0.13569">
        <ele>5.3156</ele>
        <time>2022-08-06T09:49:52.000Z</time>
      </trkpt>
      <trkpt lat="49.27802" lon="-0.13568">
        <ele>5.321626</ele>
        <time>2022-08-06T09:49:53.000Z</time>
      </trkpt>
      <trkpt lat="49.27797" lon="-0.13567">
        <ele>5.328188</ele>
        <time>2022-08-06T09:49:54.000Z</time>
      </trkpt>
      <trkpt lat="49.27793" lon="-0.13567">
        <ele>5.334562</ele>
        <time>2022-08-06T09:49:55.000Z</time>
      </trkpt>
      <trkpt lat="49.27789" lon="-0.13566">
        <ele>5.342061</ele>
        <time>2022-08-06T09:49:56.000Z</time>
      </trkpt>
      <trkpt lat="49.27785" lon="-0.13564">
        <ele>5.348417</ele>
        <time>2022-08-06T09:49:57.000Z</time>
      </trkpt>
      <trkpt lat="49.27781" lon="-0.13561">
        <ele>5.355473</ele>
        <time>2022-08-06T09:49:58.000Z</time>
      </trkpt>
      <trkpt lat="49.27777" lon="-0.13558">
        <ele>5.361855</ele>
        <time>2022-08-06T09:49:59.000Z</time>
      </trkpt>
      <trkpt lat="49.27773" lon="-0.13554">
        <ele>5.368643</ele>
        <time>2022-08-06T09:50:00.000Z</time>
      </trkpt>
      <trkpt lat="49.2777" lon="-0.1355">
        <ele>5.375364</ele>
        <time>2022-08-06T09:50:01.000Z</time>
      </trkpt>
      <trkpt lat="49.27766" lon="-0.13546">
        <ele>5.382967</ele>
        <time>2022-08-06T09:50:02.000Z</time>
      </trkpt>
      <trkpt lat="49.27762" lon="-0.13542">
        <ele>5.390755</ele>
        <time>2022-08-06T09:50:03.000Z</time>
      </trkpt>
      <trkpt lat="49.27757" lon="-0.13538">
        <ele>5.398884</ele>
        <time>2022-08-06T09:50:04.000Z</time>
      </trkpt>
      <trkpt lat="49.27753" lon="-0.13535">
        <ele>5.405668</ele>
        <time>2022-08-06T09:50:05.000Z</time>
      </trkpt>
      <trkpt lat="49.2775" lon="-0.13531">
        <ele>5.411528</ele>
        <time>2022-08-06T09:50:06.000Z</time>
      </trkpt>
      <trkpt lat="49.27746" lon="-0.13528">
        <ele>5.419102</ele>
        <time>2022-08-06T09:50:07.000Z</time>
      </trkpt>
      <trkpt lat="49.27743" lon="-0.13524">
        <ele>5.424962</ele>
        <time>2022-08-06T09:50:08.000Z</time>
      </trkpt>
      <trkpt lat="49.27739" lon="-0.1352">
        <ele>5.431848</ele>
        <time>2022-08-06T09:50:09.000Z</time>
      </trkpt>
      <trkpt lat="49.27735" lon="-0.13518">
        <ele>5.438961</ele>
        <time>2022-08-06T09:50:10.000Z</time>
      </trkpt>
      <trkpt lat="49.27731" lon="-0.13514">
        <ele>5.445744</ele>
        <time>2022-08-06T09:50:11.000Z</time>
      </trkpt>
      <trkpt lat="49.27728" lon="-0.13511">
        <ele>5.451849</ele>
        <time>2022-08-06T09:50:12.000Z</time>
      </trkpt>
      <trkpt lat="49.27725" lon="-0.13507">
        <ele>5.458392</ele>
        <time>2022-08-06T09:50:13.000Z</time>
      </trkpt>
      <trkpt lat="49.27721" lon="-0.13503">
        <ele>5.465552</ele>
        <time>2022-08-06T09:50:14.000Z</time>
      </trkpt>
      <trkpt lat="49.27717" lon="-0.13499">
        <ele>5.47284</ele>
        <time>2022-08-06T09:50:15.000Z</time>
      </trkpt>
      <trkpt lat="49.27713" lon="-0.13495">
        <ele>5.479573</ele>
        <time>2022-08-06T09:50:16.000Z</time>
      </trkpt>
      <trkpt lat="49.27709" lon="-0.13493">
        <ele>5.486571</ele>
        <time>2022-08-06T09:50:17.000Z</time>
      </trkpt>
      <trkpt lat="49.27705" lon="-0.13491">
        <ele>5.493848</ele>
        <time>2022-08-06T09:50:18.000Z</time>
      </trkpt>
      <trkpt lat="49.277" lon="-0.13489">
        <ele>5.500921</ele>
        <time>2022-08-06T09:50:19.000Z</time>
      </trkpt>
      <trkpt lat="49.27695" lon="-0.13487">
        <ele>5.509385</ele>
        <time>2022-08-06T09:50:20.000Z</time>
      </trkpt>
      <trkpt lat="49.27691" lon="-0.13484">
        <ele>5.516315</ele>
        <time>2022-08-06T09:50:21.000Z</time>
      </trkpt>
      <trkpt lat="49.27686" lon="-0.13481">
        <ele>5.523937</ele>
        <time>2022-08-06T09:50:22.000Z</time>
      </trkpt>
      <trkpt lat="49.27681" lon="-0.13477">
        <ele>5.532657</ele>
        <time>2022-08-06T09:50:23.000Z</time>
      </trkpt>
      <trkpt lat="49.27677" lon="-0.13474">
        <ele>5.541001</ele>
        <time>2022-08-06T09:50:24.000Z</time>
      </trkpt>
      <trkpt lat="49.27672" lon="-0.1347">
        <ele>5.549346</ele>
        <time>2022-08-06T09:50:25.000Z</time>
      </trkpt>
      <trkpt lat="49.27667" lon="-0.13466">
        <ele>5.557645</ele>
        <time>2022-08-06T09:50:26.000Z</time>
      </trkpt>
      <trkpt lat="49.27661" lon="-0.13463">
        <ele>5.566894</ele>
        <time>2022-08-06T09:50:27.000Z</time>
      </trkpt>
      <trkpt lat="49.27656" lon="-0.13459">
        <ele>5.575657</ele>
        <time>2022-08-06T09:50:28.000Z</time>
      </trkpt>
      <trkpt lat="49.27651" lon="-0.13456">
        <ele>5.584255</ele>
        <time>2022-08-06T09:50:29.000Z</time>
      </trkpt>
      <trkpt lat="49.27646" lon="-0.13452">
        <ele>5.582485</ele>
        <time>2022-08-06T09:50:30.000Z</time>
      </trkpt>
      <trkpt lat="49.27642" lon="-0.13448">
        <ele>5.579681</ele>
        <time>2022-08-06T09:50:31.000Z</time>
      </trkpt>
      <trkpt lat="49.27637" lon="-0.13445">
        <ele>5.57725</ele>
        <time>2022-08-06T09:50:32.000Z</time>
      </trkpt>
      <trkpt lat="49.27634" lon="-0.13444">
        <ele>5.575173</ele>
        <time>2022-08-06T09:50:33.000Z</time>
      </trkpt>
      <trkpt lat="49.27631" lon="-0.13444">
        <ele>5.573627</ele>
        <time>2022-08-06T09:50:34.000Z</time>
      </trkpt>
      <trkpt lat="49.27629" lon="-0.13447">
        <ele>5.572249</ele>
        <time>2022-08-06T09:50:35.000Z</time>
      </trkpt>
      <trkpt lat="49.27626" lon="-0.13449">
        <ele>5.570551</ele>
        <time>2022-08-06T09:50:36.000Z</time>
      </trkpt>
      <trkpt lat="49.27623" lon="-0.1345">
        <ele>5.568934</ele>
        <time>2022-08-06T09:50:37.000Z</time>
      </trkpt>
      <trkpt lat="49.2762" lon="-0.13451">
        <ele>5.567238</ele>
        <time>2022-08-06T09:50:38.000Z</time>
      </trkpt>
      <trkpt lat="49.27615" lon="-0.13451">
        <ele>5.565085</ele>
        <time>2022-08-06T09:50:39.000Z</time>
      </trkpt>
      <trkpt lat="49.27612" lon="-0.1345">
        <ele>5.563015</ele>
        <time>2022-08-06T09:50:40.000Z</time>
      </trkpt>
      <trkpt lat="49.27607" lon="-0.13449">
        <ele>5.560819</ele>
        <time>2022-08-06T09:50:41.000Z</time>
      </trkpt>
      <trkpt lat="49.27603" lon="-0.13447">
        <ele>5.558571</ele>
        <time>2022-08-06T09:50:42.000Z</time>
      </trkpt>
      <trkpt lat="49.27599" lon="-0.13446">
        <ele>5.556341</ele>
        <time>2022-08-06T09:50:43.000Z</time>
      </trkpt>
      <trkpt lat="49.27594" lon="-0.13446">
        <ele>5.553817</ele>
        <time>2022-08-06T09:50:44.000Z</time>
      </trkpt>
      <trkpt lat="49.2759" lon="-0.13446">
        <ele>5.551508</ele>
        <time>2022-08-06T09:50:45.000Z</time>
      </trkpt>
      <trkpt lat="49.27586" lon="-0.13447">
        <ele>5.549283</ele>
        <time>2022-08-06T09:50:46.000Z</time>
      </trkpt>
      <trkpt lat="49.27581" lon="-0.13449">
        <ele>5.546843</ele>
        <time>2022-08-06T09:50:47.000Z</time>
      </trkpt>
      <trkpt lat="49.27576" lon="-0.13451">
        <ele>5.544233</ele>
        <time>2022-08-06T09:50:48.000Z</time>
      </trkpt>
      <trkpt lat="49.27572" lon="-0.13453">
        <ele>5.541942</ele>
        <time>2022-08-06T09:50:49.000Z</time>
      </trkpt>
      <trkpt lat="49.27568" lon="-0.13456">
        <ele>5.539407</ele>
        <time>2022-08-06T09:50:50.000Z</time>
      </trkpt>
      <trkpt lat="49.27564" lon="-0.13459">
        <ele>5.536946</ele>
        <time>2022-08-06T09:50:51.000Z</time>
      </trkpt>
      <trkpt lat="49.2756" lon="-0.13463">
        <ele>5.534565</ele>
        <time>2022-08-06T09:50:52.000Z</time>
      </trkpt>
      <trkpt lat="49.27557" lon="-0.13467">
        <ele>5.53224</ele>
        <time>2022-08-06T09:50:53.000Z</time>
      </trkpt>
      <trkpt lat="49.27554" lon="-0.13472">
        <ele>5.530001</ele>
        <time>2022-08-06T09:50:54.000Z</time>
      </trkpt>
      <trkpt lat="49.2755" lon="-0.13477">
        <ele>5.527722</ele>
        <time>2022-08-06T09:50:55.000Z</time>
      </trkpt>
      <trkpt lat="49.27547" lon="-0.13481">
        <ele>5.525397</ele>
        <time>2022-08-06T09:50:56.000Z</time>
      </trkpt>
      <trkpt lat="49.27544" lon="-0.13486">
        <ele>5.522978</ele>
        <time>2022-08-06T09:50:57.000Z</time>
      </trkpt>
      <trkpt lat="49.2754" lon="-0.13491">
        <ele>5.520332</ele>
        <time>2022-08-06T09:50:58.000Z</time>
      </trkpt>
      <trkpt lat="49.27536" lon="-0.13495">
        <ele>5.518021</ele>
        <time>2022-08-06T09:50:59.000Z</time>
      </trkpt>
      <trkpt lat="49.27532" lon="-0.13499">
        <ele>5.515471</ele>
        <time>2022-08-06T09:51:00.000Z</time>
      </trkpt>
      <trkpt lat="49.27528" lon="-0.13503">
        <ele>5.513009</ele>
        <time>2022-08-06T09:51:01.000Z</time>
      </trkpt>
      <trkpt lat="49.27524" lon="-0.13507">
        <ele>5.51033</ele>
        <time>2022-08-06T09:51:02.000Z</time>
      </trkpt>
      <trkpt lat="49.2752" lon="-0.1351">
        <ele>5.5079</ele>
        <time>2022-08-06T09:51:03.000Z</time>
      </trkpt>
      <trkpt lat="49.27515" lon="-0.13513">
        <ele>5.505126</ele>
        <time>2022-08-06T09:51:04.000Z</time>
      </trkpt>
      <trkpt lat="49.2751" lon="-0.13516">
        <ele>5.502466</ele>
        <time>2022-08-06T09:51:05.000Z</time>
      </trkpt>
      <trkpt lat="49.27506" lon="-0.13518">
        <ele>5.500008</ele>
        <time>2022-08-06T09:51:06.000Z</time>
      </trkpt>
      <trkpt lat="49.275" lon="-0.1352">
        <ele>5.497093</ele>
        <time>2022-08-06T09:51:07.000Z</time>
      </trkpt>
      <trkpt lat="49.27496" lon="-0.13522">
        <ele>5.494625</ele>
        <time>2022-08-06T09:51:08.000Z</time>
      </trkpt>
      <trkpt lat="49.27491" lon="-0.13523">
        <ele>5.4919</ele>
        <time>2022-08-06T09:51:09.000Z</time>
      </trkpt>
      <trkpt lat="49.27486" lon="-0.13524">
        <ele>5.483342</ele>
        <time>2022-08-06T09:51:10.000Z</time>
      </trkpt>
      <trkpt lat="49.27482" lon="-0.13525">
        <ele>5.46851</ele>
        <time>2022-08-06T09:51:11.000Z</time>
      </trkpt>
      <trkpt lat="49.27477" lon="-0.13526">
        <ele>5.45358</ele>
        <time>2022-08-06T09:51:12.000Z</time>
      </trkpt>
      <trkpt lat="49.27473" lon="-0.13527">
        <ele>5.43998</ele>
        <time>2022-08-06T09:51:13.000Z</time>
      </trkpt>
      <trkpt lat="49.27469" lon="-0.13527">
        <ele>5.426147</ele>
        <time>2022-08-06T09:51:14.000Z</time>
      </trkpt>
      <trkpt lat="49.27465" lon="-0.13528">
        <ele>5.412314</ele>
        <time>2022-08-06T09:51:15.000Z</time>
      </trkpt>
      <trkpt lat="49.27461" lon="-0.13529">
        <ele>5.400583</ele>
        <time>2022-08-06T09:51:16.000Z</time>
      </trkpt>
      <trkpt lat="49.27458" lon="-0.13531">
        <ele>5.389462</ele>
        <time>2022-08-06T09:51:17.000Z</time>
      </trkpt>
      <trkpt lat="49.27454" lon="-0.13532">
        <ele>5.377637</ele>
        <time>2022-08-06T09:51:18.000Z</time>
      </trkpt>
      <trkpt lat="49.27451" lon="-0.13532">
        <ele>5.365113</ele>
        <time>2022-08-06T09:51:19.000Z</time>
      </trkpt>
      <trkpt lat="49.27446" lon="-0.13533">
        <ele>5.350331</ele>
        <time>2022-08-06T09:51:20.000Z</time>
      </trkpt>
      <trkpt lat="49.27442" lon="-0.13533">
        <ele>5.336498</ele>
        <time>2022-08-06T09:51:21.000Z</time>
      </trkpt>
      <trkpt lat="49.27437" lon="-0.13534">
        <ele>5.320592</ele>
        <time>2022-08-06T09:51:22.000Z</time>
      </trkpt>
      <trkpt lat="49.27433" lon="-0.13535">
        <ele>5.307046</ele>
        <time>2022-08-06T09:51:23.000Z</time>
      </trkpt>
      <trkpt lat="49.27429" lon="-0.13536">
        <ele>5.293089</ele>
        <time>2022-08-06T09:51:24.000Z</time>
      </trkpt>
      <trkpt lat="49.27425" lon="-0.13536">
        <ele>5.279283</ele>
        <time>2022-08-06T09:51:25.000Z</time>
      </trkpt>
      <trkpt lat="49.2742" lon="-0.13537">
        <ele>5.264796</ele>
        <time>2022-08-06T09:51:26.000Z</time>
      </trkpt>
      <trkpt lat="49.27415" lon="-0.13537">
        <ele>5.249034</ele>
        <time>2022-08-06T09:51:27.000Z</time>
      </trkpt>
      <trkpt lat="49.27411" lon="-0.13536">
        <ele>5.234244</ele>
        <time>2022-08-06T09:51:28.000Z</time>
      </trkpt>
      <trkpt lat="49.27406" lon="-0.13536">
        <ele>5.218412</ele>
        <time>2022-08-06T09:51:29.000Z</time>
      </trkpt>
      <trkpt lat="49.27401" lon="-0.13535">
        <ele>5.201578</ele>
        <time>2022-08-06T09:51:30.000Z</time>
      </trkpt>
      <trkpt lat="49.27396" lon="-0.13533">
        <ele>5.185534</ele>
        <time>2022-08-06T09:51:31.000Z</time>
      </trkpt>
      <trkpt lat="49.27391" lon="-0.13532">
        <ele>5.168234</ele>
        <time>2022-08-06T09:51:32.000Z</time>
      </trkpt>
      <trkpt lat="49.27387" lon="-0.1353">
        <ele>5.153334</ele>
        <time>2022-08-06T09:51:33.000Z</time>
      </trkpt>
      <trkpt lat="49.27381" lon="-0.13529">
        <ele>5.135829</ele>
        <time>2022-08-06T09:51:34.000Z</time>
      </trkpt>
      <trkpt lat="49.27377" lon="-0.13528">
        <ele>5.119923</ele>
        <time>2022-08-06T09:51:35.000Z</time>
      </trkpt>
      <trkpt lat="49.27371" lon="-0.13526">
        <ele>5.101974</ele>
        <time>2022-08-06T09:51:36.000Z</time>
      </trkpt>
      <trkpt lat="49.27366" lon="-0.13525">
        <ele>5.086068</ele>
        <time>2022-08-06T09:51:37.000Z</time>
      </trkpt>
      <trkpt lat="49.27361" lon="-0.13524">
        <ele>5.068207</ele>
        <time>2022-08-06T09:51:38.000Z</time>
      </trkpt>
      <trkpt lat="49.27356" lon="-0.13523">
        <ele>5.049966</ele>
        <time>2022-08-06T09:51:39.000Z</time>
      </trkpt>
      <trkpt lat="49.27351" lon="-0.13522">
        <ele>5.03396</ele>
        <time>2022-08-06T09:51:40.000Z</time>
      </trkpt>
      <trkpt lat="49.27345" lon="-0.13521">
        <ele>5.0161</ele>
        <time>2022-08-06T09:51:41.000Z</time>
      </trkpt>
      <trkpt lat="49.2734" lon="-0.1352">
        <ele>4.996958</ele>
        <time>2022-08-06T09:51:42.000Z</time>
      </trkpt>
      <trkpt lat="49.27334" lon="-0.13519">
        <ele>4.979144</ele>
        <time>2022-08-06T09:51:43.000Z</time>
      </trkpt>
      <trkpt lat="49.27329" lon="-0.13518">
        <ele>4.963237</ele>
        <time>2022-08-06T09:51:44.000Z</time>
      </trkpt>
      <trkpt lat="49.27324" lon="-0.13517">
        <ele>4.946424</ele>
        <time>2022-08-06T09:51:45.000Z</time>
      </trkpt>
      <trkpt lat="49.27319" lon="-0.13517">
        <ele>4.93061</ele>
        <time>2022-08-06T09:51:46.000Z</time>
      </trkpt>
      <trkpt lat="49.27314" lon="-0.13516">
        <ele>4.912424</ele>
        <time>2022-08-06T09:51:47.000Z</time>
      </trkpt>
      <trkpt lat="49.27309" lon="-0.13515">
        <ele>4.903247</ele>
        <time>2022-08-06T09:51:48.000Z</time>
      </trkpt>
      <trkpt lat="49.27303" lon="-0.13515">
        <ele>4.915827</ele>
        <time>2022-08-06T09:51:49.000Z</time>
      </trkpt>
      <trkpt lat="49.27298" lon="-0.13516">
        <ele>4.927961</ele>
        <time>2022-08-06T09:51:50.000Z</time>
      </trkpt>
      <trkpt lat="49.27293" lon="-0.13517">
        <ele>4.939936</ele>
        <time>2022-08-06T09:51:51.000Z</time>
      </trkpt>
      <trkpt lat="49.27288" lon="-0.13518">
        <ele>4.951262</ele>
        <time>2022-08-06T09:51:52.000Z</time>
      </trkpt>
      <trkpt lat="49.27284" lon="-0.13519">
        <ele>4.962702</ele>
        <time>2022-08-06T09:51:53.000Z</time>
      </trkpt>
      <trkpt lat="49.27279" lon="-0.13521">
        <ele>4.973427</ele>
        <time>2022-08-06T09:51:54.000Z</time>
      </trkpt>
      <trkpt lat="49.27275" lon="-0.13523">
        <ele>4.983995</ele>
        <time>2022-08-06T09:51:55.000Z</time>
      </trkpt>
      <trkpt lat="49.2727" lon="-0.13524">
        <ele>4.994112</ele>
        <time>2022-08-06T09:51:56.000Z</time>
      </trkpt>
      <trkpt lat="49.27267" lon="-0.13526">
        <ele>5.003251</ele>
        <time>2022-08-06T09:51:57.000Z</time>
      </trkpt>
      <trkpt lat="49.27262" lon="-0.13527">
        <ele>5.01333</ele>
        <time>2022-08-06T09:51:58.000Z</time>
      </trkpt>
      <trkpt lat="49.27259" lon="-0.13529">
        <ele>5.022639</ele>
        <time>2022-08-06T09:51:59.000Z</time>
      </trkpt>
      <trkpt lat="49.27254" lon="-0.13531">
        <ele>5.032618</ele>
        <time>2022-08-06T09:52:00.000Z</time>
      </trkpt>
      <trkpt lat="49.27251" lon="-0.13532">
        <ele>5.041597</ele>
        <time>2022-08-06T09:52:01.000Z</time>
      </trkpt>
      <trkpt lat="49.27246" lon="-0.13533">
        <ele>5.051547</ele>
        <time>2022-08-06T09:52:02.000Z</time>
      </trkpt>
      <trkpt lat="49.27242" lon="-0.13533">
        <ele>5.061371</ele>
        <time>2022-08-06T09:52:03.000Z</time>
      </trkpt>
      <trkpt lat="49.27238" lon="-0.13534">
        <ele>5.070939</ele>
        <time>2022-08-06T09:52:04.000Z</time>
      </trkpt>
      <trkpt lat="49.27234" lon="-0.13534">
        <ele>5.08075</ele>
        <time>2022-08-06T09:52:05.000Z</time>
      </trkpt>
      <trkpt lat="49.27229" lon="-0.13535">
        <ele>5.09124</ele>
        <time>2022-08-06T09:52:06.000Z</time>
      </trkpt>
      <trkpt lat="49.27226" lon="-0.13535">
        <ele>5.099461</ele>
        <time>2022-08-06T09:52:07.000Z</time>
      </trkpt>
      <trkpt lat="49.27222" lon="-0.13536">
        <ele>5.107752</ele>
        <time>2022-08-06T09:52:08.000Z</time>
      </trkpt>
      <trkpt lat="49.27219" lon="-0.13538">
        <ele>5.116216</ele>
        <time>2022-08-06T09:52:09.000Z</time>
      </trkpt>
      <trkpt lat="49.27215" lon="-0.13539">
        <ele>5.125425</ele>
        <time>2022-08-06T09:52:10.000Z</time>
      </trkpt>
      <trkpt lat="49.27211" lon="-0.13541">
        <ele>5.135358</ele>
        <time>2022-08-06T09:52:11.000Z</time>
      </trkpt>
      <trkpt lat="49.27207" lon="-0.13543">
        <ele>5.14509</ele>
        <time>2022-08-06T09:52:12.000Z</time>
      </trkpt>
      <trkpt lat="49.27204" lon="-0.13546">
        <ele>5.154356</ele>
        <time>2022-08-06T09:52:13.000Z</time>
      </trkpt>
      <trkpt lat="49.272" lon="-0.13548">
        <ele>5.164048</ele>
        <time>2022-08-06T09:52:14.000Z</time>
      </trkpt>
      <trkpt lat="49.27196" lon="-0.13551">
        <ele>5.173173</ele>
        <time>2022-08-06T09:52:15.000Z</time>
      </trkpt>
      <trkpt lat="49.27194" lon="-0.13553">
        <ele>5.180165</ele>
        <time>2022-08-06T09:52:16.000Z</time>
      </trkpt>
      <trkpt lat="49.2719" lon="-0.13556">
        <ele>5.188333</ele>
        <time>2022-08-06T09:52:17.000Z</time>
      </trkpt>
      <trkpt lat="49.27187" lon="-0.13558">
        <ele>5.196564</ele>
        <time>2022-08-06T09:52:18.000Z</time>
      </trkpt>
      <trkpt lat="49.27185" lon="-0.1356">
        <ele>5.203633</ele>
        <time>2022-08-06T09:52:19.000Z</time>
      </trkpt>
      <trkpt lat="49.27182" lon="-0.13563">
        <ele>5.211257</ele>
        <time>2022-08-06T09:52:20.000Z</time>
      </trkpt>
      <trkpt lat="49.27179" lon="-0.13566">
        <ele>5.219764</ele>
        <time>2022-08-06T09:52:21.000Z</time>
      </trkpt>
      <trkpt lat="49.27176" lon="-0.13568">
        <ele>5.227747</ele>
        <time>2022-08-06T09:52:22.000Z</time>
      </trkpt>
      <trkpt lat="49.27173" lon="-0.13571">
        <ele>5.236405</ele>
        <time>2022-08-06T09:52:23.000Z</time>
      </trkpt>
      <trkpt lat="49.27169" lon="-0.13574">
        <ele>5.24484</ele>
        <time>2022-08-06T09:52:24.000Z</time>
      </trkpt>
      <trkpt lat="49.27166" lon="-0.13576">
        <ele>5.25377</ele>
        <time>2022-08-06T09:52:25.000Z</time>
      </trkpt>
      <trkpt lat="49.27162" lon="-0.13579">
        <ele>5.263038</ele>
        <time>2022-08-06T09:52:26.000Z</time>
      </trkpt>
      <trkpt lat="49.27159" lon="-0.13582">
        <ele>5.271696</ele>
        <time>2022-08-06T09:52:27.000Z</time>
      </trkpt>
      <trkpt lat="49.27156" lon="-0.13585">
        <ele>5.280278</ele>
        <time>2022-08-06T09:52:28.000Z</time>
      </trkpt>
      <trkpt lat="49.27152" lon="-0.13587">
        <ele>5.290032</ele>
        <time>2022-08-06T09:52:29.000Z</time>
      </trkpt>
      <trkpt lat="49.27148" lon="-0.13589">
        <ele>5.299295</ele>
        <time>2022-08-06T09:52:30.000Z</time>
      </trkpt>
      <trkpt lat="49.27144" lon="-0.13591">
        <ele>5.308738</ele>
        <time>2022-08-06T09:52:31.000Z</time>
      </trkpt>
      <trkpt lat="49.27141" lon="-0.13592">
        <ele>5.317806</ele>
        <time>2022-08-06T09:52:32.000Z</time>
      </trkpt>
      <trkpt lat="49.27137" lon="-0.13594">
        <ele>5.320706</ele>
        <time>2022-08-06T09:52:33.000Z</time>
      </trkpt>
      <trkpt lat="49.27133" lon="-0.13594">
        <ele>5.323191</ele>
        <time>2022-08-06T09:52:34.000Z</time>
      </trkpt>
      <trkpt lat="49.27127" lon="-0.13594">
        <ele>5.326002</ele>
        <time>2022-08-06T09:52:35.000Z</time>
      </trkpt>
      <trkpt lat="49.27123" lon="-0.13594">
        <ele>5.328315</ele>
        <time>2022-08-06T09:52:36.000Z</time>
      </trkpt>
      <trkpt lat="49.27119" lon="-0.13594">
        <ele>5.330796</ele>
        <time>2022-08-06T09:52:37.000Z</time>
      </trkpt>
      <trkpt lat="49.27115" lon="-0.13593">
        <ele>5.333061</ele>
        <time>2022-08-06T09:52:38.000Z</time>
      </trkpt>
      <trkpt lat="49.2711" lon="-0.13593">
        <ele>5.335707</ele>
        <time>2022-08-06T09:52:39.000Z</time>
      </trkpt>
      <trkpt lat="49.27105" lon="-0.13592">
        <ele>5.338206</ele>
        <time>2022-08-06T09:52:40.000Z</time>
      </trkpt>
      <trkpt lat="49.27101" lon="-0.13591">
        <ele>5.34071</ele>
        <time>2022-08-06T09:52:41.000Z</time>
      </trkpt>
      <trkpt lat="49.27097" lon="-0.1359">
        <ele>5.343057</ele>
        <time>2022-08-06T09:52:42.000Z</time>
      </trkpt>
      <trkpt lat="49.27092" lon="-0.13589">
        <ele>5.345725</ele>
        <time>2022-08-06T09:52:43.000Z</time>
      </trkpt>
      <trkpt lat="49.27087" lon="-0.13588">
        <ele>5.348174</ele>
        <time>2022-08-06T09:52:44.000Z</time>
      </trkpt>
      <trkpt lat="49.27083" lon="-0.13587">
        <ele>5.35069</ele>
        <time>2022-08-06T09:52:45.000Z</time>
      </trkpt>
      <trkpt lat="49.27078" lon="-0.13585">
        <ele>5.353537</ele>
        <time>2022-08-06T09:52:46.000Z</time>
      </trkpt>
      <trkpt lat="49.27073" lon="-0.13584">
        <ele>5.356066</ele>
        <time>2022-08-06T09:52:47.000Z</time>
      </trkpt>
      <trkpt lat="49.27069" lon="-0.13583">
        <ele>5.358739</ele>
        <time>2022-08-06T09:52:48.000Z</time>
      </trkpt>
      <trkpt lat="49.27063" lon="-0.13581">
        <ele>5.361593</ele>
        <time>2022-08-06T09:52:49.000Z</time>
      </trkpt>
      <trkpt lat="49.27059" lon="-0.1358">
        <ele>5.364277</ele>
        <time>2022-08-06T09:52:50.000Z</time>
      </trkpt>
      <trkpt lat="49.27054" lon="-0.13579">
        <ele>5.366956</ele>
        <time>2022-08-06T09:52:51.000Z</time>
      </trkpt>
      <trkpt lat="49.27049" lon="-0.13578">
        <ele>5.369451</ele>
        <time>2022-08-06T09:52:52.000Z</time>
      </trkpt>
      <trkpt lat="49.27045" lon="-0.13578">
        <ele>5.37193</ele>
        <time>2022-08-06T09:52:53.000Z</time>
      </trkpt>
      <trkpt lat="49.2704" lon="-0.13579">
        <ele>5.374744</ele>
        <time>2022-08-06T09:52:54.000Z</time>
      </trkpt>
      <trkpt lat="49.27035" lon="-0.1358">
        <ele>5.377239</ele>
        <time>2022-08-06T09:52:55.000Z</time>
      </trkpt>
      <trkpt lat="49.27031" lon="-0.13581">
        <ele>5.379755</ele>
        <time>2022-08-06T09:52:56.000Z</time>
      </trkpt>
      <trkpt lat="49.27026" lon="-0.13582">
        <ele>5.38246</ele>
        <time>2022-08-06T09:52:57.000Z</time>
      </trkpt>
      <trkpt lat="49.27022" lon="-0.13584">
        <ele>5.3848</ele>
        <time>2022-08-06T09:52:58.000Z</time>
      </trkpt>
      <trkpt lat="49.27018" lon="-0.13586">
        <ele>5.387222</ele>
        <time>2022-08-06T09:52:59.000Z</time>
      </trkpt>
      <trkpt lat="49.27013" lon="-0.13588">
        <ele>5.389644</ele>
        <time>2022-08-06T09:53:00.000Z</time>
      </trkpt>
      <trkpt lat="49.27009" lon="-0.1359">
        <ele>5.391983</ele>
        <time>2022-08-06T09:53:01.000Z</time>
      </trkpt>
      <trkpt lat="49.27004" lon="-0.13591">
        <ele>5.394843</ele>
        <time>2022-08-06T09:53:02.000Z</time>
      </trkpt>
      <trkpt lat="49.27" lon="-0.13593">
        <ele>5.397387</ele>
        <time>2022-08-06T09:53:03.000Z</time>
      </trkpt>
      <trkpt lat="49.26995" lon="-0.13594">
        <ele>5.399916</ele>
        <time>2022-08-06T09:53:04.000Z</time>
      </trkpt>
      <trkpt lat="49.2699" lon="-0.13596">
        <ele>5.402614</ele>
        <time>2022-08-06T09:53:05.000Z</time>
      </trkpt>
      <trkpt lat="49.26986" lon="-0.13597">
        <ele>5.404974</ele>
        <time>2022-08-06T09:53:06.000Z</time>
      </trkpt>
      <trkpt lat="49.26982" lon="-0.13599">
        <ele>5.407473</ele>
        <time>2022-08-06T09:53:07.000Z</time>
      </trkpt>
      <trkpt lat="49.26978" lon="-0.136">
        <ele>5.409857</ele>
        <time>2022-08-06T09:53:08.000Z</time>
      </trkpt>
      <trkpt lat="49.26973" lon="-0.13602">
        <ele>5.412268</ele>
        <time>2022-08-06T09:53:09.000Z</time>
      </trkpt>
      <trkpt lat="49.2697" lon="-0.13603">
        <ele>5.414381</ele>
        <time>2022-08-06T09:53:10.000Z</time>
      </trkpt>
      <trkpt lat="49.26966" lon="-0.13604">
        <ele>5.416317</ele>
        <time>2022-08-06T09:53:11.000Z</time>
      </trkpt>
      <trkpt lat="49.26962" lon="-0.13604">
        <ele>5.417512</ele>
        <time>2022-08-06T09:53:12.000Z</time>
      </trkpt>
      <trkpt lat="49.26958" lon="-0.13605">
        <ele>5.415802</ele>
        <time>2022-08-06T09:53:13.000Z</time>
      </trkpt>
      <trkpt lat="49.26955" lon="-0.13606">
        <ele>5.413938</ele>
        <time>2022-08-06T09:53:14.000Z</time>
      </trkpt>
      <trkpt lat="49.26951" lon="-0.13607">
        <ele>5.412026</ele>
        <time>2022-08-06T09:53:15.000Z</time>
      </trkpt>
      <trkpt lat="49.26948" lon="-0.13608">
        <ele>5.410807</ele>
        <time>2022-08-06T09:53:16.000Z</time>
      </trkpt>
      <trkpt lat="49.26946" lon="-0.13608">
        <ele>5.409828</ele>
        <time>2022-08-06T09:53:17.000Z</time>
      </trkpt>
      <trkpt lat="49.26944" lon="-0.13608">
        <ele>5.408904</ele>
        <time>2022-08-06T09:53:18.000Z</time>
      </trkpt>
      <trkpt lat="49.26942" lon="-0.13608">
        <ele>5.407696</ele>
        <time>2022-08-06T09:53:20.000Z</time>
      </trkpt>
      <trkpt lat="49.26934" lon="-0.13611">
        <ele>5.403996</ele>
        <time>2022-08-06T09:53:27.000Z</time>
      </trkpt>
      <trkpt lat="49.26932" lon="-0.13612">
        <ele>5.402559</ele>
        <time>2022-08-06T09:53:28.000Z</time>
      </trkpt>
      <trkpt lat="49.26928" lon="-0.13614">
        <ele>5.400966</ele>
        <time>2022-08-06T09:53:29.000Z</time>
      </trkpt>
      <trkpt lat="49.26925" lon="-0.13615">
        <ele>5.399348</ele>
        <time>2022-08-06T09:53:30.000Z</time>
      </trkpt>
      <trkpt lat="49.26922" lon="-0.13617">
        <ele>5.397869</ele>
        <time>2022-08-06T09:53:31.000Z</time>
      </trkpt>
      <trkpt lat="49.26919" lon="-0.13619">
        <ele>5.396028</ele>
        <time>2022-08-06T09:53:32.000Z</time>
      </trkpt>
      <trkpt lat="49.26915" lon="-0.13621">
        <ele>5.394041</ele>
        <time>2022-08-06T09:53:33.000Z</time>
      </trkpt>
      <trkpt lat="49.26912" lon="-0.13623">
        <ele>5.392423</ele>
        <time>2022-08-06T09:53:34.000Z</time>
      </trkpt>
      <trkpt lat="49.26908" lon="-0.13624">
        <ele>5.390471</ele>
        <time>2022-08-06T09:53:35.000Z</time>
      </trkpt>
      <trkpt lat="49.26904" lon="-0.13626">
        <ele>5.388401</ele>
        <time>2022-08-06T09:53:36.000Z</time>
      </trkpt>
      <trkpt lat="49.26899" lon="-0.13628">
        <ele>5.386175</ele>
        <time>2022-08-06T09:53:37.000Z</time>
      </trkpt>
      <trkpt lat="49.26895" lon="-0.13629">
        <ele>5.384103</ele>
        <time>2022-08-06T09:53:38.000Z</time>
      </trkpt>
      <trkpt lat="49.26891" lon="-0.1363">
        <ele>5.382253</ele>
        <time>2022-08-06T09:53:39.000Z</time>
      </trkpt>
      <trkpt lat="49.26887" lon="-0.1363">
        <ele>5.380222</ele>
        <time>2022-08-06T09:53:40.000Z</time>
      </trkpt>
      <trkpt lat="49.26884" lon="-0.1363">
        <ele>5.378672</ele>
        <time>2022-08-06T09:53:41.000Z</time>
      </trkpt>
      <trkpt lat="49.26881" lon="-0.13629">
        <ele>5.377105</ele>
        <time>2022-08-06T09:53:42.000Z</time>
      </trkpt>
      <trkpt lat="49.26878" lon="-0.13627">
        <ele>5.375756</ele>
        <time>2022-08-06T09:53:43.000Z</time>
      </trkpt>
      <trkpt lat="49.26876" lon="-0.13624">
        <ele>5.374437</ele>
        <time>2022-08-06T09:53:44.000Z</time>
      </trkpt>
      <trkpt lat="49.26875" lon="-0.1362">
        <ele>5.373089</ele>
        <time>2022-08-06T09:53:45.000Z</time>
      </trkpt>
      <trkpt lat="49.26873" lon="-0.13617">
        <ele>5.371792</ele>
        <time>2022-08-06T09:53:46.000Z</time>
      </trkpt>
      <trkpt lat="49.26871" lon="-0.13614">
        <ele>5.370372</ele>
        <time>2022-08-06T09:53:47.000Z</time>
      </trkpt>
      <trkpt lat="49.26869" lon="-0.1361">
        <ele>5.368972</ele>
        <time>2022-08-06T09:53:48.000Z</time>
      </trkpt>
      <trkpt lat="49.26868" lon="-0.13606">
        <ele>5.367486</ele>
        <time>2022-08-06T09:53:49.000Z</time>
      </trkpt>
      <trkpt lat="49.26866" lon="-0.13603">
        <ele>5.366189</ele>
        <time>2022-08-06T09:53:50.000Z</time>
      </trkpt>
      <trkpt lat="49.26865" lon="-0.13599">
        <ele>5.364866</ele>
        <time>2022-08-06T09:53:51.000Z</time>
      </trkpt>
      <trkpt lat="49.26863" lon="-0.13597">
        <ele>5.363887</ele>
        <time>2022-08-06T09:53:52.000Z</time>
      </trkpt>
      <trkpt lat="49.26862" lon="-0.13595">
        <ele>5.362927</ele>
        <time>2022-08-06T09:53:53.000Z</time>
      </trkpt>
      <trkpt lat="49.26861" lon="-0.13592">
        <ele>5.361968</ele>
        <time>2022-08-06T09:53:54.000Z</time>
      </trkpt>
      <trkpt lat="49.26859" lon="-0.1359">
        <ele>5.360885</ele>
        <time>2022-08-06T09:53:55.000Z</time>
      </trkpt>
      <trkpt lat="49.26858" lon="-0.13587">
        <ele>5.359781</ele>
        <time>2022-08-06T09:53:56.000Z</time>
      </trkpt>
      <trkpt lat="49.26856" lon="-0.13585">
        <ele>5.35872</ele>
        <time>2022-08-06T09:53:57.000Z</time>
      </trkpt>
      <trkpt lat="49.26854" lon="-0.13582">
        <ele>5.357446</ele>
        <time>2022-08-06T09:53:58.000Z</time>
      </trkpt>
      <trkpt lat="49.26852" lon="-0.13579">
        <ele>5.356127</ele>
        <time>2022-08-06T09:53:59.000Z</time>
      </trkpt>
      <trkpt lat="49.2685" lon="-0.13576">
        <ele>5.354774</ele>
        <time>2022-08-06T09:54:00.000Z</time>
      </trkpt>
      <trkpt lat="49.26848" lon="-0.13573">
        <ele>5.353239</ele>
        <time>2022-08-06T09:54:01.000Z</time>
      </trkpt>
      <trkpt lat="49.26845" lon="-0.13571">
        <ele>5.351804</ele>
        <time>2022-08-06T09:54:02.000Z</time>
      </trkpt>
      <trkpt lat="49.26843" lon="-0.1357">
        <ele>5.350537</ele>
        <time>2022-08-06T09:54:03.000Z</time>
      </trkpt>
      <trkpt lat="49.2684" lon="-0.1357">
        <ele>5.349421</ele>
        <time>2022-08-06T09:54:04.000Z</time>
      </trkpt>
      <trkpt lat="49.26838" lon="-0.1357">
        <ele>5.348498</ele>
        <time>2022-08-06T09:54:05.000Z</time>
      </trkpt>
      <trkpt lat="49.26836" lon="-0.1357">
        <ele>5.347423</ele>
        <time>2022-08-06T09:54:06.000Z</time>
      </trkpt>
      <trkpt lat="49.26834" lon="-0.13571">
        <ele>5.346147</ele>
        <time>2022-08-06T09:54:08.000Z</time>
      </trkpt>
      <trkpt lat="49.26832" lon="-0.13572">
        <ele>5.345194</ele>
        <time>2022-08-06T09:54:10.000Z</time>
      </trkpt>
      <trkpt lat="49.26822" lon="-0.13573">
        <ele>5.340673</ele>
        <time>2022-08-06T09:55:07.000Z</time>
      </trkpt>
      <trkpt lat="49.2682" lon="-0.13571">
        <ele>5.339253</ele>
        <time>2022-08-06T09:55:09.000Z</time>
      </trkpt>
      <trkpt lat="49.26818" lon="-0.13571">
        <ele>5.338166</ele>
        <time>2022-08-06T09:55:12.000Z</time>
      </trkpt>
      <trkpt lat="49.26813" lon="-0.13567">
        <ele>5.335855</ele>
        <time>2022-08-06T09:56:43.000Z</time>
      </trkpt>
      <trkpt lat="49.26811" lon="-0.13564">
        <ele>5.334358</ele>
        <time>2022-08-06T09:56:44.000Z</time>
      </trkpt>
      <trkpt lat="49.26808" lon="-0.13562">
        <ele>5.33284</ele>
        <time>2022-08-06T09:56:45.000Z</time>
      </trkpt>
      <trkpt lat="49.26805" lon="-0.13559">
        <ele>5.331185</ele>
        <time>2022-08-06T09:56:46.000Z</time>
      </trkpt>
      <trkpt lat="49.26802" lon="-0.13555">
        <ele>5.332108</ele>
        <time>2022-08-06T09:56:47.000Z</time>
      </trkpt>
      <trkpt lat="49.26799" lon="-0.13551">
        <ele>5.333032</ele>
        <time>2022-08-06T09:56:48.000Z</time>
      </trkpt>
      <trkpt lat="49.26796" lon="-0.13548">
        <ele>5.333973</ele>
        <time>2022-08-06T09:56:49.000Z</time>
      </trkpt>
      <trkpt lat="49.26793" lon="-0.13544">
        <ele>5.334744</ele>
        <time>2022-08-06T09:56:50.000Z</time>
      </trkpt>
      <trkpt lat="49.26791" lon="-0.13541">
        <ele>5.335487</ele>
        <time>2022-08-06T09:56:51.000Z</time>
      </trkpt>
      <trkpt lat="49.26789" lon="-0.13538">
        <ele>5.336198</ele>
        <time>2022-08-06T09:56:52.000Z</time>
      </trkpt>
      <trkpt lat="49.26787" lon="-0.13534">
        <ele>5.336925</ele>
        <time>2022-08-06T09:56:53.000Z</time>
      </trkpt>
      <trkpt lat="49.26785" lon="-0.13532">
        <ele>5.3376</ele>
        <time>2022-08-06T09:56:54.000Z</time>
      </trkpt>
      <trkpt lat="49.26782" lon="-0.13529">
        <ele>5.338314</ele>
        <time>2022-08-06T09:56:55.000Z</time>
      </trkpt>
      <trkpt lat="49.2678" lon="-0.13527">
        <ele>5.338875</ele>
        <time>2022-08-06T09:56:56.000Z</time>
      </trkpt>
      <trkpt lat="49.26778" lon="-0.13526">
        <ele>5.33954</ele>
        <time>2022-08-06T09:56:57.000Z</time>
      </trkpt>
      <trkpt lat="49.26776" lon="-0.13525">
        <ele>5.340032</ele>
        <time>2022-08-06T09:56:58.000Z</time>
      </trkpt>
      <trkpt lat="49.26773" lon="-0.13524">
        <ele>5.340594</ele>
        <time>2022-08-06T09:56:59.000Z</time>
      </trkpt>
      <trkpt lat="49.26771" lon="-0.13523">
        <ele>5.341135</ele>
        <time>2022-08-06T09:57:00.000Z</time>
      </trkpt>
      <trkpt lat="49.26769" lon="-0.13522">
        <ele>5.341627</ele>
        <time>2022-08-06T09:57:01.000Z</time>
      </trkpt>
      <trkpt lat="49.26767" lon="-0.13521">
        <ele>5.342199</ele>
        <time>2022-08-06T09:57:02.000Z</time>
      </trkpt>
      <trkpt lat="49.26765" lon="-0.1352">
        <ele>5.342732</ele>
        <time>2022-08-06T09:57:03.000Z</time>
      </trkpt>
      <trkpt lat="49.26762" lon="-0.13521">
        <ele>5.343357</ele>
        <time>2022-08-06T09:57:04.000Z</time>
      </trkpt>
      <trkpt lat="49.2676" lon="-0.13521">
        <ele>5.343892</ele>
        <time>2022-08-06T09:57:05.000Z</time>
      </trkpt>
      <trkpt lat="49.26757" lon="-0.13522">
        <ele>5.344518</ele>
        <time>2022-08-06T09:57:06.000Z</time>
      </trkpt>
      <trkpt lat="49.26755" lon="-0.13523">
        <ele>5.345129</ele>
        <time>2022-08-06T09:57:07.000Z</time>
      </trkpt>
      <trkpt lat="49.26752" lon="-0.13523">
        <ele>5.345825</ele>
        <time>2022-08-06T09:57:08.000Z</time>
      </trkpt>
      <trkpt lat="49.2675" lon="-0.13523">
        <ele>5.346352</ele>
        <time>2022-08-06T09:57:09.000Z</time>
      </trkpt>
      <trkpt lat="49.26748" lon="-0.13523">
        <ele>5.346903</ele>
        <time>2022-08-06T09:57:10.000Z</time>
      </trkpt>
      <trkpt lat="49.26745" lon="-0.13524">
        <ele>5.347512</ele>
        <time>2022-08-06T09:57:11.000Z</time>
      </trkpt>
      <trkpt lat="49.26742" lon="-0.13525">
        <ele>5.348217</ele>
        <time>2022-08-06T09:57:12.000Z</time>
      </trkpt>
      <trkpt lat="49.2674" lon="-0.13525">
        <ele>5.348849</ele>
        <time>2022-08-06T09:57:13.000Z</time>
      </trkpt>
      <trkpt lat="49.26737" lon="-0.13525">
        <ele>5.349448</ele>
        <time>2022-08-06T09:57:14.000Z</time>
      </trkpt>
      <trkpt lat="49.26734" lon="-0.13525">
        <ele>5.350077</ele>
        <time>2022-08-06T09:57:15.000Z</time>
      </trkpt>
      <trkpt lat="49.26732" lon="-0.13523">
        <ele>5.350737</ele>
        <time>2022-08-06T09:57:16.000Z</time>
      </trkpt>
      <trkpt lat="49.26729" lon="-0.13522">
        <ele>5.351437</ele>
        <time>2022-08-06T09:57:17.000Z</time>
      </trkpt>
      <trkpt lat="49.26726" lon="-0.1352">
        <ele>5.352181</ele>
        <time>2022-08-06T09:57:18.000Z</time>
      </trkpt>
      <trkpt lat="49.26724" lon="-0.13518">
        <ele>5.352884</ele>
        <time>2022-08-06T09:57:19.000Z</time>
      </trkpt>
      <trkpt lat="49.26721" lon="-0.13516">
        <ele>5.353513</ele>
        <time>2022-08-06T09:57:20.000Z</time>
      </trkpt>
      <trkpt lat="49.26719" lon="-0.13514">
        <ele>5.354131</ele>
        <time>2022-08-06T09:57:21.000Z</time>
      </trkpt>
      <trkpt lat="49.26717" lon="-0.13512">
        <ele>5.354674</ele>
        <time>2022-08-06T09:57:22.000Z</time>
      </trkpt>
      <trkpt lat="49.26715" lon="-0.1351">
        <ele>5.35535</ele>
        <time>2022-08-06T09:57:23.000Z</time>
      </trkpt>
      <trkpt lat="49.26713" lon="-0.13508">
        <ele>5.355825</ele>
        <time>2022-08-06T09:57:24.000Z</time>
      </trkpt>
      <trkpt lat="49.26711" lon="-0.13506">
        <ele>5.356424</ele>
        <time>2022-08-06T09:57:25.000Z</time>
      </trkpt>
      <trkpt lat="49.26709" lon="-0.13503">
        <ele>5.357118</ele>
        <time>2022-08-06T09:57:26.000Z</time>
      </trkpt>
      <trkpt lat="49.26707" lon="-0.13501">
        <ele>5.357816</ele>
        <time>2022-08-06T09:57:27.000Z</time>
      </trkpt>
      <trkpt lat="49.26704" lon="-0.13498">
        <ele>5.358465</ele>
        <time>2022-08-06T09:57:28.000Z</time>
      </trkpt>
      <trkpt lat="49.26702" lon="-0.13496">
        <ele>5.359121</ele>
        <time>2022-08-06T09:57:29.000Z</time>
      </trkpt>
      <trkpt lat="49.267" lon="-0.13493">
        <ele>5.359824</ele>
        <time>2022-08-06T09:57:30.000Z</time>
      </trkpt>
      <trkpt lat="49.26698" lon="-0.1349">
        <ele>5.360455</ele>
        <time>2022-08-06T09:57:31.000Z</time>
      </trkpt>
      <trkpt lat="49.26696" lon="-0.13487">
        <ele>5.36115</ele>
        <time>2022-08-06T09:57:32.000Z</time>
      </trkpt>
      <trkpt lat="49.26693" lon="-0.13485">
        <ele>5.361807</ele>
        <time>2022-08-06T09:57:33.000Z</time>
      </trkpt>
      <trkpt lat="49.26691" lon="-0.13482">
        <ele>5.362482</ele>
        <time>2022-08-06T09:57:34.000Z</time>
      </trkpt>
      <trkpt lat="49.26689" lon="-0.13479">
        <ele>5.363261</ele>
        <time>2022-08-06T09:57:35.000Z</time>
      </trkpt>
      <trkpt lat="49.26686" lon="-0.13476">
        <ele>5.36402</ele>
        <time>2022-08-06T09:57:36.000Z</time>
      </trkpt>
      <trkpt lat="49.26684" lon="-0.13473">
        <ele>5.364757</ele>
        <time>2022-08-06T09:57:37.000Z</time>
      </trkpt>
      <trkpt lat="49.26682" lon="-0.13469">
        <ele>5.365512</ele>
        <time>2022-08-06T09:57:38.000Z</time>
      </trkpt>
      <trkpt lat="49.2668" lon="-0.13466">
        <ele>5.366211</ele>
        <time>2022-08-06T09:57:39.000Z</time>
      </trkpt>
      <trkpt lat="49.26678" lon="-0.13463">
        <ele>5.366948</ele>
        <time>2022-08-06T09:57:40.000Z</time>
      </trkpt>
      <trkpt lat="49.26676" lon="-0.13459">
        <ele>5.367692</ele>
        <time>2022-08-06T09:57:41.000Z</time>
      </trkpt>
      <trkpt lat="49.26673" lon="-0.13456">
        <ele>5.368538</ele>
        <time>2022-08-06T09:57:42.000Z</time>
      </trkpt>
      <trkpt lat="49.26671" lon="-0.13453">
        <ele>5.369237</ele>
        <time>2022-08-06T09:57:43.000Z</time>
      </trkpt>
      <trkpt lat="49.26668" lon="-0.1345">
        <ele>5.370027</ele>
        <time>2022-08-06T09:57:44.000Z</time>
      </trkpt>
      <trkpt lat="49.26666" lon="-0.13447">
        <ele>5.370806</ele>
        <time>2022-08-06T09:57:45.000Z</time>
      </trkpt>
      <trkpt lat="49.26662" lon="-0.13443">
        <ele>5.37173</ele>
        <time>2022-08-06T09:57:46.000Z</time>
      </trkpt>
      <trkpt lat="49.2666" lon="-0.1344">
        <ele>5.372512</ele>
        <time>2022-08-06T09:57:47.000Z</time>
      </trkpt>
      <trkpt lat="49.26658" lon="-0.13436">
        <ele>5.37334</ele>
        <time>2022-08-06T09:57:48.000Z</time>
      </trkpt>
      <trkpt lat="49.26655" lon="-0.13433">
        <ele>5.374614</ele>
        <time>2022-08-06T09:57:49.000Z</time>
      </trkpt>
      <trkpt lat="49.26652" lon="-0.13429">
        <ele>5.380186</ele>
        <time>2022-08-06T09:57:50.000Z</time>
      </trkpt>
      <trkpt lat="49.26649" lon="-0.13426">
        <ele>5.385953</ele>
        <time>2022-08-06T09:57:51.000Z</time>
      </trkpt>
      <trkpt lat="49.26646" lon="-0.13422">
        <ele>5.39147</ele>
        <time>2022-08-06T09:57:52.000Z</time>
      </trkpt>
      <trkpt lat="49.26642" lon="-0.13419">
        <ele>5.397904</ele>
        <time>2022-08-06T09:57:53.000Z</time>
      </trkpt>
      <trkpt lat="49.26639" lon="-0.13415">
        <ele>5.403955</ele>
        <time>2022-08-06T09:57:54.000Z</time>
      </trkpt>
      <trkpt lat="49.26636" lon="-0.13412">
        <ele>5.409409</ele>
        <time>2022-08-06T09:57:55.000Z</time>
      </trkpt>
      <trkpt lat="49.26634" lon="-0.13408">
        <ele>5.414514</ele>
        <time>2022-08-06T09:57:56.000Z</time>
      </trkpt>
      <trkpt lat="49.26631" lon="-0.13404">
        <ele>5.420536</ele>
        <time>2022-08-06T09:57:57.000Z</time>
      </trkpt>
      <trkpt lat="49.26628" lon="-0.134">
        <ele>5.426358</ele>
        <time>2022-08-06T09:57:58.000Z</time>
      </trkpt>
      <trkpt lat="49.26625" lon="-0.13396">
        <ele>5.432591</ele>
        <time>2022-08-06T09:57:59.000Z</time>
      </trkpt>
      <trkpt lat="49.26622" lon="-0.13392">
        <ele>5.43819</ele>
        <time>2022-08-06T09:58:00.000Z</time>
      </trkpt>
      <trkpt lat="49.26619" lon="-0.13388">
        <ele>5.444614</ele>
        <time>2022-08-06T09:58:01.000Z</time>
      </trkpt>
      <trkpt lat="49.26617" lon="-0.13384">
        <ele>5.450014</ele>
        <time>2022-08-06T09:58:02.000Z</time>
      </trkpt>
      <trkpt lat="49.26614" lon="-0.1338">
        <ele>5.45526</ele>
        <time>2022-08-06T09:58:03.000Z</time>
      </trkpt>
      <trkpt lat="49.26611" lon="-0.13376">
        <ele>5.461371</ele>
        <time>2022-08-06T09:58:04.000Z</time>
      </trkpt>
      <trkpt lat="49.26609" lon="-0.13372">
        <ele>5.466771</ele>
        <time>2022-08-06T09:58:05.000Z</time>
      </trkpt>
      <trkpt lat="49.26606" lon="-0.13368">
        <ele>5.472616</ele>
        <time>2022-08-06T09:58:06.000Z</time>
      </trkpt>
      <trkpt lat="49.26603" lon="-0.13364">
        <ele>5.478505</ele>
        <time>2022-08-06T09:58:07.000Z</time>
      </trkpt>
      <trkpt lat="49.266" lon="-0.1336">
        <ele>5.484394</ele>
        <time>2022-08-06T09:58:08.000Z</time>
      </trkpt>
      <trkpt lat="49.26597" lon="-0.13356">
        <ele>5.490218</ele>
        <time>2022-08-06T09:58:09.000Z</time>
      </trkpt>
      <trkpt lat="49.26594" lon="-0.13352">
        <ele>5.495851</ele>
        <time>2022-08-06T09:58:10.000Z</time>
      </trkpt>
      <trkpt lat="49.26591" lon="-0.13348">
        <ele>5.501629</ele>
        <time>2022-08-06T09:58:11.000Z</time>
      </trkpt>
      <trkpt lat="49.26589" lon="-0.13344">
        <ele>5.507453</ele>
        <time>2022-08-06T09:58:12.000Z</time>
      </trkpt>
      <trkpt lat="49.26585" lon="-0.13341">
        <ele>5.513444</ele>
        <time>2022-08-06T09:58:13.000Z</time>
      </trkpt>
      <trkpt lat="49.26582" lon="-0.13337">
        <ele>5.519378</ele>
        <time>2022-08-06T09:58:14.000Z</time>
      </trkpt>
      <trkpt lat="49.26579" lon="-0.13334">
        <ele>5.525312</ele>
        <time>2022-08-06T09:58:15.000Z</time>
      </trkpt>
      <trkpt lat="49.26576" lon="-0.1333">
        <ele>5.530884</ele>
        <time>2022-08-06T09:58:16.000Z</time>
      </trkpt>
      <trkpt lat="49.26573" lon="-0.13327">
        <ele>5.536456</ele>
        <time>2022-08-06T09:58:17.000Z</time>
      </trkpt>
      <trkpt lat="49.2657" lon="-0.13323">
        <ele>5.542151</ele>
        <time>2022-08-06T09:58:18.000Z</time>
      </trkpt>
      <trkpt lat="49.26567" lon="-0.1332">
        <ele>5.547919</ele>
        <time>2022-08-06T09:58:19.000Z</time>
      </trkpt>
      <trkpt lat="49.26564" lon="-0.13317">
        <ele>5.552965</ele>
        <time>2022-08-06T09:58:20.000Z</time>
      </trkpt>
      <trkpt lat="49.26561" lon="-0.13314">
        <ele>5.55915</ele>
        <time>2022-08-06T09:58:21.000Z</time>
      </trkpt>
      <trkpt lat="49.26557" lon="-0.13312">
        <ele>5.564979</ele>
        <time>2022-08-06T09:58:22.000Z</time>
      </trkpt>
      <trkpt lat="49.26554" lon="-0.13309">
        <ele>5.570001</ele>
        <time>2022-08-06T09:58:23.000Z</time>
      </trkpt>
      <trkpt lat="49.26551" lon="-0.13307">
        <ele>5.575639</ele>
        <time>2022-08-06T09:58:24.000Z</time>
      </trkpt>
      <trkpt lat="49.26547" lon="-0.13305">
        <ele>5.581467</ele>
        <time>2022-08-06T09:58:25.000Z</time>
      </trkpt>
      <trkpt lat="49.26544" lon="-0.13302">
        <ele>5.587382</ele>
        <time>2022-08-06T09:58:26.000Z</time>
      </trkpt>
      <trkpt lat="49.26541" lon="-0.13299">
        <ele>5.592803</ele>
        <time>2022-08-06T09:58:27.000Z</time>
      </trkpt>
      <trkpt lat="49.26537" lon="-0.13297">
        <ele>5.598632</ele>
        <time>2022-08-06T09:58:28.000Z</time>
      </trkpt>
      <trkpt lat="49.26533" lon="-0.13295">
        <ele>5.604411</ele>
        <time>2022-08-06T09:58:29.000Z</time>
      </trkpt>
      <trkpt lat="49.26531" lon="-0.13293">
        <ele>5.609117</ele>
        <time>2022-08-06T09:58:30.000Z</time>
      </trkpt>
      <trkpt lat="49.26527" lon="-0.1329">
        <ele>5.615042</ele>
        <time>2022-08-06T09:58:31.000Z</time>
      </trkpt>
      <trkpt lat="49.26524" lon="-0.13288">
        <ele>5.620604</ele>
        <time>2022-08-06T09:58:32.000Z</time>
      </trkpt>
      <trkpt lat="49.26521" lon="-0.13285">
        <ele>5.625939</ele>
        <time>2022-08-06T09:58:33.000Z</time>
      </trkpt>
      <trkpt lat="49.26517" lon="-0.13283">
        <ele>5.631649</ele>
        <time>2022-08-06T09:58:34.000Z</time>
      </trkpt>
      <trkpt lat="49.26514" lon="-0.13281">
        <ele>5.637359</ele>
        <time>2022-08-06T09:58:35.000Z</time>
      </trkpt>
      <trkpt lat="49.2651" lon="-0.13279">
        <ele>5.643032</ele>
        <time>2022-08-06T09:58:36.000Z</time>
      </trkpt>
      <trkpt lat="49.26507" lon="-0.13277">
        <ele>5.643517</ele>
        <time>2022-08-06T09:58:37.000Z</time>
      </trkpt>
      <trkpt lat="49.26504" lon="-0.13274">
        <ele>5.63769</ele>
        <time>2022-08-06T09:58:38.000Z</time>
      </trkpt>
      <trkpt lat="49.26501" lon="-0.13271">
        <ele>5.632251</ele>
        <time>2022-08-06T09:58:39.000Z</time>
      </trkpt>
      <trkpt lat="49.26497" lon="-0.13269">
        <ele>5.626552</ele>
        <time>2022-08-06T09:58:40.000Z</time>
      </trkpt>
      <trkpt lat="49.26493" lon="-0.13266">
        <ele>5.620718</ele>
        <time>2022-08-06T09:58:41.000Z</time>
      </trkpt>
      <trkpt lat="49.2649" lon="-0.13264">
        <ele>5.615059</ele>
        <time>2022-08-06T09:58:42.000Z</time>
      </trkpt>
      <trkpt lat="49.26487" lon="-0.13261">
        <ele>5.6101</ele>
        <time>2022-08-06T09:58:43.000Z</time>
      </trkpt>
      <trkpt lat="49.26484" lon="-0.13258">
        <ele>5.604228</ele>
        <time>2022-08-06T09:58:44.000Z</time>
      </trkpt>
      <trkpt lat="49.2648" lon="-0.13256">
        <ele>5.598487</ele>
        <time>2022-08-06T09:58:45.000Z</time>
      </trkpt>
      <trkpt lat="49.26477" lon="-0.13253">
        <ele>5.593185</ele>
        <time>2022-08-06T09:58:46.000Z</time>
      </trkpt>
      <trkpt lat="49.26473" lon="-0.13251">
        <ele>5.587602</ele>
        <time>2022-08-06T09:58:47.000Z</time>
      </trkpt>
      <trkpt lat="49.26469" lon="-0.13249">
        <ele>5.581532</ele>
        <time>2022-08-06T09:58:48.000Z</time>
      </trkpt>
      <trkpt lat="49.26466" lon="-0.13247">
        <ele>5.575537</ele>
        <time>2022-08-06T09:58:49.000Z</time>
      </trkpt>
      <trkpt lat="49.26462" lon="-0.13245">
        <ele>5.569606</ele>
        <time>2022-08-06T09:58:50.000Z</time>
      </trkpt>
      <trkpt lat="49.26458" lon="-0.13243">
        <ele>5.563505</ele>
        <time>2022-08-06T09:58:51.000Z</time>
      </trkpt>
      <trkpt lat="49.26454" lon="-0.1324">
        <ele>5.557439</ele>
        <time>2022-08-06T09:58:52.000Z</time>
      </trkpt>
      <trkpt lat="49.2645" lon="-0.13238">
        <ele>5.551271</ele>
        <time>2022-08-06T09:58:53.000Z</time>
      </trkpt>
      <trkpt lat="49.26446" lon="-0.13236">
        <ele>5.54486</ele>
        <time>2022-08-06T09:58:54.000Z</time>
      </trkpt>
      <trkpt lat="49.26442" lon="-0.13234">
        <ele>5.53879</ele>
        <time>2022-08-06T09:58:55.000Z</time>
      </trkpt>
      <trkpt lat="49.26438" lon="-0.13232">
        <ele>5.532439</ele>
        <time>2022-08-06T09:58:56.000Z</time>
      </trkpt>
      <trkpt lat="49.26434" lon="-0.1323">
        <ele>5.526052</ele>
        <time>2022-08-06T09:58:57.000Z</time>
      </trkpt>
      <trkpt lat="49.2643" lon="-0.13229">
        <ele>5.519924</ele>
        <time>2022-08-06T09:58:58.000Z</time>
      </trkpt>
      <trkpt lat="49.26425" lon="-0.13229">
        <ele>5.513248</ele>
        <time>2022-08-06T09:58:59.000Z</time>
      </trkpt>
      <trkpt lat="49.2642" lon="-0.13228">
        <ele>5.505691</ele>
        <time>2022-08-06T09:59:00.000Z</time>
      </trkpt>
      <trkpt lat="49.26415" lon="-0.13227">
        <ele>5.49859</ele>
        <time>2022-08-06T09:59:01.000Z</time>
      </trkpt>
      <trkpt lat="49.2641" lon="-0.13227">
        <ele>5.49091</ele>
        <time>2022-08-06T09:59:02.000Z</time>
      </trkpt>
      <trkpt lat="49.26405" lon="-0.13227">
        <ele>5.483822</ele>
        <time>2022-08-06T09:59:03.000Z</time>
      </trkpt>
      <trkpt lat="49.264" lon="-0.13227">
        <ele>5.47629</ele>
        <time>2022-08-06T09:59:04.000Z</time>
      </trkpt>
      <trkpt lat="49.26396" lon="-0.13226">
        <ele>5.469173</ele>
        <time>2022-08-06T09:59:05.000Z</time>
      </trkpt>
      <trkpt lat="49.2639" lon="-0.13225">
        <ele>5.461624</ele>
        <time>2022-08-06T09:59:06.000Z</time>
      </trkpt>
      <trkpt lat="49.26386" lon="-0.13224">
        <ele>5.454486</ele>
        <time>2022-08-06T09:59:07.000Z</time>
      </trkpt>
      <trkpt lat="49.26381" lon="-0.13223">
        <ele>5.446898</ele>
        <time>2022-08-06T09:59:08.000Z</time>
      </trkpt>
      <trkpt lat="49.26376" lon="-0.13222">
        <ele>5.439748</ele>
        <time>2022-08-06T09:59:09.000Z</time>
      </trkpt>
      <trkpt lat="49.26371" lon="-0.13221">
        <ele>5.432146</ele>
        <time>2022-08-06T09:59:10.000Z</time>
      </trkpt>
      <trkpt lat="49.26366" lon="-0.1322">
        <ele>5.424968</ele>
        <time>2022-08-06T09:59:11.000Z</time>
      </trkpt>
      <trkpt lat="49.26361" lon="-0.13219">
        <ele>5.417842</ele>
        <time>2022-08-06T09:59:12.000Z</time>
      </trkpt>
      <trkpt lat="49.26357" lon="-0.13218">
        <ele>5.411144</ele>
        <time>2022-08-06T09:59:13.000Z</time>
      </trkpt>
      <trkpt lat="49.26352" lon="-0.13218">
        <ele>5.404036</ele>
        <time>2022-08-06T09:59:14.000Z</time>
      </trkpt>
      <trkpt lat="49.26347" lon="-0.13217">
        <ele>5.396899</ele>
        <time>2022-08-06T09:59:15.000Z</time>
      </trkpt>
      <trkpt lat="49.26342" lon="-0.13216">
        <ele>5.390212</ele>
        <time>2022-08-06T09:59:16.000Z</time>
      </trkpt>
      <trkpt lat="49.26338" lon="-0.13215">
        <ele>5.383501</ele>
        <time>2022-08-06T09:59:17.000Z</time>
      </trkpt>
      <trkpt lat="49.26334" lon="-0.13214">
        <ele>5.382567</ele>
        <time>2022-08-06T09:59:18.000Z</time>
      </trkpt>
      <trkpt lat="49.26329" lon="-0.13213">
        <ele>5.388771</ele>
        <time>2022-08-06T09:59:19.000Z</time>
      </trkpt>
      <trkpt lat="49.26325" lon="-0.13211">
        <ele>5.394259</ele>
        <time>2022-08-06T09:59:20.000Z</time>
      </trkpt>
      <trkpt lat="49.26321" lon="-0.1321">
        <ele>5.399748</ele>
        <time>2022-08-06T09:59:21.000Z</time>
      </trkpt>
      <trkpt lat="49.26317" lon="-0.13208">
        <ele>5.405094</ele>
        <time>2022-08-06T09:59:22.000Z</time>
      </trkpt>
      <trkpt lat="49.26313" lon="-0.13207">
        <ele>5.410142</ele>
        <time>2022-08-06T09:59:23.000Z</time>
      </trkpt>
      <trkpt lat="49.26309" lon="-0.13207">
        <ele>5.415392</ele>
        <time>2022-08-06T09:59:24.000Z</time>
      </trkpt>
      <trkpt lat="49.26304" lon="-0.13206">
        <ele>5.421149</ele>
        <time>2022-08-06T09:59:25.000Z</time>
      </trkpt>
      <trkpt lat="49.263" lon="-0.13205">
        <ele>5.426891</ele>
        <time>2022-08-06T09:59:26.000Z</time>
      </trkpt>
      <trkpt lat="49.26296" lon="-0.13205">
        <ele>5.431374</ele>
        <time>2022-08-06T09:59:27.000Z</time>
      </trkpt>
      <trkpt lat="49.26292" lon="-0.13204">
        <ele>5.437116</ele>
        <time>2022-08-06T09:59:28.000Z</time>
      </trkpt>
      <trkpt lat="49.26287" lon="-0.13204">
        <ele>5.442345</ele>
        <time>2022-08-06T09:59:29.000Z</time>
      </trkpt>
      <trkpt lat="49.26283" lon="-0.13204">
        <ele>5.44769</ele>
        <time>2022-08-06T09:59:30.000Z</time>
      </trkpt>
      <trkpt lat="49.26279" lon="-0.13204">
        <ele>5.453038</ele>
        <time>2022-08-06T09:59:31.000Z</time>
      </trkpt>
      <trkpt lat="49.26275" lon="-0.13204">
        <ele>5.458273</ele>
        <time>2022-08-06T09:59:32.000Z</time>
      </trkpt>
      <trkpt lat="49.26271" lon="-0.13203">
        <ele>5.463624</ele>
        <time>2022-08-06T09:59:33.000Z</time>
      </trkpt>
      <trkpt lat="49.26266" lon="-0.13203">
        <ele>5.469352</ele>
        <time>2022-08-06T09:59:34.000Z</time>
      </trkpt>
      <trkpt lat="49.26262" lon="-0.13203">
        <ele>5.474962</ele>
        <time>2022-08-06T09:59:35.000Z</time>
      </trkpt>
      <trkpt lat="49.26258" lon="-0.13203">
        <ele>5.480313</ele>
        <time>2022-08-06T09:59:36.000Z</time>
      </trkpt>
      <trkpt lat="49.26253" lon="-0.13202">
        <ele>5.485664</ele>
        <time>2022-08-06T09:59:37.000Z</time>
      </trkpt>
      <trkpt lat="49.26249" lon="-0.13202">
        <ele>5.490885</ele>
        <time>2022-08-06T09:59:38.000Z</time>
      </trkpt>
      <trkpt lat="49.26245" lon="-0.13202">
        <ele>5.495855</ele>
        <time>2022-08-06T09:59:39.000Z</time>
      </trkpt>
      <trkpt lat="49.26241" lon="-0.13201">
        <ele>5.501465</ele>
        <time>2022-08-06T09:59:40.000Z</time>
      </trkpt>
      <trkpt lat="49.26237" lon="-0.13201">
        <ele>5.506833</ele>
        <time>2022-08-06T09:59:41.000Z</time>
      </trkpt>
      <trkpt lat="49.26233" lon="-0.132">
        <ele>5.511688</ele>
        <time>2022-08-06T09:59:42.000Z</time>
      </trkpt>
      <trkpt lat="49.26229" lon="-0.132">
        <ele>5.516669</ele>
        <time>2022-08-06T09:59:43.000Z</time>
      </trkpt>
      <trkpt lat="49.26225" lon="-0.13199">
        <ele>5.521919</ele>
        <time>2022-08-06T09:59:44.000Z</time>
      </trkpt>
      <trkpt lat="49.26221" lon="-0.13198">
        <ele>5.527296</ele>
        <time>2022-08-06T09:59:45.000Z</time>
      </trkpt>
      <trkpt lat="49.26217" lon="-0.13198">
        <ele>5.532665</ele>
        <time>2022-08-06T09:59:46.000Z</time>
      </trkpt>
      <trkpt lat="49.26212" lon="-0.13197">
        <ele>5.538315</ele>
        <time>2022-08-06T09:59:47.000Z</time>
      </trkpt>
      <trkpt lat="49.26209" lon="-0.13196">
        <ele>5.542944</ele>
        <time>2022-08-06T09:59:48.000Z</time>
      </trkpt>
      <trkpt lat="49.26204" lon="-0.13196">
        <ele>5.54855</ele>
        <time>2022-08-06T09:59:49.000Z</time>
      </trkpt>
      <trkpt lat="49.262" lon="-0.13195">
        <ele>5.553927</ele>
        <time>2022-08-06T09:59:50.000Z</time>
      </trkpt>
      <trkpt lat="49.26196" lon="-0.13195">
        <ele>5.559669</ele>
        <time>2022-08-06T09:59:51.000Z</time>
      </trkpt>
      <trkpt lat="49.26191" lon="-0.13194">
        <ele>5.56493</ele>
        <time>2022-08-06T09:59:52.000Z</time>
      </trkpt>
      <trkpt lat="49.26187" lon="-0.13194">
        <ele>5.57066</ele>
        <time>2022-08-06T09:59:53.000Z</time>
      </trkpt>
      <trkpt lat="49.26182" lon="-0.13194">
        <ele>5.576389</ele>
        <time>2022-08-06T09:59:54.000Z</time>
      </trkpt>
      <trkpt lat="49.26178" lon="-0.13195">
        <ele>5.582155</ele>
        <time>2022-08-06T09:59:55.000Z</time>
      </trkpt>
      <trkpt lat="49.26173" lon="-0.13196">
        <ele>5.587983</ele>
        <time>2022-08-06T09:59:56.000Z</time>
      </trkpt>
      <trkpt lat="49.26169" lon="-0.13197">
        <ele>5.593645</ele>
        <time>2022-08-06T09:59:57.000Z</time>
      </trkpt>
      <trkpt lat="49.26165" lon="-0.13198">
        <ele>5.59942</ele>
        <time>2022-08-06T09:59:58.000Z</time>
      </trkpt>
      <trkpt lat="49.2616" lon="-0.13198">
        <ele>5.605163</ele>
        <time>2022-08-06T09:59:59.000Z</time>
      </trkpt>
      <trkpt lat="49.26156" lon="-0.13198">
        <ele>5.608235</ele>
        <time>2022-08-06T10:00:00.000Z</time>
      </trkpt>
      <trkpt lat="49.2615" lon="-0.13198">
        <ele>5.605192</ele>
        <time>2022-08-06T10:00:01.000Z</time>
      </trkpt>
      <trkpt lat="49.26146" lon="-0.13199">
        <ele>5.602505</ele>
        <time>2022-08-06T10:00:02.000Z</time>
      </trkpt>
      <trkpt lat="49.26141" lon="-0.13199">
        <ele>5.599818</ele>
        <time>2022-08-06T10:00:03.000Z</time>
      </trkpt>
      <trkpt lat="49.26137" lon="-0.13199">
        <ele>5.596953</ele>
        <time>2022-08-06T10:00:04.000Z</time>
      </trkpt>
      <trkpt lat="49.26132" lon="-0.13199">
        <ele>5.594326</ele>
        <time>2022-08-06T10:00:05.000Z</time>
      </trkpt>
      <trkpt lat="49.26128" lon="-0.13199">
        <ele>5.591641</ele>
        <time>2022-08-06T10:00:06.000Z</time>
      </trkpt>
      <trkpt lat="49.26123" lon="-0.13199">
        <ele>5.588594</ele>
        <time>2022-08-06T10:00:07.000Z</time>
      </trkpt>
      <trkpt lat="49.26118" lon="-0.132">
        <ele>5.585723</ele>
        <time>2022-08-06T10:00:08.000Z</time>
      </trkpt>
      <trkpt lat="49.26113" lon="-0.132">
        <ele>5.583036</ele>
        <time>2022-08-06T10:00:09.000Z</time>
      </trkpt>
      <trkpt lat="49.26108" lon="-0.132">
        <ele>5.579752</ele>
        <time>2022-08-06T10:00:10.000Z</time>
      </trkpt>
      <trkpt lat="49.26103" lon="-0.13201">
        <ele>5.576702</ele>
        <time>2022-08-06T10:00:11.000Z</time>
      </trkpt>
      <trkpt lat="49.26098" lon="-0.13201">
        <ele>5.573834</ele>
        <time>2022-08-06T10:00:12.000Z</time>
      </trkpt>
      <trkpt lat="49.26093" lon="-0.13202">
        <ele>5.570606</ele>
        <time>2022-08-06T10:00:13.000Z</time>
      </trkpt>
      <trkpt lat="49.26088" lon="-0.13202">
        <ele>5.567733</ele>
        <time>2022-08-06T10:00:14.000Z</time>
      </trkpt>
      <trkpt lat="49.26083" lon="-0.13203">
        <ele>5.564665</ele>
        <time>2022-08-06T10:00:15.000Z</time>
      </trkpt>
      <trkpt lat="49.26077" lon="-0.13204">
        <ele>5.561364</ele>
        <time>2022-08-06T10:00:16.000Z</time>
      </trkpt>
      <trkpt lat="49.26072" lon="-0.13205">
        <ele>5.558291</ele>
        <time>2022-08-06T10:00:17.000Z</time>
      </trkpt>
      <trkpt lat="49.26067" lon="-0.13206">
        <ele>5.555046</ele>
        <time>2022-08-06T10:00:18.000Z</time>
      </trkpt>
      <trkpt lat="49.26061" lon="-0.13207">
        <ele>5.551385</ele>
        <time>2022-08-06T10:00:19.000Z</time>
      </trkpt>
      <trkpt lat="49.26055" lon="-0.13208">
        <ele>5.548085</ele>
        <time>2022-08-06T10:00:20.000Z</time>
      </trkpt>
      <trkpt lat="49.26049" lon="-0.13209">
        <ele>5.544657</ele>
        <time>2022-08-06T10:00:21.000Z</time>
      </trkpt>
      <trkpt lat="49.26044" lon="-0.1321">
        <ele>5.541352</ele>
        <time>2022-08-06T10:00:22.000Z</time>
      </trkpt>
      <trkpt lat="49.26038" lon="-0.13211">
        <ele>5.538111</ele>
        <time>2022-08-06T10:00:23.000Z</time>
      </trkpt>
      <trkpt lat="49.26033" lon="-0.13212">
        <ele>5.535059</ele>
        <time>2022-08-06T10:00:24.000Z</time>
      </trkpt>
      <trkpt lat="49.26028" lon="-0.13213">
        <ele>5.531576</ele>
        <time>2022-08-06T10:00:25.000Z</time>
      </trkpt>
      <trkpt lat="49.26022" lon="-0.13214">
        <ele>5.528497</ele>
        <time>2022-08-06T10:00:26.000Z</time>
      </trkpt>
      <trkpt lat="49.26017" lon="-0.13215">
        <ele>5.525</ele>
        <time>2022-08-06T10:00:27.000Z</time>
      </trkpt>
      <trkpt lat="49.26011" lon="-0.13217">
        <ele>5.521567</ele>
        <time>2022-08-06T10:00:28.000Z</time>
      </trkpt>
      <trkpt lat="49.26005" lon="-0.13218">
        <ele>5.518074</ele>
        <time>2022-08-06T10:00:29.000Z</time>
      </trkpt>
      <trkpt lat="49.25999" lon="-0.13219">
        <ele>5.5144</ele>
        <time>2022-08-06T10:00:30.000Z</time>
      </trkpt>
      <trkpt lat="49.25993" lon="-0.13221">
        <ele>5.510949</ele>
        <time>2022-08-06T10:00:31.000Z</time>
      </trkpt>
      <trkpt lat="49.25987" lon="-0.13222">
        <ele>5.507086</ele>
        <time>2022-08-06T10:00:32.000Z</time>
      </trkpt>
      <trkpt lat="49.25982" lon="-0.13223">
        <ele>5.504001</ele>
        <time>2022-08-06T10:00:33.000Z</time>
      </trkpt>
      <trkpt lat="49.25977" lon="-0.13224">
        <ele>5.505749</ele>
        <time>2022-08-06T10:00:34.000Z</time>
      </trkpt>
      <trkpt lat="49.25972" lon="-0.13225">
        <ele>5.526216</ele>
        <time>2022-08-06T10:00:35.000Z</time>
      </trkpt>
      <trkpt lat="49.25966" lon="-0.13226">
        <ele>5.545189</ele>
        <time>2022-08-06T10:00:36.000Z</time>
      </trkpt>
      <trkpt lat="49.25961" lon="-0.13227">
        <ele>5.565233</ele>
        <time>2022-08-06T10:00:37.000Z</time>
      </trkpt>
      <trkpt lat="49.25956" lon="-0.13228">
        <ele>5.585671</ele>
        <time>2022-08-06T10:00:38.000Z</time>
      </trkpt>
      <trkpt lat="49.2595" lon="-0.1323">
        <ele>5.606936</ele>
        <time>2022-08-06T10:00:39.000Z</time>
      </trkpt>
      <trkpt lat="49.25945" lon="-0.13231">
        <ele>5.626378</ele>
        <time>2022-08-06T10:00:40.000Z</time>
      </trkpt>
      <trkpt lat="49.25939" lon="-0.13232">
        <ele>5.646513</ele>
        <time>2022-08-06T10:00:41.000Z</time>
      </trkpt>
      <trkpt lat="49.25933" lon="-0.13233">
        <ele>5.668002</ele>
        <time>2022-08-06T10:00:42.000Z</time>
      </trkpt>
      <trkpt lat="49.25928" lon="-0.13234">
        <ele>5.688137</ele>
        <time>2022-08-06T10:00:43.000Z</time>
      </trkpt>
      <trkpt lat="49.25923" lon="-0.13235">
        <ele>5.707177</ele>
        <time>2022-08-06T10:00:44.000Z</time>
      </trkpt>
      <trkpt lat="49.25917" lon="-0.13237">
        <ele>5.727712</ele>
        <time>2022-08-06T10:00:45.000Z</time>
      </trkpt>
      <trkpt lat="49.25912" lon="-0.13238">
        <ele>5.747847</ele>
        <time>2022-08-06T10:00:46.000Z</time>
      </trkpt>
      <trkpt lat="49.25907" lon="-0.13239">
        <ele>5.766925</ele>
        <time>2022-08-06T10:00:47.000Z</time>
      </trkpt>
      <trkpt lat="49.25901" lon="-0.13241">
        <ele>5.787629</ele>
        <time>2022-08-06T10:00:48.000Z</time>
      </trkpt>
      <trkpt lat="49.25896" lon="-0.13243">
        <ele>5.806942</ele>
        <time>2022-08-06T10:00:49.000Z</time>
      </trkpt>
      <trkpt lat="49.25891" lon="-0.13245">
        <ele>5.826559</ele>
        <time>2022-08-06T10:00:50.000Z</time>
      </trkpt>
      <trkpt lat="49.25886" lon="-0.13247">
        <ele>5.84611</ele>
        <time>2022-08-06T10:00:51.000Z</time>
      </trkpt>
      <trkpt lat="49.25881" lon="-0.13249">
        <ele>5.864598</ele>
        <time>2022-08-06T10:00:52.000Z</time>
      </trkpt>
      <trkpt lat="49.25876" lon="-0.13252">
        <ele>5.884216</ele>
        <time>2022-08-06T10:00:53.000Z</time>
      </trkpt>
      <trkpt lat="49.25871" lon="-0.13254">
        <ele>5.902774</ele>
        <time>2022-08-06T10:00:54.000Z</time>
      </trkpt>
      <trkpt lat="49.25867" lon="-0.13256">
        <ele>5.919003</ele>
        <time>2022-08-06T10:00:55.000Z</time>
      </trkpt>
      <trkpt lat="49.25863" lon="-0.13258">
        <ele>5.935163</ele>
        <time>2022-08-06T10:00:56.000Z</time>
      </trkpt>
      <trkpt lat="49.25859" lon="-0.1326">
        <ele>5.951968</ele>
        <time>2022-08-06T10:00:57.000Z</time>
      </trkpt>
      <trkpt lat="49.25856" lon="-0.13261">
        <ele>5.963118</ele>
        <time>2022-08-06T10:00:58.000Z</time>
      </trkpt>
      <trkpt lat="49.25853" lon="-0.13262">
        <ele>5.975169</ele>
        <time>2022-08-06T10:00:59.000Z</time>
      </trkpt>
      <trkpt lat="49.25851" lon="-0.13263">
        <ele>5.982583</ele>
        <time>2022-08-06T10:01:00.000Z</time>
      </trkpt>
      <trkpt lat="49.25848" lon="-0.13264">
        <ele>5.993877</ele>
        <time>2022-08-06T10:01:02.000Z</time>
      </trkpt>
      <trkpt lat="49.25845" lon="-0.13266">
        <ele>6.003519</ele>
        <time>2022-08-06T10:01:04.000Z</time>
      </trkpt>
      <trkpt lat="49.25839" lon="-0.1327">
        <ele>6.029882</ele>
        <time>2022-08-06T10:02:13.000Z</time>
      </trkpt>
      <trkpt lat="49.25836" lon="-0.13271">
        <ele>6.03926</ele>
        <time>2022-08-06T10:02:14.000Z</time>
      </trkpt>
      <trkpt lat="49.25833" lon="-0.13272">
        <ele>6.05041</ele>
        <time>2022-08-06T10:02:15.000Z</time>
      </trkpt>
      <trkpt lat="49.2583" lon="-0.13273">
        <ele>6.063699</ele>
        <time>2022-08-06T10:02:16.000Z</time>
      </trkpt>
      <trkpt lat="49.25827" lon="-0.13275">
        <ele>6.076048</ele>
        <time>2022-08-06T10:02:17.000Z</time>
      </trkpt>
      <trkpt lat="49.25823" lon="-0.13276">
        <ele>6.088328</ele>
        <time>2022-08-06T10:02:18.000Z</time>
      </trkpt>
      <trkpt lat="49.2582" lon="-0.13278">
        <ele>6.102095</ele>
        <time>2022-08-06T10:02:19.000Z</time>
      </trkpt>
      <trkpt lat="49.25816" lon="-0.13279">
        <ele>6.116575</ele>
        <time>2022-08-06T10:02:20.000Z</time>
      </trkpt>
      <trkpt lat="49.25812" lon="-0.13281">
        <ele>6.131252</ele>
        <time>2022-08-06T10:02:21.000Z</time>
      </trkpt>
      <trkpt lat="49.25809" lon="-0.13283">
        <ele>6.145226</ele>
        <time>2022-08-06T10:02:22.000Z</time>
      </trkpt>
      <trkpt lat="49.25805" lon="-0.13285">
        <ele>6.160215</ele>
        <time>2022-08-06T10:02:23.000Z</time>
      </trkpt>
      <trkpt lat="49.25801" lon="-0.13287">
        <ele>6.168625</ele>
        <time>2022-08-06T10:02:24.000Z</time>
      </trkpt>
      <trkpt lat="49.25797" lon="-0.1329">
        <ele>6.173962</ele>
        <time>2022-08-06T10:02:25.000Z</time>
      </trkpt>
      <trkpt lat="49.25793" lon="-0.13293">
        <ele>6.178923</ele>
        <time>2022-08-06T10:02:26.000Z</time>
      </trkpt>
      <trkpt lat="49.2579" lon="-0.13295">
        <ele>6.183178</ele>
        <time>2022-08-06T10:02:27.000Z</time>
      </trkpt>
      <trkpt lat="49.25786" lon="-0.13298">
        <ele>6.188515</ele>
        <time>2022-08-06T10:02:28.000Z</time>
      </trkpt>
      <trkpt lat="49.25782" lon="-0.13301">
        <ele>6.193265</ele>
        <time>2022-08-06T10:02:29.000Z</time>
      </trkpt>
      <trkpt lat="49.25778" lon="-0.13303">
        <ele>6.198602</ele>
        <time>2022-08-06T10:02:30.000Z</time>
      </trkpt>
      <trkpt lat="49.25774" lon="-0.13306">
        <ele>6.203597</ele>
        <time>2022-08-06T10:02:31.000Z</time>
      </trkpt>
      <trkpt lat="49.2577" lon="-0.13309">
        <ele>6.208837</ele>
        <time>2022-08-06T10:02:32.000Z</time>
      </trkpt>
      <trkpt lat="49.25766" lon="-0.13312">
        <ele>6.213831</ele>
        <time>2022-08-06T10:02:33.000Z</time>
      </trkpt>
      <trkpt lat="49.25763" lon="-0.13315">
        <ele>6.218581</ele>
        <time>2022-08-06T10:02:34.000Z</time>
      </trkpt>
      <trkpt lat="49.25759" lon="-0.13318">
        <ele>6.223716</ele>
        <time>2022-08-06T10:02:35.000Z</time>
      </trkpt>
      <trkpt lat="49.25755" lon="-0.13321">
        <ele>6.228779</ele>
        <time>2022-08-06T10:02:36.000Z</time>
      </trkpt>
      <trkpt lat="49.25752" lon="-0.13323">
        <ele>6.23307</ele>
        <time>2022-08-06T10:02:37.000Z</time>
      </trkpt>
      <trkpt lat="49.25749" lon="-0.13326">
        <ele>6.23782</ele>
        <time>2022-08-06T10:02:38.000Z</time>
      </trkpt>
      <trkpt lat="49.25745" lon="-0.13329">
        <ele>6.242224</ele>
        <time>2022-08-06T10:02:39.000Z</time>
      </trkpt>
      <trkpt lat="49.25742" lon="-0.13333">
        <ele>6.246502</ele>
        <time>2022-08-06T10:02:40.000Z</time>
      </trkpt>
      <trkpt lat="49.25739" lon="-0.13336">
        <ele>6.251253</ele>
        <time>2022-08-06T10:02:41.000Z</time>
      </trkpt>
      <trkpt lat="49.25736" lon="-0.13339">
        <ele>6.255486</ele>
        <time>2022-08-06T10:02:42.000Z</time>
      </trkpt>
      <trkpt lat="49.25733" lon="-0.13342">
        <ele>6.260353</ele>
        <time>2022-08-06T10:02:43.000Z</time>
      </trkpt>
      <trkpt lat="49.25729" lon="-0.13345">
        <ele>6.265221</ele>
        <time>2022-08-06T10:02:44.000Z</time>
      </trkpt>
      <trkpt lat="49.25725" lon="-0.13348">
        <ele>6.270039</ele>
        <time>2022-08-06T10:02:45.000Z</time>
      </trkpt>
      <trkpt lat="49.25722" lon="-0.13351">
        <ele>6.275138</ele>
        <time>2022-08-06T10:02:46.000Z</time>
      </trkpt>
      <trkpt lat="49.25718" lon="-0.13355">
        <ele>6.279965</ele>
        <time>2022-08-06T10:02:47.000Z</time>
      </trkpt>
      <trkpt lat="49.25714" lon="-0.13358">
        <ele>6.285319</ele>
        <time>2022-08-06T10:02:48.000Z</time>
      </trkpt>
      <trkpt lat="49.25709" lon="-0.13361">
        <ele>6.291551</ele>
        <time>2022-08-06T10:02:49.000Z</time>
      </trkpt>
      <trkpt lat="49.25706" lon="-0.13365">
        <ele>6.296687</ele>
        <time>2022-08-06T10:02:50.000Z</time>
      </trkpt>
      <trkpt lat="49.25701" lon="-0.13368">
        <ele>6.302175</ele>
        <time>2022-08-06T10:02:51.000Z</time>
      </trkpt>
      <trkpt lat="49.25697" lon="-0.13371">
        <ele>6.307626</ele>
        <time>2022-08-06T10:02:52.000Z</time>
      </trkpt>
      <trkpt lat="49.25693" lon="-0.13374">
        <ele>6.312794</ele>
        <time>2022-08-06T10:02:53.000Z</time>
      </trkpt>
      <trkpt lat="49.2569" lon="-0.13377">
        <ele>6.317858</ele>
        <time>2022-08-06T10:02:54.000Z</time>
      </trkpt>
      <trkpt lat="49.25686" lon="-0.13379">
        <ele>6.322787</ele>
        <time>2022-08-06T10:02:55.000Z</time>
      </trkpt>
      <trkpt lat="49.25682" lon="-0.13382">
        <ele>6.328045</ele>
        <time>2022-08-06T10:02:56.000Z</time>
      </trkpt>
      <trkpt lat="49.25678" lon="-0.13384">
        <ele>6.332138</ele>
        <time>2022-08-06T10:02:57.000Z</time>
      </trkpt>
      <trkpt lat="49.25675" lon="-0.13386">
        <ele>6.336897</ele>
        <time>2022-08-06T10:02:58.000Z</time>
      </trkpt>
      <trkpt lat="49.25671" lon="-0.13387">
        <ele>6.341383</ele>
        <time>2022-08-06T10:02:59.000Z</time>
      </trkpt>
      <trkpt lat="49.25667" lon="-0.13389">
        <ele>6.346072</ele>
        <time>2022-08-06T10:03:00.000Z</time>
      </trkpt>
      <trkpt lat="49.25663" lon="-0.13391">
        <ele>6.350761</ele>
        <time>2022-08-06T10:03:01.000Z</time>
      </trkpt>
      <trkpt lat="49.25661" lon="-0.13392">
        <ele>6.354299</ele>
        <time>2022-08-06T10:03:02.000Z</time>
      </trkpt>
      <trkpt lat="49.25657" lon="-0.13393">
        <ele>6.358584</ele>
        <time>2022-08-06T10:03:03.000Z</time>
      </trkpt>
      <trkpt lat="49.25654" lon="-0.13394">
        <ele>6.362452</ele>
        <time>2022-08-06T10:03:04.000Z</time>
      </trkpt>
      <trkpt lat="49.25651" lon="-0.13395">
        <ele>6.365918</ele>
        <time>2022-08-06T10:03:05.000Z</time>
      </trkpt>
      <trkpt lat="49.25648" lon="-0.13396">
        <ele>6.369787</ele>
        <time>2022-08-06T10:03:06.000Z</time>
      </trkpt>
      <trkpt lat="49.25645" lon="-0.13397">
        <ele>6.373264</ele>
        <time>2022-08-06T10:03:07.000Z</time>
      </trkpt>
      <trkpt lat="49.25642" lon="-0.13397">
        <ele>6.376741</ele>
        <time>2022-08-06T10:03:08.000Z</time>
      </trkpt>
      <trkpt lat="49.25639" lon="-0.13398">
        <ele>6.375191</ele>
        <time>2022-08-06T10:03:09.000Z</time>
      </trkpt>
      <trkpt lat="49.25636" lon="-0.13399">
        <ele>6.369621</ele>
        <time>2022-08-06T10:03:10.000Z</time>
      </trkpt>
      <trkpt lat="49.25633" lon="-0.13399">
        <ele>6.36477</ele>
        <time>2022-08-06T10:03:11.000Z</time>
      </trkpt>
      <trkpt lat="49.2563" lon="-0.134">
        <ele>6.358631</ele>
        <time>2022-08-06T10:03:12.000Z</time>
      </trkpt>
      <trkpt lat="49.25628" lon="-0.134">
        <ele>6.354239</ele>
        <time>2022-08-06T10:03:13.000Z</time>
      </trkpt>
      <trkpt lat="49.25625" lon="-0.134">
        <ele>6.349442</ele>
        <time>2022-08-06T10:03:14.000Z</time>
      </trkpt>
      <trkpt lat="49.25623" lon="-0.134">
        <ele>6.345813</ele>
        <time>2022-08-06T10:03:15.000Z</time>
      </trkpt>
      <trkpt lat="49.25621" lon="-0.13401">
        <ele>6.340845</ele>
        <time>2022-08-06T10:03:16.000Z</time>
      </trkpt>
      <trkpt lat="49.25619" lon="-0.13401">
        <ele>6.33721</ele>
        <time>2022-08-06T10:03:17.000Z</time>
      </trkpt>
      <trkpt lat="49.25617" lon="-0.134">
        <ele>6.333549</ele>
        <time>2022-08-06T10:03:18.000Z</time>
      </trkpt>
      <trkpt lat="49.25615" lon="-0.134">
        <ele>6.329604</ele>
        <time>2022-08-06T10:03:19.000Z</time>
      </trkpt>
      <trkpt lat="49.25613" lon="-0.13399">
        <ele>6.325924</ele>
        <time>2022-08-06T10:03:20.000Z</time>
      </trkpt>
      <trkpt lat="49.2561" lon="-0.13398">
        <ele>6.319637</ele>
        <time>2022-08-06T10:03:22.000Z</time>
      </trkpt>
      <trkpt lat="49.25607" lon="-0.13397">
        <ele>6.314067</ele>
        <time>2022-08-06T10:03:24.000Z</time>
      </trkpt>
      <trkpt lat="49.25604" lon="-0.13398">
        <ele>6.307293</ele>
        <time>2022-08-06T10:03:26.000Z</time>
      </trkpt>
      <trkpt lat="49.25602" lon="-0.13399">
        <ele>6.30359</ele>
        <time>2022-08-06T10:03:27.000Z</time>
      </trkpt>
      <trkpt lat="49.256" lon="-0.13399">
        <ele>6.299962</ele>
        <time>2022-08-06T10:03:28.000Z</time>
      </trkpt>
      <trkpt lat="49.25597" lon="-0.13399">
        <ele>6.295565</ele>
        <time>2022-08-06T10:03:29.000Z</time>
      </trkpt>
      <trkpt lat="49.25595" lon="-0.13398">
        <ele>6.290208</ele>
        <time>2022-08-06T10:03:30.000Z</time>
      </trkpt>
      <trkpt lat="49.25592" lon="-0.13398">
        <ele>6.285239</ele>
        <time>2022-08-06T10:03:31.000Z</time>
      </trkpt>
      <trkpt lat="49.25589" lon="-0.13398">
        <ele>6.279691</ele>
        <time>2022-08-06T10:03:32.000Z</time>
      </trkpt>
      <trkpt lat="49.25586" lon="-0.13398">
        <ele>6.273006</ele>
        <time>2022-08-06T10:03:33.000Z</time>
      </trkpt>
      <trkpt lat="49.25582" lon="-0.13397">
        <ele>6.266867</ele>
        <time>2022-08-06T10:03:34.000Z</time>
      </trkpt>
      <trkpt lat="49.25579" lon="-0.13396">
        <ele>6.259562</ele>
        <time>2022-08-06T10:03:35.000Z</time>
      </trkpt>
      <trkpt lat="49.25575" lon="-0.13396">
        <ele>6.253374</ele>
        <time>2022-08-06T10:03:36.000Z</time>
      </trkpt>
      <trkpt lat="49.25572" lon="-0.13394">
        <ele>6.246065</ele>
        <time>2022-08-06T10:03:37.000Z</time>
      </trkpt>
      <trkpt lat="49.25568" lon="-0.13391">
        <ele>6.238586</ele>
        <time>2022-08-06T10:03:38.000Z</time>
      </trkpt>
      <trkpt lat="49.25566" lon="-0.13387">
        <ele>6.232037</ele>
        <time>2022-08-06T10:03:39.000Z</time>
      </trkpt>
      <trkpt lat="49.25563" lon="-0.13383">
        <ele>6.224826</ele>
        <time>2022-08-06T10:03:40.000Z</time>
      </trkpt>
      <trkpt lat="49.25561" lon="-0.13379">
        <ele>6.217339</ele>
        <time>2022-08-06T10:03:41.000Z</time>
      </trkpt>
      <trkpt lat="49.25559" lon="-0.13374">
        <ele>6.210871</ele>
        <time>2022-08-06T10:03:42.000Z</time>
      </trkpt>
      <trkpt lat="49.25557" lon="-0.1337">
        <ele>6.204854</ele>
        <time>2022-08-06T10:03:43.000Z</time>
      </trkpt>
      <trkpt lat="49.25556" lon="-0.13366">
        <ele>6.19859</ele>
        <time>2022-08-06T10:03:44.000Z</time>
      </trkpt>
      <trkpt lat="49.25554" lon="-0.13362">
        <ele>6.192224</ele>
        <time>2022-08-06T10:03:45.000Z</time>
      </trkpt>
      <trkpt lat="49.25552" lon="-0.13358">
        <ele>6.186061</ele>
        <time>2022-08-06T10:03:46.000Z</time>
      </trkpt>
      <trkpt lat="49.25549" lon="-0.13354">
        <ele>6.179696</ele>
        <time>2022-08-06T10:03:47.000Z</time>
      </trkpt>
      <trkpt lat="49.25547" lon="-0.1335">
        <ele>6.172799</ele>
        <time>2022-08-06T10:03:48.000Z</time>
      </trkpt>
      <trkpt lat="49.25544" lon="-0.13347">
        <ele>6.166511</ele>
        <time>2022-08-06T10:03:49.000Z</time>
      </trkpt>
      <trkpt lat="49.2554" lon="-0.13344">
        <ele>6.158408</ele>
        <time>2022-08-06T10:03:50.000Z</time>
      </trkpt>
      <trkpt lat="49.25537" lon="-0.13342">
        <ele>6.150812</ele>
        <time>2022-08-06T10:03:51.000Z</time>
      </trkpt>
      <trkpt lat="49.25533" lon="-0.1334">
        <ele>6.143183</ele>
        <time>2022-08-06T10:03:52.000Z</time>
      </trkpt>
      <trkpt lat="49.25529" lon="-0.13338">
        <ele>6.134922</ele>
        <time>2022-08-06T10:03:53.000Z</time>
      </trkpt>
      <trkpt lat="49.25525" lon="-0.13337">
        <ele>6.127563</ele>
        <time>2022-08-06T10:03:54.000Z</time>
      </trkpt>
      <trkpt lat="49.25521" lon="-0.13336">
        <ele>6.119469</ele>
        <time>2022-08-06T10:03:55.000Z</time>
      </trkpt>
      <trkpt lat="49.25517" lon="-0.13337">
        <ele>6.11164</ele>
        <time>2022-08-06T10:03:56.000Z</time>
      </trkpt>
      <trkpt lat="49.25512" lon="-0.13338">
        <ele>6.103485</ele>
        <time>2022-08-06T10:03:57.000Z</time>
      </trkpt>
      <trkpt lat="49.25509" lon="-0.1334">
        <ele>6.095775</ele>
        <time>2022-08-06T10:03:58.000Z</time>
      </trkpt>
      <trkpt lat="49.25505" lon="-0.13342">
        <ele>6.087706</ele>
        <time>2022-08-06T10:03:59.000Z</time>
      </trkpt>
      <trkpt lat="49.25501" lon="-0.13345">
        <ele>6.080335</ele>
        <time>2022-08-06T10:04:00.000Z</time>
      </trkpt>
      <trkpt lat="49.25497" lon="-0.13347">
        <ele>6.072582</ele>
        <time>2022-08-06T10:04:01.000Z</time>
      </trkpt>
      <trkpt lat="49.25494" lon="-0.13349">
        <ele>6.066195</ele>
        <time>2022-08-06T10:04:02.000Z</time>
      </trkpt>
      <trkpt lat="49.25491" lon="-0.13351">
        <ele>6.058926</ele>
        <time>2022-08-06T10:04:03.000Z</time>
      </trkpt>
      <trkpt lat="49.25487" lon="-0.13354">
        <ele>6.050758</ele>
        <time>2022-08-06T10:04:04.000Z</time>
      </trkpt>
      <trkpt lat="49.25483" lon="-0.13356">
        <ele>6.042763</ele>
        <time>2022-08-06T10:04:05.000Z</time>
      </trkpt>
      <trkpt lat="49.25479" lon="-0.13359">
        <ele>6.035239</ele>
        <time>2022-08-06T10:04:06.000Z</time>
      </trkpt>
      <trkpt lat="49.25477" lon="-0.13363">
        <ele>6.03593</ele>
        <time>2022-08-06T10:04:07.000Z</time>
      </trkpt>
      <trkpt lat="49.25473" lon="-0.13368">
        <ele>6.036708</ele>
        <time>2022-08-06T10:04:08.000Z</time>
      </trkpt>
      <trkpt lat="49.2547" lon="-0.13373">
        <ele>6.037473</ele>
        <time>2022-08-06T10:04:09.000Z</time>
      </trkpt>
      <trkpt lat="49.25468" lon="-0.13377">
        <ele>6.038193</ele>
        <time>2022-08-06T10:04:10.000Z</time>
      </trkpt>
      <trkpt lat="49.25465" lon="-0.13382">
        <ele>6.038928</ele>
        <time>2022-08-06T10:04:11.000Z</time>
      </trkpt>
      <trkpt lat="49.25462" lon="-0.13386">
        <ele>6.039631</ele>
        <time>2022-08-06T10:04:12.000Z</time>
      </trkpt>
      <trkpt lat="49.2546" lon="-0.13391">
        <ele>6.040362</ele>
        <time>2022-08-06T10:04:13.000Z</time>
      </trkpt>
      <trkpt lat="49.25456" lon="-0.13394">
        <ele>6.041117</ele>
        <time>2022-08-06T10:04:14.000Z</time>
      </trkpt>
      <trkpt lat="49.25452" lon="-0.13397">
        <ele>6.041996</ele>
        <time>2022-08-06T10:04:15.000Z</time>
      </trkpt>
      <trkpt lat="49.25447" lon="-0.134">
        <ele>6.042774</ele>
        <time>2022-08-06T10:04:16.000Z</time>
      </trkpt>
      <trkpt lat="49.25443" lon="-0.13401">
        <ele>6.043594</ele>
        <time>2022-08-06T10:04:17.000Z</time>
      </trkpt>
      <trkpt lat="49.25439" lon="-0.13402">
        <ele>6.044354</ele>
        <time>2022-08-06T10:04:18.000Z</time>
      </trkpt>
      <trkpt lat="49.25435" lon="-0.13402">
        <ele>6.045038</ele>
        <time>2022-08-06T10:04:19.000Z</time>
      </trkpt>
      <trkpt lat="49.25431" lon="-0.13403">
        <ele>6.045792</ele>
        <time>2022-08-06T10:04:20.000Z</time>
      </trkpt>
      <trkpt lat="49.25427" lon="-0.13402">
        <ele>6.046528</ele>
        <time>2022-08-06T10:04:21.000Z</time>
      </trkpt>
      <trkpt lat="49.25422" lon="-0.13402">
        <ele>6.04739</ele>
        <time>2022-08-06T10:04:22.000Z</time>
      </trkpt>
      <trkpt lat="49.25417" lon="-0.134">
        <ele>6.048215</ele>
        <time>2022-08-06T10:04:23.000Z</time>
      </trkpt>
      <trkpt lat="49.25413" lon="-0.13398">
        <ele>6.04901</ele>
        <time>2022-08-06T10:04:24.000Z</time>
      </trkpt>
      <trkpt lat="49.25409" lon="-0.13396">
        <ele>6.049868</ele>
        <time>2022-08-06T10:04:25.000Z</time>
      </trkpt>
      <trkpt lat="49.25405" lon="-0.13393">
        <ele>6.050682</ele>
        <time>2022-08-06T10:04:26.000Z</time>
      </trkpt>
      <trkpt lat="49.254" lon="-0.1339">
        <ele>6.051512</ele>
        <time>2022-08-06T10:04:27.000Z</time>
      </trkpt>
      <trkpt lat="49.25396" lon="-0.13387">
        <ele>6.052377</ele>
        <time>2022-08-06T10:04:28.000Z</time>
      </trkpt>
      <trkpt lat="49.25392" lon="-0.13384">
        <ele>6.053118</ele>
        <time>2022-08-06T10:04:29.000Z</time>
      </trkpt>
      <trkpt lat="49.25388" lon="-0.13383">
        <ele>6.053899</ele>
        <time>2022-08-06T10:04:30.000Z</time>
      </trkpt>
      <trkpt lat="49.25384" lon="-0.13382">
        <ele>6.054634</ele>
        <time>2022-08-06T10:04:31.000Z</time>
      </trkpt>
      <trkpt lat="49.2538" lon="-0.13384">
        <ele>6.055399</ele>
        <time>2022-08-06T10:04:32.000Z</time>
      </trkpt>
      <trkpt lat="49.25376" lon="-0.13386">
        <ele>6.056131</ele>
        <time>2022-08-06T10:04:33.000Z</time>
      </trkpt>
      <trkpt lat="49.25372" lon="-0.1339">
        <ele>6.056999</ele>
        <time>2022-08-06T10:04:34.000Z</time>
      </trkpt>
      <trkpt lat="49.25368" lon="-0.13393">
        <ele>6.057767</ele>
        <time>2022-08-06T10:04:35.000Z</time>
      </trkpt>
      <trkpt lat="49.25364" lon="-0.13398">
        <ele>6.058642</ele>
        <time>2022-08-06T10:04:36.000Z</time>
      </trkpt>
      <trkpt lat="49.25361" lon="-0.13403">
        <ele>6.059489</ele>
        <time>2022-08-06T10:04:37.000Z</time>
      </trkpt>
      <trkpt lat="49.25357" lon="-0.13407">
        <ele>6.060357</ele>
        <time>2022-08-06T10:04:38.000Z</time>
      </trkpt>
      <trkpt lat="49.25353" lon="-0.13411">
        <ele>6.061163</ele>
        <time>2022-08-06T10:04:39.000Z</time>
      </trkpt>
      <trkpt lat="49.25349" lon="-0.13414">
        <ele>6.061956</ele>
        <time>2022-08-06T10:04:40.000Z</time>
      </trkpt>
      <trkpt lat="49.25345" lon="-0.13418">
        <ele>6.062785</ele>
        <time>2022-08-06T10:04:41.000Z</time>
      </trkpt>
      <trkpt lat="49.2534" lon="-0.13421">
        <ele>6.063802</ele>
        <time>2022-08-06T10:04:42.000Z</time>
      </trkpt>
      <trkpt lat="49.25335" lon="-0.13425">
        <ele>6.064755</ele>
        <time>2022-08-06T10:04:43.000Z</time>
      </trkpt>
      <trkpt lat="49.25331" lon="-0.13428">
        <ele>6.065613</ele>
        <time>2022-08-06T10:04:44.000Z</time>
      </trkpt>
      <trkpt lat="49.25327" lon="-0.13432">
        <ele>6.066435</ele>
        <time>2022-08-06T10:04:45.000Z</time>
      </trkpt>
      <trkpt lat="49.25324" lon="-0.13435">
        <ele>6.067165</ele>
        <time>2022-08-06T10:04:46.000Z</time>
      </trkpt>
      <trkpt lat="49.25319" lon="-0.13438">
        <ele>6.063392</ele>
        <time>2022-08-06T10:04:47.000Z</time>
      </trkpt>
      <trkpt lat="49.25315" lon="-0.13441">
        <ele>6.057398</ele>
        <time>2022-08-06T10:04:48.000Z</time>
      </trkpt>
      <trkpt lat="49.25311" lon="-0.13443">
        <ele>6.051242</ele>
        <time>2022-08-06T10:04:49.000Z</time>
      </trkpt>
      <trkpt lat="49.25307" lon="-0.13446">
        <ele>6.044804</ele>
        <time>2022-08-06T10:04:50.000Z</time>
      </trkpt>
      <trkpt lat="49.25302" lon="-0.13449">
        <ele>6.038748</ele>
        <time>2022-08-06T10:04:51.000Z</time>
      </trkpt>
      <trkpt lat="49.25298" lon="-0.1345">
        <ele>6.032146</ele>
        <time>2022-08-06T10:04:52.000Z</time>
      </trkpt>
      <trkpt lat="49.25293" lon="-0.13452">
        <ele>6.02635</ele>
        <time>2022-08-06T10:04:53.000Z</time>
      </trkpt>
      <trkpt lat="49.25288" lon="-0.13453">
        <ele>6.01904</ele>
        <time>2022-08-06T10:04:54.000Z</time>
      </trkpt>
      <trkpt lat="49.25283" lon="-0.13454">
        <ele>6.01254</ele>
        <time>2022-08-06T10:04:55.000Z</time>
      </trkpt>
      <trkpt lat="49.25278" lon="-0.13454">
        <ele>6.005666</ele>
        <time>2022-08-06T10:04:56.000Z</time>
      </trkpt>
      <trkpt lat="49.25273" lon="-0.13455">
        <ele>5.999212</ele>
        <time>2022-08-06T10:04:57.000Z</time>
      </trkpt>
      <trkpt lat="49.25268" lon="-0.13455">
        <ele>5.992358</ele>
        <time>2022-08-06T10:04:58.000Z</time>
      </trkpt>
      <trkpt lat="49.25264" lon="-0.13454">
        <ele>5.986294</ele>
        <time>2022-08-06T10:04:59.000Z</time>
      </trkpt>
      <trkpt lat="49.25259" lon="-0.13454">
        <ele>5.979838</ele>
        <time>2022-08-06T10:05:00.000Z</time>
      </trkpt>
      <trkpt lat="49.25254" lon="-0.13453">
        <ele>5.973377</ele>
        <time>2022-08-06T10:05:01.000Z</time>
      </trkpt>
      <trkpt lat="49.2525" lon="-0.13453">
        <ele>5.967323</ele>
        <time>2022-08-06T10:05:02.000Z</time>
      </trkpt>
      <trkpt lat="49.25245" lon="-0.13453">
        <ele>5.960867</ele>
        <time>2022-08-06T10:05:03.000Z</time>
      </trkpt>
      <trkpt lat="49.2524" lon="-0.13453">
        <ele>5.954816</ele>
        <time>2022-08-06T10:05:04.000Z</time>
      </trkpt>
      <trkpt lat="49.25236" lon="-0.13452">
        <ele>5.948766</ele>
        <time>2022-08-06T10:05:05.000Z</time>
      </trkpt>
      <trkpt lat="49.25231" lon="-0.13452">
        <ele>5.942309</ele>
        <time>2022-08-06T10:05:06.000Z</time>
      </trkpt>
      <trkpt lat="49.25226" lon="-0.13452">
        <ele>5.935853</ele>
        <time>2022-08-06T10:05:07.000Z</time>
      </trkpt>
      <trkpt lat="49.25222" lon="-0.13451">
        <ele>5.929923</ele>
        <time>2022-08-06T10:05:08.000Z</time>
      </trkpt>
      <trkpt lat="49.25217" lon="-0.13451">
        <ele>5.922932</ele>
        <time>2022-08-06T10:05:09.000Z</time>
      </trkpt>
      <trkpt lat="49.25212" lon="-0.13451">
        <ele>5.916481</ele>
        <time>2022-08-06T10:05:10.000Z</time>
      </trkpt>
      <trkpt lat="49.25207" lon="-0.13451">
        <ele>5.910024</ele>
        <time>2022-08-06T10:05:11.000Z</time>
      </trkpt>
      <trkpt lat="49.25202" lon="-0.1345">
        <ele>5.903544</ele>
        <time>2022-08-06T10:05:12.000Z</time>
      </trkpt>
      <trkpt lat="49.25197" lon="-0.13449">
        <ele>5.896633</ele>
        <time>2022-08-06T10:05:13.000Z</time>
      </trkpt>
      <trkpt lat="49.25192" lon="-0.13448">
        <ele>5.890144</ele>
        <time>2022-08-06T10:05:14.000Z</time>
      </trkpt>
      <trkpt lat="49.25188" lon="-0.13447">
        <ele>5.883973</ele>
        <time>2022-08-06T10:05:15.000Z</time>
      </trkpt>
      <trkpt lat="49.25183" lon="-0.13446">
        <ele>5.877422</ele>
        <time>2022-08-06T10:05:16.000Z</time>
      </trkpt>
      <trkpt lat="49.25178" lon="-0.13444">
        <ele>5.8708</ele>
        <time>2022-08-06T10:05:17.000Z</time>
      </trkpt>
      <trkpt lat="49.25174" lon="-0.13442">
        <ele>5.86499</ele>
        <time>2022-08-06T10:05:18.000Z</time>
      </trkpt>
      <trkpt lat="49.25169" lon="-0.13439">
        <ele>5.858204</ele>
        <time>2022-08-06T10:05:19.000Z</time>
      </trkpt>
      <trkpt lat="49.25165" lon="-0.13437">
        <ele>5.851907</ele>
        <time>2022-08-06T10:05:20.000Z</time>
      </trkpt>
      <trkpt lat="49.2516" lon="-0.13435">
        <ele>5.845531</ele>
        <time>2022-08-06T10:05:21.000Z</time>
      </trkpt>
      <trkpt lat="49.25155" lon="-0.13433">
        <ele>5.838386</ele>
        <time>2022-08-06T10:05:22.000Z</time>
      </trkpt>
      <trkpt lat="49.25151" lon="-0.1343">
        <ele>5.831891</ele>
        <time>2022-08-06T10:05:23.000Z</time>
      </trkpt>
      <trkpt lat="49.25146" lon="-0.13428">
        <ele>5.825646</ele>
        <time>2022-08-06T10:05:24.000Z</time>
      </trkpt>
      <trkpt lat="49.25141" lon="-0.13425">
        <ele>5.823597</ele>
        <time>2022-08-06T10:05:25.000Z</time>
      </trkpt>
      <trkpt lat="49.25137" lon="-0.13423">
        <ele>5.82171</ele>
        <time>2022-08-06T10:05:26.000Z</time>
      </trkpt>
      <trkpt lat="49.25132" lon="-0.13421">
        <ele>5.819543</ele>
        <time>2022-08-06T10:05:27.000Z</time>
      </trkpt>
      <trkpt lat="49.25128" lon="-0.13419">
        <ele>5.817819</ele>
        <time>2022-08-06T10:05:28.000Z</time>
      </trkpt>
      <trkpt lat="49.25123" lon="-0.13417">
        <ele>5.815946</ele>
        <time>2022-08-06T10:05:29.000Z</time>
      </trkpt>
      <trkpt lat="49.25119" lon="-0.13416">
        <ele>5.814197</ele>
        <time>2022-08-06T10:05:30.000Z</time>
      </trkpt>
      <trkpt lat="49.25115" lon="-0.13415">
        <ele>5.812523</ele>
        <time>2022-08-06T10:05:31.000Z</time>
      </trkpt>
      <trkpt lat="49.2511" lon="-0.13415">
        <ele>5.810701</ele>
        <time>2022-08-06T10:05:32.000Z</time>
      </trkpt>
      <trkpt lat="49.25106" lon="-0.13418">
        <ele>5.808738</ele>
        <time>2022-08-06T10:05:33.000Z</time>
      </trkpt>
      <trkpt lat="49.25103" lon="-0.13423">
        <ele>5.807013</ele>
        <time>2022-08-06T10:05:34.000Z</time>
      </trkpt>
      <trkpt lat="49.25102" lon="-0.13429">
        <ele>5.805256</ele>
        <time>2022-08-06T10:05:35.000Z</time>
      </trkpt>
      <trkpt lat="49.25101" lon="-0.13436">
        <ele>5.803455</ele>
        <time>2022-08-06T10:05:36.000Z</time>
      </trkpt>
      <trkpt lat="49.25102" lon="-0.13443">
        <ele>5.80168</ele>
        <time>2022-08-06T10:05:37.000Z</time>
      </trkpt>
      <trkpt lat="49.25103" lon="-0.13449">
        <ele>5.80003</ele>
        <time>2022-08-06T10:05:38.000Z</time>
      </trkpt>
      <trkpt lat="49.25104" lon="-0.13455">
        <ele>5.798397</ele>
        <time>2022-08-06T10:05:39.000Z</time>
      </trkpt>
      <trkpt lat="49.25105" lon="-0.13461">
        <ele>5.796798</ele>
        <time>2022-08-06T10:05:40.000Z</time>
      </trkpt>
      <trkpt lat="49.25105" lon="-0.13466">
        <ele>5.795312</ele>
        <time>2022-08-06T10:05:41.000Z</time>
      </trkpt>
      <trkpt lat="49.25106" lon="-0.13472">
        <ele>5.793789</ele>
        <time>2022-08-06T10:05:42.000Z</time>
      </trkpt>
      <trkpt lat="49.25106" lon="-0.13478">
        <ele>5.792206</ele>
        <time>2022-08-06T10:05:43.000Z</time>
      </trkpt>
      <trkpt lat="49.25105" lon="-0.13484">
        <ele>5.790671</ele>
        <time>2022-08-06T10:05:44.000Z</time>
      </trkpt>
      <trkpt lat="49.25105" lon="-0.1349">
        <ele>5.789141</ele>
        <time>2022-08-06T10:05:45.000Z</time>
      </trkpt>
      <trkpt lat="49.25103" lon="-0.13495">
        <ele>5.787504</ele>
        <time>2022-08-06T10:05:46.000Z</time>
      </trkpt>
      <trkpt lat="49.25101" lon="-0.135">
        <ele>5.785978</ele>
        <time>2022-08-06T10:05:47.000Z</time>
      </trkpt>
      <trkpt lat="49.25099" lon="-0.13505">
        <ele>5.784497</ele>
        <time>2022-08-06T10:05:48.000Z</time>
      </trkpt>
      <trkpt lat="49.25096" lon="-0.13509">
        <ele>5.782777</ele>
        <time>2022-08-06T10:05:49.000Z</time>
      </trkpt>
      <trkpt lat="49.25092" lon="-0.13514">
        <ele>5.780883</ele>
        <time>2022-08-06T10:05:50.000Z</time>
      </trkpt>
      <trkpt lat="49.25089" lon="-0.13517">
        <ele>5.779263</ele>
        <time>2022-08-06T10:05:51.000Z</time>
      </trkpt>
      <trkpt lat="49.25085" lon="-0.13521">
        <ele>5.777264</ele>
        <time>2022-08-06T10:05:52.000Z</time>
      </trkpt>
      <trkpt lat="49.2508" lon="-0.13524">
        <ele>5.775188</ele>
        <time>2022-08-06T10:05:53.000Z</time>
      </trkpt>
      <trkpt lat="49.25076" lon="-0.13526">
        <ele>5.773386</ele>
        <time>2022-08-06T10:05:54.000Z</time>
      </trkpt>
      <trkpt lat="49.25072" lon="-0.13529">
        <ele>5.771612</ele>
        <time>2022-08-06T10:05:55.000Z</time>
      </trkpt>
      <trkpt lat="49.25068" lon="-0.1353">
        <ele>5.76988</ele>
        <time>2022-08-06T10:05:56.000Z</time>
      </trkpt>
      <trkpt lat="49.25063" lon="-0.13531">
        <ele>5.768213</ele>
        <time>2022-08-06T10:05:57.000Z</time>
      </trkpt>
      <trkpt lat="49.25059" lon="-0.13531">
        <ele>5.766394</ele>
        <time>2022-08-06T10:05:58.000Z</time>
      </trkpt>
      <trkpt lat="49.25054" lon="-0.13529">
        <ele>5.764428</ele>
        <time>2022-08-06T10:05:59.000Z</time>
      </trkpt>
      <trkpt lat="49.2505" lon="-0.13527">
        <ele>5.762534</ele>
        <time>2022-08-06T10:06:00.000Z</time>
      </trkpt>
      <trkpt lat="49.25045" lon="-0.13525">
        <ele>5.760749</ele>
        <time>2022-08-06T10:06:01.000Z</time>
      </trkpt>
      <trkpt lat="49.25041" lon="-0.13523">
        <ele>5.758975</ele>
        <time>2022-08-06T10:06:02.000Z</time>
      </trkpt>
      <trkpt lat="49.25037" lon="-0.13521">
        <ele>5.757197</ele>
        <time>2022-08-06T10:06:03.000Z</time>
      </trkpt>
      <trkpt lat="49.25033" lon="-0.13519">
        <ele>5.755458</ele>
        <time>2022-08-06T10:06:04.000Z</time>
      </trkpt>
      <trkpt lat="49.25028" lon="-0.13517">
        <ele>5.753479</ele>
        <time>2022-08-06T10:06:05.000Z</time>
      </trkpt>
      <trkpt lat="49.25024" lon="-0.13516">
        <ele>5.750275</ele>
        <time>2022-08-06T10:06:06.000Z</time>
      </trkpt>
      <trkpt lat="49.2502" lon="-0.13515">
        <ele>5.746891</ele>
        <time>2022-08-06T10:06:07.000Z</time>
      </trkpt>
      <trkpt lat="49.25014" lon="-0.13515">
        <ele>5.742805</ele>
        <time>2022-08-06T10:06:08.000Z</time>
      </trkpt>
      <trkpt lat="49.2501" lon="-0.13514">
        <ele>5.739427</ele>
        <time>2022-08-06T10:06:09.000Z</time>
      </trkpt>
      <trkpt lat="49.25006" lon="-0.13513">
        <ele>5.735884</ele>
        <time>2022-08-06T10:06:10.000Z</time>
      </trkpt>
      <trkpt lat="49.25001" lon="-0.13512">
        <ele>5.732248</ele>
        <time>2022-08-06T10:06:11.000Z</time>
      </trkpt>
      <trkpt lat="49.24997" lon="-0.13511">
        <ele>5.728331</ele>
        <time>2022-08-06T10:06:12.000Z</time>
      </trkpt>
      <trkpt lat="49.24992" lon="-0.13508">
        <ele>5.724747</ele>
        <time>2022-08-06T10:06:13.000Z</time>
      </trkpt>
      <trkpt lat="49.24988" lon="-0.13506">
        <ele>5.72129</ele>
        <time>2022-08-06T10:06:14.000Z</time>
      </trkpt>
      <trkpt lat="49.24984" lon="-0.13504">
        <ele>5.717463</ele>
        <time>2022-08-06T10:06:15.000Z</time>
      </trkpt>
      <trkpt lat="49.24979" lon="-0.13502">
        <ele>5.713457</ele>
        <time>2022-08-06T10:06:16.000Z</time>
      </trkpt>
      <trkpt lat="49.24974" lon="-0.135">
        <ele>5.709751</ele>
        <time>2022-08-06T10:06:17.000Z</time>
      </trkpt>
      <trkpt lat="49.2497" lon="-0.13499">
        <ele>5.705904</ele>
        <time>2022-08-06T10:06:18.000Z</time>
      </trkpt>
      <trkpt lat="49.24965" lon="-0.135">
        <ele>5.702526</ele>
        <time>2022-08-06T10:06:19.000Z</time>
      </trkpt>
      <trkpt lat="49.24961" lon="-0.13502">
        <ele>5.698884</ele>
        <time>2022-08-06T10:06:20.000Z</time>
      </trkpt>
      <trkpt lat="49.24957" lon="-0.13505">
        <ele>5.695296</ele>
        <time>2022-08-06T10:06:21.000Z</time>
      </trkpt>
      <trkpt lat="49.24954" lon="-0.1351">
        <ele>5.691643</ele>
        <time>2022-08-06T10:06:22.000Z</time>
      </trkpt>
      <trkpt lat="49.24951" lon="-0.13515">
        <ele>5.687953</ele>
        <time>2022-08-06T10:06:23.000Z</time>
      </trkpt>
      <trkpt lat="49.24949" lon="-0.13522">
        <ele>5.684235</ele>
        <time>2022-08-06T10:06:24.000Z</time>
      </trkpt>
      <trkpt lat="49.24948" lon="-0.13529">
        <ele>5.680597</ele>
        <time>2022-08-06T10:06:25.000Z</time>
      </trkpt>
      <trkpt lat="49.24947" lon="-0.13536">
        <ele>5.676771</ele>
        <time>2022-08-06T10:06:26.000Z</time>
      </trkpt>
      <trkpt lat="49.24947" lon="-0.13543">
        <ele>5.672857</ele>
        <time>2022-08-06T10:06:27.000Z</time>
      </trkpt>
      <trkpt lat="49.24947" lon="-0.13551">
        <ele>5.668942</ele>
        <time>2022-08-06T10:06:28.000Z</time>
      </trkpt>
      <trkpt lat="49.24946" lon="-0.13559">
        <ele>5.664833</ele>
        <time>2022-08-06T10:06:29.000Z</time>
      </trkpt>
      <trkpt lat="49.24945" lon="-0.13566">
        <ele>5.660903</ele>
        <time>2022-08-06T10:06:30.000Z</time>
      </trkpt>
      <trkpt lat="49.24943" lon="-0.13573">
        <ele>5.656723</ele>
        <time>2022-08-06T10:06:31.000Z</time>
      </trkpt>
      <trkpt lat="49.2494" lon="-0.1358">
        <ele>5.652615</ele>
        <time>2022-08-06T10:06:32.000Z</time>
      </trkpt>
      <trkpt lat="49.24937" lon="-0.13586">
        <ele>5.648399</ele>
        <time>2022-08-06T10:06:33.000Z</time>
      </trkpt>
      <trkpt lat="49.24933" lon="-0.13591">
        <ele>5.644394</ele>
        <time>2022-08-06T10:06:34.000Z</time>
      </trkpt>
      <trkpt lat="49.24929" lon="-0.13595">
        <ele>5.640522</ele>
        <time>2022-08-06T10:06:35.000Z</time>
      </trkpt>
      <trkpt lat="49.24925" lon="-0.13599">
        <ele>5.636438</ele>
        <time>2022-08-06T10:06:36.000Z</time>
      </trkpt>
      <trkpt lat="49.24919" lon="-0.13601">
        <ele>5.632187</ele>
        <time>2022-08-06T10:06:37.000Z</time>
      </trkpt>
      <trkpt lat="49.24914" lon="-0.13602">
        <ele>5.627997</ele>
        <time>2022-08-06T10:06:38.000Z</time>
      </trkpt>
      <trkpt lat="49.24909" lon="-0.13603">
        <ele>5.623678</ele>
        <time>2022-08-06T10:06:39.000Z</time>
      </trkpt>
      <trkpt lat="49.24903" lon="-0.13602">
        <ele>5.619329</ele>
        <time>2022-08-06T10:06:40.000Z</time>
      </trkpt>
      <trkpt lat="49.24899" lon="-0.136">
        <ele>5.61561</ele>
        <time>2022-08-06T10:06:41.000Z</time>
      </trkpt>
      <trkpt lat="49.24894" lon="-0.13597">
        <ele>5.611556</ele>
        <time>2022-08-06T10:06:42.000Z</time>
      </trkpt>
      <trkpt lat="49.24889" lon="-0.13594">
        <ele>5.609762</ele>
        <time>2022-08-06T10:06:43.000Z</time>
      </trkpt>
      <trkpt lat="49.24885" lon="-0.1359">
        <ele>5.611026</ele>
        <time>2022-08-06T10:06:44.000Z</time>
      </trkpt>
      <trkpt lat="49.24881" lon="-0.13585">
        <ele>5.612228</ele>
        <time>2022-08-06T10:06:45.000Z</time>
      </trkpt>
      <trkpt lat="49.24877" lon="-0.13579">
        <ele>5.613499</ele>
        <time>2022-08-06T10:06:46.000Z</time>
      </trkpt>
      <trkpt lat="49.24874" lon="-0.13574">
        <ele>5.614702</ele>
        <time>2022-08-06T10:06:47.000Z</time>
      </trkpt>
      <trkpt lat="49.24871" lon="-0.13568">
        <ele>5.615834</ele>
        <time>2022-08-06T10:06:48.000Z</time>
      </trkpt>
      <trkpt lat="49.24867" lon="-0.13562">
        <ele>5.617071</ele>
        <time>2022-08-06T10:06:49.000Z</time>
      </trkpt>
      <trkpt lat="49.24864" lon="-0.13556">
        <ele>5.61824</ele>
        <time>2022-08-06T10:06:50.000Z</time>
      </trkpt>
      <trkpt lat="49.24861" lon="-0.1355">
        <ele>5.619429</ele>
        <time>2022-08-06T10:06:51.000Z</time>
      </trkpt>
      <trkpt lat="49.24858" lon="-0.13544">
        <ele>5.620678</ele>
        <time>2022-08-06T10:06:52.000Z</time>
      </trkpt>
      <trkpt lat="49.24855" lon="-0.13538">
        <ele>5.621847</ele>
        <time>2022-08-06T10:06:53.000Z</time>
      </trkpt>
      <trkpt lat="49.24851" lon="-0.13533">
        <ele>5.623061</ele>
        <time>2022-08-06T10:06:54.000Z</time>
      </trkpt>
      <trkpt lat="49.24848" lon="-0.13527">
        <ele>5.624217</ele>
        <time>2022-08-06T10:06:55.000Z</time>
      </trkpt>
      <trkpt lat="49.24845" lon="-0.13521">
        <ele>5.625399</ele>
        <time>2022-08-06T10:06:56.000Z</time>
      </trkpt>
      <trkpt lat="49.24843" lon="-0.13515">
        <ele>5.626554</ele>
        <time>2022-08-06T10:06:57.000Z</time>
      </trkpt>
      <trkpt lat="49.24839" lon="-0.13509">
        <ele>5.62783</ele>
        <time>2022-08-06T10:06:58.000Z</time>
      </trkpt>
      <trkpt lat="49.24837" lon="-0.13503">
        <ele>5.628945</ele>
        <time>2022-08-06T10:06:59.000Z</time>
      </trkpt>
      <trkpt lat="49.24834" lon="-0.13497">
        <ele>5.630114</ele>
        <time>2022-08-06T10:07:00.000Z</time>
      </trkpt>
      <trkpt lat="49.24831" lon="-0.13491">
        <ele>5.631178</ele>
        <time>2022-08-06T10:07:01.000Z</time>
      </trkpt>
      <trkpt lat="49.24829" lon="-0.13486">
        <ele>5.632189</ele>
        <time>2022-08-06T10:07:02.000Z</time>
      </trkpt>
      <trkpt lat="49.24826" lon="-0.13482">
        <ele>5.633051</ele>
        <time>2022-08-06T10:07:03.000Z</time>
      </trkpt>
      <trkpt lat="49.24821" lon="-0.13473">
        <ele>5.635024</ele>
        <time>2022-08-06T10:07:39.000Z</time>
      </trkpt>
      <trkpt lat="49.24819" lon="-0.1347">
        <ele>5.635678</ele>
        <time>2022-08-06T10:07:40.000Z</time>
      </trkpt>
      <trkpt lat="49.24816" lon="-0.13466">
        <ele>5.636564</ele>
        <time>2022-08-06T10:07:41.000Z</time>
      </trkpt>
      <trkpt lat="49.24813" lon="-0.13462">
        <ele>5.6375</ele>
        <time>2022-08-06T10:07:42.000Z</time>
      </trkpt>
      <trkpt lat="49.2481" lon="-0.13458">
        <ele>5.638479</ele>
        <time>2022-08-06T10:07:43.000Z</time>
      </trkpt>
      <trkpt lat="49.24807" lon="-0.13453">
        <ele>5.639481</ele>
        <time>2022-08-06T10:07:44.000Z</time>
      </trkpt>
      <trkpt lat="49.24804" lon="-0.13448">
        <ele>5.640573</ele>
        <time>2022-08-06T10:07:45.000Z</time>
      </trkpt>
      <trkpt lat="49.24801" lon="-0.13442">
        <ele>5.641705</ele>
        <time>2022-08-06T10:07:46.000Z</time>
      </trkpt>
      <trkpt lat="49.24799" lon="-0.13436">
        <ele>5.642794</ele>
        <time>2022-08-06T10:07:47.000Z</time>
      </trkpt>
      <trkpt lat="49.24796" lon="-0.13431">
        <ele>5.643983</ele>
        <time>2022-08-06T10:07:48.000Z</time>
      </trkpt>
      <trkpt lat="49.24793" lon="-0.13425">
        <ele>5.64509</ele>
        <time>2022-08-06T10:07:49.000Z</time>
      </trkpt>
      <trkpt lat="49.24789" lon="-0.13419">
        <ele>5.646374</ele>
        <time>2022-08-06T10:07:50.000Z</time>
      </trkpt>
      <trkpt lat="49.24786" lon="-0.13413">
        <ele>5.647669</ele>
        <time>2022-08-06T10:07:51.000Z</time>
      </trkpt>
      <trkpt lat="49.24783" lon="-0.13406">
        <ele>5.648941</ele>
        <time>2022-08-06T10:07:52.000Z</time>
      </trkpt>
      <trkpt lat="49.2478" lon="-0.13399">
        <ele>5.650267</ele>
        <time>2022-08-06T10:07:53.000Z</time>
      </trkpt>
      <trkpt lat="49.24776" lon="-0.13392">
        <ele>5.651645</ele>
        <time>2022-08-06T10:07:54.000Z</time>
      </trkpt>
      <trkpt lat="49.24772" lon="-0.13386">
        <ele>5.649041</ele>
        <time>2022-08-06T10:07:55.000Z</time>
      </trkpt>
      <trkpt lat="49.24769" lon="-0.13379">
        <ele>5.64251</ele>
        <time>2022-08-06T10:07:56.000Z</time>
      </trkpt>
      <trkpt lat="49.24765" lon="-0.13373">
        <ele>5.635672</ele>
        <time>2022-08-06T10:07:57.000Z</time>
      </trkpt>
      <trkpt lat="49.24762" lon="-0.13366">
        <ele>5.628913</ele>
        <time>2022-08-06T10:07:58.000Z</time>
      </trkpt>
      <trkpt lat="49.24758" lon="-0.1336">
        <ele>5.622154</ele>
        <time>2022-08-06T10:07:59.000Z</time>
      </trkpt>
      <trkpt lat="49.24755" lon="-0.13353">
        <ele>5.615624</ele>
        <time>2022-08-06T10:08:00.000Z</time>
      </trkpt>
      <trkpt lat="49.24752" lon="-0.13347">
        <ele>5.608865</ele>
        <time>2022-08-06T10:08:01.000Z</time>
      </trkpt>
      <trkpt lat="49.24748" lon="-0.1334">
        <ele>5.601664</ele>
        <time>2022-08-06T10:08:02.000Z</time>
      </trkpt>
      <trkpt lat="49.24744" lon="-0.13333">
        <ele>5.594665</ele>
        <time>2022-08-06T10:08:03.000Z</time>
      </trkpt>
      <trkpt lat="49.24741" lon="-0.13327">
        <ele>5.587719</ele>
        <time>2022-08-06T10:08:04.000Z</time>
      </trkpt>
      <trkpt lat="49.24737" lon="-0.1332">
        <ele>5.580458</ele>
        <time>2022-08-06T10:08:05.000Z</time>
      </trkpt>
      <trkpt lat="49.24733" lon="-0.13313">
        <ele>5.573668</ele>
        <time>2022-08-06T10:08:06.000Z</time>
      </trkpt>
      <trkpt lat="49.2473" lon="-0.13306">
        <ele>5.566909</ele>
        <time>2022-08-06T10:08:07.000Z</time>
      </trkpt>
      <trkpt lat="49.24726" lon="-0.133">
        <ele>5.560273</ele>
        <time>2022-08-06T10:08:08.000Z</time>
      </trkpt>
      <trkpt lat="49.24723" lon="-0.13294">
        <ele>5.553743</ele>
        <time>2022-08-06T10:08:09.000Z</time>
      </trkpt>
      <trkpt lat="49.24719" lon="-0.13287">
        <ele>5.546743</ele>
        <time>2022-08-06T10:08:10.000Z</time>
      </trkpt>
      <trkpt lat="49.24716" lon="-0.1328">
        <ele>5.539595</ele>
        <time>2022-08-06T10:08:11.000Z</time>
      </trkpt>
      <trkpt lat="49.24712" lon="-0.13273">
        <ele>5.532712</ele>
        <time>2022-08-06T10:08:12.000Z</time>
      </trkpt>
      <trkpt lat="49.24709" lon="-0.13267">
        <ele>5.525891</ele>
        <time>2022-08-06T10:08:13.000Z</time>
      </trkpt>
      <trkpt lat="49.24705" lon="-0.1326">
        <ele>5.519007</ele>
        <time>2022-08-06T10:08:14.000Z</time>
      </trkpt>
      <trkpt lat="49.24701" lon="-0.13253">
        <ele>5.511296</ele>
        <time>2022-08-06T10:08:15.000Z</time>
      </trkpt>
      <trkpt lat="49.24697" lon="-0.13247">
        <ele>5.504116</ele>
        <time>2022-08-06T10:08:16.000Z</time>
      </trkpt>
      <trkpt lat="49.24693" lon="-0.1324">
        <ele>5.497092</ele>
        <time>2022-08-06T10:08:17.000Z</time>
      </trkpt>
      <trkpt lat="49.2469" lon="-0.13233">
        <ele>5.489789</ele>
        <time>2022-08-06T10:08:18.000Z</time>
      </trkpt>
      <trkpt lat="49.24686" lon="-0.13226">
        <ele>5.482362</ele>
        <time>2022-08-06T10:08:19.000Z</time>
      </trkpt>
      <trkpt lat="49.24682" lon="-0.13218">
        <ele>5.474857</ele>
        <time>2022-08-06T10:08:20.000Z</time>
      </trkpt>
      <trkpt lat="49.24678" lon="-0.13211">
        <ele>5.467554</ele>
        <time>2022-08-06T10:08:21.000Z</time>
      </trkpt>
      <trkpt lat="49.24674" lon="-0.13205">
        <ele>5.460161</ele>
        <time>2022-08-06T10:08:22.000Z</time>
      </trkpt>
      <trkpt lat="49.2467" lon="-0.13199">
        <ele>5.453081</ele>
        <time>2022-08-06T10:08:23.000Z</time>
      </trkpt>
      <trkpt lat="49.24665" lon="-0.13193">
        <ele>5.445569</ele>
        <time>2022-08-06T10:08:24.000Z</time>
      </trkpt>
      <trkpt lat="49.2466" lon="-0.13188">
        <ele>5.438654</ele>
        <time>2022-08-06T10:08:25.000Z</time>
      </trkpt>
      <trkpt lat="49.24655" lon="-0.13185">
        <ele>5.431506</ele>
        <time>2022-08-06T10:08:26.000Z</time>
      </trkpt>
      <trkpt lat="49.24649" lon="-0.13185">
        <ele>5.434578</ele>
        <time>2022-08-06T10:08:27.000Z</time>
      </trkpt>
      <trkpt lat="49.24643" lon="-0.13187">
        <ele>5.438035</ele>
        <time>2022-08-06T10:08:28.000Z</time>
      </trkpt>
      <trkpt lat="49.24637" lon="-0.13189">
        <ele>5.441866</ele>
        <time>2022-08-06T10:08:29.000Z</time>
      </trkpt>
      <trkpt lat="49.24631" lon="-0.13193">
        <ele>5.445361</ele>
        <time>2022-08-06T10:08:30.000Z</time>
      </trkpt>
      <trkpt lat="49.24626" lon="-0.13198">
        <ele>5.448976</ele>
        <time>2022-08-06T10:08:31.000Z</time>
      </trkpt>
      <trkpt lat="49.24621" lon="-0.13203">
        <ele>5.452772</ele>
        <time>2022-08-06T10:08:32.000Z</time>
      </trkpt>
      <trkpt lat="49.24617" lon="-0.13209">
        <ele>5.456057</ele>
        <time>2022-08-06T10:08:33.000Z</time>
      </trkpt>
      <trkpt lat="49.24612" lon="-0.13214">
        <ele>5.459334</ele>
        <time>2022-08-06T10:08:34.000Z</time>
      </trkpt>
      <trkpt lat="49.24607" lon="-0.13219">
        <ele>5.462908</ele>
        <time>2022-08-06T10:08:35.000Z</time>
      </trkpt>
      <trkpt lat="49.24603" lon="-0.13224">
        <ele>5.46607</ele>
        <time>2022-08-06T10:08:36.000Z</time>
      </trkpt>
      <trkpt lat="49.24597" lon="-0.13229">
        <ele>5.469605</ele>
        <time>2022-08-06T10:08:37.000Z</time>
      </trkpt>
      <trkpt lat="49.24593" lon="-0.13233">
        <ele>5.4726</ele>
        <time>2022-08-06T10:08:38.000Z</time>
      </trkpt>
      <trkpt lat="49.24588" lon="-0.13236">
        <ele>5.47565</ele>
        <time>2022-08-06T10:08:39.000Z</time>
      </trkpt>
      <trkpt lat="49.24583" lon="-0.13238">
        <ele>5.479008</ele>
        <time>2022-08-06T10:08:40.000Z</time>
      </trkpt>
      <trkpt lat="49.24578" lon="-0.13241">
        <ele>5.48211</ele>
        <time>2022-08-06T10:08:41.000Z</time>
      </trkpt>
      <trkpt lat="49.24573" lon="-0.13242">
        <ele>5.485166</ele>
        <time>2022-08-06T10:08:42.000Z</time>
      </trkpt>
      <trkpt lat="49.24567" lon="-0.13244">
        <ele>5.488436</ele>
        <time>2022-08-06T10:08:43.000Z</time>
      </trkpt>
      <trkpt lat="49.24562" lon="-0.13245">
        <ele>5.491636</ele>
        <time>2022-08-06T10:08:44.000Z</time>
      </trkpt>
      <trkpt lat="49.24557" lon="-0.13247">
        <ele>5.494676</ele>
        <time>2022-08-06T10:08:45.000Z</time>
      </trkpt>
      <trkpt lat="49.24551" lon="-0.13248">
        <ele>5.497934</ele>
        <time>2022-08-06T10:08:46.000Z</time>
      </trkpt>
      <trkpt lat="49.24546" lon="-0.13249">
        <ele>5.500955</ele>
        <time>2022-08-06T10:08:47.000Z</time>
      </trkpt>
      <trkpt lat="49.24541" lon="-0.1325">
        <ele>5.503778</ele>
        <time>2022-08-06T10:08:48.000Z</time>
      </trkpt>
      <trkpt lat="49.24536" lon="-0.1325">
        <ele>5.506947</ele>
        <time>2022-08-06T10:08:49.000Z</time>
      </trkpt>
      <trkpt lat="49.24531" lon="-0.13251">
        <ele>5.509953</ele>
        <time>2022-08-06T10:08:50.000Z</time>
      </trkpt>
      <trkpt lat="49.24525" lon="-0.13252">
        <ele>5.513187</ele>
        <time>2022-08-06T10:08:51.000Z</time>
      </trkpt>
      <trkpt lat="49.2452" lon="-0.13253">
        <ele>5.516354</ele>
        <time>2022-08-06T10:08:52.000Z</time>
      </trkpt>
      <trkpt lat="49.24514" lon="-0.13253">
        <ele>5.519576</ele>
        <time>2022-08-06T10:08:53.000Z</time>
      </trkpt>
      <trkpt lat="49.24509" lon="-0.13253">
        <ele>5.522566</ele>
        <time>2022-08-06T10:08:54.000Z</time>
      </trkpt>
      <trkpt lat="49.24504" lon="-0.13254">
        <ele>5.525567</ele>
        <time>2022-08-06T10:08:55.000Z</time>
      </trkpt>
      <trkpt lat="49.24499" lon="-0.13255">
        <ele>5.52839</ele>
        <time>2022-08-06T10:08:56.000Z</time>
      </trkpt>
      <trkpt lat="49.24494" lon="-0.13255">
        <ele>5.531553</ele>
        <time>2022-08-06T10:08:57.000Z</time>
      </trkpt>
      <trkpt lat="49.24488" lon="-0.13256">
        <ele>5.534778</ele>
        <time>2022-08-06T10:08:58.000Z</time>
      </trkpt>
      <trkpt lat="49.24484" lon="-0.13257">
        <ele>5.541326</ele>
        <time>2022-08-06T10:08:59.000Z</time>
      </trkpt>
      <trkpt lat="49.24478" lon="-0.13258">
        <ele>5.555506</ele>
        <time>2022-08-06T10:09:00.000Z</time>
      </trkpt>
      <trkpt lat="49.24474" lon="-0.1326">
        <ele>5.568137</ele>
        <time>2022-08-06T10:09:01.000Z</time>
      </trkpt>
      <trkpt lat="49.24469" lon="-0.13261">
        <ele>5.580893</ele>
        <time>2022-08-06T10:09:02.000Z</time>
      </trkpt>
      <trkpt lat="49.24465" lon="-0.13264">
        <ele>5.592931</ele>
        <time>2022-08-06T10:09:03.000Z</time>
      </trkpt>
      <trkpt lat="49.24461" lon="-0.13266">
        <ele>5.606895</ele>
        <time>2022-08-06T10:09:04.000Z</time>
      </trkpt>
      <trkpt lat="49.24456" lon="-0.13269">
        <ele>5.619253</ele>
        <time>2022-08-06T10:09:05.000Z</time>
      </trkpt>
      <trkpt lat="49.24453" lon="-0.13272">
        <ele>5.630978</ele>
        <time>2022-08-06T10:09:06.000Z</time>
      </trkpt>
      <trkpt lat="49.24449" lon="-0.13275">
        <ele>5.643112</ele>
        <time>2022-08-06T10:09:07.000Z</time>
      </trkpt>
      <trkpt lat="49.24445" lon="-0.13279">
        <ele>5.655986</ele>
        <time>2022-08-06T10:09:08.000Z</time>
      </trkpt>
      <trkpt lat="49.24441" lon="-0.13283">
        <ele>5.668859</ele>
        <time>2022-08-06T10:09:09.000Z</time>
      </trkpt>
      <trkpt lat="49.24437" lon="-0.13287">
        <ele>5.680773</ele>
        <time>2022-08-06T10:09:10.000Z</time>
      </trkpt>
      <trkpt lat="49.24434" lon="-0.13292">
        <ele>5.69331</ele>
        <time>2022-08-06T10:09:11.000Z</time>
      </trkpt>
      <trkpt lat="49.24431" lon="-0.13298">
        <ele>5.705798</ele>
        <time>2022-08-06T10:09:12.000Z</time>
      </trkpt>
      <trkpt lat="49.24429" lon="-0.13303">
        <ele>5.717668</ele>
        <time>2022-08-06T10:09:13.000Z</time>
      </trkpt>
      <trkpt lat="49.24427" lon="-0.13308">
        <ele>5.728317</ele>
        <time>2022-08-06T10:09:14.000Z</time>
      </trkpt>
      <trkpt lat="49.24425" lon="-0.13312">
        <ele>5.738064</ele>
        <time>2022-08-06T10:09:15.000Z</time>
      </trkpt>
      <trkpt lat="49.24423" lon="-0.13316">
        <ele>5.747067</ele>
        <time>2022-08-06T10:09:16.000Z</time>
      </trkpt>
      <trkpt lat="49.24421" lon="-0.1332">
        <ele>5.755217</ele>
        <time>2022-08-06T10:09:17.000Z</time>
      </trkpt>
      <trkpt lat="49.24419" lon="-0.13323">
        <ele>5.762701</ele>
        <time>2022-08-06T10:09:18.000Z</time>
      </trkpt>
      <trkpt lat="49.24418" lon="-0.13325">
        <ele>5.768014</ele>
        <time>2022-08-06T10:09:19.000Z</time>
      </trkpt>
      <trkpt lat="49.24416" lon="-0.13328">
        <ele>5.774543</ele>
        <time>2022-08-06T10:09:20.000Z</time>
      </trkpt>
      <trkpt lat="49.24415" lon="-0.1333">
        <ele>5.779725</ele>
        <time>2022-08-06T10:09:21.000Z</time>
      </trkpt>
      <trkpt lat="49.24413" lon="-0.13331">
        <ele>5.786259</ele>
        <time>2022-08-06T10:09:24.000Z</time>
      </trkpt>
      <trkpt lat="49.24404" lon="-0.13334">
        <ele>5.810757</ele>
        <time>2022-08-06T10:09:42.000Z</time>
      </trkpt>
      <trkpt lat="49.24402" lon="-0.13335">
        <ele>5.816212</ele>
        <time>2022-08-06T10:09:43.000Z</time>
      </trkpt>
      <trkpt lat="49.24399" lon="-0.13336">
        <ele>5.824184</ele>
        <time>2022-08-06T10:09:44.000Z</time>
      </trkpt>
      <trkpt lat="49.24397" lon="-0.13335">
        <ele>5.83105</ele>
        <time>2022-08-06T10:09:45.000Z</time>
      </trkpt>
      <trkpt lat="49.24394" lon="-0.13335">
        <ele>5.838183</ele>
        <time>2022-08-06T10:09:46.000Z</time>
      </trkpt>
      <trkpt lat="49.24391" lon="-0.13335">
        <ele>5.84696</ele>
        <time>2022-08-06T10:09:47.000Z</time>
      </trkpt>
      <trkpt lat="49.24388" lon="-0.13335">
        <ele>5.854915</ele>
        <time>2022-08-06T10:09:48.000Z</time>
      </trkpt>
      <trkpt lat="49.24384" lon="-0.13336">
        <ele>5.864522</ele>
        <time>2022-08-06T10:09:49.000Z</time>
      </trkpt>
      <trkpt lat="49.24381" lon="-0.13336">
        <ele>5.874128</ele>
        <time>2022-08-06T10:09:50.000Z</time>
      </trkpt>
      <trkpt lat="49.24377" lon="-0.13336">
        <ele>5.884551</ele>
        <time>2022-08-06T10:09:51.000Z</time>
      </trkpt>
      <trkpt lat="49.24373" lon="-0.13336">
        <ele>5.895254</ele>
        <time>2022-08-06T10:09:52.000Z</time>
      </trkpt>
      <trkpt lat="49.24369" lon="-0.13336">
        <ele>5.905682</ele>
        <time>2022-08-06T10:09:53.000Z</time>
      </trkpt>
      <trkpt lat="49.24366" lon="-0.13336">
        <ele>5.915288</ele>
        <time>2022-08-06T10:09:54.000Z</time>
      </trkpt>
      <trkpt lat="49.24361" lon="-0.13337">
        <ele>5.927663</ele>
        <time>2022-08-06T10:09:55.000Z</time>
      </trkpt>
      <trkpt lat="49.24358" lon="-0.13337">
        <ele>5.937304</ele>
        <time>2022-08-06T10:09:56.000Z</time>
      </trkpt>
      <trkpt lat="49.24353" lon="-0.13337">
        <ele>5.950474</ele>
        <time>2022-08-06T10:09:57.000Z</time>
      </trkpt>
      <trkpt lat="49.24349" lon="-0.13338">
        <ele>5.962005</ele>
        <time>2022-08-06T10:09:58.000Z</time>
      </trkpt>
      <trkpt lat="49.24344" lon="-0.13338">
        <ele>5.97443</ele>
        <time>2022-08-06T10:09:59.000Z</time>
      </trkpt>
      <trkpt lat="49.2434" lon="-0.1334">
        <ele>5.987769</ele>
        <time>2022-08-06T10:10:00.000Z</time>
      </trkpt>
      <trkpt lat="49.24335" lon="-0.13341">
        <ele>5.999253</ele>
        <time>2022-08-06T10:10:01.000Z</time>
      </trkpt>
      <trkpt lat="49.24331" lon="-0.13342">
        <ele>6.011847</ele>
        <time>2022-08-06T10:10:02.000Z</time>
      </trkpt>
      <trkpt lat="49.24327" lon="-0.13344">
        <ele>6.02391</ele>
        <time>2022-08-06T10:10:03.000Z</time>
      </trkpt>
      <trkpt lat="49.24323" lon="-0.13347">
        <ele>6.028293</ele>
        <time>2022-08-06T10:10:04.000Z</time>
      </trkpt>
      <trkpt lat="49.24318" lon="-0.1335">
        <ele>6.024758</ele>
        <time>2022-08-06T10:10:05.000Z</time>
      </trkpt>
      <trkpt lat="49.24315" lon="-0.13355">
        <ele>6.021379</ele>
        <time>2022-08-06T10:10:06.000Z</time>
      </trkpt>
      <trkpt lat="49.24312" lon="-0.1336">
        <ele>6.017894</ele>
        <time>2022-08-06T10:10:07.000Z</time>
      </trkpt>
      <trkpt lat="49.24309" lon="-0.13366">
        <ele>6.014336</ele>
        <time>2022-08-06T10:10:08.000Z</time>
      </trkpt>
      <trkpt lat="49.24307" lon="-0.13373">
        <ele>6.010802</ele>
        <time>2022-08-06T10:10:09.000Z</time>
      </trkpt>
      <trkpt lat="49.24305" lon="-0.13379">
        <ele>6.007317</ele>
        <time>2022-08-06T10:10:10.000Z</time>
      </trkpt>
      <trkpt lat="49.24302" lon="-0.13385">
        <ele>6.00391</ele>
        <time>2022-08-06T10:10:11.000Z</time>
      </trkpt>
      <trkpt lat="49.24299" lon="-0.13391">
        <ele>6.000318</ele>
        <time>2022-08-06T10:10:12.000Z</time>
      </trkpt>
      <trkpt lat="49.24296" lon="-0.13396">
        <ele>5.996779</ele>
        <time>2022-08-06T10:10:13.000Z</time>
      </trkpt>
      <trkpt lat="49.24292" lon="-0.13401">
        <ele>5.993109</ele>
        <time>2022-08-06T10:10:14.000Z</time>
      </trkpt>
      <trkpt lat="49.24288" lon="-0.13405">
        <ele>5.989791</ele>
        <time>2022-08-06T10:10:15.000Z</time>
      </trkpt>
      <trkpt lat="49.24284" lon="-0.13409">
        <ele>5.985844</ele>
        <time>2022-08-06T10:10:16.000Z</time>
      </trkpt>
      <trkpt lat="49.2428" lon="-0.13414">
        <ele>5.982433</ele>
        <time>2022-08-06T10:10:17.000Z</time>
      </trkpt>
      <trkpt lat="49.24277" lon="-0.13419">
        <ele>5.97876</ele>
        <time>2022-08-06T10:10:18.000Z</time>
      </trkpt>
      <trkpt lat="49.24274" lon="-0.13426">
        <ele>5.97483</ele>
        <time>2022-08-06T10:10:19.000Z</time>
      </trkpt>
      <trkpt lat="49.24272" lon="-0.13433">
        <ele>5.971259</ele>
        <time>2022-08-06T10:10:20.000Z</time>
      </trkpt>
      <trkpt lat="49.24271" lon="-0.1344">
        <ele>5.967601</ele>
        <time>2022-08-06T10:10:21.000Z</time>
      </trkpt>
      <trkpt lat="49.24271" lon="-0.13448">
        <ele>5.963981</ele>
        <time>2022-08-06T10:10:22.000Z</time>
      </trkpt>
      <trkpt lat="49.24271" lon="-0.13455">
        <ele>5.960444</ele>
        <time>2022-08-06T10:10:23.000Z</time>
      </trkpt>
      <trkpt lat="49.24272" lon="-0.13463">
        <ele>5.95672</ele>
        <time>2022-08-06T10:10:24.000Z</time>
      </trkpt>
      <trkpt lat="49.24272" lon="-0.1347">
        <ele>5.952948</ele>
        <time>2022-08-06T10:10:25.000Z</time>
      </trkpt>
      <trkpt lat="49.24272" lon="-0.13478">
        <ele>5.949321</ele>
        <time>2022-08-06T10:10:26.000Z</time>
      </trkpt>
      <trkpt lat="49.2427" lon="-0.13485">
        <ele>5.945794</ele>
        <time>2022-08-06T10:10:27.000Z</time>
      </trkpt>
      <trkpt lat="49.24267" lon="-0.1349">
        <ele>5.942493</ele>
        <time>2022-08-06T10:10:28.000Z</time>
      </trkpt>
      <trkpt lat="49.24263" lon="-0.13494">
        <ele>5.938886</ele>
        <time>2022-08-06T10:10:29.000Z</time>
      </trkpt>
      <trkpt lat="49.24258" lon="-0.13496">
        <ele>5.934926</ele>
        <time>2022-08-06T10:10:30.000Z</time>
      </trkpt>
      <trkpt lat="49.24252" lon="-0.13498">
        <ele>5.930849</ele>
        <time>2022-08-06T10:10:31.000Z</time>
      </trkpt>
      <trkpt lat="49.24247" lon="-0.13499">
        <ele>5.926974</ele>
        <time>2022-08-06T10:10:32.000Z</time>
      </trkpt>
      <trkpt lat="49.24242" lon="-0.13499">
        <ele>5.92297</ele>
        <time>2022-08-06T10:10:33.000Z</time>
      </trkpt>
      <trkpt lat="49.24237" lon="-0.135">
        <ele>5.919405</ele>
        <time>2022-08-06T10:10:34.000Z</time>
      </trkpt>
      <trkpt lat="49.24231" lon="-0.135">
        <ele>5.915412</ele>
        <time>2022-08-06T10:10:35.000Z</time>
      </trkpt>
      <trkpt lat="49.24226" lon="-0.135">
        <ele>5.911567</ele>
        <time>2022-08-06T10:10:36.000Z</time>
      </trkpt>
      <trkpt lat="49.24221" lon="-0.135">
        <ele>5.907794</ele>
        <time>2022-08-06T10:10:37.000Z</time>
      </trkpt>
      <trkpt lat="49.24216" lon="-0.135">
        <ele>5.904023</ele>
        <time>2022-08-06T10:10:38.000Z</time>
      </trkpt>
      <trkpt lat="49.24211" lon="-0.135">
        <ele>5.900251</ele>
        <time>2022-08-06T10:10:39.000Z</time>
      </trkpt>
      <trkpt lat="49.24205" lon="-0.135">
        <ele>5.897357</ele>
        <time>2022-08-06T10:10:40.000Z</time>
      </trkpt>
      <trkpt lat="49.242" lon="-0.135">
        <ele>5.89951</ele>
        <time>2022-08-06T10:10:41.000Z</time>
      </trkpt>
      <trkpt lat="49.24196" lon="-0.135">
        <ele>5.901536</ele>
        <time>2022-08-06T10:10:42.000Z</time>
      </trkpt>
      <trkpt lat="49.2419" lon="-0.135">
        <ele>5.903688</ele>
        <time>2022-08-06T10:10:43.000Z</time>
      </trkpt>
      <trkpt lat="49.24185" lon="-0.13501">
        <ele>5.905845</ele>
        <time>2022-08-06T10:10:44.000Z</time>
      </trkpt>
      <trkpt lat="49.2418" lon="-0.13501">
        <ele>5.908166</ele>
        <time>2022-08-06T10:10:45.000Z</time>
      </trkpt>
      <trkpt lat="49.24175" lon="-0.135">
        <ele>5.910193</ele>
        <time>2022-08-06T10:10:46.000Z</time>
      </trkpt>
      <trkpt lat="49.2417" lon="-0.135">
        <ele>5.912472</ele>
        <time>2022-08-06T10:10:47.000Z</time>
      </trkpt>
      <trkpt lat="49.24165" lon="-0.135">
        <ele>5.914371</ele>
        <time>2022-08-06T10:10:48.000Z</time>
      </trkpt>
      <trkpt lat="49.2416" lon="-0.13501">
        <ele>5.916652</ele>
        <time>2022-08-06T10:10:49.000Z</time>
      </trkpt>
      <trkpt lat="49.24154" lon="-0.13501">
        <ele>5.91898</ele>
        <time>2022-08-06T10:10:50.000Z</time>
      </trkpt>
      <trkpt lat="49.24149" lon="-0.13502">
        <ele>5.921396</ele>
        <time>2022-08-06T10:10:51.000Z</time>
      </trkpt>
      <trkpt lat="49.24143" lon="-0.13503">
        <ele>5.923559</ele>
        <time>2022-08-06T10:10:52.000Z</time>
      </trkpt>
      <trkpt lat="49.24138" lon="-0.13503">
        <ele>5.925754</ele>
        <time>2022-08-06T10:10:53.000Z</time>
      </trkpt>
      <trkpt lat="49.24133" lon="-0.13503">
        <ele>5.928034</ele>
        <time>2022-08-06T10:10:54.000Z</time>
      </trkpt>
      <trkpt lat="49.24128" lon="-0.13504">
        <ele>5.930078</ele>
        <time>2022-08-06T10:10:55.000Z</time>
      </trkpt>
      <trkpt lat="49.24123" lon="-0.13506">
        <ele>5.932404</ele>
        <time>2022-08-06T10:10:56.000Z</time>
      </trkpt>
      <trkpt lat="49.24117" lon="-0.13508">
        <ele>5.934913</ele>
        <time>2022-08-06T10:10:57.000Z</time>
      </trkpt>
      <trkpt lat="49.24112" lon="-0.1351">
        <ele>5.936998</ele>
        <time>2022-08-06T10:10:58.000Z</time>
      </trkpt>
      <trkpt lat="49.24107" lon="-0.13512">
        <ele>5.939234</ele>
        <time>2022-08-06T10:10:59.000Z</time>
      </trkpt>
      <trkpt lat="49.24102" lon="-0.13514">
        <ele>5.941348</ele>
        <time>2022-08-06T10:11:00.000Z</time>
      </trkpt>
      <trkpt lat="49.24097" lon="-0.13517">
        <ele>5.943793</ele>
        <time>2022-08-06T10:11:01.000Z</time>
      </trkpt>
      <trkpt lat="49.24092" lon="-0.1352">
        <ele>5.945951</ele>
        <time>2022-08-06T10:11:02.000Z</time>
      </trkpt>
      <trkpt lat="49.24087" lon="-0.13523">
        <ele>5.94832</ele>
        <time>2022-08-06T10:11:03.000Z</time>
      </trkpt>
      <trkpt lat="49.24082" lon="-0.13527">
        <ele>5.950414</ele>
        <time>2022-08-06T10:11:04.000Z</time>
      </trkpt>
      <trkpt lat="49.24078" lon="-0.13529">
        <ele>5.952297</ele>
        <time>2022-08-06T10:11:05.000Z</time>
      </trkpt>
      <trkpt lat="49.24073" lon="-0.13531">
        <ele>5.954396</ele>
        <time>2022-08-06T10:11:06.000Z</time>
      </trkpt>
      <trkpt lat="49.24069" lon="-0.13533">
        <ele>5.956328</ele>
        <time>2022-08-06T10:11:07.000Z</time>
      </trkpt>
      <trkpt lat="49.24064" lon="-0.13534">
        <ele>5.958372</ele>
        <time>2022-08-06T10:11:08.000Z</time>
      </trkpt>
      <trkpt lat="49.2406" lon="-0.13535">
        <ele>5.960328</ele>
        <time>2022-08-06T10:11:09.000Z</time>
      </trkpt>
      <trkpt lat="49.24055" lon="-0.13537">
        <ele>5.962435</ele>
        <time>2022-08-06T10:11:10.000Z</time>
      </trkpt>
      <trkpt lat="49.2405" lon="-0.1354">
        <ele>5.964454</ele>
        <time>2022-08-06T10:11:11.000Z</time>
      </trkpt>
      <trkpt lat="49.24045" lon="-0.13544">
        <ele>5.96676</ele>
        <time>2022-08-06T10:11:12.000Z</time>
      </trkpt>
      <trkpt lat="49.24042" lon="-0.13549">
        <ele>5.968729</ele>
        <time>2022-08-06T10:11:13.000Z</time>
      </trkpt>
      <trkpt lat="49.2404" lon="-0.13556">
        <ele>5.970795</ele>
        <time>2022-08-06T10:11:14.000Z</time>
      </trkpt>
      <trkpt lat="49.24038" lon="-0.13564">
        <ele>5.972352</ele>
        <time>2022-08-06T10:11:15.000Z</time>
      </trkpt>
      <trkpt lat="49.24038" lon="-0.13571">
        <ele>5.967765</ele>
        <time>2022-08-06T10:11:16.000Z</time>
      </trkpt>
      <trkpt lat="49.24039" lon="-0.1358">
        <ele>5.962935</ele>
        <time>2022-08-06T10:11:17.000Z</time>
      </trkpt>
      <trkpt lat="49.2404" lon="-0.13588">
        <ele>5.958087</ele>
        <time>2022-08-06T10:11:18.000Z</time>
      </trkpt>
      <trkpt lat="49.24041" lon="-0.13595">
        <ele>5.95341</ele>
        <time>2022-08-06T10:11:19.000Z</time>
      </trkpt>
      <trkpt lat="49.24044" lon="-0.13603">
        <ele>5.948682</ele>
        <time>2022-08-06T10:11:20.000Z</time>
      </trkpt>
      <trkpt lat="49.24046" lon="-0.1361">
        <ele>5.943807</ele>
        <time>2022-08-06T10:11:21.000Z</time>
      </trkpt>
      <trkpt lat="49.24049" lon="-0.13616">
        <ele>5.939177</ele>
        <time>2022-08-06T10:11:22.000Z</time>
      </trkpt>
      <trkpt lat="49.24053" lon="-0.13622">
        <ele>5.934357</ele>
        <time>2022-08-06T10:11:23.000Z</time>
      </trkpt>
      <trkpt lat="49.24057" lon="-0.13628">
        <ele>5.929728</ele>
        <time>2022-08-06T10:11:24.000Z</time>
      </trkpt>
      <trkpt lat="49.24061" lon="-0.13632">
        <ele>5.924789</ele>
        <time>2022-08-06T10:11:25.000Z</time>
      </trkpt>
      <trkpt lat="49.24065" lon="-0.13637">
        <ele>5.920033</ele>
        <time>2022-08-06T10:11:26.000Z</time>
      </trkpt>
      <trkpt lat="49.2407" lon="-0.13643">
        <ele>5.914703</ele>
        <time>2022-08-06T10:11:27.000Z</time>
      </trkpt>
      <trkpt lat="49.24074" lon="-0.13648">
        <ele>5.909913</ele>
        <time>2022-08-06T10:11:28.000Z</time>
      </trkpt>
      <trkpt lat="49.24077" lon="-0.13655">
        <ele>5.905219</ele>
        <time>2022-08-06T10:11:29.000Z</time>
      </trkpt>
      <trkpt lat="49.2408" lon="-0.13662">
        <ele>5.900194</ele>
        <time>2022-08-06T10:11:30.000Z</time>
      </trkpt>
      <trkpt lat="49.24081" lon="-0.1367">
        <ele>5.895404</ele>
        <time>2022-08-06T10:11:31.000Z</time>
      </trkpt>
      <trkpt lat="49.24081" lon="-0.13678">
        <ele>5.890758</ele>
        <time>2022-08-06T10:11:32.000Z</time>
      </trkpt>
      <trkpt lat="49.24079" lon="-0.13685">
        <ele>5.886341</ele>
        <time>2022-08-06T10:11:33.000Z</time>
      </trkpt>
      <trkpt lat="49.24077" lon="-0.13691">
        <ele>5.881858</ele>
        <time>2022-08-06T10:11:34.000Z</time>
      </trkpt>
      <trkpt lat="49.24074" lon="-0.13698">
        <ele>5.877373</ele>
        <time>2022-08-06T10:11:35.000Z</time>
      </trkpt>
      <trkpt lat="49.24069" lon="-0.13703">
        <ele>5.872044</ele>
        <time>2022-08-06T10:11:36.000Z</time>
      </trkpt>
      <trkpt lat="49.24065" lon="-0.13708">
        <ele>5.867359</ele>
        <time>2022-08-06T10:11:37.000Z</time>
      </trkpt>
      <trkpt lat="49.24061" lon="-0.13712">
        <ele>5.862486</ele>
        <time>2022-08-06T10:11:38.000Z</time>
      </trkpt>
      <trkpt lat="49.24056" lon="-0.13717">
        <ele>5.857903</ele>
        <time>2022-08-06T10:11:39.000Z</time>
      </trkpt>
      <trkpt lat="49.24052" lon="-0.13721">
        <ele>5.852895</ele>
        <time>2022-08-06T10:11:40.000Z</time>
      </trkpt>
      <trkpt lat="49.24047" lon="-0.13725">
        <ele>5.848608</ele>
        <time>2022-08-06T10:11:41.000Z</time>
      </trkpt>
      <trkpt lat="49.24043" lon="-0.13728">
        <ele>5.844115</ele>
        <time>2022-08-06T10:11:42.000Z</time>
      </trkpt>
      <trkpt lat="49.24037" lon="-0.13732">
        <ele>5.838704</ele>
        <time>2022-08-06T10:11:43.000Z</time>
      </trkpt>
      <trkpt lat="49.24033" lon="-0.13735">
        <ele>5.83389</ele>
        <time>2022-08-06T10:11:44.000Z</time>
      </trkpt>
      <trkpt lat="49.24028" lon="-0.13739">
        <ele>5.829503</ele>
        <time>2022-08-06T10:11:45.000Z</time>
      </trkpt>
      <trkpt lat="49.24023" lon="-0.13742">
        <ele>5.824182</ele>
        <time>2022-08-06T10:11:46.000Z</time>
      </trkpt>
      <trkpt lat="49.24018" lon="-0.13745">
        <ele>5.819148</ele>
        <time>2022-08-06T10:11:47.000Z</time>
      </trkpt>
      <trkpt lat="49.24013" lon="-0.13749">
        <ele>5.814385</ele>
        <time>2022-08-06T10:11:48.000Z</time>
      </trkpt>
      <trkpt lat="49.24008" lon="-0.13752">
        <ele>5.813153</ele>
        <time>2022-08-06T10:11:49.000Z</time>
      </trkpt>
      <trkpt lat="49.24003" lon="-0.13755">
        <ele>5.821077</ele>
        <time>2022-08-06T10:11:50.000Z</time>
      </trkpt>
      <trkpt lat="49.23998" lon="-0.13758">
        <ele>5.829618</ele>
        <time>2022-08-06T10:11:51.000Z</time>
      </trkpt>
      <trkpt lat="49.23993" lon="-0.13762">
        <ele>5.837619</ele>
        <time>2022-08-06T10:11:52.000Z</time>
      </trkpt>
      <trkpt lat="49.23988" lon="-0.13764">
        <ele>5.846307</ele>
        <time>2022-08-06T10:11:53.000Z</time>
      </trkpt>
      <trkpt lat="49.23983" lon="-0.13765">
        <ele>5.853686</ele>
        <time>2022-08-06T10:11:54.000Z</time>
      </trkpt>
      <trkpt lat="49.23977" lon="-0.13764">
        <ele>5.861969</ele>
        <time>2022-08-06T10:11:55.000Z</time>
      </trkpt>
      <trkpt lat="49.23973" lon="-0.13761">
        <ele>5.869819</ele>
        <time>2022-08-06T10:11:56.000Z</time>
      </trkpt>
      <trkpt lat="49.23969" lon="-0.13757">
        <ele>5.877281</ele>
        <time>2022-08-06T10:11:57.000Z</time>
      </trkpt>
      <trkpt lat="49.23965" lon="-0.13751">
        <ele>5.885272</ele>
        <time>2022-08-06T10:11:58.000Z</time>
      </trkpt>
      <trkpt lat="49.23961" lon="-0.13745">
        <ele>5.893758</ele>
        <time>2022-08-06T10:11:59.000Z</time>
      </trkpt>
      <trkpt lat="49.23958" lon="-0.13739">
        <ele>5.901488</ele>
        <time>2022-08-06T10:12:00.000Z</time>
      </trkpt>
      <trkpt lat="49.23954" lon="-0.13733">
        <ele>5.909694</ele>
        <time>2022-08-06T10:12:01.000Z</time>
      </trkpt>
      <trkpt lat="49.23951" lon="-0.13727">
        <ele>5.917424</ele>
        <time>2022-08-06T10:12:02.000Z</time>
      </trkpt>
      <trkpt lat="49.23947" lon="-0.13721">
        <ele>5.925415</ele>
        <time>2022-08-06T10:12:03.000Z</time>
      </trkpt>
      <trkpt lat="49.23943" lon="-0.13716">
        <ele>5.933796</ele>
        <time>2022-08-06T10:12:04.000Z</time>
      </trkpt>
      <trkpt lat="49.23939" lon="-0.13711">
        <ele>5.941868</ele>
        <time>2022-08-06T10:12:05.000Z</time>
      </trkpt>
      <trkpt lat="49.23934" lon="-0.13706">
        <ele>5.950193</ele>
        <time>2022-08-06T10:12:06.000Z</time>
      </trkpt>
      <trkpt lat="49.2393" lon="-0.13702">
        <ele>5.958145</ele>
        <time>2022-08-06T10:12:07.000Z</time>
      </trkpt>
      <trkpt lat="49.23925" lon="-0.137">
        <ele>5.965894</ele>
        <time>2022-08-06T10:12:08.000Z</time>
      </trkpt>
      <trkpt lat="49.2392" lon="-0.13699">
        <ele>5.974207</ele>
        <time>2022-08-06T10:12:09.000Z</time>
      </trkpt>
      <trkpt lat="49.23914" lon="-0.13699">
        <ele>5.982642</ele>
        <time>2022-08-06T10:12:10.000Z</time>
      </trkpt>
      <trkpt lat="49.23909" lon="-0.13701">
        <ele>5.990194</ele>
        <time>2022-08-06T10:12:11.000Z</time>
      </trkpt>
      <trkpt lat="49.23904" lon="-0.13703">
        <ele>5.99832</ele>
        <time>2022-08-06T10:12:12.000Z</time>
      </trkpt>
      <trkpt lat="49.239" lon="-0.13706">
        <ele>6.006135</ele>
        <time>2022-08-06T10:12:13.000Z</time>
      </trkpt>
      <trkpt lat="49.23894" lon="-0.13709">
        <ele>6.014382</ele>
        <time>2022-08-06T10:12:14.000Z</time>
      </trkpt>
      <trkpt lat="49.2389" lon="-0.13712">
        <ele>6.022306</ele>
        <time>2022-08-06T10:12:15.000Z</time>
      </trkpt>
      <trkpt lat="49.23885" lon="-0.13714">
        <ele>6.029556</ele>
        <time>2022-08-06T10:12:16.000Z</time>
      </trkpt>
      <trkpt lat="49.2388" lon="-0.13715">
        <ele>6.037391</ele>
        <time>2022-08-06T10:12:17.000Z</time>
      </trkpt>
      <trkpt lat="49.23876" lon="-0.13714">
        <ele>6.044356</ele>
        <time>2022-08-06T10:12:18.000Z</time>
      </trkpt>
      <trkpt lat="49.23872" lon="-0.1371">
        <ele>6.051347</ele>
        <time>2022-08-06T10:12:19.000Z</time>
      </trkpt>
      <trkpt lat="49.23868" lon="-0.13705">
        <ele>6.058396</ele>
        <time>2022-08-06T10:12:20.000Z</time>
      </trkpt>
      <trkpt lat="49.23865" lon="-0.13699">
        <ele>6.065765</ele>
        <time>2022-08-06T10:12:21.000Z</time>
      </trkpt>
      <trkpt lat="49.23862" lon="-0.13693">
        <ele>6.073574</ele>
        <time>2022-08-06T10:12:22.000Z</time>
      </trkpt>
      <trkpt lat="49.23859" lon="-0.13687">
        <ele>6.081697</ele>
        <time>2022-08-06T10:12:23.000Z</time>
      </trkpt>
      <trkpt lat="49.23856" lon="-0.1368">
        <ele>6.076361</ele>
        <time>2022-08-06T10:12:24.000Z</time>
      </trkpt>
      <trkpt lat="49.23854" lon="-0.13674">
        <ele>6.057409</ele>
        <time>2022-08-06T10:12:25.000Z</time>
      </trkpt>
      <trkpt lat="49.2385" lon="-0.13668">
        <ele>6.036782</ele>
        <time>2022-08-06T10:12:26.000Z</time>
      </trkpt>
      <trkpt lat="49.23847" lon="-0.13663">
        <ele>6.016807</ele>
        <time>2022-08-06T10:12:27.000Z</time>
      </trkpt>
      <trkpt lat="49.23844" lon="-0.13657">
        <ele>5.997451</ele>
        <time>2022-08-06T10:12:28.000Z</time>
      </trkpt>
      <trkpt lat="49.2384" lon="-0.13652">
        <ele>5.977475</ele>
        <time>2022-08-06T10:12:29.000Z</time>
      </trkpt>
      <trkpt lat="49.23836" lon="-0.13647">
        <ele>5.957176</ele>
        <time>2022-08-06T10:12:30.000Z</time>
      </trkpt>
      <trkpt lat="49.23833" lon="-0.13641">
        <ele>5.937464</ele>
        <time>2022-08-06T10:12:31.000Z</time>
      </trkpt>
      <trkpt lat="49.23829" lon="-0.13636">
        <ele>5.917507</ele>
        <time>2022-08-06T10:12:32.000Z</time>
      </trkpt>
      <trkpt lat="49.23825" lon="-0.13632">
        <ele>5.897886</ele>
        <time>2022-08-06T10:12:33.000Z</time>
      </trkpt>
      <trkpt lat="49.23821" lon="-0.13627">
        <ele>5.87701</ele>
        <time>2022-08-06T10:12:34.000Z</time>
      </trkpt>
      <trkpt lat="49.23817" lon="-0.13622">
        <ele>5.85674</ele>
        <time>2022-08-06T10:12:35.000Z</time>
      </trkpt>
      <trkpt lat="49.23812" lon="-0.13618">
        <ele>5.836223</ele>
        <time>2022-08-06T10:12:36.000Z</time>
      </trkpt>
      <trkpt lat="49.23808" lon="-0.13614">
        <ele>5.816241</ele>
        <time>2022-08-06T10:12:37.000Z</time>
      </trkpt>
      <trkpt lat="49.23804" lon="-0.1361">
        <ele>5.795823</ele>
        <time>2022-08-06T10:12:38.000Z</time>
      </trkpt>
      <trkpt lat="49.238" lon="-0.13605">
        <ele>5.776688</ele>
        <time>2022-08-06T10:12:39.000Z</time>
      </trkpt>
      <trkpt lat="49.23797" lon="-0.13601">
        <ele>5.75973</ele>
        <time>2022-08-06T10:12:40.000Z</time>
      </trkpt>
      <trkpt lat="49.23794" lon="-0.13597">
        <ele>5.74505</ele>
        <time>2022-08-06T10:12:41.000Z</time>
      </trkpt>
      <trkpt lat="49.23792" lon="-0.13593">
        <ele>5.732414</ele>
        <time>2022-08-06T10:12:42.000Z</time>
      </trkpt>
      <trkpt lat="49.2379" lon="-0.1359">
        <ele>5.722339</ele>
        <time>2022-08-06T10:12:43.000Z</time>
      </trkpt>
      <trkpt lat="49.23789" lon="-0.13588">
        <ele>5.713613</ele>
        <time>2022-08-06T10:12:44.000Z</time>
      </trkpt>
      <trkpt lat="49.23789" lon="-0.13583">
        <ele>5.700391</ele>
        <time>2022-08-06T10:12:46.000Z</time>
      </trkpt>
      <trkpt lat="49.23787" lon="-0.13581">
        <ele>5.69305</ele>
        <time>2022-08-06T10:14:12.000Z</time>
      </trkpt>
      <trkpt lat="49.23785" lon="-0.13583">
        <ele>5.683562</ele>
        <time>2022-08-06T10:14:15.000Z</time>
      </trkpt>
      <trkpt lat="49.23785" lon="-0.13587">
        <ele>5.672314</ele>
        <time>2022-08-06T10:14:46.000Z</time>
      </trkpt>
      <trkpt lat="49.23783" lon="-0.13586">
        <ele>5.662919</ele>
        <time>2022-08-06T10:14:47.000Z</time>
      </trkpt>
      <trkpt lat="49.2378" lon="-0.13585">
        <ele>5.652315</ele>
        <time>2022-08-06T10:14:48.000Z</time>
      </trkpt>
      <trkpt lat="49.23777" lon="-0.13583">
        <ele>5.638984</ele>
        <time>2022-08-06T10:14:49.000Z</time>
      </trkpt>
      <trkpt lat="49.23773" lon="-0.13582">
        <ele>5.624122</ele>
        <time>2022-08-06T10:14:50.000Z</time>
      </trkpt>
      <trkpt lat="49.23771" lon="-0.1358">
        <ele>5.612306</ele>
        <time>2022-08-06T10:14:51.000Z</time>
      </trkpt>
      <trkpt lat="49.23766" lon="-0.13579">
        <ele>5.595236</ele>
        <time>2022-08-06T10:14:52.000Z</time>
      </trkpt>
      <trkpt lat="49.23763" lon="-0.13578">
        <ele>5.579726</ele>
        <time>2022-08-06T10:14:53.000Z</time>
      </trkpt>
      <trkpt lat="49.23759" lon="-0.13576">
        <ele>5.564719</ele>
        <time>2022-08-06T10:14:54.000Z</time>
      </trkpt>
      <trkpt lat="49.23755" lon="-0.13574">
        <ele>5.548874</ele>
        <time>2022-08-06T10:14:55.000Z</time>
      </trkpt>
      <trkpt lat="49.23752" lon="-0.13572">
        <ele>5.533803</ele>
        <time>2022-08-06T10:14:56.000Z</time>
      </trkpt>
      <trkpt lat="49.23748" lon="-0.13569">
        <ele>5.517826</ele>
        <time>2022-08-06T10:14:57.000Z</time>
      </trkpt>
      <trkpt lat="49.23745" lon="-0.13566">
        <ele>5.500839</ele>
        <time>2022-08-06T10:14:58.000Z</time>
      </trkpt>
      <trkpt lat="49.23741" lon="-0.13561">
        <ele>5.483178</ele>
        <time>2022-08-06T10:14:59.000Z</time>
      </trkpt>
      <trkpt lat="49.23739" lon="-0.13557">
        <ele>5.467925</ele>
        <time>2022-08-06T10:15:00.000Z</time>
      </trkpt>
      <trkpt lat="49.23735" lon="-0.13553">
        <ele>5.451305</ele>
        <time>2022-08-06T10:15:01.000Z</time>
      </trkpt>
      <trkpt lat="49.23733" lon="-0.13548">
        <ele>5.43587</ele>
        <time>2022-08-06T10:15:02.000Z</time>
      </trkpt>
      <trkpt lat="49.2373" lon="-0.13544">
        <ele>5.418027</ele>
        <time>2022-08-06T10:15:03.000Z</time>
      </trkpt>
      <trkpt lat="49.23727" lon="-0.13539">
        <ele>5.402398</ele>
        <time>2022-08-06T10:15:04.000Z</time>
      </trkpt>
      <trkpt lat="49.23724" lon="-0.13535">
        <ele>5.38561</ele>
        <time>2022-08-06T10:15:05.000Z</time>
      </trkpt>
      <trkpt lat="49.23721" lon="-0.13531">
        <ele>5.369246</ele>
        <time>2022-08-06T10:15:06.000Z</time>
      </trkpt>
      <trkpt lat="49.23717" lon="-0.13526">
        <ele>5.370209</ele>
        <time>2022-08-06T10:15:07.000Z</time>
      </trkpt>
      <trkpt lat="49.23713" lon="-0.13522">
        <ele>5.371198</ele>
        <time>2022-08-06T10:15:08.000Z</time>
      </trkpt>
      <trkpt lat="49.23709" lon="-0.13519">
        <ele>5.372281</ele>
        <time>2022-08-06T10:15:09.000Z</time>
      </trkpt>
      <trkpt lat="49.23705" lon="-0.13516">
        <ele>5.373248</ele>
        <time>2022-08-06T10:15:10.000Z</time>
      </trkpt>
      <trkpt lat="49.23701" lon="-0.13514">
        <ele>5.374167</ele>
        <time>2022-08-06T10:15:11.000Z</time>
      </trkpt>
      <trkpt lat="49.23696" lon="-0.13513">
        <ele>5.375228</ele>
        <time>2022-08-06T10:15:12.000Z</time>
      </trkpt>
      <trkpt lat="49.23692" lon="-0.13511">
        <ele>5.37611</ele>
        <time>2022-08-06T10:15:13.000Z</time>
      </trkpt>
      <trkpt lat="49.23688" lon="-0.13509">
        <ele>5.377034</ele>
        <time>2022-08-06T10:15:14.000Z</time>
      </trkpt>
      <trkpt lat="49.23683" lon="-0.13507">
        <ele>5.378022</ele>
        <time>2022-08-06T10:15:15.000Z</time>
      </trkpt>
      <trkpt lat="49.23679" lon="-0.13506">
        <ele>5.37901</ele>
        <time>2022-08-06T10:15:16.000Z</time>
      </trkpt>
      <trkpt lat="49.23674" lon="-0.13504">
        <ele>5.380056</ele>
        <time>2022-08-06T10:15:17.000Z</time>
      </trkpt>
      <trkpt lat="49.23669" lon="-0.13503">
        <ele>5.381108</ele>
        <time>2022-08-06T10:15:18.000Z</time>
      </trkpt>
      <trkpt lat="49.23664" lon="-0.13502">
        <ele>5.382147</ele>
        <time>2022-08-06T10:15:19.000Z</time>
      </trkpt>
      <trkpt lat="49.2366" lon="-0.13501">
        <ele>5.383118</ele>
        <time>2022-08-06T10:15:20.000Z</time>
      </trkpt>
      <trkpt lat="49.23655" lon="-0.135">
        <ele>5.384154</ele>
        <time>2022-08-06T10:15:21.000Z</time>
      </trkpt>
      <trkpt lat="49.2365" lon="-0.135">
        <ele>5.38525</ele>
        <time>2022-08-06T10:15:22.000Z</time>
      </trkpt>
      <trkpt lat="49.23645" lon="-0.135">
        <ele>5.386216</ele>
        <time>2022-08-06T10:15:23.000Z</time>
      </trkpt>
      <trkpt lat="49.23641" lon="-0.13501">
        <ele>5.387106</ele>
        <time>2022-08-06T10:15:24.000Z</time>
      </trkpt>
      <trkpt lat="49.23636" lon="-0.13502">
        <ele>5.388224</ele>
        <time>2022-08-06T10:15:25.000Z</time>
      </trkpt>
      <trkpt lat="49.23632" lon="-0.13505">
        <ele>5.389261</ele>
        <time>2022-08-06T10:15:26.000Z</time>
      </trkpt>
      <trkpt lat="49.23627" lon="-0.13508">
        <ele>5.390325</ele>
        <time>2022-08-06T10:15:27.000Z</time>
      </trkpt>
      <trkpt lat="49.23623" lon="-0.13512">
        <ele>5.391351</ele>
        <time>2022-08-06T10:15:28.000Z</time>
      </trkpt>
      <trkpt lat="49.23618" lon="-0.13516">
        <ele>5.392531</ele>
        <time>2022-08-06T10:15:29.000Z</time>
      </trkpt>
      <trkpt lat="49.23614" lon="-0.1352">
        <ele>5.393613</ele>
        <time>2022-08-06T10:15:30.000Z</time>
      </trkpt>
      <trkpt lat="49.2361" lon="-0.13526">
        <ele>5.394723</ele>
        <time>2022-08-06T10:15:31.000Z</time>
      </trkpt>
      <trkpt lat="49.23606" lon="-0.13531">
        <ele>5.395864</ele>
        <time>2022-08-06T10:15:32.000Z</time>
      </trkpt>
      <trkpt lat="49.23603" lon="-0.13537">
        <ele>5.39695</ele>
        <time>2022-08-06T10:15:33.000Z</time>
      </trkpt>
      <trkpt lat="49.236" lon="-0.13544">
        <ele>5.39803</ele>
        <time>2022-08-06T10:15:34.000Z</time>
      </trkpt>
      <trkpt lat="49.23598" lon="-0.1355">
        <ele>5.399081</ele>
        <time>2022-08-06T10:15:35.000Z</time>
      </trkpt>
      <trkpt lat="49.23596" lon="-0.13557">
        <ele>5.400091</ele>
        <time>2022-08-06T10:15:36.000Z</time>
      </trkpt>
      <trkpt lat="49.23594" lon="-0.13564">
        <ele>5.401177</ele>
        <time>2022-08-06T10:15:37.000Z</time>
      </trkpt>
      <trkpt lat="49.23592" lon="-0.1357">
        <ele>5.402163</ele>
        <time>2022-08-06T10:15:38.000Z</time>
      </trkpt>
      <trkpt lat="49.23591" lon="-0.13577">
        <ele>5.403163</ele>
        <time>2022-08-06T10:15:39.000Z</time>
      </trkpt>
      <trkpt lat="49.23589" lon="-0.13584">
        <ele>5.404161</ele>
        <time>2022-08-06T10:15:40.000Z</time>
      </trkpt>
      <trkpt lat="49.23587" lon="-0.1359">
        <ele>5.405212</ele>
        <time>2022-08-06T10:15:41.000Z</time>
      </trkpt>
      <trkpt lat="49.23585" lon="-0.13597">
        <ele>5.406231</ele>
        <time>2022-08-06T10:15:42.000Z</time>
      </trkpt>
      <trkpt lat="49.23582" lon="-0.13603">
        <ele>5.407252</ele>
        <time>2022-08-06T10:15:43.000Z</time>
      </trkpt>
      <trkpt lat="49.2358" lon="-0.13609">
        <ele>5.406976</ele>
        <time>2022-08-06T10:15:44.000Z</time>
      </trkpt>
      <trkpt lat="49.23576" lon="-0.13615">
        <ele>5.404965</ele>
        <time>2022-08-06T10:15:45.000Z</time>
      </trkpt>
      <trkpt lat="49.23573" lon="-0.13621">
        <ele>5.402938</ele>
        <time>2022-08-06T10:15:46.000Z</time>
      </trkpt>
      <trkpt lat="49.2357" lon="-0.13627">
        <ele>5.400877</ele>
        <time>2022-08-06T10:15:47.000Z</time>
      </trkpt>
      <trkpt lat="49.23567" lon="-0.13634">
        <ele>5.398663</ele>
        <time>2022-08-06T10:15:48.000Z</time>
      </trkpt>
      <trkpt lat="49.23566" lon="-0.13642">
        <ele>5.396538</ele>
        <time>2022-08-06T10:15:49.000Z</time>
      </trkpt>
      <trkpt lat="49.23566" lon="-0.13651">
        <ele>5.39431</ele>
        <time>2022-08-06T10:15:50.000Z</time>
      </trkpt>
      <trkpt lat="49.23566" lon="-0.13659">
        <ele>5.392254</ele>
        <time>2022-08-06T10:15:51.000Z</time>
      </trkpt>
      <trkpt lat="49.23567" lon="-0.13667">
        <ele>5.390147</ele>
        <time>2022-08-06T10:15:52.000Z</time>
      </trkpt>
      <trkpt lat="49.23568" lon="-0.13675">
        <ele>5.387989</ele>
        <time>2022-08-06T10:15:53.000Z</time>
      </trkpt>
      <trkpt lat="49.2357" lon="-0.13682">
        <ele>5.385882</ele>
        <time>2022-08-06T10:15:54.000Z</time>
      </trkpt>
      <trkpt lat="49.23571" lon="-0.1369">
        <ele>5.38375</ele>
        <time>2022-08-06T10:15:55.000Z</time>
      </trkpt>
      <trkpt lat="49.23572" lon="-0.13698">
        <ele>5.381625</ele>
        <time>2022-08-06T10:15:56.000Z</time>
      </trkpt>
      <trkpt lat="49.23572" lon="-0.13706">
        <ele>5.379512</ele>
        <time>2022-08-06T10:15:57.000Z</time>
      </trkpt>
      <trkpt lat="49.23573" lon="-0.13715">
        <ele>5.377262</ele>
        <time>2022-08-06T10:15:58.000Z</time>
      </trkpt>
      <trkpt lat="49.23574" lon="-0.13723">
        <ele>5.375161</ele>
        <time>2022-08-06T10:15:59.000Z</time>
      </trkpt>
      <trkpt lat="49.23575" lon="-0.13731">
        <ele>5.373037</ele>
        <time>2022-08-06T10:16:00.000Z</time>
      </trkpt>
      <trkpt lat="49.23576" lon="-0.13739">
        <ele>5.370847</ele>
        <time>2022-08-06T10:16:01.000Z</time>
      </trkpt>
      <trkpt lat="49.23578" lon="-0.13747">
        <ele>5.368689</ele>
        <time>2022-08-06T10:16:02.000Z</time>
      </trkpt>
      <trkpt lat="49.23579" lon="-0.13755">
        <ele>5.366557</ele>
        <time>2022-08-06T10:16:03.000Z</time>
      </trkpt>
      <trkpt lat="49.2358" lon="-0.13763">
        <ele>5.364367</ele>
        <time>2022-08-06T10:16:04.000Z</time>
      </trkpt>
      <trkpt lat="49.23581" lon="-0.13771">
        <ele>5.362139</ele>
        <time>2022-08-06T10:16:05.000Z</time>
      </trkpt>
      <trkpt lat="49.23581" lon="-0.1378">
        <ele>5.359885</ele>
        <time>2022-08-06T10:16:06.000Z</time>
      </trkpt>
      <trkpt lat="49.23582" lon="-0.13788">
        <ele>5.357676</ele>
        <time>2022-08-06T10:16:07.000Z</time>
      </trkpt>
      <trkpt lat="49.23584" lon="-0.13796">
        <ele>5.355536</ele>
        <time>2022-08-06T10:16:08.000Z</time>
      </trkpt>
      <trkpt lat="49.23586" lon="-0.13804">
        <ele>5.353346</ele>
        <time>2022-08-06T10:16:09.000Z</time>
      </trkpt>
      <trkpt lat="49.23587" lon="-0.13811">
        <ele>5.351391</ele>
        <time>2022-08-06T10:16:10.000Z</time>
      </trkpt>
      <trkpt lat="49.23589" lon="-0.13818">
        <ele>5.349375</ele>
        <time>2022-08-06T10:16:11.000Z</time>
      </trkpt>
      <trkpt lat="49.2359" lon="-0.13826">
        <ele>5.34731</ele>
        <time>2022-08-06T10:16:12.000Z</time>
      </trkpt>
      <trkpt lat="49.23592" lon="-0.13833">
        <ele>5.345245</ele>
        <time>2022-08-06T10:16:13.000Z</time>
      </trkpt>
      <trkpt lat="49.23594" lon="-0.13841">
        <ele>5.34309</ele>
        <time>2022-08-06T10:16:14.000Z</time>
      </trkpt>
      <trkpt lat="49.23596" lon="-0.13848">
        <ele>5.341033</ele>
        <time>2022-08-06T10:16:15.000Z</time>
      </trkpt>
      <trkpt lat="49.23597" lon="-0.13856">
        <ele>5.338952</ele>
        <time>2022-08-06T10:16:16.000Z</time>
      </trkpt>
      <trkpt lat="49.236" lon="-0.13863">
        <ele>5.336729</ele>
        <time>2022-08-06T10:16:17.000Z</time>
      </trkpt>
      <trkpt lat="49.23602" lon="-0.1387">
        <ele>5.335487</ele>
        <time>2022-08-06T10:16:18.000Z</time>
      </trkpt>
      <trkpt lat="49.23605" lon="-0.13877">
        <ele>5.335022</ele>
        <time>2022-08-06T10:16:19.000Z</time>
      </trkpt>
      <trkpt lat="49.23606" lon="-0.13884">
        <ele>5.334579</ele>
        <time>2022-08-06T10:16:20.000Z</time>
      </trkpt>
      <trkpt lat="49.23609" lon="-0.13891">
        <ele>5.334065</ele>
        <time>2022-08-06T10:16:21.000Z</time>
      </trkpt>
      <trkpt lat="49.23612" lon="-0.13898">
        <ele>5.333604</ele>
        <time>2022-08-06T10:16:22.000Z</time>
      </trkpt>
      <trkpt lat="49.23614" lon="-0.13904">
        <ele>5.333155</ele>
        <time>2022-08-06T10:16:23.000Z</time>
      </trkpt>
      <trkpt lat="49.23616" lon="-0.13911">
        <ele>5.332684</ele>
        <time>2022-08-06T10:16:24.000Z</time>
      </trkpt>
      <trkpt lat="49.23618" lon="-0.13918">
        <ele>5.332222</ele>
        <time>2022-08-06T10:16:25.000Z</time>
      </trkpt>
      <trkpt lat="49.23619" lon="-0.13925">
        <ele>5.331766</ele>
        <time>2022-08-06T10:16:26.000Z</time>
      </trkpt>
      <trkpt lat="49.23621" lon="-0.13933">
        <ele>5.331312</ele>
        <time>2022-08-06T10:16:27.000Z</time>
      </trkpt>
      <trkpt lat="49.23622" lon="-0.1394">
        <ele>5.330859</ele>
        <time>2022-08-06T10:16:28.000Z</time>
      </trkpt>
      <trkpt lat="49.23622" lon="-0.13947">
        <ele>5.330394</ele>
        <time>2022-08-06T10:16:29.000Z</time>
      </trkpt>
      <trkpt lat="49.23624" lon="-0.13955">
        <ele>5.329923</ele>
        <time>2022-08-06T10:16:30.000Z</time>
      </trkpt>
      <trkpt lat="49.23624" lon="-0.13963">
        <ele>5.329412</ele>
        <time>2022-08-06T10:16:31.000Z</time>
      </trkpt>
      <trkpt lat="49.23624" lon="-0.13971">
        <ele>5.328951</ele>
        <time>2022-08-06T10:16:32.000Z</time>
      </trkpt>
      <trkpt lat="49.23625" lon="-0.13978">
        <ele>5.328509</ele>
        <time>2022-08-06T10:16:33.000Z</time>
      </trkpt>
      <trkpt lat="49.23626" lon="-0.13985">
        <ele>5.328056</ele>
        <time>2022-08-06T10:16:34.000Z</time>
      </trkpt>
      <trkpt lat="49.23628" lon="-0.13993">
        <ele>5.327579</ele>
        <time>2022-08-06T10:16:35.000Z</time>
      </trkpt>
      <trkpt lat="49.2363" lon="-0.13999">
        <ele>5.327106</ele>
        <time>2022-08-06T10:16:36.000Z</time>
      </trkpt>
      <trkpt lat="49.23634" lon="-0.14006">
        <ele>5.326607</ele>
        <time>2022-08-06T10:16:37.000Z</time>
      </trkpt>
      <trkpt lat="49.23637" lon="-0.14012">
        <ele>5.326153</ele>
        <time>2022-08-06T10:16:38.000Z</time>
      </trkpt>
      <trkpt lat="49.2364" lon="-0.14018">
        <ele>5.325683</ele>
        <time>2022-08-06T10:16:39.000Z</time>
      </trkpt>
      <trkpt lat="49.23643" lon="-0.14024">
        <ele>5.325195</ele>
        <time>2022-08-06T10:16:40.000Z</time>
      </trkpt>
      <trkpt lat="49.23646" lon="-0.14029">
        <ele>5.324747</ele>
        <time>2022-08-06T10:16:41.000Z</time>
      </trkpt>
      <trkpt lat="49.2365" lon="-0.14035">
        <ele>5.324273</ele>
        <time>2022-08-06T10:16:42.000Z</time>
      </trkpt>
      <trkpt lat="49.23654" lon="-0.1404">
        <ele>5.323801</ele>
        <time>2022-08-06T10:16:43.000Z</time>
      </trkpt>
      <trkpt lat="49.23658" lon="-0.14045">
        <ele>5.323323</ele>
        <time>2022-08-06T10:16:44.000Z</time>
      </trkpt>
      <trkpt lat="49.23661" lon="-0.1405">
        <ele>5.322856</ele>
        <time>2022-08-06T10:16:45.000Z</time>
      </trkpt>
      <trkpt lat="49.23665" lon="-0.14056">
        <ele>5.322375</ele>
        <time>2022-08-06T10:16:46.000Z</time>
      </trkpt>
      <trkpt lat="49.23669" lon="-0.14062">
        <ele>5.32188</ele>
        <time>2022-08-06T10:16:47.000Z</time>
      </trkpt>
      <trkpt lat="49.23673" lon="-0.14067">
        <ele>5.321394</ele>
        <time>2022-08-06T10:16:48.000Z</time>
      </trkpt>
      <trkpt lat="49.23677" lon="-0.14073">
        <ele>5.320888</ele>
        <time>2022-08-06T10:16:49.000Z</time>
      </trkpt>
      <trkpt lat="49.23681" lon="-0.14078">
        <ele>5.32041</ele>
        <time>2022-08-06T10:16:50.000Z</time>
      </trkpt>
      <trkpt lat="49.23685" lon="-0.14083">
        <ele>5.319915</ele>
        <time>2022-08-06T10:16:51.000Z</time>
      </trkpt>
      <trkpt lat="49.23689" lon="-0.14088">
        <ele>5.319442</ele>
        <time>2022-08-06T10:16:52.000Z</time>
      </trkpt>
      <trkpt lat="49.23693" lon="-0.14093">
        <ele>5.320058</ele>
        <time>2022-08-06T10:16:53.000Z</time>
      </trkpt>
      <trkpt lat="49.23697" lon="-0.14098">
        <ele>5.327746</ele>
        <time>2022-08-06T10:16:54.000Z</time>
      </trkpt>
      <trkpt lat="49.23701" lon="-0.14104">
        <ele>5.33538</ele>
        <time>2022-08-06T10:16:55.000Z</time>
      </trkpt>
      <trkpt lat="49.23706" lon="-0.14109">
        <ele>5.34301</ele>
        <time>2022-08-06T10:16:56.000Z</time>
      </trkpt>
      <trkpt lat="49.2371" lon="-0.14114">
        <ele>5.351335</ele>
        <time>2022-08-06T10:16:57.000Z</time>
      </trkpt>
      <trkpt lat="49.23715" lon="-0.14119">
        <ele>5.359309</ele>
        <time>2022-08-06T10:16:58.000Z</time>
      </trkpt>
      <trkpt lat="49.23719" lon="-0.14123">
        <ele>5.36671</ele>
        <time>2022-08-06T10:16:59.000Z</time>
      </trkpt>
      <trkpt lat="49.23723" lon="-0.14128">
        <ele>5.37434</ele>
        <time>2022-08-06T10:17:00.000Z</time>
      </trkpt>
      <trkpt lat="49.23727" lon="-0.14133">
        <ele>5.381912</ele>
        <time>2022-08-06T10:17:01.000Z</time>
      </trkpt>
      <trkpt lat="49.23732" lon="-0.14138">
        <ele>5.38966</ele>
        <time>2022-08-06T10:17:02.000Z</time>
      </trkpt>
      <trkpt lat="49.23736" lon="-0.14143">
        <ele>5.397525</ele>
        <time>2022-08-06T10:17:03.000Z</time>
      </trkpt>
      <trkpt lat="49.23741" lon="-0.14148">
        <ele>5.405444</ele>
        <time>2022-08-06T10:17:04.000Z</time>
      </trkpt>
      <trkpt lat="49.23745" lon="-0.14153">
        <ele>5.413417</ele>
        <time>2022-08-06T10:17:05.000Z</time>
      </trkpt>
      <trkpt lat="49.23749" lon="-0.14158">
        <ele>5.420992</ele>
        <time>2022-08-06T10:17:06.000Z</time>
      </trkpt>
      <trkpt lat="49.23754" lon="-0.14163">
        <ele>5.429266</ele>
        <time>2022-08-06T10:17:07.000Z</time>
      </trkpt>
      <trkpt lat="49.23758" lon="-0.14168">
        <ele>5.436895</ele>
        <time>2022-08-06T10:17:08.000Z</time>
      </trkpt>
      <trkpt lat="49.23763" lon="-0.14173">
        <ele>5.444524</ele>
        <time>2022-08-06T10:17:09.000Z</time>
      </trkpt>
      <trkpt lat="49.23767" lon="-0.14178">
        <ele>5.452041</ele>
        <time>2022-08-06T10:17:10.000Z</time>
      </trkpt>
      <trkpt lat="49.23771" lon="-0.14183">
        <ele>5.459728</ele>
        <time>2022-08-06T10:17:11.000Z</time>
      </trkpt>
      <trkpt lat="49.23774" lon="-0.14188">
        <ele>5.466853</ele>
        <time>2022-08-06T10:17:12.000Z</time>
      </trkpt>
      <trkpt lat="49.23778" lon="-0.14194">
        <ele>5.474548</ele>
        <time>2022-08-06T10:17:13.000Z</time>
      </trkpt>
      <trkpt lat="49.23781" lon="-0.142">
        <ele>5.481766</ele>
        <time>2022-08-06T10:17:14.000Z</time>
      </trkpt>
      <trkpt lat="49.23784" lon="-0.14207">
        <ele>5.489314</ele>
        <time>2022-08-06T10:17:15.000Z</time>
      </trkpt>
      <trkpt lat="49.23788" lon="-0.14213">
        <ele>5.496849</ele>
        <time>2022-08-06T10:17:16.000Z</time>
      </trkpt>
      <trkpt lat="49.23791" lon="-0.14219">
        <ele>5.503839</ele>
        <time>2022-08-06T10:17:17.000Z</time>
      </trkpt>
      <trkpt lat="49.23794" lon="-0.14224">
        <ele>5.511099</ele>
        <time>2022-08-06T10:17:18.000Z</time>
      </trkpt>
      <trkpt lat="49.23798" lon="-0.1423">
        <ele>5.518525</ele>
        <time>2022-08-06T10:17:19.000Z</time>
      </trkpt>
      <trkpt lat="49.23801" lon="-0.14236">
        <ele>5.525056</ele>
        <time>2022-08-06T10:17:20.000Z</time>
      </trkpt>
      <trkpt lat="49.23803" lon="-0.14242">
        <ele>5.531799</ele>
        <time>2022-08-06T10:17:21.000Z</time>
      </trkpt>
      <trkpt lat="49.23806" lon="-0.14248">
        <ele>5.539326</ele>
        <time>2022-08-06T10:17:22.000Z</time>
      </trkpt>
      <trkpt lat="49.23807" lon="-0.14255">
        <ele>5.54603</ele>
        <time>2022-08-06T10:17:23.000Z</time>
      </trkpt>
      <trkpt lat="49.23807" lon="-0.14263">
        <ele>5.55296</ele>
        <time>2022-08-06T10:17:24.000Z</time>
      </trkpt>
      <trkpt lat="49.23806" lon="-0.1427">
        <ele>5.560129</ele>
        <time>2022-08-06T10:17:25.000Z</time>
      </trkpt>
      <trkpt lat="49.23805" lon="-0.14278">
        <ele>5.567576</ele>
        <time>2022-08-06T10:17:26.000Z</time>
      </trkpt>
      <trkpt lat="49.23804" lon="-0.14285">
        <ele>5.574561</ele>
        <time>2022-08-06T10:17:27.000Z</time>
      </trkpt>
      <trkpt lat="49.23802" lon="-0.14293">
        <ele>5.580635</ele>
        <time>2022-08-06T10:17:28.000Z</time>
      </trkpt>
      <trkpt lat="49.23801" lon="-0.14301">
        <ele>5.586212</ele>
        <time>2022-08-06T10:17:29.000Z</time>
      </trkpt>
      <trkpt lat="49.23799" lon="-0.14308">
        <ele>5.591542</ele>
        <time>2022-08-06T10:17:30.000Z</time>
      </trkpt>
      <trkpt lat="49.23799" lon="-0.14316">
        <ele>5.596771</ele>
        <time>2022-08-06T10:17:31.000Z</time>
      </trkpt>
      <trkpt lat="49.23798" lon="-0.14323">
        <ele>5.601986</ele>
        <time>2022-08-06T10:17:32.000Z</time>
      </trkpt>
      <trkpt lat="49.23798" lon="-0.14331">
        <ele>5.607173</ele>
        <time>2022-08-06T10:17:33.000Z</time>
      </trkpt>
      <trkpt lat="49.23797" lon="-0.14338">
        <ele>5.612538</ele>
        <time>2022-08-06T10:17:34.000Z</time>
      </trkpt>
      <trkpt lat="49.23797" lon="-0.14346">
        <ele>5.617784</ele>
        <time>2022-08-06T10:17:35.000Z</time>
      </trkpt>
      <trkpt lat="49.23797" lon="-0.14354">
        <ele>5.623237</ele>
        <time>2022-08-06T10:17:36.000Z</time>
      </trkpt>
      <trkpt lat="49.23797" lon="-0.14362">
        <ele>5.62862</ele>
        <time>2022-08-06T10:17:37.000Z</time>
      </trkpt>
      <trkpt lat="49.23797" lon="-0.1437">
        <ele>5.634151</ele>
        <time>2022-08-06T10:17:38.000Z</time>
      </trkpt>
      <trkpt lat="49.23797" lon="-0.14377">
        <ele>5.639544</ele>
        <time>2022-08-06T10:17:39.000Z</time>
      </trkpt>
      <trkpt lat="49.23796" lon="-0.14385">
        <ele>5.64491</ele>
        <time>2022-08-06T10:17:40.000Z</time>
      </trkpt>
      <trkpt lat="49.23794" lon="-0.14393">
        <ele>5.650356</ele>
        <time>2022-08-06T10:17:41.000Z</time>
      </trkpt>
      <trkpt lat="49.23792" lon="-0.144">
        <ele>5.65578</ele>
        <time>2022-08-06T10:17:42.000Z</time>
      </trkpt>
      <trkpt lat="49.23789" lon="-0.14406">
        <ele>5.661343</ele>
        <time>2022-08-06T10:17:43.000Z</time>
      </trkpt>
      <trkpt lat="49.23786" lon="-0.14412">
        <ele>5.66648</ele>
        <time>2022-08-06T10:17:44.000Z</time>
      </trkpt>
      <trkpt lat="49.23782" lon="-0.14417">
        <ele>5.671731</ele>
        <time>2022-08-06T10:17:45.000Z</time>
      </trkpt>
      <trkpt lat="49.23778" lon="-0.14421">
        <ele>5.676893</ele>
        <time>2022-08-06T10:17:46.000Z</time>
      </trkpt>
      <trkpt lat="49.23774" lon="-0.14425">
        <ele>5.682031</ele>
        <time>2022-08-06T10:17:47.000Z</time>
      </trkpt>
      <trkpt lat="49.2377" lon="-0.14429">
        <ele>5.686993</ele>
        <time>2022-08-06T10:17:48.000Z</time>
      </trkpt>
      <trkpt lat="49.23765" lon="-0.14433">
        <ele>5.692803</ele>
        <time>2022-08-06T10:17:49.000Z</time>
      </trkpt>
      <trkpt lat="49.23762" lon="-0.14437">
        <ele>5.697677</ele>
        <time>2022-08-06T10:17:50.000Z</time>
      </trkpt>
      <trkpt lat="49.23757" lon="-0.14441">
        <ele>5.702869</ele>
        <time>2022-08-06T10:17:51.000Z</time>
      </trkpt>
      <trkpt lat="49.23754" lon="-0.14445">
        <ele>5.707744</ele>
        <time>2022-08-06T10:17:52.000Z</time>
      </trkpt>
      <trkpt lat="49.23749" lon="-0.14449">
        <ele>5.712831</ele>
        <time>2022-08-06T10:17:53.000Z</time>
      </trkpt>
      <trkpt lat="49.23745" lon="-0.14453">
        <ele>5.717862</ele>
        <time>2022-08-06T10:17:54.000Z</time>
      </trkpt>
      <trkpt lat="49.23741" lon="-0.14456">
        <ele>5.722917</ele>
        <time>2022-08-06T10:17:55.000Z</time>
      </trkpt>
      <trkpt lat="49.23737" lon="-0.14459">
        <ele>5.727534</ele>
        <time>2022-08-06T10:17:56.000Z</time>
      </trkpt>
      <trkpt lat="49.23733" lon="-0.14463">
        <ele>5.732211</ele>
        <time>2022-08-06T10:17:57.000Z</time>
      </trkpt>
      <trkpt lat="49.2373" lon="-0.14466">
        <ele>5.736829</ele>
        <time>2022-08-06T10:17:58.000Z</time>
      </trkpt>
      <trkpt lat="49.23726" lon="-0.14469">
        <ele>5.741413</ele>
        <time>2022-08-06T10:17:59.000Z</time>
      </trkpt>
      <trkpt lat="49.23722" lon="-0.14473">
        <ele>5.746468</ele>
        <time>2022-08-06T10:18:00.000Z</time>
      </trkpt>
      <trkpt lat="49.23717" lon="-0.14476">
        <ele>5.751458</ele>
        <time>2022-08-06T10:18:01.000Z</time>
      </trkpt>
      <trkpt lat="49.23713" lon="-0.14479">
        <ele>5.756261</ele>
        <time>2022-08-06T10:18:02.000Z</time>
      </trkpt>
      <trkpt lat="49.23709" lon="-0.14482">
        <ele>5.76122</ele>
        <time>2022-08-06T10:18:03.000Z</time>
      </trkpt>
      <trkpt lat="49.23705" lon="-0.14485">
        <ele>5.766355</ele>
        <time>2022-08-06T10:18:04.000Z</time>
      </trkpt>
      <trkpt lat="49.23701" lon="-0.14488">
        <ele>5.774866</ele>
        <time>2022-08-06T10:18:05.000Z</time>
      </trkpt>
      <trkpt lat="49.23696" lon="-0.1449">
        <ele>5.785022</ele>
        <time>2022-08-06T10:18:06.000Z</time>
      </trkpt>
      <trkpt lat="49.23691" lon="-0.14492">
        <ele>5.794761</ele>
        <time>2022-08-06T10:18:07.000Z</time>
      </trkpt>
      <trkpt lat="49.23687" lon="-0.14495">
        <ele>5.804455</ele>
        <time>2022-08-06T10:18:08.000Z</time>
      </trkpt>
      <trkpt lat="49.23682" lon="-0.14497">
        <ele>5.814509</ele>
        <time>2022-08-06T10:18:09.000Z</time>
      </trkpt>
      <trkpt lat="49.23677" lon="-0.14498">
        <ele>5.823825</ele>
        <time>2022-08-06T10:18:10.000Z</time>
      </trkpt>
      <trkpt lat="49.23673" lon="-0.14499">
        <ele>5.833719</ele>
        <time>2022-08-06T10:18:11.000Z</time>
      </trkpt>
      <trkpt lat="49.23668" lon="-0.145">
        <ele>5.844136</ele>
        <time>2022-08-06T10:18:12.000Z</time>
      </trkpt>
      <trkpt lat="49.23663" lon="-0.145">
        <ele>5.853924</ele>
        <time>2022-08-06T10:18:13.000Z</time>
      </trkpt>
      <trkpt lat="49.23658" lon="-0.14501">
        <ele>5.86433</ele>
        <time>2022-08-06T10:18:14.000Z</time>
      </trkpt>
      <trkpt lat="49.23653" lon="-0.14502">
        <ele>5.874168</ele>
        <time>2022-08-06T10:18:15.000Z</time>
      </trkpt>
      <trkpt lat="49.23648" lon="-0.14503">
        <ele>5.884085</ele>
        <time>2022-08-06T10:18:16.000Z</time>
      </trkpt>
      <trkpt lat="49.23644" lon="-0.14504">
        <ele>5.893336</ele>
        <time>2022-08-06T10:18:17.000Z</time>
      </trkpt>
      <trkpt lat="49.23638" lon="-0.14505">
        <ele>5.903733</ele>
        <time>2022-08-06T10:18:18.000Z</time>
      </trkpt>
      <trkpt lat="49.23634" lon="-0.14505">
        <ele>5.912891</ele>
        <time>2022-08-06T10:18:19.000Z</time>
      </trkpt>
      <trkpt lat="49.23629" lon="-0.14504">
        <ele>5.922671</ele>
        <time>2022-08-06T10:18:20.000Z</time>
      </trkpt>
      <trkpt lat="49.23624" lon="-0.14504">
        <ele>5.933054</ele>
        <time>2022-08-06T10:18:21.000Z</time>
      </trkpt>
      <trkpt lat="49.23619" lon="-0.14503">
        <ele>5.942877</ele>
        <time>2022-08-06T10:18:22.000Z</time>
      </trkpt>
      <trkpt lat="49.23614" lon="-0.14502">
        <ele>5.952818</ele>
        <time>2022-08-06T10:18:23.000Z</time>
      </trkpt>
      <trkpt lat="49.2361" lon="-0.145">
        <ele>5.962187</ele>
        <time>2022-08-06T10:18:24.000Z</time>
      </trkpt>
      <trkpt lat="49.23605" lon="-0.14498">
        <ele>5.971757</ele>
        <time>2022-08-06T10:18:25.000Z</time>
      </trkpt>
      <trkpt lat="49.23602" lon="-0.14496">
        <ele>5.980022</ele>
        <time>2022-08-06T10:18:26.000Z</time>
      </trkpt>
      <trkpt lat="49.23598" lon="-0.14494">
        <ele>5.987719</ele>
        <time>2022-08-06T10:18:27.000Z</time>
      </trkpt>
      <trkpt lat="49.23595" lon="-0.14492">
        <ele>5.99515</ele>
        <time>2022-08-06T10:18:28.000Z</time>
      </trkpt>
      <trkpt lat="49.23591" lon="-0.14491">
        <ele>6.003194</ele>
        <time>2022-08-06T10:18:29.000Z</time>
      </trkpt>
      <trkpt lat="49.23588" lon="-0.14491">
        <ele>6.009771</ele>
        <time>2022-08-06T10:18:30.000Z</time>
      </trkpt>
      <trkpt lat="49.23583" lon="-0.1449">
        <ele>6.018116</ele>
        <time>2022-08-06T10:18:31.000Z</time>
      </trkpt>
      <trkpt lat="49.2358" lon="-0.1449">
        <ele>6.026078</ele>
        <time>2022-08-06T10:18:32.000Z</time>
      </trkpt>
      <trkpt lat="49.23575" lon="-0.1449">
        <ele>6.035857</ele>
        <time>2022-08-06T10:18:33.000Z</time>
      </trkpt>
      <trkpt lat="49.23571" lon="-0.14491">
        <ele>6.044225</ele>
        <time>2022-08-06T10:18:34.000Z</time>
      </trkpt>
      <trkpt lat="49.23567" lon="-0.14492">
        <ele>6.052406</ele>
        <time>2022-08-06T10:18:35.000Z</time>
      </trkpt>
      <trkpt lat="49.23563" lon="-0.14494">
        <ele>6.060981</ele>
        <time>2022-08-06T10:18:36.000Z</time>
      </trkpt>
      <trkpt lat="49.23559" lon="-0.14496">
        <ele>6.069268</ele>
        <time>2022-08-06T10:18:37.000Z</time>
      </trkpt>
      <trkpt lat="49.23555" lon="-0.14498">
        <ele>6.078022</ele>
        <time>2022-08-06T10:18:38.000Z</time>
      </trkpt>
      <trkpt lat="49.2355" lon="-0.145">
        <ele>6.08697</ele>
        <time>2022-08-06T10:18:39.000Z</time>
      </trkpt>
      <trkpt lat="49.23547" lon="-0.14501">
        <ele>6.095024</ele>
        <time>2022-08-06T10:18:40.000Z</time>
      </trkpt>
      <trkpt lat="49.23542" lon="-0.14503">
        <ele>6.103798</ele>
        <time>2022-08-06T10:18:41.000Z</time>
      </trkpt>
      <trkpt lat="49.23539" lon="-0.14504">
        <ele>6.111665</ele>
        <time>2022-08-06T10:18:42.000Z</time>
      </trkpt>
      <trkpt lat="49.23535" lon="-0.14505">
        <ele>6.119109</ele>
        <time>2022-08-06T10:18:43.000Z</time>
      </trkpt>
      <trkpt lat="49.23532" lon="-0.14506">
        <ele>6.125811</ele>
        <time>2022-08-06T10:18:44.000Z</time>
      </trkpt>
      <trkpt lat="49.23528" lon="-0.14507">
        <ele>6.131719</ele>
        <time>2022-08-06T10:18:45.000Z</time>
      </trkpt>
      <trkpt lat="49.23524" lon="-0.14508">
        <ele>6.1179</ele>
        <time>2022-08-06T10:18:46.000Z</time>
      </trkpt>
      <trkpt lat="49.2352" lon="-0.14509">
        <ele>6.103649</ele>
        <time>2022-08-06T10:18:47.000Z</time>
      </trkpt>
      <trkpt lat="49.23517" lon="-0.1451">
        <ele>6.089793</ele>
        <time>2022-08-06T10:18:48.000Z</time>
      </trkpt>
      <trkpt lat="49.23513" lon="-0.14511">
        <ele>6.075728</ele>
        <time>2022-08-06T10:18:49.000Z</time>
      </trkpt>
      <trkpt lat="49.23509" lon="-0.14511">
        <ele>6.062064</ele>
        <time>2022-08-06T10:18:50.000Z</time>
      </trkpt>
      <trkpt lat="49.23505" lon="-0.14512">
        <ele>6.048309</ele>
        <time>2022-08-06T10:18:51.000Z</time>
      </trkpt>
      <trkpt lat="49.23501" lon="-0.14513">
        <ele>6.034098</ele>
        <time>2022-08-06T10:18:52.000Z</time>
      </trkpt>
      <trkpt lat="49.23497" lon="-0.14514">
        <ele>6.020105</ele>
        <time>2022-08-06T10:18:53.000Z</time>
      </trkpt>
      <trkpt lat="49.23493" lon="-0.14515">
        <ele>6.005809</ele>
        <time>2022-08-06T10:18:54.000Z</time>
      </trkpt>
      <trkpt lat="49.23489" lon="-0.14517">
        <ele>5.990763</ele>
        <time>2022-08-06T10:18:55.000Z</time>
      </trkpt>
      <trkpt lat="49.23485" lon="-0.14518">
        <ele>5.976312</ele>
        <time>2022-08-06T10:18:56.000Z</time>
      </trkpt>
      <trkpt lat="49.23482" lon="-0.1452">
        <ele>5.962209</ele>
        <time>2022-08-06T10:18:57.000Z</time>
      </trkpt>
      <trkpt lat="49.23478" lon="-0.14522">
        <ele>5.949079</ele>
        <time>2022-08-06T10:18:58.000Z</time>
      </trkpt>
      <trkpt lat="49.23475" lon="-0.14525">
        <ele>5.934665</ele>
        <time>2022-08-06T10:18:59.000Z</time>
      </trkpt>
      <trkpt lat="49.23472" lon="-0.14528">
        <ele>5.923506</ele>
        <time>2022-08-06T10:19:00.000Z</time>
      </trkpt>
      <trkpt lat="49.2347" lon="-0.14529">
        <ele>5.914944</ele>
        <time>2022-08-06T10:19:01.000Z</time>
      </trkpt>
      <trkpt lat="49.23468" lon="-0.14529">
        <ele>5.9081</ele>
        <time>2022-08-06T10:19:02.000Z</time>
      </trkpt>
      <trkpt lat="49.23467" lon="-0.14522">
        <ele>5.891285</ele>
        <time>2022-08-06T10:19:12.000Z</time>
      </trkpt>
      <trkpt lat="49.2347" lon="-0.14522">
        <ele>5.880853</ele>
        <time>2022-08-06T10:19:14.000Z</time>
      </trkpt>
      <trkpt lat="49.23474" lon="-0.1452">
        <ele>5.865458</ele>
        <time>2022-08-06T10:19:16.000Z</time>
      </trkpt>
      <trkpt lat="49.23477" lon="-0.14518">
        <ele>5.855835</ele>
        <time>2022-08-06T10:19:18.000Z</time>
      </trkpt>
      <trkpt lat="49.23476" lon="-0.14523">
        <ele>5.843819</ele>
        <time>2022-08-06T10:19:46.000Z</time>
      </trkpt>
      <trkpt lat="49.23475" lon="-0.1452">
        <ele>5.8336</ele>
        <time>2022-08-06T10:21:32.000Z</time>
      </trkpt>
      <trkpt lat="49.23473" lon="-0.1452">
        <ele>5.826397</ele>
        <time>2022-08-06T10:21:33.000Z</time>
      </trkpt>
      <trkpt lat="49.23471" lon="-0.14519">
        <ele>5.819553</ele>
        <time>2022-08-06T10:21:34.000Z</time>
      </trkpt>
      <trkpt lat="49.23468" lon="-0.14519">
        <ele>5.810566</ele>
        <time>2022-08-06T10:21:35.000Z</time>
      </trkpt>
      <trkpt lat="49.23465" lon="-0.14519">
        <ele>5.797594</ele>
        <time>2022-08-06T10:21:36.000Z</time>
      </trkpt>
      <trkpt lat="49.23461" lon="-0.14518">
        <ele>5.783887</ele>
        <time>2022-08-06T10:21:37.000Z</time>
      </trkpt>
      <trkpt lat="49.23457" lon="-0.14518">
        <ele>5.770181</ele>
        <time>2022-08-06T10:21:38.000Z</time>
      </trkpt>
      <trkpt lat="49.23453" lon="-0.14516">
        <ele>5.754682</ele>
        <time>2022-08-06T10:21:39.000Z</time>
      </trkpt>
      <trkpt lat="49.23449" lon="-0.14515">
        <ele>5.739283</ele>
        <time>2022-08-06T10:21:40.000Z</time>
      </trkpt>
      <trkpt lat="49.23444" lon="-0.14513">
        <ele>5.721578</ele>
        <time>2022-08-06T10:21:41.000Z</time>
      </trkpt>
      <trkpt lat="49.23438" lon="-0.14511">
        <ele>5.701304</ele>
        <time>2022-08-06T10:21:42.000Z</time>
      </trkpt>
      <trkpt lat="49.23434" lon="-0.14509">
        <ele>5.68365</ele>
        <time>2022-08-06T10:21:43.000Z</time>
      </trkpt>
      <trkpt lat="49.23429" lon="-0.14507">
        <ele>5.665773</ele>
        <time>2022-08-06T10:21:44.000Z</time>
      </trkpt>
      <trkpt lat="49.23424" lon="-0.14506">
        <ele>5.648068</ele>
        <time>2022-08-06T10:21:45.000Z</time>
      </trkpt>
      <trkpt lat="49.23419" lon="-0.14504">
        <ele>5.630362</ele>
        <time>2022-08-06T10:21:46.000Z</time>
      </trkpt>
      <trkpt lat="49.23414" lon="-0.14502">
        <ele>5.610396</ele>
        <time>2022-08-06T10:21:47.000Z</time>
      </trkpt>
      <trkpt lat="49.23409" lon="-0.145">
        <ele>5.592322</ele>
        <time>2022-08-06T10:21:48.000Z</time>
      </trkpt>
      <trkpt lat="49.23404" lon="-0.14497">
        <ele>5.57287</ele>
        <time>2022-08-06T10:21:49.000Z</time>
      </trkpt>
      <trkpt lat="49.23399" lon="-0.14496">
        <ele>5.555165</ele>
        <time>2022-08-06T10:21:50.000Z</time>
      </trkpt>
      <trkpt lat="49.23394" lon="-0.14495">
        <ele>5.535617</ele>
        <time>2022-08-06T10:21:51.000Z</time>
      </trkpt>
      <trkpt lat="49.23389" lon="-0.14494">
        <ele>5.518289</ele>
        <time>2022-08-06T10:21:52.000Z</time>
      </trkpt>
      <trkpt lat="49.23383" lon="-0.14493">
        <ele>5.498847</ele>
        <time>2022-08-06T10:21:53.000Z</time>
      </trkpt>
      <trkpt lat="49.23378" lon="-0.14494">
        <ele>5.481364</ele>
        <time>2022-08-06T10:21:54.000Z</time>
      </trkpt>
      <trkpt lat="49.23373" lon="-0.14494">
        <ele>5.468531</ele>
        <time>2022-08-06T10:21:55.000Z</time>
      </trkpt>
      <trkpt lat="49.23367" lon="-0.14495">
        <ele>5.454915</ele>
        <time>2022-08-06T10:21:56.000Z</time>
      </trkpt>
      <trkpt lat="49.23362" lon="-0.14497">
        <ele>5.440133</ele>
        <time>2022-08-06T10:21:57.000Z</time>
      </trkpt>
      <trkpt lat="49.23356" lon="-0.14499">
        <ele>5.426333</ele>
        <time>2022-08-06T10:21:58.000Z</time>
      </trkpt>
      <trkpt lat="49.23351" lon="-0.14501">
        <ele>5.41269</ele>
        <time>2022-08-06T10:21:59.000Z</time>
      </trkpt>
      <trkpt lat="49.23346" lon="-0.14504">
        <ele>5.39852</ele>
        <time>2022-08-06T10:22:00.000Z</time>
      </trkpt>
      <trkpt lat="49.2334" lon="-0.14507">
        <ele>5.384301</ele>
        <time>2022-08-06T10:22:01.000Z</time>
      </trkpt>
      <trkpt lat="49.23334" lon="-0.14509">
        <ele>5.369078</ele>
        <time>2022-08-06T10:22:02.000Z</time>
      </trkpt>
      <trkpt lat="49.23329" lon="-0.14512">
        <ele>5.353805</ele>
        <time>2022-08-06T10:22:03.000Z</time>
      </trkpt>
      <trkpt lat="49.23324" lon="-0.14515">
        <ele>5.340243</ele>
        <time>2022-08-06T10:22:04.000Z</time>
      </trkpt>
      <trkpt lat="49.23318" lon="-0.14518">
        <ele>5.325308</ele>
        <time>2022-08-06T10:22:05.000Z</time>
      </trkpt>
      <trkpt lat="49.23312" lon="-0.1452">
        <ele>5.31018</ele>
        <time>2022-08-06T10:22:06.000Z</time>
      </trkpt>
      <trkpt lat="49.23307" lon="-0.14523">
        <ele>5.296058</ele>
        <time>2022-08-06T10:22:07.000Z</time>
      </trkpt>
      <trkpt lat="49.23301" lon="-0.14526">
        <ele>5.282206</ele>
        <time>2022-08-06T10:22:08.000Z</time>
      </trkpt>
      <trkpt lat="49.23296" lon="-0.14529">
        <ele>5.267118</ele>
        <time>2022-08-06T10:22:09.000Z</time>
      </trkpt>
      <trkpt lat="49.2329" lon="-0.14532">
        <ele>5.25163</ele>
        <time>2022-08-06T10:22:10.000Z</time>
      </trkpt>
      <trkpt lat="49.23284" lon="-0.14536">
        <ele>5.236133</ele>
        <time>2022-08-06T10:22:11.000Z</time>
      </trkpt>
      <trkpt lat="49.23278" lon="-0.1454">
        <ele>5.22021</ele>
        <time>2022-08-06T10:22:12.000Z</time>
      </trkpt>
      <trkpt lat="49.23273" lon="-0.14544">
        <ele>5.204079</ele>
        <time>2022-08-06T10:22:13.000Z</time>
      </trkpt>
      <trkpt lat="49.23267" lon="-0.14549">
        <ele>5.187874</ele>
        <time>2022-08-06T10:22:14.000Z</time>
      </trkpt>
      <trkpt lat="49.23261" lon="-0.14554">
        <ele>5.171133</ele>
        <time>2022-08-06T10:22:15.000Z</time>
      </trkpt>
      <trkpt lat="49.23256" lon="-0.14559">
        <ele>5.155165</ele>
        <time>2022-08-06T10:22:16.000Z</time>
      </trkpt>
      <trkpt lat="49.2325" lon="-0.14564">
        <ele>5.138258</ele>
        <time>2022-08-06T10:22:17.000Z</time>
      </trkpt>
      <trkpt lat="49.23245" lon="-0.14569">
        <ele>5.122546</ele>
        <time>2022-08-06T10:22:18.000Z</time>
      </trkpt>
      <trkpt lat="49.23239" lon="-0.14574">
        <ele>5.10773</ele>
        <time>2022-08-06T10:22:19.000Z</time>
      </trkpt>
      <trkpt lat="49.23234" lon="-0.14579">
        <ele>5.092447</ele>
        <time>2022-08-06T10:22:20.000Z</time>
      </trkpt>
      <trkpt lat="49.23229" lon="-0.14584">
        <ele>5.077288</ele>
        <time>2022-08-06T10:22:21.000Z</time>
      </trkpt>
      <trkpt lat="49.23224" lon="-0.14588">
        <ele>5.062472</ele>
        <time>2022-08-06T10:22:22.000Z</time>
      </trkpt>
      <trkpt lat="49.23219" lon="-0.14593">
        <ele>5.047573</ele>
        <time>2022-08-06T10:22:23.000Z</time>
      </trkpt>
      <trkpt lat="49.23214" lon="-0.14598">
        <ele>5.034905</ele>
        <time>2022-08-06T10:22:24.000Z</time>
      </trkpt>
      <trkpt lat="49.23209" lon="-0.14603">
        <ele>5.028136</ele>
        <time>2022-08-06T10:22:25.000Z</time>
      </trkpt>
      <trkpt lat="49.23204" lon="-0.14608">
        <ele>5.021722</ele>
        <time>2022-08-06T10:22:26.000Z</time>
      </trkpt>
      <trkpt lat="49.23199" lon="-0.14613">
        <ele>5.015087</ele>
        <time>2022-08-06T10:22:27.000Z</time>
      </trkpt>
      <trkpt lat="49.23194" lon="-0.14618">
        <ele>5.008793</ele>
        <time>2022-08-06T10:22:28.000Z</time>
      </trkpt>
      <trkpt lat="49.23189" lon="-0.14622">
        <ele>5.002166</ele>
        <time>2022-08-06T10:22:29.000Z</time>
      </trkpt>
      <trkpt lat="49.23183" lon="-0.14625">
        <ele>4.9956</ele>
        <time>2022-08-06T10:22:30.000Z</time>
      </trkpt>
      <trkpt lat="49.23179" lon="-0.1463">
        <ele>4.989382</ele>
        <time>2022-08-06T10:22:31.000Z</time>
      </trkpt>
      <trkpt lat="49.23173" lon="-0.14635">
        <ele>4.982711</ele>
        <time>2022-08-06T10:22:32.000Z</time>
      </trkpt>
      <trkpt lat="49.23168" lon="-0.14639">
        <ele>4.97638</ele>
        <time>2022-08-06T10:22:33.000Z</time>
      </trkpt>
      <trkpt lat="49.23163" lon="-0.14643">
        <ele>4.969983</ele>
        <time>2022-08-06T10:22:34.000Z</time>
      </trkpt>
      <trkpt lat="49.23158" lon="-0.14647">
        <ele>4.96391</ele>
        <time>2022-08-06T10:22:35.000Z</time>
      </trkpt>
      <trkpt lat="49.23153" lon="-0.14651">
        <ele>4.956883</ele>
        <time>2022-08-06T10:22:36.000Z</time>
      </trkpt>
      <trkpt lat="49.23148" lon="-0.14654">
        <ele>4.950708</ele>
        <time>2022-08-06T10:22:37.000Z</time>
      </trkpt>
      <trkpt lat="49.23142" lon="-0.14658">
        <ele>4.94395</ele>
        <time>2022-08-06T10:22:38.000Z</time>
      </trkpt>
      <trkpt lat="49.23137" lon="-0.14661">
        <ele>4.937785</ele>
        <time>2022-08-06T10:22:39.000Z</time>
      </trkpt>
      <trkpt lat="49.23131" lon="-0.14664">
        <ele>4.931438</ele>
        <time>2022-08-06T10:22:40.000Z</time>
      </trkpt>
      <trkpt lat="49.23126" lon="-0.14667">
        <ele>4.925116</ele>
        <time>2022-08-06T10:22:41.000Z</time>
      </trkpt>
      <trkpt lat="49.23121" lon="-0.14669">
        <ele>4.919095</ele>
        <time>2022-08-06T10:22:42.000Z</time>
      </trkpt>
      <trkpt lat="49.23115" lon="-0.14671">
        <ele>4.912618</ele>
        <time>2022-08-06T10:22:43.000Z</time>
      </trkpt>
      <trkpt lat="49.23109" lon="-0.14674">
        <ele>4.90598</ele>
        <time>2022-08-06T10:22:44.000Z</time>
      </trkpt>
      <trkpt lat="49.23103" lon="-0.14676">
        <ele>4.899429</ele>
        <time>2022-08-06T10:22:45.000Z</time>
      </trkpt>
      <trkpt lat="49.23097" lon="-0.14679">
        <ele>4.892489</ele>
        <time>2022-08-06T10:22:46.000Z</time>
      </trkpt>
      <trkpt lat="49.23092" lon="-0.14681">
        <ele>4.885869</ele>
        <time>2022-08-06T10:22:47.000Z</time>
      </trkpt>
      <trkpt lat="49.23086" lon="-0.14683">
        <ele>4.879696</ele>
        <time>2022-08-06T10:22:48.000Z</time>
      </trkpt>
      <trkpt lat="49.2308" lon="-0.14685">
        <ele>4.873077</ele>
        <time>2022-08-06T10:22:49.000Z</time>
      </trkpt>
      <trkpt lat="49.23074" lon="-0.14688">
        <ele>4.866118</ele>
        <time>2022-08-06T10:22:50.000Z</time>
      </trkpt>
      <trkpt lat="49.23069" lon="-0.1469">
        <ele>4.860302</ele>
        <time>2022-08-06T10:22:51.000Z</time>
      </trkpt>
      <trkpt lat="49.23063" lon="-0.14692">
        <ele>4.853825</ele>
        <time>2022-08-06T10:22:52.000Z</time>
      </trkpt>
      <trkpt lat="49.23057" lon="-0.14694">
        <ele>4.846848</ele>
        <time>2022-08-06T10:22:53.000Z</time>
      </trkpt>
      <trkpt lat="49.23052" lon="-0.14697">
        <ele>4.840398</ele>
        <time>2022-08-06T10:22:54.000Z</time>
      </trkpt>
      <trkpt lat="49.23046" lon="-0.14701">
        <ele>4.84306</ele>
        <time>2022-08-06T10:22:55.000Z</time>
      </trkpt>
      <trkpt lat="49.2304" lon="-0.14704">
        <ele>4.852428</ele>
        <time>2022-08-06T10:22:56.000Z</time>
      </trkpt>
      <trkpt lat="49.23035" lon="-0.14707">
        <ele>4.861585</ele>
        <time>2022-08-06T10:22:57.000Z</time>
      </trkpt>
      <trkpt lat="49.23029" lon="-0.14711">
        <ele>4.870201</ele>
        <time>2022-08-06T10:22:58.000Z</time>
      </trkpt>
      <trkpt lat="49.23024" lon="-0.14715">
        <ele>4.879429</ele>
        <time>2022-08-06T10:22:59.000Z</time>
      </trkpt>
      <trkpt lat="49.23018" lon="-0.14718">
        <ele>4.888456</ele>
        <time>2022-08-06T10:23:00.000Z</time>
      </trkpt>
      <trkpt lat="49.23013" lon="-0.14722">
        <ele>4.897685</ele>
        <time>2022-08-06T10:23:01.000Z</time>
      </trkpt>
      <trkpt lat="49.23007" lon="-0.14725">
        <ele>4.906004</ele>
        <time>2022-08-06T10:23:02.000Z</time>
      </trkpt>
      <trkpt lat="49.23002" lon="-0.14729">
        <ele>4.914954</ele>
        <time>2022-08-06T10:23:03.000Z</time>
      </trkpt>
      <trkpt lat="49.22997" lon="-0.14732">
        <ele>4.923691</ele>
        <time>2022-08-06T10:23:04.000Z</time>
      </trkpt>
      <trkpt lat="49.22991" lon="-0.14735">
        <ele>4.93289</ele>
        <time>2022-08-06T10:23:05.000Z</time>
      </trkpt>
      <trkpt lat="49.22985" lon="-0.14738">
        <ele>4.941916</ele>
        <time>2022-08-06T10:23:06.000Z</time>
      </trkpt>
      <trkpt lat="49.22979" lon="-0.14741">
        <ele>4.951054</ele>
        <time>2022-08-06T10:23:07.000Z</time>
      </trkpt>
      <trkpt lat="49.22974" lon="-0.14743">
        <ele>4.959101</ele>
        <time>2022-08-06T10:23:08.000Z</time>
      </trkpt>
      <trkpt lat="49.22969" lon="-0.14746">
        <ele>4.967722</ele>
        <time>2022-08-06T10:23:09.000Z</time>
      </trkpt>
      <trkpt lat="49.22963" lon="-0.14748">
        <ele>4.976631</ele>
        <time>2022-08-06T10:23:10.000Z</time>
      </trkpt>
      <trkpt lat="49.22957" lon="-0.1475">
        <ele>4.985634</ele>
        <time>2022-08-06T10:23:11.000Z</time>
      </trkpt>
      <trkpt lat="49.22951" lon="-0.14753">
        <ele>4.9946</ele>
        <time>2022-08-06T10:23:12.000Z</time>
      </trkpt>
      <trkpt lat="49.22946" lon="-0.14756">
        <ele>5.003221</ele>
        <time>2022-08-06T10:23:13.000Z</time>
      </trkpt>
      <trkpt lat="49.2294" lon="-0.14758">
        <ele>5.012079</ele>
        <time>2022-08-06T10:23:14.000Z</time>
      </trkpt>
      <trkpt lat="49.22934" lon="-0.1476">
        <ele>5.021107</ele>
        <time>2022-08-06T10:23:15.000Z</time>
      </trkpt>
      <trkpt lat="49.22929" lon="-0.14763">
        <ele>5.030245</ele>
        <time>2022-08-06T10:23:16.000Z</time>
      </trkpt>
      <trkpt lat="49.22923" lon="-0.14766">
        <ele>5.038946</ele>
        <time>2022-08-06T10:23:17.000Z</time>
      </trkpt>
      <trkpt lat="49.22917" lon="-0.1477">
        <ele>5.048243</ele>
        <time>2022-08-06T10:23:18.000Z</time>
      </trkpt>
      <trkpt lat="49.22912" lon="-0.14773">
        <ele>5.057472</ele>
        <time>2022-08-06T10:23:19.000Z</time>
      </trkpt>
      <trkpt lat="49.22906" lon="-0.14776">
        <ele>5.066313</ele>
        <time>2022-08-06T10:23:20.000Z</time>
      </trkpt>
      <trkpt lat="49.22901" lon="-0.14779">
        <ele>5.07537</ele>
        <time>2022-08-06T10:23:21.000Z</time>
      </trkpt>
      <trkpt lat="49.22895" lon="-0.14782">
        <ele>5.084508</ele>
        <time>2022-08-06T10:23:22.000Z</time>
      </trkpt>
      <trkpt lat="49.22889" lon="-0.14785">
        <ele>5.093044</ele>
        <time>2022-08-06T10:23:23.000Z</time>
      </trkpt>
      <trkpt lat="49.22884" lon="-0.14788">
        <ele>5.102243</ele>
        <time>2022-08-06T10:23:24.000Z</time>
      </trkpt>
      <trkpt lat="49.22878" lon="-0.14791">
        <ele>5.110248</ele>
        <time>2022-08-06T10:23:25.000Z</time>
      </trkpt>
      <trkpt lat="49.22873" lon="-0.14793">
        <ele>5.117666</ele>
        <time>2022-08-06T10:23:26.000Z</time>
      </trkpt>
      <trkpt lat="49.22869" lon="-0.14796">
        <ele>5.124724</ele>
        <time>2022-08-06T10:23:27.000Z</time>
      </trkpt>
      <trkpt lat="49.22863" lon="-0.14799">
        <ele>5.132724</ele>
        <time>2022-08-06T10:23:28.000Z</time>
      </trkpt>
      <trkpt lat="49.22858" lon="-0.14801">
        <ele>5.14051</ele>
        <time>2022-08-06T10:23:29.000Z</time>
      </trkpt>
      <trkpt lat="49.22853" lon="-0.14804">
        <ele>5.147957</ele>
        <time>2022-08-06T10:23:30.000Z</time>
      </trkpt>
      <trkpt lat="49.22847" lon="-0.14807">
        <ele>5.155348</ele>
        <time>2022-08-06T10:23:31.000Z</time>
      </trkpt>
      <trkpt lat="49.22843" lon="-0.14809">
        <ele>5.162406</ele>
        <time>2022-08-06T10:23:32.000Z</time>
      </trkpt>
      <trkpt lat="49.22838" lon="-0.14812">
        <ele>5.169433</ele>
        <time>2022-08-06T10:23:33.000Z</time>
      </trkpt>
      <trkpt lat="49.22833" lon="-0.14815">
        <ele>5.176555</ele>
        <time>2022-08-06T10:23:34.000Z</time>
      </trkpt>
      <trkpt lat="49.22828" lon="-0.14817">
        <ele>5.183582</ele>
        <time>2022-08-06T10:23:35.000Z</time>
      </trkpt>
      <trkpt lat="49.22823" lon="-0.1482">
        <ele>5.190639</ele>
        <time>2022-08-06T10:23:36.000Z</time>
      </trkpt>
      <trkpt lat="49.22818" lon="-0.14823">
        <ele>5.198218</ele>
        <time>2022-08-06T10:23:37.000Z</time>
      </trkpt>
      <trkpt lat="49.22813" lon="-0.14825">
        <ele>5.205245</ele>
        <time>2022-08-06T10:23:38.000Z</time>
      </trkpt>
      <trkpt lat="49.22808" lon="-0.14828">
        <ele>5.212753</ele>
        <time>2022-08-06T10:23:39.000Z</time>
      </trkpt>
      <trkpt lat="49.22804" lon="-0.14831">
        <ele>5.21978</ele>
        <time>2022-08-06T10:23:40.000Z</time>
      </trkpt>
      <trkpt lat="49.22798" lon="-0.14834">
        <ele>5.227289</ele>
        <time>2022-08-06T10:23:41.000Z</time>
      </trkpt>
      <trkpt lat="49.22794" lon="-0.14837">
        <ele>5.234479</ele>
        <time>2022-08-06T10:23:42.000Z</time>
      </trkpt>
      <trkpt lat="49.22789" lon="-0.14841">
        <ele>5.241528</ele>
        <time>2022-08-06T10:23:43.000Z</time>
      </trkpt>
      <trkpt lat="49.22784" lon="-0.14844">
        <ele>5.248866</ele>
        <time>2022-08-06T10:23:44.000Z</time>
      </trkpt>
      <trkpt lat="49.2278" lon="-0.14847">
        <ele>5.255714</ele>
        <time>2022-08-06T10:23:45.000Z</time>
      </trkpt>
      <trkpt lat="49.22775" lon="-0.1485">
        <ele>5.262398</ele>
        <time>2022-08-06T10:23:46.000Z</time>
      </trkpt>
      <trkpt lat="49.22771" lon="-0.14854">
        <ele>5.269698</ele>
        <time>2022-08-06T10:23:47.000Z</time>
      </trkpt>
      <trkpt lat="49.22766" lon="-0.14857">
        <ele>5.277035</ele>
        <time>2022-08-06T10:23:48.000Z</time>
      </trkpt>
      <trkpt lat="49.2276" lon="-0.14861">
        <ele>5.285256</ele>
        <time>2022-08-06T10:23:49.000Z</time>
      </trkpt>
      <trkpt lat="49.22755" lon="-0.14864">
        <ele>5.293006</ele>
        <time>2022-08-06T10:23:50.000Z</time>
      </trkpt>
      <trkpt lat="49.2275" lon="-0.14868">
        <ele>5.300874</ele>
        <time>2022-08-06T10:23:51.000Z</time>
      </trkpt>
      <trkpt lat="49.22745" lon="-0.14872">
        <ele>5.30846</ele>
        <time>2022-08-06T10:23:52.000Z</time>
      </trkpt>
      <trkpt lat="49.2274" lon="-0.14877">
        <ele>5.316584</ele>
        <time>2022-08-06T10:23:53.000Z</time>
      </trkpt>
      <trkpt lat="49.22735" lon="-0.14881">
        <ele>5.324214</ele>
        <time>2022-08-06T10:23:54.000Z</time>
      </trkpt>
      <trkpt lat="49.2273" lon="-0.14885">
        <ele>5.332328</ele>
        <time>2022-08-06T10:23:55.000Z</time>
      </trkpt>
      <trkpt lat="49.22725" lon="-0.14889">
        <ele>5.339871</ele>
        <time>2022-08-06T10:23:56.000Z</time>
      </trkpt>
      <trkpt lat="49.2272" lon="-0.14894">
        <ele>5.347994</ele>
        <time>2022-08-06T10:23:57.000Z</time>
      </trkpt>
      <trkpt lat="49.22715" lon="-0.14898">
        <ele>5.356092</ele>
        <time>2022-08-06T10:23:58.000Z</time>
      </trkpt>
      <trkpt lat="49.2271" lon="-0.14903">
        <ele>5.352863</ele>
        <time>2022-08-06T10:23:59.000Z</time>
      </trkpt>
      <trkpt lat="49.22705" lon="-0.14907">
        <ele>5.34925</ele>
        <time>2022-08-06T10:24:00.000Z</time>
      </trkpt>
      <trkpt lat="49.227" lon="-0.14912">
        <ele>5.345919</ele>
        <time>2022-08-06T10:24:01.000Z</time>
      </trkpt>
      <trkpt lat="49.22695" lon="-0.14917">
        <ele>5.342485</ele>
        <time>2022-08-06T10:24:02.000Z</time>
      </trkpt>
      <trkpt lat="49.2269" lon="-0.14922">
        <ele>5.339196</ele>
        <time>2022-08-06T10:24:03.000Z</time>
      </trkpt>
      <trkpt lat="49.22685" lon="-0.14926">
        <ele>5.335669</ele>
        <time>2022-08-06T10:24:04.000Z</time>
      </trkpt>
      <trkpt lat="49.22679" lon="-0.14931">
        <ele>5.332292</ele>
        <time>2022-08-06T10:24:05.000Z</time>
      </trkpt>
      <trkpt lat="49.22675" lon="-0.14936">
        <ele>5.328982</ele>
        <time>2022-08-06T10:24:06.000Z</time>
      </trkpt>
      <trkpt lat="49.2267" lon="-0.14941">
        <ele>5.325693</ele>
        <time>2022-08-06T10:24:07.000Z</time>
      </trkpt>
      <trkpt lat="49.22665" lon="-0.14946">
        <ele>5.322171</ele>
        <time>2022-08-06T10:24:08.000Z</time>
      </trkpt>
      <trkpt lat="49.2266" lon="-0.1495">
        <ele>5.319071</ele>
        <time>2022-08-06T10:24:09.000Z</time>
      </trkpt>
      <trkpt lat="49.22655" lon="-0.14955">
        <ele>5.315762</ele>
        <time>2022-08-06T10:24:10.000Z</time>
      </trkpt>
      <trkpt lat="49.22651" lon="-0.1496">
        <ele>5.312473</ele>
        <time>2022-08-06T10:24:11.000Z</time>
      </trkpt>
      <trkpt lat="49.22645" lon="-0.14965">
        <ele>5.30899</ele>
        <time>2022-08-06T10:24:12.000Z</time>
      </trkpt>
      <trkpt lat="49.22641" lon="-0.14969">
        <ele>5.30578</ele>
        <time>2022-08-06T10:24:13.000Z</time>
      </trkpt>
      <trkpt lat="49.22635" lon="-0.14974">
        <ele>5.302288</ele>
        <time>2022-08-06T10:24:14.000Z</time>
      </trkpt>
      <trkpt lat="49.2263" lon="-0.14978">
        <ele>5.299117</ele>
        <time>2022-08-06T10:24:15.000Z</time>
      </trkpt>
      <trkpt lat="49.22625" lon="-0.14982">
        <ele>5.295812</ele>
        <time>2022-08-06T10:24:16.000Z</time>
      </trkpt>
      <trkpt lat="49.2262" lon="-0.14986">
        <ele>5.29249</ele>
        <time>2022-08-06T10:24:17.000Z</time>
      </trkpt>
      <trkpt lat="49.22615" lon="-0.1499">
        <ele>5.289184</ele>
        <time>2022-08-06T10:24:18.000Z</time>
      </trkpt>
      <trkpt lat="49.22611" lon="-0.14994">
        <ele>5.286249</ele>
        <time>2022-08-06T10:24:19.000Z</time>
      </trkpt>
      <trkpt lat="49.22605" lon="-0.14998">
        <ele>5.282723</ele>
        <time>2022-08-06T10:24:20.000Z</time>
      </trkpt>
      <trkpt lat="49.226" lon="-0.15002">
        <ele>5.279551</ele>
        <time>2022-08-06T10:24:21.000Z</time>
      </trkpt>
      <trkpt lat="49.22595" lon="-0.15007">
        <ele>5.276156</ele>
        <time>2022-08-06T10:24:22.000Z</time>
      </trkpt>
      <trkpt lat="49.22591" lon="-0.15012">
        <ele>5.272966</ele>
        <time>2022-08-06T10:24:23.000Z</time>
      </trkpt>
      <trkpt lat="49.22586" lon="-0.15017">
        <ele>5.269492</ele>
        <time>2022-08-06T10:24:24.000Z</time>
      </trkpt>
      <trkpt lat="49.22581" lon="-0.15022">
        <ele>5.266118</ele>
        <time>2022-08-06T10:24:25.000Z</time>
      </trkpt>
      <trkpt lat="49.22577" lon="-0.15027">
        <ele>5.26302</ele>
        <time>2022-08-06T10:24:26.000Z</time>
      </trkpt>
      <trkpt lat="49.22572" lon="-0.15032">
        <ele>5.259689</ele>
        <time>2022-08-06T10:24:27.000Z</time>
      </trkpt>
      <trkpt lat="49.22567" lon="-0.15038">
        <ele>5.256431</ele>
        <time>2022-08-06T10:24:28.000Z</time>
      </trkpt>
      <trkpt lat="49.22563" lon="-0.15043">
        <ele>5.25326</ele>
        <time>2022-08-06T10:24:29.000Z</time>
      </trkpt>
      <trkpt lat="49.22559" lon="-0.15049">
        <ele>5.262848</ele>
        <time>2022-08-06T10:24:30.000Z</time>
      </trkpt>
      <trkpt lat="49.22554" lon="-0.15054">
        <ele>5.273964</ele>
        <time>2022-08-06T10:24:31.000Z</time>
      </trkpt>
      <trkpt lat="49.22549" lon="-0.15059">
        <ele>5.284926</ele>
        <time>2022-08-06T10:24:32.000Z</time>
      </trkpt>
      <trkpt lat="49.22545" lon="-0.15065">
        <ele>5.295983</ele>
        <time>2022-08-06T10:24:33.000Z</time>
      </trkpt>
      <trkpt lat="49.2254" lon="-0.15071">
        <ele>5.307696</ele>
        <time>2022-08-06T10:24:34.000Z</time>
      </trkpt>
      <trkpt lat="49.22536" lon="-0.15077">
        <ele>5.318555</ele>
        <time>2022-08-06T10:24:35.000Z</time>
      </trkpt>
      <trkpt lat="49.22532" lon="-0.15083">
        <ele>5.329247</ele>
        <time>2022-08-06T10:24:36.000Z</time>
      </trkpt>
      <trkpt lat="49.22528" lon="-0.15089">
        <ele>5.339799</ele>
        <time>2022-08-06T10:24:37.000Z</time>
      </trkpt>
      <trkpt lat="49.22524" lon="-0.15095">
        <ele>5.350658</ele>
        <time>2022-08-06T10:24:38.000Z</time>
      </trkpt>
      <trkpt lat="49.2252" lon="-0.15101">
        <ele>5.361429</ele>
        <time>2022-08-06T10:24:39.000Z</time>
      </trkpt>
      <trkpt lat="49.22516" lon="-0.15108">
        <ele>5.372695</ele>
        <time>2022-08-06T10:24:40.000Z</time>
      </trkpt>
      <trkpt lat="49.22512" lon="-0.15115">
        <ele>5.383558</ele>
        <time>2022-08-06T10:24:41.000Z</time>
      </trkpt>
      <trkpt lat="49.22509" lon="-0.15122">
        <ele>5.394151</ele>
        <time>2022-08-06T10:24:42.000Z</time>
      </trkpt>
      <trkpt lat="49.22505" lon="-0.15128">
        <ele>5.40484</ele>
        <time>2022-08-06T10:24:43.000Z</time>
      </trkpt>
      <trkpt lat="49.22501" lon="-0.15135">
        <ele>5.416706</ele>
        <time>2022-08-06T10:24:44.000Z</time>
      </trkpt>
      <trkpt lat="49.22497" lon="-0.15141">
        <ele>5.427423</ele>
        <time>2022-08-06T10:24:45.000Z</time>
      </trkpt>
      <trkpt lat="49.22493" lon="-0.15147">
        <ele>5.437727</ele>
        <time>2022-08-06T10:24:46.000Z</time>
      </trkpt>
      <trkpt lat="49.22488" lon="-0.15152">
        <ele>5.448095</ele>
        <time>2022-08-06T10:24:47.000Z</time>
      </trkpt>
      <trkpt lat="49.22484" lon="-0.15157">
        <ele>5.458679</ele>
        <time>2022-08-06T10:24:48.000Z</time>
      </trkpt>
      <trkpt lat="49.2248" lon="-0.15163">
        <ele>5.468983</ele>
        <time>2022-08-06T10:24:49.000Z</time>
      </trkpt>
      <trkpt lat="49.22476" lon="-0.15169">
        <ele>5.479435</ele>
        <time>2022-08-06T10:24:50.000Z</time>
      </trkpt>
      <trkpt lat="49.22472" lon="-0.15175">
        <ele>5.489933</ele>
        <time>2022-08-06T10:24:51.000Z</time>
      </trkpt>
      <trkpt lat="49.22468" lon="-0.15181">
        <ele>5.501047</ele>
        <time>2022-08-06T10:24:52.000Z</time>
      </trkpt>
      <trkpt lat="49.22463" lon="-0.15188">
        <ele>5.512606</ele>
        <time>2022-08-06T10:24:53.000Z</time>
      </trkpt>
      <trkpt lat="49.22459" lon="-0.15194">
        <ele>5.523886</ele>
        <time>2022-08-06T10:24:54.000Z</time>
      </trkpt>
      <trkpt lat="49.22455" lon="-0.152">
        <ele>5.534745</ele>
        <time>2022-08-06T10:24:55.000Z</time>
      </trkpt>
      <trkpt lat="49.22451" lon="-0.15206">
        <ele>5.545242</ele>
        <time>2022-08-06T10:24:56.000Z</time>
      </trkpt>
      <trkpt lat="49.22447" lon="-0.15212">
        <ele>5.556271</ele>
        <time>2022-08-06T10:24:57.000Z</time>
      </trkpt>
      <trkpt lat="49.22444" lon="-0.15219">
        <ele>5.566321</ele>
        <time>2022-08-06T10:24:58.000Z</time>
      </trkpt>
      <trkpt lat="49.2244" lon="-0.15226">
        <ele>5.57701</ele>
        <time>2022-08-06T10:24:59.000Z</time>
      </trkpt>
      <trkpt lat="49.22437" lon="-0.15233">
        <ele>5.588071</ele>
        <time>2022-08-06T10:25:00.000Z</time>
      </trkpt>
      <trkpt lat="49.22434" lon="-0.15241">
        <ele>5.598709</ele>
        <time>2022-08-06T10:25:01.000Z</time>
      </trkpt>
      <trkpt lat="49.22432" lon="-0.15248">
        <ele>5.609491</ele>
        <time>2022-08-06T10:25:02.000Z</time>
      </trkpt>
      <trkpt lat="49.2243" lon="-0.15257">
        <ele>5.620771</ele>
        <time>2022-08-06T10:25:03.000Z</time>
      </trkpt>
      <trkpt lat="49.22428" lon="-0.15265">
        <ele>5.63198</ele>
        <time>2022-08-06T10:25:04.000Z</time>
      </trkpt>
      <trkpt lat="49.22426" lon="-0.15273">
        <ele>5.643021</ele>
        <time>2022-08-06T10:25:05.000Z</time>
      </trkpt>
      <trkpt lat="49.22424" lon="-0.15281">
        <ele>5.653823</ele>
        <time>2022-08-06T10:25:06.000Z</time>
      </trkpt>
      <trkpt lat="49.22422" lon="-0.15288">
        <ele>5.664026</ele>
        <time>2022-08-06T10:25:07.000Z</time>
      </trkpt>
      <trkpt lat="49.22419" lon="-0.15295">
        <ele>5.674545</ele>
        <time>2022-08-06T10:25:08.000Z</time>
      </trkpt>
      <trkpt lat="49.22416" lon="-0.15302">
        <ele>5.684958</ele>
        <time>2022-08-06T10:25:09.000Z</time>
      </trkpt>
      <trkpt lat="49.22412" lon="-0.15309">
        <ele>5.69584</ele>
        <time>2022-08-06T10:25:10.000Z</time>
      </trkpt>
      <trkpt lat="49.22408" lon="-0.15315">
        <ele>5.707265</ele>
        <time>2022-08-06T10:25:11.000Z</time>
      </trkpt>
      <trkpt lat="49.22404" lon="-0.15321">
        <ele>5.7186</ele>
        <time>2022-08-06T10:25:12.000Z</time>
      </trkpt>
      <trkpt lat="49.224" lon="-0.15328">
        <ele>5.729671</ele>
        <time>2022-08-06T10:25:13.000Z</time>
      </trkpt>
      <trkpt lat="49.22397" lon="-0.15335">
        <ele>5.740514</ele>
        <time>2022-08-06T10:25:14.000Z</time>
      </trkpt>
      <trkpt lat="49.22393" lon="-0.15342">
        <ele>5.752006</ele>
        <time>2022-08-06T10:25:15.000Z</time>
      </trkpt>
      <trkpt lat="49.22391" lon="-0.1535">
        <ele>5.763006</ele>
        <time>2022-08-06T10:25:16.000Z</time>
      </trkpt>
      <trkpt lat="49.22388" lon="-0.15358">
        <ele>5.77426</ele>
        <time>2022-08-06T10:25:17.000Z</time>
      </trkpt>
      <trkpt lat="49.22386" lon="-0.15366">
        <ele>5.785487</ele>
        <time>2022-08-06T10:25:18.000Z</time>
      </trkpt>
      <trkpt lat="49.22384" lon="-0.15374">
        <ele>5.796528</ele>
        <time>2022-08-06T10:25:19.000Z</time>
      </trkpt>
      <trkpt lat="49.22383" lon="-0.15383">
        <ele>5.807607</ele>
        <time>2022-08-06T10:25:20.000Z</time>
      </trkpt>
      <trkpt lat="49.22381" lon="-0.15391">
        <ele>5.818589</ele>
        <time>2022-08-06T10:25:21.000Z</time>
      </trkpt>
      <trkpt lat="49.2238" lon="-0.15399">
        <ele>5.829449</ele>
        <time>2022-08-06T10:25:22.000Z</time>
      </trkpt>
      <trkpt lat="49.22377" lon="-0.15407">
        <ele>5.840704</ele>
        <time>2022-08-06T10:25:23.000Z</time>
      </trkpt>
      <trkpt lat="49.22375" lon="-0.15415">
        <ele>5.851745</ele>
        <time>2022-08-06T10:25:24.000Z</time>
      </trkpt>
      <trkpt lat="49.22374" lon="-0.15424">
        <ele>5.862455</ele>
        <time>2022-08-06T10:25:25.000Z</time>
      </trkpt>
      <trkpt lat="49.22373" lon="-0.15432">
        <ele>5.873437</ele>
        <time>2022-08-06T10:25:26.000Z</time>
      </trkpt>
      <trkpt lat="49.22371" lon="-0.1544">
        <ele>5.884055</ele>
        <time>2022-08-06T10:25:27.000Z</time>
      </trkpt>
      <trkpt lat="49.2237" lon="-0.15448">
        <ele>5.894517</ele>
        <time>2022-08-06T10:25:28.000Z</time>
      </trkpt>
      <trkpt lat="49.22368" lon="-0.15456">
        <ele>5.905134</ele>
        <time>2022-08-06T10:25:29.000Z</time>
      </trkpt>
      <trkpt lat="49.22367" lon="-0.15464">
        <ele>5.915311</ele>
        <time>2022-08-06T10:25:30.000Z</time>
      </trkpt>
      <trkpt lat="49.22367" lon="-0.15472">
        <ele>5.925302</ele>
        <time>2022-08-06T10:25:31.000Z</time>
      </trkpt>
      <trkpt lat="49.22366" lon="-0.15479">
        <ele>5.935217</ele>
        <time>2022-08-06T10:25:32.000Z</time>
      </trkpt>
      <trkpt lat="49.22366" lon="-0.15487">
        <ele>5.942023</ele>
        <time>2022-08-06T10:25:33.000Z</time>
      </trkpt>
      <trkpt lat="49.22367" lon="-0.15495">
        <ele>5.940345</ele>
        <time>2022-08-06T10:25:34.000Z</time>
      </trkpt>
      <trkpt lat="49.22367" lon="-0.15503">
        <ele>5.938648</ele>
        <time>2022-08-06T10:25:35.000Z</time>
      </trkpt>
      <trkpt lat="49.22367" lon="-0.1551">
        <ele>5.936992</ele>
        <time>2022-08-06T10:25:36.000Z</time>
      </trkpt>
      <trkpt lat="49.22367" lon="-0.15517">
        <ele>5.935378</ele>
        <time>2022-08-06T10:25:37.000Z</time>
      </trkpt>
      <trkpt lat="49.22368" lon="-0.15525">
        <ele>5.933719</ele>
        <time>2022-08-06T10:25:38.000Z</time>
      </trkpt>
      <trkpt lat="49.22368" lon="-0.15532">
        <ele>5.932177</ele>
        <time>2022-08-06T10:25:39.000Z</time>
      </trkpt>
      <trkpt lat="49.22368" lon="-0.15539">
        <ele>5.930565</ele>
        <time>2022-08-06T10:25:40.000Z</time>
      </trkpt>
      <trkpt lat="49.22367" lon="-0.15546">
        <ele>5.928944</ele>
        <time>2022-08-06T10:25:41.000Z</time>
      </trkpt>
      <trkpt lat="49.22366" lon="-0.15554">
        <ele>5.927278</ele>
        <time>2022-08-06T10:25:42.000Z</time>
      </trkpt>
      <trkpt lat="49.22365" lon="-0.15561">
        <ele>5.925678</ele>
        <time>2022-08-06T10:25:43.000Z</time>
      </trkpt>
      <trkpt lat="49.22365" lon="-0.15568">
        <ele>5.924044</ele>
        <time>2022-08-06T10:25:44.000Z</time>
      </trkpt>
      <trkpt lat="49.22365" lon="-0.15576">
        <ele>5.922357</ele>
        <time>2022-08-06T10:25:45.000Z</time>
      </trkpt>
      <trkpt lat="49.22364" lon="-0.15583">
        <ele>5.92067</ele>
        <time>2022-08-06T10:25:46.000Z</time>
      </trkpt>
      <trkpt lat="49.22363" lon="-0.15591">
        <ele>5.919014</ele>
        <time>2022-08-06T10:25:47.000Z</time>
      </trkpt>
      <trkpt lat="49.22363" lon="-0.15598">
        <ele>5.917349</ele>
        <time>2022-08-06T10:25:48.000Z</time>
      </trkpt>
      <trkpt lat="49.22362" lon="-0.15606">
        <ele>5.915619</ele>
        <time>2022-08-06T10:25:49.000Z</time>
      </trkpt>
      <trkpt lat="49.22361" lon="-0.15614">
        <ele>5.913888</ele>
        <time>2022-08-06T10:25:50.000Z</time>
      </trkpt>
      <trkpt lat="49.2236" lon="-0.15622">
        <ele>5.912158</ele>
        <time>2022-08-06T10:25:51.000Z</time>
      </trkpt>
      <trkpt lat="49.22359" lon="-0.1563">
        <ele>5.910342</ele>
        <time>2022-08-06T10:25:52.000Z</time>
      </trkpt>
      <trkpt lat="49.22357" lon="-0.15637">
        <ele>5.90854</ele>
        <time>2022-08-06T10:25:53.000Z</time>
      </trkpt>
      <trkpt lat="49.22355" lon="-0.15645">
        <ele>5.906688</ele>
        <time>2022-08-06T10:25:54.000Z</time>
      </trkpt>
      <trkpt lat="49.22352" lon="-0.15653">
        <ele>5.904778</ele>
        <time>2022-08-06T10:25:55.000Z</time>
      </trkpt>
      <trkpt lat="49.22349" lon="-0.1566">
        <ele>5.902785</ele>
        <time>2022-08-06T10:25:56.000Z</time>
      </trkpt>
      <trkpt lat="49.22346" lon="-0.15668">
        <ele>5.900788</ele>
        <time>2022-08-06T10:25:57.000Z</time>
      </trkpt>
      <trkpt lat="49.22343" lon="-0.15676">
        <ele>5.898666</ele>
        <time>2022-08-06T10:25:58.000Z</time>
      </trkpt>
      <trkpt lat="49.2234" lon="-0.15684">
        <ele>5.896599</ele>
        <time>2022-08-06T10:25:59.000Z</time>
      </trkpt>
      <trkpt lat="49.22337" lon="-0.15692">
        <ele>5.894563</ele>
        <time>2022-08-06T10:26:00.000Z</time>
      </trkpt>
      <trkpt lat="49.22333" lon="-0.15701">
        <ele>5.89242</ele>
        <time>2022-08-06T10:26:01.000Z</time>
      </trkpt>
      <trkpt lat="49.22331" lon="-0.15709">
        <ele>5.890366</ele>
        <time>2022-08-06T10:26:02.000Z</time>
      </trkpt>
      <trkpt lat="49.22329" lon="-0.15718">
        <ele>5.888339</ele>
        <time>2022-08-06T10:26:03.000Z</time>
      </trkpt>
      <trkpt lat="49.22327" lon="-0.15726">
        <ele>5.886338</ele>
        <time>2022-08-06T10:26:04.000Z</time>
      </trkpt>
      <trkpt lat="49.22325" lon="-0.15735">
        <ele>5.884371</ele>
        <time>2022-08-06T10:26:05.000Z</time>
      </trkpt>
      <trkpt lat="49.22325" lon="-0.15744">
        <ele>5.882443</ele>
        <time>2022-08-06T10:26:06.000Z</time>
      </trkpt>
      <trkpt lat="49.22324" lon="-0.15753">
        <ele>5.877288</ele>
        <time>2022-08-06T10:26:07.000Z</time>
      </trkpt>
      <trkpt lat="49.22324" lon="-0.15762">
        <ele>5.87093</ele>
        <time>2022-08-06T10:26:08.000Z</time>
      </trkpt>
      <trkpt lat="49.22324" lon="-0.1577">
        <ele>5.864571</ele>
        <time>2022-08-06T10:26:09.000Z</time>
      </trkpt>
      <trkpt lat="49.22324" lon="-0.15779">
        <ele>5.858069</ele>
        <time>2022-08-06T10:26:10.000Z</time>
      </trkpt>
      <trkpt lat="49.22325" lon="-0.15788">
        <ele>5.851592</ele>
        <time>2022-08-06T10:26:11.000Z</time>
      </trkpt>
      <trkpt lat="49.22325" lon="-0.15797">
        <ele>5.845369</ele>
        <time>2022-08-06T10:26:12.000Z</time>
      </trkpt>
      <trkpt lat="49.22325" lon="-0.15806">
        <ele>5.839074</ele>
        <time>2022-08-06T10:26:13.000Z</time>
      </trkpt>
      <trkpt lat="49.22325" lon="-0.15815">
        <ele>5.832572</ele>
        <time>2022-08-06T10:26:14.000Z</time>
      </trkpt>
      <trkpt lat="49.22325" lon="-0.15823">
        <ele>5.826214</ele>
        <time>2022-08-06T10:26:15.000Z</time>
      </trkpt>
      <trkpt lat="49.22325" lon="-0.15832">
        <ele>5.820144</ele>
        <time>2022-08-06T10:26:16.000Z</time>
      </trkpt>
      <trkpt lat="49.22325" lon="-0.1584">
        <ele>5.814509</ele>
        <time>2022-08-06T10:26:17.000Z</time>
      </trkpt>
      <trkpt lat="49.22325" lon="-0.15848">
        <ele>5.808188</ele>
        <time>2022-08-06T10:26:18.000Z</time>
      </trkpt>
      <trkpt lat="49.22324" lon="-0.15857">
        <ele>5.801734</ele>
        <time>2022-08-06T10:26:19.000Z</time>
      </trkpt>
      <trkpt lat="49.22323" lon="-0.15866">
        <ele>5.795584</ele>
        <time>2022-08-06T10:26:20.000Z</time>
      </trkpt>
      <trkpt lat="49.22323" lon="-0.15875">
        <ele>5.788856</ele>
        <time>2022-08-06T10:26:21.000Z</time>
      </trkpt>
      <trkpt lat="49.22322" lon="-0.15884">
        <ele>5.78202</ele>
        <time>2022-08-06T10:26:22.000Z</time>
      </trkpt>
      <trkpt lat="49.22322" lon="-0.15894">
        <ele>5.775268</ele>
        <time>2022-08-06T10:26:23.000Z</time>
      </trkpt>
      <trkpt lat="49.22321" lon="-0.15904">
        <ele>5.768013</ele>
        <time>2022-08-06T10:26:24.000Z</time>
      </trkpt>
      <trkpt lat="49.22321" lon="-0.15912">
        <ele>5.761639</ele>
        <time>2022-08-06T10:26:25.000Z</time>
      </trkpt>
      <trkpt lat="49.22321" lon="-0.15921">
        <ele>5.755698</ele>
        <time>2022-08-06T10:26:26.000Z</time>
      </trkpt>
      <trkpt lat="49.22321" lon="-0.15929">
        <ele>5.749918</ele>
        <time>2022-08-06T10:26:27.000Z</time>
      </trkpt>
      <trkpt lat="49.22321" lon="-0.15936">
        <ele>5.744354</ele>
        <time>2022-08-06T10:26:28.000Z</time>
      </trkpt>
      <trkpt lat="49.22321" lon="-0.15944">
        <ele>5.738709</ele>
        <time>2022-08-06T10:26:29.000Z</time>
      </trkpt>
      <trkpt lat="49.22322" lon="-0.15952">
        <ele>5.73328</ele>
        <time>2022-08-06T10:26:30.000Z</time>
      </trkpt>
      <trkpt lat="49.22322" lon="-0.15959">
        <ele>5.72782</ele>
        <time>2022-08-06T10:26:31.000Z</time>
      </trkpt>
      <trkpt lat="49.22324" lon="-0.15966">
        <ele>5.722423</ele>
        <time>2022-08-06T10:26:32.000Z</time>
      </trkpt>
      <trkpt lat="49.22326" lon="-0.15972">
        <ele>5.717145</ele>
        <time>2022-08-06T10:26:33.000Z</time>
      </trkpt>
      <trkpt lat="49.2233" lon="-0.15977">
        <ele>5.711741</ele>
        <time>2022-08-06T10:26:34.000Z</time>
      </trkpt>
      <trkpt lat="49.22334" lon="-0.1598">
        <ele>5.706451</ele>
        <time>2022-08-06T10:26:35.000Z</time>
      </trkpt>
      <trkpt lat="49.22339" lon="-0.15983">
        <ele>5.701156</ele>
        <time>2022-08-06T10:26:36.000Z</time>
      </trkpt>
      <trkpt lat="49.22343" lon="-0.15985">
        <ele>5.69601</ele>
        <time>2022-08-06T10:26:37.000Z</time>
      </trkpt>
      <trkpt lat="49.22348" lon="-0.15986">
        <ele>5.69063</ele>
        <time>2022-08-06T10:26:38.000Z</time>
      </trkpt>
      <trkpt lat="49.22353" lon="-0.15987">
        <ele>5.685261</ele>
        <time>2022-08-06T10:26:39.000Z</time>
      </trkpt>
      <trkpt lat="49.22357" lon="-0.15988">
        <ele>5.679031</ele>
        <time>2022-08-06T10:26:40.000Z</time>
      </trkpt>
      <trkpt lat="49.22363" lon="-0.15989">
        <ele>5.670243</ele>
        <time>2022-08-06T10:26:41.000Z</time>
      </trkpt>
      <trkpt lat="49.22368" lon="-0.15991">
        <ele>5.661107</ele>
        <time>2022-08-06T10:26:42.000Z</time>
      </trkpt>
      <trkpt lat="49.22373" lon="-0.15992">
        <ele>5.652428</ele>
        <time>2022-08-06T10:26:43.000Z</time>
      </trkpt>
      <trkpt lat="49.2238" lon="-0.15992">
        <ele>5.641226</ele>
        <time>2022-08-06T10:26:44.000Z</time>
      </trkpt>
      <trkpt lat="49.22385" lon="-0.15993">
        <ele>5.63313</ele>
        <time>2022-08-06T10:26:45.000Z</time>
      </trkpt>
      <trkpt lat="49.2239" lon="-0.15995">
        <ele>5.623707</ele>
        <time>2022-08-06T10:26:46.000Z</time>
      </trkpt>
      <trkpt lat="49.22395" lon="-0.15997">
        <ele>5.61496</ele>
        <time>2022-08-06T10:26:47.000Z</time>
      </trkpt>
      <trkpt lat="49.22401" lon="-0.15999">
        <ele>5.605788</ele>
        <time>2022-08-06T10:26:48.000Z</time>
      </trkpt>
      <trkpt lat="49.22405" lon="-0.16">
        <ele>5.598042</ele>
        <time>2022-08-06T10:26:49.000Z</time>
      </trkpt>
      <trkpt lat="49.2241" lon="-0.16002">
        <ele>5.589783</ele>
        <time>2022-08-06T10:26:50.000Z</time>
      </trkpt>
      <trkpt lat="49.22414" lon="-0.16004">
        <ele>5.581952</ele>
        <time>2022-08-06T10:26:51.000Z</time>
      </trkpt>
      <trkpt lat="49.22419" lon="-0.16006">
        <ele>5.574024</ele>
        <time>2022-08-06T10:26:52.000Z</time>
      </trkpt>
      <trkpt lat="49.22423" lon="-0.16008">
        <ele>5.566832</ele>
        <time>2022-08-06T10:26:53.000Z</time>
      </trkpt>
      <trkpt lat="49.22428" lon="-0.1601">
        <ele>5.559136</ele>
        <time>2022-08-06T10:26:54.000Z</time>
      </trkpt>
      <trkpt lat="49.22432" lon="-0.16011">
        <ele>5.551536</ele>
        <time>2022-08-06T10:26:55.000Z</time>
      </trkpt>
      <trkpt lat="49.22437" lon="-0.16012">
        <ele>5.543952</ele>
        <time>2022-08-06T10:26:56.000Z</time>
      </trkpt>
      <trkpt lat="49.22441" lon="-0.16012">
        <ele>5.536411</ele>
        <time>2022-08-06T10:26:57.000Z</time>
      </trkpt>
      <trkpt lat="49.22445" lon="-0.16013">
        <ele>5.529968</ele>
        <time>2022-08-06T10:26:58.000Z</time>
      </trkpt>
      <trkpt lat="49.2245" lon="-0.16015">
        <ele>5.52178</ele>
        <time>2022-08-06T10:26:59.000Z</time>
      </trkpt>
      <trkpt lat="49.22454" lon="-0.16017">
        <ele>5.514491</ele>
        <time>2022-08-06T10:27:00.000Z</time>
      </trkpt>
      <trkpt lat="49.22458" lon="-0.16018">
        <ele>5.507392</ele>
        <time>2022-08-06T10:27:01.000Z</time>
      </trkpt>
      <trkpt lat="49.22462" lon="-0.1602">
        <ele>5.500185</ele>
        <time>2022-08-06T10:27:02.000Z</time>
      </trkpt>
      <trkpt lat="49.22466" lon="-0.16021">
        <ele>5.493246</ele>
        <time>2022-08-06T10:27:03.000Z</time>
      </trkpt>
      <trkpt lat="49.22471" lon="-0.16022">
        <ele>5.485593</ele>
        <time>2022-08-06T10:27:04.000Z</time>
      </trkpt>
      <trkpt lat="49.22475" lon="-0.16023">
        <ele>5.478022</ele>
        <time>2022-08-06T10:27:05.000Z</time>
      </trkpt>
      <trkpt lat="49.22479" lon="-0.16024">
        <ele>5.472091</ele>
        <time>2022-08-06T10:27:06.000Z</time>
      </trkpt>
      <trkpt lat="49.22483" lon="-0.16024">
        <ele>5.46455</ele>
        <time>2022-08-06T10:27:07.000Z</time>
      </trkpt>
      <trkpt lat="49.22487" lon="-0.16025">
        <ele>5.458692</ele>
        <time>2022-08-06T10:27:08.000Z</time>
      </trkpt>
      <trkpt lat="49.2249" lon="-0.16025">
        <ele>5.452838</ele>
        <time>2022-08-06T10:27:09.000Z</time>
      </trkpt>
      <trkpt lat="49.22494" lon="-0.16025">
        <ele>5.446813</ele>
        <time>2022-08-06T10:27:10.000Z</time>
      </trkpt>
      <trkpt lat="49.22496" lon="-0.16026">
        <ele>5.442401</ele>
        <time>2022-08-06T10:27:11.000Z</time>
      </trkpt>
      <trkpt lat="49.22498" lon="-0.16028">
        <ele>5.438966</ele>
        <time>2022-08-06T10:27:12.000Z</time>
      </trkpt>
      <trkpt lat="49.225" lon="-0.16028">
        <ele>5.435579</ele>
        <time>2022-08-06T10:27:13.000Z</time>
      </trkpt>
      <trkpt lat="49.22502" lon="-0.1603">
        <ele>5.431461</ele>
        <time>2022-08-06T10:27:15.000Z</time>
      </trkpt>
      <trkpt lat="49.22504" lon="-0.16033">
        <ele>5.427233</ele>
        <time>2022-08-06T10:27:17.000Z</time>
      </trkpt>
      <trkpt lat="49.22503" lon="-0.16036">
        <ele>5.423459</ele>
        <time>2022-08-06T10:27:19.000Z</time>
      </trkpt>
      <trkpt lat="49.22501" lon="-0.16037">
        <ele>5.420101</ele>
        <time>2022-08-06T10:27:20.000Z</time>
      </trkpt>
      <trkpt lat="49.225" lon="-0.16038">
        <ele>5.417022</ele>
        <time>2022-08-06T10:27:21.000Z</time>
      </trkpt>
      <trkpt lat="49.22498" lon="-0.1604">
        <ele>5.413704</ele>
        <time>2022-08-06T10:27:22.000Z</time>
      </trkpt>
      <trkpt lat="49.22496" lon="-0.16044">
        <ele>5.408396</ele>
        <time>2022-08-06T10:27:24.000Z</time>
      </trkpt>
      <trkpt lat="49.22494" lon="-0.1605">
        <ele>5.401542</ele>
        <time>2022-08-06T10:27:56.000Z</time>
      </trkpt>
      <trkpt lat="49.22491" lon="-0.16057">
        <ele>5.391481</ele>
        <time>2022-08-06T10:28:33.000Z</time>
      </trkpt>
      <trkpt lat="49.22489" lon="-0.16061">
        <ele>5.386408</ele>
        <time>2022-08-06T10:28:34.000Z</time>
      </trkpt>
      <trkpt lat="49.22488" lon="-0.16066">
        <ele>5.383367</ele>
        <time>2022-08-06T10:28:35.000Z</time>
      </trkpt>
      <trkpt lat="49.22486" lon="-0.1607">
        <ele>5.387729</ele>
        <time>2022-08-06T10:28:36.000Z</time>
      </trkpt>
      <trkpt lat="49.22484" lon="-0.16075">
        <ele>5.392975</ele>
        <time>2022-08-06T10:28:37.000Z</time>
      </trkpt>
      <trkpt lat="49.22482" lon="-0.1608">
        <ele>5.398468</ele>
        <time>2022-08-06T10:28:38.000Z</time>
      </trkpt>
      <trkpt lat="49.22479" lon="-0.16085">
        <ele>5.403714</ele>
        <time>2022-08-06T10:28:39.000Z</time>
      </trkpt>
      <trkpt lat="49.22477" lon="-0.16091">
        <ele>5.409482</ele>
        <time>2022-08-06T10:28:40.000Z</time>
      </trkpt>
      <trkpt lat="49.22475" lon="-0.16095">
        <ele>5.414514</ele>
        <time>2022-08-06T10:28:41.000Z</time>
      </trkpt>
      <trkpt lat="49.22472" lon="-0.161">
        <ele>5.41994</ele>
        <time>2022-08-06T10:28:42.000Z</time>
      </trkpt>
      <trkpt lat="49.22469" lon="-0.16105">
        <ele>5.4253</ele>
        <time>2022-08-06T10:28:43.000Z</time>
      </trkpt>
      <trkpt lat="49.22467" lon="-0.1611">
        <ele>5.431031</ele>
        <time>2022-08-06T10:28:44.000Z</time>
      </trkpt>
      <trkpt lat="49.22464" lon="-0.16114">
        <ele>5.435539</ele>
        <time>2022-08-06T10:28:45.000Z</time>
      </trkpt>
      <trkpt lat="49.22462" lon="-0.16119">
        <ele>5.441019</ele>
        <time>2022-08-06T10:28:46.000Z</time>
      </trkpt>
      <trkpt lat="49.2246" lon="-0.16122">
        <ele>5.445463</ele>
        <time>2022-08-06T10:28:47.000Z</time>
      </trkpt>
      <trkpt lat="49.22458" lon="-0.16126">
        <ele>5.449424</ele>
        <time>2022-08-06T10:28:48.000Z</time>
      </trkpt>
      <trkpt lat="49.22456" lon="-0.1613">
        <ele>5.453588</ele>
        <time>2022-08-06T10:28:49.000Z</time>
      </trkpt>
      <trkpt lat="49.22454" lon="-0.16134">
        <ele>5.45787</ele>
        <time>2022-08-06T10:28:50.000Z</time>
      </trkpt>
      <trkpt lat="49.22454" lon="-0.16139">
        <ele>5.462395</ele>
        <time>2022-08-06T10:28:51.000Z</time>
      </trkpt>
      <trkpt lat="49.22455" lon="-0.16145">
        <ele>5.467284</ele>
        <time>2022-08-06T10:28:52.000Z</time>
      </trkpt>
      <trkpt lat="49.22455" lon="-0.16151">
        <ele>5.472331</ele>
        <time>2022-08-06T10:28:53.000Z</time>
      </trkpt>
      <trkpt lat="49.22456" lon="-0.16156">
        <ele>5.47744</ele>
        <time>2022-08-06T10:28:54.000Z</time>
      </trkpt>
      <trkpt lat="49.22457" lon="-0.16162">
        <ele>5.482722</ele>
        <time>2022-08-06T10:28:55.000Z</time>
      </trkpt>
      <trkpt lat="49.22458" lon="-0.16169">
        <ele>5.488448</ele>
        <time>2022-08-06T10:28:56.000Z</time>
      </trkpt>
      <trkpt lat="49.22458" lon="-0.16175">
        <ele>5.493816</ele>
        <time>2022-08-06T10:28:57.000Z</time>
      </trkpt>
      <trkpt lat="49.22459" lon="-0.16181">
        <ele>5.49912</ele>
        <time>2022-08-06T10:28:58.000Z</time>
      </trkpt>
      <trkpt lat="49.2246" lon="-0.16187">
        <ele>5.505035</ele>
        <time>2022-08-06T10:28:59.000Z</time>
      </trkpt>
      <trkpt lat="49.22461" lon="-0.16194">
        <ele>5.511052</ele>
        <time>2022-08-06T10:29:00.000Z</time>
      </trkpt>
      <trkpt lat="49.22461" lon="-0.16201">
        <ele>5.51726</ele>
        <time>2022-08-06T10:29:01.000Z</time>
      </trkpt>
      <trkpt lat="49.22462" lon="-0.16208">
        <ele>5.523325</ele>
        <time>2022-08-06T10:29:02.000Z</time>
      </trkpt>
      <trkpt lat="49.22464" lon="-0.16215">
        <ele>5.529658</ele>
        <time>2022-08-06T10:29:03.000Z</time>
      </trkpt>
      <trkpt lat="49.22465" lon="-0.16222">
        <ele>5.535866</ele>
        <time>2022-08-06T10:29:04.000Z</time>
      </trkpt>
      <trkpt lat="49.22466" lon="-0.16229">
        <ele>5.542199</ele>
        <time>2022-08-06T10:29:05.000Z</time>
      </trkpt>
      <trkpt lat="49.22468" lon="-0.16236">
        <ele>5.548488</ele>
        <time>2022-08-06T10:29:06.000Z</time>
      </trkpt>
      <trkpt lat="49.22469" lon="-0.16242">
        <ele>5.554605</ele>
        <time>2022-08-06T10:29:07.000Z</time>
      </trkpt>
      <trkpt lat="49.22471" lon="-0.16248">
        <ele>5.560467</ele>
        <time>2022-08-06T10:29:08.000Z</time>
      </trkpt>
      <trkpt lat="49.22473" lon="-0.16254">
        <ele>5.566269</ele>
        <time>2022-08-06T10:29:09.000Z</time>
      </trkpt>
      <trkpt lat="49.22475" lon="-0.16261">
        <ele>5.572018</ele>
        <time>2022-08-06T10:29:10.000Z</time>
      </trkpt>
      <trkpt lat="49.22477" lon="-0.16266">
        <ele>5.577854</ele>
        <time>2022-08-06T10:29:11.000Z</time>
      </trkpt>
      <trkpt lat="49.22478" lon="-0.16272">
        <ele>5.583494</ele>
        <time>2022-08-06T10:29:12.000Z</time>
      </trkpt>
      <trkpt lat="49.2248" lon="-0.16279">
        <ele>5.58969</ele>
        <time>2022-08-06T10:29:13.000Z</time>
      </trkpt>
      <trkpt lat="49.22482" lon="-0.16285">
        <ele>5.595887</ele>
        <time>2022-08-06T10:29:14.000Z</time>
      </trkpt>
      <trkpt lat="49.22484" lon="-0.16291">
        <ele>5.601526</ele>
        <time>2022-08-06T10:29:15.000Z</time>
      </trkpt>
      <trkpt lat="49.22485" lon="-0.16298">
        <ele>5.607327</ele>
        <time>2022-08-06T10:29:16.000Z</time>
      </trkpt>
      <trkpt lat="49.22488" lon="-0.16304">
        <ele>5.613532</ele>
        <time>2022-08-06T10:29:17.000Z</time>
      </trkpt>
      <trkpt lat="49.2249" lon="-0.1631">
        <ele>5.619748</ele>
        <time>2022-08-06T10:29:18.000Z</time>
      </trkpt>
      <trkpt lat="49.22492" lon="-0.16316">
        <ele>5.619825</ele>
        <time>2022-08-06T10:29:19.000Z</time>
      </trkpt>
      <trkpt lat="49.22494" lon="-0.16323">
        <ele>5.61654</ele>
        <time>2022-08-06T10:29:20.000Z</time>
      </trkpt>
      <trkpt lat="49.22495" lon="-0.16329">
        <ele>5.613365</ele>
        <time>2022-08-06T10:29:21.000Z</time>
      </trkpt>
      <trkpt lat="49.22498" lon="-0.16336">
        <ele>5.610059</ele>
        <time>2022-08-06T10:29:22.000Z</time>
      </trkpt>
      <trkpt lat="49.225" lon="-0.16342">
        <ele>5.606886</ele>
        <time>2022-08-06T10:29:23.000Z</time>
      </trkpt>
      <trkpt lat="49.22501" lon="-0.16349">
        <ele>5.603547</ele>
        <time>2022-08-06T10:29:24.000Z</time>
      </trkpt>
      <trkpt lat="49.22503" lon="-0.16355">
        <ele>5.600221</ele>
        <time>2022-08-06T10:29:25.000Z</time>
      </trkpt>
      <trkpt lat="49.22505" lon="-0.16362">
        <ele>5.597008</ele>
        <time>2022-08-06T10:29:26.000Z</time>
      </trkpt>
      <trkpt lat="49.22508" lon="-0.16368">
        <ele>5.593822</ele>
        <time>2022-08-06T10:29:27.000Z</time>
      </trkpt>
      <trkpt lat="49.22509" lon="-0.16374">
        <ele>5.590567</ele>
        <time>2022-08-06T10:29:28.000Z</time>
      </trkpt>
      <trkpt lat="49.22511" lon="-0.16381">
        <ele>5.587324</ele>
        <time>2022-08-06T10:29:29.000Z</time>
      </trkpt>
      <trkpt lat="49.22513" lon="-0.16387">
        <ele>5.584234</ele>
        <time>2022-08-06T10:29:30.000Z</time>
      </trkpt>
      <trkpt lat="49.22515" lon="-0.16393">
        <ele>5.58102</ele>
        <time>2022-08-06T10:29:31.000Z</time>
      </trkpt>
      <trkpt lat="49.22517" lon="-0.164">
        <ele>5.577869</ele>
        <time>2022-08-06T10:29:32.000Z</time>
      </trkpt>
      <trkpt lat="49.22518" lon="-0.16407">
        <ele>5.574608</ele>
        <time>2022-08-06T10:29:33.000Z</time>
      </trkpt>
      <trkpt lat="49.2252" lon="-0.16413">
        <ele>5.57118</ele>
        <time>2022-08-06T10:29:34.000Z</time>
      </trkpt>
      <trkpt lat="49.22522" lon="-0.1642">
        <ele>5.567799</ele>
        <time>2022-08-06T10:29:35.000Z</time>
      </trkpt>
      <trkpt lat="49.22524" lon="-0.16427">
        <ele>5.564306</ele>
        <time>2022-08-06T10:29:36.000Z</time>
      </trkpt>
      <trkpt lat="49.22526" lon="-0.16434">
        <ele>5.560841</ele>
        <time>2022-08-06T10:29:37.000Z</time>
      </trkpt>
      <trkpt lat="49.22528" lon="-0.16442">
        <ele>5.557164</ele>
        <time>2022-08-06T10:29:38.000Z</time>
      </trkpt>
      <trkpt lat="49.2253" lon="-0.16449">
        <ele>5.553486</ele>
        <time>2022-08-06T10:29:39.000Z</time>
      </trkpt>
      <trkpt lat="49.22532" lon="-0.16456">
        <ele>5.550021</ele>
        <time>2022-08-06T10:29:40.000Z</time>
      </trkpt>
      <trkpt lat="49.22534" lon="-0.16463">
        <ele>5.54652</ele>
        <time>2022-08-06T10:29:41.000Z</time>
      </trkpt>
      <trkpt lat="49.22536" lon="-0.1647">
        <ele>5.542887</ele>
        <time>2022-08-06T10:29:42.000Z</time>
      </trkpt>
      <trkpt lat="49.22538" lon="-0.16477">
        <ele>5.539421</ele>
        <time>2022-08-06T10:29:43.000Z</time>
      </trkpt>
      <trkpt lat="49.22541" lon="-0.16484">
        <ele>5.535819</ele>
        <time>2022-08-06T10:29:44.000Z</time>
      </trkpt>
      <trkpt lat="49.22543" lon="-0.16491">
        <ele>5.532391</ele>
        <time>2022-08-06T10:29:45.000Z</time>
      </trkpt>
      <trkpt lat="49.22544" lon="-0.16497">
        <ele>5.529152</ele>
        <time>2022-08-06T10:29:46.000Z</time>
      </trkpt>
      <trkpt lat="49.22546" lon="-0.16504">
        <ele>5.525939</ele>
        <time>2022-08-06T10:29:47.000Z</time>
      </trkpt>
      <trkpt lat="49.22548" lon="-0.1651">
        <ele>5.522654</ele>
        <time>2022-08-06T10:29:48.000Z</time>
      </trkpt>
      <trkpt lat="49.2255" lon="-0.16516">
        <ele>5.519565</ele>
        <time>2022-08-06T10:29:49.000Z</time>
      </trkpt>
      <trkpt lat="49.22552" lon="-0.16523">
        <ele>5.516226</ele>
        <time>2022-08-06T10:29:50.000Z</time>
      </trkpt>
      <trkpt lat="49.22554" lon="-0.1653">
        <ele>5.512836</ele>
        <time>2022-08-06T10:29:51.000Z</time>
      </trkpt>
      <trkpt lat="49.22556" lon="-0.16537">
        <ele>5.50937</ele>
        <time>2022-08-06T10:29:52.000Z</time>
      </trkpt>
      <trkpt lat="49.22557" lon="-0.16544">
        <ele>5.50582</ele>
        <time>2022-08-06T10:29:53.000Z</time>
      </trkpt>
      <trkpt lat="49.22559" lon="-0.16551">
        <ele>5.502286</ele>
        <time>2022-08-06T10:29:54.000Z</time>
      </trkpt>
      <trkpt lat="49.22562" lon="-0.16559">
        <ele>5.498569</ele>
        <time>2022-08-06T10:29:55.000Z</time>
      </trkpt>
      <trkpt lat="49.22564" lon="-0.16566">
        <ele>5.492585</ele>
        <time>2022-08-06T10:29:56.000Z</time>
      </trkpt>
      <trkpt lat="49.22565" lon="-0.16573">
        <ele>5.479502</ele>
        <time>2022-08-06T10:29:57.000Z</time>
      </trkpt>
      <trkpt lat="49.22567" lon="-0.1658">
        <ele>5.465988</ele>
        <time>2022-08-06T10:29:58.000Z</time>
      </trkpt>
      <trkpt lat="49.22569" lon="-0.16587">
        <ele>5.45258</ele>
        <time>2022-08-06T10:29:59.000Z</time>
      </trkpt>
      <trkpt lat="49.22571" lon="-0.16594">
        <ele>5.438844</ele>
        <time>2022-08-06T10:30:00.000Z</time>
      </trkpt>
      <trkpt lat="49.22573" lon="-0.16601">
        <ele>5.425421</ele>
        <time>2022-08-06T10:30:01.000Z</time>
      </trkpt>
      <trkpt lat="49.22575" lon="-0.16607">
        <ele>5.41223</ele>
        <time>2022-08-06T10:30:02.000Z</time>
      </trkpt>
      <trkpt lat="49.22577" lon="-0.16614">
        <ele>5.398822</ele>
        <time>2022-08-06T10:30:03.000Z</time>
      </trkpt>
      <trkpt lat="49.22579" lon="-0.16621">
        <ele>5.385871</ele>
        <time>2022-08-06T10:30:04.000Z</time>
      </trkpt>
      <trkpt lat="49.22581" lon="-0.16628">
        <ele>5.373113</ele>
        <time>2022-08-06T10:30:05.000Z</time>
      </trkpt>
      <trkpt lat="49.22583" lon="-0.16635">
        <ele>5.360194</ele>
        <time>2022-08-06T10:30:06.000Z</time>
      </trkpt>
      <trkpt lat="49.22584" lon="-0.16641">
        <ele>5.348507</ele>
        <time>2022-08-06T10:30:07.000Z</time>
      </trkpt>
      <trkpt lat="49.22587" lon="-0.16647">
        <ele>5.335025</ele>
        <time>2022-08-06T10:30:08.000Z</time>
      </trkpt>
      <trkpt lat="49.22589" lon="-0.16654">
        <ele>5.322911</ele>
        <time>2022-08-06T10:30:09.000Z</time>
      </trkpt>
      <trkpt lat="49.2259" lon="-0.1666">
        <ele>5.31173</ele>
        <time>2022-08-06T10:30:10.000Z</time>
      </trkpt>
      <trkpt lat="49.22591" lon="-0.16666">
        <ele>5.299444</ele>
        <time>2022-08-06T10:30:11.000Z</time>
      </trkpt>
      <trkpt lat="49.22593" lon="-0.16672">
        <ele>5.287652</ele>
        <time>2022-08-06T10:30:12.000Z</time>
      </trkpt>
      <trkpt lat="49.22595" lon="-0.16679">
        <ele>5.275056</ele>
        <time>2022-08-06T10:30:13.000Z</time>
      </trkpt>
      <trkpt lat="49.22597" lon="-0.16685">
        <ele>5.261949</ele>
        <time>2022-08-06T10:30:14.000Z</time>
      </trkpt>
      <trkpt lat="49.22599" lon="-0.16692">
        <ele>5.248704</ele>
        <time>2022-08-06T10:30:15.000Z</time>
      </trkpt>
      <trkpt lat="49.22601" lon="-0.16699">
        <ele>5.235938</ele>
        <time>2022-08-06T10:30:16.000Z</time>
      </trkpt>
      <trkpt lat="49.22603" lon="-0.16705">
        <ele>5.22332</ele>
        <time>2022-08-06T10:30:17.000Z</time>
      </trkpt>
      <trkpt lat="49.22605" lon="-0.16712">
        <ele>5.210562</ele>
        <time>2022-08-06T10:30:18.000Z</time>
      </trkpt>
      <trkpt lat="49.22607" lon="-0.16719">
        <ele>5.197643</ele>
        <time>2022-08-06T10:30:19.000Z</time>
      </trkpt>
      <trkpt lat="49.22609" lon="-0.16725">
        <ele>5.185047</ele>
        <time>2022-08-06T10:30:20.000Z</time>
      </trkpt>
      <trkpt lat="49.22611" lon="-0.16732">
        <ele>5.172017</ele>
        <time>2022-08-06T10:30:21.000Z</time>
      </trkpt>
      <trkpt lat="49.22613" lon="-0.16738">
        <ele>5.159381</ele>
        <time>2022-08-06T10:30:22.000Z</time>
      </trkpt>
      <trkpt lat="49.22615" lon="-0.16745">
        <ele>5.146461</ele>
        <time>2022-08-06T10:30:23.000Z</time>
      </trkpt>
      <trkpt lat="49.22617" lon="-0.16751">
        <ele>5.133865</ele>
        <time>2022-08-06T10:30:24.000Z</time>
      </trkpt>
      <trkpt lat="49.22618" lon="-0.16758">
        <ele>5.121578</ele>
        <time>2022-08-06T10:30:25.000Z</time>
      </trkpt>
      <trkpt lat="49.2262" lon="-0.16764">
        <ele>5.110229</ele>
        <time>2022-08-06T10:30:26.000Z</time>
      </trkpt>
      <trkpt lat="49.22621" lon="-0.1677">
        <ele>5.097794</ele>
        <time>2022-08-06T10:30:27.000Z</time>
      </trkpt>
      <trkpt lat="49.22623" lon="-0.16777">
        <ele>5.085085</ele>
        <time>2022-08-06T10:30:28.000Z</time>
      </trkpt>
      <trkpt lat="49.22625" lon="-0.16783">
        <ele>5.072489</ele>
        <time>2022-08-06T10:30:29.000Z</time>
      </trkpt>
      <trkpt lat="49.22628" lon="-0.1679">
        <ele>5.05954</ele>
        <time>2022-08-06T10:30:30.000Z</time>
      </trkpt>
      <trkpt lat="49.22629" lon="-0.16796">
        <ele>5.047253</ele>
        <time>2022-08-06T10:30:31.000Z</time>
      </trkpt>
      <trkpt lat="49.22631" lon="-0.16803">
        <ele>5.034177</ele>
        <time>2022-08-06T10:30:32.000Z</time>
      </trkpt>
      <trkpt lat="49.22633" lon="-0.16809">
        <ele>5.02142</ele>
        <time>2022-08-06T10:30:33.000Z</time>
      </trkpt>
      <trkpt lat="49.22635" lon="-0.16816">
        <ele>5.008914</ele>
        <time>2022-08-06T10:30:34.000Z</time>
      </trkpt>
      <trkpt lat="49.22637" lon="-0.16823">
        <ele>5.011607</ele>
        <time>2022-08-06T10:30:35.000Z</time>
      </trkpt>
      <trkpt lat="49.22639" lon="-0.1683">
        <ele>5.014074</ele>
        <time>2022-08-06T10:30:36.000Z</time>
      </trkpt>
      <trkpt lat="49.22641" lon="-0.16836">
        <ele>5.016668</ele>
        <time>2022-08-06T10:30:37.000Z</time>
      </trkpt>
      <trkpt lat="49.22643" lon="-0.16842">
        <ele>5.019169</ele>
        <time>2022-08-06T10:30:38.000Z</time>
      </trkpt>
      <trkpt lat="49.22645" lon="-0.16849">
        <ele>5.021666</ele>
        <time>2022-08-06T10:30:39.000Z</time>
      </trkpt>
      <trkpt lat="49.22647" lon="-0.16855">
        <ele>5.024066</ele>
        <time>2022-08-06T10:30:40.000Z</time>
      </trkpt>
      <trkpt lat="49.22648" lon="-0.16862">
        <ele>5.026666</ele>
        <time>2022-08-06T10:30:41.000Z</time>
      </trkpt>
      <trkpt lat="49.2265" lon="-0.16869">
        <ele>5.029293</ele>
        <time>2022-08-06T10:30:42.000Z</time>
      </trkpt>
      <trkpt lat="49.22652" lon="-0.16875">
        <ele>5.031707</ele>
        <time>2022-08-06T10:30:43.000Z</time>
      </trkpt>
      <trkpt lat="49.22654" lon="-0.16881">
        <ele>5.034416</ele>
        <time>2022-08-06T10:30:44.000Z</time>
      </trkpt>
      <trkpt lat="49.22656" lon="-0.16888">
        <ele>5.036977</ele>
        <time>2022-08-06T10:30:45.000Z</time>
      </trkpt>
      <trkpt lat="49.22658" lon="-0.16894">
        <ele>5.039506</ele>
        <time>2022-08-06T10:30:46.000Z</time>
      </trkpt>
      <trkpt lat="49.2266" lon="-0.16901">
        <ele>5.042058</ele>
        <time>2022-08-06T10:30:47.000Z</time>
      </trkpt>
      <trkpt lat="49.22662" lon="-0.16907">
        <ele>5.04449</ele>
        <time>2022-08-06T10:30:48.000Z</time>
      </trkpt>
      <trkpt lat="49.22664" lon="-0.16913">
        <ele>5.046923</ele>
        <time>2022-08-06T10:30:49.000Z</time>
      </trkpt>
      <trkpt lat="49.22666" lon="-0.1692">
        <ele>5.049452</ele>
        <time>2022-08-06T10:30:50.000Z</time>
      </trkpt>
      <trkpt lat="49.22668" lon="-0.16926">
        <ele>5.052015</ele>
        <time>2022-08-06T10:30:51.000Z</time>
      </trkpt>
      <trkpt lat="49.2267" lon="-0.16932">
        <ele>5.054447</ele>
        <time>2022-08-06T10:30:52.000Z</time>
      </trkpt>
      <trkpt lat="49.22672" lon="-0.16939">
        <ele>5.056912</ele>
        <time>2022-08-06T10:30:53.000Z</time>
      </trkpt>
      <trkpt lat="49.22673" lon="-0.16945">
        <ele>5.059326</ele>
        <time>2022-08-06T10:30:54.000Z</time>
      </trkpt>
      <trkpt lat="49.22676" lon="-0.16952">
        <ele>5.062005</ele>
        <time>2022-08-06T10:30:55.000Z</time>
      </trkpt>
      <trkpt lat="49.22678" lon="-0.16958">
        <ele>5.064621</ele>
        <time>2022-08-06T10:30:56.000Z</time>
      </trkpt>
      <trkpt lat="49.22679" lon="-0.16965">
        <ele>5.067255</ele>
        <time>2022-08-06T10:30:57.000Z</time>
      </trkpt>
      <trkpt lat="49.22681" lon="-0.16973">
        <ele>5.069928</ele>
        <time>2022-08-06T10:30:58.000Z</time>
      </trkpt>
      <trkpt lat="49.22682" lon="-0.1698">
        <ele>5.072663</ele>
        <time>2022-08-06T10:30:59.000Z</time>
      </trkpt>
      <trkpt lat="49.22684" lon="-0.16986">
        <ele>5.075119</ele>
        <time>2022-08-06T10:31:00.000Z</time>
      </trkpt>
      <trkpt lat="49.22686" lon="-0.16992">
        <ele>5.077551</ele>
        <time>2022-08-06T10:31:01.000Z</time>
      </trkpt>
      <trkpt lat="49.22688" lon="-0.16999">
        <ele>5.080016</ele>
        <time>2022-08-06T10:31:02.000Z</time>
      </trkpt>
      <trkpt lat="49.2269" lon="-0.17005">
        <ele>5.082521</ele>
        <time>2022-08-06T10:31:03.000Z</time>
      </trkpt>
      <trkpt lat="49.22693" lon="-0.17011">
        <ele>5.084992</ele>
        <time>2022-08-06T10:31:04.000Z</time>
      </trkpt>
      <trkpt lat="49.22695" lon="-0.17017">
        <ele>5.087592</ele>
        <time>2022-08-06T10:31:05.000Z</time>
      </trkpt>
      <trkpt lat="49.22696" lon="-0.17024">
        <ele>5.089993</ele>
        <time>2022-08-06T10:31:06.000Z</time>
      </trkpt>
      <trkpt lat="49.22698" lon="-0.1703">
        <ele>5.092522</ele>
        <time>2022-08-06T10:31:07.000Z</time>
      </trkpt>
      <trkpt lat="49.22701" lon="-0.17037">
        <ele>5.095147</ele>
        <time>2022-08-06T10:31:08.000Z</time>
      </trkpt>
      <trkpt lat="49.22702" lon="-0.17043">
        <ele>5.097741</ele>
        <time>2022-08-06T10:31:09.000Z</time>
      </trkpt>
      <trkpt lat="49.22704" lon="-0.1705">
        <ele>5.100303</ele>
        <time>2022-08-06T10:31:10.000Z</time>
      </trkpt>
      <trkpt lat="49.22706" lon="-0.17056">
        <ele>5.10277</ele>
        <time>2022-08-06T10:31:11.000Z</time>
      </trkpt>
      <trkpt lat="49.22708" lon="-0.17063">
        <ele>5.105267</ele>
        <time>2022-08-06T10:31:12.000Z</time>
      </trkpt>
      <trkpt lat="49.2271" lon="-0.17069">
        <ele>5.09806</ele>
        <time>2022-08-06T10:31:13.000Z</time>
      </trkpt>
      <trkpt lat="49.22712" lon="-0.17075">
        <ele>5.080548</ele>
        <time>2022-08-06T10:31:14.000Z</time>
      </trkpt>
      <trkpt lat="49.22714" lon="-0.17082">
        <ele>5.061786</ele>
        <time>2022-08-06T10:31:15.000Z</time>
      </trkpt>
      <trkpt lat="49.22716" lon="-0.17088">
        <ele>5.043543</ele>
        <time>2022-08-06T10:31:16.000Z</time>
      </trkpt>
      <trkpt lat="49.22717" lon="-0.17094">
        <ele>5.025319</ele>
        <time>2022-08-06T10:31:17.000Z</time>
      </trkpt>
      <trkpt lat="49.22719" lon="-0.17101">
        <ele>5.007076</ele>
        <time>2022-08-06T10:31:18.000Z</time>
      </trkpt>
      <trkpt lat="49.22721" lon="-0.17107">
        <ele>4.989385</ele>
        <time>2022-08-06T10:31:19.000Z</time>
      </trkpt>
      <trkpt lat="49.22723" lon="-0.17113">
        <ele>4.970922</ele>
        <time>2022-08-06T10:31:20.000Z</time>
      </trkpt>
      <trkpt lat="49.22725" lon="-0.1712">
        <ele>4.952219</ele>
        <time>2022-08-06T10:31:21.000Z</time>
      </trkpt>
      <trkpt lat="49.22727" lon="-0.17126">
        <ele>4.933517</ele>
        <time>2022-08-06T10:31:22.000Z</time>
      </trkpt>
      <trkpt lat="49.22728" lon="-0.17133">
        <ele>4.915028</ele>
        <time>2022-08-06T10:31:23.000Z</time>
      </trkpt>
      <trkpt lat="49.2273" lon="-0.1714">
        <ele>4.895845</ele>
        <time>2022-08-06T10:31:24.000Z</time>
      </trkpt>
      <trkpt lat="49.22732" lon="-0.17147">
        <ele>4.875779</ele>
        <time>2022-08-06T10:31:25.000Z</time>
      </trkpt>
      <trkpt lat="49.22734" lon="-0.17153">
        <ele>4.857044</ele>
        <time>2022-08-06T10:31:26.000Z</time>
      </trkpt>
      <trkpt lat="49.22735" lon="-0.1716">
        <ele>4.837567</ele>
        <time>2022-08-06T10:31:27.000Z</time>
      </trkpt>
      <trkpt lat="49.22737" lon="-0.17167">
        <ele>4.817659</ele>
        <time>2022-08-06T10:31:28.000Z</time>
      </trkpt>
      <trkpt lat="49.22739" lon="-0.17174">
        <ele>4.798677</ele>
        <time>2022-08-06T10:31:29.000Z</time>
      </trkpt>
      <trkpt lat="49.22741" lon="-0.17181">
        <ele>4.777724</ele>
        <time>2022-08-06T10:31:30.000Z</time>
      </trkpt>
      <trkpt lat="49.22743" lon="-0.17188">
        <ele>4.757658</ele>
        <time>2022-08-06T10:31:31.000Z</time>
      </trkpt>
      <trkpt lat="49.22745" lon="-0.17195">
        <ele>4.73702</ele>
        <time>2022-08-06T10:31:32.000Z</time>
      </trkpt>
      <trkpt lat="49.22747" lon="-0.17202">
        <ele>4.717543</ele>
        <time>2022-08-06T10:31:33.000Z</time>
      </trkpt>
      <trkpt lat="49.22749" lon="-0.1721">
        <ele>4.696661</ele>
        <time>2022-08-06T10:31:34.000Z</time>
      </trkpt>
      <trkpt lat="49.22751" lon="-0.17217">
        <ele>4.675513</ele>
        <time>2022-08-06T10:31:35.000Z</time>
      </trkpt>
      <trkpt lat="49.22753" lon="-0.17224">
        <ele>4.656089</ele>
        <time>2022-08-06T10:31:36.000Z</time>
      </trkpt>
      <trkpt lat="49.22755" lon="-0.17231">
        <ele>4.635694</ele>
        <time>2022-08-06T10:31:37.000Z</time>
      </trkpt>
      <trkpt lat="49.22757" lon="-0.17238">
        <ele>4.615472</ele>
        <time>2022-08-06T10:31:38.000Z</time>
      </trkpt>
      <trkpt lat="49.22759" lon="-0.17245">
        <ele>4.594834</ele>
        <time>2022-08-06T10:31:39.000Z</time>
      </trkpt>
      <trkpt lat="49.22761" lon="-0.17252">
        <ele>4.575169</ele>
        <time>2022-08-06T10:31:40.000Z</time>
      </trkpt>
      <trkpt lat="49.22763" lon="-0.17259">
        <ele>4.554862</ele>
        <time>2022-08-06T10:31:41.000Z</time>
      </trkpt>
      <trkpt lat="49.22765" lon="-0.17267">
        <ele>4.534468</ele>
        <time>2022-08-06T10:31:42.000Z</time>
      </trkpt>
      <trkpt lat="49.22766" lon="-0.17274">
        <ele>4.513341</ele>
        <time>2022-08-06T10:31:43.000Z</time>
      </trkpt>
      <trkpt lat="49.22768" lon="-0.17281">
        <ele>4.492947</ele>
        <time>2022-08-06T10:31:44.000Z</time>
      </trkpt>
      <trkpt lat="49.2277" lon="-0.17289">
        <ele>4.47231</ele>
        <time>2022-08-06T10:31:45.000Z</time>
      </trkpt>
      <trkpt lat="49.22773" lon="-0.17296">
        <ele>4.45126</ele>
        <time>2022-08-06T10:31:46.000Z</time>
      </trkpt>
      <trkpt lat="49.22774" lon="-0.17303">
        <ele>4.431352</ele>
        <time>2022-08-06T10:31:47.000Z</time>
      </trkpt>
      <trkpt lat="49.22776" lon="-0.1731">
        <ele>4.411928</ele>
        <time>2022-08-06T10:31:48.000Z</time>
      </trkpt>
      <trkpt lat="49.22778" lon="-0.17317">
        <ele>4.391534</ele>
        <time>2022-08-06T10:31:49.000Z</time>
      </trkpt>
      <trkpt lat="49.2278" lon="-0.17324">
        <ele>4.386007</ele>
        <time>2022-08-06T10:31:50.000Z</time>
      </trkpt>
      <trkpt lat="49.22782" lon="-0.17331">
        <ele>4.39048</ele>
        <time>2022-08-06T10:31:51.000Z</time>
      </trkpt>
      <trkpt lat="49.22784" lon="-0.17338">
        <ele>4.394792</ele>
        <time>2022-08-06T10:31:52.000Z</time>
      </trkpt>
      <trkpt lat="49.22786" lon="-0.17345">
        <ele>4.399158</ele>
        <time>2022-08-06T10:31:53.000Z</time>
      </trkpt>
      <trkpt lat="49.22788" lon="-0.17352">
        <ele>4.403452</ele>
        <time>2022-08-06T10:31:54.000Z</time>
      </trkpt>
      <trkpt lat="49.2279" lon="-0.17358">
        <ele>4.407659</ele>
        <time>2022-08-06T10:31:55.000Z</time>
      </trkpt>
      <trkpt lat="49.22793" lon="-0.17365">
        <ele>4.412336</ele>
        <time>2022-08-06T10:31:56.000Z</time>
      </trkpt>
      <trkpt lat="49.22795" lon="-0.17372">
        <ele>4.416595</ele>
        <time>2022-08-06T10:31:57.000Z</time>
      </trkpt>
      <trkpt lat="49.22797" lon="-0.17379">
        <ele>4.421068</ele>
        <time>2022-08-06T10:31:58.000Z</time>
      </trkpt>
      <trkpt lat="49.22799" lon="-0.17386">
        <ele>4.425581</ele>
        <time>2022-08-06T10:31:59.000Z</time>
      </trkpt>
      <trkpt lat="49.22802" lon="-0.17393">
        <ele>4.430002</ele>
        <time>2022-08-06T10:32:00.000Z</time>
      </trkpt>
      <trkpt lat="49.22804" lon="-0.17399">
        <ele>4.434392</ele>
        <time>2022-08-06T10:32:01.000Z</time>
      </trkpt>
      <trkpt lat="49.22807" lon="-0.17406">
        <ele>4.438876</ele>
        <time>2022-08-06T10:32:02.000Z</time>
      </trkpt>
      <trkpt lat="49.22809" lon="-0.17412">
        <ele>4.443014</ele>
        <time>2022-08-06T10:32:03.000Z</time>
      </trkpt>
      <trkpt lat="49.22812" lon="-0.17419">
        <ele>4.447407</ele>
        <time>2022-08-06T10:32:04.000Z</time>
      </trkpt>
      <trkpt lat="49.22814" lon="-0.17425">
        <ele>4.451748</ele>
        <time>2022-08-06T10:32:05.000Z</time>
      </trkpt>
      <trkpt lat="49.22817" lon="-0.17431">
        <ele>4.456253</ele>
        <time>2022-08-06T10:32:06.000Z</time>
      </trkpt>
      <trkpt lat="49.2282" lon="-0.17438">
        <ele>4.460597</ele>
        <time>2022-08-06T10:32:07.000Z</time>
      </trkpt>
      <trkpt lat="49.22822" lon="-0.17444">
        <ele>4.464854</ele>
        <time>2022-08-06T10:32:08.000Z</time>
      </trkpt>
      <trkpt lat="49.22824" lon="-0.17451">
        <ele>4.469173</ele>
        <time>2022-08-06T10:32:09.000Z</time>
      </trkpt>
      <trkpt lat="49.22827" lon="-0.17457">
        <ele>4.473565</ele>
        <time>2022-08-06T10:32:10.000Z</time>
      </trkpt>
      <trkpt lat="49.2283" lon="-0.17464">
        <ele>4.477954</ele>
        <time>2022-08-06T10:32:11.000Z</time>
      </trkpt>
      <trkpt lat="49.22833" lon="-0.1747">
        <ele>4.482342</ele>
        <time>2022-08-06T10:32:12.000Z</time>
      </trkpt>
      <trkpt lat="49.22835" lon="-0.17476">
        <ele>4.486634</ele>
        <time>2022-08-06T10:32:13.000Z</time>
      </trkpt>
      <trkpt lat="49.22837" lon="-0.17483">
        <ele>4.490952</ele>
        <time>2022-08-06T10:32:14.000Z</time>
      </trkpt>
      <trkpt lat="49.2284" lon="-0.1749">
        <ele>4.49521</ele>
        <time>2022-08-06T10:32:15.000Z</time>
      </trkpt>
      <trkpt lat="49.22842" lon="-0.17496">
        <ele>4.49931</ele>
        <time>2022-08-06T10:32:16.000Z</time>
      </trkpt>
      <trkpt lat="49.22843" lon="-0.17503">
        <ele>4.50331</ele>
        <time>2022-08-06T10:32:17.000Z</time>
      </trkpt>
      <trkpt lat="49.22844" lon="-0.17509">
        <ele>4.507268</ele>
        <time>2022-08-06T10:32:18.000Z</time>
      </trkpt>
      <trkpt lat="49.22846" lon="-0.17516">
        <ele>4.51143</ele>
        <time>2022-08-06T10:32:19.000Z</time>
      </trkpt>
      <trkpt lat="49.22847" lon="-0.17523">
        <ele>4.515598</ele>
        <time>2022-08-06T10:32:20.000Z</time>
      </trkpt>
      <trkpt lat="49.22848" lon="-0.1753">
        <ele>4.519893</ele>
        <time>2022-08-06T10:32:21.000Z</time>
      </trkpt>
      <trkpt lat="49.22849" lon="-0.17537">
        <ele>4.524029</ele>
        <time>2022-08-06T10:32:22.000Z</time>
      </trkpt>
      <trkpt lat="49.22851" lon="-0.17544">
        <ele>4.528275</ele>
        <time>2022-08-06T10:32:23.000Z</time>
      </trkpt>
      <trkpt lat="49.22851" lon="-0.17551">
        <ele>4.53234</ele>
        <time>2022-08-06T10:32:24.000Z</time>
      </trkpt>
      <trkpt lat="49.22852" lon="-0.17558">
        <ele>4.536406</ele>
        <time>2022-08-06T10:32:25.000Z</time>
      </trkpt>
      <trkpt lat="49.22853" lon="-0.17566">
        <ele>4.540769</ele>
        <time>2022-08-06T10:32:26.000Z</time>
      </trkpt>
      <trkpt lat="49.22853" lon="-0.17573">
        <ele>4.539842</ele>
        <time>2022-08-06T10:32:27.000Z</time>
      </trkpt>
      <trkpt lat="49.22853" lon="-0.1758">
        <ele>4.536697</ele>
        <time>2022-08-06T10:32:28.000Z</time>
      </trkpt>
      <trkpt lat="49.22854" lon="-0.17587">
        <ele>4.533547</ele>
        <time>2022-08-06T10:32:29.000Z</time>
      </trkpt>
      <trkpt lat="49.22854" lon="-0.17594">
        <ele>4.530402</ele>
        <time>2022-08-06T10:32:30.000Z</time>
      </trkpt>
      <trkpt lat="49.22854" lon="-0.17601">
        <ele>4.527264</ele>
        <time>2022-08-06T10:32:31.000Z</time>
      </trkpt>
      <trkpt lat="49.22854" lon="-0.17608">
        <ele>4.524126</ele>
        <time>2022-08-06T10:32:32.000Z</time>
      </trkpt>
      <trkpt lat="49.22854" lon="-0.17614">
        <ele>4.521078</ele>
        <time>2022-08-06T10:32:33.000Z</time>
      </trkpt>
      <trkpt lat="49.22854" lon="-0.17621">
        <ele>4.518068</ele>
        <time>2022-08-06T10:32:34.000Z</time>
      </trkpt>
      <trkpt lat="49.22854" lon="-0.17627">
        <ele>4.515243</ele>
        <time>2022-08-06T10:32:35.000Z</time>
      </trkpt>
      <trkpt lat="49.22854" lon="-0.17634">
        <ele>4.51233</ele>
        <time>2022-08-06T10:32:36.000Z</time>
      </trkpt>
      <trkpt lat="49.22854" lon="-0.17641">
        <ele>4.509237</ele>
        <time>2022-08-06T10:32:37.000Z</time>
      </trkpt>
      <trkpt lat="49.22854" lon="-0.17648">
        <ele>4.506188</ele>
        <time>2022-08-06T10:32:38.000Z</time>
      </trkpt>
      <trkpt lat="49.22854" lon="-0.17654">
        <ele>4.503185</ele>
        <time>2022-08-06T10:32:39.000Z</time>
      </trkpt>
      <trkpt lat="49.22855" lon="-0.17661">
        <ele>4.500075</ele>
        <time>2022-08-06T10:32:40.000Z</time>
      </trkpt>
      <trkpt lat="49.22855" lon="-0.17668">
        <ele>4.497033</ele>
        <time>2022-08-06T10:32:41.000Z</time>
      </trkpt>
      <trkpt lat="49.22857" lon="-0.17674">
        <ele>4.494177</ele>
        <time>2022-08-06T10:32:42.000Z</time>
      </trkpt>
      <trkpt lat="49.22859" lon="-0.17679">
        <ele>4.491249</ele>
        <time>2022-08-06T10:32:43.000Z</time>
      </trkpt>
      <trkpt lat="49.22861" lon="-0.17684">
        <ele>4.488462</ele>
        <time>2022-08-06T10:32:44.000Z</time>
      </trkpt>
      <trkpt lat="49.22865" lon="-0.17688">
        <ele>4.48546</ele>
        <time>2022-08-06T10:32:45.000Z</time>
      </trkpt>
      <trkpt lat="49.22869" lon="-0.17691">
        <ele>4.482431</ele>
        <time>2022-08-06T10:32:46.000Z</time>
      </trkpt>
      <trkpt lat="49.22874" lon="-0.17692">
        <ele>4.47927</ele>
        <time>2022-08-06T10:32:47.000Z</time>
      </trkpt>
      <trkpt lat="49.22878" lon="-0.17692">
        <ele>4.475974</ele>
        <time>2022-08-06T10:32:48.000Z</time>
      </trkpt>
      <trkpt lat="49.22883" lon="-0.17691">
        <ele>4.472845</ele>
        <time>2022-08-06T10:32:49.000Z</time>
      </trkpt>
      <trkpt lat="49.22887" lon="-0.17689">
        <ele>4.469684</ele>
        <time>2022-08-06T10:32:50.000Z</time>
      </trkpt>
      <trkpt lat="49.22892" lon="-0.17688">
        <ele>4.466569</ele>
        <time>2022-08-06T10:32:51.000Z</time>
      </trkpt>
      <trkpt lat="49.22896" lon="-0.17686">
        <ele>4.463376</ele>
        <time>2022-08-06T10:32:52.000Z</time>
      </trkpt>
      <trkpt lat="49.22901" lon="-0.17684">
        <ele>4.459962</ele>
        <time>2022-08-06T10:32:53.000Z</time>
      </trkpt>
      <trkpt lat="49.22905" lon="-0.17681">
        <ele>4.456884</ele>
        <time>2022-08-06T10:32:54.000Z</time>
      </trkpt>
      <trkpt lat="49.2291" lon="-0.17679">
        <ele>4.453389</ele>
        <time>2022-08-06T10:32:55.000Z</time>
      </trkpt>
      <trkpt lat="49.22915" lon="-0.17676">
        <ele>4.450072</ele>
        <time>2022-08-06T10:32:56.000Z</time>
      </trkpt>
      <trkpt lat="49.22919" lon="-0.17674">
        <ele>4.44688</ele>
        <time>2022-08-06T10:32:57.000Z</time>
      </trkpt>
      <trkpt lat="49.22924" lon="-0.17671">
        <ele>4.443594</ele>
        <time>2022-08-06T10:32:58.000Z</time>
      </trkpt>
      <trkpt lat="49.22929" lon="-0.17669">
        <ele>4.43989</ele>
        <time>2022-08-06T10:32:59.000Z</time>
      </trkpt>
      <trkpt lat="49.22933" lon="-0.17666">
        <ele>4.436572</ele>
        <time>2022-08-06T10:33:00.000Z</time>
      </trkpt>
      <trkpt lat="49.22938" lon="-0.17663">
        <ele>4.432897</ele>
        <time>2022-08-06T10:33:01.000Z</time>
      </trkpt>
      <trkpt lat="49.22942" lon="-0.17661">
        <ele>4.429864</ele>
        <time>2022-08-06T10:33:02.000Z</time>
      </trkpt>
      <trkpt lat="49.22947" lon="-0.17659">
        <ele>4.426621</ele>
        <time>2022-08-06T10:33:03.000Z</time>
      </trkpt>
      <trkpt lat="49.22951" lon="-0.17657">
        <ele>4.423335</ele>
        <time>2022-08-06T10:33:04.000Z</time>
      </trkpt>
      <trkpt lat="49.22956" lon="-0.17654">
        <ele>4.420113</ele>
        <time>2022-08-06T10:33:05.000Z</time>
      </trkpt>
      <trkpt lat="49.2296" lon="-0.17652">
        <ele>4.454758</ele>
        <time>2022-08-06T10:33:06.000Z</time>
      </trkpt>
      <trkpt lat="49.22964" lon="-0.17649">
        <ele>4.526603</ele>
        <time>2022-08-06T10:33:07.000Z</time>
      </trkpt>
      <trkpt lat="49.22968" lon="-0.17647">
        <ele>4.603713</ele>
        <time>2022-08-06T10:33:08.000Z</time>
      </trkpt>
      <trkpt lat="49.22972" lon="-0.17645">
        <ele>4.679178</ele>
        <time>2022-08-06T10:33:09.000Z</time>
      </trkpt>
      <trkpt lat="49.22976" lon="-0.17644">
        <ele>4.753269</ele>
        <time>2022-08-06T10:33:10.000Z</time>
      </trkpt>
      <trkpt lat="49.22981" lon="-0.17642">
        <ele>4.829675</ele>
        <time>2022-08-06T10:33:11.000Z</time>
      </trkpt>
      <trkpt lat="49.22985" lon="-0.1764">
        <ele>4.904423</ele>
        <time>2022-08-06T10:33:12.000Z</time>
      </trkpt>
      <trkpt lat="49.22989" lon="-0.17637">
        <ele>4.986481</ele>
        <time>2022-08-06T10:33:13.000Z</time>
      </trkpt>
      <trkpt lat="49.22994" lon="-0.17635">
        <ele>5.07385</ele>
        <time>2022-08-06T10:33:14.000Z</time>
      </trkpt>
      <trkpt lat="49.22998" lon="-0.17633">
        <ele>5.149613</ele>
        <time>2022-08-06T10:33:15.000Z</time>
      </trkpt>
      <trkpt lat="49.23002" lon="-0.17632">
        <ele>5.217013</ele>
        <time>2022-08-06T10:33:16.000Z</time>
      </trkpt>
      <trkpt lat="49.23006" lon="-0.17632">
        <ele>5.290007</ele>
        <time>2022-08-06T10:33:17.000Z</time>
      </trkpt>
      <trkpt lat="49.2301" lon="-0.17634">
        <ele>5.353792</ele>
        <time>2022-08-06T10:33:18.000Z</time>
      </trkpt>
      <trkpt lat="49.23012" lon="-0.17637">
        <ele>5.412454</ele>
        <time>2022-08-06T10:33:19.000Z</time>
      </trkpt>
      <trkpt lat="49.23014" lon="-0.17641">
        <ele>5.476222</ele>
        <time>2022-08-06T10:33:20.000Z</time>
      </trkpt>
      <trkpt lat="49.23016" lon="-0.17646">
        <ele>5.541846</ele>
        <time>2022-08-06T10:33:21.000Z</time>
      </trkpt>
      <trkpt lat="49.23018" lon="-0.17652">
        <ele>5.612226</ele>
        <time>2022-08-06T10:33:22.000Z</time>
      </trkpt>
      <trkpt lat="49.23019" lon="-0.17658">
        <ele>5.682471</ele>
        <time>2022-08-06T10:33:23.000Z</time>
      </trkpt>
      <trkpt lat="49.2302" lon="-0.17664">
        <ele>5.754182</ele>
        <time>2022-08-06T10:33:24.000Z</time>
      </trkpt>
      <trkpt lat="49.23021" lon="-0.1767">
        <ele>5.8232</ele>
        <time>2022-08-06T10:33:25.000Z</time>
      </trkpt>
      <trkpt lat="49.23022" lon="-0.17676">
        <ele>5.895645</ele>
        <time>2022-08-06T10:33:26.000Z</time>
      </trkpt>
      <trkpt lat="49.23024" lon="-0.17682">
        <ele>5.966025</ele>
        <time>2022-08-06T10:33:27.000Z</time>
      </trkpt>
      <trkpt lat="49.23025" lon="-0.17688">
        <ele>6.037737</ele>
        <time>2022-08-06T10:33:28.000Z</time>
      </trkpt>
      <trkpt lat="49.23026" lon="-0.17694">
        <ele>6.107572</ele>
        <time>2022-08-06T10:33:29.000Z</time>
      </trkpt>
      <trkpt lat="49.23028" lon="-0.177">
        <ele>6.184252</ele>
        <time>2022-08-06T10:33:30.000Z</time>
      </trkpt>
      <trkpt lat="49.23029" lon="-0.17706">
        <ele>6.251161</ele>
        <time>2022-08-06T10:33:31.000Z</time>
      </trkpt>
      <trkpt lat="49.23029" lon="-0.17712">
        <ele>6.319891</ele>
        <time>2022-08-06T10:33:32.000Z</time>
      </trkpt>
      <trkpt lat="49.2303" lon="-0.17718">
        <ele>6.386799</ele>
        <time>2022-08-06T10:33:33.000Z</time>
      </trkpt>
      <trkpt lat="49.23031" lon="-0.17723">
        <ele>6.452294</ele>
        <time>2022-08-06T10:33:34.000Z</time>
      </trkpt>
      <trkpt lat="49.23032" lon="-0.17729">
        <ele>6.518151</ele>
        <time>2022-08-06T10:33:35.000Z</time>
      </trkpt>
      <trkpt lat="49.23032" lon="-0.17734">
        <ele>6.580759</ele>
        <time>2022-08-06T10:33:36.000Z</time>
      </trkpt>
      <trkpt lat="49.23033" lon="-0.1774">
        <ele>6.642896</ele>
        <time>2022-08-06T10:33:37.000Z</time>
      </trkpt>
      <trkpt lat="49.23033" lon="-0.17745">
        <ele>6.704236</ele>
        <time>2022-08-06T10:33:38.000Z</time>
      </trkpt>
      <trkpt lat="49.23034" lon="-0.1775">
        <ele>6.763453</ele>
        <time>2022-08-06T10:33:39.000Z</time>
      </trkpt>
      <trkpt lat="49.23035" lon="-0.17755">
        <ele>6.820607</ele>
        <time>2022-08-06T10:33:40.000Z</time>
      </trkpt>
      <trkpt lat="49.23035" lon="-0.1776">
        <ele>6.880729</ele>
        <time>2022-08-06T10:33:41.000Z</time>
      </trkpt>
      <trkpt lat="49.23035" lon="-0.17766">
        <ele>6.943985</ele>
        <time>2022-08-06T10:33:42.000Z</time>
      </trkpt>
      <trkpt lat="49.23036" lon="-0.17771">
        <ele>7.000942</ele>
        <time>2022-08-06T10:33:43.000Z</time>
      </trkpt>
      <trkpt lat="49.23036" lon="-0.17776">
        <ele>7.06016</ele>
        <time>2022-08-06T10:33:44.000Z</time>
      </trkpt>
      <trkpt lat="49.23037" lon="-0.17781">
        <ele>7.115951</ele>
        <time>2022-08-06T10:33:45.000Z</time>
      </trkpt>
      <trkpt lat="49.23038" lon="-0.17786">
        <ele>7.175948</ele>
        <time>2022-08-06T10:33:46.000Z</time>
      </trkpt>
      <trkpt lat="49.23038" lon="-0.17791">
        <ele>7.231387</ele>
        <time>2022-08-06T10:33:47.000Z</time>
      </trkpt>
      <trkpt lat="49.23039" lon="-0.17795">
        <ele>7.287461</ele>
        <time>2022-08-06T10:33:48.000Z</time>
      </trkpt>
      <trkpt lat="49.2304" lon="-0.178">
        <ele>7.339561</ele>
        <time>2022-08-06T10:33:49.000Z</time>
      </trkpt>
      <trkpt lat="49.23041" lon="-0.17805">
        <ele>7.395</ele>
        <time>2022-08-06T10:33:50.000Z</time>
      </trkpt>
      <trkpt lat="49.23042" lon="-0.17809">
        <ele>7.452154</ele>
        <time>2022-08-06T10:33:51.000Z</time>
      </trkpt>
      <trkpt lat="49.23042" lon="-0.17815">
        <ele>7.512055</ele>
        <time>2022-08-06T10:33:52.000Z</time>
      </trkpt>
      <trkpt lat="49.23043" lon="-0.1782">
        <ele>7.584232</ele>
        <time>2022-08-06T10:33:53.000Z</time>
      </trkpt>
      <trkpt lat="49.23044" lon="-0.17825">
        <ele>7.68022</ele>
        <time>2022-08-06T10:33:54.000Z</time>
      </trkpt>
      <trkpt lat="49.23044" lon="-0.1783">
        <ele>7.769812</ele>
        <time>2022-08-06T10:33:55.000Z</time>
      </trkpt>
      <trkpt lat="49.23044" lon="-0.17835">
        <ele>7.856153</ele>
        <time>2022-08-06T10:33:56.000Z</time>
      </trkpt>
      <trkpt lat="49.23045" lon="-0.17839">
        <ele>7.945261</ele>
        <time>2022-08-06T10:33:57.000Z</time>
      </trkpt>
      <trkpt lat="49.23046" lon="-0.17844">
        <ele>8.033463</ele>
        <time>2022-08-06T10:33:58.000Z</time>
      </trkpt>
      <trkpt lat="49.23047" lon="-0.17849">
        <ele>8.120665</ele>
        <time>2022-08-06T10:33:59.000Z</time>
      </trkpt>
      <trkpt lat="49.23048" lon="-0.17854">
        <ele>8.215036</ele>
        <time>2022-08-06T10:34:00.000Z</time>
      </trkpt>
      <trkpt lat="49.23048" lon="-0.17858">
        <ele>8.297523</ele>
        <time>2022-08-06T10:34:01.000Z</time>
      </trkpt>
      <trkpt lat="49.23049" lon="-0.17863">
        <ele>8.389125</ele>
        <time>2022-08-06T10:34:02.000Z</time>
      </trkpt>
      <trkpt lat="49.2305" lon="-0.17868">
        <ele>8.478716</ele>
        <time>2022-08-06T10:34:03.000Z</time>
      </trkpt>
      <trkpt lat="49.2305" lon="-0.17873">
        <ele>8.564754</ele>
        <time>2022-08-06T10:34:04.000Z</time>
      </trkpt>
      <trkpt lat="49.23051" lon="-0.17878">
        <ele>8.652511</ele>
        <time>2022-08-06T10:34:05.000Z</time>
      </trkpt>
      <trkpt lat="49.23051" lon="-0.17883">
        <ele>8.74322</ele>
        <time>2022-08-06T10:34:06.000Z</time>
      </trkpt>
      <trkpt lat="49.23052" lon="-0.17888">
        <ele>8.831035</ele>
        <time>2022-08-06T10:34:07.000Z</time>
      </trkpt>
      <trkpt lat="49.23052" lon="-0.17893">
        <ele>8.917073</ele>
        <time>2022-08-06T10:34:08.000Z</time>
      </trkpt>
      <trkpt lat="49.23053" lon="-0.17897">
        <ele>9.00483</ele>
        <time>2022-08-06T10:34:09.000Z</time>
      </trkpt>
      <trkpt lat="49.23053" lon="-0.17902">
        <ele>9.09028</ele>
        <time>2022-08-06T10:34:10.000Z</time>
      </trkpt>
      <trkpt lat="49.23053" lon="-0.17907">
        <ele>9.174542</ele>
        <time>2022-08-06T10:34:11.000Z</time>
      </trkpt>
      <trkpt lat="49.23054" lon="-0.17911">
        <ele>9.257345</ele>
        <time>2022-08-06T10:34:12.000Z</time>
      </trkpt>
      <trkpt lat="49.23054" lon="-0.17916">
        <ele>9.346937</ele>
        <time>2022-08-06T10:34:13.000Z</time>
      </trkpt>
      <trkpt lat="49.23054" lon="-0.17921">
        <ele>9.434751</ele>
        <time>2022-08-06T10:34:14.000Z</time>
      </trkpt>
      <trkpt lat="49.23055" lon="-0.17926">
        <ele>9.521258</ele>
        <time>2022-08-06T10:34:15.000Z</time>
      </trkpt>
      <trkpt lat="49.23056" lon="-0.17931">
        <ele>9.606708</ele>
        <time>2022-08-06T10:34:16.000Z</time>
      </trkpt>
      <trkpt lat="49.23056" lon="-0.17935">
        <ele>9.692746</ele>
        <time>2022-08-06T10:34:17.000Z</time>
      </trkpt>
      <trkpt lat="49.23056" lon="-0.1794">
        <ele>9.776609</ele>
        <time>2022-08-06T10:34:18.000Z</time>
      </trkpt>
      <trkpt lat="49.23057" lon="-0.17945">
        <ele>9.85732</ele>
        <time>2022-08-06T10:34:19.000Z</time>
      </trkpt>
      <trkpt lat="49.23057" lon="-0.17949">
        <ele>9.939861</ele>
        <time>2022-08-06T10:34:20.000Z</time>
      </trkpt>
      <trkpt lat="49.23057" lon="-0.17954">
        <ele>10.029076</ele>
        <time>2022-08-06T10:34:21.000Z</time>
      </trkpt>
      <trkpt lat="49.23057" lon="-0.17959">
        <ele>10.112939</ele>
        <time>2022-08-06T10:34:22.000Z</time>
      </trkpt>
      <trkpt lat="49.23058" lon="-0.17964">
        <ele>10.20253</ele>
        <time>2022-08-06T10:34:23.000Z</time>
      </trkpt>
      <trkpt lat="49.23058" lon="-0.17969">
        <ele>10.288177</ele>
        <time>2022-08-06T10:34:24.000Z</time>
      </trkpt>
      <trkpt lat="49.23058" lon="-0.17973">
        <ele>10.373824</ele>
        <time>2022-08-06T10:34:25.000Z</time>
      </trkpt>
      <trkpt lat="49.23058" lon="-0.17978">
        <ele>10.452333</ele>
        <time>2022-08-06T10:34:26.000Z</time>
      </trkpt>
      <trkpt lat="49.23057" lon="-0.17982">
        <ele>10.53482</ele>
        <time>2022-08-06T10:34:27.000Z</time>
      </trkpt>
      <trkpt lat="49.23057" lon="-0.17987">
        <ele>10.618683</ele>
        <time>2022-08-06T10:34:28.000Z</time>
      </trkpt>
      <trkpt lat="49.23057" lon="-0.17992">
        <ele>10.704699</ele>
        <time>2022-08-06T10:34:29.000Z</time>
      </trkpt>
      <trkpt lat="49.23057" lon="-0.17996">
        <ele>10.786777</ele>
        <time>2022-08-06T10:34:30.000Z</time>
      </trkpt>
      <trkpt lat="49.23057" lon="-0.18001">
        <ele>10.861718</ele>
        <time>2022-08-06T10:34:31.000Z</time>
      </trkpt>
      <trkpt lat="49.23057" lon="-0.18005">
        <ele>10.942012</ele>
        <time>2022-08-06T10:34:32.000Z</time>
      </trkpt>
      <trkpt lat="49.23057" lon="-0.1801">
        <ele>11.022306</ele>
        <time>2022-08-06T10:34:33.000Z</time>
      </trkpt>
      <trkpt lat="49.23056" lon="-0.18014">
        <ele>11.099468</ele>
        <time>2022-08-06T10:34:34.000Z</time>
      </trkpt>
      <trkpt lat="49.23056" lon="-0.18018">
        <ele>11.177977</ele>
        <time>2022-08-06T10:34:35.000Z</time>
      </trkpt>
      <trkpt lat="49.23056" lon="-0.18023">
        <ele>11.258689</ele>
        <time>2022-08-06T10:34:36.000Z</time>
      </trkpt>
      <trkpt lat="49.23056" lon="-0.18027">
        <ele>11.335414</ele>
        <time>2022-08-06T10:34:37.000Z</time>
      </trkpt>
      <trkpt lat="49.23056" lon="-0.18032">
        <ele>11.415708</ele>
        <time>2022-08-06T10:34:38.000Z</time>
      </trkpt>
      <trkpt lat="49.23056" lon="-0.18036">
        <ele>11.501355</ele>
        <time>2022-08-06T10:34:39.000Z</time>
      </trkpt>
      <trkpt lat="49.23056" lon="-0.18041">
        <ele>11.590946</ele>
        <time>2022-08-06T10:34:40.000Z</time>
      </trkpt>
      <trkpt lat="49.23056" lon="-0.18047">
        <ele>11.68373</ele>
        <time>2022-08-06T10:34:41.000Z</time>
      </trkpt>
      <trkpt lat="49.23056" lon="-0.18051">
        <ele>11.767593</ele>
        <time>2022-08-06T10:34:42.000Z</time>
      </trkpt>
      <trkpt lat="49.23055" lon="-0.18056">
        <ele>11.857184</ele>
        <time>2022-08-06T10:34:43.000Z</time>
      </trkpt>
      <trkpt lat="49.23055" lon="-0.18061">
        <ele>11.946399</ele>
        <time>2022-08-06T10:34:44.000Z</time>
      </trkpt>
      <trkpt lat="49.23056" lon="-0.18066">
        <ele>12.035991</ele>
        <time>2022-08-06T10:34:45.000Z</time>
      </trkpt>
      <trkpt lat="49.23055" lon="-0.18071">
        <ele>12.125582</ele>
        <time>2022-08-06T10:34:46.000Z</time>
      </trkpt>
      <trkpt lat="49.23055" lon="-0.18076">
        <ele>12.211924</ele>
        <time>2022-08-06T10:34:47.000Z</time>
      </trkpt>
      <trkpt lat="49.23055" lon="-0.18081">
        <ele>12.301139</ele>
        <time>2022-08-06T10:34:48.000Z</time>
      </trkpt>
      <trkpt lat="49.23055" lon="-0.18086">
        <ele>12.390355</ele>
        <time>2022-08-06T10:34:49.000Z</time>
      </trkpt>
      <trkpt lat="49.23055" lon="-0.18091">
        <ele>12.517314</ele>
        <time>2022-08-06T10:34:50.000Z</time>
      </trkpt>
      <trkpt lat="49.23055" lon="-0.18097">
        <ele>12.727853</ele>
        <time>2022-08-06T10:34:51.000Z</time>
      </trkpt>
      <trkpt lat="49.23055" lon="-0.18102">
        <ele>12.947493</ele>
        <time>2022-08-06T10:34:52.000Z</time>
      </trkpt>
      <trkpt lat="49.23056" lon="-0.18108">
        <ele>13.158792</ele>
        <time>2022-08-06T10:34:53.000Z</time>
      </trkpt>
      <trkpt lat="49.23056" lon="-0.18113">
        <ele>13.365433</ele>
        <time>2022-08-06T10:34:54.000Z</time>
      </trkpt>
      <trkpt lat="49.23056" lon="-0.18118">
        <ele>13.560376</ele>
        <time>2022-08-06T10:34:55.000Z</time>
      </trkpt>
      <trkpt lat="49.23056" lon="-0.18123">
        <ele>13.763118</ele>
        <time>2022-08-06T10:34:56.000Z</time>
      </trkpt>
      <trkpt lat="49.23056" lon="-0.18129">
        <ele>13.969758</ele>
        <time>2022-08-06T10:34:57.000Z</time>
      </trkpt>
      <trkpt lat="49.23056" lon="-0.18134">
        <ele>14.164702</ele>
        <time>2022-08-06T10:34:58.000Z</time>
      </trkpt>
      <trkpt lat="49.23056" lon="-0.18139">
        <ele>14.367443</ele>
        <time>2022-08-06T10:34:59.000Z</time>
      </trkpt>
      <trkpt lat="49.23056" lon="-0.18144">
        <ele>14.566285</ele>
        <time>2022-08-06T10:35:00.000Z</time>
      </trkpt>
      <trkpt lat="49.23056" lon="-0.18149">
        <ele>14.761229</ele>
        <time>2022-08-06T10:35:01.000Z</time>
      </trkpt>
      <trkpt lat="49.23056" lon="-0.18154">
        <ele>14.96397</ele>
        <time>2022-08-06T10:35:02.000Z</time>
      </trkpt>
      <trkpt lat="49.23056" lon="-0.18159">
        <ele>15.151116</ele>
        <time>2022-08-06T10:35:03.000Z</time>
      </trkpt>
      <trkpt lat="49.23055" lon="-0.18164">
        <ele>15.339069</ele>
        <time>2022-08-06T10:35:04.000Z</time>
      </trkpt>
      <trkpt lat="49.23055" lon="-0.18168">
        <ele>15.526215</ele>
        <time>2022-08-06T10:35:05.000Z</time>
      </trkpt>
      <trkpt lat="49.23054" lon="-0.18173">
        <ele>15.724423</ele>
        <time>2022-08-06T10:35:06.000Z</time>
      </trkpt>
      <trkpt lat="49.23054" lon="-0.18178">
        <ele>15.922631</ele>
        <time>2022-08-06T10:35:07.000Z</time>
      </trkpt>
      <trkpt lat="49.23054" lon="-0.18183">
        <ele>16.105878</ele>
        <time>2022-08-06T10:35:08.000Z</time>
      </trkpt>
      <trkpt lat="49.23054" lon="-0.18188">
        <ele>16.282239</ele>
        <time>2022-08-06T10:35:09.000Z</time>
      </trkpt>
      <trkpt lat="49.23054" lon="-0.18192">
        <ele>16.4586</ele>
        <time>2022-08-06T10:35:10.000Z</time>
      </trkpt>
      <trkpt lat="49.23053" lon="-0.18196">
        <ele>16.627945</ele>
        <time>2022-08-06T10:35:11.000Z</time>
      </trkpt>
      <trkpt lat="49.23053" lon="-0.18201">
        <ele>16.799495</ele>
        <time>2022-08-06T10:35:12.000Z</time>
      </trkpt>
      <trkpt lat="49.23053" lon="-0.18205">
        <ele>16.968101</ele>
        <time>2022-08-06T10:35:13.000Z</time>
      </trkpt>
      <trkpt lat="49.23053" lon="-0.18209">
        <ele>17.124056</ele>
        <time>2022-08-06T10:35:14.000Z</time>
      </trkpt>
      <trkpt lat="49.23053" lon="-0.18213">
        <ele>17.268314</ele>
        <time>2022-08-06T10:35:15.000Z</time>
      </trkpt>
      <trkpt lat="49.23053" lon="-0.18217">
        <ele>17.424269</ele>
        <time>2022-08-06T10:35:16.000Z</time>
      </trkpt>
      <trkpt lat="49.23053" lon="-0.18221">
        <ele>17.584286</ele>
        <time>2022-08-06T10:35:17.000Z</time>
      </trkpt>
      <trkpt lat="49.23052" lon="-0.18225">
        <ele>17.749513</ele>
        <time>2022-08-06T10:35:18.000Z</time>
      </trkpt>
      <trkpt lat="49.23052" lon="-0.18229">
        <ele>17.906493</ele>
        <time>2022-08-06T10:35:19.000Z</time>
      </trkpt>
      <trkpt lat="49.23051" lon="-0.18233">
        <ele>18.071223</ele>
        <time>2022-08-06T10:35:20.000Z</time>
      </trkpt>
      <trkpt lat="49.23051" lon="-0.18237">
        <ele>18.21938</ele>
        <time>2022-08-06T10:35:21.000Z</time>
      </trkpt>
      <trkpt lat="49.23051" lon="-0.18241">
        <ele>18.363638</ele>
        <time>2022-08-06T10:35:22.000Z</time>
      </trkpt>
      <trkpt lat="49.23051" lon="-0.18244">
        <ele>18.512278</ele>
        <time>2022-08-06T10:35:23.000Z</time>
      </trkpt>
      <trkpt lat="49.2305" lon="-0.18248">
        <ele>18.670051</ele>
        <time>2022-08-06T10:35:24.000Z</time>
      </trkpt>
      <trkpt lat="49.2305" lon="-0.18252">
        <ele>18.827032</ele>
        <time>2022-08-06T10:35:25.000Z</time>
      </trkpt>
      <trkpt lat="49.23049" lon="-0.18256">
        <ele>18.987048</ele>
        <time>2022-08-06T10:35:26.000Z</time>
      </trkpt>
      <trkpt lat="49.23049" lon="-0.1826">
        <ele>19.129766</ele>
        <time>2022-08-06T10:35:27.000Z</time>
      </trkpt>
      <trkpt lat="49.23048" lon="-0.18263">
        <ele>19.267397</ele>
        <time>2022-08-06T10:35:28.000Z</time>
      </trkpt>
      <trkpt lat="49.23048" lon="-0.18267">
        <ele>19.416633</ele>
        <time>2022-08-06T10:35:29.000Z</time>
      </trkpt>
      <trkpt lat="49.23047" lon="-0.1827">
        <ele>19.55019</ele>
        <time>2022-08-06T10:35:30.000Z</time>
      </trkpt>
      <trkpt lat="49.23047" lon="-0.18274">
        <ele>19.692908</ele>
        <time>2022-08-06T10:35:31.000Z</time>
      </trkpt>
      <trkpt lat="49.23046" lon="-0.18277">
        <ele>19.826674</ele>
        <time>2022-08-06T10:35:32.000Z</time>
      </trkpt>
      <trkpt lat="49.23046" lon="-0.18281">
        <ele>19.956578</ele>
        <time>2022-08-06T10:35:33.000Z</time>
      </trkpt>
      <trkpt lat="49.23045" lon="-0.18284">
        <ele>20.080787</ele>
        <time>2022-08-06T10:35:34.000Z</time>
      </trkpt>
      <trkpt lat="49.23045" lon="-0.18287">
        <ele>20.199117</ele>
        <time>2022-08-06T10:35:35.000Z</time>
      </trkpt>
      <trkpt lat="49.23044" lon="-0.1829">
        <ele>20.327836</ele>
        <time>2022-08-06T10:35:36.000Z</time>
      </trkpt>
      <trkpt lat="49.23044" lon="-0.18293">
        <ele>20.454865</ele>
        <time>2022-08-06T10:35:37.000Z</time>
      </trkpt>
      <trkpt lat="49.23043" lon="-0.18296">
        <ele>20.580928</ele>
        <time>2022-08-06T10:35:38.000Z</time>
      </trkpt>
      <trkpt lat="49.23042" lon="-0.18299">
        <ele>20.729879</ele>
        <time>2022-08-06T10:35:39.000Z</time>
      </trkpt>
      <trkpt lat="49.23042" lon="-0.18303">
        <ele>20.86751</ele>
        <time>2022-08-06T10:35:40.000Z</time>
      </trkpt>
      <trkpt lat="49.23041" lon="-0.18306">
        <ele>20.98984</ele>
        <time>2022-08-06T10:35:41.000Z</time>
      </trkpt>
      <trkpt lat="49.23041" lon="-0.18309">
        <ele>21.114604</ele>
        <time>2022-08-06T10:35:42.000Z</time>
      </trkpt>
      <trkpt lat="49.23041" lon="-0.18312">
        <ele>21.238813</ele>
        <time>2022-08-06T10:35:43.000Z</time>
      </trkpt>
      <trkpt lat="49.2304" lon="-0.18315">
        <ele>21.357143</ele>
        <time>2022-08-06T10:35:44.000Z</time>
      </trkpt>
      <trkpt lat="49.2304" lon="-0.18318">
        <ele>21.4907</ele>
        <time>2022-08-06T10:35:45.000Z</time>
      </trkpt>
      <trkpt lat="49.23038" lon="-0.18322">
        <ele>21.644314</ele>
        <time>2022-08-06T10:35:46.000Z</time>
      </trkpt>
      <trkpt lat="49.23038" lon="-0.18325">
        <ele>21.785399</ele>
        <time>2022-08-06T10:35:47.000Z</time>
      </trkpt>
      <trkpt lat="49.23037" lon="-0.18329">
        <ele>21.923934</ele>
        <time>2022-08-06T10:35:48.000Z</time>
      </trkpt>
      <trkpt lat="49.23037" lon="-0.18331">
        <ele>22.031449</ele>
        <time>2022-08-06T10:35:49.000Z</time>
      </trkpt>
      <trkpt lat="49.23036" lon="-0.18334">
        <ele>22.162772</ele>
        <time>2022-08-06T10:35:50.000Z</time>
      </trkpt>
      <trkpt lat="49.23035" lon="-0.18338">
        <ele>22.313457</ele>
        <time>2022-08-06T10:35:51.000Z</time>
      </trkpt>
      <trkpt lat="49.23034" lon="-0.18341">
        <ele>22.455299</ele>
        <time>2022-08-06T10:35:52.000Z</time>
      </trkpt>
      <trkpt lat="49.23033" lon="-0.18345">
        <ele>22.60425</ele>
        <time>2022-08-06T10:35:53.000Z</time>
      </trkpt>
      <trkpt lat="49.23032" lon="-0.18348">
        <ele>22.72658</ele>
        <time>2022-08-06T10:35:54.000Z</time>
      </trkpt>
      <trkpt lat="49.23031" lon="-0.18351">
        <ele>22.856385</ele>
        <time>2022-08-06T10:35:55.000Z</time>
      </trkpt>
      <trkpt lat="49.2303" lon="-0.18354">
        <ele>23.00145</ele>
        <time>2022-08-06T10:35:56.000Z</time>
      </trkpt>
      <trkpt lat="49.23029" lon="-0.18357">
        <ele>23.141826</ele>
        <time>2022-08-06T10:35:57.000Z</time>
      </trkpt>
      <trkpt lat="49.23028" lon="-0.1836">
        <ele>23.260018</ele>
        <time>2022-08-06T10:35:58.000Z</time>
      </trkpt>
      <trkpt lat="49.23027" lon="-0.18363">
        <ele>23.384107</ele>
        <time>2022-08-06T10:35:59.000Z</time>
      </trkpt>
      <trkpt lat="49.23026" lon="-0.18366">
        <ele>23.497569</ele>
        <time>2022-08-06T10:36:00.000Z</time>
      </trkpt>
      <trkpt lat="49.23026" lon="-0.18369">
        <ele>23.609313</ele>
        <time>2022-08-06T10:36:01.000Z</time>
      </trkpt>
      <trkpt lat="49.23024" lon="-0.18372">
        <ele>23.740525</ele>
        <time>2022-08-06T10:36:02.000Z</time>
      </trkpt>
      <trkpt lat="49.23023" lon="-0.18375">
        <ele>23.858107</ele>
        <time>2022-08-06T10:36:03.000Z</time>
      </trkpt>
      <trkpt lat="49.23023" lon="-0.18378">
        <ele>23.9783</ele>
        <time>2022-08-06T10:36:04.000Z</time>
      </trkpt>
      <trkpt lat="49.23022" lon="-0.18381">
        <ele>24.095881</ele>
        <time>2022-08-06T10:36:05.000Z</time>
      </trkpt>
      <trkpt lat="49.23021" lon="-0.18384">
        <ele>24.230104</ele>
        <time>2022-08-06T10:36:06.000Z</time>
      </trkpt>
      <trkpt lat="49.2302" lon="-0.1839">
        <ele>24.426586</ele>
        <time>2022-08-06T10:36:08.000Z</time>
      </trkpt>
      <trkpt lat="49.23019" lon="-0.18393">
        <ele>24.544167</ele>
        <time>2022-08-06T10:36:09.000Z</time>
      </trkpt>
      <trkpt lat="49.23018" lon="-0.18395">
        <ele>24.65783</ele>
        <time>2022-08-06T10:36:10.000Z</time>
      </trkpt>
      <trkpt lat="49.23016" lon="-0.184">
        <ele>24.839618</ele>
        <time>2022-08-06T10:36:12.000Z</time>
      </trkpt>
      <trkpt lat="49.23015" lon="-0.18406">
        <ele>25.063862</ele>
        <time>2022-08-06T10:36:14.000Z</time>
      </trkpt>
      <trkpt lat="49.23014" lon="-0.18409">
        <ele>25.182435</ele>
        <time>2022-08-06T10:36:15.000Z</time>
      </trkpt>
      <trkpt lat="49.23013" lon="-0.18412">
        <ele>25.295897</ele>
        <time>2022-08-06T10:36:16.000Z</time>
      </trkpt>
      <trkpt lat="49.23012" lon="-0.18415">
        <ele>25.421194</ele>
        <time>2022-08-06T10:36:17.000Z</time>
      </trkpt>
      <trkpt lat="49.23011" lon="-0.18418">
        <ele>25.555417</ele>
        <time>2022-08-06T10:36:18.000Z</time>
      </trkpt>
      <trkpt lat="49.2301" lon="-0.18422">
        <ele>25.692677</ele>
        <time>2022-08-06T10:36:19.000Z</time>
      </trkpt>
      <trkpt lat="49.23008" lon="-0.18425">
        <ele>25.829938</ele>
        <time>2022-08-06T10:36:20.000Z</time>
      </trkpt>
      <trkpt lat="49.23008" lon="-0.18428">
        <ele>25.948511</ele>
        <time>2022-08-06T10:36:21.000Z</time>
      </trkpt>
      <trkpt lat="49.23007" lon="-0.18431">
        <ele>26.07808</ele>
        <time>2022-08-06T10:36:22.000Z</time>
      </trkpt>
      <trkpt lat="49.23006" lon="-0.18435">
        <ele>26.193217</ele>
        <time>2022-08-06T10:36:23.000Z</time>
      </trkpt>
      <trkpt lat="49.23006" lon="-0.18438">
        <ele>26.322095</ele>
        <time>2022-08-06T10:36:24.000Z</time>
      </trkpt>
      <trkpt lat="49.23005" lon="-0.18441">
        <ele>26.442055</ele>
        <time>2022-08-06T10:36:25.000Z</time>
      </trkpt>
      <trkpt lat="49.23004" lon="-0.18444">
        <ele>26.560629</ele>
        <time>2022-08-06T10:36:26.000Z</time>
      </trkpt>
      <trkpt lat="49.23004" lon="-0.18448">
        <ele>26.690998</ele>
        <time>2022-08-06T10:36:27.000Z</time>
      </trkpt>
      <trkpt lat="49.23003" lon="-0.18451">
        <ele>26.824968</ele>
        <time>2022-08-06T10:36:28.000Z</time>
      </trkpt>
      <trkpt lat="49.23002" lon="-0.18455">
        <ele>26.944506</ele>
        <time>2022-08-06T10:36:29.000Z</time>
      </trkpt>
      <trkpt lat="49.23002" lon="-0.1846">
        <ele>27.150135</ele>
        <time>2022-08-06T10:36:31.000Z</time>
      </trkpt>
      <trkpt lat="49.23001" lon="-0.18463">
        <ele>27.263797</ele>
        <time>2022-08-06T10:36:32.000Z</time>
      </trkpt>
      <trkpt lat="49.23" lon="-0.18466">
        <ele>27.375542</ele>
        <time>2022-08-06T10:36:33.000Z</time>
      </trkpt>
      <trkpt lat="49.22999" lon="-0.18469">
        <ele>27.512803</ele>
        <time>2022-08-06T10:36:34.000Z</time>
      </trkpt>
      <trkpt lat="49.22998" lon="-0.18473">
        <ele>27.631377</ele>
        <time>2022-08-06T10:36:35.000Z</time>
      </trkpt>
      <trkpt lat="49.22999" lon="-0.18476">
        <ele>27.760254</ele>
        <time>2022-08-06T10:36:36.000Z</time>
      </trkpt>
      <trkpt lat="49.22998" lon="-0.1848">
        <ele>27.896578</ele>
        <time>2022-08-06T10:36:37.000Z</time>
      </trkpt>
      <trkpt lat="49.22998" lon="-0.18483">
        <ele>28.021232</ele>
        <time>2022-08-06T10:36:38.000Z</time>
      </trkpt>
      <trkpt lat="49.22997" lon="-0.18489">
        <ele>28.232426</ele>
        <time>2022-08-06T10:36:40.000Z</time>
      </trkpt>
      <trkpt lat="49.22996" lon="-0.18493">
        <ele>28.391556</ele>
        <time>2022-08-06T10:36:41.000Z</time>
      </trkpt>
      <trkpt lat="49.22995" lon="-0.18496">
        <ele>28.518925</ele>
        <time>2022-08-06T10:36:42.000Z</time>
      </trkpt>
      <trkpt lat="49.22994" lon="-0.185">
        <ele>28.666413</ele>
        <time>2022-08-06T10:36:43.000Z</time>
      </trkpt>
      <trkpt lat="49.22993" lon="-0.18504">
        <ele>28.810378</ele>
        <time>2022-08-06T10:36:44.000Z</time>
      </trkpt>
      <trkpt lat="49.22992" lon="-0.18508">
        <ele>28.957867</ele>
        <time>2022-08-06T10:36:45.000Z</time>
      </trkpt>
      <trkpt lat="49.22992" lon="-0.18512">
        <ele>29.090656</ele>
        <time>2022-08-06T10:36:46.000Z</time>
      </trkpt>
      <trkpt lat="49.22991" lon="-0.18515">
        <ele>29.233273</ele>
        <time>2022-08-06T10:36:47.000Z</time>
      </trkpt>
      <trkpt lat="49.22991" lon="-0.18519">
        <ele>29.369597</ele>
        <time>2022-08-06T10:36:48.000Z</time>
      </trkpt>
      <trkpt lat="49.22991" lon="-0.18523">
        <ele>29.501374</ele>
        <time>2022-08-06T10:36:49.000Z</time>
      </trkpt>
      <trkpt lat="49.2299" lon="-0.18526">
        <ele>29.6337</ele>
        <time>2022-08-06T10:36:50.000Z</time>
      </trkpt>
      <trkpt lat="49.22989" lon="-0.1853">
        <ele>29.769763</ele>
        <time>2022-08-06T10:36:51.000Z</time>
      </trkpt>
      <trkpt lat="49.22989" lon="-0.18533">
        <ele>29.898641</ele>
        <time>2022-08-06T10:36:52.000Z</time>
      </trkpt>
      <trkpt lat="49.22988" lon="-0.18537">
        <ele>30.024364</ele>
        <time>2022-08-06T10:36:53.000Z</time>
      </trkpt>
      <trkpt lat="49.22987" lon="-0.18541">
        <ele>30.174004</ele>
        <time>2022-08-06T10:36:54.000Z</time>
      </trkpt>
      <trkpt lat="49.22986" lon="-0.18545">
        <ele>30.321493</ele>
        <time>2022-08-06T10:36:55.000Z</time>
      </trkpt>
      <trkpt lat="49.22985" lon="-0.18548">
        <ele>30.471826</ele>
        <time>2022-08-06T10:36:56.000Z</time>
      </trkpt>
      <trkpt lat="49.22984" lon="-0.18552">
        <ele>30.615877</ele>
        <time>2022-08-06T10:36:57.000Z</time>
      </trkpt>
      <trkpt lat="49.22983" lon="-0.18556">
        <ele>30.775007</ele>
        <time>2022-08-06T10:36:58.000Z</time>
      </trkpt>
      <trkpt lat="49.22982" lon="-0.1856">
        <ele>30.92906</ele>
        <time>2022-08-06T10:36:59.000Z</time>
      </trkpt>
      <trkpt lat="49.22981" lon="-0.18565">
        <ele>31.088277</ele>
        <time>2022-08-06T10:37:00.000Z</time>
      </trkpt>
      <trkpt lat="49.2298" lon="-0.18569">
        <ele>31.238959</ele>
        <time>2022-08-06T10:37:01.000Z</time>
      </trkpt>
      <trkpt lat="49.22979" lon="-0.18573">
        <ele>31.398089</ele>
        <time>2022-08-06T10:37:02.000Z</time>
      </trkpt>
      <trkpt lat="49.22978" lon="-0.18577">
        <ele>31.550634</ele>
        <time>2022-08-06T10:37:03.000Z</time>
      </trkpt>
      <trkpt lat="49.22977" lon="-0.18581">
        <ele>31.725886</ele>
        <time>2022-08-06T10:37:04.000Z</time>
      </trkpt>
      <trkpt lat="49.22975" lon="-0.18585">
        <ele>31.902149</ele>
        <time>2022-08-06T10:37:05.000Z</time>
      </trkpt>
      <trkpt lat="49.22974" lon="-0.1859">
        <ele>32.062238</ele>
        <time>2022-08-06T10:37:06.000Z</time>
      </trkpt>
      <trkpt lat="49.22973" lon="-0.18594">
        <ele>32.224564</ele>
        <time>2022-08-06T10:37:07.000Z</time>
      </trkpt>
      <trkpt lat="49.22972" lon="-0.18598">
        <ele>32.381997</ele>
        <time>2022-08-06T10:37:08.000Z</time>
      </trkpt>
      <trkpt lat="49.22971" lon="-0.18602">
        <ele>32.541215</ele>
        <time>2022-08-06T10:37:09.000Z</time>
      </trkpt>
      <trkpt lat="49.22971" lon="-0.18607">
        <ele>32.704792</ele>
        <time>2022-08-06T10:37:10.000Z</time>
      </trkpt>
      <trkpt lat="49.22969" lon="-0.18611">
        <ele>32.890414</ele>
        <time>2022-08-06T10:37:11.000Z</time>
      </trkpt>
      <trkpt lat="49.22968" lon="-0.18616">
        <ele>33.006855</ele>
        <time>2022-08-06T10:37:12.000Z</time>
      </trkpt>
      <trkpt lat="49.22967" lon="-0.18621">
        <ele>33.009315</ele>
        <time>2022-08-06T10:37:13.000Z</time>
      </trkpt>
      <trkpt lat="49.22966" lon="-0.18626">
        <ele>33.011774</ele>
        <time>2022-08-06T10:37:14.000Z</time>
      </trkpt>
      <trkpt lat="49.22965" lon="-0.18632">
        <ele>33.014444</ele>
        <time>2022-08-06T10:37:15.000Z</time>
      </trkpt>
      <trkpt lat="49.22963" lon="-0.18637">
        <ele>33.017032</ele>
        <time>2022-08-06T10:37:16.000Z</time>
      </trkpt>
      <trkpt lat="49.22962" lon="-0.18642">
        <ele>33.019642</ele>
        <time>2022-08-06T10:37:17.000Z</time>
      </trkpt>
      <trkpt lat="49.22962" lon="-0.18648">
        <ele>33.022165</ele>
        <time>2022-08-06T10:37:18.000Z</time>
      </trkpt>
      <trkpt lat="49.22961" lon="-0.18653">
        <ele>33.024669</ele>
        <time>2022-08-06T10:37:19.000Z</time>
      </trkpt>
      <trkpt lat="49.22961" lon="-0.18659">
        <ele>33.02714</ele>
        <time>2022-08-06T10:37:20.000Z</time>
      </trkpt>
      <trkpt lat="49.2296" lon="-0.18664">
        <ele>33.02969</ele>
        <time>2022-08-06T10:37:21.000Z</time>
      </trkpt>
      <trkpt lat="49.22959" lon="-0.1867">
        <ele>33.032374</ele>
        <time>2022-08-06T10:37:22.000Z</time>
      </trkpt>
      <trkpt lat="49.22959" lon="-0.18676">
        <ele>33.035086</ele>
        <time>2022-08-06T10:37:23.000Z</time>
      </trkpt>
      <trkpt lat="49.22959" lon="-0.18682">
        <ele>33.037737</ele>
        <time>2022-08-06T10:37:24.000Z</time>
      </trkpt>
      <trkpt lat="49.22959" lon="-0.18688">
        <ele>33.040571</ele>
        <time>2022-08-06T10:37:25.000Z</time>
      </trkpt>
      <trkpt lat="49.22959" lon="-0.18694">
        <ele>33.043328</ele>
        <time>2022-08-06T10:37:26.000Z</time>
      </trkpt>
      <trkpt lat="49.2296" lon="-0.18699">
        <ele>33.045923</ele>
        <time>2022-08-06T10:37:27.000Z</time>
      </trkpt>
      <trkpt lat="49.2296" lon="-0.18705">
        <ele>33.048628</ele>
        <time>2022-08-06T10:37:28.000Z</time>
      </trkpt>
      <trkpt lat="49.22961" lon="-0.1871">
        <ele>33.050969</ele>
        <time>2022-08-06T10:37:29.000Z</time>
      </trkpt>
      <trkpt lat="49.22962" lon="-0.18716">
        <ele>33.0536</ele>
        <time>2022-08-06T10:37:30.000Z</time>
      </trkpt>
      <trkpt lat="49.22963" lon="-0.18721">
        <ele>33.056102</ele>
        <time>2022-08-06T10:37:31.000Z</time>
      </trkpt>
      <trkpt lat="49.22965" lon="-0.18726">
        <ele>33.058906</ele>
        <time>2022-08-06T10:37:32.000Z</time>
      </trkpt>
      <trkpt lat="49.22967" lon="-0.18732">
        <ele>33.061791</ele>
        <time>2022-08-06T10:37:33.000Z</time>
      </trkpt>
      <trkpt lat="49.22969" lon="-0.18738">
        <ele>33.064749</ele>
        <time>2022-08-06T10:37:34.000Z</time>
      </trkpt>
      <trkpt lat="49.22971" lon="-0.18744">
        <ele>33.067797</ele>
        <time>2022-08-06T10:37:35.000Z</time>
      </trkpt>
      <trkpt lat="49.22973" lon="-0.1875">
        <ele>33.070763</ele>
        <time>2022-08-06T10:37:36.000Z</time>
      </trkpt>
      <trkpt lat="49.22974" lon="-0.18755">
        <ele>33.073516</ele>
        <time>2022-08-06T10:37:37.000Z</time>
      </trkpt>
      <trkpt lat="49.22976" lon="-0.1876">
        <ele>33.076279</ele>
        <time>2022-08-06T10:37:38.000Z</time>
      </trkpt>
      <trkpt lat="49.22978" lon="-0.18766">
        <ele>33.079003</ele>
        <time>2022-08-06T10:37:39.000Z</time>
      </trkpt>
      <trkpt lat="49.22979" lon="-0.1877">
        <ele>33.081263</ele>
        <time>2022-08-06T10:37:40.000Z</time>
      </trkpt>
      <trkpt lat="49.2298" lon="-0.18774">
        <ele>33.083347</ele>
        <time>2022-08-06T10:37:41.000Z</time>
      </trkpt>
      <trkpt lat="49.22981" lon="-0.18778">
        <ele>33.085151</ele>
        <time>2022-08-06T10:37:42.000Z</time>
      </trkpt>
      <trkpt lat="49.22982" lon="-0.18781">
        <ele>33.086694</ele>
        <time>2022-08-06T10:37:43.000Z</time>
      </trkpt>
      <trkpt lat="49.22983" lon="-0.18784">
        <ele>33.088121</ele>
        <time>2022-08-06T10:37:44.000Z</time>
      </trkpt>
      <trkpt lat="49.22984" lon="-0.18787">
        <ele>33.089461</ele>
        <time>2022-08-06T10:37:45.000Z</time>
      </trkpt>
      <trkpt lat="49.22985" lon="-0.18789">
        <ele>33.090847</ele>
        <time>2022-08-06T10:37:46.000Z</time>
      </trkpt>
      <trkpt lat="49.22986" lon="-0.18791">
        <ele>33.092322</ele>
        <time>2022-08-06T10:37:47.000Z</time>
      </trkpt>
      <trkpt lat="49.22988" lon="-0.18794">
        <ele>33.093747</ele>
        <time>2022-08-06T10:37:48.000Z</time>
      </trkpt>
      <trkpt lat="49.22989" lon="-0.18796">
        <ele>33.095088</ele>
        <time>2022-08-06T10:37:49.000Z</time>
      </trkpt>
      <trkpt lat="49.2299" lon="-0.18802">
        <ele>33.097851</ele>
        <time>2022-08-06T10:37:51.000Z</time>
      </trkpt>
      <trkpt lat="49.22992" lon="-0.18804">
        <ele>33.099422</ele>
        <time>2022-08-06T10:37:52.000Z</time>
      </trkpt>
      <trkpt lat="49.22992" lon="-0.18807">
        <ele>33.100813</ele>
        <time>2022-08-06T10:37:53.000Z</time>
      </trkpt>
      <trkpt lat="49.22994" lon="-0.1881">
        <ele>33.102383</ele>
        <time>2022-08-06T10:37:54.000Z</time>
      </trkpt>
      <trkpt lat="49.22994" lon="-0.18813">
        <ele>33.10373</ele>
        <time>2022-08-06T10:37:55.000Z</time>
      </trkpt>
      <trkpt lat="49.22996" lon="-0.18815">
        <ele>33.105191</ele>
        <time>2022-08-06T10:37:56.000Z</time>
      </trkpt>
      <trkpt lat="49.22997" lon="-0.18818">
        <ele>33.106531</ele>
        <time>2022-08-06T10:37:57.000Z</time>
      </trkpt>
      <trkpt lat="49.22997" lon="-0.1882">
        <ele>33.107836</ele>
        <time>2022-08-06T10:37:58.000Z</time>
      </trkpt>
      <trkpt lat="49.22999" lon="-0.18825">
        <ele>33.110254</ele>
        <time>2022-08-06T10:38:00.000Z</time>
      </trkpt>
      <trkpt lat="49.23" lon="-0.18828">
        <ele>33.111715</ele>
        <time>2022-08-06T10:38:01.000Z</time>
      </trkpt>
      <trkpt lat="49.23001" lon="-0.18832">
        <ele>33.113815</ele>
        <time>2022-08-06T10:38:03.000Z</time>
      </trkpt>
      <trkpt lat="49.23002" lon="-0.18837">
        <ele>33.115981</ele>
        <time>2022-08-06T10:38:05.000Z</time>
      </trkpt>
      <trkpt lat="49.23004" lon="-0.1884">
        <ele>33.117934</ele>
        <time>2022-08-06T10:38:07.000Z</time>
      </trkpt>
      <trkpt lat="49.23022" lon="-0.18865">
        <ele>33.129897</ele>
        <time>2022-08-06T10:45:59.000Z</time>
      </trkpt>
      <trkpt lat="49.23024" lon="-0.18869">
        <ele>33.128752</ele>
        <time>2022-08-06T10:46:00.000Z</time>
      </trkpt>
      <trkpt lat="49.23026" lon="-0.18872">
        <ele>33.127652</ele>
        <time>2022-08-06T10:46:01.000Z</time>
      </trkpt>
      <trkpt lat="49.23028" lon="-0.18874">
        <ele>33.126408</ele>
        <time>2022-08-06T10:46:02.000Z</time>
      </trkpt>
      <trkpt lat="49.23029" lon="-0.18878">
        <ele>33.125264</ele>
        <time>2022-08-06T10:46:03.000Z</time>
      </trkpt>
      <trkpt lat="49.23031" lon="-0.18881">
        <ele>33.124006</ele>
        <time>2022-08-06T10:46:04.000Z</time>
      </trkpt>
      <trkpt lat="49.23034" lon="-0.18884">
        <ele>33.122667</ele>
        <time>2022-08-06T10:46:05.000Z</time>
      </trkpt>
      <trkpt lat="49.23036" lon="-0.18887">
        <ele>33.121439</ele>
        <time>2022-08-06T10:46:06.000Z</time>
      </trkpt>
      <trkpt lat="49.23037" lon="-0.18891">
        <ele>33.120189</ele>
        <time>2022-08-06T10:46:07.000Z</time>
      </trkpt>
      <trkpt lat="49.2304" lon="-0.18894">
        <ele>33.118819</ele>
        <time>2022-08-06T10:46:08.000Z</time>
      </trkpt>
      <trkpt lat="49.23042" lon="-0.18898">
        <ele>33.117482</ele>
        <time>2022-08-06T10:46:09.000Z</time>
      </trkpt>
      <trkpt lat="49.23044" lon="-0.18901">
        <ele>33.116061</ele>
        <time>2022-08-06T10:46:10.000Z</time>
      </trkpt>
      <trkpt lat="49.23046" lon="-0.18904">
        <ele>33.114824</ele>
        <time>2022-08-06T10:46:11.000Z</time>
      </trkpt>
      <trkpt lat="49.23047" lon="-0.18907">
        <ele>33.113886</ele>
        <time>2022-08-06T10:46:12.000Z</time>
      </trkpt>
      <trkpt lat="49.23048" lon="-0.1891">
        <ele>33.112979</ele>
        <time>2022-08-06T10:46:13.000Z</time>
      </trkpt>
      <trkpt lat="49.23049" lon="-0.18913">
        <ele>33.112115</ele>
        <time>2022-08-06T10:46:14.000Z</time>
      </trkpt>
      <trkpt lat="49.23049" lon="-0.18915">
        <ele>33.111316</ele>
        <time>2022-08-06T10:46:15.000Z</time>
      </trkpt>
      <trkpt lat="49.2305" lon="-0.1892">
        <ele>33.109925</ele>
        <time>2022-08-06T10:46:17.000Z</time>
      </trkpt>
      <trkpt lat="49.23051" lon="-0.18923">
        <ele>33.109111</ele>
        <time>2022-08-06T10:46:18.000Z</time>
      </trkpt>
      <trkpt lat="49.23052" lon="-0.18926">
        <ele>33.1082</ele>
        <time>2022-08-06T10:46:19.000Z</time>
      </trkpt>
      <trkpt lat="49.23053" lon="-0.18929">
        <ele>33.107293</ele>
        <time>2022-08-06T10:46:20.000Z</time>
      </trkpt>
      <trkpt lat="49.23054" lon="-0.18931">
        <ele>33.106395</ele>
        <time>2022-08-06T10:46:21.000Z</time>
      </trkpt>
      <trkpt lat="49.23057" lon="-0.18931">
        <ele>33.105285</ele>
        <time>2022-08-06T10:46:23.000Z</time>
      </trkpt>
      <trkpt lat="49.2306" lon="-0.18929">
        <ele>33.103609</ele>
        <time>2022-08-06T10:46:25.000Z</time>
      </trkpt>
      <trkpt lat="49.23062" lon="-0.18928">
        <ele>33.102794</ele>
        <time>2022-08-06T10:46:26.000Z</time>
      </trkpt>
      <trkpt lat="49.23064" lon="-0.18926">
        <ele>33.101877</ele>
        <time>2022-08-06T10:46:27.000Z</time>
      </trkpt>
      <trkpt lat="49.23066" lon="-0.18925">
        <ele>33.100879</ele>
        <time>2022-08-06T10:46:28.000Z</time>
      </trkpt>
      <trkpt lat="49.23068" lon="-0.18925">
        <ele>33.100048</ele>
        <time>2022-08-06T10:46:29.000Z</time>
      </trkpt>
      <trkpt lat="49.2307" lon="-0.18925">
        <ele>33.099178</ele>
        <time>2022-08-06T10:46:30.000Z</time>
      </trkpt>
      <trkpt lat="49.23072" lon="-0.18925">
        <ele>33.09835</ele>
        <time>2022-08-06T10:46:31.000Z</time>
      </trkpt>
      <trkpt lat="49.23074" lon="-0.18925">
        <ele>33.097392</ele>
        <time>2022-08-06T10:46:32.000Z</time>
      </trkpt>
      <trkpt lat="49.23109" lon="-0.19021">
        <ele>33.066053</ele>
        <time>2022-08-06T10:48:48.000Z</time>
      </trkpt>
      <trkpt lat="49.23108" lon="-0.19027">
        <ele>33.064419</ele>
        <time>2022-08-06T10:48:49.000Z</time>
      </trkpt>
      <trkpt lat="49.23107" lon="-0.19032">
        <ele>33.062947</ele>
        <time>2022-08-06T10:48:50.000Z</time>
      </trkpt>
      <trkpt lat="49.23107" lon="-0.19037">
        <ele>33.061522</ele>
        <time>2022-08-06T10:48:51.000Z</time>
      </trkpt>
      <trkpt lat="49.23106" lon="-0.19042">
        <ele>33.060064</ele>
        <time>2022-08-06T10:48:52.000Z</time>
      </trkpt>
      <trkpt lat="49.23105" lon="-0.19046">
        <ele>33.058862</ele>
        <time>2022-08-06T10:48:53.000Z</time>
      </trkpt>
      <trkpt lat="49.23103" lon="-0.19049">
        <ele>33.057625</ele>
        <time>2022-08-06T10:48:54.000Z</time>
      </trkpt>
      <trkpt lat="49.231" lon="-0.19051">
        <ele>33.05623</ele>
        <time>2022-08-06T10:48:55.000Z</time>
      </trkpt>
      <trkpt lat="49.23097" lon="-0.19053">
        <ele>33.054766</ele>
        <time>2022-08-06T10:48:56.000Z</time>
      </trkpt>
      <trkpt lat="49.23093" lon="-0.19054">
        <ele>33.050684</ele>
        <time>2022-08-06T10:48:57.000Z</time>
      </trkpt>
      <trkpt lat="49.2309" lon="-0.19055">
        <ele>33.042968</ele>
        <time>2022-08-06T10:48:58.000Z</time>
      </trkpt>
      <trkpt lat="49.23085" lon="-0.19055">
        <ele>33.034519</ele>
        <time>2022-08-06T10:48:59.000Z</time>
      </trkpt>
      <trkpt lat="49.23081" lon="-0.19055">
        <ele>33.025644</ele>
        <time>2022-08-06T10:49:00.000Z</time>
      </trkpt>
      <trkpt lat="49.23077" lon="-0.19054">
        <ele>33.016545</ele>
        <time>2022-08-06T10:49:01.000Z</time>
      </trkpt>
      <trkpt lat="49.23072" lon="-0.19053">
        <ele>33.007469</ele>
        <time>2022-08-06T10:49:02.000Z</time>
      </trkpt>
      <trkpt lat="49.23068" lon="-0.19053">
        <ele>32.99902</ele>
        <time>2022-08-06T10:49:03.000Z</time>
      </trkpt>
      <trkpt lat="49.23064" lon="-0.19053">
        <ele>32.990768</ele>
        <time>2022-08-06T10:49:04.000Z</time>
      </trkpt>
      <trkpt lat="49.23059" lon="-0.19053">
        <ele>32.980506</ele>
        <time>2022-08-06T10:49:05.000Z</time>
      </trkpt>
      <trkpt lat="49.23054" lon="-0.19053">
        <ele>32.971454</ele>
        <time>2022-08-06T10:49:06.000Z</time>
      </trkpt>
      <trkpt lat="49.2305" lon="-0.19053">
        <ele>32.962398</ele>
        <time>2022-08-06T10:49:07.000Z</time>
      </trkpt>
      <trkpt lat="49.23045" lon="-0.19053">
        <ele>32.953337</ele>
        <time>2022-08-06T10:49:08.000Z</time>
      </trkpt>
      <trkpt lat="49.2304" lon="-0.19054">
        <ele>32.94366</ele>
        <time>2022-08-06T10:49:09.000Z</time>
      </trkpt>
      <trkpt lat="49.23036" lon="-0.19054">
        <ele>32.934592</ele>
        <time>2022-08-06T10:49:10.000Z</time>
      </trkpt>
      <trkpt lat="49.23031" lon="-0.19055">
        <ele>32.925717</ele>
        <time>2022-08-06T10:49:11.000Z</time>
      </trkpt>
      <trkpt lat="49.23027" lon="-0.19056">
        <ele>32.91657</ele>
        <time>2022-08-06T10:49:12.000Z</time>
      </trkpt>
      <trkpt lat="49.23024" lon="-0.19057">
        <ele>32.90991</ele>
        <time>2022-08-06T10:49:13.000Z</time>
      </trkpt>
      <trkpt lat="49.2302" lon="-0.1906">
        <ele>32.901967</ele>
        <time>2022-08-06T10:49:14.000Z</time>
      </trkpt>
      <trkpt lat="49.23018" lon="-0.19063">
        <ele>32.895004</ele>
        <time>2022-08-06T10:49:15.000Z</time>
      </trkpt>
      <trkpt lat="49.23015" lon="-0.19067">
        <ele>32.887813</ele>
        <time>2022-08-06T10:49:16.000Z</time>
      </trkpt>
      <trkpt lat="49.23012" lon="-0.19068">
        <ele>32.882311</ele>
        <time>2022-08-06T10:49:17.000Z</time>
      </trkpt>
      <trkpt lat="49.23009" lon="-0.19068">
        <ele>32.875868</ele>
        <time>2022-08-06T10:49:18.000Z</time>
      </trkpt>
      <trkpt lat="49.23007" lon="-0.19066">
        <ele>32.870343</ele>
        <time>2022-08-06T10:49:19.000Z</time>
      </trkpt>
      <trkpt lat="49.23005" lon="-0.19062">
        <ele>32.864237</ele>
        <time>2022-08-06T10:49:20.000Z</time>
      </trkpt>
      <trkpt lat="49.23004" lon="-0.19056">
        <ele>32.856993</ele>
        <time>2022-08-06T10:49:21.000Z</time>
      </trkpt>
      <trkpt lat="49.23004" lon="-0.19051">
        <ele>32.849503</ele>
        <time>2022-08-06T10:49:22.000Z</time>
      </trkpt>
      <trkpt lat="49.23002" lon="-0.19044">
        <ele>32.840698</ele>
        <time>2022-08-06T10:49:23.000Z</time>
      </trkpt>
      <trkpt lat="49.23002" lon="-0.19038">
        <ele>32.831685</ele>
        <time>2022-08-06T10:49:24.000Z</time>
      </trkpt>
      <trkpt lat="49.23002" lon="-0.19031">
        <ele>32.822752</ele>
        <time>2022-08-06T10:49:25.000Z</time>
      </trkpt>
      <trkpt lat="49.23002" lon="-0.19024">
        <ele>32.813688</ele>
        <time>2022-08-06T10:49:26.000Z</time>
      </trkpt>
      <trkpt lat="49.23002" lon="-0.19017">
        <ele>32.804362</ele>
        <time>2022-08-06T10:49:27.000Z</time>
      </trkpt>
      <trkpt lat="49.23001" lon="-0.1901">
        <ele>32.794827</ele>
        <time>2022-08-06T10:49:28.000Z</time>
      </trkpt>
      <trkpt lat="49.23001" lon="-0.19002">
        <ele>32.785369</ele>
        <time>2022-08-06T10:49:29.000Z</time>
      </trkpt>
      <trkpt lat="49.23002" lon="-0.18995">
        <ele>32.775444</ele>
        <time>2022-08-06T10:49:30.000Z</time>
      </trkpt>
      <trkpt lat="49.23002" lon="-0.18988">
        <ele>32.766117</ele>
        <time>2022-08-06T10:49:31.000Z</time>
      </trkpt>
      <trkpt lat="49.23002" lon="-0.18981">
        <ele>32.75664</ele>
        <time>2022-08-06T10:49:32.000Z</time>
      </trkpt>
      <trkpt lat="49.23002" lon="-0.18974">
        <ele>32.747839</ele>
        <time>2022-08-06T10:49:33.000Z</time>
      </trkpt>
      <trkpt lat="49.23001" lon="-0.18968">
        <ele>32.739624</ele>
        <time>2022-08-06T10:49:34.000Z</time>
      </trkpt>
      <trkpt lat="49.22999" lon="-0.18963">
        <ele>32.731909</ele>
        <time>2022-08-06T10:49:35.000Z</time>
      </trkpt>
      <trkpt lat="49.22997" lon="-0.18959">
        <ele>32.725335</ele>
        <time>2022-08-06T10:49:36.000Z</time>
      </trkpt>
      <trkpt lat="49.22994" lon="-0.18957">
        <ele>32.718883</ele>
        <time>2022-08-06T10:49:37.000Z</time>
      </trkpt>
      <trkpt lat="49.2299" lon="-0.18957">
        <ele>32.711234</ele>
        <time>2022-08-06T10:49:38.000Z</time>
      </trkpt>
      <trkpt lat="49.22986" lon="-0.18957">
        <ele>32.703379</ele>
        <time>2022-08-06T10:49:39.000Z</time>
      </trkpt>
      <trkpt lat="49.22982" lon="-0.18958">
        <ele>32.696308</ele>
        <time>2022-08-06T10:49:40.000Z</time>
      </trkpt>
      <trkpt lat="49.22979" lon="-0.18958">
        <ele>32.679241</ele>
        <time>2022-08-06T10:49:41.000Z</time>
      </trkpt>
      <trkpt lat="49.22975" lon="-0.18958">
        <ele>32.651713</ele>
        <time>2022-08-06T10:49:42.000Z</time>
      </trkpt>
      <trkpt lat="49.22971" lon="-0.18958">
        <ele>32.622617</ele>
        <time>2022-08-06T10:49:43.000Z</time>
      </trkpt>
      <trkpt lat="49.22967" lon="-0.18958">
        <ele>32.590497</ele>
        <time>2022-08-06T10:49:44.000Z</time>
      </trkpt>
      <trkpt lat="49.22963" lon="-0.18958">
        <ele>32.559082</ele>
        <time>2022-08-06T10:49:45.000Z</time>
      </trkpt>
      <trkpt lat="49.22959" lon="-0.18958">
        <ele>32.529223</ele>
        <time>2022-08-06T10:49:46.000Z</time>
      </trkpt>
      <trkpt lat="49.22955" lon="-0.18957">
        <ele>32.500127</ele>
        <time>2022-08-06T10:49:47.000Z</time>
      </trkpt>
      <trkpt lat="49.22951" lon="-0.18957">
        <ele>32.467948</ele>
        <time>2022-08-06T10:49:48.000Z</time>
      </trkpt>
      <trkpt lat="49.22947" lon="-0.18956">
        <ele>32.438376</ele>
        <time>2022-08-06T10:49:49.000Z</time>
      </trkpt>
      <trkpt lat="49.22943" lon="-0.18954">
        <ele>32.407809</ele>
        <time>2022-08-06T10:49:50.000Z</time>
      </trkpt>
      <trkpt lat="49.22939" lon="-0.18952">
        <ele>32.373701</ele>
        <time>2022-08-06T10:49:51.000Z</time>
      </trkpt>
      <trkpt lat="49.22935" lon="-0.18949">
        <ele>32.33758</ele>
        <time>2022-08-06T10:49:52.000Z</time>
      </trkpt>
      <trkpt lat="49.2293" lon="-0.18948">
        <ele>32.302015</ele>
        <time>2022-08-06T10:49:53.000Z</time>
      </trkpt>
      <trkpt lat="49.22925" lon="-0.18946">
        <ele>32.261759</ele>
        <time>2022-08-06T10:49:54.000Z</time>
      </trkpt>
      <trkpt lat="49.22921" lon="-0.18944">
        <ele>32.226543</ele>
        <time>2022-08-06T10:49:55.000Z</time>
      </trkpt>
      <trkpt lat="49.22916" lon="-0.18943">
        <ele>32.186832</ele>
        <time>2022-08-06T10:49:56.000Z</time>
      </trkpt>
      <trkpt lat="49.2291" lon="-0.18941">
        <ele>32.14692</ele>
        <time>2022-08-06T10:49:57.000Z</time>
      </trkpt>
      <trkpt lat="49.22905" lon="-0.1894">
        <ele>32.107537</ele>
        <time>2022-08-06T10:49:58.000Z</time>
      </trkpt>
      <trkpt lat="49.22901" lon="-0.18939">
        <ele>32.072767</ele>
        <time>2022-08-06T10:49:59.000Z</time>
      </trkpt>
      <trkpt lat="49.22896" lon="-0.18938">
        <ele>32.033311</ele>
        <time>2022-08-06T10:50:00.000Z</time>
      </trkpt>
      <trkpt lat="49.22891" lon="-0.18936">
        <ele>31.993776</ele>
        <time>2022-08-06T10:50:01.000Z</time>
      </trkpt>
      <trkpt lat="49.22885" lon="-0.18935">
        <ele>31.953117</ele>
        <time>2022-08-06T10:50:02.000Z</time>
      </trkpt>
      <trkpt lat="49.2288" lon="-0.18933">
        <ele>31.913661</ele>
        <time>2022-08-06T10:50:03.000Z</time>
      </trkpt>
      <trkpt lat="49.22875" lon="-0.18934">
        <ele>31.87465</ele>
        <time>2022-08-06T10:50:04.000Z</time>
      </trkpt>
      <trkpt lat="49.22871" lon="-0.18936">
        <ele>31.843405</ele>
        <time>2022-08-06T10:50:05.000Z</time>
      </trkpt>
      <trkpt lat="49.22869" lon="-0.1894">
        <ele>31.812883</ele>
        <time>2022-08-06T10:50:06.000Z</time>
      </trkpt>
      <trkpt lat="49.22867" lon="-0.18946">
        <ele>31.779128</ele>
        <time>2022-08-06T10:50:07.000Z</time>
      </trkpt>
      <trkpt lat="49.22866" lon="-0.18954">
        <ele>31.741392</ele>
        <time>2022-08-06T10:50:08.000Z</time>
      </trkpt>
      <trkpt lat="49.22866" lon="-0.18962">
        <ele>31.702375</ele>
        <time>2022-08-06T10:50:09.000Z</time>
      </trkpt>
      <trkpt lat="49.22865" lon="-0.1897">
        <ele>31.661363</ele>
        <time>2022-08-06T10:50:10.000Z</time>
      </trkpt>
      <trkpt lat="49.22865" lon="-0.18978">
        <ele>31.621414</ele>
        <time>2022-08-06T10:50:11.000Z</time>
      </trkpt>
      <trkpt lat="49.22865" lon="-0.18986">
        <ele>31.582396</ele>
        <time>2022-08-06T10:50:12.000Z</time>
      </trkpt>
      <trkpt lat="49.22864" lon="-0.18993">
        <ele>31.542703</ele>
        <time>2022-08-06T10:50:13.000Z</time>
      </trkpt>
      <trkpt lat="49.22864" lon="-0.19001">
        <ele>31.503186</ele>
        <time>2022-08-06T10:50:14.000Z</time>
      </trkpt>
      <trkpt lat="49.22863" lon="-0.19009">
        <ele>31.464169</ele>
        <time>2022-08-06T10:50:15.000Z</time>
      </trkpt>
      <trkpt lat="49.22863" lon="-0.19017">
        <ele>31.422609</ele>
        <time>2022-08-06T10:50:16.000Z</time>
      </trkpt>
      <trkpt lat="49.22862" lon="-0.19026">
        <ele>31.378923</ele>
        <time>2022-08-06T10:50:17.000Z</time>
      </trkpt>
      <trkpt lat="49.22862" lon="-0.19034">
        <ele>31.337476</ele>
        <time>2022-08-06T10:50:18.000Z</time>
      </trkpt>
      <trkpt lat="49.22862" lon="-0.19043">
        <ele>31.196481</ele>
        <time>2022-08-06T10:50:19.000Z</time>
      </trkpt>
      <trkpt lat="49.22861" lon="-0.19052">
        <ele>30.950517</ele>
        <time>2022-08-06T10:50:20.000Z</time>
      </trkpt>
      <trkpt lat="49.22861" lon="-0.19061">
        <ele>30.703253</ele>
        <time>2022-08-06T10:50:21.000Z</time>
      </trkpt>
      <trkpt lat="49.22861" lon="-0.1907">
        <ele>30.455989</ele>
        <time>2022-08-06T10:50:22.000Z</time>
      </trkpt>
      <trkpt lat="49.2286" lon="-0.19079">
        <ele>30.205498</ele>
        <time>2022-08-06T10:50:23.000Z</time>
      </trkpt>
      <trkpt lat="49.22859" lon="-0.19088">
        <ele>29.947537</ele>
        <time>2022-08-06T10:50:24.000Z</time>
      </trkpt>
      <trkpt lat="49.22858" lon="-0.19097">
        <ele>29.697045</ele>
        <time>2022-08-06T10:50:25.000Z</time>
      </trkpt>
      <trkpt lat="49.22856" lon="-0.19106">
        <ele>29.429675</ele>
        <time>2022-08-06T10:50:26.000Z</time>
      </trkpt>
      <trkpt lat="49.22854" lon="-0.19116">
        <ele>29.159685</ele>
        <time>2022-08-06T10:50:27.000Z</time>
      </trkpt>
      <trkpt lat="49.22852" lon="-0.19125">
        <ele>28.904025</ele>
        <time>2022-08-06T10:50:28.000Z</time>
      </trkpt>
      <trkpt lat="49.2285" lon="-0.19132">
        <ele>28.678433</ele>
        <time>2022-08-06T10:50:29.000Z</time>
      </trkpt>
      <trkpt lat="49.22847" lon="-0.19139">
        <ele>28.469288</ele>
        <time>2022-08-06T10:50:30.000Z</time>
      </trkpt>
      <trkpt lat="49.22843" lon="-0.19143">
        <ele>28.264052</ele>
        <time>2022-08-06T10:50:31.000Z</time>
      </trkpt>
      <trkpt lat="49.22838" lon="-0.19146">
        <ele>28.040672</ele>
        <time>2022-08-06T10:50:32.000Z</time>
      </trkpt>
      <trkpt lat="49.22833" lon="-0.19146">
        <ele>27.808789</ele>
        <time>2022-08-06T10:50:33.000Z</time>
      </trkpt>
      <trkpt lat="49.22827" lon="-0.19147">
        <ele>27.568295</ele>
        <time>2022-08-06T10:50:34.000Z</time>
      </trkpt>
      <trkpt lat="49.22821" lon="-0.1915">
        <ele>27.327243</ele>
        <time>2022-08-06T10:50:35.000Z</time>
      </trkpt>
      <trkpt lat="49.22816" lon="-0.19154">
        <ele>27.075724</ele>
        <time>2022-08-06T10:50:36.000Z</time>
      </trkpt>
      <trkpt lat="49.22813" lon="-0.19161">
        <ele>26.835997</ele>
        <time>2022-08-06T10:50:37.000Z</time>
      </trkpt>
      <trkpt lat="49.2281" lon="-0.1917">
        <ele>26.572861</ele>
        <time>2022-08-06T10:50:38.000Z</time>
      </trkpt>
      <trkpt lat="49.22808" lon="-0.19179">
        <ele>26.301458</ele>
        <time>2022-08-06T10:50:39.000Z</time>
      </trkpt>
      <trkpt lat="49.22805" lon="-0.19189">
        <ele>26.006128</ele>
        <time>2022-08-06T10:50:40.000Z</time>
      </trkpt>
      <trkpt lat="49.22802" lon="-0.192">
        <ele>25.675312</ele>
        <time>2022-08-06T10:50:41.000Z</time>
      </trkpt>
      <trkpt lat="49.22798" lon="-0.19211">
        <ele>25.342035</ele>
        <time>2022-08-06T10:50:42.000Z</time>
      </trkpt>
      <trkpt lat="49.22795" lon="-0.19222">
        <ele>25.011621</ele>
        <time>2022-08-06T10:50:43.000Z</time>
      </trkpt>
      <trkpt lat="49.22792" lon="-0.19233">
        <ele>24.668628</ele>
        <time>2022-08-06T10:50:44.000Z</time>
      </trkpt>
      <trkpt lat="49.22789" lon="-0.19244">
        <ele>24.335705</ele>
        <time>2022-08-06T10:50:45.000Z</time>
      </trkpt>
      <trkpt lat="49.22786" lon="-0.19255">
        <ele>24.027586</ele>
        <time>2022-08-06T10:50:46.000Z</time>
      </trkpt>
      <trkpt lat="49.22782" lon="-0.19264">
        <ele>23.741509</ele>
        <time>2022-08-06T10:50:47.000Z</time>
      </trkpt>
      <trkpt lat="49.22777" lon="-0.19272">
        <ele>23.570104</ele>
        <time>2022-08-06T10:50:48.000Z</time>
      </trkpt>
      <trkpt lat="49.22772" lon="-0.19277">
        <ele>23.408761</ele>
        <time>2022-08-06T10:50:49.000Z</time>
      </trkpt>
      <trkpt lat="49.22765" lon="-0.19279">
        <ele>23.248654</ele>
        <time>2022-08-06T10:50:50.000Z</time>
      </trkpt>
      <trkpt lat="49.22757" lon="-0.1928">
        <ele>23.061895</ele>
        <time>2022-08-06T10:50:51.000Z</time>
      </trkpt>
      <trkpt lat="49.22749" lon="-0.19278">
        <ele>22.866523</ele>
        <time>2022-08-06T10:50:52.000Z</time>
      </trkpt>
      <trkpt lat="49.22741" lon="-0.19277">
        <ele>22.650314</ele>
        <time>2022-08-06T10:50:53.000Z</time>
      </trkpt>
      <trkpt lat="49.22732" lon="-0.19277">
        <ele>22.439369</ele>
        <time>2022-08-06T10:50:54.000Z</time>
      </trkpt>
      <trkpt lat="49.22724" lon="-0.19278">
        <ele>22.245284</ele>
        <time>2022-08-06T10:50:55.000Z</time>
      </trkpt>
      <trkpt lat="49.22716" lon="-0.19279">
        <ele>22.059533</ele>
        <time>2022-08-06T10:50:56.000Z</time>
      </trkpt>
      <trkpt lat="49.22709" lon="-0.19282">
        <ele>21.86805</ele>
        <time>2022-08-06T10:50:57.000Z</time>
      </trkpt>
      <trkpt lat="49.22701" lon="-0.19285">
        <ele>21.673349</ele>
        <time>2022-08-06T10:50:58.000Z</time>
      </trkpt>
      <trkpt lat="49.22694" lon="-0.1929">
        <ele>21.494041</ele>
        <time>2022-08-06T10:50:59.000Z</time>
      </trkpt>
      <trkpt lat="49.22688" lon="-0.19296">
        <ele>21.316565</ele>
        <time>2022-08-06T10:51:00.000Z</time>
      </trkpt>
      <trkpt lat="49.22683" lon="-0.19305">
        <ele>21.132615</ele>
        <time>2022-08-06T10:51:01.000Z</time>
      </trkpt>
      <trkpt lat="49.2268" lon="-0.19317">
        <ele>20.937635</ele>
        <time>2022-08-06T10:51:02.000Z</time>
      </trkpt>
      <trkpt lat="49.22677" lon="-0.19328">
        <ele>20.742655</ele>
        <time>2022-08-06T10:51:03.000Z</time>
      </trkpt>
      <trkpt lat="49.22675" lon="-0.19338">
        <ele>20.570171</ele>
        <time>2022-08-06T10:51:04.000Z</time>
      </trkpt>
      <trkpt lat="49.22673" lon="-0.19347">
        <ele>20.421588</ele>
        <time>2022-08-06T10:51:05.000Z</time>
      </trkpt>
      <trkpt lat="49.22671" lon="-0.19356">
        <ele>20.273928</ele>
        <time>2022-08-06T10:51:06.000Z</time>
      </trkpt>
      <trkpt lat="49.22669" lon="-0.19363">
        <ele>20.148088</ele>
        <time>2022-08-06T10:51:07.000Z</time>
      </trkpt>
      <trkpt lat="49.22666" lon="-0.19369">
        <ele>20.034096</ele>
        <time>2022-08-06T10:51:08.000Z</time>
      </trkpt>
      <trkpt lat="49.22664" lon="-0.19374">
        <ele>19.941263</ele>
        <time>2022-08-06T10:51:09.000Z</time>
      </trkpt>
      <trkpt lat="49.22661" lon="-0.19377">
        <ele>19.856427</ele>
        <time>2022-08-06T10:51:10.000Z</time>
      </trkpt>
      <trkpt lat="49.22658" lon="-0.1938">
        <ele>19.769345</ele>
        <time>2022-08-06T10:51:11.000Z</time>
      </trkpt>
      <trkpt lat="49.22654" lon="-0.19381">
        <ele>19.682043</ele>
        <time>2022-08-06T10:51:12.000Z</time>
      </trkpt>
      <trkpt lat="49.22651" lon="-0.19382">
        <ele>19.596481</ele>
        <time>2022-08-06T10:51:13.000Z</time>
      </trkpt>
      <trkpt lat="49.22648" lon="-0.19382">
        <ele>19.533277</ele>
        <time>2022-08-06T10:51:14.000Z</time>
      </trkpt>
      <trkpt lat="49.22646" lon="-0.19383">
        <ele>19.478809</ele>
        <time>2022-08-06T10:51:15.000Z</time>
      </trkpt>
      <trkpt lat="49.22643" lon="-0.19382">
        <ele>19.407644</ele>
        <time>2022-08-06T10:51:16.000Z</time>
      </trkpt>
      <trkpt lat="49.22641" lon="-0.19382">
        <ele>19.503529</ele>
        <time>2022-08-06T10:51:17.000Z</time>
      </trkpt>
      <trkpt lat="49.22638" lon="-0.19382">
        <ele>19.648349</ele>
        <time>2022-08-06T10:51:18.000Z</time>
      </trkpt>
      <trkpt lat="49.22636" lon="-0.19382">
        <ele>19.809717</ele>
        <time>2022-08-06T10:51:19.000Z</time>
      </trkpt>
      <trkpt lat="49.22633" lon="-0.19381">
        <ele>19.933444</ele>
        <time>2022-08-06T10:51:20.000Z</time>
      </trkpt>
      <trkpt lat="49.22629" lon="-0.1938">
        <ele>20.169898</ele>
        <time>2022-08-06T10:51:22.000Z</time>
      </trkpt>
      <trkpt lat="49.22627" lon="-0.19379">
        <ele>20.284233</ele>
        <time>2022-08-06T10:51:23.000Z</time>
      </trkpt>
      <trkpt lat="49.22625" lon="-0.19378">
        <ele>20.411898</ele>
        <time>2022-08-06T10:51:24.000Z</time>
      </trkpt>
      <trkpt lat="49.22623" lon="-0.19377">
        <ele>20.544905</ele>
        <time>2022-08-06T10:51:25.000Z</time>
      </trkpt>
      <trkpt lat="49.22621" lon="-0.19376">
        <ele>20.670695</ele>
        <time>2022-08-06T10:51:26.000Z</time>
      </trkpt>
      <trkpt lat="49.22619" lon="-0.19375">
        <ele>20.781334</ele>
        <time>2022-08-06T10:51:27.000Z</time>
      </trkpt>
      <trkpt lat="49.22616" lon="-0.19374">
        <ele>20.946701</ele>
        <time>2022-08-06T10:51:28.000Z</time>
      </trkpt>
      <trkpt lat="49.22613" lon="-0.19374">
        <ele>21.076494</ele>
        <time>2022-08-06T10:51:29.000Z</time>
      </trkpt>
      <trkpt lat="49.22612" lon="-0.19374">
        <ele>21.182191</ele>
        <time>2022-08-06T10:51:30.000Z</time>
      </trkpt>
      <trkpt lat="49.22609" lon="-0.19373">
        <ele>21.305436</ele>
        <time>2022-08-06T10:51:31.000Z</time>
      </trkpt>
      <trkpt lat="49.22607" lon="-0.19373">
        <ele>21.452966</ele>
        <time>2022-08-06T10:51:32.000Z</time>
      </trkpt>
      <trkpt lat="49.22604" lon="-0.19372">
        <ele>21.61689</ele>
        <time>2022-08-06T10:51:33.000Z</time>
      </trkpt>
      <trkpt lat="49.22601" lon="-0.19371">
        <ele>21.757146</ele>
        <time>2022-08-06T10:51:34.000Z</time>
      </trkpt>
      <trkpt lat="49.22599" lon="-0.1937">
        <ele>21.91171</ele>
        <time>2022-08-06T10:51:35.000Z</time>
      </trkpt>
      <trkpt lat="49.22596" lon="-0.19368">
        <ele>22.087185</ele>
        <time>2022-08-06T10:51:36.000Z</time>
      </trkpt>
      <trkpt lat="49.22593" lon="-0.19367">
        <ele>22.234061</ele>
        <time>2022-08-06T10:51:37.000Z</time>
      </trkpt>
      <trkpt lat="49.22591" lon="-0.19366">
        <ele>22.38159</ele>
        <time>2022-08-06T10:51:38.000Z</time>
      </trkpt>
      <trkpt lat="49.22588" lon="-0.19365">
        <ele>22.546198</ele>
        <time>2022-08-06T10:51:39.000Z</time>
      </trkpt>
      <trkpt lat="49.22585" lon="-0.19364">
        <ele>22.703017</ele>
        <time>2022-08-06T10:51:40.000Z</time>
      </trkpt>
      <trkpt lat="49.22582" lon="-0.19364">
        <ele>22.848066</ele>
        <time>2022-08-06T10:51:41.000Z</time>
      </trkpt>
      <trkpt lat="49.2258" lon="-0.19364">
        <ele>23.010412</ele>
        <time>2022-08-06T10:51:42.000Z</time>
      </trkpt>
      <trkpt lat="49.22577" lon="-0.19363">
        <ele>23.151793</ele>
        <time>2022-08-06T10:51:43.000Z</time>
      </trkpt>
      <trkpt lat="49.22575" lon="-0.19363">
        <ele>23.280206</ele>
        <time>2022-08-06T10:51:44.000Z</time>
      </trkpt>
      <trkpt lat="49.22573" lon="-0.19363">
        <ele>23.403076</ele>
        <time>2022-08-06T10:51:45.000Z</time>
      </trkpt>
      <trkpt lat="49.2257" lon="-0.19363">
        <ele>23.548443</ele>
        <time>2022-08-06T10:51:46.000Z</time>
      </trkpt>
      <trkpt lat="49.22568" lon="-0.19364">
        <ele>23.6547</ele>
        <time>2022-08-06T10:51:47.000Z</time>
      </trkpt>
      <trkpt lat="49.22566" lon="-0.19364">
        <ele>23.778427</ele>
        <time>2022-08-06T10:51:48.000Z</time>
      </trkpt>
      <trkpt lat="49.22564" lon="-0.19365">
        <ele>23.892557</ele>
        <time>2022-08-06T10:51:49.000Z</time>
      </trkpt>
      <trkpt lat="49.22562" lon="-0.19365">
        <ele>24.016283</ele>
        <time>2022-08-06T10:51:50.000Z</time>
      </trkpt>
      <trkpt lat="49.2256" lon="-0.19366">
        <ele>24.125904</ele>
        <time>2022-08-06T10:51:51.000Z</time>
      </trkpt>
      <trkpt lat="49.22558" lon="-0.19367">
        <ele>24.23315</ele>
        <time>2022-08-06T10:51:52.000Z</time>
      </trkpt>
      <trkpt lat="49.22556" lon="-0.19367">
        <ele>24.344943</ele>
        <time>2022-08-06T10:51:53.000Z</time>
      </trkpt>
      <trkpt lat="49.22554" lon="-0.19368">
        <ele>24.45671</ele>
        <time>2022-08-06T10:51:54.000Z</time>
      </trkpt>
      <trkpt lat="49.22551" lon="-0.1937">
        <ele>24.608883</ele>
        <time>2022-08-06T10:51:56.000Z</time>
      </trkpt>
      <trkpt lat="49.22549" lon="-0.1937">
        <ele>24.723876</ele>
        <time>2022-08-06T10:51:57.000Z</time>
      </trkpt>
      <trkpt lat="49.22547" lon="-0.19372">
        <ele>24.856411</ele>
        <time>2022-08-06T10:51:59.000Z</time>
      </trkpt>
      <trkpt lat="49.22541" lon="-0.19373">
        <ele>25.180372</ele>
        <time>2022-08-06T10:52:33.000Z</time>
      </trkpt>
      <trkpt lat="49.22538" lon="-0.19373">
        <ele>25.358721</ele>
        <time>2022-08-06T10:52:34.000Z</time>
      </trkpt>
      <trkpt lat="49.22535" lon="-0.19374">
        <ele>25.516548</ele>
        <time>2022-08-06T10:52:35.000Z</time>
      </trkpt>
      <trkpt lat="49.22533" lon="-0.19375">
        <ele>25.671112</ele>
        <time>2022-08-06T10:52:36.000Z</time>
      </trkpt>
      <trkpt lat="49.2253" lon="-0.19377">
        <ele>25.825676</ele>
        <time>2022-08-06T10:52:37.000Z</time>
      </trkpt>
      <trkpt lat="49.22527" lon="-0.19378">
        <ele>25.988443</ele>
        <time>2022-08-06T10:52:38.000Z</time>
      </trkpt>
      <trkpt lat="49.22525" lon="-0.19379">
        <ele>26.143007</ele>
        <time>2022-08-06T10:52:39.000Z</time>
      </trkpt>
      <trkpt lat="49.22522" lon="-0.19381">
        <ele>26.315753</ele>
        <time>2022-08-06T10:52:40.000Z</time>
      </trkpt>
      <trkpt lat="49.2252" lon="-0.19383">
        <ele>26.452841</ele>
        <time>2022-08-06T10:52:41.000Z</time>
      </trkpt>
      <trkpt lat="49.22517" lon="-0.19384">
        <ele>26.591912</ele>
        <time>2022-08-06T10:52:42.000Z</time>
      </trkpt>
      <trkpt lat="49.22515" lon="-0.19386">
        <ele>26.745596</ele>
        <time>2022-08-06T10:52:43.000Z</time>
      </trkpt>
      <trkpt lat="49.22513" lon="-0.19388">
        <ele>26.868015</ele>
        <time>2022-08-06T10:52:44.000Z</time>
      </trkpt>
      <trkpt lat="49.2251" lon="-0.19389">
        <ele>27.038298</ele>
        <time>2022-08-06T10:52:45.000Z</time>
      </trkpt>
      <trkpt lat="49.22508" lon="-0.19391">
        <ele>27.190453</ele>
        <time>2022-08-06T10:52:46.000Z</time>
      </trkpt>
      <trkpt lat="49.22505" lon="-0.19392">
        <ele>27.337329</ele>
        <time>2022-08-06T10:52:47.000Z</time>
      </trkpt>
      <trkpt lat="49.22502" lon="-0.19393">
        <ele>27.520606</ele>
        <time>2022-08-06T10:52:48.000Z</time>
      </trkpt>
      <trkpt lat="49.22499" lon="-0.19394">
        <ele>27.702292</ele>
        <time>2022-08-06T10:52:49.000Z</time>
      </trkpt>
      <trkpt lat="49.22496" lon="-0.19394">
        <ele>27.830704</ele>
        <time>2022-08-06T10:52:50.000Z</time>
      </trkpt>
      <trkpt lat="49.22493" lon="-0.19395">
        <ele>27.992685</ele>
        <time>2022-08-06T10:52:51.000Z</time>
      </trkpt>
      <trkpt lat="49.2249" lon="-0.19394">
        <ele>28.171293</ele>
        <time>2022-08-06T10:52:52.000Z</time>
      </trkpt>
      <trkpt lat="49.22487" lon="-0.19394">
        <ele>28.327099</ele>
        <time>2022-08-06T10:52:53.000Z</time>
      </trkpt>
      <trkpt lat="49.22484" lon="-0.19394">
        <ele>28.5274</ele>
        <time>2022-08-06T10:52:54.000Z</time>
      </trkpt>
      <trkpt lat="49.2248" lon="-0.19395">
        <ele>28.722241</ele>
        <time>2022-08-06T10:52:55.000Z</time>
      </trkpt>
      <trkpt lat="49.22477" lon="-0.19395">
        <ele>28.916946</ele>
        <time>2022-08-06T10:52:56.000Z</time>
      </trkpt>
      <trkpt lat="49.22474" lon="-0.19395">
        <ele>29.09511</ele>
        <time>2022-08-06T10:52:57.000Z</time>
      </trkpt>
      <trkpt lat="49.2247" lon="-0.19395">
        <ele>29.27346</ele>
        <time>2022-08-06T10:52:58.000Z</time>
      </trkpt>
      <trkpt lat="49.22467" lon="-0.19395">
        <ele>29.416199</ele>
        <time>2022-08-06T10:52:59.000Z</time>
      </trkpt>
      <trkpt lat="49.22464" lon="-0.19395">
        <ele>29.461718</ele>
        <time>2022-08-06T10:53:00.000Z</time>
      </trkpt>
      <trkpt lat="49.2246" lon="-0.19395">
        <ele>29.507229</ele>
        <time>2022-08-06T10:53:01.000Z</time>
      </trkpt>
      <trkpt lat="49.22457" lon="-0.19395">
        <ele>29.544977</ele>
        <time>2022-08-06T10:53:02.000Z</time>
      </trkpt>
      <trkpt lat="49.22454" lon="-0.19395">
        <ele>29.586587</ele>
        <time>2022-08-06T10:53:03.000Z</time>
      </trkpt>
      <trkpt lat="49.22451" lon="-0.19395">
        <ele>29.628231</ele>
        <time>2022-08-06T10:53:04.000Z</time>
      </trkpt>
      <trkpt lat="49.22448" lon="-0.19394">
        <ele>29.666179</ele>
        <time>2022-08-06T10:53:05.000Z</time>
      </trkpt>
      <trkpt lat="49.22445" lon="-0.19394">
        <ele>29.700506</ele>
        <time>2022-08-06T10:53:06.000Z</time>
      </trkpt>
      <trkpt lat="49.22442" lon="-0.19393">
        <ele>29.742538</ele>
        <time>2022-08-06T10:53:07.000Z</time>
      </trkpt>
      <trkpt lat="49.22439" lon="-0.19392">
        <ele>29.784459</ele>
        <time>2022-08-06T10:53:08.000Z</time>
      </trkpt>
      <trkpt lat="49.22436" lon="-0.19392">
        <ele>29.82135</ele>
        <time>2022-08-06T10:53:09.000Z</time>
      </trkpt>
      <trkpt lat="49.22432" lon="-0.19391">
        <ele>29.872126</ele>
        <time>2022-08-06T10:53:10.000Z</time>
      </trkpt>
      <trkpt lat="49.22429" lon="-0.1939">
        <ele>29.918423</ele>
        <time>2022-08-06T10:53:11.000Z</time>
      </trkpt>
      <trkpt lat="49.22426" lon="-0.19389">
        <ele>29.956899</ele>
        <time>2022-08-06T10:53:12.000Z</time>
      </trkpt>
      <trkpt lat="49.22422" lon="-0.19389">
        <ele>30.006377</ele>
        <time>2022-08-06T10:53:13.000Z</time>
      </trkpt>
      <trkpt lat="49.22418" lon="-0.19389">
        <ele>30.057117</ele>
        <time>2022-08-06T10:53:14.000Z</time>
      </trkpt>
      <trkpt lat="49.22414" lon="-0.19389">
        <ele>30.11043</ele>
        <time>2022-08-06T10:53:15.000Z</time>
      </trkpt>
      <trkpt lat="49.2241" lon="-0.1939">
        <ele>30.16132</ele>
        <time>2022-08-06T10:53:16.000Z</time>
      </trkpt>
      <trkpt lat="49.22407" lon="-0.1939">
        <ele>30.206902</ele>
        <time>2022-08-06T10:53:17.000Z</time>
      </trkpt>
      <trkpt lat="49.22403" lon="-0.19391">
        <ele>30.257039</ele>
        <time>2022-08-06T10:53:18.000Z</time>
      </trkpt>
      <trkpt lat="49.22399" lon="-0.19392">
        <ele>30.312073</ele>
        <time>2022-08-06T10:53:19.000Z</time>
      </trkpt>
      <trkpt lat="49.22395" lon="-0.19392">
        <ele>30.365413</ele>
        <time>2022-08-06T10:53:20.000Z</time>
      </trkpt>
      <trkpt lat="49.22391" lon="-0.19393">
        <ele>30.416303</ele>
        <time>2022-08-06T10:53:21.000Z</time>
      </trkpt>
      <trkpt lat="49.22386" lon="-0.19393">
        <ele>30.474971</ele>
        <time>2022-08-06T10:53:22.000Z</time>
      </trkpt>
      <trkpt lat="49.22382" lon="-0.19394">
        <ele>30.524565</ele>
        <time>2022-08-06T10:53:23.000Z</time>
      </trkpt>
      <trkpt lat="49.22378" lon="-0.19394">
        <ele>30.579238</ele>
        <time>2022-08-06T10:53:24.000Z</time>
      </trkpt>
      <trkpt lat="49.22373" lon="-0.19395">
        <ele>30.642119</ele>
        <time>2022-08-06T10:53:25.000Z</time>
      </trkpt>
      <trkpt lat="49.22369" lon="-0.19396">
        <ele>30.695863</ele>
        <time>2022-08-06T10:53:26.000Z</time>
      </trkpt>
      <trkpt lat="49.22365" lon="-0.19396">
        <ele>30.750641</ele>
        <time>2022-08-06T10:53:27.000Z</time>
      </trkpt>
      <trkpt lat="49.22361" lon="-0.19397">
        <ele>30.804385</ele>
        <time>2022-08-06T10:53:28.000Z</time>
      </trkpt>
      <trkpt lat="49.22357" lon="-0.19398">
        <ele>30.859321</ele>
        <time>2022-08-06T10:53:29.000Z</time>
      </trkpt>
      <trkpt lat="49.22353" lon="-0.19398">
        <ele>30.914257</ele>
        <time>2022-08-06T10:53:30.000Z</time>
      </trkpt>
      <trkpt lat="49.22349" lon="-0.19399">
        <ele>30.967813</ele>
        <time>2022-08-06T10:53:31.000Z</time>
      </trkpt>
      <trkpt lat="49.22345" lon="-0.194">
        <ele>31.019231</ele>
        <time>2022-08-06T10:53:32.000Z</time>
      </trkpt>
      <trkpt lat="49.22341" lon="-0.19401">
        <ele>31.069368</ele>
        <time>2022-08-06T10:53:33.000Z</time>
      </trkpt>
      <trkpt lat="49.22337" lon="-0.19402">
        <ele>31.124637</ele>
        <time>2022-08-06T10:53:34.000Z</time>
      </trkpt>
      <trkpt lat="49.22332" lon="-0.19403">
        <ele>31.182478</ele>
        <time>2022-08-06T10:53:35.000Z</time>
      </trkpt>
      <trkpt lat="49.22328" lon="-0.19403">
        <ele>31.233304</ele>
        <time>2022-08-06T10:53:36.000Z</time>
      </trkpt>
      <trkpt lat="49.22324" lon="-0.19404">
        <ele>31.291972</ele>
        <time>2022-08-06T10:53:37.000Z</time>
      </trkpt>
      <trkpt lat="49.2232" lon="-0.19405">
        <ele>31.337987</ele>
        <time>2022-08-06T10:53:38.000Z</time>
      </trkpt>
      <trkpt lat="49.22316" lon="-0.19405">
        <ele>31.396895</ele>
        <time>2022-08-06T10:53:39.000Z</time>
      </trkpt>
      <trkpt lat="49.22312" lon="-0.19406">
        <ele>31.442603</ele>
        <time>2022-08-06T10:53:40.000Z</time>
      </trkpt>
      <trkpt lat="49.22308" lon="-0.19406">
        <ele>31.505111</ele>
        <time>2022-08-06T10:53:41.000Z</time>
      </trkpt>
      <trkpt lat="49.22303" lon="-0.19407">
        <ele>31.563779</ele>
        <time>2022-08-06T10:53:42.000Z</time>
      </trkpt>
      <trkpt lat="49.22299" lon="-0.19407">
        <ele>31.62105</ele>
        <time>2022-08-06T10:53:43.000Z</time>
      </trkpt>
      <trkpt lat="49.22294" lon="-0.19408">
        <ele>31.680596</ele>
        <time>2022-08-06T10:53:44.000Z</time>
      </trkpt>
      <trkpt lat="49.2229" lon="-0.19409">
        <ele>31.739724</ele>
        <time>2022-08-06T10:53:45.000Z</time>
      </trkpt>
      <trkpt lat="49.22285" lon="-0.19411">
        <ele>31.775425</ele>
        <time>2022-08-06T10:53:46.000Z</time>
      </trkpt>
      <trkpt lat="49.22281" lon="-0.19412">
        <ele>31.808748</ele>
        <time>2022-08-06T10:53:47.000Z</time>
      </trkpt>
      <trkpt lat="49.22276" lon="-0.19413">
        <ele>31.841501</ele>
        <time>2022-08-06T10:53:48.000Z</time>
      </trkpt>
      <trkpt lat="49.22272" lon="-0.19414">
        <ele>31.872649</ele>
        <time>2022-08-06T10:53:49.000Z</time>
      </trkpt>
      <trkpt lat="49.22268" lon="-0.19415">
        <ele>31.903666</ele>
        <time>2022-08-06T10:53:50.000Z</time>
      </trkpt>
      <trkpt lat="49.22264" lon="-0.19415">
        <ele>31.931579</ele>
        <time>2022-08-06T10:53:51.000Z</time>
      </trkpt>
      <trkpt lat="49.2226" lon="-0.19416">
        <ele>31.962451</ele>
        <time>2022-08-06T10:53:52.000Z</time>
      </trkpt>
      <trkpt lat="49.22256" lon="-0.19417">
        <ele>31.992876</ele>
        <time>2022-08-06T10:53:53.000Z</time>
      </trkpt>
      <trkpt lat="49.22252" lon="-0.19418">
        <ele>32.022126</ele>
        <time>2022-08-06T10:53:54.000Z</time>
      </trkpt>
      <trkpt lat="49.22248" lon="-0.1942">
        <ele>32.049034</ele>
        <time>2022-08-06T10:53:55.000Z</time>
      </trkpt>
      <trkpt lat="49.22245" lon="-0.19421">
        <ele>32.075428</ele>
        <time>2022-08-06T10:53:56.000Z</time>
      </trkpt>
      <trkpt lat="49.22241" lon="-0.19422">
        <ele>32.103537</ele>
        <time>2022-08-06T10:53:57.000Z</time>
      </trkpt>
      <trkpt lat="49.22237" lon="-0.19423">
        <ele>32.132689</ele>
        <time>2022-08-06T10:53:58.000Z</time>
      </trkpt>
      <trkpt lat="49.22233" lon="-0.19424">
        <ele>32.160945</ele>
        <time>2022-08-06T10:53:59.000Z</time>
      </trkpt>
      <trkpt lat="49.2223" lon="-0.19426">
        <ele>32.18758</ele>
        <time>2022-08-06T10:54:00.000Z</time>
      </trkpt>
      <trkpt lat="49.22226" lon="-0.19427">
        <ele>32.217296</ele>
        <time>2022-08-06T10:54:01.000Z</time>
      </trkpt>
      <trkpt lat="49.22222" lon="-0.1943">
        <ele>32.249637</ele>
        <time>2022-08-06T10:54:02.000Z</time>
      </trkpt>
      <trkpt lat="49.22218" lon="-0.19433">
        <ele>32.280386</ele>
        <time>2022-08-06T10:54:03.000Z</time>
      </trkpt>
      <trkpt lat="49.22215" lon="-0.19436">
        <ele>32.30628</ele>
        <time>2022-08-06T10:54:04.000Z</time>
      </trkpt>
      <trkpt lat="49.22212" lon="-0.19439">
        <ele>32.338053</ele>
        <time>2022-08-06T10:54:05.000Z</time>
      </trkpt>
      <trkpt lat="49.22208" lon="-0.19443">
        <ele>32.369496</ele>
        <time>2022-08-06T10:54:06.000Z</time>
      </trkpt>
      <trkpt lat="49.22205" lon="-0.19447">
        <ele>32.402382</ele>
        <time>2022-08-06T10:54:07.000Z</time>
      </trkpt>
      <trkpt lat="49.22202" lon="-0.19452">
        <ele>32.432302</ele>
        <time>2022-08-06T10:54:08.000Z</time>
      </trkpt>
      <trkpt lat="49.22198" lon="-0.19457">
        <ele>32.465131</ele>
        <time>2022-08-06T10:54:09.000Z</time>
      </trkpt>
      <trkpt lat="49.22196" lon="-0.19462">
        <ele>32.497859</ele>
        <time>2022-08-06T10:54:10.000Z</time>
      </trkpt>
      <trkpt lat="49.22192" lon="-0.19467">
        <ele>32.530688</ele>
        <time>2022-08-06T10:54:11.000Z</time>
      </trkpt>
      <trkpt lat="49.22189" lon="-0.19471">
        <ele>32.561635</ele>
        <time>2022-08-06T10:54:12.000Z</time>
      </trkpt>
      <trkpt lat="49.22187" lon="-0.19476">
        <ele>32.590697</ele>
        <time>2022-08-06T10:54:13.000Z</time>
      </trkpt>
      <trkpt lat="49.22184" lon="-0.1948">
        <ele>32.618744</ele>
        <time>2022-08-06T10:54:14.000Z</time>
      </trkpt>
      <trkpt lat="49.22181" lon="-0.19484">
        <ele>32.647144</ele>
        <time>2022-08-06T10:54:15.000Z</time>
      </trkpt>
      <trkpt lat="49.22179" lon="-0.19489">
        <ele>32.676207</ele>
        <time>2022-08-06T10:54:16.000Z</time>
      </trkpt>
      <trkpt lat="49.22176" lon="-0.19493">
        <ele>32.705688</ele>
        <time>2022-08-06T10:54:17.000Z</time>
      </trkpt>
      <trkpt lat="49.22173" lon="-0.19498">
        <ele>32.736654</ele>
        <time>2022-08-06T10:54:18.000Z</time>
      </trkpt>
      <trkpt lat="49.22171" lon="-0.19503">
        <ele>32.768178</ele>
        <time>2022-08-06T10:54:19.000Z</time>
      </trkpt>
      <trkpt lat="49.22168" lon="-0.19508">
        <ele>32.798769</ele>
        <time>2022-08-06T10:54:20.000Z</time>
      </trkpt>
      <trkpt lat="49.22166" lon="-0.19514">
        <ele>32.831703</ele>
        <time>2022-08-06T10:54:21.000Z</time>
      </trkpt>
      <trkpt lat="49.22163" lon="-0.1952">
        <ele>32.865165</ele>
        <time>2022-08-06T10:54:22.000Z</time>
      </trkpt>
      <trkpt lat="49.2216" lon="-0.19525">
        <ele>32.895755</ele>
        <time>2022-08-06T10:54:23.000Z</time>
      </trkpt>
      <trkpt lat="49.22158" lon="-0.1953">
        <ele>32.925895</ele>
        <time>2022-08-06T10:54:24.000Z</time>
      </trkpt>
      <trkpt lat="49.22154" lon="-0.19535">
        <ele>32.961837</ele>
        <time>2022-08-06T10:54:25.000Z</time>
      </trkpt>
      <trkpt lat="49.22152" lon="-0.1954">
        <ele>32.99085</ele>
        <time>2022-08-06T10:54:26.000Z</time>
      </trkpt>
      <trkpt lat="49.22149" lon="-0.19545">
        <ele>33.022856</ele>
        <time>2022-08-06T10:54:27.000Z</time>
      </trkpt>
      <trkpt lat="49.22146" lon="-0.1955">
        <ele>33.054583</ele>
        <time>2022-08-06T10:54:28.000Z</time>
      </trkpt>
      <trkpt lat="49.22143" lon="-0.19556">
        <ele>33.123126</ele>
        <time>2022-08-06T10:54:29.000Z</time>
      </trkpt>
      <trkpt lat="49.22141" lon="-0.19562">
        <ele>33.199074</ele>
        <time>2022-08-06T10:54:30.000Z</time>
      </trkpt>
      <trkpt lat="49.22137" lon="-0.19569">
        <ele>33.293085</ele>
        <time>2022-08-06T10:54:31.000Z</time>
      </trkpt>
      <trkpt lat="49.22133" lon="-0.19576">
        <ele>33.390879</ele>
        <time>2022-08-06T10:54:32.000Z</time>
      </trkpt>
      <trkpt lat="49.22129" lon="-0.19584">
        <ele>33.492663</ele>
        <time>2022-08-06T10:54:33.000Z</time>
      </trkpt>
      <trkpt lat="49.22125" lon="-0.1959">
        <ele>33.586505</ele>
        <time>2022-08-06T10:54:34.000Z</time>
      </trkpt>
      <trkpt lat="49.22121" lon="-0.19597">
        <ele>33.678969</ele>
        <time>2022-08-06T10:54:35.000Z</time>
      </trkpt>
      <trkpt lat="49.22117" lon="-0.19604">
        <ele>33.768844</ele>
        <time>2022-08-06T10:54:36.000Z</time>
      </trkpt>
      <trkpt lat="49.22113" lon="-0.1961">
        <ele>33.863046</ele>
        <time>2022-08-06T10:54:37.000Z</time>
      </trkpt>
      <trkpt lat="49.22109" lon="-0.19616">
        <ele>33.945927</ele>
        <time>2022-08-06T10:54:38.000Z</time>
      </trkpt>
      <trkpt lat="49.22106" lon="-0.19622">
        <ele>34.021814</ele>
        <time>2022-08-06T10:54:39.000Z</time>
      </trkpt>
      <trkpt lat="49.22103" lon="-0.19627">
        <ele>34.099252</ele>
        <time>2022-08-06T10:54:40.000Z</time>
      </trkpt>
      <trkpt lat="49.221" lon="-0.19632">
        <ele>34.164128</ele>
        <time>2022-08-06T10:54:41.000Z</time>
      </trkpt>
      <trkpt lat="49.22097" lon="-0.19637">
        <ele>34.231494</ele>
        <time>2022-08-06T10:54:42.000Z</time>
      </trkpt>
      <trkpt lat="49.22095" lon="-0.19642">
        <ele>34.294501</ele>
        <time>2022-08-06T10:54:43.000Z</time>
      </trkpt>
      <trkpt lat="49.22093" lon="-0.19647">
        <ele>34.356614</ele>
        <time>2022-08-06T10:54:44.000Z</time>
      </trkpt>
      <trkpt lat="49.22091" lon="-0.19652">
        <ele>34.420446</ele>
        <time>2022-08-06T10:54:45.000Z</time>
      </trkpt>
      <trkpt lat="49.22089" lon="-0.19657">
        <ele>34.478737</ele>
        <time>2022-08-06T10:54:46.000Z</time>
      </trkpt>
      <trkpt lat="49.22087" lon="-0.19663">
        <ele>34.540769</ele>
        <time>2022-08-06T10:54:47.000Z</time>
      </trkpt>
      <trkpt lat="49.22086" lon="-0.19669">
        <ele>34.601576</ele>
        <time>2022-08-06T10:54:48.000Z</time>
      </trkpt>
      <trkpt lat="49.22085" lon="-0.19674">
        <ele>34.660396</ele>
        <time>2022-08-06T10:54:49.000Z</time>
      </trkpt>
      <trkpt lat="49.22085" lon="-0.1968">
        <ele>34.71988</ele>
        <time>2022-08-06T10:54:50.000Z</time>
      </trkpt>
      <trkpt lat="49.22084" lon="-0.19686">
        <ele>34.780381</ele>
        <time>2022-08-06T10:54:51.000Z</time>
      </trkpt>
      <trkpt lat="49.22083" lon="-0.19691">
        <ele>34.843557</ele>
        <time>2022-08-06T10:54:52.000Z</time>
      </trkpt>
      <trkpt lat="49.22083" lon="-0.19697">
        <ele>34.90042</ele>
        <time>2022-08-06T10:54:53.000Z</time>
      </trkpt>
      <trkpt lat="49.22082" lon="-0.19703">
        <ele>34.961228</ele>
        <time>2022-08-06T10:54:54.000Z</time>
      </trkpt>
      <trkpt lat="49.22081" lon="-0.19708">
        <ele>35.016646</ele>
        <time>2022-08-06T10:54:55.000Z</time>
      </trkpt>
      <trkpt lat="49.2208" lon="-0.19713">
        <ele>35.075466</ele>
        <time>2022-08-06T10:54:56.000Z</time>
      </trkpt>
      <trkpt lat="49.22079" lon="-0.19719">
        <ele>35.131315</ele>
        <time>2022-08-06T10:54:57.000Z</time>
      </trkpt>
      <trkpt lat="49.22078" lon="-0.19724">
        <ele>35.186734</ele>
        <time>2022-08-06T10:54:58.000Z</time>
      </trkpt>
      <trkpt lat="49.22077" lon="-0.19729">
        <ele>35.245554</ele>
        <time>2022-08-06T10:54:59.000Z</time>
      </trkpt>
      <trkpt lat="49.22077" lon="-0.19735">
        <ele>35.299958</ele>
        <time>2022-08-06T10:55:00.000Z</time>
      </trkpt>
      <trkpt lat="49.22076" lon="-0.1974">
        <ele>35.355377</ele>
        <time>2022-08-06T10:55:01.000Z</time>
      </trkpt>
      <trkpt lat="49.22076" lon="-0.19745">
        <ele>35.412097</ele>
        <time>2022-08-06T10:55:02.000Z</time>
      </trkpt>
      <trkpt lat="49.22075" lon="-0.1975">
        <ele>35.463828</ele>
        <time>2022-08-06T10:55:03.000Z</time>
      </trkpt>
      <trkpt lat="49.22075" lon="-0.19756">
        <ele>35.521278</ele>
        <time>2022-08-06T10:55:04.000Z</time>
      </trkpt>
      <trkpt lat="49.22074" lon="-0.19761">
        <ele>35.578294</ele>
        <time>2022-08-06T10:55:05.000Z</time>
      </trkpt>
      <trkpt lat="49.22073" lon="-0.19767">
        <ele>35.634714</ele>
        <time>2022-08-06T10:55:06.000Z</time>
      </trkpt>
      <trkpt lat="49.22073" lon="-0.19772">
        <ele>35.689524</ele>
        <time>2022-08-06T10:55:07.000Z</time>
      </trkpt>
      <trkpt lat="49.22073" lon="-0.19777">
        <ele>35.743469</ele>
        <time>2022-08-06T10:55:08.000Z</time>
      </trkpt>
      <trkpt lat="49.22072" lon="-0.19783">
        <ele>35.804888</ele>
        <time>2022-08-06T10:55:09.000Z</time>
      </trkpt>
      <trkpt lat="49.22071" lon="-0.19789">
        <ele>35.863804</ele>
        <time>2022-08-06T10:55:10.000Z</time>
      </trkpt>
      <trkpt lat="49.22071" lon="-0.19794">
        <ele>35.936192</ele>
        <time>2022-08-06T10:55:11.000Z</time>
      </trkpt>
      <trkpt lat="49.2207" lon="-0.198">
        <ele>36.024473</ele>
        <time>2022-08-06T10:55:12.000Z</time>
      </trkpt>
      <trkpt lat="49.22069" lon="-0.19806">
        <ele>36.123795</ele>
        <time>2022-08-06T10:55:13.000Z</time>
      </trkpt>
      <trkpt lat="49.22069" lon="-0.19812">
        <ele>36.216775</ele>
        <time>2022-08-06T10:55:14.000Z</time>
      </trkpt>
      <trkpt lat="49.22069" lon="-0.19818">
        <ele>36.308189</ele>
        <time>2022-08-06T10:55:15.000Z</time>
      </trkpt>
      <trkpt lat="49.22068" lon="-0.19824">
        <ele>36.40548</ele>
        <time>2022-08-06T10:55:16.000Z</time>
      </trkpt>
      <trkpt lat="49.22067" lon="-0.1983">
        <ele>36.509877</ele>
        <time>2022-08-06T10:55:17.000Z</time>
      </trkpt>
      <trkpt lat="49.22066" lon="-0.19837">
        <ele>36.612456</ele>
        <time>2022-08-06T10:55:18.000Z</time>
      </trkpt>
      <trkpt lat="49.22065" lon="-0.19843">
        <ele>36.712246</ele>
        <time>2022-08-06T10:55:19.000Z</time>
      </trkpt>
      <trkpt lat="49.22065" lon="-0.19849">
        <ele>36.812652</ele>
        <time>2022-08-06T10:55:20.000Z</time>
      </trkpt>
      <trkpt lat="49.22064" lon="-0.19855">
        <ele>36.912442</ele>
        <time>2022-08-06T10:55:21.000Z</time>
      </trkpt>
      <trkpt lat="49.22063" lon="-0.19861">
        <ele>37.011257</ele>
        <time>2022-08-06T10:55:22.000Z</time>
      </trkpt>
      <trkpt lat="49.22061" lon="-0.19868">
        <ele>37.118064</ele>
        <time>2022-08-06T10:55:23.000Z</time>
      </trkpt>
      <trkpt lat="49.22061" lon="-0.19874">
        <ele>37.216541</ele>
        <time>2022-08-06T10:55:24.000Z</time>
      </trkpt>
      <trkpt lat="49.2206" lon="-0.19881">
        <ele>37.319682</ele>
        <time>2022-08-06T10:55:25.000Z</time>
      </trkpt>
      <trkpt lat="49.2206" lon="-0.19887">
        <ele>37.420089</ele>
        <time>2022-08-06T10:55:26.000Z</time>
      </trkpt>
      <trkpt lat="49.22059" lon="-0.19893">
        <ele>37.519879</ele>
        <time>2022-08-06T10:55:27.000Z</time>
      </trkpt>
      <trkpt lat="49.22058" lon="-0.19899">
        <ele>37.621745</ele>
        <time>2022-08-06T10:55:28.000Z</time>
      </trkpt>
      <trkpt lat="49.22057" lon="-0.19906">
        <ele>37.722084</ele>
        <time>2022-08-06T10:55:29.000Z</time>
      </trkpt>
      <trkpt lat="49.22056" lon="-0.19912">
        <ele>37.821874</ele>
        <time>2022-08-06T10:55:30.000Z</time>
      </trkpt>
      <trkpt lat="49.22055" lon="-0.19918">
        <ele>37.92538</ele>
        <time>2022-08-06T10:55:31.000Z</time>
      </trkpt>
      <trkpt lat="49.22054" lon="-0.19925">
        <ele>38.025411</ele>
        <time>2022-08-06T10:55:32.000Z</time>
      </trkpt>
      <trkpt lat="49.22053" lon="-0.19931">
        <ele>38.130333</ele>
        <time>2022-08-06T10:55:33.000Z</time>
      </trkpt>
      <trkpt lat="49.22053" lon="-0.19938">
        <ele>38.23473</ele>
        <time>2022-08-06T10:55:34.000Z</time>
      </trkpt>
      <trkpt lat="49.22052" lon="-0.19943">
        <ele>38.32898</ele>
        <time>2022-08-06T10:55:35.000Z</time>
      </trkpt>
      <trkpt lat="49.22051" lon="-0.1995">
        <ele>38.42877</ele>
        <time>2022-08-06T10:55:36.000Z</time>
      </trkpt>
      <trkpt lat="49.22049" lon="-0.19956">
        <ele>38.53108</ele>
        <time>2022-08-06T10:55:37.000Z</time>
      </trkpt>
      <trkpt lat="49.22048" lon="-0.19962">
        <ele>38.628372</ele>
        <time>2022-08-06T10:55:38.000Z</time>
      </trkpt>
      <trkpt lat="49.22047" lon="-0.19968">
        <ele>38.727295</ele>
        <time>2022-08-06T10:55:39.000Z</time>
      </trkpt>
      <trkpt lat="49.22045" lon="-0.19974">
        <ele>38.835405</ele>
        <time>2022-08-06T10:55:40.000Z</time>
      </trkpt>
      <trkpt lat="49.22042" lon="-0.19979">
        <ele>38.940675</ele>
        <time>2022-08-06T10:55:41.000Z</time>
      </trkpt>
      <trkpt lat="49.2204" lon="-0.19984">
        <ele>39.032924</ele>
        <time>2022-08-06T10:55:42.000Z</time>
      </trkpt>
      <trkpt lat="49.22038" lon="-0.1999">
        <ele>39.126541</ele>
        <time>2022-08-06T10:55:43.000Z</time>
      </trkpt>
      <trkpt lat="49.22037" lon="-0.19995">
        <ele>39.217429</ele>
        <time>2022-08-06T10:55:44.000Z</time>
      </trkpt>
      <trkpt lat="49.22035" lon="-0.19999">
        <ele>39.3021</ele>
        <time>2022-08-06T10:55:45.000Z</time>
      </trkpt>
      <trkpt lat="49.22033" lon="-0.20005">
        <ele>39.392414</ele>
        <time>2022-08-06T10:55:46.000Z</time>
      </trkpt>
      <trkpt lat="49.22032" lon="-0.2001">
        <ele>39.485146</ele>
        <time>2022-08-06T10:55:47.000Z</time>
      </trkpt>
      <trkpt lat="49.22031" lon="-0.20016">
        <ele>39.574097</ele>
        <time>2022-08-06T10:55:48.000Z</time>
      </trkpt>
      <trkpt lat="49.22029" lon="-0.20021">
        <ele>39.664985</ele>
        <time>2022-08-06T10:55:49.000Z</time>
      </trkpt>
      <trkpt lat="49.22027" lon="-0.20026">
        <ele>39.762743</ele>
        <time>2022-08-06T10:55:50.000Z</time>
      </trkpt>
      <trkpt lat="49.22025" lon="-0.20031">
        <ele>39.857466</ele>
        <time>2022-08-06T10:55:51.000Z</time>
      </trkpt>
      <trkpt lat="49.22023" lon="-0.20036">
        <ele>39.946922</ele>
        <time>2022-08-06T10:55:52.000Z</time>
      </trkpt>
      <trkpt lat="49.22021" lon="-0.20041">
        <ele>40.046919</ele>
        <time>2022-08-06T10:55:53.000Z</time>
      </trkpt>
      <trkpt lat="49.22019" lon="-0.20047">
        <ele>40.144677</ele>
        <time>2022-08-06T10:55:54.000Z</time>
      </trkpt>
      <trkpt lat="49.22017" lon="-0.20052">
        <ele>40.246246</ele>
        <time>2022-08-06T10:55:55.000Z</time>
      </trkpt>
      <trkpt lat="49.22015" lon="-0.20058">
        <ele>40.336007</ele>
        <time>2022-08-06T10:55:56.000Z</time>
      </trkpt>
      <trkpt lat="49.22013" lon="-0.20064">
        <ele>40.427865</ele>
        <time>2022-08-06T10:55:57.000Z</time>
      </trkpt>
      <trkpt lat="49.22011" lon="-0.20069">
        <ele>40.515287</ele>
        <time>2022-08-06T10:55:58.000Z</time>
      </trkpt>
      <trkpt lat="49.22009" lon="-0.20074">
        <ele>40.60129</ele>
        <time>2022-08-06T10:55:59.000Z</time>
      </trkpt>
      <trkpt lat="49.22006" lon="-0.2008">
        <ele>40.692013</ele>
        <time>2022-08-06T10:56:00.000Z</time>
      </trkpt>
      <trkpt lat="49.22004" lon="-0.20085">
        <ele>40.775732</ele>
        <time>2022-08-06T10:56:01.000Z</time>
      </trkpt>
      <trkpt lat="49.22003" lon="-0.2009">
        <ele>40.85777</ele>
        <time>2022-08-06T10:56:02.000Z</time>
      </trkpt>
      <trkpt lat="49.22001" lon="-0.20096">
        <ele>40.946219</ele>
        <time>2022-08-06T10:56:03.000Z</time>
      </trkpt>
      <trkpt lat="49.21999" lon="-0.20101">
        <ele>41.033641</ele>
        <time>2022-08-06T10:56:04.000Z</time>
      </trkpt>
      <trkpt lat="49.21997" lon="-0.20107">
        <ele>41.12481</ele>
        <time>2022-08-06T10:56:05.000Z</time>
      </trkpt>
      <trkpt lat="49.21995" lon="-0.20113">
        <ele>41.217837</ele>
        <time>2022-08-06T10:56:06.000Z</time>
      </trkpt>
      <trkpt lat="49.21992" lon="-0.20118">
        <ele>41.309852</ele>
        <time>2022-08-06T10:56:07.000Z</time>
      </trkpt>
      <trkpt lat="49.21991" lon="-0.20123">
        <ele>41.392035</ele>
        <time>2022-08-06T10:56:08.000Z</time>
      </trkpt>
      <trkpt lat="49.21989" lon="-0.20129">
        <ele>41.476984</ele>
        <time>2022-08-06T10:56:09.000Z</time>
      </trkpt>
      <trkpt lat="49.21986" lon="-0.20134">
        <ele>41.572379</ele>
        <time>2022-08-06T10:56:10.000Z</time>
      </trkpt>
      <trkpt lat="49.21985" lon="-0.20139">
        <ele>41.654418</ele>
        <time>2022-08-06T10:56:11.000Z</time>
      </trkpt>
      <trkpt lat="49.21983" lon="-0.20145">
        <ele>41.734563</ele>
        <time>2022-08-06T10:56:12.000Z</time>
      </trkpt>
      <trkpt lat="49.21981" lon="-0.2015">
        <ele>41.824242</ele>
        <time>2022-08-06T10:56:13.000Z</time>
      </trkpt>
      <trkpt lat="49.2198" lon="-0.20156">
        <ele>41.914158</ele>
        <time>2022-08-06T10:56:14.000Z</time>
      </trkpt>
      <trkpt lat="49.21977" lon="-0.20162">
        <ele>42.007186</ele>
        <time>2022-08-06T10:56:15.000Z</time>
      </trkpt>
      <trkpt lat="49.21975" lon="-0.20167">
        <ele>42.092134</ele>
        <time>2022-08-06T10:56:16.000Z</time>
      </trkpt>
      <trkpt lat="49.21973" lon="-0.20172">
        <ele>42.180375</ele>
        <time>2022-08-06T10:56:17.000Z</time>
      </trkpt>
      <trkpt lat="49.21972" lon="-0.20178">
        <ele>42.264972</ele>
        <time>2022-08-06T10:56:18.000Z</time>
      </trkpt>
      <trkpt lat="49.21969" lon="-0.20184">
        <ele>42.359212</ele>
        <time>2022-08-06T10:56:19.000Z</time>
      </trkpt>
      <trkpt lat="49.21967" lon="-0.20189">
        <ele>42.450382</ele>
        <time>2022-08-06T10:56:20.000Z</time>
      </trkpt>
      <trkpt lat="49.21965" lon="-0.20195">
        <ele>42.548069</ele>
        <time>2022-08-06T10:56:21.000Z</time>
      </trkpt>
      <trkpt lat="49.21963" lon="-0.20201">
        <ele>42.636534</ele>
        <time>2022-08-06T10:56:22.000Z</time>
      </trkpt>
      <trkpt lat="49.21961" lon="-0.20206">
        <ele>42.722717</ele>
        <time>2022-08-06T10:56:23.000Z</time>
      </trkpt>
      <trkpt lat="49.21959" lon="-0.20212">
        <ele>42.81014</ele>
        <time>2022-08-06T10:56:24.000Z</time>
      </trkpt>
      <trkpt lat="49.21957" lon="-0.20218">
        <ele>42.904789</ele>
        <time>2022-08-06T10:56:25.000Z</time>
      </trkpt>
      <trkpt lat="49.21956" lon="-0.20224">
        <ele>42.995959</ele>
        <time>2022-08-06T10:56:26.000Z</time>
      </trkpt>
      <trkpt lat="49.21954" lon="-0.20229">
        <ele>43.087129</ele>
        <time>2022-08-06T10:56:27.000Z</time>
      </trkpt>
      <trkpt lat="49.21952" lon="-0.20235">
        <ele>43.177045</ele>
        <time>2022-08-06T10:56:28.000Z</time>
      </trkpt>
      <trkpt lat="49.2195" lon="-0.20241">
        <ele>43.261644</ele>
        <time>2022-08-06T10:56:29.000Z</time>
      </trkpt>
      <trkpt lat="49.21949" lon="-0.20246">
        <ele>43.348816</ele>
        <time>2022-08-06T10:56:30.000Z</time>
      </trkpt>
      <trkpt lat="49.21947" lon="-0.20252">
        <ele>43.433765</ele>
        <time>2022-08-06T10:56:31.000Z</time>
      </trkpt>
      <trkpt lat="49.21945" lon="-0.20257">
        <ele>43.518597</ele>
        <time>2022-08-06T10:56:32.000Z</time>
      </trkpt>
      <trkpt lat="49.21944" lon="-0.20263">
        <ele>43.600636</ele>
        <time>2022-08-06T10:56:33.000Z</time>
      </trkpt>
      <trkpt lat="49.21942" lon="-0.20268">
        <ele>43.687809</ele>
        <time>2022-08-06T10:56:34.000Z</time>
      </trkpt>
      <trkpt lat="49.21941" lon="-0.20274">
        <ele>43.773693</ele>
        <time>2022-08-06T10:56:35.000Z</time>
      </trkpt>
      <trkpt lat="49.21939" lon="-0.2028">
        <ele>43.86992</ele>
        <time>2022-08-06T10:56:36.000Z</time>
      </trkpt>
      <trkpt lat="49.21937" lon="-0.20286">
        <ele>43.962753</ele>
        <time>2022-08-06T10:56:37.000Z</time>
      </trkpt>
      <trkpt lat="49.21936" lon="-0.20293">
        <ele>44.058269</ele>
        <time>2022-08-06T10:56:38.000Z</time>
      </trkpt>
      <trkpt lat="49.21934" lon="-0.20299">
        <ele>44.142674</ele>
        <time>2022-08-06T10:56:39.000Z</time>
      </trkpt>
      <trkpt lat="49.21934" lon="-0.20306">
        <ele>44.219698</ele>
        <time>2022-08-06T10:56:40.000Z</time>
      </trkpt>
      <trkpt lat="49.21933" lon="-0.20313">
        <ele>44.29697</ele>
        <time>2022-08-06T10:56:41.000Z</time>
      </trkpt>
      <trkpt lat="49.21932" lon="-0.2032">
        <ele>44.373752</ele>
        <time>2022-08-06T10:56:42.000Z</time>
      </trkpt>
      <trkpt lat="49.21932" lon="-0.20326">
        <ele>44.449916</ele>
        <time>2022-08-06T10:56:43.000Z</time>
      </trkpt>
      <trkpt lat="49.2193" lon="-0.20333">
        <ele>44.527297</ele>
        <time>2022-08-06T10:56:44.000Z</time>
      </trkpt>
      <trkpt lat="49.21929" lon="-0.20339">
        <ele>44.601881</ele>
        <time>2022-08-06T10:56:45.000Z</time>
      </trkpt>
      <trkpt lat="49.21928" lon="-0.20346">
        <ele>44.674974</ele>
        <time>2022-08-06T10:56:46.000Z</time>
      </trkpt>
      <trkpt lat="49.21927" lon="-0.20352">
        <ele>44.74644</ele>
        <time>2022-08-06T10:56:47.000Z</time>
      </trkpt>
      <trkpt lat="49.21926" lon="-0.20358">
        <ele>44.814861</ele>
        <time>2022-08-06T10:56:48.000Z</time>
      </trkpt>
      <trkpt lat="49.21925" lon="-0.20364">
        <ele>44.88437</ele>
        <time>2022-08-06T10:56:49.000Z</time>
      </trkpt>
      <trkpt lat="49.21925" lon="-0.2037">
        <ele>44.949679</ele>
        <time>2022-08-06T10:56:50.000Z</time>
      </trkpt>
      <trkpt lat="49.21924" lon="-0.20376">
        <ele>45.020638</ele>
        <time>2022-08-06T10:56:51.000Z</time>
      </trkpt>
      <trkpt lat="49.21924" lon="-0.20381">
        <ele>45.085947</ele>
        <time>2022-08-06T10:56:52.000Z</time>
      </trkpt>
      <trkpt lat="49.21923" lon="-0.20387">
        <ele>45.149593</ele>
        <time>2022-08-06T10:56:53.000Z</time>
      </trkpt>
      <trkpt lat="49.21922" lon="-0.20392">
        <ele>45.212492</ele>
        <time>2022-08-06T10:56:54.000Z</time>
      </trkpt>
      <trkpt lat="49.21922" lon="-0.20398">
        <ele>45.276683</ele>
        <time>2022-08-06T10:56:55.000Z</time>
      </trkpt>
      <trkpt lat="49.21921" lon="-0.20404">
        <ele>45.34423</ele>
        <time>2022-08-06T10:56:56.000Z</time>
      </trkpt>
      <trkpt lat="49.2192" lon="-0.20409">
        <ele>45.405078</ele>
        <time>2022-08-06T10:56:57.000Z</time>
      </trkpt>
      <trkpt lat="49.2192" lon="-0.20414">
        <ele>45.462143</ele>
        <time>2022-08-06T10:56:58.000Z</time>
      </trkpt>
      <trkpt lat="49.21918" lon="-0.2042">
        <ele>45.528855</ele>
        <time>2022-08-06T10:56:59.000Z</time>
      </trkpt>
      <trkpt lat="49.21918" lon="-0.20425">
        <ele>45.591448</ele>
        <time>2022-08-06T10:57:00.000Z</time>
      </trkpt>
      <trkpt lat="49.21916" lon="-0.20431">
        <ele>45.663158</ele>
        <time>2022-08-06T10:57:01.000Z</time>
      </trkpt>
      <trkpt lat="49.21915" lon="-0.20438">
        <ele>45.741399</ele>
        <time>2022-08-06T10:57:02.000Z</time>
      </trkpt>
      <trkpt lat="49.21914" lon="-0.20444">
        <ele>45.813085</ele>
        <time>2022-08-06T10:57:03.000Z</time>
      </trkpt>
      <trkpt lat="49.21914" lon="-0.2045">
        <ele>45.880633</ele>
        <time>2022-08-06T10:57:04.000Z</time>
      </trkpt>
      <trkpt lat="49.21913" lon="-0.20456">
        <ele>45.951592</ele>
        <time>2022-08-06T10:57:05.000Z</time>
      </trkpt>
      <trkpt lat="49.21912" lon="-0.20462">
        <ele>46.020696</ele>
        <time>2022-08-06T10:57:06.000Z</time>
      </trkpt>
      <trkpt lat="49.2191" lon="-0.20467">
        <ele>46.079024</ele>
        <time>2022-08-06T10:57:07.000Z</time>
      </trkpt>
      <trkpt lat="49.21909" lon="-0.20473">
        <ele>46.148533</ele>
        <time>2022-08-06T10:57:08.000Z</time>
      </trkpt>
      <trkpt lat="49.21908" lon="-0.20479">
        <ele>46.218174</ele>
        <time>2022-08-06T10:57:09.000Z</time>
      </trkpt>
      <trkpt lat="49.21907" lon="-0.20485">
        <ele>46.291838</ele>
        <time>2022-08-06T10:57:10.000Z</time>
      </trkpt>
      <trkpt lat="49.21906" lon="-0.20492">
        <ele>46.368985</ele>
        <time>2022-08-06T10:57:11.000Z</time>
      </trkpt>
      <trkpt lat="49.21905" lon="-0.20497">
        <ele>46.430911</ele>
        <time>2022-08-06T10:57:12.000Z</time>
      </trkpt>
      <trkpt lat="49.21904" lon="-0.20503">
        <ele>46.494557</ele>
        <time>2022-08-06T10:57:13.000Z</time>
      </trkpt>
      <trkpt lat="49.21902" lon="-0.20508">
        <ele>46.560213</ele>
        <time>2022-08-06T10:57:14.000Z</time>
      </trkpt>
      <trkpt lat="49.21901" lon="-0.20514">
        <ele>46.629722</ele>
        <time>2022-08-06T10:57:15.000Z</time>
      </trkpt>
      <trkpt lat="49.21901" lon="-0.2052">
        <ele>46.69453</ele>
        <time>2022-08-06T10:57:16.000Z</time>
      </trkpt>
      <trkpt lat="49.219" lon="-0.20525">
        <ele>46.757124</ele>
        <time>2022-08-06T10:57:17.000Z</time>
      </trkpt>
      <trkpt lat="49.21899" lon="-0.20531">
        <ele>46.820673</ele>
        <time>2022-08-06T10:57:18.000Z</time>
      </trkpt>
      <trkpt lat="49.21898" lon="-0.20536">
        <ele>46.881371</ele>
        <time>2022-08-06T10:57:19.000Z</time>
      </trkpt>
      <trkpt lat="49.21898" lon="-0.20542">
        <ele>46.946179</ele>
        <time>2022-08-06T10:57:20.000Z</time>
      </trkpt>
      <trkpt lat="49.21897" lon="-0.20548">
        <ele>47.015688</ele>
        <time>2022-08-06T10:57:21.000Z</time>
      </trkpt>
      <trkpt lat="49.21896" lon="-0.20554">
        <ele>47.084792</ele>
        <time>2022-08-06T10:57:22.000Z</time>
      </trkpt>
      <trkpt lat="49.21895" lon="-0.20559">
        <ele>47.146718</ele>
        <time>2022-08-06T10:57:23.000Z</time>
      </trkpt>
      <trkpt lat="49.21893" lon="-0.20565">
        <ele>47.212195</ele>
        <time>2022-08-06T10:57:24.000Z</time>
      </trkpt>
      <trkpt lat="49.21893" lon="-0.2057">
        <ele>47.266487</ele>
        <time>2022-08-06T10:57:25.000Z</time>
      </trkpt>
      <trkpt lat="49.21892" lon="-0.20576">
        <ele>47.319335</ele>
        <time>2022-08-06T10:57:26.000Z</time>
      </trkpt>
      <trkpt lat="49.21892" lon="-0.20582">
        <ele>47.375812</ele>
        <time>2022-08-06T10:57:27.000Z</time>
      </trkpt>
      <trkpt lat="49.21891" lon="-0.20587">
        <ele>47.431964</ele>
        <time>2022-08-06T10:57:28.000Z</time>
      </trkpt>
      <trkpt lat="49.2189" lon="-0.20593">
        <ele>47.486631</ele>
        <time>2022-08-06T10:57:29.000Z</time>
      </trkpt>
      <trkpt lat="49.21889" lon="-0.20598">
        <ele>47.542221</ele>
        <time>2022-08-06T10:57:30.000Z</time>
      </trkpt>
      <trkpt lat="49.21888" lon="-0.20604">
        <ele>47.595615</ele>
        <time>2022-08-06T10:57:31.000Z</time>
      </trkpt>
      <trkpt lat="49.21887" lon="-0.2061">
        <ele>47.653426</ele>
        <time>2022-08-06T10:57:32.000Z</time>
      </trkpt>
      <trkpt lat="49.21886" lon="-0.20615">
        <ele>47.70682</ele>
        <time>2022-08-06T10:57:33.000Z</time>
      </trkpt>
      <trkpt lat="49.21885" lon="-0.20621">
        <ele>47.764631</ele>
        <time>2022-08-06T10:57:34.000Z</time>
      </trkpt>
      <trkpt lat="49.21884" lon="-0.20627">
        <ele>47.820861</ele>
        <time>2022-08-06T10:57:35.000Z</time>
      </trkpt>
      <trkpt lat="49.21883" lon="-0.20632">
        <ele>47.878672</ele>
        <time>2022-08-06T10:57:36.000Z</time>
      </trkpt>
      <trkpt lat="49.21882" lon="-0.20638">
        <ele>47.933267</ele>
        <time>2022-08-06T10:57:37.000Z</time>
      </trkpt>
      <trkpt lat="49.21882" lon="-0.20643">
        <ele>47.986661</ele>
        <time>2022-08-06T10:57:38.000Z</time>
      </trkpt>
      <trkpt lat="49.2188" lon="-0.20649">
        <ele>48.042668</ele>
        <time>2022-08-06T10:57:39.000Z</time>
      </trkpt>
      <trkpt lat="49.21879" lon="-0.20654">
        <ele>48.098675</ele>
        <time>2022-08-06T10:57:40.000Z</time>
      </trkpt>
      <trkpt lat="49.21878" lon="-0.2066">
        <ele>48.152069</ele>
        <time>2022-08-06T10:57:41.000Z</time>
      </trkpt>
      <trkpt lat="49.21878" lon="-0.20666">
        <ele>48.207353</ele>
        <time>2022-08-06T10:57:42.000Z</time>
      </trkpt>
      <trkpt lat="49.21877" lon="-0.20672">
        <ele>48.266647</ele>
        <time>2022-08-06T10:57:43.000Z</time>
      </trkpt>
      <trkpt lat="49.21876" lon="-0.20678">
        <ele>48.32594</ele>
        <time>2022-08-06T10:57:44.000Z</time>
      </trkpt>
      <trkpt lat="49.21875" lon="-0.20683">
        <ele>48.382092</ele>
        <time>2022-08-06T10:57:45.000Z</time>
      </trkpt>
      <trkpt lat="49.21874" lon="-0.20689">
        <ele>48.435747</ele>
        <time>2022-08-06T10:57:46.000Z</time>
      </trkpt>
      <trkpt lat="49.21874" lon="-0.20694">
        <ele>48.489141</ele>
        <time>2022-08-06T10:57:47.000Z</time>
      </trkpt>
      <trkpt lat="49.21872" lon="-0.207">
        <ele>48.545148</ele>
        <time>2022-08-06T10:57:48.000Z</time>
      </trkpt>
      <trkpt lat="49.21871" lon="-0.20705">
        <ele>48.601155</ele>
        <time>2022-08-06T10:57:49.000Z</time>
      </trkpt>
      <trkpt lat="49.2187" lon="-0.20711">
        <ele>48.654549</ele>
        <time>2022-08-06T10:57:50.000Z</time>
      </trkpt>
      <trkpt lat="49.2187" lon="-0.20716">
        <ele>48.708888</ele>
        <time>2022-08-06T10:57:51.000Z</time>
      </trkpt>
      <trkpt lat="49.21869" lon="-0.20722">
        <ele>48.768511</ele>
        <time>2022-08-06T10:57:52.000Z</time>
      </trkpt>
      <trkpt lat="49.21868" lon="-0.20728">
        <ele>48.823107</ele>
        <time>2022-08-06T10:57:53.000Z</time>
      </trkpt>
      <trkpt lat="49.21867" lon="-0.20734">
        <ele>48.88673</ele>
        <time>2022-08-06T10:57:54.000Z</time>
      </trkpt>
      <trkpt lat="49.21866" lon="-0.20741">
        <ele>48.952539</ele>
        <time>2022-08-06T10:57:55.000Z</time>
      </trkpt>
      <trkpt lat="49.21864" lon="-0.20747">
        <ele>49.014595</ele>
        <time>2022-08-06T10:57:56.000Z</time>
      </trkpt>
      <trkpt lat="49.21863" lon="-0.20753">
        <ele>49.073311</ele>
        <time>2022-08-06T10:57:57.000Z</time>
      </trkpt>
      <trkpt lat="49.21862" lon="-0.20759">
        <ele>49.134128</ele>
        <time>2022-08-06T10:57:58.000Z</time>
      </trkpt>
      <trkpt lat="49.21861" lon="-0.20765">
        <ele>49.194658</ele>
        <time>2022-08-06T10:57:59.000Z</time>
      </trkpt>
      <trkpt lat="49.2186" lon="-0.20771">
        <ele>49.252781</ele>
        <time>2022-08-06T10:58:00.000Z</time>
      </trkpt>
      <trkpt lat="49.21859" lon="-0.20777">
        <ele>49.315132</ele>
        <time>2022-08-06T10:58:01.000Z</time>
      </trkpt>
      <trkpt lat="49.21858" lon="-0.20783">
        <ele>49.375354</ele>
        <time>2022-08-06T10:58:02.000Z</time>
      </trkpt>
      <trkpt lat="49.21857" lon="-0.2079">
        <ele>49.43617</ele>
        <time>2022-08-06T10:58:03.000Z</time>
      </trkpt>
      <trkpt lat="49.21856" lon="-0.20796">
        <ele>49.497362</ele>
        <time>2022-08-06T10:58:04.000Z</time>
      </trkpt>
      <trkpt lat="49.21856" lon="-0.20802">
        <ele>49.558802</ele>
        <time>2022-08-06T10:58:05.000Z</time>
      </trkpt>
      <trkpt lat="49.21855" lon="-0.20809">
        <ele>49.622746</ele>
        <time>2022-08-06T10:58:06.000Z</time>
      </trkpt>
      <trkpt lat="49.21854" lon="-0.20815">
        <ele>49.681815</ele>
        <time>2022-08-06T10:58:07.000Z</time>
      </trkpt>
      <trkpt lat="49.21854" lon="-0.20821">
        <ele>49.739937</ele>
        <time>2022-08-06T10:58:08.000Z</time>
      </trkpt>
      <trkpt lat="49.21853" lon="-0.20827">
        <ele>49.797748</ele>
        <time>2022-08-06T10:58:09.000Z</time>
      </trkpt>
      <trkpt lat="49.21852" lon="-0.20832">
        <ele>49.857592</ele>
        <time>2022-08-06T10:58:10.000Z</time>
      </trkpt>
      <trkpt lat="49.2185" lon="-0.20838">
        <ele>49.925429</ele>
        <time>2022-08-06T10:58:11.000Z</time>
      </trkpt>
      <trkpt lat="49.21849" lon="-0.20844">
        <ele>49.990034</ele>
        <time>2022-08-06T10:58:12.000Z</time>
      </trkpt>
      <trkpt lat="49.21849" lon="-0.2085">
        <ele>50.054078</ele>
        <time>2022-08-06T10:58:13.000Z</time>
      </trkpt>
      <trkpt lat="49.21848" lon="-0.20856">
        <ele>50.118534</ele>
        <time>2022-08-06T10:58:14.000Z</time>
      </trkpt>
      <trkpt lat="49.21847" lon="-0.20862">
        <ele>50.184288</ele>
        <time>2022-08-06T10:58:15.000Z</time>
      </trkpt>
      <trkpt lat="49.21846" lon="-0.20868">
        <ele>50.246645</ele>
        <time>2022-08-06T10:58:16.000Z</time>
      </trkpt>
      <trkpt lat="49.21846" lon="-0.20874">
        <ele>50.310051</ele>
        <time>2022-08-06T10:58:17.000Z</time>
      </trkpt>
      <trkpt lat="49.21845" lon="-0.20879">
        <ele>50.371699</ele>
        <time>2022-08-06T10:58:18.000Z</time>
      </trkpt>
      <trkpt lat="49.21845" lon="-0.20885">
        <ele>50.43454</ele>
        <time>2022-08-06T10:58:19.000Z</time>
      </trkpt>
      <trkpt lat="49.21843" lon="-0.20891">
        <ele>50.497649</ele>
        <time>2022-08-06T10:58:20.000Z</time>
      </trkpt>
      <trkpt lat="49.21842" lon="-0.20897">
        <ele>50.56176</ele>
        <time>2022-08-06T10:58:21.000Z</time>
      </trkpt>
      <trkpt lat="49.21841" lon="-0.20902">
        <ele>50.621969</ele>
        <time>2022-08-06T10:58:22.000Z</time>
      </trkpt>
      <trkpt lat="49.2184" lon="-0.20908">
        <ele>50.684642</ele>
        <time>2022-08-06T10:58:23.000Z</time>
      </trkpt>
      <trkpt lat="49.21839" lon="-0.20913">
        <ele>50.743223</ele>
        <time>2022-08-06T10:58:24.000Z</time>
      </trkpt>
      <trkpt lat="49.21838" lon="-0.20919">
        <ele>50.805494</ele>
        <time>2022-08-06T10:58:25.000Z</time>
      </trkpt>
      <trkpt lat="49.21837" lon="-0.20925">
        <ele>50.871248</ele>
        <time>2022-08-06T10:58:26.000Z</time>
      </trkpt>
      <trkpt lat="49.21837" lon="-0.20931">
        <ele>50.935704</ele>
        <time>2022-08-06T10:58:27.000Z</time>
      </trkpt>
      <trkpt lat="49.21835" lon="-0.20937">
        <ele>51.000819</ele>
        <time>2022-08-06T10:58:28.000Z</time>
      </trkpt>
      <trkpt lat="49.21834" lon="-0.20943">
        <ele>51.066573</ele>
        <time>2022-08-06T10:58:29.000Z</time>
      </trkpt>
      <trkpt lat="49.21833" lon="-0.20949">
        <ele>51.131945</ele>
        <time>2022-08-06T10:58:30.000Z</time>
      </trkpt>
      <trkpt lat="49.21832" lon="-0.20955">
        <ele>51.19976</ele>
        <time>2022-08-06T10:58:31.000Z</time>
      </trkpt>
      <trkpt lat="49.21831" lon="-0.20961">
        <ele>51.265131</ele>
        <time>2022-08-06T10:58:32.000Z</time>
      </trkpt>
      <trkpt lat="49.21831" lon="-0.20967">
        <ele>51.327763</ele>
        <time>2022-08-06T10:58:33.000Z</time>
      </trkpt>
      <trkpt lat="49.2183" lon="-0.20972">
        <ele>51.390121</ele>
        <time>2022-08-06T10:58:34.000Z</time>
      </trkpt>
      <trkpt lat="49.21829" lon="-0.20978">
        <ele>51.454232</ele>
        <time>2022-08-06T10:58:35.000Z</time>
      </trkpt>
      <trkpt lat="49.21828" lon="-0.20984">
        <ele>51.516589</ele>
        <time>2022-08-06T10:58:36.000Z</time>
      </trkpt>
      <trkpt lat="49.21827" lon="-0.2099">
        <ele>51.579262</ele>
        <time>2022-08-06T10:58:37.000Z</time>
      </trkpt>
      <trkpt lat="49.21826" lon="-0.20995">
        <ele>51.641935</ele>
        <time>2022-08-06T10:58:38.000Z</time>
      </trkpt>
      <trkpt lat="49.21825" lon="-0.21001">
        <ele>51.70654</ele>
        <time>2022-08-06T10:58:39.000Z</time>
      </trkpt>
      <trkpt lat="49.21824" lon="-0.21007">
        <ele>51.768129</ele>
        <time>2022-08-06T10:58:40.000Z</time>
      </trkpt>
      <trkpt lat="49.21823" lon="-0.21013">
        <ele>51.831432</ele>
        <time>2022-08-06T10:58:41.000Z</time>
      </trkpt>
      <trkpt lat="49.21823" lon="-0.21019">
        <ele>51.896154</ele>
        <time>2022-08-06T10:58:42.000Z</time>
      </trkpt>
      <trkpt lat="49.21821" lon="-0.21024">
        <ele>51.960265</ele>
        <time>2022-08-06T10:58:43.000Z</time>
      </trkpt>
      <trkpt lat="49.21821" lon="-0.2103">
        <ele>52.019478</ele>
        <time>2022-08-06T10:58:44.000Z</time>
      </trkpt>
      <trkpt lat="49.2182" lon="-0.21035">
        <ele>52.080103</ele>
        <time>2022-08-06T10:58:45.000Z</time>
      </trkpt>
      <trkpt lat="49.21818" lon="-0.21041">
        <ele>52.145009</ele>
        <time>2022-08-06T10:58:46.000Z</time>
      </trkpt>
      <trkpt lat="49.21817" lon="-0.21046">
        <ele>52.206585</ele>
        <time>2022-08-06T10:58:47.000Z</time>
      </trkpt>
      <trkpt lat="49.21815" lon="-0.21052">
        <ele>52.275293</ele>
        <time>2022-08-06T10:58:48.000Z</time>
      </trkpt>
      <trkpt lat="49.21814" lon="-0.21058">
        <ele>52.337564</ele>
        <time>2022-08-06T10:58:49.000Z</time>
      </trkpt>
      <trkpt lat="49.21813" lon="-0.21063">
        <ele>52.400674</ele>
        <time>2022-08-06T10:58:50.000Z</time>
      </trkpt>
      <trkpt lat="49.21812" lon="-0.21069">
        <ele>52.464081</ele>
        <time>2022-08-06T10:58:51.000Z</time>
      </trkpt>
      <trkpt lat="49.21811" lon="-0.21075">
        <ele>52.527191</ele>
        <time>2022-08-06T10:58:52.000Z</time>
      </trkpt>
      <trkpt lat="49.2181" lon="-0.21081">
        <ele>52.594004</ele>
        <time>2022-08-06T10:58:53.000Z</time>
      </trkpt>
      <trkpt lat="49.21809" lon="-0.21087">
        <ele>52.662671</ele>
        <time>2022-08-06T10:58:54.000Z</time>
      </trkpt>
      <trkpt lat="49.21808" lon="-0.21094">
        <ele>52.732626</ele>
        <time>2022-08-06T10:58:55.000Z</time>
      </trkpt>
      <trkpt lat="49.21807" lon="-0.211">
        <ele>52.82981</ele>
        <time>2022-08-06T10:58:56.000Z</time>
      </trkpt>
      <trkpt lat="49.21807" lon="-0.21106">
        <ele>52.929143</ele>
        <time>2022-08-06T10:58:57.000Z</time>
      </trkpt>
      <trkpt lat="49.21806" lon="-0.21112">
        <ele>53.03129</ele>
        <time>2022-08-06T10:58:58.000Z</time>
      </trkpt>
      <trkpt lat="49.21805" lon="-0.21119">
        <ele>53.140123</ele>
        <time>2022-08-06T10:58:59.000Z</time>
      </trkpt>
      <trkpt lat="49.21805" lon="-0.21125">
        <ele>53.243883</ele>
        <time>2022-08-06T10:59:00.000Z</time>
      </trkpt>
      <trkpt lat="49.21804" lon="-0.21131">
        <ele>53.344801</ele>
        <time>2022-08-06T10:59:01.000Z</time>
      </trkpt>
      <trkpt lat="49.21803" lon="-0.21137">
        <ele>53.448561</ele>
        <time>2022-08-06T10:59:02.000Z</time>
      </trkpt>
      <trkpt lat="49.21801" lon="-0.21144">
        <ele>53.560244</ele>
        <time>2022-08-06T10:59:03.000Z</time>
      </trkpt>
      <trkpt lat="49.218" lon="-0.2115">
        <ele>53.661162</ele>
        <time>2022-08-06T10:59:04.000Z</time>
      </trkpt>
      <trkpt lat="49.21799" lon="-0.21156">
        <ele>53.761492</ele>
        <time>2022-08-06T10:59:05.000Z</time>
      </trkpt>
      <trkpt lat="49.21799" lon="-0.21162">
        <ele>53.870465</ele>
        <time>2022-08-06T10:59:06.000Z</time>
      </trkpt>
      <trkpt lat="49.21798" lon="-0.21168">
        <ele>53.968536</ele>
        <time>2022-08-06T10:59:07.000Z</time>
      </trkpt>
      <trkpt lat="49.21797" lon="-0.21175">
        <ele>54.079324</ele>
        <time>2022-08-06T10:59:08.000Z</time>
      </trkpt>
      <trkpt lat="49.21797" lon="-0.21182">
        <ele>54.189539</ele>
        <time>2022-08-06T10:59:09.000Z</time>
      </trkpt>
      <trkpt lat="49.21795" lon="-0.21188">
        <ele>54.297215</ele>
        <time>2022-08-06T10:59:10.000Z</time>
      </trkpt>
      <trkpt lat="49.21795" lon="-0.21194">
        <ele>54.404202</ele>
        <time>2022-08-06T10:59:11.000Z</time>
      </trkpt>
      <trkpt lat="49.21793" lon="-0.21201">
        <ele>54.510325</ele>
        <time>2022-08-06T10:59:12.000Z</time>
      </trkpt>
      <trkpt lat="49.21793" lon="-0.21207">
        <ele>54.617689</ele>
        <time>2022-08-06T10:59:13.000Z</time>
      </trkpt>
      <trkpt lat="49.21791" lon="-0.21213">
        <ele>54.723077</ele>
        <time>2022-08-06T10:59:14.000Z</time>
      </trkpt>
      <trkpt lat="49.2179" lon="-0.2122">
        <ele>54.831909</ele>
        <time>2022-08-06T10:59:15.000Z</time>
      </trkpt>
      <trkpt lat="49.21789" lon="-0.21226">
        <ele>54.936482</ele>
        <time>2022-08-06T10:59:16.000Z</time>
      </trkpt>
      <trkpt lat="49.21788" lon="-0.21232">
        <ele>55.043176</ele>
        <time>2022-08-06T10:59:17.000Z</time>
      </trkpt>
      <trkpt lat="49.21787" lon="-0.21239">
        <ele>55.152009</ele>
        <time>2022-08-06T10:59:18.000Z</time>
      </trkpt>
      <trkpt lat="49.21786" lon="-0.21245">
        <ele>55.254508</ele>
        <time>2022-08-06T10:59:19.000Z</time>
      </trkpt>
      <trkpt lat="49.21785" lon="-0.21251">
        <ele>55.361202</ele>
        <time>2022-08-06T10:59:20.000Z</time>
      </trkpt>
      <trkpt lat="49.21784" lon="-0.21257">
        <ele>55.4637</ele>
        <time>2022-08-06T10:59:21.000Z</time>
      </trkpt>
      <trkpt lat="49.21783" lon="-0.21263">
        <ele>55.567814</ele>
        <time>2022-08-06T10:59:22.000Z</time>
      </trkpt>
      <trkpt lat="49.21782" lon="-0.21269">
        <ele>55.666739</ele>
        <time>2022-08-06T10:59:23.000Z</time>
      </trkpt>
      <trkpt lat="49.21781" lon="-0.21276">
        <ele>55.776901</ele>
        <time>2022-08-06T10:59:24.000Z</time>
      </trkpt>
      <trkpt lat="49.21779" lon="-0.21282">
        <ele>55.883025</ele>
        <time>2022-08-06T10:59:25.000Z</time>
      </trkpt>
      <trkpt lat="49.21779" lon="-0.21288">
        <ele>55.991626</ele>
        <time>2022-08-06T10:59:26.000Z</time>
      </trkpt>
      <trkpt lat="49.21778" lon="-0.21295">
        <ele>56.106814</ele>
        <time>2022-08-06T10:59:27.000Z</time>
      </trkpt>
      <trkpt lat="49.21777" lon="-0.21302">
        <ele>56.215415</ele>
        <time>2022-08-06T10:59:28.000Z</time>
      </trkpt>
      <trkpt lat="49.21776" lon="-0.21308">
        <ele>56.322779</ele>
        <time>2022-08-06T10:59:29.000Z</time>
      </trkpt>
      <trkpt lat="49.21776" lon="-0.21315">
        <ele>56.429766</ele>
        <time>2022-08-06T10:59:30.000Z</time>
      </trkpt>
      <trkpt lat="49.21775" lon="-0.21321">
        <ele>56.530685</ele>
        <time>2022-08-06T10:59:31.000Z</time>
      </trkpt>
      <trkpt lat="49.21774" lon="-0.21327">
        <ele>56.628756</ele>
        <time>2022-08-06T10:59:32.000Z</time>
      </trkpt>
      <trkpt lat="49.21773" lon="-0.21333">
        <ele>56.729675</ele>
        <time>2022-08-06T10:59:33.000Z</time>
      </trkpt>
      <trkpt lat="49.21773" lon="-0.21339">
        <ele>56.835049</ele>
        <time>2022-08-06T10:59:34.000Z</time>
      </trkpt>
      <trkpt lat="49.21772" lon="-0.21345">
        <ele>56.935585</ele>
        <time>2022-08-06T10:59:35.000Z</time>
      </trkpt>
      <trkpt lat="49.21772" lon="-0.21351">
        <ele>57.031741</ele>
        <time>2022-08-06T10:59:36.000Z</time>
      </trkpt>
      <trkpt lat="49.21772" lon="-0.21357">
        <ele>57.127867</ele>
        <time>2022-08-06T10:59:37.000Z</time>
      </trkpt>
      <trkpt lat="49.21772" lon="-0.21363">
        <ele>57.228912</ele>
        <time>2022-08-06T10:59:38.000Z</time>
      </trkpt>
      <trkpt lat="49.21771" lon="-0.21369">
        <ele>57.311288</ele>
        <time>2022-08-06T10:59:39.000Z</time>
      </trkpt>
      <trkpt lat="49.21771" lon="-0.21376">
        <ele>57.393595</ele>
        <time>2022-08-06T10:59:40.000Z</time>
      </trkpt>
      <trkpt lat="49.21771" lon="-0.21382">
        <ele>57.476127</ele>
        <time>2022-08-06T10:59:41.000Z</time>
      </trkpt>
      <trkpt lat="49.21771" lon="-0.21387">
        <ele>57.54383</ele>
        <time>2022-08-06T10:59:42.000Z</time>
      </trkpt>
      <trkpt lat="49.21771" lon="-0.21393">
        <ele>57.619744</ele>
        <time>2022-08-06T10:59:43.000Z</time>
      </trkpt>
      <trkpt lat="49.21771" lon="-0.21399">
        <ele>57.702051</ele>
        <time>2022-08-06T10:59:44.000Z</time>
      </trkpt>
      <trkpt lat="49.21771" lon="-0.21405">
        <ele>57.789879</ele>
        <time>2022-08-06T10:59:45.000Z</time>
      </trkpt>
      <trkpt lat="49.21771" lon="-0.21411">
        <ele>57.869763</ele>
        <time>2022-08-06T10:59:46.000Z</time>
      </trkpt>
      <trkpt lat="49.21772" lon="-0.21417">
        <ele>57.950681</ele>
        <time>2022-08-06T10:59:47.000Z</time>
      </trkpt>
      <trkpt lat="49.21773" lon="-0.21423">
        <ele>58.024706</ele>
        <time>2022-08-06T10:59:48.000Z</time>
      </trkpt>
      <trkpt lat="49.21773" lon="-0.21429">
        <ele>58.10459</ele>
        <time>2022-08-06T10:59:49.000Z</time>
      </trkpt>
      <trkpt lat="49.21773" lon="-0.21435">
        <ele>58.181827</ele>
        <time>2022-08-06T10:59:50.000Z</time>
      </trkpt>
      <trkpt lat="49.21773" lon="-0.21441">
        <ele>58.261712</ele>
        <time>2022-08-06T10:59:51.000Z</time>
      </trkpt>
      <trkpt lat="49.21774" lon="-0.21447">
        <ele>58.346547</ele>
        <time>2022-08-06T10:59:52.000Z</time>
      </trkpt>
      <trkpt lat="49.21775" lon="-0.21453">
        <ele>58.424395</ele>
        <time>2022-08-06T10:59:53.000Z</time>
      </trkpt>
      <trkpt lat="49.21775" lon="-0.21459">
        <ele>58.505307</ele>
        <time>2022-08-06T10:59:54.000Z</time>
      </trkpt>
      <trkpt lat="49.21776" lon="-0.21465">
        <ele>58.585191</ele>
        <time>2022-08-06T10:59:55.000Z</time>
      </trkpt>
      <trkpt lat="49.21777" lon="-0.2147">
        <ele>58.662838</ele>
        <time>2022-08-06T10:59:56.000Z</time>
      </trkpt>
      <trkpt lat="49.21778" lon="-0.21476">
        <ele>58.739483</ele>
        <time>2022-08-06T10:59:57.000Z</time>
      </trkpt>
      <trkpt lat="49.21779" lon="-0.21482">
        <ele>58.819116</ele>
        <time>2022-08-06T10:59:58.000Z</time>
      </trkpt>
      <trkpt lat="49.21779" lon="-0.21487">
        <ele>58.896353</ele>
        <time>2022-08-06T10:59:59.000Z</time>
      </trkpt>
      <trkpt lat="49.21779" lon="-0.21494">
        <ele>58.978885</ele>
        <time>2022-08-06T11:00:00.000Z</time>
      </trkpt>
      <trkpt lat="49.2178" lon="-0.215">
        <ele>59.061088</ele>
        <time>2022-08-06T11:00:01.000Z</time>
      </trkpt>
      <trkpt lat="49.21781" lon="-0.21506">
        <ele>59.140973</ele>
        <time>2022-08-06T11:00:02.000Z</time>
      </trkpt>
      <trkpt lat="49.21781" lon="-0.21511">
        <ele>59.217617</ele>
        <time>2022-08-06T11:00:03.000Z</time>
      </trkpt>
      <trkpt lat="49.21782" lon="-0.21517">
        <ele>59.299821</ele>
        <time>2022-08-06T11:00:04.000Z</time>
      </trkpt>
      <trkpt lat="49.21783" lon="-0.21523">
        <ele>59.3804</ele>
        <time>2022-08-06T11:00:05.000Z</time>
      </trkpt>
      <trkpt lat="49.21783" lon="-0.21529">
        <ele>59.45609</ele>
        <time>2022-08-06T11:00:06.000Z</time>
      </trkpt>
      <trkpt lat="49.21784" lon="-0.21535">
        <ele>59.54127</ele>
        <time>2022-08-06T11:00:07.000Z</time>
      </trkpt>
      <trkpt lat="49.21785" lon="-0.21541">
        <ele>59.617828</ele>
        <time>2022-08-06T11:00:08.000Z</time>
      </trkpt>
      <trkpt lat="49.21785" lon="-0.21546">
        <ele>59.692214</ele>
        <time>2022-08-06T11:00:09.000Z</time>
      </trkpt>
      <trkpt lat="49.21786" lon="-0.21553">
        <ele>59.776528</ele>
        <time>2022-08-06T11:00:10.000Z</time>
      </trkpt>
      <trkpt lat="49.21787" lon="-0.21559">
        <ele>59.856593</ele>
        <time>2022-08-06T11:00:11.000Z</time>
      </trkpt>
      <trkpt lat="49.21788" lon="-0.21564">
        <ele>59.935732</ele>
        <time>2022-08-06T11:00:12.000Z</time>
      </trkpt>
      <trkpt lat="49.21789" lon="-0.2157">
        <ele>60.014449</ele>
        <time>2022-08-06T11:00:13.000Z</time>
      </trkpt>
      <trkpt lat="49.2179" lon="-0.21575">
        <ele>60.093345</ele>
        <time>2022-08-06T11:00:14.000Z</time>
      </trkpt>
      <trkpt lat="49.21792" lon="-0.21581">
        <ele>60.173494</ele>
        <time>2022-08-06T11:00:15.000Z</time>
      </trkpt>
      <trkpt lat="49.21793" lon="-0.21586">
        <ele>60.2498</ele>
        <time>2022-08-06T11:00:16.000Z</time>
      </trkpt>
      <trkpt lat="49.21794" lon="-0.21592">
        <ele>60.326358</ele>
        <time>2022-08-06T11:00:17.000Z</time>
      </trkpt>
      <trkpt lat="49.21795" lon="-0.21598">
        <ele>60.411707</ele>
        <time>2022-08-06T11:00:18.000Z</time>
      </trkpt>
      <trkpt lat="49.21796" lon="-0.21604">
        <ele>60.493431</ele>
        <time>2022-08-06T11:00:19.000Z</time>
      </trkpt>
      <trkpt lat="49.21797" lon="-0.2161">
        <ele>60.573359</ele>
        <time>2022-08-06T11:00:20.000Z</time>
      </trkpt>
      <trkpt lat="49.21799" lon="-0.21615">
        <ele>60.650868</ele>
        <time>2022-08-06T11:00:21.000Z</time>
      </trkpt>
      <trkpt lat="49.218" lon="-0.2162">
        <ele>60.721227</ele>
        <time>2022-08-06T11:00:22.000Z</time>
      </trkpt>
      <trkpt lat="49.21801" lon="-0.21625">
        <ele>60.794461</ele>
        <time>2022-08-06T11:00:23.000Z</time>
      </trkpt>
      <trkpt lat="49.21803" lon="-0.21631">
        <ele>60.87461</ele>
        <time>2022-08-06T11:00:24.000Z</time>
      </trkpt>
      <trkpt lat="49.21804" lon="-0.21636">
        <ele>60.92525</ele>
        <time>2022-08-06T11:00:25.000Z</time>
      </trkpt>
      <trkpt lat="49.21805" lon="-0.21641">
        <ele>60.972102</ele>
        <time>2022-08-06T11:00:26.000Z</time>
      </trkpt>
      <trkpt lat="49.21807" lon="-0.21646">
        <ele>61.019392</ele>
        <time>2022-08-06T11:00:27.000Z</time>
      </trkpt>
      <trkpt lat="49.21808" lon="-0.21652">
        <ele>61.066005</ele>
        <time>2022-08-06T11:00:28.000Z</time>
      </trkpt>
      <trkpt lat="49.21809" lon="-0.21657">
        <ele>61.110686</ele>
        <time>2022-08-06T11:00:29.000Z</time>
      </trkpt>
      <trkpt lat="49.21811" lon="-0.21662">
        <ele>61.152773</ele>
        <time>2022-08-06T11:00:30.000Z</time>
      </trkpt>
      <trkpt lat="49.21812" lon="-0.21667">
        <ele>61.193999</ele>
        <time>2022-08-06T11:00:31.000Z</time>
      </trkpt>
      <trkpt lat="49.21813" lon="-0.21672">
        <ele>61.239095</ele>
        <time>2022-08-06T11:00:32.000Z</time>
      </trkpt>
      <trkpt lat="49.21815" lon="-0.21676">
        <ele>61.281305</ele>
        <time>2022-08-06T11:00:33.000Z</time>
      </trkpt>
      <trkpt lat="49.21816" lon="-0.21681">
        <ele>61.322803</ele>
        <time>2022-08-06T11:00:34.000Z</time>
      </trkpt>
      <trkpt lat="49.21817" lon="-0.21686">
        <ele>61.365156</ele>
        <time>2022-08-06T11:00:35.000Z</time>
      </trkpt>
      <trkpt lat="49.21819" lon="-0.2169">
        <ele>61.406653</ele>
        <time>2022-08-06T11:00:36.000Z</time>
      </trkpt>
      <trkpt lat="49.2182" lon="-0.21695">
        <ele>61.446322</ele>
        <time>2022-08-06T11:00:37.000Z</time>
      </trkpt>
      <trkpt lat="49.21821" lon="-0.217">
        <ele>61.484821</ele>
        <time>2022-08-06T11:00:38.000Z</time>
      </trkpt>
      <trkpt lat="49.21821" lon="-0.21704">
        <ele>61.52202</ele>
        <time>2022-08-06T11:00:39.000Z</time>
      </trkpt>
      <trkpt lat="49.21823" lon="-0.21708">
        <ele>61.55796</ele>
        <time>2022-08-06T11:00:40.000Z</time>
      </trkpt>
      <trkpt lat="49.21824" lon="-0.21712">
        <ele>61.596337</ele>
        <time>2022-08-06T11:00:41.000Z</time>
      </trkpt>
      <trkpt lat="49.21825" lon="-0.21717">
        <ele>61.633803</ele>
        <time>2022-08-06T11:00:42.000Z</time>
      </trkpt>
      <trkpt lat="49.21825" lon="-0.2172">
        <ele>61.662394</ele>
        <time>2022-08-06T11:00:43.000Z</time>
      </trkpt>
      <trkpt lat="49.21826" lon="-0.21723">
        <ele>61.686945</ele>
        <time>2022-08-06T11:00:44.000Z</time>
      </trkpt>
      <trkpt lat="49.21829" lon="-0.21731">
        <ele>61.758481</ele>
        <time>2022-08-06T11:02:03.000Z</time>
      </trkpt>
      <trkpt lat="49.2183" lon="-0.21734">
        <ele>61.792422</ele>
        <time>2022-08-06T11:02:04.000Z</time>
      </trkpt>
      <trkpt lat="49.21833" lon="-0.21736">
        <ele>61.827399</ele>
        <time>2022-08-06T11:02:05.000Z</time>
      </trkpt>
      <trkpt lat="49.21835" lon="-0.21737">
        <ele>61.860847</ele>
        <time>2022-08-06T11:02:06.000Z</time>
      </trkpt>
      <trkpt lat="49.21839" lon="-0.21738">
        <ele>61.904996</ele>
        <time>2022-08-06T11:02:07.000Z</time>
      </trkpt>
      <trkpt lat="49.21842" lon="-0.21739">
        <ele>61.94534</ele>
        <time>2022-08-06T11:02:08.000Z</time>
      </trkpt>
      <trkpt lat="49.21846" lon="-0.2174">
        <ele>61.994131</ele>
        <time>2022-08-06T11:02:09.000Z</time>
      </trkpt>
      <trkpt lat="49.21849" lon="-0.2174">
        <ele>62.033844</ele>
        <time>2022-08-06T11:02:10.000Z</time>
      </trkpt>
      <trkpt lat="49.21853" lon="-0.2174">
        <ele>62.077244</ele>
        <time>2022-08-06T11:02:11.000Z</time>
      </trkpt>
      <trkpt lat="49.21856" lon="-0.2174">
        <ele>62.124364</ele>
        <time>2022-08-06T11:02:12.000Z</time>
      </trkpt>
      <trkpt lat="49.2186" lon="-0.21741">
        <ele>62.172784</ele>
        <time>2022-08-06T11:02:13.000Z</time>
      </trkpt>
      <trkpt lat="49.21864" lon="-0.21741">
        <ele>62.220347</ele>
        <time>2022-08-06T11:02:14.000Z</time>
      </trkpt>
      <trkpt lat="49.21868" lon="-0.21742">
        <ele>62.267495</ele>
        <time>2022-08-06T11:02:15.000Z</time>
      </trkpt>
      <trkpt lat="49.21871" lon="-0.21741">
        <ele>62.307249</ele>
        <time>2022-08-06T11:02:16.000Z</time>
      </trkpt>
      <trkpt lat="49.21874" lon="-0.21741">
        <ele>62.346962</ele>
        <time>2022-08-06T11:02:17.000Z</time>
      </trkpt>
      <trkpt lat="49.21878" lon="-0.21741">
        <ele>62.391631</ele>
        <time>2022-08-06T11:02:18.000Z</time>
      </trkpt>
      <trkpt lat="49.21881" lon="-0.21741">
        <ele>62.426436</ele>
        <time>2022-08-06T11:02:19.000Z</time>
      </trkpt>
      <trkpt lat="49.21885" lon="-0.21741">
        <ele>62.474965</ele>
        <time>2022-08-06T11:02:20.000Z</time>
      </trkpt>
      <trkpt lat="49.21888" lon="-0.21742">
        <ele>62.522424</ele>
        <time>2022-08-06T11:02:21.000Z</time>
      </trkpt>
      <trkpt lat="49.21892" lon="-0.21743">
        <ele>62.566729</ele>
        <time>2022-08-06T11:02:22.000Z</time>
      </trkpt>
      <trkpt lat="49.21895" lon="-0.21744">
        <ele>62.603589</ele>
        <time>2022-08-06T11:02:23.000Z</time>
      </trkpt>
      <trkpt lat="49.21898" lon="-0.21744">
        <ele>62.639777</ele>
        <time>2022-08-06T11:02:24.000Z</time>
      </trkpt>
      <trkpt lat="49.21901" lon="-0.21745">
        <ele>62.676181</ele>
        <time>2022-08-06T11:02:25.000Z</time>
      </trkpt>
      <trkpt lat="49.21903" lon="-0.21746">
        <ele>62.712368</ele>
        <time>2022-08-06T11:02:26.000Z</time>
      </trkpt>
      <trkpt lat="49.21906" lon="-0.21746">
        <ele>62.739946</ele>
        <time>2022-08-06T11:02:27.000Z</time>
      </trkpt>
      <trkpt lat="49.21908" lon="-0.21747">
        <ele>62.772681</ele>
        <time>2022-08-06T11:02:28.000Z</time>
      </trkpt>
      <trkpt lat="49.2191" lon="-0.21747">
        <ele>62.799961</ele>
        <time>2022-08-06T11:02:30.000Z</time>
      </trkpt>
      <trkpt lat="49.21923" lon="-0.21751">
        <ele>62.961952</ele>
        <time>2022-08-06T11:02:51.000Z</time>
      </trkpt>
      <trkpt lat="49.21925" lon="-0.21754">
        <ele>62.994562</ele>
        <time>2022-08-06T11:02:52.000Z</time>
      </trkpt>
      <trkpt lat="49.21925" lon="-0.21758">
        <ele>63.028828</ele>
        <time>2022-08-06T11:02:53.000Z</time>
      </trkpt>
      <trkpt lat="49.21925" lon="-0.21764">
        <ele>63.073373</ele>
        <time>2022-08-06T11:02:54.000Z</time>
      </trkpt>
      <trkpt lat="49.21925" lon="-0.21769">
        <ele>63.116299</ele>
        <time>2022-08-06T11:02:55.000Z</time>
      </trkpt>
      <trkpt lat="49.21925" lon="-0.21774">
        <ele>63.139895</ele>
        <time>2022-08-06T11:02:56.000Z</time>
      </trkpt>
      <trkpt lat="49.21925" lon="-0.2178">
        <ele>63.1618</ele>
        <time>2022-08-06T11:02:57.000Z</time>
      </trkpt>
      <trkpt lat="49.21925" lon="-0.21785">
        <ele>63.183384</ele>
        <time>2022-08-06T11:02:58.000Z</time>
      </trkpt>
      <trkpt lat="49.21925" lon="-0.21791">
        <ele>63.204572</ele>
        <time>2022-08-06T11:02:59.000Z</time>
      </trkpt>
      <trkpt lat="49.21925" lon="-0.21796">
        <ele>63.225759</ele>
        <time>2022-08-06T11:03:00.000Z</time>
      </trkpt>
      <trkpt lat="49.21925" lon="-0.21801">
        <ele>63.247266</ele>
        <time>2022-08-06T11:03:01.000Z</time>
      </trkpt>
      <trkpt lat="49.21926" lon="-0.21807">
        <ele>63.269306</ele>
        <time>2022-08-06T11:03:02.000Z</time>
      </trkpt>
      <trkpt lat="49.21926" lon="-0.21812">
        <ele>63.2897</ele>
        <time>2022-08-06T11:03:03.000Z</time>
      </trkpt>
      <trkpt lat="49.21927" lon="-0.21817">
        <ele>63.310731</ele>
        <time>2022-08-06T11:03:04.000Z</time>
      </trkpt>
      <trkpt lat="49.21927" lon="-0.21822">
        <ele>63.332267</ele>
        <time>2022-08-06T11:03:05.000Z</time>
      </trkpt>
      <trkpt lat="49.21927" lon="-0.21828">
        <ele>63.354172</ele>
        <time>2022-08-06T11:03:06.000Z</time>
      </trkpt>
      <trkpt lat="49.21927" lon="-0.21834">
        <ele>63.378054</ele>
        <time>2022-08-06T11:03:07.000Z</time>
      </trkpt>
      <trkpt lat="49.21927" lon="-0.2184">
        <ele>63.401154</ele>
        <time>2022-08-06T11:03:08.000Z</time>
      </trkpt>
      <trkpt lat="49.21928" lon="-0.21845">
        <ele>63.425045</ele>
        <time>2022-08-06T11:03:09.000Z</time>
      </trkpt>
      <trkpt lat="49.21928" lon="-0.21851">
        <ele>63.448614</ele>
        <time>2022-08-06T11:03:10.000Z</time>
      </trkpt>
      <trkpt lat="49.21929" lon="-0.21857">
        <ele>63.472001</ele>
        <time>2022-08-06T11:03:11.000Z</time>
      </trkpt>
      <trkpt lat="49.2193" lon="-0.21863">
        <ele>63.495508</ele>
        <time>2022-08-06T11:03:12.000Z</time>
      </trkpt>
      <trkpt lat="49.2193" lon="-0.21868">
        <ele>63.518109</ele>
        <time>2022-08-06T11:03:13.000Z</time>
      </trkpt>
      <trkpt lat="49.2193" lon="-0.21875">
        <ele>63.542802</ele>
        <time>2022-08-06T11:03:14.000Z</time>
      </trkpt>
      <trkpt lat="49.2193" lon="-0.2188">
        <ele>63.565901</ele>
        <time>2022-08-06T11:03:15.000Z</time>
      </trkpt>
      <trkpt lat="49.21931" lon="-0.21887">
        <ele>63.591336</ele>
        <time>2022-08-06T11:03:16.000Z</time>
      </trkpt>
      <trkpt lat="49.21932" lon="-0.21892">
        <ele>63.614111</ele>
        <time>2022-08-06T11:03:17.000Z</time>
      </trkpt>
      <trkpt lat="49.21932" lon="-0.21898">
        <ele>63.638077</ele>
        <time>2022-08-06T11:03:18.000Z</time>
      </trkpt>
      <trkpt lat="49.21933" lon="-0.21904">
        <ele>63.661568</ele>
        <time>2022-08-06T11:03:19.000Z</time>
      </trkpt>
      <trkpt lat="49.21933" lon="-0.2191">
        <ele>63.686261</ele>
        <time>2022-08-06T11:03:20.000Z</time>
      </trkpt>
      <trkpt lat="49.21933" lon="-0.21916">
        <ele>63.710829</ele>
        <time>2022-08-06T11:03:21.000Z</time>
      </trkpt>
      <trkpt lat="49.21933" lon="-0.21922">
        <ele>63.734725</ele>
        <time>2022-08-06T11:03:22.000Z</time>
      </trkpt>
      <trkpt lat="49.21933" lon="-0.21928">
        <ele>63.756706</ele>
        <time>2022-08-06T11:03:23.000Z</time>
      </trkpt>
      <trkpt lat="49.21934" lon="-0.21934">
        <ele>63.780981</ele>
        <time>2022-08-06T11:03:24.000Z</time>
      </trkpt>
      <trkpt lat="49.21935" lon="-0.21939">
        <ele>63.803563</ele>
        <time>2022-08-06T11:03:25.000Z</time>
      </trkpt>
      <trkpt lat="49.21936" lon="-0.21945">
        <ele>63.826484</ele>
        <time>2022-08-06T11:03:26.000Z</time>
      </trkpt>
      <trkpt lat="49.21937" lon="-0.2195">
        <ele>63.848455</ele>
        <time>2022-08-06T11:03:27.000Z</time>
      </trkpt>
      <trkpt lat="49.21938" lon="-0.21955">
        <ele>63.868702</ele>
        <time>2022-08-06T11:03:28.000Z</time>
      </trkpt>
      <trkpt lat="49.21939" lon="-0.2196">
        <ele>63.889847</ele>
        <time>2022-08-06T11:03:29.000Z</time>
      </trkpt>
      <trkpt lat="49.21939" lon="-0.21966">
        <ele>63.913743</ele>
        <time>2022-08-06T11:03:30.000Z</time>
      </trkpt>
      <trkpt lat="49.21939" lon="-0.21973">
        <ele>63.940029</ele>
        <time>2022-08-06T11:03:31.000Z</time>
      </trkpt>
      <trkpt lat="49.21938" lon="-0.2198">
        <ele>63.968808</ele>
        <time>2022-08-06T11:03:32.000Z</time>
      </trkpt>
      <trkpt lat="49.21938" lon="-0.21987">
        <ele>63.996687</ele>
        <time>2022-08-06T11:03:33.000Z</time>
      </trkpt>
      <trkpt lat="49.21939" lon="-0.21993">
        <ele>64.021896</ele>
        <time>2022-08-06T11:03:34.000Z</time>
      </trkpt>
      <trkpt lat="49.21939" lon="-0.22">
        <ele>64.04883</ele>
        <time>2022-08-06T11:03:35.000Z</time>
      </trkpt>
      <trkpt lat="49.2194" lon="-0.22007">
        <ele>64.075974</ele>
        <time>2022-08-06T11:03:36.000Z</time>
      </trkpt>
      <trkpt lat="49.2194" lon="-0.22014">
        <ele>64.103516</ele>
        <time>2022-08-06T11:03:37.000Z</time>
      </trkpt>
      <trkpt lat="49.2194" lon="-0.22021">
        <ele>64.131501</ele>
        <time>2022-08-06T11:03:38.000Z</time>
      </trkpt>
      <trkpt lat="49.21941" lon="-0.22027">
        <ele>64.158786</ele>
        <time>2022-08-06T11:03:39.000Z</time>
      </trkpt>
      <trkpt lat="49.21942" lon="-0.22034">
        <ele>64.186158</ele>
        <time>2022-08-06T11:03:40.000Z</time>
      </trkpt>
      <trkpt lat="49.21943" lon="-0.22041">
        <ele>64.212303</ele>
        <time>2022-08-06T11:03:41.000Z</time>
      </trkpt>
      <trkpt lat="49.21944" lon="-0.22047">
        <ele>64.102469</ele>
        <time>2022-08-06T11:03:42.000Z</time>
      </trkpt>
      <trkpt lat="49.21944" lon="-0.22054">
        <ele>63.952075</ele>
        <time>2022-08-06T11:03:43.000Z</time>
      </trkpt>
      <trkpt lat="49.21945" lon="-0.22061">
        <ele>63.803593</ele>
        <time>2022-08-06T11:03:44.000Z</time>
      </trkpt>
      <trkpt lat="49.21946" lon="-0.22068">
        <ele>63.653199</ele>
        <time>2022-08-06T11:03:45.000Z</time>
      </trkpt>
      <trkpt lat="49.21946" lon="-0.22075">
        <ele>63.510139</ele>
        <time>2022-08-06T11:03:46.000Z</time>
      </trkpt>
      <trkpt lat="49.21947" lon="-0.22081">
        <ele>63.36894</ele>
        <time>2022-08-06T11:03:47.000Z</time>
      </trkpt>
      <trkpt lat="49.21947" lon="-0.22088">
        <ele>63.231209</ele>
        <time>2022-08-06T11:03:48.000Z</time>
      </trkpt>
      <trkpt lat="49.21947" lon="-0.22094">
        <ele>63.090614</ele>
        <time>2022-08-06T11:03:49.000Z</time>
      </trkpt>
      <trkpt lat="49.21946" lon="-0.22101">
        <ele>62.940054</ele>
        <time>2022-08-06T11:03:50.000Z</time>
      </trkpt>
      <trkpt lat="49.21946" lon="-0.22108">
        <ele>62.788808</ele>
        <time>2022-08-06T11:03:51.000Z</time>
      </trkpt>
      <trkpt lat="49.21946" lon="-0.22116">
        <ele>62.63512</ele>
        <time>2022-08-06T11:03:52.000Z</time>
      </trkpt>
      <trkpt lat="49.21946" lon="-0.22123">
        <ele>62.479613</ele>
        <time>2022-08-06T11:03:53.000Z</time>
      </trkpt>
      <trkpt lat="49.21946" lon="-0.2213">
        <ele>62.330498</ele>
        <time>2022-08-06T11:03:54.000Z</time>
      </trkpt>
      <trkpt lat="49.21946" lon="-0.22138">
        <ele>62.166179</ele>
        <time>2022-08-06T11:03:55.000Z</time>
      </trkpt>
      <trkpt lat="49.21945" lon="-0.22145">
        <ele>62.016742</ele>
        <time>2022-08-06T11:03:56.000Z</time>
      </trkpt>
      <trkpt lat="49.21945" lon="-0.22152">
        <ele>61.863366</ele>
        <time>2022-08-06T11:03:57.000Z</time>
      </trkpt>
      <trkpt lat="49.21945" lon="-0.22159">
        <ele>61.71425</ele>
        <time>2022-08-06T11:03:58.000Z</time>
      </trkpt>
      <trkpt lat="49.21946" lon="-0.22165">
        <ele>61.575441</ele>
        <time>2022-08-06T11:03:59.000Z</time>
      </trkpt>
      <trkpt lat="49.21946" lon="-0.22172">
        <ele>61.430585</ele>
        <time>2022-08-06T11:04:00.000Z</time>
      </trkpt>
      <trkpt lat="49.21946" lon="-0.22179">
        <ele>61.291775</ele>
        <time>2022-08-06T11:04:01.000Z</time>
      </trkpt>
      <trkpt lat="49.21946" lon="-0.22184">
        <ele>61.167836</ele>
        <time>2022-08-06T11:04:02.000Z</time>
      </trkpt>
      <trkpt lat="49.21947" lon="-0.22192">
        <ele>61.013906</ele>
        <time>2022-08-06T11:04:03.000Z</time>
      </trkpt>
      <trkpt lat="49.21948" lon="-0.22198">
        <ele>60.863857</ele>
        <time>2022-08-06T11:04:04.000Z</time>
      </trkpt>
      <trkpt lat="49.21948" lon="-0.22206">
        <ele>60.703558</ele>
        <time>2022-08-06T11:04:05.000Z</time>
      </trkpt>
      <trkpt lat="49.21949" lon="-0.22213">
        <ele>60.543212</ele>
        <time>2022-08-06T11:04:06.000Z</time>
      </trkpt>
      <trkpt lat="49.21949" lon="-0.22221">
        <ele>60.38102</ele>
        <time>2022-08-06T11:04:07.000Z</time>
      </trkpt>
      <trkpt lat="49.2195" lon="-0.22228">
        <ele>60.21963</ele>
        <time>2022-08-06T11:04:08.000Z</time>
      </trkpt>
      <trkpt lat="49.2195" lon="-0.22236">
        <ele>60.051058</ele>
        <time>2022-08-06T11:04:09.000Z</time>
      </trkpt>
      <trkpt lat="49.21951" lon="-0.22244">
        <ele>59.887983</ele>
        <time>2022-08-06T11:04:10.000Z</time>
      </trkpt>
      <trkpt lat="49.21952" lon="-0.22251">
        <ele>59.732917</ele>
        <time>2022-08-06T11:04:11.000Z</time>
      </trkpt>
      <trkpt lat="49.21952" lon="-0.22258">
        <ele>59.583802</ele>
        <time>2022-08-06T11:04:12.000Z</time>
      </trkpt>
      <trkpt lat="49.21952" lon="-0.22265">
        <ele>59.430114</ele>
        <time>2022-08-06T11:04:13.000Z</time>
      </trkpt>
      <trkpt lat="49.21953" lon="-0.22273">
        <ele>59.267052</ele>
        <time>2022-08-06T11:04:14.000Z</time>
      </trkpt>
      <trkpt lat="49.21954" lon="-0.22281">
        <ele>59.092026</ele>
        <time>2022-08-06T11:04:15.000Z</time>
      </trkpt>
      <trkpt lat="49.21954" lon="-0.22289">
        <ele>58.921327</ele>
        <time>2022-08-06T11:04:16.000Z</time>
      </trkpt>
      <trkpt lat="49.21955" lon="-0.22297">
        <ele>58.745164</ele>
        <time>2022-08-06T11:04:17.000Z</time>
      </trkpt>
      <trkpt lat="49.21955" lon="-0.22305">
        <ele>58.570212</ele>
        <time>2022-08-06T11:04:18.000Z</time>
      </trkpt>
      <trkpt lat="49.21956" lon="-0.22313">
        <ele>58.40802</ele>
        <time>2022-08-06T11:04:19.000Z</time>
      </trkpt>
      <trkpt lat="49.21956" lon="-0.22321">
        <ele>58.041351</ele>
        <time>2022-08-06T11:04:20.000Z</time>
      </trkpt>
      <trkpt lat="49.21956" lon="-0.22329">
        <ele>57.583559</ele>
        <time>2022-08-06T11:04:21.000Z</time>
      </trkpt>
      <trkpt lat="49.21956" lon="-0.22337">
        <ele>57.131562</ele>
        <time>2022-08-06T11:04:22.000Z</time>
      </trkpt>
      <trkpt lat="49.21956" lon="-0.22344">
        <ele>56.707703</ele>
        <time>2022-08-06T11:04:23.000Z</time>
      </trkpt>
      <trkpt lat="49.21957" lon="-0.22351">
        <ele>56.291558</ele>
        <time>2022-08-06T11:04:24.000Z</time>
      </trkpt>
      <trkpt lat="49.21958" lon="-0.22359">
        <ele>55.806594</ele>
        <time>2022-08-06T11:04:25.000Z</time>
      </trkpt>
      <trkpt lat="49.21958" lon="-0.22368">
        <ele>55.28235</ele>
        <time>2022-08-06T11:04:26.000Z</time>
      </trkpt>
      <trkpt lat="49.2196" lon="-0.22376">
        <ele>54.787744</ele>
        <time>2022-08-06T11:04:27.000Z</time>
      </trkpt>
      <trkpt lat="49.2196" lon="-0.22386">
        <ele>54.24238</ele>
        <time>2022-08-06T11:04:28.000Z</time>
      </trkpt>
      <trkpt lat="49.2196" lon="-0.22395">
        <ele>53.720846</ele>
        <time>2022-08-06T11:04:29.000Z</time>
      </trkpt>
      <trkpt lat="49.2196" lon="-0.22405">
        <ele>53.15233</ele>
        <time>2022-08-06T11:04:30.000Z</time>
      </trkpt>
      <trkpt lat="49.21961" lon="-0.22413">
        <ele>52.634725</ele>
        <time>2022-08-06T11:04:31.000Z</time>
      </trkpt>
      <trkpt lat="49.21963" lon="-0.22421">
        <ele>52.149893</ele>
        <time>2022-08-06T11:04:32.000Z</time>
      </trkpt>
      <trkpt lat="49.21963" lon="-0.22429">
        <ele>51.691329</ele>
        <time>2022-08-06T11:04:33.000Z</time>
      </trkpt>
      <trkpt lat="49.21964" lon="-0.22438">
        <ele>51.190139</ele>
        <time>2022-08-06T11:04:34.000Z</time>
      </trkpt>
      <trkpt lat="49.21964" lon="-0.22448">
        <ele>50.587478</ele>
        <time>2022-08-06T11:04:35.000Z</time>
      </trkpt>
      <trkpt lat="49.21964" lon="-0.22458">
        <ele>50.007996</ele>
        <time>2022-08-06T11:04:36.000Z</time>
      </trkpt>
      <trkpt lat="49.21964" lon="-0.22468">
        <ele>49.422114</ele>
        <time>2022-08-06T11:04:37.000Z</time>
      </trkpt>
      <trkpt lat="49.21964" lon="-0.22479">
        <ele>48.831042</ele>
        <time>2022-08-06T11:04:38.000Z</time>
      </trkpt>
      <trkpt lat="49.21964" lon="-0.22489">
        <ele>48.222586</ele>
        <time>2022-08-06T11:04:39.000Z</time>
      </trkpt>
      <trkpt lat="49.21964" lon="-0.22501">
        <ele>47.54407</ele>
        <time>2022-08-06T11:04:40.000Z</time>
      </trkpt>
      <trkpt lat="49.21964" lon="-0.22512">
        <ele>46.870934</ele>
        <time>2022-08-06T11:04:41.000Z</time>
      </trkpt>
      <trkpt lat="49.21965" lon="-0.22522">
        <ele>46.294783</ele>
        <time>2022-08-06T11:04:42.000Z</time>
      </trkpt>
      <trkpt lat="49.21966" lon="-0.22532">
        <ele>45.698168</ele>
        <time>2022-08-06T11:04:43.000Z</time>
      </trkpt>
      <trkpt lat="49.21968" lon="-0.22541">
        <ele>45.168835</ele>
        <time>2022-08-06T11:04:44.000Z</time>
      </trkpt>
      <trkpt lat="49.21969" lon="-0.2255">
        <ele>44.668349</ele>
        <time>2022-08-06T11:04:45.000Z</time>
      </trkpt>
      <trkpt lat="49.21969" lon="-0.2256">
        <ele>44.07089</ele>
        <time>2022-08-06T11:04:46.000Z</time>
      </trkpt>
      <trkpt lat="49.2197" lon="-0.22571">
        <ele>43.432905</ele>
        <time>2022-08-06T11:04:47.000Z</time>
      </trkpt>
      <trkpt lat="49.21969" lon="-0.22582">
        <ele>42.78334</ele>
        <time>2022-08-06T11:04:48.000Z</time>
      </trkpt>
      <trkpt lat="49.2197" lon="-0.22592">
        <ele>42.206387</ele>
        <time>2022-08-06T11:04:49.000Z</time>
      </trkpt>
      <trkpt lat="49.21971" lon="-0.22604">
        <ele>41.60541</ele>
        <time>2022-08-06T11:04:50.000Z</time>
      </trkpt>
      <trkpt lat="49.21972" lon="-0.22615">
        <ele>41.012955</ele>
        <time>2022-08-06T11:04:51.000Z</time>
      </trkpt>
      <trkpt lat="49.21972" lon="-0.22627">
        <ele>40.386152</ele>
        <time>2022-08-06T11:04:52.000Z</time>
      </trkpt>
      <trkpt lat="49.21972" lon="-0.2264">
        <ele>39.75417</ele>
        <time>2022-08-06T11:04:53.000Z</time>
      </trkpt>
      <trkpt lat="49.21972" lon="-0.22652">
        <ele>39.088786</ele>
        <time>2022-08-06T11:04:54.000Z</time>
      </trkpt>
      <trkpt lat="49.21973" lon="-0.22665">
        <ele>38.416741</ele>
        <time>2022-08-06T11:04:55.000Z</time>
      </trkpt>
      <trkpt lat="49.21973" lon="-0.22678">
        <ele>37.763604</ele>
        <time>2022-08-06T11:04:56.000Z</time>
      </trkpt>
      <trkpt lat="49.21973" lon="-0.22691">
        <ele>37.09018</ele>
        <time>2022-08-06T11:04:57.000Z</time>
      </trkpt>
      <trkpt lat="49.21975" lon="-0.22703">
        <ele>36.465176</ele>
        <time>2022-08-06T11:04:58.000Z</time>
      </trkpt>
      <trkpt lat="49.21975" lon="-0.22714">
        <ele>35.879332</ele>
        <time>2022-08-06T11:04:59.000Z</time>
      </trkpt>
      <trkpt lat="49.21975" lon="-0.22724">
        <ele>35.376854</ele>
        <time>2022-08-06T11:05:00.000Z</time>
      </trkpt>
      <trkpt lat="49.21975" lon="-0.22733">
        <ele>34.879557</ele>
        <time>2022-08-06T11:05:01.000Z</time>
      </trkpt>
      <trkpt lat="49.21976" lon="-0.22741">
        <ele>34.487097</ele>
        <time>2022-08-06T11:05:02.000Z</time>
      </trkpt>
      <trkpt lat="49.21978" lon="-0.22747">
        <ele>34.132332</ele>
        <time>2022-08-06T11:05:03.000Z</time>
      </trkpt>
      <trkpt lat="49.21979" lon="-0.22754">
        <ele>33.772503</ele>
        <time>2022-08-06T11:05:04.000Z</time>
      </trkpt>
      <trkpt lat="49.21979" lon="-0.2276">
        <ele>33.446152</ele>
        <time>2022-08-06T11:05:05.000Z</time>
      </trkpt>
      <trkpt lat="49.2198" lon="-0.22767">
        <ele>33.08276</ele>
        <time>2022-08-06T11:05:06.000Z</time>
      </trkpt>
      <trkpt lat="49.2198" lon="-0.22773">
        <ele>32.761589</ele>
        <time>2022-08-06T11:05:07.000Z</time>
      </trkpt>
      <trkpt lat="49.21981" lon="-0.22778">
        <ele>32.473162</ele>
        <time>2022-08-06T11:05:08.000Z</time>
      </trkpt>
      <trkpt lat="49.21981" lon="-0.22783">
        <ele>32.213063</ele>
        <time>2022-08-06T11:05:09.000Z</time>
      </trkpt>
      <trkpt lat="49.21981" lon="-0.22788">
        <ele>31.978744</ele>
        <time>2022-08-06T11:05:10.000Z</time>
      </trkpt>
      <trkpt lat="49.21981" lon="-0.22791">
        <ele>31.797438</ele>
        <time>2022-08-06T11:05:11.000Z</time>
      </trkpt>
      <trkpt lat="49.2198" lon="-0.22794">
        <ele>31.632126</ele>
        <time>2022-08-06T11:05:12.000Z</time>
      </trkpt>
      <trkpt lat="49.2198" lon="-0.22798">
        <ele>31.414558</ele>
        <time>2022-08-06T11:05:14.000Z</time>
      </trkpt>
      <trkpt lat="49.21981" lon="-0.22809">
        <ele>30.849506</ele>
        <time>2022-08-06T11:06:12.000Z</time>
      </trkpt>
      <trkpt lat="49.21981" lon="-0.22814">
        <ele>30.596345</ele>
        <time>2022-08-06T11:06:13.000Z</time>
      </trkpt>
      <trkpt lat="49.21982" lon="-0.2282">
        <ele>30.285713</ele>
        <time>2022-08-06T11:06:14.000Z</time>
      </trkpt>
      <trkpt lat="49.21983" lon="-0.22826">
        <ele>29.928614</ele>
        <time>2022-08-06T11:06:15.000Z</time>
      </trkpt>
      <trkpt lat="49.21984" lon="-0.22834">
        <ele>29.552618</ele>
        <time>2022-08-06T11:06:16.000Z</time>
      </trkpt>
      <trkpt lat="49.21985" lon="-0.22841">
        <ele>29.140635</ele>
        <time>2022-08-06T11:06:17.000Z</time>
      </trkpt>
      <trkpt lat="49.21986" lon="-0.2285">
        <ele>28.697757</ele>
        <time>2022-08-06T11:06:18.000Z</time>
      </trkpt>
      <trkpt lat="49.21987" lon="-0.22858">
        <ele>28.250357</ele>
        <time>2022-08-06T11:06:19.000Z</time>
      </trkpt>
      <trkpt lat="49.21988" lon="-0.22867">
        <ele>28.00623</ele>
        <time>2022-08-06T11:06:20.000Z</time>
      </trkpt>
      <trkpt lat="49.21989" lon="-0.22876">
        <ele>27.811421</ele>
        <time>2022-08-06T11:06:21.000Z</time>
      </trkpt>
      <trkpt lat="49.21989" lon="-0.22886">
        <ele>27.614166</ele>
        <time>2022-08-06T11:06:22.000Z</time>
      </trkpt>
      <trkpt lat="49.2199" lon="-0.22896">
        <ele>27.415379</ele>
        <time>2022-08-06T11:06:23.000Z</time>
      </trkpt>
      <trkpt lat="49.2199" lon="-0.22906">
        <ele>27.20888</ele>
        <time>2022-08-06T11:06:24.000Z</time>
      </trkpt>
      <trkpt lat="49.2199" lon="-0.22916">
        <ele>27.004195</ele>
        <time>2022-08-06T11:06:25.000Z</time>
      </trkpt>
      <trkpt lat="49.21991" lon="-0.22926">
        <ele>26.795821</ele>
        <time>2022-08-06T11:06:26.000Z</time>
      </trkpt>
      <trkpt lat="49.21991" lon="-0.22936">
        <ele>26.592992</ele>
        <time>2022-08-06T11:06:27.000Z</time>
      </trkpt>
      <trkpt lat="49.21993" lon="-0.22946">
        <ele>26.391135</ele>
        <time>2022-08-06T11:06:28.000Z</time>
      </trkpt>
      <trkpt lat="49.21993" lon="-0.22956">
        <ele>26.189539</ele>
        <time>2022-08-06T11:06:29.000Z</time>
      </trkpt>
      <trkpt lat="49.21995" lon="-0.22966">
        <ele>25.987088</ele>
        <time>2022-08-06T11:06:30.000Z</time>
      </trkpt>
      <trkpt lat="49.21995" lon="-0.22975">
        <ele>25.789834</ele>
        <time>2022-08-06T11:06:31.000Z</time>
      </trkpt>
      <trkpt lat="49.21996" lon="-0.22985">
        <ele>25.59526</ele>
        <time>2022-08-06T11:06:32.000Z</time>
      </trkpt>
      <trkpt lat="49.21996" lon="-0.22995">
        <ele>25.397689</ele>
        <time>2022-08-06T11:06:33.000Z</time>
      </trkpt>
      <trkpt lat="49.21997" lon="-0.23004">
        <ele>25.20335</ele>
        <time>2022-08-06T11:06:34.000Z</time>
      </trkpt>
      <trkpt lat="49.21999" lon="-0.23013">
        <ele>25.00865</ele>
        <time>2022-08-06T11:06:35.000Z</time>
      </trkpt>
      <trkpt lat="49.21999" lon="-0.23023">
        <ele>24.815104</ele>
        <time>2022-08-06T11:06:36.000Z</time>
      </trkpt>
      <trkpt lat="49.22001" lon="-0.23032">
        <ele>24.625173</ele>
        <time>2022-08-06T11:06:37.000Z</time>
      </trkpt>
      <trkpt lat="49.22001" lon="-0.23041">
        <ele>24.436488</ele>
        <time>2022-08-06T11:06:38.000Z</time>
      </trkpt>
      <trkpt lat="49.22001" lon="-0.23051">
        <ele>24.239721</ele>
        <time>2022-08-06T11:06:39.000Z</time>
      </trkpt>
      <trkpt lat="49.22001" lon="-0.23061">
        <ele>24.041321</ele>
        <time>2022-08-06T11:06:40.000Z</time>
      </trkpt>
      <trkpt lat="49.22" lon="-0.23071">
        <ele>23.838019</ele>
        <time>2022-08-06T11:06:41.000Z</time>
      </trkpt>
      <trkpt lat="49.22001" lon="-0.23081">
        <ele>23.636734</ele>
        <time>2022-08-06T11:06:42.000Z</time>
      </trkpt>
      <trkpt lat="49.22001" lon="-0.23091">
        <ele>23.431885</ele>
        <time>2022-08-06T11:06:43.000Z</time>
      </trkpt>
      <trkpt lat="49.22002" lon="-0.23101">
        <ele>23.229528</ele>
        <time>2022-08-06T11:06:44.000Z</time>
      </trkpt>
      <trkpt lat="49.22003" lon="-0.2311">
        <ele>23.040005</ele>
        <time>2022-08-06T11:06:45.000Z</time>
      </trkpt>
      <trkpt lat="49.22003" lon="-0.2312">
        <ele>22.847453</ele>
        <time>2022-08-06T11:06:46.000Z</time>
      </trkpt>
      <trkpt lat="49.22003" lon="-0.23129">
        <ele>22.654902</ele>
        <time>2022-08-06T11:06:47.000Z</time>
      </trkpt>
      <trkpt lat="49.22004" lon="-0.23138">
        <ele>22.509189</ele>
        <time>2022-08-06T11:06:48.000Z</time>
      </trkpt>
      <trkpt lat="49.22005" lon="-0.23147">
        <ele>22.407523</ele>
        <time>2022-08-06T11:06:49.000Z</time>
      </trkpt>
      <trkpt lat="49.22006" lon="-0.23156">
        <ele>22.309304</ele>
        <time>2022-08-06T11:06:50.000Z</time>
      </trkpt>
      <trkpt lat="49.22007" lon="-0.23165">
        <ele>22.210637</ele>
        <time>2022-08-06T11:06:51.000Z</time>
      </trkpt>
      <trkpt lat="49.22007" lon="-0.23174">
        <ele>22.120448</ele>
        <time>2022-08-06T11:06:52.000Z</time>
      </trkpt>
      <trkpt lat="49.22009" lon="-0.23182">
        <ele>22.026209</ele>
        <time>2022-08-06T11:06:53.000Z</time>
      </trkpt>
      <trkpt lat="49.22009" lon="-0.23191">
        <ele>21.930616</ele>
        <time>2022-08-06T11:06:54.000Z</time>
      </trkpt>
      <trkpt lat="49.22009" lon="-0.23199">
        <ele>21.839452</ele>
        <time>2022-08-06T11:06:55.000Z</time>
      </trkpt>
      <trkpt lat="49.2201" lon="-0.23208">
        <ele>21.748958</ele>
        <time>2022-08-06T11:06:56.000Z</time>
      </trkpt>
      <trkpt lat="49.22011" lon="-0.23216">
        <ele>21.660691</ele>
        <time>2022-08-06T11:06:57.000Z</time>
      </trkpt>
      <trkpt lat="49.22012" lon="-0.23224">
        <ele>21.573428</ele>
        <time>2022-08-06T11:06:58.000Z</time>
      </trkpt>
      <trkpt lat="49.22013" lon="-0.23231">
        <ele>21.487289</ele>
        <time>2022-08-06T11:06:59.000Z</time>
      </trkpt>
      <trkpt lat="49.22013" lon="-0.23239">
        <ele>21.405862</ele>
        <time>2022-08-06T11:07:00.000Z</time>
      </trkpt>
      <trkpt lat="49.22013" lon="-0.23246">
        <ele>21.325055</ele>
        <time>2022-08-06T11:07:01.000Z</time>
      </trkpt>
      <trkpt lat="49.22014" lon="-0.23254">
        <ele>21.2451</ele>
        <time>2022-08-06T11:07:02.000Z</time>
      </trkpt>
      <trkpt lat="49.22015" lon="-0.23261">
        <ele>21.164595</ele>
        <time>2022-08-06T11:07:03.000Z</time>
      </trkpt>
      <trkpt lat="49.22016" lon="-0.23268">
        <ele>21.082494</ele>
        <time>2022-08-06T11:07:04.000Z</time>
      </trkpt>
      <trkpt lat="49.22016" lon="-0.23276">
        <ele>21.004312</ele>
        <time>2022-08-06T11:07:05.000Z</time>
      </trkpt>
      <trkpt lat="49.22017" lon="-0.23282">
        <ele>20.927531</ele>
        <time>2022-08-06T11:07:06.000Z</time>
      </trkpt>
      <trkpt lat="49.22018" lon="-0.23289">
        <ele>20.852098</ele>
        <time>2022-08-06T11:07:07.000Z</time>
      </trkpt>
      <trkpt lat="49.22019" lon="-0.23297">
        <ele>20.771269</ele>
        <time>2022-08-06T11:07:08.000Z</time>
      </trkpt>
      <trkpt lat="49.22019" lon="-0.23304">
        <ele>20.692162</ele>
        <time>2022-08-06T11:07:09.000Z</time>
      </trkpt>
      <trkpt lat="49.2202" lon="-0.23311">
        <ele>20.61485</ele>
        <time>2022-08-06T11:07:10.000Z</time>
      </trkpt>
      <trkpt lat="49.22021" lon="-0.23318">
        <ele>20.533822</ele>
        <time>2022-08-06T11:07:11.000Z</time>
      </trkpt>
      <trkpt lat="49.22021" lon="-0.23326">
        <ele>20.454558</ele>
        <time>2022-08-06T11:07:12.000Z</time>
      </trkpt>
      <trkpt lat="49.22021" lon="-0.23333">
        <ele>20.376375</ele>
        <time>2022-08-06T11:07:13.000Z</time>
      </trkpt>
      <trkpt lat="49.22021" lon="-0.2334">
        <ele>20.297111</ele>
        <time>2022-08-06T11:07:14.000Z</time>
      </trkpt>
      <trkpt lat="49.22021" lon="-0.23347">
        <ele>20.219087</ele>
        <time>2022-08-06T11:07:15.000Z</time>
      </trkpt>
      <trkpt lat="49.22022" lon="-0.23354">
        <ele>20.143554</ele>
        <time>2022-08-06T11:07:16.000Z</time>
      </trkpt>
      <trkpt lat="49.22023" lon="-0.23361">
        <ele>20.069195</ele>
        <time>2022-08-06T11:07:17.000Z</time>
      </trkpt>
      <trkpt lat="49.22023" lon="-0.23367">
        <ele>19.998445</ele>
        <time>2022-08-06T11:07:18.000Z</time>
      </trkpt>
      <trkpt lat="49.22024" lon="-0.23374">
        <ele>19.92516</ele>
        <time>2022-08-06T11:07:19.000Z</time>
      </trkpt>
      <trkpt lat="49.22024" lon="-0.23381">
        <ele>19.852555</ele>
        <time>2022-08-06T11:07:20.000Z</time>
      </trkpt>
      <trkpt lat="49.22025" lon="-0.23388">
        <ele>19.776048</ele>
        <time>2022-08-06T11:07:21.000Z</time>
      </trkpt>
      <trkpt lat="49.22025" lon="-0.23394">
        <ele>19.706796</ele>
        <time>2022-08-06T11:07:22.000Z</time>
      </trkpt>
      <trkpt lat="49.22026" lon="-0.234">
        <ele>19.637803</ele>
        <time>2022-08-06T11:07:23.000Z</time>
      </trkpt>
      <trkpt lat="49.22027" lon="-0.23407">
        <ele>19.568249</ele>
        <time>2022-08-06T11:07:24.000Z</time>
      </trkpt>
      <trkpt lat="49.22027" lon="-0.23414">
        <ele>19.537708</ele>
        <time>2022-08-06T11:07:25.000Z</time>
      </trkpt>
      <trkpt lat="49.22027" lon="-0.23421">
        <ele>19.508799</ele>
        <time>2022-08-06T11:07:26.000Z</time>
      </trkpt>
      <trkpt lat="49.22029" lon="-0.23428">
        <ele>19.478338</ele>
        <time>2022-08-06T11:07:27.000Z</time>
      </trkpt>
      <trkpt lat="49.22029" lon="-0.23435">
        <ele>19.449429</ele>
        <time>2022-08-06T11:07:28.000Z</time>
      </trkpt>
      <trkpt lat="49.22029" lon="-0.23441">
        <ele>19.420743</ele>
        <time>2022-08-06T11:07:29.000Z</time>
      </trkpt>
      <trkpt lat="49.22029" lon="-0.23448">
        <ele>19.3919</ele>
        <time>2022-08-06T11:07:30.000Z</time>
      </trkpt>
      <trkpt lat="49.2203" lon="-0.23455">
        <ele>19.362939</ele>
        <time>2022-08-06T11:07:31.000Z</time>
      </trkpt>
      <trkpt lat="49.22031" lon="-0.23462">
        <ele>19.333471</ele>
        <time>2022-08-06T11:07:32.000Z</time>
      </trkpt>
      <trkpt lat="49.22031" lon="-0.23468">
        <ele>19.30451</ele>
        <time>2022-08-06T11:07:33.000Z</time>
      </trkpt>
      <trkpt lat="49.22032" lon="-0.23476">
        <ele>19.273908</ele>
        <time>2022-08-06T11:07:34.000Z</time>
      </trkpt>
      <trkpt lat="49.22032" lon="-0.23483">
        <ele>19.24312</ele>
        <time>2022-08-06T11:07:35.000Z</time>
      </trkpt>
      <trkpt lat="49.22033" lon="-0.2349">
        <ele>19.213082</ele>
        <time>2022-08-06T11:07:36.000Z</time>
      </trkpt>
      <trkpt lat="49.22033" lon="-0.23497">
        <ele>19.182903</ele>
        <time>2022-08-06T11:07:37.000Z</time>
      </trkpt>
      <trkpt lat="49.22034" lon="-0.23504">
        <ele>19.154417</ele>
        <time>2022-08-06T11:07:38.000Z</time>
      </trkpt>
      <trkpt lat="49.22035" lon="-0.2351">
        <ele>19.125265</ele>
        <time>2022-08-06T11:07:39.000Z</time>
      </trkpt>
      <trkpt lat="49.22035" lon="-0.23517">
        <ele>19.095319</ele>
        <time>2022-08-06T11:07:40.000Z</time>
      </trkpt>
      <trkpt lat="49.22036" lon="-0.23524">
        <ele>19.068525</ele>
        <time>2022-08-06T11:07:41.000Z</time>
      </trkpt>
      <trkpt lat="49.22036" lon="-0.2353">
        <ele>19.040885</ele>
        <time>2022-08-06T11:07:42.000Z</time>
      </trkpt>
      <trkpt lat="49.22037" lon="-0.23537">
        <ele>19.010848</ele>
        <time>2022-08-06T11:07:43.000Z</time>
      </trkpt>
      <trkpt lat="49.22037" lon="-0.23544">
        <ele>18.982361</ele>
        <time>2022-08-06T11:07:44.000Z</time>
      </trkpt>
      <trkpt lat="49.22037" lon="-0.2355">
        <ele>18.954722</ele>
        <time>2022-08-06T11:07:45.000Z</time>
      </trkpt>
      <trkpt lat="49.22037" lon="-0.23556">
        <ele>18.928774</ele>
        <time>2022-08-06T11:07:46.000Z</time>
      </trkpt>
      <trkpt lat="49.22037" lon="-0.23563">
        <ele>18.901627</ele>
        <time>2022-08-06T11:07:47.000Z</time>
      </trkpt>
      <trkpt lat="49.22037" lon="-0.23569">
        <ele>18.875753</ele>
        <time>2022-08-06T11:07:48.000Z</time>
      </trkpt>
      <trkpt lat="49.22038" lon="-0.23575">
        <ele>18.848482</ele>
        <time>2022-08-06T11:07:49.000Z</time>
      </trkpt>
      <trkpt lat="49.22038" lon="-0.23582">
        <ele>18.821759</ele>
        <time>2022-08-06T11:07:50.000Z</time>
      </trkpt>
      <trkpt lat="49.22038" lon="-0.23588">
        <ele>18.795461</ele>
        <time>2022-08-06T11:07:51.000Z</time>
      </trkpt>
      <trkpt lat="49.22038" lon="-0.23594">
        <ele>18.769295</ele>
        <time>2022-08-06T11:07:52.000Z</time>
      </trkpt>
      <trkpt lat="49.22039" lon="-0.236">
        <ele>18.742078</ele>
        <time>2022-08-06T11:07:53.000Z</time>
      </trkpt>
      <trkpt lat="49.22039" lon="-0.23607">
        <ele>18.715284</ele>
        <time>2022-08-06T11:07:54.000Z</time>
      </trkpt>
      <trkpt lat="49.22039" lon="-0.23613">
        <ele>18.689702</ele>
        <time>2022-08-06T11:07:55.000Z</time>
      </trkpt>
      <trkpt lat="49.2204" lon="-0.23619">
        <ele>18.662762</ele>
        <time>2022-08-06T11:07:56.000Z</time>
      </trkpt>
      <trkpt lat="49.22041" lon="-0.23625">
        <ele>18.635122</ele>
        <time>2022-08-06T11:07:57.000Z</time>
      </trkpt>
      <trkpt lat="49.22041" lon="-0.23632">
        <ele>18.607429</ele>
        <time>2022-08-06T11:07:58.000Z</time>
      </trkpt>
      <trkpt lat="49.22041" lon="-0.23638">
        <ele>18.579789</ele>
        <time>2022-08-06T11:07:59.000Z</time>
      </trkpt>
      <trkpt lat="49.22041" lon="-0.23645">
        <ele>18.553067</ele>
        <time>2022-08-06T11:08:00.000Z</time>
      </trkpt>
      <trkpt lat="49.22042" lon="-0.23651">
        <ele>18.52458</ele>
        <time>2022-08-06T11:08:01.000Z</time>
      </trkpt>
      <trkpt lat="49.22042" lon="-0.23658">
        <ele>18.497575</ele>
        <time>2022-08-06T11:08:02.000Z</time>
      </trkpt>
      <trkpt lat="49.22043" lon="-0.23664">
        <ele>18.470887</ele>
        <time>2022-08-06T11:08:03.000Z</time>
      </trkpt>
      <trkpt lat="49.22044" lon="-0.2367">
        <ele>18.443881</ele>
        <time>2022-08-06T11:08:04.000Z</time>
      </trkpt>
      <trkpt lat="49.22044" lon="-0.23676">
        <ele>18.418357</ele>
        <time>2022-08-06T11:08:05.000Z</time>
      </trkpt>
      <trkpt lat="49.22045" lon="-0.23683">
        <ele>18.395746</ele>
        <time>2022-08-06T11:08:06.000Z</time>
      </trkpt>
      <trkpt lat="49.22044" lon="-0.23689">
        <ele>18.380234</ele>
        <time>2022-08-06T11:08:07.000Z</time>
      </trkpt>
      <trkpt lat="49.22045" lon="-0.23696">
        <ele>18.365172</ele>
        <time>2022-08-06T11:08:08.000Z</time>
      </trkpt>
      <trkpt lat="49.22045" lon="-0.23702">
        <ele>18.351226</ele>
        <time>2022-08-06T11:08:09.000Z</time>
      </trkpt>
      <trkpt lat="49.22045" lon="-0.23708">
        <ele>18.337051</ele>
        <time>2022-08-06T11:08:10.000Z</time>
      </trkpt>
      <trkpt lat="49.22045" lon="-0.23714">
        <ele>18.324433</ele>
        <time>2022-08-06T11:08:11.000Z</time>
      </trkpt>
      <trkpt lat="49.22045" lon="-0.23719">
        <ele>18.312316</ele>
        <time>2022-08-06T11:08:12.000Z</time>
      </trkpt>
      <trkpt lat="49.22045" lon="-0.23725">
        <ele>18.298827</ele>
        <time>2022-08-06T11:08:13.000Z</time>
      </trkpt>
      <trkpt lat="49.22045" lon="-0.2373">
        <ele>18.287167</ele>
        <time>2022-08-06T11:08:14.000Z</time>
      </trkpt>
      <trkpt lat="49.22045" lon="-0.23735">
        <ele>18.275735</ele>
        <time>2022-08-06T11:08:15.000Z</time>
      </trkpt>
      <trkpt lat="49.22045" lon="-0.23739">
        <ele>18.265676</ele>
        <time>2022-08-06T11:08:16.000Z</time>
      </trkpt>
      <trkpt lat="49.22045" lon="-0.23744">
        <ele>18.255159</ele>
        <time>2022-08-06T11:08:17.000Z</time>
      </trkpt>
      <trkpt lat="49.22045" lon="-0.23748">
        <ele>18.245045</ele>
        <time>2022-08-06T11:08:18.000Z</time>
      </trkpt>
      <trkpt lat="49.22044" lon="-0.23753">
        <ele>18.234469</ele>
        <time>2022-08-06T11:08:19.000Z</time>
      </trkpt>
      <trkpt lat="49.22044" lon="-0.23757">
        <ele>18.225095</ele>
        <time>2022-08-06T11:08:20.000Z</time>
      </trkpt>
      <trkpt lat="49.22045" lon="-0.23761">
        <ele>18.215848</ele>
        <time>2022-08-06T11:08:21.000Z</time>
      </trkpt>
      <trkpt lat="49.22045" lon="-0.23764">
        <ele>18.207846</ele>
        <time>2022-08-06T11:08:22.000Z</time>
      </trkpt>
      <trkpt lat="49.22045" lon="-0.23767">
        <ele>18.200759</ele>
        <time>2022-08-06T11:08:23.000Z</time>
      </trkpt>
      <trkpt lat="49.22045" lon="-0.2377">
        <ele>18.1939</ele>
        <time>2022-08-06T11:08:24.000Z</time>
      </trkpt>
      <trkpt lat="49.22045" lon="-0.23773">
        <ele>18.18727</ele>
        <time>2022-08-06T11:08:25.000Z</time>
      </trkpt>
      <trkpt lat="49.22045" lon="-0.23777">
        <ele>18.177896</ele>
        <time>2022-08-06T11:08:27.000Z</time>
      </trkpt>
      <trkpt lat="49.22045" lon="-0.23789">
        <ele>18.151147</ele>
        <time>2022-08-06T11:08:38.000Z</time>
      </trkpt>
      <trkpt lat="49.22044" lon="-0.23793">
        <ele>18.142778</ele>
        <time>2022-08-06T11:08:39.000Z</time>
      </trkpt>
      <trkpt lat="49.22044" lon="-0.23796">
        <ele>18.134027</ele>
        <time>2022-08-06T11:08:40.000Z</time>
      </trkpt>
      <trkpt lat="49.22043" lon="-0.238">
        <ele>18.124644</ele>
        <time>2022-08-06T11:08:41.000Z</time>
      </trkpt>
      <trkpt lat="49.22041" lon="-0.23805">
        <ele>18.113528</ele>
        <time>2022-08-06T11:08:42.000Z</time>
      </trkpt>
      <trkpt lat="49.2204" lon="-0.23808">
        <ele>18.10376</ele>
        <time>2022-08-06T11:08:43.000Z</time>
      </trkpt>
      <trkpt lat="49.22037" lon="-0.23811">
        <ele>18.092083</ele>
        <time>2022-08-06T11:08:44.000Z</time>
      </trkpt>
      <trkpt lat="49.22035" lon="-0.23814">
        <ele>18.081241</ele>
        <time>2022-08-06T11:08:45.000Z</time>
      </trkpt>
      <trkpt lat="49.22031" lon="-0.23817">
        <ele>18.068107</ele>
        <time>2022-08-06T11:08:46.000Z</time>
      </trkpt>
      <trkpt lat="49.22029" lon="-0.23821">
        <ele>18.055988</ele>
        <time>2022-08-06T11:08:47.000Z</time>
      </trkpt>
      <trkpt lat="49.22026" lon="-0.23824">
        <ele>18.041951</ele>
        <time>2022-08-06T11:08:48.000Z</time>
      </trkpt>
      <trkpt lat="49.22022" lon="-0.23828">
        <ele>18.027491</ele>
        <time>2022-08-06T11:08:49.000Z</time>
      </trkpt>
      <trkpt lat="49.22019" lon="-0.23832">
        <ele>18.012203</ele>
        <time>2022-08-06T11:08:50.000Z</time>
      </trkpt>
      <trkpt lat="49.22015" lon="-0.23836">
        <ele>17.995772</ele>
        <time>2022-08-06T11:08:51.000Z</time>
      </trkpt>
      <trkpt lat="49.22012" lon="-0.2384">
        <ele>17.980346</ele>
        <time>2022-08-06T11:08:52.000Z</time>
      </trkpt>
      <trkpt lat="49.22008" lon="-0.23845">
        <ele>17.963668</ele>
        <time>2022-08-06T11:08:53.000Z</time>
      </trkpt>
      <trkpt lat="49.22004" lon="-0.23849">
        <ele>17.946233</ele>
        <time>2022-08-06T11:08:54.000Z</time>
      </trkpt>
      <trkpt lat="49.22" lon="-0.23854">
        <ele>17.929133</ele>
        <time>2022-08-06T11:08:55.000Z</time>
      </trkpt>
      <trkpt lat="49.21996" lon="-0.23858">
        <ele>17.91176</ele>
        <time>2022-08-06T11:08:56.000Z</time>
      </trkpt>
      <trkpt lat="49.21992" lon="-0.23863">
        <ele>17.893968</ele>
        <time>2022-08-06T11:08:57.000Z</time>
      </trkpt>
      <trkpt lat="49.21988" lon="-0.23867">
        <ele>17.876024</ele>
        <time>2022-08-06T11:08:58.000Z</time>
      </trkpt>
      <trkpt lat="49.21983" lon="-0.23872">
        <ele>17.858365</ele>
        <time>2022-08-06T11:08:59.000Z</time>
      </trkpt>
      <trkpt lat="49.21979" lon="-0.23876">
        <ele>17.840421</ele>
        <time>2022-08-06T11:09:00.000Z</time>
      </trkpt>
      <trkpt lat="49.21975" lon="-0.23881">
        <ele>17.821354</ele>
        <time>2022-08-06T11:09:01.000Z</time>
      </trkpt>
      <trkpt lat="49.2197" lon="-0.23886">
        <ele>17.802156</ele>
        <time>2022-08-06T11:09:02.000Z</time>
      </trkpt>
      <trkpt lat="49.21966" lon="-0.23891">
        <ele>17.78352</ele>
        <time>2022-08-06T11:09:03.000Z</time>
      </trkpt>
      <trkpt lat="49.21962" lon="-0.23896">
        <ele>17.737281</ele>
        <time>2022-08-06T11:09:04.000Z</time>
      </trkpt>
      <trkpt lat="49.21958" lon="-0.23901">
        <ele>17.65445</ele>
        <time>2022-08-06T11:09:05.000Z</time>
      </trkpt>
      <trkpt lat="49.21953" lon="-0.23906">
        <ele>17.562709</ele>
        <time>2022-08-06T11:09:06.000Z</time>
      </trkpt>
      <trkpt lat="49.21948" lon="-0.23911">
        <ele>17.470383</ele>
        <time>2022-08-06T11:09:07.000Z</time>
      </trkpt>
      <trkpt lat="49.21944" lon="-0.23916">
        <ele>17.38252</ele>
        <time>2022-08-06T11:09:08.000Z</time>
      </trkpt>
      <trkpt lat="49.21939" lon="-0.23921">
        <ele>17.294657</ele>
        <time>2022-08-06T11:09:09.000Z</time>
      </trkpt>
      <trkpt lat="49.21934" lon="-0.23927">
        <ele>17.199916</ele>
        <time>2022-08-06T11:09:10.000Z</time>
      </trkpt>
      <trkpt lat="49.2193" lon="-0.23932">
        <ele>17.109567</ele>
        <time>2022-08-06T11:09:11.000Z</time>
      </trkpt>
      <trkpt lat="49.21925" lon="-0.23938">
        <ele>17.016048</ele>
        <time>2022-08-06T11:09:12.000Z</time>
      </trkpt>
      <trkpt lat="49.2192" lon="-0.23943">
        <ele>16.918645</ele>
        <time>2022-08-06T11:09:13.000Z</time>
      </trkpt>
      <trkpt lat="49.21916" lon="-0.23948">
        <ele>16.829554</ele>
        <time>2022-08-06T11:09:14.000Z</time>
      </trkpt>
      <trkpt lat="49.2191" lon="-0.23953">
        <ele>16.732151</ele>
        <time>2022-08-06T11:09:15.000Z</time>
      </trkpt>
      <trkpt lat="49.21906" lon="-0.23959">
        <ele>16.637409</ele>
        <time>2022-08-06T11:09:16.000Z</time>
      </trkpt>
      <trkpt lat="49.21901" lon="-0.23965">
        <ele>16.541417</ele>
        <time>2022-08-06T11:09:17.000Z</time>
      </trkpt>
      <trkpt lat="49.21896" lon="-0.2397">
        <ele>16.446676</ele>
        <time>2022-08-06T11:09:18.000Z</time>
      </trkpt>
      <trkpt lat="49.21891" lon="-0.23976">
        <ele>16.346283</ele>
        <time>2022-08-06T11:09:19.000Z</time>
      </trkpt>
      <trkpt lat="49.21886" lon="-0.23982">
        <ele>16.249012</ele>
        <time>2022-08-06T11:09:20.000Z</time>
      </trkpt>
      <trkpt lat="49.21881" lon="-0.23988">
        <ele>16.147375</ele>
        <time>2022-08-06T11:09:21.000Z</time>
      </trkpt>
      <trkpt lat="49.21876" lon="-0.23994">
        <ele>16.048798</ele>
        <time>2022-08-06T11:09:22.000Z</time>
      </trkpt>
      <trkpt lat="49.21871" lon="-0.24">
        <ele>15.939632</ele>
        <time>2022-08-06T11:09:23.000Z</time>
      </trkpt>
      <trkpt lat="49.21866" lon="-0.24006">
        <ele>15.841055</ele>
        <time>2022-08-06T11:09:24.000Z</time>
      </trkpt>
      <trkpt lat="49.21861" lon="-0.24013">
        <ele>15.732508</ele>
        <time>2022-08-06T11:09:25.000Z</time>
      </trkpt>
      <trkpt lat="49.21855" lon="-0.24019">
        <ele>15.622713</ele>
        <time>2022-08-06T11:09:26.000Z</time>
      </trkpt>
      <trkpt lat="49.2185" lon="-0.24026">
        <ele>15.516519</ele>
        <time>2022-08-06T11:09:27.000Z</time>
      </trkpt>
      <trkpt lat="49.21845" lon="-0.24033">
        <ele>15.407971</ele>
        <time>2022-08-06T11:09:28.000Z</time>
      </trkpt>
      <trkpt lat="49.2184" lon="-0.24039">
        <ele>15.305328</ele>
        <time>2022-08-06T11:09:29.000Z</time>
      </trkpt>
      <trkpt lat="49.21834" lon="-0.24046">
        <ele>15.1949</ele>
        <time>2022-08-06T11:09:30.000Z</time>
      </trkpt>
      <trkpt lat="49.21829" lon="-0.24053">
        <ele>15.08735</ele>
        <time>2022-08-06T11:09:31.000Z</time>
      </trkpt>
      <trkpt lat="49.21824" lon="-0.2406">
        <ele>14.98048</ele>
        <time>2022-08-06T11:09:32.000Z</time>
      </trkpt>
      <trkpt lat="49.21819" lon="-0.24066">
        <ele>14.881564</ele>
        <time>2022-08-06T11:09:33.000Z</time>
      </trkpt>
      <trkpt lat="49.21813" lon="-0.24073">
        <ele>14.791933</ele>
        <time>2022-08-06T11:09:34.000Z</time>
      </trkpt>
      <trkpt lat="49.21808" lon="-0.24079">
        <ele>14.703866</ele>
        <time>2022-08-06T11:09:35.000Z</time>
      </trkpt>
      <trkpt lat="49.21803" lon="-0.24086">
        <ele>14.611107</ele>
        <time>2022-08-06T11:09:36.000Z</time>
      </trkpt>
      <trkpt lat="49.21798" lon="-0.24093">
        <ele>14.523683</ele>
        <time>2022-08-06T11:09:37.000Z</time>
      </trkpt>
      <trkpt lat="49.21793" lon="-0.24101">
        <ele>14.426549</ele>
        <time>2022-08-06T11:09:38.000Z</time>
      </trkpt>
      <trkpt lat="49.21788" lon="-0.24108">
        <ele>14.333289</ele>
        <time>2022-08-06T11:09:39.000Z</time>
      </trkpt>
      <trkpt lat="49.21783" lon="-0.24116">
        <ele>14.240977</ele>
        <time>2022-08-06T11:09:40.000Z</time>
      </trkpt>
      <trkpt lat="49.21777" lon="-0.24124">
        <ele>14.143658</ele>
        <time>2022-08-06T11:09:41.000Z</time>
      </trkpt>
      <trkpt lat="49.21773" lon="-0.24131">
        <ele>14.053209</ele>
        <time>2022-08-06T11:09:42.000Z</time>
      </trkpt>
      <trkpt lat="49.21767" lon="-0.24139">
        <ele>13.959949</ele>
        <time>2022-08-06T11:09:43.000Z</time>
      </trkpt>
      <trkpt lat="49.21763" lon="-0.24146">
        <ele>13.8695</ele>
        <time>2022-08-06T11:09:44.000Z</time>
      </trkpt>
      <trkpt lat="49.21758" lon="-0.24154">
        <ele>13.777188</ele>
        <time>2022-08-06T11:09:45.000Z</time>
      </trkpt>
      <trkpt lat="49.21753" lon="-0.24162">
        <ele>13.688186</ele>
        <time>2022-08-06T11:09:46.000Z</time>
      </trkpt>
      <trkpt lat="49.21749" lon="-0.2417">
        <ele>13.601108</ele>
        <time>2022-08-06T11:09:47.000Z</time>
      </trkpt>
      <trkpt lat="49.21745" lon="-0.24177">
        <ele>13.517287</ele>
        <time>2022-08-06T11:09:48.000Z</time>
      </trkpt>
      <trkpt lat="49.21741" lon="-0.24185">
        <ele>13.433354</ele>
        <time>2022-08-06T11:09:49.000Z</time>
      </trkpt>
      <trkpt lat="49.21737" lon="-0.24193">
        <ele>13.349107</ele>
        <time>2022-08-06T11:09:50.000Z</time>
      </trkpt>
      <trkpt lat="49.21733" lon="-0.242">
        <ele>13.266528</ele>
        <time>2022-08-06T11:09:51.000Z</time>
      </trkpt>
      <trkpt lat="49.2173" lon="-0.24207">
        <ele>13.186791</ele>
        <time>2022-08-06T11:09:52.000Z</time>
      </trkpt>
      <trkpt lat="49.21726" lon="-0.24215">
        <ele>13.106381</ele>
        <time>2022-08-06T11:09:53.000Z</time>
      </trkpt>
      <trkpt lat="49.21723" lon="-0.24222">
        <ele>13.031363</ele>
        <time>2022-08-06T11:09:54.000Z</time>
      </trkpt>
      <trkpt lat="49.21719" lon="-0.24229">
        <ele>12.953938</ele>
        <time>2022-08-06T11:09:55.000Z</time>
      </trkpt>
      <trkpt lat="49.21716" lon="-0.24236">
        <ele>12.876625</ele>
        <time>2022-08-06T11:09:56.000Z</time>
      </trkpt>
      <trkpt lat="49.21712" lon="-0.24243">
        <ele>12.799313</ele>
        <time>2022-08-06T11:09:57.000Z</time>
      </trkpt>
      <trkpt lat="49.21709" lon="-0.2425">
        <ele>12.727179</ele>
        <time>2022-08-06T11:09:58.000Z</time>
      </trkpt>
      <trkpt lat="49.21706" lon="-0.24257">
        <ele>12.654283</ele>
        <time>2022-08-06T11:09:59.000Z</time>
      </trkpt>
      <trkpt lat="49.21703" lon="-0.24264">
        <ele>12.580683</ele>
        <time>2022-08-06T11:10:00.000Z</time>
      </trkpt>
      <trkpt lat="49.217" lon="-0.24272">
        <ele>12.587548</ele>
        <time>2022-08-06T11:10:01.000Z</time>
      </trkpt>
      <trkpt lat="49.21697" lon="-0.24279">
        <ele>12.626823</ele>
        <time>2022-08-06T11:10:02.000Z</time>
      </trkpt>
      <trkpt lat="49.21694" lon="-0.24286">
        <ele>12.66832</ele>
        <time>2022-08-06T11:10:03.000Z</time>
      </trkpt>
      <trkpt lat="49.21691" lon="-0.24293">
        <ele>12.707818</ele>
        <time>2022-08-06T11:10:04.000Z</time>
      </trkpt>
      <trkpt lat="49.21688" lon="-0.243">
        <ele>12.74853</ele>
        <time>2022-08-06T11:10:05.000Z</time>
      </trkpt>
      <trkpt lat="49.21685" lon="-0.24308">
        <ele>12.788836</ele>
        <time>2022-08-06T11:10:06.000Z</time>
      </trkpt>
      <trkpt lat="49.21682" lon="-0.24315">
        <ele>12.830366</ele>
        <time>2022-08-06T11:10:07.000Z</time>
      </trkpt>
      <trkpt lat="49.2168" lon="-0.24322">
        <ele>12.869641</ele>
        <time>2022-08-06T11:10:08.000Z</time>
      </trkpt>
      <trkpt lat="49.21677" lon="-0.2433">
        <ele>12.9101</ele>
        <time>2022-08-06T11:10:09.000Z</time>
      </trkpt>
      <trkpt lat="49.21674" lon="-0.24337">
        <ele>12.951221</ele>
        <time>2022-08-06T11:10:10.000Z</time>
      </trkpt>
      <trkpt lat="49.21672" lon="-0.24345">
        <ele>12.990496</ele>
        <time>2022-08-06T11:10:11.000Z</time>
      </trkpt>
      <trkpt lat="49.21669" lon="-0.24352">
        <ele>13.030116</ele>
        <time>2022-08-06T11:10:12.000Z</time>
      </trkpt>
      <trkpt lat="49.21667" lon="-0.24359">
        <ele>13.06897</ele>
        <time>2022-08-06T11:10:13.000Z</time>
      </trkpt>
      <trkpt lat="49.21664" lon="-0.24366">
        <ele>13.107161</ele>
        <time>2022-08-06T11:10:14.000Z</time>
      </trkpt>
      <trkpt lat="49.21662" lon="-0.24374">
        <ele>13.146337</ele>
        <time>2022-08-06T11:10:15.000Z</time>
      </trkpt>
      <trkpt lat="49.2166" lon="-0.24381">
        <ele>13.1841</ele>
        <time>2022-08-06T11:10:16.000Z</time>
      </trkpt>
      <trkpt lat="49.21658" lon="-0.24388">
        <ele>13.222842</ele>
        <time>2022-08-06T11:10:17.000Z</time>
      </trkpt>
      <trkpt lat="49.21655" lon="-0.24396">
        <ele>13.26115</ele>
        <time>2022-08-06T11:10:18.000Z</time>
      </trkpt>
      <trkpt lat="49.21653" lon="-0.24403">
        <ele>13.299342</ele>
        <time>2022-08-06T11:10:19.000Z</time>
      </trkpt>
      <trkpt lat="49.21651" lon="-0.2441">
        <ele>13.335902</ele>
        <time>2022-08-06T11:10:20.000Z</time>
      </trkpt>
      <trkpt lat="49.21649" lon="-0.24417">
        <ele>13.37379</ele>
        <time>2022-08-06T11:10:21.000Z</time>
      </trkpt>
      <trkpt lat="49.21647" lon="-0.24424">
        <ele>13.410351</ele>
        <time>2022-08-06T11:10:22.000Z</time>
      </trkpt>
      <trkpt lat="49.21645" lon="-0.24431">
        <ele>13.446757</ele>
        <time>2022-08-06T11:10:23.000Z</time>
      </trkpt>
      <trkpt lat="49.21644" lon="-0.24438">
        <ele>13.48075</ele>
        <time>2022-08-06T11:10:24.000Z</time>
      </trkpt>
      <trkpt lat="49.21643" lon="-0.24445">
        <ele>13.512936</ele>
        <time>2022-08-06T11:10:25.000Z</time>
      </trkpt>
      <trkpt lat="49.21641" lon="-0.24451">
        <ele>13.54624</ele>
        <time>2022-08-06T11:10:26.000Z</time>
      </trkpt>
      <trkpt lat="49.2164" lon="-0.24458">
        <ele>13.579339</ele>
        <time>2022-08-06T11:10:27.000Z</time>
      </trkpt>
      <trkpt lat="49.21638" lon="-0.24464">
        <ele>13.611542</ele>
        <time>2022-08-06T11:10:28.000Z</time>
      </trkpt>
      <trkpt lat="49.21636" lon="-0.2447">
        <ele>13.642373</ele>
        <time>2022-08-06T11:10:29.000Z</time>
      </trkpt>
      <trkpt lat="49.21633" lon="-0.24475">
        <ele>13.673139</ele>
        <time>2022-08-06T11:10:30.000Z</time>
      </trkpt>
      <trkpt lat="49.2163" lon="-0.24479">
        <ele>13.701935</ele>
        <time>2022-08-06T11:10:31.000Z</time>
      </trkpt>
      <trkpt lat="49.21628" lon="-0.24482">
        <ele>13.728013</ele>
        <time>2022-08-06T11:10:32.000Z</time>
      </trkpt>
      <trkpt lat="49.21624" lon="-0.24484">
        <ele>13.753227</ele>
        <time>2022-08-06T11:10:33.000Z</time>
      </trkpt>
      <trkpt lat="49.21621" lon="-0.24485">
        <ele>13.7795</ele>
        <time>2022-08-06T11:10:34.000Z</time>
      </trkpt>
      <trkpt lat="49.21618" lon="-0.24486">
        <ele>13.803081</ele>
        <time>2022-08-06T11:10:35.000Z</time>
      </trkpt>
      <trkpt lat="49.21614" lon="-0.24485">
        <ele>13.826662</ele>
        <time>2022-08-06T11:10:36.000Z</time>
      </trkpt>
      <trkpt lat="49.21612" lon="-0.24484">
        <ele>13.848705</ele>
        <time>2022-08-06T11:10:37.000Z</time>
      </trkpt>
      <trkpt lat="49.21608" lon="-0.24483">
        <ele>13.874285</ele>
        <time>2022-08-06T11:10:38.000Z</time>
      </trkpt>
      <trkpt lat="49.21605" lon="-0.24481">
        <ele>13.911478</ele>
        <time>2022-08-06T11:10:39.000Z</time>
      </trkpt>
      <trkpt lat="49.21602" lon="-0.24479">
        <ele>13.946139</ele>
        <time>2022-08-06T11:10:40.000Z</time>
      </trkpt>
      <trkpt lat="49.21598" lon="-0.24478">
        <ele>13.983517</ele>
        <time>2022-08-06T11:10:41.000Z</time>
      </trkpt>
      <trkpt lat="49.21595" lon="-0.24476">
        <ele>14.017763</ele>
        <time>2022-08-06T11:10:42.000Z</time>
      </trkpt>
      <trkpt lat="49.21592" lon="-0.24475">
        <ele>14.05201</ele>
        <time>2022-08-06T11:10:43.000Z</time>
      </trkpt>
      <trkpt lat="49.21589" lon="-0.24473">
        <ele>14.086671</ele>
        <time>2022-08-06T11:10:44.000Z</time>
      </trkpt>
      <trkpt lat="49.21585" lon="-0.24472">
        <ele>14.123863</ele>
        <time>2022-08-06T11:10:45.000Z</time>
      </trkpt>
      <trkpt lat="49.21582" lon="-0.2447">
        <ele>14.155187</ele>
        <time>2022-08-06T11:10:46.000Z</time>
      </trkpt>
      <trkpt lat="49.21579" lon="-0.24469">
        <ele>14.189433</ele>
        <time>2022-08-06T11:10:47.000Z</time>
      </trkpt>
      <trkpt lat="49.21576" lon="-0.24467">
        <ele>14.220355</ele>
        <time>2022-08-06T11:10:48.000Z</time>
      </trkpt>
      <trkpt lat="49.21573" lon="-0.24466">
        <ele>14.25793</ele>
        <time>2022-08-06T11:10:49.000Z</time>
      </trkpt>
      <trkpt lat="49.2157" lon="-0.24464">
        <ele>14.289707</ele>
        <time>2022-08-06T11:10:50.000Z</time>
      </trkpt>
      <trkpt lat="49.21566" lon="-0.24462">
        <ele>14.326899</ele>
        <time>2022-08-06T11:10:51.000Z</time>
      </trkpt>
      <trkpt lat="49.21563" lon="-0.24461">
        <ele>14.357821</ele>
        <time>2022-08-06T11:10:52.000Z</time>
      </trkpt>
      <trkpt lat="49.2156" lon="-0.2446">
        <ele>14.392067</ele>
        <time>2022-08-06T11:10:53.000Z</time>
      </trkpt>
      <trkpt lat="49.21557" lon="-0.24458">
        <ele>14.425946</ele>
        <time>2022-08-06T11:10:54.000Z</time>
      </trkpt>
      <trkpt lat="49.21554" lon="-0.24457">
        <ele>14.45727</ele>
        <time>2022-08-06T11:10:55.000Z</time>
      </trkpt>
      <trkpt lat="49.2155" lon="-0.24455">
        <ele>14.494288</ele>
        <time>2022-08-06T11:10:56.000Z</time>
      </trkpt>
      <trkpt lat="49.21547" lon="-0.24454">
        <ele>14.531666</ele>
        <time>2022-08-06T11:10:57.000Z</time>
      </trkpt>
      <trkpt lat="49.21543" lon="-0.24452">
        <ele>14.568858</ele>
        <time>2022-08-06T11:10:58.000Z</time>
      </trkpt>
      <trkpt lat="49.2154" lon="-0.24451">
        <ele>14.60741</ele>
        <time>2022-08-06T11:10:59.000Z</time>
      </trkpt>
      <trkpt lat="49.21536" lon="-0.24449">
        <ele>14.644264</ele>
        <time>2022-08-06T11:11:00.000Z</time>
      </trkpt>
      <trkpt lat="49.21533" lon="-0.24448">
        <ele>14.681457</ele>
        <time>2022-08-06T11:11:01.000Z</time>
      </trkpt>
      <trkpt lat="49.2153" lon="-0.24446">
        <ele>14.713234</ele>
        <time>2022-08-06T11:11:02.000Z</time>
      </trkpt>
      <trkpt lat="49.21526" lon="-0.24444">
        <ele>14.751463</ele>
        <time>2022-08-06T11:11:03.000Z</time>
      </trkpt>
      <trkpt lat="49.21524" lon="-0.24442">
        <ele>14.783485</ele>
        <time>2022-08-06T11:11:04.000Z</time>
      </trkpt>
      <trkpt lat="49.21521" lon="-0.2444">
        <ele>14.818218</ele>
        <time>2022-08-06T11:11:05.000Z</time>
      </trkpt>
      <trkpt lat="49.21518" lon="-0.24437">
        <ele>14.849526</ele>
        <time>2022-08-06T11:11:06.000Z</time>
      </trkpt>
      <trkpt lat="49.21515" lon="-0.24434">
        <ele>14.887924</ele>
        <time>2022-08-06T11:11:07.000Z</time>
      </trkpt>
      <trkpt lat="49.21511" lon="-0.24431">
        <ele>14.927733</ele>
        <time>2022-08-06T11:11:08.000Z</time>
      </trkpt>
      <trkpt lat="49.21508" lon="-0.24429">
        <ele>14.970745</ele>
        <time>2022-08-06T11:11:09.000Z</time>
      </trkpt>
      <trkpt lat="49.21503" lon="-0.24427">
        <ele>15.013882</ele>
        <time>2022-08-06T11:11:10.000Z</time>
      </trkpt>
      <trkpt lat="49.21499" lon="-0.24428">
        <ele>15.056882</ele>
        <time>2022-08-06T11:11:11.000Z</time>
      </trkpt>
      <trkpt lat="49.21496" lon="-0.2443">
        <ele>15.095111</ele>
        <time>2022-08-06T11:11:12.000Z</time>
      </trkpt>
      <trkpt lat="49.21493" lon="-0.24433">
        <ele>15.131692</ele>
        <time>2022-08-06T11:11:13.000Z</time>
      </trkpt>
      <trkpt lat="49.21491" lon="-0.24436">
        <ele>15.16321</ele>
        <time>2022-08-06T11:11:14.000Z</time>
      </trkpt>
      <trkpt lat="49.21489" lon="-0.24439">
        <ele>15.187578</ele>
        <time>2022-08-06T11:11:15.000Z</time>
      </trkpt>
      <trkpt lat="49.21487" lon="-0.2444">
        <ele>15.207135</ele>
        <time>2022-08-06T11:11:16.000Z</time>
      </trkpt>
      <trkpt lat="49.21485" lon="-0.24439">
        <ele>15.231601</ele>
        <time>2022-08-06T11:11:18.000Z</time>
      </trkpt>
      <trkpt lat="49.21477" lon="-0.24432">
        <ele>15.331587</ele>
        <time>2022-08-06T11:11:32.000Z</time>
      </trkpt>
      <trkpt lat="49.21473" lon="-0.24431">
        <ele>15.36488</ele>
        <time>2022-08-06T11:11:33.000Z</time>
      </trkpt>
      <trkpt lat="49.21471" lon="-0.2443">
        <ele>15.392869</ele>
        <time>2022-08-06T11:11:34.000Z</time>
      </trkpt>
      <trkpt lat="49.21468" lon="-0.24429">
        <ele>15.424193</ele>
        <time>2022-08-06T11:11:35.000Z</time>
      </trkpt>
      <trkpt lat="49.21465" lon="-0.24427">
        <ele>15.453058</ele>
        <time>2022-08-06T11:11:36.000Z</time>
      </trkpt>
      <trkpt lat="49.21462" lon="-0.24424">
        <ele>15.487115</ele>
        <time>2022-08-06T11:11:37.000Z</time>
      </trkpt>
      <trkpt lat="49.21459" lon="-0.24422">
        <ele>15.526638</ele>
        <time>2022-08-06T11:11:38.000Z</time>
      </trkpt>
      <trkpt lat="49.21455" lon="-0.24419">
        <ele>15.565613</ele>
        <time>2022-08-06T11:11:39.000Z</time>
      </trkpt>
      <trkpt lat="49.21452" lon="-0.24417">
        <ele>15.608626</ele>
        <time>2022-08-06T11:11:40.000Z</time>
      </trkpt>
      <trkpt lat="49.21448" lon="-0.24414">
        <ele>15.648435</ele>
        <time>2022-08-06T11:11:41.000Z</time>
      </trkpt>
      <trkpt lat="49.21445" lon="-0.24411">
        <ele>15.689483</ele>
        <time>2022-08-06T11:11:42.000Z</time>
      </trkpt>
      <trkpt lat="49.21441" lon="-0.24408">
        <ele>15.734278</ele>
        <time>2022-08-06T11:11:43.000Z</time>
      </trkpt>
      <trkpt lat="49.21437" lon="-0.24405">
        <ele>15.788851</ele>
        <time>2022-08-06T11:11:44.000Z</time>
      </trkpt>
      <trkpt lat="49.21433" lon="-0.24402">
        <ele>15.838181</ele>
        <time>2022-08-06T11:11:45.000Z</time>
      </trkpt>
      <trkpt lat="49.21429" lon="-0.24399">
        <ele>15.892754</ele>
        <time>2022-08-06T11:11:46.000Z</time>
      </trkpt>
      <trkpt lat="49.21425" lon="-0.24397">
        <ele>15.942412</ele>
        <time>2022-08-06T11:11:47.000Z</time>
      </trkpt>
      <trkpt lat="49.21421" lon="-0.24394">
        <ele>15.993134</ele>
        <time>2022-08-06T11:11:48.000Z</time>
      </trkpt>
      <trkpt lat="49.21417" lon="-0.24391">
        <ele>16.046315</ele>
        <time>2022-08-06T11:11:49.000Z</time>
      </trkpt>
      <trkpt lat="49.21413" lon="-0.24388">
        <ele>16.097037</ele>
        <time>2022-08-06T11:11:50.000Z</time>
      </trkpt>
      <trkpt lat="49.21409" lon="-0.24385">
        <ele>16.146695</ele>
        <time>2022-08-06T11:11:51.000Z</time>
      </trkpt>
      <trkpt lat="49.21405" lon="-0.24382">
        <ele>16.197748</ele>
        <time>2022-08-06T11:11:52.000Z</time>
      </trkpt>
      <trkpt lat="49.21402" lon="-0.2438">
        <ele>16.243226</ele>
        <time>2022-08-06T11:11:53.000Z</time>
      </trkpt>
      <trkpt lat="49.21398" lon="-0.24378">
        <ele>16.294642</ele>
        <time>2022-08-06T11:11:54.000Z</time>
      </trkpt>
      <trkpt lat="49.21394" lon="-0.24375">
        <ele>16.344428</ele>
        <time>2022-08-06T11:11:55.000Z</time>
      </trkpt>
      <trkpt lat="49.2139" lon="-0.24373">
        <ele>16.395097</ele>
        <time>2022-08-06T11:11:56.000Z</time>
      </trkpt>
      <trkpt lat="49.21386" lon="-0.24371">
        <ele>16.443061</ele>
        <time>2022-08-06T11:11:57.000Z</time>
      </trkpt>
      <trkpt lat="49.21382" lon="-0.2437">
        <ele>16.489269</ele>
        <time>2022-08-06T11:11:58.000Z</time>
      </trkpt>
      <trkpt lat="49.21378" lon="-0.24368">
        <ele>16.536437</ele>
        <time>2022-08-06T11:11:59.000Z</time>
      </trkpt>
      <trkpt lat="49.21374" lon="-0.24367">
        <ele>16.585323</ele>
        <time>2022-08-06T11:12:00.000Z</time>
      </trkpt>
      <trkpt lat="49.2137" lon="-0.24367">
        <ele>16.638667</ele>
        <time>2022-08-06T11:12:01.000Z</time>
      </trkpt>
      <trkpt lat="49.21365" lon="-0.24366">
        <ele>16.688414</ele>
        <time>2022-08-06T11:12:02.000Z</time>
      </trkpt>
      <trkpt lat="49.21361" lon="-0.24365">
        <ele>16.736911</ele>
        <time>2022-08-06T11:12:03.000Z</time>
      </trkpt>
      <trkpt lat="49.21357" lon="-0.24365">
        <ele>16.786366</ele>
        <time>2022-08-06T11:12:04.000Z</time>
      </trkpt>
      <trkpt lat="49.21353" lon="-0.24365">
        <ele>16.839375</ele>
        <time>2022-08-06T11:12:05.000Z</time>
      </trkpt>
      <trkpt lat="49.21349" lon="-0.24365">
        <ele>16.887707</ele>
        <time>2022-08-06T11:12:06.000Z</time>
      </trkpt>
      <trkpt lat="49.21344" lon="-0.24365">
        <ele>16.937162</ele>
        <time>2022-08-06T11:12:07.000Z</time>
      </trkpt>
      <trkpt lat="49.2134" lon="-0.24365">
        <ele>16.985439</ele>
        <time>2022-08-06T11:12:08.000Z</time>
      </trkpt>
      <trkpt lat="49.21336" lon="-0.24365">
        <ele>17.034918</ele>
        <time>2022-08-06T11:12:09.000Z</time>
      </trkpt>
      <trkpt lat="49.21332" lon="-0.24364">
        <ele>17.084522</ele>
        <time>2022-08-06T11:12:10.000Z</time>
      </trkpt>
      <trkpt lat="49.21327" lon="-0.24364">
        <ele>17.136474</ele>
        <time>2022-08-06T11:12:11.000Z</time>
      </trkpt>
      <trkpt lat="49.21323" lon="-0.24364">
        <ele>17.189461</ele>
        <time>2022-08-06T11:12:12.000Z</time>
      </trkpt>
      <trkpt lat="49.21319" lon="-0.24363">
        <ele>17.23894</ele>
        <time>2022-08-06T11:12:13.000Z</time>
      </trkpt>
      <trkpt lat="49.21315" lon="-0.24363">
        <ele>17.283691</ele>
        <time>2022-08-06T11:12:14.000Z</time>
      </trkpt>
      <trkpt lat="49.21311" lon="-0.24363">
        <ele>17.329614</ele>
        <time>2022-08-06T11:12:15.000Z</time>
      </trkpt>
      <trkpt lat="49.21308" lon="-0.24363">
        <ele>17.370826</ele>
        <time>2022-08-06T11:12:16.000Z</time>
      </trkpt>
      <trkpt lat="49.21304" lon="-0.24363">
        <ele>17.415597</ele>
        <time>2022-08-06T11:12:17.000Z</time>
      </trkpt>
      <trkpt lat="49.213" lon="-0.24363">
        <ele>17.461519</ele>
        <time>2022-08-06T11:12:18.000Z</time>
      </trkpt>
      <trkpt lat="49.21296" lon="-0.24363">
        <ele>17.502796</ele>
        <time>2022-08-06T11:12:19.000Z</time>
      </trkpt>
      <trkpt lat="49.21293" lon="-0.24364">
        <ele>17.547567</ele>
        <time>2022-08-06T11:12:20.000Z</time>
      </trkpt>
      <trkpt lat="49.21289" lon="-0.24364">
        <ele>17.593489</ele>
        <time>2022-08-06T11:12:21.000Z</time>
      </trkpt>
      <trkpt lat="49.21285" lon="-0.24363">
        <ele>17.638261</ele>
        <time>2022-08-06T11:12:22.000Z</time>
      </trkpt>
      <trkpt lat="49.21281" lon="-0.24363">
        <ele>17.67973</ele>
        <time>2022-08-06T11:12:23.000Z</time>
      </trkpt>
      <trkpt lat="49.21278" lon="-0.24363">
        <ele>17.720971</ele>
        <time>2022-08-06T11:12:24.000Z</time>
      </trkpt>
      <trkpt lat="49.21274" lon="-0.24362">
        <ele>17.763389</ele>
        <time>2022-08-06T11:12:25.000Z</time>
      </trkpt>
      <trkpt lat="49.2127" lon="-0.24362">
        <ele>17.811672</ele>
        <time>2022-08-06T11:12:26.000Z</time>
      </trkpt>
      <trkpt lat="49.21266" lon="-0.24362">
        <ele>17.869077</ele>
        <time>2022-08-06T11:12:27.000Z</time>
      </trkpt>
      <trkpt lat="49.21263" lon="-0.24363">
        <ele>17.926792</ele>
        <time>2022-08-06T11:12:28.000Z</time>
      </trkpt>
      <trkpt lat="49.21259" lon="-0.24362">
        <ele>17.989427</ele>
        <time>2022-08-06T11:12:29.000Z</time>
      </trkpt>
      <trkpt lat="49.21255" lon="-0.24362">
        <ele>18.046992</ele>
        <time>2022-08-06T11:12:30.000Z</time>
      </trkpt>
      <trkpt lat="49.21252" lon="-0.24362">
        <ele>18.111267</ele>
        <time>2022-08-06T11:12:31.000Z</time>
      </trkpt>
      <trkpt lat="49.21249" lon="-0.24362">
        <ele>18.158955</ele>
        <time>2022-08-06T11:12:32.000Z</time>
      </trkpt>
      <trkpt lat="49.21245" lon="-0.24362">
        <ele>18.21667</ele>
        <time>2022-08-06T11:12:33.000Z</time>
      </trkpt>
      <trkpt lat="49.21243" lon="-0.24363">
        <ele>18.257906</ele>
        <time>2022-08-06T11:12:34.000Z</time>
      </trkpt>
      <trkpt lat="49.2124" lon="-0.24362">
        <ele>18.300997</ele>
        <time>2022-08-06T11:12:35.000Z</time>
      </trkpt>
      <trkpt lat="49.21237" lon="-0.24362">
        <ele>18.344088</ele>
        <time>2022-08-06T11:12:36.000Z</time>
      </trkpt>
      <trkpt lat="49.21236" lon="-0.24361">
        <ele>18.375405</ele>
        <time>2022-08-06T11:12:37.000Z</time>
      </trkpt>
      <trkpt lat="49.21233" lon="-0.24362">
        <ele>18.411979</ele>
        <time>2022-08-06T11:12:38.000Z</time>
      </trkpt>
      <trkpt lat="49.21231" lon="-0.24362">
        <ele>18.443681</ele>
        <time>2022-08-06T11:12:39.000Z</time>
      </trkpt>
      <trkpt lat="49.21229" lon="-0.24364">
        <ele>18.494018</ele>
        <time>2022-08-06T11:12:41.000Z</time>
      </trkpt>
      <trkpt lat="49.21225" lon="-0.24367">
        <ele>18.559462</ele>
        <time>2022-08-06T11:12:43.000Z</time>
      </trkpt>
      <trkpt lat="49.21223" lon="-0.24368">
        <ele>18.596086</ele>
        <time>2022-08-06T11:12:44.000Z</time>
      </trkpt>
      <trkpt lat="49.21221" lon="-0.2437">
        <ele>18.638161</ele>
        <time>2022-08-06T11:12:45.000Z</time>
      </trkpt>
      <trkpt lat="49.21219" lon="-0.24372">
        <ele>18.680796</ele>
        <time>2022-08-06T11:12:46.000Z</time>
      </trkpt>
      <trkpt lat="49.21215" lon="-0.24373">
        <ele>18.734502</ele>
        <time>2022-08-06T11:12:47.000Z</time>
      </trkpt>
      <trkpt lat="49.21212" lon="-0.24374">
        <ele>18.787167</ele>
        <time>2022-08-06T11:12:48.000Z</time>
      </trkpt>
      <trkpt lat="49.21209" lon="-0.24373">
        <ele>18.846405</ele>
        <time>2022-08-06T11:12:49.000Z</time>
      </trkpt>
      <trkpt lat="49.21205" lon="-0.24373">
        <ele>18.904319</ele>
        <time>2022-08-06T11:12:50.000Z</time>
      </trkpt>
      <trkpt lat="49.21201" lon="-0.24372">
        <ele>18.97259</ele>
        <time>2022-08-06T11:12:51.000Z</time>
      </trkpt>
      <trkpt lat="49.21197" lon="-0.24371">
        <ele>19.037616</ele>
        <time>2022-08-06T11:12:52.000Z</time>
      </trkpt>
      <trkpt lat="49.21193" lon="-0.2437">
        <ele>19.10102</ele>
        <time>2022-08-06T11:12:53.000Z</time>
      </trkpt>
      <trkpt lat="49.21189" lon="-0.24369">
        <ele>19.170759</ele>
        <time>2022-08-06T11:12:54.000Z</time>
      </trkpt>
      <trkpt lat="49.21186" lon="-0.24369">
        <ele>19.228323</ele>
        <time>2022-08-06T11:12:55.000Z</time>
      </trkpt>
      <trkpt lat="49.21181" lon="-0.24368">
        <ele>19.297522</ele>
        <time>2022-08-06T11:12:56.000Z</time>
      </trkpt>
      <trkpt lat="49.21178" lon="-0.24368">
        <ele>19.360019</ele>
        <time>2022-08-06T11:12:57.000Z</time>
      </trkpt>
      <trkpt lat="49.21173" lon="-0.24368">
        <ele>19.429218</ele>
        <time>2022-08-06T11:12:58.000Z</time>
      </trkpt>
      <trkpt lat="49.2117" lon="-0.24368">
        <ele>19.491705</ele>
        <time>2022-08-06T11:12:59.000Z</time>
      </trkpt>
      <trkpt lat="49.21166" lon="-0.24367">
        <ele>19.554423</ele>
        <time>2022-08-06T11:13:00.000Z</time>
      </trkpt>
      <trkpt lat="49.21162" lon="-0.24366">
        <ele>19.619449</ele>
        <time>2022-08-06T11:13:01.000Z</time>
      </trkpt>
      <trkpt lat="49.21158" lon="-0.24365">
        <ele>19.683044</ele>
        <time>2022-08-06T11:13:02.000Z</time>
      </trkpt>
      <trkpt lat="49.21155" lon="-0.24364">
        <ele>19.742531</ele>
        <time>2022-08-06T11:13:03.000Z</time>
      </trkpt>
      <trkpt lat="49.21151" lon="-0.24363">
        <ele>19.807743</ele>
        <time>2022-08-06T11:13:04.000Z</time>
      </trkpt>
      <trkpt lat="49.21147" lon="-0.24362">
        <ele>19.871546</ele>
        <time>2022-08-06T11:13:05.000Z</time>
      </trkpt>
      <trkpt lat="49.21143" lon="-0.24361">
        <ele>19.930094</ele>
        <time>2022-08-06T11:13:06.000Z</time>
      </trkpt>
      <trkpt lat="49.2114" lon="-0.24361">
        <ele>19.989332</ele>
        <time>2022-08-06T11:13:07.000Z</time>
      </trkpt>
      <trkpt lat="49.21137" lon="-0.24362">
        <ele>20.036868</ele>
        <time>2022-08-06T11:13:08.000Z</time>
      </trkpt>
      <trkpt lat="49.21134" lon="-0.24362">
        <ele>20.084749</ele>
        <time>2022-08-06T11:13:09.000Z</time>
      </trkpt>
      <trkpt lat="49.21133" lon="-0.2436">
        <ele>20.12078</ele>
        <time>2022-08-06T11:13:11.000Z</time>
      </trkpt>
      <trkpt lat="49.21134" lon="-0.24362">
        <ele>20.151089</ele>
        <time>2022-08-06T11:14:05.000Z</time>
      </trkpt>
      <trkpt lat="49.21132" lon="-0.24363">
        <ele>20.1922</ele>
        <time>2022-08-06T11:14:07.000Z</time>
      </trkpt>
      <trkpt lat="49.2113" lon="-0.24364">
        <ele>20.221987</ele>
        <time>2022-08-06T11:14:09.000Z</time>
      </trkpt>
      <trkpt lat="49.21129" lon="-0.24368">
        <ele>20.259413</ele>
        <time>2022-08-06T11:14:11.000Z</time>
      </trkpt>
      <trkpt lat="49.21128" lon="-0.24372">
        <ele>20.307407</ele>
        <time>2022-08-06T11:14:13.000Z</time>
      </trkpt>
      <trkpt lat="49.21126" lon="-0.24375">
        <ele>20.351554</ele>
        <time>2022-08-06T11:14:15.000Z</time>
      </trkpt>
      <trkpt lat="49.21125" lon="-0.24378">
        <ele>20.387585</ele>
        <time>2022-08-06T11:14:17.000Z</time>
      </trkpt>
      <trkpt lat="49.21121" lon="-0.24389">
        <ele>20.526028</ele>
        <time>2022-08-06T11:14:48.000Z</time>
      </trkpt>
      <trkpt lat="49.21119" lon="-0.24395">
        <ele>20.598</ele>
        <time>2022-08-06T11:14:49.000Z</time>
      </trkpt>
      <trkpt lat="49.21116" lon="-0.24401">
        <ele>20.679855</ele>
        <time>2022-08-06T11:14:50.000Z</time>
      </trkpt>
      <trkpt lat="49.21114" lon="-0.24407">
        <ele>20.759906</ele>
        <time>2022-08-06T11:14:51.000Z</time>
      </trkpt>
      <trkpt lat="49.21111" lon="-0.24414">
        <ele>20.847779</ele>
        <time>2022-08-06T11:14:52.000Z</time>
      </trkpt>
      <trkpt lat="49.21108" lon="-0.2442">
        <ele>20.93999</ele>
        <time>2022-08-06T11:14:53.000Z</time>
      </trkpt>
      <trkpt lat="49.21105" lon="-0.24425">
        <ele>21.023002</ele>
        <time>2022-08-06T11:14:54.000Z</time>
      </trkpt>
      <trkpt lat="49.21101" lon="-0.24431">
        <ele>21.117388</ele>
        <time>2022-08-06T11:14:55.000Z</time>
      </trkpt>
      <trkpt lat="49.21098" lon="-0.24435">
        <ele>21.194985</ele>
        <time>2022-08-06T11:14:56.000Z</time>
      </trkpt>
      <trkpt lat="49.21095" lon="-0.2444">
        <ele>21.275803</ele>
        <time>2022-08-06T11:14:57.000Z</time>
      </trkpt>
      <trkpt lat="49.21091" lon="-0.24444">
        <ele>21.359846</ele>
        <time>2022-08-06T11:14:58.000Z</time>
      </trkpt>
      <trkpt lat="49.21087" lon="-0.24448">
        <ele>21.443889</ele>
        <time>2022-08-06T11:14:59.000Z</time>
      </trkpt>
      <trkpt lat="49.21084" lon="-0.24452">
        <ele>21.531478</ele>
        <time>2022-08-06T11:15:00.000Z</time>
      </trkpt>
      <trkpt lat="49.2108" lon="-0.24457">
        <ele>21.619031</ele>
        <time>2022-08-06T11:15:01.000Z</time>
      </trkpt>
      <trkpt lat="49.21076" lon="-0.24461">
        <ele>21.70593</ele>
        <time>2022-08-06T11:15:02.000Z</time>
      </trkpt>
      <trkpt lat="49.21072" lon="-0.24465">
        <ele>21.795834</ele>
        <time>2022-08-06T11:15:03.000Z</time>
      </trkpt>
      <trkpt lat="49.21068" lon="-0.2447">
        <ele>21.887914</ele>
        <time>2022-08-06T11:15:04.000Z</time>
      </trkpt>
      <trkpt lat="49.21064" lon="-0.24474">
        <ele>21.976944</ele>
        <time>2022-08-06T11:15:05.000Z</time>
      </trkpt>
      <trkpt lat="49.2106" lon="-0.24479">
        <ele>22.068141</ele>
        <time>2022-08-06T11:15:06.000Z</time>
      </trkpt>
      <trkpt lat="49.21056" lon="-0.24484">
        <ele>22.159458</ele>
        <time>2022-08-06T11:15:07.000Z</time>
      </trkpt>
      <trkpt lat="49.21052" lon="-0.24489">
        <ele>22.249241</ele>
        <time>2022-08-06T11:15:08.000Z</time>
      </trkpt>
      <trkpt lat="49.21048" lon="-0.24494">
        <ele>22.339696</ele>
        <time>2022-08-06T11:15:09.000Z</time>
      </trkpt>
      <trkpt lat="49.21045" lon="-0.24498">
        <ele>22.428726</ele>
        <time>2022-08-06T11:15:10.000Z</time>
      </trkpt>
      <trkpt lat="49.2104" lon="-0.24503">
        <ele>22.520807</ele>
        <time>2022-08-06T11:15:11.000Z</time>
      </trkpt>
      <trkpt lat="49.21036" lon="-0.24507">
        <ele>22.611379</ele>
        <time>2022-08-06T11:15:12.000Z</time>
      </trkpt>
      <trkpt lat="49.21032" lon="-0.24512">
        <ele>22.701834</ele>
        <time>2022-08-06T11:15:13.000Z</time>
      </trkpt>
      <trkpt lat="49.21029" lon="-0.24516">
        <ele>22.791617</ele>
        <time>2022-08-06T11:15:14.000Z</time>
      </trkpt>
      <trkpt lat="49.21025" lon="-0.24522">
        <ele>22.885871</ele>
        <time>2022-08-06T11:15:15.000Z</time>
      </trkpt>
      <trkpt lat="49.21021" lon="-0.24527">
        <ele>22.977188</ele>
        <time>2022-08-06T11:15:16.000Z</time>
      </trkpt>
      <trkpt lat="49.21018" lon="-0.24531">
        <ele>23.058835</ele>
        <time>2022-08-06T11:15:17.000Z</time>
      </trkpt>
      <trkpt lat="49.21014" lon="-0.24536">
        <ele>23.150153</ele>
        <time>2022-08-06T11:15:18.000Z</time>
      </trkpt>
      <trkpt lat="49.2101" lon="-0.24541">
        <ele>23.236379</ele>
        <time>2022-08-06T11:15:19.000Z</time>
      </trkpt>
      <trkpt lat="49.21007" lon="-0.24546">
        <ele>23.318026</ele>
        <time>2022-08-06T11:15:20.000Z</time>
      </trkpt>
      <trkpt lat="49.21004" lon="-0.24551">
        <ele>23.398844</ele>
        <time>2022-08-06T11:15:21.000Z</time>
      </trkpt>
      <trkpt lat="49.21" lon="-0.24555">
        <ele>23.483692</ele>
        <time>2022-08-06T11:15:22.000Z</time>
      </trkpt>
      <trkpt lat="49.20998" lon="-0.2456">
        <ele>23.552222</ele>
        <time>2022-08-06T11:15:23.000Z</time>
      </trkpt>
      <trkpt lat="49.20995" lon="-0.24564">
        <ele>23.625799</ele>
        <time>2022-08-06T11:15:24.000Z</time>
      </trkpt>
      <trkpt lat="49.20993" lon="-0.24568">
        <ele>23.692887</ele>
        <time>2022-08-06T11:15:25.000Z</time>
      </trkpt>
      <trkpt lat="49.2099" lon="-0.24573">
        <ele>23.765971</ele>
        <time>2022-08-06T11:15:26.000Z</time>
      </trkpt>
      <trkpt lat="49.20988" lon="-0.24578">
        <ele>23.837945</ele>
        <time>2022-08-06T11:15:27.000Z</time>
      </trkpt>
      <trkpt lat="49.20986" lon="-0.24584">
        <ele>23.912884</ele>
        <time>2022-08-06T11:15:28.000Z</time>
      </trkpt>
      <trkpt lat="49.20984" lon="-0.2459">
        <ele>23.989068</ele>
        <time>2022-08-06T11:15:29.000Z</time>
      </trkpt>
      <trkpt lat="49.20982" lon="-0.24595">
        <ele>24.068653</ele>
        <time>2022-08-06T11:15:30.000Z</time>
      </trkpt>
      <trkpt lat="49.2098" lon="-0.24601">
        <ele>24.143693</ele>
        <time>2022-08-06T11:15:31.000Z</time>
      </trkpt>
      <trkpt lat="49.20978" lon="-0.24607">
        <ele>24.219501</ele>
        <time>2022-08-06T11:15:32.000Z</time>
      </trkpt>
      <trkpt lat="49.20977" lon="-0.24613">
        <ele>24.292435</ele>
        <time>2022-08-06T11:15:33.000Z</time>
      </trkpt>
      <trkpt lat="49.20975" lon="-0.24619">
        <ele>24.367475</ele>
        <time>2022-08-06T11:15:34.000Z</time>
      </trkpt>
      <trkpt lat="49.20973" lon="-0.24626">
        <ele>24.444548</ele>
        <time>2022-08-06T11:15:35.000Z</time>
      </trkpt>
      <trkpt lat="49.20971" lon="-0.24632">
        <ele>24.52162</ele>
        <time>2022-08-06T11:15:36.000Z</time>
      </trkpt>
      <trkpt lat="49.20969" lon="-0.24638">
        <ele>24.601761</ele>
        <time>2022-08-06T11:15:37.000Z</time>
      </trkpt>
      <trkpt lat="49.20967" lon="-0.24645">
        <ele>24.680989</ele>
        <time>2022-08-06T11:15:38.000Z</time>
      </trkpt>
      <trkpt lat="49.20965" lon="-0.24652">
        <ele>24.763891</ele>
        <time>2022-08-06T11:15:39.000Z</time>
      </trkpt>
      <trkpt lat="49.20964" lon="-0.24658">
        <ele>24.842078</ele>
        <time>2022-08-06T11:15:40.000Z</time>
      </trkpt>
      <trkpt lat="49.20962" lon="-0.24665">
        <ele>24.923958</ele>
        <time>2022-08-06T11:15:41.000Z</time>
      </trkpt>
      <trkpt lat="49.2096" lon="-0.24672">
        <ele>25.008229</ele>
        <time>2022-08-06T11:15:42.000Z</time>
      </trkpt>
      <trkpt lat="49.20959" lon="-0.24679">
        <ele>25.091692</ele>
        <time>2022-08-06T11:15:43.000Z</time>
      </trkpt>
      <trkpt lat="49.20957" lon="-0.24686">
        <ele>25.175154</ele>
        <time>2022-08-06T11:15:44.000Z</time>
      </trkpt>
      <trkpt lat="49.20955" lon="-0.24693">
        <ele>25.261504</ele>
        <time>2022-08-06T11:15:45.000Z</time>
      </trkpt>
      <trkpt lat="49.20954" lon="-0.247">
        <ele>25.347095</ele>
        <time>2022-08-06T11:15:46.000Z</time>
      </trkpt>
      <trkpt lat="49.20952" lon="-0.24707">
        <ele>25.431164</ele>
        <time>2022-08-06T11:15:47.000Z</time>
      </trkpt>
      <trkpt lat="49.20951" lon="-0.24715">
        <ele>25.519958</ele>
        <time>2022-08-06T11:15:48.000Z</time>
      </trkpt>
      <trkpt lat="49.20949" lon="-0.24722">
        <ele>25.610489</ele>
        <time>2022-08-06T11:15:49.000Z</time>
      </trkpt>
      <trkpt lat="49.20947" lon="-0.2473">
        <ele>25.700354</ele>
        <time>2022-08-06T11:15:50.000Z</time>
      </trkpt>
      <trkpt lat="49.20946" lon="-0.24738">
        <ele>25.79129</ele>
        <time>2022-08-06T11:15:51.000Z</time>
      </trkpt>
      <trkpt lat="49.20944" lon="-0.24745">
        <ele>25.883924</ele>
        <time>2022-08-06T11:15:52.000Z</time>
      </trkpt>
      <trkpt lat="49.20941" lon="-0.24753">
        <ele>25.978189</ele>
        <time>2022-08-06T11:15:53.000Z</time>
      </trkpt>
      <trkpt lat="49.2094" lon="-0.2476">
        <ele>26.065091</ele>
        <time>2022-08-06T11:15:54.000Z</time>
      </trkpt>
      <trkpt lat="49.20938" lon="-0.24768">
        <ele>26.160646</ele>
        <time>2022-08-06T11:15:55.000Z</time>
      </trkpt>
      <trkpt lat="49.20936" lon="-0.24776">
        <ele>26.25328</ele>
        <time>2022-08-06T11:15:56.000Z</time>
      </trkpt>
      <trkpt lat="49.20934" lon="-0.24783">
        <ele>26.341717</ele>
        <time>2022-08-06T11:15:57.000Z</time>
      </trkpt>
      <trkpt lat="49.20932" lon="-0.2479">
        <ele>26.427308</ele>
        <time>2022-08-06T11:15:58.000Z</time>
      </trkpt>
      <trkpt lat="49.2093" lon="-0.24797">
        <ele>26.520881</ele>
        <time>2022-08-06T11:15:59.000Z</time>
      </trkpt>
      <trkpt lat="49.20928" lon="-0.24805">
        <ele>26.611413</ele>
        <time>2022-08-06T11:16:00.000Z</time>
      </trkpt>
      <trkpt lat="49.20925" lon="-0.24812">
        <ele>26.703641</ele>
        <time>2022-08-06T11:16:01.000Z</time>
      </trkpt>
      <trkpt lat="49.20923" lon="-0.2482">
        <ele>26.794118</ele>
        <time>2022-08-06T11:16:02.000Z</time>
      </trkpt>
      <trkpt lat="49.20921" lon="-0.24827">
        <ele>26.88465</ele>
        <time>2022-08-06T11:16:03.000Z</time>
      </trkpt>
      <trkpt lat="49.20919" lon="-0.24834">
        <ele>26.978223</ele>
        <time>2022-08-06T11:16:04.000Z</time>
      </trkpt>
      <trkpt lat="49.20917" lon="-0.24842">
        <ele>27.067707</ele>
        <time>2022-08-06T11:16:05.000Z</time>
      </trkpt>
      <trkpt lat="49.20915" lon="-0.24849">
        <ele>27.156146</ele>
        <time>2022-08-06T11:16:06.000Z</time>
      </trkpt>
      <trkpt lat="49.20913" lon="-0.24856">
        <ele>27.207106</ele>
        <time>2022-08-06T11:16:07.000Z</time>
      </trkpt>
      <trkpt lat="49.2091" lon="-0.24864">
        <ele>27.254068</ele>
        <time>2022-08-06T11:16:08.000Z</time>
      </trkpt>
      <trkpt lat="49.20908" lon="-0.24871">
        <ele>27.305278</ele>
        <time>2022-08-06T11:16:09.000Z</time>
      </trkpt>
      <trkpt lat="49.20906" lon="-0.24879">
        <ele>27.352775</ele>
        <time>2022-08-06T11:16:10.000Z</time>
      </trkpt>
      <trkpt lat="49.20904" lon="-0.24886">
        <ele>27.400301</ele>
        <time>2022-08-06T11:16:11.000Z</time>
      </trkpt>
      <trkpt lat="49.20901" lon="-0.24893">
        <ele>27.449423</ele>
        <time>2022-08-06T11:16:12.000Z</time>
      </trkpt>
      <trkpt lat="49.20899" lon="-0.24901">
        <ele>27.496385</ele>
        <time>2022-08-06T11:16:13.000Z</time>
      </trkpt>
      <trkpt lat="49.20897" lon="-0.24908">
        <ele>27.544268</ele>
        <time>2022-08-06T11:16:14.000Z</time>
      </trkpt>
      <trkpt lat="49.20895" lon="-0.24915">
        <ele>27.590146</ele>
        <time>2022-08-06T11:16:15.000Z</time>
      </trkpt>
      <trkpt lat="49.20893" lon="-0.24922">
        <ele>27.637108</ele>
        <time>2022-08-06T11:16:16.000Z</time>
      </trkpt>
      <trkpt lat="49.2089" lon="-0.24929">
        <ele>27.684682</ele>
        <time>2022-08-06T11:16:17.000Z</time>
      </trkpt>
      <trkpt lat="49.20888" lon="-0.24937">
        <ele>27.733254</ele>
        <time>2022-08-06T11:16:18.000Z</time>
      </trkpt>
      <trkpt lat="49.20886" lon="-0.24944">
        <ele>27.778585</ele>
        <time>2022-08-06T11:16:19.000Z</time>
      </trkpt>
      <trkpt lat="49.20884" lon="-0.24951">
        <ele>27.827001</ele>
        <time>2022-08-06T11:16:20.000Z</time>
      </trkpt>
      <trkpt lat="49.20881" lon="-0.24958">
        <ele>27.873429</ele>
        <time>2022-08-06T11:16:21.000Z</time>
      </trkpt>
      <trkpt lat="49.20879" lon="-0.24966">
        <ele>27.92078</ele>
        <time>2022-08-06T11:16:22.000Z</time>
      </trkpt>
      <trkpt lat="49.20877" lon="-0.24973">
        <ele>27.967742</ele>
        <time>2022-08-06T11:16:23.000Z</time>
      </trkpt>
      <trkpt lat="49.20875" lon="-0.2498">
        <ele>28.014169</ele>
        <time>2022-08-06T11:16:24.000Z</time>
      </trkpt>
      <trkpt lat="49.20873" lon="-0.24987">
        <ele>28.061483</ele>
        <time>2022-08-06T11:16:25.000Z</time>
      </trkpt>
      <trkpt lat="49.2087" lon="-0.24994">
        <ele>28.109136</ele>
        <time>2022-08-06T11:16:26.000Z</time>
      </trkpt>
      <trkpt lat="49.20868" lon="-0.25002">
        <ele>28.156112</ele>
        <time>2022-08-06T11:16:27.000Z</time>
      </trkpt>
      <trkpt lat="49.20866" lon="-0.25009">
        <ele>28.203996</ele>
        <time>2022-08-06T11:16:28.000Z</time>
      </trkpt>
      <trkpt lat="49.20864" lon="-0.25017">
        <ele>28.251522</ele>
        <time>2022-08-06T11:16:29.000Z</time>
      </trkpt>
      <trkpt lat="49.20862" lon="-0.25024">
        <ele>28.301175</ele>
        <time>2022-08-06T11:16:30.000Z</time>
      </trkpt>
      <trkpt lat="49.20859" lon="-0.25032">
        <ele>28.351339</ele>
        <time>2022-08-06T11:16:31.000Z</time>
      </trkpt>
      <trkpt lat="49.20857" lon="-0.25039">
        <ele>28.399912</ele>
        <time>2022-08-06T11:16:32.000Z</time>
      </trkpt>
      <trkpt lat="49.20855" lon="-0.25047">
        <ele>28.450473</ele>
        <time>2022-08-06T11:16:33.000Z</time>
      </trkpt>
      <trkpt lat="49.20852" lon="-0.25055">
        <ele>28.501274</ele>
        <time>2022-08-06T11:16:34.000Z</time>
      </trkpt>
      <trkpt lat="49.2085" lon="-0.25063">
        <ele>28.553455</ele>
        <time>2022-08-06T11:16:35.000Z</time>
      </trkpt>
      <trkpt lat="49.20847" lon="-0.25071">
        <ele>28.60585</ele>
        <time>2022-08-06T11:16:36.000Z</time>
      </trkpt>
      <trkpt lat="49.20845" lon="-0.25079">
        <ele>28.658574</ele>
        <time>2022-08-06T11:16:37.000Z</time>
      </trkpt>
      <trkpt lat="49.20843" lon="-0.25087">
        <ele>28.710947</ele>
        <time>2022-08-06T11:16:38.000Z</time>
      </trkpt>
      <trkpt lat="49.2084" lon="-0.25095">
        <ele>28.765519</ele>
        <time>2022-08-06T11:16:39.000Z</time>
      </trkpt>
      <trkpt lat="49.20838" lon="-0.25103">
        <ele>28.80534</ele>
        <time>2022-08-06T11:16:40.000Z</time>
      </trkpt>
      <trkpt lat="49.20836" lon="-0.25112">
        <ele>28.836105</ele>
        <time>2022-08-06T11:16:41.000Z</time>
      </trkpt>
      <trkpt lat="49.20833" lon="-0.2512">
        <ele>28.867616</ele>
        <time>2022-08-06T11:16:42.000Z</time>
      </trkpt>
      <trkpt lat="49.2083" lon="-0.25128">
        <ele>28.899661</ele>
        <time>2022-08-06T11:16:43.000Z</time>
      </trkpt>
      <trkpt lat="49.20828" lon="-0.25136">
        <ele>28.931204</ele>
        <time>2022-08-06T11:16:44.000Z</time>
      </trkpt>
      <trkpt lat="49.20825" lon="-0.25144">
        <ele>28.961128</ele>
        <time>2022-08-06T11:16:45.000Z</time>
      </trkpt>
      <trkpt lat="49.20823" lon="-0.25152">
        <ele>28.991578</ele>
        <time>2022-08-06T11:16:46.000Z</time>
      </trkpt>
      <trkpt lat="49.20821" lon="-0.25161">
        <ele>29.022775</ele>
        <time>2022-08-06T11:16:47.000Z</time>
      </trkpt>
      <trkpt lat="49.20818" lon="-0.25169">
        <ele>29.054199</ele>
        <time>2022-08-06T11:16:48.000Z</time>
      </trkpt>
      <trkpt lat="49.20816" lon="-0.25177">
        <ele>29.08508</ele>
        <time>2022-08-06T11:16:49.000Z</time>
      </trkpt>
      <trkpt lat="49.20813" lon="-0.25185">
        <ele>29.115846</ele>
        <time>2022-08-06T11:16:50.000Z</time>
      </trkpt>
      <trkpt lat="49.20812" lon="-0.25194">
        <ele>29.146167</ele>
        <time>2022-08-06T11:16:51.000Z</time>
      </trkpt>
      <trkpt lat="49.20809" lon="-0.25202">
        <ele>29.176729</ele>
        <time>2022-08-06T11:16:52.000Z</time>
      </trkpt>
      <trkpt lat="49.20806" lon="-0.2521">
        <ele>29.208573</ele>
        <time>2022-08-06T11:16:53.000Z</time>
      </trkpt>
      <trkpt lat="49.20804" lon="-0.25218">
        <ele>29.239773</ele>
        <time>2022-08-06T11:16:54.000Z</time>
      </trkpt>
      <trkpt lat="49.20802" lon="-0.25226">
        <ele>29.270223</ele>
        <time>2022-08-06T11:16:55.000Z</time>
      </trkpt>
      <trkpt lat="49.208" lon="-0.25235">
        <ele>29.301423</ele>
        <time>2022-08-06T11:16:56.000Z</time>
      </trkpt>
      <trkpt lat="49.20797" lon="-0.25243">
        <ele>29.332538</ele>
        <time>2022-08-06T11:16:57.000Z</time>
      </trkpt>
      <trkpt lat="49.20795" lon="-0.25251">
        <ele>29.363112</ele>
        <time>2022-08-06T11:16:58.000Z</time>
      </trkpt>
      <trkpt lat="49.20792" lon="-0.25259">
        <ele>29.393878</ele>
        <time>2022-08-06T11:16:59.000Z</time>
      </trkpt>
      <trkpt lat="49.2079" lon="-0.25267">
        <ele>29.423803</ele>
        <time>2022-08-06T11:17:00.000Z</time>
      </trkpt>
      <trkpt lat="49.20788" lon="-0.25275">
        <ele>29.453937</ele>
        <time>2022-08-06T11:17:01.000Z</time>
      </trkpt>
      <trkpt lat="49.20786" lon="-0.25283">
        <ele>29.483227</ele>
        <time>2022-08-06T11:17:02.000Z</time>
      </trkpt>
      <trkpt lat="49.20783" lon="-0.25291">
        <ele>29.51477</ele>
        <time>2022-08-06T11:17:03.000Z</time>
      </trkpt>
      <trkpt lat="49.2078" lon="-0.25299">
        <ele>29.545344</ele>
        <time>2022-08-06T11:17:04.000Z</time>
      </trkpt>
      <trkpt lat="49.20778" lon="-0.25307">
        <ele>29.576149</ele>
        <time>2022-08-06T11:17:05.000Z</time>
      </trkpt>
      <trkpt lat="49.20775" lon="-0.25315">
        <ele>29.606075</ele>
        <time>2022-08-06T11:17:06.000Z</time>
      </trkpt>
      <trkpt lat="49.20773" lon="-0.25323">
        <ele>29.637499</ele>
        <time>2022-08-06T11:17:07.000Z</time>
      </trkpt>
      <trkpt lat="49.20771" lon="-0.25331">
        <ele>29.667424</ele>
        <time>2022-08-06T11:17:08.000Z</time>
      </trkpt>
      <trkpt lat="49.20768" lon="-0.25339">
        <ele>29.696928</ele>
        <time>2022-08-06T11:17:09.000Z</time>
      </trkpt>
      <trkpt lat="49.20766" lon="-0.25347">
        <ele>29.725903</ele>
        <time>2022-08-06T11:17:10.000Z</time>
      </trkpt>
      <trkpt lat="49.20764" lon="-0.25354">
        <ele>29.787685</ele>
        <time>2022-08-06T11:17:11.000Z</time>
      </trkpt>
      <trkpt lat="49.20762" lon="-0.25362">
        <ele>29.873654</ele>
        <time>2022-08-06T11:17:12.000Z</time>
      </trkpt>
      <trkpt lat="49.2076" lon="-0.2537">
        <ele>29.955116</ele>
        <time>2022-08-06T11:17:13.000Z</time>
      </trkpt>
      <trkpt lat="49.20757" lon="-0.25378">
        <ele>30.039873</ele>
        <time>2022-08-06T11:17:14.000Z</time>
      </trkpt>
      <trkpt lat="49.20755" lon="-0.25385">
        <ele>30.12595</ele>
        <time>2022-08-06T11:17:15.000Z</time>
      </trkpt>
      <trkpt lat="49.20752" lon="-0.25393">
        <ele>30.211831</ele>
        <time>2022-08-06T11:17:16.000Z</time>
      </trkpt>
      <trkpt lat="49.2075" lon="-0.254">
        <ele>30.29322</ele>
        <time>2022-08-06T11:17:17.000Z</time>
      </trkpt>
      <trkpt lat="49.20748" lon="-0.25407">
        <ele>30.364506</ele>
        <time>2022-08-06T11:17:18.000Z</time>
      </trkpt>
      <trkpt lat="49.20746" lon="-0.25413">
        <ele>30.431937</ele>
        <time>2022-08-06T11:17:19.000Z</time>
      </trkpt>
      <trkpt lat="49.20744" lon="-0.25418">
        <ele>30.495106</ele>
        <time>2022-08-06T11:17:20.000Z</time>
      </trkpt>
      <trkpt lat="49.20743" lon="-0.25424">
        <ele>30.557438</ele>
        <time>2022-08-06T11:17:21.000Z</time>
      </trkpt>
      <trkpt lat="49.20741" lon="-0.2543">
        <ele>30.625089</ele>
        <time>2022-08-06T11:17:22.000Z</time>
      </trkpt>
      <trkpt lat="49.2074" lon="-0.25436">
        <ele>30.687421</ele>
        <time>2022-08-06T11:17:23.000Z</time>
      </trkpt>
      <trkpt lat="49.20738" lon="-0.25442">
        <ele>30.752374</ele>
        <time>2022-08-06T11:17:24.000Z</time>
      </trkpt>
      <trkpt lat="49.20736" lon="-0.25448">
        <ele>30.817326</ele>
        <time>2022-08-06T11:17:25.000Z</time>
      </trkpt>
      <trkpt lat="49.20734" lon="-0.25454">
        <ele>30.882202</ele>
        <time>2022-08-06T11:17:26.000Z</time>
      </trkpt>
      <trkpt lat="49.20733" lon="-0.2546">
        <ele>30.946152</ele>
        <time>2022-08-06T11:17:27.000Z</time>
      </trkpt>
      <trkpt lat="49.20731" lon="-0.25466">
        <ele>31.009178</ele>
        <time>2022-08-06T11:17:28.000Z</time>
      </trkpt>
      <trkpt lat="49.2073" lon="-0.25471">
        <ele>31.072204</ele>
        <time>2022-08-06T11:17:29.000Z</time>
      </trkpt>
      <trkpt lat="49.20728" lon="-0.25477">
        <ele>31.136264</ele>
        <time>2022-08-06T11:17:30.000Z</time>
      </trkpt>
      <trkpt lat="49.20726" lon="-0.25483">
        <ele>31.200323</ele>
        <time>2022-08-06T11:17:31.000Z</time>
      </trkpt>
      <trkpt lat="49.20724" lon="-0.25489">
        <ele>31.270443</ele>
        <time>2022-08-06T11:17:32.000Z</time>
      </trkpt>
      <trkpt lat="49.20722" lon="-0.25496">
        <ele>31.348178</ele>
        <time>2022-08-06T11:17:33.000Z</time>
      </trkpt>
      <trkpt lat="49.2072" lon="-0.25504">
        <ele>31.431394</ele>
        <time>2022-08-06T11:17:34.000Z</time>
      </trkpt>
      <trkpt lat="49.20717" lon="-0.25512">
        <ele>31.520843</ele>
        <time>2022-08-06T11:17:35.000Z</time>
      </trkpt>
      <trkpt lat="49.20715" lon="-0.2552">
        <ele>31.609619</ele>
        <time>2022-08-06T11:17:36.000Z</time>
      </trkpt>
      <trkpt lat="49.20711" lon="-0.25528">
        <ele>31.706962</ele>
        <time>2022-08-06T11:17:37.000Z</time>
      </trkpt>
      <trkpt lat="49.20709" lon="-0.25537">
        <ele>31.800918</ele>
        <time>2022-08-06T11:17:38.000Z</time>
      </trkpt>
      <trkpt lat="49.20706" lon="-0.25545">
        <ele>31.894875</ele>
        <time>2022-08-06T11:17:39.000Z</time>
      </trkpt>
      <trkpt lat="49.20703" lon="-0.25554">
        <ele>31.991067</ele>
        <time>2022-08-06T11:17:40.000Z</time>
      </trkpt>
      <trkpt lat="49.20701" lon="-0.25563">
        <ele>32.08684</ele>
        <time>2022-08-06T11:17:41.000Z</time>
      </trkpt>
      <trkpt lat="49.20698" lon="-0.25571">
        <ele>32.182614</ele>
        <time>2022-08-06T11:17:42.000Z</time>
      </trkpt>
      <trkpt lat="49.20695" lon="-0.2558">
        <ele>32.277911</ele>
        <time>2022-08-06T11:17:43.000Z</time>
      </trkpt>
      <trkpt lat="49.20693" lon="-0.25588">
        <ele>32.372775</ele>
        <time>2022-08-06T11:17:44.000Z</time>
      </trkpt>
      <trkpt lat="49.2069" lon="-0.25597">
        <ele>32.466732</ele>
        <time>2022-08-06T11:17:45.000Z</time>
      </trkpt>
      <trkpt lat="49.20688" lon="-0.25605">
        <ele>32.553773</ele>
        <time>2022-08-06T11:17:46.000Z</time>
      </trkpt>
      <trkpt lat="49.20685" lon="-0.25614">
        <ele>32.643018</ele>
        <time>2022-08-06T11:17:47.000Z</time>
      </trkpt>
      <trkpt lat="49.20683" lon="-0.25622">
        <ele>32.727242</ele>
        <time>2022-08-06T11:17:48.000Z</time>
      </trkpt>
      <trkpt lat="49.2068" lon="-0.25631">
        <ele>32.812909</ele>
        <time>2022-08-06T11:17:49.000Z</time>
      </trkpt>
      <trkpt lat="49.20677" lon="-0.25639">
        <ele>32.902154</ele>
        <time>2022-08-06T11:17:50.000Z</time>
      </trkpt>
      <trkpt lat="49.20675" lon="-0.25647">
        <ele>32.988264</ele>
        <time>2022-08-06T11:17:51.000Z</time>
      </trkpt>
      <trkpt lat="49.20672" lon="-0.25656">
        <ele>33.072171</ele>
        <time>2022-08-06T11:17:52.000Z</time>
      </trkpt>
      <trkpt lat="49.2067" lon="-0.25664">
        <ele>33.155533</ele>
        <time>2022-08-06T11:17:53.000Z</time>
      </trkpt>
      <trkpt lat="49.20668" lon="-0.25672">
        <ele>33.24204</ele>
        <time>2022-08-06T11:17:54.000Z</time>
      </trkpt>
      <trkpt lat="49.20665" lon="-0.2568">
        <ele>33.325413</ele>
        <time>2022-08-06T11:17:55.000Z</time>
      </trkpt>
      <trkpt lat="49.20663" lon="-0.25689">
        <ele>33.408465</ele>
        <time>2022-08-06T11:17:56.000Z</time>
      </trkpt>
      <trkpt lat="49.20661" lon="-0.25696">
        <ele>33.487534</ele>
        <time>2022-08-06T11:17:57.000Z</time>
      </trkpt>
      <trkpt lat="49.20658" lon="-0.25704">
        <ele>33.571869</ele>
        <time>2022-08-06T11:17:58.000Z</time>
      </trkpt>
      <trkpt lat="49.20655" lon="-0.25712">
        <ele>33.648382</ele>
        <time>2022-08-06T11:17:59.000Z</time>
      </trkpt>
      <trkpt lat="49.20653" lon="-0.25719">
        <ele>33.72381</ele>
        <time>2022-08-06T11:18:00.000Z</time>
      </trkpt>
      <trkpt lat="49.20651" lon="-0.25726">
        <ele>33.799695</ele>
        <time>2022-08-06T11:18:01.000Z</time>
      </trkpt>
      <trkpt lat="49.20648" lon="-0.25734">
        <ele>33.879208</ele>
        <time>2022-08-06T11:18:02.000Z</time>
      </trkpt>
      <trkpt lat="49.20645" lon="-0.25741">
        <ele>33.955772</ele>
        <time>2022-08-06T11:18:03.000Z</time>
      </trkpt>
      <trkpt lat="49.20643" lon="-0.25748">
        <ele>34.030836</ele>
        <time>2022-08-06T11:18:04.000Z</time>
      </trkpt>
      <trkpt lat="49.2064" lon="-0.25755">
        <ele>34.107103</ele>
        <time>2022-08-06T11:18:05.000Z</time>
      </trkpt>
      <trkpt lat="49.20637" lon="-0.25763">
        <ele>34.188213</ele>
        <time>2022-08-06T11:18:06.000Z</time>
      </trkpt>
      <trkpt lat="49.20635" lon="-0.2577">
        <ele>34.267405</ele>
        <time>2022-08-06T11:18:07.000Z</time>
      </trkpt>
      <trkpt lat="49.20632" lon="-0.25778">
        <ele>34.348073</ele>
        <time>2022-08-06T11:18:08.000Z</time>
      </trkpt>
      <trkpt lat="49.2063" lon="-0.25786">
        <ele>34.428931</ele>
        <time>2022-08-06T11:18:09.000Z</time>
      </trkpt>
      <trkpt lat="49.20627" lon="-0.25794">
        <ele>34.511257</ele>
        <time>2022-08-06T11:18:10.000Z</time>
      </trkpt>
      <trkpt lat="49.20625" lon="-0.25801">
        <ele>34.588621</ele>
        <time>2022-08-06T11:18:11.000Z</time>
      </trkpt>
      <trkpt lat="49.20623" lon="-0.25809">
        <ele>34.667419</ele>
        <time>2022-08-06T11:18:12.000Z</time>
      </trkpt>
      <trkpt lat="49.20621" lon="-0.25817">
        <ele>34.748201</ele>
        <time>2022-08-06T11:18:13.000Z</time>
      </trkpt>
      <trkpt lat="49.20618" lon="-0.25825">
        <ele>34.828869</ele>
        <time>2022-08-06T11:18:14.000Z</time>
      </trkpt>
      <trkpt lat="49.20616" lon="-0.25833">
        <ele>34.908091</ele>
        <time>2022-08-06T11:18:15.000Z</time>
      </trkpt>
      <trkpt lat="49.20614" lon="-0.25841">
        <ele>34.988873</ele>
        <time>2022-08-06T11:18:16.000Z</time>
      </trkpt>
      <trkpt lat="49.20612" lon="-0.25849">
        <ele>35.061388</ele>
        <time>2022-08-06T11:18:17.000Z</time>
      </trkpt>
      <trkpt lat="49.2061" lon="-0.25857">
        <ele>35.092911</ele>
        <time>2022-08-06T11:18:18.000Z</time>
      </trkpt>
      <trkpt lat="49.20608" lon="-0.25865">
        <ele>35.125481</ele>
        <time>2022-08-06T11:18:19.000Z</time>
      </trkpt>
      <trkpt lat="49.20606" lon="-0.25873">
        <ele>35.157701</ele>
        <time>2022-08-06T11:18:20.000Z</time>
      </trkpt>
      <trkpt lat="49.20605" lon="-0.25881">
        <ele>35.189309</ele>
        <time>2022-08-06T11:18:21.000Z</time>
      </trkpt>
      <trkpt lat="49.20603" lon="-0.2589">
        <ele>35.22153</ele>
        <time>2022-08-06T11:18:22.000Z</time>
      </trkpt>
      <trkpt lat="49.20601" lon="-0.25898">
        <ele>35.253944</ele>
        <time>2022-08-06T11:18:23.000Z</time>
      </trkpt>
      <trkpt lat="49.20599" lon="-0.25906">
        <ele>35.287213</ele>
        <time>2022-08-06T11:18:24.000Z</time>
      </trkpt>
      <trkpt lat="49.20597" lon="-0.25915">
        <ele>35.319783</ele>
        <time>2022-08-06T11:18:25.000Z</time>
      </trkpt>
      <trkpt lat="49.20595" lon="-0.25923">
        <ele>35.352003</ele>
        <time>2022-08-06T11:18:26.000Z</time>
      </trkpt>
      <trkpt lat="49.20593" lon="-0.25931">
        <ele>35.384051</ele>
        <time>2022-08-06T11:18:27.000Z</time>
      </trkpt>
      <trkpt lat="49.20591" lon="-0.25939">
        <ele>35.41662</ele>
        <time>2022-08-06T11:18:28.000Z</time>
      </trkpt>
      <trkpt lat="49.2059" lon="-0.25948">
        <ele>35.448313</ele>
        <time>2022-08-06T11:18:29.000Z</time>
      </trkpt>
      <trkpt lat="49.20588" lon="-0.25956">
        <ele>35.480727</ele>
        <time>2022-08-06T11:18:30.000Z</time>
      </trkpt>
      <trkpt lat="49.20586" lon="-0.25964">
        <ele>35.513297</ele>
        <time>2022-08-06T11:18:31.000Z</time>
      </trkpt>
      <trkpt lat="49.20585" lon="-0.25972">
        <ele>35.544906</ele>
        <time>2022-08-06T11:18:32.000Z</time>
      </trkpt>
      <trkpt lat="49.20583" lon="-0.25981">
        <ele>35.577126</ele>
        <time>2022-08-06T11:18:33.000Z</time>
      </trkpt>
      <trkpt lat="49.20581" lon="-0.25989">
        <ele>35.609346</ele>
        <time>2022-08-06T11:18:34.000Z</time>
      </trkpt>
      <trkpt lat="49.20579" lon="-0.25997">
        <ele>35.641916</ele>
        <time>2022-08-06T11:18:35.000Z</time>
      </trkpt>
      <trkpt lat="49.20577" lon="-0.26005">
        <ele>35.673964</ele>
        <time>2022-08-06T11:18:36.000Z</time>
      </trkpt>
      <trkpt lat="49.20575" lon="-0.26014">
        <ele>35.707233</ele>
        <time>2022-08-06T11:18:37.000Z</time>
      </trkpt>
      <trkpt lat="49.20573" lon="-0.26022">
        <ele>35.740281</ele>
        <time>2022-08-06T11:18:38.000Z</time>
      </trkpt>
      <trkpt lat="49.20572" lon="-0.2603">
        <ele>35.772329</ele>
        <time>2022-08-06T11:18:39.000Z</time>
      </trkpt>
      <trkpt lat="49.2057" lon="-0.26039">
        <ele>35.805248</ele>
        <time>2022-08-06T11:18:40.000Z</time>
      </trkpt>
      <trkpt lat="49.20568" lon="-0.26047">
        <ele>35.837818</ele>
        <time>2022-08-06T11:18:41.000Z</time>
      </trkpt>
      <trkpt lat="49.20566" lon="-0.26055">
        <ele>35.870388</ele>
        <time>2022-08-06T11:18:42.000Z</time>
      </trkpt>
      <trkpt lat="49.20564" lon="-0.26064">
        <ele>35.903497</ele>
        <time>2022-08-06T11:18:43.000Z</time>
      </trkpt>
      <trkpt lat="49.20562" lon="-0.26072">
        <ele>35.936767</ele>
        <time>2022-08-06T11:18:44.000Z</time>
      </trkpt>
      <trkpt lat="49.2056" lon="-0.26081">
        <ele>35.969938</ele>
        <time>2022-08-06T11:18:45.000Z</time>
      </trkpt>
      <trkpt lat="49.20558" lon="-0.26089">
        <ele>36.003909</ele>
        <time>2022-08-06T11:18:46.000Z</time>
      </trkpt>
      <trkpt lat="49.20556" lon="-0.26098">
        <ele>36.036671</ele>
        <time>2022-08-06T11:18:47.000Z</time>
      </trkpt>
      <trkpt lat="49.20554" lon="-0.26106">
        <ele>36.069941</ele>
        <time>2022-08-06T11:18:48.000Z</time>
      </trkpt>
      <trkpt lat="49.20552" lon="-0.26115">
        <ele>36.079951</ele>
        <time>2022-08-06T11:18:49.000Z</time>
      </trkpt>
      <trkpt lat="49.2055" lon="-0.26123">
        <ele>36.084265</ele>
        <time>2022-08-06T11:18:50.000Z</time>
      </trkpt>
      <trkpt lat="49.20548" lon="-0.26131">
        <ele>36.088603</ele>
        <time>2022-08-06T11:18:51.000Z</time>
      </trkpt>
      <trkpt lat="49.20546" lon="-0.26139">
        <ele>36.093109</ele>
        <time>2022-08-06T11:18:52.000Z</time>
      </trkpt>
      <trkpt lat="49.20544" lon="-0.26148">
        <ele>36.097541</ele>
        <time>2022-08-06T11:18:53.000Z</time>
      </trkpt>
      <trkpt lat="49.20542" lon="-0.26156">
        <ele>36.101974</ele>
        <time>2022-08-06T11:18:54.000Z</time>
      </trkpt>
      <trkpt lat="49.20541" lon="-0.26164">
        <ele>36.106227</ele>
        <time>2022-08-06T11:18:55.000Z</time>
      </trkpt>
      <trkpt lat="49.20539" lon="-0.26172">
        <ele>36.110612</ele>
        <time>2022-08-06T11:18:56.000Z</time>
      </trkpt>
      <trkpt lat="49.20537" lon="-0.2618">
        <ele>36.11495</ele>
        <time>2022-08-06T11:18:57.000Z</time>
      </trkpt>
      <trkpt lat="49.20535" lon="-0.26189">
        <ele>36.119431</ele>
        <time>2022-08-06T11:18:58.000Z</time>
      </trkpt>
      <trkpt lat="49.20533" lon="-0.26197">
        <ele>36.123795</ele>
        <time>2022-08-06T11:18:59.000Z</time>
      </trkpt>
      <trkpt lat="49.20532" lon="-0.26205">
        <ele>36.128275</ele>
        <time>2022-08-06T11:19:00.000Z</time>
      </trkpt>
      <trkpt lat="49.2053" lon="-0.26214">
        <ele>36.132708</ele>
        <time>2022-08-06T11:19:01.000Z</time>
      </trkpt>
      <trkpt lat="49.20528" lon="-0.26222">
        <ele>36.137332</ele>
        <time>2022-08-06T11:19:02.000Z</time>
      </trkpt>
      <trkpt lat="49.20526" lon="-0.26231">
        <ele>36.14186</ele>
        <time>2022-08-06T11:19:03.000Z</time>
      </trkpt>
      <trkpt lat="49.20524" lon="-0.26239">
        <ele>36.146461</ele>
        <time>2022-08-06T11:19:04.000Z</time>
      </trkpt>
      <trkpt lat="49.20522" lon="-0.26248">
        <ele>36.150919</ele>
        <time>2022-08-06T11:19:05.000Z</time>
      </trkpt>
      <trkpt lat="49.2052" lon="-0.26256">
        <ele>36.155447</ele>
        <time>2022-08-06T11:19:06.000Z</time>
      </trkpt>
      <trkpt lat="49.20518" lon="-0.26265">
        <ele>36.159928</ele>
        <time>2022-08-06T11:19:07.000Z</time>
      </trkpt>
      <trkpt lat="49.20517" lon="-0.26273">
        <ele>36.164328</ele>
        <time>2022-08-06T11:19:08.000Z</time>
      </trkpt>
      <trkpt lat="49.20515" lon="-0.26282">
        <ele>36.168856</ele>
        <time>2022-08-06T11:19:09.000Z</time>
      </trkpt>
      <trkpt lat="49.20513" lon="-0.2629">
        <ele>36.173384</ele>
        <time>2022-08-06T11:19:10.000Z</time>
      </trkpt>
      <trkpt lat="49.20512" lon="-0.26299">
        <ele>36.177842</ele>
        <time>2022-08-06T11:19:11.000Z</time>
      </trkpt>
      <trkpt lat="49.2051" lon="-0.26307">
        <ele>36.18237</ele>
        <time>2022-08-06T11:19:12.000Z</time>
      </trkpt>
      <trkpt lat="49.20508" lon="-0.26316">
        <ele>36.186829</ele>
        <time>2022-08-06T11:19:13.000Z</time>
      </trkpt>
      <trkpt lat="49.20507" lon="-0.26324">
        <ele>36.19119</ele>
        <time>2022-08-06T11:19:14.000Z</time>
      </trkpt>
      <trkpt lat="49.20505" lon="-0.26332">
        <ele>36.195649</ele>
        <time>2022-08-06T11:19:15.000Z</time>
      </trkpt>
      <trkpt lat="49.20503" lon="-0.26341">
        <ele>36.199983</ele>
        <time>2022-08-06T11:19:16.000Z</time>
      </trkpt>
      <trkpt lat="49.20501" lon="-0.26349">
        <ele>36.204584</ele>
        <time>2022-08-06T11:19:17.000Z</time>
      </trkpt>
      <trkpt lat="49.205" lon="-0.26358">
        <ele>36.208967</ele>
        <time>2022-08-06T11:19:18.000Z</time>
      </trkpt>
      <trkpt lat="49.20499" lon="-0.26366">
        <ele>36.213426</ele>
        <time>2022-08-06T11:19:19.000Z</time>
      </trkpt>
      <trkpt lat="49.20497" lon="-0.26375">
        <ele>36.204756</ele>
        <time>2022-08-06T11:19:20.000Z</time>
      </trkpt>
      <trkpt lat="49.20496" lon="-0.26383">
        <ele>36.18895</ele>
        <time>2022-08-06T11:19:21.000Z</time>
      </trkpt>
      <trkpt lat="49.20494" lon="-0.26392">
        <ele>36.173315</ele>
        <time>2022-08-06T11:19:22.000Z</time>
      </trkpt>
      <trkpt lat="49.20493" lon="-0.264">
        <ele>36.157508</ele>
        <time>2022-08-06T11:19:23.000Z</time>
      </trkpt>
      <trkpt lat="49.20491" lon="-0.26409">
        <ele>36.141702</ele>
        <time>2022-08-06T11:19:24.000Z</time>
      </trkpt>
      <trkpt lat="49.2049" lon="-0.26417">
        <ele>36.126103</ele>
        <time>2022-08-06T11:19:25.000Z</time>
      </trkpt>
      <trkpt lat="49.20488" lon="-0.26426">
        <ele>36.110124</ele>
        <time>2022-08-06T11:19:26.000Z</time>
      </trkpt>
      <trkpt lat="49.20487" lon="-0.26434">
        <ele>36.094525</ele>
        <time>2022-08-06T11:19:27.000Z</time>
      </trkpt>
      <trkpt lat="49.20485" lon="-0.26443">
        <ele>36.078926</ele>
        <time>2022-08-06T11:19:28.000Z</time>
      </trkpt>
      <trkpt lat="49.20484" lon="-0.26452">
        <ele>36.062776</ele>
        <time>2022-08-06T11:19:29.000Z</time>
      </trkpt>
      <trkpt lat="49.20482" lon="-0.2646">
        <ele>36.046969</ele>
        <time>2022-08-06T11:19:30.000Z</time>
      </trkpt>
      <trkpt lat="49.20481" lon="-0.26469">
        <ele>36.030819</ele>
        <time>2022-08-06T11:19:31.000Z</time>
      </trkpt>
      <trkpt lat="49.20479" lon="-0.26477">
        <ele>36.015105</ele>
        <time>2022-08-06T11:19:32.000Z</time>
      </trkpt>
      <trkpt lat="49.20478" lon="-0.26486">
        <ele>35.999506</ele>
        <time>2022-08-06T11:19:33.000Z</time>
      </trkpt>
      <trkpt lat="49.20477" lon="-0.26495">
        <ele>35.98321</ele>
        <time>2022-08-06T11:19:34.000Z</time>
      </trkpt>
      <trkpt lat="49.20476" lon="-0.26504">
        <ele>35.967249</ele>
        <time>2022-08-06T11:19:35.000Z</time>
      </trkpt>
      <trkpt lat="49.20474" lon="-0.26513">
        <ele>35.950582</ele>
        <time>2022-08-06T11:19:36.000Z</time>
      </trkpt>
      <trkpt lat="49.20473" lon="-0.26522">
        <ele>35.933915</ele>
        <time>2022-08-06T11:19:37.000Z</time>
      </trkpt>
      <trkpt lat="49.20471" lon="-0.26531">
        <ele>35.917248</ele>
        <time>2022-08-06T11:19:38.000Z</time>
      </trkpt>
      <trkpt lat="49.2047" lon="-0.2654">
        <ele>35.900625</ele>
        <time>2022-08-06T11:19:39.000Z</time>
      </trkpt>
      <trkpt lat="49.20469" lon="-0.26549">
        <ele>35.883958</ele>
        <time>2022-08-06T11:19:40.000Z</time>
      </trkpt>
      <trkpt lat="49.20467" lon="-0.26558">
        <ele>35.867119</ele>
        <time>2022-08-06T11:19:41.000Z</time>
      </trkpt>
      <trkpt lat="49.20466" lon="-0.26567">
        <ele>35.850648</ele>
        <time>2022-08-06T11:19:42.000Z</time>
      </trkpt>
      <trkpt lat="49.20464" lon="-0.26576">
        <ele>35.833636</ele>
        <time>2022-08-06T11:19:43.000Z</time>
      </trkpt>
      <trkpt lat="49.20462" lon="-0.26585">
        <ele>35.816735</ele>
        <time>2022-08-06T11:19:44.000Z</time>
      </trkpt>
      <trkpt lat="49.20461" lon="-0.26594">
        <ele>35.800265</ele>
        <time>2022-08-06T11:19:45.000Z</time>
      </trkpt>
      <trkpt lat="49.2046" lon="-0.26603">
        <ele>35.783794</ele>
        <time>2022-08-06T11:19:46.000Z</time>
      </trkpt>
      <trkpt lat="49.20458" lon="-0.26612">
        <ele>35.766782</ele>
        <time>2022-08-06T11:19:47.000Z</time>
      </trkpt>
      <trkpt lat="49.20456" lon="-0.26621">
        <ele>35.749943</ele>
        <time>2022-08-06T11:19:48.000Z</time>
      </trkpt>
      <trkpt lat="49.20455" lon="-0.26631">
        <ele>35.732931</ele>
        <time>2022-08-06T11:19:49.000Z</time>
      </trkpt>
      <trkpt lat="49.20453" lon="-0.2664">
        <ele>35.723511</ele>
        <time>2022-08-06T11:19:50.000Z</time>
      </trkpt>
      <trkpt lat="49.20452" lon="-0.26649">
        <ele>35.724617</ele>
        <time>2022-08-06T11:19:51.000Z</time>
      </trkpt>
      <trkpt lat="49.20451" lon="-0.26658">
        <ele>35.725773</ele>
        <time>2022-08-06T11:19:52.000Z</time>
      </trkpt>
      <trkpt lat="49.20449" lon="-0.26667">
        <ele>35.726945</ele>
        <time>2022-08-06T11:19:53.000Z</time>
      </trkpt>
      <trkpt lat="49.20448" lon="-0.26676">
        <ele>35.728064</ele>
        <time>2022-08-06T11:19:54.000Z</time>
      </trkpt>
      <trkpt lat="49.20446" lon="-0.26686">
        <ele>35.729219</ele>
        <time>2022-08-06T11:19:55.000Z</time>
      </trkpt>
      <trkpt lat="49.20446" lon="-0.26695">
        <ele>35.730343</ele>
        <time>2022-08-06T11:19:56.000Z</time>
      </trkpt>
      <trkpt lat="49.20445" lon="-0.26704">
        <ele>35.731487</ele>
        <time>2022-08-06T11:19:57.000Z</time>
      </trkpt>
      <trkpt lat="49.20445" lon="-0.26714">
        <ele>35.732643</ele>
        <time>2022-08-06T11:19:58.000Z</time>
      </trkpt>
      <trkpt lat="49.20446" lon="-0.26723">
        <ele>35.733752</ele>
        <time>2022-08-06T11:19:59.000Z</time>
      </trkpt>
      <trkpt lat="49.20448" lon="-0.26731">
        <ele>35.734861</ele>
        <time>2022-08-06T11:20:00.000Z</time>
      </trkpt>
      <trkpt lat="49.2045" lon="-0.2674">
        <ele>35.735972</ele>
        <time>2022-08-06T11:20:01.000Z</time>
      </trkpt>
      <trkpt lat="49.20452" lon="-0.26748">
        <ele>35.737056</ele>
        <time>2022-08-06T11:20:02.000Z</time>
      </trkpt>
      <trkpt lat="49.20454" lon="-0.26756">
        <ele>35.73811</ele>
        <time>2022-08-06T11:20:03.000Z</time>
      </trkpt>
      <trkpt lat="49.20457" lon="-0.26764">
        <ele>35.739195</ele>
        <time>2022-08-06T11:20:04.000Z</time>
      </trkpt>
      <trkpt lat="49.2046" lon="-0.26772">
        <ele>35.740272</ele>
        <time>2022-08-06T11:20:05.000Z</time>
      </trkpt>
      <trkpt lat="49.20462" lon="-0.2678">
        <ele>35.741363</ele>
        <time>2022-08-06T11:20:06.000Z</time>
      </trkpt>
      <trkpt lat="49.20465" lon="-0.26788">
        <ele>35.742415</ele>
        <time>2022-08-06T11:20:07.000Z</time>
      </trkpt>
      <trkpt lat="49.20467" lon="-0.26794">
        <ele>35.743258</ele>
        <time>2022-08-06T11:20:08.000Z</time>
      </trkpt>
      <trkpt lat="49.2047" lon="-0.26803">
        <ele>35.744503</ele>
        <time>2022-08-06T11:20:09.000Z</time>
      </trkpt>
      <trkpt lat="49.20472" lon="-0.26809">
        <ele>35.745313</ele>
        <time>2022-08-06T11:20:10.000Z</time>
      </trkpt>
      <trkpt lat="49.20475" lon="-0.26818">
        <ele>35.746499</ele>
        <time>2022-08-06T11:20:11.000Z</time>
      </trkpt>
      <trkpt lat="49.20477" lon="-0.26823">
        <ele>35.747276</ele>
        <time>2022-08-06T11:20:12.000Z</time>
      </trkpt>
      <trkpt lat="49.2048" lon="-0.26831">
        <ele>35.748344</ele>
        <time>2022-08-06T11:20:13.000Z</time>
      </trkpt>
      <trkpt lat="49.20483" lon="-0.26838">
        <ele>35.749397</ele>
        <time>2022-08-06T11:20:14.000Z</time>
      </trkpt>
      <trkpt lat="49.20485" lon="-0.26846">
        <ele>35.750451</ele>
        <time>2022-08-06T11:20:15.000Z</time>
      </trkpt>
      <trkpt lat="49.20488" lon="-0.26856">
        <ele>35.75176</ele>
        <time>2022-08-06T11:20:16.000Z</time>
      </trkpt>
      <trkpt lat="49.2049" lon="-0.26864">
        <ele>35.752815</ele>
        <time>2022-08-06T11:20:17.000Z</time>
      </trkpt>
      <trkpt lat="49.20493" lon="-0.26872">
        <ele>35.7539</ele>
        <time>2022-08-06T11:20:18.000Z</time>
      </trkpt>
      <trkpt lat="49.20496" lon="-0.2688">
        <ele>35.755011</ele>
        <time>2022-08-06T11:20:19.000Z</time>
      </trkpt>
      <trkpt lat="49.20498" lon="-0.26888">
        <ele>35.756077</ele>
        <time>2022-08-06T11:20:20.000Z</time>
      </trkpt>
      <trkpt lat="49.20501" lon="-0.26896">
        <ele>35.770895</ele>
        <time>2022-08-06T11:20:21.000Z</time>
      </trkpt>
      <trkpt lat="49.20503" lon="-0.26904">
        <ele>35.793634</ele>
        <time>2022-08-06T11:20:22.000Z</time>
      </trkpt>
      <trkpt lat="49.20506" lon="-0.26912">
        <ele>35.81667</ele>
        <time>2022-08-06T11:20:23.000Z</time>
      </trkpt>
      <trkpt lat="49.20508" lon="-0.26921">
        <ele>35.839706</ele>
        <time>2022-08-06T11:20:24.000Z</time>
      </trkpt>
      <trkpt lat="49.2051" lon="-0.26929">
        <ele>35.862654</ele>
        <time>2022-08-06T11:20:25.000Z</time>
      </trkpt>
      <trkpt lat="49.20513" lon="-0.26937">
        <ele>35.885226</ele>
        <time>2022-08-06T11:20:26.000Z</time>
      </trkpt>
      <trkpt lat="49.20516" lon="-0.26945">
        <ele>35.908058</ele>
        <time>2022-08-06T11:20:27.000Z</time>
      </trkpt>
      <trkpt lat="49.20517" lon="-0.26952">
        <ele>35.926</ele>
        <time>2022-08-06T11:20:28.000Z</time>
      </trkpt>
      <trkpt lat="49.2052" lon="-0.2696">
        <ele>35.948253</ele>
        <time>2022-08-06T11:20:29.000Z</time>
      </trkpt>
      <trkpt lat="49.20522" lon="-0.26968">
        <ele>35.971739</ele>
        <time>2022-08-06T11:20:30.000Z</time>
      </trkpt>
      <trkpt lat="49.20525" lon="-0.26977">
        <ele>35.9959</ele>
        <time>2022-08-06T11:20:31.000Z</time>
      </trkpt>
      <trkpt lat="49.20528" lon="-0.26987">
        <ele>36.023957</ele>
        <time>2022-08-06T11:20:32.000Z</time>
      </trkpt>
      <trkpt lat="49.2053" lon="-0.26996">
        <ele>36.047444</ele>
        <time>2022-08-06T11:20:33.000Z</time>
      </trkpt>
      <trkpt lat="49.20533" lon="-0.27004">
        <ele>36.07016</ele>
        <time>2022-08-06T11:20:34.000Z</time>
      </trkpt>
      <trkpt lat="49.20535" lon="-0.27012">
        <ele>36.093875</ele>
        <time>2022-08-06T11:20:35.000Z</time>
      </trkpt>
      <trkpt lat="49.20538" lon="-0.27021">
        <ele>36.116911</ele>
        <time>2022-08-06T11:20:36.000Z</time>
      </trkpt>
      <trkpt lat="49.2054" lon="-0.27029">
        <ele>36.139877</ele>
        <time>2022-08-06T11:20:37.000Z</time>
      </trkpt>
      <trkpt lat="49.20542" lon="-0.27037">
        <ele>36.162212</ele>
        <time>2022-08-06T11:20:38.000Z</time>
      </trkpt>
      <trkpt lat="49.20545" lon="-0.27045">
        <ele>36.18495</ele>
        <time>2022-08-06T11:20:39.000Z</time>
      </trkpt>
      <trkpt lat="49.20547" lon="-0.27054">
        <ele>36.207285</ele>
        <time>2022-08-06T11:20:40.000Z</time>
      </trkpt>
      <trkpt lat="49.20549" lon="-0.27062">
        <ele>36.22962</ele>
        <time>2022-08-06T11:20:41.000Z</time>
      </trkpt>
      <trkpt lat="49.20552" lon="-0.2707">
        <ele>36.251642</ele>
        <time>2022-08-06T11:20:42.000Z</time>
      </trkpt>
      <trkpt lat="49.20554" lon="-0.27078">
        <ele>36.272617</ele>
        <time>2022-08-06T11:20:43.000Z</time>
      </trkpt>
      <trkpt lat="49.20556" lon="-0.27085">
        <ele>36.293355</ele>
        <time>2022-08-06T11:20:44.000Z</time>
      </trkpt>
      <trkpt lat="49.20558" lon="-0.27093">
        <ele>36.31423</ele>
        <time>2022-08-06T11:20:45.000Z</time>
      </trkpt>
      <trkpt lat="49.2056" lon="-0.271">
        <ele>36.334945</ele>
        <time>2022-08-06T11:20:46.000Z</time>
      </trkpt>
      <trkpt lat="49.20562" lon="-0.27108">
        <ele>36.354743</ele>
        <time>2022-08-06T11:20:47.000Z</time>
      </trkpt>
      <trkpt lat="49.20564" lon="-0.27115">
        <ele>36.374622</ele>
        <time>2022-08-06T11:20:48.000Z</time>
      </trkpt>
      <trkpt lat="49.20566" lon="-0.27122">
        <ele>36.394816</ele>
        <time>2022-08-06T11:20:49.000Z</time>
      </trkpt>
      <trkpt lat="49.20568" lon="-0.27129">
        <ele>36.414387</ele>
        <time>2022-08-06T11:20:50.000Z</time>
      </trkpt>
      <trkpt lat="49.2057" lon="-0.27136">
        <ele>36.433719</ele>
        <time>2022-08-06T11:20:51.000Z</time>
      </trkpt>
      <trkpt lat="49.20572" lon="-0.27143">
        <ele>36.451378</ele>
        <time>2022-08-06T11:20:52.000Z</time>
      </trkpt>
      <trkpt lat="49.20574" lon="-0.2715">
        <ele>36.46102</ele>
        <time>2022-08-06T11:20:53.000Z</time>
      </trkpt>
      <trkpt lat="49.20576" lon="-0.27157">
        <ele>36.470485</ele>
        <time>2022-08-06T11:20:54.000Z</time>
      </trkpt>
      <trkpt lat="49.20578" lon="-0.27164">
        <ele>36.480285</ele>
        <time>2022-08-06T11:20:55.000Z</time>
      </trkpt>
      <trkpt lat="49.2058" lon="-0.2717">
        <ele>36.490186</ele>
        <time>2022-08-06T11:20:56.000Z</time>
      </trkpt>
      <trkpt lat="49.20582" lon="-0.27177">
        <ele>36.499629</ele>
        <time>2022-08-06T11:20:57.000Z</time>
      </trkpt>
      <trkpt lat="49.20584" lon="-0.27184">
        <ele>36.50943</ele>
        <time>2022-08-06T11:20:58.000Z</time>
      </trkpt>
      <trkpt lat="49.20586" lon="-0.27191">
        <ele>36.518774</ele>
        <time>2022-08-06T11:20:59.000Z</time>
      </trkpt>
      <trkpt lat="49.20588" lon="-0.27197">
        <ele>36.527864</ele>
        <time>2022-08-06T11:21:00.000Z</time>
      </trkpt>
      <trkpt lat="49.2059" lon="-0.27203">
        <ele>36.536858</ele>
        <time>2022-08-06T11:21:01.000Z</time>
      </trkpt>
      <trkpt lat="49.20591" lon="-0.27209">
        <ele>36.54476</ele>
        <time>2022-08-06T11:21:02.000Z</time>
      </trkpt>
      <trkpt lat="49.20593" lon="-0.27214">
        <ele>36.552545</ele>
        <time>2022-08-06T11:21:03.000Z</time>
      </trkpt>
      <trkpt lat="49.20595" lon="-0.2722">
        <ele>36.560566</ele>
        <time>2022-08-06T11:21:04.000Z</time>
      </trkpt>
      <trkpt lat="49.20596" lon="-0.27225">
        <ele>36.567453</ele>
        <time>2022-08-06T11:21:05.000Z</time>
      </trkpt>
      <trkpt lat="49.20598" lon="-0.2723">
        <ele>36.574814</ele>
        <time>2022-08-06T11:21:06.000Z</time>
      </trkpt>
      <trkpt lat="49.206" lon="-0.27234">
        <ele>36.581419</ele>
        <time>2022-08-06T11:21:07.000Z</time>
      </trkpt>
      <trkpt lat="49.20601" lon="-0.27238">
        <ele>36.587817</ele>
        <time>2022-08-06T11:21:08.000Z</time>
      </trkpt>
      <trkpt lat="49.20603" lon="-0.27243">
        <ele>36.594636</ele>
        <time>2022-08-06T11:21:09.000Z</time>
      </trkpt>
      <trkpt lat="49.20605" lon="-0.27247">
        <ele>36.600998</ele>
        <time>2022-08-06T11:21:10.000Z</time>
      </trkpt>
      <trkpt lat="49.20606" lon="-0.27252">
        <ele>36.607478</ele>
        <time>2022-08-06T11:21:11.000Z</time>
      </trkpt>
      <trkpt lat="49.20608" lon="-0.27256">
        <ele>36.614083</ele>
        <time>2022-08-06T11:21:12.000Z</time>
      </trkpt>
      <trkpt lat="49.2061" lon="-0.2726">
        <ele>36.621144</ele>
        <time>2022-08-06T11:21:13.000Z</time>
      </trkpt>
      <trkpt lat="49.20613" lon="-0.27265">
        <ele>36.628815</ele>
        <time>2022-08-06T11:21:14.000Z</time>
      </trkpt>
      <trkpt lat="49.20614" lon="-0.2727">
        <ele>36.636071</ele>
        <time>2022-08-06T11:21:15.000Z</time>
      </trkpt>
      <trkpt lat="49.20616" lon="-0.27274">
        <ele>36.642695</ele>
        <time>2022-08-06T11:21:16.000Z</time>
      </trkpt>
      <trkpt lat="49.20618" lon="-0.27279">
        <ele>36.649841</ele>
        <time>2022-08-06T11:21:17.000Z</time>
      </trkpt>
      <trkpt lat="49.2062" lon="-0.27283">
        <ele>36.656769</ele>
        <time>2022-08-06T11:21:18.000Z</time>
      </trkpt>
      <trkpt lat="49.20621" lon="-0.27287">
        <ele>36.662661</ele>
        <time>2022-08-06T11:21:19.000Z</time>
      </trkpt>
      <trkpt lat="49.20623" lon="-0.27292">
        <ele>36.669172</ele>
        <time>2022-08-06T11:21:20.000Z</time>
      </trkpt>
      <trkpt lat="49.20624" lon="-0.27296">
        <ele>36.675796</ele>
        <time>2022-08-06T11:21:21.000Z</time>
      </trkpt>
      <trkpt lat="49.20626" lon="-0.27301">
        <ele>36.682276</ele>
        <time>2022-08-06T11:21:22.000Z</time>
      </trkpt>
      <trkpt lat="49.20628" lon="-0.27306">
        <ele>36.689643</ele>
        <time>2022-08-06T11:21:23.000Z</time>
      </trkpt>
      <trkpt lat="49.20629" lon="-0.27311">
        <ele>36.696899</ele>
        <time>2022-08-06T11:21:24.000Z</time>
      </trkpt>
      <trkpt lat="49.20632" lon="-0.27316">
        <ele>36.704806</ele>
        <time>2022-08-06T11:21:25.000Z</time>
      </trkpt>
      <trkpt lat="49.20634" lon="-0.27321">
        <ele>36.712815</ele>
        <time>2022-08-06T11:21:26.000Z</time>
      </trkpt>
      <trkpt lat="49.20637" lon="-0.27326">
        <ele>36.720877</ele>
        <time>2022-08-06T11:21:27.000Z</time>
      </trkpt>
      <trkpt lat="49.20639" lon="-0.27331">
        <ele>36.729215</ele>
        <time>2022-08-06T11:21:28.000Z</time>
      </trkpt>
      <trkpt lat="49.20641" lon="-0.27337">
        <ele>36.737259</ele>
        <time>2022-08-06T11:21:29.000Z</time>
      </trkpt>
      <trkpt lat="49.20643" lon="-0.27342">
        <ele>36.746031</ele>
        <time>2022-08-06T11:21:30.000Z</time>
      </trkpt>
      <trkpt lat="49.20645" lon="-0.27348">
        <ele>36.754075</ele>
        <time>2022-08-06T11:21:31.000Z</time>
      </trkpt>
      <trkpt lat="49.20647" lon="-0.27354">
        <ele>36.762859</ele>
        <time>2022-08-06T11:21:32.000Z</time>
      </trkpt>
      <trkpt lat="49.20649" lon="-0.2736">
        <ele>36.771631</ele>
        <time>2022-08-06T11:21:33.000Z</time>
      </trkpt>
      <trkpt lat="49.20652" lon="-0.27365">
        <ele>36.781074</ele>
        <time>2022-08-06T11:21:34.000Z</time>
      </trkpt>
      <trkpt lat="49.20655" lon="-0.27372">
        <ele>36.790826</ele>
        <time>2022-08-06T11:21:35.000Z</time>
      </trkpt>
      <trkpt lat="49.20658" lon="-0.27378">
        <ele>36.800896</ele>
        <time>2022-08-06T11:21:36.000Z</time>
      </trkpt>
      <trkpt lat="49.20661" lon="-0.27384">
        <ele>36.798769</ele>
        <time>2022-08-06T11:21:37.000Z</time>
      </trkpt>
      <trkpt lat="49.20663" lon="-0.2739">
        <ele>36.783277</ele>
        <time>2022-08-06T11:21:38.000Z</time>
      </trkpt>
      <trkpt lat="49.20666" lon="-0.27396">
        <ele>36.76642</ele>
        <time>2022-08-06T11:21:39.000Z</time>
      </trkpt>
      <trkpt lat="49.20669" lon="-0.27402">
        <ele>36.750384</ele>
        <time>2022-08-06T11:21:40.000Z</time>
      </trkpt>
      <trkpt lat="49.20672" lon="-0.27408">
        <ele>36.733463</ele>
        <time>2022-08-06T11:21:41.000Z</time>
      </trkpt>
      <trkpt lat="49.20675" lon="-0.27414">
        <ele>36.717837</ele>
        <time>2022-08-06T11:21:42.000Z</time>
      </trkpt>
      <trkpt lat="49.20677" lon="-0.27419">
        <ele>36.702872</ele>
        <time>2022-08-06T11:21:43.000Z</time>
      </trkpt>
      <trkpt lat="49.2068" lon="-0.27424">
        <ele>36.68832</ele>
        <time>2022-08-06T11:21:44.000Z</time>
      </trkpt>
      <trkpt lat="49.20683" lon="-0.2743">
        <ele>36.673414</ele>
        <time>2022-08-06T11:21:45.000Z</time>
      </trkpt>
      <trkpt lat="49.20685" lon="-0.27436">
        <ele>36.65834</ele>
        <time>2022-08-06T11:21:46.000Z</time>
      </trkpt>
      <trkpt lat="49.20688" lon="-0.27441">
        <ele>36.642304</ele>
        <time>2022-08-06T11:21:47.000Z</time>
      </trkpt>
      <trkpt lat="49.20691" lon="-0.27447">
        <ele>36.627041</ele>
        <time>2022-08-06T11:21:48.000Z</time>
      </trkpt>
      <trkpt lat="49.20694" lon="-0.27452">
        <ele>36.611393</ele>
        <time>2022-08-06T11:21:49.000Z</time>
      </trkpt>
      <trkpt lat="49.20697" lon="-0.27456">
        <ele>36.597083</ele>
        <time>2022-08-06T11:21:50.000Z</time>
      </trkpt>
      <trkpt lat="49.20701" lon="-0.2746">
        <ele>36.582788</ele>
        <time>2022-08-06T11:21:51.000Z</time>
      </trkpt>
      <trkpt lat="49.20704" lon="-0.27463">
        <ele>36.569307</ele>
        <time>2022-08-06T11:21:52.000Z</time>
      </trkpt>
      <trkpt lat="49.20708" lon="-0.27466">
        <ele>36.555826</ele>
        <time>2022-08-06T11:21:53.000Z</time>
      </trkpt>
      <trkpt lat="49.20711" lon="-0.27468">
        <ele>36.542448</ele>
        <time>2022-08-06T11:21:54.000Z</time>
      </trkpt>
      <trkpt lat="49.20715" lon="-0.27471">
        <ele>36.528795</ele>
        <time>2022-08-06T11:21:55.000Z</time>
      </trkpt>
      <trkpt lat="49.20719" lon="-0.27473">
        <ele>36.514895</ele>
        <time>2022-08-06T11:21:56.000Z</time>
      </trkpt>
      <trkpt lat="49.20723" lon="-0.27476">
        <ele>36.499586</ele>
        <time>2022-08-06T11:21:57.000Z</time>
      </trkpt>
      <trkpt lat="49.20728" lon="-0.27478">
        <ele>36.483642</ele>
        <time>2022-08-06T11:21:58.000Z</time>
      </trkpt>
      <trkpt lat="49.20732" lon="-0.2748">
        <ele>36.468967</ele>
        <time>2022-08-06T11:21:59.000Z</time>
      </trkpt>
      <trkpt lat="49.20736" lon="-0.27483">
        <ele>36.453658</ele>
        <time>2022-08-06T11:22:00.000Z</time>
      </trkpt>
      <trkpt lat="49.2074" lon="-0.27486">
        <ele>36.438513</ele>
        <time>2022-08-06T11:22:01.000Z</time>
      </trkpt>
      <trkpt lat="49.20744" lon="-0.27488">
        <ele>36.423681</ele>
        <time>2022-08-06T11:22:02.000Z</time>
      </trkpt>
      <trkpt lat="49.20749" lon="-0.2749">
        <ele>36.408763</ele>
        <time>2022-08-06T11:22:03.000Z</time>
      </trkpt>
      <trkpt lat="49.20753" lon="-0.27493">
        <ele>36.393848</ele>
        <time>2022-08-06T11:22:04.000Z</time>
      </trkpt>
      <trkpt lat="49.20757" lon="-0.27496">
        <ele>36.378539</ele>
        <time>2022-08-06T11:22:05.000Z</time>
      </trkpt>
      <trkpt lat="49.20761" lon="-0.27498">
        <ele>36.363144</ele>
        <time>2022-08-06T11:22:06.000Z</time>
      </trkpt>
      <trkpt lat="49.20765" lon="-0.27501">
        <ele>36.347044</ele>
        <time>2022-08-06T11:22:07.000Z</time>
      </trkpt>
      <trkpt lat="49.2077" lon="-0.27504">
        <ele>36.331649</ele>
        <time>2022-08-06T11:22:08.000Z</time>
      </trkpt>
      <trkpt lat="49.20773" lon="-0.27507">
        <ele>36.317073</ele>
        <time>2022-08-06T11:22:09.000Z</time>
      </trkpt>
      <trkpt lat="49.20778" lon="-0.2751">
        <ele>36.301678</ele>
        <time>2022-08-06T11:22:10.000Z</time>
      </trkpt>
      <trkpt lat="49.20781" lon="-0.27514">
        <ele>36.28899</ele>
        <time>2022-08-06T11:22:11.000Z</time>
      </trkpt>
      <trkpt lat="49.20784" lon="-0.27518">
        <ele>36.273629</ele>
        <time>2022-08-06T11:22:12.000Z</time>
      </trkpt>
      <trkpt lat="49.20787" lon="-0.27523">
        <ele>36.259598</ele>
        <time>2022-08-06T11:22:13.000Z</time>
      </trkpt>
      <trkpt lat="49.2079" lon="-0.27529">
        <ele>36.243753</ele>
        <time>2022-08-06T11:22:14.000Z</time>
      </trkpt>
      <trkpt lat="49.20792" lon="-0.27534">
        <ele>36.229042</ele>
        <time>2022-08-06T11:22:15.000Z</time>
      </trkpt>
      <trkpt lat="49.20795" lon="-0.27539">
        <ele>36.215973</ele>
        <time>2022-08-06T11:22:16.000Z</time>
      </trkpt>
      <trkpt lat="49.20797" lon="-0.27543">
        <ele>36.202487</ele>
        <time>2022-08-06T11:22:17.000Z</time>
      </trkpt>
      <trkpt lat="49.208" lon="-0.27547">
        <ele>36.210529</ele>
        <time>2022-08-06T11:22:18.000Z</time>
      </trkpt>
      <trkpt lat="49.20803" lon="-0.2755">
        <ele>36.220078</ele>
        <time>2022-08-06T11:22:19.000Z</time>
      </trkpt>
      <trkpt lat="49.20806" lon="-0.27551">
        <ele>36.229859</ele>
        <time>2022-08-06T11:22:20.000Z</time>
      </trkpt>
      <trkpt lat="49.20809" lon="-0.27552">
        <ele>36.239929</ele>
        <time>2022-08-06T11:22:21.000Z</time>
      </trkpt>
      <trkpt lat="49.20812" lon="-0.27551">
        <ele>36.247221</ele>
        <time>2022-08-06T11:22:22.000Z</time>
      </trkpt>
      <trkpt lat="49.20815" lon="-0.2755">
        <ele>36.256719</ele>
        <time>2022-08-06T11:22:23.000Z</time>
      </trkpt>
      <trkpt lat="49.20818" lon="-0.27548">
        <ele>36.266006</ele>
        <time>2022-08-06T11:22:24.000Z</time>
      </trkpt>
      <trkpt lat="49.20821" lon="-0.27545">
        <ele>36.27502</ele>
        <time>2022-08-06T11:22:25.000Z</time>
      </trkpt>
      <trkpt lat="49.20822" lon="-0.27542">
        <ele>36.282587</ele>
        <time>2022-08-06T11:22:26.000Z</time>
      </trkpt>
      <trkpt lat="49.20825" lon="-0.27539">
        <ele>36.292159</ele>
        <time>2022-08-06T11:22:27.000Z</time>
      </trkpt>
      <trkpt lat="49.20827" lon="-0.27535">
        <ele>36.301398</ele>
        <time>2022-08-06T11:22:28.000Z</time>
      </trkpt>
      <trkpt lat="49.20829" lon="-0.27532">
        <ele>36.31022</ele>
        <time>2022-08-06T11:22:29.000Z</time>
      </trkpt>
      <trkpt lat="49.20831" lon="-0.27528">
        <ele>36.319525</ele>
        <time>2022-08-06T11:22:30.000Z</time>
      </trkpt>
      <trkpt lat="49.20834" lon="-0.27525">
        <ele>36.328628</ele>
        <time>2022-08-06T11:22:31.000Z</time>
      </trkpt>
      <trkpt lat="49.20836" lon="-0.27521">
        <ele>36.336873</ele>
        <time>2022-08-06T11:22:32.000Z</time>
      </trkpt>
      <trkpt lat="49.20837" lon="-0.27518">
        <ele>36.344426</ele>
        <time>2022-08-06T11:22:33.000Z</time>
      </trkpt>
      <trkpt lat="49.20838" lon="-0.27515">
        <ele>36.350713</ele>
        <time>2022-08-06T11:22:34.000Z</time>
      </trkpt>
      <trkpt lat="49.2084" lon="-0.27513">
        <ele>36.35676</ele>
        <time>2022-08-06T11:22:35.000Z</time>
      </trkpt>
      <trkpt lat="49.20842" lon="-0.27511">
        <ele>36.36257</ele>
        <time>2022-08-06T11:22:36.000Z</time>
      </trkpt>
      <trkpt lat="49.20843" lon="-0.2751">
        <ele>36.368053</ele>
        <time>2022-08-06T11:22:37.000Z</time>
      </trkpt>
      <trkpt lat="49.20845" lon="-0.27508">
        <ele>36.37398</ele>
        <time>2022-08-06T11:22:38.000Z</time>
      </trkpt>
      <trkpt lat="49.20846" lon="-0.27506">
        <ele>36.379268</ele>
        <time>2022-08-06T11:22:39.000Z</time>
      </trkpt>
      <trkpt lat="49.20847" lon="-0.27503">
        <ele>36.384618</ele>
        <time>2022-08-06T11:22:40.000Z</time>
      </trkpt>
      <trkpt lat="49.20848" lon="-0.27501">
        <ele>36.390905</ele>
        <time>2022-08-06T11:22:41.000Z</time>
      </trkpt>
      <trkpt lat="49.2085" lon="-0.27497">
        <ele>36.39915</ele>
        <time>2022-08-06T11:22:43.000Z</time>
      </trkpt>
      <trkpt lat="49.20845" lon="-0.27506">
        <ele>36.421373</ele>
        <time>2022-08-06T11:22:52.000Z</time>
      </trkpt>
      <trkpt lat="49.20844" lon="-0.27508">
        <ele>36.426541</ele>
        <time>2022-08-06T11:22:53.000Z</time>
      </trkpt>
      <trkpt lat="49.20843" lon="-0.27513">
        <ele>36.436163</ele>
        <time>2022-08-06T11:22:55.000Z</time>
      </trkpt>
      <trkpt lat="49.20842" lon="-0.27516">
        <ele>36.441658</ele>
        <time>2022-08-06T11:22:56.000Z</time>
      </trkpt>
      <trkpt lat="49.20841" lon="-0.2752">
        <ele>36.449908</ele>
        <time>2022-08-06T11:22:58.000Z</time>
      </trkpt>
      <trkpt lat="49.2084" lon="-0.27522">
        <ele>36.455609</ele>
        <time>2022-08-06T11:23:00.000Z</time>
      </trkpt>
      <trkpt lat="49.20837" lon="-0.27523">
        <ele>36.462376</ele>
        <time>2022-08-06T11:23:30.000Z</time>
      </trkpt>
      <trkpt lat="49.20835" lon="-0.27523">
        <ele>36.468732</ele>
        <time>2022-08-06T11:23:31.000Z</time>
      </trkpt>
      <trkpt lat="49.20833" lon="-0.27524">
        <ele>36.475372</ele>
        <time>2022-08-06T11:23:32.000Z</time>
      </trkpt>
      <trkpt lat="49.20831" lon="-0.27526">
        <ele>36.482226</ele>
        <time>2022-08-06T11:23:33.000Z</time>
      </trkpt>
      <trkpt lat="49.20829" lon="-0.27529">
        <ele>36.489341</ele>
        <time>2022-08-06T11:23:34.000Z</time>
      </trkpt>
      <trkpt lat="49.20828" lon="-0.27533">
        <ele>36.497502</ele>
        <time>2022-08-06T11:23:35.000Z</time>
      </trkpt>
      <trkpt lat="49.20827" lon="-0.27537">
        <ele>36.506144</ele>
        <time>2022-08-06T11:23:36.000Z</time>
      </trkpt>
      <trkpt lat="49.20826" lon="-0.27542">
        <ele>36.515054</ele>
        <time>2022-08-06T11:23:37.000Z</time>
      </trkpt>
      <trkpt lat="49.20826" lon="-0.27547">
        <ele>36.524613</ele>
        <time>2022-08-06T11:23:38.000Z</time>
      </trkpt>
      <trkpt lat="49.20827" lon="-0.27552">
        <ele>36.534414</ele>
        <time>2022-08-06T11:23:39.000Z</time>
      </trkpt>
      <trkpt lat="49.20828" lon="-0.27557">
        <ele>36.544136</ele>
        <time>2022-08-06T11:23:40.000Z</time>
      </trkpt>
      <trkpt lat="49.20829" lon="-0.27562">
        <ele>36.554403</ele>
        <time>2022-08-06T11:23:41.000Z</time>
      </trkpt>
      <trkpt lat="49.2083" lon="-0.27567">
        <ele>36.564744</ele>
        <time>2022-08-06T11:23:42.000Z</time>
      </trkpt>
      <trkpt lat="49.20832" lon="-0.27572">
        <ele>36.57518</ele>
        <time>2022-08-06T11:23:43.000Z</time>
      </trkpt>
      <trkpt lat="49.20833" lon="-0.27578">
        <ele>36.585791</ele>
        <time>2022-08-06T11:23:44.000Z</time>
      </trkpt>
      <trkpt lat="49.20834" lon="-0.27583">
        <ele>36.595874</ele>
        <time>2022-08-06T11:23:45.000Z</time>
      </trkpt>
      <trkpt lat="49.20835" lon="-0.27588">
        <ele>36.606485</ele>
        <time>2022-08-06T11:23:46.000Z</time>
      </trkpt>
      <trkpt lat="49.20836" lon="-0.27593">
        <ele>36.616568</ele>
        <time>2022-08-06T11:23:47.000Z</time>
      </trkpt>
      <trkpt lat="49.20837" lon="-0.27599">
        <ele>36.62707</ele>
        <time>2022-08-06T11:23:48.000Z</time>
      </trkpt>
      <trkpt lat="49.20837" lon="-0.27604">
        <ele>36.637337</ele>
        <time>2022-08-06T11:23:49.000Z</time>
      </trkpt>
      <trkpt lat="49.20837" lon="-0.27609">
        <ele>36.64596</ele>
        <time>2022-08-06T11:23:50.000Z</time>
      </trkpt>
      <trkpt lat="49.20838" lon="-0.27613">
        <ele>36.654339</ele>
        <time>2022-08-06T11:23:51.000Z</time>
      </trkpt>
      <trkpt lat="49.2084" lon="-0.27616">
        <ele>36.662041</ele>
        <time>2022-08-06T11:23:52.000Z</time>
      </trkpt>
      <trkpt lat="49.20842" lon="-0.27619">
        <ele>36.66923</ele>
        <time>2022-08-06T11:23:53.000Z</time>
      </trkpt>
      <trkpt lat="49.20844" lon="-0.2762">
        <ele>36.677021</ele>
        <time>2022-08-06T11:23:54.000Z</time>
      </trkpt>
      <trkpt lat="49.20846" lon="-0.2762">
        <ele>36.683358</ele>
        <time>2022-08-06T11:23:55.000Z</time>
      </trkpt>
      <trkpt lat="49.20849" lon="-0.27619">
        <ele>36.691977</ele>
        <time>2022-08-06T11:23:56.000Z</time>
      </trkpt>
      <trkpt lat="49.20852" lon="-0.27617">
        <ele>36.699047</ele>
        <time>2022-08-06T11:23:57.000Z</time>
      </trkpt>
      <trkpt lat="49.20854" lon="-0.27615">
        <ele>36.706459</ele>
        <time>2022-08-06T11:23:58.000Z</time>
      </trkpt>
      <trkpt lat="49.20856" lon="-0.27614">
        <ele>36.713159</ele>
        <time>2022-08-06T11:23:59.000Z</time>
      </trkpt>
      <trkpt lat="49.20858" lon="-0.27613">
        <ele>36.716462</ele>
        <time>2022-08-06T11:24:00.000Z</time>
      </trkpt>
      <trkpt lat="49.2086" lon="-0.27613">
        <ele>36.711557</ele>
        <time>2022-08-06T11:24:01.000Z</time>
      </trkpt>
      <trkpt lat="49.20863" lon="-0.27614">
        <ele>36.703888</ele>
        <time>2022-08-06T11:24:03.000Z</time>
      </trkpt>
      <trkpt lat="49.20864" lon="-0.27617">
        <ele>36.697679</ele>
        <time>2022-08-06T11:24:06.000Z</time>
      </trkpt>
      <trkpt lat="49.20862" lon="-0.2762">
        <ele>36.690391</ele>
        <time>2022-08-06T11:24:08.000Z</time>
      </trkpt>
      <trkpt lat="49.20859" lon="-0.27621">
        <ele>36.682722</ele>
        <time>2022-08-06T11:24:10.000Z</time>
      </trkpt>
      <trkpt lat="49.20856" lon="-0.27619">
        <ele>36.673248</ele>
        <time>2022-08-06T11:24:12.000Z</time>
      </trkpt>
      <trkpt lat="49.20854" lon="-0.27617">
        <ele>36.666444</ele>
        <time>2022-08-06T11:24:14.000Z</time>
      </trkpt>
      <trkpt lat="49.20853" lon="-0.27614">
        <ele>36.661613</ele>
        <time>2022-08-06T11:24:15.000Z</time>
      </trkpt>
      <trkpt lat="49.20854" lon="-0.27611">
        <ele>36.656452</ele>
        <time>2022-08-06T11:24:16.000Z</time>
      </trkpt>
      <trkpt lat="49.20855" lon="-0.27608">
        <ele>36.651343</ele>
        <time>2022-08-06T11:24:17.000Z</time>
      </trkpt>
      <trkpt lat="49.20858" lon="-0.27606">
        <ele>36.642293</ele>
        <time>2022-08-06T11:24:19.000Z</time>
      </trkpt>
      <trkpt lat="49.2086" lon="-0.27607">
        <ele>36.636777</ele>
        <time>2022-08-06T11:24:20.000Z</time>
      </trkpt>
      <trkpt lat="49.20862" lon="-0.2761">
        <ele>36.630221</ele>
        <time>2022-08-06T11:24:21.000Z</time>
      </trkpt>
      <trkpt lat="49.20864" lon="-0.27612">
        <ele>36.624175</ele>
        <time>2022-08-06T11:24:22.000Z</time>
      </trkpt>
      <trkpt lat="49.20865" lon="-0.27614">
        <ele>36.618789</ele>
        <time>2022-08-06T11:24:23.000Z</time>
      </trkpt>
      <trkpt lat="49.20866" lon="-0.27617">
        <ele>36.614125</ele>
        <time>2022-08-06T11:24:24.000Z</time>
      </trkpt>
      <trkpt lat="49.20865" lon="-0.27614">
        <ele>36.608837</ele>
        <time>2022-08-06T12:02:16.000Z</time>
      </trkpt>
      <trkpt lat="49.20862" lon="-0.27612">
        <ele>36.599363</ele>
        <time>2022-08-06T12:02:18.000Z</time>
      </trkpt>
      <trkpt lat="49.2086" lon="-0.27611">
        <ele>36.593757</ele>
        <time>2022-08-06T12:02:19.000Z</time>
      </trkpt>
      <trkpt lat="49.20857" lon="-0.27609">
        <ele>36.586889</ele>
        <time>2022-08-06T12:02:20.000Z</time>
      </trkpt>
      <trkpt lat="49.20855" lon="-0.27609">
        <ele>36.580106</ele>
        <time>2022-08-06T12:02:21.000Z</time>
      </trkpt>
      <trkpt lat="49.20852" lon="-0.27609">
        <ele>36.571788</ele>
        <time>2022-08-06T12:02:22.000Z</time>
      </trkpt>
      <trkpt lat="49.20848" lon="-0.27611">
        <ele>36.562315</ele>
        <time>2022-08-06T12:02:23.000Z</time>
      </trkpt>
      <trkpt lat="49.20845" lon="-0.27613">
        <ele>36.554417</ele>
        <time>2022-08-06T12:02:24.000Z</time>
      </trkpt>
      <trkpt lat="49.20842" lon="-0.27614">
        <ele>36.545917</ele>
        <time>2022-08-06T12:02:25.000Z</time>
      </trkpt>
      <trkpt lat="49.2084" lon="-0.27614">
        <ele>36.541015</ele>
        <time>2022-08-06T12:02:26.000Z</time>
      </trkpt>
      <trkpt lat="49.20838" lon="-0.27611">
        <ele>36.533186</ele>
        <time>2022-08-06T12:02:28.000Z</time>
      </trkpt>
      <trkpt lat="49.20837" lon="-0.27605">
        <ele>36.524072</ele>
        <time>2022-08-06T12:02:30.000Z</time>
      </trkpt>
      <trkpt lat="49.20837" lon="-0.27602">
        <ele>36.518678</ele>
        <time>2022-08-06T12:02:31.000Z</time>
      </trkpt>
      <trkpt lat="49.20837" lon="-0.27599">
        <ele>36.512779</ele>
        <time>2022-08-06T12:02:32.000Z</time>
      </trkpt>
      <trkpt lat="49.20837" lon="-0.27595">
        <ele>36.506037</ele>
        <time>2022-08-06T12:02:33.000Z</time>
      </trkpt>
      <trkpt lat="49.20836" lon="-0.27591">
        <ele>36.498906</ele>
        <time>2022-08-06T12:02:34.000Z</time>
      </trkpt>
      <trkpt lat="49.20836" lon="-0.27587">
        <ele>36.492414</ele>
        <time>2022-08-06T12:02:35.000Z</time>
      </trkpt>
      <trkpt lat="49.20834" lon="-0.27583">
        <ele>36.484732</ele>
        <time>2022-08-06T12:02:36.000Z</time>
      </trkpt>
      <trkpt lat="49.20833" lon="-0.27578">
        <ele>36.47654</ele>
        <time>2022-08-06T12:02:37.000Z</time>
      </trkpt>
      <trkpt lat="49.20831" lon="-0.27574">
        <ele>36.467905</ele>
        <time>2022-08-06T12:02:38.000Z</time>
      </trkpt>
      <trkpt lat="49.2083" lon="-0.27569">
        <ele>36.459302</ele>
        <time>2022-08-06T12:02:39.000Z</time>
      </trkpt>
      <trkpt lat="49.20828" lon="-0.27564">
        <ele>36.449986</ele>
        <time>2022-08-06T12:02:40.000Z</time>
      </trkpt>
      <trkpt lat="49.20827" lon="-0.2756">
        <ele>36.441693</ele>
        <time>2022-08-06T12:02:41.000Z</time>
      </trkpt>
      <trkpt lat="49.20824" lon="-0.27556">
        <ele>36.432418</ele>
        <time>2022-08-06T12:02:42.000Z</time>
      </trkpt>
      <trkpt lat="49.20822" lon="-0.27553">
        <ele>36.424011</ele>
        <time>2022-08-06T12:02:43.000Z</time>
      </trkpt>
      <trkpt lat="49.20819" lon="-0.27551">
        <ele>36.41489</ele>
        <time>2022-08-06T12:02:44.000Z</time>
      </trkpt>
      <trkpt lat="49.20815" lon="-0.2755">
        <ele>36.406591</ele>
        <time>2022-08-06T12:02:45.000Z</time>
      </trkpt>
      <trkpt lat="49.20812" lon="-0.27551">
        <ele>36.397229</ele>
        <time>2022-08-06T12:02:46.000Z</time>
      </trkpt>
      <trkpt lat="49.20809" lon="-0.27552">
        <ele>36.390238</ele>
        <time>2022-08-06T12:02:47.000Z</time>
      </trkpt>
      <trkpt lat="49.20805" lon="-0.27556">
        <ele>36.378134</ele>
        <time>2022-08-06T12:02:48.000Z</time>
      </trkpt>
      <trkpt lat="49.20802" lon="-0.27559">
        <ele>36.368453</ele>
        <time>2022-08-06T12:02:49.000Z</time>
      </trkpt>
      <trkpt lat="49.20799" lon="-0.27563">
        <ele>36.358237</ele>
        <time>2022-08-06T12:02:50.000Z</time>
      </trkpt>
      <trkpt lat="49.20797" lon="-0.27568">
        <ele>36.348641</ele>
        <time>2022-08-06T12:02:51.000Z</time>
      </trkpt>
      <trkpt lat="49.20796" lon="-0.27573">
        <ele>36.338892</ele>
        <time>2022-08-06T12:02:52.000Z</time>
      </trkpt>
      <trkpt lat="49.20794" lon="-0.27578">
        <ele>36.330134</ele>
        <time>2022-08-06T12:02:53.000Z</time>
      </trkpt>
      <trkpt lat="49.20793" lon="-0.27583">
        <ele>36.32074</ele>
        <time>2022-08-06T12:02:54.000Z</time>
      </trkpt>
      <trkpt lat="49.20792" lon="-0.27589">
        <ele>36.311198</ele>
        <time>2022-08-06T12:02:55.000Z</time>
      </trkpt>
      <trkpt lat="49.2079" lon="-0.27593">
        <ele>36.302265</ele>
        <time>2022-08-06T12:02:56.000Z</time>
      </trkpt>
      <trkpt lat="49.2079" lon="-0.27598">
        <ele>36.294524</ele>
        <time>2022-08-06T12:02:57.000Z</time>
      </trkpt>
      <trkpt lat="49.20789" lon="-0.27603">
        <ele>36.286032</ele>
        <time>2022-08-06T12:02:58.000Z</time>
      </trkpt>
      <trkpt lat="49.20788" lon="-0.27608">
        <ele>36.277219</ele>
        <time>2022-08-06T12:02:59.000Z</time>
      </trkpt>
      <trkpt lat="49.20787" lon="-0.27613">
        <ele>36.26824</ele>
        <time>2022-08-06T12:03:00.000Z</time>
      </trkpt>
      <trkpt lat="49.20786" lon="-0.27618">
        <ele>36.259104</ele>
        <time>2022-08-06T12:03:01.000Z</time>
      </trkpt>
      <trkpt lat="49.20785" lon="-0.27623">
        <ele>36.26092</ele>
        <time>2022-08-06T12:03:02.000Z</time>
      </trkpt>
      <trkpt lat="49.20784" lon="-0.27629">
        <ele>36.279441</ele>
        <time>2022-08-06T12:03:03.000Z</time>
      </trkpt>
      <trkpt lat="49.20783" lon="-0.27634">
        <ele>36.29809</ele>
        <time>2022-08-06T12:03:04.000Z</time>
      </trkpt>
      <trkpt lat="49.20781" lon="-0.27639">
        <ele>36.317838</ele>
        <time>2022-08-06T12:03:05.000Z</time>
      </trkpt>
      <trkpt lat="49.2078" lon="-0.27645">
        <ele>36.336025</ele>
        <time>2022-08-06T12:03:06.000Z</time>
      </trkpt>
      <trkpt lat="49.20778" lon="-0.2765">
        <ele>36.355097</ele>
        <time>2022-08-06T12:03:07.000Z</time>
      </trkpt>
      <trkpt lat="49.20776" lon="-0.27656">
        <ele>36.376584</ele>
        <time>2022-08-06T12:03:08.000Z</time>
      </trkpt>
      <trkpt lat="49.20774" lon="-0.27661">
        <ele>36.396549</ele>
        <time>2022-08-06T12:03:09.000Z</time>
      </trkpt>
      <trkpt lat="49.20773" lon="-0.27667">
        <ele>36.417718</ele>
        <time>2022-08-06T12:03:10.000Z</time>
      </trkpt>
      <trkpt lat="49.20771" lon="-0.27673">
        <ele>36.439499</ele>
        <time>2022-08-06T12:03:11.000Z</time>
      </trkpt>
      <trkpt lat="49.2077" lon="-0.2768">
        <ele>36.460769</ele>
        <time>2022-08-06T12:03:12.000Z</time>
      </trkpt>
      <trkpt lat="49.20768" lon="-0.27686">
        <ele>36.482549</ele>
        <time>2022-08-06T12:03:13.000Z</time>
      </trkpt>
      <trkpt lat="49.20766" lon="-0.27692">
        <ele>36.503198</ele>
        <time>2022-08-06T12:03:14.000Z</time>
      </trkpt>
      <trkpt lat="49.20765" lon="-0.27697">
        <ele>36.523764</ele>
        <time>2022-08-06T12:03:15.000Z</time>
      </trkpt>
      <trkpt lat="49.20764" lon="-0.27703">
        <ele>36.544413</ele>
        <time>2022-08-06T12:03:16.000Z</time>
      </trkpt>
      <trkpt lat="49.20762" lon="-0.27709">
        <ele>36.564678</ele>
        <time>2022-08-06T12:03:17.000Z</time>
      </trkpt>
      <trkpt lat="49.2076" lon="-0.27715">
        <ele>36.584345</ele>
        <time>2022-08-06T12:03:18.000Z</time>
      </trkpt>
      <trkpt lat="49.20759" lon="-0.2772">
        <ele>36.60461</ele>
        <time>2022-08-06T12:03:19.000Z</time>
      </trkpt>
      <trkpt lat="49.20757" lon="-0.27726">
        <ele>36.623103</ele>
        <time>2022-08-06T12:03:20.000Z</time>
      </trkpt>
      <trkpt lat="49.20756" lon="-0.27731">
        <ele>36.642045</ele>
        <time>2022-08-06T12:03:21.000Z</time>
      </trkpt>
      <trkpt lat="49.20755" lon="-0.27737">
        <ele>36.661151</ele>
        <time>2022-08-06T12:03:22.000Z</time>
      </trkpt>
      <trkpt lat="49.20754" lon="-0.27742">
        <ele>36.680256</ele>
        <time>2022-08-06T12:03:23.000Z</time>
      </trkpt>
      <trkpt lat="49.20752" lon="-0.27747">
        <ele>36.700004</ele>
        <time>2022-08-06T12:03:24.000Z</time>
      </trkpt>
      <trkpt lat="49.2075" lon="-0.27753">
        <ele>36.719373</ele>
        <time>2022-08-06T12:03:25.000Z</time>
      </trkpt>
      <trkpt lat="49.20749" lon="-0.27758">
        <ele>36.738479</ele>
        <time>2022-08-06T12:03:26.000Z</time>
      </trkpt>
      <trkpt lat="49.20748" lon="-0.27764">
        <ele>36.757016</ele>
        <time>2022-08-06T12:03:27.000Z</time>
      </trkpt>
      <trkpt lat="49.20747" lon="-0.2777">
        <ele>36.776738</ele>
        <time>2022-08-06T12:03:28.000Z</time>
      </trkpt>
      <trkpt lat="49.20746" lon="-0.27775">
        <ele>36.796332</ele>
        <time>2022-08-06T12:03:29.000Z</time>
      </trkpt>
      <trkpt lat="49.20745" lon="-0.27781">
        <ele>36.816672</ele>
        <time>2022-08-06T12:03:30.000Z</time>
      </trkpt>
      <trkpt lat="49.20744" lon="-0.27787">
        <ele>36.836145</ele>
        <time>2022-08-06T12:03:31.000Z</time>
      </trkpt>
      <trkpt lat="49.20742" lon="-0.27793">
        <ele>36.856794</ele>
        <time>2022-08-06T12:03:32.000Z</time>
      </trkpt>
      <trkpt lat="49.20741" lon="-0.27799">
        <ele>36.878575</ele>
        <time>2022-08-06T12:03:33.000Z</time>
      </trkpt>
      <trkpt lat="49.2074" lon="-0.27805">
        <ele>36.899753</ele>
        <time>2022-08-06T12:03:34.000Z</time>
      </trkpt>
      <trkpt lat="49.20738" lon="-0.2781">
        <ele>36.917028</ele>
        <time>2022-08-06T12:03:35.000Z</time>
      </trkpt>
      <trkpt lat="49.20736" lon="-0.27818">
        <ele>36.943305</ele>
        <time>2022-08-06T12:03:36.000Z</time>
      </trkpt>
      <trkpt lat="49.20735" lon="-0.27824">
        <ele>36.96551</ele>
        <time>2022-08-06T12:03:37.000Z</time>
      </trkpt>
      <trkpt lat="49.20734" lon="-0.2783">
        <ele>36.98632</ele>
        <time>2022-08-06T12:03:38.000Z</time>
      </trkpt>
      <trkpt lat="49.20732" lon="-0.27836">
        <ele>37.00749</ele>
        <time>2022-08-06T12:03:39.000Z</time>
      </trkpt>
      <trkpt lat="49.20731" lon="-0.27843">
        <ele>37.029383</ele>
        <time>2022-08-06T12:03:40.000Z</time>
      </trkpt>
      <trkpt lat="49.2073" lon="-0.27849">
        <ele>37.050561</ele>
        <time>2022-08-06T12:03:41.000Z</time>
      </trkpt>
      <trkpt lat="49.20729" lon="-0.27856">
        <ele>37.072767</ele>
        <time>2022-08-06T12:03:42.000Z</time>
      </trkpt>
      <trkpt lat="49.20728" lon="-0.27862">
        <ele>37.095111</ele>
        <time>2022-08-06T12:03:43.000Z</time>
      </trkpt>
      <trkpt lat="49.20726" lon="-0.27869">
        <ele>37.117316</ele>
        <time>2022-08-06T12:03:44.000Z</time>
      </trkpt>
      <trkpt lat="49.20725" lon="-0.27875">
        <ele>37.138898</ele>
        <time>2022-08-06T12:03:45.000Z</time>
      </trkpt>
      <trkpt lat="49.20724" lon="-0.27882">
        <ele>37.175419</ele>
        <time>2022-08-06T12:03:46.000Z</time>
      </trkpt>
      <trkpt lat="49.20723" lon="-0.27888">
        <ele>37.239979</ele>
        <time>2022-08-06T12:03:47.000Z</time>
      </trkpt>
      <trkpt lat="49.20721" lon="-0.27894">
        <ele>37.303649</ele>
        <time>2022-08-06T12:03:48.000Z</time>
      </trkpt>
      <trkpt lat="49.2072" lon="-0.279">
        <ele>37.366753</ele>
        <time>2022-08-06T12:03:49.000Z</time>
      </trkpt>
      <trkpt lat="49.20718" lon="-0.27907">
        <ele>37.430423</ele>
        <time>2022-08-06T12:03:50.000Z</time>
      </trkpt>
      <trkpt lat="49.20717" lon="-0.27913">
        <ele>37.493527</ele>
        <time>2022-08-06T12:03:51.000Z</time>
      </trkpt>
      <trkpt lat="49.20716" lon="-0.27918">
        <ele>37.545301</ele>
        <time>2022-08-06T12:03:52.000Z</time>
      </trkpt>
      <trkpt lat="49.20714" lon="-0.27926">
        <ele>37.622477</ele>
        <time>2022-08-06T12:03:53.000Z</time>
      </trkpt>
      <trkpt lat="49.20713" lon="-0.27932">
        <ele>37.687037</ele>
        <time>2022-08-06T12:03:54.000Z</time>
      </trkpt>
      <trkpt lat="49.20711" lon="-0.27938">
        <ele>37.748799</ele>
        <time>2022-08-06T12:03:55.000Z</time>
      </trkpt>
      <trkpt lat="49.2071" lon="-0.27943">
        <ele>37.798429</ele>
        <time>2022-08-06T12:03:56.000Z</time>
      </trkpt>
      <trkpt lat="49.20709" lon="-0.2795">
        <ele>37.871973</ele>
        <time>2022-08-06T12:03:57.000Z</time>
      </trkpt>
      <trkpt lat="49.20707" lon="-0.27957">
        <ele>37.935988</ele>
        <time>2022-08-06T12:03:58.000Z</time>
      </trkpt>
      <trkpt lat="49.20705" lon="-0.27963">
        <ele>38.000534</ele>
        <time>2022-08-06T12:03:59.000Z</time>
      </trkpt>
      <trkpt lat="49.20704" lon="-0.27969">
        <ele>38.064549</ele>
        <time>2022-08-06T12:04:00.000Z</time>
      </trkpt>
      <trkpt lat="49.20702" lon="-0.27975">
        <ele>38.129095</ele>
        <time>2022-08-06T12:04:01.000Z</time>
      </trkpt>
      <trkpt lat="49.20701" lon="-0.2798">
        <ele>38.180494</ele>
        <time>2022-08-06T12:04:02.000Z</time>
      </trkpt>
      <trkpt lat="49.20699" lon="-0.27987">
        <ele>38.244165</ele>
        <time>2022-08-06T12:04:03.000Z</time>
      </trkpt>
      <trkpt lat="49.20697" lon="-0.27994">
        <ele>38.32269</ele>
        <time>2022-08-06T12:04:04.000Z</time>
      </trkpt>
      <trkpt lat="49.20695" lon="-0.27999">
        <ele>38.377589</ele>
        <time>2022-08-06T12:04:05.000Z</time>
      </trkpt>
      <trkpt lat="49.20693" lon="-0.28007">
        <ele>38.461072</ele>
        <time>2022-08-06T12:04:06.000Z</time>
      </trkpt>
      <trkpt lat="49.20692" lon="-0.28013">
        <ele>38.522357</ele>
        <time>2022-08-06T12:04:07.000Z</time>
      </trkpt>
      <trkpt lat="49.2069" lon="-0.28019">
        <ele>38.577256</ele>
        <time>2022-08-06T12:04:08.000Z</time>
      </trkpt>
      <trkpt lat="49.20688" lon="-0.28025">
        <ele>38.643532</ele>
        <time>2022-08-06T12:04:09.000Z</time>
      </trkpt>
      <trkpt lat="49.20685" lon="-0.28032">
        <ele>38.726773</ele>
        <time>2022-08-06T12:04:10.000Z</time>
      </trkpt>
      <trkpt lat="49.20684" lon="-0.28039">
        <ele>38.793917</ele>
        <time>2022-08-06T12:04:11.000Z</time>
      </trkpt>
      <trkpt lat="49.20682" lon="-0.28045">
        <ele>38.858846</ele>
        <time>2022-08-06T12:04:12.000Z</time>
      </trkpt>
      <trkpt lat="49.20681" lon="-0.2805">
        <ele>38.910621</ele>
        <time>2022-08-06T12:04:13.000Z</time>
      </trkpt>
      <trkpt lat="49.20679" lon="-0.28058">
        <ele>38.99323</ele>
        <time>2022-08-06T12:04:14.000Z</time>
      </trkpt>
      <trkpt lat="49.20677" lon="-0.28064">
        <ele>39.056013</ele>
        <time>2022-08-06T12:04:15.000Z</time>
      </trkpt>
      <trkpt lat="49.20675" lon="-0.28071">
        <ele>39.123403</ele>
        <time>2022-08-06T12:04:16.000Z</time>
      </trkpt>
      <trkpt lat="49.20673" lon="-0.28077">
        <ele>39.189679</ele>
        <time>2022-08-06T12:04:17.000Z</time>
      </trkpt>
      <trkpt lat="49.20671" lon="-0.28084">
        <ele>39.260037</ele>
        <time>2022-08-06T12:04:18.000Z</time>
      </trkpt>
      <trkpt lat="49.20669" lon="-0.28091">
        <ele>39.332437</ele>
        <time>2022-08-06T12:04:19.000Z</time>
      </trkpt>
      <trkpt lat="49.20668" lon="-0.28098">
        <ele>39.405077</ele>
        <time>2022-08-06T12:04:20.000Z</time>
      </trkpt>
      <trkpt lat="49.20666" lon="-0.28105">
        <ele>39.477477</ele>
        <time>2022-08-06T12:04:21.000Z</time>
      </trkpt>
      <trkpt lat="49.20664" lon="-0.28112">
        <ele>39.549747</ele>
        <time>2022-08-06T12:04:22.000Z</time>
      </trkpt>
      <trkpt lat="49.20663" lon="-0.2812">
        <ele>39.625105</ele>
        <time>2022-08-06T12:04:23.000Z</time>
      </trkpt>
      <trkpt lat="49.20661" lon="-0.28127">
        <ele>39.698649</ele>
        <time>2022-08-06T12:04:24.000Z</time>
      </trkpt>
      <trkpt lat="49.2066" lon="-0.28134">
        <ele>39.770544</ele>
        <time>2022-08-06T12:04:25.000Z</time>
      </trkpt>
      <trkpt lat="49.20659" lon="-0.28142">
        <ele>39.796075</ele>
        <time>2022-08-06T12:04:26.000Z</time>
      </trkpt>
      <trkpt lat="49.20658" lon="-0.2815">
        <ele>39.812356</ele>
        <time>2022-08-06T12:04:27.000Z</time>
      </trkpt>
      <trkpt lat="49.20657" lon="-0.28157">
        <ele>39.827845</ele>
        <time>2022-08-06T12:04:28.000Z</time>
      </trkpt>
      <trkpt lat="49.20656" lon="-0.28165">
        <ele>39.843975</ele>
        <time>2022-08-06T12:04:29.000Z</time>
      </trkpt>
      <trkpt lat="49.20656" lon="-0.28173">
        <ele>39.859866</ele>
        <time>2022-08-06T12:04:30.000Z</time>
      </trkpt>
      <trkpt lat="49.20655" lon="-0.28181">
        <ele>39.876079</ele>
        <time>2022-08-06T12:04:31.000Z</time>
      </trkpt>
      <trkpt lat="49.20655" lon="-0.28189">
        <ele>39.891909</ele>
        <time>2022-08-06T12:04:32.000Z</time>
      </trkpt>
      <trkpt lat="49.20655" lon="-0.28197">
        <ele>39.907893</ele>
        <time>2022-08-06T12:04:33.000Z</time>
      </trkpt>
      <trkpt lat="49.20656" lon="-0.28205">
        <ele>39.924224</ele>
        <time>2022-08-06T12:04:34.000Z</time>
      </trkpt>
      <trkpt lat="49.20656" lon="-0.28213">
        <ele>39.940115</ele>
        <time>2022-08-06T12:04:35.000Z</time>
      </trkpt>
      <trkpt lat="49.20656" lon="-0.28219">
        <ele>39.953266</ele>
        <time>2022-08-06T12:04:36.000Z</time>
      </trkpt>
      <trkpt lat="49.20655" lon="-0.28228">
        <ele>39.972288</ele>
        <time>2022-08-06T12:04:37.000Z</time>
      </trkpt>
      <trkpt lat="49.20653" lon="-0.28236">
        <ele>39.988678</ele>
        <time>2022-08-06T12:04:38.000Z</time>
      </trkpt>
      <trkpt lat="49.20651" lon="-0.28243">
        <ele>40.005713</ele>
        <time>2022-08-06T12:04:39.000Z</time>
      </trkpt>
      <trkpt lat="49.20648" lon="-0.28251">
        <ele>40.023668</ele>
        <time>2022-08-06T12:04:40.000Z</time>
      </trkpt>
      <trkpt lat="49.20645" lon="-0.28258">
        <ele>40.040954</ele>
        <time>2022-08-06T12:04:41.000Z</time>
      </trkpt>
      <trkpt lat="49.20641" lon="-0.28265">
        <ele>40.058789</ele>
        <time>2022-08-06T12:04:42.000Z</time>
      </trkpt>
      <trkpt lat="49.20637" lon="-0.28272">
        <ele>40.077557</ele>
        <time>2022-08-06T12:04:43.000Z</time>
      </trkpt>
      <trkpt lat="49.20634" lon="-0.28279">
        <ele>40.095391</ele>
        <time>2022-08-06T12:04:44.000Z</time>
      </trkpt>
      <trkpt lat="49.2063" lon="-0.28286">
        <ele>40.11301</ele>
        <time>2022-08-06T12:04:45.000Z</time>
      </trkpt>
      <trkpt lat="49.20627" lon="-0.28292">
        <ele>40.128681</ele>
        <time>2022-08-06T12:04:46.000Z</time>
      </trkpt>
      <trkpt lat="49.20623" lon="-0.283">
        <ele>40.149923</ele>
        <time>2022-08-06T12:04:47.000Z</time>
      </trkpt>
      <trkpt lat="49.20619" lon="-0.28307">
        <ele>40.168182</ele>
        <time>2022-08-06T12:04:48.000Z</time>
      </trkpt>
      <trkpt lat="49.20615" lon="-0.28314">
        <ele>40.18583</ele>
        <time>2022-08-06T12:04:49.000Z</time>
      </trkpt>
      <trkpt lat="49.20612" lon="-0.2832">
        <ele>40.203835</ele>
        <time>2022-08-06T12:04:50.000Z</time>
      </trkpt>
      <trkpt lat="49.20608" lon="-0.28327">
        <ele>40.222094</ele>
        <time>2022-08-06T12:04:51.000Z</time>
      </trkpt>
      <trkpt lat="49.20604" lon="-0.28334">
        <ele>40.23995</ele>
        <time>2022-08-06T12:04:52.000Z</time>
      </trkpt>
      <trkpt lat="49.206" lon="-0.2834">
        <ele>40.257598</ele>
        <time>2022-08-06T12:04:53.000Z</time>
      </trkpt>
      <trkpt lat="49.20596" lon="-0.28347">
        <ele>40.276095</ele>
        <time>2022-08-06T12:04:54.000Z</time>
      </trkpt>
      <trkpt lat="49.20592" lon="-0.28353">
        <ele>40.294087</ele>
        <time>2022-08-06T12:04:55.000Z</time>
      </trkpt>
      <trkpt lat="49.20588" lon="-0.2836">
        <ele>40.312584</ele>
        <time>2022-08-06T12:04:56.000Z</time>
      </trkpt>
      <trkpt lat="49.20584" lon="-0.28366">
        <ele>40.329932</ele>
        <time>2022-08-06T12:04:57.000Z</time>
      </trkpt>
      <trkpt lat="49.20579" lon="-0.28372">
        <ele>40.341223</ele>
        <time>2022-08-06T12:04:58.000Z</time>
      </trkpt>
      <trkpt lat="49.20574" lon="-0.28377">
        <ele>40.345212</ele>
        <time>2022-08-06T12:04:59.000Z</time>
      </trkpt>
      <trkpt lat="49.20569" lon="-0.28383">
        <ele>40.349045</ele>
        <time>2022-08-06T12:05:00.000Z</time>
      </trkpt>
      <trkpt lat="49.20564" lon="-0.28388">
        <ele>40.352963</ele>
        <time>2022-08-06T12:05:01.000Z</time>
      </trkpt>
      <trkpt lat="49.20559" lon="-0.28393">
        <ele>40.356845</ele>
        <time>2022-08-06T12:05:02.000Z</time>
      </trkpt>
      <trkpt lat="49.20554" lon="-0.28397">
        <ele>40.360718</ele>
        <time>2022-08-06T12:05:03.000Z</time>
      </trkpt>
      <trkpt lat="49.20548" lon="-0.28401">
        <ele>40.364554</ele>
        <time>2022-08-06T12:05:04.000Z</time>
      </trkpt>
      <trkpt lat="49.20543" lon="-0.28405">
        <ele>40.368238</ele>
        <time>2022-08-06T12:05:05.000Z</time>
      </trkpt>
      <trkpt lat="49.20538" lon="-0.28408">
        <ele>40.371864</ele>
        <time>2022-08-06T12:05:06.000Z</time>
      </trkpt>
      <trkpt lat="49.20533" lon="-0.28412">
        <ele>40.375681</ele>
        <time>2022-08-06T12:05:07.000Z</time>
      </trkpt>
      <trkpt lat="49.20528" lon="-0.28416">
        <ele>40.379136</ele>
        <time>2022-08-06T12:05:08.000Z</time>
      </trkpt>
      <trkpt lat="49.20523" lon="-0.2842">
        <ele>40.382763</ele>
        <time>2022-08-06T12:05:09.000Z</time>
      </trkpt>
      <trkpt lat="49.20517" lon="-0.28423">
        <ele>40.386395</ele>
        <time>2022-08-06T12:05:10.000Z</time>
      </trkpt>
      <trkpt lat="49.20512" lon="-0.28427">
        <ele>40.390212</ele>
        <time>2022-08-06T12:05:11.000Z</time>
      </trkpt>
      <trkpt lat="49.20507" lon="-0.28431">
        <ele>40.394066</ele>
        <time>2022-08-06T12:05:12.000Z</time>
      </trkpt>
      <trkpt lat="49.20502" lon="-0.28436">
        <ele>40.397601</ele>
        <time>2022-08-06T12:05:13.000Z</time>
      </trkpt>
      <trkpt lat="49.20497" lon="-0.2844">
        <ele>40.40136</ele>
        <time>2022-08-06T12:05:14.000Z</time>
      </trkpt>
      <trkpt lat="49.20492" lon="-0.28444">
        <ele>40.404874</ele>
        <time>2022-08-06T12:05:15.000Z</time>
      </trkpt>
      <trkpt lat="49.20487" lon="-0.28448">
        <ele>40.408617</ele>
        <time>2022-08-06T12:05:16.000Z</time>
      </trkpt>
      <trkpt lat="49.20481" lon="-0.28453">
        <ele>40.412737</ele>
        <time>2022-08-06T12:05:17.000Z</time>
      </trkpt>
      <trkpt lat="49.20476" lon="-0.28458">
        <ele>40.416546</ele>
        <time>2022-08-06T12:05:18.000Z</time>
      </trkpt>
      <trkpt lat="49.20472" lon="-0.28464">
        <ele>40.420307</ele>
        <time>2022-08-06T12:05:19.000Z</time>
      </trkpt>
      <trkpt lat="49.20468" lon="-0.2847">
        <ele>40.42398</ele>
        <time>2022-08-06T12:05:20.000Z</time>
      </trkpt>
      <trkpt lat="49.20463" lon="-0.28477">
        <ele>40.427936</ele>
        <time>2022-08-06T12:05:21.000Z</time>
      </trkpt>
      <trkpt lat="49.2046" lon="-0.28484">
        <ele>40.431505</ele>
        <time>2022-08-06T12:05:22.000Z</time>
      </trkpt>
      <trkpt lat="49.20457" lon="-0.28491">
        <ele>40.435246</ele>
        <time>2022-08-06T12:05:23.000Z</time>
      </trkpt>
      <trkpt lat="49.20454" lon="-0.28499">
        <ele>40.438838</ele>
        <time>2022-08-06T12:05:24.000Z</time>
      </trkpt>
      <trkpt lat="49.20452" lon="-0.28507">
        <ele>40.442489</ele>
        <time>2022-08-06T12:05:25.000Z</time>
      </trkpt>
      <trkpt lat="49.2045" lon="-0.28515">
        <ele>40.446045</ele>
        <time>2022-08-06T12:05:26.000Z</time>
      </trkpt>
      <trkpt lat="49.20449" lon="-0.28523">
        <ele>40.449436</ele>
        <time>2022-08-06T12:05:27.000Z</time>
      </trkpt>
      <trkpt lat="49.20448" lon="-0.2853">
        <ele>40.452642</ele>
        <time>2022-08-06T12:05:28.000Z</time>
      </trkpt>
      <trkpt lat="49.20448" lon="-0.28537">
        <ele>40.455313</ele>
        <time>2022-08-06T12:05:29.000Z</time>
      </trkpt>
      <trkpt lat="49.20449" lon="-0.28543">
        <ele>40.457611</ele>
        <time>2022-08-06T12:05:30.000Z</time>
      </trkpt>
      <trkpt lat="49.20449" lon="-0.28549">
        <ele>40.459758</ele>
        <time>2022-08-06T12:05:31.000Z</time>
      </trkpt>
      <trkpt lat="49.20449" lon="-0.28555">
        <ele>40.461772</ele>
        <time>2022-08-06T12:05:32.000Z</time>
      </trkpt>
      <trkpt lat="49.2045" lon="-0.2856">
        <ele>40.463694</ele>
        <time>2022-08-06T12:05:33.000Z</time>
      </trkpt>
      <trkpt lat="49.20451" lon="-0.28564">
        <ele>40.465451</ele>
        <time>2022-08-06T12:05:34.000Z</time>
      </trkpt>
      <trkpt lat="49.20453" lon="-0.28568">
        <ele>40.466916</ele>
        <time>2022-08-06T12:05:35.000Z</time>
      </trkpt>
      <trkpt lat="49.20454" lon="-0.28571">
        <ele>40.468226</ele>
        <time>2022-08-06T12:05:36.000Z</time>
      </trkpt>
      <trkpt lat="49.20455" lon="-0.28574">
        <ele>40.469538</ele>
        <time>2022-08-06T12:05:38.000Z</time>
      </trkpt>
      <trkpt lat="49.20463" lon="-0.28582">
        <ele>40.4749</ele>
        <time>2022-08-06T12:05:53.000Z</time>
      </trkpt>
      <trkpt lat="49.20466" lon="-0.28584">
        <ele>40.476869</ele>
        <time>2022-08-06T12:05:54.000Z</time>
      </trkpt>
      <trkpt lat="49.2047" lon="-0.28587">
        <ele>40.479102</ele>
        <time>2022-08-06T12:05:55.000Z</time>
      </trkpt>
      <trkpt lat="49.20472" lon="-0.2859">
        <ele>40.480917</ele>
        <time>2022-08-06T12:05:56.000Z</time>
      </trkpt>
      <trkpt lat="49.20475" lon="-0.28594">
        <ele>40.48297</ele>
        <time>2022-08-06T12:05:57.000Z</time>
      </trkpt>
      <trkpt lat="49.20477" lon="-0.28599">
        <ele>40.485261</ele>
        <time>2022-08-06T12:05:58.000Z</time>
      </trkpt>
      <trkpt lat="49.20479" lon="-0.28605">
        <ele>40.487424</ele>
        <time>2022-08-06T12:05:59.000Z</time>
      </trkpt>
      <trkpt lat="49.2048" lon="-0.28611">
        <ele>40.489951</ele>
        <time>2022-08-06T12:06:00.000Z</time>
      </trkpt>
      <trkpt lat="49.20481" lon="-0.28618">
        <ele>40.492528</ele>
        <time>2022-08-06T12:06:01.000Z</time>
      </trkpt>
      <trkpt lat="49.20482" lon="-0.28626">
        <ele>40.495267</ele>
        <time>2022-08-06T12:06:02.000Z</time>
      </trkpt>
      <trkpt lat="49.20483" lon="-0.28633">
        <ele>40.497981</ele>
        <time>2022-08-06T12:06:03.000Z</time>
      </trkpt>
      <trkpt lat="49.20484" lon="-0.2864">
        <ele>40.5007</ele>
        <time>2022-08-06T12:06:04.000Z</time>
      </trkpt>
      <trkpt lat="49.20487" lon="-0.28647">
        <ele>40.503444</ele>
        <time>2022-08-06T12:06:05.000Z</time>
      </trkpt>
      <trkpt lat="49.20489" lon="-0.28654">
        <ele>40.506311</ele>
        <time>2022-08-06T12:06:06.000Z</time>
      </trkpt>
      <trkpt lat="49.20492" lon="-0.2866">
        <ele>40.509056</ele>
        <time>2022-08-06T12:06:07.000Z</time>
      </trkpt>
      <trkpt lat="49.20495" lon="-0.28667">
        <ele>40.51192</ele>
        <time>2022-08-06T12:06:08.000Z</time>
      </trkpt>
      <trkpt lat="49.20496" lon="-0.28674">
        <ele>40.514619</ele>
        <time>2022-08-06T12:06:09.000Z</time>
      </trkpt>
      <trkpt lat="49.20498" lon="-0.28681">
        <ele>40.517337</ele>
        <time>2022-08-06T12:06:10.000Z</time>
      </trkpt>
      <trkpt lat="49.20498" lon="-0.28688">
        <ele>40.520107</ele>
        <time>2022-08-06T12:06:11.000Z</time>
      </trkpt>
      <trkpt lat="49.20498" lon="-0.28697">
        <ele>40.523096</ele>
        <time>2022-08-06T12:06:12.000Z</time>
      </trkpt>
      <trkpt lat="49.20496" lon="-0.28705">
        <ele>40.52621</ele>
        <time>2022-08-06T12:06:13.000Z</time>
      </trkpt>
      <trkpt lat="49.20494" lon="-0.28713">
        <ele>40.529289</ele>
        <time>2022-08-06T12:06:14.000Z</time>
      </trkpt>
      <trkpt lat="49.20492" lon="-0.28721">
        <ele>40.532348</ele>
        <time>2022-08-06T12:06:15.000Z</time>
      </trkpt>
      <trkpt lat="49.20489" lon="-0.28728">
        <ele>40.535364</ele>
        <time>2022-08-06T12:06:16.000Z</time>
      </trkpt>
      <trkpt lat="49.20486" lon="-0.28735">
        <ele>40.538441</ele>
        <time>2022-08-06T12:06:17.000Z</time>
      </trkpt>
      <trkpt lat="49.20484" lon="-0.28742">
        <ele>40.541467</ele>
        <time>2022-08-06T12:06:18.000Z</time>
      </trkpt>
      <trkpt lat="49.20481" lon="-0.28749">
        <ele>40.544547</ele>
        <time>2022-08-06T12:06:19.000Z</time>
      </trkpt>
      <trkpt lat="49.20478" lon="-0.28756">
        <ele>40.547477</ele>
        <time>2022-08-06T12:06:20.000Z</time>
      </trkpt>
      <trkpt lat="49.20476" lon="-0.28763">
        <ele>40.550402</ele>
        <time>2022-08-06T12:06:21.000Z</time>
      </trkpt>
      <trkpt lat="49.20473" lon="-0.2877">
        <ele>40.553241</ele>
        <time>2022-08-06T12:06:22.000Z</time>
      </trkpt>
      <trkpt lat="49.20471" lon="-0.28777">
        <ele>40.572154</ele>
        <time>2022-08-06T12:06:23.000Z</time>
      </trkpt>
      <trkpt lat="49.20469" lon="-0.28784">
        <ele>40.60829</ele>
        <time>2022-08-06T12:06:24.000Z</time>
      </trkpt>
      <trkpt lat="49.20466" lon="-0.28791">
        <ele>40.645993</ele>
        <time>2022-08-06T12:06:25.000Z</time>
      </trkpt>
      <trkpt lat="49.20464" lon="-0.28799">
        <ele>40.684284</ele>
        <time>2022-08-06T12:06:26.000Z</time>
      </trkpt>
      <trkpt lat="49.20462" lon="-0.28807">
        <ele>40.723883</ele>
        <time>2022-08-06T12:06:27.000Z</time>
      </trkpt>
      <trkpt lat="49.20461" lon="-0.28815">
        <ele>40.764358</ele>
        <time>2022-08-06T12:06:28.000Z</time>
      </trkpt>
      <trkpt lat="49.2046" lon="-0.28823">
        <ele>40.802707</ele>
        <time>2022-08-06T12:06:29.000Z</time>
      </trkpt>
      <trkpt lat="49.20458" lon="-0.28831">
        <ele>40.842866</ele>
        <time>2022-08-06T12:06:30.000Z</time>
      </trkpt>
      <trkpt lat="49.20457" lon="-0.2884">
        <ele>40.883321</ele>
        <time>2022-08-06T12:06:31.000Z</time>
      </trkpt>
      <trkpt lat="49.20457" lon="-0.28848">
        <ele>40.923431</ele>
        <time>2022-08-06T12:06:32.000Z</time>
      </trkpt>
      <trkpt lat="49.20456" lon="-0.28856">
        <ele>40.960709</ele>
        <time>2022-08-06T12:06:33.000Z</time>
      </trkpt>
      <trkpt lat="49.20456" lon="-0.28864">
        <ele>40.99817</ele>
        <time>2022-08-06T12:06:34.000Z</time>
      </trkpt>
      <trkpt lat="49.20454" lon="-0.28872">
        <ele>41.036521</ele>
        <time>2022-08-06T12:06:35.000Z</time>
      </trkpt>
      <trkpt lat="49.20453" lon="-0.2888">
        <ele>41.074871</ele>
        <time>2022-08-06T12:06:36.000Z</time>
      </trkpt>
      <trkpt lat="49.20453" lon="-0.28889">
        <ele>41.113257</ele>
        <time>2022-08-06T12:06:37.000Z</time>
      </trkpt>
      <trkpt lat="49.20452" lon="-0.28897">
        <ele>41.151464</ele>
        <time>2022-08-06T12:06:38.000Z</time>
      </trkpt>
      <trkpt lat="49.20452" lon="-0.28905">
        <ele>41.189254</ele>
        <time>2022-08-06T12:06:39.000Z</time>
      </trkpt>
      <trkpt lat="49.20452" lon="-0.28913">
        <ele>41.227507</ele>
        <time>2022-08-06T12:06:40.000Z</time>
      </trkpt>
      <trkpt lat="49.20452" lon="-0.28921">
        <ele>41.263794</ele>
        <time>2022-08-06T12:06:41.000Z</time>
      </trkpt>
      <trkpt lat="49.20453" lon="-0.28929">
        <ele>41.300607</ele>
        <time>2022-08-06T12:06:42.000Z</time>
      </trkpt>
      <trkpt lat="49.20453" lon="-0.28936">
        <ele>41.333912</ele>
        <time>2022-08-06T12:06:43.000Z</time>
      </trkpt>
      <trkpt lat="49.20454" lon="-0.28943">
        <ele>41.367776</ele>
        <time>2022-08-06T12:06:44.000Z</time>
      </trkpt>
      <trkpt lat="49.20454" lon="-0.2895">
        <ele>41.40134</ele>
        <time>2022-08-06T12:06:45.000Z</time>
      </trkpt>
      <trkpt lat="49.20455" lon="-0.28958">
        <ele>41.435568</ele>
        <time>2022-08-06T12:06:46.000Z</time>
      </trkpt>
      <trkpt lat="49.20455" lon="-0.28965">
        <ele>41.470458</ele>
        <time>2022-08-06T12:06:47.000Z</time>
      </trkpt>
      <trkpt lat="49.20455" lon="-0.28972">
        <ele>41.504022</ele>
        <time>2022-08-06T12:06:48.000Z</time>
      </trkpt>
      <trkpt lat="49.20456" lon="-0.2898">
        <ele>41.539267</ele>
        <time>2022-08-06T12:06:49.000Z</time>
      </trkpt>
      <trkpt lat="49.20456" lon="-0.28987">
        <ele>41.574223</ele>
        <time>2022-08-06T12:06:50.000Z</time>
      </trkpt>
      <trkpt lat="49.20456" lon="-0.28995">
        <ele>41.611501</ele>
        <time>2022-08-06T12:06:51.000Z</time>
      </trkpt>
      <trkpt lat="49.20457" lon="-0.29003">
        <ele>41.646921</ele>
        <time>2022-08-06T12:06:52.000Z</time>
      </trkpt>
      <trkpt lat="49.20457" lon="-0.29011">
        <ele>41.684247</ele>
        <time>2022-08-06T12:06:53.000Z</time>
      </trkpt>
      <trkpt lat="49.20458" lon="-0.29019">
        <ele>41.721246</ele>
        <time>2022-08-06T12:06:54.000Z</time>
      </trkpt>
      <trkpt lat="49.20458" lon="-0.29027">
        <ele>41.757532</ele>
        <time>2022-08-06T12:06:55.000Z</time>
      </trkpt>
      <trkpt lat="49.20458" lon="-0.29034">
        <ele>41.793882</ele>
        <time>2022-08-06T12:06:56.000Z</time>
      </trkpt>
      <trkpt lat="49.20458" lon="-0.29043">
        <ele>41.832089</ele>
        <time>2022-08-06T12:06:57.000Z</time>
      </trkpt>
      <trkpt lat="49.20459" lon="-0.29051">
        <ele>41.848295</ele>
        <time>2022-08-06T12:06:58.000Z</time>
      </trkpt>
      <trkpt lat="49.2046" lon="-0.29059">
        <ele>41.862676</ele>
        <time>2022-08-06T12:06:59.000Z</time>
      </trkpt>
      <trkpt lat="49.2046" lon="-0.29066">
        <ele>41.876623</ele>
        <time>2022-08-06T12:07:00.000Z</time>
      </trkpt>
      <trkpt lat="49.20461" lon="-0.29074">
        <ele>41.890288</ele>
        <time>2022-08-06T12:07:01.000Z</time>
      </trkpt>
      <trkpt lat="49.20461" lon="-0.29082">
        <ele>41.903929</ele>
        <time>2022-08-06T12:07:02.000Z</time>
      </trkpt>
      <trkpt lat="49.20461" lon="-0.29089">
        <ele>41.917417</ele>
        <time>2022-08-06T12:07:03.000Z</time>
      </trkpt>
      <trkpt lat="49.20461" lon="-0.29097">
        <ele>41.931589</ele>
        <time>2022-08-06T12:07:04.000Z</time>
      </trkpt>
      <trkpt lat="49.20461" lon="-0.29106">
        <ele>41.946138</ele>
        <time>2022-08-06T12:07:05.000Z</time>
      </trkpt>
      <trkpt lat="49.20461" lon="-0.29114">
        <ele>41.960311</ele>
        <time>2022-08-06T12:07:06.000Z</time>
      </trkpt>
      <trkpt lat="49.2046" lon="-0.29122">
        <ele>41.97496</ele>
        <time>2022-08-06T12:07:07.000Z</time>
      </trkpt>
      <trkpt lat="49.2046" lon="-0.2913">
        <ele>41.989333</ele>
        <time>2022-08-06T12:07:08.000Z</time>
      </trkpt>
      <trkpt lat="49.20459" lon="-0.29138">
        <ele>42.003598</ele>
        <time>2022-08-06T12:07:09.000Z</time>
      </trkpt>
      <trkpt lat="49.20459" lon="-0.29146">
        <ele>42.018479</ele>
        <time>2022-08-06T12:07:10.000Z</time>
      </trkpt>
      <trkpt lat="49.20459" lon="-0.29154">
        <ele>42.032851</ele>
        <time>2022-08-06T12:07:11.000Z</time>
      </trkpt>
      <trkpt lat="49.20458" lon="-0.29163">
        <ele>42.047418</ele>
        <time>2022-08-06T12:07:12.000Z</time>
      </trkpt>
      <trkpt lat="49.20458" lon="-0.29171">
        <ele>42.061967</ele>
        <time>2022-08-06T12:07:13.000Z</time>
      </trkpt>
      <trkpt lat="49.20458" lon="-0.29179">
        <ele>42.076317</ele>
        <time>2022-08-06T12:07:14.000Z</time>
      </trkpt>
      <trkpt lat="49.20458" lon="-0.29186">
        <ele>42.089603</ele>
        <time>2022-08-06T12:07:15.000Z</time>
      </trkpt>
      <trkpt lat="49.20457" lon="-0.29196">
        <ele>42.106608</ele>
        <time>2022-08-06T12:07:16.000Z</time>
      </trkpt>
      <trkpt lat="49.20456" lon="-0.29205">
        <ele>42.122489</ele>
        <time>2022-08-06T12:07:17.000Z</time>
      </trkpt>
      <trkpt lat="49.20456" lon="-0.29213">
        <ele>42.137192</ele>
        <time>2022-08-06T12:07:18.000Z</time>
      </trkpt>
      <trkpt lat="49.20456" lon="-0.29221">
        <ele>42.151719</ele>
        <time>2022-08-06T12:07:19.000Z</time>
      </trkpt>
      <trkpt lat="49.20456" lon="-0.29229">
        <ele>42.166091</ele>
        <time>2022-08-06T12:07:20.000Z</time>
      </trkpt>
      <trkpt lat="49.20455" lon="-0.29238">
        <ele>42.180868</ele>
        <time>2022-08-06T12:07:21.000Z</time>
      </trkpt>
      <trkpt lat="49.20455" lon="-0.29246">
        <ele>42.195064</ele>
        <time>2022-08-06T12:07:22.000Z</time>
      </trkpt>
      <trkpt lat="49.20454" lon="-0.29254">
        <ele>42.209681</ele>
        <time>2022-08-06T12:07:23.000Z</time>
      </trkpt>
      <trkpt lat="49.20453" lon="-0.29261">
        <ele>42.223415</ele>
        <time>2022-08-06T12:07:24.000Z</time>
      </trkpt>
      <trkpt lat="49.20452" lon="-0.29269">
        <ele>42.236924</ele>
        <time>2022-08-06T12:07:25.000Z</time>
      </trkpt>
      <trkpt lat="49.20451" lon="-0.29276">
        <ele>42.250732</ele>
        <time>2022-08-06T12:07:26.000Z</time>
      </trkpt>
      <trkpt lat="49.20449" lon="-0.29284">
        <ele>42.265576</ele>
        <time>2022-08-06T12:07:27.000Z</time>
      </trkpt>
      <trkpt lat="49.20447" lon="-0.29292">
        <ele>42.280397</ele>
        <time>2022-08-06T12:07:28.000Z</time>
      </trkpt>
      <trkpt lat="49.20446" lon="-0.293">
        <ele>42.294663</ele>
        <time>2022-08-06T12:07:29.000Z</time>
      </trkpt>
      <trkpt lat="49.20446" lon="-0.29309">
        <ele>42.309721</ele>
        <time>2022-08-06T12:07:30.000Z</time>
      </trkpt>
      <trkpt lat="49.20446" lon="-0.29317">
        <ele>42.317324</ele>
        <time>2022-08-06T12:07:31.000Z</time>
      </trkpt>
      <trkpt lat="49.20446" lon="-0.29326">
        <ele>42.268993</ele>
        <time>2022-08-06T12:07:32.000Z</time>
      </trkpt>
      <trkpt lat="49.20447" lon="-0.29335">
        <ele>42.220108</ele>
        <time>2022-08-06T12:07:33.000Z</time>
      </trkpt>
      <trkpt lat="49.20447" lon="-0.29343">
        <ele>42.171223</ele>
        <time>2022-08-06T12:07:34.000Z</time>
      </trkpt>
      <trkpt lat="49.20447" lon="-0.29352">
        <ele>42.124069</ele>
        <time>2022-08-06T12:07:35.000Z</time>
      </trkpt>
      <trkpt lat="49.20448" lon="-0.2936">
        <ele>42.076542</ele>
        <time>2022-08-06T12:07:36.000Z</time>
      </trkpt>
      <trkpt lat="49.20448" lon="-0.29369">
        <ele>42.029319</ele>
        <time>2022-08-06T12:07:37.000Z</time>
      </trkpt>
      <trkpt lat="49.20448" lon="-0.29378">
        <ele>41.979946</ele>
        <time>2022-08-06T12:07:38.000Z</time>
      </trkpt>
      <trkpt lat="49.20447" lon="-0.29387">
        <ele>41.930395</ele>
        <time>2022-08-06T12:07:39.000Z</time>
      </trkpt>
      <trkpt lat="49.20447" lon="-0.29395">
        <ele>41.883172</ele>
        <time>2022-08-06T12:07:40.000Z</time>
      </trkpt>
      <trkpt lat="49.20446" lon="-0.29403">
        <ele>41.837397</ele>
        <time>2022-08-06T12:07:41.000Z</time>
      </trkpt>
      <trkpt lat="49.20444" lon="-0.29411">
        <ele>41.790176</ele>
        <time>2022-08-06T12:07:42.000Z</time>
      </trkpt>
      <trkpt lat="49.20442" lon="-0.29419">
        <ele>41.743711</ele>
        <time>2022-08-06T12:07:43.000Z</time>
      </trkpt>
      <trkpt lat="49.2044" lon="-0.29427">
        <ele>41.697089</ele>
        <time>2022-08-06T12:07:44.000Z</time>
      </trkpt>
      <trkpt lat="49.20438" lon="-0.29435">
        <ele>41.649082</ele>
        <time>2022-08-06T12:07:45.000Z</time>
      </trkpt>
      <trkpt lat="49.20436" lon="-0.29443">
        <ele>41.599245</ele>
        <time>2022-08-06T12:07:46.000Z</time>
      </trkpt>
      <trkpt lat="49.20435" lon="-0.29452">
        <ele>41.549105</ele>
        <time>2022-08-06T12:07:47.000Z</time>
      </trkpt>
      <trkpt lat="49.20433" lon="-0.29461">
        <ele>41.498432</ele>
        <time>2022-08-06T12:07:48.000Z</time>
      </trkpt>
      <trkpt lat="49.20431" lon="-0.29469">
        <ele>41.44936</ele>
        <time>2022-08-06T12:07:49.000Z</time>
      </trkpt>
      <trkpt lat="49.2043" lon="-0.29478">
        <ele>41.398767</ele>
        <time>2022-08-06T12:07:50.000Z</time>
      </trkpt>
      <trkpt lat="49.20429" lon="-0.29487">
        <ele>41.349798</ele>
        <time>2022-08-06T12:07:51.000Z</time>
      </trkpt>
      <trkpt lat="49.20427" lon="-0.29496">
        <ele>41.298055</ele>
        <time>2022-08-06T12:07:52.000Z</time>
      </trkpt>
      <trkpt lat="49.20426" lon="-0.29505">
        <ele>41.244752</ele>
        <time>2022-08-06T12:07:53.000Z</time>
      </trkpt>
      <trkpt lat="49.20424" lon="-0.29515">
        <ele>41.191401</ele>
        <time>2022-08-06T12:07:54.000Z</time>
      </trkpt>
      <trkpt lat="49.20423" lon="-0.29524">
        <ele>41.13805</ele>
        <time>2022-08-06T12:07:55.000Z</time>
      </trkpt>
      <trkpt lat="49.20421" lon="-0.29533">
        <ele>41.086307</ele>
        <time>2022-08-06T12:07:56.000Z</time>
      </trkpt>
      <trkpt lat="49.20419" lon="-0.29542">
        <ele>41.031721</ele>
        <time>2022-08-06T12:07:57.000Z</time>
      </trkpt>
      <trkpt lat="49.20418" lon="-0.29552">
        <ele>40.978961</ele>
        <time>2022-08-06T12:07:58.000Z</time>
      </trkpt>
      <trkpt lat="49.20416" lon="-0.29561">
        <ele>40.92561</ele>
        <time>2022-08-06T12:07:59.000Z</time>
      </trkpt>
      <trkpt lat="49.20415" lon="-0.2957">
        <ele>40.874401</ele>
        <time>2022-08-06T12:08:00.000Z</time>
      </trkpt>
      <trkpt lat="49.20413" lon="-0.29579">
        <ele>40.823267</ele>
        <time>2022-08-06T12:08:01.000Z</time>
      </trkpt>
      <trkpt lat="49.20413" lon="-0.29588">
        <ele>40.766201</ele>
        <time>2022-08-06T12:08:02.000Z</time>
      </trkpt>
      <trkpt lat="49.20413" lon="-0.29597">
        <ele>40.700435</ele>
        <time>2022-08-06T12:08:03.000Z</time>
      </trkpt>
      <trkpt lat="49.20413" lon="-0.29606">
        <ele>40.632501</ele>
        <time>2022-08-06T12:08:04.000Z</time>
      </trkpt>
      <trkpt lat="49.20413" lon="-0.29615">
        <ele>40.567373</ele>
        <time>2022-08-06T12:08:05.000Z</time>
      </trkpt>
      <trkpt lat="49.20413" lon="-0.29624">
        <ele>40.507297</ele>
        <time>2022-08-06T12:08:06.000Z</time>
      </trkpt>
      <trkpt lat="49.20414" lon="-0.29632">
        <ele>40.446815</ele>
        <time>2022-08-06T12:08:07.000Z</time>
      </trkpt>
      <trkpt lat="49.20414" lon="-0.2964">
        <ele>40.385296</ele>
        <time>2022-08-06T12:08:08.000Z</time>
      </trkpt>
      <trkpt lat="49.20414" lon="-0.29649">
        <ele>40.326034</ele>
        <time>2022-08-06T12:08:09.000Z</time>
      </trkpt>
      <trkpt lat="49.20415" lon="-0.29657">
        <ele>40.266679</ele>
        <time>2022-08-06T12:08:10.000Z</time>
      </trkpt>
      <trkpt lat="49.20415" lon="-0.29665">
        <ele>40.208863</ele>
        <time>2022-08-06T12:08:11.000Z</time>
      </trkpt>
      <trkpt lat="49.20415" lon="-0.29673">
        <ele>40.152492</ele>
        <time>2022-08-06T12:08:12.000Z</time>
      </trkpt>
      <trkpt lat="49.20415" lon="-0.29681">
        <ele>40.093138</ele>
        <time>2022-08-06T12:08:13.000Z</time>
      </trkpt>
      <trkpt lat="49.20415" lon="-0.29689">
        <ele>40.034432</ele>
        <time>2022-08-06T12:08:14.000Z</time>
      </trkpt>
      <trkpt lat="49.20415" lon="-0.29697">
        <ele>39.973725</ele>
        <time>2022-08-06T12:08:15.000Z</time>
      </trkpt>
      <trkpt lat="49.20415" lon="-0.29705">
        <ele>39.915186</ele>
        <time>2022-08-06T12:08:16.000Z</time>
      </trkpt>
      <trkpt lat="49.20416" lon="-0.29714">
        <ele>39.855554</ele>
        <time>2022-08-06T12:08:17.000Z</time>
      </trkpt>
      <trkpt lat="49.20416" lon="-0.29722">
        <ele>39.7962</ele>
        <time>2022-08-06T12:08:18.000Z</time>
      </trkpt>
      <trkpt lat="49.20417" lon="-0.29729">
        <ele>39.741174</ele>
        <time>2022-08-06T12:08:19.000Z</time>
      </trkpt>
      <trkpt lat="49.20417" lon="-0.29737">
        <ele>39.68408</ele>
        <time>2022-08-06T12:08:20.000Z</time>
      </trkpt>
      <trkpt lat="49.20416" lon="-0.29745">
        <ele>39.627612</ele>
        <time>2022-08-06T12:08:21.000Z</time>
      </trkpt>
      <trkpt lat="49.20415" lon="-0.29753">
        <ele>39.572503</ele>
        <time>2022-08-06T12:08:22.000Z</time>
      </trkpt>
      <trkpt lat="49.20415" lon="-0.2976">
        <ele>39.51775</ele>
        <time>2022-08-06T12:08:23.000Z</time>
      </trkpt>
      <trkpt lat="49.20414" lon="-0.29768">
        <ele>39.463446</ele>
        <time>2022-08-06T12:08:24.000Z</time>
      </trkpt>
      <trkpt lat="49.20414" lon="-0.29776">
        <ele>39.404184</ele>
        <time>2022-08-06T12:08:25.000Z</time>
      </trkpt>
      <trkpt lat="49.20414" lon="-0.29784">
        <ele>39.342754</ele>
        <time>2022-08-06T12:08:26.000Z</time>
      </trkpt>
      <trkpt lat="49.20415" lon="-0.29793">
        <ele>39.280513</ele>
        <time>2022-08-06T12:08:27.000Z</time>
      </trkpt>
      <trkpt lat="49.20415" lon="-0.29802">
        <ele>39.215385</ele>
        <time>2022-08-06T12:08:28.000Z</time>
      </trkpt>
      <trkpt lat="49.20415" lon="-0.29811">
        <ele>39.147307</ele>
        <time>2022-08-06T12:08:29.000Z</time>
      </trkpt>
      <trkpt lat="49.20416" lon="-0.29821">
        <ele>39.077611</ele>
        <time>2022-08-06T12:08:30.000Z</time>
      </trkpt>
      <trkpt lat="49.20417" lon="-0.2983">
        <ele>39.009354</ele>
        <time>2022-08-06T12:08:31.000Z</time>
      </trkpt>
      <trkpt lat="49.20416" lon="-0.2984">
        <ele>38.939895</ele>
        <time>2022-08-06T12:08:32.000Z</time>
      </trkpt>
      <trkpt lat="49.20417" lon="-0.29849">
        <ele>38.874767</ele>
        <time>2022-08-06T12:08:33.000Z</time>
      </trkpt>
      <trkpt lat="49.20417" lon="-0.29858">
        <ele>38.806833</ele>
        <time>2022-08-06T12:08:34.000Z</time>
      </trkpt>
      <trkpt lat="49.20417" lon="-0.29868">
        <ele>38.675061</ele>
        <time>2022-08-06T12:08:35.000Z</time>
      </trkpt>
      <trkpt lat="49.20417" lon="-0.29877">
        <ele>38.53721</ele>
        <time>2022-08-06T12:08:36.000Z</time>
      </trkpt>
      <trkpt lat="49.20418" lon="-0.29887">
        <ele>38.400943</ele>
        <time>2022-08-06T12:08:37.000Z</time>
      </trkpt>
      <trkpt lat="49.20418" lon="-0.29897">
        <ele>38.254729</ele>
        <time>2022-08-06T12:08:38.000Z</time>
      </trkpt>
      <trkpt lat="49.20419" lon="-0.29907">
        <ele>38.116195</ele>
        <time>2022-08-06T12:08:39.000Z</time>
      </trkpt>
      <trkpt lat="49.20419" lon="-0.29916">
        <ele>37.981181</ele>
        <time>2022-08-06T12:08:40.000Z</time>
      </trkpt>
      <trkpt lat="49.2042" lon="-0.29926">
        <ele>37.841456</ele>
        <time>2022-08-06T12:08:41.000Z</time>
      </trkpt>
      <trkpt lat="49.20421" lon="-0.29935">
        <ele>37.710611</ele>
        <time>2022-08-06T12:08:42.000Z</time>
      </trkpt>
      <trkpt lat="49.20422" lon="-0.29944">
        <ele>37.581018</ele>
        <time>2022-08-06T12:08:43.000Z</time>
      </trkpt>
      <trkpt lat="49.20422" lon="-0.29953">
        <ele>37.457345</ele>
        <time>2022-08-06T12:08:44.000Z</time>
      </trkpt>
      <trkpt lat="49.20423" lon="-0.29961">
        <ele>37.336508</ele>
        <time>2022-08-06T12:08:45.000Z</time>
      </trkpt>
      <trkpt lat="49.20423" lon="-0.2997">
        <ele>37.214427</ele>
        <time>2022-08-06T12:08:46.000Z</time>
      </trkpt>
      <trkpt lat="49.20423" lon="-0.29978">
        <ele>37.100676</ele>
        <time>2022-08-06T12:08:47.000Z</time>
      </trkpt>
      <trkpt lat="49.20424" lon="-0.29986">
        <ele>36.98503</ele>
        <time>2022-08-06T12:08:48.000Z</time>
      </trkpt>
      <trkpt lat="49.20425" lon="-0.29993">
        <ele>36.886085</ele>
        <time>2022-08-06T12:08:49.000Z</time>
      </trkpt>
      <trkpt lat="49.20427" lon="-0.29999">
        <ele>36.785509</ele>
        <time>2022-08-06T12:08:50.000Z</time>
      </trkpt>
      <trkpt lat="49.20427" lon="-0.30006">
        <ele>36.694424</ele>
        <time>2022-08-06T12:08:51.000Z</time>
      </trkpt>
      <trkpt lat="49.20427" lon="-0.30011">
        <ele>36.616349</ele>
        <time>2022-08-06T12:08:52.000Z</time>
      </trkpt>
      <trkpt lat="49.20425" lon="-0.30016">
        <ele>36.537316</ele>
        <time>2022-08-06T12:08:53.000Z</time>
      </trkpt>
      <trkpt lat="49.20424" lon="-0.30022">
        <ele>36.459006</ele>
        <time>2022-08-06T12:08:54.000Z</time>
      </trkpt>
      <trkpt lat="49.20423" lon="-0.30027">
        <ele>36.371962</ele>
        <time>2022-08-06T12:08:55.000Z</time>
      </trkpt>
      <trkpt lat="49.20422" lon="-0.30034">
        <ele>36.281804</ele>
        <time>2022-08-06T12:08:56.000Z</time>
      </trkpt>
      <trkpt lat="49.2042" lon="-0.3004">
        <ele>36.18072</ele>
        <time>2022-08-06T12:08:57.000Z</time>
      </trkpt>
      <trkpt lat="49.20418" lon="-0.30047">
        <ele>36.073282</ele>
        <time>2022-08-06T12:08:58.000Z</time>
      </trkpt>
      <trkpt lat="49.20415" lon="-0.30054">
        <ele>35.95442</ele>
        <time>2022-08-06T12:08:59.000Z</time>
      </trkpt>
      <trkpt lat="49.20413" lon="-0.30062">
        <ele>35.831206</ele>
        <time>2022-08-06T12:09:00.000Z</time>
      </trkpt>
      <trkpt lat="49.20411" lon="-0.3007">
        <ele>35.702741</ele>
        <time>2022-08-06T12:09:01.000Z</time>
      </trkpt>
      <trkpt lat="49.20409" lon="-0.30079">
        <ele>35.573157</ele>
        <time>2022-08-06T12:09:02.000Z</time>
      </trkpt>
      <trkpt lat="49.20406" lon="-0.30088">
        <ele>35.434085</ele>
        <time>2022-08-06T12:09:03.000Z</time>
      </trkpt>
      <trkpt lat="49.20404" lon="-0.30097">
        <ele>35.29368</ele>
        <time>2022-08-06T12:09:04.000Z</time>
      </trkpt>
      <trkpt lat="49.20402" lon="-0.30106">
        <ele>35.157816</ele>
        <time>2022-08-06T12:09:05.000Z</time>
      </trkpt>
      <trkpt lat="49.20399" lon="-0.30116">
        <ele>35.015061</ele>
        <time>2022-08-06T12:09:06.000Z</time>
      </trkpt>
      <trkpt lat="49.20397" lon="-0.30125">
        <ele>34.879405</ele>
        <time>2022-08-06T12:09:07.000Z</time>
      </trkpt>
      <trkpt lat="49.20395" lon="-0.30134">
        <ele>34.765586</ele>
        <time>2022-08-06T12:09:08.000Z</time>
      </trkpt>
      <trkpt lat="49.20392" lon="-0.30143">
        <ele>34.652027</ele>
        <time>2022-08-06T12:09:09.000Z</time>
      </trkpt>
      <trkpt lat="49.20391" lon="-0.30152">
        <ele>34.544596</ele>
        <time>2022-08-06T12:09:10.000Z</time>
      </trkpt>
      <trkpt lat="49.20391" lon="-0.3016">
        <ele>34.444505</ele>
        <time>2022-08-06T12:09:11.000Z</time>
      </trkpt>
      <trkpt lat="49.20391" lon="-0.30167">
        <ele>34.362087</ele>
        <time>2022-08-06T12:09:12.000Z</time>
      </trkpt>
      <trkpt lat="49.20393" lon="-0.30172">
        <ele>34.300406</ele>
        <time>2022-08-06T12:09:13.000Z</time>
      </trkpt>
      <trkpt lat="49.20394" lon="-0.30175">
        <ele>34.256452</ele>
        <time>2022-08-06T12:09:14.000Z</time>
      </trkpt>
      <trkpt lat="49.20395" lon="-0.30178">
        <ele>34.221956</ele>
        <time>2022-08-06T12:09:15.000Z</time>
      </trkpt>
      <trkpt lat="49.20395" lon="-0.30181">
        <ele>34.187661</ele>
        <time>2022-08-06T12:09:16.000Z</time>
      </trkpt>
      <trkpt lat="49.20396" lon="-0.30184">
        <ele>34.152339</ele>
        <time>2022-08-06T12:09:17.000Z</time>
      </trkpt>
      <trkpt lat="49.20395" lon="-0.30188">
        <ele>34.111255</ele>
        <time>2022-08-06T12:09:18.000Z</time>
      </trkpt>
      <trkpt lat="49.20395" lon="-0.30191">
        <ele>34.069142</ele>
        <time>2022-08-06T12:09:19.000Z</time>
      </trkpt>
      <trkpt lat="49.20393" lon="-0.30195">
        <ele>34.015026</ele>
        <time>2022-08-06T12:09:20.000Z</time>
      </trkpt>
      <trkpt lat="49.2039" lon="-0.30198">
        <ele>33.960963</ele>
        <time>2022-08-06T12:09:21.000Z</time>
      </trkpt>
      <trkpt lat="49.20387" lon="-0.30201">
        <ele>33.88893</ele>
        <time>2022-08-06T12:09:22.000Z</time>
      </trkpt>
      <trkpt lat="49.20384" lon="-0.30205">
        <ele>33.817491</ele>
        <time>2022-08-06T12:09:23.000Z</time>
      </trkpt>
      <trkpt lat="49.20381" lon="-0.30208">
        <ele>33.745344</ele>
        <time>2022-08-06T12:09:24.000Z</time>
      </trkpt>
      <trkpt lat="49.20377" lon="-0.30213">
        <ele>33.668718</ele>
        <time>2022-08-06T12:09:25.000Z</time>
      </trkpt>
      <trkpt lat="49.20374" lon="-0.30217">
        <ele>33.590909</ele>
        <time>2022-08-06T12:09:26.000Z</time>
      </trkpt>
      <trkpt lat="49.20371" lon="-0.30221">
        <ele>33.517346</ele>
        <time>2022-08-06T12:09:27.000Z</time>
      </trkpt>
      <trkpt lat="49.20367" lon="-0.30226">
        <ele>33.432062</ele>
        <time>2022-08-06T12:09:28.000Z</time>
      </trkpt>
      <trkpt lat="49.20365" lon="-0.30232">
        <ele>33.349806</ele>
        <time>2022-08-06T12:09:29.000Z</time>
      </trkpt>
      <trkpt lat="49.20361" lon="-0.30238">
        <ele>33.261455</ele>
        <time>2022-08-06T12:09:30.000Z</time>
      </trkpt>
      <trkpt lat="49.20359" lon="-0.30244">
        <ele>33.177661</ele>
        <time>2022-08-06T12:09:31.000Z</time>
      </trkpt>
      <trkpt lat="49.20356" lon="-0.30249">
        <ele>33.09266</ele>
        <time>2022-08-06T12:09:32.000Z</time>
      </trkpt>
      <trkpt lat="49.20355" lon="-0.30255">
        <ele>33.026276</ele>
        <time>2022-08-06T12:09:33.000Z</time>
      </trkpt>
      <trkpt lat="49.20353" lon="-0.30259">
        <ele>32.968684</ele>
        <time>2022-08-06T12:09:34.000Z</time>
      </trkpt>
      <trkpt lat="49.20352" lon="-0.30263">
        <ele>32.923852</ele>
        <time>2022-08-06T12:09:35.000Z</time>
      </trkpt>
      <trkpt lat="49.20351" lon="-0.30266">
        <ele>32.881955</ele>
        <time>2022-08-06T12:09:36.000Z</time>
      </trkpt>
      <trkpt lat="49.2035" lon="-0.30271">
        <ele>32.818867</ele>
        <time>2022-08-06T12:09:38.000Z</time>
      </trkpt>
      <trkpt lat="49.20349" lon="-0.30274">
        <ele>32.782885</ele>
        <time>2022-08-06T12:09:39.000Z</time>
      </trkpt>
      <trkpt lat="49.20348" lon="-0.30278">
        <ele>32.725621</ele>
        <time>2022-08-06T12:09:41.000Z</time>
      </trkpt>
      <trkpt lat="49.20346" lon="-0.30282">
        <ele>32.674429</ele>
        <time>2022-08-06T12:09:43.000Z</time>
      </trkpt>
      <trkpt lat="49.20341" lon="-0.30288">
        <ele>32.554181</ele>
        <time>2022-08-06T12:10:00.000Z</time>
      </trkpt>
      <trkpt lat="49.20339" lon="-0.3029">
        <ele>32.513452</ele>
        <time>2022-08-06T12:10:01.000Z</time>
      </trkpt>
      <trkpt lat="49.20337" lon="-0.30293">
        <ele>32.464825</ele>
        <time>2022-08-06T12:10:02.000Z</time>
      </trkpt>
      <trkpt lat="49.20335" lon="-0.30297">
        <ele>32.40281</ele>
        <time>2022-08-06T12:10:03.000Z</time>
      </trkpt>
      <trkpt lat="49.20333" lon="-0.30302">
        <ele>32.332652</ele>
        <time>2022-08-06T12:10:04.000Z</time>
      </trkpt>
      <trkpt lat="49.20331" lon="-0.30308">
        <ele>32.261516</ele>
        <time>2022-08-06T12:10:05.000Z</time>
      </trkpt>
      <trkpt lat="49.20329" lon="-0.30314">
        <ele>32.186092</ele>
        <time>2022-08-06T12:10:06.000Z</time>
      </trkpt>
      <trkpt lat="49.20327" lon="-0.3032">
        <ele>32.109537</ele>
        <time>2022-08-06T12:10:07.000Z</time>
      </trkpt>
      <trkpt lat="49.20326" lon="-0.30326">
        <ele>32.033034</ele>
        <time>2022-08-06T12:10:08.000Z</time>
      </trkpt>
      <trkpt lat="49.20325" lon="-0.30333">
        <ele>31.95169</ele>
        <time>2022-08-06T12:10:09.000Z</time>
      </trkpt>
      <trkpt lat="49.20323" lon="-0.30339">
        <ele>31.867571</ele>
        <time>2022-08-06T12:10:10.000Z</time>
      </trkpt>
      <trkpt lat="49.20321" lon="-0.30347">
        <ele>31.777197</ele>
        <time>2022-08-06T12:10:11.000Z</time>
      </trkpt>
      <trkpt lat="49.20319" lon="-0.30354">
        <ele>31.687821</ele>
        <time>2022-08-06T12:10:12.000Z</time>
      </trkpt>
      <trkpt lat="49.20318" lon="-0.30362">
        <ele>31.580212</ele>
        <time>2022-08-06T12:10:13.000Z</time>
      </trkpt>
      <trkpt lat="49.20317" lon="-0.3037">
        <ele>31.467413</ele>
        <time>2022-08-06T12:10:14.000Z</time>
      </trkpt>
      <trkpt lat="49.20315" lon="-0.30378">
        <ele>31.35173</ele>
        <time>2022-08-06T12:10:15.000Z</time>
      </trkpt>
      <trkpt lat="49.20314" lon="-0.30387">
        <ele>31.23348</ele>
        <time>2022-08-06T12:10:16.000Z</time>
      </trkpt>
      <trkpt lat="49.20313" lon="-0.30395">
        <ele>31.114075</ele>
        <time>2022-08-06T12:10:17.000Z</time>
      </trkpt>
      <trkpt lat="49.20311" lon="-0.30404">
        <ele>30.995825</ele>
        <time>2022-08-06T12:10:18.000Z</time>
      </trkpt>
      <trkpt lat="49.20309" lon="-0.30413">
        <ele>30.873198</ele>
        <time>2022-08-06T12:10:19.000Z</time>
      </trkpt>
      <trkpt lat="49.20307" lon="-0.30421">
        <ele>30.748489</ele>
        <time>2022-08-06T12:10:20.000Z</time>
      </trkpt>
      <trkpt lat="49.20305" lon="-0.30429">
        <ele>30.630424</ele>
        <time>2022-08-06T12:10:21.000Z</time>
      </trkpt>
      <trkpt lat="49.20301" lon="-0.30438">
        <ele>30.502742</ele>
        <time>2022-08-06T12:10:22.000Z</time>
      </trkpt>
      <trkpt lat="49.20298" lon="-0.30445">
        <ele>30.37962</ele>
        <time>2022-08-06T12:10:23.000Z</time>
      </trkpt>
      <trkpt lat="49.20295" lon="-0.30453">
        <ele>30.257628</ele>
        <time>2022-08-06T12:10:24.000Z</time>
      </trkpt>
      <trkpt lat="49.20292" lon="-0.30461">
        <ele>30.13442</ele>
        <time>2022-08-06T12:10:25.000Z</time>
      </trkpt>
      <trkpt lat="49.20288" lon="-0.30468">
        <ele>30.009027</ele>
        <time>2022-08-06T12:10:26.000Z</time>
      </trkpt>
      <trkpt lat="49.20285" lon="-0.30475">
        <ele>29.893723</ele>
        <time>2022-08-06T12:10:27.000Z</time>
      </trkpt>
      <trkpt lat="49.20281" lon="-0.30483">
        <ele>29.769994</ele>
        <time>2022-08-06T12:10:28.000Z</time>
      </trkpt>
      <trkpt lat="49.20277" lon="-0.3049">
        <ele>29.650906</ele>
        <time>2022-08-06T12:10:29.000Z</time>
      </trkpt>
      <trkpt lat="49.20274" lon="-0.30496">
        <ele>29.535185</ele>
        <time>2022-08-06T12:10:30.000Z</time>
      </trkpt>
      <trkpt lat="49.2027" lon="-0.30503">
        <ele>29.41247</ele>
        <time>2022-08-06T12:10:31.000Z</time>
      </trkpt>
      <trkpt lat="49.20266" lon="-0.30509">
        <ele>29.29742</ele>
        <time>2022-08-06T12:10:32.000Z</time>
      </trkpt>
      <trkpt lat="49.20262" lon="-0.30515">
        <ele>29.189489</ele>
        <time>2022-08-06T12:10:33.000Z</time>
      </trkpt>
      <trkpt lat="49.20258" lon="-0.30519">
        <ele>29.084594</ele>
        <time>2022-08-06T12:10:34.000Z</time>
      </trkpt>
      <trkpt lat="49.20253" lon="-0.30522">
        <ele>28.979011</ele>
        <time>2022-08-06T12:10:35.000Z</time>
      </trkpt>
      <trkpt lat="49.20249" lon="-0.30523">
        <ele>28.886323</ele>
        <time>2022-08-06T12:10:36.000Z</time>
      </trkpt>
      <trkpt lat="49.20245" lon="-0.30524">
        <ele>28.819984</ele>
        <time>2022-08-06T12:10:37.000Z</time>
      </trkpt>
      <trkpt lat="49.20242" lon="-0.30525">
        <ele>28.75151</ele>
        <time>2022-08-06T12:10:38.000Z</time>
      </trkpt>
      <trkpt lat="49.2024" lon="-0.30528">
        <ele>28.695448</ele>
        <time>2022-08-06T12:10:39.000Z</time>
      </trkpt>
      <trkpt lat="49.20239" lon="-0.30531">
        <ele>28.641627</ele>
        <time>2022-08-06T12:10:40.000Z</time>
      </trkpt>
      <trkpt lat="49.20238" lon="-0.30535">
        <ele>28.587803</ele>
        <time>2022-08-06T12:10:41.000Z</time>
      </trkpt>
      <trkpt lat="49.20238" lon="-0.3054">
        <ele>28.524673</ele>
        <time>2022-08-06T12:10:42.000Z</time>
      </trkpt>
      <trkpt lat="49.20237" lon="-0.30545">
        <ele>28.456314</ele>
        <time>2022-08-06T12:10:43.000Z</time>
      </trkpt>
      <trkpt lat="49.20237" lon="-0.3055">
        <ele>28.384402</ele>
        <time>2022-08-06T12:10:44.000Z</time>
      </trkpt>
      <trkpt lat="49.20235" lon="-0.30555">
        <ele>28.31494</ele>
        <time>2022-08-06T12:10:45.000Z</time>
      </trkpt>
      <trkpt lat="49.20233" lon="-0.3056">
        <ele>28.243316</ele>
        <time>2022-08-06T12:10:46.000Z</time>
      </trkpt>
      <trkpt lat="49.20231" lon="-0.30564">
        <ele>28.169431</ele>
        <time>2022-08-06T12:10:47.000Z</time>
      </trkpt>
      <trkpt lat="49.20229" lon="-0.30569">
        <ele>28.093327</ele>
        <time>2022-08-06T12:10:48.000Z</time>
      </trkpt>
      <trkpt lat="49.20228" lon="-0.30574">
        <ele>28.018899</ele>
        <time>2022-08-06T12:10:49.000Z</time>
      </trkpt>
      <trkpt lat="49.20226" lon="-0.3058">
        <ele>27.815345</ele>
        <time>2022-08-06T12:10:50.000Z</time>
      </trkpt>
      <trkpt lat="49.20225" lon="-0.30586">
        <ele>27.595636</ele>
        <time>2022-08-06T12:10:51.000Z</time>
      </trkpt>
      <trkpt lat="49.20224" lon="-0.30592">
        <ele>27.37037</ele>
        <time>2022-08-06T12:10:52.000Z</time>
      </trkpt>
      <trkpt lat="49.20223" lon="-0.30599">
        <ele>27.127441</ele>
        <time>2022-08-06T12:10:53.000Z</time>
      </trkpt>
      <trkpt lat="49.20222" lon="-0.30607">
        <ele>26.879457</ele>
        <time>2022-08-06T12:10:54.000Z</time>
      </trkpt>
      <trkpt lat="49.20222" lon="-0.30614">
        <ele>26.617938</ele>
        <time>2022-08-06T12:10:55.000Z</time>
      </trkpt>
      <trkpt lat="49.20221" lon="-0.30622">
        <ele>26.34429</ele>
        <time>2022-08-06T12:10:56.000Z</time>
      </trkpt>
      <trkpt lat="49.20221" lon="-0.30631">
        <ele>26.054435</ele>
        <time>2022-08-06T12:10:57.000Z</time>
      </trkpt>
      <trkpt lat="49.20221" lon="-0.30639">
        <ele>25.762451</ele>
        <time>2022-08-06T12:10:58.000Z</time>
      </trkpt>
      <trkpt lat="49.2022" lon="-0.30648">
        <ele>25.46031</ele>
        <time>2022-08-06T12:10:59.000Z</time>
      </trkpt>
      <trkpt lat="49.2022" lon="-0.30658">
        <ele>25.145009</ele>
        <time>2022-08-06T12:11:00.000Z</time>
      </trkpt>
      <trkpt lat="49.20221" lon="-0.30668">
        <ele>24.805618</ele>
        <time>2022-08-06T12:11:01.000Z</time>
      </trkpt>
      <trkpt lat="49.20221" lon="-0.30679">
        <ele>24.432356</ele>
        <time>2022-08-06T12:11:02.000Z</time>
      </trkpt>
      <trkpt lat="49.20221" lon="-0.3069">
        <ele>24.041227</ele>
        <time>2022-08-06T12:11:03.000Z</time>
      </trkpt>
      <trkpt lat="49.20222" lon="-0.30703">
        <ele>23.615881</ele>
        <time>2022-08-06T12:11:04.000Z</time>
      </trkpt>
      <trkpt lat="49.20224" lon="-0.30715">
        <ele>23.174049</ele>
        <time>2022-08-06T12:11:05.000Z</time>
      </trkpt>
      <trkpt lat="49.20226" lon="-0.30729">
        <ele>22.705856</ele>
        <time>2022-08-06T12:11:06.000Z</time>
      </trkpt>
      <trkpt lat="49.20228" lon="-0.30743">
        <ele>22.222185</ele>
        <time>2022-08-06T12:11:07.000Z</time>
      </trkpt>
      <trkpt lat="49.20232" lon="-0.30757">
        <ele>21.707643</ele>
        <time>2022-08-06T12:11:08.000Z</time>
      </trkpt>
      <trkpt lat="49.20236" lon="-0.30771">
        <ele>21.174829</ele>
        <time>2022-08-06T12:11:09.000Z</time>
      </trkpt>
      <trkpt lat="49.20239" lon="-0.30786">
        <ele>20.630645</ele>
        <time>2022-08-06T12:11:10.000Z</time>
      </trkpt>
      <trkpt lat="49.20244" lon="-0.30802">
        <ele>20.063905</ele>
        <time>2022-08-06T12:11:11.000Z</time>
      </trkpt>
      <trkpt lat="49.20249" lon="-0.30817">
        <ele>19.474832</ele>
        <time>2022-08-06T12:11:12.000Z</time>
      </trkpt>
      <trkpt lat="49.20254" lon="-0.30832">
        <ele>18.899418</ele>
        <time>2022-08-06T12:11:13.000Z</time>
      </trkpt>
      <trkpt lat="49.20261" lon="-0.30847">
        <ele>18.428688</ele>
        <time>2022-08-06T12:11:14.000Z</time>
      </trkpt>
      <trkpt lat="49.20268" lon="-0.30861">
        <ele>18.034907</ele>
        <time>2022-08-06T12:11:15.000Z</time>
      </trkpt>
      <trkpt lat="49.20274" lon="-0.30875">
        <ele>17.652659</ele>
        <time>2022-08-06T12:11:16.000Z</time>
      </trkpt>
      <trkpt lat="49.20282" lon="-0.30887">
        <ele>17.264016</ele>
        <time>2022-08-06T12:11:17.000Z</time>
      </trkpt>
      <trkpt lat="49.20289" lon="-0.309">
        <ele>16.89573</ele>
        <time>2022-08-06T12:11:18.000Z</time>
      </trkpt>
      <trkpt lat="49.20295" lon="-0.30912">
        <ele>16.553173</ele>
        <time>2022-08-06T12:11:19.000Z</time>
      </trkpt>
      <trkpt lat="49.20302" lon="-0.30923">
        <ele>16.220818</ele>
        <time>2022-08-06T12:11:20.000Z</time>
      </trkpt>
      <trkpt lat="49.20308" lon="-0.30933">
        <ele>15.922707</ele>
        <time>2022-08-06T12:11:21.000Z</time>
      </trkpt>
      <trkpt lat="49.20314" lon="-0.30943">
        <ele>15.618749</ele>
        <time>2022-08-06T12:11:22.000Z</time>
      </trkpt>
      <trkpt lat="49.20319" lon="-0.30952">
        <ele>15.344162</ele>
        <time>2022-08-06T12:11:23.000Z</time>
      </trkpt>
      <trkpt lat="49.20324" lon="-0.30961">
        <ele>15.089814</ele>
        <time>2022-08-06T12:11:24.000Z</time>
      </trkpt>
      <trkpt lat="49.20329" lon="-0.30969">
        <ele>14.829715</ele>
        <time>2022-08-06T12:11:25.000Z</time>
      </trkpt>
      <trkpt lat="49.20333" lon="-0.30977">
        <ele>14.599536</ele>
        <time>2022-08-06T12:11:26.000Z</time>
      </trkpt>
      <trkpt lat="49.20339" lon="-0.30985">
        <ele>14.347475</ele>
        <time>2022-08-06T12:11:27.000Z</time>
      </trkpt>
      <trkpt lat="49.20343" lon="-0.30993">
        <ele>14.115601</ele>
        <time>2022-08-06T12:11:28.000Z</time>
      </trkpt>
      <trkpt lat="49.20348" lon="-0.31">
        <ele>13.886503</ele>
        <time>2022-08-06T12:11:29.000Z</time>
      </trkpt>
      <trkpt lat="49.20352" lon="-0.31008">
        <ele>13.653587</ele>
        <time>2022-08-06T12:11:30.000Z</time>
      </trkpt>
      <trkpt lat="49.20357" lon="-0.31015">
        <ele>13.432948</ele>
        <time>2022-08-06T12:11:31.000Z</time>
      </trkpt>
      <trkpt lat="49.20361" lon="-0.31022">
        <ele>13.211999</ele>
        <time>2022-08-06T12:11:32.000Z</time>
      </trkpt>
      <trkpt lat="49.20365" lon="-0.3103">
        <ele>12.995277</ele>
        <time>2022-08-06T12:11:33.000Z</time>
      </trkpt>
      <trkpt lat="49.20369" lon="-0.31037">
        <ele>12.778011</ele>
        <time>2022-08-06T12:11:34.000Z</time>
      </trkpt>
      <trkpt lat="49.20374" lon="-0.31045">
        <ele>12.550564</ele>
        <time>2022-08-06T12:11:35.000Z</time>
      </trkpt>
      <trkpt lat="49.20379" lon="-0.31052">
        <ele>12.405323</ele>
        <time>2022-08-06T12:11:36.000Z</time>
      </trkpt>
      <trkpt lat="49.20383" lon="-0.31059">
        <ele>12.27493</ele>
        <time>2022-08-06T12:11:37.000Z</time>
      </trkpt>
      <trkpt lat="49.20388" lon="-0.31066">
        <ele>12.134406</ele>
        <time>2022-08-06T12:11:38.000Z</time>
      </trkpt>
      <trkpt lat="49.20393" lon="-0.31072">
        <ele>11.996317</ele>
        <time>2022-08-06T12:11:39.000Z</time>
      </trkpt>
      <trkpt lat="49.20399" lon="-0.31079">
        <ele>11.849468</ele>
        <time>2022-08-06T12:11:40.000Z</time>
      </trkpt>
      <trkpt lat="49.20405" lon="-0.31085">
        <ele>11.701773</ele>
        <time>2022-08-06T12:11:41.000Z</time>
      </trkpt>
      <trkpt lat="49.20411" lon="-0.31092">
        <ele>11.549824</ele>
        <time>2022-08-06T12:11:42.000Z</time>
      </trkpt>
      <trkpt lat="49.20417" lon="-0.31098">
        <ele>11.406925</ele>
        <time>2022-08-06T12:11:43.000Z</time>
      </trkpt>
      <trkpt lat="49.20423" lon="-0.31104">
        <ele>11.258668</ele>
        <time>2022-08-06T12:11:44.000Z</time>
      </trkpt>
      <trkpt lat="49.20429" lon="-0.31109">
        <ele>11.112522</ele>
        <time>2022-08-06T12:11:45.000Z</time>
      </trkpt>
      <trkpt lat="49.20435" lon="-0.31115">
        <ele>10.967063</ele>
        <time>2022-08-06T12:11:46.000Z</time>
      </trkpt>
      <trkpt lat="49.20441" lon="-0.3112">
        <ele>10.830727</ele>
        <time>2022-08-06T12:11:47.000Z</time>
      </trkpt>
      <trkpt lat="49.20446" lon="-0.31124">
        <ele>10.704442</ele>
        <time>2022-08-06T12:11:48.000Z</time>
      </trkpt>
      <trkpt lat="49.2045" lon="-0.31127">
        <ele>10.610486</ele>
        <time>2022-08-06T12:11:49.000Z</time>
      </trkpt>
      <trkpt lat="49.20453" lon="-0.31129">
        <ele>10.551291</ele>
        <time>2022-08-06T12:11:50.000Z</time>
      </trkpt>
      <trkpt lat="49.20455" lon="-0.31131">
        <ele>10.507366</ele>
        <time>2022-08-06T12:11:51.000Z</time>
      </trkpt>
      <trkpt lat="49.20455" lon="-0.31135">
        <ele>10.455985</ele>
        <time>2022-08-06T12:11:53.000Z</time>
      </trkpt>
      <trkpt lat="49.20454" lon="-0.3114">
        <ele>10.384481</ele>
        <time>2022-08-06T12:11:55.000Z</time>
      </trkpt>
      <trkpt lat="49.20453" lon="-0.31142">
        <ele>10.343657</ele>
        <time>2022-08-06T12:11:56.000Z</time>
      </trkpt>
      <trkpt lat="49.20451" lon="-0.31144">
        <ele>10.296679</ele>
        <time>2022-08-06T12:11:57.000Z</time>
      </trkpt>
      <trkpt lat="49.2045" lon="-0.31147">
        <ele>10.252661</ele>
        <time>2022-08-06T12:11:58.000Z</time>
      </trkpt>
      <trkpt lat="49.20449" lon="-0.31151">
        <ele>10.200933</ele>
        <time>2022-08-06T12:11:59.000Z</time>
      </trkpt>
      <trkpt lat="49.20449" lon="-0.31154">
        <ele>10.15395</ele>
        <time>2022-08-06T12:12:00.000Z</time>
      </trkpt>
      <trkpt lat="49.2045" lon="-0.31157">
        <ele>10.105119</ele>
        <time>2022-08-06T12:12:01.000Z</time>
      </trkpt>
      <trkpt lat="49.20451" lon="-0.31161">
        <ele>10.057502</ele>
        <time>2022-08-06T12:12:02.000Z</time>
      </trkpt>
      <trkpt lat="49.20452" lon="-0.31164">
        <ele>10.005517</ele>
        <time>2022-08-06T12:12:03.000Z</time>
      </trkpt>
      <trkpt lat="49.20454" lon="-0.31167">
        <ele>9.951426</ele>
        <time>2022-08-06T12:12:04.000Z</time>
      </trkpt>
      <trkpt lat="49.20455" lon="-0.3117">
        <ele>9.897174</ele>
        <time>2022-08-06T12:12:05.000Z</time>
      </trkpt>
      <trkpt lat="49.20457" lon="-0.31174">
        <ele>9.82956</ele>
        <time>2022-08-06T12:12:06.000Z</time>
      </trkpt>
      <trkpt lat="49.20458" lon="-0.31179">
        <ele>9.767669</ele>
        <time>2022-08-06T12:12:07.000Z</time>
      </trkpt>
      <trkpt lat="49.20459" lon="-0.31184">
        <ele>9.697476</ele>
        <time>2022-08-06T12:12:08.000Z</time>
      </trkpt>
      <trkpt lat="49.2046" lon="-0.31188">
        <ele>9.630197</ele>
        <time>2022-08-06T12:12:09.000Z</time>
      </trkpt>
      <trkpt lat="49.20461" lon="-0.31193">
        <ele>9.568545</ele>
        <time>2022-08-06T12:12:10.000Z</time>
      </trkpt>
      <trkpt lat="49.20462" lon="-0.31197">
        <ele>9.506009</ele>
        <time>2022-08-06T12:12:11.000Z</time>
      </trkpt>
      <trkpt lat="49.20463" lon="-0.31201">
        <ele>9.446925</ele>
        <time>2022-08-06T12:12:12.000Z</time>
      </trkpt>
      <trkpt lat="49.20465" lon="-0.31205">
        <ele>9.391761</ele>
        <time>2022-08-06T12:12:13.000Z</time>
      </trkpt>
      <trkpt lat="49.20467" lon="-0.31207">
        <ele>9.338707</ele>
        <time>2022-08-06T12:12:14.000Z</time>
      </trkpt>
      <trkpt lat="49.20469" lon="-0.31209">
        <ele>9.273418</ele>
        <time>2022-08-06T12:12:15.000Z</time>
      </trkpt>
      <trkpt lat="49.20472" lon="-0.31211">
        <ele>9.208606</ele>
        <time>2022-08-06T12:12:16.000Z</time>
      </trkpt>
      <trkpt lat="49.20475" lon="-0.31213">
        <ele>9.152408</ele>
        <time>2022-08-06T12:12:17.000Z</time>
      </trkpt>
      <trkpt lat="49.20478" lon="-0.31214">
        <ele>9.090687</ele>
        <time>2022-08-06T12:12:18.000Z</time>
      </trkpt>
      <trkpt lat="49.20481" lon="-0.31214">
        <ele>9.032598</ele>
        <time>2022-08-06T12:12:19.000Z</time>
      </trkpt>
      <trkpt lat="49.20484" lon="-0.31214">
        <ele>8.966838</ele>
        <time>2022-08-06T12:12:20.000Z</time>
      </trkpt>
      <trkpt lat="49.20486" lon="-0.31213">
        <ele>8.915471</ele>
        <time>2022-08-06T12:12:21.000Z</time>
      </trkpt>
      <trkpt lat="49.2049" lon="-0.31211">
        <ele>8.837733</ele>
        <time>2022-08-06T12:12:22.000Z</time>
      </trkpt>
      <trkpt lat="49.20493" lon="-0.31209">
        <ele>8.816429</ele>
        <time>2022-08-06T12:12:23.000Z</time>
      </trkpt>
      <trkpt lat="49.20496" lon="-0.31207">
        <ele>8.792265</ele>
        <time>2022-08-06T12:12:24.000Z</time>
      </trkpt>
      <trkpt lat="49.20499" lon="-0.31205">
        <ele>8.771672</ele>
        <time>2022-08-06T12:12:25.000Z</time>
      </trkpt>
      <trkpt lat="49.20502" lon="-0.31203">
        <ele>8.747508</ele>
        <time>2022-08-06T12:12:26.000Z</time>
      </trkpt>
      <trkpt lat="49.20506" lon="-0.31202">
        <ele>8.725354</ele>
        <time>2022-08-06T12:12:27.000Z</time>
      </trkpt>
      <trkpt lat="49.20508" lon="-0.312">
        <ele>8.706749</ele>
        <time>2022-08-06T12:12:28.000Z</time>
      </trkpt>
      <trkpt lat="49.20512" lon="-0.31199">
        <ele>8.683319</ele>
        <time>2022-08-06T12:12:29.000Z</time>
      </trkpt>
      <trkpt lat="49.20515" lon="-0.31198">
        <ele>8.663757</ele>
        <time>2022-08-06T12:12:30.000Z</time>
      </trkpt>
      <trkpt lat="49.20517" lon="-0.31197">
        <ele>8.644622</ele>
        <time>2022-08-06T12:12:31.000Z</time>
      </trkpt>
      <trkpt lat="49.2052" lon="-0.31195">
        <ele>8.626543</ele>
        <time>2022-08-06T12:12:32.000Z</time>
      </trkpt>
      <trkpt lat="49.20522" lon="-0.31192">
        <ele>8.609186</ele>
        <time>2022-08-06T12:12:33.000Z</time>
      </trkpt>
      <trkpt lat="49.20524" lon="-0.31188">
        <ele>8.588612</ele>
        <time>2022-08-06T12:12:34.000Z</time>
      </trkpt>
      <trkpt lat="49.20525" lon="-0.31185">
        <ele>8.569892</ele>
        <time>2022-08-06T12:12:35.000Z</time>
      </trkpt>
      <trkpt lat="49.20527" lon="-0.31181">
        <ele>8.549727</ele>
        <time>2022-08-06T12:12:36.000Z</time>
      </trkpt>
      <trkpt lat="49.20528" lon="-0.31177">
        <ele>8.532512</ele>
        <time>2022-08-06T12:12:37.000Z</time>
      </trkpt>
      <trkpt lat="49.2053" lon="-0.31174">
        <ele>8.515451</ele>
        <time>2022-08-06T12:12:38.000Z</time>
      </trkpt>
      <trkpt lat="49.20533" lon="-0.31177">
        <ele>8.495901</ele>
        <time>2022-08-06T12:12:41.000Z</time>
      </trkpt>
      <trkpt lat="49.20535" lon="-0.31178">
        <ele>8.47772</ele>
        <time>2022-08-06T12:12:42.000Z</time>
      </trkpt>
      <trkpt lat="49.20537" lon="-0.31181">
        <ele>8.460727</ele>
        <time>2022-08-06T12:12:43.000Z</time>
      </trkpt>
      <trkpt lat="49.20539" lon="-0.31184">
        <ele>8.444408</ele>
        <time>2022-08-06T12:12:44.000Z</time>
      </trkpt>
      <trkpt lat="49.20541" lon="-0.31187">
        <ele>8.423235</ele>
        <time>2022-08-06T12:12:45.000Z</time>
      </trkpt>
      <trkpt lat="49.20544" lon="-0.3119">
        <ele>8.401279</ele>
        <time>2022-08-06T12:12:46.000Z</time>
      </trkpt>
      <trkpt lat="49.20547" lon="-0.31193">
        <ele>8.376585</ele>
        <time>2022-08-06T12:12:47.000Z</time>
      </trkpt>
      <trkpt lat="49.20549" lon="-0.31196">
        <ele>8.354861</ele>
        <time>2022-08-06T12:12:48.000Z</time>
      </trkpt>
      <trkpt lat="49.20552" lon="-0.312">
        <ele>8.329457</ele>
        <time>2022-08-06T12:12:49.000Z</time>
      </trkpt>
      <trkpt lat="49.20556" lon="-0.31204">
        <ele>8.302804</ele>
        <time>2022-08-06T12:12:50.000Z</time>
      </trkpt>
      <trkpt lat="49.20558" lon="-0.31208">
        <ele>8.279147</ele>
        <time>2022-08-06T12:12:51.000Z</time>
      </trkpt>
      <trkpt lat="49.20561" lon="-0.31212">
        <ele>8.252229</ele>
        <time>2022-08-06T12:12:52.000Z</time>
      </trkpt>
      <trkpt lat="49.20564" lon="-0.31216">
        <ele>8.226249</ele>
        <time>2022-08-06T12:12:53.000Z</time>
      </trkpt>
      <trkpt lat="49.20568" lon="-0.3122">
        <ele>8.196982</ele>
        <time>2022-08-06T12:12:54.000Z</time>
      </trkpt>
      <trkpt lat="49.20571" lon="-0.31224">
        <ele>8.169242</ele>
        <time>2022-08-06T12:12:55.000Z</time>
      </trkpt>
      <trkpt lat="49.20574" lon="-0.31229">
        <ele>8.142066</ele>
        <time>2022-08-06T12:12:56.000Z</time>
      </trkpt>
      <trkpt lat="49.20577" lon="-0.31233">
        <ele>8.113177</ele>
        <time>2022-08-06T12:12:57.000Z</time>
      </trkpt>
      <trkpt lat="49.2058" lon="-0.31238">
        <ele>8.085189</ele>
        <time>2022-08-06T12:12:58.000Z</time>
      </trkpt>
      <trkpt lat="49.20583" lon="-0.31243">
        <ele>8.0563</ele>
        <time>2022-08-06T12:12:59.000Z</time>
      </trkpt>
      <trkpt lat="49.20586" lon="-0.31248">
        <ele>8.028506</ele>
        <time>2022-08-06T12:13:00.000Z</time>
      </trkpt>
      <trkpt lat="49.20589" lon="-0.31252">
        <ele>7.999321</ele>
        <time>2022-08-06T12:13:01.000Z</time>
      </trkpt>
      <trkpt lat="49.20593" lon="-0.31257">
        <ele>7.968962</ele>
        <time>2022-08-06T12:13:02.000Z</time>
      </trkpt>
      <trkpt lat="49.20595" lon="-0.31262">
        <ele>7.941488</ele>
        <time>2022-08-06T12:13:03.000Z</time>
      </trkpt>
      <trkpt lat="49.20598" lon="-0.31267">
        <ele>7.914348</ele>
        <time>2022-08-06T12:13:04.000Z</time>
      </trkpt>
      <trkpt lat="49.20601" lon="-0.31272">
        <ele>7.886035</ele>
        <time>2022-08-06T12:13:05.000Z</time>
      </trkpt>
      <trkpt lat="49.20603" lon="-0.31277">
        <ele>7.85856</ele>
        <time>2022-08-06T12:13:06.000Z</time>
      </trkpt>
      <trkpt lat="49.20606" lon="-0.31281">
        <ele>7.832409</ele>
        <time>2022-08-06T12:13:07.000Z</time>
      </trkpt>
      <trkpt lat="49.20608" lon="-0.31287">
        <ele>7.80604</ele>
        <time>2022-08-06T12:13:08.000Z</time>
      </trkpt>
      <trkpt lat="49.2061" lon="-0.31292">
        <ele>7.780122</ele>
        <time>2022-08-06T12:13:09.000Z</time>
      </trkpt>
      <trkpt lat="49.20612" lon="-0.31297">
        <ele>7.754881</ele>
        <time>2022-08-06T12:13:10.000Z</time>
      </trkpt>
      <trkpt lat="49.20614" lon="-0.31302">
        <ele>7.728193</ele>
        <time>2022-08-06T12:13:11.000Z</time>
      </trkpt>
      <trkpt lat="49.20616" lon="-0.31308">
        <ele>7.702202</ele>
        <time>2022-08-06T12:13:12.000Z</time>
      </trkpt>
      <trkpt lat="49.20618" lon="-0.31313">
        <ele>7.67469</ele>
        <time>2022-08-06T12:13:13.000Z</time>
      </trkpt>
      <trkpt lat="49.20619" lon="-0.31319">
        <ele>7.651069</ele>
        <time>2022-08-06T12:13:14.000Z</time>
      </trkpt>
      <trkpt lat="49.20621" lon="-0.31324">
        <ele>7.637815</ele>
        <time>2022-08-06T12:13:15.000Z</time>
      </trkpt>
      <trkpt lat="49.20624" lon="-0.31329">
        <ele>7.625079</ele>
        <time>2022-08-06T12:13:16.000Z</time>
      </trkpt>
      <trkpt lat="49.20626" lon="-0.31334">
        <ele>7.612851</ele>
        <time>2022-08-06T12:13:17.000Z</time>
      </trkpt>
      <trkpt lat="49.20628" lon="-0.3134">
        <ele>7.599894</ele>
        <time>2022-08-06T12:13:18.000Z</time>
      </trkpt>
      <trkpt lat="49.20629" lon="-0.31345">
        <ele>7.587354</ele>
        <time>2022-08-06T12:13:19.000Z</time>
      </trkpt>
      <trkpt lat="49.20631" lon="-0.31351">
        <ele>7.575005</ele>
        <time>2022-08-06T12:13:20.000Z</time>
      </trkpt>
      <trkpt lat="49.20632" lon="-0.31356">
        <ele>7.563222</ele>
        <time>2022-08-06T12:13:21.000Z</time>
      </trkpt>
      <trkpt lat="49.20633" lon="-0.31361">
        <ele>7.552332</ele>
        <time>2022-08-06T12:13:22.000Z</time>
      </trkpt>
      <trkpt lat="49.20635" lon="-0.31366">
        <ele>7.540923</ele>
        <time>2022-08-06T12:13:23.000Z</time>
      </trkpt>
      <trkpt lat="49.20636" lon="-0.31371">
        <ele>7.530522</ele>
        <time>2022-08-06T12:13:24.000Z</time>
      </trkpt>
      <trkpt lat="49.20637" lon="-0.31375">
        <ele>7.519892</ele>
        <time>2022-08-06T12:13:25.000Z</time>
      </trkpt>
      <trkpt lat="49.20638" lon="-0.31379">
        <ele>7.511066</ele>
        <time>2022-08-06T12:13:26.000Z</time>
      </trkpt>
      <trkpt lat="49.20639" lon="-0.31383">
        <ele>7.503232</ele>
        <time>2022-08-06T12:13:27.000Z</time>
      </trkpt>
      <trkpt lat="49.2064" lon="-0.31386">
        <ele>7.495467</ele>
        <time>2022-08-06T12:13:29.000Z</time>
      </trkpt>
      <trkpt lat="49.20635" lon="-0.31376">
        <ele>7.469313</ele>
        <time>2022-08-06T12:15:42.000Z</time>
      </trkpt>
      <trkpt lat="49.20633" lon="-0.3137">
        <ele>7.455174</ele>
        <time>2022-08-06T12:15:43.000Z</time>
      </trkpt>
      <trkpt lat="49.20629" lon="-0.31364">
        <ele>7.438718</ele>
        <time>2022-08-06T12:15:44.000Z</time>
      </trkpt>
      <trkpt lat="49.20627" lon="-0.31358">
        <ele>7.423896</ele>
        <time>2022-08-06T12:15:45.000Z</time>
      </trkpt>
      <trkpt lat="49.20624" lon="-0.31351">
        <ele>7.406611</ele>
        <time>2022-08-06T12:15:46.000Z</time>
      </trkpt>
      <trkpt lat="49.20621" lon="-0.31345">
        <ele>7.390218</ele>
        <time>2022-08-06T12:15:47.000Z</time>
      </trkpt>
      <trkpt lat="49.20618" lon="-0.31338">
        <ele>7.3731</ele>
        <time>2022-08-06T12:15:48.000Z</time>
      </trkpt>
      <trkpt lat="49.20615" lon="-0.31332">
        <ele>7.35687</ele>
        <time>2022-08-06T12:15:49.000Z</time>
      </trkpt>
      <trkpt lat="49.20613" lon="-0.31325">
        <ele>7.341992</ele>
        <time>2022-08-06T12:15:50.000Z</time>
      </trkpt>
      <trkpt lat="49.2061" lon="-0.31319">
        <ele>7.326615</ele>
        <time>2022-08-06T12:15:51.000Z</time>
      </trkpt>
      <trkpt lat="49.20608" lon="-0.31314">
        <ele>7.313183</ele>
        <time>2022-08-06T12:15:52.000Z</time>
      </trkpt>
      <trkpt lat="49.20605" lon="-0.31309">
        <ele>7.29971</ele>
        <time>2022-08-06T12:15:53.000Z</time>
      </trkpt>
      <trkpt lat="49.20603" lon="-0.31304">
        <ele>7.286762</ele>
        <time>2022-08-06T12:15:54.000Z</time>
      </trkpt>
      <trkpt lat="49.206" lon="-0.31299">
        <ele>7.274094</ele>
        <time>2022-08-06T12:15:55.000Z</time>
      </trkpt>
      <trkpt lat="49.20598" lon="-0.31295">
        <ele>7.262882</ele>
        <time>2022-08-06T12:15:56.000Z</time>
      </trkpt>
      <trkpt lat="49.20595" lon="-0.31291">
        <ele>7.250679</ele>
        <time>2022-08-06T12:15:57.000Z</time>
      </trkpt>
      <trkpt lat="49.20593" lon="-0.31286">
        <ele>7.238323</ele>
        <time>2022-08-06T12:15:58.000Z</time>
      </trkpt>
      <trkpt lat="49.2059" lon="-0.31282">
        <ele>7.225679</ele>
        <time>2022-08-06T12:15:59.000Z</time>
      </trkpt>
      <trkpt lat="49.20587" lon="-0.31277">
        <ele>7.212852</ele>
        <time>2022-08-06T12:16:00.000Z</time>
      </trkpt>
      <trkpt lat="49.20585" lon="-0.31273">
        <ele>7.200184</ele>
        <time>2022-08-06T12:16:01.000Z</time>
      </trkpt>
      <trkpt lat="49.20582" lon="-0.31268">
        <ele>7.186626</ele>
        <time>2022-08-06T12:16:02.000Z</time>
      </trkpt>
      <trkpt lat="49.20579" lon="-0.31263">
        <ele>7.174114</ele>
        <time>2022-08-06T12:16:03.000Z</time>
      </trkpt>
      <trkpt lat="49.20576" lon="-0.31259">
        <ele>7.159543</ele>
        <time>2022-08-06T12:16:04.000Z</time>
      </trkpt>
      <trkpt lat="49.20572" lon="-0.31255">
        <ele>7.145493</ele>
        <time>2022-08-06T12:16:05.000Z</time>
      </trkpt>
      <trkpt lat="49.20569" lon="-0.3125">
        <ele>7.131355</ele>
        <time>2022-08-06T12:16:06.000Z</time>
      </trkpt>
      <trkpt lat="49.20566" lon="-0.31246">
        <ele>7.11819</ele>
        <time>2022-08-06T12:16:07.000Z</time>
      </trkpt>
      <trkpt lat="49.20563" lon="-0.31241">
        <ele>7.104052</ele>
        <time>2022-08-06T12:16:08.000Z</time>
      </trkpt>
      <trkpt lat="49.20559" lon="-0.31236">
        <ele>7.089481</ele>
        <time>2022-08-06T12:16:09.000Z</time>
      </trkpt>
      <trkpt lat="49.20556" lon="-0.31232">
        <ele>7.100553</ele>
        <time>2022-08-06T12:16:10.000Z</time>
      </trkpt>
      <trkpt lat="49.20553" lon="-0.31229">
        <ele>7.148451</ele>
        <time>2022-08-06T12:16:11.000Z</time>
      </trkpt>
      <trkpt lat="49.20549" lon="-0.31225">
        <ele>7.206052</ele>
        <time>2022-08-06T12:16:12.000Z</time>
      </trkpt>
      <trkpt lat="49.20546" lon="-0.31221">
        <ele>7.256978</ele>
        <time>2022-08-06T12:16:13.000Z</time>
      </trkpt>
      <trkpt lat="49.20543" lon="-0.31218">
        <ele>7.303788</ele>
        <time>2022-08-06T12:16:14.000Z</time>
      </trkpt>
      <trkpt lat="49.2054" lon="-0.31214">
        <ele>7.353749</ele>
        <time>2022-08-06T12:16:15.000Z</time>
      </trkpt>
      <trkpt lat="49.20538" lon="-0.31211">
        <ele>7.395405</ele>
        <time>2022-08-06T12:16:16.000Z</time>
      </trkpt>
      <trkpt lat="49.20535" lon="-0.31209">
        <ele>7.435163</ele>
        <time>2022-08-06T12:16:17.000Z</time>
      </trkpt>
      <trkpt lat="49.20533" lon="-0.31207">
        <ele>7.472088</ele>
        <time>2022-08-06T12:16:18.000Z</time>
      </trkpt>
      <trkpt lat="49.2053" lon="-0.31205">
        <ele>7.50593</ele>
        <time>2022-08-06T12:16:20.000Z</time>
      </trkpt>
      <trkpt lat="49.20524" lon="-0.31201">
        <ele>7.593929</ele>
        <time>2022-08-06T12:16:57.000Z</time>
      </trkpt>
      <trkpt lat="49.2052" lon="-0.31199">
        <ele>7.64596</ele>
        <time>2022-08-06T12:16:58.000Z</time>
      </trkpt>
      <trkpt lat="49.20516" lon="-0.31198">
        <ele>7.696036</ele>
        <time>2022-08-06T12:16:59.000Z</time>
      </trkpt>
      <trkpt lat="49.20512" lon="-0.31198">
        <ele>7.750523</ele>
        <time>2022-08-06T12:17:00.000Z</time>
      </trkpt>
      <trkpt lat="49.20508" lon="-0.31199">
        <ele>7.800082</ele>
        <time>2022-08-06T12:17:01.000Z</time>
      </trkpt>
      <trkpt lat="49.20504" lon="-0.31199">
        <ele>7.850926</ele>
        <time>2022-08-06T12:17:02.000Z</time>
      </trkpt>
      <trkpt lat="49.20501" lon="-0.312">
        <ele>7.900851</ele>
        <time>2022-08-06T12:17:03.000Z</time>
      </trkpt>
      <trkpt lat="49.20497" lon="-0.31201">
        <ele>7.94314</ele>
        <time>2022-08-06T12:17:04.000Z</time>
      </trkpt>
      <trkpt lat="49.20494" lon="-0.31203">
        <ele>7.989774</ele>
        <time>2022-08-06T12:17:05.000Z</time>
      </trkpt>
      <trkpt lat="49.20491" lon="-0.31204">
        <ele>8.028902</ele>
        <time>2022-08-06T12:17:06.000Z</time>
      </trkpt>
      <trkpt lat="49.20489" lon="-0.31205">
        <ele>8.060951</ele>
        <time>2022-08-06T12:17:07.000Z</time>
      </trkpt>
      <trkpt lat="49.20487" lon="-0.31207">
        <ele>8.087899</ele>
        <time>2022-08-06T12:17:08.000Z</time>
      </trkpt>
      <trkpt lat="49.20485" lon="-0.31208">
        <ele>8.11814</ele>
        <time>2022-08-06T12:17:09.000Z</time>
      </trkpt>
      <trkpt lat="49.20481" lon="-0.31209">
        <ele>8.163962</ele>
        <time>2022-08-06T12:17:11.000Z</time>
      </trkpt>
      <trkpt lat="49.20479" lon="-0.31208">
        <ele>8.194326</ele>
        <time>2022-08-06T12:17:12.000Z</time>
      </trkpt>
      <trkpt lat="49.20477" lon="-0.31207">
        <ele>8.223605</ele>
        <time>2022-08-06T12:17:13.000Z</time>
      </trkpt>
      <trkpt lat="49.20474" lon="-0.31206">
        <ele>8.258317</ele>
        <time>2022-08-06T12:17:14.000Z</time>
      </trkpt>
      <trkpt lat="49.20472" lon="-0.31205">
        <ele>8.288032</ele>
        <time>2022-08-06T12:17:15.000Z</time>
      </trkpt>
      <trkpt lat="49.20469" lon="-0.31204">
        <ele>8.32693</ele>
        <time>2022-08-06T12:17:16.000Z</time>
      </trkpt>
      <trkpt lat="49.20467" lon="-0.31202">
        <ele>8.359231</ele>
        <time>2022-08-06T12:17:17.000Z</time>
      </trkpt>
      <trkpt lat="49.20465" lon="-0.31199">
        <ele>8.395491</ele>
        <time>2022-08-06T12:17:18.000Z</time>
      </trkpt>
      <trkpt lat="49.20463" lon="-0.31195">
        <ele>8.435168</ele>
        <time>2022-08-06T12:17:19.000Z</time>
      </trkpt>
      <trkpt lat="49.20462" lon="-0.31191">
        <ele>8.473367</ele>
        <time>2022-08-06T12:17:20.000Z</time>
      </trkpt>
      <trkpt lat="49.20461" lon="-0.31186">
        <ele>8.520468</ele>
        <time>2022-08-06T12:17:21.000Z</time>
      </trkpt>
      <trkpt lat="49.2046" lon="-0.31181">
        <ele>8.564705</ele>
        <time>2022-08-06T12:17:22.000Z</time>
      </trkpt>
      <trkpt lat="49.20458" lon="-0.31176">
        <ele>8.611805</ele>
        <time>2022-08-06T12:17:23.000Z</time>
      </trkpt>
      <trkpt lat="49.20456" lon="-0.3117">
        <ele>8.662208</ele>
        <time>2022-08-06T12:17:24.000Z</time>
      </trkpt>
      <trkpt lat="49.20455" lon="-0.31166">
        <ele>8.706166</ele>
        <time>2022-08-06T12:17:25.000Z</time>
      </trkpt>
      <trkpt lat="49.20453" lon="-0.31161">
        <ele>8.752923</ele>
        <time>2022-08-06T12:17:26.000Z</time>
      </trkpt>
      <trkpt lat="49.20451" lon="-0.31157">
        <ele>8.797807</ele>
        <time>2022-08-06T12:17:27.000Z</time>
      </trkpt>
      <trkpt lat="49.20449" lon="-0.31153">
        <ele>8.842884</ele>
        <time>2022-08-06T12:17:28.000Z</time>
      </trkpt>
      <trkpt lat="49.20447" lon="-0.31148">
        <ele>8.887503</ele>
        <time>2022-08-06T12:17:29.000Z</time>
      </trkpt>
      <trkpt lat="49.20445" lon="-0.31145">
        <ele>8.929204</ele>
        <time>2022-08-06T12:17:30.000Z</time>
      </trkpt>
      <trkpt lat="49.20442" lon="-0.31142">
        <ele>8.971365</ele>
        <time>2022-08-06T12:17:31.000Z</time>
      </trkpt>
      <trkpt lat="49.20439" lon="-0.31139">
        <ele>9.015316</ele>
        <time>2022-08-06T12:17:32.000Z</time>
      </trkpt>
      <trkpt lat="49.20436" lon="-0.31137">
        <ele>9.057289</ele>
        <time>2022-08-06T12:17:33.000Z</time>
      </trkpt>
      <trkpt lat="49.20433" lon="-0.31134">
        <ele>9.105879</ele>
        <time>2022-08-06T12:17:34.000Z</time>
      </trkpt>
      <trkpt lat="49.2043" lon="-0.3113">
        <ele>9.15217</ele>
        <time>2022-08-06T12:17:35.000Z</time>
      </trkpt>
      <trkpt lat="49.20427" lon="-0.31128">
        <ele>9.203306</ele>
        <time>2022-08-06T12:17:36.000Z</time>
      </trkpt>
      <trkpt lat="49.20423" lon="-0.31124">
        <ele>9.2528</ele>
        <time>2022-08-06T12:17:37.000Z</time>
      </trkpt>
      <trkpt lat="49.20421" lon="-0.31121">
        <ele>9.296535</ele>
        <time>2022-08-06T12:17:38.000Z</time>
      </trkpt>
      <trkpt lat="49.20418" lon="-0.31118">
        <ele>9.344355</ele>
        <time>2022-08-06T12:17:39.000Z</time>
      </trkpt>
      <trkpt lat="49.20415" lon="-0.31115">
        <ele>9.392944</ele>
        <time>2022-08-06T12:17:40.000Z</time>
      </trkpt>
      <trkpt lat="49.20412" lon="-0.31112">
        <ele>9.43531</ele>
        <time>2022-08-06T12:17:41.000Z</time>
      </trkpt>
      <trkpt lat="49.20409" lon="-0.31109">
        <ele>9.48596</ele>
        <time>2022-08-06T12:17:42.000Z</time>
      </trkpt>
      <trkpt lat="49.20407" lon="-0.31105">
        <ele>9.533227</ele>
        <time>2022-08-06T12:17:43.000Z</time>
      </trkpt>
      <trkpt lat="49.20404" lon="-0.31102">
        <ele>9.579997</ele>
        <time>2022-08-06T12:17:44.000Z</time>
      </trkpt>
      <trkpt lat="49.20402" lon="-0.31099">
        <ele>9.625947</ele>
        <time>2022-08-06T12:17:45.000Z</time>
      </trkpt>
      <trkpt lat="49.20399" lon="-0.31095">
        <ele>9.677143</ele>
        <time>2022-08-06T12:17:46.000Z</time>
      </trkpt>
      <trkpt lat="49.20397" lon="-0.31092">
        <ele>9.721436</ele>
        <time>2022-08-06T12:17:47.000Z</time>
      </trkpt>
      <trkpt lat="49.20395" lon="-0.31088">
        <ele>9.769834</ele>
        <time>2022-08-06T12:17:48.000Z</time>
      </trkpt>
      <trkpt lat="49.20392" lon="-0.31084">
        <ele>9.821273</ele>
        <time>2022-08-06T12:17:49.000Z</time>
      </trkpt>
      <trkpt lat="49.2039" lon="-0.31079">
        <ele>9.871102</ele>
        <time>2022-08-06T12:17:50.000Z</time>
      </trkpt>
      <trkpt lat="49.20387" lon="-0.31075">
        <ele>9.927033</ele>
        <time>2022-08-06T12:17:51.000Z</time>
      </trkpt>
      <trkpt lat="49.20385" lon="-0.31071">
        <ele>9.97926</ele>
        <time>2022-08-06T12:17:52.000Z</time>
      </trkpt>
      <trkpt lat="49.20381" lon="-0.31067">
        <ele>10.038982</ele>
        <time>2022-08-06T12:17:53.000Z</time>
      </trkpt>
      <trkpt lat="49.20379" lon="-0.31063">
        <ele>10.08881</ele>
        <time>2022-08-06T12:17:54.000Z</time>
      </trkpt>
      <trkpt lat="49.20377" lon="-0.31059">
        <ele>10.13792</ele>
        <time>2022-08-06T12:17:55.000Z</time>
      </trkpt>
      <trkpt lat="49.20375" lon="-0.31054">
        <ele>10.190805</ele>
        <time>2022-08-06T12:17:56.000Z</time>
      </trkpt>
      <trkpt lat="49.20372" lon="-0.3105">
        <ele>10.244779</ele>
        <time>2022-08-06T12:17:57.000Z</time>
      </trkpt>
      <trkpt lat="49.20369" lon="-0.31046">
        <ele>10.30071</ele>
        <time>2022-08-06T12:17:58.000Z</time>
      </trkpt>
      <trkpt lat="49.20367" lon="-0.31041">
        <ele>10.352869</ele>
        <time>2022-08-06T12:17:59.000Z</time>
      </trkpt>
      <trkpt lat="49.20365" lon="-0.31037">
        <ele>10.401979</ele>
        <time>2022-08-06T12:18:00.000Z</time>
      </trkpt>
      <trkpt lat="49.20363" lon="-0.31033">
        <ele>10.453265</ele>
        <time>2022-08-06T12:18:01.000Z</time>
      </trkpt>
      <trkpt lat="49.2036" lon="-0.31029">
        <ele>10.510468</ele>
        <time>2022-08-06T12:18:02.000Z</time>
      </trkpt>
      <trkpt lat="49.20357" lon="-0.31024">
        <ele>10.564823</ele>
        <time>2022-08-06T12:18:03.000Z</time>
      </trkpt>
      <trkpt lat="49.20355" lon="-0.31019">
        <ele>10.621644</ele>
        <time>2022-08-06T12:18:04.000Z</time>
      </trkpt>
      <trkpt lat="49.20352" lon="-0.31015">
        <ele>10.68321</ele>
        <time>2022-08-06T12:18:05.000Z</time>
      </trkpt>
      <trkpt lat="49.20349" lon="-0.3101">
        <ele>10.740214</ele>
        <time>2022-08-06T12:18:06.000Z</time>
      </trkpt>
      <trkpt lat="49.20346" lon="-0.31005">
        <ele>10.80241</ele>
        <time>2022-08-06T12:18:07.000Z</time>
      </trkpt>
      <trkpt lat="49.20343" lon="-0.31001">
        <ele>10.85851</ele>
        <time>2022-08-06T12:18:08.000Z</time>
      </trkpt>
      <trkpt lat="49.20341" lon="-0.30996">
        <ele>10.916224</ele>
        <time>2022-08-06T12:18:09.000Z</time>
      </trkpt>
      <trkpt lat="49.20338" lon="-0.30991">
        <ele>10.974731</ele>
        <time>2022-08-06T12:18:10.000Z</time>
      </trkpt>
      <trkpt lat="49.20335" lon="-0.30987">
        <ele>11.029407</ele>
        <time>2022-08-06T12:18:11.000Z</time>
      </trkpt>
      <trkpt lat="49.20333" lon="-0.30982">
        <ele>11.083763</ele>
        <time>2022-08-06T12:18:12.000Z</time>
      </trkpt>
      <trkpt lat="49.20331" lon="-0.30978">
        <ele>11.136355</ele>
        <time>2022-08-06T12:18:13.000Z</time>
      </trkpt>
      <trkpt lat="49.20328" lon="-0.30974">
        <ele>11.188582</ele>
        <time>2022-08-06T12:18:14.000Z</time>
      </trkpt>
      <trkpt lat="49.20326" lon="-0.3097">
        <ele>11.23698</ele>
        <time>2022-08-06T12:18:15.000Z</time>
      </trkpt>
      <trkpt lat="49.20323" lon="-0.30966">
        <ele>11.289868</ele>
        <time>2022-08-06T12:18:16.000Z</time>
      </trkpt>
      <trkpt lat="49.20321" lon="-0.30962">
        <ele>11.343425</ele>
        <time>2022-08-06T12:18:17.000Z</time>
      </trkpt>
      <trkpt lat="49.20318" lon="-0.30957">
        <ele>11.4023</ele>
        <time>2022-08-06T12:18:18.000Z</time>
      </trkpt>
      <trkpt lat="49.20315" lon="-0.30952">
        <ele>11.457905</ele>
        <time>2022-08-06T12:18:19.000Z</time>
      </trkpt>
      <trkpt lat="49.20313" lon="-0.30948">
        <ele>11.510793</ele>
        <time>2022-08-06T12:18:20.000Z</time>
      </trkpt>
      <trkpt lat="49.2031" lon="-0.30944">
        <ele>11.565056</ele>
        <time>2022-08-06T12:18:21.000Z</time>
      </trkpt>
      <trkpt lat="49.20307" lon="-0.30941">
        <ele>11.615354</ele>
        <time>2022-08-06T12:18:22.000Z</time>
      </trkpt>
      <trkpt lat="49.20305" lon="-0.30937">
        <ele>11.661662</ele>
        <time>2022-08-06T12:18:23.000Z</time>
      </trkpt>
      <trkpt lat="49.20303" lon="-0.30934">
        <ele>11.704474</ele>
        <time>2022-08-06T12:18:24.000Z</time>
      </trkpt>
      <trkpt lat="49.20301" lon="-0.30932">
        <ele>11.733741</ele>
        <time>2022-08-06T12:18:25.000Z</time>
      </trkpt>
      <trkpt lat="49.203" lon="-0.30929">
        <ele>11.766135</ele>
        <time>2022-08-06T12:18:27.000Z</time>
      </trkpt>
      <trkpt lat="49.20301" lon="-0.30927">
        <ele>11.797931</ele>
        <time>2022-08-06T12:18:31.000Z</time>
      </trkpt>
      <trkpt lat="49.20305" lon="-0.30928">
        <ele>11.853095</ele>
        <time>2022-08-06T12:18:33.000Z</time>
      </trkpt>
      <trkpt lat="49.20306" lon="-0.30931">
        <ele>11.888229</ele>
        <time>2022-08-06T12:18:34.000Z</time>
      </trkpt>
      <trkpt lat="49.20309" lon="-0.30935">
        <ele>11.94416</ele>
        <time>2022-08-06T12:18:35.000Z</time>
      </trkpt>
      <trkpt lat="49.20312" lon="-0.30939">
        <ele>11.911943</ele>
        <time>2022-08-06T12:18:36.000Z</time>
      </trkpt>
      <trkpt lat="49.20315" lon="-0.30944">
        <ele>11.848054</ele>
        <time>2022-08-06T12:18:37.000Z</time>
      </trkpt>
      <trkpt lat="49.20317" lon="-0.30949">
        <ele>11.78446</ele>
        <time>2022-08-06T12:18:38.000Z</time>
      </trkpt>
      <trkpt lat="49.20321" lon="-0.30954">
        <ele>11.711676</ele>
        <time>2022-08-06T12:18:39.000Z</time>
      </trkpt>
      <trkpt lat="49.20323" lon="-0.3096">
        <ele>11.645383</ele>
        <time>2022-08-06T12:18:40.000Z</time>
      </trkpt>
      <trkpt lat="49.20326" lon="-0.30965">
        <ele>11.578565</ele>
        <time>2022-08-06T12:18:41.000Z</time>
      </trkpt>
      <trkpt lat="49.2033" lon="-0.3097">
        <ele>11.503392</ele>
        <time>2022-08-06T12:18:42.000Z</time>
      </trkpt>
      <trkpt lat="49.20333" lon="-0.30975">
        <ele>11.433511</ele>
        <time>2022-08-06T12:18:43.000Z</time>
      </trkpt>
      <trkpt lat="49.20336" lon="-0.30981">
        <ele>11.361462</ele>
        <time>2022-08-06T12:18:44.000Z</time>
      </trkpt>
      <trkpt lat="49.20339" lon="-0.30986">
        <ele>11.288678</ele>
        <time>2022-08-06T12:18:45.000Z</time>
      </trkpt>
      <trkpt lat="49.20343" lon="-0.30992">
        <ele>11.208886</ele>
        <time>2022-08-06T12:18:46.000Z</time>
      </trkpt>
      <trkpt lat="49.20346" lon="-0.30997">
        <ele>11.139804</ele>
        <time>2022-08-06T12:18:47.000Z</time>
      </trkpt>
      <trkpt lat="49.20349" lon="-0.31003">
        <ele>11.063927</ele>
        <time>2022-08-06T12:18:48.000Z</time>
      </trkpt>
      <trkpt lat="49.20353" lon="-0.31008">
        <ele>10.983711</ele>
        <time>2022-08-06T12:18:49.000Z</time>
      </trkpt>
      <trkpt lat="49.20357" lon="-0.31014">
        <ele>10.910186</ele>
        <time>2022-08-06T12:18:50.000Z</time>
      </trkpt>
      <trkpt lat="49.2036" lon="-0.3102">
        <ele>10.829705</ele>
        <time>2022-08-06T12:18:51.000Z</time>
      </trkpt>
      <trkpt lat="49.20364" lon="-0.31025">
        <ele>10.755434</ele>
        <time>2022-08-06T12:18:52.000Z</time>
      </trkpt>
      <trkpt lat="49.20367" lon="-0.31031">
        <ele>10.674545</ele>
        <time>2022-08-06T12:18:53.000Z</time>
      </trkpt>
      <trkpt lat="49.20371" lon="-0.31037">
        <ele>10.59724</ele>
        <time>2022-08-06T12:18:54.000Z</time>
      </trkpt>
      <trkpt lat="49.20375" lon="-0.31042">
        <ele>10.516064</ele>
        <time>2022-08-06T12:18:55.000Z</time>
      </trkpt>
      <trkpt lat="49.20378" lon="-0.31048">
        <ele>10.438759</ele>
        <time>2022-08-06T12:18:56.000Z</time>
      </trkpt>
      <trkpt lat="49.20382" lon="-0.31054">
        <ele>10.358543</ele>
        <time>2022-08-06T12:18:57.000Z</time>
      </trkpt>
      <trkpt lat="49.20386" lon="-0.31059">
        <ele>10.274761</ele>
        <time>2022-08-06T12:18:58.000Z</time>
      </trkpt>
      <trkpt lat="49.2039" lon="-0.31065">
        <ele>10.192423</ele>
        <time>2022-08-06T12:18:59.000Z</time>
      </trkpt>
      <trkpt lat="49.20395" lon="-0.3107">
        <ele>10.111939</ele>
        <time>2022-08-06T12:19:00.000Z</time>
      </trkpt>
      <trkpt lat="49.20399" lon="-0.31075">
        <ele>10.027245</ele>
        <time>2022-08-06T12:19:01.000Z</time>
      </trkpt>
      <trkpt lat="49.20403" lon="-0.3108">
        <ele>9.944275</ele>
        <time>2022-08-06T12:19:02.000Z</time>
      </trkpt>
      <trkpt lat="49.20407" lon="-0.31085">
        <ele>9.86379</ele>
        <time>2022-08-06T12:19:03.000Z</time>
      </trkpt>
      <trkpt lat="49.20412" lon="-0.3109">
        <ele>9.775965</ele>
        <time>2022-08-06T12:19:04.000Z</time>
      </trkpt>
      <trkpt lat="49.20417" lon="-0.31095">
        <ele>9.697001</ele>
        <time>2022-08-06T12:19:05.000Z</time>
      </trkpt>
      <trkpt lat="49.20421" lon="-0.31098">
        <ele>9.619261</ele>
        <time>2022-08-06T12:19:06.000Z</time>
      </trkpt>
      <trkpt lat="49.20426" lon="-0.31102">
        <ele>9.536592</ele>
        <time>2022-08-06T12:19:07.000Z</time>
      </trkpt>
      <trkpt lat="49.2043" lon="-0.31107">
        <ele>9.459606</ele>
        <time>2022-08-06T12:19:08.000Z</time>
      </trkpt>
      <trkpt lat="49.20434" lon="-0.31111">
        <ele>9.386061</ele>
        <time>2022-08-06T12:19:09.000Z</time>
      </trkpt>
      <trkpt lat="49.20438" lon="-0.31115">
        <ele>9.311237</ele>
        <time>2022-08-06T12:19:10.000Z</time>
      </trkpt>
      <trkpt lat="49.20443" lon="-0.31119">
        <ele>9.232152</ele>
        <time>2022-08-06T12:19:11.000Z</time>
      </trkpt>
      <trkpt lat="49.20447" lon="-0.31122">
        <ele>9.130955</ele>
        <time>2022-08-06T12:19:12.000Z</time>
      </trkpt>
      <trkpt lat="49.20451" lon="-0.31125">
        <ele>9.029822</ele>
        <time>2022-08-06T12:19:13.000Z</time>
      </trkpt>
      <trkpt lat="49.20456" lon="-0.31128">
        <ele>8.926138</ele>
        <time>2022-08-06T12:19:14.000Z</time>
      </trkpt>
      <trkpt lat="49.2046" lon="-0.31129">
        <ele>8.835268</ele>
        <time>2022-08-06T12:19:15.000Z</time>
      </trkpt>
      <trkpt lat="49.20464" lon="-0.3113">
        <ele>8.744689</ele>
        <time>2022-08-06T12:19:16.000Z</time>
      </trkpt>
      <trkpt lat="49.20468" lon="-0.31128">
        <ele>8.66105</ele>
        <time>2022-08-06T12:19:17.000Z</time>
      </trkpt>
      <trkpt lat="49.20471" lon="-0.31126">
        <ele>8.592484</ele>
        <time>2022-08-06T12:19:18.000Z</time>
      </trkpt>
      <trkpt lat="49.20474" lon="-0.31124">
        <ele>8.520036</ele>
        <time>2022-08-06T12:19:19.000Z</time>
      </trkpt>
      <trkpt lat="49.20476" lon="-0.31121">
        <ele>8.459138</ele>
        <time>2022-08-06T12:19:20.000Z</time>
      </trkpt>
      <trkpt lat="49.20477" lon="-0.31117">
        <ele>8.391746</ele>
        <time>2022-08-06T12:19:21.000Z</time>
      </trkpt>
      <trkpt lat="49.20479" lon="-0.31112">
        <ele>8.319865</ele>
        <time>2022-08-06T12:19:22.000Z</time>
      </trkpt>
      <trkpt lat="49.2048" lon="-0.31107">
        <ele>8.237637</ele>
        <time>2022-08-06T12:19:23.000Z</time>
      </trkpt>
      <trkpt lat="49.20482" lon="-0.311">
        <ele>8.138632</ele>
        <time>2022-08-06T12:19:24.000Z</time>
      </trkpt>
      <trkpt lat="49.20484" lon="-0.31093">
        <ele>8.029739</ele>
        <time>2022-08-06T12:19:25.000Z</time>
      </trkpt>
      <trkpt lat="49.20486" lon="-0.31086">
        <ele>7.918622</ele>
        <time>2022-08-06T12:19:26.000Z</time>
      </trkpt>
      <trkpt lat="49.20487" lon="-0.31078">
        <ele>7.808455</ele>
        <time>2022-08-06T12:19:27.000Z</time>
      </trkpt>
      <trkpt lat="49.20486" lon="-0.3107">
        <ele>7.695599</ele>
        <time>2022-08-06T12:19:28.000Z</time>
      </trkpt>
      <trkpt lat="49.20486" lon="-0.31062">
        <ele>7.579931</ele>
        <time>2022-08-06T12:19:29.000Z</time>
      </trkpt>
      <trkpt lat="49.20485" lon="-0.31054">
        <ele>7.462461</ele>
        <time>2022-08-06T12:19:30.000Z</time>
      </trkpt>
      <trkpt lat="49.20484" lon="-0.31046">
        <ele>7.346251</ele>
        <time>2022-08-06T12:19:31.000Z</time>
      </trkpt>
      <trkpt lat="49.20483" lon="-0.31037">
        <ele>7.226044</ele>
        <time>2022-08-06T12:19:32.000Z</time>
      </trkpt>
      <trkpt lat="49.20482" lon="-0.31029">
        <ele>7.108562</ele>
        <time>2022-08-06T12:19:33.000Z</time>
      </trkpt>
      <trkpt lat="49.20481" lon="-0.31022">
        <ele>7.001166</ele>
        <time>2022-08-06T12:19:34.000Z</time>
      </trkpt>
      <trkpt lat="49.2048" lon="-0.31015">
        <ele>6.907118</ele>
        <time>2022-08-06T12:19:35.000Z</time>
      </trkpt>
      <trkpt lat="49.20479" lon="-0.31009">
        <ele>6.825805</ele>
        <time>2022-08-06T12:19:36.000Z</time>
      </trkpt>
      <trkpt lat="49.20478" lon="-0.31004">
        <ele>6.750812</ele>
        <time>2022-08-06T12:19:37.000Z</time>
      </trkpt>
      <trkpt lat="49.20478" lon="-0.31">
        <ele>6.683366</ele>
        <time>2022-08-06T12:19:38.000Z</time>
      </trkpt>
      <trkpt lat="49.20477" lon="-0.30995">
        <ele>6.61407</ele>
        <time>2022-08-06T12:19:39.000Z</time>
      </trkpt>
      <trkpt lat="49.20476" lon="-0.30991">
        <ele>6.555749</ele>
        <time>2022-08-06T12:19:40.000Z</time>
      </trkpt>
      <trkpt lat="49.20475" lon="-0.30987">
        <ele>6.496307</ele>
        <time>2022-08-06T12:19:41.000Z</time>
      </trkpt>
      <trkpt lat="49.20472" lon="-0.30985">
        <ele>6.433824</ele>
        <time>2022-08-06T12:19:42.000Z</time>
      </trkpt>
      <trkpt lat="49.2047" lon="-0.30982">
        <ele>6.377176</ele>
        <time>2022-08-06T12:19:43.000Z</time>
      </trkpt>
      <trkpt lat="49.20467" lon="-0.30982">
        <ele>6.307681</ele>
        <time>2022-08-06T12:19:44.000Z</time>
      </trkpt>
      <trkpt lat="49.20464" lon="-0.30982">
        <ele>6.245025</ele>
        <time>2022-08-06T12:19:45.000Z</time>
      </trkpt>
      <trkpt lat="49.20461" lon="-0.30983">
        <ele>6.175132</ele>
        <time>2022-08-06T12:19:46.000Z</time>
      </trkpt>
      <trkpt lat="49.20458" lon="-0.30984">
        <ele>6.111052</ele>
        <time>2022-08-06T12:19:47.000Z</time>
      </trkpt>
      <trkpt lat="49.20455" lon="-0.30985">
        <ele>6.03931</ele>
        <time>2022-08-06T12:19:48.000Z</time>
      </trkpt>
      <trkpt lat="49.20452" lon="-0.30986">
        <ele>5.97523</ele>
        <time>2022-08-06T12:19:49.000Z</time>
      </trkpt>
      <trkpt lat="49.20449" lon="-0.30986">
        <ele>5.914857</ele>
        <time>2022-08-06T12:19:50.000Z</time>
      </trkpt>
      <trkpt lat="49.20447" lon="-0.30986">
        <ele>5.871538</ele>
        <time>2022-08-06T12:19:51.000Z</time>
      </trkpt>
      <trkpt lat="49.20445" lon="-0.30986">
        <ele>5.830485</ele>
        <time>2022-08-06T12:19:52.000Z</time>
      </trkpt>
      <trkpt lat="49.20441" lon="-0.30982">
        <ele>5.719698</ele>
        <time>2022-08-06T12:21:04.000Z</time>
      </trkpt>
      <trkpt lat="49.20437" lon="-0.30979">
        <ele>5.634567</ele>
        <time>2022-08-06T12:21:05.000Z</time>
      </trkpt>
      <trkpt lat="49.20433" lon="-0.30977">
        <ele>5.545407</ele>
        <time>2022-08-06T12:21:06.000Z</time>
      </trkpt>
      <trkpt lat="49.20429" lon="-0.30975">
        <ele>5.449716</ele>
        <time>2022-08-06T12:21:07.000Z</time>
      </trkpt>
      <trkpt lat="49.20425" lon="-0.30973">
        <ele>5.359275</ele>
        <time>2022-08-06T12:21:08.000Z</time>
      </trkpt>
      <trkpt lat="49.20421" lon="-0.3097">
        <ele>5.35088</ele>
        <time>2022-08-06T12:21:09.000Z</time>
      </trkpt>
      <trkpt lat="49.20417" lon="-0.30966">
        <ele>5.342103</ele>
        <time>2022-08-06T12:21:10.000Z</time>
      </trkpt>
      <trkpt lat="49.20413" lon="-0.30962">
        <ele>5.333749</ele>
        <time>2022-08-06T12:21:11.000Z</time>
      </trkpt>
      <trkpt lat="49.2041" lon="-0.30958">
        <ele>5.326834</ele>
        <time>2022-08-06T12:21:12.000Z</time>
      </trkpt>
      <trkpt lat="49.20406" lon="-0.30954">
        <ele>5.318779</ele>
        <time>2022-08-06T12:21:13.000Z</time>
      </trkpt>
      <trkpt lat="49.20403" lon="-0.30949">
        <ele>5.310499</ele>
        <time>2022-08-06T12:21:14.000Z</time>
      </trkpt>
      <trkpt lat="49.204" lon="-0.30945">
        <ele>5.303349</ele>
        <time>2022-08-06T12:21:15.000Z</time>
      </trkpt>
      <trkpt lat="49.20397" lon="-0.30941">
        <ele>5.295713</ele>
        <time>2022-08-06T12:21:16.000Z</time>
      </trkpt>
      <trkpt lat="49.20394" lon="-0.30937">
        <ele>5.28823</ele>
        <time>2022-08-06T12:21:17.000Z</time>
      </trkpt>
      <trkpt lat="49.20391" lon="-0.30933">
        <ele>5.281552</ele>
        <time>2022-08-06T12:21:18.000Z</time>
      </trkpt>
      <trkpt lat="49.20388" lon="-0.30929">
        <ele>5.274451</ele>
        <time>2022-08-06T12:21:19.000Z</time>
      </trkpt>
      <trkpt lat="49.20385" lon="-0.30925">
        <ele>5.267115</ele>
        <time>2022-08-06T12:21:20.000Z</time>
      </trkpt>
      <trkpt lat="49.20382" lon="-0.30921">
        <ele>5.260182</ele>
        <time>2022-08-06T12:21:21.000Z</time>
      </trkpt>
      <trkpt lat="49.2038" lon="-0.30916">
        <ele>5.252785</ele>
        <time>2022-08-06T12:21:22.000Z</time>
      </trkpt>
      <trkpt lat="49.20377" lon="-0.30912">
        <ele>5.245635</ele>
        <time>2022-08-06T12:21:23.000Z</time>
      </trkpt>
      <trkpt lat="49.20373" lon="-0.30909">
        <ele>5.238371</ele>
        <time>2022-08-06T12:21:24.000Z</time>
      </trkpt>
      <trkpt lat="49.2037" lon="-0.30906">
        <ele>5.230732</ele>
        <time>2022-08-06T12:21:25.000Z</time>
      </trkpt>
      <trkpt lat="49.20365" lon="-0.30904">
        <ele>5.222946</ele>
        <time>2022-08-06T12:21:26.000Z</time>
      </trkpt>
      <trkpt lat="49.20361" lon="-0.30905">
        <ele>5.215496</ele>
        <time>2022-08-06T12:21:27.000Z</time>
      </trkpt>
      <trkpt lat="49.20357" lon="-0.30907">
        <ele>5.207529</ele>
        <time>2022-08-06T12:21:28.000Z</time>
      </trkpt>
      <trkpt lat="49.20353" lon="-0.30911">
        <ele>5.199372</ele>
        <time>2022-08-06T12:21:29.000Z</time>
      </trkpt>
      <trkpt lat="49.20349" lon="-0.30915">
        <ele>5.190665</ele>
        <time>2022-08-06T12:21:30.000Z</time>
      </trkpt>
      <trkpt lat="49.20346" lon="-0.3092">
        <ele>5.182232</ele>
        <time>2022-08-06T12:21:31.000Z</time>
      </trkpt>
      <trkpt lat="49.20342" lon="-0.30925">
        <ele>5.17356</ele>
        <time>2022-08-06T12:21:32.000Z</time>
      </trkpt>
      <trkpt lat="49.20339" lon="-0.30929">
        <ele>5.164636</ele>
        <time>2022-08-06T12:21:33.000Z</time>
      </trkpt>
      <trkpt lat="49.20335" lon="-0.30934">
        <ele>5.155496</ele>
        <time>2022-08-06T12:21:34.000Z</time>
      </trkpt>
      <trkpt lat="49.20331" lon="-0.30939">
        <ele>5.146572</ele>
        <time>2022-08-06T12:21:35.000Z</time>
      </trkpt>
      <trkpt lat="49.20327" lon="-0.30944">
        <ele>5.137204</ele>
        <time>2022-08-06T12:21:36.000Z</time>
      </trkpt>
      <trkpt lat="49.20323" lon="-0.30949">
        <ele>5.128428</ele>
        <time>2022-08-06T12:21:37.000Z</time>
      </trkpt>
      <trkpt lat="49.20319" lon="-0.30954">
        <ele>5.118863</ele>
        <time>2022-08-06T12:21:38.000Z</time>
      </trkpt>
      <trkpt lat="49.20315" lon="-0.30958">
        <ele>5.110509</ele>
        <time>2022-08-06T12:21:39.000Z</time>
      </trkpt>
      <trkpt lat="49.20311" lon="-0.30962">
        <ele>5.101734</ele>
        <time>2022-08-06T12:21:40.000Z</time>
      </trkpt>
      <trkpt lat="49.20308" lon="-0.30968">
        <ele>5.092208</ele>
        <time>2022-08-06T12:21:41.000Z</time>
      </trkpt>
      <trkpt lat="49.20304" lon="-0.30973">
        <ele>5.083536</ele>
        <time>2022-08-06T12:21:42.000Z</time>
      </trkpt>
      <trkpt lat="49.203" lon="-0.30978">
        <ele>5.073825</ele>
        <time>2022-08-06T12:21:43.000Z</time>
      </trkpt>
      <trkpt lat="49.20296" lon="-0.30983">
        <ele>5.064748</ele>
        <time>2022-08-06T12:21:44.000Z</time>
      </trkpt>
      <trkpt lat="49.20292" lon="-0.30988">
        <ele>5.054736</ele>
        <time>2022-08-06T12:21:45.000Z</time>
      </trkpt>
      <trkpt lat="49.20288" lon="-0.30994">
        <ele>5.045344</ele>
        <time>2022-08-06T12:21:46.000Z</time>
      </trkpt>
      <trkpt lat="49.20284" lon="-0.30999">
        <ele>5.036032</ele>
        <time>2022-08-06T12:21:47.000Z</time>
      </trkpt>
      <trkpt lat="49.2028" lon="-0.31004">
        <ele>5.027677</ele>
        <time>2022-08-06T12:21:48.000Z</time>
      </trkpt>
      <trkpt lat="49.20277" lon="-0.31009">
        <ele>5.020184</ele>
        <time>2022-08-06T12:21:49.000Z</time>
      </trkpt>
      <trkpt lat="49.20273" lon="-0.31015">
        <ele>5.012144</ele>
        <time>2022-08-06T12:21:50.000Z</time>
      </trkpt>
      <trkpt lat="49.20269" lon="-0.3102">
        <ele>5.004057</ele>
        <time>2022-08-06T12:21:51.000Z</time>
      </trkpt>
      <trkpt lat="49.20265" lon="-0.31025">
        <ele>4.996053</ele>
        <time>2022-08-06T12:21:52.000Z</time>
      </trkpt>
      <trkpt lat="49.20261" lon="-0.3103">
        <ele>4.98749</ele>
        <time>2022-08-06T12:21:53.000Z</time>
      </trkpt>
      <trkpt lat="49.20256" lon="-0.31034">
        <ele>4.978709</ele>
        <time>2022-08-06T12:21:54.000Z</time>
      </trkpt>
      <trkpt lat="49.20251" lon="-0.31039">
        <ele>4.970145</ele>
        <time>2022-08-06T12:21:55.000Z</time>
      </trkpt>
      <trkpt lat="49.20246" lon="-0.31043">
        <ele>4.961213</ele>
        <time>2022-08-06T12:21:56.000Z</time>
      </trkpt>
      <trkpt lat="49.2024" lon="-0.31047">
        <ele>4.95139</ele>
        <time>2022-08-06T12:21:57.000Z</time>
      </trkpt>
      <trkpt lat="49.20235" lon="-0.31051">
        <ele>4.94175</ele>
        <time>2022-08-06T12:21:58.000Z</time>
      </trkpt>
      <trkpt lat="49.20229" lon="-0.31055">
        <ele>4.932942</ele>
        <time>2022-08-06T12:21:59.000Z</time>
      </trkpt>
      <trkpt lat="49.20224" lon="-0.31058">
        <ele>4.923849</ele>
        <time>2022-08-06T12:22:00.000Z</time>
      </trkpt>
      <trkpt lat="49.20218" lon="-0.31061">
        <ele>4.913915</ele>
        <time>2022-08-06T12:22:01.000Z</time>
      </trkpt>
      <trkpt lat="49.20212" lon="-0.31064">
        <ele>4.904663</ele>
        <time>2022-08-06T12:22:02.000Z</time>
      </trkpt>
      <trkpt lat="49.20206" lon="-0.31066">
        <ele>4.894845</ele>
        <time>2022-08-06T12:22:03.000Z</time>
      </trkpt>
      <trkpt lat="49.202" lon="-0.31069">
        <ele>4.885053</ele>
        <time>2022-08-06T12:22:04.000Z</time>
      </trkpt>
      <trkpt lat="49.20194" lon="-0.31071">
        <ele>4.875336</ele>
        <time>2022-08-06T12:22:05.000Z</time>
      </trkpt>
      <trkpt lat="49.20188" lon="-0.31073">
        <ele>4.866312</ele>
        <time>2022-08-06T12:22:06.000Z</time>
      </trkpt>
      <trkpt lat="49.20182" lon="-0.31074">
        <ele>4.856748</ele>
        <time>2022-08-06T12:22:07.000Z</time>
      </trkpt>
      <trkpt lat="49.20177" lon="-0.31076">
        <ele>4.848027</ele>
        <time>2022-08-06T12:22:08.000Z</time>
      </trkpt>
      <trkpt lat="49.20171" lon="-0.31078">
        <ele>4.839003</ele>
        <time>2022-08-06T12:22:09.000Z</time>
      </trkpt>
      <trkpt lat="49.20165" lon="-0.3108">
        <ele>4.829806</ele>
        <time>2022-08-06T12:22:10.000Z</time>
      </trkpt>
      <trkpt lat="49.2016" lon="-0.31081">
        <ele>4.821277</ele>
        <time>2022-08-06T12:22:11.000Z</time>
      </trkpt>
      <trkpt lat="49.20154" lon="-0.31083">
        <ele>4.812173</ele>
        <time>2022-08-06T12:22:12.000Z</time>
      </trkpt>
      <trkpt lat="49.20149" lon="-0.31084">
        <ele>4.803726</ele>
        <time>2022-08-06T12:22:13.000Z</time>
      </trkpt>
      <trkpt lat="49.20143" lon="-0.31085">
        <ele>4.794687</ele>
        <time>2022-08-06T12:22:14.000Z</time>
      </trkpt>
      <trkpt lat="49.20137" lon="-0.31086">
        <ele>4.785702</ele>
        <time>2022-08-06T12:22:15.000Z</time>
      </trkpt>
      <trkpt lat="49.20132" lon="-0.31088">
        <ele>4.777515</ele>
        <time>2022-08-06T12:22:16.000Z</time>
      </trkpt>
      <trkpt lat="49.20126" lon="-0.31089">
        <ele>4.769068</ele>
        <time>2022-08-06T12:22:17.000Z</time>
      </trkpt>
      <trkpt lat="49.20121" lon="-0.3109">
        <ele>4.760608</ele>
        <time>2022-08-06T12:22:18.000Z</time>
      </trkpt>
      <trkpt lat="49.20116" lon="-0.31091">
        <ele>4.754522</ele>
        <time>2022-08-06T12:22:19.000Z</time>
      </trkpt>
      <trkpt lat="49.2011" lon="-0.31093">
        <ele>4.753641</ele>
        <time>2022-08-06T12:22:20.000Z</time>
      </trkpt>
      <trkpt lat="49.20104" lon="-0.31094">
        <ele>4.752694</ele>
        <time>2022-08-06T12:22:21.000Z</time>
      </trkpt>
      <trkpt lat="49.20099" lon="-0.31095">
        <ele>4.75181</ele>
        <time>2022-08-06T12:22:22.000Z</time>
      </trkpt>
      <trkpt lat="49.20093" lon="-0.31097">
        <ele>4.750863</ele>
        <time>2022-08-06T12:22:23.000Z</time>
      </trkpt>
      <trkpt lat="49.20088" lon="-0.31098">
        <ele>4.74998</ele>
        <time>2022-08-06T12:22:24.000Z</time>
      </trkpt>
      <trkpt lat="49.20082" lon="-0.31099">
        <ele>4.74908</ele>
        <time>2022-08-06T12:22:25.000Z</time>
      </trkpt>
      <trkpt lat="49.20077" lon="-0.311">
        <ele>4.748152</ele>
        <time>2022-08-06T12:22:26.000Z</time>
      </trkpt>
      <trkpt lat="49.20071" lon="-0.31102">
        <ele>4.747252</ele>
        <time>2022-08-06T12:22:27.000Z</time>
      </trkpt>
      <trkpt lat="49.20066" lon="-0.31103">
        <ele>4.746417</ele>
        <time>2022-08-06T12:22:28.000Z</time>
      </trkpt>
      <trkpt lat="49.20061" lon="-0.31105">
        <ele>4.745578</ele>
        <time>2022-08-06T12:22:29.000Z</time>
      </trkpt>
      <trkpt lat="49.20056" lon="-0.31106">
        <ele>4.744747</ele>
        <time>2022-08-06T12:22:30.000Z</time>
      </trkpt>
      <trkpt lat="49.20051" lon="-0.31107">
        <ele>4.743917</ele>
        <time>2022-08-06T12:22:31.000Z</time>
      </trkpt>
      <trkpt lat="49.20045" lon="-0.31108">
        <ele>4.743063</ele>
        <time>2022-08-06T12:22:32.000Z</time>
      </trkpt>
      <trkpt lat="49.20041" lon="-0.3111">
        <ele>4.742271</ele>
        <time>2022-08-06T12:22:33.000Z</time>
      </trkpt>
      <trkpt lat="49.20036" lon="-0.31111">
        <ele>4.741426</ele>
        <time>2022-08-06T12:22:34.000Z</time>
      </trkpt>
      <trkpt lat="49.20031" lon="-0.31113">
        <ele>4.740637</ele>
        <time>2022-08-06T12:22:35.000Z</time>
      </trkpt>
      <trkpt lat="49.20025" lon="-0.31114">
        <ele>4.739754</ele>
        <time>2022-08-06T12:22:36.000Z</time>
      </trkpt>
      <trkpt lat="49.2002" lon="-0.31116">
        <ele>4.738848</ele>
        <time>2022-08-06T12:22:37.000Z</time>
      </trkpt>
      <trkpt lat="49.20015" lon="-0.31117">
        <ele>4.738057</ele>
        <time>2022-08-06T12:22:38.000Z</time>
      </trkpt>
      <trkpt lat="49.2001" lon="-0.31119">
        <ele>4.73717</ele>
        <time>2022-08-06T12:22:39.000Z</time>
      </trkpt>
      <trkpt lat="49.20005" lon="-0.3112">
        <ele>4.736377</ele>
        <time>2022-08-06T12:22:40.000Z</time>
      </trkpt>
      <trkpt lat="49.2" lon="-0.31121">
        <ele>4.735547</ele>
        <time>2022-08-06T12:22:41.000Z</time>
      </trkpt>
      <trkpt lat="49.19994" lon="-0.31123">
        <ele>4.734649</ele>
        <time>2022-08-06T12:22:42.000Z</time>
      </trkpt>
      <trkpt lat="49.19989" lon="-0.31124">
        <ele>4.733864</ele>
        <time>2022-08-06T12:22:43.000Z</time>
      </trkpt>
      <trkpt lat="49.19984" lon="-0.31125">
        <ele>4.732984</ele>
        <time>2022-08-06T12:22:44.000Z</time>
      </trkpt>
      <trkpt lat="49.19979" lon="-0.31127">
        <ele>4.732094</ele>
        <time>2022-08-06T12:22:45.000Z</time>
      </trkpt>
      <trkpt lat="49.19973" lon="-0.31128">
        <ele>4.731247</ele>
        <time>2022-08-06T12:22:46.000Z</time>
      </trkpt>
      <trkpt lat="49.19968" lon="-0.31129">
        <ele>4.730369</ele>
        <time>2022-08-06T12:22:47.000Z</time>
      </trkpt>
      <trkpt lat="49.19962" lon="-0.31129">
        <ele>4.729431</ele>
        <time>2022-08-06T12:22:48.000Z</time>
      </trkpt>
      <trkpt lat="49.19957" lon="-0.3113">
        <ele>4.728603</ele>
        <time>2022-08-06T12:22:49.000Z</time>
      </trkpt>
      <trkpt lat="49.19951" lon="-0.3113">
        <ele>4.727682</ele>
        <time>2022-08-06T12:22:50.000Z</time>
      </trkpt>
      <trkpt lat="49.19946" lon="-0.3113">
        <ele>4.726794</ele>
        <time>2022-08-06T12:22:51.000Z</time>
      </trkpt>
      <trkpt lat="49.19941" lon="-0.3113">
        <ele>4.72597</ele>
        <time>2022-08-06T12:22:52.000Z</time>
      </trkpt>
      <trkpt lat="49.19936" lon="-0.31129">
        <ele>4.731416</ele>
        <time>2022-08-06T12:22:53.000Z</time>
      </trkpt>
      <trkpt lat="49.19932" lon="-0.31129">
        <ele>4.738549</ele>
        <time>2022-08-06T12:22:54.000Z</time>
      </trkpt>
      <trkpt lat="49.19927" lon="-0.31128">
        <ele>4.746155</ele>
        <time>2022-08-06T12:22:55.000Z</time>
      </trkpt>
      <trkpt lat="49.19923" lon="-0.31128">
        <ele>4.752206</ele>
        <time>2022-08-06T12:22:56.000Z</time>
      </trkpt>
      <trkpt lat="49.19919" lon="-0.31127">
        <ele>4.757748</ele>
        <time>2022-08-06T12:22:57.000Z</time>
      </trkpt>
      <trkpt lat="49.19916" lon="-0.31128">
        <ele>4.763447</ele>
        <time>2022-08-06T12:22:58.000Z</time>
      </trkpt>
      <trkpt lat="49.19913" lon="-0.31128">
        <ele>4.767904</ele>
        <time>2022-08-06T12:22:59.000Z</time>
      </trkpt>
      <trkpt lat="49.1991" lon="-0.31129">
        <ele>4.77303</ele>
        <time>2022-08-06T12:23:00.000Z</time>
      </trkpt>
      <trkpt lat="49.19906" lon="-0.31129">
        <ele>4.779217</ele>
        <time>2022-08-06T12:23:01.000Z</time>
      </trkpt>
      <trkpt lat="49.19902" lon="-0.3113">
        <ele>4.785712</ele>
        <time>2022-08-06T12:23:02.000Z</time>
      </trkpt>
      <trkpt lat="49.19897" lon="-0.3113">
        <ele>4.793301</ele>
        <time>2022-08-06T12:23:03.000Z</time>
      </trkpt>
      <trkpt lat="49.19892" lon="-0.3113">
        <ele>4.801532</ele>
        <time>2022-08-06T12:23:04.000Z</time>
      </trkpt>
      <trkpt lat="49.19886" lon="-0.31131">
        <ele>4.810085</ele>
        <time>2022-08-06T12:23:05.000Z</time>
      </trkpt>
      <trkpt lat="49.19881" lon="-0.31131">
        <ele>4.819259</ele>
        <time>2022-08-06T12:23:06.000Z</time>
      </trkpt>
      <trkpt lat="49.19875" lon="-0.31131">
        <ele>4.82875</ele>
        <time>2022-08-06T12:23:07.000Z</time>
      </trkpt>
      <trkpt lat="49.19868" lon="-0.31132">
        <ele>4.838911</ele>
        <time>2022-08-06T12:23:08.000Z</time>
      </trkpt>
      <trkpt lat="49.19862" lon="-0.31133">
        <ele>4.849033</ele>
        <time>2022-08-06T12:23:09.000Z</time>
      </trkpt>
      <trkpt lat="49.19855" lon="-0.31133">
        <ele>4.859783</ele>
        <time>2022-08-06T12:23:10.000Z</time>
      </trkpt>
      <trkpt lat="49.19849" lon="-0.31132">
        <ele>4.869283</ele>
        <time>2022-08-06T12:23:11.000Z</time>
      </trkpt>
      <trkpt lat="49.19843" lon="-0.31132">
        <ele>4.87894</ele>
        <time>2022-08-06T12:23:12.000Z</time>
      </trkpt>
      <trkpt lat="49.19837" lon="-0.31132">
        <ele>4.88906</ele>
        <time>2022-08-06T12:23:13.000Z</time>
      </trkpt>
      <trkpt lat="49.1983" lon="-0.31132">
        <ele>4.898706</ele>
        <time>2022-08-06T12:23:14.000Z</time>
      </trkpt>
      <trkpt lat="49.19824" lon="-0.31131">
        <ele>4.908377</ele>
        <time>2022-08-06T12:23:15.000Z</time>
      </trkpt>
      <trkpt lat="49.19818" lon="-0.3113">
        <ele>4.918056</ele>
        <time>2022-08-06T12:23:16.000Z</time>
      </trkpt>
      <trkpt lat="49.19812" lon="-0.3113">
        <ele>4.92865</ele>
        <time>2022-08-06T12:23:17.000Z</time>
      </trkpt>
      <trkpt lat="49.19805" lon="-0.3113">
        <ele>4.938768</ele>
        <time>2022-08-06T12:23:18.000Z</time>
      </trkpt>
      <trkpt lat="49.19799" lon="-0.3113">
        <ele>4.948886</ele>
        <time>2022-08-06T12:23:19.000Z</time>
      </trkpt>
      <trkpt lat="49.19793" lon="-0.3113">
        <ele>4.958535</ele>
        <time>2022-08-06T12:23:20.000Z</time>
      </trkpt>
      <trkpt lat="49.19787" lon="-0.3113">
        <ele>4.967549</ele>
        <time>2022-08-06T12:23:21.000Z</time>
      </trkpt>
      <trkpt lat="49.19781" lon="-0.3113">
        <ele>4.977192</ele>
        <time>2022-08-06T12:23:22.000Z</time>
      </trkpt>
      <trkpt lat="49.19775" lon="-0.3113">
        <ele>4.986841</ele>
        <time>2022-08-06T12:23:23.000Z</time>
      </trkpt>
      <trkpt lat="49.19769" lon="-0.31129">
        <ele>4.996511</ele>
        <time>2022-08-06T12:23:24.000Z</time>
      </trkpt>
      <trkpt lat="49.19762" lon="-0.31129">
        <ele>5.007112</ele>
        <time>2022-08-06T12:23:25.000Z</time>
      </trkpt>
      <trkpt lat="49.19756" lon="-0.3113">
        <ele>5.003021</ele>
        <time>2022-08-06T12:23:26.000Z</time>
      </trkpt>
      <trkpt lat="49.1975" lon="-0.3113">
        <ele>4.994027</ele>
        <time>2022-08-06T12:23:27.000Z</time>
      </trkpt>
      <trkpt lat="49.19743" lon="-0.31129">
        <ele>4.983916</ele>
        <time>2022-08-06T12:23:28.000Z</time>
      </trkpt>
      <trkpt lat="49.19737" lon="-0.31129">
        <ele>4.973815</ele>
        <time>2022-08-06T12:23:29.000Z</time>
      </trkpt>
      <trkpt lat="49.1973" lon="-0.31129">
        <ele>4.963081</ele>
        <time>2022-08-06T12:23:30.000Z</time>
      </trkpt>
      <trkpt lat="49.19725" lon="-0.31129">
        <ele>4.95453</ele>
        <time>2022-08-06T12:23:31.000Z</time>
      </trkpt>
      <trkpt lat="49.19719" lon="-0.3113">
        <ele>4.945969</ele>
        <time>2022-08-06T12:23:32.000Z</time>
      </trkpt>
      <trkpt lat="49.19713" lon="-0.31131">
        <ele>4.935795</ele>
        <time>2022-08-06T12:23:33.000Z</time>
      </trkpt>
      <trkpt lat="49.19706" lon="-0.31132">
        <ele>4.925048</ele>
        <time>2022-08-06T12:23:34.000Z</time>
      </trkpt>
      <trkpt lat="49.197" lon="-0.31133">
        <ele>4.915553</ele>
        <time>2022-08-06T12:23:35.000Z</time>
      </trkpt>
      <trkpt lat="49.19694" lon="-0.31133">
        <ele>4.905914</ele>
        <time>2022-08-06T12:23:36.000Z</time>
      </trkpt>
      <trkpt lat="49.19688" lon="-0.31134">
        <ele>4.895802</ele>
        <time>2022-08-06T12:23:37.000Z</time>
      </trkpt>
      <trkpt lat="49.19682" lon="-0.31134">
        <ele>4.886172</ele>
        <time>2022-08-06T12:23:38.000Z</time>
      </trkpt>
      <trkpt lat="49.19676" lon="-0.31135">
        <ele>4.876973</ele>
        <time>2022-08-06T12:23:39.000Z</time>
      </trkpt>
      <trkpt lat="49.1967" lon="-0.31136">
        <ele>4.867942</ele>
        <time>2022-08-06T12:23:40.000Z</time>
      </trkpt>
      <trkpt lat="49.19664" lon="-0.31136">
        <ele>4.858281</ele>
        <time>2022-08-06T12:23:41.000Z</time>
      </trkpt>
      <trkpt lat="49.19658" lon="-0.31137">
        <ele>4.849072</ele>
        <time>2022-08-06T12:23:42.000Z</time>
      </trkpt>
      <trkpt lat="49.19653" lon="-0.31138">
        <ele>4.840019</ele>
        <time>2022-08-06T12:23:43.000Z</time>
      </trkpt>
      <trkpt lat="49.19647" lon="-0.31139">
        <ele>4.83082</ele>
        <time>2022-08-06T12:23:44.000Z</time>
      </trkpt>
      <trkpt lat="49.19641" lon="-0.3114">
        <ele>4.821788</ele>
        <time>2022-08-06T12:23:45.000Z</time>
      </trkpt>
      <trkpt lat="49.19635" lon="-0.31141">
        <ele>4.812128</ele>
        <time>2022-08-06T12:23:46.000Z</time>
      </trkpt>
      <trkpt lat="49.19629" lon="-0.31142">
        <ele>4.802448</ele>
        <time>2022-08-06T12:23:47.000Z</time>
      </trkpt>
      <trkpt lat="49.19623" lon="-0.31143">
        <ele>4.792778</ele>
        <time>2022-08-06T12:23:48.000Z</time>
      </trkpt>
      <trkpt lat="49.19617" lon="-0.31144">
        <ele>4.783098</ele>
        <time>2022-08-06T12:23:49.000Z</time>
      </trkpt>
      <trkpt lat="49.19612" lon="-0.31145">
        <ele>4.775439</ele>
        <time>2022-08-06T12:23:50.000Z</time>
      </trkpt>
      <trkpt lat="49.19606" lon="-0.31146">
        <ele>4.766797</ele>
        <time>2022-08-06T12:23:51.000Z</time>
      </trkpt>
      <trkpt lat="49.19601" lon="-0.31147">
        <ele>4.757587</ele>
        <time>2022-08-06T12:23:52.000Z</time>
      </trkpt>
      <trkpt lat="49.19595" lon="-0.31149">
        <ele>4.748443</ele>
        <time>2022-08-06T12:23:53.000Z</time>
      </trkpt>
      <trkpt lat="49.19589" lon="-0.3115">
        <ele>4.738763</ele>
        <time>2022-08-06T12:23:54.000Z</time>
      </trkpt>
      <trkpt lat="49.19583" lon="-0.31151">
        <ele>4.729014</ele>
        <time>2022-08-06T12:23:55.000Z</time>
      </trkpt>
      <trkpt lat="49.19577" lon="-0.31153">
        <ele>4.730286</ele>
        <time>2022-08-06T12:23:56.000Z</time>
      </trkpt>
      <trkpt lat="49.19571" lon="-0.31154">
        <ele>4.736067</ele>
        <time>2022-08-06T12:23:57.000Z</time>
      </trkpt>
      <trkpt lat="49.19565" lon="-0.31156">
        <ele>4.74216</ele>
        <time>2022-08-06T12:23:58.000Z</time>
      </trkpt>
      <trkpt lat="49.19559" lon="-0.31158">
        <ele>4.747879</ele>
        <time>2022-08-06T12:23:59.000Z</time>
      </trkpt>
      <trkpt lat="49.19554" lon="-0.3116">
        <ele>4.753722</ele>
        <time>2022-08-06T12:24:00.000Z</time>
      </trkpt>
      <trkpt lat="49.19548" lon="-0.31162">
        <ele>4.759896</ele>
        <time>2022-08-06T12:24:01.000Z</time>
      </trkpt>
      <trkpt lat="49.19542" lon="-0.31165">
        <ele>4.765586</ele>
        <time>2022-08-06T12:24:02.000Z</time>
      </trkpt>
      <trkpt lat="49.19536" lon="-0.31168">
        <ele>4.771667</ele>
        <time>2022-08-06T12:24:03.000Z</time>
      </trkpt>
      <trkpt lat="49.19531" lon="-0.31171">
        <ele>4.777037</ele>
        <time>2022-08-06T12:24:04.000Z</time>
      </trkpt>
      <trkpt lat="49.19527" lon="-0.31175">
        <ele>4.781913</ele>
        <time>2022-08-06T12:24:05.000Z</time>
      </trkpt>
      <trkpt lat="49.19523" lon="-0.31178">
        <ele>4.786115</ele>
        <time>2022-08-06T12:24:06.000Z</time>
      </trkpt>
      <trkpt lat="49.1952" lon="-0.3118">
        <ele>4.789132</ele>
        <time>2022-08-06T12:24:07.000Z</time>
      </trkpt>
      <trkpt lat="49.19519" lon="-0.31181">
        <ele>4.790913</ele>
        <time>2022-08-06T12:24:08.000Z</time>
      </trkpt>
      <trkpt lat="49.19516" lon="-0.31183">
        <ele>4.793901</ele>
        <time>2022-08-06T12:24:09.000Z</time>
      </trkpt>
      <trkpt lat="49.19513" lon="-0.31182">
        <ele>4.79644</ele>
        <time>2022-08-06T12:24:11.000Z</time>
      </trkpt>
      <trkpt lat="49.19514" lon="-0.31178">
        <ele>4.799096</ele>
        <time>2022-08-06T12:24:13.000Z</time>
      </trkpt>
      <trkpt lat="49.19518" lon="-0.31176">
        <ele>4.803419</ele>
        <time>2022-08-06T12:24:15.000Z</time>
      </trkpt>
      <trkpt lat="49.19521" lon="-0.31176">
        <ele>4.805977</ele>
        <time>2022-08-06T12:24:16.000Z</time>
      </trkpt>
      <trkpt lat="49.19523" lon="-0.31176">
        <ele>4.808148</ele>
        <time>2022-08-06T12:24:17.000Z</time>
      </trkpt>
      <trkpt lat="49.19526" lon="-0.31175">
        <ele>4.810782</ele>
        <time>2022-08-06T12:24:18.000Z</time>
      </trkpt>
      <trkpt lat="49.19529" lon="-0.31174">
        <ele>4.81364</ele>
        <time>2022-08-06T12:24:19.000Z</time>
      </trkpt>
      <trkpt lat="49.19531" lon="-0.31171">
        <ele>4.816591</ele>
        <time>2022-08-06T12:24:20.000Z</time>
      </trkpt>
      <trkpt lat="49.19534" lon="-0.31169">
        <ele>4.819862</ele>
        <time>2022-08-06T12:24:21.000Z</time>
      </trkpt>
      <trkpt lat="49.19537" lon="-0.31166">
        <ele>4.823392</ele>
        <time>2022-08-06T12:24:22.000Z</time>
      </trkpt>
      <trkpt lat="49.19541" lon="-0.31164">
        <ele>4.827188</ele>
        <time>2022-08-06T12:24:23.000Z</time>
      </trkpt>
      <trkpt lat="49.19545" lon="-0.31162">
        <ele>4.831776</ele>
        <time>2022-08-06T12:24:24.000Z</time>
      </trkpt>
      <trkpt lat="49.1955" lon="-0.3116">
        <ele>4.836632</ele>
        <time>2022-08-06T12:24:25.000Z</time>
      </trkpt>
      <trkpt lat="49.19555" lon="-0.31158">
        <ele>4.841203</ele>
        <time>2022-08-06T12:24:26.000Z</time>
      </trkpt>
      <trkpt lat="49.1956" lon="-0.31156">
        <ele>4.846648</ele>
        <time>2022-08-06T12:24:27.000Z</time>
      </trkpt>
      <trkpt lat="49.19565" lon="-0.31154">
        <ele>4.852108</ele>
        <time>2022-08-06T12:24:28.000Z</time>
      </trkpt>
      <trkpt lat="49.19571" lon="-0.31153">
        <ele>4.857598</ele>
        <time>2022-08-06T12:24:29.000Z</time>
      </trkpt>
      <trkpt lat="49.19577" lon="-0.31151">
        <ele>4.863281</ele>
        <time>2022-08-06T12:24:30.000Z</time>
      </trkpt>
      <trkpt lat="49.19582" lon="-0.3115">
        <ele>4.869025</ele>
        <time>2022-08-06T12:24:31.000Z</time>
      </trkpt>
      <trkpt lat="49.19588" lon="-0.31149">
        <ele>4.874795</ele>
        <time>2022-08-06T12:24:32.000Z</time>
      </trkpt>
      <trkpt lat="49.19594" lon="-0.31148">
        <ele>4.880726</ele>
        <time>2022-08-06T12:24:33.000Z</time>
      </trkpt>
      <trkpt lat="49.196" lon="-0.31147">
        <ele>4.886733</ele>
        <time>2022-08-06T12:24:34.000Z</time>
      </trkpt>
      <trkpt lat="49.19606" lon="-0.31146">
        <ele>4.892762</ele>
        <time>2022-08-06T12:24:35.000Z</time>
      </trkpt>
      <trkpt lat="49.19613" lon="-0.31145">
        <ele>4.898784</ele>
        <time>2022-08-06T12:24:36.000Z</time>
      </trkpt>
      <trkpt lat="49.19618" lon="-0.31145">
        <ele>4.899046</ele>
        <time>2022-08-06T12:24:37.000Z</time>
      </trkpt>
      <trkpt lat="49.19623" lon="-0.31144">
        <ele>4.870636</ele>
        <time>2022-08-06T12:24:38.000Z</time>
      </trkpt>
      <trkpt lat="49.19629" lon="-0.31143">
        <ele>4.836947</ele>
        <time>2022-08-06T12:24:39.000Z</time>
      </trkpt>
      <trkpt lat="49.19636" lon="-0.31142">
        <ele>4.804821</ele>
        <time>2022-08-06T12:24:40.000Z</time>
      </trkpt>
      <trkpt lat="49.19642" lon="-0.31141">
        <ele>4.771133</ele>
        <time>2022-08-06T12:24:41.000Z</time>
      </trkpt>
      <trkpt lat="49.19648" lon="-0.3114">
        <ele>4.739007</ele>
        <time>2022-08-06T12:24:42.000Z</time>
      </trkpt>
      <trkpt lat="49.19654" lon="-0.31139">
        <ele>4.705351</ele>
        <time>2022-08-06T12:24:43.000Z</time>
      </trkpt>
      <trkpt lat="49.19661" lon="-0.31138">
        <ele>4.671663</ele>
        <time>2022-08-06T12:24:44.000Z</time>
      </trkpt>
      <trkpt lat="49.19667" lon="-0.31137">
        <ele>4.637974</ele>
        <time>2022-08-06T12:24:45.000Z</time>
      </trkpt>
      <trkpt lat="49.19674" lon="-0.31136">
        <ele>4.604348</ele>
        <time>2022-08-06T12:24:46.000Z</time>
      </trkpt>
      <trkpt lat="49.1968" lon="-0.31136">
        <ele>4.572359</ele>
        <time>2022-08-06T12:24:47.000Z</time>
      </trkpt>
      <trkpt lat="49.19685" lon="-0.31135">
        <ele>4.542493</ele>
        <time>2022-08-06T12:24:48.000Z</time>
      </trkpt>
      <trkpt lat="49.19692" lon="-0.31135">
        <ele>4.508935</ele>
        <time>2022-08-06T12:24:49.000Z</time>
      </trkpt>
      <trkpt lat="49.19698" lon="-0.31134">
        <ele>4.478515</ele>
        <time>2022-08-06T12:24:50.000Z</time>
      </trkpt>
      <trkpt lat="49.19704" lon="-0.31134">
        <ele>4.444915</ele>
        <time>2022-08-06T12:24:51.000Z</time>
      </trkpt>
      <trkpt lat="49.1971" lon="-0.31133">
        <ele>4.411357</ele>
        <time>2022-08-06T12:24:52.000Z</time>
      </trkpt>
      <trkpt lat="49.19717" lon="-0.31132">
        <ele>4.377757</ele>
        <time>2022-08-06T12:24:53.000Z</time>
      </trkpt>
      <trkpt lat="49.19723" lon="-0.31133">
        <ele>4.345807</ele>
        <time>2022-08-06T12:24:54.000Z</time>
      </trkpt>
      <trkpt lat="49.19729" lon="-0.31132">
        <ele>4.313856</ele>
        <time>2022-08-06T12:24:55.000Z</time>
      </trkpt>
      <trkpt lat="49.19735" lon="-0.31132">
        <ele>4.282436</ele>
        <time>2022-08-06T12:24:56.000Z</time>
      </trkpt>
      <trkpt lat="49.19741" lon="-0.31133">
        <ele>4.250464</ele>
        <time>2022-08-06T12:24:57.000Z</time>
      </trkpt>
      <trkpt lat="49.19747" lon="-0.31133">
        <ele>4.218504</ele>
        <time>2022-08-06T12:24:58.000Z</time>
      </trkpt>
      <trkpt lat="49.19754" lon="-0.31133">
        <ele>4.184946</ele>
        <time>2022-08-06T12:24:59.000Z</time>
      </trkpt>
      <trkpt lat="49.1976" lon="-0.31132">
        <ele>4.152957</ele>
        <time>2022-08-06T12:25:00.000Z</time>
      </trkpt>
      <trkpt lat="49.19766" lon="-0.31132">
        <ele>4.120968</ele>
        <time>2022-08-06T12:25:01.000Z</time>
      </trkpt>
      <trkpt lat="49.19772" lon="-0.31131">
        <ele>4.089541</ele>
        <time>2022-08-06T12:25:02.000Z</time>
      </trkpt>
      <trkpt lat="49.19778" lon="-0.31131">
        <ele>4.059167</ele>
        <time>2022-08-06T12:25:03.000Z</time>
      </trkpt>
      <trkpt lat="49.19784" lon="-0.31131">
        <ele>4.024075</ele>
        <time>2022-08-06T12:25:04.000Z</time>
      </trkpt>
      <trkpt lat="49.1979" lon="-0.31131">
        <ele>3.992115</ele>
        <time>2022-08-06T12:25:05.000Z</time>
      </trkpt>
      <trkpt lat="49.19797" lon="-0.3113">
        <ele>3.961197</ele>
        <time>2022-08-06T12:25:06.000Z</time>
      </trkpt>
      <trkpt lat="49.19803" lon="-0.3113">
        <ele>3.961421</ele>
        <time>2022-08-06T12:25:07.000Z</time>
      </trkpt>
      <trkpt lat="49.19809" lon="-0.3113">
        <ele>3.961641</ele>
        <time>2022-08-06T12:25:08.000Z</time>
      </trkpt>
      <trkpt lat="49.19815" lon="-0.3113">
        <ele>3.961865</ele>
        <time>2022-08-06T12:25:09.000Z</time>
      </trkpt>
      <trkpt lat="49.19821" lon="-0.3113">
        <ele>3.962089</ele>
        <time>2022-08-06T12:25:10.000Z</time>
      </trkpt>
      <trkpt lat="49.19827" lon="-0.3113">
        <ele>3.962302</ele>
        <time>2022-08-06T12:25:11.000Z</time>
      </trkpt>
      <trkpt lat="49.19833" lon="-0.3113">
        <ele>3.962523</ele>
        <time>2022-08-06T12:25:12.000Z</time>
      </trkpt>
      <trkpt lat="49.19839" lon="-0.31129">
        <ele>3.962747</ele>
        <time>2022-08-06T12:25:13.000Z</time>
      </trkpt>
      <trkpt lat="49.19845" lon="-0.31129">
        <ele>3.962971</ele>
        <time>2022-08-06T12:25:14.000Z</time>
      </trkpt>
      <trkpt lat="49.19851" lon="-0.31129">
        <ele>3.963207</ele>
        <time>2022-08-06T12:25:15.000Z</time>
      </trkpt>
      <trkpt lat="49.19857" lon="-0.3113">
        <ele>3.963431</ele>
        <time>2022-08-06T12:25:16.000Z</time>
      </trkpt>
      <trkpt lat="49.19863" lon="-0.3113">
        <ele>3.963655</ele>
        <time>2022-08-06T12:25:17.000Z</time>
      </trkpt>
      <trkpt lat="49.1987" lon="-0.3113">
        <ele>3.96389</ele>
        <time>2022-08-06T12:25:18.000Z</time>
      </trkpt>
      <trkpt lat="49.19875" lon="-0.31129">
        <ele>3.964089</ele>
        <time>2022-08-06T12:25:19.000Z</time>
      </trkpt>
      <trkpt lat="49.19882" lon="-0.31129">
        <ele>3.964335</ele>
        <time>2022-08-06T12:25:20.000Z</time>
      </trkpt>
      <trkpt lat="49.19888" lon="-0.31129">
        <ele>3.964559</ele>
        <time>2022-08-06T12:25:21.000Z</time>
      </trkpt>
      <trkpt lat="49.19894" lon="-0.31128">
        <ele>3.964794</ele>
        <time>2022-08-06T12:25:22.000Z</time>
      </trkpt>
      <trkpt lat="49.199" lon="-0.31128">
        <ele>3.964993</ele>
        <time>2022-08-06T12:25:23.000Z</time>
      </trkpt>
      <trkpt lat="49.19906" lon="-0.31128">
        <ele>3.965206</ele>
        <time>2022-08-06T12:25:24.000Z</time>
      </trkpt>
      <trkpt lat="49.19911" lon="-0.31127">
        <ele>3.965394</ele>
        <time>2022-08-06T12:25:25.000Z</time>
      </trkpt>
      <trkpt lat="49.19916" lon="-0.31127">
        <ele>3.965582</ele>
        <time>2022-08-06T12:25:26.000Z</time>
      </trkpt>
      <trkpt lat="49.19922" lon="-0.31126">
        <ele>3.965796</ele>
        <time>2022-08-06T12:25:27.000Z</time>
      </trkpt>
      <trkpt lat="49.19927" lon="-0.31126">
        <ele>3.966009</ele>
        <time>2022-08-06T12:25:28.000Z</time>
      </trkpt>
      <trkpt lat="49.19933" lon="-0.31126">
        <ele>3.966207</ele>
        <time>2022-08-06T12:25:29.000Z</time>
      </trkpt>
      <trkpt lat="49.19939" lon="-0.31126">
        <ele>3.96642</ele>
        <time>2022-08-06T12:25:30.000Z</time>
      </trkpt>
      <trkpt lat="49.19944" lon="-0.31126">
        <ele>3.966619</ele>
        <time>2022-08-06T12:25:31.000Z</time>
      </trkpt>
      <trkpt lat="49.19949" lon="-0.31126">
        <ele>3.966817</ele>
        <time>2022-08-06T12:25:32.000Z</time>
      </trkpt>
      <trkpt lat="49.19954" lon="-0.31126">
        <ele>3.966983</ele>
        <time>2022-08-06T12:25:33.000Z</time>
      </trkpt>
      <trkpt lat="49.19958" lon="-0.31127">
        <ele>3.967148</ele>
        <time>2022-08-06T12:25:34.000Z</time>
      </trkpt>
      <trkpt lat="49.19962" lon="-0.31127">
        <ele>3.967288</ele>
        <time>2022-08-06T12:25:35.000Z</time>
      </trkpt>
      <trkpt lat="49.19965" lon="-0.31127">
        <ele>3.967373</ele>
        <time>2022-08-06T12:25:37.000Z</time>
      </trkpt>
      <trkpt lat="49.1997" lon="-0.31124">
        <ele>3.967577</ele>
        <time>2022-08-06T12:25:48.000Z</time>
      </trkpt>
      <trkpt lat="49.19972" lon="-0.31124">
        <ele>3.967648</ele>
        <time>2022-08-06T12:25:50.000Z</time>
      </trkpt>
      <trkpt lat="49.19969" lon="-0.31125">
        <ele>3.967755</ele>
        <time>2022-08-06T12:25:52.000Z</time>
      </trkpt>
      <trkpt lat="49.19966" lon="-0.31125">
        <ele>3.969481</ele>
        <time>2022-08-06T12:25:53.000Z</time>
      </trkpt>
      <trkpt lat="49.19964" lon="-0.31124">
        <ele>3.971758</ele>
        <time>2022-08-06T12:25:54.000Z</time>
      </trkpt>
      <trkpt lat="49.1995" lon="-0.31124">
        <ele>3.988566</ele>
        <time>2022-08-06T12:26:02.000Z</time>
      </trkpt>
      <trkpt lat="49.19946" lon="-0.31125">
        <ele>3.993957</ele>
        <time>2022-08-06T12:26:03.000Z</time>
      </trkpt>
      <trkpt lat="49.19941" lon="-0.31126">
        <ele>4.00012</ele>
        <time>2022-08-06T12:26:04.000Z</time>
      </trkpt>
      <trkpt lat="49.19935" lon="-0.31127">
        <ele>4.006231</ele>
        <time>2022-08-06T12:26:05.000Z</time>
      </trkpt>
      <trkpt lat="49.1993" lon="-0.31127">
        <ele>4.013146</ele>
        <time>2022-08-06T12:26:06.000Z</time>
      </trkpt>
      <trkpt lat="49.19924" lon="-0.31127">
        <ele>4.020419</ele>
        <time>2022-08-06T12:26:07.000Z</time>
      </trkpt>
      <trkpt lat="49.19917" lon="-0.31128">
        <ele>4.027701</ele>
        <time>2022-08-06T12:26:08.000Z</time>
      </trkpt>
      <trkpt lat="49.1991" lon="-0.31129">
        <ele>4.036081</ele>
        <time>2022-08-06T12:26:09.000Z</time>
      </trkpt>
      <trkpt lat="49.19906" lon="-0.3113">
        <ele>4.041855</ele>
        <time>2022-08-06T12:26:10.000Z</time>
      </trkpt>
      <trkpt lat="49.19899" lon="-0.31131">
        <ele>4.049879</ele>
        <time>2022-08-06T12:26:11.000Z</time>
      </trkpt>
      <trkpt lat="49.19893" lon="-0.31131">
        <ele>4.057512</ele>
        <time>2022-08-06T12:26:12.000Z</time>
      </trkpt>
      <trkpt lat="49.19886" lon="-0.31131">
        <ele>4.065142</ele>
        <time>2022-08-06T12:26:13.000Z</time>
      </trkpt>
      <trkpt lat="49.19879" lon="-0.31131">
        <ele>4.073611</ele>
        <time>2022-08-06T12:26:14.000Z</time>
      </trkpt>
      <trkpt lat="49.19873" lon="-0.31131">
        <ele>4.080763</ele>
        <time>2022-08-06T12:26:15.000Z</time>
      </trkpt>
      <trkpt lat="49.19867" lon="-0.31132">
        <ele>4.088398</ele>
        <time>2022-08-06T12:26:16.000Z</time>
      </trkpt>
      <trkpt lat="49.1986" lon="-0.31132">
        <ele>4.096027</ele>
        <time>2022-08-06T12:26:17.000Z</time>
      </trkpt>
      <trkpt lat="49.19854" lon="-0.31132">
        <ele>4.103302</ele>
        <time>2022-08-06T12:26:18.000Z</time>
      </trkpt>
      <trkpt lat="49.19847" lon="-0.31132">
        <ele>4.11129</ele>
        <time>2022-08-06T12:26:19.000Z</time>
      </trkpt>
      <trkpt lat="49.19841" lon="-0.31132">
        <ele>4.118919</ele>
        <time>2022-08-06T12:26:20.000Z</time>
      </trkpt>
      <trkpt lat="49.19835" lon="-0.31132">
        <ele>4.126548</ele>
        <time>2022-08-06T12:26:21.000Z</time>
      </trkpt>
      <trkpt lat="49.19829" lon="-0.31132">
        <ele>4.133823</ele>
        <time>2022-08-06T12:26:22.000Z</time>
      </trkpt>
      <trkpt lat="49.19821" lon="-0.31132">
        <ele>4.143361</ele>
        <time>2022-08-06T12:26:23.000Z</time>
      </trkpt>
      <trkpt lat="49.19815" lon="-0.31132">
        <ele>4.149441</ele>
        <time>2022-08-06T12:26:24.000Z</time>
      </trkpt>
      <trkpt lat="49.19809" lon="-0.31132">
        <ele>4.157089</ele>
        <time>2022-08-06T12:26:25.000Z</time>
      </trkpt>
      <trkpt lat="49.19801" lon="-0.31131">
        <ele>4.16627</ele>
        <time>2022-08-06T12:26:26.000Z</time>
      </trkpt>
      <trkpt lat="49.19797" lon="-0.31132">
        <ele>4.172005</ele>
        <time>2022-08-06T12:26:27.000Z</time>
      </trkpt>
      <trkpt lat="49.1979" lon="-0.31133">
        <ele>4.180016</ele>
        <time>2022-08-06T12:26:28.000Z</time>
      </trkpt>
      <trkpt lat="49.19783" lon="-0.31133">
        <ele>4.193395</ele>
        <time>2022-08-06T12:26:29.000Z</time>
      </trkpt>
      <trkpt lat="49.19776" lon="-0.31133">
        <ele>4.21224</ele>
        <time>2022-08-06T12:26:30.000Z</time>
      </trkpt>
      <trkpt lat="49.19771" lon="-0.31132">
        <ele>4.224004</ele>
        <time>2022-08-06T12:26:31.000Z</time>
      </trkpt>
      <trkpt lat="49.19765" lon="-0.31132">
        <ele>4.238934</ele>
        <time>2022-08-06T12:26:32.000Z</time>
      </trkpt>
      <trkpt lat="49.19758" lon="-0.31132">
        <ele>4.255334</ele>
        <time>2022-08-06T12:26:33.000Z</time>
      </trkpt>
      <trkpt lat="49.19752" lon="-0.31132">
        <ele>4.270266</ele>
        <time>2022-08-06T12:26:34.000Z</time>
      </trkpt>
      <trkpt lat="49.19746" lon="-0.31133">
        <ele>4.285949</ele>
        <time>2022-08-06T12:26:35.000Z</time>
      </trkpt>
      <trkpt lat="49.19739" lon="-0.31133">
        <ele>4.301632</ele>
        <time>2022-08-06T12:26:36.000Z</time>
      </trkpt>
      <trkpt lat="49.19733" lon="-0.31134">
        <ele>4.317324</ele>
        <time>2022-08-06T12:26:37.000Z</time>
      </trkpt>
      <trkpt lat="49.19727" lon="-0.31134">
        <ele>4.332267</ele>
        <time>2022-08-06T12:26:38.000Z</time>
      </trkpt>
      <trkpt lat="49.1972" lon="-0.31134">
        <ele>4.348664</ele>
        <time>2022-08-06T12:26:39.000Z</time>
      </trkpt>
      <trkpt lat="49.19713" lon="-0.31135">
        <ele>4.365081</ele>
        <time>2022-08-06T12:26:40.000Z</time>
      </trkpt>
      <trkpt lat="49.19707" lon="-0.31136">
        <ele>4.380784</ele>
        <time>2022-08-06T12:26:41.000Z</time>
      </trkpt>
      <trkpt lat="49.19701" lon="-0.31136">
        <ele>4.39645</ele>
        <time>2022-08-06T12:26:42.000Z</time>
      </trkpt>
      <trkpt lat="49.19694" lon="-0.31136">
        <ele>4.411386</ele>
        <time>2022-08-06T12:26:43.000Z</time>
      </trkpt>
      <trkpt lat="49.19688" lon="-0.31136">
        <ele>4.426322</ele>
        <time>2022-08-06T12:26:44.000Z</time>
      </trkpt>
      <trkpt lat="49.19681" lon="-0.31137">
        <ele>4.4452</ele>
        <time>2022-08-06T12:26:45.000Z</time>
      </trkpt>
      <trkpt lat="49.19674" lon="-0.31138">
        <ele>4.460903</ele>
        <time>2022-08-06T12:26:46.000Z</time>
      </trkpt>
      <trkpt lat="49.19668" lon="-0.31138">
        <ele>4.476586</ele>
        <time>2022-08-06T12:26:47.000Z</time>
      </trkpt>
      <trkpt lat="49.19663" lon="-0.31139">
        <ele>4.487472</ele>
        <time>2022-08-06T12:26:48.000Z</time>
      </trkpt>
      <trkpt lat="49.19657" lon="-0.31141">
        <ele>4.504243</ele>
        <time>2022-08-06T12:26:49.000Z</time>
      </trkpt>
      <trkpt lat="49.19651" lon="-0.31141">
        <ele>4.518983</ele>
        <time>2022-08-06T12:26:50.000Z</time>
      </trkpt>
      <trkpt lat="49.19645" lon="-0.31142">
        <ele>4.533267</ele>
        <time>2022-08-06T12:26:51.000Z</time>
      </trkpt>
      <trkpt lat="49.19639" lon="-0.31143">
        <ele>4.548217</ele>
        <time>2022-08-06T12:26:52.000Z</time>
      </trkpt>
      <trkpt lat="49.19632" lon="-0.31143">
        <ele>4.564627</ele>
        <time>2022-08-06T12:26:53.000Z</time>
      </trkpt>
      <trkpt lat="49.19626" lon="-0.31144">
        <ele>4.579563</ele>
        <time>2022-08-06T12:26:54.000Z</time>
      </trkpt>
      <trkpt lat="49.1962" lon="-0.31144">
        <ele>4.594546</ele>
        <time>2022-08-06T12:26:55.000Z</time>
      </trkpt>
      <trkpt lat="49.19614" lon="-0.31146">
        <ele>4.608759</ele>
        <time>2022-08-06T12:26:56.000Z</time>
      </trkpt>
      <trkpt lat="49.19608" lon="-0.31148">
        <ele>4.62304</ele>
        <time>2022-08-06T12:26:57.000Z</time>
      </trkpt>
      <trkpt lat="49.19602" lon="-0.31149">
        <ele>4.629008</ele>
        <time>2022-08-06T12:26:58.000Z</time>
      </trkpt>
      <trkpt lat="49.19596" lon="-0.3115">
        <ele>4.635232</ele>
        <time>2022-08-06T12:26:59.000Z</time>
      </trkpt>
      <trkpt lat="49.1959" lon="-0.31151">
        <ele>4.641208</ele>
        <time>2022-08-06T12:27:00.000Z</time>
      </trkpt>
      <trkpt lat="49.19584" lon="-0.31152">
        <ele>4.647488</ele>
        <time>2022-08-06T12:27:01.000Z</time>
      </trkpt>
      <trkpt lat="49.19578" lon="-0.31154">
        <ele>4.653813</ele>
        <time>2022-08-06T12:27:02.000Z</time>
      </trkpt>
      <trkpt lat="49.19572" lon="-0.31155">
        <ele>4.660423</ele>
        <time>2022-08-06T12:27:03.000Z</time>
      </trkpt>
      <trkpt lat="49.19565" lon="-0.31156">
        <ele>4.667033</ele>
        <time>2022-08-06T12:27:04.000Z</time>
      </trkpt>
      <trkpt lat="49.19559" lon="-0.31159">
        <ele>4.673779</ele>
        <time>2022-08-06T12:27:05.000Z</time>
      </trkpt>
      <trkpt lat="49.19553" lon="-0.31161">
        <ele>4.680111</ele>
        <time>2022-08-06T12:27:06.000Z</time>
      </trkpt>
      <trkpt lat="49.19547" lon="-0.31164">
        <ele>4.686337</ele>
        <time>2022-08-06T12:27:07.000Z</time>
      </trkpt>
      <trkpt lat="49.19542" lon="-0.31166">
        <ele>4.69182</ele>
        <time>2022-08-06T12:27:08.000Z</time>
      </trkpt>
      <trkpt lat="49.19537" lon="-0.31169">
        <ele>4.697776</ele>
        <time>2022-08-06T12:27:09.000Z</time>
      </trkpt>
      <trkpt lat="49.19532" lon="-0.31172">
        <ele>4.703394</ele>
        <time>2022-08-06T12:27:10.000Z</time>
      </trkpt>
      <trkpt lat="49.19527" lon="-0.31176">
        <ele>4.708474</ele>
        <time>2022-08-06T12:27:11.000Z</time>
      </trkpt>
      <trkpt lat="49.19523" lon="-0.31179">
        <ele>4.713186</ele>
        <time>2022-08-06T12:27:12.000Z</time>
      </trkpt>
      <trkpt lat="49.19521" lon="-0.31181">
        <ele>4.715547</ele>
        <time>2022-08-06T12:27:13.000Z</time>
      </trkpt>
      <trkpt lat="49.19519" lon="-0.31182">
        <ele>4.717827</ele>
        <time>2022-08-06T12:27:17.000Z</time>
      </trkpt>
      <trkpt lat="49.19514" lon="-0.31184">
        <ele>4.722886</ele>
        <time>2022-08-06T12:28:04.000Z</time>
      </trkpt>
      <trkpt lat="49.19511" lon="-0.31186">
        <ele>4.725996</ele>
        <time>2022-08-06T12:28:05.000Z</time>
      </trkpt>
      <trkpt lat="49.19509" lon="-0.31189">
        <ele>4.729471</ele>
        <time>2022-08-06T12:28:06.000Z</time>
      </trkpt>
      <trkpt lat="49.19505" lon="-0.31192">
        <ele>4.733751</ele>
        <time>2022-08-06T12:28:07.000Z</time>
      </trkpt>
      <trkpt lat="49.19502" lon="-0.31196">
        <ele>4.737857</ele>
        <time>2022-08-06T12:28:08.000Z</time>
      </trkpt>
      <trkpt lat="49.19499" lon="-0.312">
        <ele>4.742004</ele>
        <time>2022-08-06T12:28:09.000Z</time>
      </trkpt>
      <trkpt lat="49.19495" lon="-0.31204">
        <ele>4.747005</ele>
        <time>2022-08-06T12:28:10.000Z</time>
      </trkpt>
      <trkpt lat="49.19491" lon="-0.31209">
        <ele>4.75229</ele>
        <time>2022-08-06T12:28:11.000Z</time>
      </trkpt>
      <trkpt lat="49.19486" lon="-0.31214">
        <ele>4.758063</ele>
        <time>2022-08-06T12:28:12.000Z</time>
      </trkpt>
      <trkpt lat="49.19482" lon="-0.31219">
        <ele>4.763756</ele>
        <time>2022-08-06T12:28:13.000Z</time>
      </trkpt>
      <trkpt lat="49.19477" lon="-0.31223">
        <ele>4.769152</ele>
        <time>2022-08-06T12:28:14.000Z</time>
      </trkpt>
      <trkpt lat="49.19472" lon="-0.31228">
        <ele>4.775213</ele>
        <time>2022-08-06T12:28:15.000Z</time>
      </trkpt>
      <trkpt lat="49.19467" lon="-0.31233">
        <ele>4.781601</ele>
        <time>2022-08-06T12:28:16.000Z</time>
      </trkpt>
      <trkpt lat="49.19462" lon="-0.31239">
        <ele>4.78795</ele>
        <time>2022-08-06T12:28:17.000Z</time>
      </trkpt>
      <trkpt lat="49.19457" lon="-0.31244">
        <ele>4.794421</ele>
        <time>2022-08-06T12:28:18.000Z</time>
      </trkpt>
      <trkpt lat="49.19451" lon="-0.3125">
        <ele>4.800989</ele>
        <time>2022-08-06T12:28:19.000Z</time>
      </trkpt>
      <trkpt lat="49.19446" lon="-0.31254">
        <ele>4.803723</ele>
        <time>2022-08-06T12:28:20.000Z</time>
      </trkpt>
      <trkpt lat="49.1944" lon="-0.31259">
        <ele>4.781294</ele>
        <time>2022-08-06T12:28:21.000Z</time>
      </trkpt>
      <trkpt lat="49.19435" lon="-0.31264">
        <ele>4.760854</ele>
        <time>2022-08-06T12:28:22.000Z</time>
      </trkpt>
      <trkpt lat="49.19429" lon="-0.31268">
        <ele>4.738823</ele>
        <time>2022-08-06T12:28:23.000Z</time>
      </trkpt>
      <trkpt lat="49.19423" lon="-0.31272">
        <ele>4.716211</ele>
        <time>2022-08-06T12:28:24.000Z</time>
      </trkpt>
      <trkpt lat="49.19417" lon="-0.31275">
        <ele>4.695365</ele>
        <time>2022-08-06T12:28:25.000Z</time>
      </trkpt>
      <trkpt lat="49.19411" lon="-0.31278">
        <ele>4.6735</ele>
        <time>2022-08-06T12:28:26.000Z</time>
      </trkpt>
      <trkpt lat="49.19405" lon="-0.3128">
        <ele>4.652812</ele>
        <time>2022-08-06T12:28:27.000Z</time>
      </trkpt>
      <trkpt lat="49.19399" lon="-0.31282">
        <ele>4.631728</ele>
        <time>2022-08-06T12:28:28.000Z</time>
      </trkpt>
      <trkpt lat="49.19393" lon="-0.31284">
        <ele>4.61044</ele>
        <time>2022-08-06T12:28:29.000Z</time>
      </trkpt>
      <trkpt lat="49.19387" lon="-0.31285">
        <ele>4.587159</ele>
        <time>2022-08-06T12:28:30.000Z</time>
      </trkpt>
      <trkpt lat="49.19381" lon="-0.31287">
        <ele>4.566043</ele>
        <time>2022-08-06T12:28:31.000Z</time>
      </trkpt>
      <trkpt lat="49.19375" lon="-0.31288">
        <ele>4.546003</ele>
        <time>2022-08-06T12:28:32.000Z</time>
      </trkpt>
      <trkpt lat="49.19369" lon="-0.31288">
        <ele>4.52503</ele>
        <time>2022-08-06T12:28:33.000Z</time>
      </trkpt>
      <trkpt lat="49.19363" lon="-0.31288">
        <ele>4.504419</ele>
        <time>2022-08-06T12:28:34.000Z</time>
      </trkpt>
      <trkpt lat="49.19357" lon="-0.31287">
        <ele>4.483417</ele>
        <time>2022-08-06T12:28:35.000Z</time>
      </trkpt>
      <trkpt lat="49.1935" lon="-0.31286">
        <ele>4.462271</ele>
        <time>2022-08-06T12:28:36.000Z</time>
      </trkpt>
      <trkpt lat="49.19344" lon="-0.31284">
        <ele>4.440983</ele>
        <time>2022-08-06T12:28:37.000Z</time>
      </trkpt>
      <trkpt lat="49.19339" lon="-0.31283">
        <ele>4.421126</ele>
        <time>2022-08-06T12:28:38.000Z</time>
      </trkpt>
      <trkpt lat="49.19333" lon="-0.3128">
        <ele>4.399609</ele>
        <time>2022-08-06T12:28:39.000Z</time>
      </trkpt>
      <trkpt lat="49.19326" lon="-0.31278">
        <ele>4.377868</ele>
        <time>2022-08-06T12:28:40.000Z</time>
      </trkpt>
      <trkpt lat="49.1932" lon="-0.31275">
        <ele>4.356066</ele>
        <time>2022-08-06T12:28:41.000Z</time>
      </trkpt>
      <trkpt lat="49.19314" lon="-0.31272">
        <ele>4.3342</ele>
        <time>2022-08-06T12:28:42.000Z</time>
      </trkpt>
      <trkpt lat="49.19309" lon="-0.31269">
        <ele>4.314152</ele>
        <time>2022-08-06T12:28:43.000Z</time>
      </trkpt>
      <trkpt lat="49.19303" lon="-0.31266">
        <ele>4.291939</ele>
        <time>2022-08-06T12:28:44.000Z</time>
      </trkpt>
      <trkpt lat="49.19297" lon="-0.31262">
        <ele>4.271093</ele>
        <time>2022-08-06T12:28:45.000Z</time>
      </trkpt>
      <trkpt lat="49.19292" lon="-0.31259">
        <ele>4.251932</ele>
        <time>2022-08-06T12:28:46.000Z</time>
      </trkpt>
      <trkpt lat="49.19286" lon="-0.31256">
        <ele>4.231309</ele>
        <time>2022-08-06T12:28:47.000Z</time>
      </trkpt>
      <trkpt lat="49.1928" lon="-0.31254">
        <ele>4.210428</ele>
        <time>2022-08-06T12:28:48.000Z</time>
      </trkpt>
      <trkpt lat="49.19275" lon="-0.31251">
        <ele>4.189942</ele>
        <time>2022-08-06T12:28:49.000Z</time>
      </trkpt>
      <trkpt lat="49.19269" lon="-0.31248">
        <ele>4.193421</ele>
        <time>2022-08-06T12:28:50.000Z</time>
      </trkpt>
      <trkpt lat="49.19263" lon="-0.31245">
        <ele>4.198042</ele>
        <time>2022-08-06T12:28:51.000Z</time>
      </trkpt>
      <trkpt lat="49.19257" lon="-0.31242">
        <ele>4.202577</ele>
        <time>2022-08-06T12:28:52.000Z</time>
      </trkpt>
      <trkpt lat="49.19251" lon="-0.31239">
        <ele>4.207386</ele>
        <time>2022-08-06T12:28:53.000Z</time>
      </trkpt>
      <trkpt lat="49.19245" lon="-0.31237">
        <ele>4.212169</ele>
        <time>2022-08-06T12:28:54.000Z</time>
      </trkpt>
      <trkpt lat="49.19239" lon="-0.31234">
        <ele>4.21666</ele>
        <time>2022-08-06T12:28:55.000Z</time>
      </trkpt>
      <trkpt lat="49.19233" lon="-0.31232">
        <ele>4.221396</ele>
        <time>2022-08-06T12:28:56.000Z</time>
      </trkpt>
      <trkpt lat="49.19228" lon="-0.3123">
        <ele>4.225922</ele>
        <time>2022-08-06T12:28:57.000Z</time>
      </trkpt>
      <trkpt lat="49.19222" lon="-0.31228">
        <ele>4.230413</ele>
        <time>2022-08-06T12:28:58.000Z</time>
      </trkpt>
      <trkpt lat="49.19217" lon="-0.31226">
        <ele>4.23444</ele>
        <time>2022-08-06T12:28:59.000Z</time>
      </trkpt>
      <trkpt lat="49.19211" lon="-0.31225">
        <ele>4.238805</ele>
        <time>2022-08-06T12:29:00.000Z</time>
      </trkpt>
      <trkpt lat="49.19205" lon="-0.31224">
        <ele>4.243452</ele>
        <time>2022-08-06T12:29:01.000Z</time>
      </trkpt>
      <trkpt lat="49.19199" lon="-0.31223">
        <ele>4.247852</ele>
        <time>2022-08-06T12:29:02.000Z</time>
      </trkpt>
      <trkpt lat="49.19192" lon="-0.31224">
        <ele>4.253395</ele>
        <time>2022-08-06T12:29:03.000Z</time>
      </trkpt>
      <trkpt lat="49.19186" lon="-0.31224">
        <ele>4.257789</ele>
        <time>2022-08-06T12:29:04.000Z</time>
      </trkpt>
      <trkpt lat="49.1918" lon="-0.31224">
        <ele>4.26241</ele>
        <time>2022-08-06T12:29:05.000Z</time>
      </trkpt>
      <trkpt lat="49.19174" lon="-0.31224">
        <ele>4.266728</ele>
        <time>2022-08-06T12:29:06.000Z</time>
      </trkpt>
      <trkpt lat="49.19168" lon="-0.31225">
        <ele>4.271125</ele>
        <time>2022-08-06T12:29:07.000Z</time>
      </trkpt>
      <trkpt lat="49.19163" lon="-0.31225">
        <ele>4.275223</ele>
        <time>2022-08-06T12:29:08.000Z</time>
      </trkpt>
      <trkpt lat="49.19157" lon="-0.31225">
        <ele>4.279843</ele>
        <time>2022-08-06T12:29:09.000Z</time>
      </trkpt>
      <trkpt lat="49.19151" lon="-0.31226">
        <ele>4.284243</ele>
        <time>2022-08-06T12:29:10.000Z</time>
      </trkpt>
      <trkpt lat="49.19145" lon="-0.31227">
        <ele>4.288814</ele>
        <time>2022-08-06T12:29:11.000Z</time>
      </trkpt>
      <trkpt lat="49.19138" lon="-0.31228">
        <ele>4.293984</ele>
        <time>2022-08-06T12:29:12.000Z</time>
      </trkpt>
      <trkpt lat="49.19133" lon="-0.31228">
        <ele>4.298311</ele>
        <time>2022-08-06T12:29:13.000Z</time>
      </trkpt>
      <trkpt lat="49.19127" lon="-0.31229">
        <ele>4.302492</ele>
        <time>2022-08-06T12:29:14.000Z</time>
      </trkpt>
      <trkpt lat="49.19121" lon="-0.3123">
        <ele>4.307351</ele>
        <time>2022-08-06T12:29:15.000Z</time>
      </trkpt>
      <trkpt lat="49.19115" lon="-0.3123">
        <ele>4.311444</ele>
        <time>2022-08-06T12:29:16.000Z</time>
      </trkpt>
      <trkpt lat="49.19109" lon="-0.3123">
        <ele>4.31584</ele>
        <time>2022-08-06T12:29:17.000Z</time>
      </trkpt>
      <trkpt lat="49.19104" lon="-0.31231">
        <ele>4.320161</ele>
        <time>2022-08-06T12:29:18.000Z</time>
      </trkpt>
      <trkpt lat="49.19098" lon="-0.31231">
        <ele>4.324791</ele>
        <time>2022-08-06T12:29:19.000Z</time>
      </trkpt>
      <trkpt lat="49.19092" lon="-0.31232">
        <ele>4.323968</ele>
        <time>2022-08-06T12:29:20.000Z</time>
      </trkpt>
      <trkpt lat="49.19086" lon="-0.31233">
        <ele>4.3224</ele>
        <time>2022-08-06T12:29:21.000Z</time>
      </trkpt>
      <trkpt lat="49.1908" lon="-0.31233">
        <ele>4.320759</ele>
        <time>2022-08-06T12:29:22.000Z</time>
      </trkpt>
      <trkpt lat="49.19074" lon="-0.31234">
        <ele>4.319184</ele>
        <time>2022-08-06T12:29:23.000Z</time>
      </trkpt>
      <trkpt lat="49.19068" lon="-0.31236">
        <ele>4.317607</ele>
        <time>2022-08-06T12:29:24.000Z</time>
      </trkpt>
      <trkpt lat="49.19062" lon="-0.31237">
        <ele>4.316131</ele>
        <time>2022-08-06T12:29:25.000Z</time>
      </trkpt>
      <trkpt lat="49.19056" lon="-0.31238">
        <ele>4.314713</ele>
        <time>2022-08-06T12:29:26.000Z</time>
      </trkpt>
      <trkpt lat="49.19052" lon="-0.31239">
        <ele>4.313473</ele>
        <time>2022-08-06T12:29:27.000Z</time>
      </trkpt>
      <trkpt lat="49.19046" lon="-0.31241">
        <ele>4.311975</ele>
        <time>2022-08-06T12:29:28.000Z</time>
      </trkpt>
      <trkpt lat="49.1904" lon="-0.31243">
        <ele>4.310463</ele>
        <time>2022-08-06T12:29:29.000Z</time>
      </trkpt>
      <trkpt lat="49.19035" lon="-0.31243">
        <ele>4.309079</ele>
        <time>2022-08-06T12:29:30.000Z</time>
      </trkpt>
      <trkpt lat="49.19029" lon="-0.31244">
        <ele>4.307576</ele>
        <time>2022-08-06T12:29:31.000Z</time>
      </trkpt>
      <trkpt lat="49.19022" lon="-0.31246">
        <ele>4.305918</ele>
        <time>2022-08-06T12:29:32.000Z</time>
      </trkpt>
      <trkpt lat="49.19017" lon="-0.31247">
        <ele>4.304427</ele>
        <time>2022-08-06T12:29:33.000Z</time>
      </trkpt>
      <trkpt lat="49.19011" lon="-0.31248">
        <ele>4.303034</ele>
        <time>2022-08-06T12:29:34.000Z</time>
      </trkpt>
      <trkpt lat="49.19005" lon="-0.31249">
        <ele>4.301533</ele>
        <time>2022-08-06T12:29:35.000Z</time>
      </trkpt>
      <trkpt lat="49.18999" lon="-0.3125">
        <ele>4.299976</ele>
        <time>2022-08-06T12:29:36.000Z</time>
      </trkpt>
      <trkpt lat="49.18994" lon="-0.31252">
        <ele>4.298629</ele>
        <time>2022-08-06T12:29:37.000Z</time>
      </trkpt>
      <trkpt lat="49.18989" lon="-0.31253">
        <ele>4.297142</ele>
        <time>2022-08-06T12:29:38.000Z</time>
      </trkpt>
      <trkpt lat="49.18983" lon="-0.31254">
        <ele>4.295648</ele>
        <time>2022-08-06T12:29:39.000Z</time>
      </trkpt>
      <trkpt lat="49.18977" lon="-0.31256">
        <ele>4.294164</ele>
        <time>2022-08-06T12:29:40.000Z</time>
      </trkpt>
      <trkpt lat="49.18971" lon="-0.31257">
        <ele>4.29266</ele>
        <time>2022-08-06T12:29:41.000Z</time>
      </trkpt>
      <trkpt lat="49.18965" lon="-0.31259">
        <ele>4.290912</ele>
        <time>2022-08-06T12:29:42.000Z</time>
      </trkpt>
      <trkpt lat="49.18959" lon="-0.31261">
        <ele>4.289403</ele>
        <time>2022-08-06T12:29:43.000Z</time>
      </trkpt>
      <trkpt lat="49.18953" lon="-0.31262">
        <ele>4.287998</ele>
        <time>2022-08-06T12:29:44.000Z</time>
      </trkpt>
      <trkpt lat="49.18948" lon="-0.31264">
        <ele>4.286575</ele>
        <time>2022-08-06T12:29:45.000Z</time>
      </trkpt>
      <trkpt lat="49.18942" lon="-0.31265">
        <ele>4.285013</ele>
        <time>2022-08-06T12:29:46.000Z</time>
      </trkpt>
      <trkpt lat="49.18936" lon="-0.31267">
        <ele>4.283507</ele>
        <time>2022-08-06T12:29:47.000Z</time>
      </trkpt>
      <trkpt lat="49.18931" lon="-0.31269">
        <ele>4.282158</ele>
        <time>2022-08-06T12:29:48.000Z</time>
      </trkpt>
      <trkpt lat="49.18925" lon="-0.31271">
        <ele>4.280636</ele>
        <time>2022-08-06T12:29:49.000Z</time>
      </trkpt>
      <trkpt lat="49.1892" lon="-0.31273">
        <ele>4.279221</ele>
        <time>2022-08-06T12:29:50.000Z</time>
      </trkpt>
      <trkpt lat="49.18914" lon="-0.31274">
        <ele>4.278813</ele>
        <time>2022-08-06T12:29:51.000Z</time>
      </trkpt>
      <trkpt lat="49.18908" lon="-0.31276">
        <ele>4.278476</ele>
        <time>2022-08-06T12:29:52.000Z</time>
      </trkpt>
      <trkpt lat="49.18903" lon="-0.31278">
        <ele>4.278177</ele>
        <time>2022-08-06T12:29:53.000Z</time>
      </trkpt>
      <trkpt lat="49.18897" lon="-0.3128">
        <ele>4.277842</ele>
        <time>2022-08-06T12:29:54.000Z</time>
      </trkpt>
      <trkpt lat="49.18891" lon="-0.31282">
        <ele>4.277499</ele>
        <time>2022-08-06T12:29:55.000Z</time>
      </trkpt>
      <trkpt lat="49.18885" lon="-0.31284">
        <ele>4.277143</ele>
        <time>2022-08-06T12:29:56.000Z</time>
      </trkpt>
      <trkpt lat="49.18879" lon="-0.31286">
        <ele>4.276808</ele>
        <time>2022-08-06T12:29:57.000Z</time>
      </trkpt>
      <trkpt lat="49.18874" lon="-0.31288">
        <ele>4.276485</ele>
        <time>2022-08-06T12:29:58.000Z</time>
      </trkpt>
      <trkpt lat="49.18868" lon="-0.3129">
        <ele>4.276147</ele>
        <time>2022-08-06T12:29:59.000Z</time>
      </trkpt>
      <trkpt lat="49.18862" lon="-0.31292">
        <ele>4.275805</ele>
        <time>2022-08-06T12:30:00.000Z</time>
      </trkpt>
      <trkpt lat="49.18857" lon="-0.31294">
        <ele>4.275485</ele>
        <time>2022-08-06T12:30:01.000Z</time>
      </trkpt>
      <trkpt lat="49.18852" lon="-0.31296">
        <ele>4.275164</ele>
        <time>2022-08-06T12:30:02.000Z</time>
      </trkpt>
      <trkpt lat="49.18846" lon="-0.31297">
        <ele>4.274871</ele>
        <time>2022-08-06T12:30:03.000Z</time>
      </trkpt>
      <trkpt lat="49.18841" lon="-0.31297">
        <ele>4.274578</ele>
        <time>2022-08-06T12:30:04.000Z</time>
      </trkpt>
      <trkpt lat="49.18836" lon="-0.31297">
        <ele>4.274263</ele>
        <time>2022-08-06T12:30:05.000Z</time>
      </trkpt>
      <trkpt lat="49.18829" lon="-0.31299">
        <ele>4.273886</ele>
        <time>2022-08-06T12:30:06.000Z</time>
      </trkpt>
      <trkpt lat="49.18824" lon="-0.31302">
        <ele>4.273561</ele>
        <time>2022-08-06T12:30:07.000Z</time>
      </trkpt>
      <trkpt lat="49.18818" lon="-0.31305">
        <ele>4.273216</ele>
        <time>2022-08-06T12:30:08.000Z</time>
      </trkpt>
      <trkpt lat="49.18813" lon="-0.31308">
        <ele>4.272884</ele>
        <time>2022-08-06T12:30:09.000Z</time>
      </trkpt>
      <trkpt lat="49.18807" lon="-0.31311">
        <ele>4.272551</ele>
        <time>2022-08-06T12:30:10.000Z</time>
      </trkpt>
      <trkpt lat="49.18802" lon="-0.31315">
        <ele>4.272225</ele>
        <time>2022-08-06T12:30:11.000Z</time>
      </trkpt>
      <trkpt lat="49.18797" lon="-0.31318">
        <ele>4.271892</ele>
        <time>2022-08-06T12:30:12.000Z</time>
      </trkpt>
      <trkpt lat="49.18792" lon="-0.31322">
        <ele>4.271569</ele>
        <time>2022-08-06T12:30:13.000Z</time>
      </trkpt>
      <trkpt lat="49.18786" lon="-0.31325">
        <ele>4.271232</ele>
        <time>2022-08-06T12:30:14.000Z</time>
      </trkpt>
      <trkpt lat="49.18782" lon="-0.31328">
        <ele>4.270975</ele>
        <time>2022-08-06T12:30:15.000Z</time>
      </trkpt>
      <trkpt lat="49.18776" lon="-0.31332">
        <ele>4.270568</ele>
        <time>2022-08-06T12:30:16.000Z</time>
      </trkpt>
      <trkpt lat="49.1877" lon="-0.31337">
        <ele>4.270214</ele>
        <time>2022-08-06T12:30:17.000Z</time>
      </trkpt>
      <trkpt lat="49.18765" lon="-0.31341">
        <ele>4.269862</ele>
        <time>2022-08-06T12:30:18.000Z</time>
      </trkpt>
      <trkpt lat="49.1876" lon="-0.31345">
        <ele>4.269552</ele>
        <time>2022-08-06T12:30:19.000Z</time>
      </trkpt>
      <trkpt lat="49.18755" lon="-0.31349">
        <ele>4.2692</ele>
        <time>2022-08-06T12:30:20.000Z</time>
      </trkpt>
      <trkpt lat="49.18749" lon="-0.31354">
        <ele>4.268695</ele>
        <time>2022-08-06T12:30:21.000Z</time>
      </trkpt>
      <trkpt lat="49.18745" lon="-0.31358">
        <ele>4.26478</ele>
        <time>2022-08-06T12:30:22.000Z</time>
      </trkpt>
      <trkpt lat="49.18739" lon="-0.31363">
        <ele>4.258957</ele>
        <time>2022-08-06T12:30:23.000Z</time>
      </trkpt>
      <trkpt lat="49.18733" lon="-0.31368">
        <ele>4.253482</ele>
        <time>2022-08-06T12:30:24.000Z</time>
      </trkpt>
      <trkpt lat="49.18728" lon="-0.31373">
        <ele>4.248558</ele>
        <time>2022-08-06T12:30:25.000Z</time>
      </trkpt>
      <trkpt lat="49.18723" lon="-0.31378">
        <ele>4.243501</ele>
        <time>2022-08-06T12:30:26.000Z</time>
      </trkpt>
      <trkpt lat="49.18717" lon="-0.31382">
        <ele>4.238321</ele>
        <time>2022-08-06T12:30:27.000Z</time>
      </trkpt>
      <trkpt lat="49.18712" lon="-0.31387">
        <ele>4.233663</ele>
        <time>2022-08-06T12:30:28.000Z</time>
      </trkpt>
      <trkpt lat="49.18707" lon="-0.31392">
        <ele>4.2285</ele>
        <time>2022-08-06T12:30:29.000Z</time>
      </trkpt>
      <trkpt lat="49.18702" lon="-0.31396">
        <ele>4.223842</ele>
        <time>2022-08-06T12:30:30.000Z</time>
      </trkpt>
      <trkpt lat="49.18697" lon="-0.31401">
        <ele>4.219027</ele>
        <time>2022-08-06T12:30:31.000Z</time>
      </trkpt>
      <trkpt lat="49.18692" lon="-0.31405">
        <ele>4.214369</ele>
        <time>2022-08-06T12:30:32.000Z</time>
      </trkpt>
      <trkpt lat="49.18687" lon="-0.3141">
        <ele>4.209135</ele>
        <time>2022-08-06T12:30:33.000Z</time>
      </trkpt>
      <trkpt lat="49.18682" lon="-0.31414">
        <ele>4.204397</ele>
        <time>2022-08-06T12:30:34.000Z</time>
      </trkpt>
      <trkpt lat="49.18677" lon="-0.31419">
        <ele>4.199711</ele>
        <time>2022-08-06T12:30:35.000Z</time>
      </trkpt>
      <trkpt lat="49.18672" lon="-0.31424">
        <ele>4.19529</ele>
        <time>2022-08-06T12:30:36.000Z</time>
      </trkpt>
      <trkpt lat="49.18667" lon="-0.31428">
        <ele>4.190501</ele>
        <time>2022-08-06T12:30:37.000Z</time>
      </trkpt>
      <trkpt lat="49.18662" lon="-0.31433">
        <ele>4.185814</ele>
        <time>2022-08-06T12:30:38.000Z</time>
      </trkpt>
      <trkpt lat="49.18658" lon="-0.31437">
        <ele>4.181185</ele>
        <time>2022-08-06T12:30:39.000Z</time>
      </trkpt>
      <trkpt lat="49.18653" lon="-0.31442">
        <ele>4.176764</ele>
        <time>2022-08-06T12:30:40.000Z</time>
      </trkpt>
      <trkpt lat="49.18649" lon="-0.31446">
        <ele>4.172343</ele>
        <time>2022-08-06T12:30:41.000Z</time>
      </trkpt>
      <trkpt lat="49.18645" lon="-0.31451">
        <ele>4.16813</ele>
        <time>2022-08-06T12:30:42.000Z</time>
      </trkpt>
      <trkpt lat="49.1864" lon="-0.31455">
        <ele>4.163472</ele>
        <time>2022-08-06T12:30:43.000Z</time>
      </trkpt>
      <trkpt lat="49.18635" lon="-0.3146">
        <ele>4.15893</ele>
        <time>2022-08-06T12:30:44.000Z</time>
      </trkpt>
      <trkpt lat="49.18631" lon="-0.31465">
        <ele>4.15452</ele>
        <time>2022-08-06T12:30:45.000Z</time>
      </trkpt>
      <trkpt lat="49.18627" lon="-0.3147">
        <ele>4.150208</ele>
        <time>2022-08-06T12:30:46.000Z</time>
      </trkpt>
      <trkpt lat="49.18623" lon="-0.31475">
        <ele>4.146191</ele>
        <time>2022-08-06T12:30:47.000Z</time>
      </trkpt>
      <trkpt lat="49.18619" lon="-0.31479">
        <ele>4.142239</ele>
        <time>2022-08-06T12:30:48.000Z</time>
      </trkpt>
      <trkpt lat="49.18615" lon="-0.31484">
        <ele>4.138221</ele>
        <time>2022-08-06T12:30:49.000Z</time>
      </trkpt>
      <trkpt lat="49.18612" lon="-0.31488">
        <ele>4.134498</ele>
        <time>2022-08-06T12:30:50.000Z</time>
      </trkpt>
      <trkpt lat="49.18609" lon="-0.31491">
        <ele>4.131804</ele>
        <time>2022-08-06T12:30:51.000Z</time>
      </trkpt>
      <trkpt lat="49.18605" lon="-0.31493">
        <ele>4.128347</ele>
        <time>2022-08-06T12:30:52.000Z</time>
      </trkpt>
      <trkpt lat="49.18601" lon="-0.31496">
        <ele>4.124987</ele>
        <time>2022-08-06T12:30:53.000Z</time>
      </trkpt>
      <trkpt lat="49.18598" lon="-0.31499">
        <ele>4.121843</ele>
        <time>2022-08-06T12:30:54.000Z</time>
      </trkpt>
      <trkpt lat="49.18596" lon="-0.31503">
        <ele>4.126133</ele>
        <time>2022-08-06T12:30:55.000Z</time>
      </trkpt>
      <trkpt lat="49.18592" lon="-0.31507">
        <ele>4.135024</ele>
        <time>2022-08-06T12:30:56.000Z</time>
      </trkpt>
      <trkpt lat="49.1859" lon="-0.31511">
        <ele>4.143083</ele>
        <time>2022-08-06T12:30:57.000Z</time>
      </trkpt>
      <trkpt lat="49.18587" lon="-0.31516">
        <ele>4.152103</ele>
        <time>2022-08-06T12:30:58.000Z</time>
      </trkpt>
      <trkpt lat="49.18583" lon="-0.31521">
        <ele>4.162383</ele>
        <time>2022-08-06T12:30:59.000Z</time>
      </trkpt>
      <trkpt lat="49.18578" lon="-0.31525">
        <ele>4.174065</ele>
        <time>2022-08-06T12:31:00.000Z</time>
      </trkpt>
      <trkpt lat="49.18574" lon="-0.3153">
        <ele>4.185114</ele>
        <time>2022-08-06T12:31:01.000Z</time>
      </trkpt>
      <trkpt lat="49.18569" lon="-0.31534">
        <ele>4.19619</ele>
        <time>2022-08-06T12:31:02.000Z</time>
      </trkpt>
      <trkpt lat="49.18565" lon="-0.3154">
        <ele>4.20871</ele>
        <time>2022-08-06T12:31:03.000Z</time>
      </trkpt>
      <trkpt lat="49.1856" lon="-0.31544">
        <ele>4.219786</ele>
        <time>2022-08-06T12:31:04.000Z</time>
      </trkpt>
      <trkpt lat="49.18556" lon="-0.31549">
        <ele>4.231396</ele>
        <time>2022-08-06T12:31:05.000Z</time>
      </trkpt>
      <trkpt lat="49.1855" lon="-0.31555">
        <ele>4.244995</ele>
        <time>2022-08-06T12:31:06.000Z</time>
      </trkpt>
      <trkpt lat="49.18546" lon="-0.31561">
        <ele>4.256716</ele>
        <time>2022-08-06T12:31:07.000Z</time>
      </trkpt>
      <trkpt lat="49.18541" lon="-0.31566">
        <ele>4.269318</ele>
        <time>2022-08-06T12:31:08.000Z</time>
      </trkpt>
      <trkpt lat="49.18537" lon="-0.31572">
        <ele>4.280612</ele>
        <time>2022-08-06T12:31:09.000Z</time>
      </trkpt>
      <trkpt lat="49.18532" lon="-0.31577">
        <ele>4.293717</ele>
        <time>2022-08-06T12:31:10.000Z</time>
      </trkpt>
      <trkpt lat="49.18528" lon="-0.31583">
        <ele>4.305713</ele>
        <time>2022-08-06T12:31:11.000Z</time>
      </trkpt>
      <trkpt lat="49.18524" lon="-0.31589">
        <ele>4.31771</ele>
        <time>2022-08-06T12:31:12.000Z</time>
      </trkpt>
      <trkpt lat="49.18519" lon="-0.31596">
        <ele>4.330384</ele>
        <time>2022-08-06T12:31:13.000Z</time>
      </trkpt>
      <trkpt lat="49.18515" lon="-0.31602">
        <ele>4.343587</ele>
        <time>2022-08-06T12:31:14.000Z</time>
      </trkpt>
      <trkpt lat="49.1851" lon="-0.31608">
        <ele>4.356321</ele>
        <time>2022-08-06T12:31:15.000Z</time>
      </trkpt>
      <trkpt lat="49.18506" lon="-0.31615">
        <ele>4.368963</ele>
        <time>2022-08-06T12:31:16.000Z</time>
      </trkpt>
      <trkpt lat="49.18501" lon="-0.31621">
        <ele>4.381631</ele>
        <time>2022-08-06T12:31:17.000Z</time>
      </trkpt>
      <trkpt lat="49.18497" lon="-0.31628">
        <ele>4.394834</ele>
        <time>2022-08-06T12:31:18.000Z</time>
      </trkpt>
      <trkpt lat="49.18493" lon="-0.31634">
        <ele>4.406965</ele>
        <time>2022-08-06T12:31:19.000Z</time>
      </trkpt>
      <trkpt lat="49.18488" lon="-0.31641">
        <ele>4.420073</ele>
        <time>2022-08-06T12:31:20.000Z</time>
      </trkpt>
      <trkpt lat="49.18483" lon="-0.31647">
        <ele>4.433456</ele>
        <time>2022-08-06T12:31:21.000Z</time>
      </trkpt>
      <trkpt lat="49.18479" lon="-0.31654">
        <ele>4.445928</ele>
        <time>2022-08-06T12:31:22.000Z</time>
      </trkpt>
      <trkpt lat="49.18475" lon="-0.3166">
        <ele>4.458032</ele>
        <time>2022-08-06T12:31:23.000Z</time>
      </trkpt>
      <trkpt lat="49.18471" lon="-0.31667">
        <ele>4.470998</ele>
        <time>2022-08-06T12:31:24.000Z</time>
      </trkpt>
      <trkpt lat="49.18468" lon="-0.31675">
        <ele>4.482992</ele>
        <time>2022-08-06T12:31:25.000Z</time>
      </trkpt>
      <trkpt lat="49.18464" lon="-0.31682">
        <ele>4.495619</ele>
        <time>2022-08-06T12:31:26.000Z</time>
      </trkpt>
      <trkpt lat="49.1846" lon="-0.31689">
        <ele>4.482069</ele>
        <time>2022-08-06T12:31:27.000Z</time>
      </trkpt>
      <trkpt lat="49.18455" lon="-0.31696">
        <ele>4.466798</ele>
        <time>2022-08-06T12:31:28.000Z</time>
      </trkpt>
      <trkpt lat="49.18451" lon="-0.31703">
        <ele>4.451624</ele>
        <time>2022-08-06T12:31:29.000Z</time>
      </trkpt>
      <trkpt lat="49.18446" lon="-0.31711">
        <ele>4.435118</ele>
        <time>2022-08-06T12:31:30.000Z</time>
      </trkpt>
      <trkpt lat="49.18442" lon="-0.31718">
        <ele>4.420177</ele>
        <time>2022-08-06T12:31:31.000Z</time>
      </trkpt>
      <trkpt lat="49.18438" lon="-0.31724">
        <ele>4.406347</ele>
        <time>2022-08-06T12:31:32.000Z</time>
      </trkpt>
      <trkpt lat="49.18434" lon="-0.31731">
        <ele>4.391521</ele>
        <time>2022-08-06T12:31:33.000Z</time>
      </trkpt>
      <trkpt lat="49.1843" lon="-0.31738">
        <ele>4.377204</ele>
        <time>2022-08-06T12:31:34.000Z</time>
      </trkpt>
      <trkpt lat="49.18426" lon="-0.31744">
        <ele>4.363445</ele>
        <time>2022-08-06T12:31:35.000Z</time>
      </trkpt>
      <trkpt lat="49.18422" lon="-0.31751">
        <ele>4.348898</ele>
        <time>2022-08-06T12:31:36.000Z</time>
      </trkpt>
      <trkpt lat="49.18418" lon="-0.31758">
        <ele>4.334435</ele>
        <time>2022-08-06T12:31:37.000Z</time>
      </trkpt>
      <trkpt lat="49.18414" lon="-0.31766">
        <ele>4.319264</ele>
        <time>2022-08-06T12:31:38.000Z</time>
      </trkpt>
      <trkpt lat="49.18411" lon="-0.31774">
        <ele>4.303714</ele>
        <time>2022-08-06T12:31:39.000Z</time>
      </trkpt>
      <trkpt lat="49.18407" lon="-0.31782">
        <ele>4.288272</ele>
        <time>2022-08-06T12:31:40.000Z</time>
      </trkpt>
      <trkpt lat="49.18403" lon="-0.31789">
        <ele>4.273395</ele>
        <time>2022-08-06T12:31:41.000Z</time>
      </trkpt>
      <trkpt lat="49.18399" lon="-0.31797">
        <ele>4.257844</ele>
        <time>2022-08-06T12:31:42.000Z</time>
      </trkpt>
      <trkpt lat="49.18396" lon="-0.31806">
        <ele>4.242312</ele>
        <time>2022-08-06T12:31:43.000Z</time>
      </trkpt>
      <trkpt lat="49.18392" lon="-0.31813">
        <ele>4.227564</ele>
        <time>2022-08-06T12:31:44.000Z</time>
      </trkpt>
      <trkpt lat="49.18389" lon="-0.31821">
        <ele>4.212643</ele>
        <time>2022-08-06T12:31:45.000Z</time>
      </trkpt>
      <trkpt lat="49.18385" lon="-0.31828">
        <ele>4.198024</ele>
        <time>2022-08-06T12:31:46.000Z</time>
      </trkpt>
      <trkpt lat="49.18381" lon="-0.31836">
        <ele>4.183519</ele>
        <time>2022-08-06T12:31:47.000Z</time>
      </trkpt>
      <trkpt lat="49.18378" lon="-0.31843">
        <ele>4.168597</ele>
        <time>2022-08-06T12:31:48.000Z</time>
      </trkpt>
      <trkpt lat="49.18374" lon="-0.31851">
        <ele>4.154776</ele>
        <time>2022-08-06T12:31:49.000Z</time>
      </trkpt>
      <trkpt lat="49.18371" lon="-0.31858">
        <ele>4.140667</ele>
        <time>2022-08-06T12:31:50.000Z</time>
      </trkpt>
      <trkpt lat="49.18367" lon="-0.31865">
        <ele>4.127057</ele>
        <time>2022-08-06T12:31:51.000Z</time>
      </trkpt>
      <trkpt lat="49.18365" lon="-0.31871">
        <ele>4.11429</ele>
        <time>2022-08-06T12:31:52.000Z</time>
      </trkpt>
      <trkpt lat="49.18361" lon="-0.31878">
        <ele>4.100556</ele>
        <time>2022-08-06T12:31:53.000Z</time>
      </trkpt>
      <trkpt lat="49.18357" lon="-0.31885">
        <ele>4.087039</ele>
        <time>2022-08-06T12:31:54.000Z</time>
      </trkpt>
      <trkpt lat="49.18354" lon="-0.31891">
        <ele>4.073796</ele>
        <time>2022-08-06T12:31:55.000Z</time>
      </trkpt>
      <trkpt lat="49.18351" lon="-0.31898">
        <ele>4.070331</ele>
        <time>2022-08-06T12:31:56.000Z</time>
      </trkpt>
      <trkpt lat="49.18347" lon="-0.31903">
        <ele>4.102039</ele>
        <time>2022-08-06T12:31:57.000Z</time>
      </trkpt>
      <trkpt lat="49.18342" lon="-0.31909">
        <ele>4.134831</ele>
        <time>2022-08-06T12:31:58.000Z</time>
      </trkpt>
      <trkpt lat="49.18338" lon="-0.31913">
        <ele>4.166093</ele>
        <time>2022-08-06T12:31:59.000Z</time>
      </trkpt>
      <trkpt lat="49.18333" lon="-0.31917">
        <ele>4.196745</ele>
        <time>2022-08-06T12:32:00.000Z</time>
      </trkpt>
      <trkpt lat="49.18329" lon="-0.31921">
        <ele>4.224046</ele>
        <time>2022-08-06T12:32:01.000Z</time>
      </trkpt>
      <trkpt lat="49.18324" lon="-0.31924">
        <ele>4.256498</ele>
        <time>2022-08-06T12:32:02.000Z</time>
      </trkpt>
      <trkpt lat="49.1832" lon="-0.31927">
        <ele>4.282926</ele>
        <time>2022-08-06T12:32:03.000Z</time>
      </trkpt>
      <trkpt lat="49.18316" lon="-0.31929">
        <ele>4.308997</ele>
        <time>2022-08-06T12:32:04.000Z</time>
      </trkpt>
      <trkpt lat="49.18312" lon="-0.31931">
        <ele>4.331639</ele>
        <time>2022-08-06T12:32:05.000Z</time>
      </trkpt>
      <trkpt lat="49.18306" lon="-0.31932">
        <ele>4.364267</ele>
        <time>2022-08-06T12:32:06.000Z</time>
      </trkpt>
      <trkpt lat="49.18302" lon="-0.31934">
        <ele>4.390752</ele>
        <time>2022-08-06T12:32:07.000Z</time>
      </trkpt>
      <trkpt lat="49.18298" lon="-0.31938">
        <ele>4.415971</ele>
        <time>2022-08-06T12:32:08.000Z</time>
      </trkpt>
      <trkpt lat="49.18296" lon="-0.31942">
        <ele>4.434155</ele>
        <time>2022-08-06T12:32:09.000Z</time>
      </trkpt>
      <trkpt lat="49.18295" lon="-0.31948">
        <ele>4.459409</ele>
        <time>2022-08-06T12:32:10.000Z</time>
      </trkpt>
      <trkpt lat="49.18295" lon="-0.31953">
        <ele>4.479554</ele>
        <time>2022-08-06T12:32:11.000Z</time>
      </trkpt>
      <trkpt lat="49.18295" lon="-0.31959">
        <ele>4.50021</ele>
        <time>2022-08-06T12:32:12.000Z</time>
      </trkpt>
      <trkpt lat="49.18295" lon="-0.31963">
        <ele>4.515794</ele>
        <time>2022-08-06T12:32:13.000Z</time>
      </trkpt>
      <trkpt lat="49.18294" lon="-0.31968">
        <ele>4.535506</ele>
        <time>2022-08-06T12:32:14.000Z</time>
      </trkpt>
      <trkpt lat="49.18293" lon="-0.31973">
        <ele>4.556838</ele>
        <time>2022-08-06T12:32:15.000Z</time>
      </trkpt>
      <trkpt lat="49.18293" lon="-0.31977">
        <ele>4.572422</ele>
        <time>2022-08-06T12:32:16.000Z</time>
      </trkpt>
      <trkpt lat="49.18293" lon="-0.31981">
        <ele>4.586593</ele>
        <time>2022-08-06T12:32:17.000Z</time>
      </trkpt>
      <trkpt lat="49.18293" lon="-0.31984">
        <ele>4.598128</ele>
        <time>2022-08-06T12:32:18.000Z</time>
      </trkpt>
      <trkpt lat="49.18292" lon="-0.31993">
        <ele>4.633904</ele>
        <time>2022-08-06T12:32:52.000Z</time>
      </trkpt>
      <trkpt lat="49.18291" lon="-0.31999">
        <ele>4.655943</ele>
        <time>2022-08-06T12:32:53.000Z</time>
      </trkpt>
      <trkpt lat="49.18289" lon="-0.32005">
        <ele>4.679248</ele>
        <time>2022-08-06T12:32:54.000Z</time>
      </trkpt>
      <trkpt lat="49.18288" lon="-0.32011">
        <ele>4.704584</ele>
        <time>2022-08-06T12:32:55.000Z</time>
      </trkpt>
      <trkpt lat="49.18286" lon="-0.32017">
        <ele>4.730267</ele>
        <time>2022-08-06T12:32:56.000Z</time>
      </trkpt>
      <trkpt lat="49.18284" lon="-0.32023">
        <ele>4.757364</ele>
        <time>2022-08-06T12:32:57.000Z</time>
      </trkpt>
      <trkpt lat="49.18281" lon="-0.3203">
        <ele>4.785862</ele>
        <time>2022-08-06T12:32:58.000Z</time>
      </trkpt>
      <trkpt lat="49.18278" lon="-0.32036">
        <ele>4.81609</ele>
        <time>2022-08-06T12:32:59.000Z</time>
      </trkpt>
      <trkpt lat="49.18277" lon="-0.32043">
        <ele>4.842807</ele>
        <time>2022-08-06T12:33:00.000Z</time>
      </trkpt>
      <trkpt lat="49.18274" lon="-0.32049">
        <ele>4.8709</ele>
        <time>2022-08-06T12:33:01.000Z</time>
      </trkpt>
      <trkpt lat="49.18272" lon="-0.32056">
        <ele>4.900422</ele>
        <time>2022-08-06T12:33:02.000Z</time>
      </trkpt>
      <trkpt lat="49.1827" lon="-0.32063">
        <ele>4.929945</ele>
        <time>2022-08-06T12:33:03.000Z</time>
      </trkpt>
      <trkpt lat="49.18268" lon="-0.3207">
        <ele>4.959046</ele>
        <time>2022-08-06T12:33:04.000Z</time>
      </trkpt>
      <trkpt lat="49.18265" lon="-0.32077">
        <ele>4.988568</ele>
        <time>2022-08-06T12:33:05.000Z</time>
      </trkpt>
      <trkpt lat="49.18262" lon="-0.32084">
        <ele>5.021037</ele>
        <time>2022-08-06T12:33:06.000Z</time>
      </trkpt>
      <trkpt lat="49.18261" lon="-0.32092">
        <ele>5.05055</ele>
        <time>2022-08-06T12:33:07.000Z</time>
      </trkpt>
      <trkpt lat="49.18259" lon="-0.32099">
        <ele>5.080416</ele>
        <time>2022-08-06T12:33:08.000Z</time>
      </trkpt>
      <trkpt lat="49.18256" lon="-0.32106">
        <ele>5.108292</ele>
        <time>2022-08-06T12:33:09.000Z</time>
      </trkpt>
      <trkpt lat="49.18254" lon="-0.32114">
        <ele>5.086218</ele>
        <time>2022-08-06T12:33:10.000Z</time>
      </trkpt>
      <trkpt lat="49.18252" lon="-0.32121">
        <ele>5.064971</ele>
        <time>2022-08-06T12:33:11.000Z</time>
      </trkpt>
      <trkpt lat="49.18249" lon="-0.32128">
        <ele>5.043241</ele>
        <time>2022-08-06T12:33:12.000Z</time>
      </trkpt>
      <trkpt lat="49.18246" lon="-0.32135">
        <ele>5.022165</ele>
        <time>2022-08-06T12:33:13.000Z</time>
      </trkpt>
      <trkpt lat="49.18244" lon="-0.32143">
        <ele>4.999441</ele>
        <time>2022-08-06T12:33:14.000Z</time>
      </trkpt>
      <trkpt lat="49.18242" lon="-0.3215">
        <ele>4.979548</ele>
        <time>2022-08-06T12:33:15.000Z</time>
      </trkpt>
      <trkpt lat="49.18239" lon="-0.32157">
        <ele>4.957818</ele>
        <time>2022-08-06T12:33:16.000Z</time>
      </trkpt>
      <trkpt lat="49.18237" lon="-0.32165">
        <ele>4.935785</ele>
        <time>2022-08-06T12:33:17.000Z</time>
      </trkpt>
      <trkpt lat="49.18234" lon="-0.32172">
        <ele>4.914218</ele>
        <time>2022-08-06T12:33:18.000Z</time>
      </trkpt>
      <trkpt lat="49.18231" lon="-0.32179">
        <ele>4.892609</ele>
        <time>2022-08-06T12:33:19.000Z</time>
      </trkpt>
      <trkpt lat="49.18229" lon="-0.32186">
        <ele>4.871321</ele>
        <time>2022-08-06T12:33:20.000Z</time>
      </trkpt>
      <trkpt lat="49.18226" lon="-0.32193">
        <ele>4.850309</ele>
        <time>2022-08-06T12:33:21.000Z</time>
      </trkpt>
      <trkpt lat="49.18224" lon="-0.322">
        <ele>4.829233</ele>
        <time>2022-08-06T12:33:22.000Z</time>
      </trkpt>
      <trkpt lat="49.18221" lon="-0.32208">
        <ele>4.806974</ele>
        <time>2022-08-06T12:33:23.000Z</time>
      </trkpt>
      <trkpt lat="49.18219" lon="-0.32215">
        <ele>4.785679</ele>
        <time>2022-08-06T12:33:24.000Z</time>
      </trkpt>
      <trkpt lat="49.18216" lon="-0.32222">
        <ele>4.765137</ele>
        <time>2022-08-06T12:33:25.000Z</time>
      </trkpt>
      <trkpt lat="49.18214" lon="-0.32229">
        <ele>4.743529</ele>
        <time>2022-08-06T12:33:26.000Z</time>
      </trkpt>
      <trkpt lat="49.18212" lon="-0.32236">
        <ele>4.722281</ele>
        <time>2022-08-06T12:33:27.000Z</time>
      </trkpt>
      <trkpt lat="49.18209" lon="-0.32244">
        <ele>4.700207</ele>
        <time>2022-08-06T12:33:28.000Z</time>
      </trkpt>
      <trkpt lat="49.18207" lon="-0.32251">
        <ele>4.678723</ele>
        <time>2022-08-06T12:33:29.000Z</time>
      </trkpt>
      <trkpt lat="49.18204" lon="-0.32259">
        <ele>4.656415</ele>
        <time>2022-08-06T12:33:30.000Z</time>
      </trkpt>
      <trkpt lat="49.18202" lon="-0.32267">
        <ele>4.6335</ele>
        <time>2022-08-06T12:33:31.000Z</time>
      </trkpt>
      <trkpt lat="49.18199" lon="-0.32275">
        <ele>4.609515</ele>
        <time>2022-08-06T12:33:32.000Z</time>
      </trkpt>
      <trkpt lat="49.18197" lon="-0.32283">
        <ele>4.585315</ele>
        <time>2022-08-06T12:33:33.000Z</time>
      </trkpt>
      <trkpt lat="49.18193" lon="-0.32291">
        <ele>4.560499</ele>
        <time>2022-08-06T12:33:34.000Z</time>
      </trkpt>
      <trkpt lat="49.1819" lon="-0.323">
        <ele>4.536054</ele>
        <time>2022-08-06T12:33:35.000Z</time>
      </trkpt>
      <trkpt lat="49.18187" lon="-0.32308">
        <ele>4.511462</ele>
        <time>2022-08-06T12:33:36.000Z</time>
      </trkpt>
      <trkpt lat="49.18185" lon="-0.32315">
        <ele>4.489429</ele>
        <time>2022-08-06T12:33:37.000Z</time>
      </trkpt>
      <trkpt lat="49.18182" lon="-0.32323">
        <ele>4.466938</ele>
        <time>2022-08-06T12:33:38.000Z</time>
      </trkpt>
      <trkpt lat="49.1818" lon="-0.32331">
        <ele>4.443747</ele>
        <time>2022-08-06T12:33:39.000Z</time>
      </trkpt>
      <trkpt lat="49.18177" lon="-0.32338">
        <ele>4.420872</ele>
        <time>2022-08-06T12:33:40.000Z</time>
      </trkpt>
      <trkpt lat="49.18174" lon="-0.32346">
        <ele>4.398613</ele>
        <time>2022-08-06T12:33:41.000Z</time>
      </trkpt>
      <trkpt lat="49.18172" lon="-0.32354">
        <ele>4.388025</ele>
        <time>2022-08-06T12:33:42.000Z</time>
      </trkpt>
      <trkpt lat="49.18169" lon="-0.32362">
        <ele>4.387771</ele>
        <time>2022-08-06T12:33:43.000Z</time>
      </trkpt>
      <trkpt lat="49.18165" lon="-0.3237">
        <ele>4.387517</ele>
        <time>2022-08-06T12:33:44.000Z</time>
      </trkpt>
      <trkpt lat="49.18163" lon="-0.32377">
        <ele>4.387284</ele>
        <time>2022-08-06T12:33:45.000Z</time>
      </trkpt>
      <trkpt lat="49.1816" lon="-0.32385">
        <ele>4.387052</ele>
        <time>2022-08-06T12:33:46.000Z</time>
      </trkpt>
      <trkpt lat="49.18157" lon="-0.32393">
        <ele>4.386812</ele>
        <time>2022-08-06T12:33:47.000Z</time>
      </trkpt>
      <trkpt lat="49.18155" lon="-0.324">
        <ele>4.386589</ele>
        <time>2022-08-06T12:33:48.000Z</time>
      </trkpt>
      <trkpt lat="49.18153" lon="-0.32408">
        <ele>4.386347</ele>
        <time>2022-08-06T12:33:49.000Z</time>
      </trkpt>
      <trkpt lat="49.18149" lon="-0.32415">
        <ele>4.386109</ele>
        <time>2022-08-06T12:33:50.000Z</time>
      </trkpt>
      <trkpt lat="49.18147" lon="-0.32423">
        <ele>4.385872</ele>
        <time>2022-08-06T12:33:51.000Z</time>
      </trkpt>
      <trkpt lat="49.18144" lon="-0.32431">
        <ele>4.385641</ele>
        <time>2022-08-06T12:33:52.000Z</time>
      </trkpt>
      <trkpt lat="49.18141" lon="-0.32438">
        <ele>4.3854</ele>
        <time>2022-08-06T12:33:53.000Z</time>
      </trkpt>
      <trkpt lat="49.18139" lon="-0.32446">
        <ele>4.385177</ele>
        <time>2022-08-06T12:33:54.000Z</time>
      </trkpt>
      <trkpt lat="49.18136" lon="-0.32453">
        <ele>4.384953</ele>
        <time>2022-08-06T12:33:55.000Z</time>
      </trkpt>
      <trkpt lat="49.18134" lon="-0.3246">
        <ele>4.38474</ele>
        <time>2022-08-06T12:33:56.000Z</time>
      </trkpt>
      <trkpt lat="49.18132" lon="-0.32468">
        <ele>4.384506</ele>
        <time>2022-08-06T12:33:57.000Z</time>
      </trkpt>
      <trkpt lat="49.18129" lon="-0.32475">
        <ele>4.384294</ele>
        <time>2022-08-06T12:33:58.000Z</time>
      </trkpt>
      <trkpt lat="49.18127" lon="-0.32482">
        <ele>4.384077</ele>
        <time>2022-08-06T12:33:59.000Z</time>
      </trkpt>
      <trkpt lat="49.18125" lon="-0.3249">
        <ele>4.383846</ele>
        <time>2022-08-06T12:34:00.000Z</time>
      </trkpt>
      <trkpt lat="49.18123" lon="-0.32498">
        <ele>4.383606</ele>
        <time>2022-08-06T12:34:01.000Z</time>
      </trkpt>
      <trkpt lat="49.18121" lon="-0.32506">
        <ele>4.38339</ele>
        <time>2022-08-06T12:34:02.000Z</time>
      </trkpt>
      <trkpt lat="49.18119" lon="-0.32514">
        <ele>4.383161</ele>
        <time>2022-08-06T12:34:03.000Z</time>
      </trkpt>
      <trkpt lat="49.18117" lon="-0.32522">
        <ele>4.382926</ele>
        <time>2022-08-06T12:34:04.000Z</time>
      </trkpt>
      <trkpt lat="49.18115" lon="-0.32529">
        <ele>4.382701</ele>
        <time>2022-08-06T12:34:05.000Z</time>
      </trkpt>
      <trkpt lat="49.18112" lon="-0.32537">
        <ele>4.382461</ele>
        <time>2022-08-06T12:34:06.000Z</time>
      </trkpt>
      <trkpt lat="49.18111" lon="-0.32544">
        <ele>4.382261</ele>
        <time>2022-08-06T12:34:07.000Z</time>
      </trkpt>
      <trkpt lat="49.18109" lon="-0.32552">
        <ele>4.382031</ele>
        <time>2022-08-06T12:34:08.000Z</time>
      </trkpt>
      <trkpt lat="49.18107" lon="-0.3256">
        <ele>4.3818</ele>
        <time>2022-08-06T12:34:09.000Z</time>
      </trkpt>
      <trkpt lat="49.18104" lon="-0.32568">
        <ele>4.381559</ele>
        <time>2022-08-06T12:34:10.000Z</time>
      </trkpt>
      <trkpt lat="49.18101" lon="-0.32575">
        <ele>4.381339</ele>
        <time>2022-08-06T12:34:11.000Z</time>
      </trkpt>
      <trkpt lat="49.18099" lon="-0.32585">
        <ele>4.381044</ele>
        <time>2022-08-06T12:34:12.000Z</time>
      </trkpt>
      <trkpt lat="49.18096" lon="-0.32594">
        <ele>4.380788</ele>
        <time>2022-08-06T12:34:13.000Z</time>
      </trkpt>
      <trkpt lat="49.18094" lon="-0.32602">
        <ele>4.395023</ele>
        <time>2022-08-06T12:34:14.000Z</time>
      </trkpt>
      <trkpt lat="49.18092" lon="-0.3261">
        <ele>4.418832</ele>
        <time>2022-08-06T12:34:15.000Z</time>
      </trkpt>
      <trkpt lat="49.18089" lon="-0.32618">
        <ele>4.442944</ele>
        <time>2022-08-06T12:34:16.000Z</time>
      </trkpt>
      <trkpt lat="49.18088" lon="-0.32625">
        <ele>4.461453</ele>
        <time>2022-08-06T12:34:17.000Z</time>
      </trkpt>
      <trkpt lat="49.18085" lon="-0.32634">
        <ele>4.489638</ele>
        <time>2022-08-06T12:34:18.000Z</time>
      </trkpt>
      <trkpt lat="49.18084" lon="-0.32643">
        <ele>4.512442</ele>
        <time>2022-08-06T12:34:19.000Z</time>
      </trkpt>
      <trkpt lat="49.18082" lon="-0.32651">
        <ele>4.535878</ele>
        <time>2022-08-06T12:34:20.000Z</time>
      </trkpt>
      <trkpt lat="49.1808" lon="-0.3266">
        <ele>4.559962</ele>
        <time>2022-08-06T12:34:21.000Z</time>
      </trkpt>
      <trkpt lat="49.18079" lon="-0.32666">
        <ele>4.578076</ele>
        <time>2022-08-06T12:34:22.000Z</time>
      </trkpt>
      <trkpt lat="49.18076" lon="-0.32676">
        <ele>4.606744</ele>
        <time>2022-08-06T12:34:23.000Z</time>
      </trkpt>
      <trkpt lat="49.18074" lon="-0.32684">
        <ele>4.630858</ele>
        <time>2022-08-06T12:34:24.000Z</time>
      </trkpt>
      <trkpt lat="49.18072" lon="-0.32693">
        <ele>4.654294</ele>
        <time>2022-08-06T12:34:25.000Z</time>
      </trkpt>
      <trkpt lat="49.1807" lon="-0.32701">
        <ele>4.67773</ele>
        <time>2022-08-06T12:34:26.000Z</time>
      </trkpt>
      <trkpt lat="49.18068" lon="-0.32709">
        <ele>4.701553</ele>
        <time>2022-08-06T12:34:27.000Z</time>
      </trkpt>
      <trkpt lat="49.18066" lon="-0.32718">
        <ele>4.725421</ele>
        <time>2022-08-06T12:34:28.000Z</time>
      </trkpt>
      <trkpt lat="49.18063" lon="-0.32726">
        <ele>4.749289</ele>
        <time>2022-08-06T12:34:29.000Z</time>
      </trkpt>
      <trkpt lat="49.18061" lon="-0.32734">
        <ele>4.773112</ele>
        <time>2022-08-06T12:34:30.000Z</time>
      </trkpt>
      <trkpt lat="49.1806" lon="-0.32742">
        <ele>4.796045</ele>
        <time>2022-08-06T12:34:31.000Z</time>
      </trkpt>
      <trkpt lat="49.18058" lon="-0.32751">
        <ele>4.819617</ele>
        <time>2022-08-06T12:34:32.000Z</time>
      </trkpt>
      <trkpt lat="49.18056" lon="-0.32759">
        <ele>4.843305</ele>
        <time>2022-08-06T12:34:33.000Z</time>
      </trkpt>
      <trkpt lat="49.18054" lon="-0.32768">
        <ele>4.86674</ele>
        <time>2022-08-06T12:34:34.000Z</time>
      </trkpt>
      <trkpt lat="49.18052" lon="-0.32776">
        <ele>4.890176</ele>
        <time>2022-08-06T12:34:35.000Z</time>
      </trkpt>
      <trkpt lat="49.1805" lon="-0.32784">
        <ele>4.914</ele>
        <time>2022-08-06T12:34:36.000Z</time>
      </trkpt>
      <trkpt lat="49.18048" lon="-0.32793">
        <ele>4.937435</ele>
        <time>2022-08-06T12:34:37.000Z</time>
      </trkpt>
      <trkpt lat="49.18047" lon="-0.32801">
        <ele>4.959921</ele>
        <time>2022-08-06T12:34:38.000Z</time>
      </trkpt>
      <trkpt lat="49.18045" lon="-0.32809">
        <ele>4.984283</ele>
        <time>2022-08-06T12:34:39.000Z</time>
      </trkpt>
      <trkpt lat="49.18043" lon="-0.32818">
        <ele>5.007344</ele>
        <time>2022-08-06T12:34:40.000Z</time>
      </trkpt>
      <trkpt lat="49.18042" lon="-0.32826">
        <ele>5.030149</ele>
        <time>2022-08-06T12:34:41.000Z</time>
      </trkpt>
      <trkpt lat="49.1804" lon="-0.32834">
        <ele>5.052698</ele>
        <time>2022-08-06T12:34:42.000Z</time>
      </trkpt>
      <trkpt lat="49.18038" lon="-0.32842">
        <ele>5.075882</ele>
        <time>2022-08-06T12:34:43.000Z</time>
      </trkpt>
      <trkpt lat="49.18036" lon="-0.3285">
        <ele>5.099318</ele>
        <time>2022-08-06T12:34:44.000Z</time>
      </trkpt>
      <trkpt lat="49.18034" lon="-0.32859">
        <ele>5.110063</ele>
        <time>2022-08-06T12:34:45.000Z</time>
      </trkpt>
      <trkpt lat="49.18033" lon="-0.32867">
        <ele>5.099875</ele>
        <time>2022-08-06T12:34:46.000Z</time>
      </trkpt>
      <trkpt lat="49.18031" lon="-0.32875">
        <ele>5.089848</ele>
        <time>2022-08-06T12:34:47.000Z</time>
      </trkpt>
      <trkpt lat="49.18029" lon="-0.32883">
        <ele>5.079133</ele>
        <time>2022-08-06T12:34:48.000Z</time>
      </trkpt>
      <trkpt lat="49.18028" lon="-0.32891">
        <ele>5.068818</ele>
        <time>2022-08-06T12:34:49.000Z</time>
      </trkpt>
      <trkpt lat="49.18026" lon="-0.329">
        <ele>5.058391</ele>
        <time>2022-08-06T12:34:50.000Z</time>
      </trkpt>
      <trkpt lat="49.18024" lon="-0.32908">
        <ele>5.047789</ele>
        <time>2022-08-06T12:34:51.000Z</time>
      </trkpt>
      <trkpt lat="49.18022" lon="-0.32916">
        <ele>5.037249</ele>
        <time>2022-08-06T12:34:52.000Z</time>
      </trkpt>
      <trkpt lat="49.18021" lon="-0.32925">
        <ele>5.026417</ele>
        <time>2022-08-06T12:34:53.000Z</time>
      </trkpt>
      <trkpt lat="49.18019" lon="-0.32933">
        <ele>5.016389</ele>
        <time>2022-08-06T12:34:54.000Z</time>
      </trkpt>
      <trkpt lat="49.18017" lon="-0.32941">
        <ele>5.006133</ele>
        <time>2022-08-06T12:34:55.000Z</time>
      </trkpt>
      <trkpt lat="49.18016" lon="-0.32949">
        <ele>4.996106</ele>
        <time>2022-08-06T12:34:56.000Z</time>
      </trkpt>
      <trkpt lat="49.18014" lon="-0.32957">
        <ele>4.986078</ele>
        <time>2022-08-06T12:34:57.000Z</time>
      </trkpt>
      <trkpt lat="49.18013" lon="-0.32965">
        <ele>4.975936</ele>
        <time>2022-08-06T12:34:58.000Z</time>
      </trkpt>
      <trkpt lat="49.18011" lon="-0.32974">
        <ele>4.965823</ele>
        <time>2022-08-06T12:34:59.000Z</time>
      </trkpt>
      <trkpt lat="49.1801" lon="-0.32982">
        <ele>4.955222</ele>
        <time>2022-08-06T12:35:00.000Z</time>
      </trkpt>
      <trkpt lat="49.18008" lon="-0.3299">
        <ele>4.94485</ele>
        <time>2022-08-06T12:35:01.000Z</time>
      </trkpt>
      <trkpt lat="49.18006" lon="-0.32999">
        <ele>4.934248</ele>
        <time>2022-08-06T12:35:02.000Z</time>
      </trkpt>
      <trkpt lat="49.18005" lon="-0.33007">
        <ele>4.923785</ele>
        <time>2022-08-06T12:35:03.000Z</time>
      </trkpt>
      <trkpt lat="49.18004" lon="-0.33016">
        <ele>4.913299</ele>
        <time>2022-08-06T12:35:04.000Z</time>
      </trkpt>
      <trkpt lat="49.18002" lon="-0.33024">
        <ele>4.902697</ele>
        <time>2022-08-06T12:35:05.000Z</time>
      </trkpt>
      <trkpt lat="49.18" lon="-0.33033">
        <ele>4.891749</ele>
        <time>2022-08-06T12:35:06.000Z</time>
      </trkpt>
      <trkpt lat="49.17999" lon="-0.33042">
        <ele>4.881053</ele>
        <time>2022-08-06T12:35:07.000Z</time>
      </trkpt>
      <trkpt lat="49.17998" lon="-0.3305">
        <ele>4.870513</ele>
        <time>2022-08-06T12:35:08.000Z</time>
      </trkpt>
      <trkpt lat="49.17996" lon="-0.33059">
        <ele>4.860026</ele>
        <time>2022-08-06T12:35:09.000Z</time>
      </trkpt>
      <trkpt lat="49.17995" lon="-0.33067">
        <ele>4.849309</ele>
        <time>2022-08-06T12:35:10.000Z</time>
      </trkpt>
      <trkpt lat="49.17993" lon="-0.33076">
        <ele>4.838613</ele>
        <time>2022-08-06T12:35:11.000Z</time>
      </trkpt>
      <trkpt lat="49.17992" lon="-0.33085">
        <ele>4.827799</ele>
        <time>2022-08-06T12:35:12.000Z</time>
      </trkpt>
      <trkpt lat="49.17991" lon="-0.33094">
        <ele>4.817103</ele>
        <time>2022-08-06T12:35:13.000Z</time>
      </trkpt>
      <trkpt lat="49.17989" lon="-0.33102">
        <ele>4.80664</ele>
        <time>2022-08-06T12:35:14.000Z</time>
      </trkpt>
      <trkpt lat="49.17988" lon="-0.33111">
        <ele>4.796038</ele>
        <time>2022-08-06T12:35:15.000Z</time>
      </trkpt>
      <trkpt lat="49.17987" lon="-0.33119">
        <ele>4.78585</ele>
        <time>2022-08-06T12:35:16.000Z</time>
      </trkpt>
      <trkpt lat="49.17986" lon="-0.33127">
        <ele>4.772647</ele>
        <time>2022-08-06T12:35:17.000Z</time>
      </trkpt>
      <trkpt lat="49.17984" lon="-0.33136">
        <ele>4.758563</ele>
        <time>2022-08-06T12:35:18.000Z</time>
      </trkpt>
      <trkpt lat="49.17982" lon="-0.33144">
        <ele>4.744937</ele>
        <time>2022-08-06T12:35:19.000Z</time>
      </trkpt>
      <trkpt lat="49.17981" lon="-0.33152">
        <ele>4.731968</ele>
        <time>2022-08-06T12:35:20.000Z</time>
      </trkpt>
      <trkpt lat="49.17981" lon="-0.3316">
        <ele>4.719512</ele>
        <time>2022-08-06T12:35:21.000Z</time>
      </trkpt>
      <trkpt lat="49.1798" lon="-0.33167">
        <ele>4.708184</ele>
        <time>2022-08-06T12:35:22.000Z</time>
      </trkpt>
      <trkpt lat="49.1798" lon="-0.33174">
        <ele>4.69612</ele>
        <time>2022-08-06T12:35:23.000Z</time>
      </trkpt>
      <trkpt lat="49.17979" lon="-0.33182">
        <ele>4.683978</ele>
        <time>2022-08-06T12:35:24.000Z</time>
      </trkpt>
      <trkpt lat="49.17978" lon="-0.33189">
        <ele>4.671946</ele>
        <time>2022-08-06T12:35:25.000Z</time>
      </trkpt>
      <trkpt lat="49.17977" lon="-0.33197">
        <ele>4.659602</ele>
        <time>2022-08-06T12:35:26.000Z</time>
      </trkpt>
      <trkpt lat="49.17976" lon="-0.33205">
        <ele>4.646938</ele>
        <time>2022-08-06T12:35:27.000Z</time>
      </trkpt>
      <trkpt lat="49.17974" lon="-0.33213">
        <ele>4.633617</ele>
        <time>2022-08-06T12:35:28.000Z</time>
      </trkpt>
      <trkpt lat="49.17973" lon="-0.3322">
        <ele>4.621273</ele>
        <time>2022-08-06T12:35:29.000Z</time>
      </trkpt>
      <trkpt lat="49.17973" lon="-0.33228">
        <ele>4.608504</ele>
        <time>2022-08-06T12:35:30.000Z</time>
      </trkpt>
      <trkpt lat="49.17972" lon="-0.33236">
        <ele>4.596316</ele>
        <time>2022-08-06T12:35:31.000Z</time>
      </trkpt>
      <trkpt lat="49.17971" lon="-0.33244">
        <ele>4.58339</ele>
        <time>2022-08-06T12:35:32.000Z</time>
      </trkpt>
      <trkpt lat="49.1797" lon="-0.33252">
        <ele>4.570264</ele>
        <time>2022-08-06T12:35:33.000Z</time>
      </trkpt>
      <trkpt lat="49.17968" lon="-0.3326">
        <ele>4.557293</ele>
        <time>2022-08-06T12:35:34.000Z</time>
      </trkpt>
      <trkpt lat="49.17967" lon="-0.33268">
        <ele>4.54421</ele>
        <time>2022-08-06T12:35:35.000Z</time>
      </trkpt>
      <trkpt lat="49.17966" lon="-0.33276">
        <ele>4.530928</ele>
        <time>2022-08-06T12:35:36.000Z</time>
      </trkpt>
      <trkpt lat="49.17965" lon="-0.33285">
        <ele>4.517176</ele>
        <time>2022-08-06T12:35:37.000Z</time>
      </trkpt>
      <trkpt lat="49.17965" lon="-0.33293">
        <ele>4.502993</ele>
        <time>2022-08-06T12:35:38.000Z</time>
      </trkpt>
      <trkpt lat="49.17964" lon="-0.33302">
        <ele>4.489509</ele>
        <time>2022-08-06T12:35:39.000Z</time>
      </trkpt>
      <trkpt lat="49.17963" lon="-0.3331">
        <ele>4.475798</ele>
        <time>2022-08-06T12:35:40.000Z</time>
      </trkpt>
      <trkpt lat="49.17962" lon="-0.33319">
        <ele>4.462046</ele>
        <time>2022-08-06T12:35:41.000Z</time>
      </trkpt>
      <trkpt lat="49.17961" lon="-0.33327">
        <ele>4.448433</ele>
        <time>2022-08-06T12:35:42.000Z</time>
      </trkpt>
      <trkpt lat="49.1796" lon="-0.33336">
        <ele>4.434067</ele>
        <time>2022-08-06T12:35:43.000Z</time>
      </trkpt>
      <trkpt lat="49.17959" lon="-0.33345">
        <ele>4.419857</ele>
        <time>2022-08-06T12:35:44.000Z</time>
      </trkpt>
      <trkpt lat="49.17958" lon="-0.33353">
        <ele>4.406244</ele>
        <time>2022-08-06T12:35:45.000Z</time>
      </trkpt>
      <trkpt lat="49.17957" lon="-0.33362">
        <ele>4.391654</ele>
        <time>2022-08-06T12:35:46.000Z</time>
      </trkpt>
      <trkpt lat="49.17957" lon="-0.33371">
        <ele>4.377628</ele>
        <time>2022-08-06T12:35:47.000Z</time>
      </trkpt>
      <trkpt lat="49.17956" lon="-0.3338">
        <ele>4.363671</ele>
        <time>2022-08-06T12:35:48.000Z</time>
      </trkpt>
      <trkpt lat="49.17955" lon="-0.33388">
        <ele>4.34996</ele>
        <time>2022-08-06T12:35:49.000Z</time>
      </trkpt>
      <trkpt lat="49.17954" lon="-0.33397">
        <ele>4.359393</ele>
        <time>2022-08-06T12:35:50.000Z</time>
      </trkpt>
      <trkpt lat="49.17954" lon="-0.33406">
        <ele>4.377533</ele>
        <time>2022-08-06T12:35:51.000Z</time>
      </trkpt>
      <trkpt lat="49.17954" lon="-0.33414">
        <ele>4.395257</ele>
        <time>2022-08-06T12:35:52.000Z</time>
      </trkpt>
      <trkpt lat="49.17953" lon="-0.33423">
        <ele>4.413855</ele>
        <time>2022-08-06T12:35:53.000Z</time>
      </trkpt>
      <trkpt lat="49.17952" lon="-0.33431">
        <ele>4.431164</ele>
        <time>2022-08-06T12:35:54.000Z</time>
      </trkpt>
      <trkpt lat="49.17951" lon="-0.3344">
        <ele>4.449093</ele>
        <time>2022-08-06T12:35:55.000Z</time>
      </trkpt>
      <trkpt lat="49.1795" lon="-0.33448">
        <ele>4.467076</ele>
        <time>2022-08-06T12:35:56.000Z</time>
      </trkpt>
      <trkpt lat="49.1795" lon="-0.33457">
        <ele>4.484671</ele>
        <time>2022-08-06T12:35:57.000Z</time>
      </trkpt>
      <trkpt lat="49.17949" lon="-0.33465">
        <ele>4.502</ele>
        <time>2022-08-06T12:35:58.000Z</time>
      </trkpt>
      <trkpt lat="49.17949" lon="-0.33474">
        <ele>4.52034</ele>
        <time>2022-08-06T12:35:59.000Z</time>
      </trkpt>
      <trkpt lat="49.17948" lon="-0.33483">
        <ele>4.539212</ele>
        <time>2022-08-06T12:36:00.000Z</time>
      </trkpt>
      <trkpt lat="49.17947" lon="-0.33492">
        <ele>4.557758</ele>
        <time>2022-08-06T12:36:01.000Z</time>
      </trkpt>
      <trkpt lat="49.17946" lon="-0.335">
        <ele>4.575184</ele>
        <time>2022-08-06T12:36:02.000Z</time>
      </trkpt>
      <trkpt lat="49.17946" lon="-0.33508">
        <ele>4.592285</ele>
        <time>2022-08-06T12:36:03.000Z</time>
      </trkpt>
      <trkpt lat="49.17945" lon="-0.33517">
        <ele>4.61107</ele>
        <time>2022-08-06T12:36:04.000Z</time>
      </trkpt>
      <trkpt lat="49.17944" lon="-0.33525">
        <ele>4.628794</ele>
        <time>2022-08-06T12:36:05.000Z</time>
      </trkpt>
      <trkpt lat="49.17944" lon="-0.33534">
        <ele>4.647424</ele>
        <time>2022-08-06T12:36:06.000Z</time>
      </trkpt>
      <trkpt lat="49.17944" lon="-0.33543">
        <ele>4.664706</ele>
        <time>2022-08-06T12:36:07.000Z</time>
      </trkpt>
      <trkpt lat="49.17943" lon="-0.33551">
        <ele>4.683305</ele>
        <time>2022-08-06T12:36:08.000Z</time>
      </trkpt>
      <trkpt lat="49.17942" lon="-0.33559">
        <ele>4.699989</ele>
        <time>2022-08-06T12:36:09.000Z</time>
      </trkpt>
      <trkpt lat="49.17942" lon="-0.33567">
        <ele>4.716647</ele>
        <time>2022-08-06T12:36:10.000Z</time>
      </trkpt>
      <trkpt lat="49.17942" lon="-0.33575">
        <ele>4.733305</ele>
        <time>2022-08-06T12:36:11.000Z</time>
      </trkpt>
      <trkpt lat="49.17942" lon="-0.33584">
        <ele>4.750379</ele>
        <time>2022-08-06T12:36:12.000Z</time>
      </trkpt>
      <trkpt lat="49.17943" lon="-0.33591">
        <ele>4.766525</ele>
        <time>2022-08-06T12:36:13.000Z</time>
      </trkpt>
      <trkpt lat="49.17943" lon="-0.336">
        <ele>4.784873</ele>
        <time>2022-08-06T12:36:14.000Z</time>
      </trkpt>
      <trkpt lat="49.17943" lon="-0.33608">
        <ele>4.802155</ele>
        <time>2022-08-06T12:36:15.000Z</time>
      </trkpt>
      <trkpt lat="49.17943" lon="-0.33617">
        <ele>4.820687</ele>
        <time>2022-08-06T12:36:16.000Z</time>
      </trkpt>
      <trkpt lat="49.17942" lon="-0.33626">
        <ele>4.839035</ele>
        <time>2022-08-06T12:36:17.000Z</time>
      </trkpt>
      <trkpt lat="49.17942" lon="-0.33634">
        <ele>4.855693</ele>
        <time>2022-08-06T12:36:18.000Z</time>
      </trkpt>
      <trkpt lat="49.17943" lon="-0.33643">
        <ele>4.873417</ele>
        <time>2022-08-06T12:36:19.000Z</time>
      </trkpt>
      <trkpt lat="49.17942" lon="-0.33651">
        <ele>4.891558</ele>
        <time>2022-08-06T12:36:20.000Z</time>
      </trkpt>
      <trkpt lat="49.17943" lon="-0.3366">
        <ele>4.908866</ele>
        <time>2022-08-06T12:36:21.000Z</time>
      </trkpt>
      <trkpt lat="49.17943" lon="-0.33668">
        <ele>4.922255</ele>
        <time>2022-08-06T12:36:22.000Z</time>
      </trkpt>
      <trkpt lat="49.17944" lon="-0.33675">
        <ele>4.930553</ele>
        <time>2022-08-06T12:36:23.000Z</time>
      </trkpt>
      <trkpt lat="49.17944" lon="-0.33684">
        <ele>4.939126</ele>
        <time>2022-08-06T12:36:24.000Z</time>
      </trkpt>
      <trkpt lat="49.17944" lon="-0.33692">
        <ele>4.948</ele>
        <time>2022-08-06T12:36:25.000Z</time>
      </trkpt>
      <trkpt lat="49.17944" lon="-0.33701">
        <ele>4.957616</ele>
        <time>2022-08-06T12:36:26.000Z</time>
      </trkpt>
      <trkpt lat="49.17943" lon="-0.3371">
        <ele>4.967182</ele>
        <time>2022-08-06T12:36:27.000Z</time>
      </trkpt>
      <trkpt lat="49.17944" lon="-0.33718">
        <ele>4.975378</ele>
        <time>2022-08-06T12:36:28.000Z</time>
      </trkpt>
      <trkpt lat="49.17944" lon="-0.33727">
        <ele>4.984251</ele>
        <time>2022-08-06T12:36:29.000Z</time>
      </trkpt>
      <trkpt lat="49.17944" lon="-0.33735">
        <ele>4.993346</ele>
        <time>2022-08-06T12:36:30.000Z</time>
      </trkpt>
      <trkpt lat="49.17946" lon="-0.33743">
        <ele>5.001547</ele>
        <time>2022-08-06T12:36:31.000Z</time>
      </trkpt>
      <trkpt lat="49.17946" lon="-0.33751">
        <ele>5.009809</ele>
        <time>2022-08-06T12:36:32.000Z</time>
      </trkpt>
      <trkpt lat="49.17946" lon="-0.33759">
        <ele>5.018278</ele>
        <time>2022-08-06T12:36:33.000Z</time>
      </trkpt>
      <trkpt lat="49.17947" lon="-0.33768">
        <ele>5.027591</ele>
        <time>2022-08-06T12:36:34.000Z</time>
      </trkpt>
      <trkpt lat="49.17948" lon="-0.33776">
        <ele>5.036066</ele>
        <time>2022-08-06T12:36:35.000Z</time>
      </trkpt>
      <trkpt lat="49.17949" lon="-0.33783">
        <ele>5.044057</ele>
        <time>2022-08-06T12:36:36.000Z</time>
      </trkpt>
      <trkpt lat="49.17949" lon="-0.33792">
        <ele>5.053035</ele>
        <time>2022-08-06T12:36:37.000Z</time>
      </trkpt>
      <trkpt lat="49.17948" lon="-0.33801">
        <ele>5.062443</ele>
        <time>2022-08-06T12:36:38.000Z</time>
      </trkpt>
      <trkpt lat="49.17948" lon="-0.33809">
        <ele>5.071212</ele>
        <time>2022-08-06T12:36:39.000Z</time>
      </trkpt>
      <trkpt lat="49.17948" lon="-0.33818">
        <ele>5.080213</ele>
        <time>2022-08-06T12:36:40.000Z</time>
      </trkpt>
      <trkpt lat="49.17948" lon="-0.33827">
        <ele>5.089526</ele>
        <time>2022-08-06T12:36:41.000Z</time>
      </trkpt>
      <trkpt lat="49.17948" lon="-0.33836">
        <ele>5.098921</ele>
        <time>2022-08-06T12:36:42.000Z</time>
      </trkpt>
      <trkpt lat="49.17948" lon="-0.33844">
        <ele>5.107899</ele>
        <time>2022-08-06T12:36:43.000Z</time>
      </trkpt>
      <trkpt lat="49.17948" lon="-0.33853">
        <ele>5.116773</ele>
        <time>2022-08-06T12:36:44.000Z</time>
      </trkpt>
      <trkpt lat="49.17949" lon="-0.33861">
        <ele>5.125387</ele>
        <time>2022-08-06T12:36:45.000Z</time>
      </trkpt>
      <trkpt lat="49.17949" lon="-0.33869">
        <ele>5.134001</ele>
        <time>2022-08-06T12:36:46.000Z</time>
      </trkpt>
      <trkpt lat="49.1795" lon="-0.33878">
        <ele>5.142689</ele>
        <time>2022-08-06T12:36:47.000Z</time>
      </trkpt>
      <trkpt lat="49.1795" lon="-0.33886">
        <ele>5.151354</ele>
        <time>2022-08-06T12:36:48.000Z</time>
      </trkpt>
      <trkpt lat="49.17951" lon="-0.33894">
        <ele>5.160343</ele>
        <time>2022-08-06T12:36:49.000Z</time>
      </trkpt>
      <trkpt lat="49.17951" lon="-0.33903">
        <ele>5.169494</ele>
        <time>2022-08-06T12:36:50.000Z</time>
      </trkpt>
      <trkpt lat="49.17952" lon="-0.33912">
        <ele>5.178381</ele>
        <time>2022-08-06T12:36:51.000Z</time>
      </trkpt>
      <trkpt lat="49.17951" lon="-0.3392">
        <ele>5.187059</ele>
        <time>2022-08-06T12:36:52.000Z</time>
      </trkpt>
      <trkpt lat="49.17951" lon="-0.33928">
        <ele>5.195828</ele>
        <time>2022-08-06T12:36:53.000Z</time>
      </trkpt>
      <trkpt lat="49.17951" lon="-0.33937">
        <ele>5.20529</ele>
        <time>2022-08-06T12:36:54.000Z</time>
      </trkpt>
      <trkpt lat="49.1795" lon="-0.33946">
        <ele>5.218212</ele>
        <time>2022-08-06T12:36:55.000Z</time>
      </trkpt>
      <trkpt lat="49.1795" lon="-0.33954">
        <ele>5.230944</ele>
        <time>2022-08-06T12:36:56.000Z</time>
      </trkpt>
      <trkpt lat="49.1795" lon="-0.33963">
        <ele>5.244161</ele>
        <time>2022-08-06T12:36:57.000Z</time>
      </trkpt>
      <trkpt lat="49.1795" lon="-0.33971">
        <ele>5.257843</ele>
        <time>2022-08-06T12:36:58.000Z</time>
      </trkpt>
      <trkpt lat="49.17949" lon="-0.3398">
        <ele>5.27185</ele>
        <time>2022-08-06T12:36:59.000Z</time>
      </trkpt>
      <trkpt lat="49.17949" lon="-0.33989">
        <ele>5.285897</ele>
        <time>2022-08-06T12:37:00.000Z</time>
      </trkpt>
      <trkpt lat="49.17949" lon="-0.33998">
        <ele>5.298629</ele>
        <time>2022-08-06T12:37:01.000Z</time>
      </trkpt>
      <trkpt lat="49.17949" lon="-0.34004">
        <ele>5.308053</ele>
        <time>2022-08-06T12:37:02.000Z</time>
      </trkpt>
      <trkpt lat="49.17949" lon="-0.34013">
        <ele>5.322563</ele>
        <time>2022-08-06T12:37:03.000Z</time>
      </trkpt>
      <trkpt lat="49.17949" lon="-0.34021">
        <ele>5.33485</ele>
        <time>2022-08-06T12:37:04.000Z</time>
      </trkpt>
      <trkpt lat="49.17948" lon="-0.34027">
        <ele>5.344194</ele>
        <time>2022-08-06T12:37:05.000Z</time>
      </trkpt>
      <trkpt lat="49.17949" lon="-0.34034">
        <ele>5.355551</ele>
        <time>2022-08-06T12:37:06.000Z</time>
      </trkpt>
      <trkpt lat="49.17949" lon="-0.34042">
        <ele>5.367527</ele>
        <time>2022-08-06T12:37:07.000Z</time>
      </trkpt>
      <trkpt lat="49.1795" lon="-0.3405">
        <ele>5.381233</ele>
        <time>2022-08-06T12:37:08.000Z</time>
      </trkpt>
      <trkpt lat="49.17951" lon="-0.34057">
        <ele>5.391733</ele>
        <time>2022-08-06T12:37:09.000Z</time>
      </trkpt>
      <trkpt lat="49.17951" lon="-0.34062">
        <ele>5.399977</ele>
        <time>2022-08-06T12:37:10.000Z</time>
      </trkpt>
      <trkpt lat="49.17952" lon="-0.34069">
        <ele>5.411024</ele>
        <time>2022-08-06T12:37:11.000Z</time>
      </trkpt>
      <trkpt lat="49.17954" lon="-0.34077">
        <ele>5.42424</ele>
        <time>2022-08-06T12:37:12.000Z</time>
      </trkpt>
      <trkpt lat="49.17955" lon="-0.34086">
        <ele>5.438261</ele>
        <time>2022-08-06T12:37:13.000Z</time>
      </trkpt>
      <trkpt lat="49.17956" lon="-0.34096">
        <ele>5.453437</ele>
        <time>2022-08-06T12:37:14.000Z</time>
      </trkpt>
      <trkpt lat="49.17956" lon="-0.34104">
        <ele>5.465724</ele>
        <time>2022-08-06T12:37:15.000Z</time>
      </trkpt>
      <trkpt lat="49.17956" lon="-0.34111">
        <ele>5.476593</ele>
        <time>2022-08-06T12:37:16.000Z</time>
      </trkpt>
      <trkpt lat="49.17956" lon="-0.34115">
        <ele>5.483616</ele>
        <time>2022-08-06T12:37:17.000Z</time>
      </trkpt>
      <trkpt lat="49.17955" lon="-0.34122">
        <ele>5.494845</ele>
        <time>2022-08-06T12:37:18.000Z</time>
      </trkpt>
      <trkpt lat="49.17955" lon="-0.34131">
        <ele>5.508664</ele>
        <time>2022-08-06T12:37:19.000Z</time>
      </trkpt>
      <trkpt lat="49.17955" lon="-0.34137">
        <ele>5.518162</ele>
        <time>2022-08-06T12:37:20.000Z</time>
      </trkpt>
      <trkpt lat="49.17954" lon="-0.34146">
        <ele>5.532014</ele>
        <time>2022-08-06T12:37:21.000Z</time>
      </trkpt>
      <trkpt lat="49.17955" lon="-0.34153">
        <ele>5.541842</ele>
        <time>2022-08-06T12:37:22.000Z</time>
      </trkpt>
      <trkpt lat="49.17955" lon="-0.3416">
        <ele>5.553974</ele>
        <time>2022-08-06T12:37:23.000Z</time>
      </trkpt>
      <trkpt lat="49.17955" lon="-0.34168">
        <ele>5.566395</ele>
        <time>2022-08-06T12:37:24.000Z</time>
      </trkpt>
      <trkpt lat="49.17956" lon="-0.34177">
        <ele>5.57967</ele>
        <time>2022-08-06T12:37:25.000Z</time>
      </trkpt>
      <trkpt lat="49.17956" lon="-0.34185">
        <ele>5.592712</ele>
        <time>2022-08-06T12:37:26.000Z</time>
      </trkpt>
      <trkpt lat="49.17956" lon="-0.34194">
        <ele>5.606066</ele>
        <time>2022-08-06T12:37:27.000Z</time>
      </trkpt>
      <trkpt lat="49.17956" lon="-0.34202">
        <ele>5.618487</ele>
        <time>2022-08-06T12:37:28.000Z</time>
      </trkpt>
      <trkpt lat="49.17956" lon="-0.3421">
        <ele>5.630774</ele>
        <time>2022-08-06T12:37:29.000Z</time>
      </trkpt>
      <trkpt lat="49.17956" lon="-0.34218">
        <ele>5.644521</ele>
        <time>2022-08-06T12:37:30.000Z</time>
      </trkpt>
      <trkpt lat="49.17955" lon="-0.34227">
        <ele>5.658723</ele>
        <time>2022-08-06T12:37:31.000Z</time>
      </trkpt>
      <trkpt lat="49.17955" lon="-0.34235">
        <ele>5.672441</ele>
        <time>2022-08-06T12:37:32.000Z</time>
      </trkpt>
      <trkpt lat="49.17956" lon="-0.34243">
        <ele>5.684554</ele>
        <time>2022-08-06T12:37:33.000Z</time>
      </trkpt>
      <trkpt lat="49.17956" lon="-0.34253">
        <ele>5.701216</ele>
        <time>2022-08-06T12:37:34.000Z</time>
      </trkpt>
      <trkpt lat="49.17956" lon="-0.34262">
        <ele>5.715892</ele>
        <time>2022-08-06T12:37:35.000Z</time>
      </trkpt>
      <trkpt lat="49.17957" lon="-0.34268">
        <ele>5.727063</ele>
        <time>2022-08-06T12:37:36.000Z</time>
      </trkpt>
      <trkpt lat="49.17958" lon="-0.34276">
        <ele>5.739333</ele>
        <time>2022-08-06T12:37:37.000Z</time>
      </trkpt>
      <trkpt lat="49.17958" lon="-0.34284">
        <ele>5.752704</ele>
        <time>2022-08-06T12:37:38.000Z</time>
      </trkpt>
      <trkpt lat="49.17958" lon="-0.34292">
        <ele>5.766239</ele>
        <time>2022-08-06T12:37:39.000Z</time>
      </trkpt>
      <trkpt lat="49.17958" lon="-0.343">
        <ele>5.779305</ele>
        <time>2022-08-06T12:37:40.000Z</time>
      </trkpt>
      <trkpt lat="49.17958" lon="-0.34308">
        <ele>5.79235</ele>
        <time>2022-08-06T12:37:41.000Z</time>
      </trkpt>
      <trkpt lat="49.17958" lon="-0.34318">
        <ele>5.808185</ele>
        <time>2022-08-06T12:37:42.000Z</time>
      </trkpt>
      <trkpt lat="49.17958" lon="-0.34325">
        <ele>5.820182</ele>
        <time>2022-08-06T12:37:43.000Z</time>
      </trkpt>
      <trkpt lat="49.17959" lon="-0.34332">
        <ele>5.831621</ele>
        <time>2022-08-06T12:37:44.000Z</time>
      </trkpt>
      <trkpt lat="49.1796" lon="-0.3434">
        <ele>5.844422</ele>
        <time>2022-08-06T12:37:45.000Z</time>
      </trkpt>
      <trkpt lat="49.1796" lon="-0.34348">
        <ele>5.857957</ele>
        <time>2022-08-06T12:37:46.000Z</time>
      </trkpt>
      <trkpt lat="49.1796" lon="-0.34357">
        <ele>5.871411</ele>
        <time>2022-08-06T12:37:47.000Z</time>
      </trkpt>
      <trkpt lat="49.1796" lon="-0.34366">
        <ele>5.886576</ele>
        <time>2022-08-06T12:37:48.000Z</time>
      </trkpt>
      <trkpt lat="49.1796" lon="-0.34373">
        <ele>5.898341</ele>
        <time>2022-08-06T12:37:49.000Z</time>
      </trkpt>
      <trkpt lat="49.1796" lon="-0.3438">
        <ele>5.910244</ele>
        <time>2022-08-06T12:37:50.000Z</time>
      </trkpt>
      <trkpt lat="49.17959" lon="-0.34389">
        <ele>5.924003</ele>
        <time>2022-08-06T12:37:51.000Z</time>
      </trkpt>
      <trkpt lat="49.17958" lon="-0.34397">
        <ele>5.93762</ele>
        <time>2022-08-06T12:37:52.000Z</time>
      </trkpt>
      <trkpt lat="49.17958" lon="-0.34403">
        <ele>5.947432</ele>
        <time>2022-08-06T12:37:53.000Z</time>
      </trkpt>
      <trkpt lat="49.17958" lon="-0.34412">
        <ele>5.962452</ele>
        <time>2022-08-06T12:37:54.000Z</time>
      </trkpt>
      <trkpt lat="49.17958" lon="-0.34419">
        <ele>5.973078</ele>
        <time>2022-08-06T12:37:55.000Z</time>
      </trkpt>
      <trkpt lat="49.17959" lon="-0.34423">
        <ele>5.980778</ele>
        <time>2022-08-06T12:37:56.000Z</time>
      </trkpt>
      <trkpt lat="49.17959" lon="-0.34433">
        <ele>5.996269</ele>
        <time>2022-08-06T12:37:57.000Z</time>
      </trkpt>
      <trkpt lat="49.17959" lon="-0.34441">
        <ele>6.009477</ele>
        <time>2022-08-06T12:37:58.000Z</time>
      </trkpt>
      <trkpt lat="49.17958" lon="-0.3445">
        <ele>6.023743</ele>
        <time>2022-08-06T12:37:59.000Z</time>
      </trkpt>
      <trkpt lat="49.17958" lon="-0.3446">
        <ele>6.040392</ele>
        <time>2022-08-06T12:38:00.000Z</time>
      </trkpt>
      <trkpt lat="49.17959" lon="-0.34469">
        <ele>6.055087</ele>
        <time>2022-08-06T12:38:01.000Z</time>
      </trkpt>
      <trkpt lat="49.1796" lon="-0.34476">
        <ele>6.067728</ele>
        <time>2022-08-06T12:38:02.000Z</time>
      </trkpt>
      <trkpt lat="49.1796" lon="-0.34485">
        <ele>6.081588</ele>
        <time>2022-08-06T12:38:03.000Z</time>
      </trkpt>
      <trkpt lat="49.1796" lon="-0.34491">
        <ele>6.081935</ele>
        <time>2022-08-06T12:38:04.000Z</time>
      </trkpt>
      <trkpt lat="49.1796" lon="-0.34499">
        <ele>6.081675</ele>
        <time>2022-08-06T12:38:05.000Z</time>
      </trkpt>
      <trkpt lat="49.1796" lon="-0.34505">
        <ele>6.081463</ele>
        <time>2022-08-06T12:38:06.000Z</time>
      </trkpt>
      <trkpt lat="49.1796" lon="-0.34514">
        <ele>6.08118</ele>
        <time>2022-08-06T12:38:07.000Z</time>
      </trkpt>
      <trkpt lat="49.1796" lon="-0.34523">
        <ele>6.080876</ele>
        <time>2022-08-06T12:38:08.000Z</time>
      </trkpt>
      <trkpt lat="49.1796" lon="-0.3453">
        <ele>6.080642</ele>
        <time>2022-08-06T12:38:09.000Z</time>
      </trkpt>
      <trkpt lat="49.17961" lon="-0.34537">
        <ele>6.08042</ele>
        <time>2022-08-06T12:38:10.000Z</time>
      </trkpt>
      <trkpt lat="49.17961" lon="-0.34544">
        <ele>6.080193</ele>
        <time>2022-08-06T12:38:11.000Z</time>
      </trkpt>
      <trkpt lat="49.17961" lon="-0.3455">
        <ele>6.079988</ele>
        <time>2022-08-06T12:38:12.000Z</time>
      </trkpt>
      <trkpt lat="49.17962" lon="-0.34557">
        <ele>6.079766</ele>
        <time>2022-08-06T12:38:13.000Z</time>
      </trkpt>
      <trkpt lat="49.17962" lon="-0.34565">
        <ele>6.079516</ele>
        <time>2022-08-06T12:38:14.000Z</time>
      </trkpt>
      <trkpt lat="49.17962" lon="-0.34573">
        <ele>6.079262</ele>
        <time>2022-08-06T12:38:15.000Z</time>
      </trkpt>
      <trkpt lat="49.17962" lon="-0.34578">
        <ele>6.079073</ele>
        <time>2022-08-06T12:38:16.000Z</time>
      </trkpt>
      <trkpt lat="49.17962" lon="-0.34586">
        <ele>6.078838</ele>
        <time>2022-08-06T12:38:17.000Z</time>
      </trkpt>
      <trkpt lat="49.17963" lon="-0.34594">
        <ele>6.078568</ele>
        <time>2022-08-06T12:38:18.000Z</time>
      </trkpt>
      <trkpt lat="49.17963" lon="-0.34601">
        <ele>6.07834</ele>
        <time>2022-08-06T12:38:19.000Z</time>
      </trkpt>
      <trkpt lat="49.17964" lon="-0.34609">
        <ele>6.078087</ele>
        <time>2022-08-06T12:38:20.000Z</time>
      </trkpt>
      <trkpt lat="49.17964" lon="-0.34615">
        <ele>6.077867</ele>
        <time>2022-08-06T12:38:21.000Z</time>
      </trkpt>
      <trkpt lat="49.17964" lon="-0.34623">
        <ele>6.077623</ele>
        <time>2022-08-06T12:38:22.000Z</time>
      </trkpt>
      <trkpt lat="49.17964" lon="-0.34632">
        <ele>6.077329</ele>
        <time>2022-08-06T12:38:23.000Z</time>
      </trkpt>
      <trkpt lat="49.17964" lon="-0.34639">
        <ele>6.077092</ele>
        <time>2022-08-06T12:38:24.000Z</time>
      </trkpt>
      <trkpt lat="49.17964" lon="-0.34645">
        <ele>6.076887</ele>
        <time>2022-08-06T12:38:25.000Z</time>
      </trkpt>
      <trkpt lat="49.17964" lon="-0.34653">
        <ele>6.076627</ele>
        <time>2022-08-06T12:38:26.000Z</time>
      </trkpt>
      <trkpt lat="49.17963" lon="-0.34662">
        <ele>6.076338</ele>
        <time>2022-08-06T12:38:27.000Z</time>
      </trkpt>
      <trkpt lat="49.17963" lon="-0.3467">
        <ele>6.076067</ele>
        <time>2022-08-06T12:38:28.000Z</time>
      </trkpt>
      <trkpt lat="49.17963" lon="-0.34678">
        <ele>6.075811</ele>
        <time>2022-08-06T12:38:29.000Z</time>
      </trkpt>
      <trkpt lat="49.17963" lon="-0.34688">
        <ele>6.075492</ele>
        <time>2022-08-06T12:38:30.000Z</time>
      </trkpt>
      <trkpt lat="49.17963" lon="-0.34695">
        <ele>6.075254</ele>
        <time>2022-08-06T12:38:31.000Z</time>
      </trkpt>
      <trkpt lat="49.17964" lon="-0.34704">
        <ele>6.074977</ele>
        <time>2022-08-06T12:38:32.000Z</time>
      </trkpt>
      <trkpt lat="49.17963" lon="-0.34712">
        <ele>6.074715</ele>
        <time>2022-08-06T12:38:33.000Z</time>
      </trkpt>
      <trkpt lat="49.17964" lon="-0.3472">
        <ele>6.074444</ele>
        <time>2022-08-06T12:38:34.000Z</time>
      </trkpt>
      <trkpt lat="49.17964" lon="-0.34725">
        <ele>6.074287</ele>
        <time>2022-08-06T12:38:35.000Z</time>
      </trkpt>
      <trkpt lat="49.17964" lon="-0.34734">
        <ele>6.073977</ele>
        <time>2022-08-06T12:38:36.000Z</time>
      </trkpt>
      <trkpt lat="49.17964" lon="-0.34742">
        <ele>6.073733</ele>
        <time>2022-08-06T12:38:37.000Z</time>
      </trkpt>
      <trkpt lat="49.17964" lon="-0.34749">
        <ele>6.073492</ele>
        <time>2022-08-06T12:38:38.000Z</time>
      </trkpt>
      <trkpt lat="49.17964" lon="-0.34756">
        <ele>6.073277</ele>
        <time>2022-08-06T12:38:39.000Z</time>
      </trkpt>
      <trkpt lat="49.17963" lon="-0.34763">
        <ele>6.072207</ele>
        <time>2022-08-06T12:38:40.000Z</time>
      </trkpt>
      <trkpt lat="49.17963" lon="-0.3477">
        <ele>6.070644</ele>
        <time>2022-08-06T12:38:41.000Z</time>
      </trkpt>
      <trkpt lat="49.17963" lon="-0.34776">
        <ele>6.069291</ele>
        <time>2022-08-06T12:38:42.000Z</time>
      </trkpt>
      <trkpt lat="49.17963" lon="-0.34781">
        <ele>6.068008</ele>
        <time>2022-08-06T12:38:43.000Z</time>
      </trkpt>
      <trkpt lat="49.17963" lon="-0.34785">
        <ele>6.067138</ele>
        <time>2022-08-06T12:38:44.000Z</time>
      </trkpt>
      <trkpt lat="49.17963" lon="-0.34789">
        <ele>6.066268</ele>
        <time>2022-08-06T12:38:45.000Z</time>
      </trkpt>
      <trkpt lat="49.17963" lon="-0.34793">
        <ele>6.065312</ele>
        <time>2022-08-06T12:38:46.000Z</time>
      </trkpt>
      <trkpt lat="49.17962" lon="-0.34797">
        <ele>6.064276</ele>
        <time>2022-08-06T12:38:47.000Z</time>
      </trkpt>
      <trkpt lat="49.17962" lon="-0.34802">
        <ele>6.063067</ele>
        <time>2022-08-06T12:38:48.000Z</time>
      </trkpt>
      <trkpt lat="49.17961" lon="-0.34807">
        <ele>6.061919</ele>
        <time>2022-08-06T12:38:49.000Z</time>
      </trkpt>
      <trkpt lat="49.1796" lon="-0.34812">
        <ele>6.060677</ele>
        <time>2022-08-06T12:38:50.000Z</time>
      </trkpt>
      <trkpt lat="49.1796" lon="-0.34818">
        <ele>6.059284</ele>
        <time>2022-08-06T12:38:51.000Z</time>
      </trkpt>
      <trkpt lat="49.17959" lon="-0.34824">
        <ele>6.05793</ele>
        <time>2022-08-06T12:38:52.000Z</time>
      </trkpt>
      <trkpt lat="49.17958" lon="-0.34829">
        <ele>6.056813</ele>
        <time>2022-08-06T12:38:53.000Z</time>
      </trkpt>
      <trkpt lat="49.17957" lon="-0.34835">
        <ele>6.055149</ele>
        <time>2022-08-06T12:38:54.000Z</time>
      </trkpt>
      <trkpt lat="49.17956" lon="-0.34841">
        <ele>6.05375</ele>
        <time>2022-08-06T12:38:55.000Z</time>
      </trkpt>
      <trkpt lat="49.17954" lon="-0.34847">
        <ele>6.052231</ele>
        <time>2022-08-06T12:38:56.000Z</time>
      </trkpt>
      <trkpt lat="49.17953" lon="-0.34852">
        <ele>6.050974</ele>
        <time>2022-08-06T12:38:57.000Z</time>
      </trkpt>
      <trkpt lat="49.17951" lon="-0.34857">
        <ele>6.049797</ele>
        <time>2022-08-06T12:38:58.000Z</time>
      </trkpt>
      <trkpt lat="49.1795" lon="-0.34862">
        <ele>6.048477</ele>
        <time>2022-08-06T12:38:59.000Z</time>
      </trkpt>
      <trkpt lat="49.17948" lon="-0.34865">
        <ele>6.047538</ele>
        <time>2022-08-06T12:39:00.000Z</time>
      </trkpt>
      <trkpt lat="49.17947" lon="-0.34869">
        <ele>6.046432</ele>
        <time>2022-08-06T12:39:01.000Z</time>
      </trkpt>
      <trkpt lat="49.17946" lon="-0.34873">
        <ele>6.045554</ele>
        <time>2022-08-06T12:39:02.000Z</time>
      </trkpt>
      <trkpt lat="49.17944" lon="-0.34876">
        <ele>6.044499</ele>
        <time>2022-08-06T12:39:03.000Z</time>
      </trkpt>
      <trkpt lat="49.17943" lon="-0.3488">
        <ele>6.04356</ele>
        <time>2022-08-06T12:39:04.000Z</time>
      </trkpt>
      <trkpt lat="49.17942" lon="-0.34887">
        <ele>6.041983</ele>
        <time>2022-08-06T12:39:06.000Z</time>
      </trkpt>
      <trkpt lat="49.17942" lon="-0.3489">
        <ele>6.041283</ele>
        <time>2022-08-06T12:39:07.000Z</time>
      </trkpt>
      <trkpt lat="49.17942" lon="-0.34892">
        <ele>6.040621</ele>
        <time>2022-08-06T12:39:08.000Z</time>
      </trkpt>
      <trkpt lat="49.17941" lon="-0.34896">
        <ele>6.03973</ele>
        <time>2022-08-06T12:39:10.000Z</time>
      </trkpt>
      <trkpt lat="49.17944" lon="-0.34901">
        <ele>6.038064</ele>
        <time>2022-08-06T12:39:29.000Z</time>
      </trkpt>
      <trkpt lat="49.17946" lon="-0.34903">
        <ele>6.037296</ele>
        <time>2022-08-06T12:39:30.000Z</time>
      </trkpt>
      <trkpt lat="49.17948" lon="-0.34905">
        <ele>6.036473</ele>
        <time>2022-08-06T12:39:31.000Z</time>
      </trkpt>
      <trkpt lat="49.1795" lon="-0.34907">
        <ele>6.035529</ele>
        <time>2022-08-06T12:39:32.000Z</time>
      </trkpt>
      <trkpt lat="49.17952" lon="-0.34911">
        <ele>6.034351</ele>
        <time>2022-08-06T12:39:33.000Z</time>
      </trkpt>
      <trkpt lat="49.17955" lon="-0.34914">
        <ele>6.033241</ele>
        <time>2022-08-06T12:39:34.000Z</time>
      </trkpt>
      <trkpt lat="49.17958" lon="-0.34917">
        <ele>6.03189</ele>
        <time>2022-08-06T12:39:35.000Z</time>
      </trkpt>
      <trkpt lat="49.1796" lon="-0.3492">
        <ele>6.030727</ele>
        <time>2022-08-06T12:39:36.000Z</time>
      </trkpt>
      <trkpt lat="49.17964" lon="-0.34923">
        <ele>6.029444</ele>
        <time>2022-08-06T12:39:37.000Z</time>
      </trkpt>
      <trkpt lat="49.17966" lon="-0.34926">
        <ele>6.028195</ele>
        <time>2022-08-06T12:39:38.000Z</time>
      </trkpt>
      <trkpt lat="49.17969" lon="-0.34929">
        <ele>6.026919</ele>
        <time>2022-08-06T12:39:39.000Z</time>
      </trkpt>
      <trkpt lat="49.17972" lon="-0.34932">
        <ele>6.025629</ele>
        <time>2022-08-06T12:39:40.000Z</time>
      </trkpt>
      <trkpt lat="49.17975" lon="-0.34935">
        <ele>6.024252</ele>
        <time>2022-08-06T12:39:41.000Z</time>
      </trkpt>
      <trkpt lat="49.17979" lon="-0.34938">
        <ele>6.022913</ele>
        <time>2022-08-06T12:39:42.000Z</time>
      </trkpt>
      <trkpt lat="49.17982" lon="-0.34942">
        <ele>6.021523</ele>
        <time>2022-08-06T12:39:43.000Z</time>
      </trkpt>
      <trkpt lat="49.17985" lon="-0.34945">
        <ele>6.020018</ele>
        <time>2022-08-06T12:39:44.000Z</time>
      </trkpt>
      <trkpt lat="49.17988" lon="-0.34949">
        <ele>6.018824</ele>
        <time>2022-08-06T12:39:45.000Z</time>
      </trkpt>
      <trkpt lat="49.17992" lon="-0.34952">
        <ele>6.017198</ele>
        <time>2022-08-06T12:39:46.000Z</time>
      </trkpt>
      <trkpt lat="49.17996" lon="-0.34955">
        <ele>6.015447</ele>
        <time>2022-08-06T12:39:47.000Z</time>
      </trkpt>
      <trkpt lat="49.18" lon="-0.34957">
        <ele>6.013942</ele>
        <time>2022-08-06T12:39:48.000Z</time>
      </trkpt>
      <trkpt lat="49.18004" lon="-0.34958">
        <ele>6.012523</ele>
        <time>2022-08-06T12:39:49.000Z</time>
      </trkpt>
      <trkpt lat="49.18008" lon="-0.34959">
        <ele>6.011133</ele>
        <time>2022-08-06T12:39:50.000Z</time>
      </trkpt>
      <trkpt lat="49.18011" lon="-0.34961">
        <ele>6.010124</ele>
        <time>2022-08-06T12:39:51.000Z</time>
      </trkpt>
      <trkpt lat="49.18015" lon="-0.34964">
        <ele>5.996939</ele>
        <time>2022-08-06T12:39:52.000Z</time>
      </trkpt>
      <trkpt lat="49.18018" lon="-0.34967">
        <ele>5.974402</ele>
        <time>2022-08-06T12:39:53.000Z</time>
      </trkpt>
      <trkpt lat="49.18021" lon="-0.34971">
        <ele>5.940388</ele>
        <time>2022-08-06T12:39:54.000Z</time>
      </trkpt>
      <trkpt lat="49.18024" lon="-0.34974">
        <ele>5.916236</ele>
        <time>2022-08-06T12:39:55.000Z</time>
      </trkpt>
      <trkpt lat="49.18028" lon="-0.34975">
        <ele>5.891953</ele>
        <time>2022-08-06T12:39:56.000Z</time>
      </trkpt>
      <trkpt lat="49.1803" lon="-0.34977">
        <ele>5.873813</ele>
        <time>2022-08-06T12:39:57.000Z</time>
      </trkpt>
      <trkpt lat="49.18031" lon="-0.34978">
        <ele>5.860668</ele>
        <time>2022-08-06T12:39:59.000Z</time>
      </trkpt>
      <trkpt lat="49.18036" lon="-0.34987">
        <ele>5.808641</ele>
        <time>2022-08-06T12:40:25.000Z</time>
      </trkpt>
      <trkpt lat="49.18038" lon="-0.34991">
        <ele>5.781921</ele>
        <time>2022-08-06T12:40:26.000Z</time>
      </trkpt>
      <trkpt lat="49.1804" lon="-0.34996">
        <ele>5.754117</ele>
        <time>2022-08-06T12:40:27.000Z</time>
      </trkpt>
      <trkpt lat="49.18042" lon="-0.35001">
        <ele>5.725532</ele>
        <time>2022-08-06T12:40:28.000Z</time>
      </trkpt>
      <trkpt lat="49.18045" lon="-0.35006">
        <ele>5.694482</ele>
        <time>2022-08-06T12:40:29.000Z</time>
      </trkpt>
      <trkpt lat="49.18047" lon="-0.35011">
        <ele>5.66745</ele>
        <time>2022-08-06T12:40:30.000Z</time>
      </trkpt>
      <trkpt lat="49.1805" lon="-0.35016">
        <ele>5.635258</ele>
        <time>2022-08-06T12:40:31.000Z</time>
      </trkpt>
      <trkpt lat="49.18053" lon="-0.35022">
        <ele>5.600338</ele>
        <time>2022-08-06T12:40:32.000Z</time>
      </trkpt>
      <trkpt lat="49.18055" lon="-0.35027">
        <ele>5.570036</ele>
        <time>2022-08-06T12:40:33.000Z</time>
      </trkpt>
      <trkpt lat="49.18058" lon="-0.35032">
        <ele>5.53881</ele>
        <time>2022-08-06T12:40:34.000Z</time>
      </trkpt>
      <trkpt lat="49.18061" lon="-0.35037">
        <ele>5.507761</ele>
        <time>2022-08-06T12:40:35.000Z</time>
      </trkpt>
      <trkpt lat="49.18063" lon="-0.35042">
        <ele>5.476711</ele>
        <time>2022-08-06T12:40:36.000Z</time>
      </trkpt>
      <trkpt lat="49.18066" lon="-0.35047">
        <ele>5.446856</ele>
        <time>2022-08-06T12:40:37.000Z</time>
      </trkpt>
      <trkpt lat="49.18069" lon="-0.35054">
        <ele>5.409016</ele>
        <time>2022-08-06T12:40:38.000Z</time>
      </trkpt>
      <trkpt lat="49.18072" lon="-0.35059">
        <ele>5.376825</ele>
        <time>2022-08-06T12:40:39.000Z</time>
      </trkpt>
      <trkpt lat="49.18074" lon="-0.35064">
        <ele>5.347049</ele>
        <time>2022-08-06T12:40:40.000Z</time>
      </trkpt>
      <trkpt lat="49.18077" lon="-0.3507">
        <ele>5.313904</ele>
        <time>2022-08-06T12:40:41.000Z</time>
      </trkpt>
      <trkpt lat="49.1808" lon="-0.35075">
        <ele>5.281845</ele>
        <time>2022-08-06T12:40:42.000Z</time>
      </trkpt>
      <trkpt lat="49.18083" lon="-0.3508">
        <ele>5.249427</ele>
        <time>2022-08-06T12:40:43.000Z</time>
      </trkpt>
      <trkpt lat="49.18085" lon="-0.35085">
        <ele>5.218429</ele>
        <time>2022-08-06T12:40:44.000Z</time>
      </trkpt>
      <trkpt lat="49.18088" lon="-0.35091">
        <ele>5.185284</ele>
        <time>2022-08-06T12:40:45.000Z</time>
      </trkpt>
      <trkpt lat="49.18091" lon="-0.35096">
        <ele>5.153225</ele>
        <time>2022-08-06T12:40:46.000Z</time>
      </trkpt>
      <trkpt lat="49.18093" lon="-0.35101">
        <ele>5.121454</ele>
        <time>2022-08-06T12:40:47.000Z</time>
      </trkpt>
      <trkpt lat="49.18096" lon="-0.35107">
        <ele>5.087941</ele>
        <time>2022-08-06T12:40:48.000Z</time>
      </trkpt>
      <trkpt lat="49.18099" lon="-0.35112">
        <ele>5.057373</ele>
        <time>2022-08-06T12:40:49.000Z</time>
      </trkpt>
      <trkpt lat="49.18101" lon="-0.35117">
        <ele>5.03076</ele>
        <time>2022-08-06T12:40:50.000Z</time>
      </trkpt>
      <trkpt lat="49.18103" lon="-0.35122">
        <ele>5.002957</ele>
        <time>2022-08-06T12:40:51.000Z</time>
      </trkpt>
      <trkpt lat="49.18105" lon="-0.35127">
        <ele>4.973755</ele>
        <time>2022-08-06T12:40:52.000Z</time>
      </trkpt>
      <trkpt lat="49.18107" lon="-0.35131">
        <ele>4.949531</ele>
        <time>2022-08-06T12:40:53.000Z</time>
      </trkpt>
      <trkpt lat="49.1811" lon="-0.35137">
        <ele>4.911692</ele>
        <time>2022-08-06T12:40:54.000Z</time>
      </trkpt>
      <trkpt lat="49.18112" lon="-0.35141">
        <ele>4.887076</ele>
        <time>2022-08-06T12:40:55.000Z</time>
      </trkpt>
      <trkpt lat="49.18115" lon="-0.35147">
        <ele>4.854885</ele>
        <time>2022-08-06T12:40:56.000Z</time>
      </trkpt>
      <trkpt lat="49.18117" lon="-0.35152">
        <ele>4.82503</ele>
        <time>2022-08-06T12:40:57.000Z</time>
      </trkpt>
      <trkpt lat="49.18121" lon="-0.35157">
        <ele>4.790462</ele>
        <time>2022-08-06T12:40:58.000Z</time>
      </trkpt>
      <trkpt lat="49.18123" lon="-0.35163">
        <ele>4.759496</ele>
        <time>2022-08-06T12:40:59.000Z</time>
      </trkpt>
      <trkpt lat="49.18127" lon="-0.35169">
        <ele>4.717784</ele>
        <time>2022-08-06T12:41:00.000Z</time>
      </trkpt>
      <trkpt lat="49.18129" lon="-0.35174">
        <ele>4.701698</ele>
        <time>2022-08-06T12:41:01.000Z</time>
      </trkpt>
      <trkpt lat="49.18132" lon="-0.3518">
        <ele>4.693</ele>
        <time>2022-08-06T12:41:02.000Z</time>
      </trkpt>
      <trkpt lat="49.18135" lon="-0.35185">
        <ele>4.685997</ele>
        <time>2022-08-06T12:41:03.000Z</time>
      </trkpt>
      <trkpt lat="49.18138" lon="-0.3519">
        <ele>4.679192</ele>
        <time>2022-08-06T12:41:04.000Z</time>
      </trkpt>
      <trkpt lat="49.18141" lon="-0.35196">
        <ele>4.671847</ele>
        <time>2022-08-06T12:41:05.000Z</time>
      </trkpt>
      <trkpt lat="49.18143" lon="-0.352">
        <ele>4.666334</ele>
        <time>2022-08-06T12:41:06.000Z</time>
      </trkpt>
      <trkpt lat="49.18146" lon="-0.35207">
        <ele>4.657419</ele>
        <time>2022-08-06T12:41:07.000Z</time>
      </trkpt>
      <trkpt lat="49.18149" lon="-0.35212">
        <ele>4.650531</ele>
        <time>2022-08-06T12:41:08.000Z</time>
      </trkpt>
      <trkpt lat="49.18151" lon="-0.35216">
        <ele>4.644936</ele>
        <time>2022-08-06T12:41:09.000Z</time>
      </trkpt>
      <trkpt lat="49.18154" lon="-0.35221">
        <ele>4.637752</ele>
        <time>2022-08-06T12:41:10.000Z</time>
      </trkpt>
      <trkpt lat="49.18156" lon="-0.35227">
        <ele>4.631226</ele>
        <time>2022-08-06T12:41:11.000Z</time>
      </trkpt>
      <trkpt lat="49.18159" lon="-0.35232">
        <ele>4.624432</ele>
        <time>2022-08-06T12:41:12.000Z</time>
      </trkpt>
      <trkpt lat="49.18161" lon="-0.35237">
        <ele>4.617733</ele>
        <time>2022-08-06T12:41:13.000Z</time>
      </trkpt>
      <trkpt lat="49.18164" lon="-0.35243">
        <ele>4.609603</ele>
        <time>2022-08-06T12:41:14.000Z</time>
      </trkpt>
      <trkpt lat="49.18166" lon="-0.35249">
        <ele>4.603164</ele>
        <time>2022-08-06T12:41:15.000Z</time>
      </trkpt>
      <trkpt lat="49.18169" lon="-0.35254">
        <ele>4.596639</ele>
        <time>2022-08-06T12:41:16.000Z</time>
      </trkpt>
      <trkpt lat="49.18171" lon="-0.35259">
        <ele>4.589852</ele>
        <time>2022-08-06T12:41:17.000Z</time>
      </trkpt>
      <trkpt lat="49.18173" lon="-0.35263">
        <ele>4.584418</ele>
        <time>2022-08-06T12:41:18.000Z</time>
      </trkpt>
      <trkpt lat="49.18177" lon="-0.3527">
        <ele>4.575903</ele>
        <time>2022-08-06T12:41:19.000Z</time>
      </trkpt>
      <trkpt lat="49.18179" lon="-0.35275">
        <ele>4.56929</ele>
        <time>2022-08-06T12:41:20.000Z</time>
      </trkpt>
      <trkpt lat="49.18181" lon="-0.3528">
        <ele>4.562588</ele>
        <time>2022-08-06T12:41:21.000Z</time>
      </trkpt>
      <trkpt lat="49.18184" lon="-0.35286">
        <ele>4.555243</ele>
        <time>2022-08-06T12:41:22.000Z</time>
      </trkpt>
      <trkpt lat="49.18187" lon="-0.35291">
        <ele>4.548272</ele>
        <time>2022-08-06T12:41:23.000Z</time>
      </trkpt>
      <trkpt lat="49.18189" lon="-0.35295">
        <ele>4.543048</ele>
        <time>2022-08-06T12:41:24.000Z</time>
      </trkpt>
      <trkpt lat="49.18192" lon="-0.35302">
        <ele>4.53397</ele>
        <time>2022-08-06T12:41:25.000Z</time>
      </trkpt>
      <trkpt lat="49.18195" lon="-0.35308">
        <ele>4.527082</ele>
        <time>2022-08-06T12:41:26.000Z</time>
      </trkpt>
      <trkpt lat="49.18197" lon="-0.35313">
        <ele>4.520119</ele>
        <time>2022-08-06T12:41:27.000Z</time>
      </trkpt>
      <trkpt lat="49.18199" lon="-0.35317">
        <ele>4.514724</ele>
        <time>2022-08-06T12:41:28.000Z</time>
      </trkpt>
      <trkpt lat="49.18202" lon="-0.35323">
        <ele>4.50707</ele>
        <time>2022-08-06T12:41:29.000Z</time>
      </trkpt>
      <trkpt lat="49.18204" lon="-0.35327">
        <ele>4.501414</ele>
        <time>2022-08-06T12:41:30.000Z</time>
      </trkpt>
      <trkpt lat="49.18205" lon="-0.35333">
        <ele>4.495823</ele>
        <time>2022-08-06T12:41:31.000Z</time>
      </trkpt>
      <trkpt lat="49.18206" lon="-0.35336">
        <ele>4.492136</ele>
        <time>2022-08-06T12:41:32.000Z</time>
      </trkpt>
      <trkpt lat="49.18206" lon="-0.35339">
        <ele>4.488467</ele>
        <time>2022-08-06T12:41:33.000Z</time>
      </trkpt>
      <trkpt lat="49.18203" lon="-0.35341">
        <ele>4.484048</ele>
        <time>2022-08-06T12:41:34.000Z</time>
      </trkpt>
      <trkpt lat="49.18201" lon="-0.35337">
        <ele>4.479001</ele>
        <time>2022-08-06T12:41:36.000Z</time>
      </trkpt>
      <trkpt lat="49.18202" lon="-0.35334">
        <ele>4.47557</ele>
        <time>2022-08-06T12:41:38.000Z</time>
      </trkpt>
      <trkpt lat="49.18204" lon="-0.35332">
        <ele>4.471413</ele>
        <time>2022-08-06T12:41:39.000Z</time>
      </trkpt>
      <trkpt lat="49.18206" lon="-0.35331">
        <ele>4.468104</ele>
        <time>2022-08-06T12:41:40.000Z</time>
      </trkpt>
      <trkpt lat="49.18208" lon="-0.35329">
        <ele>4.463746</ele>
        <time>2022-08-06T12:41:42.000Z</time>
      </trkpt>
      <trkpt lat="49.18211" lon="-0.35329">
        <ele>4.460082</ele>
        <time>2022-08-06T12:41:44.000Z</time>
      </trkpt>
      <trkpt lat="49.18214" lon="-0.35328">
        <ele>4.454843</ele>
        <time>2022-08-06T12:41:46.000Z</time>
      </trkpt>
      <trkpt lat="49.18217" lon="-0.35328">
        <ele>4.449687</ele>
        <time>2022-08-06T12:41:48.000Z</time>
      </trkpt>
      <trkpt lat="49.18219" lon="-0.3533">
        <ele>4.446187</ele>
        <time>2022-08-06T12:41:49.000Z</time>
      </trkpt>
      <trkpt lat="49.1822" lon="-0.35332">
        <ele>4.443027</ele>
        <time>2022-08-06T12:41:50.000Z</time>
      </trkpt>
      <trkpt lat="49.18221" lon="-0.35335">
        <ele>4.439975</ele>
        <time>2022-08-06T12:41:51.000Z</time>
      </trkpt>
      <trkpt lat="49.1822" lon="-0.35338">
        <ele>4.437026</ele>
        <time>2022-08-06T12:41:52.000Z</time>
      </trkpt>
      <trkpt lat="49.18219" lon="-0.3534">
        <ele>4.434094</ele>
        <time>2022-08-06T12:41:53.000Z</time>
      </trkpt>
      <trkpt lat="49.18217" lon="-0.35341">
        <ele>4.430899</ele>
        <time>2022-08-06T12:41:54.000Z</time>
      </trkpt>
      <trkpt lat="49.18214" lon="-0.35341">
        <ele>4.426283</ele>
        <time>2022-08-06T12:41:56.000Z</time>
      </trkpt>
      <trkpt lat="49.18211" lon="-0.35339">
        <ele>4.42096</ele>
        <time>2022-08-06T12:41:58.000Z</time>
      </trkpt>
      <trkpt lat="49.18208" lon="-0.3534">
        <ele>4.42487</ele>
        <time>2022-08-06T12:42:00.000Z</time>
      </trkpt>
      <trkpt lat="49.18206" lon="-0.35342">
        <ele>4.438361</ele>
        <time>2022-08-06T12:42:01.000Z</time>
      </trkpt>
      <trkpt lat="49.18206" lon="-0.35345">
        <ele>4.450715</ele>
        <time>2022-08-06T12:42:02.000Z</time>
      </trkpt>
      <trkpt lat="49.18209" lon="-0.35347">
        <ele>4.473327</ele>
        <time>2022-08-06T12:42:04.000Z</time>
      </trkpt>
      <trkpt lat="49.18211" lon="-0.35346">
        <ele>4.487988</ele>
        <time>2022-08-06T12:42:05.000Z</time>
      </trkpt>
      <trkpt lat="49.18213" lon="-0.35344">
        <ele>4.504606</ele>
        <time>2022-08-06T12:42:06.000Z</time>
      </trkpt>
      <trkpt lat="49.18215" lon="-0.35341">
        <ele>4.521018</ele>
        <time>2022-08-06T12:42:07.000Z</time>
      </trkpt>
      <trkpt lat="49.18216" lon="-0.35338">
        <ele>4.537794</ele>
        <time>2022-08-06T12:42:08.000Z</time>
      </trkpt>
      <trkpt lat="49.18216" lon="-0.35334">
        <ele>4.554339</ele>
        <time>2022-08-06T12:42:09.000Z</time>
      </trkpt>
      <trkpt lat="49.18215" lon="-0.35331">
        <ele>4.570743</ele>
        <time>2022-08-06T12:42:10.000Z</time>
      </trkpt>
      <trkpt lat="49.18212" lon="-0.35329">
        <ele>4.590808</ele>
        <time>2022-08-06T12:42:12.000Z</time>
      </trkpt>
      <trkpt lat="49.1821" lon="-0.35332">
        <ele>4.609163</ele>
        <time>2022-08-06T12:42:13.000Z</time>
      </trkpt>
      <trkpt lat="49.1821" lon="-0.35336">
        <ele>4.624917</ele>
        <time>2022-08-06T12:42:14.000Z</time>
      </trkpt>
      <trkpt lat="49.18209" lon="-0.35338">
        <ele>4.636922</ele>
        <time>2022-08-06T12:42:15.000Z</time>
      </trkpt>
      <trkpt lat="49.18208" lon="-0.35342">
        <ele>4.652365</ele>
        <time>2022-08-06T12:42:17.000Z</time>
      </trkpt>
      <trkpt lat="49.18205" lon="-0.35341">
        <ele>4.673698</ele>
        <time>2022-08-06T12:42:19.000Z</time>
      </trkpt>
      <trkpt lat="49.18203" lon="-0.3534">
        <ele>4.685765</ele>
        <time>2022-08-06T12:42:20.000Z</time>
      </trkpt>
      <trkpt lat="49.18199" lon="-0.35338">
        <ele>4.715064</ele>
        <time>2022-08-06T12:42:22.000Z</time>
      </trkpt>
      <trkpt lat="49.18196" lon="-0.35338">
        <ele>4.736397</ele>
        <time>2022-08-06T12:42:24.000Z</time>
      </trkpt>
      <trkpt lat="49.18193" lon="-0.3534">
        <ele>4.756291</ele>
        <time>2022-08-06T12:42:26.000Z</time>
      </trkpt>
      <trkpt lat="49.18191" lon="-0.35344">
        <ele>4.778518</ele>
        <time>2022-08-06T12:42:28.000Z</time>
      </trkpt>
      <trkpt lat="49.18189" lon="-0.35345">
        <ele>4.791494</ele>
        <time>2022-08-06T12:42:29.000Z</time>
      </trkpt>
      <trkpt lat="49.18187" lon="-0.35347">
        <ele>4.80594</ele>
        <time>2022-08-06T12:42:30.000Z</time>
      </trkpt>
      <trkpt lat="49.18183" lon="-0.35351">
        <ele>4.840606</ele>
        <time>2022-08-06T12:42:32.000Z</time>
      </trkpt>
      <trkpt lat="49.18181" lon="-0.35354">
        <ele>4.857879</ele>
        <time>2022-08-06T12:42:33.000Z</time>
      </trkpt>
      <trkpt lat="49.18179" lon="-0.35356">
        <ele>4.874572</ele>
        <time>2022-08-06T12:42:34.000Z</time>
      </trkpt>
      <trkpt lat="49.18177" lon="-0.35359">
        <ele>4.891845</ele>
        <time>2022-08-06T12:42:35.000Z</time>
      </trkpt>
      <trkpt lat="49.18176" lon="-0.35364">
        <ele>4.914611</ele>
        <time>2022-08-06T12:42:37.000Z</time>
      </trkpt>
      <trkpt lat="49.18175" lon="-0.35367">
        <ele>4.928271</ele>
        <time>2022-08-06T12:42:38.000Z</time>
      </trkpt>
      <trkpt lat="49.18174" lon="-0.35371">
        <ele>4.948965</ele>
        <time>2022-08-06T12:42:40.000Z</time>
      </trkpt>
      <trkpt lat="49.18173" lon="-0.35375">
        <ele>4.967919</ele>
        <time>2022-08-06T12:42:42.000Z</time>
      </trkpt>
      <trkpt lat="49.18171" lon="-0.35377">
        <ele>4.982845</ele>
        <time>2022-08-06T12:42:43.000Z</time>
      </trkpt>
      <trkpt lat="49.18169" lon="-0.35379">
        <ele>4.997291</ele>
        <time>2022-08-06T12:42:45.000Z</time>
      </trkpt>
      <trkpt lat="49.18163" lon="-0.35386">
        <ele>5.049146</ele>
        <time>2022-08-06T12:43:14.000Z</time>
      </trkpt>
      <trkpt lat="49.18162" lon="-0.35389">
        <ele>5.065182</ele>
        <time>2022-08-06T12:43:15.000Z</time>
      </trkpt>
      <trkpt lat="49.18159" lon="-0.35393">
        <ele>5.091191</ele>
        <time>2022-08-06T12:43:16.000Z</time>
      </trkpt>
      <trkpt lat="49.18157" lon="-0.35397">
        <ele>5.111411</ele>
        <time>2022-08-06T12:43:17.000Z</time>
      </trkpt>
      <trkpt lat="49.18154" lon="-0.354">
        <ele>5.13448</ele>
        <time>2022-08-06T12:43:18.000Z</time>
      </trkpt>
      <trkpt lat="49.18151" lon="-0.35404">
        <ele>5.159124</ele>
        <time>2022-08-06T12:43:19.000Z</time>
      </trkpt>
      <trkpt lat="49.18147" lon="-0.35409">
        <ele>5.194044</ele>
        <time>2022-08-06T12:43:21.000Z</time>
      </trkpt>
      <trkpt lat="49.18145" lon="-0.35411">
        <ele>5.215223</ele>
        <time>2022-08-06T12:43:22.000Z</time>
      </trkpt>
      <trkpt lat="49.18142" lon="-0.35414">
        <ele>5.23273</ele>
        <time>2022-08-06T12:43:23.000Z</time>
      </trkpt>
      <trkpt lat="49.1814" lon="-0.35417">
        <ele>5.257883</ele>
        <time>2022-08-06T12:43:25.000Z</time>
      </trkpt>
      <trkpt lat="49.18138" lon="-0.35419">
        <ele>5.272768</ele>
        <time>2022-08-06T12:43:26.000Z</time>
      </trkpt>
      <trkpt lat="49.18135" lon="-0.35421">
        <ele>5.289814</ele>
        <time>2022-08-06T12:43:27.000Z</time>
      </trkpt>
      <trkpt lat="49.18133" lon="-0.35423">
        <ele>5.307023</ele>
        <time>2022-08-06T12:43:28.000Z</time>
      </trkpt>
      <trkpt lat="49.18131" lon="-0.35425">
        <ele>5.322385</ele>
        <time>2022-08-06T12:43:29.000Z</time>
      </trkpt>
      <trkpt lat="49.18129" lon="-0.35427">
        <ele>5.338797</ele>
        <time>2022-08-06T12:43:30.000Z</time>
      </trkpt>
      <trkpt lat="49.18127" lon="-0.3543">
        <ele>5.356984</ele>
        <time>2022-08-06T12:43:31.000Z</time>
      </trkpt>
      <trkpt lat="49.18125" lon="-0.35433">
        <ele>5.377402</ele>
        <time>2022-08-06T12:43:32.000Z</time>
      </trkpt>
      <trkpt lat="49.18123" lon="-0.35437">
        <ele>5.396225</ele>
        <time>2022-08-06T12:43:33.000Z</time>
      </trkpt>
      <trkpt lat="49.18121" lon="-0.3544">
        <ele>5.414412</ele>
        <time>2022-08-06T12:43:34.000Z</time>
      </trkpt>
      <trkpt lat="49.18119" lon="-0.35442">
        <ele>5.435591</ele>
        <time>2022-08-06T12:43:35.000Z</time>
      </trkpt>
      <trkpt lat="49.18116" lon="-0.35445">
        <ele>5.459933</ele>
        <time>2022-08-06T12:43:36.000Z</time>
      </trkpt>
      <trkpt lat="49.18112" lon="-0.35448">
        <ele>5.484488</ele>
        <time>2022-08-06T12:43:37.000Z</time>
      </trkpt>
      <trkpt lat="49.18109" lon="-0.35451">
        <ele>5.511647</ele>
        <time>2022-08-06T12:43:38.000Z</time>
      </trkpt>
      <trkpt lat="49.18107" lon="-0.35454">
        <ele>5.530709</ele>
        <time>2022-08-06T12:43:39.000Z</time>
      </trkpt>
      <trkpt lat="49.18105" lon="-0.35457">
        <ele>5.548476</ele>
        <time>2022-08-06T12:43:40.000Z</time>
      </trkpt>
      <trkpt lat="49.18103" lon="-0.35459">
        <ele>5.562239</ele>
        <time>2022-08-06T12:43:41.000Z</time>
      </trkpt>
      <trkpt lat="49.18101" lon="-0.35461">
        <ele>5.578111</ele>
        <time>2022-08-06T12:43:42.000Z</time>
      </trkpt>
      <trkpt lat="49.18099" lon="-0.35463">
        <ele>5.594804</ele>
        <time>2022-08-06T12:43:43.000Z</time>
      </trkpt>
      <trkpt lat="49.18097" lon="-0.35466">
        <ele>5.613058</ele>
        <time>2022-08-06T12:43:44.000Z</time>
      </trkpt>
      <trkpt lat="49.18095" lon="-0.35468">
        <ele>5.616021</ele>
        <time>2022-08-06T12:43:45.000Z</time>
      </trkpt>
      <trkpt lat="49.18093" lon="-0.35471">
        <ele>5.616021</ele>
        <time>2022-08-06T12:43:47.000Z</time>
      </trkpt>
      <trkpt lat="49.18091" lon="-0.35474">
        <ele>5.616021</ele>
        <time>2022-08-06T12:43:49.000Z</time>
      </trkpt>
      <trkpt lat="49.18089" lon="-0.35476">
        <ele>5.616021</ele>
        <time>2022-08-06T12:43:50.000Z</time>
      </trkpt>
      <trkpt lat="49.18088" lon="-0.35481">
        <ele>5.616021</ele>
        <time>2022-08-06T12:43:52.000Z</time>
      </trkpt>
      <trkpt lat="49.18087" lon="-0.35484">
        <ele>5.616021</ele>
        <time>2022-08-06T12:43:53.000Z</time>
      </trkpt>
      <trkpt lat="49.18088" lon="-0.35488">
        <ele>5.616021</ele>
        <time>2022-08-06T12:43:56.000Z</time>
      </trkpt>
      <trkpt lat="49.1809" lon="-0.35489">
        <ele>5.616021</ele>
        <time>2022-08-06T12:43:57.000Z</time>
      </trkpt>
      <trkpt lat="49.18092" lon="-0.35492">
        <ele>5.616021</ele>
        <time>2022-08-06T12:43:58.000Z</time>
      </trkpt>
      <trkpt lat="49.18093" lon="-0.35494">
        <ele>5.616021</ele>
        <time>2022-08-06T12:43:59.000Z</time>
      </trkpt>
      <trkpt lat="49.18093" lon="-0.35497">
        <ele>5.616021</ele>
        <time>2022-08-06T12:44:00.000Z</time>
      </trkpt>
      <trkpt lat="49.18095" lon="-0.355">
        <ele>5.616021</ele>
        <time>2022-08-06T12:44:01.000Z</time>
      </trkpt>
      <trkpt lat="49.18096" lon="-0.35503">
        <ele>5.616021</ele>
        <time>2022-08-06T12:44:02.000Z</time>
      </trkpt>
      <trkpt lat="49.18097" lon="-0.35506">
        <ele>5.616021</ele>
        <time>2022-08-06T12:44:03.000Z</time>
      </trkpt>
      <trkpt lat="49.18099" lon="-0.35509">
        <ele>5.616021</ele>
        <time>2022-08-06T12:44:04.000Z</time>
      </trkpt>
      <trkpt lat="49.181" lon="-0.35512">
        <ele>5.616021</ele>
        <time>2022-08-06T12:44:05.000Z</time>
      </trkpt>
      <trkpt lat="49.18101" lon="-0.35514">
        <ele>5.616021</ele>
        <time>2022-08-06T12:44:06.000Z</time>
      </trkpt>
      <trkpt lat="49.18103" lon="-0.35517">
        <ele>5.616021</ele>
        <time>2022-08-06T12:44:07.000Z</time>
      </trkpt>
      <trkpt lat="49.18103" lon="-0.3552">
        <ele>5.616021</ele>
        <time>2022-08-06T12:44:08.000Z</time>
      </trkpt>
      <trkpt lat="49.18104" lon="-0.35523">
        <ele>5.616021</ele>
        <time>2022-08-06T12:44:09.000Z</time>
      </trkpt>
      <trkpt lat="49.18106" lon="-0.35528">
        <ele>5.616021</ele>
        <time>2022-08-06T12:44:11.000Z</time>
      </trkpt>
      <trkpt lat="49.18107" lon="-0.35532">
        <ele>5.616021</ele>
        <time>2022-08-06T12:44:13.000Z</time>
      </trkpt>
      <trkpt lat="49.18108" lon="-0.35536">
        <ele>5.616021</ele>
        <time>2022-08-06T12:44:15.000Z</time>
      </trkpt>
      <trkpt lat="49.18109" lon="-0.35539">
        <ele>5.616021</ele>
        <time>2022-08-06T12:44:16.000Z</time>
      </trkpt>
      <trkpt lat="49.1811" lon="-0.35541">
        <ele>5.616021</ele>
        <time>2022-08-06T12:44:17.000Z</time>
      </trkpt>
      <trkpt lat="49.18113" lon="-0.35544">
        <ele>5.616021</ele>
        <time>2022-08-06T12:44:19.000Z</time>
      </trkpt>
      <trkpt lat="49.18114" lon="-0.35547">
        <ele>5.616021</ele>
        <time>2022-08-06T12:44:21.000Z</time>
      </trkpt>
      <trkpt lat="49.18115" lon="-0.35549">
        <ele>5.616021</ele>
        <time>2022-08-06T12:44:23.000Z</time>
      </trkpt>
      <trkpt lat="49.18115" lon="-0.35553">
        <ele>5.616021</ele>
        <time>2022-08-06T12:44:25.000Z</time>
      </trkpt>
      <trkpt lat="49.18117" lon="-0.35557">
        <ele>5.616021</ele>
        <time>2022-08-06T12:44:27.000Z</time>
      </trkpt>
      <trkpt lat="49.18118" lon="-0.3556">
        <ele>5.616021</ele>
        <time>2022-08-06T12:44:28.000Z</time>
      </trkpt>
      <trkpt lat="49.18119" lon="-0.35562">
        <ele>5.616021</ele>
        <time>2022-08-06T12:44:29.000Z</time>
      </trkpt>
      <trkpt lat="49.1812" lon="-0.35565">
        <ele>5.616021</ele>
        <time>2022-08-06T12:44:30.000Z</time>
      </trkpt>
      <trkpt lat="49.18121" lon="-0.35569">
        <ele>5.616021</ele>
        <time>2022-08-06T12:44:31.000Z</time>
      </trkpt>
      <trkpt lat="49.18123" lon="-0.35571">
        <ele>5.616021</ele>
        <time>2022-08-06T12:44:32.000Z</time>
      </trkpt>
      <trkpt lat="49.18124" lon="-0.35574">
        <ele>5.616021</ele>
        <time>2022-08-06T12:44:33.000Z</time>
      </trkpt>
      <trkpt lat="49.18125" lon="-0.35576">
        <ele>5.616021</ele>
        <time>2022-08-06T12:44:34.000Z</time>
      </trkpt>
      <trkpt lat="49.18127" lon="-0.35579">
        <ele>5.616021</ele>
        <time>2022-08-06T12:44:35.000Z</time>
      </trkpt>
      <trkpt lat="49.18128" lon="-0.3558">
        <ele>5.616021</ele>
        <time>2022-08-06T12:44:36.000Z</time>
      </trkpt>
      <trkpt lat="49.18131" lon="-0.35584">
        <ele>5.616021</ele>
        <time>2022-08-06T12:44:38.000Z</time>
      </trkpt>
      <trkpt lat="49.18131" lon="-0.35588">
        <ele>5.616021</ele>
        <time>2022-08-06T12:44:40.000Z</time>
      </trkpt>
      <trkpt lat="49.18133" lon="-0.35592">
        <ele>5.616021</ele>
        <time>2022-08-06T12:44:42.000Z</time>
      </trkpt>
      <trkpt lat="49.18135" lon="-0.35597">
        <ele>5.616021</ele>
        <time>2022-08-06T12:44:44.000Z</time>
      </trkpt>
      <trkpt lat="49.18136" lon="-0.35599">
        <ele>5.616021</ele>
        <time>2022-08-06T12:44:45.000Z</time>
      </trkpt>
      <trkpt lat="49.18137" lon="-0.35602">
        <ele>5.616021</ele>
        <time>2022-08-06T12:44:46.000Z</time>
      </trkpt>
      <trkpt lat="49.18139" lon="-0.35604">
        <ele>5.616021</ele>
        <time>2022-08-06T12:44:47.000Z</time>
      </trkpt>
      <trkpt lat="49.1814" lon="-0.35606">
        <ele>5.616021</ele>
        <time>2022-08-06T12:44:48.000Z</time>
      </trkpt>
      <trkpt lat="49.18141" lon="-0.3561">
        <ele>5.616021</ele>
        <time>2022-08-06T12:44:50.000Z</time>
      </trkpt>
      <trkpt lat="49.18134" lon="-0.35599">
        <ele>5.616021</ele>
        <time>2022-08-06T12:45:42.000Z</time>
      </trkpt>
      <trkpt lat="49.18132" lon="-0.35594">
        <ele>5.616021</ele>
        <time>2022-08-06T12:45:43.000Z</time>
      </trkpt>
      <trkpt lat="49.1813" lon="-0.35587">
        <ele>5.616021</ele>
        <time>2022-08-06T12:45:44.000Z</time>
      </trkpt>
      <trkpt lat="49.18127" lon="-0.35581">
        <ele>5.616021</ele>
        <time>2022-08-06T12:45:45.000Z</time>
      </trkpt>
      <trkpt lat="49.18124" lon="-0.35575">
        <ele>5.616021</ele>
        <time>2022-08-06T12:45:46.000Z</time>
      </trkpt>
      <trkpt lat="49.18121" lon="-0.35569">
        <ele>5.616021</ele>
        <time>2022-08-06T12:45:47.000Z</time>
      </trkpt>
      <trkpt lat="49.18118" lon="-0.35563">
        <ele>5.616021</ele>
        <time>2022-08-06T12:45:48.000Z</time>
      </trkpt>
      <trkpt lat="49.18115" lon="-0.35557">
        <ele>5.616021</ele>
        <time>2022-08-06T12:45:49.000Z</time>
      </trkpt>
      <trkpt lat="49.18112" lon="-0.35552">
        <ele>5.616021</ele>
        <time>2022-08-06T12:45:50.000Z</time>
      </trkpt>
      <trkpt lat="49.18109" lon="-0.35547">
        <ele>5.616021</ele>
        <time>2022-08-06T12:45:51.000Z</time>
      </trkpt>
      <trkpt lat="49.18107" lon="-0.35543">
        <ele>5.616021</ele>
        <time>2022-08-06T12:45:52.000Z</time>
      </trkpt>
      <trkpt lat="49.18105" lon="-0.35539">
        <ele>5.616021</ele>
        <time>2022-08-06T12:45:53.000Z</time>
      </trkpt>
      <trkpt lat="49.18102" lon="-0.35534">
        <ele>5.616021</ele>
        <time>2022-08-06T12:45:54.000Z</time>
      </trkpt>
      <trkpt lat="49.181" lon="-0.3553">
        <ele>5.616021</ele>
        <time>2022-08-06T12:45:55.000Z</time>
      </trkpt>
      <trkpt lat="49.18098" lon="-0.35525">
        <ele>5.616021</ele>
        <time>2022-08-06T12:45:56.000Z</time>
      </trkpt>
      <trkpt lat="49.18096" lon="-0.35521">
        <ele>5.616021</ele>
        <time>2022-08-06T12:45:57.000Z</time>
      </trkpt>
      <trkpt lat="49.18093" lon="-0.35517">
        <ele>5.616021</ele>
        <time>2022-08-06T12:45:58.000Z</time>
      </trkpt>
      <trkpt lat="49.18092" lon="-0.35514">
        <ele>5.616021</ele>
        <time>2022-08-06T12:45:59.000Z</time>
      </trkpt>
      <trkpt lat="49.1809" lon="-0.35511">
        <ele>5.616021</ele>
        <time>2022-08-06T12:46:00.000Z</time>
      </trkpt>
      <trkpt lat="49.18087" lon="-0.35508">
        <ele>5.616021</ele>
        <time>2022-08-06T12:46:02.000Z</time>
      </trkpt>
      <trkpt lat="49.18085" lon="-0.35497">
        <ele>5.616021</ele>
        <time>2022-08-06T12:46:14.000Z</time>
      </trkpt>
      <trkpt lat="49.18089" lon="-0.35496">
        <ele>5.616021</ele>
        <time>2022-08-06T12:46:16.000Z</time>
      </trkpt>
      <trkpt lat="49.18091" lon="-0.35497">
        <ele>5.616021</ele>
        <time>2022-08-06T12:46:18.000Z</time>
      </trkpt>
    </trkseg>
  </trk>
</gpx>